<?xml version="1.0" encoding="UTF-8" standalone="no" ?>
<gpx xmlns="http://www.topografix.com/GPX/1/1" xmlns:xsi="http://www.w3.org/2001/XMLSchema-instance" xsi:schemaLocation="http://www.topografix.com/GPX/1/1 http://www.topografix.com/GPX/1/1/gpx.xsd" version="1.1" creator="VisuGPX - https://www.visugpx.com">
  <metadata>
    <name>UTMB UTB PSB</name>
  </metadata>
  <trk>
    <name><![CDATA[Ultra trail du Beaufortain 🎊]]></name>
    <extensions>
      <line xmlns="http://www.topografix.com/GPX/gpx_style/0/2">
        <color>0000FF</color>
        <width>4</width>
      </line>
    </extensions>
    <trkseg>
      <trkpt lat="45.71696" lon="6.45842">
        <ele>683</ele>
        <time>2022-07-16T02:01:30Z</time>
      </trkpt>
      <trkpt lat="45.71697" lon="6.45841">
        <ele>683</ele>
        <time>2022-07-16T02:01:31Z</time>
      </trkpt>
      <trkpt lat="45.71698" lon="6.4584">
        <ele>683</ele>
        <time>2022-07-16T02:01:32Z</time>
      </trkpt>
      <trkpt lat="45.71704" lon="6.4583">
        <ele>683</ele>
        <time>2022-07-16T02:01:34Z</time>
      </trkpt>
      <trkpt lat="45.71706" lon="6.45826">
        <ele>683</ele>
        <time>2022-07-16T02:01:35Z</time>
      </trkpt>
      <trkpt lat="45.71708" lon="6.45822">
        <ele>683</ele>
        <time>2022-07-16T02:01:36Z</time>
      </trkpt>
      <trkpt lat="45.71709" lon="6.45819">
        <ele>683</ele>
        <time>2022-07-16T02:01:37Z</time>
      </trkpt>
      <trkpt lat="45.7171" lon="6.45816">
        <ele>683</ele>
        <time>2022-07-16T02:01:38Z</time>
      </trkpt>
      <trkpt lat="45.71711" lon="6.45813">
        <ele>683</ele>
        <time>2022-07-16T02:01:39Z</time>
      </trkpt>
      <trkpt lat="45.71712" lon="6.4581">
        <ele>683</ele>
        <time>2022-07-16T02:01:40Z</time>
      </trkpt>
      <trkpt lat="45.71712" lon="6.45807">
        <ele>683</ele>
        <time>2022-07-16T02:01:41Z</time>
      </trkpt>
      <trkpt lat="45.71713" lon="6.45803">
        <ele>683</ele>
        <time>2022-07-16T02:01:42Z</time>
      </trkpt>
      <trkpt lat="45.71714" lon="6.458">
        <ele>683</ele>
        <time>2022-07-16T02:01:43Z</time>
      </trkpt>
      <trkpt lat="45.71714" lon="6.45797">
        <ele>683</ele>
        <time>2022-07-16T02:01:44Z</time>
      </trkpt>
      <trkpt lat="45.71714" lon="6.45795">
        <ele>683</ele>
        <time>2022-07-16T02:01:45Z</time>
      </trkpt>
      <trkpt lat="45.71714" lon="6.45793">
        <ele>683</ele>
        <time>2022-07-16T02:01:46Z</time>
      </trkpt>
      <trkpt lat="45.71714" lon="6.45791">
        <ele>683</ele>
        <time>2022-07-16T02:01:47Z</time>
      </trkpt>
      <trkpt lat="45.71714" lon="6.45789">
        <ele>683</ele>
        <time>2022-07-16T02:01:48Z</time>
      </trkpt>
      <trkpt lat="45.71712" lon="6.45779">
        <ele>683</ele>
        <time>2022-07-16T02:01:49Z</time>
      </trkpt>
      <trkpt lat="45.71712" lon="6.45776">
        <ele>683</ele>
        <time>2022-07-16T02:01:50Z</time>
      </trkpt>
      <trkpt lat="45.71711" lon="6.45773">
        <ele>683</ele>
        <time>2022-07-16T02:01:51Z</time>
      </trkpt>
      <trkpt lat="45.7171" lon="6.4577">
        <ele>683</ele>
        <time>2022-07-16T02:01:52Z</time>
      </trkpt>
      <trkpt lat="45.71708" lon="6.45768">
        <ele>683</ele>
        <time>2022-07-16T02:01:53Z</time>
      </trkpt>
      <trkpt lat="45.71706" lon="6.45765">
        <ele>683</ele>
        <time>2022-07-16T02:01:54Z</time>
      </trkpt>
      <trkpt lat="45.71704" lon="6.45763">
        <ele>683</ele>
        <time>2022-07-16T02:01:55Z</time>
      </trkpt>
      <trkpt lat="45.71703" lon="6.45761">
        <ele>683</ele>
        <time>2022-07-16T02:01:56Z</time>
      </trkpt>
      <trkpt lat="45.717" lon="6.4576">
        <ele>683</ele>
        <time>2022-07-16T02:01:57Z</time>
      </trkpt>
      <trkpt lat="45.71698" lon="6.4576">
        <ele>683</ele>
        <time>2022-07-16T02:01:58Z</time>
      </trkpt>
      <trkpt lat="45.71695" lon="6.45759">
        <ele>683</ele>
        <time>2022-07-16T02:01:59Z</time>
      </trkpt>
      <trkpt lat="45.71693" lon="6.45758">
        <ele>683</ele>
        <time>2022-07-16T02:02:00Z</time>
      </trkpt>
      <trkpt lat="45.71691" lon="6.45758">
        <ele>683</ele>
        <time>2022-07-16T02:02:01Z</time>
      </trkpt>
      <trkpt lat="45.7169" lon="6.45758">
        <ele>683</ele>
        <time>2022-07-16T02:02:02Z</time>
      </trkpt>
      <trkpt lat="45.71689" lon="6.45758">
        <ele>683</ele>
        <time>2022-07-16T02:02:03Z</time>
      </trkpt>
      <trkpt lat="45.71687" lon="6.45758">
        <ele>683</ele>
        <time>2022-07-16T02:02:04Z</time>
      </trkpt>
      <trkpt lat="45.71679" lon="6.45758">
        <ele>683</ele>
        <time>2022-07-16T02:02:05Z</time>
      </trkpt>
      <trkpt lat="45.71677" lon="6.45757">
        <ele>683</ele>
        <time>2022-07-16T02:02:06Z</time>
      </trkpt>
      <trkpt lat="45.71675" lon="6.45757">
        <ele>683</ele>
        <time>2022-07-16T02:02:07Z</time>
      </trkpt>
      <trkpt lat="45.71672" lon="6.45757">
        <ele>683</ele>
        <time>2022-07-16T02:02:08Z</time>
      </trkpt>
      <trkpt lat="45.71669" lon="6.45756">
        <ele>683</ele>
        <time>2022-07-16T02:02:09Z</time>
      </trkpt>
      <trkpt lat="45.71665" lon="6.45756">
        <ele>683</ele>
        <time>2022-07-16T02:02:10Z</time>
      </trkpt>
      <trkpt lat="45.71662" lon="6.45756">
        <ele>683</ele>
        <time>2022-07-16T02:02:11Z</time>
      </trkpt>
      <trkpt lat="45.7166" lon="6.45759">
        <ele>683</ele>
        <time>2022-07-16T02:02:12Z</time>
      </trkpt>
      <trkpt lat="45.71657" lon="6.45761">
        <ele>683</ele>
        <time>2022-07-16T02:02:13Z</time>
      </trkpt>
      <trkpt lat="45.71655" lon="6.45763">
        <ele>683</ele>
        <time>2022-07-16T02:02:14Z</time>
      </trkpt>
      <trkpt lat="45.71644" lon="6.45772">
        <ele>683</ele>
        <time>2022-07-16T02:02:15Z</time>
      </trkpt>
      <trkpt lat="45.71639" lon="6.45773">
        <ele>683</ele>
        <time>2022-07-16T02:02:16Z</time>
      </trkpt>
      <trkpt lat="45.71637" lon="6.45773">
        <ele>683</ele>
        <time>2022-07-16T02:02:17Z</time>
      </trkpt>
      <trkpt lat="45.71636" lon="6.45774">
        <ele>683</ele>
        <time>2022-07-16T02:02:18Z</time>
      </trkpt>
      <trkpt lat="45.71634" lon="6.45774">
        <ele>683</ele>
        <time>2022-07-16T02:02:19Z</time>
      </trkpt>
      <trkpt lat="45.71624" lon="6.45777">
        <ele>683</ele>
        <time>2022-07-16T02:02:20Z</time>
      </trkpt>
      <trkpt lat="45.71619" lon="6.4578">
        <ele>683</ele>
        <time>2022-07-16T02:02:21Z</time>
      </trkpt>
      <trkpt lat="45.71618" lon="6.4578">
        <ele>683</ele>
        <time>2022-07-16T02:02:22Z</time>
      </trkpt>
      <trkpt lat="45.71617" lon="6.4578">
        <ele>683</ele>
        <time>2022-07-16T02:02:23Z</time>
      </trkpt>
      <trkpt lat="45.71615" lon="6.45781">
        <ele>683</ele>
        <time>2022-07-16T02:02:24Z</time>
      </trkpt>
      <trkpt lat="45.71614" lon="6.45781">
        <ele>683</ele>
        <time>2022-07-16T02:02:25Z</time>
      </trkpt>
      <trkpt lat="45.71613" lon="6.45781">
        <ele>683</ele>
        <time>2022-07-16T02:02:26Z</time>
      </trkpt>
      <trkpt lat="45.71604" lon="6.45785">
        <ele>683</ele>
        <time>2022-07-16T02:02:27Z</time>
      </trkpt>
      <trkpt lat="45.71601" lon="6.45786">
        <ele>683</ele>
        <time>2022-07-16T02:02:28Z</time>
      </trkpt>
      <trkpt lat="45.71599" lon="6.45788">
        <ele>683</ele>
        <time>2022-07-16T02:02:29Z</time>
      </trkpt>
      <trkpt lat="45.71611" lon="6.45815">
        <ele>683</ele>
        <time>2022-07-16T02:02:44Z</time>
      </trkpt>
      <trkpt lat="45.71624" lon="6.45843">
        <ele>683</ele>
        <time>2022-07-16T02:02:45Z</time>
      </trkpt>
      <trkpt lat="45.71636" lon="6.45871">
        <ele>683</ele>
        <time>2022-07-16T02:02:46Z</time>
      </trkpt>
      <trkpt lat="45.71637" lon="6.45875">
        <ele>683</ele>
        <time>2022-07-16T02:02:47Z</time>
      </trkpt>
      <trkpt lat="45.71638" lon="6.45879">
        <ele>683</ele>
        <time>2022-07-16T02:02:48Z</time>
      </trkpt>
      <trkpt lat="45.7164" lon="6.45883">
        <ele>683</ele>
        <time>2022-07-16T02:02:49Z</time>
      </trkpt>
      <trkpt lat="45.7164" lon="6.45886">
        <ele>683</ele>
        <time>2022-07-16T02:02:50Z</time>
      </trkpt>
      <trkpt lat="45.7164" lon="6.4589">
        <ele>683</ele>
        <time>2022-07-16T02:02:51Z</time>
      </trkpt>
      <trkpt lat="45.7164" lon="6.45893">
        <ele>683</ele>
        <time>2022-07-16T02:02:52Z</time>
      </trkpt>
      <trkpt lat="45.7164" lon="6.45896">
        <ele>683</ele>
        <time>2022-07-16T02:02:53Z</time>
      </trkpt>
      <trkpt lat="45.7164" lon="6.459">
        <ele>683</ele>
        <time>2022-07-16T02:02:54Z</time>
      </trkpt>
      <trkpt lat="45.71641" lon="6.45903">
        <ele>683</ele>
        <time>2022-07-16T02:02:55Z</time>
      </trkpt>
      <trkpt lat="45.71641" lon="6.45906">
        <ele>683</ele>
        <time>2022-07-16T02:02:56Z</time>
      </trkpt>
      <trkpt lat="45.71641" lon="6.4591">
        <ele>683</ele>
        <time>2022-07-16T02:02:57Z</time>
      </trkpt>
      <trkpt lat="45.71641" lon="6.45912">
        <ele>683</ele>
        <time>2022-07-16T02:02:58Z</time>
      </trkpt>
      <trkpt lat="45.71641" lon="6.45913">
        <ele>683</ele>
        <time>2022-07-16T02:02:59Z</time>
      </trkpt>
      <trkpt lat="45.71641" lon="6.45915">
        <ele>683</ele>
        <time>2022-07-16T02:03:00Z</time>
      </trkpt>
      <trkpt lat="45.71641" lon="6.45917">
        <ele>683</ele>
        <time>2022-07-16T02:03:01Z</time>
      </trkpt>
      <trkpt lat="45.7164" lon="6.45928">
        <ele>683</ele>
        <time>2022-07-16T02:03:02Z</time>
      </trkpt>
      <trkpt lat="45.7164" lon="6.45931">
        <ele>683</ele>
        <time>2022-07-16T02:03:03Z</time>
      </trkpt>
      <trkpt lat="45.71639" lon="6.45934">
        <ele>683</ele>
        <time>2022-07-16T02:03:04Z</time>
      </trkpt>
      <trkpt lat="45.71639" lon="6.45938">
        <ele>683</ele>
        <time>2022-07-16T02:03:05Z</time>
      </trkpt>
      <trkpt lat="45.71638" lon="6.4594">
        <ele>683</ele>
        <time>2022-07-16T02:03:06Z</time>
      </trkpt>
      <trkpt lat="45.71637" lon="6.45943">
        <ele>683</ele>
        <time>2022-07-16T02:03:07Z</time>
      </trkpt>
      <trkpt lat="45.71636" lon="6.45946">
        <ele>683</ele>
        <time>2022-07-16T02:03:08Z</time>
      </trkpt>
      <trkpt lat="45.71636" lon="6.45948">
        <ele>683</ele>
        <time>2022-07-16T02:03:09Z</time>
      </trkpt>
      <trkpt lat="45.71635" lon="6.45951">
        <ele>683</ele>
        <time>2022-07-16T02:03:10Z</time>
      </trkpt>
      <trkpt lat="45.71634" lon="6.45953">
        <ele>683</ele>
        <time>2022-07-16T02:03:11Z</time>
      </trkpt>
      <trkpt lat="45.71633" lon="6.45955">
        <ele>683</ele>
        <time>2022-07-16T02:03:12Z</time>
      </trkpt>
      <trkpt lat="45.71631" lon="6.45957">
        <ele>683</ele>
        <time>2022-07-16T02:03:13Z</time>
      </trkpt>
      <trkpt lat="45.7163" lon="6.4596">
        <ele>683</ele>
        <time>2022-07-16T02:03:14Z</time>
      </trkpt>
      <trkpt lat="45.71629" lon="6.45962">
        <ele>683</ele>
        <time>2022-07-16T02:03:15Z</time>
      </trkpt>
      <trkpt lat="45.71628" lon="6.45963">
        <ele>683</ele>
        <time>2022-07-16T02:03:16Z</time>
      </trkpt>
      <trkpt lat="45.71628" lon="6.45964">
        <ele>683</ele>
        <time>2022-07-16T02:03:17Z</time>
      </trkpt>
      <trkpt lat="45.71627" lon="6.45966">
        <ele>683</ele>
        <time>2022-07-16T02:03:18Z</time>
      </trkpt>
      <trkpt lat="45.71627" lon="6.45967">
        <ele>683</ele>
        <time>2022-07-16T02:03:19Z</time>
      </trkpt>
      <trkpt lat="45.71626" lon="6.45968">
        <ele>683</ele>
        <time>2022-07-16T02:03:20Z</time>
      </trkpt>
      <trkpt lat="45.71621" lon="6.45977">
        <ele>683</ele>
        <time>2022-07-16T02:03:21Z</time>
      </trkpt>
      <trkpt lat="45.71619" lon="6.4598">
        <ele>689</ele>
        <time>2022-07-16T02:03:22Z</time>
      </trkpt>
      <trkpt lat="45.71618" lon="6.45982">
        <ele>689</ele>
        <time>2022-07-16T02:03:23Z</time>
      </trkpt>
      <trkpt lat="45.71616" lon="6.45985">
        <ele>689</ele>
        <time>2022-07-16T02:03:24Z</time>
      </trkpt>
      <trkpt lat="45.71614" lon="6.45988">
        <ele>689</ele>
        <time>2022-07-16T02:03:26Z</time>
      </trkpt>
      <trkpt lat="45.71611" lon="6.45991">
        <ele>689</ele>
        <time>2022-07-16T02:03:27Z</time>
      </trkpt>
      <trkpt lat="45.71609" lon="6.45994">
        <ele>689</ele>
        <time>2022-07-16T02:03:28Z</time>
      </trkpt>
      <trkpt lat="45.71607" lon="6.45995">
        <ele>690</ele>
        <time>2022-07-16T02:03:29Z</time>
      </trkpt>
      <trkpt lat="45.71604" lon="6.45995">
        <ele>690</ele>
        <time>2022-07-16T02:03:30Z</time>
      </trkpt>
      <trkpt lat="45.71602" lon="6.45995">
        <ele>690</ele>
        <time>2022-07-16T02:03:31Z</time>
      </trkpt>
      <trkpt lat="45.716" lon="6.45995">
        <ele>690</ele>
        <time>2022-07-16T02:03:32Z</time>
      </trkpt>
      <trkpt lat="45.71599" lon="6.45995">
        <ele>690</ele>
        <time>2022-07-16T02:03:33Z</time>
      </trkpt>
      <trkpt lat="45.71598" lon="6.45995">
        <ele>691</ele>
        <time>2022-07-16T02:03:34Z</time>
      </trkpt>
      <trkpt lat="45.71596" lon="6.45995">
        <ele>691</ele>
        <time>2022-07-16T02:03:35Z</time>
      </trkpt>
      <trkpt lat="45.71588" lon="6.45997">
        <ele>691</ele>
        <time>2022-07-16T02:03:36Z</time>
      </trkpt>
      <trkpt lat="45.71586" lon="6.45999">
        <ele>691</ele>
        <time>2022-07-16T02:03:37Z</time>
      </trkpt>
      <trkpt lat="45.71584" lon="6.46001">
        <ele>691</ele>
        <time>2022-07-16T02:03:38Z</time>
      </trkpt>
      <trkpt lat="45.71581" lon="6.46003">
        <ele>691</ele>
        <time>2022-07-16T02:03:39Z</time>
      </trkpt>
      <trkpt lat="45.71581" lon="6.46005">
        <ele>691</ele>
        <time>2022-07-16T02:03:40Z</time>
      </trkpt>
      <trkpt lat="45.7158" lon="6.46006">
        <ele>691</ele>
        <time>2022-07-16T02:03:41Z</time>
      </trkpt>
      <trkpt lat="45.7158" lon="6.46008">
        <ele>691</ele>
        <time>2022-07-16T02:03:42Z</time>
      </trkpt>
      <trkpt lat="45.71579" lon="6.4601">
        <ele>691</ele>
        <time>2022-07-16T02:03:43Z</time>
      </trkpt>
      <trkpt lat="45.71576" lon="6.46018">
        <ele>691</ele>
        <time>2022-07-16T02:03:44Z</time>
      </trkpt>
      <trkpt lat="45.71575" lon="6.46019">
        <ele>691</ele>
        <time>2022-07-16T02:03:45Z</time>
      </trkpt>
      <trkpt lat="45.71575" lon="6.46021">
        <ele>691</ele>
        <time>2022-07-16T02:03:46Z</time>
      </trkpt>
      <trkpt lat="45.71574" lon="6.46023">
        <ele>691</ele>
        <time>2022-07-16T02:03:47Z</time>
      </trkpt>
      <trkpt lat="45.71571" lon="6.46033">
        <ele>691</ele>
        <time>2022-07-16T02:03:48Z</time>
      </trkpt>
      <trkpt lat="45.71571" lon="6.46037">
        <ele>690</ele>
        <time>2022-07-16T02:03:49Z</time>
      </trkpt>
      <trkpt lat="45.71571" lon="6.46041">
        <ele>690</ele>
        <time>2022-07-16T02:03:50Z</time>
      </trkpt>
      <trkpt lat="45.7157" lon="6.46045">
        <ele>690</ele>
        <time>2022-07-16T02:03:51Z</time>
      </trkpt>
      <trkpt lat="45.71571" lon="6.46048">
        <ele>690</ele>
        <time>2022-07-16T02:03:52Z</time>
      </trkpt>
      <trkpt lat="45.71571" lon="6.46051">
        <ele>690</ele>
        <time>2022-07-16T02:03:53Z</time>
      </trkpt>
      <trkpt lat="45.71571" lon="6.46055">
        <ele>690</ele>
        <time>2022-07-16T02:03:54Z</time>
      </trkpt>
      <trkpt lat="45.71571" lon="6.46058">
        <ele>690</ele>
        <time>2022-07-16T02:03:55Z</time>
      </trkpt>
      <trkpt lat="45.71571" lon="6.46062">
        <ele>690</ele>
        <time>2022-07-16T02:03:56Z</time>
      </trkpt>
      <trkpt lat="45.71571" lon="6.46065">
        <ele>690</ele>
        <time>2022-07-16T02:03:57Z</time>
      </trkpt>
      <trkpt lat="45.71571" lon="6.46069">
        <ele>690</ele>
        <time>2022-07-16T02:03:58Z</time>
      </trkpt>
      <trkpt lat="45.71571" lon="6.46072">
        <ele>690</ele>
        <time>2022-07-16T02:03:59Z</time>
      </trkpt>
      <trkpt lat="45.71571" lon="6.46073">
        <ele>690</ele>
        <time>2022-07-16T02:04:00Z</time>
      </trkpt>
      <trkpt lat="45.7157" lon="6.46074">
        <ele>690</ele>
        <time>2022-07-16T02:04:01Z</time>
      </trkpt>
      <trkpt lat="45.7157" lon="6.46076">
        <ele>690</ele>
        <time>2022-07-16T02:04:02Z</time>
      </trkpt>
      <trkpt lat="45.7157" lon="6.46077">
        <ele>690</ele>
        <time>2022-07-16T02:04:03Z</time>
      </trkpt>
      <trkpt lat="45.71569" lon="6.46078">
        <ele>690</ele>
        <time>2022-07-16T02:04:04Z</time>
      </trkpt>
      <trkpt lat="45.71569" lon="6.46079">
        <ele>690</ele>
        <time>2022-07-16T02:04:05Z</time>
      </trkpt>
      <trkpt lat="45.71566" lon="6.46088">
        <ele>690</ele>
        <time>2022-07-16T02:04:06Z</time>
      </trkpt>
      <trkpt lat="45.71565" lon="6.4609">
        <ele>690</ele>
        <time>2022-07-16T02:04:07Z</time>
      </trkpt>
      <trkpt lat="45.71563" lon="6.46092">
        <ele>690</ele>
        <time>2022-07-16T02:04:08Z</time>
      </trkpt>
      <trkpt lat="45.71562" lon="6.46093">
        <ele>690</ele>
        <time>2022-07-16T02:04:09Z</time>
      </trkpt>
      <trkpt lat="45.71561" lon="6.46095">
        <ele>690</ele>
        <time>2022-07-16T02:04:10Z</time>
      </trkpt>
      <trkpt lat="45.71559" lon="6.46096">
        <ele>690</ele>
        <time>2022-07-16T02:04:11Z</time>
      </trkpt>
      <trkpt lat="45.71558" lon="6.46097">
        <ele>690</ele>
        <time>2022-07-16T02:04:12Z</time>
      </trkpt>
      <trkpt lat="45.71556" lon="6.46099">
        <ele>690</ele>
        <time>2022-07-16T02:04:13Z</time>
      </trkpt>
      <trkpt lat="45.71555" lon="6.461">
        <ele>691</ele>
        <time>2022-07-16T02:04:14Z</time>
      </trkpt>
      <trkpt lat="45.71554" lon="6.46101">
        <ele>691</ele>
        <time>2022-07-16T02:04:15Z</time>
      </trkpt>
      <trkpt lat="45.71552" lon="6.46102">
        <ele>691</ele>
        <time>2022-07-16T02:04:16Z</time>
      </trkpt>
      <trkpt lat="45.71551" lon="6.46103">
        <ele>692</ele>
        <time>2022-07-16T02:04:17Z</time>
      </trkpt>
      <trkpt lat="45.71547" lon="6.46106">
        <ele>692</ele>
        <time>2022-07-16T02:04:18Z</time>
      </trkpt>
      <trkpt lat="45.71543" lon="6.46109">
        <ele>692</ele>
        <time>2022-07-16T02:04:19Z</time>
      </trkpt>
      <trkpt lat="45.71541" lon="6.46111">
        <ele>692</ele>
        <time>2022-07-16T02:04:20Z</time>
      </trkpt>
      <trkpt lat="45.7154" lon="6.46112">
        <ele>692</ele>
        <time>2022-07-16T02:04:21Z</time>
      </trkpt>
      <trkpt lat="45.71539" lon="6.46113">
        <ele>692</ele>
        <time>2022-07-16T02:04:22Z</time>
      </trkpt>
      <trkpt lat="45.71538" lon="6.46115">
        <ele>692</ele>
        <time>2022-07-16T02:04:23Z</time>
      </trkpt>
      <trkpt lat="45.71537" lon="6.46116">
        <ele>692</ele>
        <time>2022-07-16T02:04:24Z</time>
      </trkpt>
      <trkpt lat="45.71536" lon="6.46117">
        <ele>692</ele>
        <time>2022-07-16T02:04:25Z</time>
      </trkpt>
      <trkpt lat="45.71535" lon="6.46119">
        <ele>692</ele>
        <time>2022-07-16T02:04:26Z</time>
      </trkpt>
      <trkpt lat="45.71534" lon="6.46121">
        <ele>693</ele>
        <time>2022-07-16T02:04:27Z</time>
      </trkpt>
      <trkpt lat="45.71533" lon="6.46122">
        <ele>694</ele>
        <time>2022-07-16T02:04:28Z</time>
      </trkpt>
      <trkpt lat="45.71533" lon="6.46124">
        <ele>694</ele>
        <time>2022-07-16T02:04:29Z</time>
      </trkpt>
      <trkpt lat="45.71532" lon="6.46125">
        <ele>695</ele>
        <time>2022-07-16T02:04:30Z</time>
      </trkpt>
      <trkpt lat="45.71531" lon="6.46127">
        <ele>695</ele>
        <time>2022-07-16T02:04:31Z</time>
      </trkpt>
      <trkpt lat="45.7153" lon="6.46129">
        <ele>695</ele>
        <time>2022-07-16T02:04:32Z</time>
      </trkpt>
      <trkpt lat="45.7153" lon="6.46131">
        <ele>695</ele>
        <time>2022-07-16T02:04:33Z</time>
      </trkpt>
      <trkpt lat="45.71529" lon="6.46133">
        <ele>695</ele>
        <time>2022-07-16T02:04:34Z</time>
      </trkpt>
      <trkpt lat="45.71528" lon="6.46135">
        <ele>695</ele>
        <time>2022-07-16T02:04:35Z</time>
      </trkpt>
      <trkpt lat="45.71528" lon="6.46137">
        <ele>696</ele>
        <time>2022-07-16T02:04:36Z</time>
      </trkpt>
      <trkpt lat="45.71527" lon="6.46139">
        <ele>696</ele>
        <time>2022-07-16T02:04:37Z</time>
      </trkpt>
      <trkpt lat="45.71526" lon="6.46141">
        <ele>696</ele>
        <time>2022-07-16T02:04:38Z</time>
      </trkpt>
      <trkpt lat="45.71526" lon="6.46144">
        <ele>696</ele>
        <time>2022-07-16T02:04:39Z</time>
      </trkpt>
      <trkpt lat="45.71525" lon="6.46147">
        <ele>696</ele>
        <time>2022-07-16T02:04:41Z</time>
      </trkpt>
      <trkpt lat="45.71524" lon="6.46149">
        <ele>697</ele>
        <time>2022-07-16T02:04:42Z</time>
      </trkpt>
      <trkpt lat="45.71524" lon="6.46152">
        <ele>697</ele>
        <time>2022-07-16T02:04:43Z</time>
      </trkpt>
      <trkpt lat="45.71523" lon="6.46155">
        <ele>697</ele>
        <time>2022-07-16T02:04:44Z</time>
      </trkpt>
      <trkpt lat="45.71523" lon="6.46159">
        <ele>697</ele>
        <time>2022-07-16T02:04:46Z</time>
      </trkpt>
      <trkpt lat="45.71523" lon="6.46162">
        <ele>698</ele>
        <time>2022-07-16T02:04:48Z</time>
      </trkpt>
      <trkpt lat="45.71522" lon="6.46167">
        <ele>698</ele>
        <time>2022-07-16T02:04:50Z</time>
      </trkpt>
      <trkpt lat="45.71523" lon="6.46171">
        <ele>698</ele>
        <time>2022-07-16T02:04:52Z</time>
      </trkpt>
      <trkpt lat="45.71523" lon="6.46173">
        <ele>698</ele>
        <time>2022-07-16T02:04:53Z</time>
      </trkpt>
      <trkpt lat="45.71523" lon="6.46176">
        <ele>698</ele>
        <time>2022-07-16T02:04:54Z</time>
      </trkpt>
      <trkpt lat="45.71523" lon="6.46178">
        <ele>698</ele>
        <time>2022-07-16T02:04:55Z</time>
      </trkpt>
      <trkpt lat="45.71524" lon="6.4618">
        <ele>698</ele>
        <time>2022-07-16T02:04:56Z</time>
      </trkpt>
      <trkpt lat="45.71523" lon="6.46183">
        <ele>698</ele>
        <time>2022-07-16T02:04:57Z</time>
      </trkpt>
      <trkpt lat="45.71523" lon="6.46187">
        <ele>699</ele>
        <time>2022-07-16T02:04:59Z</time>
      </trkpt>
      <trkpt lat="45.71524" lon="6.4619">
        <ele>699</ele>
        <time>2022-07-16T02:05:01Z</time>
      </trkpt>
      <trkpt lat="45.71524" lon="6.46194">
        <ele>699</ele>
        <time>2022-07-16T02:05:02Z</time>
      </trkpt>
      <trkpt lat="45.71524" lon="6.46198">
        <ele>700</ele>
        <time>2022-07-16T02:05:04Z</time>
      </trkpt>
      <trkpt lat="45.71525" lon="6.46202">
        <ele>700</ele>
        <time>2022-07-16T02:05:06Z</time>
      </trkpt>
      <trkpt lat="45.71525" lon="6.46204">
        <ele>700</ele>
        <time>2022-07-16T02:05:07Z</time>
      </trkpt>
      <trkpt lat="45.71525" lon="6.46206">
        <ele>701</ele>
        <time>2022-07-16T02:05:08Z</time>
      </trkpt>
      <trkpt lat="45.71524" lon="6.46208">
        <ele>701</ele>
        <time>2022-07-16T02:05:09Z</time>
      </trkpt>
      <trkpt lat="45.71524" lon="6.4621">
        <ele>701</ele>
        <time>2022-07-16T02:05:10Z</time>
      </trkpt>
      <trkpt lat="45.71524" lon="6.46213">
        <ele>701</ele>
        <time>2022-07-16T02:05:11Z</time>
      </trkpt>
      <trkpt lat="45.71524" lon="6.46215">
        <ele>701</ele>
        <time>2022-07-16T02:05:12Z</time>
      </trkpt>
      <trkpt lat="45.71524" lon="6.46217">
        <ele>701</ele>
        <time>2022-07-16T02:05:13Z</time>
      </trkpt>
      <trkpt lat="45.71524" lon="6.46219">
        <ele>701</ele>
        <time>2022-07-16T02:05:14Z</time>
      </trkpt>
      <trkpt lat="45.71525" lon="6.46221">
        <ele>702</ele>
        <time>2022-07-16T02:05:15Z</time>
      </trkpt>
      <trkpt lat="45.71525" lon="6.46223">
        <ele>702</ele>
        <time>2022-07-16T02:05:16Z</time>
      </trkpt>
      <trkpt lat="45.71525" lon="6.46225">
        <ele>702</ele>
        <time>2022-07-16T02:05:17Z</time>
      </trkpt>
      <trkpt lat="45.71525" lon="6.46227">
        <ele>703</ele>
        <time>2022-07-16T02:05:18Z</time>
      </trkpt>
      <trkpt lat="45.71526" lon="6.46229">
        <ele>703</ele>
        <time>2022-07-16T02:05:19Z</time>
      </trkpt>
      <trkpt lat="45.71526" lon="6.4623">
        <ele>704</ele>
        <time>2022-07-16T02:05:20Z</time>
      </trkpt>
      <trkpt lat="45.71526" lon="6.46232">
        <ele>704</ele>
        <time>2022-07-16T02:05:21Z</time>
      </trkpt>
      <trkpt lat="45.71526" lon="6.46234">
        <ele>704</ele>
        <time>2022-07-16T02:05:22Z</time>
      </trkpt>
      <trkpt lat="45.71526" lon="6.46236">
        <ele>704</ele>
        <time>2022-07-16T02:05:23Z</time>
      </trkpt>
      <trkpt lat="45.71527" lon="6.46238">
        <ele>704</ele>
        <time>2022-07-16T02:05:24Z</time>
      </trkpt>
      <trkpt lat="45.71527" lon="6.4624">
        <ele>705</ele>
        <time>2022-07-16T02:05:25Z</time>
      </trkpt>
      <trkpt lat="45.71527" lon="6.46241">
        <ele>705</ele>
        <time>2022-07-16T02:05:26Z</time>
      </trkpt>
      <trkpt lat="45.71527" lon="6.46242">
        <ele>705</ele>
        <time>2022-07-16T02:05:27Z</time>
      </trkpt>
      <trkpt lat="45.71527" lon="6.46243">
        <ele>705</ele>
        <time>2022-07-16T02:05:28Z</time>
      </trkpt>
      <trkpt lat="45.71527" lon="6.46244">
        <ele>705</ele>
        <time>2022-07-16T02:05:29Z</time>
      </trkpt>
      <trkpt lat="45.71527" lon="6.46245">
        <ele>705</ele>
        <time>2022-07-16T02:05:30Z</time>
      </trkpt>
      <trkpt lat="45.71527" lon="6.46246">
        <ele>706</ele>
        <time>2022-07-16T02:05:31Z</time>
      </trkpt>
      <trkpt lat="45.71527" lon="6.46247">
        <ele>706</ele>
        <time>2022-07-16T02:05:32Z</time>
      </trkpt>
      <trkpt lat="45.71527" lon="6.46248">
        <ele>706</ele>
        <time>2022-07-16T02:05:33Z</time>
      </trkpt>
      <trkpt lat="45.71527" lon="6.46249">
        <ele>706</ele>
        <time>2022-07-16T02:05:34Z</time>
      </trkpt>
      <trkpt lat="45.71527" lon="6.46258">
        <ele>706</ele>
        <time>2022-07-16T02:05:35Z</time>
      </trkpt>
      <trkpt lat="45.71528" lon="6.46259">
        <ele>706</ele>
        <time>2022-07-16T02:05:36Z</time>
      </trkpt>
      <trkpt lat="45.71528" lon="6.46261">
        <ele>706</ele>
        <time>2022-07-16T02:05:37Z</time>
      </trkpt>
      <trkpt lat="45.71529" lon="6.46263">
        <ele>706</ele>
        <time>2022-07-16T02:05:38Z</time>
      </trkpt>
      <trkpt lat="45.7153" lon="6.46264">
        <ele>707</ele>
        <time>2022-07-16T02:05:39Z</time>
      </trkpt>
      <trkpt lat="45.7153" lon="6.46266">
        <ele>707</ele>
        <time>2022-07-16T02:05:40Z</time>
      </trkpt>
      <trkpt lat="45.71531" lon="6.46267">
        <ele>707</ele>
        <time>2022-07-16T02:05:41Z</time>
      </trkpt>
      <trkpt lat="45.71532" lon="6.46269">
        <ele>708</ele>
        <time>2022-07-16T02:05:42Z</time>
      </trkpt>
      <trkpt lat="45.71532" lon="6.46271">
        <ele>708</ele>
        <time>2022-07-16T02:05:43Z</time>
      </trkpt>
      <trkpt lat="45.71532" lon="6.46273">
        <ele>708</ele>
        <time>2022-07-16T02:05:44Z</time>
      </trkpt>
      <trkpt lat="45.71533" lon="6.46275">
        <ele>708</ele>
        <time>2022-07-16T02:05:45Z</time>
      </trkpt>
      <trkpt lat="45.71533" lon="6.46277">
        <ele>708</ele>
        <time>2022-07-16T02:05:46Z</time>
      </trkpt>
      <trkpt lat="45.71534" lon="6.46278">
        <ele>708</ele>
        <time>2022-07-16T02:05:47Z</time>
      </trkpt>
      <trkpt lat="45.71534" lon="6.4628">
        <ele>708</ele>
        <time>2022-07-16T02:05:48Z</time>
      </trkpt>
      <trkpt lat="45.71534" lon="6.46282">
        <ele>709</ele>
        <time>2022-07-16T02:05:49Z</time>
      </trkpt>
      <trkpt lat="45.71535" lon="6.46284">
        <ele>709</ele>
        <time>2022-07-16T02:05:50Z</time>
      </trkpt>
      <trkpt lat="45.71536" lon="6.46285">
        <ele>709</ele>
        <time>2022-07-16T02:05:51Z</time>
      </trkpt>
      <trkpt lat="45.71536" lon="6.46287">
        <ele>709</ele>
        <time>2022-07-16T02:05:52Z</time>
      </trkpt>
      <trkpt lat="45.71537" lon="6.46288">
        <ele>710</ele>
        <time>2022-07-16T02:05:53Z</time>
      </trkpt>
      <trkpt lat="45.71538" lon="6.4629">
        <ele>710</ele>
        <time>2022-07-16T02:05:54Z</time>
      </trkpt>
      <trkpt lat="45.71538" lon="6.46291">
        <ele>710</ele>
        <time>2022-07-16T02:05:55Z</time>
      </trkpt>
      <trkpt lat="45.71539" lon="6.46292">
        <ele>710</ele>
        <time>2022-07-16T02:05:56Z</time>
      </trkpt>
      <trkpt lat="45.71539" lon="6.46294">
        <ele>710</ele>
        <time>2022-07-16T02:05:57Z</time>
      </trkpt>
      <trkpt lat="45.7154" lon="6.46296">
        <ele>710</ele>
        <time>2022-07-16T02:05:58Z</time>
      </trkpt>
      <trkpt lat="45.71541" lon="6.46298">
        <ele>710</ele>
        <time>2022-07-16T02:05:59Z</time>
      </trkpt>
      <trkpt lat="45.71542" lon="6.463">
        <ele>711</ele>
        <time>2022-07-16T02:06:00Z</time>
      </trkpt>
      <trkpt lat="45.71542" lon="6.46302">
        <ele>711</ele>
        <time>2022-07-16T02:06:01Z</time>
      </trkpt>
      <trkpt lat="45.71545" lon="6.4631">
        <ele>711</ele>
        <time>2022-07-16T02:06:02Z</time>
      </trkpt>
      <trkpt lat="45.71546" lon="6.46313">
        <ele>712</ele>
        <time>2022-07-16T02:06:03Z</time>
      </trkpt>
      <trkpt lat="45.71547" lon="6.46316">
        <ele>712</ele>
        <time>2022-07-16T02:06:04Z</time>
      </trkpt>
      <trkpt lat="45.71548" lon="6.46319">
        <ele>712</ele>
        <time>2022-07-16T02:06:05Z</time>
      </trkpt>
      <trkpt lat="45.71549" lon="6.46321">
        <ele>712</ele>
        <time>2022-07-16T02:06:06Z</time>
      </trkpt>
      <trkpt lat="45.7155" lon="6.46323">
        <ele>712</ele>
        <time>2022-07-16T02:06:07Z</time>
      </trkpt>
      <trkpt lat="45.71551" lon="6.46326">
        <ele>712</ele>
        <time>2022-07-16T02:06:08Z</time>
      </trkpt>
      <trkpt lat="45.71552" lon="6.46328">
        <ele>712</ele>
        <time>2022-07-16T02:06:09Z</time>
      </trkpt>
      <trkpt lat="45.71553" lon="6.4633">
        <ele>712</ele>
        <time>2022-07-16T02:06:10Z</time>
      </trkpt>
      <trkpt lat="45.71554" lon="6.46332">
        <ele>713</ele>
        <time>2022-07-16T02:06:11Z</time>
      </trkpt>
      <trkpt lat="45.71554" lon="6.46334">
        <ele>713</ele>
        <time>2022-07-16T02:06:12Z</time>
      </trkpt>
      <trkpt lat="45.71555" lon="6.46336">
        <ele>713</ele>
        <time>2022-07-16T02:06:13Z</time>
      </trkpt>
      <trkpt lat="45.71555" lon="6.46338">
        <ele>713</ele>
        <time>2022-07-16T02:06:14Z</time>
      </trkpt>
      <trkpt lat="45.71556" lon="6.4634">
        <ele>713</ele>
        <time>2022-07-16T02:06:15Z</time>
      </trkpt>
      <trkpt lat="45.71556" lon="6.46343">
        <ele>713</ele>
        <time>2022-07-16T02:06:17Z</time>
      </trkpt>
      <trkpt lat="45.71557" lon="6.46345">
        <ele>713</ele>
        <time>2022-07-16T02:06:18Z</time>
      </trkpt>
      <trkpt lat="45.71557" lon="6.46347">
        <ele>713</ele>
        <time>2022-07-16T02:06:19Z</time>
      </trkpt>
      <trkpt lat="45.71557" lon="6.46349">
        <ele>714</ele>
        <time>2022-07-16T02:06:20Z</time>
      </trkpt>
      <trkpt lat="45.71557" lon="6.46351">
        <ele>714</ele>
        <time>2022-07-16T02:06:21Z</time>
      </trkpt>
      <trkpt lat="45.71558" lon="6.46352">
        <ele>714</ele>
        <time>2022-07-16T02:06:22Z</time>
      </trkpt>
      <trkpt lat="45.71558" lon="6.46354">
        <ele>714</ele>
        <time>2022-07-16T02:06:23Z</time>
      </trkpt>
      <trkpt lat="45.71559" lon="6.46357">
        <ele>714</ele>
        <time>2022-07-16T02:06:24Z</time>
      </trkpt>
      <trkpt lat="45.7156" lon="6.46358">
        <ele>715</ele>
        <time>2022-07-16T02:06:25Z</time>
      </trkpt>
      <trkpt lat="45.7156" lon="6.4636">
        <ele>715</ele>
        <time>2022-07-16T02:06:26Z</time>
      </trkpt>
      <trkpt lat="45.71561" lon="6.46362">
        <ele>715</ele>
        <time>2022-07-16T02:06:27Z</time>
      </trkpt>
      <trkpt lat="45.71562" lon="6.46364">
        <ele>715</ele>
        <time>2022-07-16T02:06:28Z</time>
      </trkpt>
      <trkpt lat="45.71562" lon="6.46366">
        <ele>716</ele>
        <time>2022-07-16T02:06:29Z</time>
      </trkpt>
      <trkpt lat="45.71563" lon="6.46367">
        <ele>716</ele>
        <time>2022-07-16T02:06:30Z</time>
      </trkpt>
      <trkpt lat="45.71564" lon="6.46369">
        <ele>716</ele>
        <time>2022-07-16T02:06:31Z</time>
      </trkpt>
      <trkpt lat="45.71564" lon="6.46374">
        <ele>716</ele>
        <time>2022-07-16T02:06:34Z</time>
      </trkpt>
      <trkpt lat="45.71564" lon="6.46376">
        <ele>716</ele>
        <time>2022-07-16T02:06:35Z</time>
      </trkpt>
      <trkpt lat="45.71564" lon="6.46378">
        <ele>716</ele>
        <time>2022-07-16T02:06:36Z</time>
      </trkpt>
      <trkpt lat="45.71564" lon="6.4638">
        <ele>717</ele>
        <time>2022-07-16T02:06:37Z</time>
      </trkpt>
      <trkpt lat="45.71564" lon="6.46382">
        <ele>717</ele>
        <time>2022-07-16T02:06:38Z</time>
      </trkpt>
      <trkpt lat="45.71564" lon="6.46384">
        <ele>717</ele>
        <time>2022-07-16T02:06:39Z</time>
      </trkpt>
      <trkpt lat="45.71564" lon="6.46385">
        <ele>717</ele>
        <time>2022-07-16T02:06:40Z</time>
      </trkpt>
      <trkpt lat="45.71564" lon="6.46387">
        <ele>717</ele>
        <time>2022-07-16T02:06:41Z</time>
      </trkpt>
      <trkpt lat="45.71564" lon="6.46388">
        <ele>717</ele>
        <time>2022-07-16T02:06:42Z</time>
      </trkpt>
      <trkpt lat="45.71564" lon="6.46389">
        <ele>717</ele>
        <time>2022-07-16T02:06:43Z</time>
      </trkpt>
      <trkpt lat="45.71564" lon="6.4639">
        <ele>718</ele>
        <time>2022-07-16T02:06:44Z</time>
      </trkpt>
      <trkpt lat="45.71564" lon="6.46391">
        <ele>718</ele>
        <time>2022-07-16T02:06:45Z</time>
      </trkpt>
      <trkpt lat="45.71564" lon="6.46392">
        <ele>718</ele>
        <time>2022-07-16T02:06:46Z</time>
      </trkpt>
      <trkpt lat="45.71564" lon="6.46394">
        <ele>718</ele>
        <time>2022-07-16T02:06:47Z</time>
      </trkpt>
      <trkpt lat="45.71564" lon="6.46395">
        <ele>718</ele>
        <time>2022-07-16T02:06:48Z</time>
      </trkpt>
      <trkpt lat="45.71563" lon="6.46404">
        <ele>718</ele>
        <time>2022-07-16T02:06:49Z</time>
      </trkpt>
      <trkpt lat="45.71563" lon="6.46406">
        <ele>718</ele>
        <time>2022-07-16T02:06:50Z</time>
      </trkpt>
      <trkpt lat="45.71563" lon="6.46409">
        <ele>718</ele>
        <time>2022-07-16T02:06:51Z</time>
      </trkpt>
      <trkpt lat="45.71563" lon="6.46411">
        <ele>719</ele>
        <time>2022-07-16T02:06:52Z</time>
      </trkpt>
      <trkpt lat="45.71563" lon="6.46413">
        <ele>719</ele>
        <time>2022-07-16T02:06:53Z</time>
      </trkpt>
      <trkpt lat="45.71564" lon="6.46415">
        <ele>719</ele>
        <time>2022-07-16T02:06:54Z</time>
      </trkpt>
      <trkpt lat="45.71564" lon="6.4642">
        <ele>719</ele>
        <time>2022-07-16T02:06:55Z</time>
      </trkpt>
      <trkpt lat="45.71565" lon="6.46424">
        <ele>719</ele>
        <time>2022-07-16T02:06:56Z</time>
      </trkpt>
      <trkpt lat="45.71566" lon="6.46429">
        <ele>720</ele>
        <time>2022-07-16T02:06:57Z</time>
      </trkpt>
      <trkpt lat="45.71566" lon="6.46431">
        <ele>720</ele>
        <time>2022-07-16T02:06:58Z</time>
      </trkpt>
      <trkpt lat="45.71566" lon="6.46433">
        <ele>720</ele>
        <time>2022-07-16T02:06:59Z</time>
      </trkpt>
      <trkpt lat="45.71567" lon="6.46434">
        <ele>720</ele>
        <time>2022-07-16T02:07:00Z</time>
      </trkpt>
      <trkpt lat="45.71567" lon="6.46436">
        <ele>720</ele>
        <time>2022-07-16T02:07:01Z</time>
      </trkpt>
      <trkpt lat="45.71568" lon="6.46446">
        <ele>720</ele>
        <time>2022-07-16T02:07:02Z</time>
      </trkpt>
      <trkpt lat="45.71568" lon="6.46448">
        <ele>720</ele>
        <time>2022-07-16T02:07:03Z</time>
      </trkpt>
      <trkpt lat="45.71569" lon="6.4645">
        <ele>720</ele>
        <time>2022-07-16T02:07:04Z</time>
      </trkpt>
      <trkpt lat="45.71569" lon="6.46452">
        <ele>720</ele>
        <time>2022-07-16T02:07:05Z</time>
      </trkpt>
      <trkpt lat="45.71569" lon="6.46461">
        <ele>720</ele>
        <time>2022-07-16T02:07:06Z</time>
      </trkpt>
      <trkpt lat="45.71569" lon="6.46462">
        <ele>720</ele>
        <time>2022-07-16T02:07:07Z</time>
      </trkpt>
      <trkpt lat="45.71569" lon="6.46464">
        <ele>720</ele>
        <time>2022-07-16T02:07:08Z</time>
      </trkpt>
      <trkpt lat="45.71569" lon="6.46465">
        <ele>720</ele>
        <time>2022-07-16T02:07:09Z</time>
      </trkpt>
      <trkpt lat="45.71569" lon="6.46467">
        <ele>720</ele>
        <time>2022-07-16T02:07:10Z</time>
      </trkpt>
      <trkpt lat="45.71567" lon="6.46478">
        <ele>720</ele>
        <time>2022-07-16T02:07:11Z</time>
      </trkpt>
      <trkpt lat="45.71566" lon="6.46481">
        <ele>720</ele>
        <time>2022-07-16T02:07:12Z</time>
      </trkpt>
      <trkpt lat="45.71566" lon="6.46485">
        <ele>720</ele>
        <time>2022-07-16T02:07:13Z</time>
      </trkpt>
      <trkpt lat="45.71565" lon="6.46488">
        <ele>720</ele>
        <time>2022-07-16T02:07:14Z</time>
      </trkpt>
      <trkpt lat="45.71566" lon="6.46492">
        <ele>720</ele>
        <time>2022-07-16T02:07:15Z</time>
      </trkpt>
      <trkpt lat="45.71566" lon="6.46495">
        <ele>720</ele>
        <time>2022-07-16T02:07:16Z</time>
      </trkpt>
      <trkpt lat="45.71566" lon="6.46499">
        <ele>720</ele>
        <time>2022-07-16T02:07:17Z</time>
      </trkpt>
      <trkpt lat="45.71566" lon="6.46503">
        <ele>720</ele>
        <time>2022-07-16T02:07:18Z</time>
      </trkpt>
      <trkpt lat="45.71566" lon="6.46504">
        <ele>720</ele>
        <time>2022-07-16T02:07:19Z</time>
      </trkpt>
      <trkpt lat="45.71566" lon="6.46506">
        <ele>721</ele>
        <time>2022-07-16T02:07:20Z</time>
      </trkpt>
      <trkpt lat="45.71566" lon="6.46507">
        <ele>721</ele>
        <time>2022-07-16T02:07:21Z</time>
      </trkpt>
      <trkpt lat="45.71566" lon="6.46509">
        <ele>721</ele>
        <time>2022-07-16T02:07:22Z</time>
      </trkpt>
      <trkpt lat="45.71565" lon="6.4651">
        <ele>721</ele>
        <time>2022-07-16T02:07:23Z</time>
      </trkpt>
      <trkpt lat="45.71564" lon="6.46521">
        <ele>721</ele>
        <time>2022-07-16T02:07:24Z</time>
      </trkpt>
      <trkpt lat="45.71563" lon="6.46524">
        <ele>721</ele>
        <time>2022-07-16T02:07:25Z</time>
      </trkpt>
      <trkpt lat="45.71563" lon="6.46528">
        <ele>721</ele>
        <time>2022-07-16T02:07:26Z</time>
      </trkpt>
      <trkpt lat="45.71563" lon="6.46531">
        <ele>721</ele>
        <time>2022-07-16T02:07:27Z</time>
      </trkpt>
      <trkpt lat="45.71562" lon="6.46533">
        <ele>722</ele>
        <time>2022-07-16T02:07:28Z</time>
      </trkpt>
      <trkpt lat="45.71561" lon="6.46534">
        <ele>722</ele>
        <time>2022-07-16T02:07:29Z</time>
      </trkpt>
      <trkpt lat="45.7156" lon="6.46536">
        <ele>722</ele>
        <time>2022-07-16T02:07:30Z</time>
      </trkpt>
      <trkpt lat="45.7156" lon="6.46537">
        <ele>722</ele>
        <time>2022-07-16T02:07:31Z</time>
      </trkpt>
      <trkpt lat="45.71555" lon="6.46547">
        <ele>722</ele>
        <time>2022-07-16T02:07:32Z</time>
      </trkpt>
      <trkpt lat="45.71553" lon="6.46551">
        <ele>722</ele>
        <time>2022-07-16T02:07:33Z</time>
      </trkpt>
      <trkpt lat="45.71551" lon="6.46554">
        <ele>722</ele>
        <time>2022-07-16T02:07:34Z</time>
      </trkpt>
      <trkpt lat="45.7155" lon="6.46557">
        <ele>722</ele>
        <time>2022-07-16T02:07:35Z</time>
      </trkpt>
      <trkpt lat="45.71549" lon="6.46559">
        <ele>722</ele>
        <time>2022-07-16T02:07:36Z</time>
      </trkpt>
      <trkpt lat="45.71548" lon="6.46562">
        <ele>722</ele>
        <time>2022-07-16T02:07:37Z</time>
      </trkpt>
      <trkpt lat="45.71547" lon="6.46564">
        <ele>722</ele>
        <time>2022-07-16T02:07:38Z</time>
      </trkpt>
      <trkpt lat="45.71546" lon="6.46566">
        <ele>722</ele>
        <time>2022-07-16T02:07:39Z</time>
      </trkpt>
      <trkpt lat="45.71545" lon="6.46569">
        <ele>721</ele>
        <time>2022-07-16T02:07:40Z</time>
      </trkpt>
      <trkpt lat="45.71544" lon="6.46571">
        <ele>721</ele>
        <time>2022-07-16T02:07:41Z</time>
      </trkpt>
      <trkpt lat="45.71543" lon="6.46573">
        <ele>721</ele>
        <time>2022-07-16T02:07:42Z</time>
      </trkpt>
      <trkpt lat="45.71539" lon="6.46583">
        <ele>721</ele>
        <time>2022-07-16T02:07:43Z</time>
      </trkpt>
      <trkpt lat="45.71537" lon="6.46586">
        <ele>721</ele>
        <time>2022-07-16T02:07:44Z</time>
      </trkpt>
      <trkpt lat="45.71535" lon="6.4659">
        <ele>720</ele>
        <time>2022-07-16T02:07:45Z</time>
      </trkpt>
      <trkpt lat="45.71535" lon="6.46593">
        <ele>720</ele>
        <time>2022-07-16T02:07:46Z</time>
      </trkpt>
      <trkpt lat="45.71534" lon="6.46597">
        <ele>720</ele>
        <time>2022-07-16T02:07:47Z</time>
      </trkpt>
      <trkpt lat="45.71534" lon="6.466">
        <ele>720</ele>
        <time>2022-07-16T02:07:48Z</time>
      </trkpt>
      <trkpt lat="45.71533" lon="6.46603">
        <ele>720</ele>
        <time>2022-07-16T02:07:49Z</time>
      </trkpt>
      <trkpt lat="45.71532" lon="6.46606">
        <ele>720</ele>
        <time>2022-07-16T02:07:50Z</time>
      </trkpt>
      <trkpt lat="45.71532" lon="6.4661">
        <ele>720</ele>
        <time>2022-07-16T02:07:51Z</time>
      </trkpt>
      <trkpt lat="45.71531" lon="6.46613">
        <ele>720</ele>
        <time>2022-07-16T02:07:52Z</time>
      </trkpt>
      <trkpt lat="45.71531" lon="6.46617">
        <ele>719</ele>
        <time>2022-07-16T02:07:53Z</time>
      </trkpt>
      <trkpt lat="45.7153" lon="6.46619">
        <ele>719</ele>
        <time>2022-07-16T02:07:54Z</time>
      </trkpt>
      <trkpt lat="45.7153" lon="6.46622">
        <ele>719</ele>
        <time>2022-07-16T02:07:55Z</time>
      </trkpt>
      <trkpt lat="45.71529" lon="6.46624">
        <ele>719</ele>
        <time>2022-07-16T02:07:56Z</time>
      </trkpt>
      <trkpt lat="45.71529" lon="6.46627">
        <ele>719</ele>
        <time>2022-07-16T02:07:57Z</time>
      </trkpt>
      <trkpt lat="45.71528" lon="6.4663">
        <ele>719</ele>
        <time>2022-07-16T02:07:58Z</time>
      </trkpt>
      <trkpt lat="45.71528" lon="6.46634">
        <ele>719</ele>
        <time>2022-07-16T02:07:59Z</time>
      </trkpt>
      <trkpt lat="45.71527" lon="6.46639">
        <ele>719</ele>
        <time>2022-07-16T02:08:00Z</time>
      </trkpt>
      <trkpt lat="45.71527" lon="6.46644">
        <ele>719</ele>
        <time>2022-07-16T02:08:01Z</time>
      </trkpt>
      <trkpt lat="45.71526" lon="6.46647">
        <ele>719</ele>
        <time>2022-07-16T02:08:02Z</time>
      </trkpt>
      <trkpt lat="45.71525" lon="6.4665">
        <ele>719</ele>
        <time>2022-07-16T02:08:03Z</time>
      </trkpt>
      <trkpt lat="45.71524" lon="6.46654">
        <ele>719</ele>
        <time>2022-07-16T02:08:04Z</time>
      </trkpt>
      <trkpt lat="45.71523" lon="6.46657">
        <ele>719</ele>
        <time>2022-07-16T02:08:05Z</time>
      </trkpt>
      <trkpt lat="45.71523" lon="6.46661">
        <ele>719</ele>
        <time>2022-07-16T02:08:06Z</time>
      </trkpt>
      <trkpt lat="45.71523" lon="6.46665">
        <ele>719</ele>
        <time>2022-07-16T02:08:07Z</time>
      </trkpt>
      <trkpt lat="45.71523" lon="6.46669">
        <ele>719</ele>
        <time>2022-07-16T02:08:08Z</time>
      </trkpt>
      <trkpt lat="45.71523" lon="6.46672">
        <ele>719</ele>
        <time>2022-07-16T02:08:09Z</time>
      </trkpt>
      <trkpt lat="45.71523" lon="6.46674">
        <ele>719</ele>
        <time>2022-07-16T02:08:10Z</time>
      </trkpt>
      <trkpt lat="45.71522" lon="6.46676">
        <ele>719</ele>
        <time>2022-07-16T02:08:11Z</time>
      </trkpt>
      <trkpt lat="45.71522" lon="6.46678">
        <ele>718</ele>
        <time>2022-07-16T02:08:12Z</time>
      </trkpt>
      <trkpt lat="45.71521" lon="6.46679">
        <ele>718</ele>
        <time>2022-07-16T02:08:13Z</time>
      </trkpt>
      <trkpt lat="45.71518" lon="6.46689">
        <ele>718</ele>
        <time>2022-07-16T02:08:14Z</time>
      </trkpt>
      <trkpt lat="45.71517" lon="6.46692">
        <ele>718</ele>
        <time>2022-07-16T02:08:15Z</time>
      </trkpt>
      <trkpt lat="45.71516" lon="6.46695">
        <ele>717</ele>
        <time>2022-07-16T02:08:16Z</time>
      </trkpt>
      <trkpt lat="45.71515" lon="6.46698">
        <ele>716</ele>
        <time>2022-07-16T02:08:17Z</time>
      </trkpt>
      <trkpt lat="45.71515" lon="6.46701">
        <ele>716</ele>
        <time>2022-07-16T02:08:18Z</time>
      </trkpt>
      <trkpt lat="45.71514" lon="6.46704">
        <ele>716</ele>
        <time>2022-07-16T02:08:19Z</time>
      </trkpt>
      <trkpt lat="45.71514" lon="6.46708">
        <ele>716</ele>
        <time>2022-07-16T02:08:20Z</time>
      </trkpt>
      <trkpt lat="45.71513" lon="6.46711">
        <ele>716</ele>
        <time>2022-07-16T02:08:21Z</time>
      </trkpt>
      <trkpt lat="45.71513" lon="6.46712">
        <ele>715</ele>
        <time>2022-07-16T02:08:22Z</time>
      </trkpt>
      <trkpt lat="45.71512" lon="6.46714">
        <ele>715</ele>
        <time>2022-07-16T02:08:23Z</time>
      </trkpt>
      <trkpt lat="45.71512" lon="6.46715">
        <ele>715</ele>
        <time>2022-07-16T02:08:24Z</time>
      </trkpt>
      <trkpt lat="45.71512" lon="6.46717">
        <ele>715</ele>
        <time>2022-07-16T02:08:25Z</time>
      </trkpt>
      <trkpt lat="45.71512" lon="6.46719">
        <ele>715</ele>
        <time>2022-07-16T02:08:26Z</time>
      </trkpt>
      <trkpt lat="45.71509" lon="6.46729">
        <ele>715</ele>
        <time>2022-07-16T02:08:27Z</time>
      </trkpt>
      <trkpt lat="45.71508" lon="6.46733">
        <ele>715</ele>
        <time>2022-07-16T02:08:28Z</time>
      </trkpt>
      <trkpt lat="45.71506" lon="6.46736">
        <ele>715</ele>
        <time>2022-07-16T02:08:29Z</time>
      </trkpt>
      <trkpt lat="45.71505" lon="6.46739">
        <ele>714</ele>
        <time>2022-07-16T02:08:30Z</time>
      </trkpt>
      <trkpt lat="45.71505" lon="6.46741">
        <ele>715</ele>
        <time>2022-07-16T02:08:31Z</time>
      </trkpt>
      <trkpt lat="45.71505" lon="6.46743">
        <ele>715</ele>
        <time>2022-07-16T02:08:32Z</time>
      </trkpt>
      <trkpt lat="45.71505" lon="6.46744">
        <ele>715</ele>
        <time>2022-07-16T02:08:33Z</time>
      </trkpt>
      <trkpt lat="45.71505" lon="6.46746">
        <ele>715</ele>
        <time>2022-07-16T02:08:34Z</time>
      </trkpt>
      <trkpt lat="45.71504" lon="6.46757">
        <ele>715</ele>
        <time>2022-07-16T02:08:35Z</time>
      </trkpt>
      <trkpt lat="45.71504" lon="6.46761">
        <ele>715</ele>
        <time>2022-07-16T02:08:36Z</time>
      </trkpt>
      <trkpt lat="45.71504" lon="6.46764">
        <ele>715</ele>
        <time>2022-07-16T02:08:37Z</time>
      </trkpt>
      <trkpt lat="45.71503" lon="6.46768">
        <ele>715</ele>
        <time>2022-07-16T02:08:38Z</time>
      </trkpt>
      <trkpt lat="45.71502" lon="6.4677">
        <ele>715</ele>
        <time>2022-07-16T02:08:39Z</time>
      </trkpt>
      <trkpt lat="45.71501" lon="6.46773">
        <ele>715</ele>
        <time>2022-07-16T02:08:40Z</time>
      </trkpt>
      <trkpt lat="45.71499" lon="6.46776">
        <ele>715</ele>
        <time>2022-07-16T02:08:41Z</time>
      </trkpt>
      <trkpt lat="45.71498" lon="6.46778">
        <ele>715</ele>
        <time>2022-07-16T02:08:42Z</time>
      </trkpt>
      <trkpt lat="45.71498" lon="6.4678">
        <ele>715</ele>
        <time>2022-07-16T02:08:43Z</time>
      </trkpt>
      <trkpt lat="45.71497" lon="6.46781">
        <ele>715</ele>
        <time>2022-07-16T02:08:44Z</time>
      </trkpt>
      <trkpt lat="45.71497" lon="6.46782">
        <ele>715</ele>
        <time>2022-07-16T02:08:45Z</time>
      </trkpt>
      <trkpt lat="45.71496" lon="6.46784">
        <ele>715</ele>
        <time>2022-07-16T02:08:46Z</time>
      </trkpt>
      <trkpt lat="45.71496" lon="6.46785">
        <ele>715</ele>
        <time>2022-07-16T02:08:47Z</time>
      </trkpt>
      <trkpt lat="45.71493" lon="6.46795">
        <ele>715</ele>
        <time>2022-07-16T02:08:48Z</time>
      </trkpt>
      <trkpt lat="45.71491" lon="6.46797">
        <ele>715</ele>
        <time>2022-07-16T02:08:49Z</time>
      </trkpt>
      <trkpt lat="45.7149" lon="6.468">
        <ele>715</ele>
        <time>2022-07-16T02:08:50Z</time>
      </trkpt>
      <trkpt lat="45.71488" lon="6.46802">
        <ele>715</ele>
        <time>2022-07-16T02:08:51Z</time>
      </trkpt>
      <trkpt lat="45.71487" lon="6.46805">
        <ele>715</ele>
        <time>2022-07-16T02:08:52Z</time>
      </trkpt>
      <trkpt lat="45.71486" lon="6.46808">
        <ele>715</ele>
        <time>2022-07-16T02:08:53Z</time>
      </trkpt>
      <trkpt lat="45.71485" lon="6.4681">
        <ele>715</ele>
        <time>2022-07-16T02:08:54Z</time>
      </trkpt>
      <trkpt lat="45.71484" lon="6.46813">
        <ele>716</ele>
        <time>2022-07-16T02:08:55Z</time>
      </trkpt>
      <trkpt lat="45.71483" lon="6.46815">
        <ele>716</ele>
        <time>2022-07-16T02:08:56Z</time>
      </trkpt>
      <trkpt lat="45.71483" lon="6.46817">
        <ele>716</ele>
        <time>2022-07-16T02:08:57Z</time>
      </trkpt>
      <trkpt lat="45.71482" lon="6.4682">
        <ele>716</ele>
        <time>2022-07-16T02:08:58Z</time>
      </trkpt>
      <trkpt lat="45.71482" lon="6.46822">
        <ele>716</ele>
        <time>2022-07-16T02:08:59Z</time>
      </trkpt>
      <trkpt lat="45.71481" lon="6.46824">
        <ele>716</ele>
        <time>2022-07-16T02:09:00Z</time>
      </trkpt>
      <trkpt lat="45.7148" lon="6.46826">
        <ele>716</ele>
        <time>2022-07-16T02:09:01Z</time>
      </trkpt>
      <trkpt lat="45.7148" lon="6.46828">
        <ele>717</ele>
        <time>2022-07-16T02:09:02Z</time>
      </trkpt>
      <trkpt lat="45.71479" lon="6.46832">
        <ele>717</ele>
        <time>2022-07-16T02:09:03Z</time>
      </trkpt>
      <trkpt lat="45.71478" lon="6.46835">
        <ele>717</ele>
        <time>2022-07-16T02:09:04Z</time>
      </trkpt>
      <trkpt lat="45.71477" lon="6.46838">
        <ele>717</ele>
        <time>2022-07-16T02:09:05Z</time>
      </trkpt>
      <trkpt lat="45.71475" lon="6.46841">
        <ele>717</ele>
        <time>2022-07-16T02:09:06Z</time>
      </trkpt>
      <trkpt lat="45.71474" lon="6.46842">
        <ele>717</ele>
        <time>2022-07-16T02:09:07Z</time>
      </trkpt>
      <trkpt lat="45.71474" lon="6.46844">
        <ele>717</ele>
        <time>2022-07-16T02:09:08Z</time>
      </trkpt>
      <trkpt lat="45.71473" lon="6.46845">
        <ele>717</ele>
        <time>2022-07-16T02:09:09Z</time>
      </trkpt>
      <trkpt lat="45.71472" lon="6.46847">
        <ele>717</ele>
        <time>2022-07-16T02:09:10Z</time>
      </trkpt>
      <trkpt lat="45.71467" lon="6.46854">
        <ele>718</ele>
        <time>2022-07-16T02:09:11Z</time>
      </trkpt>
      <trkpt lat="45.71466" lon="6.46855">
        <ele>718</ele>
        <time>2022-07-16T02:09:12Z</time>
      </trkpt>
      <trkpt lat="45.71465" lon="6.46857">
        <ele>718</ele>
        <time>2022-07-16T02:09:13Z</time>
      </trkpt>
      <trkpt lat="45.71464" lon="6.46858">
        <ele>718</ele>
        <time>2022-07-16T02:09:14Z</time>
      </trkpt>
      <trkpt lat="45.7146" lon="6.46864">
        <ele>718</ele>
        <time>2022-07-16T02:09:15Z</time>
      </trkpt>
      <trkpt lat="45.71459" lon="6.46866">
        <ele>718</ele>
        <time>2022-07-16T02:09:16Z</time>
      </trkpt>
      <trkpt lat="45.71459" lon="6.46867">
        <ele>718</ele>
        <time>2022-07-16T02:09:17Z</time>
      </trkpt>
      <trkpt lat="45.71458" lon="6.46868">
        <ele>718</ele>
        <time>2022-07-16T02:09:18Z</time>
      </trkpt>
      <trkpt lat="45.71457" lon="6.4687">
        <ele>718</ele>
        <time>2022-07-16T02:09:19Z</time>
      </trkpt>
      <trkpt lat="45.71454" lon="6.46879">
        <ele>718</ele>
        <time>2022-07-16T02:09:20Z</time>
      </trkpt>
      <trkpt lat="45.71453" lon="6.46881">
        <ele>718</ele>
        <time>2022-07-16T02:09:21Z</time>
      </trkpt>
      <trkpt lat="45.71452" lon="6.46884">
        <ele>718</ele>
        <time>2022-07-16T02:09:22Z</time>
      </trkpt>
      <trkpt lat="45.71452" lon="6.46886">
        <ele>717</ele>
        <time>2022-07-16T02:09:23Z</time>
      </trkpt>
      <trkpt lat="45.71451" lon="6.46889">
        <ele>717</ele>
        <time>2022-07-16T02:09:24Z</time>
      </trkpt>
      <trkpt lat="45.7145" lon="6.4689">
        <ele>717</ele>
        <time>2022-07-16T02:09:25Z</time>
      </trkpt>
      <trkpt lat="45.71449" lon="6.46892">
        <ele>716</ele>
        <time>2022-07-16T02:09:26Z</time>
      </trkpt>
      <trkpt lat="45.71448" lon="6.46893">
        <ele>715</ele>
        <time>2022-07-16T02:09:27Z</time>
      </trkpt>
      <trkpt lat="45.71448" lon="6.46895">
        <ele>715</ele>
        <time>2022-07-16T02:09:28Z</time>
      </trkpt>
      <trkpt lat="45.71442" lon="6.46904">
        <ele>715</ele>
        <time>2022-07-16T02:09:29Z</time>
      </trkpt>
      <trkpt lat="45.71441" lon="6.46906">
        <ele>715</ele>
        <time>2022-07-16T02:09:30Z</time>
      </trkpt>
      <trkpt lat="45.71439" lon="6.46909">
        <ele>715</ele>
        <time>2022-07-16T02:09:31Z</time>
      </trkpt>
      <trkpt lat="45.71438" lon="6.46912">
        <ele>715</ele>
        <time>2022-07-16T02:09:32Z</time>
      </trkpt>
      <trkpt lat="45.71437" lon="6.46913">
        <ele>714</ele>
        <time>2022-07-16T02:09:33Z</time>
      </trkpt>
      <trkpt lat="45.71437" lon="6.46914">
        <ele>714</ele>
        <time>2022-07-16T02:09:34Z</time>
      </trkpt>
      <trkpt lat="45.71436" lon="6.46916">
        <ele>714</ele>
        <time>2022-07-16T02:09:35Z</time>
      </trkpt>
      <trkpt lat="45.71435" lon="6.46917">
        <ele>714</ele>
        <time>2022-07-16T02:09:36Z</time>
      </trkpt>
      <trkpt lat="45.71435" lon="6.46918">
        <ele>714</ele>
        <time>2022-07-16T02:09:37Z</time>
      </trkpt>
      <trkpt lat="45.7143" lon="6.46927">
        <ele>714</ele>
        <time>2022-07-16T02:09:38Z</time>
      </trkpt>
      <trkpt lat="45.71429" lon="6.4693">
        <ele>714</ele>
        <time>2022-07-16T02:09:39Z</time>
      </trkpt>
      <trkpt lat="45.71428" lon="6.46933">
        <ele>714</ele>
        <time>2022-07-16T02:09:40Z</time>
      </trkpt>
      <trkpt lat="45.71427" lon="6.46936">
        <ele>714</ele>
        <time>2022-07-16T02:09:41Z</time>
      </trkpt>
      <trkpt lat="45.71426" lon="6.46939">
        <ele>714</ele>
        <time>2022-07-16T02:09:42Z</time>
      </trkpt>
      <trkpt lat="45.71425" lon="6.46942">
        <ele>714</ele>
        <time>2022-07-16T02:09:43Z</time>
      </trkpt>
      <trkpt lat="45.71425" lon="6.46945">
        <ele>714</ele>
        <time>2022-07-16T02:09:45Z</time>
      </trkpt>
      <trkpt lat="45.71424" lon="6.46948">
        <ele>714</ele>
        <time>2022-07-16T02:09:46Z</time>
      </trkpt>
      <trkpt lat="45.71423" lon="6.4695">
        <ele>714</ele>
        <time>2022-07-16T02:09:47Z</time>
      </trkpt>
      <trkpt lat="45.71423" lon="6.46952">
        <ele>714</ele>
        <time>2022-07-16T02:09:48Z</time>
      </trkpt>
      <trkpt lat="45.71422" lon="6.46954">
        <ele>715</ele>
        <time>2022-07-16T02:09:49Z</time>
      </trkpt>
      <trkpt lat="45.71422" lon="6.46956">
        <ele>715</ele>
        <time>2022-07-16T02:09:50Z</time>
      </trkpt>
      <trkpt lat="45.71422" lon="6.46957">
        <ele>715</ele>
        <time>2022-07-16T02:09:51Z</time>
      </trkpt>
      <trkpt lat="45.7142" lon="6.46968">
        <ele>715</ele>
        <time>2022-07-16T02:09:52Z</time>
      </trkpt>
      <trkpt lat="45.7142" lon="6.46971">
        <ele>715</ele>
        <time>2022-07-16T02:09:53Z</time>
      </trkpt>
      <trkpt lat="45.7142" lon="6.46974">
        <ele>715</ele>
        <time>2022-07-16T02:09:54Z</time>
      </trkpt>
      <trkpt lat="45.7142" lon="6.46977">
        <ele>715</ele>
        <time>2022-07-16T02:09:55Z</time>
      </trkpt>
      <trkpt lat="45.7142" lon="6.4698">
        <ele>715</ele>
        <time>2022-07-16T02:09:56Z</time>
      </trkpt>
      <trkpt lat="45.7142" lon="6.46983">
        <ele>715</ele>
        <time>2022-07-16T02:09:57Z</time>
      </trkpt>
      <trkpt lat="45.7142" lon="6.46986">
        <ele>715</ele>
        <time>2022-07-16T02:09:58Z</time>
      </trkpt>
      <trkpt lat="45.7142" lon="6.4699">
        <ele>715</ele>
        <time>2022-07-16T02:09:59Z</time>
      </trkpt>
      <trkpt lat="45.7142" lon="6.46993">
        <ele>714</ele>
        <time>2022-07-16T02:10:00Z</time>
      </trkpt>
      <trkpt lat="45.71419" lon="6.46996">
        <ele>714</ele>
        <time>2022-07-16T02:10:01Z</time>
      </trkpt>
      <trkpt lat="45.71419" lon="6.46998">
        <ele>714</ele>
        <time>2022-07-16T02:10:02Z</time>
      </trkpt>
      <trkpt lat="45.71418" lon="6.47001">
        <ele>714</ele>
        <time>2022-07-16T02:10:03Z</time>
      </trkpt>
      <trkpt lat="45.71418" lon="6.47003">
        <ele>714</ele>
        <time>2022-07-16T02:10:04Z</time>
      </trkpt>
      <trkpt lat="45.71417" lon="6.47006">
        <ele>714</ele>
        <time>2022-07-16T02:10:05Z</time>
      </trkpt>
      <trkpt lat="45.71416" lon="6.47008">
        <ele>715</ele>
        <time>2022-07-16T02:10:06Z</time>
      </trkpt>
      <trkpt lat="45.71416" lon="6.47013">
        <ele>715</ele>
        <time>2022-07-16T02:10:07Z</time>
      </trkpt>
      <trkpt lat="45.71416" lon="6.47017">
        <ele>715</ele>
        <time>2022-07-16T02:10:08Z</time>
      </trkpt>
      <trkpt lat="45.71416" lon="6.47021">
        <ele>715</ele>
        <time>2022-07-16T02:10:09Z</time>
      </trkpt>
      <trkpt lat="45.71415" lon="6.47023">
        <ele>715</ele>
        <time>2022-07-16T02:10:10Z</time>
      </trkpt>
      <trkpt lat="45.71415" lon="6.47026">
        <ele>715</ele>
        <time>2022-07-16T02:10:11Z</time>
      </trkpt>
      <trkpt lat="45.71415" lon="6.47028">
        <ele>715</ele>
        <time>2022-07-16T02:10:12Z</time>
      </trkpt>
      <trkpt lat="45.71415" lon="6.4703">
        <ele>715</ele>
        <time>2022-07-16T02:10:13Z</time>
      </trkpt>
      <trkpt lat="45.71414" lon="6.47042">
        <ele>714</ele>
        <time>2022-07-16T02:10:14Z</time>
      </trkpt>
      <trkpt lat="45.71414" lon="6.47045">
        <ele>715</ele>
        <time>2022-07-16T02:10:15Z</time>
      </trkpt>
      <trkpt lat="45.71414" lon="6.47049">
        <ele>715</ele>
        <time>2022-07-16T02:10:16Z</time>
      </trkpt>
      <trkpt lat="45.71414" lon="6.47052">
        <ele>715</ele>
        <time>2022-07-16T02:10:17Z</time>
      </trkpt>
      <trkpt lat="45.71413" lon="6.47055">
        <ele>715</ele>
        <time>2022-07-16T02:10:18Z</time>
      </trkpt>
      <trkpt lat="45.71413" lon="6.47059">
        <ele>715</ele>
        <time>2022-07-16T02:10:19Z</time>
      </trkpt>
      <trkpt lat="45.71413" lon="6.47062">
        <ele>715</ele>
        <time>2022-07-16T02:10:20Z</time>
      </trkpt>
      <trkpt lat="45.71413" lon="6.47065">
        <ele>715</ele>
        <time>2022-07-16T02:10:21Z</time>
      </trkpt>
      <trkpt lat="45.71412" lon="6.47069">
        <ele>715</ele>
        <time>2022-07-16T02:10:22Z</time>
      </trkpt>
      <trkpt lat="45.71411" lon="6.47072">
        <ele>715</ele>
        <time>2022-07-16T02:10:23Z</time>
      </trkpt>
      <trkpt lat="45.7141" lon="6.47076">
        <ele>716</ele>
        <time>2022-07-16T02:10:24Z</time>
      </trkpt>
      <trkpt lat="45.71409" lon="6.47079">
        <ele>716</ele>
        <time>2022-07-16T02:10:25Z</time>
      </trkpt>
      <trkpt lat="45.71408" lon="6.47081">
        <ele>716</ele>
        <time>2022-07-16T02:10:26Z</time>
      </trkpt>
      <trkpt lat="45.71408" lon="6.47083">
        <ele>716</ele>
        <time>2022-07-16T02:10:27Z</time>
      </trkpt>
      <trkpt lat="45.71407" lon="6.47084">
        <ele>716</ele>
        <time>2022-07-16T02:10:28Z</time>
      </trkpt>
      <trkpt lat="45.71406" lon="6.47086">
        <ele>716</ele>
        <time>2022-07-16T02:10:29Z</time>
      </trkpt>
      <trkpt lat="45.71403" lon="6.47096">
        <ele>716</ele>
        <time>2022-07-16T02:10:30Z</time>
      </trkpt>
      <trkpt lat="45.71402" lon="6.47099">
        <ele>716</ele>
        <time>2022-07-16T02:10:31Z</time>
      </trkpt>
      <trkpt lat="45.71401" lon="6.47102">
        <ele>716</ele>
        <time>2022-07-16T02:10:32Z</time>
      </trkpt>
      <trkpt lat="45.714" lon="6.47105">
        <ele>715</ele>
        <time>2022-07-16T02:10:33Z</time>
      </trkpt>
      <trkpt lat="45.71399" lon="6.47108">
        <ele>715</ele>
        <time>2022-07-16T02:10:34Z</time>
      </trkpt>
      <trkpt lat="45.71398" lon="6.47111">
        <ele>715</ele>
        <time>2022-07-16T02:10:35Z</time>
      </trkpt>
      <trkpt lat="45.71397" lon="6.47114">
        <ele>715</ele>
        <time>2022-07-16T02:10:36Z</time>
      </trkpt>
      <trkpt lat="45.71396" lon="6.47117">
        <ele>715</ele>
        <time>2022-07-16T02:10:37Z</time>
      </trkpt>
      <trkpt lat="45.71395" lon="6.47119">
        <ele>715</ele>
        <time>2022-07-16T02:10:38Z</time>
      </trkpt>
      <trkpt lat="45.71394" lon="6.47122">
        <ele>715</ele>
        <time>2022-07-16T02:10:39Z</time>
      </trkpt>
      <trkpt lat="45.71393" lon="6.47125">
        <ele>715</ele>
        <time>2022-07-16T02:10:40Z</time>
      </trkpt>
      <trkpt lat="45.71392" lon="6.47127">
        <ele>715</ele>
        <time>2022-07-16T02:10:41Z</time>
      </trkpt>
      <trkpt lat="45.71391" lon="6.4713">
        <ele>715</ele>
        <time>2022-07-16T02:10:42Z</time>
      </trkpt>
      <trkpt lat="45.71391" lon="6.47133">
        <ele>715</ele>
        <time>2022-07-16T02:10:43Z</time>
      </trkpt>
      <trkpt lat="45.7139" lon="6.47135">
        <ele>714</ele>
        <time>2022-07-16T02:10:44Z</time>
      </trkpt>
      <trkpt lat="45.71389" lon="6.47138">
        <ele>714</ele>
        <time>2022-07-16T02:10:45Z</time>
      </trkpt>
      <trkpt lat="45.71389" lon="6.47141">
        <ele>714</ele>
        <time>2022-07-16T02:10:46Z</time>
      </trkpt>
      <trkpt lat="45.71388" lon="6.47143">
        <ele>714</ele>
        <time>2022-07-16T02:10:47Z</time>
      </trkpt>
      <trkpt lat="45.71388" lon="6.47145">
        <ele>714</ele>
        <time>2022-07-16T02:10:48Z</time>
      </trkpt>
      <trkpt lat="45.71387" lon="6.47146">
        <ele>714</ele>
        <time>2022-07-16T02:10:49Z</time>
      </trkpt>
      <trkpt lat="45.71387" lon="6.47147">
        <ele>714</ele>
        <time>2022-07-16T02:10:50Z</time>
      </trkpt>
      <trkpt lat="45.71387" lon="6.47149">
        <ele>713</ele>
        <time>2022-07-16T02:10:51Z</time>
      </trkpt>
      <trkpt lat="45.71386" lon="6.4715">
        <ele>713</ele>
        <time>2022-07-16T02:10:52Z</time>
      </trkpt>
      <trkpt lat="45.71384" lon="6.47157">
        <ele>713</ele>
        <time>2022-07-16T02:10:53Z</time>
      </trkpt>
      <trkpt lat="45.71384" lon="6.47162">
        <ele>712</ele>
        <time>2022-07-16T02:10:54Z</time>
      </trkpt>
      <trkpt lat="45.71384" lon="6.47165">
        <ele>712</ele>
        <time>2022-07-16T02:10:55Z</time>
      </trkpt>
      <trkpt lat="45.71385" lon="6.47167">
        <ele>712</ele>
        <time>2022-07-16T02:10:56Z</time>
      </trkpt>
      <trkpt lat="45.71384" lon="6.47172">
        <ele>712</ele>
        <time>2022-07-16T02:10:58Z</time>
      </trkpt>
      <trkpt lat="45.71383" lon="6.47174">
        <ele>712</ele>
        <time>2022-07-16T02:10:59Z</time>
      </trkpt>
      <trkpt lat="45.71383" lon="6.47177">
        <ele>712</ele>
        <time>2022-07-16T02:11:00Z</time>
      </trkpt>
      <trkpt lat="45.71382" lon="6.4718">
        <ele>712</ele>
        <time>2022-07-16T02:11:01Z</time>
      </trkpt>
      <trkpt lat="45.71382" lon="6.47183">
        <ele>712</ele>
        <time>2022-07-16T02:11:02Z</time>
      </trkpt>
      <trkpt lat="45.71383" lon="6.47187">
        <ele>711</ele>
        <time>2022-07-16T02:11:03Z</time>
      </trkpt>
      <trkpt lat="45.71384" lon="6.47191">
        <ele>711</ele>
        <time>2022-07-16T02:11:04Z</time>
      </trkpt>
      <trkpt lat="45.71384" lon="6.47195">
        <ele>711</ele>
        <time>2022-07-16T02:11:05Z</time>
      </trkpt>
      <trkpt lat="45.71384" lon="6.47199">
        <ele>711</ele>
        <time>2022-07-16T02:11:06Z</time>
      </trkpt>
      <trkpt lat="45.71385" lon="6.47202">
        <ele>711</ele>
        <time>2022-07-16T02:11:07Z</time>
      </trkpt>
      <trkpt lat="45.71385" lon="6.47206">
        <ele>711</ele>
        <time>2022-07-16T02:11:08Z</time>
      </trkpt>
      <trkpt lat="45.71384" lon="6.47209">
        <ele>711</ele>
        <time>2022-07-16T02:11:09Z</time>
      </trkpt>
      <trkpt lat="45.71384" lon="6.47212">
        <ele>710</ele>
        <time>2022-07-16T02:11:10Z</time>
      </trkpt>
      <trkpt lat="45.71383" lon="6.47215">
        <ele>710</ele>
        <time>2022-07-16T02:11:11Z</time>
      </trkpt>
      <trkpt lat="45.71383" lon="6.47219">
        <ele>710</ele>
        <time>2022-07-16T02:11:12Z</time>
      </trkpt>
      <trkpt lat="45.71382" lon="6.47221">
        <ele>710</ele>
        <time>2022-07-16T02:11:13Z</time>
      </trkpt>
      <trkpt lat="45.71381" lon="6.47224">
        <ele>710</ele>
        <time>2022-07-16T02:11:14Z</time>
      </trkpt>
      <trkpt lat="45.7138" lon="6.47227">
        <ele>710</ele>
        <time>2022-07-16T02:11:15Z</time>
      </trkpt>
      <trkpt lat="45.71377" lon="6.47241">
        <ele>711</ele>
        <time>2022-07-16T02:11:20Z</time>
      </trkpt>
      <trkpt lat="45.71376" lon="6.47244">
        <ele>711</ele>
        <time>2022-07-16T02:11:21Z</time>
      </trkpt>
      <trkpt lat="45.71374" lon="6.47247">
        <ele>711</ele>
        <time>2022-07-16T02:11:22Z</time>
      </trkpt>
      <trkpt lat="45.71373" lon="6.4725">
        <ele>711</ele>
        <time>2022-07-16T02:11:23Z</time>
      </trkpt>
      <trkpt lat="45.71372" lon="6.47252">
        <ele>711</ele>
        <time>2022-07-16T02:11:24Z</time>
      </trkpt>
      <trkpt lat="45.7137" lon="6.47255">
        <ele>711</ele>
        <time>2022-07-16T02:11:25Z</time>
      </trkpt>
      <trkpt lat="45.71369" lon="6.47258">
        <ele>711</ele>
        <time>2022-07-16T02:11:26Z</time>
      </trkpt>
      <trkpt lat="45.71368" lon="6.4726">
        <ele>711</ele>
        <time>2022-07-16T02:11:27Z</time>
      </trkpt>
      <trkpt lat="45.71367" lon="6.47263">
        <ele>712</ele>
        <time>2022-07-16T02:11:28Z</time>
      </trkpt>
      <trkpt lat="45.71366" lon="6.47266">
        <ele>712</ele>
        <time>2022-07-16T02:11:29Z</time>
      </trkpt>
      <trkpt lat="45.71364" lon="6.47268">
        <ele>712</ele>
        <time>2022-07-16T02:11:30Z</time>
      </trkpt>
      <trkpt lat="45.71363" lon="6.4727">
        <ele>713</ele>
        <time>2022-07-16T02:11:31Z</time>
      </trkpt>
      <trkpt lat="45.7136" lon="6.47272">
        <ele>713</ele>
        <time>2022-07-16T02:11:33Z</time>
      </trkpt>
      <trkpt lat="45.71359" lon="6.47274">
        <ele>714</ele>
        <time>2022-07-16T02:11:34Z</time>
      </trkpt>
      <trkpt lat="45.71357" lon="6.47276">
        <ele>714</ele>
        <time>2022-07-16T02:11:35Z</time>
      </trkpt>
      <trkpt lat="45.71355" lon="6.47277">
        <ele>714</ele>
        <time>2022-07-16T02:11:36Z</time>
      </trkpt>
      <trkpt lat="45.71354" lon="6.47279">
        <ele>714</ele>
        <time>2022-07-16T02:11:37Z</time>
      </trkpt>
      <trkpt lat="45.71351" lon="6.47282">
        <ele>714</ele>
        <time>2022-07-16T02:11:39Z</time>
      </trkpt>
      <trkpt lat="45.7135" lon="6.47283">
        <ele>714</ele>
        <time>2022-07-16T02:11:40Z</time>
      </trkpt>
      <trkpt lat="45.71349" lon="6.47283">
        <ele>714</ele>
        <time>2022-07-16T02:11:41Z</time>
      </trkpt>
      <trkpt lat="45.71349" lon="6.47284">
        <ele>714</ele>
        <time>2022-07-16T02:11:42Z</time>
      </trkpt>
      <trkpt lat="45.71348" lon="6.47285">
        <ele>714</ele>
        <time>2022-07-16T02:11:43Z</time>
      </trkpt>
      <trkpt lat="45.71347" lon="6.47286">
        <ele>714</ele>
        <time>2022-07-16T02:11:44Z</time>
      </trkpt>
      <trkpt lat="45.71342" lon="6.47293">
        <ele>715</ele>
        <time>2022-07-16T02:11:45Z</time>
      </trkpt>
      <trkpt lat="45.71341" lon="6.47295">
        <ele>715</ele>
        <time>2022-07-16T02:11:46Z</time>
      </trkpt>
      <trkpt lat="45.7134" lon="6.47297">
        <ele>715</ele>
        <time>2022-07-16T02:11:47Z</time>
      </trkpt>
      <trkpt lat="45.71339" lon="6.47298">
        <ele>715</ele>
        <time>2022-07-16T02:11:48Z</time>
      </trkpt>
      <trkpt lat="45.71338" lon="6.473">
        <ele>715</ele>
        <time>2022-07-16T02:11:49Z</time>
      </trkpt>
      <trkpt lat="45.71336" lon="6.47304">
        <ele>715</ele>
        <time>2022-07-16T02:11:52Z</time>
      </trkpt>
      <trkpt lat="45.71335" lon="6.47306">
        <ele>715</ele>
        <time>2022-07-16T02:11:54Z</time>
      </trkpt>
      <trkpt lat="45.71334" lon="6.47308">
        <ele>716</ele>
        <time>2022-07-16T02:11:56Z</time>
      </trkpt>
      <trkpt lat="45.71332" lon="6.47309">
        <ele>716</ele>
        <time>2022-07-16T02:11:58Z</time>
      </trkpt>
      <trkpt lat="45.7133" lon="6.47312">
        <ele>718</ele>
        <time>2022-07-16T02:12:01Z</time>
      </trkpt>
      <trkpt lat="45.71329" lon="6.47314">
        <ele>718</ele>
        <time>2022-07-16T02:12:03Z</time>
      </trkpt>
      <trkpt lat="45.71327" lon="6.47315">
        <ele>718</ele>
        <time>2022-07-16T02:12:05Z</time>
      </trkpt>
      <trkpt lat="45.71325" lon="6.47318">
        <ele>719</ele>
        <time>2022-07-16T02:12:07Z</time>
      </trkpt>
      <trkpt lat="45.71324" lon="6.47321">
        <ele>719</ele>
        <time>2022-07-16T02:12:09Z</time>
      </trkpt>
      <trkpt lat="45.71322" lon="6.47324">
        <ele>719</ele>
        <time>2022-07-16T02:12:11Z</time>
      </trkpt>
      <trkpt lat="45.71322" lon="6.47327">
        <ele>720</ele>
        <time>2022-07-16T02:12:13Z</time>
      </trkpt>
      <trkpt lat="45.71321" lon="6.4733">
        <ele>721</ele>
        <time>2022-07-16T02:12:15Z</time>
      </trkpt>
      <trkpt lat="45.71319" lon="6.47332">
        <ele>721</ele>
        <time>2022-07-16T02:12:17Z</time>
      </trkpt>
      <trkpt lat="45.71318" lon="6.47335">
        <ele>722</ele>
        <time>2022-07-16T02:12:19Z</time>
      </trkpt>
      <trkpt lat="45.71315" lon="6.47338">
        <ele>722</ele>
        <time>2022-07-16T02:12:21Z</time>
      </trkpt>
      <trkpt lat="45.71313" lon="6.47341">
        <ele>723</ele>
        <time>2022-07-16T02:12:23Z</time>
      </trkpt>
      <trkpt lat="45.71311" lon="6.47343">
        <ele>724</ele>
        <time>2022-07-16T02:12:25Z</time>
      </trkpt>
      <trkpt lat="45.7131" lon="6.47345">
        <ele>724</ele>
        <time>2022-07-16T02:12:27Z</time>
      </trkpt>
      <trkpt lat="45.71309" lon="6.47347">
        <ele>724</ele>
        <time>2022-07-16T02:12:29Z</time>
      </trkpt>
      <trkpt lat="45.71307" lon="6.4735">
        <ele>725</ele>
        <time>2022-07-16T02:12:32Z</time>
      </trkpt>
      <trkpt lat="45.71305" lon="6.47353">
        <ele>726</ele>
        <time>2022-07-16T02:12:34Z</time>
      </trkpt>
      <trkpt lat="45.71304" lon="6.47355">
        <ele>726</ele>
        <time>2022-07-16T02:12:36Z</time>
      </trkpt>
      <trkpt lat="45.71303" lon="6.47359">
        <ele>726</ele>
        <time>2022-07-16T02:12:39Z</time>
      </trkpt>
      <trkpt lat="45.71302" lon="6.47362">
        <ele>727</ele>
        <time>2022-07-16T02:12:41Z</time>
      </trkpt>
      <trkpt lat="45.71301" lon="6.47363">
        <ele>727</ele>
        <time>2022-07-16T02:12:42Z</time>
      </trkpt>
      <trkpt lat="45.71301" lon="6.47365">
        <ele>727</ele>
        <time>2022-07-16T02:12:43Z</time>
      </trkpt>
      <trkpt lat="45.713" lon="6.47366">
        <ele>728</ele>
        <time>2022-07-16T02:12:44Z</time>
      </trkpt>
      <trkpt lat="45.713" lon="6.47368">
        <ele>728</ele>
        <time>2022-07-16T02:12:45Z</time>
      </trkpt>
      <trkpt lat="45.71299" lon="6.4737">
        <ele>729</ele>
        <time>2022-07-16T02:12:47Z</time>
      </trkpt>
      <trkpt lat="45.71298" lon="6.47373">
        <ele>729</ele>
        <time>2022-07-16T02:12:50Z</time>
      </trkpt>
      <trkpt lat="45.71296" lon="6.47376">
        <ele>730</ele>
        <time>2022-07-16T02:12:53Z</time>
      </trkpt>
      <trkpt lat="45.71296" lon="6.4738">
        <ele>731</ele>
        <time>2022-07-16T02:12:56Z</time>
      </trkpt>
      <trkpt lat="45.71296" lon="6.47383">
        <ele>731</ele>
        <time>2022-07-16T02:12:58Z</time>
      </trkpt>
      <trkpt lat="45.71295" lon="6.47387">
        <ele>732</ele>
        <time>2022-07-16T02:13:00Z</time>
      </trkpt>
      <trkpt lat="45.71295" lon="6.4739">
        <ele>733</ele>
        <time>2022-07-16T02:13:04Z</time>
      </trkpt>
      <trkpt lat="45.71295" lon="6.47396">
        <ele>733</ele>
        <time>2022-07-16T02:13:08Z</time>
      </trkpt>
      <trkpt lat="45.7129" lon="6.47408">
        <ele>734</ele>
        <time>2022-07-16T02:13:14Z</time>
      </trkpt>
      <trkpt lat="45.7129" lon="6.4741">
        <ele>734</ele>
        <time>2022-07-16T02:13:15Z</time>
      </trkpt>
      <trkpt lat="45.7129" lon="6.47412">
        <ele>735</ele>
        <time>2022-07-16T02:13:16Z</time>
      </trkpt>
      <trkpt lat="45.7129" lon="6.47414">
        <ele>735</ele>
        <time>2022-07-16T02:13:17Z</time>
      </trkpt>
      <trkpt lat="45.7129" lon="6.47416">
        <ele>735</ele>
        <time>2022-07-16T02:13:18Z</time>
      </trkpt>
      <trkpt lat="45.7129" lon="6.47419">
        <ele>735</ele>
        <time>2022-07-16T02:13:20Z</time>
      </trkpt>
      <trkpt lat="45.7129" lon="6.47424">
        <ele>736</ele>
        <time>2022-07-16T02:13:22Z</time>
      </trkpt>
      <trkpt lat="45.7129" lon="6.47428">
        <ele>736</ele>
        <time>2022-07-16T02:13:24Z</time>
      </trkpt>
      <trkpt lat="45.71291" lon="6.47431">
        <ele>737</ele>
        <time>2022-07-16T02:13:25Z</time>
      </trkpt>
      <trkpt lat="45.71291" lon="6.47434">
        <ele>737</ele>
        <time>2022-07-16T02:13:26Z</time>
      </trkpt>
      <trkpt lat="45.71292" lon="6.47437">
        <ele>737</ele>
        <time>2022-07-16T02:13:27Z</time>
      </trkpt>
      <trkpt lat="45.71293" lon="6.4744">
        <ele>737</ele>
        <time>2022-07-16T02:13:28Z</time>
      </trkpt>
      <trkpt lat="45.71293" lon="6.47444">
        <ele>737</ele>
        <time>2022-07-16T02:13:29Z</time>
      </trkpt>
      <trkpt lat="45.71293" lon="6.4745">
        <ele>737</ele>
        <time>2022-07-16T02:13:30Z</time>
      </trkpt>
      <trkpt lat="45.71293" lon="6.47451">
        <ele>737</ele>
        <time>2022-07-16T02:13:31Z</time>
      </trkpt>
      <trkpt lat="45.71294" lon="6.47459">
        <ele>738</ele>
        <time>2022-07-16T02:13:32Z</time>
      </trkpt>
      <trkpt lat="45.71295" lon="6.47462">
        <ele>737</ele>
        <time>2022-07-16T02:13:34Z</time>
      </trkpt>
      <trkpt lat="45.71296" lon="6.47466">
        <ele>736</ele>
        <time>2022-07-16T02:13:35Z</time>
      </trkpt>
      <trkpt lat="45.71297" lon="6.47469">
        <ele>736</ele>
        <time>2022-07-16T02:13:36Z</time>
      </trkpt>
      <trkpt lat="45.71297" lon="6.47472">
        <ele>736</ele>
        <time>2022-07-16T02:13:37Z</time>
      </trkpt>
      <trkpt lat="45.71298" lon="6.47476">
        <ele>736</ele>
        <time>2022-07-16T02:13:38Z</time>
      </trkpt>
      <trkpt lat="45.71298" lon="6.47479">
        <ele>736</ele>
        <time>2022-07-16T02:13:39Z</time>
      </trkpt>
      <trkpt lat="45.71298" lon="6.47483">
        <ele>737</ele>
        <time>2022-07-16T02:13:40Z</time>
      </trkpt>
      <trkpt lat="45.71299" lon="6.47486">
        <ele>738</ele>
        <time>2022-07-16T02:13:41Z</time>
      </trkpt>
      <trkpt lat="45.713" lon="6.47489">
        <ele>738</ele>
        <time>2022-07-16T02:13:42Z</time>
      </trkpt>
      <trkpt lat="45.71301" lon="6.47492">
        <ele>738</ele>
        <time>2022-07-16T02:13:43Z</time>
      </trkpt>
      <trkpt lat="45.71301" lon="6.47495">
        <ele>738</ele>
        <time>2022-07-16T02:13:44Z</time>
      </trkpt>
      <trkpt lat="45.71302" lon="6.47498">
        <ele>738</ele>
        <time>2022-07-16T02:13:45Z</time>
      </trkpt>
      <trkpt lat="45.71302" lon="6.47502">
        <ele>738</ele>
        <time>2022-07-16T02:13:46Z</time>
      </trkpt>
      <trkpt lat="45.71303" lon="6.47505">
        <ele>739</ele>
        <time>2022-07-16T02:13:47Z</time>
      </trkpt>
      <trkpt lat="45.71304" lon="6.47509">
        <ele>739</ele>
        <time>2022-07-16T02:13:48Z</time>
      </trkpt>
      <trkpt lat="45.71305" lon="6.47512">
        <ele>739</ele>
        <time>2022-07-16T02:13:49Z</time>
      </trkpt>
      <trkpt lat="45.71305" lon="6.47515">
        <ele>739</ele>
        <time>2022-07-16T02:13:50Z</time>
      </trkpt>
      <trkpt lat="45.71306" lon="6.47518">
        <ele>739</ele>
        <time>2022-07-16T02:13:51Z</time>
      </trkpt>
      <trkpt lat="45.71307" lon="6.47521">
        <ele>740</ele>
        <time>2022-07-16T02:13:52Z</time>
      </trkpt>
      <trkpt lat="45.71308" lon="6.47525">
        <ele>740</ele>
        <time>2022-07-16T02:13:53Z</time>
      </trkpt>
      <trkpt lat="45.71309" lon="6.47528">
        <ele>740</ele>
        <time>2022-07-16T02:13:54Z</time>
      </trkpt>
      <trkpt lat="45.7131" lon="6.47531">
        <ele>740</ele>
        <time>2022-07-16T02:13:55Z</time>
      </trkpt>
      <trkpt lat="45.71311" lon="6.47535">
        <ele>740</ele>
        <time>2022-07-16T02:13:56Z</time>
      </trkpt>
      <trkpt lat="45.71313" lon="6.47538">
        <ele>740</ele>
        <time>2022-07-16T02:13:57Z</time>
      </trkpt>
      <trkpt lat="45.71313" lon="6.47541">
        <ele>740</ele>
        <time>2022-07-16T02:13:58Z</time>
      </trkpt>
      <trkpt lat="45.71314" lon="6.47543">
        <ele>740</ele>
        <time>2022-07-16T02:13:59Z</time>
      </trkpt>
      <trkpt lat="45.71316" lon="6.47546">
        <ele>740</ele>
        <time>2022-07-16T02:14:00Z</time>
      </trkpt>
      <trkpt lat="45.71317" lon="6.47548">
        <ele>740</ele>
        <time>2022-07-16T02:14:01Z</time>
      </trkpt>
      <trkpt lat="45.7132" lon="6.47551">
        <ele>740</ele>
        <time>2022-07-16T02:14:02Z</time>
      </trkpt>
      <trkpt lat="45.71321" lon="6.47554">
        <ele>740</ele>
        <time>2022-07-16T02:14:03Z</time>
      </trkpt>
      <trkpt lat="45.71323" lon="6.47557">
        <ele>740</ele>
        <time>2022-07-16T02:14:04Z</time>
      </trkpt>
      <trkpt lat="45.71325" lon="6.4756">
        <ele>740</ele>
        <time>2022-07-16T02:14:05Z</time>
      </trkpt>
      <trkpt lat="45.71326" lon="6.47563">
        <ele>740</ele>
        <time>2022-07-16T02:14:06Z</time>
      </trkpt>
      <trkpt lat="45.71328" lon="6.47567">
        <ele>740</ele>
        <time>2022-07-16T02:14:07Z</time>
      </trkpt>
      <trkpt lat="45.71329" lon="6.4757">
        <ele>740</ele>
        <time>2022-07-16T02:14:08Z</time>
      </trkpt>
      <trkpt lat="45.7133" lon="6.47573">
        <ele>740</ele>
        <time>2022-07-16T02:14:09Z</time>
      </trkpt>
      <trkpt lat="45.71331" lon="6.47576">
        <ele>740</ele>
        <time>2022-07-16T02:14:10Z</time>
      </trkpt>
      <trkpt lat="45.71332" lon="6.4758">
        <ele>740</ele>
        <time>2022-07-16T02:14:11Z</time>
      </trkpt>
      <trkpt lat="45.71333" lon="6.47583">
        <ele>740</ele>
        <time>2022-07-16T02:14:12Z</time>
      </trkpt>
      <trkpt lat="45.71334" lon="6.47586">
        <ele>740</ele>
        <time>2022-07-16T02:14:13Z</time>
      </trkpt>
      <trkpt lat="45.71334" lon="6.4759">
        <ele>740</ele>
        <time>2022-07-16T02:14:14Z</time>
      </trkpt>
      <trkpt lat="45.71335" lon="6.47592">
        <ele>740</ele>
        <time>2022-07-16T02:14:15Z</time>
      </trkpt>
      <trkpt lat="45.71336" lon="6.47595">
        <ele>740</ele>
        <time>2022-07-16T02:14:16Z</time>
      </trkpt>
      <trkpt lat="45.71337" lon="6.47598">
        <ele>740</ele>
        <time>2022-07-16T02:14:17Z</time>
      </trkpt>
      <trkpt lat="45.71338" lon="6.47601">
        <ele>740</ele>
        <time>2022-07-16T02:14:18Z</time>
      </trkpt>
      <trkpt lat="45.71339" lon="6.47605">
        <ele>740</ele>
        <time>2022-07-16T02:14:19Z</time>
      </trkpt>
      <trkpt lat="45.71339" lon="6.47609">
        <ele>740</ele>
        <time>2022-07-16T02:14:20Z</time>
      </trkpt>
      <trkpt lat="45.7134" lon="6.47612">
        <ele>741</ele>
        <time>2022-07-16T02:14:21Z</time>
      </trkpt>
      <trkpt lat="45.71341" lon="6.47615">
        <ele>741</ele>
        <time>2022-07-16T02:14:22Z</time>
      </trkpt>
      <trkpt lat="45.71341" lon="6.47619">
        <ele>741</ele>
        <time>2022-07-16T02:14:23Z</time>
      </trkpt>
      <trkpt lat="45.71342" lon="6.47622">
        <ele>741</ele>
        <time>2022-07-16T02:14:24Z</time>
      </trkpt>
      <trkpt lat="45.71342" lon="6.47625">
        <ele>741</ele>
        <time>2022-07-16T02:14:25Z</time>
      </trkpt>
      <trkpt lat="45.71343" lon="6.47629">
        <ele>741</ele>
        <time>2022-07-16T02:14:26Z</time>
      </trkpt>
      <trkpt lat="45.71344" lon="6.47632">
        <ele>741</ele>
        <time>2022-07-16T02:14:27Z</time>
      </trkpt>
      <trkpt lat="45.71344" lon="6.47635">
        <ele>741</ele>
        <time>2022-07-16T02:14:28Z</time>
      </trkpt>
      <trkpt lat="45.71345" lon="6.47638">
        <ele>742</ele>
        <time>2022-07-16T02:14:29Z</time>
      </trkpt>
      <trkpt lat="45.71345" lon="6.47641">
        <ele>742</ele>
        <time>2022-07-16T02:14:30Z</time>
      </trkpt>
      <trkpt lat="45.71346" lon="6.47646">
        <ele>742</ele>
        <time>2022-07-16T02:14:31Z</time>
      </trkpt>
      <trkpt lat="45.71346" lon="6.47648">
        <ele>742</ele>
        <time>2022-07-16T02:14:32Z</time>
      </trkpt>
      <trkpt lat="45.71347" lon="6.47651">
        <ele>742</ele>
        <time>2022-07-16T02:14:33Z</time>
      </trkpt>
      <trkpt lat="45.71348" lon="6.47654">
        <ele>742</ele>
        <time>2022-07-16T02:14:34Z</time>
      </trkpt>
      <trkpt lat="45.71348" lon="6.47657">
        <ele>742</ele>
        <time>2022-07-16T02:14:35Z</time>
      </trkpt>
      <trkpt lat="45.71349" lon="6.47661">
        <ele>742</ele>
        <time>2022-07-16T02:14:36Z</time>
      </trkpt>
      <trkpt lat="45.71349" lon="6.47664">
        <ele>742</ele>
        <time>2022-07-16T02:14:37Z</time>
      </trkpt>
      <trkpt lat="45.71349" lon="6.47667">
        <ele>742</ele>
        <time>2022-07-16T02:14:38Z</time>
      </trkpt>
      <trkpt lat="45.71349" lon="6.47671">
        <ele>742</ele>
        <time>2022-07-16T02:14:39Z</time>
      </trkpt>
      <trkpt lat="45.71349" lon="6.47674">
        <ele>742</ele>
        <time>2022-07-16T02:14:40Z</time>
      </trkpt>
      <trkpt lat="45.7135" lon="6.47677">
        <ele>742</ele>
        <time>2022-07-16T02:14:41Z</time>
      </trkpt>
      <trkpt lat="45.7135" lon="6.47681">
        <ele>742</ele>
        <time>2022-07-16T02:14:42Z</time>
      </trkpt>
      <trkpt lat="45.71351" lon="6.47684">
        <ele>742</ele>
        <time>2022-07-16T02:14:43Z</time>
      </trkpt>
      <trkpt lat="45.71351" lon="6.47687">
        <ele>742</ele>
        <time>2022-07-16T02:14:44Z</time>
      </trkpt>
      <trkpt lat="45.71351" lon="6.47691">
        <ele>742</ele>
        <time>2022-07-16T02:14:45Z</time>
      </trkpt>
      <trkpt lat="45.71351" lon="6.47694">
        <ele>742</ele>
        <time>2022-07-16T02:14:46Z</time>
      </trkpt>
      <trkpt lat="45.71351" lon="6.47699">
        <ele>742</ele>
        <time>2022-07-16T02:14:48Z</time>
      </trkpt>
      <trkpt lat="45.7135" lon="6.47702">
        <ele>742</ele>
        <time>2022-07-16T02:14:49Z</time>
      </trkpt>
      <trkpt lat="45.71348" lon="6.47704">
        <ele>743</ele>
        <time>2022-07-16T02:14:51Z</time>
      </trkpt>
      <trkpt lat="45.71347" lon="6.47702">
        <ele>743</ele>
        <time>2022-07-16T02:14:52Z</time>
      </trkpt>
      <trkpt lat="45.71345" lon="6.477">
        <ele>743</ele>
        <time>2022-07-16T02:14:53Z</time>
      </trkpt>
      <trkpt lat="45.71344" lon="6.47698">
        <ele>743</ele>
        <time>2022-07-16T02:14:54Z</time>
      </trkpt>
      <trkpt lat="45.71343" lon="6.47695">
        <ele>744</ele>
        <time>2022-07-16T02:14:55Z</time>
      </trkpt>
      <trkpt lat="45.71341" lon="6.47692">
        <ele>744</ele>
        <time>2022-07-16T02:14:56Z</time>
      </trkpt>
      <trkpt lat="45.7134" lon="6.4769">
        <ele>744</ele>
        <time>2022-07-16T02:14:57Z</time>
      </trkpt>
      <trkpt lat="45.71338" lon="6.47687">
        <ele>744</ele>
        <time>2022-07-16T02:14:58Z</time>
      </trkpt>
      <trkpt lat="45.71336" lon="6.47685">
        <ele>744</ele>
        <time>2022-07-16T02:14:59Z</time>
      </trkpt>
      <trkpt lat="45.71334" lon="6.47683">
        <ele>744</ele>
        <time>2022-07-16T02:15:00Z</time>
      </trkpt>
      <trkpt lat="45.71332" lon="6.4768">
        <ele>744</ele>
        <time>2022-07-16T02:15:01Z</time>
      </trkpt>
      <trkpt lat="45.7133" lon="6.47677">
        <ele>744</ele>
        <time>2022-07-16T02:15:02Z</time>
      </trkpt>
      <trkpt lat="45.71328" lon="6.47675">
        <ele>744</ele>
        <time>2022-07-16T02:15:03Z</time>
      </trkpt>
      <trkpt lat="45.71326" lon="6.47673">
        <ele>744</ele>
        <time>2022-07-16T02:15:04Z</time>
      </trkpt>
      <trkpt lat="45.71324" lon="6.4767">
        <ele>745</ele>
        <time>2022-07-16T02:15:05Z</time>
      </trkpt>
      <trkpt lat="45.71322" lon="6.47668">
        <ele>745</ele>
        <time>2022-07-16T02:15:06Z</time>
      </trkpt>
      <trkpt lat="45.71319" lon="6.47665">
        <ele>745</ele>
        <time>2022-07-16T02:15:07Z</time>
      </trkpt>
      <trkpt lat="45.71318" lon="6.47664">
        <ele>745</ele>
        <time>2022-07-16T02:15:08Z</time>
      </trkpt>
      <trkpt lat="45.71316" lon="6.47661">
        <ele>746</ele>
        <time>2022-07-16T02:15:09Z</time>
      </trkpt>
      <trkpt lat="45.71314" lon="6.47659">
        <ele>746</ele>
        <time>2022-07-16T02:15:10Z</time>
      </trkpt>
      <trkpt lat="45.71313" lon="6.47657">
        <ele>746</ele>
        <time>2022-07-16T02:15:11Z</time>
      </trkpt>
      <trkpt lat="45.71311" lon="6.47655">
        <ele>746</ele>
        <time>2022-07-16T02:15:12Z</time>
      </trkpt>
      <trkpt lat="45.71309" lon="6.47654">
        <ele>746</ele>
        <time>2022-07-16T02:15:13Z</time>
      </trkpt>
      <trkpt lat="45.71308" lon="6.47652">
        <ele>746</ele>
        <time>2022-07-16T02:15:14Z</time>
      </trkpt>
      <trkpt lat="45.71305" lon="6.47649">
        <ele>746</ele>
        <time>2022-07-16T02:15:15Z</time>
      </trkpt>
      <trkpt lat="45.71304" lon="6.47648">
        <ele>746</ele>
        <time>2022-07-16T02:15:16Z</time>
      </trkpt>
      <trkpt lat="45.71304" lon="6.47647">
        <ele>746</ele>
        <time>2022-07-16T02:15:17Z</time>
      </trkpt>
      <trkpt lat="45.71303" lon="6.47646">
        <ele>747</ele>
        <time>2022-07-16T02:15:18Z</time>
      </trkpt>
      <trkpt lat="45.71302" lon="6.47645">
        <ele>747</ele>
        <time>2022-07-16T02:15:19Z</time>
      </trkpt>
      <trkpt lat="45.71301" lon="6.47644">
        <ele>747</ele>
        <time>2022-07-16T02:15:20Z</time>
      </trkpt>
      <trkpt lat="45.713" lon="6.47643">
        <ele>747</ele>
        <time>2022-07-16T02:15:21Z</time>
      </trkpt>
      <trkpt lat="45.71295" lon="6.47636">
        <ele>747</ele>
        <time>2022-07-16T02:15:22Z</time>
      </trkpt>
      <trkpt lat="45.71294" lon="6.47634">
        <ele>747</ele>
        <time>2022-07-16T02:15:23Z</time>
      </trkpt>
      <trkpt lat="45.71292" lon="6.47632">
        <ele>747</ele>
        <time>2022-07-16T02:15:24Z</time>
      </trkpt>
      <trkpt lat="45.71291" lon="6.47629">
        <ele>748</ele>
        <time>2022-07-16T02:15:25Z</time>
      </trkpt>
      <trkpt lat="45.71289" lon="6.47627">
        <ele>748</ele>
        <time>2022-07-16T02:15:26Z</time>
      </trkpt>
      <trkpt lat="45.71287" lon="6.47624">
        <ele>748</ele>
        <time>2022-07-16T02:15:27Z</time>
      </trkpt>
      <trkpt lat="45.71286" lon="6.47622">
        <ele>748</ele>
        <time>2022-07-16T02:15:28Z</time>
      </trkpt>
      <trkpt lat="45.71284" lon="6.47619">
        <ele>748</ele>
        <time>2022-07-16T02:15:29Z</time>
      </trkpt>
      <trkpt lat="45.71283" lon="6.47617">
        <ele>748</ele>
        <time>2022-07-16T02:15:30Z</time>
      </trkpt>
      <trkpt lat="45.71282" lon="6.47615">
        <ele>749</ele>
        <time>2022-07-16T02:15:31Z</time>
      </trkpt>
      <trkpt lat="45.7128" lon="6.47613">
        <ele>749</ele>
        <time>2022-07-16T02:15:32Z</time>
      </trkpt>
      <trkpt lat="45.71279" lon="6.4761">
        <ele>749</ele>
        <time>2022-07-16T02:15:33Z</time>
      </trkpt>
      <trkpt lat="45.71277" lon="6.47608">
        <ele>749</ele>
        <time>2022-07-16T02:15:34Z</time>
      </trkpt>
      <trkpt lat="45.71276" lon="6.47606">
        <ele>749</ele>
        <time>2022-07-16T02:15:35Z</time>
      </trkpt>
      <trkpt lat="45.71274" lon="6.47603">
        <ele>749</ele>
        <time>2022-07-16T02:15:36Z</time>
      </trkpt>
      <trkpt lat="45.71273" lon="6.47601">
        <ele>749</ele>
        <time>2022-07-16T02:15:37Z</time>
      </trkpt>
      <trkpt lat="45.71272" lon="6.47599">
        <ele>749</ele>
        <time>2022-07-16T02:15:38Z</time>
      </trkpt>
      <trkpt lat="45.71271" lon="6.47596">
        <ele>750</ele>
        <time>2022-07-16T02:15:39Z</time>
      </trkpt>
      <trkpt lat="45.7127" lon="6.47594">
        <ele>750</ele>
        <time>2022-07-16T02:15:40Z</time>
      </trkpt>
      <trkpt lat="45.71269" lon="6.47591">
        <ele>750</ele>
        <time>2022-07-16T02:15:41Z</time>
      </trkpt>
      <trkpt lat="45.71268" lon="6.47588">
        <ele>750</ele>
        <time>2022-07-16T02:15:42Z</time>
      </trkpt>
      <trkpt lat="45.71267" lon="6.47586">
        <ele>751</ele>
        <time>2022-07-16T02:15:43Z</time>
      </trkpt>
      <trkpt lat="45.71266" lon="6.47584">
        <ele>751</ele>
        <time>2022-07-16T02:15:44Z</time>
      </trkpt>
      <trkpt lat="45.71264" lon="6.47581">
        <ele>751</ele>
        <time>2022-07-16T02:15:45Z</time>
      </trkpt>
      <trkpt lat="45.71263" lon="6.47579">
        <ele>751</ele>
        <time>2022-07-16T02:15:46Z</time>
      </trkpt>
      <trkpt lat="45.71262" lon="6.47576">
        <ele>751</ele>
        <time>2022-07-16T02:15:47Z</time>
      </trkpt>
      <trkpt lat="45.7126" lon="6.47573">
        <ele>751</ele>
        <time>2022-07-16T02:15:48Z</time>
      </trkpt>
      <trkpt lat="45.71259" lon="6.47571">
        <ele>751</ele>
        <time>2022-07-16T02:15:49Z</time>
      </trkpt>
      <trkpt lat="45.71257" lon="6.47568">
        <ele>751</ele>
        <time>2022-07-16T02:15:50Z</time>
      </trkpt>
      <trkpt lat="45.71256" lon="6.47566">
        <ele>752</ele>
        <time>2022-07-16T02:15:51Z</time>
      </trkpt>
      <trkpt lat="45.71254" lon="6.47563">
        <ele>752</ele>
        <time>2022-07-16T02:15:52Z</time>
      </trkpt>
      <trkpt lat="45.71253" lon="6.47561">
        <ele>752</ele>
        <time>2022-07-16T02:15:53Z</time>
      </trkpt>
      <trkpt lat="45.71252" lon="6.47558">
        <ele>752</ele>
        <time>2022-07-16T02:15:54Z</time>
      </trkpt>
      <trkpt lat="45.7125" lon="6.47555">
        <ele>752</ele>
        <time>2022-07-16T02:15:55Z</time>
      </trkpt>
      <trkpt lat="45.71249" lon="6.47553">
        <ele>752</ele>
        <time>2022-07-16T02:15:56Z</time>
      </trkpt>
      <trkpt lat="45.71248" lon="6.4755">
        <ele>753</ele>
        <time>2022-07-16T02:15:57Z</time>
      </trkpt>
      <trkpt lat="45.71247" lon="6.47547">
        <ele>753</ele>
        <time>2022-07-16T02:15:58Z</time>
      </trkpt>
      <trkpt lat="45.71246" lon="6.47545">
        <ele>753</ele>
        <time>2022-07-16T02:15:59Z</time>
      </trkpt>
      <trkpt lat="45.71245" lon="6.47542">
        <ele>753</ele>
        <time>2022-07-16T02:16:00Z</time>
      </trkpt>
      <trkpt lat="45.71244" lon="6.4754">
        <ele>753</ele>
        <time>2022-07-16T02:16:01Z</time>
      </trkpt>
      <trkpt lat="45.71243" lon="6.47537">
        <ele>753</ele>
        <time>2022-07-16T02:16:02Z</time>
      </trkpt>
      <trkpt lat="45.71242" lon="6.47534">
        <ele>753</ele>
        <time>2022-07-16T02:16:03Z</time>
      </trkpt>
      <trkpt lat="45.71241" lon="6.47532">
        <ele>754</ele>
        <time>2022-07-16T02:16:04Z</time>
      </trkpt>
      <trkpt lat="45.7124" lon="6.47529">
        <ele>754</ele>
        <time>2022-07-16T02:16:05Z</time>
      </trkpt>
      <trkpt lat="45.71239" lon="6.47526">
        <ele>754</ele>
        <time>2022-07-16T02:16:06Z</time>
      </trkpt>
      <trkpt lat="45.71238" lon="6.47524">
        <ele>755</ele>
        <time>2022-07-16T02:16:07Z</time>
      </trkpt>
      <trkpt lat="45.71237" lon="6.47521">
        <ele>755</ele>
        <time>2022-07-16T02:16:08Z</time>
      </trkpt>
      <trkpt lat="45.71237" lon="6.47518">
        <ele>756</ele>
        <time>2022-07-16T02:16:09Z</time>
      </trkpt>
      <trkpt lat="45.71237" lon="6.47515">
        <ele>756</ele>
        <time>2022-07-16T02:16:10Z</time>
      </trkpt>
      <trkpt lat="45.71237" lon="6.47512">
        <ele>756</ele>
        <time>2022-07-16T02:16:11Z</time>
      </trkpt>
      <trkpt lat="45.71237" lon="6.47509">
        <ele>756</ele>
        <time>2022-07-16T02:16:12Z</time>
      </trkpt>
      <trkpt lat="45.71237" lon="6.47506">
        <ele>756</ele>
        <time>2022-07-16T02:16:13Z</time>
      </trkpt>
      <trkpt lat="45.71237" lon="6.47502">
        <ele>756</ele>
        <time>2022-07-16T02:16:14Z</time>
      </trkpt>
      <trkpt lat="45.71237" lon="6.47499">
        <ele>756</ele>
        <time>2022-07-16T02:16:15Z</time>
      </trkpt>
      <trkpt lat="45.71237" lon="6.47496">
        <ele>757</ele>
        <time>2022-07-16T02:16:16Z</time>
      </trkpt>
      <trkpt lat="45.71237" lon="6.47493">
        <ele>757</ele>
        <time>2022-07-16T02:16:17Z</time>
      </trkpt>
      <trkpt lat="45.71237" lon="6.4749">
        <ele>757</ele>
        <time>2022-07-16T02:16:18Z</time>
      </trkpt>
      <trkpt lat="45.71237" lon="6.47487">
        <ele>757</ele>
        <time>2022-07-16T02:16:19Z</time>
      </trkpt>
      <trkpt lat="45.71237" lon="6.47484">
        <ele>758</ele>
        <time>2022-07-16T02:16:20Z</time>
      </trkpt>
      <trkpt lat="45.71237" lon="6.47481">
        <ele>758</ele>
        <time>2022-07-16T02:16:21Z</time>
      </trkpt>
      <trkpt lat="45.71237" lon="6.47478">
        <ele>758</ele>
        <time>2022-07-16T02:16:22Z</time>
      </trkpt>
      <trkpt lat="45.71237" lon="6.47473">
        <ele>758</ele>
        <time>2022-07-16T02:16:23Z</time>
      </trkpt>
      <trkpt lat="45.71238" lon="6.47472">
        <ele>758</ele>
        <time>2022-07-16T02:16:24Z</time>
      </trkpt>
      <trkpt lat="45.71238" lon="6.47468">
        <ele>759</ele>
        <time>2022-07-16T02:16:25Z</time>
      </trkpt>
      <trkpt lat="45.71237" lon="6.47465">
        <ele>759</ele>
        <time>2022-07-16T02:16:26Z</time>
      </trkpt>
      <trkpt lat="45.71236" lon="6.47462">
        <ele>759</ele>
        <time>2022-07-16T02:16:27Z</time>
      </trkpt>
      <trkpt lat="45.71235" lon="6.47459">
        <ele>759</ele>
        <time>2022-07-16T02:16:28Z</time>
      </trkpt>
      <trkpt lat="45.71234" lon="6.47456">
        <ele>760</ele>
        <time>2022-07-16T02:16:29Z</time>
      </trkpt>
      <trkpt lat="45.71233" lon="6.47453">
        <ele>760</ele>
        <time>2022-07-16T02:16:30Z</time>
      </trkpt>
      <trkpt lat="45.71232" lon="6.4745">
        <ele>760</ele>
        <time>2022-07-16T02:16:31Z</time>
      </trkpt>
      <trkpt lat="45.71231" lon="6.47448">
        <ele>760</ele>
        <time>2022-07-16T02:16:32Z</time>
      </trkpt>
      <trkpt lat="45.7123" lon="6.47446">
        <ele>760</ele>
        <time>2022-07-16T02:16:33Z</time>
      </trkpt>
      <trkpt lat="45.71229" lon="6.47443">
        <ele>760</ele>
        <time>2022-07-16T02:16:34Z</time>
      </trkpt>
      <trkpt lat="45.71228" lon="6.47441">
        <ele>760</ele>
        <time>2022-07-16T02:16:35Z</time>
      </trkpt>
      <trkpt lat="45.71227" lon="6.47439">
        <ele>760</ele>
        <time>2022-07-16T02:16:36Z</time>
      </trkpt>
      <trkpt lat="45.71226" lon="6.47437">
        <ele>760</ele>
        <time>2022-07-16T02:16:37Z</time>
      </trkpt>
      <trkpt lat="45.71224" lon="6.47435">
        <ele>760</ele>
        <time>2022-07-16T02:16:38Z</time>
      </trkpt>
      <trkpt lat="45.71223" lon="6.47433">
        <ele>761</ele>
        <time>2022-07-16T02:16:39Z</time>
      </trkpt>
      <trkpt lat="45.71221" lon="6.47431">
        <ele>761</ele>
        <time>2022-07-16T02:16:40Z</time>
      </trkpt>
      <trkpt lat="45.7122" lon="6.47429">
        <ele>761</ele>
        <time>2022-07-16T02:16:41Z</time>
      </trkpt>
      <trkpt lat="45.71218" lon="6.47427">
        <ele>761</ele>
        <time>2022-07-16T02:16:42Z</time>
      </trkpt>
      <trkpt lat="45.71217" lon="6.47425">
        <ele>761</ele>
        <time>2022-07-16T02:16:43Z</time>
      </trkpt>
      <trkpt lat="45.71216" lon="6.47423">
        <ele>761</ele>
        <time>2022-07-16T02:16:44Z</time>
      </trkpt>
      <trkpt lat="45.71214" lon="6.47421">
        <ele>761</ele>
        <time>2022-07-16T02:16:45Z</time>
      </trkpt>
      <trkpt lat="45.71213" lon="6.47419">
        <ele>761</ele>
        <time>2022-07-16T02:16:46Z</time>
      </trkpt>
      <trkpt lat="45.71212" lon="6.47417">
        <ele>762</ele>
        <time>2022-07-16T02:16:47Z</time>
      </trkpt>
      <trkpt lat="45.7121" lon="6.47413">
        <ele>762</ele>
        <time>2022-07-16T02:16:49Z</time>
      </trkpt>
      <trkpt lat="45.71208" lon="6.47411">
        <ele>763</ele>
        <time>2022-07-16T02:16:51Z</time>
      </trkpt>
      <trkpt lat="45.71206" lon="6.47409">
        <ele>763</ele>
        <time>2022-07-16T02:16:52Z</time>
      </trkpt>
      <trkpt lat="45.71204" lon="6.47407">
        <ele>764</ele>
        <time>2022-07-16T02:16:53Z</time>
      </trkpt>
      <trkpt lat="45.71202" lon="6.47405">
        <ele>764</ele>
        <time>2022-07-16T02:16:54Z</time>
      </trkpt>
      <trkpt lat="45.71201" lon="6.47402">
        <ele>764</ele>
        <time>2022-07-16T02:16:55Z</time>
      </trkpt>
      <trkpt lat="45.712" lon="6.474">
        <ele>764</ele>
        <time>2022-07-16T02:16:56Z</time>
      </trkpt>
      <trkpt lat="45.712" lon="6.47397">
        <ele>764</ele>
        <time>2022-07-16T02:16:57Z</time>
      </trkpt>
      <trkpt lat="45.71199" lon="6.47395">
        <ele>764</ele>
        <time>2022-07-16T02:16:58Z</time>
      </trkpt>
      <trkpt lat="45.71198" lon="6.47392">
        <ele>765</ele>
        <time>2022-07-16T02:16:59Z</time>
      </trkpt>
      <trkpt lat="45.71198" lon="6.4739">
        <ele>765</ele>
        <time>2022-07-16T02:17:00Z</time>
      </trkpt>
      <trkpt lat="45.71198" lon="6.47388">
        <ele>765</ele>
        <time>2022-07-16T02:17:01Z</time>
      </trkpt>
      <trkpt lat="45.71197" lon="6.47386">
        <ele>765</ele>
        <time>2022-07-16T02:17:02Z</time>
      </trkpt>
      <trkpt lat="45.71197" lon="6.47385">
        <ele>766</ele>
        <time>2022-07-16T02:17:03Z</time>
      </trkpt>
      <trkpt lat="45.71196" lon="6.47374">
        <ele>766</ele>
        <time>2022-07-16T02:17:04Z</time>
      </trkpt>
      <trkpt lat="45.71196" lon="6.47372">
        <ele>766</ele>
        <time>2022-07-16T02:17:05Z</time>
      </trkpt>
      <trkpt lat="45.71197" lon="6.47369">
        <ele>766</ele>
        <time>2022-07-16T02:17:06Z</time>
      </trkpt>
      <trkpt lat="45.71197" lon="6.47366">
        <ele>767</ele>
        <time>2022-07-16T02:17:07Z</time>
      </trkpt>
      <trkpt lat="45.71197" lon="6.47364">
        <ele>767</ele>
        <time>2022-07-16T02:17:08Z</time>
      </trkpt>
      <trkpt lat="45.71198" lon="6.47363">
        <ele>767</ele>
        <time>2022-07-16T02:17:09Z</time>
      </trkpt>
      <trkpt lat="45.712" lon="6.47362">
        <ele>767</ele>
        <time>2022-07-16T02:17:10Z</time>
      </trkpt>
      <trkpt lat="45.71201" lon="6.4736">
        <ele>767</ele>
        <time>2022-07-16T02:17:11Z</time>
      </trkpt>
      <trkpt lat="45.71203" lon="6.47359">
        <ele>767</ele>
        <time>2022-07-16T02:17:12Z</time>
      </trkpt>
      <trkpt lat="45.71204" lon="6.47358">
        <ele>767</ele>
        <time>2022-07-16T02:17:13Z</time>
      </trkpt>
      <trkpt lat="45.71206" lon="6.47357">
        <ele>767</ele>
        <time>2022-07-16T02:17:14Z</time>
      </trkpt>
      <trkpt lat="45.71207" lon="6.47356">
        <ele>767</ele>
        <time>2022-07-16T02:17:15Z</time>
      </trkpt>
      <trkpt lat="45.71209" lon="6.47354">
        <ele>767</ele>
        <time>2022-07-16T02:17:16Z</time>
      </trkpt>
      <trkpt lat="45.71211" lon="6.47352">
        <ele>768</ele>
        <time>2022-07-16T02:17:17Z</time>
      </trkpt>
      <trkpt lat="45.71212" lon="6.47351">
        <ele>768</ele>
        <time>2022-07-16T02:17:18Z</time>
      </trkpt>
      <trkpt lat="45.71214" lon="6.47349">
        <ele>768</ele>
        <time>2022-07-16T02:17:19Z</time>
      </trkpt>
      <trkpt lat="45.71215" lon="6.47347">
        <ele>769</ele>
        <time>2022-07-16T02:17:20Z</time>
      </trkpt>
      <trkpt lat="45.71217" lon="6.47346">
        <ele>769</ele>
        <time>2022-07-16T02:17:21Z</time>
      </trkpt>
      <trkpt lat="45.71218" lon="6.47344">
        <ele>769</ele>
        <time>2022-07-16T02:17:22Z</time>
      </trkpt>
      <trkpt lat="45.7122" lon="6.47343">
        <ele>769</ele>
        <time>2022-07-16T02:17:23Z</time>
      </trkpt>
      <trkpt lat="45.71221" lon="6.47341">
        <ele>769</ele>
        <time>2022-07-16T02:17:24Z</time>
      </trkpt>
      <trkpt lat="45.71222" lon="6.47339">
        <ele>769</ele>
        <time>2022-07-16T02:17:25Z</time>
      </trkpt>
      <trkpt lat="45.71223" lon="6.47337">
        <ele>769</ele>
        <time>2022-07-16T02:17:26Z</time>
      </trkpt>
      <trkpt lat="45.71224" lon="6.47336">
        <ele>769</ele>
        <time>2022-07-16T02:17:27Z</time>
      </trkpt>
      <trkpt lat="45.71225" lon="6.47334">
        <ele>769</ele>
        <time>2022-07-16T02:17:28Z</time>
      </trkpt>
      <trkpt lat="45.71226" lon="6.47332">
        <ele>769</ele>
        <time>2022-07-16T02:17:29Z</time>
      </trkpt>
      <trkpt lat="45.71227" lon="6.4733">
        <ele>769</ele>
        <time>2022-07-16T02:17:30Z</time>
      </trkpt>
      <trkpt lat="45.71229" lon="6.47327">
        <ele>770</ele>
        <time>2022-07-16T02:17:31Z</time>
      </trkpt>
      <trkpt lat="45.7123" lon="6.47326">
        <ele>770</ele>
        <time>2022-07-16T02:17:32Z</time>
      </trkpt>
      <trkpt lat="45.71231" lon="6.47324">
        <ele>770</ele>
        <time>2022-07-16T02:17:33Z</time>
      </trkpt>
      <trkpt lat="45.71232" lon="6.47323">
        <ele>770</ele>
        <time>2022-07-16T02:17:34Z</time>
      </trkpt>
      <trkpt lat="45.71233" lon="6.47321">
        <ele>771</ele>
        <time>2022-07-16T02:17:35Z</time>
      </trkpt>
      <trkpt lat="45.71234" lon="6.47319">
        <ele>771</ele>
        <time>2022-07-16T02:17:36Z</time>
      </trkpt>
      <trkpt lat="45.71235" lon="6.47318">
        <ele>771</ele>
        <time>2022-07-16T02:17:37Z</time>
      </trkpt>
      <trkpt lat="45.71236" lon="6.47315">
        <ele>771</ele>
        <time>2022-07-16T02:17:38Z</time>
      </trkpt>
      <trkpt lat="45.71236" lon="6.47313">
        <ele>771</ele>
        <time>2022-07-16T02:17:40Z</time>
      </trkpt>
      <trkpt lat="45.71237" lon="6.4731">
        <ele>771</ele>
        <time>2022-07-16T02:17:41Z</time>
      </trkpt>
      <trkpt lat="45.71238" lon="6.47308">
        <ele>771</ele>
        <time>2022-07-16T02:17:42Z</time>
      </trkpt>
      <trkpt lat="45.71238" lon="6.47305">
        <ele>771</ele>
        <time>2022-07-16T02:17:43Z</time>
      </trkpt>
      <trkpt lat="45.71239" lon="6.47303">
        <ele>771</ele>
        <time>2022-07-16T02:17:44Z</time>
      </trkpt>
      <trkpt lat="45.71239" lon="6.473">
        <ele>772</ele>
        <time>2022-07-16T02:17:45Z</time>
      </trkpt>
      <trkpt lat="45.71239" lon="6.47298">
        <ele>772</ele>
        <time>2022-07-16T02:17:46Z</time>
      </trkpt>
      <trkpt lat="45.71241" lon="6.47294">
        <ele>772</ele>
        <time>2022-07-16T02:17:48Z</time>
      </trkpt>
      <trkpt lat="45.71242" lon="6.4729">
        <ele>772</ele>
        <time>2022-07-16T02:17:50Z</time>
      </trkpt>
      <trkpt lat="45.71243" lon="6.47287">
        <ele>773</ele>
        <time>2022-07-16T02:17:51Z</time>
      </trkpt>
      <trkpt lat="45.71244" lon="6.47285">
        <ele>773</ele>
        <time>2022-07-16T02:17:52Z</time>
      </trkpt>
      <trkpt lat="45.71245" lon="6.47283">
        <ele>773</ele>
        <time>2022-07-16T02:17:53Z</time>
      </trkpt>
      <trkpt lat="45.71245" lon="6.47281">
        <ele>773</ele>
        <time>2022-07-16T02:17:54Z</time>
      </trkpt>
      <trkpt lat="45.71246" lon="6.47279">
        <ele>773</ele>
        <time>2022-07-16T02:17:55Z</time>
      </trkpt>
      <trkpt lat="45.71247" lon="6.47277">
        <ele>774</ele>
        <time>2022-07-16T02:17:56Z</time>
      </trkpt>
      <trkpt lat="45.71247" lon="6.47276">
        <ele>774</ele>
        <time>2022-07-16T02:17:57Z</time>
      </trkpt>
      <trkpt lat="45.71248" lon="6.47274">
        <ele>774</ele>
        <time>2022-07-16T02:17:58Z</time>
      </trkpt>
      <trkpt lat="45.71249" lon="6.47272">
        <ele>774</ele>
        <time>2022-07-16T02:17:59Z</time>
      </trkpt>
      <trkpt lat="45.71249" lon="6.47268">
        <ele>775</ele>
        <time>2022-07-16T02:18:01Z</time>
      </trkpt>
      <trkpt lat="45.71251" lon="6.47264">
        <ele>775</ele>
        <time>2022-07-16T02:18:03Z</time>
      </trkpt>
      <trkpt lat="45.71251" lon="6.47262">
        <ele>775</ele>
        <time>2022-07-16T02:18:04Z</time>
      </trkpt>
      <trkpt lat="45.71252" lon="6.4726">
        <ele>775</ele>
        <time>2022-07-16T02:18:05Z</time>
      </trkpt>
      <trkpt lat="45.71252" lon="6.47257">
        <ele>775</ele>
        <time>2022-07-16T02:18:06Z</time>
      </trkpt>
      <trkpt lat="45.71253" lon="6.47255">
        <ele>775</ele>
        <time>2022-07-16T02:18:07Z</time>
      </trkpt>
      <trkpt lat="45.71253" lon="6.47253">
        <ele>775</ele>
        <time>2022-07-16T02:18:08Z</time>
      </trkpt>
      <trkpt lat="45.71254" lon="6.47251">
        <ele>775</ele>
        <time>2022-07-16T02:18:09Z</time>
      </trkpt>
      <trkpt lat="45.71254" lon="6.4725">
        <ele>775</ele>
        <time>2022-07-16T02:18:10Z</time>
      </trkpt>
      <trkpt lat="45.71254" lon="6.47249">
        <ele>775</ele>
        <time>2022-07-16T02:18:11Z</time>
      </trkpt>
      <trkpt lat="45.71255" lon="6.47248">
        <ele>775</ele>
        <time>2022-07-16T02:18:12Z</time>
      </trkpt>
      <trkpt lat="45.71255" lon="6.47246">
        <ele>775</ele>
        <time>2022-07-16T02:18:13Z</time>
      </trkpt>
      <trkpt lat="45.71255" lon="6.47245">
        <ele>775</ele>
        <time>2022-07-16T02:18:14Z</time>
      </trkpt>
      <trkpt lat="45.71256" lon="6.47244">
        <ele>776</ele>
        <time>2022-07-16T02:18:15Z</time>
      </trkpt>
      <trkpt lat="45.71258" lon="6.47235">
        <ele>776</ele>
        <time>2022-07-16T02:18:16Z</time>
      </trkpt>
      <trkpt lat="45.71259" lon="6.47233">
        <ele>777</ele>
        <time>2022-07-16T02:18:17Z</time>
      </trkpt>
      <trkpt lat="45.71259" lon="6.47231">
        <ele>777</ele>
        <time>2022-07-16T02:18:18Z</time>
      </trkpt>
      <trkpt lat="45.71259" lon="6.47228">
        <ele>777</ele>
        <time>2022-07-16T02:18:19Z</time>
      </trkpt>
      <trkpt lat="45.71259" lon="6.47226">
        <ele>777</ele>
        <time>2022-07-16T02:18:20Z</time>
      </trkpt>
      <trkpt lat="45.71259" lon="6.47224">
        <ele>777</ele>
        <time>2022-07-16T02:18:21Z</time>
      </trkpt>
      <trkpt lat="45.7126" lon="6.47222">
        <ele>778</ele>
        <time>2022-07-16T02:18:22Z</time>
      </trkpt>
      <trkpt lat="45.7126" lon="6.47221">
        <ele>778</ele>
        <time>2022-07-16T02:18:23Z</time>
      </trkpt>
      <trkpt lat="45.7126" lon="6.47219">
        <ele>778</ele>
        <time>2022-07-16T02:18:24Z</time>
      </trkpt>
      <trkpt lat="45.71261" lon="6.47217">
        <ele>778</ele>
        <time>2022-07-16T02:18:25Z</time>
      </trkpt>
      <trkpt lat="45.71262" lon="6.47213">
        <ele>778</ele>
        <time>2022-07-16T02:18:27Z</time>
      </trkpt>
      <trkpt lat="45.71262" lon="6.4721">
        <ele>778</ele>
        <time>2022-07-16T02:18:29Z</time>
      </trkpt>
      <trkpt lat="45.71263" lon="6.47206">
        <ele>779</ele>
        <time>2022-07-16T02:18:31Z</time>
      </trkpt>
      <trkpt lat="45.71263" lon="6.47202">
        <ele>779</ele>
        <time>2022-07-16T02:18:33Z</time>
      </trkpt>
      <trkpt lat="45.71264" lon="6.47198">
        <ele>779</ele>
        <time>2022-07-16T02:18:35Z</time>
      </trkpt>
      <trkpt lat="45.71265" lon="6.47196">
        <ele>779</ele>
        <time>2022-07-16T02:18:37Z</time>
      </trkpt>
      <trkpt lat="45.71265" lon="6.47193">
        <ele>779</ele>
        <time>2022-07-16T02:18:38Z</time>
      </trkpt>
      <trkpt lat="45.71266" lon="6.47191">
        <ele>780</ele>
        <time>2022-07-16T02:18:39Z</time>
      </trkpt>
      <trkpt lat="45.71267" lon="6.47188">
        <ele>780</ele>
        <time>2022-07-16T02:18:40Z</time>
      </trkpt>
      <trkpt lat="45.71267" lon="6.47186">
        <ele>780</ele>
        <time>2022-07-16T02:18:41Z</time>
      </trkpt>
      <trkpt lat="45.71268" lon="6.47184">
        <ele>780</ele>
        <time>2022-07-16T02:18:42Z</time>
      </trkpt>
      <trkpt lat="45.71268" lon="6.47182">
        <ele>781</ele>
        <time>2022-07-16T02:18:43Z</time>
      </trkpt>
      <trkpt lat="45.71269" lon="6.47181">
        <ele>781</ele>
        <time>2022-07-16T02:18:44Z</time>
      </trkpt>
      <trkpt lat="45.71269" lon="6.47179">
        <ele>781</ele>
        <time>2022-07-16T02:18:45Z</time>
      </trkpt>
      <trkpt lat="45.7127" lon="6.47177">
        <ele>781</ele>
        <time>2022-07-16T02:18:46Z</time>
      </trkpt>
      <trkpt lat="45.7127" lon="6.47175">
        <ele>781</ele>
        <time>2022-07-16T02:18:47Z</time>
      </trkpt>
      <trkpt lat="45.71271" lon="6.47174">
        <ele>781</ele>
        <time>2022-07-16T02:18:48Z</time>
      </trkpt>
      <trkpt lat="45.71271" lon="6.47172">
        <ele>782</ele>
        <time>2022-07-16T02:18:49Z</time>
      </trkpt>
      <trkpt lat="45.71271" lon="6.47169">
        <ele>782</ele>
        <time>2022-07-16T02:18:50Z</time>
      </trkpt>
      <trkpt lat="45.71271" lon="6.47167">
        <ele>782</ele>
        <time>2022-07-16T02:18:51Z</time>
      </trkpt>
      <trkpt lat="45.7127" lon="6.47165">
        <ele>782</ele>
        <time>2022-07-16T02:18:52Z</time>
      </trkpt>
      <trkpt lat="45.7127" lon="6.47163">
        <ele>782</ele>
        <time>2022-07-16T02:18:53Z</time>
      </trkpt>
      <trkpt lat="45.7127" lon="6.47161">
        <ele>782</ele>
        <time>2022-07-16T02:18:54Z</time>
      </trkpt>
      <trkpt lat="45.7127" lon="6.47157">
        <ele>783</ele>
        <time>2022-07-16T02:18:55Z</time>
      </trkpt>
      <trkpt lat="45.71269" lon="6.47154">
        <ele>783</ele>
        <time>2022-07-16T02:18:56Z</time>
      </trkpt>
      <trkpt lat="45.71268" lon="6.47151">
        <ele>783</ele>
        <time>2022-07-16T02:18:57Z</time>
      </trkpt>
      <trkpt lat="45.71268" lon="6.47147">
        <ele>784</ele>
        <time>2022-07-16T02:18:58Z</time>
      </trkpt>
      <trkpt lat="45.71267" lon="6.47145">
        <ele>784</ele>
        <time>2022-07-16T02:18:59Z</time>
      </trkpt>
      <trkpt lat="45.71267" lon="6.47142">
        <ele>784</ele>
        <time>2022-07-16T02:19:00Z</time>
      </trkpt>
      <trkpt lat="45.71266" lon="6.47139">
        <ele>784</ele>
        <time>2022-07-16T02:19:01Z</time>
      </trkpt>
      <trkpt lat="45.71266" lon="6.47136">
        <ele>784</ele>
        <time>2022-07-16T02:19:02Z</time>
      </trkpt>
      <trkpt lat="45.71265" lon="6.47133">
        <ele>784</ele>
        <time>2022-07-16T02:19:03Z</time>
      </trkpt>
      <trkpt lat="45.71265" lon="6.47129">
        <ele>784</ele>
        <time>2022-07-16T02:19:04Z</time>
      </trkpt>
      <trkpt lat="45.71265" lon="6.47126">
        <ele>784</ele>
        <time>2022-07-16T02:19:05Z</time>
      </trkpt>
      <trkpt lat="45.71265" lon="6.47122">
        <ele>785</ele>
        <time>2022-07-16T02:19:06Z</time>
      </trkpt>
      <trkpt lat="45.71266" lon="6.47119">
        <ele>785</ele>
        <time>2022-07-16T02:19:07Z</time>
      </trkpt>
      <trkpt lat="45.71267" lon="6.47116">
        <ele>785</ele>
        <time>2022-07-16T02:19:08Z</time>
      </trkpt>
      <trkpt lat="45.71268" lon="6.47113">
        <ele>785</ele>
        <time>2022-07-16T02:19:09Z</time>
      </trkpt>
      <trkpt lat="45.71269" lon="6.4711">
        <ele>785</ele>
        <time>2022-07-16T02:19:10Z</time>
      </trkpt>
      <trkpt lat="45.71269" lon="6.47108">
        <ele>785</ele>
        <time>2022-07-16T02:19:11Z</time>
      </trkpt>
      <trkpt lat="45.7127" lon="6.47106">
        <ele>785</ele>
        <time>2022-07-16T02:19:12Z</time>
      </trkpt>
      <trkpt lat="45.71271" lon="6.47103">
        <ele>785</ele>
        <time>2022-07-16T02:19:13Z</time>
      </trkpt>
      <trkpt lat="45.71272" lon="6.47101">
        <ele>785</ele>
        <time>2022-07-16T02:19:14Z</time>
      </trkpt>
      <trkpt lat="45.71273" lon="6.47099">
        <ele>785</ele>
        <time>2022-07-16T02:19:15Z</time>
      </trkpt>
      <trkpt lat="45.71274" lon="6.47096">
        <ele>785</ele>
        <time>2022-07-16T02:19:16Z</time>
      </trkpt>
      <trkpt lat="45.71276" lon="6.47093">
        <ele>786</ele>
        <time>2022-07-16T02:19:17Z</time>
      </trkpt>
      <trkpt lat="45.71277" lon="6.47091">
        <ele>786</ele>
        <time>2022-07-16T02:19:18Z</time>
      </trkpt>
      <trkpt lat="45.71279" lon="6.47088">
        <ele>787</ele>
        <time>2022-07-16T02:19:19Z</time>
      </trkpt>
      <trkpt lat="45.71279" lon="6.47086">
        <ele>787</ele>
        <time>2022-07-16T02:19:20Z</time>
      </trkpt>
      <trkpt lat="45.71279" lon="6.47084">
        <ele>787</ele>
        <time>2022-07-16T02:19:21Z</time>
      </trkpt>
      <trkpt lat="45.7128" lon="6.47082">
        <ele>787</ele>
        <time>2022-07-16T02:19:22Z</time>
      </trkpt>
      <trkpt lat="45.7128" lon="6.47079">
        <ele>787</ele>
        <time>2022-07-16T02:19:23Z</time>
      </trkpt>
      <trkpt lat="45.71281" lon="6.47077">
        <ele>787</ele>
        <time>2022-07-16T02:19:24Z</time>
      </trkpt>
      <trkpt lat="45.71281" lon="6.47075">
        <ele>787</ele>
        <time>2022-07-16T02:19:25Z</time>
      </trkpt>
      <trkpt lat="45.71281" lon="6.47073">
        <ele>787</ele>
        <time>2022-07-16T02:19:26Z</time>
      </trkpt>
      <trkpt lat="45.71282" lon="6.47072">
        <ele>787</ele>
        <time>2022-07-16T02:19:27Z</time>
      </trkpt>
      <trkpt lat="45.71282" lon="6.4707">
        <ele>787</ele>
        <time>2022-07-16T02:19:28Z</time>
      </trkpt>
      <trkpt lat="45.71283" lon="6.47068">
        <ele>787</ele>
        <time>2022-07-16T02:19:29Z</time>
      </trkpt>
      <trkpt lat="45.71283" lon="6.47066">
        <ele>787</ele>
        <time>2022-07-16T02:19:30Z</time>
      </trkpt>
      <trkpt lat="45.71283" lon="6.47064">
        <ele>787</ele>
        <time>2022-07-16T02:19:31Z</time>
      </trkpt>
      <trkpt lat="45.71284" lon="6.47063">
        <ele>787</ele>
        <time>2022-07-16T02:19:32Z</time>
      </trkpt>
      <trkpt lat="45.71283" lon="6.4706">
        <ele>788</ele>
        <time>2022-07-16T02:19:34Z</time>
      </trkpt>
      <trkpt lat="45.71282" lon="6.47058">
        <ele>788</ele>
        <time>2022-07-16T02:19:35Z</time>
      </trkpt>
      <trkpt lat="45.71281" lon="6.47056">
        <ele>788</ele>
        <time>2022-07-16T02:19:36Z</time>
      </trkpt>
      <trkpt lat="45.71281" lon="6.47054">
        <ele>788</ele>
        <time>2022-07-16T02:19:37Z</time>
      </trkpt>
      <trkpt lat="45.7128" lon="6.47051">
        <ele>788</ele>
        <time>2022-07-16T02:19:38Z</time>
      </trkpt>
      <trkpt lat="45.71279" lon="6.47049">
        <ele>788</ele>
        <time>2022-07-16T02:19:39Z</time>
      </trkpt>
      <trkpt lat="45.71279" lon="6.47047">
        <ele>788</ele>
        <time>2022-07-16T02:19:40Z</time>
      </trkpt>
      <trkpt lat="45.71279" lon="6.47045">
        <ele>788</ele>
        <time>2022-07-16T02:19:41Z</time>
      </trkpt>
      <trkpt lat="45.71279" lon="6.47043">
        <ele>789</ele>
        <time>2022-07-16T02:19:42Z</time>
      </trkpt>
      <trkpt lat="45.71279" lon="6.47041">
        <ele>789</ele>
        <time>2022-07-16T02:19:43Z</time>
      </trkpt>
      <trkpt lat="45.71279" lon="6.47039">
        <ele>790</ele>
        <time>2022-07-16T02:19:44Z</time>
      </trkpt>
      <trkpt lat="45.71279" lon="6.47037">
        <ele>790</ele>
        <time>2022-07-16T02:19:45Z</time>
      </trkpt>
      <trkpt lat="45.71279" lon="6.47035">
        <ele>790</ele>
        <time>2022-07-16T02:19:46Z</time>
      </trkpt>
      <trkpt lat="45.71279" lon="6.47033">
        <ele>790</ele>
        <time>2022-07-16T02:19:47Z</time>
      </trkpt>
      <trkpt lat="45.71279" lon="6.4703">
        <ele>790</ele>
        <time>2022-07-16T02:19:48Z</time>
      </trkpt>
      <trkpt lat="45.71279" lon="6.47027">
        <ele>790</ele>
        <time>2022-07-16T02:19:49Z</time>
      </trkpt>
      <trkpt lat="45.71279" lon="6.47024">
        <ele>790</ele>
        <time>2022-07-16T02:19:50Z</time>
      </trkpt>
      <trkpt lat="45.71279" lon="6.47022">
        <ele>791</ele>
        <time>2022-07-16T02:19:51Z</time>
      </trkpt>
      <trkpt lat="45.71278" lon="6.47017">
        <ele>791</ele>
        <time>2022-07-16T02:19:53Z</time>
      </trkpt>
      <trkpt lat="45.71278" lon="6.47015">
        <ele>791</ele>
        <time>2022-07-16T02:19:54Z</time>
      </trkpt>
      <trkpt lat="45.71278" lon="6.47013">
        <ele>792</ele>
        <time>2022-07-16T02:19:55Z</time>
      </trkpt>
      <trkpt lat="45.71278" lon="6.47011">
        <ele>792</ele>
        <time>2022-07-16T02:19:56Z</time>
      </trkpt>
      <trkpt lat="45.71278" lon="6.47007">
        <ele>792</ele>
        <time>2022-07-16T02:19:58Z</time>
      </trkpt>
      <trkpt lat="45.71277" lon="6.47003">
        <ele>792</ele>
        <time>2022-07-16T02:20:00Z</time>
      </trkpt>
      <trkpt lat="45.71276" lon="6.46999">
        <ele>792</ele>
        <time>2022-07-16T02:20:02Z</time>
      </trkpt>
      <trkpt lat="45.71276" lon="6.46997">
        <ele>793</ele>
        <time>2022-07-16T02:20:03Z</time>
      </trkpt>
      <trkpt lat="45.71275" lon="6.46994">
        <ele>793</ele>
        <time>2022-07-16T02:20:04Z</time>
      </trkpt>
      <trkpt lat="45.71275" lon="6.46992">
        <ele>793</ele>
        <time>2022-07-16T02:20:05Z</time>
      </trkpt>
      <trkpt lat="45.71274" lon="6.4699">
        <ele>793</ele>
        <time>2022-07-16T02:20:06Z</time>
      </trkpt>
      <trkpt lat="45.71274" lon="6.46988">
        <ele>793</ele>
        <time>2022-07-16T02:20:07Z</time>
      </trkpt>
      <trkpt lat="45.71273" lon="6.46986">
        <ele>794</ele>
        <time>2022-07-16T02:20:08Z</time>
      </trkpt>
      <trkpt lat="45.71273" lon="6.46983">
        <ele>794</ele>
        <time>2022-07-16T02:20:09Z</time>
      </trkpt>
      <trkpt lat="45.71272" lon="6.4698">
        <ele>794</ele>
        <time>2022-07-16T02:20:10Z</time>
      </trkpt>
      <trkpt lat="45.71272" lon="6.46977">
        <ele>794</ele>
        <time>2022-07-16T02:20:12Z</time>
      </trkpt>
      <trkpt lat="45.71271" lon="6.46975">
        <ele>794</ele>
        <time>2022-07-16T02:20:13Z</time>
      </trkpt>
      <trkpt lat="45.71271" lon="6.46972">
        <ele>794</ele>
        <time>2022-07-16T02:20:14Z</time>
      </trkpt>
      <trkpt lat="45.7127" lon="6.46971">
        <ele>795</ele>
        <time>2022-07-16T02:20:15Z</time>
      </trkpt>
      <trkpt lat="45.7127" lon="6.4697">
        <ele>795</ele>
        <time>2022-07-16T02:20:16Z</time>
      </trkpt>
      <trkpt lat="45.7127" lon="6.46969">
        <ele>795</ele>
        <time>2022-07-16T02:20:17Z</time>
      </trkpt>
      <trkpt lat="45.7127" lon="6.46968">
        <ele>795</ele>
        <time>2022-07-16T02:20:18Z</time>
      </trkpt>
      <trkpt lat="45.71269" lon="6.46967">
        <ele>795</ele>
        <time>2022-07-16T02:20:19Z</time>
      </trkpt>
      <trkpt lat="45.71269" lon="6.46966">
        <ele>795</ele>
        <time>2022-07-16T02:20:20Z</time>
      </trkpt>
      <trkpt lat="45.71269" lon="6.46965">
        <ele>796</ele>
        <time>2022-07-16T02:20:21Z</time>
      </trkpt>
      <trkpt lat="45.71267" lon="6.46956">
        <ele>796</ele>
        <time>2022-07-16T02:20:22Z</time>
      </trkpt>
      <trkpt lat="45.71266" lon="6.46954">
        <ele>796</ele>
        <time>2022-07-16T02:20:23Z</time>
      </trkpt>
      <trkpt lat="45.71266" lon="6.46952">
        <ele>796</ele>
        <time>2022-07-16T02:20:24Z</time>
      </trkpt>
      <trkpt lat="45.71265" lon="6.4695">
        <ele>796</ele>
        <time>2022-07-16T02:20:25Z</time>
      </trkpt>
      <trkpt lat="45.71264" lon="6.46947">
        <ele>796</ele>
        <time>2022-07-16T02:20:26Z</time>
      </trkpt>
      <trkpt lat="45.71264" lon="6.46945">
        <ele>796</ele>
        <time>2022-07-16T02:20:27Z</time>
      </trkpt>
      <trkpt lat="45.71262" lon="6.46941">
        <ele>796</ele>
        <time>2022-07-16T02:20:29Z</time>
      </trkpt>
      <trkpt lat="45.71261" lon="6.46936">
        <ele>796</ele>
        <time>2022-07-16T02:20:31Z</time>
      </trkpt>
      <trkpt lat="45.7126" lon="6.46934">
        <ele>796</ele>
        <time>2022-07-16T02:20:32Z</time>
      </trkpt>
      <trkpt lat="45.71259" lon="6.46929">
        <ele>797</ele>
        <time>2022-07-16T02:20:34Z</time>
      </trkpt>
      <trkpt lat="45.71259" lon="6.46924">
        <ele>797</ele>
        <time>2022-07-16T02:20:36Z</time>
      </trkpt>
      <trkpt lat="45.71259" lon="6.46922">
        <ele>797</ele>
        <time>2022-07-16T02:20:37Z</time>
      </trkpt>
      <trkpt lat="45.71258" lon="6.4692">
        <ele>797</ele>
        <time>2022-07-16T02:20:38Z</time>
      </trkpt>
      <trkpt lat="45.71258" lon="6.46917">
        <ele>797</ele>
        <time>2022-07-16T02:20:39Z</time>
      </trkpt>
      <trkpt lat="45.71257" lon="6.46914">
        <ele>798</ele>
        <time>2022-07-16T02:20:41Z</time>
      </trkpt>
      <trkpt lat="45.71257" lon="6.46911">
        <ele>798</ele>
        <time>2022-07-16T02:20:42Z</time>
      </trkpt>
      <trkpt lat="45.71257" lon="6.46909">
        <ele>798</ele>
        <time>2022-07-16T02:20:43Z</time>
      </trkpt>
      <trkpt lat="45.71258" lon="6.46907">
        <ele>798</ele>
        <time>2022-07-16T02:20:44Z</time>
      </trkpt>
      <trkpt lat="45.71259" lon="6.46903">
        <ele>798</ele>
        <time>2022-07-16T02:20:46Z</time>
      </trkpt>
      <trkpt lat="45.71259" lon="6.46901">
        <ele>798</ele>
        <time>2022-07-16T02:20:47Z</time>
      </trkpt>
      <trkpt lat="45.71259" lon="6.469">
        <ele>799</ele>
        <time>2022-07-16T02:20:48Z</time>
      </trkpt>
      <trkpt lat="45.71259" lon="6.46898">
        <ele>799</ele>
        <time>2022-07-16T02:20:49Z</time>
      </trkpt>
      <trkpt lat="45.7126" lon="6.46897">
        <ele>799</ele>
        <time>2022-07-16T02:20:50Z</time>
      </trkpt>
      <trkpt lat="45.7126" lon="6.46894">
        <ele>799</ele>
        <time>2022-07-16T02:20:51Z</time>
      </trkpt>
      <trkpt lat="45.71259" lon="6.46891">
        <ele>798</ele>
        <time>2022-07-16T02:20:52Z</time>
      </trkpt>
      <trkpt lat="45.71259" lon="6.46888">
        <ele>799</ele>
        <time>2022-07-16T02:20:53Z</time>
      </trkpt>
      <trkpt lat="45.71259" lon="6.46886">
        <ele>799</ele>
        <time>2022-07-16T02:20:54Z</time>
      </trkpt>
      <trkpt lat="45.71259" lon="6.46883">
        <ele>799</ele>
        <time>2022-07-16T02:20:55Z</time>
      </trkpt>
      <trkpt lat="45.71259" lon="6.46881">
        <ele>799</ele>
        <time>2022-07-16T02:20:56Z</time>
      </trkpt>
      <trkpt lat="45.71259" lon="6.46879">
        <ele>799</ele>
        <time>2022-07-16T02:20:57Z</time>
      </trkpt>
      <trkpt lat="45.7126" lon="6.46877">
        <ele>800</ele>
        <time>2022-07-16T02:20:58Z</time>
      </trkpt>
      <trkpt lat="45.7126" lon="6.46875">
        <ele>800</ele>
        <time>2022-07-16T02:20:59Z</time>
      </trkpt>
      <trkpt lat="45.7126" lon="6.46872">
        <ele>800</ele>
        <time>2022-07-16T02:21:00Z</time>
      </trkpt>
      <trkpt lat="45.7126" lon="6.4687">
        <ele>800</ele>
        <time>2022-07-16T02:21:01Z</time>
      </trkpt>
      <trkpt lat="45.7126" lon="6.46864">
        <ele>801</ele>
        <time>2022-07-16T02:21:04Z</time>
      </trkpt>
      <trkpt lat="45.7126" lon="6.4686">
        <ele>802</ele>
        <time>2022-07-16T02:21:06Z</time>
      </trkpt>
      <trkpt lat="45.7126" lon="6.46855">
        <ele>802</ele>
        <time>2022-07-16T02:21:08Z</time>
      </trkpt>
      <trkpt lat="45.71261" lon="6.4685">
        <ele>802</ele>
        <time>2022-07-16T02:21:10Z</time>
      </trkpt>
      <trkpt lat="45.71263" lon="6.46846">
        <ele>803</ele>
        <time>2022-07-16T02:21:12Z</time>
      </trkpt>
      <trkpt lat="45.71265" lon="6.46842">
        <ele>803</ele>
        <time>2022-07-16T02:21:14Z</time>
      </trkpt>
      <trkpt lat="45.71266" lon="6.46838">
        <ele>803</ele>
        <time>2022-07-16T02:21:16Z</time>
      </trkpt>
      <trkpt lat="45.71268" lon="6.46834">
        <ele>804</ele>
        <time>2022-07-16T02:21:18Z</time>
      </trkpt>
      <trkpt lat="45.71269" lon="6.4683">
        <ele>804</ele>
        <time>2022-07-16T02:21:20Z</time>
      </trkpt>
      <trkpt lat="45.71271" lon="6.46826">
        <ele>805</ele>
        <time>2022-07-16T02:21:22Z</time>
      </trkpt>
      <trkpt lat="45.71273" lon="6.46822">
        <ele>805</ele>
        <time>2022-07-16T02:21:24Z</time>
      </trkpt>
      <trkpt lat="45.71274" lon="6.46818">
        <ele>805</ele>
        <time>2022-07-16T02:21:26Z</time>
      </trkpt>
      <trkpt lat="45.71276" lon="6.46814">
        <ele>805</ele>
        <time>2022-07-16T02:21:28Z</time>
      </trkpt>
      <trkpt lat="45.71278" lon="6.4681">
        <ele>806</ele>
        <time>2022-07-16T02:21:30Z</time>
      </trkpt>
      <trkpt lat="45.7128" lon="6.46807">
        <ele>806</ele>
        <time>2022-07-16T02:21:32Z</time>
      </trkpt>
      <trkpt lat="45.71282" lon="6.46803">
        <ele>806</ele>
        <time>2022-07-16T02:21:34Z</time>
      </trkpt>
      <trkpt lat="45.71283" lon="6.46798">
        <ele>807</ele>
        <time>2022-07-16T02:21:36Z</time>
      </trkpt>
      <trkpt lat="45.71285" lon="6.46794">
        <ele>807</ele>
        <time>2022-07-16T02:21:38Z</time>
      </trkpt>
      <trkpt lat="45.71287" lon="6.46791">
        <ele>807</ele>
        <time>2022-07-16T02:21:40Z</time>
      </trkpt>
      <trkpt lat="45.71289" lon="6.46788">
        <ele>807</ele>
        <time>2022-07-16T02:21:42Z</time>
      </trkpt>
      <trkpt lat="45.71291" lon="6.46785">
        <ele>808</ele>
        <time>2022-07-16T02:21:44Z</time>
      </trkpt>
      <trkpt lat="45.71293" lon="6.46781">
        <ele>808</ele>
        <time>2022-07-16T02:21:46Z</time>
      </trkpt>
      <trkpt lat="45.71296" lon="6.46778">
        <ele>808</ele>
        <time>2022-07-16T02:21:48Z</time>
      </trkpt>
      <trkpt lat="45.71298" lon="6.46775">
        <ele>808</ele>
        <time>2022-07-16T02:21:50Z</time>
      </trkpt>
      <trkpt lat="45.71301" lon="6.46771">
        <ele>808</ele>
        <time>2022-07-16T02:21:52Z</time>
      </trkpt>
      <trkpt lat="45.71303" lon="6.46768">
        <ele>808</ele>
        <time>2022-07-16T02:21:54Z</time>
      </trkpt>
      <trkpt lat="45.71305" lon="6.46764">
        <ele>809</ele>
        <time>2022-07-16T02:21:56Z</time>
      </trkpt>
      <trkpt lat="45.71306" lon="6.46762">
        <ele>809</ele>
        <time>2022-07-16T02:21:57Z</time>
      </trkpt>
      <trkpt lat="45.71308" lon="6.46758">
        <ele>810</ele>
        <time>2022-07-16T02:21:59Z</time>
      </trkpt>
      <trkpt lat="45.7131" lon="6.46754">
        <ele>810</ele>
        <time>2022-07-16T02:22:01Z</time>
      </trkpt>
      <trkpt lat="45.71311" lon="6.4675">
        <ele>810</ele>
        <time>2022-07-16T02:22:03Z</time>
      </trkpt>
      <trkpt lat="45.71311" lon="6.46748">
        <ele>810</ele>
        <time>2022-07-16T02:22:04Z</time>
      </trkpt>
      <trkpt lat="45.71312" lon="6.46746">
        <ele>810</ele>
        <time>2022-07-16T02:22:05Z</time>
      </trkpt>
      <trkpt lat="45.71312" lon="6.46744">
        <ele>810</ele>
        <time>2022-07-16T02:22:06Z</time>
      </trkpt>
      <trkpt lat="45.71312" lon="6.46743">
        <ele>810</ele>
        <time>2022-07-16T02:22:07Z</time>
      </trkpt>
      <trkpt lat="45.71313" lon="6.46741">
        <ele>811</ele>
        <time>2022-07-16T02:22:08Z</time>
      </trkpt>
      <trkpt lat="45.71313" lon="6.46739">
        <ele>811</ele>
        <time>2022-07-16T02:22:09Z</time>
      </trkpt>
      <trkpt lat="45.71313" lon="6.46738">
        <ele>811</ele>
        <time>2022-07-16T02:22:10Z</time>
      </trkpt>
      <trkpt lat="45.71313" lon="6.46737">
        <ele>812</ele>
        <time>2022-07-16T02:22:11Z</time>
      </trkpt>
      <trkpt lat="45.71313" lon="6.46736">
        <ele>812</ele>
        <time>2022-07-16T02:22:12Z</time>
      </trkpt>
      <trkpt lat="45.71313" lon="6.46735">
        <ele>812</ele>
        <time>2022-07-16T02:22:13Z</time>
      </trkpt>
      <trkpt lat="45.71313" lon="6.46734">
        <ele>812</ele>
        <time>2022-07-16T02:22:14Z</time>
      </trkpt>
      <trkpt lat="45.71313" lon="6.46733">
        <ele>812</ele>
        <time>2022-07-16T02:22:15Z</time>
      </trkpt>
      <trkpt lat="45.71313" lon="6.46732">
        <ele>812</ele>
        <time>2022-07-16T02:22:16Z</time>
      </trkpt>
      <trkpt lat="45.71314" lon="6.46724">
        <ele>812</ele>
        <time>2022-07-16T02:22:17Z</time>
      </trkpt>
      <trkpt lat="45.71313" lon="6.4672">
        <ele>812</ele>
        <time>2022-07-16T02:22:18Z</time>
      </trkpt>
      <trkpt lat="45.71313" lon="6.46718">
        <ele>812</ele>
        <time>2022-07-16T02:22:19Z</time>
      </trkpt>
      <trkpt lat="45.71312" lon="6.46716">
        <ele>813</ele>
        <time>2022-07-16T02:22:20Z</time>
      </trkpt>
      <trkpt lat="45.71312" lon="6.46714">
        <ele>813</ele>
        <time>2022-07-16T02:22:21Z</time>
      </trkpt>
      <trkpt lat="45.71311" lon="6.46709">
        <ele>813</ele>
        <time>2022-07-16T02:22:23Z</time>
      </trkpt>
      <trkpt lat="45.7131" lon="6.46704">
        <ele>813</ele>
        <time>2022-07-16T02:22:24Z</time>
      </trkpt>
      <trkpt lat="45.7131" lon="6.46702">
        <ele>813</ele>
        <time>2022-07-16T02:22:26Z</time>
      </trkpt>
      <trkpt lat="45.71309" lon="6.46697">
        <ele>814</ele>
        <time>2022-07-16T02:22:28Z</time>
      </trkpt>
      <trkpt lat="45.71309" lon="6.46692">
        <ele>814</ele>
        <time>2022-07-16T02:22:30Z</time>
      </trkpt>
      <trkpt lat="45.71307" lon="6.46695">
        <ele>815</ele>
        <time>2022-07-16T02:22:38Z</time>
      </trkpt>
      <trkpt lat="45.71305" lon="6.46697">
        <ele>816</ele>
        <time>2022-07-16T02:22:40Z</time>
      </trkpt>
      <trkpt lat="45.71303" lon="6.467">
        <ele>816</ele>
        <time>2022-07-16T02:22:42Z</time>
      </trkpt>
      <trkpt lat="45.71301" lon="6.46702">
        <ele>817</ele>
        <time>2022-07-16T02:22:44Z</time>
      </trkpt>
      <trkpt lat="45.71299" lon="6.46704">
        <ele>817</ele>
        <time>2022-07-16T02:22:46Z</time>
      </trkpt>
      <trkpt lat="45.71297" lon="6.46707">
        <ele>818</ele>
        <time>2022-07-16T02:22:48Z</time>
      </trkpt>
      <trkpt lat="45.71295" lon="6.46709">
        <ele>818</ele>
        <time>2022-07-16T02:22:50Z</time>
      </trkpt>
      <trkpt lat="45.71294" lon="6.46712">
        <ele>819</ele>
        <time>2022-07-16T02:22:52Z</time>
      </trkpt>
      <trkpt lat="45.71292" lon="6.46714">
        <ele>820</ele>
        <time>2022-07-16T02:22:54Z</time>
      </trkpt>
      <trkpt lat="45.7129" lon="6.46715">
        <ele>821</ele>
        <time>2022-07-16T02:22:56Z</time>
      </trkpt>
      <trkpt lat="45.71288" lon="6.46717">
        <ele>821</ele>
        <time>2022-07-16T02:22:58Z</time>
      </trkpt>
      <trkpt lat="45.71286" lon="6.46718">
        <ele>822</ele>
        <time>2022-07-16T02:23:01Z</time>
      </trkpt>
      <trkpt lat="45.71284" lon="6.4672">
        <ele>823</ele>
        <time>2022-07-16T02:23:03Z</time>
      </trkpt>
      <trkpt lat="45.71282" lon="6.46722">
        <ele>823</ele>
        <time>2022-07-16T02:23:05Z</time>
      </trkpt>
      <trkpt lat="45.71281" lon="6.46724">
        <ele>823</ele>
        <time>2022-07-16T02:23:07Z</time>
      </trkpt>
      <trkpt lat="45.71279" lon="6.46727">
        <ele>824</ele>
        <time>2022-07-16T02:23:10Z</time>
      </trkpt>
      <trkpt lat="45.71277" lon="6.4673">
        <ele>825</ele>
        <time>2022-07-16T02:23:13Z</time>
      </trkpt>
      <trkpt lat="45.71275" lon="6.46733">
        <ele>825</ele>
        <time>2022-07-16T02:23:16Z</time>
      </trkpt>
      <trkpt lat="45.71274" lon="6.46736">
        <ele>826</ele>
        <time>2022-07-16T02:23:18Z</time>
      </trkpt>
      <trkpt lat="45.71272" lon="6.46738">
        <ele>826</ele>
        <time>2022-07-16T02:23:20Z</time>
      </trkpt>
      <trkpt lat="45.71271" lon="6.4674">
        <ele>826</ele>
        <time>2022-07-16T02:23:21Z</time>
      </trkpt>
      <trkpt lat="45.71269" lon="6.46741">
        <ele>827</ele>
        <time>2022-07-16T02:23:26Z</time>
      </trkpt>
      <trkpt lat="45.71267" lon="6.46742">
        <ele>827</ele>
        <time>2022-07-16T02:23:31Z</time>
      </trkpt>
      <trkpt lat="45.71264" lon="6.46742">
        <ele>828</ele>
        <time>2022-07-16T02:23:34Z</time>
      </trkpt>
      <trkpt lat="45.71262" lon="6.46741">
        <ele>829</ele>
        <time>2022-07-16T02:23:37Z</time>
      </trkpt>
      <trkpt lat="45.7126" lon="6.46742">
        <ele>829</ele>
        <time>2022-07-16T02:23:40Z</time>
      </trkpt>
      <trkpt lat="45.71258" lon="6.46741">
        <ele>830</ele>
        <time>2022-07-16T02:23:42Z</time>
      </trkpt>
      <trkpt lat="45.71257" lon="6.46741">
        <ele>830</ele>
        <time>2022-07-16T02:23:43Z</time>
      </trkpt>
      <trkpt lat="45.71256" lon="6.46741">
        <ele>830</ele>
        <time>2022-07-16T02:23:44Z</time>
      </trkpt>
      <trkpt lat="45.71255" lon="6.4674">
        <ele>831</ele>
        <time>2022-07-16T02:23:46Z</time>
      </trkpt>
      <trkpt lat="45.71254" lon="6.4674">
        <ele>831</ele>
        <time>2022-07-16T02:23:47Z</time>
      </trkpt>
      <trkpt lat="45.71252" lon="6.46739">
        <ele>832</ele>
        <time>2022-07-16T02:23:51Z</time>
      </trkpt>
      <trkpt lat="45.71251" lon="6.46736">
        <ele>832</ele>
        <time>2022-07-16T02:23:55Z</time>
      </trkpt>
      <trkpt lat="45.71251" lon="6.46733">
        <ele>833</ele>
        <time>2022-07-16T02:24:00Z</time>
      </trkpt>
      <trkpt lat="45.71252" lon="6.4673">
        <ele>833</ele>
        <time>2022-07-16T02:24:04Z</time>
      </trkpt>
      <trkpt lat="45.71252" lon="6.4673">
        <ele>835</ele>
        <time>2022-07-16T02:24:16Z</time>
      </trkpt>
      <trkpt lat="45.7125" lon="6.46731">
        <ele>835</ele>
        <time>2022-07-16T02:24:19Z</time>
      </trkpt>
      <trkpt lat="45.71248" lon="6.46732">
        <ele>835</ele>
        <time>2022-07-16T02:24:26Z</time>
      </trkpt>
      <trkpt lat="45.71247" lon="6.46733">
        <ele>836</ele>
        <time>2022-07-16T02:24:29Z</time>
      </trkpt>
      <trkpt lat="45.71244" lon="6.46734">
        <ele>836</ele>
        <time>2022-07-16T02:24:32Z</time>
      </trkpt>
      <trkpt lat="45.71242" lon="6.46733">
        <ele>837</ele>
        <time>2022-07-16T02:24:35Z</time>
      </trkpt>
      <trkpt lat="45.71241" lon="6.4673">
        <ele>839</ele>
        <time>2022-07-16T02:24:39Z</time>
      </trkpt>
      <trkpt lat="45.71241" lon="6.4673">
        <ele>838</ele>
        <time>2022-07-16T02:24:50Z</time>
      </trkpt>
      <trkpt lat="45.7124" lon="6.46727">
        <ele>839</ele>
        <time>2022-07-16T02:24:54Z</time>
      </trkpt>
      <trkpt lat="45.71238" lon="6.46726">
        <ele>839</ele>
        <time>2022-07-16T02:24:58Z</time>
      </trkpt>
      <trkpt lat="45.71238" lon="6.46722">
        <ele>840</ele>
        <time>2022-07-16T02:25:02Z</time>
      </trkpt>
      <trkpt lat="45.71238" lon="6.46719">
        <ele>840</ele>
        <time>2022-07-16T02:25:06Z</time>
      </trkpt>
      <trkpt lat="45.71238" lon="6.46716">
        <ele>841</ele>
        <time>2022-07-16T02:25:10Z</time>
      </trkpt>
      <trkpt lat="45.71239" lon="6.46713">
        <ele>841</ele>
        <time>2022-07-16T02:25:13Z</time>
      </trkpt>
      <trkpt lat="45.71239" lon="6.4671">
        <ele>841</ele>
        <time>2022-07-16T02:25:19Z</time>
      </trkpt>
      <trkpt lat="45.71239" lon="6.4671">
        <ele>841</ele>
        <time>2022-07-16T02:25:25Z</time>
      </trkpt>
      <trkpt lat="45.71239" lon="6.46707">
        <ele>841</ele>
        <time>2022-07-16T02:25:27Z</time>
      </trkpt>
      <trkpt lat="45.7124" lon="6.46704">
        <ele>842</ele>
        <time>2022-07-16T02:25:30Z</time>
      </trkpt>
      <trkpt lat="45.7124" lon="6.46701">
        <ele>842</ele>
        <time>2022-07-16T02:25:37Z</time>
      </trkpt>
      <trkpt lat="45.71241" lon="6.46698">
        <ele>842</ele>
        <time>2022-07-16T02:25:41Z</time>
      </trkpt>
      <trkpt lat="45.71241" lon="6.46695">
        <ele>843</ele>
        <time>2022-07-16T02:25:45Z</time>
      </trkpt>
      <trkpt lat="45.71241" lon="6.46692">
        <ele>843</ele>
        <time>2022-07-16T02:25:50Z</time>
      </trkpt>
      <trkpt lat="45.71242" lon="6.46689">
        <ele>843</ele>
        <time>2022-07-16T02:25:55Z</time>
      </trkpt>
      <trkpt lat="45.71241" lon="6.46686">
        <ele>844</ele>
        <time>2022-07-16T02:26:00Z</time>
      </trkpt>
      <trkpt lat="45.71241" lon="6.46686">
        <ele>845</ele>
        <time>2022-07-16T02:26:10Z</time>
      </trkpt>
      <trkpt lat="45.71241" lon="6.46683">
        <ele>846</ele>
        <time>2022-07-16T02:26:19Z</time>
      </trkpt>
      <trkpt lat="45.71239" lon="6.46683">
        <ele>846</ele>
        <time>2022-07-16T02:26:25Z</time>
      </trkpt>
      <trkpt lat="45.71237" lon="6.46684">
        <ele>847</ele>
        <time>2022-07-16T02:26:34Z</time>
      </trkpt>
      <trkpt lat="45.71236" lon="6.46685">
        <ele>848</ele>
        <time>2022-07-16T02:26:38Z</time>
      </trkpt>
      <trkpt lat="45.71234" lon="6.46688">
        <ele>848</ele>
        <time>2022-07-16T02:26:43Z</time>
      </trkpt>
      <trkpt lat="45.71232" lon="6.46689">
        <ele>849</ele>
        <time>2022-07-16T02:26:47Z</time>
      </trkpt>
      <trkpt lat="45.7123" lon="6.46689">
        <ele>850</ele>
        <time>2022-07-16T02:26:50Z</time>
      </trkpt>
      <trkpt lat="45.71228" lon="6.46687">
        <ele>850</ele>
        <time>2022-07-16T02:26:57Z</time>
      </trkpt>
      <trkpt lat="45.71226" lon="6.46687">
        <ele>851</ele>
        <time>2022-07-16T02:27:03Z</time>
      </trkpt>
      <trkpt lat="45.71224" lon="6.46685">
        <ele>851</ele>
        <time>2022-07-16T02:27:07Z</time>
      </trkpt>
      <trkpt lat="45.71224" lon="6.46682">
        <ele>851</ele>
        <time>2022-07-16T02:27:10Z</time>
      </trkpt>
      <trkpt lat="45.71222" lon="6.46679">
        <ele>853</ele>
        <time>2022-07-16T02:27:13Z</time>
      </trkpt>
      <trkpt lat="45.71221" lon="6.46677">
        <ele>853</ele>
        <time>2022-07-16T02:27:14Z</time>
      </trkpt>
      <trkpt lat="45.7122" lon="6.46673">
        <ele>854</ele>
        <time>2022-07-16T02:27:18Z</time>
      </trkpt>
      <trkpt lat="45.7122" lon="6.46671">
        <ele>854</ele>
        <time>2022-07-16T02:27:21Z</time>
      </trkpt>
      <trkpt lat="45.71218" lon="6.46671">
        <ele>857</ele>
        <time>2022-07-16T02:27:28Z</time>
      </trkpt>
      <trkpt lat="45.71216" lon="6.46672">
        <ele>857</ele>
        <time>2022-07-16T02:27:31Z</time>
      </trkpt>
      <trkpt lat="45.71213" lon="6.46673">
        <ele>857</ele>
        <time>2022-07-16T02:27:34Z</time>
      </trkpt>
      <trkpt lat="45.71211" lon="6.46672">
        <ele>859</ele>
        <time>2022-07-16T02:27:37Z</time>
      </trkpt>
      <trkpt lat="45.71209" lon="6.46672">
        <ele>859</ele>
        <time>2022-07-16T02:27:41Z</time>
      </trkpt>
      <trkpt lat="45.71207" lon="6.46672">
        <ele>859</ele>
        <time>2022-07-16T02:27:47Z</time>
      </trkpt>
      <trkpt lat="45.71205" lon="6.46673">
        <ele>860</ele>
        <time>2022-07-16T02:27:50Z</time>
      </trkpt>
      <trkpt lat="45.71203" lon="6.46674">
        <ele>861</ele>
        <time>2022-07-16T02:27:53Z</time>
      </trkpt>
      <trkpt lat="45.71201" lon="6.46674">
        <ele>862</ele>
        <time>2022-07-16T02:27:57Z</time>
      </trkpt>
      <trkpt lat="45.71199" lon="6.46674">
        <ele>862</ele>
        <time>2022-07-16T02:27:59Z</time>
      </trkpt>
      <trkpt lat="45.71197" lon="6.46672">
        <ele>863</ele>
        <time>2022-07-16T02:28:01Z</time>
      </trkpt>
      <trkpt lat="45.71195" lon="6.46669">
        <ele>864</ele>
        <time>2022-07-16T02:28:04Z</time>
      </trkpt>
      <trkpt lat="45.71194" lon="6.46666">
        <ele>864</ele>
        <time>2022-07-16T02:28:06Z</time>
      </trkpt>
      <trkpt lat="45.71194" lon="6.46662">
        <ele>866</ele>
        <time>2022-07-16T02:28:09Z</time>
      </trkpt>
      <trkpt lat="45.71193" lon="6.46659">
        <ele>866</ele>
        <time>2022-07-16T02:28:13Z</time>
      </trkpt>
      <trkpt lat="45.71191" lon="6.46657">
        <ele>866</ele>
        <time>2022-07-16T02:28:19Z</time>
      </trkpt>
      <trkpt lat="45.71191" lon="6.46657">
        <ele>867</ele>
        <time>2022-07-16T02:28:24Z</time>
      </trkpt>
      <trkpt lat="45.71189" lon="6.46657">
        <ele>867</ele>
        <time>2022-07-16T02:28:25Z</time>
      </trkpt>
      <trkpt lat="45.71188" lon="6.46659">
        <ele>868</ele>
        <time>2022-07-16T02:28:32Z</time>
      </trkpt>
      <trkpt lat="45.71186" lon="6.4666">
        <ele>868</ele>
        <time>2022-07-16T02:28:35Z</time>
      </trkpt>
      <trkpt lat="45.71184" lon="6.46659">
        <ele>869</ele>
        <time>2022-07-16T02:28:38Z</time>
      </trkpt>
      <trkpt lat="45.71183" lon="6.46656">
        <ele>870</ele>
        <time>2022-07-16T02:28:41Z</time>
      </trkpt>
      <trkpt lat="45.71181" lon="6.46655">
        <ele>871</ele>
        <time>2022-07-16T02:28:47Z</time>
      </trkpt>
      <trkpt lat="45.7118" lon="6.46653">
        <ele>871</ele>
        <time>2022-07-16T02:28:51Z</time>
      </trkpt>
      <trkpt lat="45.71178" lon="6.46651">
        <ele>872</ele>
        <time>2022-07-16T02:28:55Z</time>
      </trkpt>
      <trkpt lat="45.71177" lon="6.46649">
        <ele>872</ele>
        <time>2022-07-16T02:28:59Z</time>
      </trkpt>
      <trkpt lat="45.71175" lon="6.46648">
        <ele>874</ele>
        <time>2022-07-16T02:29:06Z</time>
      </trkpt>
      <trkpt lat="45.71173" lon="6.46647">
        <ele>875</ele>
        <time>2022-07-16T02:29:09Z</time>
      </trkpt>
      <trkpt lat="45.71171" lon="6.46647">
        <ele>876</ele>
        <time>2022-07-16T02:29:12Z</time>
      </trkpt>
      <trkpt lat="45.7117" lon="6.4665">
        <ele>877</ele>
        <time>2022-07-16T02:29:16Z</time>
      </trkpt>
      <trkpt lat="45.71168" lon="6.46651">
        <ele>877</ele>
        <time>2022-07-16T02:29:18Z</time>
      </trkpt>
      <trkpt lat="45.71166" lon="6.46651">
        <ele>877</ele>
        <time>2022-07-16T02:29:21Z</time>
      </trkpt>
      <trkpt lat="45.71165" lon="6.46653">
        <ele>878</ele>
        <time>2022-07-16T02:29:24Z</time>
      </trkpt>
      <trkpt lat="45.71163" lon="6.46655">
        <ele>879</ele>
        <time>2022-07-16T02:29:29Z</time>
      </trkpt>
      <trkpt lat="45.71162" lon="6.46657">
        <ele>880</ele>
        <time>2022-07-16T02:29:35Z</time>
      </trkpt>
      <trkpt lat="45.71163" lon="6.4666">
        <ele>880</ele>
        <time>2022-07-16T02:29:42Z</time>
      </trkpt>
      <trkpt lat="45.71162" lon="6.46662">
        <ele>882</ele>
        <time>2022-07-16T02:29:47Z</time>
      </trkpt>
      <trkpt lat="45.7116" lon="6.46665">
        <ele>884</ele>
        <time>2022-07-16T02:29:53Z</time>
      </trkpt>
      <trkpt lat="45.7116" lon="6.46665">
        <ele>884</ele>
        <time>2022-07-16T02:29:57Z</time>
      </trkpt>
      <trkpt lat="45.71159" lon="6.46667">
        <ele>885</ele>
        <time>2022-07-16T02:30:00Z</time>
      </trkpt>
      <trkpt lat="45.71159" lon="6.46669">
        <ele>886</ele>
        <time>2022-07-16T02:30:06Z</time>
      </trkpt>
      <trkpt lat="45.71159" lon="6.4667">
        <ele>886</ele>
        <time>2022-07-16T02:30:07Z</time>
      </trkpt>
      <trkpt lat="45.71159" lon="6.46671">
        <ele>886</ele>
        <time>2022-07-16T02:30:09Z</time>
      </trkpt>
      <trkpt lat="45.71159" lon="6.46672">
        <ele>886</ele>
        <time>2022-07-16T02:30:11Z</time>
      </trkpt>
      <trkpt lat="45.71159" lon="6.46673">
        <ele>886</ele>
        <time>2022-07-16T02:30:13Z</time>
      </trkpt>
      <trkpt lat="45.71159" lon="6.46674">
        <ele>886</ele>
        <time>2022-07-16T02:30:14Z</time>
      </trkpt>
      <trkpt lat="45.71159" lon="6.46675">
        <ele>886</ele>
        <time>2022-07-16T02:30:16Z</time>
      </trkpt>
      <trkpt lat="45.71159" lon="6.46676">
        <ele>886</ele>
        <time>2022-07-16T02:30:18Z</time>
      </trkpt>
      <trkpt lat="45.71159" lon="6.46677">
        <ele>886</ele>
        <time>2022-07-16T02:30:20Z</time>
      </trkpt>
      <trkpt lat="45.71159" lon="6.46678">
        <ele>887</ele>
        <time>2022-07-16T02:30:21Z</time>
      </trkpt>
      <trkpt lat="45.71159" lon="6.46679">
        <ele>887</ele>
        <time>2022-07-16T02:30:23Z</time>
      </trkpt>
      <trkpt lat="45.71159" lon="6.4668">
        <ele>888</ele>
        <time>2022-07-16T02:30:25Z</time>
      </trkpt>
      <trkpt lat="45.71159" lon="6.46681">
        <ele>888</ele>
        <time>2022-07-16T02:30:27Z</time>
      </trkpt>
      <trkpt lat="45.71159" lon="6.46682">
        <ele>888</ele>
        <time>2022-07-16T02:30:28Z</time>
      </trkpt>
      <trkpt lat="45.71159" lon="6.46684">
        <ele>890</ele>
        <time>2022-07-16T02:30:44Z</time>
      </trkpt>
      <trkpt lat="45.71159" lon="6.46684">
        <ele>890</ele>
        <time>2022-07-16T02:30:46Z</time>
      </trkpt>
      <trkpt lat="45.71158" lon="6.46687">
        <ele>891</ele>
        <time>2022-07-16T02:30:51Z</time>
      </trkpt>
      <trkpt lat="45.71159" lon="6.46691">
        <ele>891</ele>
        <time>2022-07-16T02:30:55Z</time>
      </trkpt>
      <trkpt lat="45.71158" lon="6.46693">
        <ele>893</ele>
        <time>2022-07-16T02:31:01Z</time>
      </trkpt>
      <trkpt lat="45.71158" lon="6.46696">
        <ele>894</ele>
        <time>2022-07-16T02:31:05Z</time>
      </trkpt>
      <trkpt lat="45.71158" lon="6.46699">
        <ele>895</ele>
        <time>2022-07-16T02:31:10Z</time>
      </trkpt>
      <trkpt lat="45.71158" lon="6.46702">
        <ele>895</ele>
        <time>2022-07-16T02:31:15Z</time>
      </trkpt>
      <trkpt lat="45.71158" lon="6.46706">
        <ele>895</ele>
        <time>2022-07-16T02:31:19Z</time>
      </trkpt>
      <trkpt lat="45.71156" lon="6.46708">
        <ele>895</ele>
        <time>2022-07-16T02:31:25Z</time>
      </trkpt>
      <trkpt lat="45.71155" lon="6.46711">
        <ele>895</ele>
        <time>2022-07-16T02:31:28Z</time>
      </trkpt>
      <trkpt lat="45.71154" lon="6.46713">
        <ele>896</ele>
        <time>2022-07-16T02:31:32Z</time>
      </trkpt>
      <trkpt lat="45.71153" lon="6.46715">
        <ele>896</ele>
        <time>2022-07-16T02:31:36Z</time>
      </trkpt>
      <trkpt lat="45.71151" lon="6.46717">
        <ele>898</ele>
        <time>2022-07-16T02:31:43Z</time>
      </trkpt>
      <trkpt lat="45.71149" lon="6.46716">
        <ele>899</ele>
        <time>2022-07-16T02:31:46Z</time>
      </trkpt>
      <trkpt lat="45.71148" lon="6.46715">
        <ele>901</ele>
        <time>2022-07-16T02:31:52Z</time>
      </trkpt>
      <trkpt lat="45.71147" lon="6.46714">
        <ele>901</ele>
        <time>2022-07-16T02:31:53Z</time>
      </trkpt>
      <trkpt lat="45.71146" lon="6.46713">
        <ele>901</ele>
        <time>2022-07-16T02:31:55Z</time>
      </trkpt>
      <trkpt lat="45.71145" lon="6.46712">
        <ele>902</ele>
        <time>2022-07-16T02:31:56Z</time>
      </trkpt>
      <trkpt lat="45.71144" lon="6.46712">
        <ele>902</ele>
        <time>2022-07-16T02:31:57Z</time>
      </trkpt>
      <trkpt lat="45.71143" lon="6.46711">
        <ele>903</ele>
        <time>2022-07-16T02:31:58Z</time>
      </trkpt>
      <trkpt lat="45.71142" lon="6.4671">
        <ele>903</ele>
        <time>2022-07-16T02:31:59Z</time>
      </trkpt>
      <trkpt lat="45.71142" lon="6.46709">
        <ele>904</ele>
        <time>2022-07-16T02:32:00Z</time>
      </trkpt>
      <trkpt lat="45.71141" lon="6.46709">
        <ele>904</ele>
        <time>2022-07-16T02:32:01Z</time>
      </trkpt>
      <trkpt lat="45.7114" lon="6.46708">
        <ele>904</ele>
        <time>2022-07-16T02:32:02Z</time>
      </trkpt>
      <trkpt lat="45.71139" lon="6.46707">
        <ele>904</ele>
        <time>2022-07-16T02:32:03Z</time>
      </trkpt>
      <trkpt lat="45.71138" lon="6.46706">
        <ele>904</ele>
        <time>2022-07-16T02:32:05Z</time>
      </trkpt>
      <trkpt lat="45.71137" lon="6.46705">
        <ele>904</ele>
        <time>2022-07-16T02:32:07Z</time>
      </trkpt>
      <trkpt lat="45.71135" lon="6.46703">
        <ele>905</ele>
        <time>2022-07-16T02:32:08Z</time>
      </trkpt>
      <trkpt lat="45.71135" lon="6.46702">
        <ele>906</ele>
        <time>2022-07-16T02:32:09Z</time>
      </trkpt>
      <trkpt lat="45.71134" lon="6.467">
        <ele>906</ele>
        <time>2022-07-16T02:32:10Z</time>
      </trkpt>
      <trkpt lat="45.71133" lon="6.46699">
        <ele>906</ele>
        <time>2022-07-16T02:32:11Z</time>
      </trkpt>
      <trkpt lat="45.71133" lon="6.46698">
        <ele>906</ele>
        <time>2022-07-16T02:32:12Z</time>
      </trkpt>
      <trkpt lat="45.71132" lon="6.46696">
        <ele>907</ele>
        <time>2022-07-16T02:32:13Z</time>
      </trkpt>
      <trkpt lat="45.71131" lon="6.46694">
        <ele>907</ele>
        <time>2022-07-16T02:32:14Z</time>
      </trkpt>
      <trkpt lat="45.71131" lon="6.46693">
        <ele>907</ele>
        <time>2022-07-16T02:32:15Z</time>
      </trkpt>
      <trkpt lat="45.71129" lon="6.46688">
        <ele>908</ele>
        <time>2022-07-16T02:32:18Z</time>
      </trkpt>
      <trkpt lat="45.71127" lon="6.46684">
        <ele>911</ele>
        <time>2022-07-16T02:32:26Z</time>
      </trkpt>
      <trkpt lat="45.71125" lon="6.46686">
        <ele>913</ele>
        <time>2022-07-16T02:32:32Z</time>
      </trkpt>
      <trkpt lat="45.71123" lon="6.46689">
        <ele>913</ele>
        <time>2022-07-16T02:32:37Z</time>
      </trkpt>
      <trkpt lat="45.71121" lon="6.4669">
        <ele>915</ele>
        <time>2022-07-16T02:32:41Z</time>
      </trkpt>
      <trkpt lat="45.7112" lon="6.46693">
        <ele>915</ele>
        <time>2022-07-16T02:32:43Z</time>
      </trkpt>
      <trkpt lat="45.71119" lon="6.46696">
        <ele>915</ele>
        <time>2022-07-16T02:32:45Z</time>
      </trkpt>
      <trkpt lat="45.71119" lon="6.46699">
        <ele>916</ele>
        <time>2022-07-16T02:32:47Z</time>
      </trkpt>
      <trkpt lat="45.71118" lon="6.46699">
        <ele>916</ele>
        <time>2022-07-16T02:32:48Z</time>
      </trkpt>
      <trkpt lat="45.71118" lon="6.467">
        <ele>916</ele>
        <time>2022-07-16T02:32:49Z</time>
      </trkpt>
      <trkpt lat="45.71118" lon="6.46701">
        <ele>917</ele>
        <time>2022-07-16T02:32:50Z</time>
      </trkpt>
      <trkpt lat="45.71117" lon="6.46702">
        <ele>917</ele>
        <time>2022-07-16T02:32:51Z</time>
      </trkpt>
      <trkpt lat="45.71117" lon="6.46703">
        <ele>917</ele>
        <time>2022-07-16T02:32:52Z</time>
      </trkpt>
      <trkpt lat="45.71117" lon="6.46704">
        <ele>919</ele>
        <time>2022-07-16T02:32:54Z</time>
      </trkpt>
      <trkpt lat="45.71116" lon="6.46705">
        <ele>919</ele>
        <time>2022-07-16T02:32:55Z</time>
      </trkpt>
      <trkpt lat="45.71113" lon="6.46713">
        <ele>919</ele>
        <time>2022-07-16T02:32:56Z</time>
      </trkpt>
      <trkpt lat="45.71113" lon="6.46715">
        <ele>919</ele>
        <time>2022-07-16T02:32:57Z</time>
      </trkpt>
      <trkpt lat="45.71112" lon="6.46717">
        <ele>919</ele>
        <time>2022-07-16T02:32:58Z</time>
      </trkpt>
      <trkpt lat="45.71112" lon="6.46718">
        <ele>919</ele>
        <time>2022-07-16T02:32:59Z</time>
      </trkpt>
      <trkpt lat="45.71112" lon="6.4672">
        <ele>919</ele>
        <time>2022-07-16T02:33:00Z</time>
      </trkpt>
      <trkpt lat="45.71111" lon="6.46722">
        <ele>920</ele>
        <time>2022-07-16T02:33:01Z</time>
      </trkpt>
      <trkpt lat="45.71109" lon="6.46726">
        <ele>920</ele>
        <time>2022-07-16T02:33:02Z</time>
      </trkpt>
      <trkpt lat="45.71108" lon="6.46727">
        <ele>920</ele>
        <time>2022-07-16T02:33:03Z</time>
      </trkpt>
      <trkpt lat="45.71106" lon="6.46729">
        <ele>920</ele>
        <time>2022-07-16T02:33:04Z</time>
      </trkpt>
      <trkpt lat="45.71104" lon="6.46731">
        <ele>920</ele>
        <time>2022-07-16T02:33:05Z</time>
      </trkpt>
      <trkpt lat="45.71102" lon="6.46733">
        <ele>920</ele>
        <time>2022-07-16T02:33:06Z</time>
      </trkpt>
      <trkpt lat="45.711" lon="6.46735">
        <ele>920</ele>
        <time>2022-07-16T02:33:07Z</time>
      </trkpt>
      <trkpt lat="45.71098" lon="6.46738">
        <ele>920</ele>
        <time>2022-07-16T02:33:08Z</time>
      </trkpt>
      <trkpt lat="45.71096" lon="6.46741">
        <ele>920</ele>
        <time>2022-07-16T02:33:09Z</time>
      </trkpt>
      <trkpt lat="45.71093" lon="6.46747">
        <ele>920</ele>
        <time>2022-07-16T02:33:10Z</time>
      </trkpt>
      <trkpt lat="45.71092" lon="6.4675">
        <ele>920</ele>
        <time>2022-07-16T02:33:12Z</time>
      </trkpt>
      <trkpt lat="45.71091" lon="6.46753">
        <ele>920</ele>
        <time>2022-07-16T02:33:13Z</time>
      </trkpt>
      <trkpt lat="45.7109" lon="6.46757">
        <ele>920</ele>
        <time>2022-07-16T02:33:14Z</time>
      </trkpt>
      <trkpt lat="45.71088" lon="6.4676">
        <ele>920</ele>
        <time>2022-07-16T02:33:15Z</time>
      </trkpt>
      <trkpt lat="45.71087" lon="6.46763">
        <ele>921</ele>
        <time>2022-07-16T02:33:16Z</time>
      </trkpt>
      <trkpt lat="45.71086" lon="6.46766">
        <ele>921</ele>
        <time>2022-07-16T02:33:17Z</time>
      </trkpt>
      <trkpt lat="45.71084" lon="6.46769">
        <ele>921</ele>
        <time>2022-07-16T02:33:18Z</time>
      </trkpt>
      <trkpt lat="45.71083" lon="6.46771">
        <ele>921</ele>
        <time>2022-07-16T02:33:19Z</time>
      </trkpt>
      <trkpt lat="45.71082" lon="6.46773">
        <ele>921</ele>
        <time>2022-07-16T02:33:20Z</time>
      </trkpt>
      <trkpt lat="45.7108" lon="6.46775">
        <ele>922</ele>
        <time>2022-07-16T02:33:21Z</time>
      </trkpt>
      <trkpt lat="45.71079" lon="6.46777">
        <ele>922</ele>
        <time>2022-07-16T02:33:22Z</time>
      </trkpt>
      <trkpt lat="45.71078" lon="6.4678">
        <ele>922</ele>
        <time>2022-07-16T02:33:23Z</time>
      </trkpt>
      <trkpt lat="45.71076" lon="6.46783">
        <ele>922</ele>
        <time>2022-07-16T02:33:24Z</time>
      </trkpt>
      <trkpt lat="45.71075" lon="6.46785">
        <ele>922</ele>
        <time>2022-07-16T02:33:25Z</time>
      </trkpt>
      <trkpt lat="45.71074" lon="6.46788">
        <ele>923</ele>
        <time>2022-07-16T02:33:26Z</time>
      </trkpt>
      <trkpt lat="45.71072" lon="6.4679">
        <ele>923</ele>
        <time>2022-07-16T02:33:27Z</time>
      </trkpt>
      <trkpt lat="45.71071" lon="6.46793">
        <ele>923</ele>
        <time>2022-07-16T02:33:28Z</time>
      </trkpt>
      <trkpt lat="45.7107" lon="6.46795">
        <ele>923</ele>
        <time>2022-07-16T02:33:29Z</time>
      </trkpt>
      <trkpt lat="45.71067" lon="6.46798">
        <ele>923</ele>
        <time>2022-07-16T02:33:30Z</time>
      </trkpt>
      <trkpt lat="45.71066" lon="6.46799">
        <ele>923</ele>
        <time>2022-07-16T02:33:31Z</time>
      </trkpt>
      <trkpt lat="45.71065" lon="6.46802">
        <ele>923</ele>
        <time>2022-07-16T02:33:32Z</time>
      </trkpt>
      <trkpt lat="45.71063" lon="6.46804">
        <ele>923</ele>
        <time>2022-07-16T02:33:33Z</time>
      </trkpt>
      <trkpt lat="45.71061" lon="6.46807">
        <ele>923</ele>
        <time>2022-07-16T02:33:34Z</time>
      </trkpt>
      <trkpt lat="45.7106" lon="6.46809">
        <ele>924</ele>
        <time>2022-07-16T02:33:35Z</time>
      </trkpt>
      <trkpt lat="45.71059" lon="6.46812">
        <ele>924</ele>
        <time>2022-07-16T02:33:36Z</time>
      </trkpt>
      <trkpt lat="45.71057" lon="6.46814">
        <ele>924</ele>
        <time>2022-07-16T02:33:37Z</time>
      </trkpt>
      <trkpt lat="45.71056" lon="6.46817">
        <ele>924</ele>
        <time>2022-07-16T02:33:38Z</time>
      </trkpt>
      <trkpt lat="45.71055" lon="6.46819">
        <ele>925</ele>
        <time>2022-07-16T02:33:39Z</time>
      </trkpt>
      <trkpt lat="45.71054" lon="6.46822">
        <ele>925</ele>
        <time>2022-07-16T02:33:40Z</time>
      </trkpt>
      <trkpt lat="45.71052" lon="6.46825">
        <ele>926</ele>
        <time>2022-07-16T02:33:41Z</time>
      </trkpt>
      <trkpt lat="45.7105" lon="6.46827">
        <ele>926</ele>
        <time>2022-07-16T02:33:42Z</time>
      </trkpt>
      <trkpt lat="45.71049" lon="6.46829">
        <ele>926</ele>
        <time>2022-07-16T02:33:43Z</time>
      </trkpt>
      <trkpt lat="45.71048" lon="6.46831">
        <ele>926</ele>
        <time>2022-07-16T02:33:44Z</time>
      </trkpt>
      <trkpt lat="45.71046" lon="6.46834">
        <ele>926</ele>
        <time>2022-07-16T02:33:45Z</time>
      </trkpt>
      <trkpt lat="45.71045" lon="6.46836">
        <ele>927</ele>
        <time>2022-07-16T02:33:46Z</time>
      </trkpt>
      <trkpt lat="45.71044" lon="6.46838">
        <ele>928</ele>
        <time>2022-07-16T02:33:47Z</time>
      </trkpt>
      <trkpt lat="45.71042" lon="6.46841">
        <ele>928</ele>
        <time>2022-07-16T02:33:48Z</time>
      </trkpt>
      <trkpt lat="45.71041" lon="6.46842">
        <ele>928</ele>
        <time>2022-07-16T02:33:49Z</time>
      </trkpt>
      <trkpt lat="45.7104" lon="6.46844">
        <ele>928</ele>
        <time>2022-07-16T02:33:50Z</time>
      </trkpt>
      <trkpt lat="45.71038" lon="6.46846">
        <ele>928</ele>
        <time>2022-07-16T02:33:51Z</time>
      </trkpt>
      <trkpt lat="45.71036" lon="6.46849">
        <ele>929</ele>
        <time>2022-07-16T02:33:53Z</time>
      </trkpt>
      <trkpt lat="45.71034" lon="6.46851">
        <ele>929</ele>
        <time>2022-07-16T02:33:54Z</time>
      </trkpt>
      <trkpt lat="45.71032" lon="6.46853">
        <ele>929</ele>
        <time>2022-07-16T02:33:55Z</time>
      </trkpt>
      <trkpt lat="45.71031" lon="6.46855">
        <ele>929</ele>
        <time>2022-07-16T02:33:56Z</time>
      </trkpt>
      <trkpt lat="45.71029" lon="6.46857">
        <ele>929</ele>
        <time>2022-07-16T02:33:57Z</time>
      </trkpt>
      <trkpt lat="45.71027" lon="6.46858">
        <ele>929</ele>
        <time>2022-07-16T02:33:58Z</time>
      </trkpt>
      <trkpt lat="45.71025" lon="6.4686">
        <ele>929</ele>
        <time>2022-07-16T02:33:59Z</time>
      </trkpt>
      <trkpt lat="45.71024" lon="6.46862">
        <ele>929</ele>
        <time>2022-07-16T02:34:00Z</time>
      </trkpt>
      <trkpt lat="45.71022" lon="6.46863">
        <ele>930</ele>
        <time>2022-07-16T02:34:01Z</time>
      </trkpt>
      <trkpt lat="45.7102" lon="6.46865">
        <ele>930</ele>
        <time>2022-07-16T02:34:02Z</time>
      </trkpt>
      <trkpt lat="45.71018" lon="6.46866">
        <ele>930</ele>
        <time>2022-07-16T02:34:03Z</time>
      </trkpt>
      <trkpt lat="45.71016" lon="6.46868">
        <ele>931</ele>
        <time>2022-07-16T02:34:04Z</time>
      </trkpt>
      <trkpt lat="45.71014" lon="6.4687">
        <ele>931</ele>
        <time>2022-07-16T02:34:05Z</time>
      </trkpt>
      <trkpt lat="45.71012" lon="6.46872">
        <ele>931</ele>
        <time>2022-07-16T02:34:06Z</time>
      </trkpt>
      <trkpt lat="45.7101" lon="6.46874">
        <ele>931</ele>
        <time>2022-07-16T02:34:07Z</time>
      </trkpt>
      <trkpt lat="45.71009" lon="6.46875">
        <ele>931</ele>
        <time>2022-07-16T02:34:08Z</time>
      </trkpt>
      <trkpt lat="45.71007" lon="6.46877">
        <ele>931</ele>
        <time>2022-07-16T02:34:09Z</time>
      </trkpt>
      <trkpt lat="45.71005" lon="6.46879">
        <ele>931</ele>
        <time>2022-07-16T02:34:10Z</time>
      </trkpt>
      <trkpt lat="45.71003" lon="6.46881">
        <ele>931</ele>
        <time>2022-07-16T02:34:11Z</time>
      </trkpt>
      <trkpt lat="45.71002" lon="6.46883">
        <ele>932</ele>
        <time>2022-07-16T02:34:12Z</time>
      </trkpt>
      <trkpt lat="45.71" lon="6.46885">
        <ele>932</ele>
        <time>2022-07-16T02:34:13Z</time>
      </trkpt>
      <trkpt lat="45.70998" lon="6.46886">
        <ele>932</ele>
        <time>2022-07-16T02:34:14Z</time>
      </trkpt>
      <trkpt lat="45.70997" lon="6.46888">
        <ele>932</ele>
        <time>2022-07-16T02:34:15Z</time>
      </trkpt>
      <trkpt lat="45.70995" lon="6.4689">
        <ele>932</ele>
        <time>2022-07-16T02:34:16Z</time>
      </trkpt>
      <trkpt lat="45.70993" lon="6.46892">
        <ele>932</ele>
        <time>2022-07-16T02:34:17Z</time>
      </trkpt>
      <trkpt lat="45.70992" lon="6.46894">
        <ele>932</ele>
        <time>2022-07-16T02:34:18Z</time>
      </trkpt>
      <trkpt lat="45.70991" lon="6.46896">
        <ele>933</ele>
        <time>2022-07-16T02:34:19Z</time>
      </trkpt>
      <trkpt lat="45.70989" lon="6.46898">
        <ele>933</ele>
        <time>2022-07-16T02:34:20Z</time>
      </trkpt>
      <trkpt lat="45.70988" lon="6.469">
        <ele>933</ele>
        <time>2022-07-16T02:34:21Z</time>
      </trkpt>
      <trkpt lat="45.70986" lon="6.46902">
        <ele>934</ele>
        <time>2022-07-16T02:34:22Z</time>
      </trkpt>
      <trkpt lat="45.70983" lon="6.46906">
        <ele>934</ele>
        <time>2022-07-16T02:34:24Z</time>
      </trkpt>
      <trkpt lat="45.70982" lon="6.46909">
        <ele>935</ele>
        <time>2022-07-16T02:34:26Z</time>
      </trkpt>
      <trkpt lat="45.70979" lon="6.46913">
        <ele>935</ele>
        <time>2022-07-16T02:34:28Z</time>
      </trkpt>
      <trkpt lat="45.70978" lon="6.46915">
        <ele>935</ele>
        <time>2022-07-16T02:34:29Z</time>
      </trkpt>
      <trkpt lat="45.70977" lon="6.46917">
        <ele>935</ele>
        <time>2022-07-16T02:34:30Z</time>
      </trkpt>
      <trkpt lat="45.70975" lon="6.4692">
        <ele>936</ele>
        <time>2022-07-16T02:34:31Z</time>
      </trkpt>
      <trkpt lat="45.70974" lon="6.46922">
        <ele>937</ele>
        <time>2022-07-16T02:34:32Z</time>
      </trkpt>
      <trkpt lat="45.70972" lon="6.46923">
        <ele>937</ele>
        <time>2022-07-16T02:34:33Z</time>
      </trkpt>
      <trkpt lat="45.7097" lon="6.46924">
        <ele>937</ele>
        <time>2022-07-16T02:34:34Z</time>
      </trkpt>
      <trkpt lat="45.70969" lon="6.46926">
        <ele>937</ele>
        <time>2022-07-16T02:34:35Z</time>
      </trkpt>
      <trkpt lat="45.70967" lon="6.46927">
        <ele>937</ele>
        <time>2022-07-16T02:34:36Z</time>
      </trkpt>
      <trkpt lat="45.70965" lon="6.46928">
        <ele>937</ele>
        <time>2022-07-16T02:34:37Z</time>
      </trkpt>
      <trkpt lat="45.70962" lon="6.46929">
        <ele>938</ele>
        <time>2022-07-16T02:34:39Z</time>
      </trkpt>
      <trkpt lat="45.7096" lon="6.46928">
        <ele>938</ele>
        <time>2022-07-16T02:34:40Z</time>
      </trkpt>
      <trkpt lat="45.70958" lon="6.46927">
        <ele>938</ele>
        <time>2022-07-16T02:34:41Z</time>
      </trkpt>
      <trkpt lat="45.70956" lon="6.46926">
        <ele>938</ele>
        <time>2022-07-16T02:34:42Z</time>
      </trkpt>
      <trkpt lat="45.70953" lon="6.46924">
        <ele>938</ele>
        <time>2022-07-16T02:34:43Z</time>
      </trkpt>
      <trkpt lat="45.70951" lon="6.46923">
        <ele>938</ele>
        <time>2022-07-16T02:34:44Z</time>
      </trkpt>
      <trkpt lat="45.70947" lon="6.46921">
        <ele>939</ele>
        <time>2022-07-16T02:34:45Z</time>
      </trkpt>
      <trkpt lat="45.70946" lon="6.4692">
        <ele>939</ele>
        <time>2022-07-16T02:34:47Z</time>
      </trkpt>
      <trkpt lat="45.70944" lon="6.46919">
        <ele>940</ele>
        <time>2022-07-16T02:34:48Z</time>
      </trkpt>
      <trkpt lat="45.70942" lon="6.46917">
        <ele>940</ele>
        <time>2022-07-16T02:34:49Z</time>
      </trkpt>
      <trkpt lat="45.7094" lon="6.46916">
        <ele>940</ele>
        <time>2022-07-16T02:34:50Z</time>
      </trkpt>
      <trkpt lat="45.70938" lon="6.46916">
        <ele>940</ele>
        <time>2022-07-16T02:34:51Z</time>
      </trkpt>
      <trkpt lat="45.70936" lon="6.46915">
        <ele>940</ele>
        <time>2022-07-16T02:34:52Z</time>
      </trkpt>
      <trkpt lat="45.70933" lon="6.46915">
        <ele>940</ele>
        <time>2022-07-16T02:34:53Z</time>
      </trkpt>
      <trkpt lat="45.70932" lon="6.46914">
        <ele>940</ele>
        <time>2022-07-16T02:34:54Z</time>
      </trkpt>
      <trkpt lat="45.70929" lon="6.46914">
        <ele>940</ele>
        <time>2022-07-16T02:34:55Z</time>
      </trkpt>
      <trkpt lat="45.70927" lon="6.46914">
        <ele>940</ele>
        <time>2022-07-16T02:34:56Z</time>
      </trkpt>
      <trkpt lat="45.70924" lon="6.46913">
        <ele>940</ele>
        <time>2022-07-16T02:34:58Z</time>
      </trkpt>
      <trkpt lat="45.70922" lon="6.46913">
        <ele>940</ele>
        <time>2022-07-16T02:34:59Z</time>
      </trkpt>
      <trkpt lat="45.7092" lon="6.46913">
        <ele>940</ele>
        <time>2022-07-16T02:35:00Z</time>
      </trkpt>
      <trkpt lat="45.70918" lon="6.46913">
        <ele>941</ele>
        <time>2022-07-16T02:35:01Z</time>
      </trkpt>
      <trkpt lat="45.70914" lon="6.46913">
        <ele>941</ele>
        <time>2022-07-16T02:35:02Z</time>
      </trkpt>
      <trkpt lat="45.70911" lon="6.46913">
        <ele>942</ele>
        <time>2022-07-16T02:35:04Z</time>
      </trkpt>
      <trkpt lat="45.7091" lon="6.46913">
        <ele>942</ele>
        <time>2022-07-16T02:35:05Z</time>
      </trkpt>
      <trkpt lat="45.70906" lon="6.46913">
        <ele>942</ele>
        <time>2022-07-16T02:35:07Z</time>
      </trkpt>
      <trkpt lat="45.70904" lon="6.46914">
        <ele>942</ele>
        <time>2022-07-16T02:35:08Z</time>
      </trkpt>
      <trkpt lat="45.70902" lon="6.46914">
        <ele>942</ele>
        <time>2022-07-16T02:35:09Z</time>
      </trkpt>
      <trkpt lat="45.709" lon="6.46914">
        <ele>942</ele>
        <time>2022-07-16T02:35:10Z</time>
      </trkpt>
      <trkpt lat="45.70898" lon="6.46915">
        <ele>943</ele>
        <time>2022-07-16T02:35:11Z</time>
      </trkpt>
      <trkpt lat="45.70896" lon="6.46916">
        <ele>943</ele>
        <time>2022-07-16T02:35:12Z</time>
      </trkpt>
      <trkpt lat="45.70893" lon="6.46916">
        <ele>943</ele>
        <time>2022-07-16T02:35:13Z</time>
      </trkpt>
      <trkpt lat="45.70892" lon="6.46916">
        <ele>943</ele>
        <time>2022-07-16T02:35:14Z</time>
      </trkpt>
      <trkpt lat="45.70887" lon="6.46917">
        <ele>943</ele>
        <time>2022-07-16T02:35:15Z</time>
      </trkpt>
      <trkpt lat="45.70885" lon="6.46917">
        <ele>943</ele>
        <time>2022-07-16T02:35:17Z</time>
      </trkpt>
      <trkpt lat="45.70883" lon="6.46917">
        <ele>943</ele>
        <time>2022-07-16T02:35:18Z</time>
      </trkpt>
      <trkpt lat="45.70881" lon="6.46916">
        <ele>944</ele>
        <time>2022-07-16T02:35:19Z</time>
      </trkpt>
      <trkpt lat="45.7088" lon="6.46916">
        <ele>944</ele>
        <time>2022-07-16T02:35:20Z</time>
      </trkpt>
      <trkpt lat="45.70877" lon="6.46914">
        <ele>945</ele>
        <time>2022-07-16T02:35:21Z</time>
      </trkpt>
      <trkpt lat="45.70876" lon="6.46913">
        <ele>945</ele>
        <time>2022-07-16T02:35:22Z</time>
      </trkpt>
      <trkpt lat="45.70875" lon="6.4691">
        <ele>945</ele>
        <time>2022-07-16T02:35:23Z</time>
      </trkpt>
      <trkpt lat="45.70874" lon="6.46907">
        <ele>945</ele>
        <time>2022-07-16T02:35:24Z</time>
      </trkpt>
      <trkpt lat="45.70874" lon="6.46904">
        <ele>945</ele>
        <time>2022-07-16T02:35:25Z</time>
      </trkpt>
      <trkpt lat="45.70875" lon="6.46901">
        <ele>945</ele>
        <time>2022-07-16T02:35:26Z</time>
      </trkpt>
      <trkpt lat="45.70875" lon="6.46898">
        <ele>946</ele>
        <time>2022-07-16T02:35:27Z</time>
      </trkpt>
      <trkpt lat="45.70876" lon="6.46895">
        <ele>946</ele>
        <time>2022-07-16T02:35:28Z</time>
      </trkpt>
      <trkpt lat="45.70876" lon="6.46892">
        <ele>946</ele>
        <time>2022-07-16T02:35:29Z</time>
      </trkpt>
      <trkpt lat="45.70877" lon="6.4689">
        <ele>946</ele>
        <time>2022-07-16T02:35:30Z</time>
      </trkpt>
      <trkpt lat="45.70879" lon="6.46887">
        <ele>947</ele>
        <time>2022-07-16T02:35:31Z</time>
      </trkpt>
      <trkpt lat="45.7088" lon="6.46885">
        <ele>947</ele>
        <time>2022-07-16T02:35:32Z</time>
      </trkpt>
      <trkpt lat="45.70881" lon="6.46883">
        <ele>947</ele>
        <time>2022-07-16T02:35:33Z</time>
      </trkpt>
      <trkpt lat="45.70881" lon="6.4688">
        <ele>947</ele>
        <time>2022-07-16T02:35:34Z</time>
      </trkpt>
      <trkpt lat="45.70883" lon="6.46876">
        <ele>948</ele>
        <time>2022-07-16T02:35:36Z</time>
      </trkpt>
      <trkpt lat="45.70884" lon="6.46873">
        <ele>948</ele>
        <time>2022-07-16T02:35:37Z</time>
      </trkpt>
      <trkpt lat="45.70885" lon="6.46871">
        <ele>948</ele>
        <time>2022-07-16T02:35:38Z</time>
      </trkpt>
      <trkpt lat="45.70887" lon="6.46869">
        <ele>948</ele>
        <time>2022-07-16T02:35:39Z</time>
      </trkpt>
      <trkpt lat="45.70888" lon="6.46867">
        <ele>949</ele>
        <time>2022-07-16T02:35:40Z</time>
      </trkpt>
      <trkpt lat="45.70889" lon="6.46865">
        <ele>949</ele>
        <time>2022-07-16T02:35:41Z</time>
      </trkpt>
      <trkpt lat="45.70891" lon="6.46863">
        <ele>949</ele>
        <time>2022-07-16T02:35:42Z</time>
      </trkpt>
      <trkpt lat="45.70891" lon="6.4686">
        <ele>949</ele>
        <time>2022-07-16T02:35:43Z</time>
      </trkpt>
      <trkpt lat="45.70892" lon="6.46858">
        <ele>949</ele>
        <time>2022-07-16T02:35:44Z</time>
      </trkpt>
      <trkpt lat="45.70894" lon="6.46856">
        <ele>949</ele>
        <time>2022-07-16T02:35:45Z</time>
      </trkpt>
      <trkpt lat="45.70894" lon="6.46853">
        <ele>949</ele>
        <time>2022-07-16T02:35:46Z</time>
      </trkpt>
      <trkpt lat="45.70896" lon="6.46851">
        <ele>949</ele>
        <time>2022-07-16T02:35:47Z</time>
      </trkpt>
      <trkpt lat="45.70897" lon="6.46849">
        <ele>949</ele>
        <time>2022-07-16T02:35:48Z</time>
      </trkpt>
      <trkpt lat="45.70899" lon="6.46846">
        <ele>949</ele>
        <time>2022-07-16T02:35:49Z</time>
      </trkpt>
      <trkpt lat="45.709" lon="6.46844">
        <ele>950</ele>
        <time>2022-07-16T02:35:50Z</time>
      </trkpt>
      <trkpt lat="45.70901" lon="6.46841">
        <ele>950</ele>
        <time>2022-07-16T02:35:51Z</time>
      </trkpt>
      <trkpt lat="45.70902" lon="6.46839">
        <ele>951</ele>
        <time>2022-07-16T02:35:52Z</time>
      </trkpt>
      <trkpt lat="45.70902" lon="6.46836">
        <ele>951</ele>
        <time>2022-07-16T02:35:53Z</time>
      </trkpt>
      <trkpt lat="45.70903" lon="6.46833">
        <ele>951</ele>
        <time>2022-07-16T02:35:54Z</time>
      </trkpt>
      <trkpt lat="45.70904" lon="6.4683">
        <ele>951</ele>
        <time>2022-07-16T02:35:55Z</time>
      </trkpt>
      <trkpt lat="45.70904" lon="6.46828">
        <ele>951</ele>
        <time>2022-07-16T02:35:56Z</time>
      </trkpt>
      <trkpt lat="45.70905" lon="6.46825">
        <ele>951</ele>
        <time>2022-07-16T02:35:57Z</time>
      </trkpt>
      <trkpt lat="45.70906" lon="6.46822">
        <ele>951</ele>
        <time>2022-07-16T02:35:58Z</time>
      </trkpt>
      <trkpt lat="45.70906" lon="6.4682">
        <ele>952</ele>
        <time>2022-07-16T02:35:59Z</time>
      </trkpt>
      <trkpt lat="45.70907" lon="6.46817">
        <ele>952</ele>
        <time>2022-07-16T02:36:00Z</time>
      </trkpt>
      <trkpt lat="45.70907" lon="6.46813">
        <ele>952</ele>
        <time>2022-07-16T02:36:02Z</time>
      </trkpt>
      <trkpt lat="45.70908" lon="6.46808">
        <ele>952</ele>
        <time>2022-07-16T02:36:03Z</time>
      </trkpt>
      <trkpt lat="45.70908" lon="6.46805">
        <ele>952</ele>
        <time>2022-07-16T02:36:04Z</time>
      </trkpt>
      <trkpt lat="45.70908" lon="6.46802">
        <ele>953</ele>
        <time>2022-07-16T02:36:05Z</time>
      </trkpt>
      <trkpt lat="45.70908" lon="6.46799">
        <ele>953</ele>
        <time>2022-07-16T02:36:06Z</time>
      </trkpt>
      <trkpt lat="45.70909" lon="6.46797">
        <ele>953</ele>
        <time>2022-07-16T02:36:07Z</time>
      </trkpt>
      <trkpt lat="45.70909" lon="6.46794">
        <ele>954</ele>
        <time>2022-07-16T02:36:08Z</time>
      </trkpt>
      <trkpt lat="45.7091" lon="6.46791">
        <ele>954</ele>
        <time>2022-07-16T02:36:09Z</time>
      </trkpt>
      <trkpt lat="45.70911" lon="6.46788">
        <ele>954</ele>
        <time>2022-07-16T02:36:10Z</time>
      </trkpt>
      <trkpt lat="45.70912" lon="6.46786">
        <ele>954</ele>
        <time>2022-07-16T02:36:11Z</time>
      </trkpt>
      <trkpt lat="45.70913" lon="6.46783">
        <ele>954</ele>
        <time>2022-07-16T02:36:12Z</time>
      </trkpt>
      <trkpt lat="45.70914" lon="6.4678">
        <ele>954</ele>
        <time>2022-07-16T02:36:13Z</time>
      </trkpt>
      <trkpt lat="45.70915" lon="6.46778">
        <ele>954</ele>
        <time>2022-07-16T02:36:14Z</time>
      </trkpt>
      <trkpt lat="45.70917" lon="6.46773">
        <ele>954</ele>
        <time>2022-07-16T02:36:16Z</time>
      </trkpt>
      <trkpt lat="45.70918" lon="6.4677">
        <ele>954</ele>
        <time>2022-07-16T02:36:17Z</time>
      </trkpt>
      <trkpt lat="45.70918" lon="6.46768">
        <ele>955</ele>
        <time>2022-07-16T02:36:18Z</time>
      </trkpt>
      <trkpt lat="45.70918" lon="6.46765">
        <ele>955</ele>
        <time>2022-07-16T02:36:19Z</time>
      </trkpt>
      <trkpt lat="45.70919" lon="6.46762">
        <ele>955</ele>
        <time>2022-07-16T02:36:20Z</time>
      </trkpt>
      <trkpt lat="45.70919" lon="6.4676">
        <ele>955</ele>
        <time>2022-07-16T02:36:21Z</time>
      </trkpt>
      <trkpt lat="45.70921" lon="6.46755">
        <ele>956</ele>
        <time>2022-07-16T02:36:23Z</time>
      </trkpt>
      <trkpt lat="45.70922" lon="6.46753">
        <ele>956</ele>
        <time>2022-07-16T02:36:24Z</time>
      </trkpt>
      <trkpt lat="45.70923" lon="6.4675">
        <ele>956</ele>
        <time>2022-07-16T02:36:25Z</time>
      </trkpt>
      <trkpt lat="45.70924" lon="6.46748">
        <ele>956</ele>
        <time>2022-07-16T02:36:26Z</time>
      </trkpt>
      <trkpt lat="45.70925" lon="6.46746">
        <ele>956</ele>
        <time>2022-07-16T02:36:27Z</time>
      </trkpt>
      <trkpt lat="45.70926" lon="6.46744">
        <ele>956</ele>
        <time>2022-07-16T02:36:28Z</time>
      </trkpt>
      <trkpt lat="45.70928" lon="6.46742">
        <ele>957</ele>
        <time>2022-07-16T02:36:29Z</time>
      </trkpt>
      <trkpt lat="45.7093" lon="6.46738">
        <ele>957</ele>
        <time>2022-07-16T02:36:31Z</time>
      </trkpt>
      <trkpt lat="45.70931" lon="6.46734">
        <ele>957</ele>
        <time>2022-07-16T02:36:33Z</time>
      </trkpt>
      <trkpt lat="45.70933" lon="6.46731">
        <ele>958</ele>
        <time>2022-07-16T02:36:35Z</time>
      </trkpt>
      <trkpt lat="45.70934" lon="6.4673">
        <ele>958</ele>
        <time>2022-07-16T02:36:36Z</time>
      </trkpt>
      <trkpt lat="45.70935" lon="6.46728">
        <ele>958</ele>
        <time>2022-07-16T02:36:37Z</time>
      </trkpt>
      <trkpt lat="45.70936" lon="6.46726">
        <ele>958</ele>
        <time>2022-07-16T02:36:38Z</time>
      </trkpt>
      <trkpt lat="45.70938" lon="6.46724">
        <ele>958</ele>
        <time>2022-07-16T02:36:39Z</time>
      </trkpt>
      <trkpt lat="45.7094" lon="6.46722">
        <ele>958</ele>
        <time>2022-07-16T02:36:42Z</time>
      </trkpt>
      <trkpt lat="45.70943" lon="6.4672">
        <ele>958</ele>
        <time>2022-07-16T02:36:44Z</time>
      </trkpt>
      <trkpt lat="45.70945" lon="6.46717">
        <ele>959</ele>
        <time>2022-07-16T02:36:46Z</time>
      </trkpt>
      <trkpt lat="45.70948" lon="6.46714">
        <ele>960</ele>
        <time>2022-07-16T02:36:48Z</time>
      </trkpt>
      <trkpt lat="45.7095" lon="6.46711">
        <ele>960</ele>
        <time>2022-07-16T02:36:50Z</time>
      </trkpt>
      <trkpt lat="45.70953" lon="6.46708">
        <ele>960</ele>
        <time>2022-07-16T02:36:52Z</time>
      </trkpt>
      <trkpt lat="45.70955" lon="6.46706">
        <ele>960</ele>
        <time>2022-07-16T02:36:54Z</time>
      </trkpt>
      <trkpt lat="45.70957" lon="6.46703">
        <ele>960</ele>
        <time>2022-07-16T02:36:56Z</time>
      </trkpt>
      <trkpt lat="45.70959" lon="6.467">
        <ele>960</ele>
        <time>2022-07-16T02:36:58Z</time>
      </trkpt>
      <trkpt lat="45.70962" lon="6.46698">
        <ele>960</ele>
        <time>2022-07-16T02:37:00Z</time>
      </trkpt>
      <trkpt lat="45.70964" lon="6.46694">
        <ele>961</ele>
        <time>2022-07-16T02:37:02Z</time>
      </trkpt>
      <trkpt lat="45.70966" lon="6.46692">
        <ele>961</ele>
        <time>2022-07-16T02:37:04Z</time>
      </trkpt>
      <trkpt lat="45.70967" lon="6.46691">
        <ele>961</ele>
        <time>2022-07-16T02:37:05Z</time>
      </trkpt>
      <trkpt lat="45.70969" lon="6.46689">
        <ele>961</ele>
        <time>2022-07-16T02:37:06Z</time>
      </trkpt>
      <trkpt lat="45.7097" lon="6.46688">
        <ele>961</ele>
        <time>2022-07-16T02:37:07Z</time>
      </trkpt>
      <trkpt lat="45.70971" lon="6.46687">
        <ele>962</ele>
        <time>2022-07-16T02:37:08Z</time>
      </trkpt>
      <trkpt lat="45.70972" lon="6.46685">
        <ele>962</ele>
        <time>2022-07-16T02:37:09Z</time>
      </trkpt>
      <trkpt lat="45.70974" lon="6.46684">
        <ele>963</ele>
        <time>2022-07-16T02:37:10Z</time>
      </trkpt>
      <trkpt lat="45.70975" lon="6.46683">
        <ele>963</ele>
        <time>2022-07-16T02:37:11Z</time>
      </trkpt>
      <trkpt lat="45.70978" lon="6.46681">
        <ele>963</ele>
        <time>2022-07-16T02:37:13Z</time>
      </trkpt>
      <trkpt lat="45.70979" lon="6.46679">
        <ele>963</ele>
        <time>2022-07-16T02:37:14Z</time>
      </trkpt>
      <trkpt lat="45.70982" lon="6.46677">
        <ele>963</ele>
        <time>2022-07-16T02:37:16Z</time>
      </trkpt>
      <trkpt lat="45.70985" lon="6.46674">
        <ele>963</ele>
        <time>2022-07-16T02:37:17Z</time>
      </trkpt>
      <trkpt lat="45.70986" lon="6.46672">
        <ele>963</ele>
        <time>2022-07-16T02:37:19Z</time>
      </trkpt>
      <trkpt lat="45.70988" lon="6.46671">
        <ele>964</ele>
        <time>2022-07-16T02:37:20Z</time>
      </trkpt>
      <trkpt lat="45.70991" lon="6.46668">
        <ele>964</ele>
        <time>2022-07-16T02:37:22Z</time>
      </trkpt>
      <trkpt lat="45.70993" lon="6.46665">
        <ele>964</ele>
        <time>2022-07-16T02:37:24Z</time>
      </trkpt>
      <trkpt lat="45.70995" lon="6.46662">
        <ele>964</ele>
        <time>2022-07-16T02:37:26Z</time>
      </trkpt>
      <trkpt lat="45.70998" lon="6.46658">
        <ele>965</ele>
        <time>2022-07-16T02:37:28Z</time>
      </trkpt>
      <trkpt lat="45.71" lon="6.46655">
        <ele>965</ele>
        <time>2022-07-16T02:37:30Z</time>
      </trkpt>
      <trkpt lat="45.71002" lon="6.46652">
        <ele>965</ele>
        <time>2022-07-16T02:37:32Z</time>
      </trkpt>
      <trkpt lat="45.71004" lon="6.46649">
        <ele>965</ele>
        <time>2022-07-16T02:37:34Z</time>
      </trkpt>
      <trkpt lat="45.71006" lon="6.46646">
        <ele>965</ele>
        <time>2022-07-16T02:37:36Z</time>
      </trkpt>
      <trkpt lat="45.71007" lon="6.46642">
        <ele>966</ele>
        <time>2022-07-16T02:37:38Z</time>
      </trkpt>
      <trkpt lat="45.71009" lon="6.46638">
        <ele>967</ele>
        <time>2022-07-16T02:37:40Z</time>
      </trkpt>
      <trkpt lat="45.7101" lon="6.46634">
        <ele>967</ele>
        <time>2022-07-16T02:37:42Z</time>
      </trkpt>
      <trkpt lat="45.71011" lon="6.4663">
        <ele>967</ele>
        <time>2022-07-16T02:37:44Z</time>
      </trkpt>
      <trkpt lat="45.71012" lon="6.46627">
        <ele>967</ele>
        <time>2022-07-16T02:37:46Z</time>
      </trkpt>
      <trkpt lat="45.71014" lon="6.46623">
        <ele>967</ele>
        <time>2022-07-16T02:37:48Z</time>
      </trkpt>
      <trkpt lat="45.71015" lon="6.4662">
        <ele>967</ele>
        <time>2022-07-16T02:37:50Z</time>
      </trkpt>
      <trkpt lat="45.71017" lon="6.46616">
        <ele>967</ele>
        <time>2022-07-16T02:37:52Z</time>
      </trkpt>
      <trkpt lat="45.71018" lon="6.46613">
        <ele>967</ele>
        <time>2022-07-16T02:37:54Z</time>
      </trkpt>
      <trkpt lat="45.71019" lon="6.4661">
        <ele>967</ele>
        <time>2022-07-16T02:37:56Z</time>
      </trkpt>
      <trkpt lat="45.7102" lon="6.46607">
        <ele>968</ele>
        <time>2022-07-16T02:37:58Z</time>
      </trkpt>
      <trkpt lat="45.71019" lon="6.46604">
        <ele>968</ele>
        <time>2022-07-16T02:38:00Z</time>
      </trkpt>
      <trkpt lat="45.71019" lon="6.466">
        <ele>969</ele>
        <time>2022-07-16T02:38:02Z</time>
      </trkpt>
      <trkpt lat="45.7102" lon="6.46597">
        <ele>970</ele>
        <time>2022-07-16T02:38:04Z</time>
      </trkpt>
      <trkpt lat="45.7102" lon="6.46593">
        <ele>971</ele>
        <time>2022-07-16T02:38:07Z</time>
      </trkpt>
      <trkpt lat="45.71019" lon="6.4659">
        <ele>972</ele>
        <time>2022-07-16T02:38:10Z</time>
      </trkpt>
      <trkpt lat="45.71018" lon="6.46587">
        <ele>973</ele>
        <time>2022-07-16T02:38:13Z</time>
      </trkpt>
      <trkpt lat="45.71016" lon="6.46585">
        <ele>974</ele>
        <time>2022-07-16T02:38:17Z</time>
      </trkpt>
      <trkpt lat="45.71015" lon="6.46583">
        <ele>976</ele>
        <time>2022-07-16T02:38:21Z</time>
      </trkpt>
      <trkpt lat="45.71014" lon="6.46581">
        <ele>976</ele>
        <time>2022-07-16T02:38:24Z</time>
      </trkpt>
      <trkpt lat="45.71012" lon="6.46579">
        <ele>976</ele>
        <time>2022-07-16T02:38:27Z</time>
      </trkpt>
      <trkpt lat="45.7101" lon="6.46577">
        <ele>978</ele>
        <time>2022-07-16T02:38:31Z</time>
      </trkpt>
      <trkpt lat="45.71008" lon="6.46576">
        <ele>978</ele>
        <time>2022-07-16T02:38:34Z</time>
      </trkpt>
      <trkpt lat="45.71006" lon="6.46576">
        <ele>979</ele>
        <time>2022-07-16T02:38:37Z</time>
      </trkpt>
      <trkpt lat="45.71004" lon="6.46576">
        <ele>979</ele>
        <time>2022-07-16T02:38:39Z</time>
      </trkpt>
      <trkpt lat="45.71002" lon="6.46577">
        <ele>982</ele>
        <time>2022-07-16T02:38:42Z</time>
      </trkpt>
      <trkpt lat="45.71" lon="6.46577">
        <ele>983</ele>
        <time>2022-07-16T02:38:45Z</time>
      </trkpt>
      <trkpt lat="45.70998" lon="6.46577">
        <ele>983</ele>
        <time>2022-07-16T02:38:47Z</time>
      </trkpt>
      <trkpt lat="45.70996" lon="6.46574">
        <ele>983</ele>
        <time>2022-07-16T02:38:50Z</time>
      </trkpt>
      <trkpt lat="45.70995" lon="6.46571">
        <ele>985</ele>
        <time>2022-07-16T02:38:53Z</time>
      </trkpt>
      <trkpt lat="45.70995" lon="6.46567">
        <ele>985</ele>
        <time>2022-07-16T02:38:56Z</time>
      </trkpt>
      <trkpt lat="45.70995" lon="6.46564">
        <ele>985</ele>
        <time>2022-07-16T02:38:59Z</time>
      </trkpt>
      <trkpt lat="45.70994" lon="6.46562">
        <ele>987</ele>
        <time>2022-07-16T02:39:03Z</time>
      </trkpt>
      <trkpt lat="45.70993" lon="6.46558">
        <ele>988</ele>
        <time>2022-07-16T02:39:06Z</time>
      </trkpt>
      <trkpt lat="45.70992" lon="6.46556">
        <ele>988</ele>
        <time>2022-07-16T02:39:08Z</time>
      </trkpt>
      <trkpt lat="45.70992" lon="6.46555">
        <ele>988</ele>
        <time>2022-07-16T02:39:09Z</time>
      </trkpt>
      <trkpt lat="45.70991" lon="6.46554">
        <ele>989</ele>
        <time>2022-07-16T02:39:10Z</time>
      </trkpt>
      <trkpt lat="45.70991" lon="6.46552">
        <ele>989</ele>
        <time>2022-07-16T02:39:11Z</time>
      </trkpt>
      <trkpt lat="45.7099" lon="6.46551">
        <ele>989</ele>
        <time>2022-07-16T02:39:12Z</time>
      </trkpt>
      <trkpt lat="45.7099" lon="6.4655">
        <ele>989</ele>
        <time>2022-07-16T02:39:13Z</time>
      </trkpt>
      <trkpt lat="45.70989" lon="6.46547">
        <ele>989</ele>
        <time>2022-07-16T02:39:16Z</time>
      </trkpt>
      <trkpt lat="45.70989" lon="6.46544">
        <ele>991</ele>
        <time>2022-07-16T02:39:19Z</time>
      </trkpt>
      <trkpt lat="45.70988" lon="6.46541">
        <ele>991</ele>
        <time>2022-07-16T02:39:22Z</time>
      </trkpt>
      <trkpt lat="45.70986" lon="6.46543">
        <ele>992</ele>
        <time>2022-07-16T02:39:26Z</time>
      </trkpt>
      <trkpt lat="45.70984" lon="6.46546">
        <ele>992</ele>
        <time>2022-07-16T02:39:28Z</time>
      </trkpt>
      <trkpt lat="45.70982" lon="6.46548">
        <ele>992</ele>
        <time>2022-07-16T02:39:30Z</time>
      </trkpt>
      <trkpt lat="45.70979" lon="6.4655">
        <ele>993</ele>
        <time>2022-07-16T02:39:32Z</time>
      </trkpt>
      <trkpt lat="45.70976" lon="6.46552">
        <ele>993</ele>
        <time>2022-07-16T02:39:34Z</time>
      </trkpt>
      <trkpt lat="45.70973" lon="6.46553">
        <ele>993</ele>
        <time>2022-07-16T02:39:36Z</time>
      </trkpt>
      <trkpt lat="45.7097" lon="6.46554">
        <ele>993</ele>
        <time>2022-07-16T02:39:38Z</time>
      </trkpt>
      <trkpt lat="45.70968" lon="6.46556">
        <ele>993</ele>
        <time>2022-07-16T02:39:40Z</time>
      </trkpt>
      <trkpt lat="45.70965" lon="6.46557">
        <ele>994</ele>
        <time>2022-07-16T02:39:42Z</time>
      </trkpt>
      <trkpt lat="45.70962" lon="6.46558">
        <ele>994</ele>
        <time>2022-07-16T02:39:44Z</time>
      </trkpt>
      <trkpt lat="45.70959" lon="6.46559">
        <ele>995</ele>
        <time>2022-07-16T02:39:46Z</time>
      </trkpt>
      <trkpt lat="45.70957" lon="6.46559">
        <ele>995</ele>
        <time>2022-07-16T02:39:48Z</time>
      </trkpt>
      <trkpt lat="45.70954" lon="6.46558">
        <ele>995</ele>
        <time>2022-07-16T02:39:50Z</time>
      </trkpt>
      <trkpt lat="45.70951" lon="6.46557">
        <ele>995</ele>
        <time>2022-07-16T02:39:52Z</time>
      </trkpt>
      <trkpt lat="45.70949" lon="6.46557">
        <ele>996</ele>
        <time>2022-07-16T02:39:55Z</time>
      </trkpt>
      <trkpt lat="45.70947" lon="6.46558">
        <ele>996</ele>
        <time>2022-07-16T02:39:57Z</time>
      </trkpt>
      <trkpt lat="45.70945" lon="6.46559">
        <ele>997</ele>
        <time>2022-07-16T02:40:00Z</time>
      </trkpt>
      <trkpt lat="45.70944" lon="6.46555">
        <ele>998</ele>
        <time>2022-07-16T02:40:06Z</time>
      </trkpt>
      <trkpt lat="45.70946" lon="6.46551">
        <ele>998</ele>
        <time>2022-07-16T02:40:08Z</time>
      </trkpt>
      <trkpt lat="45.70947" lon="6.46549">
        <ele>998</ele>
        <time>2022-07-16T02:40:10Z</time>
      </trkpt>
      <trkpt lat="45.70948" lon="6.46545">
        <ele>999</ele>
        <time>2022-07-16T02:40:12Z</time>
      </trkpt>
      <trkpt lat="45.7095" lon="6.46542">
        <ele>999</ele>
        <time>2022-07-16T02:40:14Z</time>
      </trkpt>
      <trkpt lat="45.70951" lon="6.4654">
        <ele>1000</ele>
        <time>2022-07-16T02:40:16Z</time>
      </trkpt>
      <trkpt lat="45.70953" lon="6.46536">
        <ele>1000</ele>
        <time>2022-07-16T02:40:18Z</time>
      </trkpt>
      <trkpt lat="45.70952" lon="6.46532">
        <ele>1001</ele>
        <time>2022-07-16T02:40:20Z</time>
      </trkpt>
      <trkpt lat="45.70953" lon="6.46529">
        <ele>1001</ele>
        <time>2022-07-16T02:40:22Z</time>
      </trkpt>
      <trkpt lat="45.70952" lon="6.46526">
        <ele>1002</ele>
        <time>2022-07-16T02:40:24Z</time>
      </trkpt>
      <trkpt lat="45.70949" lon="6.46524">
        <ele>1003</ele>
        <time>2022-07-16T02:40:27Z</time>
      </trkpt>
      <trkpt lat="45.70946" lon="6.46524">
        <ele>1004</ele>
        <time>2022-07-16T02:40:30Z</time>
      </trkpt>
      <trkpt lat="45.70944" lon="6.46524">
        <ele>1004</ele>
        <time>2022-07-16T02:40:32Z</time>
      </trkpt>
      <trkpt lat="45.70942" lon="6.46525">
        <ele>1004</ele>
        <time>2022-07-16T02:40:34Z</time>
      </trkpt>
      <trkpt lat="45.70939" lon="6.46525">
        <ele>1006</ele>
        <time>2022-07-16T02:40:38Z</time>
      </trkpt>
      <trkpt lat="45.70937" lon="6.46525">
        <ele>1006</ele>
        <time>2022-07-16T02:40:40Z</time>
      </trkpt>
      <trkpt lat="45.70935" lon="6.46524">
        <ele>1007</ele>
        <time>2022-07-16T02:40:42Z</time>
      </trkpt>
      <trkpt lat="45.70933" lon="6.46523">
        <ele>1008</ele>
        <time>2022-07-16T02:40:45Z</time>
      </trkpt>
      <trkpt lat="45.70931" lon="6.46523">
        <ele>1008</ele>
        <time>2022-07-16T02:40:46Z</time>
      </trkpt>
      <trkpt lat="45.70929" lon="6.46523">
        <ele>1009</ele>
        <time>2022-07-16T02:40:49Z</time>
      </trkpt>
      <trkpt lat="45.70926" lon="6.46522">
        <ele>1010</ele>
        <time>2022-07-16T02:40:52Z</time>
      </trkpt>
      <trkpt lat="45.70924" lon="6.46522">
        <ele>1011</ele>
        <time>2022-07-16T02:40:54Z</time>
      </trkpt>
      <trkpt lat="45.70922" lon="6.46521">
        <ele>1011</ele>
        <time>2022-07-16T02:40:57Z</time>
      </trkpt>
      <trkpt lat="45.70919" lon="6.46519">
        <ele>1012</ele>
        <time>2022-07-16T02:41:00Z</time>
      </trkpt>
      <trkpt lat="45.70917" lon="6.46518">
        <ele>1012</ele>
        <time>2022-07-16T02:41:03Z</time>
      </trkpt>
      <trkpt lat="45.70915" lon="6.46518">
        <ele>1013</ele>
        <time>2022-07-16T02:41:06Z</time>
      </trkpt>
      <trkpt lat="45.70913" lon="6.46517">
        <ele>1014</ele>
        <time>2022-07-16T02:41:09Z</time>
      </trkpt>
      <trkpt lat="45.7091" lon="6.46516">
        <ele>1015</ele>
        <time>2022-07-16T02:41:12Z</time>
      </trkpt>
      <trkpt lat="45.70908" lon="6.46514">
        <ele>1016</ele>
        <time>2022-07-16T02:41:15Z</time>
      </trkpt>
      <trkpt lat="45.70906" lon="6.46513">
        <ele>1016</ele>
        <time>2022-07-16T02:41:17Z</time>
      </trkpt>
      <trkpt lat="45.70904" lon="6.46511">
        <ele>1018</ele>
        <time>2022-07-16T02:41:20Z</time>
      </trkpt>
      <trkpt lat="45.70902" lon="6.46509">
        <ele>1018</ele>
        <time>2022-07-16T02:41:23Z</time>
      </trkpt>
      <trkpt lat="45.70899" lon="6.46508">
        <ele>1019</ele>
        <time>2022-07-16T02:41:26Z</time>
      </trkpt>
      <trkpt lat="45.70897" lon="6.46507">
        <ele>1019</ele>
        <time>2022-07-16T02:41:29Z</time>
      </trkpt>
      <trkpt lat="45.70895" lon="6.46506">
        <ele>1021</ele>
        <time>2022-07-16T02:41:32Z</time>
      </trkpt>
      <trkpt lat="45.70893" lon="6.46504">
        <ele>1022</ele>
        <time>2022-07-16T02:41:35Z</time>
      </trkpt>
      <trkpt lat="45.70891" lon="6.46503">
        <ele>1022</ele>
        <time>2022-07-16T02:41:38Z</time>
      </trkpt>
      <trkpt lat="45.70889" lon="6.46501">
        <ele>1023</ele>
        <time>2022-07-16T02:41:41Z</time>
      </trkpt>
      <trkpt lat="45.70887" lon="6.465">
        <ele>1024</ele>
        <time>2022-07-16T02:41:44Z</time>
      </trkpt>
      <trkpt lat="45.70886" lon="6.46498">
        <ele>1024</ele>
        <time>2022-07-16T02:41:47Z</time>
      </trkpt>
      <trkpt lat="45.70884" lon="6.46498">
        <ele>1025</ele>
        <time>2022-07-16T02:41:50Z</time>
      </trkpt>
      <trkpt lat="45.70881" lon="6.46497">
        <ele>1026</ele>
        <time>2022-07-16T02:41:54Z</time>
      </trkpt>
      <trkpt lat="45.7088" lon="6.46496">
        <ele>1027</ele>
        <time>2022-07-16T02:41:59Z</time>
      </trkpt>
      <trkpt lat="45.70878" lon="6.46495">
        <ele>1027</ele>
        <time>2022-07-16T02:42:02Z</time>
      </trkpt>
      <trkpt lat="45.70876" lon="6.46493">
        <ele>1029</ele>
        <time>2022-07-16T02:42:07Z</time>
      </trkpt>
      <trkpt lat="45.70874" lon="6.46491">
        <ele>1029</ele>
        <time>2022-07-16T02:42:09Z</time>
      </trkpt>
      <trkpt lat="45.70872" lon="6.4649">
        <ele>1030</ele>
        <time>2022-07-16T02:42:12Z</time>
      </trkpt>
      <trkpt lat="45.7087" lon="6.46489">
        <ele>1030</ele>
        <time>2022-07-16T02:42:15Z</time>
      </trkpt>
      <trkpt lat="45.70868" lon="6.46488">
        <ele>1030</ele>
        <time>2022-07-16T02:42:18Z</time>
      </trkpt>
      <trkpt lat="45.70867" lon="6.46487">
        <ele>1031</ele>
        <time>2022-07-16T02:42:22Z</time>
      </trkpt>
      <trkpt lat="45.70865" lon="6.46485">
        <ele>1032</ele>
        <time>2022-07-16T02:42:26Z</time>
      </trkpt>
      <trkpt lat="45.70863" lon="6.46484">
        <ele>1033</ele>
        <time>2022-07-16T02:42:29Z</time>
      </trkpt>
      <trkpt lat="45.70861" lon="6.46483">
        <ele>1034</ele>
        <time>2022-07-16T02:42:33Z</time>
      </trkpt>
      <trkpt lat="45.7086" lon="6.46482">
        <ele>1035</ele>
        <time>2022-07-16T02:42:36Z</time>
      </trkpt>
      <trkpt lat="45.70858" lon="6.46481">
        <ele>1036</ele>
        <time>2022-07-16T02:42:39Z</time>
      </trkpt>
      <trkpt lat="45.70856" lon="6.4648">
        <ele>1036</ele>
        <time>2022-07-16T02:42:41Z</time>
      </trkpt>
      <trkpt lat="45.70853" lon="6.4648">
        <ele>1037</ele>
        <time>2022-07-16T02:42:46Z</time>
      </trkpt>
      <trkpt lat="45.70852" lon="6.46481">
        <ele>1038</ele>
        <time>2022-07-16T02:42:49Z</time>
      </trkpt>
      <trkpt lat="45.7085" lon="6.46483">
        <ele>1039</ele>
        <time>2022-07-16T02:42:52Z</time>
      </trkpt>
      <trkpt lat="45.70849" lon="6.46485">
        <ele>1040</ele>
        <time>2022-07-16T02:42:55Z</time>
      </trkpt>
      <trkpt lat="45.70847" lon="6.46487">
        <ele>1041</ele>
        <time>2022-07-16T02:42:58Z</time>
      </trkpt>
      <trkpt lat="45.70845" lon="6.46488">
        <ele>1041</ele>
        <time>2022-07-16T02:43:00Z</time>
      </trkpt>
      <trkpt lat="45.70842" lon="6.46489">
        <ele>1043</ele>
        <time>2022-07-16T02:43:03Z</time>
      </trkpt>
      <trkpt lat="45.7084" lon="6.46489">
        <ele>1043</ele>
        <time>2022-07-16T02:43:07Z</time>
      </trkpt>
      <trkpt lat="45.70838" lon="6.46489">
        <ele>1043</ele>
        <time>2022-07-16T02:43:10Z</time>
      </trkpt>
      <trkpt lat="45.70836" lon="6.46489">
        <ele>1044</ele>
        <time>2022-07-16T02:43:13Z</time>
      </trkpt>
      <trkpt lat="45.70834" lon="6.46491">
        <ele>1045</ele>
        <time>2022-07-16T02:43:16Z</time>
      </trkpt>
      <trkpt lat="45.70832" lon="6.46491">
        <ele>1045</ele>
        <time>2022-07-16T02:43:20Z</time>
      </trkpt>
      <trkpt lat="45.7083" lon="6.46491">
        <ele>1045</ele>
        <time>2022-07-16T02:43:24Z</time>
      </trkpt>
      <trkpt lat="45.70828" lon="6.46491">
        <ele>1047</ele>
        <time>2022-07-16T02:43:29Z</time>
      </trkpt>
      <trkpt lat="45.70826" lon="6.46493">
        <ele>1048</ele>
        <time>2022-07-16T02:43:33Z</time>
      </trkpt>
      <trkpt lat="45.70825" lon="6.46494">
        <ele>1048</ele>
        <time>2022-07-16T02:43:36Z</time>
      </trkpt>
      <trkpt lat="45.70822" lon="6.46495">
        <ele>1049</ele>
        <time>2022-07-16T02:43:39Z</time>
      </trkpt>
      <trkpt lat="45.7082" lon="6.46495">
        <ele>1050</ele>
        <time>2022-07-16T02:43:41Z</time>
      </trkpt>
      <trkpt lat="45.70818" lon="6.46495">
        <ele>1050</ele>
        <time>2022-07-16T02:43:43Z</time>
      </trkpt>
      <trkpt lat="45.70815" lon="6.46494">
        <ele>1050</ele>
        <time>2022-07-16T02:43:45Z</time>
      </trkpt>
      <trkpt lat="45.70812" lon="6.46493">
        <ele>1051</ele>
        <time>2022-07-16T02:43:47Z</time>
      </trkpt>
      <trkpt lat="45.7081" lon="6.46491">
        <ele>1051</ele>
        <time>2022-07-16T02:43:49Z</time>
      </trkpt>
      <trkpt lat="45.70808" lon="6.4649">
        <ele>1052</ele>
        <time>2022-07-16T02:43:51Z</time>
      </trkpt>
      <trkpt lat="45.70806" lon="6.46488">
        <ele>1052</ele>
        <time>2022-07-16T02:43:53Z</time>
      </trkpt>
      <trkpt lat="45.70804" lon="6.46487">
        <ele>1053</ele>
        <time>2022-07-16T02:43:55Z</time>
      </trkpt>
      <trkpt lat="45.70802" lon="6.46484">
        <ele>1053</ele>
        <time>2022-07-16T02:43:57Z</time>
      </trkpt>
      <trkpt lat="45.70801" lon="6.46482">
        <ele>1054</ele>
        <time>2022-07-16T02:43:59Z</time>
      </trkpt>
      <trkpt lat="45.70801" lon="6.46479">
        <ele>1055</ele>
        <time>2022-07-16T02:44:01Z</time>
      </trkpt>
      <trkpt lat="45.70802" lon="6.46476">
        <ele>1055</ele>
        <time>2022-07-16T02:44:04Z</time>
      </trkpt>
      <trkpt lat="45.70803" lon="6.46473">
        <ele>1056</ele>
        <time>2022-07-16T02:44:06Z</time>
      </trkpt>
      <trkpt lat="45.70804" lon="6.4647">
        <ele>1057</ele>
        <time>2022-07-16T02:44:09Z</time>
      </trkpt>
      <trkpt lat="45.70804" lon="6.46467">
        <ele>1058</ele>
        <time>2022-07-16T02:44:12Z</time>
      </trkpt>
      <trkpt lat="45.70803" lon="6.46464">
        <ele>1059</ele>
        <time>2022-07-16T02:44:15Z</time>
      </trkpt>
      <trkpt lat="45.70802" lon="6.46461">
        <ele>1059</ele>
        <time>2022-07-16T02:44:18Z</time>
      </trkpt>
      <trkpt lat="45.70803" lon="6.46458">
        <ele>1060</ele>
        <time>2022-07-16T02:44:21Z</time>
      </trkpt>
      <trkpt lat="45.70803" lon="6.46455">
        <ele>1060</ele>
        <time>2022-07-16T02:44:24Z</time>
      </trkpt>
      <trkpt lat="45.70802" lon="6.46452">
        <ele>1062</ele>
        <time>2022-07-16T02:44:29Z</time>
      </trkpt>
      <trkpt lat="45.70801" lon="6.46449">
        <ele>1063</ele>
        <time>2022-07-16T02:44:33Z</time>
      </trkpt>
      <trkpt lat="45.70801" lon="6.46446">
        <ele>1063</ele>
        <time>2022-07-16T02:44:36Z</time>
      </trkpt>
      <trkpt lat="45.708" lon="6.46443">
        <ele>1064</ele>
        <time>2022-07-16T02:44:38Z</time>
      </trkpt>
      <trkpt lat="45.708" lon="6.4644">
        <ele>1065</ele>
        <time>2022-07-16T02:44:41Z</time>
      </trkpt>
      <trkpt lat="45.70799" lon="6.46437">
        <ele>1066</ele>
        <time>2022-07-16T02:44:44Z</time>
      </trkpt>
      <trkpt lat="45.70799" lon="6.46434">
        <ele>1067</ele>
        <time>2022-07-16T02:44:47Z</time>
      </trkpt>
      <trkpt lat="45.70798" lon="6.4643">
        <ele>1068</ele>
        <time>2022-07-16T02:44:50Z</time>
      </trkpt>
      <trkpt lat="45.70797" lon="6.46427">
        <ele>1069</ele>
        <time>2022-07-16T02:44:52Z</time>
      </trkpt>
      <trkpt lat="45.70795" lon="6.46424">
        <ele>1069</ele>
        <time>2022-07-16T02:44:53Z</time>
      </trkpt>
      <trkpt lat="45.70794" lon="6.46421">
        <ele>1070</ele>
        <time>2022-07-16T02:44:56Z</time>
      </trkpt>
      <trkpt lat="45.70794" lon="6.46418">
        <ele>1070</ele>
        <time>2022-07-16T02:44:58Z</time>
      </trkpt>
      <trkpt lat="45.70793" lon="6.46415">
        <ele>1071</ele>
        <time>2022-07-16T02:45:00Z</time>
      </trkpt>
      <trkpt lat="45.70794" lon="6.46411">
        <ele>1070</ele>
        <time>2022-07-16T02:45:02Z</time>
      </trkpt>
      <trkpt lat="45.70794" lon="6.46406">
        <ele>1071</ele>
        <time>2022-07-16T02:45:04Z</time>
      </trkpt>
      <trkpt lat="45.70794" lon="6.46402">
        <ele>1071</ele>
        <time>2022-07-16T02:45:06Z</time>
      </trkpt>
      <trkpt lat="45.70794" lon="6.46398">
        <ele>1072</ele>
        <time>2022-07-16T02:45:08Z</time>
      </trkpt>
      <trkpt lat="45.70794" lon="6.46393">
        <ele>1072</ele>
        <time>2022-07-16T02:45:10Z</time>
      </trkpt>
      <trkpt lat="45.70794" lon="6.46389">
        <ele>1072</ele>
        <time>2022-07-16T02:45:12Z</time>
      </trkpt>
      <trkpt lat="45.70795" lon="6.46384">
        <ele>1072</ele>
        <time>2022-07-16T02:45:14Z</time>
      </trkpt>
      <trkpt lat="45.70796" lon="6.46381">
        <ele>1073</ele>
        <time>2022-07-16T02:45:16Z</time>
      </trkpt>
      <trkpt lat="45.70796" lon="6.46378">
        <ele>1073</ele>
        <time>2022-07-16T02:45:18Z</time>
      </trkpt>
      <trkpt lat="45.70797" lon="6.46374">
        <ele>1073</ele>
        <time>2022-07-16T02:45:20Z</time>
      </trkpt>
      <trkpt lat="45.70797" lon="6.4637">
        <ele>1073</ele>
        <time>2022-07-16T02:45:22Z</time>
      </trkpt>
      <trkpt lat="45.70797" lon="6.46367">
        <ele>1073</ele>
        <time>2022-07-16T02:45:24Z</time>
      </trkpt>
      <trkpt lat="45.70797" lon="6.46363">
        <ele>1074</ele>
        <time>2022-07-16T02:45:26Z</time>
      </trkpt>
      <trkpt lat="45.70798" lon="6.4636">
        <ele>1074</ele>
        <time>2022-07-16T02:45:28Z</time>
      </trkpt>
      <trkpt lat="45.70798" lon="6.46356">
        <ele>1074</ele>
        <time>2022-07-16T02:45:30Z</time>
      </trkpt>
      <trkpt lat="45.70798" lon="6.46353">
        <ele>1074</ele>
        <time>2022-07-16T02:45:31Z</time>
      </trkpt>
      <trkpt lat="45.70797" lon="6.4635">
        <ele>1074</ele>
        <time>2022-07-16T02:45:34Z</time>
      </trkpt>
      <trkpt lat="45.70797" lon="6.46347">
        <ele>1074</ele>
        <time>2022-07-16T02:45:36Z</time>
      </trkpt>
      <trkpt lat="45.70797" lon="6.46344">
        <ele>1074</ele>
        <time>2022-07-16T02:45:38Z</time>
      </trkpt>
      <trkpt lat="45.70797" lon="6.46341">
        <ele>1075</ele>
        <time>2022-07-16T02:45:40Z</time>
      </trkpt>
      <trkpt lat="45.70796" lon="6.46337">
        <ele>1075</ele>
        <time>2022-07-16T02:45:42Z</time>
      </trkpt>
      <trkpt lat="45.70796" lon="6.46333">
        <ele>1075</ele>
        <time>2022-07-16T02:45:44Z</time>
      </trkpt>
      <trkpt lat="45.70795" lon="6.46329">
        <ele>1075</ele>
        <time>2022-07-16T02:45:46Z</time>
      </trkpt>
      <trkpt lat="45.70795" lon="6.46325">
        <ele>1075</ele>
        <time>2022-07-16T02:45:48Z</time>
      </trkpt>
      <trkpt lat="45.70795" lon="6.46321">
        <ele>1075</ele>
        <time>2022-07-16T02:45:50Z</time>
      </trkpt>
      <trkpt lat="45.70795" lon="6.46317">
        <ele>1075</ele>
        <time>2022-07-16T02:45:52Z</time>
      </trkpt>
      <trkpt lat="45.70794" lon="6.46312">
        <ele>1075</ele>
        <time>2022-07-16T02:45:54Z</time>
      </trkpt>
      <trkpt lat="45.70794" lon="6.46308">
        <ele>1077</ele>
        <time>2022-07-16T02:45:56Z</time>
      </trkpt>
      <trkpt lat="45.70793" lon="6.46303">
        <ele>1077</ele>
        <time>2022-07-16T02:45:58Z</time>
      </trkpt>
      <trkpt lat="45.70793" lon="6.46301">
        <ele>1077</ele>
        <time>2022-07-16T02:45:59Z</time>
      </trkpt>
      <trkpt lat="45.70793" lon="6.46296">
        <ele>1077</ele>
        <time>2022-07-16T02:46:01Z</time>
      </trkpt>
      <trkpt lat="45.70793" lon="6.46291">
        <ele>1078</ele>
        <time>2022-07-16T02:46:03Z</time>
      </trkpt>
      <trkpt lat="45.70794" lon="6.46288">
        <ele>1078</ele>
        <time>2022-07-16T02:46:05Z</time>
      </trkpt>
      <trkpt lat="45.70794" lon="6.46284">
        <ele>1078</ele>
        <time>2022-07-16T02:46:07Z</time>
      </trkpt>
      <trkpt lat="45.70795" lon="6.46281">
        <ele>1078</ele>
        <time>2022-07-16T02:46:09Z</time>
      </trkpt>
      <trkpt lat="45.70793" lon="6.4628">
        <ele>1080</ele>
        <time>2022-07-16T02:46:14Z</time>
      </trkpt>
      <trkpt lat="45.70791" lon="6.46281">
        <ele>1080</ele>
        <time>2022-07-16T02:46:16Z</time>
      </trkpt>
      <trkpt lat="45.70789" lon="6.4628">
        <ele>1081</ele>
        <time>2022-07-16T02:46:18Z</time>
      </trkpt>
      <trkpt lat="45.70787" lon="6.46278">
        <ele>1082</ele>
        <time>2022-07-16T02:46:20Z</time>
      </trkpt>
      <trkpt lat="45.70785" lon="6.46275">
        <ele>1083</ele>
        <time>2022-07-16T02:46:23Z</time>
      </trkpt>
      <trkpt lat="45.70783" lon="6.46274">
        <ele>1083</ele>
        <time>2022-07-16T02:46:25Z</time>
      </trkpt>
      <trkpt lat="45.70782" lon="6.46271">
        <ele>1084</ele>
        <time>2022-07-16T02:46:28Z</time>
      </trkpt>
      <trkpt lat="45.70779" lon="6.4627">
        <ele>1085</ele>
        <time>2022-07-16T02:46:31Z</time>
      </trkpt>
      <trkpt lat="45.70778" lon="6.46269">
        <ele>1086</ele>
        <time>2022-07-16T02:46:33Z</time>
      </trkpt>
      <trkpt lat="45.70775" lon="6.46268">
        <ele>1088</ele>
        <time>2022-07-16T02:46:36Z</time>
      </trkpt>
      <trkpt lat="45.70773" lon="6.46267">
        <ele>1089</ele>
        <time>2022-07-16T02:46:39Z</time>
      </trkpt>
      <trkpt lat="45.70771" lon="6.46266">
        <ele>1089</ele>
        <time>2022-07-16T02:46:43Z</time>
      </trkpt>
      <trkpt lat="45.70769" lon="6.46264">
        <ele>1090</ele>
        <time>2022-07-16T02:46:47Z</time>
      </trkpt>
      <trkpt lat="45.70768" lon="6.46263">
        <ele>1091</ele>
        <time>2022-07-16T02:46:51Z</time>
      </trkpt>
      <trkpt lat="45.70766" lon="6.46261">
        <ele>1091</ele>
        <time>2022-07-16T02:46:54Z</time>
      </trkpt>
      <trkpt lat="45.70765" lon="6.46258">
        <ele>1093</ele>
        <time>2022-07-16T02:46:57Z</time>
      </trkpt>
      <trkpt lat="45.70765" lon="6.46255">
        <ele>1094</ele>
        <time>2022-07-16T02:46:59Z</time>
      </trkpt>
      <trkpt lat="45.70766" lon="6.46251">
        <ele>1094</ele>
        <time>2022-07-16T02:47:02Z</time>
      </trkpt>
      <trkpt lat="45.70767" lon="6.46248">
        <ele>1095</ele>
        <time>2022-07-16T02:47:05Z</time>
      </trkpt>
      <trkpt lat="45.70768" lon="6.46245">
        <ele>1095</ele>
        <time>2022-07-16T02:47:06Z</time>
      </trkpt>
      <trkpt lat="45.70769" lon="6.46241">
        <ele>1096</ele>
        <time>2022-07-16T02:47:09Z</time>
      </trkpt>
      <trkpt lat="45.7077" lon="6.46236">
        <ele>1096</ele>
        <time>2022-07-16T02:47:11Z</time>
      </trkpt>
      <trkpt lat="45.70771" lon="6.46232">
        <ele>1096</ele>
        <time>2022-07-16T02:47:13Z</time>
      </trkpt>
      <trkpt lat="45.70773" lon="6.46228">
        <ele>1096</ele>
        <time>2022-07-16T02:47:15Z</time>
      </trkpt>
      <trkpt lat="45.70774" lon="6.46223">
        <ele>1095</ele>
        <time>2022-07-16T02:47:17Z</time>
      </trkpt>
      <trkpt lat="45.70775" lon="6.46219">
        <ele>1095</ele>
        <time>2022-07-16T02:47:19Z</time>
      </trkpt>
      <trkpt lat="45.70775" lon="6.46214">
        <ele>1095</ele>
        <time>2022-07-16T02:47:21Z</time>
      </trkpt>
      <trkpt lat="45.70775" lon="6.4621">
        <ele>1096</ele>
        <time>2022-07-16T02:47:23Z</time>
      </trkpt>
      <trkpt lat="45.70775" lon="6.46206">
        <ele>1096</ele>
        <time>2022-07-16T02:47:25Z</time>
      </trkpt>
      <trkpt lat="45.70776" lon="6.46202">
        <ele>1096</ele>
        <time>2022-07-16T02:47:27Z</time>
      </trkpt>
      <trkpt lat="45.70776" lon="6.46198">
        <ele>1096</ele>
        <time>2022-07-16T02:47:29Z</time>
      </trkpt>
      <trkpt lat="45.70776" lon="6.46194">
        <ele>1097</ele>
        <time>2022-07-16T02:47:31Z</time>
      </trkpt>
      <trkpt lat="45.70776" lon="6.4619">
        <ele>1097</ele>
        <time>2022-07-16T02:47:33Z</time>
      </trkpt>
      <trkpt lat="45.70776" lon="6.46186">
        <ele>1098</ele>
        <time>2022-07-16T02:47:35Z</time>
      </trkpt>
      <trkpt lat="45.70776" lon="6.46182">
        <ele>1099</ele>
        <time>2022-07-16T02:47:37Z</time>
      </trkpt>
      <trkpt lat="45.70775" lon="6.46178">
        <ele>1099</ele>
        <time>2022-07-16T02:47:39Z</time>
      </trkpt>
      <trkpt lat="45.70775" lon="6.46176">
        <ele>1099</ele>
        <time>2022-07-16T02:47:41Z</time>
      </trkpt>
      <trkpt lat="45.70775" lon="6.46173">
        <ele>1099</ele>
        <time>2022-07-16T02:47:43Z</time>
      </trkpt>
      <trkpt lat="45.70773" lon="6.46171">
        <ele>1100</ele>
        <time>2022-07-16T02:47:45Z</time>
      </trkpt>
      <trkpt lat="45.70772" lon="6.46171">
        <ele>1101</ele>
        <time>2022-07-16T02:47:47Z</time>
      </trkpt>
      <trkpt lat="45.7077" lon="6.46171">
        <ele>1102</ele>
        <time>2022-07-16T02:47:49Z</time>
      </trkpt>
      <trkpt lat="45.70767" lon="6.4617">
        <ele>1102</ele>
        <time>2022-07-16T02:47:51Z</time>
      </trkpt>
      <trkpt lat="45.70765" lon="6.4617">
        <ele>1103</ele>
        <time>2022-07-16T02:47:54Z</time>
      </trkpt>
      <trkpt lat="45.70763" lon="6.4617">
        <ele>1105</ele>
        <time>2022-07-16T02:47:57Z</time>
      </trkpt>
      <trkpt lat="45.70761" lon="6.46171">
        <ele>1105</ele>
        <time>2022-07-16T02:47:59Z</time>
      </trkpt>
      <trkpt lat="45.70759" lon="6.46174">
        <ele>1105</ele>
        <time>2022-07-16T02:48:01Z</time>
      </trkpt>
      <trkpt lat="45.70756" lon="6.46176">
        <ele>1105</ele>
        <time>2022-07-16T02:48:03Z</time>
      </trkpt>
      <trkpt lat="45.70753" lon="6.46178">
        <ele>1105</ele>
        <time>2022-07-16T02:48:05Z</time>
      </trkpt>
      <trkpt lat="45.70751" lon="6.46181">
        <ele>1106</ele>
        <time>2022-07-16T02:48:07Z</time>
      </trkpt>
      <trkpt lat="45.70749" lon="6.46183">
        <ele>1106</ele>
        <time>2022-07-16T02:48:09Z</time>
      </trkpt>
      <trkpt lat="45.70747" lon="6.46186">
        <ele>1106</ele>
        <time>2022-07-16T02:48:11Z</time>
      </trkpt>
      <trkpt lat="45.70744" lon="6.46188">
        <ele>1106</ele>
        <time>2022-07-16T02:48:13Z</time>
      </trkpt>
      <trkpt lat="45.70741" lon="6.4619">
        <ele>1106</ele>
        <time>2022-07-16T02:48:15Z</time>
      </trkpt>
      <trkpt lat="45.70739" lon="6.46191">
        <ele>1106</ele>
        <time>2022-07-16T02:48:17Z</time>
      </trkpt>
      <trkpt lat="45.70736" lon="6.4619">
        <ele>1107</ele>
        <time>2022-07-16T02:48:19Z</time>
      </trkpt>
      <trkpt lat="45.70733" lon="6.46187">
        <ele>1107</ele>
        <time>2022-07-16T02:48:21Z</time>
      </trkpt>
      <trkpt lat="45.70732" lon="6.46185">
        <ele>1107</ele>
        <time>2022-07-16T02:48:22Z</time>
      </trkpt>
      <trkpt lat="45.7073" lon="6.46182">
        <ele>1108</ele>
        <time>2022-07-16T02:48:25Z</time>
      </trkpt>
      <trkpt lat="45.70729" lon="6.46179">
        <ele>1108</ele>
        <time>2022-07-16T02:48:27Z</time>
      </trkpt>
      <trkpt lat="45.70727" lon="6.46175">
        <ele>1109</ele>
        <time>2022-07-16T02:48:29Z</time>
      </trkpt>
      <trkpt lat="45.70726" lon="6.46172">
        <ele>1109</ele>
        <time>2022-07-16T02:48:31Z</time>
      </trkpt>
      <trkpt lat="45.70725" lon="6.46168">
        <ele>1110</ele>
        <time>2022-07-16T02:48:33Z</time>
      </trkpt>
      <trkpt lat="45.70723" lon="6.46165">
        <ele>1110</ele>
        <time>2022-07-16T02:48:35Z</time>
      </trkpt>
      <trkpt lat="45.70722" lon="6.46162">
        <ele>1111</ele>
        <time>2022-07-16T02:48:37Z</time>
      </trkpt>
      <trkpt lat="45.70721" lon="6.46159">
        <ele>1111</ele>
        <time>2022-07-16T02:48:39Z</time>
      </trkpt>
      <trkpt lat="45.7072" lon="6.46156">
        <ele>1112</ele>
        <time>2022-07-16T02:48:41Z</time>
      </trkpt>
      <trkpt lat="45.70718" lon="6.46153">
        <ele>1112</ele>
        <time>2022-07-16T02:48:43Z</time>
      </trkpt>
      <trkpt lat="45.70717" lon="6.4615">
        <ele>1113</ele>
        <time>2022-07-16T02:48:45Z</time>
      </trkpt>
      <trkpt lat="45.70716" lon="6.46148">
        <ele>1113</ele>
        <time>2022-07-16T02:48:47Z</time>
      </trkpt>
      <trkpt lat="45.70714" lon="6.46145">
        <ele>1114</ele>
        <time>2022-07-16T02:48:49Z</time>
      </trkpt>
      <trkpt lat="45.70713" lon="6.46143">
        <ele>1114</ele>
        <time>2022-07-16T02:48:51Z</time>
      </trkpt>
      <trkpt lat="45.70711" lon="6.46141">
        <ele>1116</ele>
        <time>2022-07-16T02:48:54Z</time>
      </trkpt>
      <trkpt lat="45.70709" lon="6.46139">
        <ele>1116</ele>
        <time>2022-07-16T02:48:56Z</time>
      </trkpt>
      <trkpt lat="45.70707" lon="6.46137">
        <ele>1117</ele>
        <time>2022-07-16T02:48:59Z</time>
      </trkpt>
      <trkpt lat="45.70705" lon="6.46136">
        <ele>1117</ele>
        <time>2022-07-16T02:49:01Z</time>
      </trkpt>
      <trkpt lat="45.70703" lon="6.46135">
        <ele>1118</ele>
        <time>2022-07-16T02:49:04Z</time>
      </trkpt>
      <trkpt lat="45.70701" lon="6.46133">
        <ele>1118</ele>
        <time>2022-07-16T02:49:07Z</time>
      </trkpt>
      <trkpt lat="45.70698" lon="6.46132">
        <ele>1120</ele>
        <time>2022-07-16T02:49:10Z</time>
      </trkpt>
      <trkpt lat="45.70697" lon="6.4613">
        <ele>1121</ele>
        <time>2022-07-16T02:49:13Z</time>
      </trkpt>
      <trkpt lat="45.70694" lon="6.46129">
        <ele>1121</ele>
        <time>2022-07-16T02:49:16Z</time>
      </trkpt>
      <trkpt lat="45.70693" lon="6.46126">
        <ele>1121</ele>
        <time>2022-07-16T02:49:19Z</time>
      </trkpt>
      <trkpt lat="45.70692" lon="6.46122">
        <ele>1122</ele>
        <time>2022-07-16T02:49:21Z</time>
      </trkpt>
      <trkpt lat="45.70691" lon="6.46118">
        <ele>1123</ele>
        <time>2022-07-16T02:49:23Z</time>
      </trkpt>
      <trkpt lat="45.70691" lon="6.46115">
        <ele>1124</ele>
        <time>2022-07-16T02:49:25Z</time>
      </trkpt>
      <trkpt lat="45.70691" lon="6.46112">
        <ele>1125</ele>
        <time>2022-07-16T02:49:27Z</time>
      </trkpt>
      <trkpt lat="45.70692" lon="6.46109">
        <ele>1126</ele>
        <time>2022-07-16T02:49:29Z</time>
      </trkpt>
      <trkpt lat="45.70693" lon="6.46105">
        <ele>1127</ele>
        <time>2022-07-16T02:49:32Z</time>
      </trkpt>
      <trkpt lat="45.70694" lon="6.46102">
        <ele>1128</ele>
        <time>2022-07-16T02:49:35Z</time>
      </trkpt>
      <trkpt lat="45.70695" lon="6.461">
        <ele>1129</ele>
        <time>2022-07-16T02:49:38Z</time>
      </trkpt>
      <trkpt lat="45.70696" lon="6.46097">
        <ele>1130</ele>
        <time>2022-07-16T02:49:41Z</time>
      </trkpt>
      <trkpt lat="45.70697" lon="6.46094">
        <ele>1131</ele>
        <time>2022-07-16T02:49:44Z</time>
      </trkpt>
      <trkpt lat="45.70697" lon="6.46091">
        <ele>1132</ele>
        <time>2022-07-16T02:49:47Z</time>
      </trkpt>
      <trkpt lat="45.70697" lon="6.46088">
        <ele>1133</ele>
        <time>2022-07-16T02:49:50Z</time>
      </trkpt>
      <trkpt lat="45.70698" lon="6.46085">
        <ele>1133</ele>
        <time>2022-07-16T02:49:53Z</time>
      </trkpt>
      <trkpt lat="45.70698" lon="6.46081">
        <ele>1134</ele>
        <time>2022-07-16T02:49:56Z</time>
      </trkpt>
      <trkpt lat="45.707" lon="6.46079">
        <ele>1134</ele>
        <time>2022-07-16T02:49:59Z</time>
      </trkpt>
      <trkpt lat="45.707" lon="6.46075">
        <ele>1135</ele>
        <time>2022-07-16T02:50:02Z</time>
      </trkpt>
      <trkpt lat="45.70701" lon="6.46072">
        <ele>1136</ele>
        <time>2022-07-16T02:50:05Z</time>
      </trkpt>
      <trkpt lat="45.70702" lon="6.46069">
        <ele>1137</ele>
        <time>2022-07-16T02:50:08Z</time>
      </trkpt>
      <trkpt lat="45.70703" lon="6.46065">
        <ele>1137</ele>
        <time>2022-07-16T02:50:11Z</time>
      </trkpt>
      <trkpt lat="45.70704" lon="6.46062">
        <ele>1138</ele>
        <time>2022-07-16T02:50:14Z</time>
      </trkpt>
      <trkpt lat="45.70705" lon="6.46059">
        <ele>1138</ele>
        <time>2022-07-16T02:50:16Z</time>
      </trkpt>
      <trkpt lat="45.70706" lon="6.46056">
        <ele>1139</ele>
        <time>2022-07-16T02:50:19Z</time>
      </trkpt>
      <trkpt lat="45.70707" lon="6.46053">
        <ele>1139</ele>
        <time>2022-07-16T02:50:22Z</time>
      </trkpt>
      <trkpt lat="45.70708" lon="6.4605">
        <ele>1140</ele>
        <time>2022-07-16T02:50:25Z</time>
      </trkpt>
      <trkpt lat="45.70709" lon="6.46048">
        <ele>1141</ele>
        <time>2022-07-16T02:50:27Z</time>
      </trkpt>
      <trkpt lat="45.7071" lon="6.46045">
        <ele>1141</ele>
        <time>2022-07-16T02:50:30Z</time>
      </trkpt>
      <trkpt lat="45.70711" lon="6.46042">
        <ele>1142</ele>
        <time>2022-07-16T02:50:33Z</time>
      </trkpt>
      <trkpt lat="45.70712" lon="6.46039">
        <ele>1142</ele>
        <time>2022-07-16T02:50:36Z</time>
      </trkpt>
      <trkpt lat="45.70713" lon="6.46036">
        <ele>1144</ele>
        <time>2022-07-16T02:50:39Z</time>
      </trkpt>
      <trkpt lat="45.70715" lon="6.46033">
        <ele>1144</ele>
        <time>2022-07-16T02:50:42Z</time>
      </trkpt>
      <trkpt lat="45.70716" lon="6.4603">
        <ele>1145</ele>
        <time>2022-07-16T02:50:45Z</time>
      </trkpt>
      <trkpt lat="45.70716" lon="6.46028">
        <ele>1145</ele>
        <time>2022-07-16T02:50:48Z</time>
      </trkpt>
      <trkpt lat="45.70717" lon="6.46025">
        <ele>1146</ele>
        <time>2022-07-16T02:50:51Z</time>
      </trkpt>
      <trkpt lat="45.70718" lon="6.46022">
        <ele>1147</ele>
        <time>2022-07-16T02:50:55Z</time>
      </trkpt>
      <trkpt lat="45.70717" lon="6.46019">
        <ele>1148</ele>
        <time>2022-07-16T02:50:58Z</time>
      </trkpt>
      <trkpt lat="45.70717" lon="6.46016">
        <ele>1149</ele>
        <time>2022-07-16T02:51:00Z</time>
      </trkpt>
      <trkpt lat="45.70718" lon="6.46013">
        <ele>1150</ele>
        <time>2022-07-16T02:51:03Z</time>
      </trkpt>
      <trkpt lat="45.70719" lon="6.4601">
        <ele>1150</ele>
        <time>2022-07-16T02:51:05Z</time>
      </trkpt>
      <trkpt lat="45.7072" lon="6.46007">
        <ele>1150</ele>
        <time>2022-07-16T02:51:07Z</time>
      </trkpt>
      <trkpt lat="45.70721" lon="6.46004">
        <ele>1151</ele>
        <time>2022-07-16T02:51:09Z</time>
      </trkpt>
      <trkpt lat="45.70721" lon="6.46001">
        <ele>1151</ele>
        <time>2022-07-16T02:51:11Z</time>
      </trkpt>
      <trkpt lat="45.70721" lon="6.45998">
        <ele>1152</ele>
        <time>2022-07-16T02:51:13Z</time>
      </trkpt>
      <trkpt lat="45.70722" lon="6.45995">
        <ele>1152</ele>
        <time>2022-07-16T02:51:15Z</time>
      </trkpt>
      <trkpt lat="45.70723" lon="6.45992">
        <ele>1153</ele>
        <time>2022-07-16T02:51:18Z</time>
      </trkpt>
      <trkpt lat="45.70725" lon="6.4599">
        <ele>1153</ele>
        <time>2022-07-16T02:51:20Z</time>
      </trkpt>
      <trkpt lat="45.70727" lon="6.45987">
        <ele>1153</ele>
        <time>2022-07-16T02:51:22Z</time>
      </trkpt>
      <trkpt lat="45.70729" lon="6.45985">
        <ele>1153</ele>
        <time>2022-07-16T02:51:24Z</time>
      </trkpt>
      <trkpt lat="45.7073" lon="6.45983">
        <ele>1153</ele>
        <time>2022-07-16T02:51:26Z</time>
      </trkpt>
      <trkpt lat="45.70732" lon="6.45981">
        <ele>1153</ele>
        <time>2022-07-16T02:51:28Z</time>
      </trkpt>
      <trkpt lat="45.70734" lon="6.45978">
        <ele>1153</ele>
        <time>2022-07-16T02:51:30Z</time>
      </trkpt>
      <trkpt lat="45.70736" lon="6.45975">
        <ele>1153</ele>
        <time>2022-07-16T02:51:32Z</time>
      </trkpt>
      <trkpt lat="45.70738" lon="6.45973">
        <ele>1153</ele>
        <time>2022-07-16T02:51:34Z</time>
      </trkpt>
      <trkpt lat="45.70741" lon="6.4597">
        <ele>1154</ele>
        <time>2022-07-16T02:51:36Z</time>
      </trkpt>
      <trkpt lat="45.70742" lon="6.45967">
        <ele>1155</ele>
        <time>2022-07-16T02:51:38Z</time>
      </trkpt>
      <trkpt lat="45.70744" lon="6.45965">
        <ele>1155</ele>
        <time>2022-07-16T02:51:40Z</time>
      </trkpt>
      <trkpt lat="45.70746" lon="6.45962">
        <ele>1155</ele>
        <time>2022-07-16T02:51:42Z</time>
      </trkpt>
      <trkpt lat="45.70747" lon="6.45959">
        <ele>1155</ele>
        <time>2022-07-16T02:51:44Z</time>
      </trkpt>
      <trkpt lat="45.70747" lon="6.45956">
        <ele>1156</ele>
        <time>2022-07-16T02:51:46Z</time>
      </trkpt>
      <trkpt lat="45.70748" lon="6.45953">
        <ele>1156</ele>
        <time>2022-07-16T02:51:48Z</time>
      </trkpt>
      <trkpt lat="45.70749" lon="6.45951">
        <ele>1157</ele>
        <time>2022-07-16T02:51:50Z</time>
      </trkpt>
      <trkpt lat="45.7075" lon="6.45948">
        <ele>1157</ele>
        <time>2022-07-16T02:51:53Z</time>
      </trkpt>
      <trkpt lat="45.7075" lon="6.45944">
        <ele>1158</ele>
        <time>2022-07-16T02:51:56Z</time>
      </trkpt>
      <trkpt lat="45.70749" lon="6.45942">
        <ele>1159</ele>
        <time>2022-07-16T02:51:59Z</time>
      </trkpt>
      <trkpt lat="45.70748" lon="6.45938">
        <ele>1160</ele>
        <time>2022-07-16T02:52:02Z</time>
      </trkpt>
      <trkpt lat="45.70748" lon="6.45935">
        <ele>1161</ele>
        <time>2022-07-16T02:52:05Z</time>
      </trkpt>
      <trkpt lat="45.70748" lon="6.45932">
        <ele>1162</ele>
        <time>2022-07-16T02:52:07Z</time>
      </trkpt>
      <trkpt lat="45.70749" lon="6.45928">
        <ele>1163</ele>
        <time>2022-07-16T02:52:10Z</time>
      </trkpt>
      <trkpt lat="45.7075" lon="6.45925">
        <ele>1164</ele>
        <time>2022-07-16T02:52:12Z</time>
      </trkpt>
      <trkpt lat="45.7075" lon="6.45922">
        <ele>1165</ele>
        <time>2022-07-16T02:52:15Z</time>
      </trkpt>
      <trkpt lat="45.7075" lon="6.45918">
        <ele>1165</ele>
        <time>2022-07-16T02:52:18Z</time>
      </trkpt>
      <trkpt lat="45.70751" lon="6.45914">
        <ele>1165</ele>
        <time>2022-07-16T02:52:21Z</time>
      </trkpt>
      <trkpt lat="45.7075" lon="6.45912">
        <ele>1166</ele>
        <time>2022-07-16T02:52:23Z</time>
      </trkpt>
      <trkpt lat="45.7075" lon="6.45909">
        <ele>1168</ele>
        <time>2022-07-16T02:52:26Z</time>
      </trkpt>
      <trkpt lat="45.70751" lon="6.45906">
        <ele>1168</ele>
        <time>2022-07-16T02:52:28Z</time>
      </trkpt>
      <trkpt lat="45.70752" lon="6.45904">
        <ele>1168</ele>
        <time>2022-07-16T02:52:30Z</time>
      </trkpt>
      <trkpt lat="45.70753" lon="6.459">
        <ele>1169</ele>
        <time>2022-07-16T02:52:33Z</time>
      </trkpt>
      <trkpt lat="45.70754" lon="6.45896">
        <ele>1169</ele>
        <time>2022-07-16T02:52:36Z</time>
      </trkpt>
      <trkpt lat="45.70755" lon="6.45893">
        <ele>1169</ele>
        <time>2022-07-16T02:52:38Z</time>
      </trkpt>
      <trkpt lat="45.70757" lon="6.45891">
        <ele>1170</ele>
        <time>2022-07-16T02:52:40Z</time>
      </trkpt>
      <trkpt lat="45.70758" lon="6.45889">
        <ele>1170</ele>
        <time>2022-07-16T02:52:42Z</time>
      </trkpt>
      <trkpt lat="45.70759" lon="6.45885">
        <ele>1171</ele>
        <time>2022-07-16T02:52:45Z</time>
      </trkpt>
      <trkpt lat="45.7076" lon="6.45882">
        <ele>1172</ele>
        <time>2022-07-16T02:52:47Z</time>
      </trkpt>
      <trkpt lat="45.7076" lon="6.45879">
        <ele>1172</ele>
        <time>2022-07-16T02:52:48Z</time>
      </trkpt>
      <trkpt lat="45.70761" lon="6.45876">
        <ele>1174</ele>
        <time>2022-07-16T02:52:52Z</time>
      </trkpt>
      <trkpt lat="45.70761" lon="6.45873">
        <ele>1174</ele>
        <time>2022-07-16T02:52:55Z</time>
      </trkpt>
      <trkpt lat="45.70762" lon="6.4587">
        <ele>1174</ele>
        <time>2022-07-16T02:52:57Z</time>
      </trkpt>
      <trkpt lat="45.70763" lon="6.45867">
        <ele>1175</ele>
        <time>2022-07-16T02:52:59Z</time>
      </trkpt>
      <trkpt lat="45.70763" lon="6.45863">
        <ele>1175</ele>
        <time>2022-07-16T02:53:01Z</time>
      </trkpt>
      <trkpt lat="45.70763" lon="6.45859">
        <ele>1176</ele>
        <time>2022-07-16T02:53:03Z</time>
      </trkpt>
      <trkpt lat="45.70763" lon="6.45855">
        <ele>1177</ele>
        <time>2022-07-16T02:53:05Z</time>
      </trkpt>
      <trkpt lat="45.70765" lon="6.45851">
        <ele>1177</ele>
        <time>2022-07-16T02:53:07Z</time>
      </trkpt>
      <trkpt lat="45.70766" lon="6.45848">
        <ele>1178</ele>
        <time>2022-07-16T02:53:09Z</time>
      </trkpt>
      <trkpt lat="45.70767" lon="6.45846">
        <ele>1179</ele>
        <time>2022-07-16T02:53:11Z</time>
      </trkpt>
      <trkpt lat="45.70769" lon="6.45842">
        <ele>1179</ele>
        <time>2022-07-16T02:53:13Z</time>
      </trkpt>
      <trkpt lat="45.7077" lon="6.4584">
        <ele>1179</ele>
        <time>2022-07-16T02:53:14Z</time>
      </trkpt>
      <trkpt lat="45.70772" lon="6.45836">
        <ele>1179</ele>
        <time>2022-07-16T02:53:16Z</time>
      </trkpt>
      <trkpt lat="45.70773" lon="6.45834">
        <ele>1180</ele>
        <time>2022-07-16T02:53:18Z</time>
      </trkpt>
      <trkpt lat="45.70775" lon="6.45831">
        <ele>1181</ele>
        <time>2022-07-16T02:53:21Z</time>
      </trkpt>
      <trkpt lat="45.70776" lon="6.45828">
        <ele>1182</ele>
        <time>2022-07-16T02:53:23Z</time>
      </trkpt>
      <trkpt lat="45.70776" lon="6.45826">
        <ele>1182</ele>
        <time>2022-07-16T02:53:26Z</time>
      </trkpt>
      <trkpt lat="45.70776" lon="6.45823">
        <ele>1182</ele>
        <time>2022-07-16T02:53:29Z</time>
      </trkpt>
      <trkpt lat="45.70775" lon="6.45821">
        <ele>1184</ele>
        <time>2022-07-16T02:53:34Z</time>
      </trkpt>
      <trkpt lat="45.70773" lon="6.45819">
        <ele>1184</ele>
        <time>2022-07-16T02:53:37Z</time>
      </trkpt>
      <trkpt lat="45.70771" lon="6.4582">
        <ele>1184</ele>
        <time>2022-07-16T02:53:40Z</time>
      </trkpt>
      <trkpt lat="45.70769" lon="6.45822">
        <ele>1186</ele>
        <time>2022-07-16T02:53:45Z</time>
      </trkpt>
      <trkpt lat="45.70767" lon="6.45823">
        <ele>1186</ele>
        <time>2022-07-16T02:53:47Z</time>
      </trkpt>
      <trkpt lat="45.70765" lon="6.45823">
        <ele>1187</ele>
        <time>2022-07-16T02:53:49Z</time>
      </trkpt>
      <trkpt lat="45.70763" lon="6.45824">
        <ele>1187</ele>
        <time>2022-07-16T02:53:50Z</time>
      </trkpt>
      <trkpt lat="45.70761" lon="6.45825">
        <ele>1187</ele>
        <time>2022-07-16T02:53:52Z</time>
      </trkpt>
      <trkpt lat="45.70759" lon="6.45827">
        <ele>1187</ele>
        <time>2022-07-16T02:53:54Z</time>
      </trkpt>
      <trkpt lat="45.70757" lon="6.45828">
        <ele>1188</ele>
        <time>2022-07-16T02:53:56Z</time>
      </trkpt>
      <trkpt lat="45.70755" lon="6.45831">
        <ele>1188</ele>
        <time>2022-07-16T02:53:58Z</time>
      </trkpt>
      <trkpt lat="45.70753" lon="6.45833">
        <ele>1189</ele>
        <time>2022-07-16T02:54:00Z</time>
      </trkpt>
      <trkpt lat="45.70751" lon="6.45835">
        <ele>1189</ele>
        <time>2022-07-16T02:54:02Z</time>
      </trkpt>
      <trkpt lat="45.7075" lon="6.45837">
        <ele>1190</ele>
        <time>2022-07-16T02:54:04Z</time>
      </trkpt>
      <trkpt lat="45.70748" lon="6.45839">
        <ele>1190</ele>
        <time>2022-07-16T02:54:06Z</time>
      </trkpt>
      <trkpt lat="45.70745" lon="6.4584">
        <ele>1190</ele>
        <time>2022-07-16T02:54:09Z</time>
      </trkpt>
      <trkpt lat="45.70743" lon="6.4584">
        <ele>1191</ele>
        <time>2022-07-16T02:54:11Z</time>
      </trkpt>
      <trkpt lat="45.70741" lon="6.4584">
        <ele>1191</ele>
        <time>2022-07-16T02:54:13Z</time>
      </trkpt>
      <trkpt lat="45.70738" lon="6.45841">
        <ele>1191</ele>
        <time>2022-07-16T02:54:15Z</time>
      </trkpt>
      <trkpt lat="45.70735" lon="6.45841">
        <ele>1193</ele>
        <time>2022-07-16T02:54:17Z</time>
      </trkpt>
      <trkpt lat="45.70733" lon="6.45841">
        <ele>1193</ele>
        <time>2022-07-16T02:54:19Z</time>
      </trkpt>
      <trkpt lat="45.7073" lon="6.45842">
        <ele>1193</ele>
        <time>2022-07-16T02:54:21Z</time>
      </trkpt>
      <trkpt lat="45.70727" lon="6.45842">
        <ele>1193</ele>
        <time>2022-07-16T02:54:23Z</time>
      </trkpt>
      <trkpt lat="45.70725" lon="6.45841">
        <ele>1193</ele>
        <time>2022-07-16T02:54:26Z</time>
      </trkpt>
      <trkpt lat="45.70723" lon="6.4584">
        <ele>1194</ele>
        <time>2022-07-16T02:54:28Z</time>
      </trkpt>
      <trkpt lat="45.70721" lon="6.45839">
        <ele>1195</ele>
        <time>2022-07-16T02:54:30Z</time>
      </trkpt>
      <trkpt lat="45.70719" lon="6.45837">
        <ele>1196</ele>
        <time>2022-07-16T02:54:33Z</time>
      </trkpt>
      <trkpt lat="45.70717" lon="6.45835">
        <ele>1197</ele>
        <time>2022-07-16T02:54:36Z</time>
      </trkpt>
      <trkpt lat="45.70715" lon="6.45832">
        <ele>1198</ele>
        <time>2022-07-16T02:54:39Z</time>
      </trkpt>
      <trkpt lat="45.70714" lon="6.45829">
        <ele>1198</ele>
        <time>2022-07-16T02:54:42Z</time>
      </trkpt>
      <trkpt lat="45.70714" lon="6.45825">
        <ele>1199</ele>
        <time>2022-07-16T02:54:45Z</time>
      </trkpt>
      <trkpt lat="45.70713" lon="6.45823">
        <ele>1200</ele>
        <time>2022-07-16T02:54:48Z</time>
      </trkpt>
      <trkpt lat="45.7071" lon="6.45821">
        <ele>1201</ele>
        <time>2022-07-16T02:54:51Z</time>
      </trkpt>
      <trkpt lat="45.70709" lon="6.4582">
        <ele>1201</ele>
        <time>2022-07-16T02:54:53Z</time>
      </trkpt>
      <trkpt lat="45.70707" lon="6.45817">
        <ele>1202</ele>
        <time>2022-07-16T02:54:56Z</time>
      </trkpt>
      <trkpt lat="45.70705" lon="6.45816">
        <ele>1202</ele>
        <time>2022-07-16T02:54:59Z</time>
      </trkpt>
      <trkpt lat="45.70703" lon="6.45816">
        <ele>1202</ele>
        <time>2022-07-16T02:55:01Z</time>
      </trkpt>
      <trkpt lat="45.70701" lon="6.45815">
        <ele>1204</ele>
        <time>2022-07-16T02:55:04Z</time>
      </trkpt>
      <trkpt lat="45.70698" lon="6.45814">
        <ele>1205</ele>
        <time>2022-07-16T02:55:07Z</time>
      </trkpt>
      <trkpt lat="45.70696" lon="6.45814">
        <ele>1205</ele>
        <time>2022-07-16T02:55:09Z</time>
      </trkpt>
      <trkpt lat="45.70694" lon="6.45815">
        <ele>1206</ele>
        <time>2022-07-16T02:55:12Z</time>
      </trkpt>
      <trkpt lat="45.70692" lon="6.45815">
        <ele>1207</ele>
        <time>2022-07-16T02:55:15Z</time>
      </trkpt>
      <trkpt lat="45.7069" lon="6.45815">
        <ele>1208</ele>
        <time>2022-07-16T02:55:18Z</time>
      </trkpt>
      <trkpt lat="45.70688" lon="6.45815">
        <ele>1208</ele>
        <time>2022-07-16T02:55:20Z</time>
      </trkpt>
      <trkpt lat="45.70685" lon="6.45815">
        <ele>1209</ele>
        <time>2022-07-16T02:55:23Z</time>
      </trkpt>
      <trkpt lat="45.70683" lon="6.45814">
        <ele>1209</ele>
        <time>2022-07-16T02:55:26Z</time>
      </trkpt>
      <trkpt lat="45.70681" lon="6.45815">
        <ele>1211</ele>
        <time>2022-07-16T02:55:29Z</time>
      </trkpt>
      <trkpt lat="45.70678" lon="6.45815">
        <ele>1212</ele>
        <time>2022-07-16T02:55:32Z</time>
      </trkpt>
      <trkpt lat="45.70676" lon="6.45814">
        <ele>1212</ele>
        <time>2022-07-16T02:55:36Z</time>
      </trkpt>
      <trkpt lat="45.70674" lon="6.45813">
        <ele>1213</ele>
        <time>2022-07-16T02:55:39Z</time>
      </trkpt>
      <trkpt lat="45.70673" lon="6.45811">
        <ele>1214</ele>
        <time>2022-07-16T02:55:42Z</time>
      </trkpt>
      <trkpt lat="45.70671" lon="6.45809">
        <ele>1215</ele>
        <time>2022-07-16T02:55:45Z</time>
      </trkpt>
      <trkpt lat="45.70671" lon="6.45807">
        <ele>1215</ele>
        <time>2022-07-16T02:55:47Z</time>
      </trkpt>
      <trkpt lat="45.7067" lon="6.45804">
        <ele>1215</ele>
        <time>2022-07-16T02:55:49Z</time>
      </trkpt>
      <trkpt lat="45.70669" lon="6.45802">
        <ele>1216</ele>
        <time>2022-07-16T02:55:52Z</time>
      </trkpt>
      <trkpt lat="45.70667" lon="6.458">
        <ele>1216</ele>
        <time>2022-07-16T02:55:55Z</time>
      </trkpt>
      <trkpt lat="45.70665" lon="6.45798">
        <ele>1218</ele>
        <time>2022-07-16T02:55:58Z</time>
      </trkpt>
      <trkpt lat="45.70664" lon="6.45795">
        <ele>1217</ele>
        <time>2022-07-16T02:56:00Z</time>
      </trkpt>
      <trkpt lat="45.70663" lon="6.45793">
        <ele>1218</ele>
        <time>2022-07-16T02:56:02Z</time>
      </trkpt>
      <trkpt lat="45.70663" lon="6.4579">
        <ele>1219</ele>
        <time>2022-07-16T02:56:05Z</time>
      </trkpt>
      <trkpt lat="45.70663" lon="6.45787">
        <ele>1220</ele>
        <time>2022-07-16T02:56:10Z</time>
      </trkpt>
      <trkpt lat="45.70661" lon="6.45784">
        <ele>1221</ele>
        <time>2022-07-16T02:56:14Z</time>
      </trkpt>
      <trkpt lat="45.70661" lon="6.45781">
        <ele>1222</ele>
        <time>2022-07-16T02:56:17Z</time>
      </trkpt>
      <trkpt lat="45.70659" lon="6.45779">
        <ele>1223</ele>
        <time>2022-07-16T02:56:20Z</time>
      </trkpt>
      <trkpt lat="45.70658" lon="6.45777">
        <ele>1223</ele>
        <time>2022-07-16T02:56:21Z</time>
      </trkpt>
      <trkpt lat="45.70656" lon="6.45774">
        <ele>1224</ele>
        <time>2022-07-16T02:56:25Z</time>
      </trkpt>
      <trkpt lat="45.70655" lon="6.45772">
        <ele>1226</ele>
        <time>2022-07-16T02:56:28Z</time>
      </trkpt>
      <trkpt lat="45.70654" lon="6.4577">
        <ele>1226</ele>
        <time>2022-07-16T02:56:30Z</time>
      </trkpt>
      <trkpt lat="45.70653" lon="6.45768">
        <ele>1226</ele>
        <time>2022-07-16T02:56:32Z</time>
      </trkpt>
      <trkpt lat="45.70652" lon="6.45765">
        <ele>1226</ele>
        <time>2022-07-16T02:56:34Z</time>
      </trkpt>
      <trkpt lat="45.70653" lon="6.45763">
        <ele>1227</ele>
        <time>2022-07-16T02:56:36Z</time>
      </trkpt>
      <trkpt lat="45.70654" lon="6.4576">
        <ele>1227</ele>
        <time>2022-07-16T02:56:38Z</time>
      </trkpt>
      <trkpt lat="45.70655" lon="6.45757">
        <ele>1228</ele>
        <time>2022-07-16T02:56:40Z</time>
      </trkpt>
      <trkpt lat="45.70656" lon="6.45755">
        <ele>1228</ele>
        <time>2022-07-16T02:56:42Z</time>
      </trkpt>
      <trkpt lat="45.70655" lon="6.45752">
        <ele>1229</ele>
        <time>2022-07-16T02:56:45Z</time>
      </trkpt>
      <trkpt lat="45.70653" lon="6.45751">
        <ele>1230</ele>
        <time>2022-07-16T02:56:47Z</time>
      </trkpt>
      <trkpt lat="45.70652" lon="6.45749">
        <ele>1230</ele>
        <time>2022-07-16T02:56:49Z</time>
      </trkpt>
      <trkpt lat="45.7065" lon="6.45748">
        <ele>1230</ele>
        <time>2022-07-16T02:56:51Z</time>
      </trkpt>
      <trkpt lat="45.70648" lon="6.45746">
        <ele>1231</ele>
        <time>2022-07-16T02:56:54Z</time>
      </trkpt>
      <trkpt lat="45.70647" lon="6.45744">
        <ele>1231</ele>
        <time>2022-07-16T02:56:55Z</time>
      </trkpt>
      <trkpt lat="45.70645" lon="6.45742">
        <ele>1231</ele>
        <time>2022-07-16T02:56:59Z</time>
      </trkpt>
      <trkpt lat="45.70643" lon="6.4574">
        <ele>1232</ele>
        <time>2022-07-16T02:57:02Z</time>
      </trkpt>
      <trkpt lat="45.70642" lon="6.45738">
        <ele>1233</ele>
        <time>2022-07-16T02:57:04Z</time>
      </trkpt>
      <trkpt lat="45.7064" lon="6.45735">
        <ele>1234</ele>
        <time>2022-07-16T02:57:07Z</time>
      </trkpt>
      <trkpt lat="45.70638" lon="6.45733">
        <ele>1234</ele>
        <time>2022-07-16T02:57:09Z</time>
      </trkpt>
      <trkpt lat="45.70637" lon="6.45732">
        <ele>1235</ele>
        <time>2022-07-16T02:57:11Z</time>
      </trkpt>
      <trkpt lat="45.70635" lon="6.45731">
        <ele>1235</ele>
        <time>2022-07-16T02:57:14Z</time>
      </trkpt>
      <trkpt lat="45.70632" lon="6.45731">
        <ele>1236</ele>
        <time>2022-07-16T02:57:17Z</time>
      </trkpt>
      <trkpt lat="45.7063" lon="6.45731">
        <ele>1237</ele>
        <time>2022-07-16T02:57:20Z</time>
      </trkpt>
      <trkpt lat="45.70628" lon="6.45732">
        <ele>1238</ele>
        <time>2022-07-16T02:57:23Z</time>
      </trkpt>
      <trkpt lat="45.70625" lon="6.45732">
        <ele>1239</ele>
        <time>2022-07-16T02:57:26Z</time>
      </trkpt>
      <trkpt lat="45.70623" lon="6.45732">
        <ele>1239</ele>
        <time>2022-07-16T02:57:28Z</time>
      </trkpt>
      <trkpt lat="45.70622" lon="6.45733">
        <ele>1240</ele>
        <time>2022-07-16T02:57:30Z</time>
      </trkpt>
      <trkpt lat="45.70619" lon="6.45733">
        <ele>1240</ele>
        <time>2022-07-16T02:57:32Z</time>
      </trkpt>
      <trkpt lat="45.70618" lon="6.45733">
        <ele>1240</ele>
        <time>2022-07-16T02:57:34Z</time>
      </trkpt>
      <trkpt lat="45.70615" lon="6.45733">
        <ele>1240</ele>
        <time>2022-07-16T02:57:36Z</time>
      </trkpt>
      <trkpt lat="45.70613" lon="6.45732">
        <ele>1241</ele>
        <time>2022-07-16T02:57:39Z</time>
      </trkpt>
      <trkpt lat="45.70612" lon="6.4573">
        <ele>1242</ele>
        <time>2022-07-16T02:57:41Z</time>
      </trkpt>
      <trkpt lat="45.70612" lon="6.45727">
        <ele>1242</ele>
        <time>2022-07-16T02:57:43Z</time>
      </trkpt>
      <trkpt lat="45.70612" lon="6.45723">
        <ele>1243</ele>
        <time>2022-07-16T02:57:45Z</time>
      </trkpt>
      <trkpt lat="45.70612" lon="6.45719">
        <ele>1244</ele>
        <time>2022-07-16T02:57:47Z</time>
      </trkpt>
      <trkpt lat="45.70612" lon="6.45716">
        <ele>1244</ele>
        <time>2022-07-16T02:57:49Z</time>
      </trkpt>
      <trkpt lat="45.70614" lon="6.45712">
        <ele>1244</ele>
        <time>2022-07-16T02:57:51Z</time>
      </trkpt>
      <trkpt lat="45.70615" lon="6.45709">
        <ele>1244</ele>
        <time>2022-07-16T02:57:53Z</time>
      </trkpt>
      <trkpt lat="45.70615" lon="6.45707">
        <ele>1245</ele>
        <time>2022-07-16T02:57:55Z</time>
      </trkpt>
      <trkpt lat="45.70613" lon="6.45703">
        <ele>1246</ele>
        <time>2022-07-16T02:57:58Z</time>
      </trkpt>
      <trkpt lat="45.70612" lon="6.45702">
        <ele>1247</ele>
        <time>2022-07-16T02:58:00Z</time>
      </trkpt>
      <trkpt lat="45.7061" lon="6.457">
        <ele>1247</ele>
        <time>2022-07-16T02:58:02Z</time>
      </trkpt>
      <trkpt lat="45.70608" lon="6.457">
        <ele>1247</ele>
        <time>2022-07-16T02:58:04Z</time>
      </trkpt>
      <trkpt lat="45.70605" lon="6.45698">
        <ele>1248</ele>
        <time>2022-07-16T02:58:07Z</time>
      </trkpt>
      <trkpt lat="45.70603" lon="6.45697">
        <ele>1249</ele>
        <time>2022-07-16T02:58:09Z</time>
      </trkpt>
      <trkpt lat="45.70601" lon="6.45696">
        <ele>1249</ele>
        <time>2022-07-16T02:58:11Z</time>
      </trkpt>
      <trkpt lat="45.706" lon="6.45694">
        <ele>1249</ele>
        <time>2022-07-16T02:58:13Z</time>
      </trkpt>
      <trkpt lat="45.70599" lon="6.4569">
        <ele>1250</ele>
        <time>2022-07-16T02:58:16Z</time>
      </trkpt>
      <trkpt lat="45.70599" lon="6.45687">
        <ele>1250</ele>
        <time>2022-07-16T02:58:18Z</time>
      </trkpt>
      <trkpt lat="45.70599" lon="6.45684">
        <ele>1251</ele>
        <time>2022-07-16T02:58:20Z</time>
      </trkpt>
      <trkpt lat="45.70601" lon="6.4568">
        <ele>1252</ele>
        <time>2022-07-16T02:58:22Z</time>
      </trkpt>
      <trkpt lat="45.70602" lon="6.45676">
        <ele>1252</ele>
        <time>2022-07-16T02:58:24Z</time>
      </trkpt>
      <trkpt lat="45.70603" lon="6.45673">
        <ele>1252</ele>
        <time>2022-07-16T02:58:26Z</time>
      </trkpt>
      <trkpt lat="45.70604" lon="6.45669">
        <ele>1252</ele>
        <time>2022-07-16T02:58:28Z</time>
      </trkpt>
      <trkpt lat="45.70605" lon="6.45665">
        <ele>1253</ele>
        <time>2022-07-16T02:58:30Z</time>
      </trkpt>
      <trkpt lat="45.70606" lon="6.45662">
        <ele>1253</ele>
        <time>2022-07-16T02:58:32Z</time>
      </trkpt>
      <trkpt lat="45.70606" lon="6.45658">
        <ele>1253</ele>
        <time>2022-07-16T02:58:34Z</time>
      </trkpt>
      <trkpt lat="45.70607" lon="6.45655">
        <ele>1253</ele>
        <time>2022-07-16T02:58:36Z</time>
      </trkpt>
      <trkpt lat="45.70608" lon="6.45651">
        <ele>1254</ele>
        <time>2022-07-16T02:58:38Z</time>
      </trkpt>
      <trkpt lat="45.70608" lon="6.45648">
        <ele>1254</ele>
        <time>2022-07-16T02:58:40Z</time>
      </trkpt>
      <trkpt lat="45.70608" lon="6.45644">
        <ele>1254</ele>
        <time>2022-07-16T02:58:42Z</time>
      </trkpt>
      <trkpt lat="45.70609" lon="6.45641">
        <ele>1254</ele>
        <time>2022-07-16T02:58:44Z</time>
      </trkpt>
      <trkpt lat="45.7061" lon="6.45637">
        <ele>1255</ele>
        <time>2022-07-16T02:58:46Z</time>
      </trkpt>
      <trkpt lat="45.70611" lon="6.45634">
        <ele>1255</ele>
        <time>2022-07-16T02:58:48Z</time>
      </trkpt>
      <trkpt lat="45.70612" lon="6.45631">
        <ele>1256</ele>
        <time>2022-07-16T02:58:50Z</time>
      </trkpt>
      <trkpt lat="45.70613" lon="6.45627">
        <ele>1257</ele>
        <time>2022-07-16T02:58:52Z</time>
      </trkpt>
      <trkpt lat="45.70614" lon="6.45624">
        <ele>1257</ele>
        <time>2022-07-16T02:58:54Z</time>
      </trkpt>
      <trkpt lat="45.70615" lon="6.45622">
        <ele>1258</ele>
        <time>2022-07-16T02:58:56Z</time>
      </trkpt>
      <trkpt lat="45.70616" lon="6.45618">
        <ele>1259</ele>
        <time>2022-07-16T02:58:59Z</time>
      </trkpt>
      <trkpt lat="45.70617" lon="6.45615">
        <ele>1259</ele>
        <time>2022-07-16T02:59:01Z</time>
      </trkpt>
      <trkpt lat="45.70618" lon="6.45613">
        <ele>1260</ele>
        <time>2022-07-16T02:59:03Z</time>
      </trkpt>
      <trkpt lat="45.7062" lon="6.4561">
        <ele>1260</ele>
        <time>2022-07-16T02:59:06Z</time>
      </trkpt>
      <trkpt lat="45.70622" lon="6.45609">
        <ele>1261</ele>
        <time>2022-07-16T02:59:08Z</time>
      </trkpt>
      <trkpt lat="45.70623" lon="6.45606">
        <ele>1262</ele>
        <time>2022-07-16T02:59:10Z</time>
      </trkpt>
      <trkpt lat="45.70624" lon="6.45604">
        <ele>1262</ele>
        <time>2022-07-16T02:59:12Z</time>
      </trkpt>
      <trkpt lat="45.70626" lon="6.45601">
        <ele>1262</ele>
        <time>2022-07-16T02:59:15Z</time>
      </trkpt>
      <trkpt lat="45.70627" lon="6.45599">
        <ele>1263</ele>
        <time>2022-07-16T02:59:17Z</time>
      </trkpt>
      <trkpt lat="45.70628" lon="6.45597">
        <ele>1264</ele>
        <time>2022-07-16T02:59:21Z</time>
      </trkpt>
      <trkpt lat="45.70629" lon="6.45594">
        <ele>1265</ele>
        <time>2022-07-16T02:59:24Z</time>
      </trkpt>
      <trkpt lat="45.7063" lon="6.45592">
        <ele>1266</ele>
        <time>2022-07-16T02:59:27Z</time>
      </trkpt>
      <trkpt lat="45.70631" lon="6.4559">
        <ele>1267</ele>
        <time>2022-07-16T02:59:31Z</time>
      </trkpt>
      <trkpt lat="45.70631" lon="6.45587">
        <ele>1268</ele>
        <time>2022-07-16T02:59:34Z</time>
      </trkpt>
      <trkpt lat="45.70632" lon="6.45584">
        <ele>1269</ele>
        <time>2022-07-16T02:59:38Z</time>
      </trkpt>
      <trkpt lat="45.70633" lon="6.45581">
        <ele>1269</ele>
        <time>2022-07-16T02:59:41Z</time>
      </trkpt>
      <trkpt lat="45.70634" lon="6.45579">
        <ele>1270</ele>
        <time>2022-07-16T02:59:44Z</time>
      </trkpt>
      <trkpt lat="45.70634" lon="6.45576">
        <ele>1270</ele>
        <time>2022-07-16T02:59:46Z</time>
      </trkpt>
      <trkpt lat="45.70633" lon="6.45573">
        <ele>1272</ele>
        <time>2022-07-16T02:59:50Z</time>
      </trkpt>
      <trkpt lat="45.70632" lon="6.45572">
        <ele>1272</ele>
        <time>2022-07-16T02:59:53Z</time>
      </trkpt>
      <trkpt lat="45.7063" lon="6.4557">
        <ele>1273</ele>
        <time>2022-07-16T02:59:56Z</time>
      </trkpt>
      <trkpt lat="45.70628" lon="6.45568">
        <ele>1274</ele>
        <time>2022-07-16T02:59:59Z</time>
      </trkpt>
      <trkpt lat="45.70626" lon="6.45566">
        <ele>1275</ele>
        <time>2022-07-16T03:00:02Z</time>
      </trkpt>
      <trkpt lat="45.70624" lon="6.45564">
        <ele>1275</ele>
        <time>2022-07-16T03:00:04Z</time>
      </trkpt>
      <trkpt lat="45.70623" lon="6.45563">
        <ele>1276</ele>
        <time>2022-07-16T03:00:05Z</time>
      </trkpt>
      <trkpt lat="45.70622" lon="6.45561">
        <ele>1275</ele>
        <time>2022-07-16T03:00:08Z</time>
      </trkpt>
      <trkpt lat="45.7062" lon="6.45559">
        <ele>1276</ele>
        <time>2022-07-16T03:00:11Z</time>
      </trkpt>
      <trkpt lat="45.70618" lon="6.45558">
        <ele>1277</ele>
        <time>2022-07-16T03:00:13Z</time>
      </trkpt>
      <trkpt lat="45.70616" lon="6.45557">
        <ele>1278</ele>
        <time>2022-07-16T03:00:18Z</time>
      </trkpt>
      <trkpt lat="45.70614" lon="6.45555">
        <ele>1279</ele>
        <time>2022-07-16T03:00:23Z</time>
      </trkpt>
      <trkpt lat="45.70612" lon="6.45554">
        <ele>1279</ele>
        <time>2022-07-16T03:00:27Z</time>
      </trkpt>
      <trkpt lat="45.7061" lon="6.45554">
        <ele>1281</ele>
        <time>2022-07-16T03:00:32Z</time>
      </trkpt>
      <trkpt lat="45.70607" lon="6.45553">
        <ele>1283</ele>
        <time>2022-07-16T03:00:38Z</time>
      </trkpt>
      <trkpt lat="45.70606" lon="6.45553">
        <ele>1285</ele>
        <time>2022-07-16T03:00:42Z</time>
      </trkpt>
      <trkpt lat="45.70604" lon="6.45552">
        <ele>1285</ele>
        <time>2022-07-16T03:00:48Z</time>
      </trkpt>
      <trkpt lat="45.70601" lon="6.45551">
        <ele>1286</ele>
        <time>2022-07-16T03:00:51Z</time>
      </trkpt>
      <trkpt lat="45.706" lon="6.45551">
        <ele>1287</ele>
        <time>2022-07-16T03:00:53Z</time>
      </trkpt>
      <trkpt lat="45.70597" lon="6.45551">
        <ele>1287</ele>
        <time>2022-07-16T03:00:56Z</time>
      </trkpt>
      <trkpt lat="45.70595" lon="6.4555">
        <ele>1289</ele>
        <time>2022-07-16T03:01:01Z</time>
      </trkpt>
      <trkpt lat="45.70593" lon="6.45549">
        <ele>1289</ele>
        <time>2022-07-16T03:01:04Z</time>
      </trkpt>
      <trkpt lat="45.7059" lon="6.45548">
        <ele>1290</ele>
        <time>2022-07-16T03:01:07Z</time>
      </trkpt>
      <trkpt lat="45.70588" lon="6.45547">
        <ele>1291</ele>
        <time>2022-07-16T03:01:10Z</time>
      </trkpt>
      <trkpt lat="45.70586" lon="6.45546">
        <ele>1292</ele>
        <time>2022-07-16T03:01:13Z</time>
      </trkpt>
      <trkpt lat="45.70584" lon="6.45545">
        <ele>1292</ele>
        <time>2022-07-16T03:01:16Z</time>
      </trkpt>
      <trkpt lat="45.70582" lon="6.45544">
        <ele>1293</ele>
        <time>2022-07-16T03:01:19Z</time>
      </trkpt>
      <trkpt lat="45.7058" lon="6.45544">
        <ele>1293</ele>
        <time>2022-07-16T03:01:22Z</time>
      </trkpt>
      <trkpt lat="45.70577" lon="6.45544">
        <ele>1294</ele>
        <time>2022-07-16T03:01:25Z</time>
      </trkpt>
      <trkpt lat="45.70575" lon="6.45544">
        <ele>1294</ele>
        <time>2022-07-16T03:01:28Z</time>
      </trkpt>
      <trkpt lat="45.70572" lon="6.45543">
        <ele>1295</ele>
        <time>2022-07-16T03:01:32Z</time>
      </trkpt>
      <trkpt lat="45.7057" lon="6.45544">
        <ele>1296</ele>
        <time>2022-07-16T03:01:37Z</time>
      </trkpt>
      <trkpt lat="45.70567" lon="6.45543">
        <ele>1296</ele>
        <time>2022-07-16T03:01:39Z</time>
      </trkpt>
      <trkpt lat="45.70565" lon="6.45542">
        <ele>1296</ele>
        <time>2022-07-16T03:01:41Z</time>
      </trkpt>
      <trkpt lat="45.70563" lon="6.45541">
        <ele>1297</ele>
        <time>2022-07-16T03:01:43Z</time>
      </trkpt>
      <trkpt lat="45.70562" lon="6.45538">
        <ele>1298</ele>
        <time>2022-07-16T03:01:46Z</time>
      </trkpt>
      <trkpt lat="45.7056" lon="6.45536">
        <ele>1299</ele>
        <time>2022-07-16T03:01:48Z</time>
      </trkpt>
      <trkpt lat="45.70558" lon="6.45535">
        <ele>1299</ele>
        <time>2022-07-16T03:01:50Z</time>
      </trkpt>
      <trkpt lat="45.70556" lon="6.45533">
        <ele>1300</ele>
        <time>2022-07-16T03:01:53Z</time>
      </trkpt>
      <trkpt lat="45.70555" lon="6.45531">
        <ele>1301</ele>
        <time>2022-07-16T03:01:55Z</time>
      </trkpt>
      <trkpt lat="45.70553" lon="6.4553">
        <ele>1301</ele>
        <time>2022-07-16T03:01:58Z</time>
      </trkpt>
      <trkpt lat="45.7055" lon="6.45528">
        <ele>1301</ele>
        <time>2022-07-16T03:02:00Z</time>
      </trkpt>
      <trkpt lat="45.70549" lon="6.45527">
        <ele>1301</ele>
        <time>2022-07-16T03:02:02Z</time>
      </trkpt>
      <trkpt lat="45.70547" lon="6.45525">
        <ele>1303</ele>
        <time>2022-07-16T03:02:05Z</time>
      </trkpt>
      <trkpt lat="45.70545" lon="6.45522">
        <ele>1304</ele>
        <time>2022-07-16T03:02:08Z</time>
      </trkpt>
      <trkpt lat="45.70543" lon="6.45521">
        <ele>1304</ele>
        <time>2022-07-16T03:02:10Z</time>
      </trkpt>
      <trkpt lat="45.70541" lon="6.45519">
        <ele>1305</ele>
        <time>2022-07-16T03:02:12Z</time>
      </trkpt>
      <trkpt lat="45.70538" lon="6.45517">
        <ele>1305</ele>
        <time>2022-07-16T03:02:14Z</time>
      </trkpt>
      <trkpt lat="45.70536" lon="6.45516">
        <ele>1306</ele>
        <time>2022-07-16T03:02:16Z</time>
      </trkpt>
      <trkpt lat="45.70533" lon="6.45514">
        <ele>1306</ele>
        <time>2022-07-16T03:02:18Z</time>
      </trkpt>
      <trkpt lat="45.7053" lon="6.45512">
        <ele>1306</ele>
        <time>2022-07-16T03:02:20Z</time>
      </trkpt>
      <trkpt lat="45.70528" lon="6.4551">
        <ele>1306</ele>
        <time>2022-07-16T03:02:22Z</time>
      </trkpt>
      <trkpt lat="45.70525" lon="6.45507">
        <ele>1306</ele>
        <time>2022-07-16T03:02:24Z</time>
      </trkpt>
      <trkpt lat="45.70523" lon="6.45505">
        <ele>1306</ele>
        <time>2022-07-16T03:02:26Z</time>
      </trkpt>
      <trkpt lat="45.70521" lon="6.45503">
        <ele>1307</ele>
        <time>2022-07-16T03:02:28Z</time>
      </trkpt>
      <trkpt lat="45.70519" lon="6.455">
        <ele>1307</ele>
        <time>2022-07-16T03:02:30Z</time>
      </trkpt>
      <trkpt lat="45.70518" lon="6.45497">
        <ele>1308</ele>
        <time>2022-07-16T03:02:32Z</time>
      </trkpt>
      <trkpt lat="45.70516" lon="6.45495">
        <ele>1308</ele>
        <time>2022-07-16T03:02:34Z</time>
      </trkpt>
      <trkpt lat="45.70514" lon="6.45492">
        <ele>1309</ele>
        <time>2022-07-16T03:02:36Z</time>
      </trkpt>
      <trkpt lat="45.70513" lon="6.4549">
        <ele>1309</ele>
        <time>2022-07-16T03:02:38Z</time>
      </trkpt>
      <trkpt lat="45.70512" lon="6.45487">
        <ele>1309</ele>
        <time>2022-07-16T03:02:40Z</time>
      </trkpt>
      <trkpt lat="45.7051" lon="6.45484">
        <ele>1309</ele>
        <time>2022-07-16T03:02:42Z</time>
      </trkpt>
      <trkpt lat="45.70509" lon="6.45482">
        <ele>1309</ele>
        <time>2022-07-16T03:02:44Z</time>
      </trkpt>
      <trkpt lat="45.70506" lon="6.4548">
        <ele>1309</ele>
        <time>2022-07-16T03:02:46Z</time>
      </trkpt>
      <trkpt lat="45.70504" lon="6.45478">
        <ele>1309</ele>
        <time>2022-07-16T03:02:48Z</time>
      </trkpt>
      <trkpt lat="45.70502" lon="6.45477">
        <ele>1310</ele>
        <time>2022-07-16T03:02:50Z</time>
      </trkpt>
      <trkpt lat="45.70499" lon="6.45476">
        <ele>1310</ele>
        <time>2022-07-16T03:02:52Z</time>
      </trkpt>
      <trkpt lat="45.70497" lon="6.45475">
        <ele>1310</ele>
        <time>2022-07-16T03:02:54Z</time>
      </trkpt>
      <trkpt lat="45.70495" lon="6.45473">
        <ele>1310</ele>
        <time>2022-07-16T03:02:56Z</time>
      </trkpt>
      <trkpt lat="45.70492" lon="6.45472">
        <ele>1312</ele>
        <time>2022-07-16T03:02:58Z</time>
      </trkpt>
      <trkpt lat="45.7049" lon="6.45471">
        <ele>1312</ele>
        <time>2022-07-16T03:03:00Z</time>
      </trkpt>
      <trkpt lat="45.70488" lon="6.4547">
        <ele>1312</ele>
        <time>2022-07-16T03:03:02Z</time>
      </trkpt>
      <trkpt lat="45.70486" lon="6.45468">
        <ele>1313</ele>
        <time>2022-07-16T03:03:04Z</time>
      </trkpt>
      <trkpt lat="45.70484" lon="6.45467">
        <ele>1313</ele>
        <time>2022-07-16T03:03:06Z</time>
      </trkpt>
      <trkpt lat="45.70482" lon="6.45466">
        <ele>1313</ele>
        <time>2022-07-16T03:03:08Z</time>
      </trkpt>
      <trkpt lat="45.7048" lon="6.45465">
        <ele>1314</ele>
        <time>2022-07-16T03:03:10Z</time>
      </trkpt>
      <trkpt lat="45.70478" lon="6.45464">
        <ele>1315</ele>
        <time>2022-07-16T03:03:12Z</time>
      </trkpt>
      <trkpt lat="45.70476" lon="6.45462">
        <ele>1315</ele>
        <time>2022-07-16T03:03:14Z</time>
      </trkpt>
      <trkpt lat="45.70474" lon="6.45461">
        <ele>1315</ele>
        <time>2022-07-16T03:03:16Z</time>
      </trkpt>
      <trkpt lat="45.70472" lon="6.4546">
        <ele>1316</ele>
        <time>2022-07-16T03:03:18Z</time>
      </trkpt>
      <trkpt lat="45.7047" lon="6.45458">
        <ele>1316</ele>
        <time>2022-07-16T03:03:20Z</time>
      </trkpt>
      <trkpt lat="45.70468" lon="6.45456">
        <ele>1317</ele>
        <time>2022-07-16T03:03:22Z</time>
      </trkpt>
      <trkpt lat="45.70466" lon="6.45455">
        <ele>1318</ele>
        <time>2022-07-16T03:03:24Z</time>
      </trkpt>
      <trkpt lat="45.70463" lon="6.45455">
        <ele>1318</ele>
        <time>2022-07-16T03:03:26Z</time>
      </trkpt>
      <trkpt lat="45.7046" lon="6.45454">
        <ele>1318</ele>
        <time>2022-07-16T03:03:28Z</time>
      </trkpt>
      <trkpt lat="45.70458" lon="6.45453">
        <ele>1319</ele>
        <time>2022-07-16T03:03:30Z</time>
      </trkpt>
      <trkpt lat="45.70456" lon="6.45453">
        <ele>1319</ele>
        <time>2022-07-16T03:03:32Z</time>
      </trkpt>
      <trkpt lat="45.70453" lon="6.45452">
        <ele>1319</ele>
        <time>2022-07-16T03:03:34Z</time>
      </trkpt>
      <trkpt lat="45.70451" lon="6.45451">
        <ele>1320</ele>
        <time>2022-07-16T03:03:36Z</time>
      </trkpt>
      <trkpt lat="45.70449" lon="6.4545">
        <ele>1320</ele>
        <time>2022-07-16T03:03:38Z</time>
      </trkpt>
      <trkpt lat="45.70447" lon="6.45449">
        <ele>1320</ele>
        <time>2022-07-16T03:03:40Z</time>
      </trkpt>
      <trkpt lat="45.70444" lon="6.45449">
        <ele>1321</ele>
        <time>2022-07-16T03:03:42Z</time>
      </trkpt>
      <trkpt lat="45.70442" lon="6.45448">
        <ele>1321</ele>
        <time>2022-07-16T03:03:44Z</time>
      </trkpt>
      <trkpt lat="45.70439" lon="6.45447">
        <ele>1321</ele>
        <time>2022-07-16T03:03:46Z</time>
      </trkpt>
      <trkpt lat="45.70436" lon="6.45446">
        <ele>1321</ele>
        <time>2022-07-16T03:03:48Z</time>
      </trkpt>
      <trkpt lat="45.70433" lon="6.45445">
        <ele>1321</ele>
        <time>2022-07-16T03:03:50Z</time>
      </trkpt>
      <trkpt lat="45.7043" lon="6.45444">
        <ele>1322</ele>
        <time>2022-07-16T03:03:52Z</time>
      </trkpt>
      <trkpt lat="45.70427" lon="6.45443">
        <ele>1322</ele>
        <time>2022-07-16T03:03:53Z</time>
      </trkpt>
      <trkpt lat="45.70425" lon="6.45443">
        <ele>1322</ele>
        <time>2022-07-16T03:03:56Z</time>
      </trkpt>
      <trkpt lat="45.70422" lon="6.45442">
        <ele>1323</ele>
        <time>2022-07-16T03:03:58Z</time>
      </trkpt>
      <trkpt lat="45.7042" lon="6.45441">
        <ele>1324</ele>
        <time>2022-07-16T03:04:00Z</time>
      </trkpt>
      <trkpt lat="45.70418" lon="6.4544">
        <ele>1324</ele>
        <time>2022-07-16T03:04:02Z</time>
      </trkpt>
      <trkpt lat="45.70416" lon="6.45438">
        <ele>1325</ele>
        <time>2022-07-16T03:04:04Z</time>
      </trkpt>
      <trkpt lat="45.70414" lon="6.45437">
        <ele>1325</ele>
        <time>2022-07-16T03:04:06Z</time>
      </trkpt>
      <trkpt lat="45.70412" lon="6.45436">
        <ele>1325</ele>
        <time>2022-07-16T03:04:08Z</time>
      </trkpt>
      <trkpt lat="45.7041" lon="6.45434">
        <ele>1325</ele>
        <time>2022-07-16T03:04:10Z</time>
      </trkpt>
      <trkpt lat="45.70408" lon="6.45432">
        <ele>1325</ele>
        <time>2022-07-16T03:04:13Z</time>
      </trkpt>
      <trkpt lat="45.70406" lon="6.45431">
        <ele>1326</ele>
        <time>2022-07-16T03:04:15Z</time>
      </trkpt>
      <trkpt lat="45.70404" lon="6.45429">
        <ele>1326</ele>
        <time>2022-07-16T03:04:18Z</time>
      </trkpt>
      <trkpt lat="45.70402" lon="6.45427">
        <ele>1328</ele>
        <time>2022-07-16T03:04:21Z</time>
      </trkpt>
      <trkpt lat="45.704" lon="6.45426">
        <ele>1329</ele>
        <time>2022-07-16T03:04:25Z</time>
      </trkpt>
      <trkpt lat="45.70398" lon="6.45424">
        <ele>1329</ele>
        <time>2022-07-16T03:04:28Z</time>
      </trkpt>
      <trkpt lat="45.70397" lon="6.45424">
        <ele>1329</ele>
        <time>2022-07-16T03:04:31Z</time>
      </trkpt>
      <trkpt lat="45.70394" lon="6.45423">
        <ele>1331</ele>
        <time>2022-07-16T03:04:34Z</time>
      </trkpt>
      <trkpt lat="45.70392" lon="6.45422">
        <ele>1332</ele>
        <time>2022-07-16T03:04:37Z</time>
      </trkpt>
      <trkpt lat="45.70389" lon="6.4542">
        <ele>1333</ele>
        <time>2022-07-16T03:04:40Z</time>
      </trkpt>
      <trkpt lat="45.70388" lon="6.4542">
        <ele>1334</ele>
        <time>2022-07-16T03:04:43Z</time>
      </trkpt>
      <trkpt lat="45.70385" lon="6.45419">
        <ele>1335</ele>
        <time>2022-07-16T03:04:46Z</time>
      </trkpt>
      <trkpt lat="45.70382" lon="6.45419">
        <ele>1335</ele>
        <time>2022-07-16T03:04:48Z</time>
      </trkpt>
      <trkpt lat="45.7038" lon="6.45418">
        <ele>1336</ele>
        <time>2022-07-16T03:04:50Z</time>
      </trkpt>
      <trkpt lat="45.70377" lon="6.45417">
        <ele>1338</ele>
        <time>2022-07-16T03:04:56Z</time>
      </trkpt>
      <trkpt lat="45.70375" lon="6.45415">
        <ele>1339</ele>
        <time>2022-07-16T03:04:58Z</time>
      </trkpt>
      <trkpt lat="45.70374" lon="6.45414">
        <ele>1339</ele>
        <time>2022-07-16T03:05:00Z</time>
      </trkpt>
      <trkpt lat="45.70372" lon="6.45412">
        <ele>1339</ele>
        <time>2022-07-16T03:05:02Z</time>
      </trkpt>
      <trkpt lat="45.7037" lon="6.45409">
        <ele>1339</ele>
        <time>2022-07-16T03:05:04Z</time>
      </trkpt>
      <trkpt lat="45.70368" lon="6.45406">
        <ele>1339</ele>
        <time>2022-07-16T03:05:06Z</time>
      </trkpt>
      <trkpt lat="45.70367" lon="6.45404">
        <ele>1340</ele>
        <time>2022-07-16T03:05:08Z</time>
      </trkpt>
      <trkpt lat="45.70366" lon="6.45401">
        <ele>1340</ele>
        <time>2022-07-16T03:05:10Z</time>
      </trkpt>
      <trkpt lat="45.70365" lon="6.45398">
        <ele>1341</ele>
        <time>2022-07-16T03:05:13Z</time>
      </trkpt>
      <trkpt lat="45.70364" lon="6.45395">
        <ele>1341</ele>
        <time>2022-07-16T03:05:15Z</time>
      </trkpt>
      <trkpt lat="45.70363" lon="6.45393">
        <ele>1341</ele>
        <time>2022-07-16T03:05:18Z</time>
      </trkpt>
      <trkpt lat="45.70363" lon="6.4539">
        <ele>1342</ele>
        <time>2022-07-16T03:05:21Z</time>
      </trkpt>
      <trkpt lat="45.70361" lon="6.45388">
        <ele>1343</ele>
        <time>2022-07-16T03:05:24Z</time>
      </trkpt>
      <trkpt lat="45.7036" lon="6.45385">
        <ele>1343</ele>
        <time>2022-07-16T03:05:27Z</time>
      </trkpt>
      <trkpt lat="45.70359" lon="6.45383">
        <ele>1343</ele>
        <time>2022-07-16T03:05:30Z</time>
      </trkpt>
      <trkpt lat="45.70358" lon="6.4538">
        <ele>1344</ele>
        <time>2022-07-16T03:05:33Z</time>
      </trkpt>
      <trkpt lat="45.70357" lon="6.45377">
        <ele>1345</ele>
        <time>2022-07-16T03:05:34Z</time>
      </trkpt>
      <trkpt lat="45.70357" lon="6.45375">
        <ele>1345</ele>
        <time>2022-07-16T03:05:36Z</time>
      </trkpt>
      <trkpt lat="45.70357" lon="6.45371">
        <ele>1346</ele>
        <time>2022-07-16T03:05:38Z</time>
      </trkpt>
      <trkpt lat="45.70357" lon="6.45367">
        <ele>1347</ele>
        <time>2022-07-16T03:05:41Z</time>
      </trkpt>
      <trkpt lat="45.70356" lon="6.45365">
        <ele>1348</ele>
        <time>2022-07-16T03:05:45Z</time>
      </trkpt>
      <trkpt lat="45.70353" lon="6.45364">
        <ele>1348</ele>
        <time>2022-07-16T03:05:48Z</time>
      </trkpt>
      <trkpt lat="45.70352" lon="6.45365">
        <ele>1349</ele>
        <time>2022-07-16T03:05:55Z</time>
      </trkpt>
      <trkpt lat="45.70349" lon="6.45366">
        <ele>1349</ele>
        <time>2022-07-16T03:06:01Z</time>
      </trkpt>
      <trkpt lat="45.70347" lon="6.45366">
        <ele>1350</ele>
        <time>2022-07-16T03:06:06Z</time>
      </trkpt>
      <trkpt lat="45.70345" lon="6.45367">
        <ele>1350</ele>
        <time>2022-07-16T03:06:08Z</time>
      </trkpt>
      <trkpt lat="45.70343" lon="6.45365">
        <ele>1352</ele>
        <time>2022-07-16T03:06:15Z</time>
      </trkpt>
      <trkpt lat="45.70341" lon="6.45362">
        <ele>1352</ele>
        <time>2022-07-16T03:06:18Z</time>
      </trkpt>
      <trkpt lat="45.7034" lon="6.45361">
        <ele>1353</ele>
        <time>2022-07-16T03:06:21Z</time>
      </trkpt>
      <trkpt lat="45.70338" lon="6.45358">
        <ele>1354</ele>
        <time>2022-07-16T03:06:24Z</time>
      </trkpt>
      <trkpt lat="45.70337" lon="6.45356">
        <ele>1355</ele>
        <time>2022-07-16T03:06:28Z</time>
      </trkpt>
      <trkpt lat="45.70336" lon="6.45353">
        <ele>1356</ele>
        <time>2022-07-16T03:06:32Z</time>
      </trkpt>
      <trkpt lat="45.70335" lon="6.45351">
        <ele>1356</ele>
        <time>2022-07-16T03:06:35Z</time>
      </trkpt>
      <trkpt lat="45.70334" lon="6.45349">
        <ele>1356</ele>
        <time>2022-07-16T03:06:39Z</time>
      </trkpt>
      <trkpt lat="45.70332" lon="6.45348">
        <ele>1358</ele>
        <time>2022-07-16T03:06:43Z</time>
      </trkpt>
      <trkpt lat="45.7033" lon="6.45345">
        <ele>1358</ele>
        <time>2022-07-16T03:06:45Z</time>
      </trkpt>
      <trkpt lat="45.70329" lon="6.45341">
        <ele>1359</ele>
        <time>2022-07-16T03:06:47Z</time>
      </trkpt>
      <trkpt lat="45.70328" lon="6.45338">
        <ele>1359</ele>
        <time>2022-07-16T03:06:49Z</time>
      </trkpt>
      <trkpt lat="45.70326" lon="6.45334">
        <ele>1359</ele>
        <time>2022-07-16T03:06:51Z</time>
      </trkpt>
      <trkpt lat="45.70325" lon="6.45331">
        <ele>1360</ele>
        <time>2022-07-16T03:06:53Z</time>
      </trkpt>
      <trkpt lat="45.70324" lon="6.45327">
        <ele>1360</ele>
        <time>2022-07-16T03:06:55Z</time>
      </trkpt>
      <trkpt lat="45.70323" lon="6.45323">
        <ele>1360</ele>
        <time>2022-07-16T03:06:57Z</time>
      </trkpt>
      <trkpt lat="45.70322" lon="6.4532">
        <ele>1360</ele>
        <time>2022-07-16T03:06:59Z</time>
      </trkpt>
      <trkpt lat="45.70321" lon="6.45317">
        <ele>1360</ele>
        <time>2022-07-16T03:07:01Z</time>
      </trkpt>
      <trkpt lat="45.70318" lon="6.45316">
        <ele>1361</ele>
        <time>2022-07-16T03:07:03Z</time>
      </trkpt>
      <trkpt lat="45.70316" lon="6.45316">
        <ele>1361</ele>
        <time>2022-07-16T03:07:05Z</time>
      </trkpt>
      <trkpt lat="45.70314" lon="6.45317">
        <ele>1361</ele>
        <time>2022-07-16T03:07:07Z</time>
      </trkpt>
      <trkpt lat="45.70313" lon="6.45318">
        <ele>1361</ele>
        <time>2022-07-16T03:07:09Z</time>
      </trkpt>
      <trkpt lat="45.70311" lon="6.4532">
        <ele>1362</ele>
        <time>2022-07-16T03:07:12Z</time>
      </trkpt>
      <trkpt lat="45.70309" lon="6.45321">
        <ele>1363</ele>
        <time>2022-07-16T03:07:15Z</time>
      </trkpt>
      <trkpt lat="45.70308" lon="6.45324">
        <ele>1364</ele>
        <time>2022-07-16T03:07:18Z</time>
      </trkpt>
      <trkpt lat="45.70306" lon="6.45326">
        <ele>1364</ele>
        <time>2022-07-16T03:07:21Z</time>
      </trkpt>
      <trkpt lat="45.70304" lon="6.45327">
        <ele>1366</ele>
        <time>2022-07-16T03:07:25Z</time>
      </trkpt>
      <trkpt lat="45.70302" lon="6.45328">
        <ele>1367</ele>
        <time>2022-07-16T03:07:27Z</time>
      </trkpt>
      <trkpt lat="45.703" lon="6.45329">
        <ele>1367</ele>
        <time>2022-07-16T03:07:29Z</time>
      </trkpt>
      <trkpt lat="45.70297" lon="6.4533">
        <ele>1367</ele>
        <time>2022-07-16T03:07:31Z</time>
      </trkpt>
      <trkpt lat="45.70294" lon="6.45331">
        <ele>1367</ele>
        <time>2022-07-16T03:07:33Z</time>
      </trkpt>
      <trkpt lat="45.70292" lon="6.45332">
        <ele>1368</ele>
        <time>2022-07-16T03:07:35Z</time>
      </trkpt>
      <trkpt lat="45.70289" lon="6.45331">
        <ele>1368</ele>
        <time>2022-07-16T03:07:37Z</time>
      </trkpt>
      <trkpt lat="45.70288" lon="6.45331">
        <ele>1369</ele>
        <time>2022-07-16T03:07:39Z</time>
      </trkpt>
      <trkpt lat="45.70286" lon="6.45331">
        <ele>1369</ele>
        <time>2022-07-16T03:07:42Z</time>
      </trkpt>
      <trkpt lat="45.70284" lon="6.4533">
        <ele>1372</ele>
        <time>2022-07-16T03:07:47Z</time>
      </trkpt>
      <trkpt lat="45.70283" lon="6.45327">
        <ele>1372</ele>
        <time>2022-07-16T03:07:49Z</time>
      </trkpt>
      <trkpt lat="45.70281" lon="6.45325">
        <ele>1372</ele>
        <time>2022-07-16T03:07:53Z</time>
      </trkpt>
      <trkpt lat="45.70279" lon="6.45324">
        <ele>1372</ele>
        <time>2022-07-16T03:07:57Z</time>
      </trkpt>
      <trkpt lat="45.70278" lon="6.45321">
        <ele>1373</ele>
        <time>2022-07-16T03:08:04Z</time>
      </trkpt>
      <trkpt lat="45.70276" lon="6.4532">
        <ele>1375</ele>
        <time>2022-07-16T03:08:08Z</time>
      </trkpt>
      <trkpt lat="45.70275" lon="6.4532">
        <ele>1376</ele>
        <time>2022-07-16T03:08:10Z</time>
      </trkpt>
      <trkpt lat="45.70274" lon="6.4532">
        <ele>1376</ele>
        <time>2022-07-16T03:08:11Z</time>
      </trkpt>
      <trkpt lat="45.70273" lon="6.4532">
        <ele>1376</ele>
        <time>2022-07-16T03:08:13Z</time>
      </trkpt>
      <trkpt lat="45.70272" lon="6.4532">
        <ele>1376</ele>
        <time>2022-07-16T03:08:14Z</time>
      </trkpt>
      <trkpt lat="45.70271" lon="6.4532">
        <ele>1376</ele>
        <time>2022-07-16T03:08:15Z</time>
      </trkpt>
      <trkpt lat="45.7027" lon="6.4532">
        <ele>1376</ele>
        <time>2022-07-16T03:08:16Z</time>
      </trkpt>
      <trkpt lat="45.70269" lon="6.4532">
        <ele>1377</ele>
        <time>2022-07-16T03:08:17Z</time>
      </trkpt>
      <trkpt lat="45.70268" lon="6.4532">
        <ele>1377</ele>
        <time>2022-07-16T03:08:19Z</time>
      </trkpt>
      <trkpt lat="45.70267" lon="6.4532">
        <ele>1377</ele>
        <time>2022-07-16T03:08:20Z</time>
      </trkpt>
      <trkpt lat="45.70266" lon="6.45319">
        <ele>1377</ele>
        <time>2022-07-16T03:08:21Z</time>
      </trkpt>
      <trkpt lat="45.70264" lon="6.45318">
        <ele>1378</ele>
        <time>2022-07-16T03:08:24Z</time>
      </trkpt>
      <trkpt lat="45.70263" lon="6.45319">
        <ele>1379</ele>
        <time>2022-07-16T03:08:25Z</time>
      </trkpt>
      <trkpt lat="45.70262" lon="6.4532">
        <ele>1379</ele>
        <time>2022-07-16T03:08:28Z</time>
      </trkpt>
      <trkpt lat="45.70262" lon="6.45321">
        <ele>1380</ele>
        <time>2022-07-16T03:08:31Z</time>
      </trkpt>
      <trkpt lat="45.70261" lon="6.45321">
        <ele>1380</ele>
        <time>2022-07-16T03:08:32Z</time>
      </trkpt>
      <trkpt lat="45.70261" lon="6.45322">
        <ele>1381</ele>
        <time>2022-07-16T03:08:33Z</time>
      </trkpt>
      <trkpt lat="45.70259" lon="6.45323">
        <ele>1381</ele>
        <time>2022-07-16T03:08:37Z</time>
      </trkpt>
      <trkpt lat="45.7026" lon="6.45327">
        <ele>1382</ele>
        <time>2022-07-16T03:08:41Z</time>
      </trkpt>
      <trkpt lat="45.70261" lon="6.45328">
        <ele>1382</ele>
        <time>2022-07-16T03:08:42Z</time>
      </trkpt>
      <trkpt lat="45.70261" lon="6.4533">
        <ele>1383</ele>
        <time>2022-07-16T03:08:43Z</time>
      </trkpt>
      <trkpt lat="45.70262" lon="6.45332">
        <ele>1383</ele>
        <time>2022-07-16T03:08:44Z</time>
      </trkpt>
      <trkpt lat="45.70263" lon="6.45335">
        <ele>1383</ele>
        <time>2022-07-16T03:08:46Z</time>
      </trkpt>
      <trkpt lat="45.70262" lon="6.45338">
        <ele>1384</ele>
        <time>2022-07-16T03:08:49Z</time>
      </trkpt>
      <trkpt lat="45.70261" lon="6.4534">
        <ele>1384</ele>
        <time>2022-07-16T03:08:50Z</time>
      </trkpt>
      <trkpt lat="45.70261" lon="6.45341">
        <ele>1384</ele>
        <time>2022-07-16T03:08:51Z</time>
      </trkpt>
      <trkpt lat="45.7026" lon="6.45343">
        <ele>1384</ele>
        <time>2022-07-16T03:08:52Z</time>
      </trkpt>
      <trkpt lat="45.70259" lon="6.45344">
        <ele>1384</ele>
        <time>2022-07-16T03:08:53Z</time>
      </trkpt>
      <trkpt lat="45.70258" lon="6.45345">
        <ele>1384</ele>
        <time>2022-07-16T03:08:54Z</time>
      </trkpt>
      <trkpt lat="45.70257" lon="6.45347">
        <ele>1385</ele>
        <time>2022-07-16T03:08:55Z</time>
      </trkpt>
      <trkpt lat="45.70257" lon="6.45348">
        <ele>1385</ele>
        <time>2022-07-16T03:08:56Z</time>
      </trkpt>
      <trkpt lat="45.70256" lon="6.45349">
        <ele>1386</ele>
        <time>2022-07-16T03:08:57Z</time>
      </trkpt>
      <trkpt lat="45.70256" lon="6.4535">
        <ele>1386</ele>
        <time>2022-07-16T03:08:58Z</time>
      </trkpt>
      <trkpt lat="45.70255" lon="6.45351">
        <ele>1386</ele>
        <time>2022-07-16T03:08:59Z</time>
      </trkpt>
      <trkpt lat="45.70255" lon="6.45352">
        <ele>1386</ele>
        <time>2022-07-16T03:09:00Z</time>
      </trkpt>
      <trkpt lat="45.70255" lon="6.45354">
        <ele>1386</ele>
        <time>2022-07-16T03:09:01Z</time>
      </trkpt>
      <trkpt lat="45.70255" lon="6.45355">
        <ele>1386</ele>
        <time>2022-07-16T03:09:02Z</time>
      </trkpt>
      <trkpt lat="45.70255" lon="6.45356">
        <ele>1386</ele>
        <time>2022-07-16T03:09:03Z</time>
      </trkpt>
      <trkpt lat="45.70254" lon="6.45357">
        <ele>1386</ele>
        <time>2022-07-16T03:09:04Z</time>
      </trkpt>
      <trkpt lat="45.70254" lon="6.45358">
        <ele>1386</ele>
        <time>2022-07-16T03:09:05Z</time>
      </trkpt>
      <trkpt lat="45.70254" lon="6.45359">
        <ele>1387</ele>
        <time>2022-07-16T03:09:06Z</time>
      </trkpt>
      <trkpt lat="45.70254" lon="6.4536">
        <ele>1388</ele>
        <time>2022-07-16T03:09:07Z</time>
      </trkpt>
      <trkpt lat="45.70255" lon="6.45365">
        <ele>1388</ele>
        <time>2022-07-16T03:09:11Z</time>
      </trkpt>
      <trkpt lat="45.70253" lon="6.4537">
        <ele>1389</ele>
        <time>2022-07-16T03:09:15Z</time>
      </trkpt>
      <trkpt lat="45.70252" lon="6.45372">
        <ele>1389</ele>
        <time>2022-07-16T03:09:17Z</time>
      </trkpt>
      <trkpt lat="45.70252" lon="6.45376">
        <ele>1390</ele>
        <time>2022-07-16T03:09:19Z</time>
      </trkpt>
      <trkpt lat="45.70251" lon="6.45379">
        <ele>1390</ele>
        <time>2022-07-16T03:09:21Z</time>
      </trkpt>
      <trkpt lat="45.70248" lon="6.4538">
        <ele>1390</ele>
        <time>2022-07-16T03:09:23Z</time>
      </trkpt>
      <trkpt lat="45.70246" lon="6.45382">
        <ele>1391</ele>
        <time>2022-07-16T03:09:25Z</time>
      </trkpt>
      <trkpt lat="45.70245" lon="6.45384">
        <ele>1392</ele>
        <time>2022-07-16T03:09:28Z</time>
      </trkpt>
      <trkpt lat="45.70244" lon="6.45386">
        <ele>1393</ele>
        <time>2022-07-16T03:09:30Z</time>
      </trkpt>
      <trkpt lat="45.70243" lon="6.45389">
        <ele>1393</ele>
        <time>2022-07-16T03:09:32Z</time>
      </trkpt>
      <trkpt lat="45.70242" lon="6.45391">
        <ele>1393</ele>
        <time>2022-07-16T03:09:35Z</time>
      </trkpt>
      <trkpt lat="45.70241" lon="6.45394">
        <ele>1395</ele>
        <time>2022-07-16T03:09:39Z</time>
      </trkpt>
      <trkpt lat="45.70242" lon="6.45397">
        <ele>1396</ele>
        <time>2022-07-16T03:09:43Z</time>
      </trkpt>
      <trkpt lat="45.7024" lon="6.45399">
        <ele>1398</ele>
        <time>2022-07-16T03:09:53Z</time>
      </trkpt>
      <trkpt lat="45.7024" lon="6.45399">
        <ele>1399</ele>
        <time>2022-07-16T03:09:54Z</time>
      </trkpt>
      <trkpt lat="45.70238" lon="6.45399">
        <ele>1399</ele>
        <time>2022-07-16T03:09:57Z</time>
      </trkpt>
      <trkpt lat="45.70236" lon="6.454">
        <ele>1399</ele>
        <time>2022-07-16T03:10:01Z</time>
      </trkpt>
      <trkpt lat="45.70234" lon="6.45401">
        <ele>1401</ele>
        <time>2022-07-16T03:10:10Z</time>
      </trkpt>
      <trkpt lat="45.70234" lon="6.45401">
        <ele>1403</ele>
        <time>2022-07-16T03:10:14Z</time>
      </trkpt>
      <trkpt lat="45.70232" lon="6.45401">
        <ele>1403</ele>
        <time>2022-07-16T03:10:15Z</time>
      </trkpt>
      <trkpt lat="45.7023" lon="6.454">
        <ele>1403</ele>
        <time>2022-07-16T03:10:16Z</time>
      </trkpt>
      <trkpt lat="45.70228" lon="6.454">
        <ele>1404</ele>
        <time>2022-07-16T03:10:19Z</time>
      </trkpt>
      <trkpt lat="45.70226" lon="6.45399">
        <ele>1404</ele>
        <time>2022-07-16T03:10:21Z</time>
      </trkpt>
      <trkpt lat="45.70223" lon="6.45399">
        <ele>1404</ele>
        <time>2022-07-16T03:10:23Z</time>
      </trkpt>
      <trkpt lat="45.70222" lon="6.45398">
        <ele>1404</ele>
        <time>2022-07-16T03:10:24Z</time>
      </trkpt>
      <trkpt lat="45.70221" lon="6.45397">
        <ele>1404</ele>
        <time>2022-07-16T03:10:25Z</time>
      </trkpt>
      <trkpt lat="45.7022" lon="6.45396">
        <ele>1405</ele>
        <time>2022-07-16T03:10:26Z</time>
      </trkpt>
      <trkpt lat="45.70219" lon="6.45395">
        <ele>1406</ele>
        <time>2022-07-16T03:10:28Z</time>
      </trkpt>
      <trkpt lat="45.70218" lon="6.45394">
        <ele>1406</ele>
        <time>2022-07-16T03:10:29Z</time>
      </trkpt>
      <trkpt lat="45.70217" lon="6.45393">
        <ele>1406</ele>
        <time>2022-07-16T03:10:30Z</time>
      </trkpt>
      <trkpt lat="45.70216" lon="6.45393">
        <ele>1407</ele>
        <time>2022-07-16T03:10:31Z</time>
      </trkpt>
      <trkpt lat="45.70215" lon="6.45392">
        <ele>1407</ele>
        <time>2022-07-16T03:10:32Z</time>
      </trkpt>
      <trkpt lat="45.70215" lon="6.45391">
        <ele>1407</ele>
        <time>2022-07-16T03:10:33Z</time>
      </trkpt>
      <trkpt lat="45.70213" lon="6.45391">
        <ele>1407</ele>
        <time>2022-07-16T03:10:34Z</time>
      </trkpt>
      <trkpt lat="45.70212" lon="6.4539">
        <ele>1408</ele>
        <time>2022-07-16T03:10:35Z</time>
      </trkpt>
      <trkpt lat="45.70211" lon="6.45389">
        <ele>1408</ele>
        <time>2022-07-16T03:10:36Z</time>
      </trkpt>
      <trkpt lat="45.7021" lon="6.45389">
        <ele>1408</ele>
        <time>2022-07-16T03:10:37Z</time>
      </trkpt>
      <trkpt lat="45.70209" lon="6.45388">
        <ele>1409</ele>
        <time>2022-07-16T03:10:38Z</time>
      </trkpt>
      <trkpt lat="45.70208" lon="6.45387">
        <ele>1409</ele>
        <time>2022-07-16T03:10:39Z</time>
      </trkpt>
      <trkpt lat="45.70206" lon="6.45387">
        <ele>1409</ele>
        <time>2022-07-16T03:10:40Z</time>
      </trkpt>
      <trkpt lat="45.70205" lon="6.45385">
        <ele>1409</ele>
        <time>2022-07-16T03:10:42Z</time>
      </trkpt>
      <trkpt lat="45.70203" lon="6.45383">
        <ele>1410</ele>
        <time>2022-07-16T03:10:45Z</time>
      </trkpt>
      <trkpt lat="45.70201" lon="6.45381">
        <ele>1411</ele>
        <time>2022-07-16T03:10:48Z</time>
      </trkpt>
      <trkpt lat="45.70199" lon="6.4538">
        <ele>1412</ele>
        <time>2022-07-16T03:10:50Z</time>
      </trkpt>
      <trkpt lat="45.70197" lon="6.45378">
        <ele>1412</ele>
        <time>2022-07-16T03:10:52Z</time>
      </trkpt>
      <trkpt lat="45.70196" lon="6.45376">
        <ele>1413</ele>
        <time>2022-07-16T03:10:55Z</time>
      </trkpt>
      <trkpt lat="45.70194" lon="6.45373">
        <ele>1413</ele>
        <time>2022-07-16T03:10:58Z</time>
      </trkpt>
      <trkpt lat="45.70193" lon="6.4537">
        <ele>1415</ele>
        <time>2022-07-16T03:11:01Z</time>
      </trkpt>
      <trkpt lat="45.70192" lon="6.45367">
        <ele>1415</ele>
        <time>2022-07-16T03:11:03Z</time>
      </trkpt>
      <trkpt lat="45.7019" lon="6.45365">
        <ele>1416</ele>
        <time>2022-07-16T03:11:06Z</time>
      </trkpt>
      <trkpt lat="45.70188" lon="6.45363">
        <ele>1416</ele>
        <time>2022-07-16T03:11:09Z</time>
      </trkpt>
      <trkpt lat="45.70186" lon="6.4536">
        <ele>1417</ele>
        <time>2022-07-16T03:11:12Z</time>
      </trkpt>
      <trkpt lat="45.70185" lon="6.45357">
        <ele>1417</ele>
        <time>2022-07-16T03:11:15Z</time>
      </trkpt>
      <trkpt lat="45.70184" lon="6.45355">
        <ele>1419</ele>
        <time>2022-07-16T03:11:18Z</time>
      </trkpt>
      <trkpt lat="45.70181" lon="6.45353">
        <ele>1419</ele>
        <time>2022-07-16T03:11:20Z</time>
      </trkpt>
      <trkpt lat="45.70179" lon="6.45352">
        <ele>1419</ele>
        <time>2022-07-16T03:11:22Z</time>
      </trkpt>
      <trkpt lat="45.70177" lon="6.45351">
        <ele>1419</ele>
        <time>2022-07-16T03:11:23Z</time>
      </trkpt>
      <trkpt lat="45.70175" lon="6.45349">
        <ele>1419</ele>
        <time>2022-07-16T03:11:25Z</time>
      </trkpt>
      <trkpt lat="45.70174" lon="6.45347">
        <ele>1419</ele>
        <time>2022-07-16T03:11:27Z</time>
      </trkpt>
      <trkpt lat="45.70172" lon="6.45345">
        <ele>1420</ele>
        <time>2022-07-16T03:11:30Z</time>
      </trkpt>
      <trkpt lat="45.70171" lon="6.45344">
        <ele>1421</ele>
        <time>2022-07-16T03:11:33Z</time>
      </trkpt>
      <trkpt lat="45.70169" lon="6.45342">
        <ele>1423</ele>
        <time>2022-07-16T03:11:37Z</time>
      </trkpt>
      <trkpt lat="45.70167" lon="6.45342">
        <ele>1423</ele>
        <time>2022-07-16T03:11:40Z</time>
      </trkpt>
      <trkpt lat="45.70164" lon="6.45342">
        <ele>1424</ele>
        <time>2022-07-16T03:11:44Z</time>
      </trkpt>
      <trkpt lat="45.70162" lon="6.45343">
        <ele>1426</ele>
        <time>2022-07-16T03:11:48Z</time>
      </trkpt>
      <trkpt lat="45.7016" lon="6.45342">
        <ele>1427</ele>
        <time>2022-07-16T03:11:52Z</time>
      </trkpt>
      <trkpt lat="45.70159" lon="6.4534">
        <ele>1428</ele>
        <time>2022-07-16T03:11:55Z</time>
      </trkpt>
      <trkpt lat="45.70157" lon="6.45339">
        <ele>1428</ele>
        <time>2022-07-16T03:11:59Z</time>
      </trkpt>
      <trkpt lat="45.70155" lon="6.45338">
        <ele>1430</ele>
        <time>2022-07-16T03:12:02Z</time>
      </trkpt>
      <trkpt lat="45.70153" lon="6.45337">
        <ele>1431</ele>
        <time>2022-07-16T03:12:05Z</time>
      </trkpt>
      <trkpt lat="45.70151" lon="6.45337">
        <ele>1431</ele>
        <time>2022-07-16T03:12:07Z</time>
      </trkpt>
      <trkpt lat="45.70149" lon="6.45336">
        <ele>1432</ele>
        <time>2022-07-16T03:12:09Z</time>
      </trkpt>
      <trkpt lat="45.70147" lon="6.45335">
        <ele>1432</ele>
        <time>2022-07-16T03:12:11Z</time>
      </trkpt>
      <trkpt lat="45.70145" lon="6.45335">
        <ele>1433</ele>
        <time>2022-07-16T03:12:13Z</time>
      </trkpt>
      <trkpt lat="45.70142" lon="6.45335">
        <ele>1434</ele>
        <time>2022-07-16T03:12:16Z</time>
      </trkpt>
      <trkpt lat="45.7014" lon="6.45335">
        <ele>1434</ele>
        <time>2022-07-16T03:12:19Z</time>
      </trkpt>
      <trkpt lat="45.70138" lon="6.45335">
        <ele>1435</ele>
        <time>2022-07-16T03:12:21Z</time>
      </trkpt>
      <trkpt lat="45.70136" lon="6.45336">
        <ele>1435</ele>
        <time>2022-07-16T03:12:24Z</time>
      </trkpt>
      <trkpt lat="45.70134" lon="6.45335">
        <ele>1435</ele>
        <time>2022-07-16T03:12:26Z</time>
      </trkpt>
      <trkpt lat="45.70132" lon="6.45334">
        <ele>1436</ele>
        <time>2022-07-16T03:12:30Z</time>
      </trkpt>
      <trkpt lat="45.70129" lon="6.45332">
        <ele>1436</ele>
        <time>2022-07-16T03:12:33Z</time>
      </trkpt>
      <trkpt lat="45.70127" lon="6.45332">
        <ele>1438</ele>
        <time>2022-07-16T03:12:37Z</time>
      </trkpt>
      <trkpt lat="45.70125" lon="6.45332">
        <ele>1439</ele>
        <time>2022-07-16T03:12:40Z</time>
      </trkpt>
      <trkpt lat="45.70123" lon="6.45333">
        <ele>1440</ele>
        <time>2022-07-16T03:12:43Z</time>
      </trkpt>
      <trkpt lat="45.70122" lon="6.45334">
        <ele>1440</ele>
        <time>2022-07-16T03:12:45Z</time>
      </trkpt>
      <trkpt lat="45.7012" lon="6.45335">
        <ele>1441</ele>
        <time>2022-07-16T03:12:47Z</time>
      </trkpt>
      <trkpt lat="45.70118" lon="6.45335">
        <ele>1442</ele>
        <time>2022-07-16T03:12:51Z</time>
      </trkpt>
      <trkpt lat="45.70116" lon="6.45335">
        <ele>1443</ele>
        <time>2022-07-16T03:12:56Z</time>
      </trkpt>
      <trkpt lat="45.70113" lon="6.45335">
        <ele>1444</ele>
        <time>2022-07-16T03:12:59Z</time>
      </trkpt>
      <trkpt lat="45.70111" lon="6.45334">
        <ele>1445</ele>
        <time>2022-07-16T03:13:02Z</time>
      </trkpt>
      <trkpt lat="45.70108" lon="6.45334">
        <ele>1445</ele>
        <time>2022-07-16T03:13:05Z</time>
      </trkpt>
      <trkpt lat="45.70106" lon="6.45333">
        <ele>1446</ele>
        <time>2022-07-16T03:13:07Z</time>
      </trkpt>
      <trkpt lat="45.70104" lon="6.45332">
        <ele>1446</ele>
        <time>2022-07-16T03:13:10Z</time>
      </trkpt>
      <trkpt lat="45.70101" lon="6.45331">
        <ele>1447</ele>
        <time>2022-07-16T03:13:12Z</time>
      </trkpt>
      <trkpt lat="45.70098" lon="6.45331">
        <ele>1448</ele>
        <time>2022-07-16T03:13:14Z</time>
      </trkpt>
      <trkpt lat="45.70096" lon="6.45331">
        <ele>1448</ele>
        <time>2022-07-16T03:13:16Z</time>
      </trkpt>
      <trkpt lat="45.70094" lon="6.45331">
        <ele>1449</ele>
        <time>2022-07-16T03:13:19Z</time>
      </trkpt>
      <trkpt lat="45.70092" lon="6.45331">
        <ele>1450</ele>
        <time>2022-07-16T03:13:21Z</time>
      </trkpt>
      <trkpt lat="45.70088" lon="6.45331">
        <ele>1450</ele>
        <time>2022-07-16T03:13:23Z</time>
      </trkpt>
      <trkpt lat="45.70086" lon="6.45331">
        <ele>1450</ele>
        <time>2022-07-16T03:13:26Z</time>
      </trkpt>
      <trkpt lat="45.70083" lon="6.45331">
        <ele>1450</ele>
        <time>2022-07-16T03:13:28Z</time>
      </trkpt>
      <trkpt lat="45.7008" lon="6.45331">
        <ele>1450</ele>
        <time>2022-07-16T03:13:30Z</time>
      </trkpt>
      <trkpt lat="45.70077" lon="6.45332">
        <ele>1452</ele>
        <time>2022-07-16T03:13:32Z</time>
      </trkpt>
      <trkpt lat="45.70075" lon="6.45332">
        <ele>1452</ele>
        <time>2022-07-16T03:13:33Z</time>
      </trkpt>
      <trkpt lat="45.70072" lon="6.45331">
        <ele>1452</ele>
        <time>2022-07-16T03:13:35Z</time>
      </trkpt>
      <trkpt lat="45.7007" lon="6.45333">
        <ele>1452</ele>
        <time>2022-07-16T03:13:37Z</time>
      </trkpt>
      <trkpt lat="45.70068" lon="6.45333">
        <ele>1452</ele>
        <time>2022-07-16T03:13:40Z</time>
      </trkpt>
      <trkpt lat="45.70065" lon="6.45332">
        <ele>1452</ele>
        <time>2022-07-16T03:13:43Z</time>
      </trkpt>
      <trkpt lat="45.70064" lon="6.45333">
        <ele>1453</ele>
        <time>2022-07-16T03:13:46Z</time>
      </trkpt>
      <trkpt lat="45.70061" lon="6.45333">
        <ele>1453</ele>
        <time>2022-07-16T03:13:48Z</time>
      </trkpt>
      <trkpt lat="45.70059" lon="6.45333">
        <ele>1454</ele>
        <time>2022-07-16T03:13:50Z</time>
      </trkpt>
      <trkpt lat="45.70056" lon="6.45333">
        <ele>1454</ele>
        <time>2022-07-16T03:13:53Z</time>
      </trkpt>
      <trkpt lat="45.70054" lon="6.45333">
        <ele>1454</ele>
        <time>2022-07-16T03:13:55Z</time>
      </trkpt>
      <trkpt lat="45.70051" lon="6.45333">
        <ele>1456</ele>
        <time>2022-07-16T03:13:57Z</time>
      </trkpt>
      <trkpt lat="45.70049" lon="6.45333">
        <ele>1456</ele>
        <time>2022-07-16T03:13:59Z</time>
      </trkpt>
      <trkpt lat="45.70047" lon="6.45333">
        <ele>1456</ele>
        <time>2022-07-16T03:14:01Z</time>
      </trkpt>
      <trkpt lat="45.70046" lon="6.45332">
        <ele>1456</ele>
        <time>2022-07-16T03:14:04Z</time>
      </trkpt>
      <trkpt lat="45.70045" lon="6.45332">
        <ele>1457</ele>
        <time>2022-07-16T03:14:05Z</time>
      </trkpt>
      <trkpt lat="45.70044" lon="6.45332">
        <ele>1458</ele>
        <time>2022-07-16T03:14:06Z</time>
      </trkpt>
      <trkpt lat="45.70043" lon="6.45332">
        <ele>1458</ele>
        <time>2022-07-16T03:14:07Z</time>
      </trkpt>
      <trkpt lat="45.70042" lon="6.45332">
        <ele>1458</ele>
        <time>2022-07-16T03:14:08Z</time>
      </trkpt>
      <trkpt lat="45.70041" lon="6.45332">
        <ele>1459</ele>
        <time>2022-07-16T03:14:09Z</time>
      </trkpt>
      <trkpt lat="45.7004" lon="6.45332">
        <ele>1459</ele>
        <time>2022-07-16T03:14:10Z</time>
      </trkpt>
      <trkpt lat="45.70039" lon="6.45332">
        <ele>1459</ele>
        <time>2022-07-16T03:14:11Z</time>
      </trkpt>
      <trkpt lat="45.70038" lon="6.45332">
        <ele>1460</ele>
        <time>2022-07-16T03:14:12Z</time>
      </trkpt>
      <trkpt lat="45.70037" lon="6.45332">
        <ele>1460</ele>
        <time>2022-07-16T03:14:13Z</time>
      </trkpt>
      <trkpt lat="45.70034" lon="6.45332">
        <ele>1460</ele>
        <time>2022-07-16T03:14:15Z</time>
      </trkpt>
      <trkpt lat="45.70032" lon="6.45332">
        <ele>1461</ele>
        <time>2022-07-16T03:14:17Z</time>
      </trkpt>
      <trkpt lat="45.7003" lon="6.45332">
        <ele>1461</ele>
        <time>2022-07-16T03:14:20Z</time>
      </trkpt>
      <trkpt lat="45.70028" lon="6.45332">
        <ele>1462</ele>
        <time>2022-07-16T03:14:22Z</time>
      </trkpt>
      <trkpt lat="45.70026" lon="6.45332">
        <ele>1463</ele>
        <time>2022-07-16T03:14:23Z</time>
      </trkpt>
      <trkpt lat="45.70025" lon="6.45332">
        <ele>1463</ele>
        <time>2022-07-16T03:14:24Z</time>
      </trkpt>
      <trkpt lat="45.70023" lon="6.45331">
        <ele>1463</ele>
        <time>2022-07-16T03:14:25Z</time>
      </trkpt>
      <trkpt lat="45.70022" lon="6.45331">
        <ele>1464</ele>
        <time>2022-07-16T03:14:27Z</time>
      </trkpt>
      <trkpt lat="45.70019" lon="6.45329">
        <ele>1464</ele>
        <time>2022-07-16T03:14:29Z</time>
      </trkpt>
      <trkpt lat="45.70017" lon="6.45329">
        <ele>1465</ele>
        <time>2022-07-16T03:14:31Z</time>
      </trkpt>
      <trkpt lat="45.70015" lon="6.45329">
        <ele>1465</ele>
        <time>2022-07-16T03:14:33Z</time>
      </trkpt>
      <trkpt lat="45.70013" lon="6.45329">
        <ele>1466</ele>
        <time>2022-07-16T03:14:35Z</time>
      </trkpt>
      <trkpt lat="45.7001" lon="6.45328">
        <ele>1466</ele>
        <time>2022-07-16T03:14:37Z</time>
      </trkpt>
      <trkpt lat="45.70008" lon="6.45328">
        <ele>1466</ele>
        <time>2022-07-16T03:14:39Z</time>
      </trkpt>
      <trkpt lat="45.70005" lon="6.45327">
        <ele>1466</ele>
        <time>2022-07-16T03:14:42Z</time>
      </trkpt>
      <trkpt lat="45.70003" lon="6.45327">
        <ele>1467</ele>
        <time>2022-07-16T03:14:44Z</time>
      </trkpt>
      <trkpt lat="45.70001" lon="6.45326">
        <ele>1468</ele>
        <time>2022-07-16T03:14:46Z</time>
      </trkpt>
      <trkpt lat="45.69999" lon="6.45324">
        <ele>1469</ele>
        <time>2022-07-16T03:14:48Z</time>
      </trkpt>
      <trkpt lat="45.69997" lon="6.45324">
        <ele>1469</ele>
        <time>2022-07-16T03:14:51Z</time>
      </trkpt>
      <trkpt lat="45.69995" lon="6.45323">
        <ele>1471</ele>
        <time>2022-07-16T03:14:56Z</time>
      </trkpt>
      <trkpt lat="45.69993" lon="6.45322">
        <ele>1471</ele>
        <time>2022-07-16T03:14:58Z</time>
      </trkpt>
      <trkpt lat="45.69992" lon="6.45322">
        <ele>1471</ele>
        <time>2022-07-16T03:14:59Z</time>
      </trkpt>
      <trkpt lat="45.69992" lon="6.45321">
        <ele>1472</ele>
        <time>2022-07-16T03:15:00Z</time>
      </trkpt>
      <trkpt lat="45.69991" lon="6.45321">
        <ele>1472</ele>
        <time>2022-07-16T03:15:01Z</time>
      </trkpt>
      <trkpt lat="45.6999" lon="6.4532">
        <ele>1473</ele>
        <time>2022-07-16T03:15:02Z</time>
      </trkpt>
      <trkpt lat="45.69989" lon="6.4532">
        <ele>1473</ele>
        <time>2022-07-16T03:15:03Z</time>
      </trkpt>
      <trkpt lat="45.69989" lon="6.45319">
        <ele>1473</ele>
        <time>2022-07-16T03:15:04Z</time>
      </trkpt>
      <trkpt lat="45.69988" lon="6.45319">
        <ele>1473</ele>
        <time>2022-07-16T03:15:05Z</time>
      </trkpt>
      <trkpt lat="45.69987" lon="6.45318">
        <ele>1474</ele>
        <time>2022-07-16T03:15:06Z</time>
      </trkpt>
      <trkpt lat="45.69986" lon="6.45318">
        <ele>1474</ele>
        <time>2022-07-16T03:15:07Z</time>
      </trkpt>
      <trkpt lat="45.69986" lon="6.45317">
        <ele>1474</ele>
        <time>2022-07-16T03:15:08Z</time>
      </trkpt>
      <trkpt lat="45.69983" lon="6.45317">
        <ele>1475</ele>
        <time>2022-07-16T03:15:13Z</time>
      </trkpt>
      <trkpt lat="45.69981" lon="6.45314">
        <ele>1476</ele>
        <time>2022-07-16T03:15:15Z</time>
      </trkpt>
      <trkpt lat="45.69979" lon="6.45313">
        <ele>1476</ele>
        <time>2022-07-16T03:15:18Z</time>
      </trkpt>
      <trkpt lat="45.69977" lon="6.45312">
        <ele>1477</ele>
        <time>2022-07-16T03:15:21Z</time>
      </trkpt>
      <trkpt lat="45.69975" lon="6.45311">
        <ele>1477</ele>
        <time>2022-07-16T03:15:23Z</time>
      </trkpt>
      <trkpt lat="45.69972" lon="6.45309">
        <ele>1478</ele>
        <time>2022-07-16T03:15:27Z</time>
      </trkpt>
      <trkpt lat="45.6997" lon="6.45308">
        <ele>1479</ele>
        <time>2022-07-16T03:15:28Z</time>
      </trkpt>
      <trkpt lat="45.69969" lon="6.45307">
        <ele>1479</ele>
        <time>2022-07-16T03:15:29Z</time>
      </trkpt>
      <trkpt lat="45.69968" lon="6.45307">
        <ele>1479</ele>
        <time>2022-07-16T03:15:30Z</time>
      </trkpt>
      <trkpt lat="45.69966" lon="6.45306">
        <ele>1479</ele>
        <time>2022-07-16T03:15:31Z</time>
      </trkpt>
      <trkpt lat="45.69965" lon="6.45304">
        <ele>1480</ele>
        <time>2022-07-16T03:15:33Z</time>
      </trkpt>
      <trkpt lat="45.69962" lon="6.45302">
        <ele>1481</ele>
        <time>2022-07-16T03:15:35Z</time>
      </trkpt>
      <trkpt lat="45.69961" lon="6.453">
        <ele>1481</ele>
        <time>2022-07-16T03:15:38Z</time>
      </trkpt>
      <trkpt lat="45.69959" lon="6.45297">
        <ele>1481</ele>
        <time>2022-07-16T03:15:41Z</time>
      </trkpt>
      <trkpt lat="45.69957" lon="6.45294">
        <ele>1482</ele>
        <time>2022-07-16T03:15:43Z</time>
      </trkpt>
      <trkpt lat="45.69956" lon="6.45291">
        <ele>1483</ele>
        <time>2022-07-16T03:15:45Z</time>
      </trkpt>
      <trkpt lat="45.69955" lon="6.45287">
        <ele>1483</ele>
        <time>2022-07-16T03:15:48Z</time>
      </trkpt>
      <trkpt lat="45.69954" lon="6.45283">
        <ele>1484</ele>
        <time>2022-07-16T03:15:50Z</time>
      </trkpt>
      <trkpt lat="45.69952" lon="6.45279">
        <ele>1485</ele>
        <time>2022-07-16T03:15:52Z</time>
      </trkpt>
      <trkpt lat="45.69951" lon="6.45277">
        <ele>1485</ele>
        <time>2022-07-16T03:15:55Z</time>
      </trkpt>
      <trkpt lat="45.69949" lon="6.45275">
        <ele>1486</ele>
        <time>2022-07-16T03:15:58Z</time>
      </trkpt>
      <trkpt lat="45.69949" lon="6.45275">
        <ele>1489</ele>
        <time>2022-07-16T03:16:09Z</time>
      </trkpt>
      <trkpt lat="45.69949" lon="6.45278">
        <ele>1490</ele>
        <time>2022-07-16T03:16:10Z</time>
      </trkpt>
      <trkpt lat="45.69948" lon="6.4528">
        <ele>1490</ele>
        <time>2022-07-16T03:16:14Z</time>
      </trkpt>
      <trkpt lat="45.69947" lon="6.45283">
        <ele>1491</ele>
        <time>2022-07-16T03:16:18Z</time>
      </trkpt>
      <trkpt lat="45.69945" lon="6.45286">
        <ele>1492</ele>
        <time>2022-07-16T03:16:21Z</time>
      </trkpt>
      <trkpt lat="45.69943" lon="6.45285">
        <ele>1493</ele>
        <time>2022-07-16T03:16:24Z</time>
      </trkpt>
      <trkpt lat="45.69941" lon="6.45284">
        <ele>1493</ele>
        <time>2022-07-16T03:16:27Z</time>
      </trkpt>
      <trkpt lat="45.69939" lon="6.45284">
        <ele>1494</ele>
        <time>2022-07-16T03:16:29Z</time>
      </trkpt>
      <trkpt lat="45.69936" lon="6.45284">
        <ele>1495</ele>
        <time>2022-07-16T03:16:32Z</time>
      </trkpt>
      <trkpt lat="45.69934" lon="6.45283">
        <ele>1495</ele>
        <time>2022-07-16T03:16:35Z</time>
      </trkpt>
      <trkpt lat="45.69932" lon="6.45282">
        <ele>1496</ele>
        <time>2022-07-16T03:16:38Z</time>
      </trkpt>
      <trkpt lat="45.69931" lon="6.45279">
        <ele>1497</ele>
        <time>2022-07-16T03:16:41Z</time>
      </trkpt>
      <trkpt lat="45.69929" lon="6.45279">
        <ele>1498</ele>
        <time>2022-07-16T03:16:44Z</time>
      </trkpt>
      <trkpt lat="45.69926" lon="6.45279">
        <ele>1499</ele>
        <time>2022-07-16T03:16:47Z</time>
      </trkpt>
      <trkpt lat="45.69924" lon="6.4528">
        <ele>1500</ele>
        <time>2022-07-16T03:16:51Z</time>
      </trkpt>
      <trkpt lat="45.69923" lon="6.45282">
        <ele>1500</ele>
        <time>2022-07-16T03:16:54Z</time>
      </trkpt>
      <trkpt lat="45.69922" lon="6.45285">
        <ele>1501</ele>
        <time>2022-07-16T03:16:58Z</time>
      </trkpt>
      <trkpt lat="45.69921" lon="6.45287">
        <ele>1502</ele>
        <time>2022-07-16T03:17:01Z</time>
      </trkpt>
      <trkpt lat="45.6992" lon="6.4529">
        <ele>1502</ele>
        <time>2022-07-16T03:17:04Z</time>
      </trkpt>
      <trkpt lat="45.69918" lon="6.45292">
        <ele>1503</ele>
        <time>2022-07-16T03:17:06Z</time>
      </trkpt>
      <trkpt lat="45.69917" lon="6.45294">
        <ele>1503</ele>
        <time>2022-07-16T03:17:08Z</time>
      </trkpt>
      <trkpt lat="45.69915" lon="6.45295">
        <ele>1503</ele>
        <time>2022-07-16T03:17:10Z</time>
      </trkpt>
      <trkpt lat="45.69913" lon="6.45297">
        <ele>1504</ele>
        <time>2022-07-16T03:17:13Z</time>
      </trkpt>
      <trkpt lat="45.69911" lon="6.45297">
        <ele>1504</ele>
        <time>2022-07-16T03:17:15Z</time>
      </trkpt>
      <trkpt lat="45.69908" lon="6.45297">
        <ele>1504</ele>
        <time>2022-07-16T03:17:18Z</time>
      </trkpt>
      <trkpt lat="45.69906" lon="6.45297">
        <ele>1506</ele>
        <time>2022-07-16T03:17:22Z</time>
      </trkpt>
      <trkpt lat="45.69904" lon="6.45297">
        <ele>1507</ele>
        <time>2022-07-16T03:17:25Z</time>
      </trkpt>
      <trkpt lat="45.69902" lon="6.45297">
        <ele>1508</ele>
        <time>2022-07-16T03:17:30Z</time>
      </trkpt>
      <trkpt lat="45.699" lon="6.45298">
        <ele>1509</ele>
        <time>2022-07-16T03:17:35Z</time>
      </trkpt>
      <trkpt lat="45.69899" lon="6.453">
        <ele>1510</ele>
        <time>2022-07-16T03:17:39Z</time>
      </trkpt>
      <trkpt lat="45.69897" lon="6.45302">
        <ele>1511</ele>
        <time>2022-07-16T03:17:45Z</time>
      </trkpt>
      <trkpt lat="45.69895" lon="6.45303">
        <ele>1512</ele>
        <time>2022-07-16T03:17:49Z</time>
      </trkpt>
      <trkpt lat="45.69892" lon="6.45304">
        <ele>1513</ele>
        <time>2022-07-16T03:17:52Z</time>
      </trkpt>
      <trkpt lat="45.6989" lon="6.45305">
        <ele>1514</ele>
        <time>2022-07-16T03:17:55Z</time>
      </trkpt>
      <trkpt lat="45.69887" lon="6.45306">
        <ele>1514</ele>
        <time>2022-07-16T03:17:58Z</time>
      </trkpt>
      <trkpt lat="45.69883" lon="6.45308">
        <ele>1515</ele>
        <time>2022-07-16T03:18:01Z</time>
      </trkpt>
      <trkpt lat="45.69882" lon="6.45308">
        <ele>1515</ele>
        <time>2022-07-16T03:18:03Z</time>
      </trkpt>
      <trkpt lat="45.69881" lon="6.45308">
        <ele>1515</ele>
        <time>2022-07-16T03:18:04Z</time>
      </trkpt>
      <trkpt lat="45.6988" lon="6.45309">
        <ele>1515</ele>
        <time>2022-07-16T03:18:05Z</time>
      </trkpt>
      <trkpt lat="45.69879" lon="6.45309">
        <ele>1516</ele>
        <time>2022-07-16T03:18:07Z</time>
      </trkpt>
      <trkpt lat="45.69878" lon="6.45309">
        <ele>1516</ele>
        <time>2022-07-16T03:18:08Z</time>
      </trkpt>
      <trkpt lat="45.69877" lon="6.45309">
        <ele>1516</ele>
        <time>2022-07-16T03:18:09Z</time>
      </trkpt>
      <trkpt lat="45.69876" lon="6.45309">
        <ele>1517</ele>
        <time>2022-07-16T03:18:11Z</time>
      </trkpt>
      <trkpt lat="45.69875" lon="6.4531">
        <ele>1517</ele>
        <time>2022-07-16T03:18:12Z</time>
      </trkpt>
      <trkpt lat="45.69872" lon="6.45306">
        <ele>1519</ele>
        <time>2022-07-16T03:18:19Z</time>
      </trkpt>
      <trkpt lat="45.6987" lon="6.45304">
        <ele>1519</ele>
        <time>2022-07-16T03:18:21Z</time>
      </trkpt>
      <trkpt lat="45.69867" lon="6.45305">
        <ele>1520</ele>
        <time>2022-07-16T03:18:24Z</time>
      </trkpt>
      <trkpt lat="45.69865" lon="6.45305">
        <ele>1521</ele>
        <time>2022-07-16T03:18:26Z</time>
      </trkpt>
      <trkpt lat="45.69863" lon="6.45305">
        <ele>1521</ele>
        <time>2022-07-16T03:18:28Z</time>
      </trkpt>
      <trkpt lat="45.69861" lon="6.45305">
        <ele>1521</ele>
        <time>2022-07-16T03:18:29Z</time>
      </trkpt>
      <trkpt lat="45.69859" lon="6.45306">
        <ele>1522</ele>
        <time>2022-07-16T03:18:32Z</time>
      </trkpt>
      <trkpt lat="45.69856" lon="6.45307">
        <ele>1523</ele>
        <time>2022-07-16T03:18:36Z</time>
      </trkpt>
      <trkpt lat="45.69854" lon="6.45308">
        <ele>1524</ele>
        <time>2022-07-16T03:18:39Z</time>
      </trkpt>
      <trkpt lat="45.69851" lon="6.45308">
        <ele>1524</ele>
        <time>2022-07-16T03:18:41Z</time>
      </trkpt>
      <trkpt lat="45.69848" lon="6.45309">
        <ele>1525</ele>
        <time>2022-07-16T03:18:43Z</time>
      </trkpt>
      <trkpt lat="45.69845" lon="6.45308">
        <ele>1526</ele>
        <time>2022-07-16T03:18:46Z</time>
      </trkpt>
      <trkpt lat="45.69843" lon="6.45306">
        <ele>1526</ele>
        <time>2022-07-16T03:18:49Z</time>
      </trkpt>
      <trkpt lat="45.69841" lon="6.45305">
        <ele>1527</ele>
        <time>2022-07-16T03:18:51Z</time>
      </trkpt>
      <trkpt lat="45.69839" lon="6.45305">
        <ele>1527</ele>
        <time>2022-07-16T03:18:54Z</time>
      </trkpt>
      <trkpt lat="45.69839" lon="6.45305">
        <ele>1530</ele>
        <time>2022-07-16T03:19:07Z</time>
      </trkpt>
      <trkpt lat="45.69836" lon="6.45305">
        <ele>1531</ele>
        <time>2022-07-16T03:19:09Z</time>
      </trkpt>
      <trkpt lat="45.69833" lon="6.45306">
        <ele>1532</ele>
        <time>2022-07-16T03:19:14Z</time>
      </trkpt>
      <trkpt lat="45.69832" lon="6.45306">
        <ele>1532</ele>
        <time>2022-07-16T03:19:15Z</time>
      </trkpt>
      <trkpt lat="45.69831" lon="6.45306">
        <ele>1532</ele>
        <time>2022-07-16T03:19:16Z</time>
      </trkpt>
      <trkpt lat="45.6983" lon="6.45307">
        <ele>1532</ele>
        <time>2022-07-16T03:19:17Z</time>
      </trkpt>
      <trkpt lat="45.69829" lon="6.45307">
        <ele>1532</ele>
        <time>2022-07-16T03:19:18Z</time>
      </trkpt>
      <trkpt lat="45.69828" lon="6.45307">
        <ele>1533</ele>
        <time>2022-07-16T03:19:19Z</time>
      </trkpt>
      <trkpt lat="45.69827" lon="6.45308">
        <ele>1533</ele>
        <time>2022-07-16T03:19:20Z</time>
      </trkpt>
      <trkpt lat="45.69826" lon="6.45308">
        <ele>1533</ele>
        <time>2022-07-16T03:19:21Z</time>
      </trkpt>
      <trkpt lat="45.69825" lon="6.45308">
        <ele>1533</ele>
        <time>2022-07-16T03:19:22Z</time>
      </trkpt>
      <trkpt lat="45.69824" lon="6.45308">
        <ele>1533</ele>
        <time>2022-07-16T03:19:23Z</time>
      </trkpt>
      <trkpt lat="45.69823" lon="6.45309">
        <ele>1533</ele>
        <time>2022-07-16T03:19:25Z</time>
      </trkpt>
      <trkpt lat="45.69822" lon="6.45309">
        <ele>1534</ele>
        <time>2022-07-16T03:19:27Z</time>
      </trkpt>
      <trkpt lat="45.69821" lon="6.4531">
        <ele>1534</ele>
        <time>2022-07-16T03:19:28Z</time>
      </trkpt>
      <trkpt lat="45.6982" lon="6.4531">
        <ele>1535</ele>
        <time>2022-07-16T03:19:29Z</time>
      </trkpt>
      <trkpt lat="45.69819" lon="6.4531">
        <ele>1535</ele>
        <time>2022-07-16T03:19:30Z</time>
      </trkpt>
      <trkpt lat="45.69817" lon="6.4531">
        <ele>1535</ele>
        <time>2022-07-16T03:19:32Z</time>
      </trkpt>
      <trkpt lat="45.69815" lon="6.45309">
        <ele>1537</ele>
        <time>2022-07-16T03:19:40Z</time>
      </trkpt>
      <trkpt lat="45.69813" lon="6.45309">
        <ele>1538</ele>
        <time>2022-07-16T03:19:44Z</time>
      </trkpt>
      <trkpt lat="45.69811" lon="6.45307">
        <ele>1539</ele>
        <time>2022-07-16T03:19:50Z</time>
      </trkpt>
      <trkpt lat="45.6981" lon="6.45309">
        <ele>1541</ele>
        <time>2022-07-16T03:19:58Z</time>
      </trkpt>
      <trkpt lat="45.6981" lon="6.45312">
        <ele>1542</ele>
        <time>2022-07-16T03:20:01Z</time>
      </trkpt>
      <trkpt lat="45.6981" lon="6.45315">
        <ele>1543</ele>
        <time>2022-07-16T03:20:04Z</time>
      </trkpt>
      <trkpt lat="45.69809" lon="6.45318">
        <ele>1543</ele>
        <time>2022-07-16T03:20:07Z</time>
      </trkpt>
      <trkpt lat="45.69809" lon="6.45321">
        <ele>1544</ele>
        <time>2022-07-16T03:20:09Z</time>
      </trkpt>
      <trkpt lat="45.6981" lon="6.45325">
        <ele>1545</ele>
        <time>2022-07-16T03:20:11Z</time>
      </trkpt>
      <trkpt lat="45.6981" lon="6.45328">
        <ele>1545</ele>
        <time>2022-07-16T03:20:13Z</time>
      </trkpt>
      <trkpt lat="45.69811" lon="6.45331">
        <ele>1546</ele>
        <time>2022-07-16T03:20:15Z</time>
      </trkpt>
      <trkpt lat="45.6981" lon="6.45335">
        <ele>1546</ele>
        <time>2022-07-16T03:20:17Z</time>
      </trkpt>
      <trkpt lat="45.69809" lon="6.45338">
        <ele>1546</ele>
        <time>2022-07-16T03:20:19Z</time>
      </trkpt>
      <trkpt lat="45.69806" lon="6.4534">
        <ele>1547</ele>
        <time>2022-07-16T03:20:21Z</time>
      </trkpt>
      <trkpt lat="45.69805" lon="6.45341">
        <ele>1547</ele>
        <time>2022-07-16T03:20:23Z</time>
      </trkpt>
      <trkpt lat="45.69803" lon="6.4534">
        <ele>1549</ele>
        <time>2022-07-16T03:20:27Z</time>
      </trkpt>
      <trkpt lat="45.69801" lon="6.45341">
        <ele>1550</ele>
        <time>2022-07-16T03:20:33Z</time>
      </trkpt>
      <trkpt lat="45.69799" lon="6.4534">
        <ele>1551</ele>
        <time>2022-07-16T03:20:36Z</time>
      </trkpt>
      <trkpt lat="45.69797" lon="6.45338">
        <ele>1552</ele>
        <time>2022-07-16T03:20:39Z</time>
      </trkpt>
      <trkpt lat="45.69795" lon="6.45337">
        <ele>1552</ele>
        <time>2022-07-16T03:20:40Z</time>
      </trkpt>
      <trkpt lat="45.69793" lon="6.45335">
        <ele>1552</ele>
        <time>2022-07-16T03:20:42Z</time>
      </trkpt>
      <trkpt lat="45.6979" lon="6.45333">
        <ele>1552</ele>
        <time>2022-07-16T03:20:45Z</time>
      </trkpt>
      <trkpt lat="45.69788" lon="6.45332">
        <ele>1553</ele>
        <time>2022-07-16T03:20:47Z</time>
      </trkpt>
      <trkpt lat="45.69787" lon="6.45331">
        <ele>1553</ele>
        <time>2022-07-16T03:20:49Z</time>
      </trkpt>
      <trkpt lat="45.69785" lon="6.4533">
        <ele>1554</ele>
        <time>2022-07-16T03:20:51Z</time>
      </trkpt>
      <trkpt lat="45.69783" lon="6.45328">
        <ele>1554</ele>
        <time>2022-07-16T03:20:54Z</time>
      </trkpt>
      <trkpt lat="45.69781" lon="6.45327">
        <ele>1555</ele>
        <time>2022-07-16T03:20:56Z</time>
      </trkpt>
      <trkpt lat="45.6978" lon="6.45326">
        <ele>1555</ele>
        <time>2022-07-16T03:20:58Z</time>
      </trkpt>
      <trkpt lat="45.69778" lon="6.45323">
        <ele>1556</ele>
        <time>2022-07-16T03:21:01Z</time>
      </trkpt>
      <trkpt lat="45.69776" lon="6.45322">
        <ele>1556</ele>
        <time>2022-07-16T03:21:03Z</time>
      </trkpt>
      <trkpt lat="45.69774" lon="6.4532">
        <ele>1557</ele>
        <time>2022-07-16T03:21:06Z</time>
      </trkpt>
      <trkpt lat="45.69773" lon="6.45318">
        <ele>1558</ele>
        <time>2022-07-16T03:21:08Z</time>
      </trkpt>
      <trkpt lat="45.69771" lon="6.45317">
        <ele>1558</ele>
        <time>2022-07-16T03:21:09Z</time>
      </trkpt>
      <trkpt lat="45.6977" lon="6.45316">
        <ele>1558</ele>
        <time>2022-07-16T03:21:10Z</time>
      </trkpt>
      <trkpt lat="45.69769" lon="6.45315">
        <ele>1559</ele>
        <time>2022-07-16T03:21:11Z</time>
      </trkpt>
      <trkpt lat="45.69768" lon="6.45314">
        <ele>1559</ele>
        <time>2022-07-16T03:21:12Z</time>
      </trkpt>
      <trkpt lat="45.69767" lon="6.45313">
        <ele>1559</ele>
        <time>2022-07-16T03:21:13Z</time>
      </trkpt>
      <trkpt lat="45.69765" lon="6.45312">
        <ele>1559</ele>
        <time>2022-07-16T03:21:14Z</time>
      </trkpt>
      <trkpt lat="45.69763" lon="6.45312">
        <ele>1559</ele>
        <time>2022-07-16T03:21:15Z</time>
      </trkpt>
      <trkpt lat="45.69761" lon="6.45311">
        <ele>1559</ele>
        <time>2022-07-16T03:21:17Z</time>
      </trkpt>
      <trkpt lat="45.69759" lon="6.4531">
        <ele>1559</ele>
        <time>2022-07-16T03:21:19Z</time>
      </trkpt>
      <trkpt lat="45.69756" lon="6.45309">
        <ele>1560</ele>
        <time>2022-07-16T03:21:22Z</time>
      </trkpt>
      <trkpt lat="45.69753" lon="6.45308">
        <ele>1561</ele>
        <time>2022-07-16T03:21:25Z</time>
      </trkpt>
      <trkpt lat="45.69751" lon="6.45308">
        <ele>1561</ele>
        <time>2022-07-16T03:21:27Z</time>
      </trkpt>
      <trkpt lat="45.69749" lon="6.45308">
        <ele>1562</ele>
        <time>2022-07-16T03:21:30Z</time>
      </trkpt>
      <trkpt lat="45.69748" lon="6.45308">
        <ele>1562</ele>
        <time>2022-07-16T03:21:31Z</time>
      </trkpt>
      <trkpt lat="45.69747" lon="6.45308">
        <ele>1562</ele>
        <time>2022-07-16T03:21:32Z</time>
      </trkpt>
      <trkpt lat="45.69746" lon="6.45308">
        <ele>1562</ele>
        <time>2022-07-16T03:21:33Z</time>
      </trkpt>
      <trkpt lat="45.69745" lon="6.45309">
        <ele>1562</ele>
        <time>2022-07-16T03:21:34Z</time>
      </trkpt>
      <trkpt lat="45.69744" lon="6.45309">
        <ele>1563</ele>
        <time>2022-07-16T03:21:35Z</time>
      </trkpt>
      <trkpt lat="45.69743" lon="6.45309">
        <ele>1563</ele>
        <time>2022-07-16T03:21:36Z</time>
      </trkpt>
      <trkpt lat="45.69742" lon="6.45309">
        <ele>1563</ele>
        <time>2022-07-16T03:21:38Z</time>
      </trkpt>
      <trkpt lat="45.69741" lon="6.45309">
        <ele>1563</ele>
        <time>2022-07-16T03:21:39Z</time>
      </trkpt>
      <trkpt lat="45.6974" lon="6.4531">
        <ele>1563</ele>
        <time>2022-07-16T03:21:40Z</time>
      </trkpt>
      <trkpt lat="45.69739" lon="6.4531">
        <ele>1564</ele>
        <time>2022-07-16T03:21:41Z</time>
      </trkpt>
      <trkpt lat="45.69738" lon="6.4531">
        <ele>1564</ele>
        <time>2022-07-16T03:21:42Z</time>
      </trkpt>
      <trkpt lat="45.69737" lon="6.45311">
        <ele>1564</ele>
        <time>2022-07-16T03:21:43Z</time>
      </trkpt>
      <trkpt lat="45.69736" lon="6.45311">
        <ele>1564</ele>
        <time>2022-07-16T03:21:44Z</time>
      </trkpt>
      <trkpt lat="45.69735" lon="6.45312">
        <ele>1564</ele>
        <time>2022-07-16T03:21:45Z</time>
      </trkpt>
      <trkpt lat="45.69734" lon="6.45312">
        <ele>1565</ele>
        <time>2022-07-16T03:21:46Z</time>
      </trkpt>
      <trkpt lat="45.69733" lon="6.45312">
        <ele>1565</ele>
        <time>2022-07-16T03:21:47Z</time>
      </trkpt>
      <trkpt lat="45.69732" lon="6.45313">
        <ele>1565</ele>
        <time>2022-07-16T03:21:48Z</time>
      </trkpt>
      <trkpt lat="45.69731" lon="6.45313">
        <ele>1565</ele>
        <time>2022-07-16T03:21:49Z</time>
      </trkpt>
      <trkpt lat="45.6973" lon="6.45313">
        <ele>1565</ele>
        <time>2022-07-16T03:21:50Z</time>
      </trkpt>
      <trkpt lat="45.6973" lon="6.45314">
        <ele>1566</ele>
        <time>2022-07-16T03:21:51Z</time>
      </trkpt>
      <trkpt lat="45.69729" lon="6.45314">
        <ele>1566</ele>
        <time>2022-07-16T03:21:52Z</time>
      </trkpt>
      <trkpt lat="45.69728" lon="6.45314">
        <ele>1567</ele>
        <time>2022-07-16T03:21:53Z</time>
      </trkpt>
      <trkpt lat="45.69727" lon="6.45315">
        <ele>1567</ele>
        <time>2022-07-16T03:21:55Z</time>
      </trkpt>
      <trkpt lat="45.69726" lon="6.45315">
        <ele>1567</ele>
        <time>2022-07-16T03:21:57Z</time>
      </trkpt>
      <trkpt lat="45.69725" lon="6.45316">
        <ele>1567</ele>
        <time>2022-07-16T03:21:58Z</time>
      </trkpt>
      <trkpt lat="45.69724" lon="6.45316">
        <ele>1567</ele>
        <time>2022-07-16T03:22:00Z</time>
      </trkpt>
      <trkpt lat="45.69723" lon="6.45316">
        <ele>1567</ele>
        <time>2022-07-16T03:22:01Z</time>
      </trkpt>
      <trkpt lat="45.69723" lon="6.45317">
        <ele>1567</ele>
        <time>2022-07-16T03:22:02Z</time>
      </trkpt>
      <trkpt lat="45.69722" lon="6.45317">
        <ele>1567</ele>
        <time>2022-07-16T03:22:03Z</time>
      </trkpt>
      <trkpt lat="45.69721" lon="6.45317">
        <ele>1568</ele>
        <time>2022-07-16T03:22:04Z</time>
      </trkpt>
      <trkpt lat="45.69719" lon="6.45317">
        <ele>1568</ele>
        <time>2022-07-16T03:22:05Z</time>
      </trkpt>
      <trkpt lat="45.69718" lon="6.45318">
        <ele>1569</ele>
        <time>2022-07-16T03:22:06Z</time>
      </trkpt>
      <trkpt lat="45.69716" lon="6.45318">
        <ele>1569</ele>
        <time>2022-07-16T03:22:07Z</time>
      </trkpt>
      <trkpt lat="45.69715" lon="6.45318">
        <ele>1569</ele>
        <time>2022-07-16T03:22:08Z</time>
      </trkpt>
      <trkpt lat="45.69714" lon="6.45318">
        <ele>1569</ele>
        <time>2022-07-16T03:22:09Z</time>
      </trkpt>
      <trkpt lat="45.69712" lon="6.45318">
        <ele>1569</ele>
        <time>2022-07-16T03:22:10Z</time>
      </trkpt>
      <trkpt lat="45.69711" lon="6.45319">
        <ele>1569</ele>
        <time>2022-07-16T03:22:11Z</time>
      </trkpt>
      <trkpt lat="45.6971" lon="6.45319">
        <ele>1570</ele>
        <time>2022-07-16T03:22:12Z</time>
      </trkpt>
      <trkpt lat="45.69708" lon="6.45319">
        <ele>1570</ele>
        <time>2022-07-16T03:22:13Z</time>
      </trkpt>
      <trkpt lat="45.69707" lon="6.45319">
        <ele>1570</ele>
        <time>2022-07-16T03:22:14Z</time>
      </trkpt>
      <trkpt lat="45.69705" lon="6.45319">
        <ele>1570</ele>
        <time>2022-07-16T03:22:16Z</time>
      </trkpt>
      <trkpt lat="45.69704" lon="6.45319">
        <ele>1570</ele>
        <time>2022-07-16T03:22:17Z</time>
      </trkpt>
      <trkpt lat="45.69703" lon="6.4532">
        <ele>1570</ele>
        <time>2022-07-16T03:22:18Z</time>
      </trkpt>
      <trkpt lat="45.69702" lon="6.4532">
        <ele>1571</ele>
        <time>2022-07-16T03:22:19Z</time>
      </trkpt>
      <trkpt lat="45.69701" lon="6.4532">
        <ele>1571</ele>
        <time>2022-07-16T03:22:22Z</time>
      </trkpt>
      <trkpt lat="45.697" lon="6.4532">
        <ele>1571</ele>
        <time>2022-07-16T03:22:24Z</time>
      </trkpt>
      <trkpt lat="45.69699" lon="6.4532">
        <ele>1573</ele>
        <time>2022-07-16T03:22:27Z</time>
      </trkpt>
      <trkpt lat="45.69698" lon="6.4532">
        <ele>1574</ele>
        <time>2022-07-16T03:22:30Z</time>
      </trkpt>
      <trkpt lat="45.6969" lon="6.45321">
        <ele>1574</ele>
        <time>2022-07-16T03:22:33Z</time>
      </trkpt>
      <trkpt lat="45.69687" lon="6.45321">
        <ele>1574</ele>
        <time>2022-07-16T03:22:35Z</time>
      </trkpt>
      <trkpt lat="45.69685" lon="6.45321">
        <ele>1574</ele>
        <time>2022-07-16T03:22:36Z</time>
      </trkpt>
      <trkpt lat="45.69682" lon="6.45321">
        <ele>1575</ele>
        <time>2022-07-16T03:22:37Z</time>
      </trkpt>
      <trkpt lat="45.6968" lon="6.45322">
        <ele>1575</ele>
        <time>2022-07-16T03:22:38Z</time>
      </trkpt>
      <trkpt lat="45.69679" lon="6.45325">
        <ele>1576</ele>
        <time>2022-07-16T03:22:44Z</time>
      </trkpt>
      <trkpt lat="45.6968" lon="6.45328">
        <ele>1576</ele>
        <time>2022-07-16T03:22:48Z</time>
      </trkpt>
      <trkpt lat="45.69681" lon="6.4533">
        <ele>1577</ele>
        <time>2022-07-16T03:22:51Z</time>
      </trkpt>
      <trkpt lat="45.69682" lon="6.45333">
        <ele>1578</ele>
        <time>2022-07-16T03:22:55Z</time>
      </trkpt>
      <trkpt lat="45.69683" lon="6.45335">
        <ele>1579</ele>
        <time>2022-07-16T03:22:59Z</time>
      </trkpt>
      <trkpt lat="45.69683" lon="6.45338">
        <ele>1579</ele>
        <time>2022-07-16T03:23:02Z</time>
      </trkpt>
      <trkpt lat="45.69685" lon="6.45339">
        <ele>1580</ele>
        <time>2022-07-16T03:23:05Z</time>
      </trkpt>
      <trkpt lat="45.69686" lon="6.45342">
        <ele>1581</ele>
        <time>2022-07-16T03:23:08Z</time>
      </trkpt>
      <trkpt lat="45.69688" lon="6.45343">
        <ele>1581</ele>
        <time>2022-07-16T03:23:11Z</time>
      </trkpt>
      <trkpt lat="45.6969" lon="6.45345">
        <ele>1581</ele>
        <time>2022-07-16T03:23:14Z</time>
      </trkpt>
      <trkpt lat="45.69692" lon="6.45346">
        <ele>1582</ele>
        <time>2022-07-16T03:23:17Z</time>
      </trkpt>
      <trkpt lat="45.69694" lon="6.45348">
        <ele>1583</ele>
        <time>2022-07-16T03:23:21Z</time>
      </trkpt>
      <trkpt lat="45.69695" lon="6.45351">
        <ele>1584</ele>
        <time>2022-07-16T03:23:26Z</time>
      </trkpt>
      <trkpt lat="45.69697" lon="6.45353">
        <ele>1585</ele>
        <time>2022-07-16T03:23:30Z</time>
      </trkpt>
      <trkpt lat="45.69698" lon="6.45355">
        <ele>1585</ele>
        <time>2022-07-16T03:23:33Z</time>
      </trkpt>
      <trkpt lat="45.69699" lon="6.45358">
        <ele>1586</ele>
        <time>2022-07-16T03:23:37Z</time>
      </trkpt>
      <trkpt lat="45.69697" lon="6.4536">
        <ele>1586</ele>
        <time>2022-07-16T03:23:39Z</time>
      </trkpt>
      <trkpt lat="45.69695" lon="6.4536">
        <ele>1586</ele>
        <time>2022-07-16T03:23:41Z</time>
      </trkpt>
      <trkpt lat="45.69692" lon="6.45359">
        <ele>1587</ele>
        <time>2022-07-16T03:23:43Z</time>
      </trkpt>
      <trkpt lat="45.6969" lon="6.45358">
        <ele>1587</ele>
        <time>2022-07-16T03:23:45Z</time>
      </trkpt>
      <trkpt lat="45.69687" lon="6.45358">
        <ele>1588</ele>
        <time>2022-07-16T03:23:47Z</time>
      </trkpt>
      <trkpt lat="45.69684" lon="6.45357">
        <ele>1588</ele>
        <time>2022-07-16T03:23:49Z</time>
      </trkpt>
      <trkpt lat="45.69681" lon="6.45356">
        <ele>1588</ele>
        <time>2022-07-16T03:23:50Z</time>
      </trkpt>
      <trkpt lat="45.69678" lon="6.45356">
        <ele>1588</ele>
        <time>2022-07-16T03:23:53Z</time>
      </trkpt>
      <trkpt lat="45.69675" lon="6.45355">
        <ele>1588</ele>
        <time>2022-07-16T03:23:55Z</time>
      </trkpt>
      <trkpt lat="45.69672" lon="6.45354">
        <ele>1589</ele>
        <time>2022-07-16T03:23:57Z</time>
      </trkpt>
      <trkpt lat="45.69669" lon="6.45354">
        <ele>1589</ele>
        <time>2022-07-16T03:23:59Z</time>
      </trkpt>
      <trkpt lat="45.69667" lon="6.45354">
        <ele>1589</ele>
        <time>2022-07-16T03:24:01Z</time>
      </trkpt>
      <trkpt lat="45.69664" lon="6.45353">
        <ele>1589</ele>
        <time>2022-07-16T03:24:03Z</time>
      </trkpt>
      <trkpt lat="45.69661" lon="6.45353">
        <ele>1590</ele>
        <time>2022-07-16T03:24:05Z</time>
      </trkpt>
      <trkpt lat="45.69658" lon="6.45352">
        <ele>1590</ele>
        <time>2022-07-16T03:24:07Z</time>
      </trkpt>
      <trkpt lat="45.69656" lon="6.45352">
        <ele>1590</ele>
        <time>2022-07-16T03:24:09Z</time>
      </trkpt>
      <trkpt lat="45.69653" lon="6.45351">
        <ele>1590</ele>
        <time>2022-07-16T03:24:11Z</time>
      </trkpt>
      <trkpt lat="45.6965" lon="6.4535">
        <ele>1590</ele>
        <time>2022-07-16T03:24:13Z</time>
      </trkpt>
      <trkpt lat="45.69648" lon="6.4535">
        <ele>1591</ele>
        <time>2022-07-16T03:24:15Z</time>
      </trkpt>
      <trkpt lat="45.69645" lon="6.4535">
        <ele>1591</ele>
        <time>2022-07-16T03:24:17Z</time>
      </trkpt>
      <trkpt lat="45.69643" lon="6.4535">
        <ele>1591</ele>
        <time>2022-07-16T03:24:19Z</time>
      </trkpt>
      <trkpt lat="45.6964" lon="6.45351">
        <ele>1591</ele>
        <time>2022-07-16T03:24:21Z</time>
      </trkpt>
      <trkpt lat="45.69637" lon="6.45351">
        <ele>1591</ele>
        <time>2022-07-16T03:24:23Z</time>
      </trkpt>
      <trkpt lat="45.69633" lon="6.4535">
        <ele>1591</ele>
        <time>2022-07-16T03:24:25Z</time>
      </trkpt>
      <trkpt lat="45.69631" lon="6.45351">
        <ele>1592</ele>
        <time>2022-07-16T03:24:27Z</time>
      </trkpt>
      <trkpt lat="45.69628" lon="6.45351">
        <ele>1592</ele>
        <time>2022-07-16T03:24:29Z</time>
      </trkpt>
      <trkpt lat="45.69626" lon="6.45352">
        <ele>1593</ele>
        <time>2022-07-16T03:24:31Z</time>
      </trkpt>
      <trkpt lat="45.69623" lon="6.45352">
        <ele>1593</ele>
        <time>2022-07-16T03:24:33Z</time>
      </trkpt>
      <trkpt lat="45.69621" lon="6.45352">
        <ele>1593</ele>
        <time>2022-07-16T03:24:35Z</time>
      </trkpt>
      <trkpt lat="45.69619" lon="6.45354">
        <ele>1594</ele>
        <time>2022-07-16T03:24:37Z</time>
      </trkpt>
      <trkpt lat="45.69617" lon="6.45355">
        <ele>1594</ele>
        <time>2022-07-16T03:24:39Z</time>
      </trkpt>
      <trkpt lat="45.69615" lon="6.45355">
        <ele>1594</ele>
        <time>2022-07-16T03:24:40Z</time>
      </trkpt>
      <trkpt lat="45.69614" lon="6.45355">
        <ele>1594</ele>
        <time>2022-07-16T03:24:41Z</time>
      </trkpt>
      <trkpt lat="45.69613" lon="6.45356">
        <ele>1594</ele>
        <time>2022-07-16T03:24:42Z</time>
      </trkpt>
      <trkpt lat="45.69611" lon="6.45356">
        <ele>1594</ele>
        <time>2022-07-16T03:24:43Z</time>
      </trkpt>
      <trkpt lat="45.6961" lon="6.45356">
        <ele>1595</ele>
        <time>2022-07-16T03:24:44Z</time>
      </trkpt>
      <trkpt lat="45.69609" lon="6.45356">
        <ele>1595</ele>
        <time>2022-07-16T03:24:45Z</time>
      </trkpt>
      <trkpt lat="45.69607" lon="6.45356">
        <ele>1595</ele>
        <time>2022-07-16T03:24:46Z</time>
      </trkpt>
      <trkpt lat="45.69604" lon="6.45356">
        <ele>1595</ele>
        <time>2022-07-16T03:24:48Z</time>
      </trkpt>
      <trkpt lat="45.69603" lon="6.45357">
        <ele>1595</ele>
        <time>2022-07-16T03:24:49Z</time>
      </trkpt>
      <trkpt lat="45.69602" lon="6.45357">
        <ele>1595</ele>
        <time>2022-07-16T03:24:50Z</time>
      </trkpt>
      <trkpt lat="45.69601" lon="6.45357">
        <ele>1595</ele>
        <time>2022-07-16T03:24:51Z</time>
      </trkpt>
      <trkpt lat="45.696" lon="6.45358">
        <ele>1595</ele>
        <time>2022-07-16T03:24:52Z</time>
      </trkpt>
      <trkpt lat="45.69599" lon="6.45358">
        <ele>1595</ele>
        <time>2022-07-16T03:24:53Z</time>
      </trkpt>
      <trkpt lat="45.69598" lon="6.45359">
        <ele>1595</ele>
        <time>2022-07-16T03:24:54Z</time>
      </trkpt>
      <trkpt lat="45.69597" lon="6.45359">
        <ele>1595</ele>
        <time>2022-07-16T03:24:55Z</time>
      </trkpt>
      <trkpt lat="45.69596" lon="6.45359">
        <ele>1595</ele>
        <time>2022-07-16T03:24:56Z</time>
      </trkpt>
      <trkpt lat="45.69594" lon="6.4536">
        <ele>1595</ele>
        <time>2022-07-16T03:24:57Z</time>
      </trkpt>
      <trkpt lat="45.69593" lon="6.4536">
        <ele>1596</ele>
        <time>2022-07-16T03:24:58Z</time>
      </trkpt>
      <trkpt lat="45.69592" lon="6.4536">
        <ele>1596</ele>
        <time>2022-07-16T03:24:59Z</time>
      </trkpt>
      <trkpt lat="45.6959" lon="6.45361">
        <ele>1596</ele>
        <time>2022-07-16T03:25:00Z</time>
      </trkpt>
      <trkpt lat="45.69588" lon="6.45363">
        <ele>1596</ele>
        <time>2022-07-16T03:25:02Z</time>
      </trkpt>
      <trkpt lat="45.69586" lon="6.45365">
        <ele>1597</ele>
        <time>2022-07-16T03:25:04Z</time>
      </trkpt>
      <trkpt lat="45.69584" lon="6.45366">
        <ele>1597</ele>
        <time>2022-07-16T03:25:06Z</time>
      </trkpt>
      <trkpt lat="45.69582" lon="6.45369">
        <ele>1597</ele>
        <time>2022-07-16T03:25:08Z</time>
      </trkpt>
      <trkpt lat="45.69579" lon="6.45372">
        <ele>1597</ele>
        <time>2022-07-16T03:25:10Z</time>
      </trkpt>
      <trkpt lat="45.69577" lon="6.45374">
        <ele>1597</ele>
        <time>2022-07-16T03:25:12Z</time>
      </trkpt>
      <trkpt lat="45.69575" lon="6.45375">
        <ele>1597</ele>
        <time>2022-07-16T03:25:14Z</time>
      </trkpt>
      <trkpt lat="45.69573" lon="6.45378">
        <ele>1598</ele>
        <time>2022-07-16T03:25:16Z</time>
      </trkpt>
      <trkpt lat="45.69571" lon="6.45379">
        <ele>1598</ele>
        <time>2022-07-16T03:25:18Z</time>
      </trkpt>
      <trkpt lat="45.69569" lon="6.45381">
        <ele>1600</ele>
        <time>2022-07-16T03:25:21Z</time>
      </trkpt>
      <trkpt lat="45.69568" lon="6.45383">
        <ele>1601</ele>
        <time>2022-07-16T03:25:24Z</time>
      </trkpt>
      <trkpt lat="45.69566" lon="6.45385">
        <ele>1602</ele>
        <time>2022-07-16T03:25:27Z</time>
      </trkpt>
      <trkpt lat="45.69563" lon="6.45388">
        <ele>1603</ele>
        <time>2022-07-16T03:25:30Z</time>
      </trkpt>
      <trkpt lat="45.69561" lon="6.45388">
        <ele>1603</ele>
        <time>2022-07-16T03:25:32Z</time>
      </trkpt>
      <trkpt lat="45.69559" lon="6.45388">
        <ele>1603</ele>
        <time>2022-07-16T03:25:35Z</time>
      </trkpt>
      <trkpt lat="45.69557" lon="6.4539">
        <ele>1603</ele>
        <time>2022-07-16T03:25:37Z</time>
      </trkpt>
      <trkpt lat="45.69555" lon="6.45392">
        <ele>1604</ele>
        <time>2022-07-16T03:25:39Z</time>
      </trkpt>
      <trkpt lat="45.69553" lon="6.45394">
        <ele>1605</ele>
        <time>2022-07-16T03:25:43Z</time>
      </trkpt>
      <trkpt lat="45.69552" lon="6.45396">
        <ele>1605</ele>
        <time>2022-07-16T03:25:44Z</time>
      </trkpt>
      <trkpt lat="45.6955" lon="6.45398">
        <ele>1606</ele>
        <time>2022-07-16T03:25:48Z</time>
      </trkpt>
      <trkpt lat="45.69548" lon="6.454">
        <ele>1607</ele>
        <time>2022-07-16T03:25:50Z</time>
      </trkpt>
      <trkpt lat="45.69547" lon="6.454">
        <ele>1607</ele>
        <time>2022-07-16T03:25:51Z</time>
      </trkpt>
      <trkpt lat="45.69547" lon="6.45401">
        <ele>1608</ele>
        <time>2022-07-16T03:25:52Z</time>
      </trkpt>
      <trkpt lat="45.69546" lon="6.45401">
        <ele>1608</ele>
        <time>2022-07-16T03:25:53Z</time>
      </trkpt>
      <trkpt lat="45.69545" lon="6.45402">
        <ele>1608</ele>
        <time>2022-07-16T03:25:54Z</time>
      </trkpt>
      <trkpt lat="45.69544" lon="6.45402">
        <ele>1608</ele>
        <time>2022-07-16T03:25:55Z</time>
      </trkpt>
      <trkpt lat="45.69544" lon="6.45403">
        <ele>1609</ele>
        <time>2022-07-16T03:25:56Z</time>
      </trkpt>
      <trkpt lat="45.69543" lon="6.45403">
        <ele>1609</ele>
        <time>2022-07-16T03:25:57Z</time>
      </trkpt>
      <trkpt lat="45.69542" lon="6.45404">
        <ele>1609</ele>
        <time>2022-07-16T03:25:58Z</time>
      </trkpt>
      <trkpt lat="45.69541" lon="6.45405">
        <ele>1609</ele>
        <time>2022-07-16T03:25:59Z</time>
      </trkpt>
      <trkpt lat="45.6954" lon="6.45405">
        <ele>1609</ele>
        <time>2022-07-16T03:26:00Z</time>
      </trkpt>
      <trkpt lat="45.6954" lon="6.45406">
        <ele>1609</ele>
        <time>2022-07-16T03:26:01Z</time>
      </trkpt>
      <trkpt lat="45.69538" lon="6.45408">
        <ele>1609</ele>
        <time>2022-07-16T03:26:04Z</time>
      </trkpt>
      <trkpt lat="45.69535" lon="6.4541">
        <ele>1610</ele>
        <time>2022-07-16T03:26:06Z</time>
      </trkpt>
      <trkpt lat="45.69533" lon="6.4541">
        <ele>1610</ele>
        <time>2022-07-16T03:26:08Z</time>
      </trkpt>
      <trkpt lat="45.6953" lon="6.45412">
        <ele>1610</ele>
        <time>2022-07-16T03:26:10Z</time>
      </trkpt>
      <trkpt lat="45.69528" lon="6.45414">
        <ele>1611</ele>
        <time>2022-07-16T03:26:12Z</time>
      </trkpt>
      <trkpt lat="45.69527" lon="6.45415">
        <ele>1611</ele>
        <time>2022-07-16T03:26:13Z</time>
      </trkpt>
      <trkpt lat="45.69525" lon="6.45416">
        <ele>1611</ele>
        <time>2022-07-16T03:26:14Z</time>
      </trkpt>
      <trkpt lat="45.69523" lon="6.45418">
        <ele>1611</ele>
        <time>2022-07-16T03:26:15Z</time>
      </trkpt>
      <trkpt lat="45.69522" lon="6.45419">
        <ele>1612</ele>
        <time>2022-07-16T03:26:16Z</time>
      </trkpt>
      <trkpt lat="45.6952" lon="6.4542">
        <ele>1612</ele>
        <time>2022-07-16T03:26:17Z</time>
      </trkpt>
      <trkpt lat="45.69519" lon="6.45422">
        <ele>1612</ele>
        <time>2022-07-16T03:26:18Z</time>
      </trkpt>
      <trkpt lat="45.69518" lon="6.45423">
        <ele>1612</ele>
        <time>2022-07-16T03:26:19Z</time>
      </trkpt>
      <trkpt lat="45.69517" lon="6.45424">
        <ele>1612</ele>
        <time>2022-07-16T03:26:20Z</time>
      </trkpt>
      <trkpt lat="45.69517" lon="6.45426">
        <ele>1613</ele>
        <time>2022-07-16T03:26:21Z</time>
      </trkpt>
      <trkpt lat="45.69516" lon="6.45427">
        <ele>1613</ele>
        <time>2022-07-16T03:26:23Z</time>
      </trkpt>
      <trkpt lat="45.69515" lon="6.45428">
        <ele>1613</ele>
        <time>2022-07-16T03:26:24Z</time>
      </trkpt>
      <trkpt lat="45.69514" lon="6.45429">
        <ele>1614</ele>
        <time>2022-07-16T03:26:25Z</time>
      </trkpt>
      <trkpt lat="45.69513" lon="6.45431">
        <ele>1614</ele>
        <time>2022-07-16T03:26:26Z</time>
      </trkpt>
      <trkpt lat="45.69513" lon="6.45432">
        <ele>1614</ele>
        <time>2022-07-16T03:26:27Z</time>
      </trkpt>
      <trkpt lat="45.69512" lon="6.45433">
        <ele>1614</ele>
        <time>2022-07-16T03:26:28Z</time>
      </trkpt>
      <trkpt lat="45.69511" lon="6.45434">
        <ele>1614</ele>
        <time>2022-07-16T03:26:29Z</time>
      </trkpt>
      <trkpt lat="45.6951" lon="6.45434">
        <ele>1614</ele>
        <time>2022-07-16T03:26:30Z</time>
      </trkpt>
      <trkpt lat="45.69509" lon="6.45435">
        <ele>1614</ele>
        <time>2022-07-16T03:26:31Z</time>
      </trkpt>
      <trkpt lat="45.69508" lon="6.45435">
        <ele>1614</ele>
        <time>2022-07-16T03:26:32Z</time>
      </trkpt>
      <trkpt lat="45.69507" lon="6.45436">
        <ele>1615</ele>
        <time>2022-07-16T03:26:33Z</time>
      </trkpt>
      <trkpt lat="45.69506" lon="6.45436">
        <ele>1615</ele>
        <time>2022-07-16T03:26:34Z</time>
      </trkpt>
      <trkpt lat="45.69505" lon="6.45437">
        <ele>1615</ele>
        <time>2022-07-16T03:26:35Z</time>
      </trkpt>
      <trkpt lat="45.69503" lon="6.45438">
        <ele>1615</ele>
        <time>2022-07-16T03:26:37Z</time>
      </trkpt>
      <trkpt lat="45.69502" lon="6.45438">
        <ele>1615</ele>
        <time>2022-07-16T03:26:38Z</time>
      </trkpt>
      <trkpt lat="45.69501" lon="6.45439">
        <ele>1615</ele>
        <time>2022-07-16T03:26:39Z</time>
      </trkpt>
      <trkpt lat="45.695" lon="6.45439">
        <ele>1615</ele>
        <time>2022-07-16T03:26:41Z</time>
      </trkpt>
      <trkpt lat="45.69499" lon="6.4544">
        <ele>1615</ele>
        <time>2022-07-16T03:26:42Z</time>
      </trkpt>
      <trkpt lat="45.69498" lon="6.4544">
        <ele>1615</ele>
        <time>2022-07-16T03:26:43Z</time>
      </trkpt>
      <trkpt lat="45.69497" lon="6.45441">
        <ele>1616</ele>
        <time>2022-07-16T03:26:44Z</time>
      </trkpt>
      <trkpt lat="45.69496" lon="6.45441">
        <ele>1617</ele>
        <time>2022-07-16T03:26:45Z</time>
      </trkpt>
      <trkpt lat="45.69495" lon="6.45442">
        <ele>1617</ele>
        <time>2022-07-16T03:26:46Z</time>
      </trkpt>
      <trkpt lat="45.69494" lon="6.45442">
        <ele>1617</ele>
        <time>2022-07-16T03:26:47Z</time>
      </trkpt>
      <trkpt lat="45.69493" lon="6.45443">
        <ele>1618</ele>
        <time>2022-07-16T03:26:48Z</time>
      </trkpt>
      <trkpt lat="45.69492" lon="6.45443">
        <ele>1618</ele>
        <time>2022-07-16T03:26:49Z</time>
      </trkpt>
      <trkpt lat="45.69491" lon="6.45443">
        <ele>1618</ele>
        <time>2022-07-16T03:26:50Z</time>
      </trkpt>
      <trkpt lat="45.6949" lon="6.45444">
        <ele>1618</ele>
        <time>2022-07-16T03:26:51Z</time>
      </trkpt>
      <trkpt lat="45.69482" lon="6.45451">
        <ele>1619</ele>
        <time>2022-07-16T03:27:01Z</time>
      </trkpt>
      <trkpt lat="45.6948" lon="6.45453">
        <ele>1620</ele>
        <time>2022-07-16T03:27:03Z</time>
      </trkpt>
      <trkpt lat="45.69477" lon="6.45456">
        <ele>1621</ele>
        <time>2022-07-16T03:27:05Z</time>
      </trkpt>
      <trkpt lat="45.69474" lon="6.45458">
        <ele>1621</ele>
        <time>2022-07-16T03:27:07Z</time>
      </trkpt>
      <trkpt lat="45.69471" lon="6.45459">
        <ele>1621</ele>
        <time>2022-07-16T03:27:09Z</time>
      </trkpt>
      <trkpt lat="45.6947" lon="6.4546">
        <ele>1621</ele>
        <time>2022-07-16T03:27:10Z</time>
      </trkpt>
      <trkpt lat="45.69469" lon="6.45461">
        <ele>1621</ele>
        <time>2022-07-16T03:27:11Z</time>
      </trkpt>
      <trkpt lat="45.69467" lon="6.45462">
        <ele>1621</ele>
        <time>2022-07-16T03:27:12Z</time>
      </trkpt>
      <trkpt lat="45.69466" lon="6.45462">
        <ele>1621</ele>
        <time>2022-07-16T03:27:13Z</time>
      </trkpt>
      <trkpt lat="45.69465" lon="6.45463">
        <ele>1621</ele>
        <time>2022-07-16T03:27:14Z</time>
      </trkpt>
      <trkpt lat="45.69464" lon="6.45464">
        <ele>1621</ele>
        <time>2022-07-16T03:27:15Z</time>
      </trkpt>
      <trkpt lat="45.69463" lon="6.45465">
        <ele>1621</ele>
        <time>2022-07-16T03:27:16Z</time>
      </trkpt>
      <trkpt lat="45.69462" lon="6.45466">
        <ele>1621</ele>
        <time>2022-07-16T03:27:17Z</time>
      </trkpt>
      <trkpt lat="45.69461" lon="6.45466">
        <ele>1621</ele>
        <time>2022-07-16T03:27:18Z</time>
      </trkpt>
      <trkpt lat="45.6946" lon="6.45467">
        <ele>1621</ele>
        <time>2022-07-16T03:27:19Z</time>
      </trkpt>
      <trkpt lat="45.69459" lon="6.45467">
        <ele>1621</ele>
        <time>2022-07-16T03:27:20Z</time>
      </trkpt>
      <trkpt lat="45.69458" lon="6.45468">
        <ele>1621</ele>
        <time>2022-07-16T03:27:21Z</time>
      </trkpt>
      <trkpt lat="45.69457" lon="6.45468">
        <ele>1622</ele>
        <time>2022-07-16T03:27:22Z</time>
      </trkpt>
      <trkpt lat="45.69456" lon="6.45469">
        <ele>1622</ele>
        <time>2022-07-16T03:27:23Z</time>
      </trkpt>
      <trkpt lat="45.69455" lon="6.4547">
        <ele>1622</ele>
        <time>2022-07-16T03:27:24Z</time>
      </trkpt>
      <trkpt lat="45.69454" lon="6.4547">
        <ele>1622</ele>
        <time>2022-07-16T03:27:25Z</time>
      </trkpt>
      <trkpt lat="45.69453" lon="6.45471">
        <ele>1622</ele>
        <time>2022-07-16T03:27:26Z</time>
      </trkpt>
      <trkpt lat="45.69452" lon="6.45472">
        <ele>1623</ele>
        <time>2022-07-16T03:27:27Z</time>
      </trkpt>
      <trkpt lat="45.69451" lon="6.45473">
        <ele>1623</ele>
        <time>2022-07-16T03:27:28Z</time>
      </trkpt>
      <trkpt lat="45.6945" lon="6.45473">
        <ele>1623</ele>
        <time>2022-07-16T03:27:29Z</time>
      </trkpt>
      <trkpt lat="45.69449" lon="6.45474">
        <ele>1623</ele>
        <time>2022-07-16T03:27:30Z</time>
      </trkpt>
      <trkpt lat="45.69448" lon="6.45475">
        <ele>1623</ele>
        <time>2022-07-16T03:27:31Z</time>
      </trkpt>
      <trkpt lat="45.69447" lon="6.45476">
        <ele>1624</ele>
        <time>2022-07-16T03:27:32Z</time>
      </trkpt>
      <trkpt lat="45.69446" lon="6.45477">
        <ele>1624</ele>
        <time>2022-07-16T03:27:33Z</time>
      </trkpt>
      <trkpt lat="45.69445" lon="6.45477">
        <ele>1624</ele>
        <time>2022-07-16T03:27:34Z</time>
      </trkpt>
      <trkpt lat="45.69444" lon="6.45477">
        <ele>1624</ele>
        <time>2022-07-16T03:27:35Z</time>
      </trkpt>
      <trkpt lat="45.69444" lon="6.45478">
        <ele>1624</ele>
        <time>2022-07-16T03:27:36Z</time>
      </trkpt>
      <trkpt lat="45.69443" lon="6.45478">
        <ele>1625</ele>
        <time>2022-07-16T03:27:37Z</time>
      </trkpt>
      <trkpt lat="45.69442" lon="6.45479">
        <ele>1625</ele>
        <time>2022-07-16T03:27:38Z</time>
      </trkpt>
      <trkpt lat="45.69441" lon="6.45479">
        <ele>1625</ele>
        <time>2022-07-16T03:27:39Z</time>
      </trkpt>
      <trkpt lat="45.6944" lon="6.45479">
        <ele>1625</ele>
        <time>2022-07-16T03:27:40Z</time>
      </trkpt>
      <trkpt lat="45.69439" lon="6.4548">
        <ele>1625</ele>
        <time>2022-07-16T03:27:41Z</time>
      </trkpt>
      <trkpt lat="45.69438" lon="6.4548">
        <ele>1626</ele>
        <time>2022-07-16T03:27:42Z</time>
      </trkpt>
      <trkpt lat="45.69437" lon="6.45481">
        <ele>1626</ele>
        <time>2022-07-16T03:27:43Z</time>
      </trkpt>
      <trkpt lat="45.69436" lon="6.4548">
        <ele>1626</ele>
        <time>2022-07-16T03:27:44Z</time>
      </trkpt>
      <trkpt lat="45.69434" lon="6.4548">
        <ele>1626</ele>
        <time>2022-07-16T03:27:46Z</time>
      </trkpt>
      <trkpt lat="45.69433" lon="6.4548">
        <ele>1626</ele>
        <time>2022-07-16T03:27:47Z</time>
      </trkpt>
      <trkpt lat="45.69431" lon="6.4548">
        <ele>1626</ele>
        <time>2022-07-16T03:27:48Z</time>
      </trkpt>
      <trkpt lat="45.69429" lon="6.4548">
        <ele>1626</ele>
        <time>2022-07-16T03:27:49Z</time>
      </trkpt>
      <trkpt lat="45.69428" lon="6.4548">
        <ele>1627</ele>
        <time>2022-07-16T03:27:50Z</time>
      </trkpt>
      <trkpt lat="45.69426" lon="6.4548">
        <ele>1628</ele>
        <time>2022-07-16T03:27:51Z</time>
      </trkpt>
      <trkpt lat="45.69424" lon="6.45481">
        <ele>1628</ele>
        <time>2022-07-16T03:27:52Z</time>
      </trkpt>
      <trkpt lat="45.69422" lon="6.45481">
        <ele>1628</ele>
        <time>2022-07-16T03:27:53Z</time>
      </trkpt>
      <trkpt lat="45.69421" lon="6.45481">
        <ele>1628</ele>
        <time>2022-07-16T03:27:54Z</time>
      </trkpt>
      <trkpt lat="45.69419" lon="6.45482">
        <ele>1628</ele>
        <time>2022-07-16T03:27:55Z</time>
      </trkpt>
      <trkpt lat="45.69417" lon="6.45482">
        <ele>1628</ele>
        <time>2022-07-16T03:27:56Z</time>
      </trkpt>
      <trkpt lat="45.69416" lon="6.45483">
        <ele>1629</ele>
        <time>2022-07-16T03:27:58Z</time>
      </trkpt>
      <trkpt lat="45.69415" lon="6.45483">
        <ele>1630</ele>
        <time>2022-07-16T03:28:00Z</time>
      </trkpt>
      <trkpt lat="45.69415" lon="6.45484">
        <ele>1630</ele>
        <time>2022-07-16T03:28:01Z</time>
      </trkpt>
      <trkpt lat="45.69414" lon="6.45484">
        <ele>1630</ele>
        <time>2022-07-16T03:28:02Z</time>
      </trkpt>
      <trkpt lat="45.69413" lon="6.45484">
        <ele>1630</ele>
        <time>2022-07-16T03:28:03Z</time>
      </trkpt>
      <trkpt lat="45.69413" lon="6.45485">
        <ele>1630</ele>
        <time>2022-07-16T03:28:04Z</time>
      </trkpt>
      <trkpt lat="45.69412" lon="6.45485">
        <ele>1630</ele>
        <time>2022-07-16T03:28:05Z</time>
      </trkpt>
      <trkpt lat="45.69407" lon="6.45489">
        <ele>1631</ele>
        <time>2022-07-16T03:28:06Z</time>
      </trkpt>
      <trkpt lat="45.69406" lon="6.4549">
        <ele>1631</ele>
        <time>2022-07-16T03:28:08Z</time>
      </trkpt>
      <trkpt lat="45.69405" lon="6.45491">
        <ele>1631</ele>
        <time>2022-07-16T03:28:10Z</time>
      </trkpt>
      <trkpt lat="45.69404" lon="6.45492">
        <ele>1631</ele>
        <time>2022-07-16T03:28:12Z</time>
      </trkpt>
      <trkpt lat="45.69403" lon="6.45493">
        <ele>1632</ele>
        <time>2022-07-16T03:28:14Z</time>
      </trkpt>
      <trkpt lat="45.69402" lon="6.45494">
        <ele>1632</ele>
        <time>2022-07-16T03:28:15Z</time>
      </trkpt>
      <trkpt lat="45.69401" lon="6.45495">
        <ele>1632</ele>
        <time>2022-07-16T03:28:16Z</time>
      </trkpt>
      <trkpt lat="45.694" lon="6.45495">
        <ele>1632</ele>
        <time>2022-07-16T03:28:17Z</time>
      </trkpt>
      <trkpt lat="45.69399" lon="6.45496">
        <ele>1632</ele>
        <time>2022-07-16T03:28:18Z</time>
      </trkpt>
      <trkpt lat="45.69397" lon="6.45497">
        <ele>1633</ele>
        <time>2022-07-16T03:28:21Z</time>
      </trkpt>
      <trkpt lat="45.69394" lon="6.45499">
        <ele>1635</ele>
        <time>2022-07-16T03:28:25Z</time>
      </trkpt>
      <trkpt lat="45.69391" lon="6.45501">
        <ele>1635</ele>
        <time>2022-07-16T03:28:28Z</time>
      </trkpt>
      <trkpt lat="45.69388" lon="6.45502">
        <ele>1635</ele>
        <time>2022-07-16T03:28:30Z</time>
      </trkpt>
      <trkpt lat="45.69387" lon="6.45503">
        <ele>1636</ele>
        <time>2022-07-16T03:28:32Z</time>
      </trkpt>
      <trkpt lat="45.69386" lon="6.45503">
        <ele>1636</ele>
        <time>2022-07-16T03:28:33Z</time>
      </trkpt>
      <trkpt lat="45.69386" lon="6.45504">
        <ele>1636</ele>
        <time>2022-07-16T03:28:34Z</time>
      </trkpt>
      <trkpt lat="45.69385" lon="6.45504">
        <ele>1636</ele>
        <time>2022-07-16T03:28:35Z</time>
      </trkpt>
      <trkpt lat="45.69384" lon="6.45505">
        <ele>1636</ele>
        <time>2022-07-16T03:28:37Z</time>
      </trkpt>
      <trkpt lat="45.69383" lon="6.45505">
        <ele>1636</ele>
        <time>2022-07-16T03:28:38Z</time>
      </trkpt>
      <trkpt lat="45.69378" lon="6.45508">
        <ele>1637</ele>
        <time>2022-07-16T03:28:39Z</time>
      </trkpt>
      <trkpt lat="45.69376" lon="6.45509">
        <ele>1637</ele>
        <time>2022-07-16T03:28:40Z</time>
      </trkpt>
      <trkpt lat="45.69373" lon="6.4551">
        <ele>1637</ele>
        <time>2022-07-16T03:28:43Z</time>
      </trkpt>
      <trkpt lat="45.6937" lon="6.4551">
        <ele>1638</ele>
        <time>2022-07-16T03:28:45Z</time>
      </trkpt>
      <trkpt lat="45.69368" lon="6.4551">
        <ele>1638</ele>
        <time>2022-07-16T03:28:47Z</time>
      </trkpt>
      <trkpt lat="45.69366" lon="6.45513">
        <ele>1639</ele>
        <time>2022-07-16T03:28:50Z</time>
      </trkpt>
      <trkpt lat="45.69364" lon="6.45515">
        <ele>1639</ele>
        <time>2022-07-16T03:28:54Z</time>
      </trkpt>
      <trkpt lat="45.69363" lon="6.45515">
        <ele>1640</ele>
        <time>2022-07-16T03:28:57Z</time>
      </trkpt>
      <trkpt lat="45.69361" lon="6.45516">
        <ele>1640</ele>
        <time>2022-07-16T03:29:00Z</time>
      </trkpt>
      <trkpt lat="45.69359" lon="6.45517">
        <ele>1641</ele>
        <time>2022-07-16T03:29:03Z</time>
      </trkpt>
      <trkpt lat="45.69357" lon="6.45517">
        <ele>1641</ele>
        <time>2022-07-16T03:29:05Z</time>
      </trkpt>
      <trkpt lat="45.69355" lon="6.45519">
        <ele>1642</ele>
        <time>2022-07-16T03:29:07Z</time>
      </trkpt>
      <trkpt lat="45.69353" lon="6.45521">
        <ele>1643</ele>
        <time>2022-07-16T03:29:09Z</time>
      </trkpt>
      <trkpt lat="45.69351" lon="6.45522">
        <ele>1643</ele>
        <time>2022-07-16T03:29:11Z</time>
      </trkpt>
      <trkpt lat="45.6935" lon="6.45525">
        <ele>1643</ele>
        <time>2022-07-16T03:29:13Z</time>
      </trkpt>
      <trkpt lat="45.69347" lon="6.45525">
        <ele>1644</ele>
        <time>2022-07-16T03:29:17Z</time>
      </trkpt>
      <trkpt lat="45.69345" lon="6.45526">
        <ele>1644</ele>
        <time>2022-07-16T03:29:20Z</time>
      </trkpt>
      <trkpt lat="45.69343" lon="6.45527">
        <ele>1645</ele>
        <time>2022-07-16T03:29:23Z</time>
      </trkpt>
      <trkpt lat="45.69341" lon="6.45529">
        <ele>1646</ele>
        <time>2022-07-16T03:29:26Z</time>
      </trkpt>
      <trkpt lat="45.69339" lon="6.4553">
        <ele>1646</ele>
        <time>2022-07-16T03:29:28Z</time>
      </trkpt>
      <trkpt lat="45.69338" lon="6.45532">
        <ele>1648</ele>
        <time>2022-07-16T03:29:31Z</time>
      </trkpt>
      <trkpt lat="45.69336" lon="6.45534">
        <ele>1648</ele>
        <time>2022-07-16T03:29:35Z</time>
      </trkpt>
      <trkpt lat="45.69334" lon="6.45535">
        <ele>1648</ele>
        <time>2022-07-16T03:29:37Z</time>
      </trkpt>
      <trkpt lat="45.69332" lon="6.45536">
        <ele>1649</ele>
        <time>2022-07-16T03:29:40Z</time>
      </trkpt>
      <trkpt lat="45.6933" lon="6.45537">
        <ele>1650</ele>
        <time>2022-07-16T03:29:43Z</time>
      </trkpt>
      <trkpt lat="45.69329" lon="6.45538">
        <ele>1651</ele>
        <time>2022-07-16T03:29:46Z</time>
      </trkpt>
      <trkpt lat="45.69327" lon="6.4554">
        <ele>1651</ele>
        <time>2022-07-16T03:29:48Z</time>
      </trkpt>
      <trkpt lat="45.69325" lon="6.45542">
        <ele>1652</ele>
        <time>2022-07-16T03:29:51Z</time>
      </trkpt>
      <trkpt lat="45.69323" lon="6.45544">
        <ele>1653</ele>
        <time>2022-07-16T03:29:54Z</time>
      </trkpt>
      <trkpt lat="45.69321" lon="6.45546">
        <ele>1654</ele>
        <time>2022-07-16T03:29:56Z</time>
      </trkpt>
      <trkpt lat="45.69319" lon="6.45548">
        <ele>1654</ele>
        <time>2022-07-16T03:29:59Z</time>
      </trkpt>
      <trkpt lat="45.69318" lon="6.4555">
        <ele>1655</ele>
        <time>2022-07-16T03:30:00Z</time>
      </trkpt>
      <trkpt lat="45.69316" lon="6.45552">
        <ele>1656</ele>
        <time>2022-07-16T03:30:04Z</time>
      </trkpt>
      <trkpt lat="45.69314" lon="6.45554">
        <ele>1656</ele>
        <time>2022-07-16T03:30:06Z</time>
      </trkpt>
      <trkpt lat="45.69312" lon="6.45556">
        <ele>1657</ele>
        <time>2022-07-16T03:30:09Z</time>
      </trkpt>
      <trkpt lat="45.69311" lon="6.45559">
        <ele>1657</ele>
        <time>2022-07-16T03:30:11Z</time>
      </trkpt>
      <trkpt lat="45.69309" lon="6.45561">
        <ele>1657</ele>
        <time>2022-07-16T03:30:13Z</time>
      </trkpt>
      <trkpt lat="45.69308" lon="6.45562">
        <ele>1657</ele>
        <time>2022-07-16T03:30:14Z</time>
      </trkpt>
      <trkpt lat="45.69307" lon="6.45563">
        <ele>1657</ele>
        <time>2022-07-16T03:30:15Z</time>
      </trkpt>
      <trkpt lat="45.69306" lon="6.45564">
        <ele>1658</ele>
        <time>2022-07-16T03:30:17Z</time>
      </trkpt>
      <trkpt lat="45.69305" lon="6.45565">
        <ele>1658</ele>
        <time>2022-07-16T03:30:18Z</time>
      </trkpt>
      <trkpt lat="45.69304" lon="6.45566">
        <ele>1658</ele>
        <time>2022-07-16T03:30:19Z</time>
      </trkpt>
      <trkpt lat="45.69302" lon="6.45568">
        <ele>1659</ele>
        <time>2022-07-16T03:30:22Z</time>
      </trkpt>
      <trkpt lat="45.693" lon="6.4557">
        <ele>1660</ele>
        <time>2022-07-16T03:30:25Z</time>
      </trkpt>
      <trkpt lat="45.69298" lon="6.45571">
        <ele>1660</ele>
        <time>2022-07-16T03:30:27Z</time>
      </trkpt>
      <trkpt lat="45.69297" lon="6.45573">
        <ele>1661</ele>
        <time>2022-07-16T03:30:31Z</time>
      </trkpt>
      <trkpt lat="45.69295" lon="6.45574">
        <ele>1662</ele>
        <time>2022-07-16T03:30:33Z</time>
      </trkpt>
      <trkpt lat="45.69293" lon="6.45575">
        <ele>1663</ele>
        <time>2022-07-16T03:30:37Z</time>
      </trkpt>
      <trkpt lat="45.69291" lon="6.45576">
        <ele>1663</ele>
        <time>2022-07-16T03:30:40Z</time>
      </trkpt>
      <trkpt lat="45.69289" lon="6.45577">
        <ele>1664</ele>
        <time>2022-07-16T03:30:44Z</time>
      </trkpt>
      <trkpt lat="45.69287" lon="6.45579">
        <ele>1666</ele>
        <time>2022-07-16T03:30:48Z</time>
      </trkpt>
      <trkpt lat="45.69285" lon="6.45581">
        <ele>1667</ele>
        <time>2022-07-16T03:30:51Z</time>
      </trkpt>
      <trkpt lat="45.69283" lon="6.45583">
        <ele>1667</ele>
        <time>2022-07-16T03:30:54Z</time>
      </trkpt>
      <trkpt lat="45.69281" lon="6.45583">
        <ele>1668</ele>
        <time>2022-07-16T03:30:57Z</time>
      </trkpt>
      <trkpt lat="45.69279" lon="6.45585">
        <ele>1669</ele>
        <time>2022-07-16T03:31:00Z</time>
      </trkpt>
      <trkpt lat="45.69277" lon="6.45586">
        <ele>1670</ele>
        <time>2022-07-16T03:31:02Z</time>
      </trkpt>
      <trkpt lat="45.69275" lon="6.45588">
        <ele>1670</ele>
        <time>2022-07-16T03:31:05Z</time>
      </trkpt>
      <trkpt lat="45.69273" lon="6.45589">
        <ele>1670</ele>
        <time>2022-07-16T03:31:08Z</time>
      </trkpt>
      <trkpt lat="45.69271" lon="6.45589">
        <ele>1671</ele>
        <time>2022-07-16T03:31:11Z</time>
      </trkpt>
      <trkpt lat="45.69268" lon="6.45592">
        <ele>1672</ele>
        <time>2022-07-16T03:31:16Z</time>
      </trkpt>
      <trkpt lat="45.69266" lon="6.45592">
        <ele>1673</ele>
        <time>2022-07-16T03:31:19Z</time>
      </trkpt>
      <trkpt lat="45.69264" lon="6.45593">
        <ele>1674</ele>
        <time>2022-07-16T03:31:24Z</time>
      </trkpt>
      <trkpt lat="45.69263" lon="6.45595">
        <ele>1674</ele>
        <time>2022-07-16T03:31:26Z</time>
      </trkpt>
      <trkpt lat="45.69261" lon="6.45595">
        <ele>1676</ele>
        <time>2022-07-16T03:31:30Z</time>
      </trkpt>
      <trkpt lat="45.69259" lon="6.45596">
        <ele>1678</ele>
        <time>2022-07-16T03:31:36Z</time>
      </trkpt>
      <trkpt lat="45.69256" lon="6.45596">
        <ele>1678</ele>
        <time>2022-07-16T03:31:39Z</time>
      </trkpt>
      <trkpt lat="45.69254" lon="6.45596">
        <ele>1679</ele>
        <time>2022-07-16T03:31:43Z</time>
      </trkpt>
      <trkpt lat="45.69252" lon="6.45597">
        <ele>1679</ele>
        <time>2022-07-16T03:31:47Z</time>
      </trkpt>
      <trkpt lat="45.6925" lon="6.45598">
        <ele>1680</ele>
        <time>2022-07-16T03:31:51Z</time>
      </trkpt>
      <trkpt lat="45.69248" lon="6.456">
        <ele>1682</ele>
        <time>2022-07-16T03:31:56Z</time>
      </trkpt>
      <trkpt lat="45.69249" lon="6.45603">
        <ele>1683</ele>
        <time>2022-07-16T03:31:59Z</time>
      </trkpt>
      <trkpt lat="45.6925" lon="6.45606">
        <ele>1683</ele>
        <time>2022-07-16T03:32:01Z</time>
      </trkpt>
      <trkpt lat="45.69252" lon="6.45609">
        <ele>1683</ele>
        <time>2022-07-16T03:32:03Z</time>
      </trkpt>
      <trkpt lat="45.69253" lon="6.45612">
        <ele>1683</ele>
        <time>2022-07-16T03:32:05Z</time>
      </trkpt>
      <trkpt lat="45.69253" lon="6.45615">
        <ele>1683</ele>
        <time>2022-07-16T03:32:07Z</time>
      </trkpt>
      <trkpt lat="45.69255" lon="6.45616">
        <ele>1684</ele>
        <time>2022-07-16T03:32:09Z</time>
      </trkpt>
      <trkpt lat="45.69257" lon="6.45617">
        <ele>1685</ele>
        <time>2022-07-16T03:32:12Z</time>
      </trkpt>
      <trkpt lat="45.69259" lon="6.45617">
        <ele>1685</ele>
        <time>2022-07-16T03:32:15Z</time>
      </trkpt>
      <trkpt lat="45.69261" lon="6.45617">
        <ele>1685</ele>
        <time>2022-07-16T03:32:19Z</time>
      </trkpt>
      <trkpt lat="45.69262" lon="6.45618">
        <ele>1686</ele>
        <time>2022-07-16T03:32:23Z</time>
      </trkpt>
      <trkpt lat="45.69262" lon="6.45621">
        <ele>1687</ele>
        <time>2022-07-16T03:32:26Z</time>
      </trkpt>
      <trkpt lat="45.6926" lon="6.45623">
        <ele>1687</ele>
        <time>2022-07-16T03:32:29Z</time>
      </trkpt>
      <trkpt lat="45.69257" lon="6.45625">
        <ele>1688</ele>
        <time>2022-07-16T03:32:32Z</time>
      </trkpt>
      <trkpt lat="45.69255" lon="6.45626">
        <ele>1689</ele>
        <time>2022-07-16T03:32:35Z</time>
      </trkpt>
      <trkpt lat="45.69253" lon="6.45627">
        <ele>1690</ele>
        <time>2022-07-16T03:32:38Z</time>
      </trkpt>
      <trkpt lat="45.69251" lon="6.45629">
        <ele>1691</ele>
        <time>2022-07-16T03:32:41Z</time>
      </trkpt>
      <trkpt lat="45.69249" lon="6.45631">
        <ele>1691</ele>
        <time>2022-07-16T03:32:44Z</time>
      </trkpt>
      <trkpt lat="45.69248" lon="6.45634">
        <ele>1692</ele>
        <time>2022-07-16T03:32:47Z</time>
      </trkpt>
      <trkpt lat="45.69249" lon="6.45636">
        <ele>1693</ele>
        <time>2022-07-16T03:32:51Z</time>
      </trkpt>
      <trkpt lat="45.69251" lon="6.45639">
        <ele>1694</ele>
        <time>2022-07-16T03:32:54Z</time>
      </trkpt>
      <trkpt lat="45.69249" lon="6.45642">
        <ele>1694</ele>
        <time>2022-07-16T03:32:56Z</time>
      </trkpt>
      <trkpt lat="45.69247" lon="6.45642">
        <ele>1695</ele>
        <time>2022-07-16T03:32:59Z</time>
      </trkpt>
      <trkpt lat="45.69247" lon="6.45645">
        <ele>1697</ele>
        <time>2022-07-16T03:33:06Z</time>
      </trkpt>
      <trkpt lat="45.69247" lon="6.45649">
        <ele>1698</ele>
        <time>2022-07-16T03:33:09Z</time>
      </trkpt>
      <trkpt lat="45.69245" lon="6.4565">
        <ele>1698</ele>
        <time>2022-07-16T03:33:11Z</time>
      </trkpt>
      <trkpt lat="45.69243" lon="6.45651">
        <ele>1698</ele>
        <time>2022-07-16T03:33:13Z</time>
      </trkpt>
      <trkpt lat="45.6924" lon="6.45652">
        <ele>1698</ele>
        <time>2022-07-16T03:33:15Z</time>
      </trkpt>
      <trkpt lat="45.69238" lon="6.45654">
        <ele>1698</ele>
        <time>2022-07-16T03:33:17Z</time>
      </trkpt>
      <trkpt lat="45.69236" lon="6.45655">
        <ele>1698</ele>
        <time>2022-07-16T03:33:19Z</time>
      </trkpt>
      <trkpt lat="45.69234" lon="6.45655">
        <ele>1698</ele>
        <time>2022-07-16T03:33:20Z</time>
      </trkpt>
      <trkpt lat="45.69231" lon="6.45656">
        <ele>1698</ele>
        <time>2022-07-16T03:33:23Z</time>
      </trkpt>
      <trkpt lat="45.69228" lon="6.45657">
        <ele>1698</ele>
        <time>2022-07-16T03:33:25Z</time>
      </trkpt>
      <trkpt lat="45.69225" lon="6.45657">
        <ele>1699</ele>
        <time>2022-07-16T03:33:27Z</time>
      </trkpt>
      <trkpt lat="45.69222" lon="6.45659">
        <ele>1699</ele>
        <time>2022-07-16T03:33:32Z</time>
      </trkpt>
      <trkpt lat="45.69219" lon="6.4566">
        <ele>1700</ele>
        <time>2022-07-16T03:33:34Z</time>
      </trkpt>
      <trkpt lat="45.69216" lon="6.45661">
        <ele>1700</ele>
        <time>2022-07-16T03:33:36Z</time>
      </trkpt>
      <trkpt lat="45.69215" lon="6.45662">
        <ele>1700</ele>
        <time>2022-07-16T03:33:37Z</time>
      </trkpt>
      <trkpt lat="45.69212" lon="6.45663">
        <ele>1700</ele>
        <time>2022-07-16T03:33:39Z</time>
      </trkpt>
      <trkpt lat="45.6921" lon="6.45664">
        <ele>1701</ele>
        <time>2022-07-16T03:33:41Z</time>
      </trkpt>
      <trkpt lat="45.69207" lon="6.45665">
        <ele>1702</ele>
        <time>2022-07-16T03:33:43Z</time>
      </trkpt>
      <trkpt lat="45.69204" lon="6.45667">
        <ele>1702</ele>
        <time>2022-07-16T03:33:45Z</time>
      </trkpt>
      <trkpt lat="45.69202" lon="6.45667">
        <ele>1703</ele>
        <time>2022-07-16T03:33:47Z</time>
      </trkpt>
      <trkpt lat="45.692" lon="6.45669">
        <ele>1703</ele>
        <time>2022-07-16T03:33:49Z</time>
      </trkpt>
      <trkpt lat="45.69197" lon="6.4567">
        <ele>1704</ele>
        <time>2022-07-16T03:33:51Z</time>
      </trkpt>
      <trkpt lat="45.69194" lon="6.45672">
        <ele>1704</ele>
        <time>2022-07-16T03:33:53Z</time>
      </trkpt>
      <trkpt lat="45.69192" lon="6.45673">
        <ele>1704</ele>
        <time>2022-07-16T03:33:55Z</time>
      </trkpt>
      <trkpt lat="45.6919" lon="6.45675">
        <ele>1704</ele>
        <time>2022-07-16T03:33:57Z</time>
      </trkpt>
      <trkpt lat="45.69187" lon="6.45677">
        <ele>1704</ele>
        <time>2022-07-16T03:33:59Z</time>
      </trkpt>
      <trkpt lat="45.69185" lon="6.45678">
        <ele>1704</ele>
        <time>2022-07-16T03:34:01Z</time>
      </trkpt>
      <trkpt lat="45.69182" lon="6.45679">
        <ele>1705</ele>
        <time>2022-07-16T03:34:03Z</time>
      </trkpt>
      <trkpt lat="45.69179" lon="6.4568">
        <ele>1705</ele>
        <time>2022-07-16T03:34:05Z</time>
      </trkpt>
      <trkpt lat="45.69177" lon="6.45682">
        <ele>1705</ele>
        <time>2022-07-16T03:34:07Z</time>
      </trkpt>
      <trkpt lat="45.69175" lon="6.45683">
        <ele>1706</ele>
        <time>2022-07-16T03:34:09Z</time>
      </trkpt>
      <trkpt lat="45.69173" lon="6.45683">
        <ele>1707</ele>
        <time>2022-07-16T03:34:11Z</time>
      </trkpt>
      <trkpt lat="45.69171" lon="6.45683">
        <ele>1707</ele>
        <time>2022-07-16T03:34:13Z</time>
      </trkpt>
      <trkpt lat="45.69169" lon="6.45683">
        <ele>1707</ele>
        <time>2022-07-16T03:34:15Z</time>
      </trkpt>
      <trkpt lat="45.69167" lon="6.45684">
        <ele>1707</ele>
        <time>2022-07-16T03:34:17Z</time>
      </trkpt>
      <trkpt lat="45.69165" lon="6.45685">
        <ele>1708</ele>
        <time>2022-07-16T03:34:20Z</time>
      </trkpt>
      <trkpt lat="45.69162" lon="6.45686">
        <ele>1708</ele>
        <time>2022-07-16T03:34:22Z</time>
      </trkpt>
      <trkpt lat="45.69161" lon="6.45687">
        <ele>1709</ele>
        <time>2022-07-16T03:34:24Z</time>
      </trkpt>
      <trkpt lat="45.69158" lon="6.45688">
        <ele>1709</ele>
        <time>2022-07-16T03:34:27Z</time>
      </trkpt>
      <trkpt lat="45.69155" lon="6.45688">
        <ele>1709</ele>
        <time>2022-07-16T03:34:29Z</time>
      </trkpt>
      <trkpt lat="45.69153" lon="6.45689">
        <ele>1710</ele>
        <time>2022-07-16T03:34:31Z</time>
      </trkpt>
      <trkpt lat="45.6915" lon="6.4569">
        <ele>1711</ele>
        <time>2022-07-16T03:34:33Z</time>
      </trkpt>
      <trkpt lat="45.69148" lon="6.45691">
        <ele>1711</ele>
        <time>2022-07-16T03:34:35Z</time>
      </trkpt>
      <trkpt lat="45.69145" lon="6.45692">
        <ele>1711</ele>
        <time>2022-07-16T03:34:38Z</time>
      </trkpt>
      <trkpt lat="45.69143" lon="6.45693">
        <ele>1712</ele>
        <time>2022-07-16T03:34:40Z</time>
      </trkpt>
      <trkpt lat="45.69141" lon="6.45693">
        <ele>1712</ele>
        <time>2022-07-16T03:34:42Z</time>
      </trkpt>
      <trkpt lat="45.69139" lon="6.45695">
        <ele>1713</ele>
        <time>2022-07-16T03:34:44Z</time>
      </trkpt>
      <trkpt lat="45.69137" lon="6.45696">
        <ele>1713</ele>
        <time>2022-07-16T03:34:46Z</time>
      </trkpt>
      <trkpt lat="45.69135" lon="6.45696">
        <ele>1713</ele>
        <time>2022-07-16T03:34:48Z</time>
      </trkpt>
      <trkpt lat="45.69132" lon="6.45695">
        <ele>1714</ele>
        <time>2022-07-16T03:34:50Z</time>
      </trkpt>
      <trkpt lat="45.6913" lon="6.45695">
        <ele>1714</ele>
        <time>2022-07-16T03:34:52Z</time>
      </trkpt>
      <trkpt lat="45.69127" lon="6.45694">
        <ele>1714</ele>
        <time>2022-07-16T03:34:54Z</time>
      </trkpt>
      <trkpt lat="45.69124" lon="6.45694">
        <ele>1714</ele>
        <time>2022-07-16T03:34:55Z</time>
      </trkpt>
      <trkpt lat="45.69121" lon="6.45694">
        <ele>1715</ele>
        <time>2022-07-16T03:34:58Z</time>
      </trkpt>
      <trkpt lat="45.69118" lon="6.45694">
        <ele>1715</ele>
        <time>2022-07-16T03:35:00Z</time>
      </trkpt>
      <trkpt lat="45.69116" lon="6.45693">
        <ele>1716</ele>
        <time>2022-07-16T03:35:02Z</time>
      </trkpt>
      <trkpt lat="45.69113" lon="6.45693">
        <ele>1717</ele>
        <time>2022-07-16T03:35:04Z</time>
      </trkpt>
      <trkpt lat="45.69111" lon="6.45692">
        <ele>1717</ele>
        <time>2022-07-16T03:35:06Z</time>
      </trkpt>
      <trkpt lat="45.69108" lon="6.45692">
        <ele>1717</ele>
        <time>2022-07-16T03:35:08Z</time>
      </trkpt>
      <trkpt lat="45.69106" lon="6.45692">
        <ele>1718</ele>
        <time>2022-07-16T03:35:10Z</time>
      </trkpt>
      <trkpt lat="45.69103" lon="6.45692">
        <ele>1718</ele>
        <time>2022-07-16T03:35:12Z</time>
      </trkpt>
      <trkpt lat="45.69101" lon="6.45691">
        <ele>1718</ele>
        <time>2022-07-16T03:35:14Z</time>
      </trkpt>
      <trkpt lat="45.69099" lon="6.4569">
        <ele>1718</ele>
        <time>2022-07-16T03:35:15Z</time>
      </trkpt>
      <trkpt lat="45.69096" lon="6.4569">
        <ele>1719</ele>
        <time>2022-07-16T03:35:18Z</time>
      </trkpt>
      <trkpt lat="45.69094" lon="6.45688">
        <ele>1719</ele>
        <time>2022-07-16T03:35:20Z</time>
      </trkpt>
      <trkpt lat="45.69091" lon="6.45687">
        <ele>1720</ele>
        <time>2022-07-16T03:35:22Z</time>
      </trkpt>
      <trkpt lat="45.69088" lon="6.45687">
        <ele>1720</ele>
        <time>2022-07-16T03:35:24Z</time>
      </trkpt>
      <trkpt lat="45.69086" lon="6.45686">
        <ele>1720</ele>
        <time>2022-07-16T03:35:26Z</time>
      </trkpt>
      <trkpt lat="45.69083" lon="6.45685">
        <ele>1720</ele>
        <time>2022-07-16T03:35:28Z</time>
      </trkpt>
      <trkpt lat="45.69081" lon="6.45684">
        <ele>1720</ele>
        <time>2022-07-16T03:35:30Z</time>
      </trkpt>
      <trkpt lat="45.69078" lon="6.45683">
        <ele>1721</ele>
        <time>2022-07-16T03:35:32Z</time>
      </trkpt>
      <trkpt lat="45.69076" lon="6.45682">
        <ele>1721</ele>
        <time>2022-07-16T03:35:33Z</time>
      </trkpt>
      <trkpt lat="45.69073" lon="6.45681">
        <ele>1722</ele>
        <time>2022-07-16T03:35:36Z</time>
      </trkpt>
      <trkpt lat="45.69071" lon="6.45681">
        <ele>1722</ele>
        <time>2022-07-16T03:35:38Z</time>
      </trkpt>
      <trkpt lat="45.69068" lon="6.45679">
        <ele>1722</ele>
        <time>2022-07-16T03:35:42Z</time>
      </trkpt>
      <trkpt lat="45.69065" lon="6.45678">
        <ele>1722</ele>
        <time>2022-07-16T03:35:44Z</time>
      </trkpt>
      <trkpt lat="45.69062" lon="6.45676">
        <ele>1722</ele>
        <time>2022-07-16T03:35:46Z</time>
      </trkpt>
      <trkpt lat="45.69059" lon="6.45676">
        <ele>1722</ele>
        <time>2022-07-16T03:35:48Z</time>
      </trkpt>
      <trkpt lat="45.69056" lon="6.45675">
        <ele>1722</ele>
        <time>2022-07-16T03:35:50Z</time>
      </trkpt>
      <trkpt lat="45.69054" lon="6.45674">
        <ele>1722</ele>
        <time>2022-07-16T03:35:52Z</time>
      </trkpt>
      <trkpt lat="45.69051" lon="6.45673">
        <ele>1722</ele>
        <time>2022-07-16T03:35:54Z</time>
      </trkpt>
      <trkpt lat="45.69049" lon="6.45672">
        <ele>1723</ele>
        <time>2022-07-16T03:35:56Z</time>
      </trkpt>
      <trkpt lat="45.69045" lon="6.45671">
        <ele>1724</ele>
        <time>2022-07-16T03:35:58Z</time>
      </trkpt>
      <trkpt lat="45.69042" lon="6.4567">
        <ele>1724</ele>
        <time>2022-07-16T03:36:00Z</time>
      </trkpt>
      <trkpt lat="45.69039" lon="6.4567">
        <ele>1725</ele>
        <time>2022-07-16T03:36:02Z</time>
      </trkpt>
      <trkpt lat="45.69037" lon="6.45669">
        <ele>1725</ele>
        <time>2022-07-16T03:36:04Z</time>
      </trkpt>
      <trkpt lat="45.69035" lon="6.45668">
        <ele>1725</ele>
        <time>2022-07-16T03:36:06Z</time>
      </trkpt>
      <trkpt lat="45.69032" lon="6.45666">
        <ele>1726</ele>
        <time>2022-07-16T03:36:08Z</time>
      </trkpt>
      <trkpt lat="45.69029" lon="6.45665">
        <ele>1726</ele>
        <time>2022-07-16T03:36:10Z</time>
      </trkpt>
      <trkpt lat="45.69026" lon="6.45664">
        <ele>1726</ele>
        <time>2022-07-16T03:36:11Z</time>
      </trkpt>
      <trkpt lat="45.69024" lon="6.45663">
        <ele>1726</ele>
        <time>2022-07-16T03:36:14Z</time>
      </trkpt>
      <trkpt lat="45.69022" lon="6.45662">
        <ele>1727</ele>
        <time>2022-07-16T03:36:16Z</time>
      </trkpt>
      <trkpt lat="45.69019" lon="6.45661">
        <ele>1727</ele>
        <time>2022-07-16T03:36:18Z</time>
      </trkpt>
      <trkpt lat="45.69017" lon="6.45659">
        <ele>1727</ele>
        <time>2022-07-16T03:36:20Z</time>
      </trkpt>
      <trkpt lat="45.69015" lon="6.45658">
        <ele>1727</ele>
        <time>2022-07-16T03:36:22Z</time>
      </trkpt>
      <trkpt lat="45.69013" lon="6.45657">
        <ele>1727</ele>
        <time>2022-07-16T03:36:24Z</time>
      </trkpt>
      <trkpt lat="45.69009" lon="6.45656">
        <ele>1728</ele>
        <time>2022-07-16T03:36:26Z</time>
      </trkpt>
      <trkpt lat="45.69006" lon="6.45657">
        <ele>1728</ele>
        <time>2022-07-16T03:36:28Z</time>
      </trkpt>
      <trkpt lat="45.69004" lon="6.45656">
        <ele>1728</ele>
        <time>2022-07-16T03:36:30Z</time>
      </trkpt>
      <trkpt lat="45.69002" lon="6.45655">
        <ele>1728</ele>
        <time>2022-07-16T03:36:32Z</time>
      </trkpt>
      <trkpt lat="45.68999" lon="6.45655">
        <ele>1729</ele>
        <time>2022-07-16T03:36:34Z</time>
      </trkpt>
      <trkpt lat="45.68996" lon="6.45653">
        <ele>1729</ele>
        <time>2022-07-16T03:36:35Z</time>
      </trkpt>
      <trkpt lat="45.68995" lon="6.45652">
        <ele>1729</ele>
        <time>2022-07-16T03:36:38Z</time>
      </trkpt>
      <trkpt lat="45.68992" lon="6.4565">
        <ele>1729</ele>
        <time>2022-07-16T03:36:40Z</time>
      </trkpt>
      <trkpt lat="45.6899" lon="6.45649">
        <ele>1729</ele>
        <time>2022-07-16T03:36:42Z</time>
      </trkpt>
      <trkpt lat="45.68987" lon="6.45647">
        <ele>1730</ele>
        <time>2022-07-16T03:36:44Z</time>
      </trkpt>
      <trkpt lat="45.68984" lon="6.45646">
        <ele>1730</ele>
        <time>2022-07-16T03:36:46Z</time>
      </trkpt>
      <trkpt lat="45.68982" lon="6.45645">
        <ele>1730</ele>
        <time>2022-07-16T03:36:48Z</time>
      </trkpt>
      <trkpt lat="45.68979" lon="6.45644">
        <ele>1730</ele>
        <time>2022-07-16T03:36:50Z</time>
      </trkpt>
      <trkpt lat="45.68976" lon="6.45642">
        <ele>1730</ele>
        <time>2022-07-16T03:36:52Z</time>
      </trkpt>
      <trkpt lat="45.68973" lon="6.45641">
        <ele>1731</ele>
        <time>2022-07-16T03:36:54Z</time>
      </trkpt>
      <trkpt lat="45.6897" lon="6.4564">
        <ele>1731</ele>
        <time>2022-07-16T03:36:56Z</time>
      </trkpt>
      <trkpt lat="45.68968" lon="6.4564">
        <ele>1732</ele>
        <time>2022-07-16T03:36:58Z</time>
      </trkpt>
      <trkpt lat="45.68965" lon="6.45639">
        <ele>1732</ele>
        <time>2022-07-16T03:37:00Z</time>
      </trkpt>
      <trkpt lat="45.68962" lon="6.45638">
        <ele>1732</ele>
        <time>2022-07-16T03:37:02Z</time>
      </trkpt>
      <trkpt lat="45.68959" lon="6.45638">
        <ele>1732</ele>
        <time>2022-07-16T03:37:04Z</time>
      </trkpt>
      <trkpt lat="45.68957" lon="6.45638">
        <ele>1733</ele>
        <time>2022-07-16T03:37:06Z</time>
      </trkpt>
      <trkpt lat="45.68955" lon="6.45638">
        <ele>1734</ele>
        <time>2022-07-16T03:37:08Z</time>
      </trkpt>
      <trkpt lat="45.68953" lon="6.45636">
        <ele>1734</ele>
        <time>2022-07-16T03:37:10Z</time>
      </trkpt>
      <trkpt lat="45.68951" lon="6.45635">
        <ele>1735</ele>
        <time>2022-07-16T03:37:12Z</time>
      </trkpt>
      <trkpt lat="45.6895" lon="6.45633">
        <ele>1735</ele>
        <time>2022-07-16T03:37:14Z</time>
      </trkpt>
      <trkpt lat="45.68948" lon="6.45631">
        <ele>1735</ele>
        <time>2022-07-16T03:37:16Z</time>
      </trkpt>
      <trkpt lat="45.68946" lon="6.4563">
        <ele>1736</ele>
        <time>2022-07-16T03:37:18Z</time>
      </trkpt>
      <trkpt lat="45.68944" lon="6.45628">
        <ele>1736</ele>
        <time>2022-07-16T03:37:20Z</time>
      </trkpt>
      <trkpt lat="45.68943" lon="6.45627">
        <ele>1737</ele>
        <time>2022-07-16T03:37:22Z</time>
      </trkpt>
      <trkpt lat="45.68941" lon="6.45626">
        <ele>1737</ele>
        <time>2022-07-16T03:37:24Z</time>
      </trkpt>
      <trkpt lat="45.68938" lon="6.45625">
        <ele>1737</ele>
        <time>2022-07-16T03:37:26Z</time>
      </trkpt>
      <trkpt lat="45.68936" lon="6.45624">
        <ele>1737</ele>
        <time>2022-07-16T03:37:28Z</time>
      </trkpt>
      <trkpt lat="45.68934" lon="6.45623">
        <ele>1737</ele>
        <time>2022-07-16T03:37:30Z</time>
      </trkpt>
      <trkpt lat="45.68932" lon="6.45622">
        <ele>1738</ele>
        <time>2022-07-16T03:37:32Z</time>
      </trkpt>
      <trkpt lat="45.6893" lon="6.45622">
        <ele>1738</ele>
        <time>2022-07-16T03:37:34Z</time>
      </trkpt>
      <trkpt lat="45.68928" lon="6.45622">
        <ele>1738</ele>
        <time>2022-07-16T03:37:36Z</time>
      </trkpt>
      <trkpt lat="45.68925" lon="6.45622">
        <ele>1739</ele>
        <time>2022-07-16T03:37:38Z</time>
      </trkpt>
      <trkpt lat="45.68924" lon="6.45621">
        <ele>1740</ele>
        <time>2022-07-16T03:37:40Z</time>
      </trkpt>
      <trkpt lat="45.68921" lon="6.4562">
        <ele>1740</ele>
        <time>2022-07-16T03:37:42Z</time>
      </trkpt>
      <trkpt lat="45.68919" lon="6.4562">
        <ele>1740</ele>
        <time>2022-07-16T03:37:44Z</time>
      </trkpt>
      <trkpt lat="45.68916" lon="6.4562">
        <ele>1740</ele>
        <time>2022-07-16T03:37:46Z</time>
      </trkpt>
      <trkpt lat="45.68914" lon="6.45619">
        <ele>1742</ele>
        <time>2022-07-16T03:37:48Z</time>
      </trkpt>
      <trkpt lat="45.68912" lon="6.45619">
        <ele>1742</ele>
        <time>2022-07-16T03:37:50Z</time>
      </trkpt>
      <trkpt lat="45.6891" lon="6.45618">
        <ele>1743</ele>
        <time>2022-07-16T03:37:52Z</time>
      </trkpt>
      <trkpt lat="45.68911" lon="6.4562">
        <ele>1744</ele>
        <time>2022-07-16T03:37:56Z</time>
      </trkpt>
      <trkpt lat="45.68913" lon="6.45623">
        <ele>1744</ele>
        <time>2022-07-16T03:37:58Z</time>
      </trkpt>
      <trkpt lat="45.68915" lon="6.45626">
        <ele>1744</ele>
        <time>2022-07-16T03:38:00Z</time>
      </trkpt>
      <trkpt lat="45.68916" lon="6.45629">
        <ele>1744</ele>
        <time>2022-07-16T03:38:02Z</time>
      </trkpt>
      <trkpt lat="45.68917" lon="6.45631">
        <ele>1745</ele>
        <time>2022-07-16T03:38:04Z</time>
      </trkpt>
      <trkpt lat="45.68918" lon="6.45635">
        <ele>1745</ele>
        <time>2022-07-16T03:38:06Z</time>
      </trkpt>
      <trkpt lat="45.68919" lon="6.45637">
        <ele>1745</ele>
        <time>2022-07-16T03:38:08Z</time>
      </trkpt>
      <trkpt lat="45.68921" lon="6.4564">
        <ele>1746</ele>
        <time>2022-07-16T03:38:10Z</time>
      </trkpt>
      <trkpt lat="45.68923" lon="6.45641">
        <ele>1746</ele>
        <time>2022-07-16T03:38:13Z</time>
      </trkpt>
      <trkpt lat="45.68925" lon="6.45643">
        <ele>1746</ele>
        <time>2022-07-16T03:38:17Z</time>
      </trkpt>
      <trkpt lat="45.68927" lon="6.45644">
        <ele>1747</ele>
        <time>2022-07-16T03:38:20Z</time>
      </trkpt>
      <trkpt lat="45.68928" lon="6.45647">
        <ele>1747</ele>
        <time>2022-07-16T03:38:24Z</time>
      </trkpt>
      <trkpt lat="45.68928" lon="6.4565">
        <ele>1749</ele>
        <time>2022-07-16T03:38:29Z</time>
      </trkpt>
      <trkpt lat="45.68928" lon="6.45653">
        <ele>1749</ele>
        <time>2022-07-16T03:38:32Z</time>
      </trkpt>
      <trkpt lat="45.68929" lon="6.45657">
        <ele>1750</ele>
        <time>2022-07-16T03:38:35Z</time>
      </trkpt>
      <trkpt lat="45.6893" lon="6.4566">
        <ele>1751</ele>
        <time>2022-07-16T03:38:38Z</time>
      </trkpt>
      <trkpt lat="45.68931" lon="6.45664">
        <ele>1751</ele>
        <time>2022-07-16T03:38:41Z</time>
      </trkpt>
      <trkpt lat="45.68931" lon="6.45666">
        <ele>1752</ele>
        <time>2022-07-16T03:38:43Z</time>
      </trkpt>
      <trkpt lat="45.68931" lon="6.45669">
        <ele>1752</ele>
        <time>2022-07-16T03:38:45Z</time>
      </trkpt>
      <trkpt lat="45.68932" lon="6.45673">
        <ele>1753</ele>
        <time>2022-07-16T03:38:48Z</time>
      </trkpt>
      <trkpt lat="45.68933" lon="6.45675">
        <ele>1754</ele>
        <time>2022-07-16T03:38:53Z</time>
      </trkpt>
      <trkpt lat="45.68934" lon="6.45677">
        <ele>1754</ele>
        <time>2022-07-16T03:38:57Z</time>
      </trkpt>
      <trkpt lat="45.68935" lon="6.45681">
        <ele>1756</ele>
        <time>2022-07-16T03:39:02Z</time>
      </trkpt>
      <trkpt lat="45.68936" lon="6.45683">
        <ele>1756</ele>
        <time>2022-07-16T03:39:05Z</time>
      </trkpt>
      <trkpt lat="45.68937" lon="6.45687">
        <ele>1756</ele>
        <time>2022-07-16T03:39:08Z</time>
      </trkpt>
      <trkpt lat="45.68938" lon="6.4569">
        <ele>1757</ele>
        <time>2022-07-16T03:39:10Z</time>
      </trkpt>
      <trkpt lat="45.6894" lon="6.45692">
        <ele>1758</ele>
        <time>2022-07-16T03:39:13Z</time>
      </trkpt>
      <trkpt lat="45.68941" lon="6.45694">
        <ele>1759</ele>
        <time>2022-07-16T03:39:16Z</time>
      </trkpt>
      <trkpt lat="45.68942" lon="6.45697">
        <ele>1760</ele>
        <time>2022-07-16T03:39:19Z</time>
      </trkpt>
      <trkpt lat="45.68944" lon="6.457">
        <ele>1760</ele>
        <time>2022-07-16T03:39:22Z</time>
      </trkpt>
      <trkpt lat="45.68945" lon="6.45702">
        <ele>1762</ele>
        <time>2022-07-16T03:39:25Z</time>
      </trkpt>
      <trkpt lat="45.68947" lon="6.45704">
        <ele>1762</ele>
        <time>2022-07-16T03:39:29Z</time>
      </trkpt>
      <trkpt lat="45.68949" lon="6.45706">
        <ele>1763</ele>
        <time>2022-07-16T03:39:36Z</time>
      </trkpt>
      <trkpt lat="45.6895" lon="6.45707">
        <ele>1763</ele>
        <time>2022-07-16T03:39:39Z</time>
      </trkpt>
      <trkpt lat="45.68953" lon="6.45707">
        <ele>1763</ele>
        <time>2022-07-16T03:39:41Z</time>
      </trkpt>
      <trkpt lat="45.68954" lon="6.45708">
        <ele>1763</ele>
        <time>2022-07-16T03:39:44Z</time>
      </trkpt>
      <trkpt lat="45.68956" lon="6.4571">
        <ele>1764</ele>
        <time>2022-07-16T03:39:48Z</time>
      </trkpt>
      <trkpt lat="45.68957" lon="6.45711">
        <ele>1764</ele>
        <time>2022-07-16T03:39:53Z</time>
      </trkpt>
      <trkpt lat="45.68959" lon="6.45714">
        <ele>1765</ele>
        <time>2022-07-16T03:39:57Z</time>
      </trkpt>
      <trkpt lat="45.6896" lon="6.45716">
        <ele>1765</ele>
        <time>2022-07-16T03:39:59Z</time>
      </trkpt>
      <trkpt lat="45.68962" lon="6.45717">
        <ele>1765</ele>
        <time>2022-07-16T03:40:02Z</time>
      </trkpt>
      <trkpt lat="45.68963" lon="6.45719">
        <ele>1767</ele>
        <time>2022-07-16T03:40:05Z</time>
      </trkpt>
      <trkpt lat="45.68965" lon="6.45722">
        <ele>1767</ele>
        <time>2022-07-16T03:40:08Z</time>
      </trkpt>
      <trkpt lat="45.68966" lon="6.45725">
        <ele>1768</ele>
        <time>2022-07-16T03:40:10Z</time>
      </trkpt>
      <trkpt lat="45.68968" lon="6.45728">
        <ele>1768</ele>
        <time>2022-07-16T03:40:12Z</time>
      </trkpt>
      <trkpt lat="45.68969" lon="6.4573">
        <ele>1769</ele>
        <time>2022-07-16T03:40:14Z</time>
      </trkpt>
      <trkpt lat="45.68971" lon="6.45733">
        <ele>1770</ele>
        <time>2022-07-16T03:40:16Z</time>
      </trkpt>
      <trkpt lat="45.68973" lon="6.45735">
        <ele>1770</ele>
        <time>2022-07-16T03:40:18Z</time>
      </trkpt>
      <trkpt lat="45.68975" lon="6.45735">
        <ele>1770</ele>
        <time>2022-07-16T03:40:22Z</time>
      </trkpt>
      <trkpt lat="45.68977" lon="6.45737">
        <ele>1770</ele>
        <time>2022-07-16T03:40:25Z</time>
      </trkpt>
      <trkpt lat="45.68978" lon="6.4574">
        <ele>1771</ele>
        <time>2022-07-16T03:40:27Z</time>
      </trkpt>
      <trkpt lat="45.6898" lon="6.45741">
        <ele>1771</ele>
        <time>2022-07-16T03:40:30Z</time>
      </trkpt>
      <trkpt lat="45.68981" lon="6.45744">
        <ele>1773</ele>
        <time>2022-07-16T03:40:36Z</time>
      </trkpt>
      <trkpt lat="45.68982" lon="6.45747">
        <ele>1774</ele>
        <time>2022-07-16T03:40:41Z</time>
      </trkpt>
      <trkpt lat="45.68983" lon="6.4575">
        <ele>1775</ele>
        <time>2022-07-16T03:40:43Z</time>
      </trkpt>
      <trkpt lat="45.68982" lon="6.45754">
        <ele>1775</ele>
        <time>2022-07-16T03:40:45Z</time>
      </trkpt>
      <trkpt lat="45.68982" lon="6.45756">
        <ele>1775</ele>
        <time>2022-07-16T03:40:46Z</time>
      </trkpt>
      <trkpt lat="45.68982" lon="6.45757">
        <ele>1775</ele>
        <time>2022-07-16T03:40:47Z</time>
      </trkpt>
      <trkpt lat="45.68982" lon="6.45759">
        <ele>1775</ele>
        <time>2022-07-16T03:40:48Z</time>
      </trkpt>
      <trkpt lat="45.68982" lon="6.45761">
        <ele>1775</ele>
        <time>2022-07-16T03:40:49Z</time>
      </trkpt>
      <trkpt lat="45.68982" lon="6.45763">
        <ele>1775</ele>
        <time>2022-07-16T03:40:50Z</time>
      </trkpt>
      <trkpt lat="45.68982" lon="6.45765">
        <ele>1776</ele>
        <time>2022-07-16T03:40:51Z</time>
      </trkpt>
      <trkpt lat="45.68981" lon="6.45768">
        <ele>1776</ele>
        <time>2022-07-16T03:40:53Z</time>
      </trkpt>
      <trkpt lat="45.68981" lon="6.45772">
        <ele>1776</ele>
        <time>2022-07-16T03:40:55Z</time>
      </trkpt>
      <trkpt lat="45.6898" lon="6.45774">
        <ele>1776</ele>
        <time>2022-07-16T03:40:57Z</time>
      </trkpt>
      <trkpt lat="45.6898" lon="6.45777">
        <ele>1777</ele>
        <time>2022-07-16T03:41:00Z</time>
      </trkpt>
      <trkpt lat="45.68979" lon="6.4578">
        <ele>1777</ele>
        <time>2022-07-16T03:41:03Z</time>
      </trkpt>
      <trkpt lat="45.6898" lon="6.45783">
        <ele>1778</ele>
        <time>2022-07-16T03:41:06Z</time>
      </trkpt>
      <trkpt lat="45.68981" lon="6.45787">
        <ele>1779</ele>
        <time>2022-07-16T03:41:11Z</time>
      </trkpt>
      <trkpt lat="45.68981" lon="6.45789">
        <ele>1779</ele>
        <time>2022-07-16T03:41:14Z</time>
      </trkpt>
      <trkpt lat="45.68982" lon="6.45792">
        <ele>1779</ele>
        <time>2022-07-16T03:41:17Z</time>
      </trkpt>
      <trkpt lat="45.68984" lon="6.45794">
        <ele>1780</ele>
        <time>2022-07-16T03:41:21Z</time>
      </trkpt>
      <trkpt lat="45.68985" lon="6.45796">
        <ele>1781</ele>
        <time>2022-07-16T03:41:23Z</time>
      </trkpt>
      <trkpt lat="45.68986" lon="6.45798">
        <ele>1782</ele>
        <time>2022-07-16T03:41:27Z</time>
      </trkpt>
      <trkpt lat="45.68986" lon="6.45801">
        <ele>1782</ele>
        <time>2022-07-16T03:41:30Z</time>
      </trkpt>
      <trkpt lat="45.68987" lon="6.45804">
        <ele>1783</ele>
        <time>2022-07-16T03:41:35Z</time>
      </trkpt>
      <trkpt lat="45.68988" lon="6.45806">
        <ele>1784</ele>
        <time>2022-07-16T03:41:38Z</time>
      </trkpt>
      <trkpt lat="45.68988" lon="6.45809">
        <ele>1785</ele>
        <time>2022-07-16T03:41:42Z</time>
      </trkpt>
      <trkpt lat="45.68989" lon="6.45813">
        <ele>1785</ele>
        <time>2022-07-16T03:41:46Z</time>
      </trkpt>
      <trkpt lat="45.6899" lon="6.45815">
        <ele>1785</ele>
        <time>2022-07-16T03:41:48Z</time>
      </trkpt>
      <trkpt lat="45.68991" lon="6.45819">
        <ele>1787</ele>
        <time>2022-07-16T03:41:51Z</time>
      </trkpt>
      <trkpt lat="45.68993" lon="6.45821">
        <ele>1788</ele>
        <time>2022-07-16T03:41:53Z</time>
      </trkpt>
      <trkpt lat="45.68995" lon="6.45823">
        <ele>1788</ele>
        <time>2022-07-16T03:41:56Z</time>
      </trkpt>
      <trkpt lat="45.68996" lon="6.45826">
        <ele>1788</ele>
        <time>2022-07-16T03:41:59Z</time>
      </trkpt>
      <trkpt lat="45.68997" lon="6.45828">
        <ele>1788</ele>
        <time>2022-07-16T03:42:01Z</time>
      </trkpt>
      <trkpt lat="45.68997" lon="6.45831">
        <ele>1789</ele>
        <time>2022-07-16T03:42:04Z</time>
      </trkpt>
      <trkpt lat="45.68999" lon="6.45834">
        <ele>1790</ele>
        <time>2022-07-16T03:42:07Z</time>
      </trkpt>
      <trkpt lat="45.68999" lon="6.45837">
        <ele>1790</ele>
        <time>2022-07-16T03:42:09Z</time>
      </trkpt>
      <trkpt lat="45.68998" lon="6.4584">
        <ele>1790</ele>
        <time>2022-07-16T03:42:11Z</time>
      </trkpt>
      <trkpt lat="45.68998" lon="6.45843">
        <ele>1792</ele>
        <time>2022-07-16T03:42:15Z</time>
      </trkpt>
      <trkpt lat="45.68999" lon="6.45846">
        <ele>1793</ele>
        <time>2022-07-16T03:42:18Z</time>
      </trkpt>
      <trkpt lat="45.68999" lon="6.45849">
        <ele>1793</ele>
        <time>2022-07-16T03:42:22Z</time>
      </trkpt>
      <trkpt lat="45.68999" lon="6.45852">
        <ele>1794</ele>
        <time>2022-07-16T03:42:26Z</time>
      </trkpt>
      <trkpt lat="45.69" lon="6.45855">
        <ele>1795</ele>
        <time>2022-07-16T03:42:30Z</time>
      </trkpt>
      <trkpt lat="45.69" lon="6.45858">
        <ele>1797</ele>
        <time>2022-07-16T03:42:34Z</time>
      </trkpt>
      <trkpt lat="45.69001" lon="6.4586">
        <ele>1797</ele>
        <time>2022-07-16T03:42:37Z</time>
      </trkpt>
      <trkpt lat="45.69002" lon="6.45863">
        <ele>1797</ele>
        <time>2022-07-16T03:42:40Z</time>
      </trkpt>
      <trkpt lat="45.69002" lon="6.45866">
        <ele>1798</ele>
        <time>2022-07-16T03:42:43Z</time>
      </trkpt>
      <trkpt lat="45.69002" lon="6.45869">
        <ele>1798</ele>
        <time>2022-07-16T03:42:46Z</time>
      </trkpt>
      <trkpt lat="45.69003" lon="6.45871">
        <ele>1800</ele>
        <time>2022-07-16T03:42:49Z</time>
      </trkpt>
      <trkpt lat="45.69003" lon="6.45874">
        <ele>1801</ele>
        <time>2022-07-16T03:42:54Z</time>
      </trkpt>
      <trkpt lat="45.69004" lon="6.45877">
        <ele>1802</ele>
        <time>2022-07-16T03:42:58Z</time>
      </trkpt>
      <trkpt lat="45.69004" lon="6.4588">
        <ele>1802</ele>
        <time>2022-07-16T03:43:01Z</time>
      </trkpt>
      <trkpt lat="45.69004" lon="6.45883">
        <ele>1803</ele>
        <time>2022-07-16T03:43:04Z</time>
      </trkpt>
      <trkpt lat="45.69004" lon="6.45886">
        <ele>1804</ele>
        <time>2022-07-16T03:43:09Z</time>
      </trkpt>
      <trkpt lat="45.69003" lon="6.45889">
        <ele>1805</ele>
        <time>2022-07-16T03:43:13Z</time>
      </trkpt>
      <trkpt lat="45.69002" lon="6.45892">
        <ele>1806</ele>
        <time>2022-07-16T03:43:17Z</time>
      </trkpt>
      <trkpt lat="45.69002" lon="6.45895">
        <ele>1807</ele>
        <time>2022-07-16T03:43:20Z</time>
      </trkpt>
      <trkpt lat="45.69002" lon="6.45898">
        <ele>1808</ele>
        <time>2022-07-16T03:43:25Z</time>
      </trkpt>
      <trkpt lat="45.69002" lon="6.45901">
        <ele>1809</ele>
        <time>2022-07-16T03:43:31Z</time>
      </trkpt>
      <trkpt lat="45.69003" lon="6.45904">
        <ele>1809</ele>
        <time>2022-07-16T03:43:34Z</time>
      </trkpt>
      <trkpt lat="45.69004" lon="6.45907">
        <ele>1809</ele>
        <time>2022-07-16T03:43:37Z</time>
      </trkpt>
      <trkpt lat="45.69005" lon="6.4591">
        <ele>1810</ele>
        <time>2022-07-16T03:43:39Z</time>
      </trkpt>
      <trkpt lat="45.69005" lon="6.45912">
        <ele>1811</ele>
        <time>2022-07-16T03:43:43Z</time>
      </trkpt>
      <trkpt lat="45.69003" lon="6.45914">
        <ele>1813</ele>
        <time>2022-07-16T03:43:47Z</time>
      </trkpt>
      <trkpt lat="45.69005" lon="6.45916">
        <ele>1813</ele>
        <time>2022-07-16T03:43:50Z</time>
      </trkpt>
      <trkpt lat="45.69004" lon="6.45919">
        <ele>1814</ele>
        <time>2022-07-16T03:43:54Z</time>
      </trkpt>
      <trkpt lat="45.69005" lon="6.45921">
        <ele>1814</ele>
        <time>2022-07-16T03:43:57Z</time>
      </trkpt>
      <trkpt lat="45.69005" lon="6.45924">
        <ele>1815</ele>
        <time>2022-07-16T03:44:00Z</time>
      </trkpt>
      <trkpt lat="45.69005" lon="6.45927">
        <ele>1815</ele>
        <time>2022-07-16T03:44:03Z</time>
      </trkpt>
      <trkpt lat="45.69004" lon="6.4593">
        <ele>1816</ele>
        <time>2022-07-16T03:44:06Z</time>
      </trkpt>
      <trkpt lat="45.69003" lon="6.45933">
        <ele>1819</ele>
        <time>2022-07-16T03:44:14Z</time>
      </trkpt>
      <trkpt lat="45.69002" lon="6.45935">
        <ele>1820</ele>
        <time>2022-07-16T03:44:18Z</time>
      </trkpt>
      <trkpt lat="45.69002" lon="6.45938">
        <ele>1820</ele>
        <time>2022-07-16T03:44:22Z</time>
      </trkpt>
      <trkpt lat="45.69001" lon="6.45941">
        <ele>1821</ele>
        <time>2022-07-16T03:44:27Z</time>
      </trkpt>
      <trkpt lat="45.69" lon="6.45944">
        <ele>1822</ele>
        <time>2022-07-16T03:44:31Z</time>
      </trkpt>
      <trkpt lat="45.68998" lon="6.45945">
        <ele>1822</ele>
        <time>2022-07-16T03:44:34Z</time>
      </trkpt>
      <trkpt lat="45.68998" lon="6.45948">
        <ele>1824</ele>
        <time>2022-07-16T03:44:38Z</time>
      </trkpt>
      <trkpt lat="45.68997" lon="6.45951">
        <ele>1824</ele>
        <time>2022-07-16T03:44:42Z</time>
      </trkpt>
      <trkpt lat="45.68997" lon="6.45953">
        <ele>1826</ele>
        <time>2022-07-16T03:44:47Z</time>
      </trkpt>
      <trkpt lat="45.68995" lon="6.45956">
        <ele>1826</ele>
        <time>2022-07-16T03:44:50Z</time>
      </trkpt>
      <trkpt lat="45.68994" lon="6.45958">
        <ele>1826</ele>
        <time>2022-07-16T03:44:54Z</time>
      </trkpt>
      <trkpt lat="45.68994" lon="6.45961">
        <ele>1827</ele>
        <time>2022-07-16T03:44:58Z</time>
      </trkpt>
      <trkpt lat="45.68993" lon="6.45964">
        <ele>1827</ele>
        <time>2022-07-16T03:45:00Z</time>
      </trkpt>
      <trkpt lat="45.68993" lon="6.45967">
        <ele>1828</ele>
        <time>2022-07-16T03:45:04Z</time>
      </trkpt>
      <trkpt lat="45.68992" lon="6.4597">
        <ele>1829</ele>
        <time>2022-07-16T03:45:07Z</time>
      </trkpt>
      <trkpt lat="45.6899" lon="6.45971">
        <ele>1830</ele>
        <time>2022-07-16T03:45:10Z</time>
      </trkpt>
      <trkpt lat="45.68989" lon="6.45973">
        <ele>1831</ele>
        <time>2022-07-16T03:45:15Z</time>
      </trkpt>
      <trkpt lat="45.68988" lon="6.45976">
        <ele>1831</ele>
        <time>2022-07-16T03:45:18Z</time>
      </trkpt>
      <trkpt lat="45.68987" lon="6.45978">
        <ele>1832</ele>
        <time>2022-07-16T03:45:21Z</time>
      </trkpt>
      <trkpt lat="45.68987" lon="6.45981">
        <ele>1833</ele>
        <time>2022-07-16T03:45:24Z</time>
      </trkpt>
      <trkpt lat="45.68985" lon="6.45983">
        <ele>1833</ele>
        <time>2022-07-16T03:45:27Z</time>
      </trkpt>
      <trkpt lat="45.68986" lon="6.45987">
        <ele>1834</ele>
        <time>2022-07-16T03:45:32Z</time>
      </trkpt>
      <trkpt lat="45.68986" lon="6.45989">
        <ele>1836</ele>
        <time>2022-07-16T03:45:35Z</time>
      </trkpt>
      <trkpt lat="45.68985" lon="6.45992">
        <ele>1837</ele>
        <time>2022-07-16T03:45:39Z</time>
      </trkpt>
      <trkpt lat="45.68984" lon="6.45995">
        <ele>1837</ele>
        <time>2022-07-16T03:45:42Z</time>
      </trkpt>
      <trkpt lat="45.68984" lon="6.45998">
        <ele>1838</ele>
        <time>2022-07-16T03:45:47Z</time>
      </trkpt>
      <trkpt lat="45.68983" lon="6.46002">
        <ele>1840</ele>
        <time>2022-07-16T03:45:53Z</time>
      </trkpt>
      <trkpt lat="45.68982" lon="6.46004">
        <ele>1841</ele>
        <time>2022-07-16T03:45:57Z</time>
      </trkpt>
      <trkpt lat="45.68981" lon="6.46006">
        <ele>1842</ele>
        <time>2022-07-16T03:46:00Z</time>
      </trkpt>
      <trkpt lat="45.68979" lon="6.46008">
        <ele>1842</ele>
        <time>2022-07-16T03:46:04Z</time>
      </trkpt>
      <trkpt lat="45.68978" lon="6.46011">
        <ele>1843</ele>
        <time>2022-07-16T03:46:07Z</time>
      </trkpt>
      <trkpt lat="45.68977" lon="6.46014">
        <ele>1844</ele>
        <time>2022-07-16T03:46:10Z</time>
      </trkpt>
      <trkpt lat="45.68975" lon="6.46017">
        <ele>1845</ele>
        <time>2022-07-16T03:46:13Z</time>
      </trkpt>
      <trkpt lat="45.68973" lon="6.4602">
        <ele>1845</ele>
        <time>2022-07-16T03:46:16Z</time>
      </trkpt>
      <trkpt lat="45.68972" lon="6.46022">
        <ele>1846</ele>
        <time>2022-07-16T03:46:18Z</time>
      </trkpt>
      <trkpt lat="45.6897" lon="6.46024">
        <ele>1846</ele>
        <time>2022-07-16T03:46:19Z</time>
      </trkpt>
      <trkpt lat="45.6897" lon="6.46026">
        <ele>1847</ele>
        <time>2022-07-16T03:46:22Z</time>
      </trkpt>
      <trkpt lat="45.6897" lon="6.46029">
        <ele>1847</ele>
        <time>2022-07-16T03:46:24Z</time>
      </trkpt>
      <trkpt lat="45.68969" lon="6.46032">
        <ele>1848</ele>
        <time>2022-07-16T03:46:27Z</time>
      </trkpt>
      <trkpt lat="45.68969" lon="6.46035">
        <ele>1848</ele>
        <time>2022-07-16T03:46:29Z</time>
      </trkpt>
      <trkpt lat="45.68968" lon="6.46039">
        <ele>1848</ele>
        <time>2022-07-16T03:46:31Z</time>
      </trkpt>
      <trkpt lat="45.68968" lon="6.46043">
        <ele>1849</ele>
        <time>2022-07-16T03:46:33Z</time>
      </trkpt>
      <trkpt lat="45.68966" lon="6.46046">
        <ele>1849</ele>
        <time>2022-07-16T03:46:35Z</time>
      </trkpt>
      <trkpt lat="45.68964" lon="6.46049">
        <ele>1849</ele>
        <time>2022-07-16T03:46:37Z</time>
      </trkpt>
      <trkpt lat="45.68961" lon="6.46052">
        <ele>1849</ele>
        <time>2022-07-16T03:46:39Z</time>
      </trkpt>
      <trkpt lat="45.68959" lon="6.46055">
        <ele>1850</ele>
        <time>2022-07-16T03:46:41Z</time>
      </trkpt>
      <trkpt lat="45.68957" lon="6.46057">
        <ele>1850</ele>
        <time>2022-07-16T03:46:43Z</time>
      </trkpt>
      <trkpt lat="45.68955" lon="6.4606">
        <ele>1850</ele>
        <time>2022-07-16T03:46:45Z</time>
      </trkpt>
      <trkpt lat="45.68952" lon="6.46063">
        <ele>1850</ele>
        <time>2022-07-16T03:46:47Z</time>
      </trkpt>
      <trkpt lat="45.6895" lon="6.46066">
        <ele>1851</ele>
        <time>2022-07-16T03:46:49Z</time>
      </trkpt>
      <trkpt lat="45.68948" lon="6.46069">
        <ele>1851</ele>
        <time>2022-07-16T03:46:51Z</time>
      </trkpt>
      <trkpt lat="45.68946" lon="6.4607">
        <ele>1851</ele>
        <time>2022-07-16T03:46:53Z</time>
      </trkpt>
      <trkpt lat="45.68944" lon="6.46072">
        <ele>1851</ele>
        <time>2022-07-16T03:46:55Z</time>
      </trkpt>
      <trkpt lat="45.68943" lon="6.46074">
        <ele>1852</ele>
        <time>2022-07-16T03:46:57Z</time>
      </trkpt>
      <trkpt lat="45.68941" lon="6.46077">
        <ele>1853</ele>
        <time>2022-07-16T03:46:59Z</time>
      </trkpt>
      <trkpt lat="45.6894" lon="6.46079">
        <ele>1853</ele>
        <time>2022-07-16T03:47:01Z</time>
      </trkpt>
      <trkpt lat="45.68938" lon="6.46081">
        <ele>1854</ele>
        <time>2022-07-16T03:47:03Z</time>
      </trkpt>
      <trkpt lat="45.68937" lon="6.46084">
        <ele>1854</ele>
        <time>2022-07-16T03:47:05Z</time>
      </trkpt>
      <trkpt lat="45.68935" lon="6.46087">
        <ele>1854</ele>
        <time>2022-07-16T03:47:07Z</time>
      </trkpt>
      <trkpt lat="45.68934" lon="6.46089">
        <ele>1854</ele>
        <time>2022-07-16T03:47:09Z</time>
      </trkpt>
      <trkpt lat="45.68932" lon="6.46091">
        <ele>1855</ele>
        <time>2022-07-16T03:47:11Z</time>
      </trkpt>
      <trkpt lat="45.6893" lon="6.46094">
        <ele>1855</ele>
        <time>2022-07-16T03:47:13Z</time>
      </trkpt>
      <trkpt lat="45.68929" lon="6.46096">
        <ele>1857</ele>
        <time>2022-07-16T03:47:15Z</time>
      </trkpt>
      <trkpt lat="45.68926" lon="6.46099">
        <ele>1857</ele>
        <time>2022-07-16T03:47:16Z</time>
      </trkpt>
      <trkpt lat="45.68924" lon="6.46101">
        <ele>1857</ele>
        <time>2022-07-16T03:47:19Z</time>
      </trkpt>
      <trkpt lat="45.68921" lon="6.46104">
        <ele>1857</ele>
        <time>2022-07-16T03:47:21Z</time>
      </trkpt>
      <trkpt lat="45.68919" lon="6.46105">
        <ele>1857</ele>
        <time>2022-07-16T03:47:22Z</time>
      </trkpt>
      <trkpt lat="45.68917" lon="6.46107">
        <ele>1857</ele>
        <time>2022-07-16T03:47:23Z</time>
      </trkpt>
      <trkpt lat="45.68916" lon="6.46108">
        <ele>1856</ele>
        <time>2022-07-16T03:47:24Z</time>
      </trkpt>
      <trkpt lat="45.68914" lon="6.4611">
        <ele>1856</ele>
        <time>2022-07-16T03:47:25Z</time>
      </trkpt>
      <trkpt lat="45.68911" lon="6.46111">
        <ele>1856</ele>
        <time>2022-07-16T03:47:26Z</time>
      </trkpt>
      <trkpt lat="45.68909" lon="6.46113">
        <ele>1856</ele>
        <time>2022-07-16T03:47:27Z</time>
      </trkpt>
      <trkpt lat="45.68907" lon="6.46114">
        <ele>1857</ele>
        <time>2022-07-16T03:47:28Z</time>
      </trkpt>
      <trkpt lat="45.68905" lon="6.46116">
        <ele>1857</ele>
        <time>2022-07-16T03:47:29Z</time>
      </trkpt>
      <trkpt lat="45.68903" lon="6.46117">
        <ele>1856</ele>
        <time>2022-07-16T03:47:30Z</time>
      </trkpt>
      <trkpt lat="45.689" lon="6.46119">
        <ele>1856</ele>
        <time>2022-07-16T03:47:31Z</time>
      </trkpt>
      <trkpt lat="45.68898" lon="6.4612">
        <ele>1856</ele>
        <time>2022-07-16T03:47:32Z</time>
      </trkpt>
      <trkpt lat="45.68896" lon="6.46122">
        <ele>1856</ele>
        <time>2022-07-16T03:47:33Z</time>
      </trkpt>
      <trkpt lat="45.68894" lon="6.46124">
        <ele>1856</ele>
        <time>2022-07-16T03:47:34Z</time>
      </trkpt>
      <trkpt lat="45.68891" lon="6.46126">
        <ele>1856</ele>
        <time>2022-07-16T03:47:35Z</time>
      </trkpt>
      <trkpt lat="45.6889" lon="6.46126">
        <ele>1856</ele>
        <time>2022-07-16T03:47:36Z</time>
      </trkpt>
      <trkpt lat="45.68888" lon="6.46127">
        <ele>1855</ele>
        <time>2022-07-16T03:47:37Z</time>
      </trkpt>
      <trkpt lat="45.68885" lon="6.46128">
        <ele>1855</ele>
        <time>2022-07-16T03:47:38Z</time>
      </trkpt>
      <trkpt lat="45.68883" lon="6.46129">
        <ele>1855</ele>
        <time>2022-07-16T03:47:39Z</time>
      </trkpt>
      <trkpt lat="45.68881" lon="6.4613">
        <ele>1855</ele>
        <time>2022-07-16T03:47:40Z</time>
      </trkpt>
      <trkpt lat="45.68879" lon="6.46131">
        <ele>1855</ele>
        <time>2022-07-16T03:47:41Z</time>
      </trkpt>
      <trkpt lat="45.68877" lon="6.46132">
        <ele>1855</ele>
        <time>2022-07-16T03:47:42Z</time>
      </trkpt>
      <trkpt lat="45.68875" lon="6.46132">
        <ele>1854</ele>
        <time>2022-07-16T03:47:43Z</time>
      </trkpt>
      <trkpt lat="45.68873" lon="6.46132">
        <ele>1854</ele>
        <time>2022-07-16T03:47:44Z</time>
      </trkpt>
      <trkpt lat="45.68871" lon="6.46131">
        <ele>1853</ele>
        <time>2022-07-16T03:47:45Z</time>
      </trkpt>
      <trkpt lat="45.68869" lon="6.46131">
        <ele>1853</ele>
        <time>2022-07-16T03:47:46Z</time>
      </trkpt>
      <trkpt lat="45.68866" lon="6.46131">
        <ele>1853</ele>
        <time>2022-07-16T03:47:47Z</time>
      </trkpt>
      <trkpt lat="45.68864" lon="6.4613">
        <ele>1852</ele>
        <time>2022-07-16T03:47:48Z</time>
      </trkpt>
      <trkpt lat="45.68862" lon="6.46129">
        <ele>1852</ele>
        <time>2022-07-16T03:47:49Z</time>
      </trkpt>
      <trkpt lat="45.6886" lon="6.46128">
        <ele>1852</ele>
        <time>2022-07-16T03:47:50Z</time>
      </trkpt>
      <trkpt lat="45.68858" lon="6.46127">
        <ele>1851</ele>
        <time>2022-07-16T03:47:51Z</time>
      </trkpt>
      <trkpt lat="45.68856" lon="6.46127">
        <ele>1850</ele>
        <time>2022-07-16T03:47:52Z</time>
      </trkpt>
      <trkpt lat="45.68854" lon="6.46127">
        <ele>1850</ele>
        <time>2022-07-16T03:47:53Z</time>
      </trkpt>
      <trkpt lat="45.68852" lon="6.46127">
        <ele>1850</ele>
        <time>2022-07-16T03:47:54Z</time>
      </trkpt>
      <trkpt lat="45.6885" lon="6.46127">
        <ele>1850</ele>
        <time>2022-07-16T03:47:55Z</time>
      </trkpt>
      <trkpt lat="45.68848" lon="6.46126">
        <ele>1849</ele>
        <time>2022-07-16T03:47:56Z</time>
      </trkpt>
      <trkpt lat="45.68846" lon="6.46125">
        <ele>1849</ele>
        <time>2022-07-16T03:47:57Z</time>
      </trkpt>
      <trkpt lat="45.68844" lon="6.46124">
        <ele>1849</ele>
        <time>2022-07-16T03:47:58Z</time>
      </trkpt>
      <trkpt lat="45.68843" lon="6.46122">
        <ele>1849</ele>
        <time>2022-07-16T03:47:59Z</time>
      </trkpt>
      <trkpt lat="45.68841" lon="6.4612">
        <ele>1847</ele>
        <time>2022-07-16T03:48:00Z</time>
      </trkpt>
      <trkpt lat="45.68839" lon="6.46118">
        <ele>1847</ele>
        <time>2022-07-16T03:48:01Z</time>
      </trkpt>
      <trkpt lat="45.68837" lon="6.46116">
        <ele>1847</ele>
        <time>2022-07-16T03:48:02Z</time>
      </trkpt>
      <trkpt lat="45.68834" lon="6.46115">
        <ele>1846</ele>
        <time>2022-07-16T03:48:03Z</time>
      </trkpt>
      <trkpt lat="45.68832" lon="6.46114">
        <ele>1846</ele>
        <time>2022-07-16T03:48:04Z</time>
      </trkpt>
      <trkpt lat="45.6883" lon="6.46115">
        <ele>1846</ele>
        <time>2022-07-16T03:48:05Z</time>
      </trkpt>
      <trkpt lat="45.68828" lon="6.46116">
        <ele>1846</ele>
        <time>2022-07-16T03:48:06Z</time>
      </trkpt>
      <trkpt lat="45.68824" lon="6.46118">
        <ele>1846</ele>
        <time>2022-07-16T03:48:08Z</time>
      </trkpt>
      <trkpt lat="45.68821" lon="6.46118">
        <ele>1846</ele>
        <time>2022-07-16T03:48:10Z</time>
      </trkpt>
      <trkpt lat="45.68819" lon="6.46118">
        <ele>1846</ele>
        <time>2022-07-16T03:48:11Z</time>
      </trkpt>
      <trkpt lat="45.68817" lon="6.46119">
        <ele>1846</ele>
        <time>2022-07-16T03:48:12Z</time>
      </trkpt>
      <trkpt lat="45.68814" lon="6.46119">
        <ele>1846</ele>
        <time>2022-07-16T03:48:13Z</time>
      </trkpt>
      <trkpt lat="45.68812" lon="6.46121">
        <ele>1846</ele>
        <time>2022-07-16T03:48:14Z</time>
      </trkpt>
      <trkpt lat="45.6881" lon="6.46122">
        <ele>1846</ele>
        <time>2022-07-16T03:48:15Z</time>
      </trkpt>
      <trkpt lat="45.68808" lon="6.46126">
        <ele>1846</ele>
        <time>2022-07-16T03:48:17Z</time>
      </trkpt>
      <trkpt lat="45.68806" lon="6.46128">
        <ele>1846</ele>
        <time>2022-07-16T03:48:19Z</time>
      </trkpt>
      <trkpt lat="45.68805" lon="6.46129">
        <ele>1846</ele>
        <time>2022-07-16T03:48:21Z</time>
      </trkpt>
      <trkpt lat="45.68803" lon="6.46131">
        <ele>1847</ele>
        <time>2022-07-16T03:48:23Z</time>
      </trkpt>
      <trkpt lat="45.68802" lon="6.46133">
        <ele>1848</ele>
        <time>2022-07-16T03:48:25Z</time>
      </trkpt>
      <trkpt lat="45.688" lon="6.46134">
        <ele>1848</ele>
        <time>2022-07-16T03:48:27Z</time>
      </trkpt>
      <trkpt lat="45.68799" lon="6.46137">
        <ele>1848</ele>
        <time>2022-07-16T03:48:29Z</time>
      </trkpt>
      <trkpt lat="45.68797" lon="6.46139">
        <ele>1848</ele>
        <time>2022-07-16T03:48:31Z</time>
      </trkpt>
      <trkpt lat="45.68796" lon="6.46142">
        <ele>1849</ele>
        <time>2022-07-16T03:48:32Z</time>
      </trkpt>
      <trkpt lat="45.68795" lon="6.46144">
        <ele>1850</ele>
        <time>2022-07-16T03:48:35Z</time>
      </trkpt>
      <trkpt lat="45.68793" lon="6.46146">
        <ele>1850</ele>
        <time>2022-07-16T03:48:37Z</time>
      </trkpt>
      <trkpt lat="45.68791" lon="6.46147">
        <ele>1851</ele>
        <time>2022-07-16T03:48:39Z</time>
      </trkpt>
      <trkpt lat="45.68789" lon="6.46148">
        <ele>1851</ele>
        <time>2022-07-16T03:48:42Z</time>
      </trkpt>
      <trkpt lat="45.68788" lon="6.4615">
        <ele>1851</ele>
        <time>2022-07-16T03:48:44Z</time>
      </trkpt>
      <trkpt lat="45.68786" lon="6.46152">
        <ele>1852</ele>
        <time>2022-07-16T03:48:46Z</time>
      </trkpt>
      <trkpt lat="45.68784" lon="6.46153">
        <ele>1853</ele>
        <time>2022-07-16T03:48:48Z</time>
      </trkpt>
      <trkpt lat="45.68783" lon="6.46155">
        <ele>1853</ele>
        <time>2022-07-16T03:48:50Z</time>
      </trkpt>
      <trkpt lat="45.68781" lon="6.46158">
        <ele>1853</ele>
        <time>2022-07-16T03:48:53Z</time>
      </trkpt>
      <trkpt lat="45.6878" lon="6.46161">
        <ele>1853</ele>
        <time>2022-07-16T03:48:55Z</time>
      </trkpt>
      <trkpt lat="45.68778" lon="6.46163">
        <ele>1853</ele>
        <time>2022-07-16T03:48:57Z</time>
      </trkpt>
      <trkpt lat="45.68776" lon="6.46165">
        <ele>1853</ele>
        <time>2022-07-16T03:48:59Z</time>
      </trkpt>
      <trkpt lat="45.68775" lon="6.46167">
        <ele>1853</ele>
        <time>2022-07-16T03:49:01Z</time>
      </trkpt>
      <trkpt lat="45.68774" lon="6.4617">
        <ele>1854</ele>
        <time>2022-07-16T03:49:03Z</time>
      </trkpt>
      <trkpt lat="45.68774" lon="6.46172">
        <ele>1854</ele>
        <time>2022-07-16T03:49:05Z</time>
      </trkpt>
      <trkpt lat="45.68774" lon="6.46176">
        <ele>1854</ele>
        <time>2022-07-16T03:49:07Z</time>
      </trkpt>
      <trkpt lat="45.68773" lon="6.46179">
        <ele>1854</ele>
        <time>2022-07-16T03:49:09Z</time>
      </trkpt>
      <trkpt lat="45.68772" lon="6.46183">
        <ele>1854</ele>
        <time>2022-07-16T03:49:11Z</time>
      </trkpt>
      <trkpt lat="45.6877" lon="6.46186">
        <ele>1853</ele>
        <time>2022-07-16T03:49:13Z</time>
      </trkpt>
      <trkpt lat="45.68768" lon="6.46187">
        <ele>1854</ele>
        <time>2022-07-16T03:49:15Z</time>
      </trkpt>
      <trkpt lat="45.68767" lon="6.4619">
        <ele>1854</ele>
        <time>2022-07-16T03:49:18Z</time>
      </trkpt>
      <trkpt lat="45.68766" lon="6.46193">
        <ele>1854</ele>
        <time>2022-07-16T03:49:20Z</time>
      </trkpt>
      <trkpt lat="45.68765" lon="6.46196">
        <ele>1854</ele>
        <time>2022-07-16T03:49:22Z</time>
      </trkpt>
      <trkpt lat="45.68764" lon="6.46199">
        <ele>1854</ele>
        <time>2022-07-16T03:49:24Z</time>
      </trkpt>
      <trkpt lat="45.68762" lon="6.46202">
        <ele>1854</ele>
        <time>2022-07-16T03:49:26Z</time>
      </trkpt>
      <trkpt lat="45.6876" lon="6.46204">
        <ele>1854</ele>
        <time>2022-07-16T03:49:28Z</time>
      </trkpt>
      <trkpt lat="45.68758" lon="6.46206">
        <ele>1854</ele>
        <time>2022-07-16T03:49:30Z</time>
      </trkpt>
      <trkpt lat="45.68757" lon="6.46209">
        <ele>1854</ele>
        <time>2022-07-16T03:49:32Z</time>
      </trkpt>
      <trkpt lat="45.68755" lon="6.46212">
        <ele>1854</ele>
        <time>2022-07-16T03:49:34Z</time>
      </trkpt>
      <trkpt lat="45.68754" lon="6.46216">
        <ele>1854</ele>
        <time>2022-07-16T03:49:36Z</time>
      </trkpt>
      <trkpt lat="45.68752" lon="6.46219">
        <ele>1854</ele>
        <time>2022-07-16T03:49:38Z</time>
      </trkpt>
      <trkpt lat="45.68751" lon="6.46222">
        <ele>1854</ele>
        <time>2022-07-16T03:49:40Z</time>
      </trkpt>
      <trkpt lat="45.6875" lon="6.46226">
        <ele>1854</ele>
        <time>2022-07-16T03:49:42Z</time>
      </trkpt>
      <trkpt lat="45.68749" lon="6.46229">
        <ele>1855</ele>
        <time>2022-07-16T03:49:44Z</time>
      </trkpt>
      <trkpt lat="45.68748" lon="6.46232">
        <ele>1855</ele>
        <time>2022-07-16T03:49:46Z</time>
      </trkpt>
      <trkpt lat="45.68747" lon="6.46236">
        <ele>1856</ele>
        <time>2022-07-16T03:49:48Z</time>
      </trkpt>
      <trkpt lat="45.68746" lon="6.46238">
        <ele>1856</ele>
        <time>2022-07-16T03:49:50Z</time>
      </trkpt>
      <trkpt lat="45.68744" lon="6.46241">
        <ele>1856</ele>
        <time>2022-07-16T03:49:52Z</time>
      </trkpt>
      <trkpt lat="45.68743" lon="6.46244">
        <ele>1856</ele>
        <time>2022-07-16T03:49:54Z</time>
      </trkpt>
      <trkpt lat="45.68742" lon="6.46247">
        <ele>1857</ele>
        <time>2022-07-16T03:49:56Z</time>
      </trkpt>
      <trkpt lat="45.6874" lon="6.4625">
        <ele>1858</ele>
        <time>2022-07-16T03:49:58Z</time>
      </trkpt>
      <trkpt lat="45.68739" lon="6.46252">
        <ele>1858</ele>
        <time>2022-07-16T03:50:00Z</time>
      </trkpt>
      <trkpt lat="45.68737" lon="6.46254">
        <ele>1858</ele>
        <time>2022-07-16T03:50:02Z</time>
      </trkpt>
      <trkpt lat="45.68735" lon="6.46255">
        <ele>1859</ele>
        <time>2022-07-16T03:50:04Z</time>
      </trkpt>
      <trkpt lat="45.68733" lon="6.46257">
        <ele>1859</ele>
        <time>2022-07-16T03:50:06Z</time>
      </trkpt>
      <trkpt lat="45.68731" lon="6.46259">
        <ele>1859</ele>
        <time>2022-07-16T03:50:07Z</time>
      </trkpt>
      <trkpt lat="45.68729" lon="6.4626">
        <ele>1859</ele>
        <time>2022-07-16T03:50:10Z</time>
      </trkpt>
      <trkpt lat="45.68727" lon="6.4626">
        <ele>1860</ele>
        <time>2022-07-16T03:50:12Z</time>
      </trkpt>
      <trkpt lat="45.68725" lon="6.46263">
        <ele>1860</ele>
        <time>2022-07-16T03:50:14Z</time>
      </trkpt>
      <trkpt lat="45.68723" lon="6.46265">
        <ele>1861</ele>
        <time>2022-07-16T03:50:17Z</time>
      </trkpt>
      <trkpt lat="45.68722" lon="6.46267">
        <ele>1861</ele>
        <time>2022-07-16T03:50:19Z</time>
      </trkpt>
      <trkpt lat="45.68721" lon="6.46271">
        <ele>1861</ele>
        <time>2022-07-16T03:50:21Z</time>
      </trkpt>
      <trkpt lat="45.6872" lon="6.46274">
        <ele>1861</ele>
        <time>2022-07-16T03:50:23Z</time>
      </trkpt>
      <trkpt lat="45.68719" lon="6.46277">
        <ele>1861</ele>
        <time>2022-07-16T03:50:25Z</time>
      </trkpt>
      <trkpt lat="45.68718" lon="6.46281">
        <ele>1862</ele>
        <time>2022-07-16T03:50:27Z</time>
      </trkpt>
      <trkpt lat="45.68717" lon="6.46285">
        <ele>1862</ele>
        <time>2022-07-16T03:50:29Z</time>
      </trkpt>
      <trkpt lat="45.68716" lon="6.46287">
        <ele>1863</ele>
        <time>2022-07-16T03:50:32Z</time>
      </trkpt>
      <trkpt lat="45.68715" lon="6.4629">
        <ele>1863</ele>
        <time>2022-07-16T03:50:34Z</time>
      </trkpt>
      <trkpt lat="45.68714" lon="6.46292">
        <ele>1863</ele>
        <time>2022-07-16T03:50:36Z</time>
      </trkpt>
      <trkpt lat="45.68714" lon="6.46296">
        <ele>1863</ele>
        <time>2022-07-16T03:50:38Z</time>
      </trkpt>
      <trkpt lat="45.68715" lon="6.46301">
        <ele>1863</ele>
        <time>2022-07-16T03:50:40Z</time>
      </trkpt>
      <trkpt lat="45.68714" lon="6.46305">
        <ele>1863</ele>
        <time>2022-07-16T03:50:42Z</time>
      </trkpt>
      <trkpt lat="45.68714" lon="6.46309">
        <ele>1863</ele>
        <time>2022-07-16T03:50:44Z</time>
      </trkpt>
      <trkpt lat="45.68713" lon="6.46313">
        <ele>1863</ele>
        <time>2022-07-16T03:50:46Z</time>
      </trkpt>
      <trkpt lat="45.68712" lon="6.46316">
        <ele>1863</ele>
        <time>2022-07-16T03:50:48Z</time>
      </trkpt>
      <trkpt lat="45.68711" lon="6.46319">
        <ele>1863</ele>
        <time>2022-07-16T03:50:50Z</time>
      </trkpt>
      <trkpt lat="45.68711" lon="6.46322">
        <ele>1863</ele>
        <time>2022-07-16T03:50:52Z</time>
      </trkpt>
      <trkpt lat="45.6871" lon="6.46326">
        <ele>1863</ele>
        <time>2022-07-16T03:50:54Z</time>
      </trkpt>
      <trkpt lat="45.68709" lon="6.4633">
        <ele>1863</ele>
        <time>2022-07-16T03:50:56Z</time>
      </trkpt>
      <trkpt lat="45.68708" lon="6.46332">
        <ele>1863</ele>
        <time>2022-07-16T03:50:58Z</time>
      </trkpt>
      <trkpt lat="45.68707" lon="6.46336">
        <ele>1863</ele>
        <time>2022-07-16T03:51:00Z</time>
      </trkpt>
      <trkpt lat="45.68706" lon="6.46339">
        <ele>1863</ele>
        <time>2022-07-16T03:51:02Z</time>
      </trkpt>
      <trkpt lat="45.68705" lon="6.46342">
        <ele>1863</ele>
        <time>2022-07-16T03:51:04Z</time>
      </trkpt>
      <trkpt lat="45.68704" lon="6.46345">
        <ele>1863</ele>
        <time>2022-07-16T03:51:06Z</time>
      </trkpt>
      <trkpt lat="45.68703" lon="6.46348">
        <ele>1863</ele>
        <time>2022-07-16T03:51:08Z</time>
      </trkpt>
      <trkpt lat="45.68702" lon="6.46351">
        <ele>1864</ele>
        <time>2022-07-16T03:51:10Z</time>
      </trkpt>
      <trkpt lat="45.68701" lon="6.46354">
        <ele>1865</ele>
        <time>2022-07-16T03:51:12Z</time>
      </trkpt>
      <trkpt lat="45.68699" lon="6.46357">
        <ele>1865</ele>
        <time>2022-07-16T03:51:14Z</time>
      </trkpt>
      <trkpt lat="45.68698" lon="6.4636">
        <ele>1865</ele>
        <time>2022-07-16T03:51:17Z</time>
      </trkpt>
      <trkpt lat="45.68697" lon="6.46362">
        <ele>1865</ele>
        <time>2022-07-16T03:51:19Z</time>
      </trkpt>
      <trkpt lat="45.68695" lon="6.46365">
        <ele>1866</ele>
        <time>2022-07-16T03:51:21Z</time>
      </trkpt>
      <trkpt lat="45.68693" lon="6.46366">
        <ele>1867</ele>
        <time>2022-07-16T03:51:23Z</time>
      </trkpt>
      <trkpt lat="45.68691" lon="6.46369">
        <ele>1868</ele>
        <time>2022-07-16T03:51:26Z</time>
      </trkpt>
      <trkpt lat="45.68691" lon="6.46372">
        <ele>1868</ele>
        <time>2022-07-16T03:51:29Z</time>
      </trkpt>
      <trkpt lat="45.6869" lon="6.46376">
        <ele>1869</ele>
        <time>2022-07-16T03:51:31Z</time>
      </trkpt>
      <trkpt lat="45.68689" lon="6.46378">
        <ele>1869</ele>
        <time>2022-07-16T03:51:33Z</time>
      </trkpt>
      <trkpt lat="45.68688" lon="6.46381">
        <ele>1869</ele>
        <time>2022-07-16T03:51:35Z</time>
      </trkpt>
      <trkpt lat="45.68687" lon="6.46384">
        <ele>1870</ele>
        <time>2022-07-16T03:51:37Z</time>
      </trkpt>
      <trkpt lat="45.68686" lon="6.46387">
        <ele>1870</ele>
        <time>2022-07-16T03:51:40Z</time>
      </trkpt>
      <trkpt lat="45.68685" lon="6.46389">
        <ele>1871</ele>
        <time>2022-07-16T03:51:42Z</time>
      </trkpt>
      <trkpt lat="45.68684" lon="6.46392">
        <ele>1872</ele>
        <time>2022-07-16T03:51:45Z</time>
      </trkpt>
      <trkpt lat="45.68683" lon="6.46395">
        <ele>1873</ele>
        <time>2022-07-16T03:51:49Z</time>
      </trkpt>
      <trkpt lat="45.68682" lon="6.46397">
        <ele>1874</ele>
        <time>2022-07-16T03:51:52Z</time>
      </trkpt>
      <trkpt lat="45.68681" lon="6.464">
        <ele>1874</ele>
        <time>2022-07-16T03:51:55Z</time>
      </trkpt>
      <trkpt lat="45.68679" lon="6.46402">
        <ele>1875</ele>
        <time>2022-07-16T03:51:59Z</time>
      </trkpt>
      <trkpt lat="45.68678" lon="6.46404">
        <ele>1875</ele>
        <time>2022-07-16T03:52:04Z</time>
      </trkpt>
      <trkpt lat="45.68677" lon="6.46406">
        <ele>1876</ele>
        <time>2022-07-16T03:52:08Z</time>
      </trkpt>
      <trkpt lat="45.68675" lon="6.46407">
        <ele>1877</ele>
        <time>2022-07-16T03:52:14Z</time>
      </trkpt>
      <trkpt lat="45.68674" lon="6.4641">
        <ele>1879</ele>
        <time>2022-07-16T03:52:18Z</time>
      </trkpt>
      <trkpt lat="45.68674" lon="6.46413">
        <ele>1880</ele>
        <time>2022-07-16T03:52:23Z</time>
      </trkpt>
      <trkpt lat="45.68673" lon="6.46416">
        <ele>1880</ele>
        <time>2022-07-16T03:52:26Z</time>
      </trkpt>
      <trkpt lat="45.68672" lon="6.46419">
        <ele>1881</ele>
        <time>2022-07-16T03:52:29Z</time>
      </trkpt>
      <trkpt lat="45.6867" lon="6.46421">
        <ele>1882</ele>
        <time>2022-07-16T03:52:32Z</time>
      </trkpt>
      <trkpt lat="45.68669" lon="6.46424">
        <ele>1882</ele>
        <time>2022-07-16T03:52:35Z</time>
      </trkpt>
      <trkpt lat="45.68669" lon="6.46427">
        <ele>1882</ele>
        <time>2022-07-16T03:52:40Z</time>
      </trkpt>
      <trkpt lat="45.68668" lon="6.4643">
        <ele>1883</ele>
        <time>2022-07-16T03:52:43Z</time>
      </trkpt>
      <trkpt lat="45.68667" lon="6.46434">
        <ele>1884</ele>
        <time>2022-07-16T03:52:46Z</time>
      </trkpt>
      <trkpt lat="45.68665" lon="6.46436">
        <ele>1884</ele>
        <time>2022-07-16T03:52:49Z</time>
      </trkpt>
      <trkpt lat="45.68665" lon="6.46439">
        <ele>1885</ele>
        <time>2022-07-16T03:52:52Z</time>
      </trkpt>
      <trkpt lat="45.68665" lon="6.46442">
        <ele>1886</ele>
        <time>2022-07-16T03:52:55Z</time>
      </trkpt>
      <trkpt lat="45.68665" lon="6.46445">
        <ele>1886</ele>
        <time>2022-07-16T03:52:58Z</time>
      </trkpt>
      <trkpt lat="45.68663" lon="6.46447">
        <ele>1888</ele>
        <time>2022-07-16T03:53:02Z</time>
      </trkpt>
      <trkpt lat="45.68662" lon="6.46448">
        <ele>1888</ele>
        <time>2022-07-16T03:53:06Z</time>
      </trkpt>
      <trkpt lat="45.68661" lon="6.46451">
        <ele>1889</ele>
        <time>2022-07-16T03:53:12Z</time>
      </trkpt>
      <trkpt lat="45.6866" lon="6.46453">
        <ele>1890</ele>
        <time>2022-07-16T03:53:16Z</time>
      </trkpt>
      <trkpt lat="45.68658" lon="6.46454">
        <ele>1891</ele>
        <time>2022-07-16T03:53:21Z</time>
      </trkpt>
      <trkpt lat="45.68657" lon="6.46457">
        <ele>1892</ele>
        <time>2022-07-16T03:53:25Z</time>
      </trkpt>
      <trkpt lat="45.68657" lon="6.4646">
        <ele>1893</ele>
        <time>2022-07-16T03:53:29Z</time>
      </trkpt>
      <trkpt lat="45.68657" lon="6.46462">
        <ele>1893</ele>
        <time>2022-07-16T03:53:32Z</time>
      </trkpt>
      <trkpt lat="45.68658" lon="6.46466">
        <ele>1894</ele>
        <time>2022-07-16T03:53:35Z</time>
      </trkpt>
      <trkpt lat="45.68659" lon="6.46468">
        <ele>1894</ele>
        <time>2022-07-16T03:53:37Z</time>
      </trkpt>
      <trkpt lat="45.6866" lon="6.4647">
        <ele>1895</ele>
        <time>2022-07-16T03:53:39Z</time>
      </trkpt>
      <trkpt lat="45.68661" lon="6.46473">
        <ele>1895</ele>
        <time>2022-07-16T03:53:41Z</time>
      </trkpt>
      <trkpt lat="45.68661" lon="6.46476">
        <ele>1895</ele>
        <time>2022-07-16T03:53:43Z</time>
      </trkpt>
      <trkpt lat="45.68661" lon="6.4648">
        <ele>1895</ele>
        <time>2022-07-16T03:53:45Z</time>
      </trkpt>
      <trkpt lat="45.68661" lon="6.46483">
        <ele>1896</ele>
        <time>2022-07-16T03:53:47Z</time>
      </trkpt>
      <trkpt lat="45.6866" lon="6.46485">
        <ele>1896</ele>
        <time>2022-07-16T03:53:49Z</time>
      </trkpt>
      <trkpt lat="45.68658" lon="6.46488">
        <ele>1897</ele>
        <time>2022-07-16T03:53:51Z</time>
      </trkpt>
      <trkpt lat="45.68656" lon="6.46487">
        <ele>1897</ele>
        <time>2022-07-16T03:53:53Z</time>
      </trkpt>
      <trkpt lat="45.68653" lon="6.46485">
        <ele>1898</ele>
        <time>2022-07-16T03:53:55Z</time>
      </trkpt>
      <trkpt lat="45.68652" lon="6.46483">
        <ele>1898</ele>
        <time>2022-07-16T03:53:57Z</time>
      </trkpt>
      <trkpt lat="45.6865" lon="6.46481">
        <ele>1898</ele>
        <time>2022-07-16T03:53:59Z</time>
      </trkpt>
      <trkpt lat="45.68649" lon="6.46479">
        <ele>1899</ele>
        <time>2022-07-16T03:54:01Z</time>
      </trkpt>
      <trkpt lat="45.68647" lon="6.46478">
        <ele>1899</ele>
        <time>2022-07-16T03:54:04Z</time>
      </trkpt>
      <trkpt lat="45.68646" lon="6.46481">
        <ele>1900</ele>
        <time>2022-07-16T03:54:07Z</time>
      </trkpt>
      <trkpt lat="45.68646" lon="6.46484">
        <ele>1900</ele>
        <time>2022-07-16T03:54:10Z</time>
      </trkpt>
      <trkpt lat="45.68645" lon="6.46487">
        <ele>1900</ele>
        <time>2022-07-16T03:54:12Z</time>
      </trkpt>
      <trkpt lat="45.68644" lon="6.4649">
        <ele>1901</ele>
        <time>2022-07-16T03:54:14Z</time>
      </trkpt>
      <trkpt lat="45.68643" lon="6.46493">
        <ele>1902</ele>
        <time>2022-07-16T03:54:16Z</time>
      </trkpt>
      <trkpt lat="45.68642" lon="6.46495">
        <ele>1902</ele>
        <time>2022-07-16T03:54:18Z</time>
      </trkpt>
      <trkpt lat="45.68641" lon="6.46498">
        <ele>1903</ele>
        <time>2022-07-16T03:54:21Z</time>
      </trkpt>
      <trkpt lat="45.68639" lon="6.465">
        <ele>1904</ele>
        <time>2022-07-16T03:54:24Z</time>
      </trkpt>
      <trkpt lat="45.68637" lon="6.46502">
        <ele>1904</ele>
        <time>2022-07-16T03:54:27Z</time>
      </trkpt>
      <trkpt lat="45.68636" lon="6.46505">
        <ele>1905</ele>
        <time>2022-07-16T03:54:30Z</time>
      </trkpt>
      <trkpt lat="45.68635" lon="6.46507">
        <ele>1905</ele>
        <time>2022-07-16T03:54:33Z</time>
      </trkpt>
      <trkpt lat="45.68634" lon="6.4651">
        <ele>1905</ele>
        <time>2022-07-16T03:54:36Z</time>
      </trkpt>
      <trkpt lat="45.68633" lon="6.46512">
        <ele>1906</ele>
        <time>2022-07-16T03:54:38Z</time>
      </trkpt>
      <trkpt lat="45.68631" lon="6.46514">
        <ele>1907</ele>
        <time>2022-07-16T03:54:41Z</time>
      </trkpt>
      <trkpt lat="45.68629" lon="6.46514">
        <ele>1908</ele>
        <time>2022-07-16T03:54:45Z</time>
      </trkpt>
      <trkpt lat="45.68627" lon="6.46516">
        <ele>1908</ele>
        <time>2022-07-16T03:54:48Z</time>
      </trkpt>
      <trkpt lat="45.68625" lon="6.46517">
        <ele>1909</ele>
        <time>2022-07-16T03:54:51Z</time>
      </trkpt>
      <trkpt lat="45.68624" lon="6.46518">
        <ele>1909</ele>
        <time>2022-07-16T03:54:54Z</time>
      </trkpt>
      <trkpt lat="45.68621" lon="6.46519">
        <ele>1910</ele>
        <time>2022-07-16T03:54:57Z</time>
      </trkpt>
      <trkpt lat="45.6862" lon="6.4652">
        <ele>1911</ele>
        <time>2022-07-16T03:54:59Z</time>
      </trkpt>
      <trkpt lat="45.68617" lon="6.46521">
        <ele>1912</ele>
        <time>2022-07-16T03:55:02Z</time>
      </trkpt>
      <trkpt lat="45.68616" lon="6.46523">
        <ele>1912</ele>
        <time>2022-07-16T03:55:05Z</time>
      </trkpt>
      <trkpt lat="45.68614" lon="6.46525">
        <ele>1912</ele>
        <time>2022-07-16T03:55:08Z</time>
      </trkpt>
      <trkpt lat="45.68611" lon="6.46526">
        <ele>1913</ele>
        <time>2022-07-16T03:55:13Z</time>
      </trkpt>
      <trkpt lat="45.6861" lon="6.46528">
        <ele>1913</ele>
        <time>2022-07-16T03:55:16Z</time>
      </trkpt>
      <trkpt lat="45.68608" lon="6.4653">
        <ele>1914</ele>
        <time>2022-07-16T03:55:19Z</time>
      </trkpt>
      <trkpt lat="45.68607" lon="6.46532">
        <ele>1916</ele>
        <time>2022-07-16T03:55:23Z</time>
      </trkpt>
      <trkpt lat="45.68607" lon="6.46535">
        <ele>1917</ele>
        <time>2022-07-16T03:55:28Z</time>
      </trkpt>
      <trkpt lat="45.68605" lon="6.46537">
        <ele>1917</ele>
        <time>2022-07-16T03:55:31Z</time>
      </trkpt>
      <trkpt lat="45.68605" lon="6.46539">
        <ele>1918</ele>
        <time>2022-07-16T03:55:34Z</time>
      </trkpt>
      <trkpt lat="45.68604" lon="6.46543">
        <ele>1919</ele>
        <time>2022-07-16T03:55:37Z</time>
      </trkpt>
      <trkpt lat="45.68605" lon="6.46545">
        <ele>1919</ele>
        <time>2022-07-16T03:55:40Z</time>
      </trkpt>
      <trkpt lat="45.68606" lon="6.46547">
        <ele>1920</ele>
        <time>2022-07-16T03:55:42Z</time>
      </trkpt>
      <trkpt lat="45.68607" lon="6.4655">
        <ele>1920</ele>
        <time>2022-07-16T03:55:44Z</time>
      </trkpt>
      <trkpt lat="45.68608" lon="6.46552">
        <ele>1920</ele>
        <time>2022-07-16T03:55:46Z</time>
      </trkpt>
      <trkpt lat="45.68608" lon="6.46555">
        <ele>1920</ele>
        <time>2022-07-16T03:55:49Z</time>
      </trkpt>
      <trkpt lat="45.68607" lon="6.46557">
        <ele>1922</ele>
        <time>2022-07-16T03:55:55Z</time>
      </trkpt>
      <trkpt lat="45.68607" lon="6.4656">
        <ele>1923</ele>
        <time>2022-07-16T03:55:59Z</time>
      </trkpt>
      <trkpt lat="45.68605" lon="6.46563">
        <ele>1924</ele>
        <time>2022-07-16T03:56:03Z</time>
      </trkpt>
      <trkpt lat="45.68604" lon="6.46565">
        <ele>1924</ele>
        <time>2022-07-16T03:56:06Z</time>
      </trkpt>
      <trkpt lat="45.68603" lon="6.46567">
        <ele>1924</ele>
        <time>2022-07-16T03:56:09Z</time>
      </trkpt>
      <trkpt lat="45.68602" lon="6.46569">
        <ele>1925</ele>
        <time>2022-07-16T03:56:13Z</time>
      </trkpt>
      <trkpt lat="45.68602" lon="6.46572">
        <ele>1926</ele>
        <time>2022-07-16T03:56:17Z</time>
      </trkpt>
      <trkpt lat="45.68601" lon="6.46575">
        <ele>1927</ele>
        <time>2022-07-16T03:56:22Z</time>
      </trkpt>
      <trkpt lat="45.686" lon="6.46577">
        <ele>1927</ele>
        <time>2022-07-16T03:56:26Z</time>
      </trkpt>
      <trkpt lat="45.68599" lon="6.46578">
        <ele>1928</ele>
        <time>2022-07-16T03:56:30Z</time>
      </trkpt>
      <trkpt lat="45.68596" lon="6.46579">
        <ele>1929</ele>
        <time>2022-07-16T03:56:38Z</time>
      </trkpt>
      <trkpt lat="45.68596" lon="6.46579">
        <ele>1930</ele>
        <time>2022-07-16T03:56:42Z</time>
      </trkpt>
      <trkpt lat="45.68595" lon="6.46581">
        <ele>1931</ele>
        <time>2022-07-16T03:56:45Z</time>
      </trkpt>
      <trkpt lat="45.68593" lon="6.46583">
        <ele>1931</ele>
        <time>2022-07-16T03:56:48Z</time>
      </trkpt>
      <trkpt lat="45.68591" lon="6.46584">
        <ele>1932</ele>
        <time>2022-07-16T03:56:51Z</time>
      </trkpt>
      <trkpt lat="45.68591" lon="6.46588">
        <ele>1934</ele>
        <time>2022-07-16T03:56:58Z</time>
      </trkpt>
      <trkpt lat="45.68591" lon="6.46591">
        <ele>1935</ele>
        <time>2022-07-16T03:57:01Z</time>
      </trkpt>
      <trkpt lat="45.68592" lon="6.46593">
        <ele>1936</ele>
        <time>2022-07-16T03:57:05Z</time>
      </trkpt>
      <trkpt lat="45.68593" lon="6.46596">
        <ele>1936</ele>
        <time>2022-07-16T03:57:09Z</time>
      </trkpt>
      <trkpt lat="45.68594" lon="6.46598">
        <ele>1937</ele>
        <time>2022-07-16T03:57:12Z</time>
      </trkpt>
      <trkpt lat="45.68595" lon="6.466">
        <ele>1938</ele>
        <time>2022-07-16T03:57:15Z</time>
      </trkpt>
      <trkpt lat="45.68594" lon="6.46603">
        <ele>1938</ele>
        <time>2022-07-16T03:57:18Z</time>
      </trkpt>
      <trkpt lat="45.68593" lon="6.46605">
        <ele>1939</ele>
        <time>2022-07-16T03:57:23Z</time>
      </trkpt>
      <trkpt lat="45.68595" lon="6.46606">
        <ele>1941</ele>
        <time>2022-07-16T03:57:27Z</time>
      </trkpt>
      <trkpt lat="45.68597" lon="6.46608">
        <ele>1942</ele>
        <time>2022-07-16T03:57:31Z</time>
      </trkpt>
      <trkpt lat="45.68599" lon="6.46608">
        <ele>1942</ele>
        <time>2022-07-16T03:57:34Z</time>
      </trkpt>
      <trkpt lat="45.68601" lon="6.46609">
        <ele>1943</ele>
        <time>2022-07-16T03:57:36Z</time>
      </trkpt>
      <trkpt lat="45.68602" lon="6.46612">
        <ele>1944</ele>
        <time>2022-07-16T03:57:39Z</time>
      </trkpt>
      <trkpt lat="45.68603" lon="6.46615">
        <ele>1944</ele>
        <time>2022-07-16T03:57:42Z</time>
      </trkpt>
      <trkpt lat="45.68605" lon="6.46617">
        <ele>1944</ele>
        <time>2022-07-16T03:57:45Z</time>
      </trkpt>
      <trkpt lat="45.68606" lon="6.4662">
        <ele>1946</ele>
        <time>2022-07-16T03:57:48Z</time>
      </trkpt>
      <trkpt lat="45.68607" lon="6.46622">
        <ele>1946</ele>
        <time>2022-07-16T03:57:50Z</time>
      </trkpt>
      <trkpt lat="45.68607" lon="6.46626">
        <ele>1946</ele>
        <time>2022-07-16T03:57:52Z</time>
      </trkpt>
      <trkpt lat="45.68606" lon="6.4663">
        <ele>1946</ele>
        <time>2022-07-16T03:57:54Z</time>
      </trkpt>
      <trkpt lat="45.68604" lon="6.46634">
        <ele>1946</ele>
        <time>2022-07-16T03:57:56Z</time>
      </trkpt>
      <trkpt lat="45.68602" lon="6.46635">
        <ele>1946</ele>
        <time>2022-07-16T03:57:57Z</time>
      </trkpt>
      <trkpt lat="45.686" lon="6.46635">
        <ele>1946</ele>
        <time>2022-07-16T03:57:58Z</time>
      </trkpt>
      <trkpt lat="45.68598" lon="6.46636">
        <ele>1946</ele>
        <time>2022-07-16T03:57:59Z</time>
      </trkpt>
      <trkpt lat="45.68595" lon="6.46639">
        <ele>1946</ele>
        <time>2022-07-16T03:58:01Z</time>
      </trkpt>
      <trkpt lat="45.68592" lon="6.4664">
        <ele>1946</ele>
        <time>2022-07-16T03:58:02Z</time>
      </trkpt>
      <trkpt lat="45.68591" lon="6.4664">
        <ele>1946</ele>
        <time>2022-07-16T03:58:03Z</time>
      </trkpt>
      <trkpt lat="45.68589" lon="6.4664">
        <ele>1946</ele>
        <time>2022-07-16T03:58:04Z</time>
      </trkpt>
      <trkpt lat="45.68587" lon="6.4664">
        <ele>1946</ele>
        <time>2022-07-16T03:58:05Z</time>
      </trkpt>
      <trkpt lat="45.68584" lon="6.46641">
        <ele>1947</ele>
        <time>2022-07-16T03:58:07Z</time>
      </trkpt>
      <trkpt lat="45.68581" lon="6.46642">
        <ele>1947</ele>
        <time>2022-07-16T03:58:09Z</time>
      </trkpt>
      <trkpt lat="45.68578" lon="6.46644">
        <ele>1947</ele>
        <time>2022-07-16T03:58:11Z</time>
      </trkpt>
      <trkpt lat="45.68576" lon="6.46645">
        <ele>1947</ele>
        <time>2022-07-16T03:58:13Z</time>
      </trkpt>
      <trkpt lat="45.68574" lon="6.46647">
        <ele>1947</ele>
        <time>2022-07-16T03:58:15Z</time>
      </trkpt>
      <trkpt lat="45.68572" lon="6.46649">
        <ele>1947</ele>
        <time>2022-07-16T03:58:17Z</time>
      </trkpt>
      <trkpt lat="45.6857" lon="6.46652">
        <ele>1948</ele>
        <time>2022-07-16T03:58:19Z</time>
      </trkpt>
      <trkpt lat="45.68569" lon="6.46655">
        <ele>1948</ele>
        <time>2022-07-16T03:58:21Z</time>
      </trkpt>
      <trkpt lat="45.68568" lon="6.46659">
        <ele>1948</ele>
        <time>2022-07-16T03:58:23Z</time>
      </trkpt>
      <trkpt lat="45.68569" lon="6.46663">
        <ele>1948</ele>
        <time>2022-07-16T03:58:25Z</time>
      </trkpt>
      <trkpt lat="45.68569" lon="6.46667">
        <ele>1948</ele>
        <time>2022-07-16T03:58:27Z</time>
      </trkpt>
      <trkpt lat="45.68569" lon="6.4667">
        <ele>1948</ele>
        <time>2022-07-16T03:58:29Z</time>
      </trkpt>
      <trkpt lat="45.6857" lon="6.46674">
        <ele>1948</ele>
        <time>2022-07-16T03:58:31Z</time>
      </trkpt>
      <trkpt lat="45.6857" lon="6.46678">
        <ele>1948</ele>
        <time>2022-07-16T03:58:33Z</time>
      </trkpt>
      <trkpt lat="45.6857" lon="6.46681">
        <ele>1949</ele>
        <time>2022-07-16T03:58:35Z</time>
      </trkpt>
      <trkpt lat="45.6857" lon="6.46684">
        <ele>1949</ele>
        <time>2022-07-16T03:58:38Z</time>
      </trkpt>
      <trkpt lat="45.6857" lon="6.46687">
        <ele>1949</ele>
        <time>2022-07-16T03:58:41Z</time>
      </trkpt>
      <trkpt lat="45.6857" lon="6.46691">
        <ele>1951</ele>
        <time>2022-07-16T03:58:44Z</time>
      </trkpt>
      <trkpt lat="45.68569" lon="6.46693">
        <ele>1952</ele>
        <time>2022-07-16T03:58:47Z</time>
      </trkpt>
      <trkpt lat="45.68568" lon="6.46696">
        <ele>1952</ele>
        <time>2022-07-16T03:58:50Z</time>
      </trkpt>
      <trkpt lat="45.68568" lon="6.46699">
        <ele>1954</ele>
        <time>2022-07-16T03:58:57Z</time>
      </trkpt>
      <trkpt lat="45.68569" lon="6.46702">
        <ele>1954</ele>
        <time>2022-07-16T03:59:00Z</time>
      </trkpt>
      <trkpt lat="45.68569" lon="6.46705">
        <ele>1955</ele>
        <time>2022-07-16T03:59:04Z</time>
      </trkpt>
      <trkpt lat="45.68568" lon="6.46708">
        <ele>1956</ele>
        <time>2022-07-16T03:59:07Z</time>
      </trkpt>
      <trkpt lat="45.68566" lon="6.4671">
        <ele>1956</ele>
        <time>2022-07-16T03:59:10Z</time>
      </trkpt>
      <trkpt lat="45.68566" lon="6.46713">
        <ele>1957</ele>
        <time>2022-07-16T03:59:14Z</time>
      </trkpt>
      <trkpt lat="45.68566" lon="6.46716">
        <ele>1958</ele>
        <time>2022-07-16T03:59:18Z</time>
      </trkpt>
      <trkpt lat="45.68566" lon="6.46719">
        <ele>1959</ele>
        <time>2022-07-16T03:59:21Z</time>
      </trkpt>
      <trkpt lat="45.68565" lon="6.46721">
        <ele>1960</ele>
        <time>2022-07-16T03:59:24Z</time>
      </trkpt>
      <trkpt lat="45.68564" lon="6.46724">
        <ele>1962</ele>
        <time>2022-07-16T03:59:29Z</time>
      </trkpt>
      <trkpt lat="45.68565" lon="6.46727">
        <ele>1962</ele>
        <time>2022-07-16T03:59:32Z</time>
      </trkpt>
      <trkpt lat="45.68564" lon="6.4673">
        <ele>1963</ele>
        <time>2022-07-16T03:59:36Z</time>
      </trkpt>
      <trkpt lat="45.68565" lon="6.46733">
        <ele>1963</ele>
        <time>2022-07-16T03:59:39Z</time>
      </trkpt>
      <trkpt lat="45.68565" lon="6.46736">
        <ele>1964</ele>
        <time>2022-07-16T03:59:42Z</time>
      </trkpt>
      <trkpt lat="45.68566" lon="6.46739">
        <ele>1965</ele>
        <time>2022-07-16T03:59:46Z</time>
      </trkpt>
      <trkpt lat="45.68566" lon="6.46742">
        <ele>1966</ele>
        <time>2022-07-16T03:59:49Z</time>
      </trkpt>
      <trkpt lat="45.68566" lon="6.46744">
        <ele>1966</ele>
        <time>2022-07-16T03:59:53Z</time>
      </trkpt>
      <trkpt lat="45.68567" lon="6.46746">
        <ele>1967</ele>
        <time>2022-07-16T03:59:57Z</time>
      </trkpt>
      <trkpt lat="45.68569" lon="6.46748">
        <ele>1968</ele>
        <time>2022-07-16T04:00:03Z</time>
      </trkpt>
      <trkpt lat="45.6857" lon="6.4675">
        <ele>1970</ele>
        <time>2022-07-16T04:00:06Z</time>
      </trkpt>
      <trkpt lat="45.68572" lon="6.46753">
        <ele>1971</ele>
        <time>2022-07-16T04:00:09Z</time>
      </trkpt>
      <trkpt lat="45.68572" lon="6.46756">
        <ele>1971</ele>
        <time>2022-07-16T04:00:12Z</time>
      </trkpt>
      <trkpt lat="45.68573" lon="6.46758">
        <ele>1972</ele>
        <time>2022-07-16T04:00:15Z</time>
      </trkpt>
      <trkpt lat="45.68574" lon="6.4676">
        <ele>1972</ele>
        <time>2022-07-16T04:00:18Z</time>
      </trkpt>
      <trkpt lat="45.68576" lon="6.46762">
        <ele>1973</ele>
        <time>2022-07-16T04:00:22Z</time>
      </trkpt>
      <trkpt lat="45.68578" lon="6.46764">
        <ele>1975</ele>
        <time>2022-07-16T04:00:26Z</time>
      </trkpt>
      <trkpt lat="45.6858" lon="6.46765">
        <ele>1975</ele>
        <time>2022-07-16T04:00:30Z</time>
      </trkpt>
      <trkpt lat="45.68582" lon="6.46766">
        <ele>1976</ele>
        <time>2022-07-16T04:00:33Z</time>
      </trkpt>
      <trkpt lat="45.68584" lon="6.46767">
        <ele>1977</ele>
        <time>2022-07-16T04:00:36Z</time>
      </trkpt>
      <trkpt lat="45.68586" lon="6.46768">
        <ele>1977</ele>
        <time>2022-07-16T04:00:39Z</time>
      </trkpt>
      <trkpt lat="45.68588" lon="6.4677">
        <ele>1978</ele>
        <time>2022-07-16T04:00:42Z</time>
      </trkpt>
      <trkpt lat="45.68589" lon="6.46773">
        <ele>1978</ele>
        <time>2022-07-16T04:00:45Z</time>
      </trkpt>
      <trkpt lat="45.68591" lon="6.46774">
        <ele>1978</ele>
        <time>2022-07-16T04:00:48Z</time>
      </trkpt>
      <trkpt lat="45.68593" lon="6.46776">
        <ele>1978</ele>
        <time>2022-07-16T04:00:50Z</time>
      </trkpt>
      <trkpt lat="45.68594" lon="6.46779">
        <ele>1978</ele>
        <time>2022-07-16T04:00:52Z</time>
      </trkpt>
      <trkpt lat="45.68595" lon="6.46781">
        <ele>1978</ele>
        <time>2022-07-16T04:00:53Z</time>
      </trkpt>
      <trkpt lat="45.68596" lon="6.46783">
        <ele>1978</ele>
        <time>2022-07-16T04:00:56Z</time>
      </trkpt>
      <trkpt lat="45.68596" lon="6.46786">
        <ele>1978</ele>
        <time>2022-07-16T04:01:07Z</time>
      </trkpt>
      <trkpt lat="45.68595" lon="6.46789">
        <ele>1978</ele>
        <time>2022-07-16T04:01:09Z</time>
      </trkpt>
      <trkpt lat="45.68593" lon="6.4679">
        <ele>1978</ele>
        <time>2022-07-16T04:01:11Z</time>
      </trkpt>
      <trkpt lat="45.68591" lon="6.4679">
        <ele>1979</ele>
        <time>2022-07-16T04:01:12Z</time>
      </trkpt>
      <trkpt lat="45.68589" lon="6.4679">
        <ele>1979</ele>
        <time>2022-07-16T04:01:15Z</time>
      </trkpt>
      <trkpt lat="45.68586" lon="6.46792">
        <ele>1980</ele>
        <time>2022-07-16T04:01:18Z</time>
      </trkpt>
      <trkpt lat="45.68584" lon="6.46793">
        <ele>1981</ele>
        <time>2022-07-16T04:01:21Z</time>
      </trkpt>
      <trkpt lat="45.68582" lon="6.46794">
        <ele>1982</ele>
        <time>2022-07-16T04:01:24Z</time>
      </trkpt>
      <trkpt lat="45.6858" lon="6.46795">
        <ele>1982</ele>
        <time>2022-07-16T04:01:27Z</time>
      </trkpt>
      <trkpt lat="45.68578" lon="6.46797">
        <ele>1983</ele>
        <time>2022-07-16T04:01:31Z</time>
      </trkpt>
      <trkpt lat="45.68576" lon="6.46798">
        <ele>1984</ele>
        <time>2022-07-16T04:01:36Z</time>
      </trkpt>
      <trkpt lat="45.68575" lon="6.46799">
        <ele>1985</ele>
        <time>2022-07-16T04:01:40Z</time>
      </trkpt>
      <trkpt lat="45.68574" lon="6.46802">
        <ele>1986</ele>
        <time>2022-07-16T04:01:44Z</time>
      </trkpt>
      <trkpt lat="45.68572" lon="6.46803">
        <ele>1986</ele>
        <time>2022-07-16T04:01:48Z</time>
      </trkpt>
      <trkpt lat="45.6857" lon="6.46804">
        <ele>1989</ele>
        <time>2022-07-16T04:01:52Z</time>
      </trkpt>
      <trkpt lat="45.68568" lon="6.46804">
        <ele>1989</ele>
        <time>2022-07-16T04:01:55Z</time>
      </trkpt>
      <trkpt lat="45.68566" lon="6.46805">
        <ele>1990</ele>
        <time>2022-07-16T04:01:59Z</time>
      </trkpt>
      <trkpt lat="45.68563" lon="6.46806">
        <ele>1990</ele>
        <time>2022-07-16T04:02:03Z</time>
      </trkpt>
      <trkpt lat="45.68561" lon="6.46807">
        <ele>1991</ele>
        <time>2022-07-16T04:02:06Z</time>
      </trkpt>
      <trkpt lat="45.68559" lon="6.46808">
        <ele>1992</ele>
        <time>2022-07-16T04:02:10Z</time>
      </trkpt>
      <trkpt lat="45.68557" lon="6.46809">
        <ele>1992</ele>
        <time>2022-07-16T04:02:13Z</time>
      </trkpt>
      <trkpt lat="45.68555" lon="6.4681">
        <ele>1994</ele>
        <time>2022-07-16T04:02:20Z</time>
      </trkpt>
      <trkpt lat="45.68553" lon="6.46811">
        <ele>1995</ele>
        <time>2022-07-16T04:02:25Z</time>
      </trkpt>
      <trkpt lat="45.68551" lon="6.46811">
        <ele>1995</ele>
        <time>2022-07-16T04:02:28Z</time>
      </trkpt>
      <trkpt lat="45.68551" lon="6.46813">
        <ele>1997</ele>
        <time>2022-07-16T04:02:35Z</time>
      </trkpt>
      <trkpt lat="45.68551" lon="6.46817">
        <ele>1999</ele>
        <time>2022-07-16T04:02:38Z</time>
      </trkpt>
      <trkpt lat="45.68552" lon="6.4682">
        <ele>2000</ele>
        <time>2022-07-16T04:02:43Z</time>
      </trkpt>
      <trkpt lat="45.68552" lon="6.46822">
        <ele>2000</ele>
        <time>2022-07-16T04:02:46Z</time>
      </trkpt>
      <trkpt lat="45.68553" lon="6.46825">
        <ele>2000</ele>
        <time>2022-07-16T04:02:49Z</time>
      </trkpt>
      <trkpt lat="45.68553" lon="6.46829">
        <ele>2001</ele>
        <time>2022-07-16T04:02:52Z</time>
      </trkpt>
      <trkpt lat="45.68552" lon="6.46831">
        <ele>2002</ele>
        <time>2022-07-16T04:02:55Z</time>
      </trkpt>
      <trkpt lat="45.68551" lon="6.46834">
        <ele>2003</ele>
        <time>2022-07-16T04:03:00Z</time>
      </trkpt>
      <trkpt lat="45.68551" lon="6.46837">
        <ele>2003</ele>
        <time>2022-07-16T04:03:03Z</time>
      </trkpt>
      <trkpt lat="45.68552" lon="6.4684">
        <ele>2004</ele>
        <time>2022-07-16T04:03:06Z</time>
      </trkpt>
      <trkpt lat="45.68551" lon="6.46843">
        <ele>2005</ele>
        <time>2022-07-16T04:03:09Z</time>
      </trkpt>
      <trkpt lat="45.68551" lon="6.46846">
        <ele>2006</ele>
        <time>2022-07-16T04:03:13Z</time>
      </trkpt>
      <trkpt lat="45.6855" lon="6.46849">
        <ele>2006</ele>
        <time>2022-07-16T04:03:16Z</time>
      </trkpt>
      <trkpt lat="45.6855" lon="6.46852">
        <ele>2007</ele>
        <time>2022-07-16T04:03:21Z</time>
      </trkpt>
      <trkpt lat="45.68552" lon="6.46854">
        <ele>2009</ele>
        <time>2022-07-16T04:03:28Z</time>
      </trkpt>
      <trkpt lat="45.68553" lon="6.46857">
        <ele>2009</ele>
        <time>2022-07-16T04:03:31Z</time>
      </trkpt>
      <trkpt lat="45.68553" lon="6.4686">
        <ele>2010</ele>
        <time>2022-07-16T04:03:35Z</time>
      </trkpt>
      <trkpt lat="45.68553" lon="6.46863">
        <ele>2011</ele>
        <time>2022-07-16T04:03:39Z</time>
      </trkpt>
      <trkpt lat="45.68554" lon="6.46866">
        <ele>2012</ele>
        <time>2022-07-16T04:03:43Z</time>
      </trkpt>
      <trkpt lat="45.68554" lon="6.4687">
        <ele>2014</ele>
        <time>2022-07-16T04:03:48Z</time>
      </trkpt>
      <trkpt lat="45.68554" lon="6.46873">
        <ele>2015</ele>
        <time>2022-07-16T04:03:51Z</time>
      </trkpt>
      <trkpt lat="45.68555" lon="6.46876">
        <ele>2016</ele>
        <time>2022-07-16T04:03:55Z</time>
      </trkpt>
      <trkpt lat="45.68556" lon="6.46879">
        <ele>2016</ele>
        <time>2022-07-16T04:03:59Z</time>
      </trkpt>
      <trkpt lat="45.68557" lon="6.46881">
        <ele>2017</ele>
        <time>2022-07-16T04:04:03Z</time>
      </trkpt>
      <trkpt lat="45.68559" lon="6.46883">
        <ele>2018</ele>
        <time>2022-07-16T04:04:07Z</time>
      </trkpt>
      <trkpt lat="45.6856" lon="6.46885">
        <ele>2019</ele>
        <time>2022-07-16T04:04:10Z</time>
      </trkpt>
      <trkpt lat="45.68561" lon="6.46887">
        <ele>2019</ele>
        <time>2022-07-16T04:04:13Z</time>
      </trkpt>
      <trkpt lat="45.68562" lon="6.46889">
        <ele>2019</ele>
        <time>2022-07-16T04:04:16Z</time>
      </trkpt>
      <trkpt lat="45.68563" lon="6.46893">
        <ele>2020</ele>
        <time>2022-07-16T04:04:19Z</time>
      </trkpt>
      <trkpt lat="45.68563" lon="6.46895">
        <ele>2020</ele>
        <time>2022-07-16T04:04:22Z</time>
      </trkpt>
      <trkpt lat="45.68564" lon="6.46898">
        <ele>2020</ele>
        <time>2022-07-16T04:04:25Z</time>
      </trkpt>
      <trkpt lat="45.68564" lon="6.46901">
        <ele>2022</ele>
        <time>2022-07-16T04:04:28Z</time>
      </trkpt>
      <trkpt lat="45.68562" lon="6.46904">
        <ele>2023</ele>
        <time>2022-07-16T04:04:33Z</time>
      </trkpt>
      <trkpt lat="45.68561" lon="6.46905">
        <ele>2023</ele>
        <time>2022-07-16T04:04:36Z</time>
      </trkpt>
      <trkpt lat="45.68559" lon="6.46905">
        <ele>2024</ele>
        <time>2022-07-16T04:04:39Z</time>
      </trkpt>
      <trkpt lat="45.68557" lon="6.46906">
        <ele>2026</ele>
        <time>2022-07-16T04:04:47Z</time>
      </trkpt>
      <trkpt lat="45.68556" lon="6.46909">
        <ele>2027</ele>
        <time>2022-07-16T04:04:51Z</time>
      </trkpt>
      <trkpt lat="45.68555" lon="6.46911">
        <ele>2027</ele>
        <time>2022-07-16T04:04:53Z</time>
      </trkpt>
      <trkpt lat="45.68555" lon="6.46914">
        <ele>2027</ele>
        <time>2022-07-16T04:04:55Z</time>
      </trkpt>
      <trkpt lat="45.68554" lon="6.46917">
        <ele>2027</ele>
        <time>2022-07-16T04:04:57Z</time>
      </trkpt>
      <trkpt lat="45.68553" lon="6.46919">
        <ele>2028</ele>
        <time>2022-07-16T04:04:59Z</time>
      </trkpt>
      <trkpt lat="45.68552" lon="6.46921">
        <ele>2028</ele>
        <time>2022-07-16T04:05:00Z</time>
      </trkpt>
      <trkpt lat="45.68551" lon="6.46924">
        <ele>2028</ele>
        <time>2022-07-16T04:05:03Z</time>
      </trkpt>
      <trkpt lat="45.68551" lon="6.46927">
        <ele>2029</ele>
        <time>2022-07-16T04:05:06Z</time>
      </trkpt>
      <trkpt lat="45.68549" lon="6.4693">
        <ele>2029</ele>
        <time>2022-07-16T04:05:09Z</time>
      </trkpt>
      <trkpt lat="45.68547" lon="6.46931">
        <ele>2030</ele>
        <time>2022-07-16T04:05:12Z</time>
      </trkpt>
      <trkpt lat="45.68546" lon="6.46932">
        <ele>2031</ele>
        <time>2022-07-16T04:05:15Z</time>
      </trkpt>
      <trkpt lat="45.68544" lon="6.46933">
        <ele>2031</ele>
        <time>2022-07-16T04:05:17Z</time>
      </trkpt>
      <trkpt lat="45.68541" lon="6.46932">
        <ele>2032</ele>
        <time>2022-07-16T04:05:20Z</time>
      </trkpt>
      <trkpt lat="45.68539" lon="6.46931">
        <ele>2032</ele>
        <time>2022-07-16T04:05:23Z</time>
      </trkpt>
      <trkpt lat="45.68536" lon="6.46932">
        <ele>2033</ele>
        <time>2022-07-16T04:05:25Z</time>
      </trkpt>
      <trkpt lat="45.68534" lon="6.46932">
        <ele>2033</ele>
        <time>2022-07-16T04:05:27Z</time>
      </trkpt>
      <trkpt lat="45.68532" lon="6.46931">
        <ele>2034</ele>
        <time>2022-07-16T04:05:29Z</time>
      </trkpt>
      <trkpt lat="45.68529" lon="6.4693">
        <ele>2035</ele>
        <time>2022-07-16T04:05:32Z</time>
      </trkpt>
      <trkpt lat="45.68527" lon="6.46931">
        <ele>2036</ele>
        <time>2022-07-16T04:05:37Z</time>
      </trkpt>
      <trkpt lat="45.68526" lon="6.46932">
        <ele>2036</ele>
        <time>2022-07-16T04:05:39Z</time>
      </trkpt>
      <trkpt lat="45.68523" lon="6.46933">
        <ele>2037</ele>
        <time>2022-07-16T04:05:41Z</time>
      </trkpt>
      <trkpt lat="45.68521" lon="6.46932">
        <ele>2037</ele>
        <time>2022-07-16T04:05:43Z</time>
      </trkpt>
      <trkpt lat="45.68519" lon="6.46932">
        <ele>2037</ele>
        <time>2022-07-16T04:05:45Z</time>
      </trkpt>
      <trkpt lat="45.68517" lon="6.46932">
        <ele>2037</ele>
        <time>2022-07-16T04:05:47Z</time>
      </trkpt>
      <trkpt lat="45.68515" lon="6.46933">
        <ele>2038</ele>
        <time>2022-07-16T04:05:49Z</time>
      </trkpt>
      <trkpt lat="45.68513" lon="6.46935">
        <ele>2038</ele>
        <time>2022-07-16T04:05:52Z</time>
      </trkpt>
      <trkpt lat="45.68511" lon="6.46937">
        <ele>2038</ele>
        <time>2022-07-16T04:05:54Z</time>
      </trkpt>
      <trkpt lat="45.68509" lon="6.46937">
        <ele>2040</ele>
        <time>2022-07-16T04:05:57Z</time>
      </trkpt>
      <trkpt lat="45.68507" lon="6.46937">
        <ele>2041</ele>
        <time>2022-07-16T04:06:01Z</time>
      </trkpt>
      <trkpt lat="45.68505" lon="6.46938">
        <ele>2041</ele>
        <time>2022-07-16T04:06:05Z</time>
      </trkpt>
      <trkpt lat="45.68503" lon="6.46938">
        <ele>2042</ele>
        <time>2022-07-16T04:06:08Z</time>
      </trkpt>
      <trkpt lat="45.68501" lon="6.46937">
        <ele>2043</ele>
        <time>2022-07-16T04:06:10Z</time>
      </trkpt>
      <trkpt lat="45.68499" lon="6.46936">
        <ele>2043</ele>
        <time>2022-07-16T04:06:12Z</time>
      </trkpt>
      <trkpt lat="45.68498" lon="6.46934">
        <ele>2045</ele>
        <time>2022-07-16T04:06:16Z</time>
      </trkpt>
      <trkpt lat="45.68496" lon="6.46934">
        <ele>2046</ele>
        <time>2022-07-16T04:06:22Z</time>
      </trkpt>
      <trkpt lat="45.68494" lon="6.46935">
        <ele>2047</ele>
        <time>2022-07-16T04:06:25Z</time>
      </trkpt>
      <trkpt lat="45.68492" lon="6.46934">
        <ele>2048</ele>
        <time>2022-07-16T04:06:29Z</time>
      </trkpt>
      <trkpt lat="45.6849" lon="6.46934">
        <ele>2049</ele>
        <time>2022-07-16T04:06:33Z</time>
      </trkpt>
      <trkpt lat="45.68488" lon="6.46933">
        <ele>2050</ele>
        <time>2022-07-16T04:06:36Z</time>
      </trkpt>
      <trkpt lat="45.68486" lon="6.46931">
        <ele>2050</ele>
        <time>2022-07-16T04:06:40Z</time>
      </trkpt>
      <trkpt lat="45.68485" lon="6.4693">
        <ele>2051</ele>
        <time>2022-07-16T04:06:44Z</time>
      </trkpt>
      <trkpt lat="45.68483" lon="6.46928">
        <ele>2052</ele>
        <time>2022-07-16T04:06:48Z</time>
      </trkpt>
      <trkpt lat="45.68481" lon="6.46929">
        <ele>2053</ele>
        <time>2022-07-16T04:06:52Z</time>
      </trkpt>
      <trkpt lat="45.6848" lon="6.46932">
        <ele>2053</ele>
        <time>2022-07-16T04:06:56Z</time>
      </trkpt>
      <trkpt lat="45.6848" lon="6.46936">
        <ele>2054</ele>
        <time>2022-07-16T04:06:59Z</time>
      </trkpt>
      <trkpt lat="45.68479" lon="6.46939">
        <ele>2054</ele>
        <time>2022-07-16T04:07:02Z</time>
      </trkpt>
      <trkpt lat="45.6848" lon="6.46941">
        <ele>2055</ele>
        <time>2022-07-16T04:07:04Z</time>
      </trkpt>
      <trkpt lat="45.68478" lon="6.46943">
        <ele>2056</ele>
        <time>2022-07-16T04:07:07Z</time>
      </trkpt>
      <trkpt lat="45.68476" lon="6.46944">
        <ele>2056</ele>
        <time>2022-07-16T04:07:11Z</time>
      </trkpt>
      <trkpt lat="45.68473" lon="6.46944">
        <ele>2057</ele>
        <time>2022-07-16T04:07:15Z</time>
      </trkpt>
      <trkpt lat="45.68471" lon="6.46943">
        <ele>2058</ele>
        <time>2022-07-16T04:07:18Z</time>
      </trkpt>
      <trkpt lat="45.68469" lon="6.46944">
        <ele>2058</ele>
        <time>2022-07-16T04:07:22Z</time>
      </trkpt>
      <trkpt lat="45.68468" lon="6.46945">
        <ele>2060</ele>
        <time>2022-07-16T04:07:25Z</time>
      </trkpt>
      <trkpt lat="45.68466" lon="6.46946">
        <ele>2060</ele>
        <time>2022-07-16T04:07:28Z</time>
      </trkpt>
      <trkpt lat="45.68464" lon="6.46948">
        <ele>2060</ele>
        <time>2022-07-16T04:07:33Z</time>
      </trkpt>
      <trkpt lat="45.68465" lon="6.46952">
        <ele>2062</ele>
        <time>2022-07-16T04:07:38Z</time>
      </trkpt>
      <trkpt lat="45.68466" lon="6.46954">
        <ele>2062</ele>
        <time>2022-07-16T04:07:40Z</time>
      </trkpt>
      <trkpt lat="45.68468" lon="6.46956">
        <ele>2062</ele>
        <time>2022-07-16T04:07:42Z</time>
      </trkpt>
      <trkpt lat="45.68469" lon="6.46959">
        <ele>2063</ele>
        <time>2022-07-16T04:07:44Z</time>
      </trkpt>
      <trkpt lat="45.68469" lon="6.46962">
        <ele>2064</ele>
        <time>2022-07-16T04:07:46Z</time>
      </trkpt>
      <trkpt lat="45.6847" lon="6.46964">
        <ele>2064</ele>
        <time>2022-07-16T04:07:48Z</time>
      </trkpt>
      <trkpt lat="45.68471" lon="6.46967">
        <ele>2066</ele>
        <time>2022-07-16T04:07:50Z</time>
      </trkpt>
      <trkpt lat="45.68473" lon="6.4697">
        <ele>2066</ele>
        <time>2022-07-16T04:07:52Z</time>
      </trkpt>
      <trkpt lat="45.68474" lon="6.46972">
        <ele>2066</ele>
        <time>2022-07-16T04:07:54Z</time>
      </trkpt>
      <trkpt lat="45.68476" lon="6.46975">
        <ele>2066</ele>
        <time>2022-07-16T04:07:56Z</time>
      </trkpt>
      <trkpt lat="45.68477" lon="6.46977">
        <ele>2066</ele>
        <time>2022-07-16T04:07:58Z</time>
      </trkpt>
      <trkpt lat="45.68477" lon="6.4698">
        <ele>2067</ele>
        <time>2022-07-16T04:08:00Z</time>
      </trkpt>
      <trkpt lat="45.68478" lon="6.46983">
        <ele>2068</ele>
        <time>2022-07-16T04:08:05Z</time>
      </trkpt>
      <trkpt lat="45.68479" lon="6.46986">
        <ele>2069</ele>
        <time>2022-07-16T04:08:09Z</time>
      </trkpt>
      <trkpt lat="45.6848" lon="6.46988">
        <ele>2070</ele>
        <time>2022-07-16T04:08:12Z</time>
      </trkpt>
      <trkpt lat="45.68481" lon="6.46991">
        <ele>2070</ele>
        <time>2022-07-16T04:08:14Z</time>
      </trkpt>
      <trkpt lat="45.68482" lon="6.46994">
        <ele>2070</ele>
        <time>2022-07-16T04:08:16Z</time>
      </trkpt>
      <trkpt lat="45.68484" lon="6.46996">
        <ele>2071</ele>
        <time>2022-07-16T04:08:18Z</time>
      </trkpt>
      <trkpt lat="45.68485" lon="6.46999">
        <ele>2071</ele>
        <time>2022-07-16T04:08:20Z</time>
      </trkpt>
      <trkpt lat="45.68487" lon="6.47002">
        <ele>2071</ele>
        <time>2022-07-16T04:08:22Z</time>
      </trkpt>
      <trkpt lat="45.68488" lon="6.47005">
        <ele>2071</ele>
        <time>2022-07-16T04:08:24Z</time>
      </trkpt>
      <trkpt lat="45.68489" lon="6.47007">
        <ele>2071</ele>
        <time>2022-07-16T04:08:26Z</time>
      </trkpt>
      <trkpt lat="45.6849" lon="6.47009">
        <ele>2072</ele>
        <time>2022-07-16T04:08:28Z</time>
      </trkpt>
      <trkpt lat="45.68492" lon="6.47011">
        <ele>2072</ele>
        <time>2022-07-16T04:08:29Z</time>
      </trkpt>
      <trkpt lat="45.68493" lon="6.47013">
        <ele>2072</ele>
        <time>2022-07-16T04:08:32Z</time>
      </trkpt>
      <trkpt lat="45.68494" lon="6.47017">
        <ele>2073</ele>
        <time>2022-07-16T04:08:35Z</time>
      </trkpt>
      <trkpt lat="45.68495" lon="6.47019">
        <ele>2073</ele>
        <time>2022-07-16T04:08:37Z</time>
      </trkpt>
      <trkpt lat="45.68496" lon="6.47022">
        <ele>2073</ele>
        <time>2022-07-16T04:08:39Z</time>
      </trkpt>
      <trkpt lat="45.68497" lon="6.47024">
        <ele>2075</ele>
        <time>2022-07-16T04:08:41Z</time>
      </trkpt>
      <trkpt lat="45.68498" lon="6.47026">
        <ele>2075</ele>
        <time>2022-07-16T04:08:43Z</time>
      </trkpt>
      <trkpt lat="45.68499" lon="6.47029">
        <ele>2075</ele>
        <time>2022-07-16T04:08:46Z</time>
      </trkpt>
      <trkpt lat="45.685" lon="6.47032">
        <ele>2076</ele>
        <time>2022-07-16T04:08:49Z</time>
      </trkpt>
      <trkpt lat="45.685" lon="6.47036">
        <ele>2077</ele>
        <time>2022-07-16T04:08:52Z</time>
      </trkpt>
      <trkpt lat="45.68501" lon="6.47038">
        <ele>2077</ele>
        <time>2022-07-16T04:08:54Z</time>
      </trkpt>
      <trkpt lat="45.685" lon="6.47041">
        <ele>2078</ele>
        <time>2022-07-16T04:08:57Z</time>
      </trkpt>
      <trkpt lat="45.685" lon="6.47044">
        <ele>2078</ele>
        <time>2022-07-16T04:09:00Z</time>
      </trkpt>
      <trkpt lat="45.68501" lon="6.47047">
        <ele>2078</ele>
        <time>2022-07-16T04:09:03Z</time>
      </trkpt>
      <trkpt lat="45.68501" lon="6.47051">
        <ele>2080</ele>
        <time>2022-07-16T04:09:06Z</time>
      </trkpt>
      <trkpt lat="45.68501" lon="6.47053">
        <ele>2080</ele>
        <time>2022-07-16T04:09:09Z</time>
      </trkpt>
      <trkpt lat="45.68501" lon="6.47056">
        <ele>2081</ele>
        <time>2022-07-16T04:09:12Z</time>
      </trkpt>
      <trkpt lat="45.68501" lon="6.47059">
        <ele>2081</ele>
        <time>2022-07-16T04:09:15Z</time>
      </trkpt>
      <trkpt lat="45.68499" lon="6.47061">
        <ele>2081</ele>
        <time>2022-07-16T04:09:18Z</time>
      </trkpt>
      <trkpt lat="45.68497" lon="6.4706">
        <ele>2082</ele>
        <time>2022-07-16T04:09:21Z</time>
      </trkpt>
      <trkpt lat="45.68495" lon="6.47058">
        <ele>2084</ele>
        <time>2022-07-16T04:09:25Z</time>
      </trkpt>
      <trkpt lat="45.68493" lon="6.47056">
        <ele>2084</ele>
        <time>2022-07-16T04:09:28Z</time>
      </trkpt>
      <trkpt lat="45.68491" lon="6.47054">
        <ele>2085</ele>
        <time>2022-07-16T04:09:31Z</time>
      </trkpt>
      <trkpt lat="45.68489" lon="6.47053">
        <ele>2085</ele>
        <time>2022-07-16T04:09:35Z</time>
      </trkpt>
      <trkpt lat="45.68487" lon="6.47051">
        <ele>2086</ele>
        <time>2022-07-16T04:09:40Z</time>
      </trkpt>
      <trkpt lat="45.68486" lon="6.47049">
        <ele>2087</ele>
        <time>2022-07-16T04:09:45Z</time>
      </trkpt>
      <trkpt lat="45.68484" lon="6.47049">
        <ele>2089</ele>
        <time>2022-07-16T04:09:50Z</time>
      </trkpt>
      <trkpt lat="45.68482" lon="6.47048">
        <ele>2089</ele>
        <time>2022-07-16T04:09:53Z</time>
      </trkpt>
      <trkpt lat="45.6848" lon="6.47046">
        <ele>2089</ele>
        <time>2022-07-16T04:09:56Z</time>
      </trkpt>
      <trkpt lat="45.68477" lon="6.47045">
        <ele>2089</ele>
        <time>2022-07-16T04:09:58Z</time>
      </trkpt>
      <trkpt lat="45.68475" lon="6.47042">
        <ele>2089</ele>
        <time>2022-07-16T04:10:00Z</time>
      </trkpt>
      <trkpt lat="45.68474" lon="6.47041">
        <ele>2090</ele>
        <time>2022-07-16T04:10:02Z</time>
      </trkpt>
      <trkpt lat="45.68472" lon="6.4704">
        <ele>2090</ele>
        <time>2022-07-16T04:10:04Z</time>
      </trkpt>
      <trkpt lat="45.6847" lon="6.47038">
        <ele>2090</ele>
        <time>2022-07-16T04:10:06Z</time>
      </trkpt>
      <trkpt lat="45.68468" lon="6.47037">
        <ele>2092</ele>
        <time>2022-07-16T04:10:08Z</time>
      </trkpt>
      <trkpt lat="45.68466" lon="6.47037">
        <ele>2092</ele>
        <time>2022-07-16T04:10:10Z</time>
      </trkpt>
      <trkpt lat="45.68464" lon="6.47037">
        <ele>2092</ele>
        <time>2022-07-16T04:10:12Z</time>
      </trkpt>
      <trkpt lat="45.68462" lon="6.47037">
        <ele>2093</ele>
        <time>2022-07-16T04:10:15Z</time>
      </trkpt>
      <trkpt lat="45.6846" lon="6.47036">
        <ele>2093</ele>
        <time>2022-07-16T04:10:18Z</time>
      </trkpt>
      <trkpt lat="45.68458" lon="6.47034">
        <ele>2094</ele>
        <time>2022-07-16T04:10:21Z</time>
      </trkpt>
      <trkpt lat="45.68456" lon="6.47033">
        <ele>2094</ele>
        <time>2022-07-16T04:10:23Z</time>
      </trkpt>
      <trkpt lat="45.68454" lon="6.47032">
        <ele>2096</ele>
        <time>2022-07-16T04:10:27Z</time>
      </trkpt>
      <trkpt lat="45.68452" lon="6.4703">
        <ele>2097</ele>
        <time>2022-07-16T04:10:30Z</time>
      </trkpt>
      <trkpt lat="45.68449" lon="6.47029">
        <ele>2097</ele>
        <time>2022-07-16T04:10:33Z</time>
      </trkpt>
      <trkpt lat="45.68448" lon="6.47027">
        <ele>2097</ele>
        <time>2022-07-16T04:10:35Z</time>
      </trkpt>
      <trkpt lat="45.68445" lon="6.47026">
        <ele>2098</ele>
        <time>2022-07-16T04:10:38Z</time>
      </trkpt>
      <trkpt lat="45.68444" lon="6.47024">
        <ele>2099</ele>
        <time>2022-07-16T04:10:42Z</time>
      </trkpt>
      <trkpt lat="45.68442" lon="6.47022">
        <ele>2100</ele>
        <time>2022-07-16T04:10:45Z</time>
      </trkpt>
      <trkpt lat="45.6844" lon="6.47021">
        <ele>2101</ele>
        <time>2022-07-16T04:10:48Z</time>
      </trkpt>
      <trkpt lat="45.68438" lon="6.4702">
        <ele>2101</ele>
        <time>2022-07-16T04:10:51Z</time>
      </trkpt>
      <trkpt lat="45.68436" lon="6.47018">
        <ele>2101</ele>
        <time>2022-07-16T04:10:54Z</time>
      </trkpt>
      <trkpt lat="45.68434" lon="6.47016">
        <ele>2102</ele>
        <time>2022-07-16T04:10:58Z</time>
      </trkpt>
      <trkpt lat="45.68432" lon="6.47016">
        <ele>2103</ele>
        <time>2022-07-16T04:11:01Z</time>
      </trkpt>
      <trkpt lat="45.6843" lon="6.47016">
        <ele>2104</ele>
        <time>2022-07-16T04:11:04Z</time>
      </trkpt>
      <trkpt lat="45.68429" lon="6.47015">
        <ele>2104</ele>
        <time>2022-07-16T04:11:06Z</time>
      </trkpt>
      <trkpt lat="45.68427" lon="6.47014">
        <ele>2105</ele>
        <time>2022-07-16T04:11:09Z</time>
      </trkpt>
      <trkpt lat="45.68425" lon="6.47012">
        <ele>2105</ele>
        <time>2022-07-16T04:11:11Z</time>
      </trkpt>
      <trkpt lat="45.68423" lon="6.47009">
        <ele>2105</ele>
        <time>2022-07-16T04:11:13Z</time>
      </trkpt>
      <trkpt lat="45.68421" lon="6.47007">
        <ele>2105</ele>
        <time>2022-07-16T04:11:15Z</time>
      </trkpt>
      <trkpt lat="45.68419" lon="6.47007">
        <ele>2105</ele>
        <time>2022-07-16T04:11:17Z</time>
      </trkpt>
      <trkpt lat="45.68417" lon="6.47007">
        <ele>2105</ele>
        <time>2022-07-16T04:11:19Z</time>
      </trkpt>
      <trkpt lat="45.68415" lon="6.47008">
        <ele>2105</ele>
        <time>2022-07-16T04:11:20Z</time>
      </trkpt>
      <trkpt lat="45.68413" lon="6.47009">
        <ele>2105</ele>
        <time>2022-07-16T04:11:24Z</time>
      </trkpt>
      <trkpt lat="45.68411" lon="6.47009">
        <ele>2106</ele>
        <time>2022-07-16T04:11:27Z</time>
      </trkpt>
      <trkpt lat="45.68409" lon="6.47008">
        <ele>2107</ele>
        <time>2022-07-16T04:11:33Z</time>
      </trkpt>
      <trkpt lat="45.68407" lon="6.47007">
        <ele>2108</ele>
        <time>2022-07-16T04:11:39Z</time>
      </trkpt>
      <trkpt lat="45.68405" lon="6.47007">
        <ele>2109</ele>
        <time>2022-07-16T04:11:44Z</time>
      </trkpt>
      <trkpt lat="45.68404" lon="6.47005">
        <ele>2109</ele>
        <time>2022-07-16T04:11:49Z</time>
      </trkpt>
      <trkpt lat="45.68402" lon="6.47004">
        <ele>2110</ele>
        <time>2022-07-16T04:11:55Z</time>
      </trkpt>
      <trkpt lat="45.684" lon="6.47003">
        <ele>2111</ele>
        <time>2022-07-16T04:11:59Z</time>
      </trkpt>
      <trkpt lat="45.68398" lon="6.47001">
        <ele>2112</ele>
        <time>2022-07-16T04:12:04Z</time>
      </trkpt>
      <trkpt lat="45.68396" lon="6.46999">
        <ele>2112</ele>
        <time>2022-07-16T04:12:07Z</time>
      </trkpt>
      <trkpt lat="45.68394" lon="6.46998">
        <ele>2113</ele>
        <time>2022-07-16T04:12:09Z</time>
      </trkpt>
      <trkpt lat="45.68393" lon="6.46997">
        <ele>2114</ele>
        <time>2022-07-16T04:12:12Z</time>
      </trkpt>
      <trkpt lat="45.6839" lon="6.46996">
        <ele>2114</ele>
        <time>2022-07-16T04:12:15Z</time>
      </trkpt>
      <trkpt lat="45.68388" lon="6.46994">
        <ele>2114</ele>
        <time>2022-07-16T04:12:17Z</time>
      </trkpt>
      <trkpt lat="45.68386" lon="6.46993">
        <ele>2115</ele>
        <time>2022-07-16T04:12:20Z</time>
      </trkpt>
      <trkpt lat="45.68384" lon="6.46991">
        <ele>2118</ele>
        <time>2022-07-16T04:12:23Z</time>
      </trkpt>
      <trkpt lat="45.68382" lon="6.4699">
        <ele>2118</ele>
        <time>2022-07-16T04:12:26Z</time>
      </trkpt>
      <trkpt lat="45.6838" lon="6.46989">
        <ele>2118</ele>
        <time>2022-07-16T04:12:29Z</time>
      </trkpt>
      <trkpt lat="45.68379" lon="6.46987">
        <ele>2118</ele>
        <time>2022-07-16T04:12:30Z</time>
      </trkpt>
      <trkpt lat="45.68377" lon="6.46985">
        <ele>2119</ele>
        <time>2022-07-16T04:12:33Z</time>
      </trkpt>
      <trkpt lat="45.68375" lon="6.46985">
        <ele>2119</ele>
        <time>2022-07-16T04:12:36Z</time>
      </trkpt>
      <trkpt lat="45.68374" lon="6.46985">
        <ele>2120</ele>
        <time>2022-07-16T04:12:38Z</time>
      </trkpt>
      <trkpt lat="45.68372" lon="6.46986">
        <ele>2121</ele>
        <time>2022-07-16T04:12:41Z</time>
      </trkpt>
      <trkpt lat="45.6837" lon="6.46988">
        <ele>2122</ele>
        <time>2022-07-16T04:12:46Z</time>
      </trkpt>
      <trkpt lat="45.68369" lon="6.4699">
        <ele>2123</ele>
        <time>2022-07-16T04:12:50Z</time>
      </trkpt>
      <trkpt lat="45.68367" lon="6.46991">
        <ele>2123</ele>
        <time>2022-07-16T04:12:53Z</time>
      </trkpt>
      <trkpt lat="45.68365" lon="6.46992">
        <ele>2124</ele>
        <time>2022-07-16T04:12:57Z</time>
      </trkpt>
      <trkpt lat="45.68363" lon="6.46993">
        <ele>2125</ele>
        <time>2022-07-16T04:13:00Z</time>
      </trkpt>
      <trkpt lat="45.6836" lon="6.46993">
        <ele>2126</ele>
        <time>2022-07-16T04:13:03Z</time>
      </trkpt>
      <trkpt lat="45.68359" lon="6.46992">
        <ele>2126</ele>
        <time>2022-07-16T04:13:06Z</time>
      </trkpt>
      <trkpt lat="45.68356" lon="6.46993">
        <ele>2126</ele>
        <time>2022-07-16T04:13:10Z</time>
      </trkpt>
      <trkpt lat="45.68355" lon="6.46995">
        <ele>2127</ele>
        <time>2022-07-16T04:13:13Z</time>
      </trkpt>
      <trkpt lat="45.68354" lon="6.46998">
        <ele>2128</ele>
        <time>2022-07-16T04:13:18Z</time>
      </trkpt>
      <trkpt lat="45.68353" lon="6.47001">
        <ele>2128</ele>
        <time>2022-07-16T04:13:21Z</time>
      </trkpt>
      <trkpt lat="45.68353" lon="6.47004">
        <ele>2129</ele>
        <time>2022-07-16T04:13:25Z</time>
      </trkpt>
      <trkpt lat="45.68352" lon="6.47007">
        <ele>2130</ele>
        <time>2022-07-16T04:13:29Z</time>
      </trkpt>
      <trkpt lat="45.6835" lon="6.47007">
        <ele>2130</ele>
        <time>2022-07-16T04:13:33Z</time>
      </trkpt>
      <trkpt lat="45.68348" lon="6.47008">
        <ele>2132</ele>
        <time>2022-07-16T04:13:37Z</time>
      </trkpt>
      <trkpt lat="45.68346" lon="6.47009">
        <ele>2133</ele>
        <time>2022-07-16T04:13:40Z</time>
      </trkpt>
      <trkpt lat="45.68345" lon="6.4701">
        <ele>2133</ele>
        <time>2022-07-16T04:13:44Z</time>
      </trkpt>
      <trkpt lat="45.68343" lon="6.4701">
        <ele>2134</ele>
        <time>2022-07-16T04:13:47Z</time>
      </trkpt>
      <trkpt lat="45.6834" lon="6.4701">
        <ele>2135</ele>
        <time>2022-07-16T04:13:51Z</time>
      </trkpt>
      <trkpt lat="45.68338" lon="6.4701">
        <ele>2136</ele>
        <time>2022-07-16T04:13:54Z</time>
      </trkpt>
      <trkpt lat="45.68335" lon="6.4701">
        <ele>2137</ele>
        <time>2022-07-16T04:13:57Z</time>
      </trkpt>
      <trkpt lat="45.68333" lon="6.4701">
        <ele>2138</ele>
        <time>2022-07-16T04:14:00Z</time>
      </trkpt>
      <trkpt lat="45.68331" lon="6.4701">
        <ele>2139</ele>
        <time>2022-07-16T04:14:03Z</time>
      </trkpt>
      <trkpt lat="45.68329" lon="6.4701">
        <ele>2140</ele>
        <time>2022-07-16T04:14:07Z</time>
      </trkpt>
      <trkpt lat="45.68327" lon="6.47009">
        <ele>2140</ele>
        <time>2022-07-16T04:14:11Z</time>
      </trkpt>
      <trkpt lat="45.68325" lon="6.47007">
        <ele>2142</ele>
        <time>2022-07-16T04:14:14Z</time>
      </trkpt>
      <trkpt lat="45.68323" lon="6.47005">
        <ele>2142</ele>
        <time>2022-07-16T04:14:18Z</time>
      </trkpt>
      <trkpt lat="45.68321" lon="6.47003">
        <ele>2145</ele>
        <time>2022-07-16T04:14:26Z</time>
      </trkpt>
      <trkpt lat="45.6832" lon="6.47003">
        <ele>2145</ele>
        <time>2022-07-16T04:14:30Z</time>
      </trkpt>
      <trkpt lat="45.68318" lon="6.47002">
        <ele>2146</ele>
        <time>2022-07-16T04:14:32Z</time>
      </trkpt>
      <trkpt lat="45.68315" lon="6.47">
        <ele>2146</ele>
        <time>2022-07-16T04:14:34Z</time>
      </trkpt>
      <trkpt lat="45.68313" lon="6.46998">
        <ele>2147</ele>
        <time>2022-07-16T04:14:38Z</time>
      </trkpt>
      <trkpt lat="45.68311" lon="6.46997">
        <ele>2148</ele>
        <time>2022-07-16T04:14:41Z</time>
      </trkpt>
      <trkpt lat="45.6831" lon="6.46994">
        <ele>2149</ele>
        <time>2022-07-16T04:14:45Z</time>
      </trkpt>
      <trkpt lat="45.68308" lon="6.46993">
        <ele>2149</ele>
        <time>2022-07-16T04:14:49Z</time>
      </trkpt>
      <trkpt lat="45.68306" lon="6.46991">
        <ele>2150</ele>
        <time>2022-07-16T04:14:54Z</time>
      </trkpt>
      <trkpt lat="45.68304" lon="6.46991">
        <ele>2151</ele>
        <time>2022-07-16T04:14:57Z</time>
      </trkpt>
      <trkpt lat="45.68302" lon="6.4699">
        <ele>2152</ele>
        <time>2022-07-16T04:15:00Z</time>
      </trkpt>
      <trkpt lat="45.683" lon="6.46989">
        <ele>2152</ele>
        <time>2022-07-16T04:15:05Z</time>
      </trkpt>
      <trkpt lat="45.68298" lon="6.46988">
        <ele>2153</ele>
        <time>2022-07-16T04:15:11Z</time>
      </trkpt>
      <trkpt lat="45.68297" lon="6.46987">
        <ele>2153</ele>
        <time>2022-07-16T04:15:15Z</time>
      </trkpt>
      <trkpt lat="45.68295" lon="6.46986">
        <ele>2154</ele>
        <time>2022-07-16T04:15:25Z</time>
      </trkpt>
      <trkpt lat="45.68295" lon="6.46986">
        <ele>2155</ele>
        <time>2022-07-16T04:15:30Z</time>
      </trkpt>
      <trkpt lat="45.68293" lon="6.46985">
        <ele>2155</ele>
        <time>2022-07-16T04:15:32Z</time>
      </trkpt>
      <trkpt lat="45.68291" lon="6.46985">
        <ele>2156</ele>
        <time>2022-07-16T04:15:35Z</time>
      </trkpt>
      <trkpt lat="45.68289" lon="6.46987">
        <ele>2158</ele>
        <time>2022-07-16T04:15:41Z</time>
      </trkpt>
      <trkpt lat="45.68289" lon="6.46989">
        <ele>2158</ele>
        <time>2022-07-16T04:15:44Z</time>
      </trkpt>
      <trkpt lat="45.68289" lon="6.46993">
        <ele>2159</ele>
        <time>2022-07-16T04:15:48Z</time>
      </trkpt>
      <trkpt lat="45.6829" lon="6.46996">
        <ele>2160</ele>
        <time>2022-07-16T04:15:50Z</time>
      </trkpt>
      <trkpt lat="45.6829" lon="6.46999">
        <ele>2160</ele>
        <time>2022-07-16T04:15:52Z</time>
      </trkpt>
      <trkpt lat="45.68288" lon="6.47002">
        <ele>2161</ele>
        <time>2022-07-16T04:15:54Z</time>
      </trkpt>
      <trkpt lat="45.68287" lon="6.47005">
        <ele>2161</ele>
        <time>2022-07-16T04:15:56Z</time>
      </trkpt>
      <trkpt lat="45.68286" lon="6.47007">
        <ele>2161</ele>
        <time>2022-07-16T04:15:58Z</time>
      </trkpt>
      <trkpt lat="45.68286" lon="6.4701">
        <ele>2161</ele>
        <time>2022-07-16T04:16:00Z</time>
      </trkpt>
      <trkpt lat="45.68285" lon="6.47014">
        <ele>2161</ele>
        <time>2022-07-16T04:16:03Z</time>
      </trkpt>
      <trkpt lat="45.68285" lon="6.47017">
        <ele>2162</ele>
        <time>2022-07-16T04:16:06Z</time>
      </trkpt>
      <trkpt lat="45.68284" lon="6.4702">
        <ele>2163</ele>
        <time>2022-07-16T04:16:09Z</time>
      </trkpt>
      <trkpt lat="45.68284" lon="6.47023">
        <ele>2164</ele>
        <time>2022-07-16T04:16:12Z</time>
      </trkpt>
      <trkpt lat="45.68285" lon="6.47025">
        <ele>2165</ele>
        <time>2022-07-16T04:16:16Z</time>
      </trkpt>
      <trkpt lat="45.68285" lon="6.47028">
        <ele>2165</ele>
        <time>2022-07-16T04:16:20Z</time>
      </trkpt>
      <trkpt lat="45.68282" lon="6.4703">
        <ele>2167</ele>
        <time>2022-07-16T04:16:23Z</time>
      </trkpt>
      <trkpt lat="45.68281" lon="6.47029">
        <ele>2168</ele>
        <time>2022-07-16T04:16:28Z</time>
      </trkpt>
      <trkpt lat="45.68279" lon="6.47029">
        <ele>2168</ele>
        <time>2022-07-16T04:16:30Z</time>
      </trkpt>
      <trkpt lat="45.68276" lon="6.47031">
        <ele>2168</ele>
        <time>2022-07-16T04:16:33Z</time>
      </trkpt>
      <trkpt lat="45.68275" lon="6.47031">
        <ele>2168</ele>
        <time>2022-07-16T04:16:35Z</time>
      </trkpt>
      <trkpt lat="45.68273" lon="6.47033">
        <ele>2170</ele>
        <time>2022-07-16T04:16:38Z</time>
      </trkpt>
      <trkpt lat="45.68272" lon="6.47035">
        <ele>2171</ele>
        <time>2022-07-16T04:16:41Z</time>
      </trkpt>
      <trkpt lat="45.68271" lon="6.47038">
        <ele>2171</ele>
        <time>2022-07-16T04:16:44Z</time>
      </trkpt>
      <trkpt lat="45.68272" lon="6.47041">
        <ele>2172</ele>
        <time>2022-07-16T04:16:47Z</time>
      </trkpt>
      <trkpt lat="45.68271" lon="6.47045">
        <ele>2173</ele>
        <time>2022-07-16T04:16:50Z</time>
      </trkpt>
      <trkpt lat="45.6827" lon="6.47047">
        <ele>2173</ele>
        <time>2022-07-16T04:16:52Z</time>
      </trkpt>
      <trkpt lat="45.68269" lon="6.4705">
        <ele>2173</ele>
        <time>2022-07-16T04:16:54Z</time>
      </trkpt>
      <trkpt lat="45.68269" lon="6.47053">
        <ele>2174</ele>
        <time>2022-07-16T04:16:56Z</time>
      </trkpt>
      <trkpt lat="45.68268" lon="6.47056">
        <ele>2174</ele>
        <time>2022-07-16T04:16:59Z</time>
      </trkpt>
      <trkpt lat="45.68268" lon="6.47059">
        <ele>2175</ele>
        <time>2022-07-16T04:17:02Z</time>
      </trkpt>
      <trkpt lat="45.68267" lon="6.47062">
        <ele>2175</ele>
        <time>2022-07-16T04:17:05Z</time>
      </trkpt>
      <trkpt lat="45.68266" lon="6.47065">
        <ele>2175</ele>
        <time>2022-07-16T04:17:08Z</time>
      </trkpt>
      <trkpt lat="45.68266" lon="6.47069">
        <ele>2176</ele>
        <time>2022-07-16T04:17:12Z</time>
      </trkpt>
      <trkpt lat="45.68264" lon="6.47071">
        <ele>2176</ele>
        <time>2022-07-16T04:17:14Z</time>
      </trkpt>
      <trkpt lat="45.68264" lon="6.47073">
        <ele>2177</ele>
        <time>2022-07-16T04:17:17Z</time>
      </trkpt>
      <trkpt lat="45.68263" lon="6.47076">
        <ele>2178</ele>
        <time>2022-07-16T04:17:21Z</time>
      </trkpt>
      <trkpt lat="45.68263" lon="6.47079">
        <ele>2179</ele>
        <time>2022-07-16T04:17:24Z</time>
      </trkpt>
      <trkpt lat="45.68262" lon="6.47081">
        <ele>2179</ele>
        <time>2022-07-16T04:17:27Z</time>
      </trkpt>
      <trkpt lat="45.6826" lon="6.47083">
        <ele>2180</ele>
        <time>2022-07-16T04:17:30Z</time>
      </trkpt>
      <trkpt lat="45.68258" lon="6.47085">
        <ele>2180</ele>
        <time>2022-07-16T04:17:33Z</time>
      </trkpt>
      <trkpt lat="45.68257" lon="6.47087">
        <ele>2180</ele>
        <time>2022-07-16T04:17:35Z</time>
      </trkpt>
      <trkpt lat="45.68255" lon="6.4709">
        <ele>2181</ele>
        <time>2022-07-16T04:17:37Z</time>
      </trkpt>
      <trkpt lat="45.68254" lon="6.47093">
        <ele>2181</ele>
        <time>2022-07-16T04:17:40Z</time>
      </trkpt>
      <trkpt lat="45.68252" lon="6.47096">
        <ele>2181</ele>
        <time>2022-07-16T04:17:42Z</time>
      </trkpt>
      <trkpt lat="45.6825" lon="6.47099">
        <ele>2181</ele>
        <time>2022-07-16T04:17:44Z</time>
      </trkpt>
      <trkpt lat="45.68248" lon="6.47101">
        <ele>2181</ele>
        <time>2022-07-16T04:17:46Z</time>
      </trkpt>
      <trkpt lat="45.68246" lon="6.47102">
        <ele>2181</ele>
        <time>2022-07-16T04:17:48Z</time>
      </trkpt>
      <trkpt lat="45.68243" lon="6.47104">
        <ele>2181</ele>
        <time>2022-07-16T04:17:50Z</time>
      </trkpt>
      <trkpt lat="45.68241" lon="6.47106">
        <ele>2182</ele>
        <time>2022-07-16T04:17:52Z</time>
      </trkpt>
      <trkpt lat="45.68239" lon="6.47108">
        <ele>2182</ele>
        <time>2022-07-16T04:17:53Z</time>
      </trkpt>
      <trkpt lat="45.68238" lon="6.47113">
        <ele>2182</ele>
        <time>2022-07-16T04:17:55Z</time>
      </trkpt>
      <trkpt lat="45.68238" lon="6.47116">
        <ele>2182</ele>
        <time>2022-07-16T04:17:57Z</time>
      </trkpt>
      <trkpt lat="45.68236" lon="6.47118">
        <ele>2182</ele>
        <time>2022-07-16T04:18:00Z</time>
      </trkpt>
      <trkpt lat="45.68234" lon="6.4712">
        <ele>2182</ele>
        <time>2022-07-16T04:18:02Z</time>
      </trkpt>
      <trkpt lat="45.68233" lon="6.47122">
        <ele>2183</ele>
        <time>2022-07-16T04:18:05Z</time>
      </trkpt>
      <trkpt lat="45.68231" lon="6.47124">
        <ele>2184</ele>
        <time>2022-07-16T04:18:09Z</time>
      </trkpt>
      <trkpt lat="45.6823" lon="6.47126">
        <ele>2185</ele>
        <time>2022-07-16T04:18:15Z</time>
      </trkpt>
      <trkpt lat="45.68229" lon="6.47129">
        <ele>2186</ele>
        <time>2022-07-16T04:18:18Z</time>
      </trkpt>
      <trkpt lat="45.68228" lon="6.47132">
        <ele>2186</ele>
        <time>2022-07-16T04:18:21Z</time>
      </trkpt>
      <trkpt lat="45.68226" lon="6.47134">
        <ele>2187</ele>
        <time>2022-07-16T04:18:24Z</time>
      </trkpt>
      <trkpt lat="45.68225" lon="6.47137">
        <ele>2188</ele>
        <time>2022-07-16T04:18:28Z</time>
      </trkpt>
      <trkpt lat="45.68225" lon="6.4714">
        <ele>2188</ele>
        <time>2022-07-16T04:18:30Z</time>
      </trkpt>
      <trkpt lat="45.68224" lon="6.47145">
        <ele>2188</ele>
        <time>2022-07-16T04:18:32Z</time>
      </trkpt>
      <trkpt lat="45.68223" lon="6.47148">
        <ele>2189</ele>
        <time>2022-07-16T04:18:33Z</time>
      </trkpt>
      <trkpt lat="45.68223" lon="6.4715">
        <ele>2189</ele>
        <time>2022-07-16T04:18:34Z</time>
      </trkpt>
      <trkpt lat="45.68222" lon="6.47154">
        <ele>2189</ele>
        <time>2022-07-16T04:18:36Z</time>
      </trkpt>
      <trkpt lat="45.6822" lon="6.47156">
        <ele>2189</ele>
        <time>2022-07-16T04:18:37Z</time>
      </trkpt>
      <trkpt lat="45.68219" lon="6.47159">
        <ele>2190</ele>
        <time>2022-07-16T04:18:42Z</time>
      </trkpt>
      <trkpt lat="45.68217" lon="6.47162">
        <ele>2190</ele>
        <time>2022-07-16T04:18:44Z</time>
      </trkpt>
      <trkpt lat="45.68215" lon="6.47164">
        <ele>2190</ele>
        <time>2022-07-16T04:18:45Z</time>
      </trkpt>
      <trkpt lat="45.68214" lon="6.47168">
        <ele>2191</ele>
        <time>2022-07-16T04:18:47Z</time>
      </trkpt>
      <trkpt lat="45.68212" lon="6.47172">
        <ele>2191</ele>
        <time>2022-07-16T04:18:48Z</time>
      </trkpt>
      <trkpt lat="45.68211" lon="6.47174">
        <ele>2191</ele>
        <time>2022-07-16T04:18:49Z</time>
      </trkpt>
      <trkpt lat="45.6821" lon="6.47177">
        <ele>2191</ele>
        <time>2022-07-16T04:18:50Z</time>
      </trkpt>
      <trkpt lat="45.68209" lon="6.4718">
        <ele>2191</ele>
        <time>2022-07-16T04:18:51Z</time>
      </trkpt>
      <trkpt lat="45.68209" lon="6.47183">
        <ele>2191</ele>
        <time>2022-07-16T04:18:52Z</time>
      </trkpt>
      <trkpt lat="45.68208" lon="6.47186">
        <ele>2191</ele>
        <time>2022-07-16T04:18:53Z</time>
      </trkpt>
      <trkpt lat="45.68207" lon="6.47189">
        <ele>2191</ele>
        <time>2022-07-16T04:18:54Z</time>
      </trkpt>
      <trkpt lat="45.68207" lon="6.47192">
        <ele>2191</ele>
        <time>2022-07-16T04:18:55Z</time>
      </trkpt>
      <trkpt lat="45.68204" lon="6.47198">
        <ele>2191</ele>
        <time>2022-07-16T04:18:56Z</time>
      </trkpt>
      <trkpt lat="45.68203" lon="6.472">
        <ele>2191</ele>
        <time>2022-07-16T04:18:58Z</time>
      </trkpt>
      <trkpt lat="45.68202" lon="6.47203">
        <ele>2191</ele>
        <time>2022-07-16T04:18:59Z</time>
      </trkpt>
      <trkpt lat="45.68201" lon="6.47206">
        <ele>2191</ele>
        <time>2022-07-16T04:19:00Z</time>
      </trkpt>
      <trkpt lat="45.682" lon="6.47209">
        <ele>2191</ele>
        <time>2022-07-16T04:19:01Z</time>
      </trkpt>
      <trkpt lat="45.68198" lon="6.47211">
        <ele>2191</ele>
        <time>2022-07-16T04:19:02Z</time>
      </trkpt>
      <trkpt lat="45.68197" lon="6.47213">
        <ele>2191</ele>
        <time>2022-07-16T04:19:03Z</time>
      </trkpt>
      <trkpt lat="45.68195" lon="6.47215">
        <ele>2191</ele>
        <time>2022-07-16T04:19:04Z</time>
      </trkpt>
      <trkpt lat="45.68193" lon="6.47217">
        <ele>2191</ele>
        <time>2022-07-16T04:19:05Z</time>
      </trkpt>
      <trkpt lat="45.68191" lon="6.47219">
        <ele>2191</ele>
        <time>2022-07-16T04:19:06Z</time>
      </trkpt>
      <trkpt lat="45.68189" lon="6.47221">
        <ele>2191</ele>
        <time>2022-07-16T04:19:07Z</time>
      </trkpt>
      <trkpt lat="45.68188" lon="6.47223">
        <ele>2191</ele>
        <time>2022-07-16T04:19:08Z</time>
      </trkpt>
      <trkpt lat="45.68186" lon="6.47226">
        <ele>2191</ele>
        <time>2022-07-16T04:19:09Z</time>
      </trkpt>
      <trkpt lat="45.68184" lon="6.47228">
        <ele>2190</ele>
        <time>2022-07-16T04:19:10Z</time>
      </trkpt>
      <trkpt lat="45.68183" lon="6.4723">
        <ele>2190</ele>
        <time>2022-07-16T04:19:11Z</time>
      </trkpt>
      <trkpt lat="45.68181" lon="6.47232">
        <ele>2189</ele>
        <time>2022-07-16T04:19:12Z</time>
      </trkpt>
      <trkpt lat="45.68179" lon="6.47235">
        <ele>2189</ele>
        <time>2022-07-16T04:19:13Z</time>
      </trkpt>
      <trkpt lat="45.68178" lon="6.47237">
        <ele>2189</ele>
        <time>2022-07-16T04:19:14Z</time>
      </trkpt>
      <trkpt lat="45.68176" lon="6.4724">
        <ele>2189</ele>
        <time>2022-07-16T04:19:15Z</time>
      </trkpt>
      <trkpt lat="45.68175" lon="6.47241">
        <ele>2189</ele>
        <time>2022-07-16T04:19:16Z</time>
      </trkpt>
      <trkpt lat="45.68172" lon="6.47242">
        <ele>2188</ele>
        <time>2022-07-16T04:19:18Z</time>
      </trkpt>
      <trkpt lat="45.68171" lon="6.47245">
        <ele>2188</ele>
        <time>2022-07-16T04:19:19Z</time>
      </trkpt>
      <trkpt lat="45.68169" lon="6.47249">
        <ele>2187</ele>
        <time>2022-07-16T04:19:21Z</time>
      </trkpt>
      <trkpt lat="45.68168" lon="6.47252">
        <ele>2187</ele>
        <time>2022-07-16T04:19:22Z</time>
      </trkpt>
      <trkpt lat="45.68167" lon="6.47254">
        <ele>2187</ele>
        <time>2022-07-16T04:19:23Z</time>
      </trkpt>
      <trkpt lat="45.68166" lon="6.47257">
        <ele>2187</ele>
        <time>2022-07-16T04:19:24Z</time>
      </trkpt>
      <trkpt lat="45.68164" lon="6.4726">
        <ele>2187</ele>
        <time>2022-07-16T04:19:25Z</time>
      </trkpt>
      <trkpt lat="45.68162" lon="6.47263">
        <ele>2186</ele>
        <time>2022-07-16T04:19:27Z</time>
      </trkpt>
      <trkpt lat="45.68161" lon="6.47265">
        <ele>2186</ele>
        <time>2022-07-16T04:19:28Z</time>
      </trkpt>
      <trkpt lat="45.68159" lon="6.47269">
        <ele>2186</ele>
        <time>2022-07-16T04:19:30Z</time>
      </trkpt>
      <trkpt lat="45.68157" lon="6.47273">
        <ele>2185</ele>
        <time>2022-07-16T04:19:32Z</time>
      </trkpt>
      <trkpt lat="45.68155" lon="6.47275">
        <ele>2185</ele>
        <time>2022-07-16T04:19:33Z</time>
      </trkpt>
      <trkpt lat="45.68154" lon="6.47277">
        <ele>2185</ele>
        <time>2022-07-16T04:19:34Z</time>
      </trkpt>
      <trkpt lat="45.68153" lon="6.47279">
        <ele>2185</ele>
        <time>2022-07-16T04:19:35Z</time>
      </trkpt>
      <trkpt lat="45.68152" lon="6.47282">
        <ele>2185</ele>
        <time>2022-07-16T04:19:36Z</time>
      </trkpt>
      <trkpt lat="45.6815" lon="6.47284">
        <ele>2185</ele>
        <time>2022-07-16T04:19:37Z</time>
      </trkpt>
      <trkpt lat="45.68149" lon="6.47285">
        <ele>2184</ele>
        <time>2022-07-16T04:19:38Z</time>
      </trkpt>
      <trkpt lat="45.68147" lon="6.47288">
        <ele>2184</ele>
        <time>2022-07-16T04:19:39Z</time>
      </trkpt>
      <trkpt lat="45.68146" lon="6.47289">
        <ele>2184</ele>
        <time>2022-07-16T04:19:40Z</time>
      </trkpt>
      <trkpt lat="45.68144" lon="6.47291">
        <ele>2183</ele>
        <time>2022-07-16T04:19:41Z</time>
      </trkpt>
      <trkpt lat="45.68143" lon="6.47294">
        <ele>2183</ele>
        <time>2022-07-16T04:19:42Z</time>
      </trkpt>
      <trkpt lat="45.68142" lon="6.47296">
        <ele>2182</ele>
        <time>2022-07-16T04:19:43Z</time>
      </trkpt>
      <trkpt lat="45.68141" lon="6.47299">
        <ele>2182</ele>
        <time>2022-07-16T04:19:44Z</time>
      </trkpt>
      <trkpt lat="45.6814" lon="6.47303">
        <ele>2182</ele>
        <time>2022-07-16T04:19:45Z</time>
      </trkpt>
      <trkpt lat="45.6814" lon="6.47306">
        <ele>2181</ele>
        <time>2022-07-16T04:19:46Z</time>
      </trkpt>
      <trkpt lat="45.68141" lon="6.47308">
        <ele>2181</ele>
        <time>2022-07-16T04:19:47Z</time>
      </trkpt>
      <trkpt lat="45.68142" lon="6.47311">
        <ele>2181</ele>
        <time>2022-07-16T04:19:48Z</time>
      </trkpt>
      <trkpt lat="45.68143" lon="6.47313">
        <ele>2181</ele>
        <time>2022-07-16T04:19:49Z</time>
      </trkpt>
      <trkpt lat="45.68145" lon="6.47316">
        <ele>2181</ele>
        <time>2022-07-16T04:19:50Z</time>
      </trkpt>
      <trkpt lat="45.68146" lon="6.47318">
        <ele>2181</ele>
        <time>2022-07-16T04:19:51Z</time>
      </trkpt>
      <trkpt lat="45.68147" lon="6.47321">
        <ele>2181</ele>
        <time>2022-07-16T04:19:52Z</time>
      </trkpt>
      <trkpt lat="45.68146" lon="6.47328">
        <ele>2181</ele>
        <time>2022-07-16T04:19:53Z</time>
      </trkpt>
      <trkpt lat="45.68144" lon="6.47331">
        <ele>2179</ele>
        <time>2022-07-16T04:19:55Z</time>
      </trkpt>
      <trkpt lat="45.68143" lon="6.47333">
        <ele>2178</ele>
        <time>2022-07-16T04:19:56Z</time>
      </trkpt>
      <trkpt lat="45.68141" lon="6.47336">
        <ele>2178</ele>
        <time>2022-07-16T04:19:57Z</time>
      </trkpt>
      <trkpt lat="45.6814" lon="6.47338">
        <ele>2179</ele>
        <time>2022-07-16T04:19:58Z</time>
      </trkpt>
      <trkpt lat="45.68138" lon="6.47341">
        <ele>2179</ele>
        <time>2022-07-16T04:19:59Z</time>
      </trkpt>
      <trkpt lat="45.68136" lon="6.47343">
        <ele>2179</ele>
        <time>2022-07-16T04:20:00Z</time>
      </trkpt>
      <trkpt lat="45.68135" lon="6.47346">
        <ele>2179</ele>
        <time>2022-07-16T04:20:01Z</time>
      </trkpt>
      <trkpt lat="45.68134" lon="6.47348">
        <ele>2179</ele>
        <time>2022-07-16T04:20:02Z</time>
      </trkpt>
      <trkpt lat="45.68133" lon="6.47351">
        <ele>2179</ele>
        <time>2022-07-16T04:20:03Z</time>
      </trkpt>
      <trkpt lat="45.68131" lon="6.47354">
        <ele>2178</ele>
        <time>2022-07-16T04:20:04Z</time>
      </trkpt>
      <trkpt lat="45.6813" lon="6.47356">
        <ele>2178</ele>
        <time>2022-07-16T04:20:05Z</time>
      </trkpt>
      <trkpt lat="45.68129" lon="6.47359">
        <ele>2178</ele>
        <time>2022-07-16T04:20:06Z</time>
      </trkpt>
      <trkpt lat="45.68128" lon="6.47362">
        <ele>2178</ele>
        <time>2022-07-16T04:20:07Z</time>
      </trkpt>
      <trkpt lat="45.68127" lon="6.47365">
        <ele>2178</ele>
        <time>2022-07-16T04:20:08Z</time>
      </trkpt>
      <trkpt lat="45.68127" lon="6.47368">
        <ele>2177</ele>
        <time>2022-07-16T04:20:09Z</time>
      </trkpt>
      <trkpt lat="45.68126" lon="6.4737">
        <ele>2177</ele>
        <time>2022-07-16T04:20:10Z</time>
      </trkpt>
      <trkpt lat="45.68125" lon="6.47373">
        <ele>2177</ele>
        <time>2022-07-16T04:20:11Z</time>
      </trkpt>
      <trkpt lat="45.68123" lon="6.47376">
        <ele>2177</ele>
        <time>2022-07-16T04:20:12Z</time>
      </trkpt>
      <trkpt lat="45.68122" lon="6.47378">
        <ele>2177</ele>
        <time>2022-07-16T04:20:13Z</time>
      </trkpt>
      <trkpt lat="45.68121" lon="6.4738">
        <ele>2177</ele>
        <time>2022-07-16T04:20:14Z</time>
      </trkpt>
      <trkpt lat="45.68118" lon="6.47383">
        <ele>2176</ele>
        <time>2022-07-16T04:20:16Z</time>
      </trkpt>
      <trkpt lat="45.68116" lon="6.47383">
        <ele>2176</ele>
        <time>2022-07-16T04:20:17Z</time>
      </trkpt>
      <trkpt lat="45.68114" lon="6.47385">
        <ele>2175</ele>
        <time>2022-07-16T04:20:18Z</time>
      </trkpt>
      <trkpt lat="45.68113" lon="6.47387">
        <ele>2175</ele>
        <time>2022-07-16T04:20:19Z</time>
      </trkpt>
      <trkpt lat="45.68112" lon="6.47389">
        <ele>2175</ele>
        <time>2022-07-16T04:20:20Z</time>
      </trkpt>
      <trkpt lat="45.68111" lon="6.47392">
        <ele>2175</ele>
        <time>2022-07-16T04:20:21Z</time>
      </trkpt>
      <trkpt lat="45.6811" lon="6.47394">
        <ele>2175</ele>
        <time>2022-07-16T04:20:22Z</time>
      </trkpt>
      <trkpt lat="45.68109" lon="6.47396">
        <ele>2176</ele>
        <time>2022-07-16T04:20:23Z</time>
      </trkpt>
      <trkpt lat="45.68107" lon="6.474">
        <ele>2176</ele>
        <time>2022-07-16T04:20:25Z</time>
      </trkpt>
      <trkpt lat="45.68107" lon="6.47403">
        <ele>2176</ele>
        <time>2022-07-16T04:20:26Z</time>
      </trkpt>
      <trkpt lat="45.68106" lon="6.47406">
        <ele>2176</ele>
        <time>2022-07-16T04:20:27Z</time>
      </trkpt>
      <trkpt lat="45.68105" lon="6.47408">
        <ele>2176</ele>
        <time>2022-07-16T04:20:28Z</time>
      </trkpt>
      <trkpt lat="45.68103" lon="6.47412">
        <ele>2175</ele>
        <time>2022-07-16T04:20:30Z</time>
      </trkpt>
      <trkpt lat="45.68102" lon="6.47414">
        <ele>2175</ele>
        <time>2022-07-16T04:20:31Z</time>
      </trkpt>
      <trkpt lat="45.68101" lon="6.47419">
        <ele>2175</ele>
        <time>2022-07-16T04:20:33Z</time>
      </trkpt>
      <trkpt lat="45.681" lon="6.47421">
        <ele>2175</ele>
        <time>2022-07-16T04:20:34Z</time>
      </trkpt>
      <trkpt lat="45.681" lon="6.47424">
        <ele>2175</ele>
        <time>2022-07-16T04:20:35Z</time>
      </trkpt>
      <trkpt lat="45.68099" lon="6.47426">
        <ele>2175</ele>
        <time>2022-07-16T04:20:36Z</time>
      </trkpt>
      <trkpt lat="45.68098" lon="6.47429">
        <ele>2174</ele>
        <time>2022-07-16T04:20:37Z</time>
      </trkpt>
      <trkpt lat="45.68097" lon="6.47431">
        <ele>2173</ele>
        <time>2022-07-16T04:20:38Z</time>
      </trkpt>
      <trkpt lat="45.68095" lon="6.47433">
        <ele>2173</ele>
        <time>2022-07-16T04:20:39Z</time>
      </trkpt>
      <trkpt lat="45.68093" lon="6.47436">
        <ele>2172</ele>
        <time>2022-07-16T04:20:41Z</time>
      </trkpt>
      <trkpt lat="45.68092" lon="6.47438">
        <ele>2171</ele>
        <time>2022-07-16T04:20:42Z</time>
      </trkpt>
      <trkpt lat="45.68091" lon="6.47441">
        <ele>2171</ele>
        <time>2022-07-16T04:20:43Z</time>
      </trkpt>
      <trkpt lat="45.6809" lon="6.47444">
        <ele>2171</ele>
        <time>2022-07-16T04:20:44Z</time>
      </trkpt>
      <trkpt lat="45.68089" lon="6.47446">
        <ele>2170</ele>
        <time>2022-07-16T04:20:45Z</time>
      </trkpt>
      <trkpt lat="45.68089" lon="6.47449">
        <ele>2170</ele>
        <time>2022-07-16T04:20:46Z</time>
      </trkpt>
      <trkpt lat="45.68088" lon="6.47451">
        <ele>2170</ele>
        <time>2022-07-16T04:20:47Z</time>
      </trkpt>
      <trkpt lat="45.68086" lon="6.47455">
        <ele>2170</ele>
        <time>2022-07-16T04:20:49Z</time>
      </trkpt>
      <trkpt lat="45.68083" lon="6.4746">
        <ele>2168</ele>
        <time>2022-07-16T04:20:50Z</time>
      </trkpt>
      <trkpt lat="45.68082" lon="6.47462">
        <ele>2168</ele>
        <time>2022-07-16T04:20:52Z</time>
      </trkpt>
      <trkpt lat="45.68081" lon="6.47467">
        <ele>2167</ele>
        <time>2022-07-16T04:20:54Z</time>
      </trkpt>
      <trkpt lat="45.6808" lon="6.47471">
        <ele>2167</ele>
        <time>2022-07-16T04:20:56Z</time>
      </trkpt>
      <trkpt lat="45.68078" lon="6.47474">
        <ele>2166</ele>
        <time>2022-07-16T04:20:58Z</time>
      </trkpt>
      <trkpt lat="45.68077" lon="6.47477">
        <ele>2165</ele>
        <time>2022-07-16T04:21:00Z</time>
      </trkpt>
      <trkpt lat="45.68077" lon="6.47481">
        <ele>2165</ele>
        <time>2022-07-16T04:21:02Z</time>
      </trkpt>
      <trkpt lat="45.68076" lon="6.47484">
        <ele>2165</ele>
        <time>2022-07-16T04:21:03Z</time>
      </trkpt>
      <trkpt lat="45.68075" lon="6.47486">
        <ele>2165</ele>
        <time>2022-07-16T04:21:04Z</time>
      </trkpt>
      <trkpt lat="45.68073" lon="6.4749">
        <ele>2165</ele>
        <time>2022-07-16T04:21:06Z</time>
      </trkpt>
      <trkpt lat="45.68071" lon="6.47494">
        <ele>2165</ele>
        <time>2022-07-16T04:21:08Z</time>
      </trkpt>
      <trkpt lat="45.68069" lon="6.47497">
        <ele>2164</ele>
        <time>2022-07-16T04:21:10Z</time>
      </trkpt>
      <trkpt lat="45.68068" lon="6.47502">
        <ele>2163</ele>
        <time>2022-07-16T04:21:12Z</time>
      </trkpt>
      <trkpt lat="45.68066" lon="6.47506">
        <ele>2162</ele>
        <time>2022-07-16T04:21:14Z</time>
      </trkpt>
      <trkpt lat="45.68064" lon="6.4751">
        <ele>2162</ele>
        <time>2022-07-16T04:21:16Z</time>
      </trkpt>
      <trkpt lat="45.68062" lon="6.47514">
        <ele>2162</ele>
        <time>2022-07-16T04:21:18Z</time>
      </trkpt>
      <trkpt lat="45.6806" lon="6.47518">
        <ele>2162</ele>
        <time>2022-07-16T04:21:20Z</time>
      </trkpt>
      <trkpt lat="45.68058" lon="6.47518">
        <ele>2162</ele>
        <time>2022-07-16T04:21:21Z</time>
      </trkpt>
      <trkpt lat="45.68056" lon="6.47518">
        <ele>2161</ele>
        <time>2022-07-16T04:21:22Z</time>
      </trkpt>
      <trkpt lat="45.68054" lon="6.47519">
        <ele>2161</ele>
        <time>2022-07-16T04:21:23Z</time>
      </trkpt>
      <trkpt lat="45.68053" lon="6.4752">
        <ele>2160</ele>
        <time>2022-07-16T04:21:24Z</time>
      </trkpt>
      <trkpt lat="45.6805" lon="6.47522">
        <ele>2160</ele>
        <time>2022-07-16T04:21:26Z</time>
      </trkpt>
      <trkpt lat="45.68046" lon="6.47525">
        <ele>2160</ele>
        <time>2022-07-16T04:21:28Z</time>
      </trkpt>
      <trkpt lat="45.68045" lon="6.47526">
        <ele>2160</ele>
        <time>2022-07-16T04:21:29Z</time>
      </trkpt>
      <trkpt lat="45.68044" lon="6.47529">
        <ele>2160</ele>
        <time>2022-07-16T04:21:30Z</time>
      </trkpt>
      <trkpt lat="45.68043" lon="6.47531">
        <ele>2160</ele>
        <time>2022-07-16T04:21:31Z</time>
      </trkpt>
      <trkpt lat="45.68041" lon="6.47534">
        <ele>2159</ele>
        <time>2022-07-16T04:21:32Z</time>
      </trkpt>
      <trkpt lat="45.68039" lon="6.47538">
        <ele>2159</ele>
        <time>2022-07-16T04:21:34Z</time>
      </trkpt>
      <trkpt lat="45.68038" lon="6.4754">
        <ele>2159</ele>
        <time>2022-07-16T04:21:35Z</time>
      </trkpt>
      <trkpt lat="45.68036" lon="6.47543">
        <ele>2158</ele>
        <time>2022-07-16T04:21:37Z</time>
      </trkpt>
      <trkpt lat="45.68034" lon="6.47547">
        <ele>2158</ele>
        <time>2022-07-16T04:21:39Z</time>
      </trkpt>
      <trkpt lat="45.68032" lon="6.4755">
        <ele>2158</ele>
        <time>2022-07-16T04:21:40Z</time>
      </trkpt>
      <trkpt lat="45.68031" lon="6.47552">
        <ele>2158</ele>
        <time>2022-07-16T04:21:41Z</time>
      </trkpt>
      <trkpt lat="45.6803" lon="6.47555">
        <ele>2158</ele>
        <time>2022-07-16T04:21:42Z</time>
      </trkpt>
      <trkpt lat="45.68028" lon="6.47557">
        <ele>2158</ele>
        <time>2022-07-16T04:21:43Z</time>
      </trkpt>
      <trkpt lat="45.68027" lon="6.47559">
        <ele>2158</ele>
        <time>2022-07-16T04:21:44Z</time>
      </trkpt>
      <trkpt lat="45.68025" lon="6.47561">
        <ele>2158</ele>
        <time>2022-07-16T04:21:45Z</time>
      </trkpt>
      <trkpt lat="45.68023" lon="6.47563">
        <ele>2158</ele>
        <time>2022-07-16T04:21:46Z</time>
      </trkpt>
      <trkpt lat="45.6802" lon="6.47566">
        <ele>2157</ele>
        <time>2022-07-16T04:21:47Z</time>
      </trkpt>
      <trkpt lat="45.68018" lon="6.47567">
        <ele>2156</ele>
        <time>2022-07-16T04:21:49Z</time>
      </trkpt>
      <trkpt lat="45.68016" lon="6.47567">
        <ele>2155</ele>
        <time>2022-07-16T04:21:50Z</time>
      </trkpt>
      <trkpt lat="45.68014" lon="6.47568">
        <ele>2155</ele>
        <time>2022-07-16T04:21:51Z</time>
      </trkpt>
      <trkpt lat="45.68012" lon="6.47569">
        <ele>2155</ele>
        <time>2022-07-16T04:21:52Z</time>
      </trkpt>
      <trkpt lat="45.6801" lon="6.47569">
        <ele>2155</ele>
        <time>2022-07-16T04:21:53Z</time>
      </trkpt>
      <trkpt lat="45.68007" lon="6.47571">
        <ele>2155</ele>
        <time>2022-07-16T04:21:54Z</time>
      </trkpt>
      <trkpt lat="45.68005" lon="6.47573">
        <ele>2155</ele>
        <time>2022-07-16T04:21:55Z</time>
      </trkpt>
      <trkpt lat="45.68003" lon="6.47575">
        <ele>2155</ele>
        <time>2022-07-16T04:21:56Z</time>
      </trkpt>
      <trkpt lat="45.68002" lon="6.47577">
        <ele>2155</ele>
        <time>2022-07-16T04:21:57Z</time>
      </trkpt>
      <trkpt lat="45.68" lon="6.47579">
        <ele>2154</ele>
        <time>2022-07-16T04:21:58Z</time>
      </trkpt>
      <trkpt lat="45.67999" lon="6.47581">
        <ele>2154</ele>
        <time>2022-07-16T04:21:59Z</time>
      </trkpt>
      <trkpt lat="45.67998" lon="6.47584">
        <ele>2153</ele>
        <time>2022-07-16T04:22:00Z</time>
      </trkpt>
      <trkpt lat="45.67995" lon="6.47587">
        <ele>2153</ele>
        <time>2022-07-16T04:22:02Z</time>
      </trkpt>
      <trkpt lat="45.67994" lon="6.47591">
        <ele>2152</ele>
        <time>2022-07-16T04:22:04Z</time>
      </trkpt>
      <trkpt lat="45.67993" lon="6.47593">
        <ele>2152</ele>
        <time>2022-07-16T04:22:05Z</time>
      </trkpt>
      <trkpt lat="45.6799" lon="6.47597">
        <ele>2152</ele>
        <time>2022-07-16T04:22:07Z</time>
      </trkpt>
      <trkpt lat="45.67988" lon="6.47601">
        <ele>2151</ele>
        <time>2022-07-16T04:22:09Z</time>
      </trkpt>
      <trkpt lat="45.67987" lon="6.47604">
        <ele>2150</ele>
        <time>2022-07-16T04:22:11Z</time>
      </trkpt>
      <trkpt lat="45.67984" lon="6.47608">
        <ele>2149</ele>
        <time>2022-07-16T04:22:13Z</time>
      </trkpt>
      <trkpt lat="45.67982" lon="6.47611">
        <ele>2149</ele>
        <time>2022-07-16T04:22:15Z</time>
      </trkpt>
      <trkpt lat="45.67981" lon="6.47613">
        <ele>2148</ele>
        <time>2022-07-16T04:22:16Z</time>
      </trkpt>
      <trkpt lat="45.67979" lon="6.47616">
        <ele>2147</ele>
        <time>2022-07-16T04:22:18Z</time>
      </trkpt>
      <trkpt lat="45.67976" lon="6.4762">
        <ele>2146</ele>
        <time>2022-07-16T04:22:20Z</time>
      </trkpt>
      <trkpt lat="45.67975" lon="6.47623">
        <ele>2145</ele>
        <time>2022-07-16T04:22:22Z</time>
      </trkpt>
      <trkpt lat="45.67973" lon="6.47626">
        <ele>2145</ele>
        <time>2022-07-16T04:22:24Z</time>
      </trkpt>
      <trkpt lat="45.67971" lon="6.47629">
        <ele>2145</ele>
        <time>2022-07-16T04:22:26Z</time>
      </trkpt>
      <trkpt lat="45.67969" lon="6.47632">
        <ele>2144</ele>
        <time>2022-07-16T04:22:28Z</time>
      </trkpt>
      <trkpt lat="45.67969" lon="6.47635">
        <ele>2142</ele>
        <time>2022-07-16T04:22:30Z</time>
      </trkpt>
      <trkpt lat="45.67969" lon="6.47639">
        <ele>2140</ele>
        <time>2022-07-16T04:22:32Z</time>
      </trkpt>
      <trkpt lat="45.67969" lon="6.47642">
        <ele>2140</ele>
        <time>2022-07-16T04:22:34Z</time>
      </trkpt>
      <trkpt lat="45.67968" lon="6.47645">
        <ele>2140</ele>
        <time>2022-07-16T04:22:36Z</time>
      </trkpt>
      <trkpt lat="45.67967" lon="6.47647">
        <ele>2140</ele>
        <time>2022-07-16T04:22:38Z</time>
      </trkpt>
      <trkpt lat="45.67966" lon="6.47648">
        <ele>2139</ele>
        <time>2022-07-16T04:22:40Z</time>
      </trkpt>
      <trkpt lat="45.67964" lon="6.47651">
        <ele>2138</ele>
        <time>2022-07-16T04:22:42Z</time>
      </trkpt>
      <trkpt lat="45.67962" lon="6.47654">
        <ele>2138</ele>
        <time>2022-07-16T04:22:44Z</time>
      </trkpt>
      <trkpt lat="45.67961" lon="6.47656">
        <ele>2137</ele>
        <time>2022-07-16T04:22:46Z</time>
      </trkpt>
      <trkpt lat="45.6796" lon="6.47659">
        <ele>2137</ele>
        <time>2022-07-16T04:22:49Z</time>
      </trkpt>
      <trkpt lat="45.67958" lon="6.4766">
        <ele>2135</ele>
        <time>2022-07-16T04:22:52Z</time>
      </trkpt>
      <trkpt lat="45.67956" lon="6.47661">
        <ele>2135</ele>
        <time>2022-07-16T04:22:54Z</time>
      </trkpt>
      <trkpt lat="45.67954" lon="6.47662">
        <ele>2133</ele>
        <time>2022-07-16T04:22:57Z</time>
      </trkpt>
      <trkpt lat="45.67952" lon="6.47663">
        <ele>2133</ele>
        <time>2022-07-16T04:22:59Z</time>
      </trkpt>
      <trkpt lat="45.67951" lon="6.47667">
        <ele>2132</ele>
        <time>2022-07-16T04:23:01Z</time>
      </trkpt>
      <trkpt lat="45.6795" lon="6.47671">
        <ele>2132</ele>
        <time>2022-07-16T04:23:03Z</time>
      </trkpt>
      <trkpt lat="45.67949" lon="6.47675">
        <ele>2132</ele>
        <time>2022-07-16T04:23:05Z</time>
      </trkpt>
      <trkpt lat="45.67948" lon="6.47679">
        <ele>2131</ele>
        <time>2022-07-16T04:23:07Z</time>
      </trkpt>
      <trkpt lat="45.67947" lon="6.47683">
        <ele>2130</ele>
        <time>2022-07-16T04:23:09Z</time>
      </trkpt>
      <trkpt lat="45.67946" lon="6.47687">
        <ele>2129</ele>
        <time>2022-07-16T04:23:11Z</time>
      </trkpt>
      <trkpt lat="45.67946" lon="6.4769">
        <ele>2128</ele>
        <time>2022-07-16T04:23:13Z</time>
      </trkpt>
      <trkpt lat="45.67945" lon="6.47692">
        <ele>2128</ele>
        <time>2022-07-16T04:23:15Z</time>
      </trkpt>
      <trkpt lat="45.67943" lon="6.47695">
        <ele>2127</ele>
        <time>2022-07-16T04:23:18Z</time>
      </trkpt>
      <trkpt lat="45.67942" lon="6.47697">
        <ele>2126</ele>
        <time>2022-07-16T04:23:20Z</time>
      </trkpt>
      <trkpt lat="45.6794" lon="6.47699">
        <ele>2125</ele>
        <time>2022-07-16T04:23:22Z</time>
      </trkpt>
      <trkpt lat="45.67939" lon="6.47702">
        <ele>2125</ele>
        <time>2022-07-16T04:23:24Z</time>
      </trkpt>
      <trkpt lat="45.67937" lon="6.47705">
        <ele>2124</ele>
        <time>2022-07-16T04:23:27Z</time>
      </trkpt>
      <trkpt lat="45.67936" lon="6.47707">
        <ele>2124</ele>
        <time>2022-07-16T04:23:29Z</time>
      </trkpt>
      <trkpt lat="45.67934" lon="6.47709">
        <ele>2123</ele>
        <time>2022-07-16T04:23:31Z</time>
      </trkpt>
      <trkpt lat="45.67933" lon="6.47711">
        <ele>2122</ele>
        <time>2022-07-16T04:23:33Z</time>
      </trkpt>
      <trkpt lat="45.6793" lon="6.47714">
        <ele>2121</ele>
        <time>2022-07-16T04:23:35Z</time>
      </trkpt>
      <trkpt lat="45.67928" lon="6.47717">
        <ele>2119</ele>
        <time>2022-07-16T04:23:37Z</time>
      </trkpt>
      <trkpt lat="45.67926" lon="6.47718">
        <ele>2119</ele>
        <time>2022-07-16T04:23:38Z</time>
      </trkpt>
      <trkpt lat="45.67924" lon="6.4772">
        <ele>2118</ele>
        <time>2022-07-16T04:23:39Z</time>
      </trkpt>
      <trkpt lat="45.67922" lon="6.47722">
        <ele>2118</ele>
        <time>2022-07-16T04:23:40Z</time>
      </trkpt>
      <trkpt lat="45.67918" lon="6.47726">
        <ele>2118</ele>
        <time>2022-07-16T04:23:41Z</time>
      </trkpt>
      <trkpt lat="45.67917" lon="6.47727">
        <ele>2118</ele>
        <time>2022-07-16T04:23:43Z</time>
      </trkpt>
      <trkpt lat="45.67915" lon="6.47728">
        <ele>2118</ele>
        <time>2022-07-16T04:23:44Z</time>
      </trkpt>
      <trkpt lat="45.67913" lon="6.4773">
        <ele>2118</ele>
        <time>2022-07-16T04:23:45Z</time>
      </trkpt>
      <trkpt lat="45.67911" lon="6.47731">
        <ele>2116</ele>
        <time>2022-07-16T04:23:46Z</time>
      </trkpt>
      <trkpt lat="45.67908" lon="6.47733">
        <ele>2118</ele>
        <time>2022-07-16T04:23:48Z</time>
      </trkpt>
      <trkpt lat="45.67908" lon="6.47737">
        <ele>2118</ele>
        <time>2022-07-16T04:23:50Z</time>
      </trkpt>
      <trkpt lat="45.67908" lon="6.4774">
        <ele>2118</ele>
        <time>2022-07-16T04:23:51Z</time>
      </trkpt>
      <trkpt lat="45.67908" lon="6.47743">
        <ele>2118</ele>
        <time>2022-07-16T04:23:52Z</time>
      </trkpt>
      <trkpt lat="45.67908" lon="6.47748">
        <ele>2118</ele>
        <time>2022-07-16T04:23:54Z</time>
      </trkpt>
      <trkpt lat="45.67908" lon="6.47751">
        <ele>2118</ele>
        <time>2022-07-16T04:23:55Z</time>
      </trkpt>
      <trkpt lat="45.67908" lon="6.47753">
        <ele>2118</ele>
        <time>2022-07-16T04:23:56Z</time>
      </trkpt>
      <trkpt lat="45.67908" lon="6.47756">
        <ele>2118</ele>
        <time>2022-07-16T04:23:57Z</time>
      </trkpt>
      <trkpt lat="45.67907" lon="6.47761">
        <ele>2118</ele>
        <time>2022-07-16T04:23:59Z</time>
      </trkpt>
      <trkpt lat="45.67906" lon="6.47765">
        <ele>2116</ele>
        <time>2022-07-16T04:24:01Z</time>
      </trkpt>
      <trkpt lat="45.67904" lon="6.47768">
        <ele>2116</ele>
        <time>2022-07-16T04:24:03Z</time>
      </trkpt>
      <trkpt lat="45.67904" lon="6.47772">
        <ele>2118</ele>
        <time>2022-07-16T04:24:05Z</time>
      </trkpt>
      <trkpt lat="45.67903" lon="6.47777">
        <ele>2118</ele>
        <time>2022-07-16T04:24:07Z</time>
      </trkpt>
      <trkpt lat="45.67904" lon="6.4778">
        <ele>2118</ele>
        <time>2022-07-16T04:24:08Z</time>
      </trkpt>
      <trkpt lat="45.67904" lon="6.47782">
        <ele>2118</ele>
        <time>2022-07-16T04:24:09Z</time>
      </trkpt>
      <trkpt lat="45.67904" lon="6.47785">
        <ele>2118</ele>
        <time>2022-07-16T04:24:10Z</time>
      </trkpt>
      <trkpt lat="45.67903" lon="6.47788">
        <ele>2118</ele>
        <time>2022-07-16T04:24:11Z</time>
      </trkpt>
      <trkpt lat="45.67903" lon="6.47791">
        <ele>2118</ele>
        <time>2022-07-16T04:24:12Z</time>
      </trkpt>
      <trkpt lat="45.67901" lon="6.47793">
        <ele>2116</ele>
        <time>2022-07-16T04:24:13Z</time>
      </trkpt>
      <trkpt lat="45.679" lon="6.47795">
        <ele>2116</ele>
        <time>2022-07-16T04:24:14Z</time>
      </trkpt>
      <trkpt lat="45.67899" lon="6.47797">
        <ele>2115</ele>
        <time>2022-07-16T04:24:15Z</time>
      </trkpt>
      <trkpt lat="45.67899" lon="6.478">
        <ele>2115</ele>
        <time>2022-07-16T04:24:16Z</time>
      </trkpt>
      <trkpt lat="45.67898" lon="6.47803">
        <ele>2114</ele>
        <time>2022-07-16T04:24:17Z</time>
      </trkpt>
      <trkpt lat="45.67897" lon="6.47805">
        <ele>2114</ele>
        <time>2022-07-16T04:24:18Z</time>
      </trkpt>
      <trkpt lat="45.67896" lon="6.47808">
        <ele>2113</ele>
        <time>2022-07-16T04:24:19Z</time>
      </trkpt>
      <trkpt lat="45.67896" lon="6.47811">
        <ele>2113</ele>
        <time>2022-07-16T04:24:20Z</time>
      </trkpt>
      <trkpt lat="45.67896" lon="6.47814">
        <ele>2113</ele>
        <time>2022-07-16T04:24:21Z</time>
      </trkpt>
      <trkpt lat="45.67895" lon="6.47817">
        <ele>2113</ele>
        <time>2022-07-16T04:24:22Z</time>
      </trkpt>
      <trkpt lat="45.67894" lon="6.4782">
        <ele>2112</ele>
        <time>2022-07-16T04:24:23Z</time>
      </trkpt>
      <trkpt lat="45.67894" lon="6.47823">
        <ele>2112</ele>
        <time>2022-07-16T04:24:24Z</time>
      </trkpt>
      <trkpt lat="45.67894" lon="6.47826">
        <ele>2112</ele>
        <time>2022-07-16T04:24:25Z</time>
      </trkpt>
      <trkpt lat="45.67894" lon="6.47829">
        <ele>2112</ele>
        <time>2022-07-16T04:24:26Z</time>
      </trkpt>
      <trkpt lat="45.67894" lon="6.47832">
        <ele>2112</ele>
        <time>2022-07-16T04:24:27Z</time>
      </trkpt>
      <trkpt lat="45.67894" lon="6.47837">
        <ele>2112</ele>
        <time>2022-07-16T04:24:28Z</time>
      </trkpt>
      <trkpt lat="45.67893" lon="6.47838">
        <ele>2112</ele>
        <time>2022-07-16T04:24:29Z</time>
      </trkpt>
      <trkpt lat="45.67893" lon="6.47841">
        <ele>2112</ele>
        <time>2022-07-16T04:24:30Z</time>
      </trkpt>
      <trkpt lat="45.67892" lon="6.47845">
        <ele>2112</ele>
        <time>2022-07-16T04:24:31Z</time>
      </trkpt>
      <trkpt lat="45.67892" lon="6.47848">
        <ele>2111</ele>
        <time>2022-07-16T04:24:32Z</time>
      </trkpt>
      <trkpt lat="45.67891" lon="6.47851">
        <ele>2111</ele>
        <time>2022-07-16T04:24:33Z</time>
      </trkpt>
      <trkpt lat="45.6789" lon="6.47854">
        <ele>2111</ele>
        <time>2022-07-16T04:24:34Z</time>
      </trkpt>
      <trkpt lat="45.67888" lon="6.47856">
        <ele>2111</ele>
        <time>2022-07-16T04:24:35Z</time>
      </trkpt>
      <trkpt lat="45.67887" lon="6.47859">
        <ele>2111</ele>
        <time>2022-07-16T04:24:36Z</time>
      </trkpt>
      <trkpt lat="45.67886" lon="6.47861">
        <ele>2111</ele>
        <time>2022-07-16T04:24:37Z</time>
      </trkpt>
      <trkpt lat="45.67883" lon="6.47866">
        <ele>2111</ele>
        <time>2022-07-16T04:24:38Z</time>
      </trkpt>
      <trkpt lat="45.67882" lon="6.47868">
        <ele>2110</ele>
        <time>2022-07-16T04:24:40Z</time>
      </trkpt>
      <trkpt lat="45.67882" lon="6.47871">
        <ele>2109</ele>
        <time>2022-07-16T04:24:41Z</time>
      </trkpt>
      <trkpt lat="45.67881" lon="6.47874">
        <ele>2109</ele>
        <time>2022-07-16T04:24:42Z</time>
      </trkpt>
      <trkpt lat="45.6788" lon="6.47876">
        <ele>2109</ele>
        <time>2022-07-16T04:24:43Z</time>
      </trkpt>
      <trkpt lat="45.67878" lon="6.47878">
        <ele>2109</ele>
        <time>2022-07-16T04:24:44Z</time>
      </trkpt>
      <trkpt lat="45.67876" lon="6.47879">
        <ele>2109</ele>
        <time>2022-07-16T04:24:45Z</time>
      </trkpt>
      <trkpt lat="45.67873" lon="6.47881">
        <ele>2109</ele>
        <time>2022-07-16T04:24:46Z</time>
      </trkpt>
      <trkpt lat="45.67871" lon="6.47882">
        <ele>2109</ele>
        <time>2022-07-16T04:24:47Z</time>
      </trkpt>
      <trkpt lat="45.6787" lon="6.47884">
        <ele>2109</ele>
        <time>2022-07-16T04:24:48Z</time>
      </trkpt>
      <trkpt lat="45.67868" lon="6.47886">
        <ele>2109</ele>
        <time>2022-07-16T04:24:49Z</time>
      </trkpt>
      <trkpt lat="45.67866" lon="6.47888">
        <ele>2109</ele>
        <time>2022-07-16T04:24:50Z</time>
      </trkpt>
      <trkpt lat="45.67864" lon="6.47891">
        <ele>2108</ele>
        <time>2022-07-16T04:24:51Z</time>
      </trkpt>
      <trkpt lat="45.67863" lon="6.47893">
        <ele>2108</ele>
        <time>2022-07-16T04:24:52Z</time>
      </trkpt>
      <trkpt lat="45.67861" lon="6.47895">
        <ele>2108</ele>
        <time>2022-07-16T04:24:53Z</time>
      </trkpt>
      <trkpt lat="45.67861" lon="6.47898">
        <ele>2108</ele>
        <time>2022-07-16T04:24:54Z</time>
      </trkpt>
      <trkpt lat="45.67861" lon="6.47901">
        <ele>2109</ele>
        <time>2022-07-16T04:24:55Z</time>
      </trkpt>
      <trkpt lat="45.67861" lon="6.47904">
        <ele>2109</ele>
        <time>2022-07-16T04:24:56Z</time>
      </trkpt>
      <trkpt lat="45.6786" lon="6.47906">
        <ele>2108</ele>
        <time>2022-07-16T04:24:57Z</time>
      </trkpt>
      <trkpt lat="45.6786" lon="6.47909">
        <ele>2108</ele>
        <time>2022-07-16T04:24:58Z</time>
      </trkpt>
      <trkpt lat="45.67859" lon="6.47913">
        <ele>2108</ele>
        <time>2022-07-16T04:25:00Z</time>
      </trkpt>
      <trkpt lat="45.67858" lon="6.47917">
        <ele>2109</ele>
        <time>2022-07-16T04:25:02Z</time>
      </trkpt>
      <trkpt lat="45.67857" lon="6.4792">
        <ele>2109</ele>
        <time>2022-07-16T04:25:04Z</time>
      </trkpt>
      <trkpt lat="45.67856" lon="6.47924">
        <ele>2110</ele>
        <time>2022-07-16T04:25:06Z</time>
      </trkpt>
      <trkpt lat="45.67854" lon="6.47927">
        <ele>2111</ele>
        <time>2022-07-16T04:25:08Z</time>
      </trkpt>
      <trkpt lat="45.67852" lon="6.47929">
        <ele>2111</ele>
        <time>2022-07-16T04:25:10Z</time>
      </trkpt>
      <trkpt lat="45.67851" lon="6.47932">
        <ele>2111</ele>
        <time>2022-07-16T04:25:12Z</time>
      </trkpt>
      <trkpt lat="45.67849" lon="6.47935">
        <ele>2111</ele>
        <time>2022-07-16T04:25:14Z</time>
      </trkpt>
      <trkpt lat="45.67848" lon="6.47938">
        <ele>2111</ele>
        <time>2022-07-16T04:25:16Z</time>
      </trkpt>
      <trkpt lat="45.67846" lon="6.47941">
        <ele>2111</ele>
        <time>2022-07-16T04:25:18Z</time>
      </trkpt>
      <trkpt lat="45.67845" lon="6.47944">
        <ele>2112</ele>
        <time>2022-07-16T04:25:20Z</time>
      </trkpt>
      <trkpt lat="45.67844" lon="6.47947">
        <ele>2112</ele>
        <time>2022-07-16T04:25:22Z</time>
      </trkpt>
      <trkpt lat="45.67842" lon="6.4795">
        <ele>2112</ele>
        <time>2022-07-16T04:25:24Z</time>
      </trkpt>
      <trkpt lat="45.67841" lon="6.47954">
        <ele>2112</ele>
        <time>2022-07-16T04:25:26Z</time>
      </trkpt>
      <trkpt lat="45.6784" lon="6.47957">
        <ele>2113</ele>
        <time>2022-07-16T04:25:28Z</time>
      </trkpt>
      <trkpt lat="45.67839" lon="6.47959">
        <ele>2113</ele>
        <time>2022-07-16T04:25:30Z</time>
      </trkpt>
      <trkpt lat="45.67837" lon="6.47963">
        <ele>2113</ele>
        <time>2022-07-16T04:25:32Z</time>
      </trkpt>
      <trkpt lat="45.67835" lon="6.47966">
        <ele>2114</ele>
        <time>2022-07-16T04:25:34Z</time>
      </trkpt>
      <trkpt lat="45.67833" lon="6.47969">
        <ele>2114</ele>
        <time>2022-07-16T04:25:36Z</time>
      </trkpt>
      <trkpt lat="45.67832" lon="6.47972">
        <ele>2114</ele>
        <time>2022-07-16T04:25:38Z</time>
      </trkpt>
      <trkpt lat="45.6783" lon="6.47976">
        <ele>2114</ele>
        <time>2022-07-16T04:25:40Z</time>
      </trkpt>
      <trkpt lat="45.67829" lon="6.47979">
        <ele>2114</ele>
        <time>2022-07-16T04:25:42Z</time>
      </trkpt>
      <trkpt lat="45.67828" lon="6.47982">
        <ele>2114</ele>
        <time>2022-07-16T04:25:44Z</time>
      </trkpt>
      <trkpt lat="45.67827" lon="6.47985">
        <ele>2114</ele>
        <time>2022-07-16T04:25:46Z</time>
      </trkpt>
      <trkpt lat="45.67826" lon="6.47989">
        <ele>2115</ele>
        <time>2022-07-16T04:25:48Z</time>
      </trkpt>
      <trkpt lat="45.67825" lon="6.47992">
        <ele>2115</ele>
        <time>2022-07-16T04:25:50Z</time>
      </trkpt>
      <trkpt lat="45.67825" lon="6.47994">
        <ele>2116</ele>
        <time>2022-07-16T04:25:52Z</time>
      </trkpt>
      <trkpt lat="45.67824" lon="6.47997">
        <ele>2116</ele>
        <time>2022-07-16T04:25:54Z</time>
      </trkpt>
      <trkpt lat="45.67823" lon="6.48">
        <ele>2116</ele>
        <time>2022-07-16T04:25:57Z</time>
      </trkpt>
      <trkpt lat="45.67822" lon="6.48004">
        <ele>2118</ele>
        <time>2022-07-16T04:26:00Z</time>
      </trkpt>
      <trkpt lat="45.67821" lon="6.48007">
        <ele>2119</ele>
        <time>2022-07-16T04:26:03Z</time>
      </trkpt>
      <trkpt lat="45.67821" lon="6.4801">
        <ele>2119</ele>
        <time>2022-07-16T04:26:05Z</time>
      </trkpt>
      <trkpt lat="45.6782" lon="6.48014">
        <ele>2120</ele>
        <time>2022-07-16T04:26:08Z</time>
      </trkpt>
      <trkpt lat="45.67819" lon="6.48017">
        <ele>2120</ele>
        <time>2022-07-16T04:26:11Z</time>
      </trkpt>
      <trkpt lat="45.67817" lon="6.48019">
        <ele>2121</ele>
        <time>2022-07-16T04:26:13Z</time>
      </trkpt>
      <trkpt lat="45.67815" lon="6.48021">
        <ele>2121</ele>
        <time>2022-07-16T04:26:15Z</time>
      </trkpt>
      <trkpt lat="45.67814" lon="6.48024">
        <ele>2121</ele>
        <time>2022-07-16T04:26:17Z</time>
      </trkpt>
      <trkpt lat="45.67813" lon="6.48027">
        <ele>2122</ele>
        <time>2022-07-16T04:26:20Z</time>
      </trkpt>
      <trkpt lat="45.67812" lon="6.4803">
        <ele>2122</ele>
        <time>2022-07-16T04:26:22Z</time>
      </trkpt>
      <trkpt lat="45.6781" lon="6.48033">
        <ele>2124</ele>
        <time>2022-07-16T04:26:25Z</time>
      </trkpt>
      <trkpt lat="45.67809" lon="6.48035">
        <ele>2124</ele>
        <time>2022-07-16T04:26:27Z</time>
      </trkpt>
      <trkpt lat="45.67808" lon="6.48038">
        <ele>2125</ele>
        <time>2022-07-16T04:26:29Z</time>
      </trkpt>
      <trkpt lat="45.67807" lon="6.48041">
        <ele>2125</ele>
        <time>2022-07-16T04:26:31Z</time>
      </trkpt>
      <trkpt lat="45.67806" lon="6.48044">
        <ele>2125</ele>
        <time>2022-07-16T04:26:33Z</time>
      </trkpt>
      <trkpt lat="45.67805" lon="6.48047">
        <ele>2125</ele>
        <time>2022-07-16T04:26:35Z</time>
      </trkpt>
      <trkpt lat="45.67804" lon="6.4805">
        <ele>2126</ele>
        <time>2022-07-16T04:26:37Z</time>
      </trkpt>
      <trkpt lat="45.67804" lon="6.48053">
        <ele>2126</ele>
        <time>2022-07-16T04:26:40Z</time>
      </trkpt>
      <trkpt lat="45.67803" lon="6.48056">
        <ele>2127</ele>
        <time>2022-07-16T04:26:43Z</time>
      </trkpt>
      <trkpt lat="45.67802" lon="6.48059">
        <ele>2127</ele>
        <time>2022-07-16T04:26:45Z</time>
      </trkpt>
      <trkpt lat="45.67801" lon="6.48061">
        <ele>2128</ele>
        <time>2022-07-16T04:26:47Z</time>
      </trkpt>
      <trkpt lat="45.678" lon="6.48064">
        <ele>2128</ele>
        <time>2022-07-16T04:26:49Z</time>
      </trkpt>
      <trkpt lat="45.67798" lon="6.48067">
        <ele>2128</ele>
        <time>2022-07-16T04:26:51Z</time>
      </trkpt>
      <trkpt lat="45.67797" lon="6.48069">
        <ele>2128</ele>
        <time>2022-07-16T04:26:53Z</time>
      </trkpt>
      <trkpt lat="45.67796" lon="6.48072">
        <ele>2129</ele>
        <time>2022-07-16T04:26:55Z</time>
      </trkpt>
      <trkpt lat="45.67794" lon="6.48074">
        <ele>2129</ele>
        <time>2022-07-16T04:26:57Z</time>
      </trkpt>
      <trkpt lat="45.67793" lon="6.48078">
        <ele>2129</ele>
        <time>2022-07-16T04:26:59Z</time>
      </trkpt>
      <trkpt lat="45.67792" lon="6.48081">
        <ele>2129</ele>
        <time>2022-07-16T04:27:01Z</time>
      </trkpt>
      <trkpt lat="45.6779" lon="6.48084">
        <ele>2129</ele>
        <time>2022-07-16T04:27:03Z</time>
      </trkpt>
      <trkpt lat="45.6779" lon="6.48088">
        <ele>2129</ele>
        <time>2022-07-16T04:27:05Z</time>
      </trkpt>
      <trkpt lat="45.6779" lon="6.48092">
        <ele>2129</ele>
        <time>2022-07-16T04:27:07Z</time>
      </trkpt>
      <trkpt lat="45.67791" lon="6.48095">
        <ele>2130</ele>
        <time>2022-07-16T04:27:09Z</time>
      </trkpt>
      <trkpt lat="45.67793" lon="6.48098">
        <ele>2130</ele>
        <time>2022-07-16T04:27:12Z</time>
      </trkpt>
      <trkpt lat="45.67793" lon="6.48102">
        <ele>2130</ele>
        <time>2022-07-16T04:27:14Z</time>
      </trkpt>
      <trkpt lat="45.67792" lon="6.48105">
        <ele>2130</ele>
        <time>2022-07-16T04:27:16Z</time>
      </trkpt>
      <trkpt lat="45.67789" lon="6.48107">
        <ele>2130</ele>
        <time>2022-07-16T04:27:18Z</time>
      </trkpt>
      <trkpt lat="45.67786" lon="6.48109">
        <ele>2130</ele>
        <time>2022-07-16T04:27:20Z</time>
      </trkpt>
      <trkpt lat="45.67784" lon="6.4811">
        <ele>2130</ele>
        <time>2022-07-16T04:27:22Z</time>
      </trkpt>
      <trkpt lat="45.67782" lon="6.48112">
        <ele>2130</ele>
        <time>2022-07-16T04:27:24Z</time>
      </trkpt>
      <trkpt lat="45.67781" lon="6.48114">
        <ele>2131</ele>
        <time>2022-07-16T04:27:26Z</time>
      </trkpt>
      <trkpt lat="45.67779" lon="6.48117">
        <ele>2131</ele>
        <time>2022-07-16T04:27:28Z</time>
      </trkpt>
      <trkpt lat="45.67778" lon="6.4812">
        <ele>2131</ele>
        <time>2022-07-16T04:27:30Z</time>
      </trkpt>
      <trkpt lat="45.67776" lon="6.48123">
        <ele>2131</ele>
        <time>2022-07-16T04:27:32Z</time>
      </trkpt>
      <trkpt lat="45.67775" lon="6.48126">
        <ele>2131</ele>
        <time>2022-07-16T04:27:34Z</time>
      </trkpt>
      <trkpt lat="45.67774" lon="6.48128">
        <ele>2131</ele>
        <time>2022-07-16T04:27:36Z</time>
      </trkpt>
      <trkpt lat="45.67772" lon="6.48131">
        <ele>2131</ele>
        <time>2022-07-16T04:27:38Z</time>
      </trkpt>
      <trkpt lat="45.67771" lon="6.48134">
        <ele>2132</ele>
        <time>2022-07-16T04:27:40Z</time>
      </trkpt>
      <trkpt lat="45.67769" lon="6.48136">
        <ele>2132</ele>
        <time>2022-07-16T04:27:42Z</time>
      </trkpt>
      <trkpt lat="45.67768" lon="6.48139">
        <ele>2132</ele>
        <time>2022-07-16T04:27:44Z</time>
      </trkpt>
      <trkpt lat="45.67767" lon="6.48142">
        <ele>2132</ele>
        <time>2022-07-16T04:27:46Z</time>
      </trkpt>
      <trkpt lat="45.67766" lon="6.48145">
        <ele>2133</ele>
        <time>2022-07-16T04:27:48Z</time>
      </trkpt>
      <trkpt lat="45.67765" lon="6.48147">
        <ele>2133</ele>
        <time>2022-07-16T04:27:50Z</time>
      </trkpt>
      <trkpt lat="45.67764" lon="6.4815">
        <ele>2134</ele>
        <time>2022-07-16T04:27:52Z</time>
      </trkpt>
      <trkpt lat="45.67763" lon="6.48153">
        <ele>2135</ele>
        <time>2022-07-16T04:27:54Z</time>
      </trkpt>
      <trkpt lat="45.67763" lon="6.48156">
        <ele>2135</ele>
        <time>2022-07-16T04:27:56Z</time>
      </trkpt>
      <trkpt lat="45.67762" lon="6.48159">
        <ele>2136</ele>
        <time>2022-07-16T04:27:58Z</time>
      </trkpt>
      <trkpt lat="45.67761" lon="6.48163">
        <ele>2136</ele>
        <time>2022-07-16T04:28:00Z</time>
      </trkpt>
      <trkpt lat="45.67761" lon="6.48167">
        <ele>2136</ele>
        <time>2022-07-16T04:28:02Z</time>
      </trkpt>
      <trkpt lat="45.67761" lon="6.48171">
        <ele>2137</ele>
        <time>2022-07-16T04:28:04Z</time>
      </trkpt>
      <trkpt lat="45.6776" lon="6.48174">
        <ele>2137</ele>
        <time>2022-07-16T04:28:06Z</time>
      </trkpt>
      <trkpt lat="45.6776" lon="6.48178">
        <ele>2137</ele>
        <time>2022-07-16T04:28:08Z</time>
      </trkpt>
      <trkpt lat="45.67759" lon="6.48182">
        <ele>2137</ele>
        <time>2022-07-16T04:28:10Z</time>
      </trkpt>
      <trkpt lat="45.67759" lon="6.48185">
        <ele>2137</ele>
        <time>2022-07-16T04:28:12Z</time>
      </trkpt>
      <trkpt lat="45.67758" lon="6.48189">
        <ele>2137</ele>
        <time>2022-07-16T04:28:14Z</time>
      </trkpt>
      <trkpt lat="45.67757" lon="6.48193">
        <ele>2138</ele>
        <time>2022-07-16T04:28:16Z</time>
      </trkpt>
      <trkpt lat="45.67756" lon="6.48197">
        <ele>2138</ele>
        <time>2022-07-16T04:28:18Z</time>
      </trkpt>
      <trkpt lat="45.67757" lon="6.48201">
        <ele>2138</ele>
        <time>2022-07-16T04:28:20Z</time>
      </trkpt>
      <trkpt lat="45.67758" lon="6.48204">
        <ele>2138</ele>
        <time>2022-07-16T04:28:22Z</time>
      </trkpt>
      <trkpt lat="45.67758" lon="6.48208">
        <ele>2138</ele>
        <time>2022-07-16T04:28:24Z</time>
      </trkpt>
      <trkpt lat="45.67758" lon="6.48212">
        <ele>2138</ele>
        <time>2022-07-16T04:28:26Z</time>
      </trkpt>
      <trkpt lat="45.67757" lon="6.48215">
        <ele>2138</ele>
        <time>2022-07-16T04:28:28Z</time>
      </trkpt>
      <trkpt lat="45.67756" lon="6.48218">
        <ele>2139</ele>
        <time>2022-07-16T04:28:30Z</time>
      </trkpt>
      <trkpt lat="45.67754" lon="6.48221">
        <ele>2139</ele>
        <time>2022-07-16T04:28:32Z</time>
      </trkpt>
      <trkpt lat="45.67752" lon="6.48222">
        <ele>2139</ele>
        <time>2022-07-16T04:28:34Z</time>
      </trkpt>
      <trkpt lat="45.67751" lon="6.48224">
        <ele>2141</ele>
        <time>2022-07-16T04:28:36Z</time>
      </trkpt>
      <trkpt lat="45.67749" lon="6.48224">
        <ele>2141</ele>
        <time>2022-07-16T04:28:38Z</time>
      </trkpt>
      <trkpt lat="45.67746" lon="6.48225">
        <ele>2141</ele>
        <time>2022-07-16T04:28:41Z</time>
      </trkpt>
      <trkpt lat="45.67744" lon="6.48227">
        <ele>2142</ele>
        <time>2022-07-16T04:28:43Z</time>
      </trkpt>
      <trkpt lat="45.67743" lon="6.4823">
        <ele>2142</ele>
        <time>2022-07-16T04:28:45Z</time>
      </trkpt>
      <trkpt lat="45.67742" lon="6.48232">
        <ele>2142</ele>
        <time>2022-07-16T04:28:47Z</time>
      </trkpt>
      <trkpt lat="45.6774" lon="6.48234">
        <ele>2144</ele>
        <time>2022-07-16T04:28:49Z</time>
      </trkpt>
      <trkpt lat="45.67738" lon="6.48236">
        <ele>2144</ele>
        <time>2022-07-16T04:28:51Z</time>
      </trkpt>
      <trkpt lat="45.67736" lon="6.48237">
        <ele>2144</ele>
        <time>2022-07-16T04:28:53Z</time>
      </trkpt>
      <trkpt lat="45.67734" lon="6.48238">
        <ele>2145</ele>
        <time>2022-07-16T04:28:55Z</time>
      </trkpt>
      <trkpt lat="45.67732" lon="6.4824">
        <ele>2145</ele>
        <time>2022-07-16T04:28:57Z</time>
      </trkpt>
      <trkpt lat="45.67731" lon="6.48243">
        <ele>2145</ele>
        <time>2022-07-16T04:28:59Z</time>
      </trkpt>
      <trkpt lat="45.6773" lon="6.48246">
        <ele>2145</ele>
        <time>2022-07-16T04:29:01Z</time>
      </trkpt>
      <trkpt lat="45.67729" lon="6.48251">
        <ele>2145</ele>
        <time>2022-07-16T04:29:03Z</time>
      </trkpt>
      <trkpt lat="45.67728" lon="6.48254">
        <ele>2145</ele>
        <time>2022-07-16T04:29:05Z</time>
      </trkpt>
      <trkpt lat="45.67727" lon="6.48256">
        <ele>2145</ele>
        <time>2022-07-16T04:29:07Z</time>
      </trkpt>
      <trkpt lat="45.67726" lon="6.48259">
        <ele>2144</ele>
        <time>2022-07-16T04:29:09Z</time>
      </trkpt>
      <trkpt lat="45.67725" lon="6.48262">
        <ele>2142</ele>
        <time>2022-07-16T04:29:11Z</time>
      </trkpt>
      <trkpt lat="45.67723" lon="6.48265">
        <ele>2141</ele>
        <time>2022-07-16T04:29:13Z</time>
      </trkpt>
      <trkpt lat="45.67721" lon="6.48266">
        <ele>2141</ele>
        <time>2022-07-16T04:29:15Z</time>
      </trkpt>
      <trkpt lat="45.67719" lon="6.4827">
        <ele>2141</ele>
        <time>2022-07-16T04:29:17Z</time>
      </trkpt>
      <trkpt lat="45.67719" lon="6.48273">
        <ele>2141</ele>
        <time>2022-07-16T04:29:20Z</time>
      </trkpt>
      <trkpt lat="45.6772" lon="6.48276">
        <ele>2141</ele>
        <time>2022-07-16T04:29:22Z</time>
      </trkpt>
      <trkpt lat="45.67722" lon="6.48279">
        <ele>2141</ele>
        <time>2022-07-16T04:29:24Z</time>
      </trkpt>
      <trkpt lat="45.67723" lon="6.48282">
        <ele>2141</ele>
        <time>2022-07-16T04:29:26Z</time>
      </trkpt>
      <trkpt lat="45.67725" lon="6.48287">
        <ele>2141</ele>
        <time>2022-07-16T04:29:28Z</time>
      </trkpt>
      <trkpt lat="45.67725" lon="6.4829">
        <ele>2141</ele>
        <time>2022-07-16T04:29:29Z</time>
      </trkpt>
      <trkpt lat="45.67725" lon="6.48295">
        <ele>2141</ele>
        <time>2022-07-16T04:29:31Z</time>
      </trkpt>
      <trkpt lat="45.67724" lon="6.48297">
        <ele>2140</ele>
        <time>2022-07-16T04:29:32Z</time>
      </trkpt>
      <trkpt lat="45.67723" lon="6.48299">
        <ele>2139</ele>
        <time>2022-07-16T04:29:33Z</time>
      </trkpt>
      <trkpt lat="45.67723" lon="6.48302">
        <ele>2139</ele>
        <time>2022-07-16T04:29:34Z</time>
      </trkpt>
      <trkpt lat="45.67722" lon="6.48305">
        <ele>2139</ele>
        <time>2022-07-16T04:29:35Z</time>
      </trkpt>
      <trkpt lat="45.67722" lon="6.48308">
        <ele>2138</ele>
        <time>2022-07-16T04:29:36Z</time>
      </trkpt>
      <trkpt lat="45.67721" lon="6.4831">
        <ele>2138</ele>
        <time>2022-07-16T04:29:37Z</time>
      </trkpt>
      <trkpt lat="45.6772" lon="6.48313">
        <ele>2138</ele>
        <time>2022-07-16T04:29:38Z</time>
      </trkpt>
      <trkpt lat="45.6772" lon="6.48316">
        <ele>2137</ele>
        <time>2022-07-16T04:29:39Z</time>
      </trkpt>
      <trkpt lat="45.6772" lon="6.48319">
        <ele>2137</ele>
        <time>2022-07-16T04:29:40Z</time>
      </trkpt>
      <trkpt lat="45.67719" lon="6.48322">
        <ele>2136</ele>
        <time>2022-07-16T04:29:41Z</time>
      </trkpt>
      <trkpt lat="45.67718" lon="6.48328">
        <ele>2136</ele>
        <time>2022-07-16T04:29:42Z</time>
      </trkpt>
      <trkpt lat="45.67717" lon="6.48331">
        <ele>2136</ele>
        <time>2022-07-16T04:29:44Z</time>
      </trkpt>
      <trkpt lat="45.67716" lon="6.48334">
        <ele>2136</ele>
        <time>2022-07-16T04:29:46Z</time>
      </trkpt>
      <trkpt lat="45.67715" lon="6.48338">
        <ele>2136</ele>
        <time>2022-07-16T04:29:48Z</time>
      </trkpt>
      <trkpt lat="45.67715" lon="6.48343">
        <ele>2136</ele>
        <time>2022-07-16T04:29:50Z</time>
      </trkpt>
      <trkpt lat="45.67714" lon="6.48345">
        <ele>2136</ele>
        <time>2022-07-16T04:29:51Z</time>
      </trkpt>
      <trkpt lat="45.67713" lon="6.4835">
        <ele>2136</ele>
        <time>2022-07-16T04:29:53Z</time>
      </trkpt>
      <trkpt lat="45.67713" lon="6.48353">
        <ele>2136</ele>
        <time>2022-07-16T04:29:55Z</time>
      </trkpt>
      <trkpt lat="45.67711" lon="6.48354">
        <ele>2136</ele>
        <time>2022-07-16T04:29:57Z</time>
      </trkpt>
      <trkpt lat="45.67709" lon="6.48355">
        <ele>2136</ele>
        <time>2022-07-16T04:29:59Z</time>
      </trkpt>
      <trkpt lat="45.67707" lon="6.48357">
        <ele>2137</ele>
        <time>2022-07-16T04:30:01Z</time>
      </trkpt>
      <trkpt lat="45.67705" lon="6.48358">
        <ele>2137</ele>
        <time>2022-07-16T04:30:03Z</time>
      </trkpt>
      <trkpt lat="45.67703" lon="6.4836">
        <ele>2137</ele>
        <time>2022-07-16T04:30:05Z</time>
      </trkpt>
      <trkpt lat="45.67701" lon="6.48362">
        <ele>2138</ele>
        <time>2022-07-16T04:30:07Z</time>
      </trkpt>
      <trkpt lat="45.677" lon="6.48366">
        <ele>2138</ele>
        <time>2022-07-16T04:30:10Z</time>
      </trkpt>
      <trkpt lat="45.677" lon="6.48368">
        <ele>2139</ele>
        <time>2022-07-16T04:30:12Z</time>
      </trkpt>
      <trkpt lat="45.677" lon="6.48371">
        <ele>2139</ele>
        <time>2022-07-16T04:30:14Z</time>
      </trkpt>
      <trkpt lat="45.677" lon="6.48374">
        <ele>2140</ele>
        <time>2022-07-16T04:30:16Z</time>
      </trkpt>
      <trkpt lat="45.67698" lon="6.48377">
        <ele>2140</ele>
        <time>2022-07-16T04:30:18Z</time>
      </trkpt>
      <trkpt lat="45.67698" lon="6.48379">
        <ele>2140</ele>
        <time>2022-07-16T04:30:20Z</time>
      </trkpt>
      <trkpt lat="45.67697" lon="6.48382">
        <ele>2141</ele>
        <time>2022-07-16T04:30:22Z</time>
      </trkpt>
      <trkpt lat="45.67696" lon="6.48385">
        <ele>2141</ele>
        <time>2022-07-16T04:30:24Z</time>
      </trkpt>
      <trkpt lat="45.67695" lon="6.48388">
        <ele>2141</ele>
        <time>2022-07-16T04:30:26Z</time>
      </trkpt>
      <trkpt lat="45.67694" lon="6.48391">
        <ele>2141</ele>
        <time>2022-07-16T04:30:28Z</time>
      </trkpt>
      <trkpt lat="45.67693" lon="6.48394">
        <ele>2142</ele>
        <time>2022-07-16T04:30:30Z</time>
      </trkpt>
      <trkpt lat="45.67693" lon="6.48396">
        <ele>2144</ele>
        <time>2022-07-16T04:30:32Z</time>
      </trkpt>
      <trkpt lat="45.67692" lon="6.48399">
        <ele>2144</ele>
        <time>2022-07-16T04:30:34Z</time>
      </trkpt>
      <trkpt lat="45.67692" lon="6.48402">
        <ele>2144</ele>
        <time>2022-07-16T04:30:36Z</time>
      </trkpt>
      <trkpt lat="45.67691" lon="6.48406">
        <ele>2144</ele>
        <time>2022-07-16T04:30:39Z</time>
      </trkpt>
      <trkpt lat="45.67691" lon="6.48409">
        <ele>2145</ele>
        <time>2022-07-16T04:30:41Z</time>
      </trkpt>
      <trkpt lat="45.67691" lon="6.48411">
        <ele>2145</ele>
        <time>2022-07-16T04:30:43Z</time>
      </trkpt>
      <trkpt lat="45.67691" lon="6.48415">
        <ele>2145</ele>
        <time>2022-07-16T04:30:46Z</time>
      </trkpt>
      <trkpt lat="45.67691" lon="6.48418">
        <ele>2145</ele>
        <time>2022-07-16T04:30:49Z</time>
      </trkpt>
      <trkpt lat="45.67692" lon="6.48421">
        <ele>2146</ele>
        <time>2022-07-16T04:30:52Z</time>
      </trkpt>
      <trkpt lat="45.67691" lon="6.48424">
        <ele>2146</ele>
        <time>2022-07-16T04:30:55Z</time>
      </trkpt>
      <trkpt lat="45.67692" lon="6.48428">
        <ele>2147</ele>
        <time>2022-07-16T04:30:57Z</time>
      </trkpt>
      <trkpt lat="45.67692" lon="6.48431">
        <ele>2147</ele>
        <time>2022-07-16T04:31:00Z</time>
      </trkpt>
      <trkpt lat="45.67692" lon="6.48435">
        <ele>2148</ele>
        <time>2022-07-16T04:31:03Z</time>
      </trkpt>
      <trkpt lat="45.67692" lon="6.48438">
        <ele>2148</ele>
        <time>2022-07-16T04:31:05Z</time>
      </trkpt>
      <trkpt lat="45.6769" lon="6.4844">
        <ele>2148</ele>
        <time>2022-07-16T04:31:07Z</time>
      </trkpt>
      <trkpt lat="45.67688" lon="6.48443">
        <ele>2149</ele>
        <time>2022-07-16T04:31:10Z</time>
      </trkpt>
      <trkpt lat="45.67687" lon="6.48446">
        <ele>2149</ele>
        <time>2022-07-16T04:31:13Z</time>
      </trkpt>
      <trkpt lat="45.67686" lon="6.48448">
        <ele>2150</ele>
        <time>2022-07-16T04:31:16Z</time>
      </trkpt>
      <trkpt lat="45.67686" lon="6.48451">
        <ele>2151</ele>
        <time>2022-07-16T04:31:19Z</time>
      </trkpt>
      <trkpt lat="45.67685" lon="6.48454">
        <ele>2151</ele>
        <time>2022-07-16T04:31:22Z</time>
      </trkpt>
      <trkpt lat="45.67686" lon="6.48456">
        <ele>2152</ele>
        <time>2022-07-16T04:31:29Z</time>
      </trkpt>
      <trkpt lat="45.67688" lon="6.48457">
        <ele>2153</ele>
        <time>2022-07-16T04:31:32Z</time>
      </trkpt>
      <trkpt lat="45.67689" lon="6.48461">
        <ele>2153</ele>
        <time>2022-07-16T04:31:35Z</time>
      </trkpt>
      <trkpt lat="45.6769" lon="6.48465">
        <ele>2153</ele>
        <time>2022-07-16T04:31:37Z</time>
      </trkpt>
      <trkpt lat="45.67691" lon="6.4847">
        <ele>2153</ele>
        <time>2022-07-16T04:31:39Z</time>
      </trkpt>
      <trkpt lat="45.67691" lon="6.48473">
        <ele>2153</ele>
        <time>2022-07-16T04:31:40Z</time>
      </trkpt>
      <trkpt lat="45.67691" lon="6.48477">
        <ele>2153</ele>
        <time>2022-07-16T04:31:42Z</time>
      </trkpt>
      <trkpt lat="45.67689" lon="6.4848">
        <ele>2153</ele>
        <time>2022-07-16T04:31:44Z</time>
      </trkpt>
      <trkpt lat="45.67687" lon="6.48483">
        <ele>2153</ele>
        <time>2022-07-16T04:31:46Z</time>
      </trkpt>
      <trkpt lat="45.67686" lon="6.48486">
        <ele>2154</ele>
        <time>2022-07-16T04:31:48Z</time>
      </trkpt>
      <trkpt lat="45.67683" lon="6.48488">
        <ele>2154</ele>
        <time>2022-07-16T04:31:50Z</time>
      </trkpt>
      <trkpt lat="45.67681" lon="6.48489">
        <ele>2154</ele>
        <time>2022-07-16T04:31:51Z</time>
      </trkpt>
      <trkpt lat="45.6768" lon="6.4849">
        <ele>2154</ele>
        <time>2022-07-16T04:31:52Z</time>
      </trkpt>
      <trkpt lat="45.67677" lon="6.48493">
        <ele>2154</ele>
        <time>2022-07-16T04:31:53Z</time>
      </trkpt>
      <trkpt lat="45.67676" lon="6.48494">
        <ele>2154</ele>
        <time>2022-07-16T04:31:54Z</time>
      </trkpt>
      <trkpt lat="45.67675" lon="6.48497">
        <ele>2154</ele>
        <time>2022-07-16T04:31:55Z</time>
      </trkpt>
      <trkpt lat="45.67673" lon="6.48501">
        <ele>2154</ele>
        <time>2022-07-16T04:31:57Z</time>
      </trkpt>
      <trkpt lat="45.67671" lon="6.48504">
        <ele>2154</ele>
        <time>2022-07-16T04:31:59Z</time>
      </trkpt>
      <trkpt lat="45.67669" lon="6.48508">
        <ele>2154</ele>
        <time>2022-07-16T04:32:01Z</time>
      </trkpt>
      <trkpt lat="45.67668" lon="6.48511">
        <ele>2153</ele>
        <time>2022-07-16T04:32:03Z</time>
      </trkpt>
      <trkpt lat="45.67666" lon="6.48515">
        <ele>2153</ele>
        <time>2022-07-16T04:32:05Z</time>
      </trkpt>
      <trkpt lat="45.67666" lon="6.48518">
        <ele>2153</ele>
        <time>2022-07-16T04:32:07Z</time>
      </trkpt>
      <trkpt lat="45.67664" lon="6.48522">
        <ele>2153</ele>
        <time>2022-07-16T04:32:09Z</time>
      </trkpt>
      <trkpt lat="45.67662" lon="6.48524">
        <ele>2153</ele>
        <time>2022-07-16T04:32:11Z</time>
      </trkpt>
      <trkpt lat="45.6766" lon="6.48527">
        <ele>2153</ele>
        <time>2022-07-16T04:32:13Z</time>
      </trkpt>
      <trkpt lat="45.67659" lon="6.4853">
        <ele>2153</ele>
        <time>2022-07-16T04:32:15Z</time>
      </trkpt>
      <trkpt lat="45.67658" lon="6.48533">
        <ele>2153</ele>
        <time>2022-07-16T04:32:17Z</time>
      </trkpt>
      <trkpt lat="45.67656" lon="6.48536">
        <ele>2153</ele>
        <time>2022-07-16T04:32:19Z</time>
      </trkpt>
      <trkpt lat="45.67654" lon="6.48538">
        <ele>2153</ele>
        <time>2022-07-16T04:32:21Z</time>
      </trkpt>
      <trkpt lat="45.67653" lon="6.48541">
        <ele>2153</ele>
        <time>2022-07-16T04:32:23Z</time>
      </trkpt>
      <trkpt lat="45.67652" lon="6.48543">
        <ele>2153</ele>
        <time>2022-07-16T04:32:25Z</time>
      </trkpt>
      <trkpt lat="45.67651" lon="6.48547">
        <ele>2153</ele>
        <time>2022-07-16T04:32:27Z</time>
      </trkpt>
      <trkpt lat="45.67649" lon="6.48549">
        <ele>2153</ele>
        <time>2022-07-16T04:32:29Z</time>
      </trkpt>
      <trkpt lat="45.67646" lon="6.48548">
        <ele>2152</ele>
        <time>2022-07-16T04:32:31Z</time>
      </trkpt>
      <trkpt lat="45.67642" lon="6.48549">
        <ele>2151</ele>
        <time>2022-07-16T04:32:33Z</time>
      </trkpt>
      <trkpt lat="45.6764" lon="6.48551">
        <ele>2151</ele>
        <time>2022-07-16T04:32:34Z</time>
      </trkpt>
      <trkpt lat="45.67638" lon="6.48553">
        <ele>2151</ele>
        <time>2022-07-16T04:32:35Z</time>
      </trkpt>
      <trkpt lat="45.67637" lon="6.48555">
        <ele>2151</ele>
        <time>2022-07-16T04:32:37Z</time>
      </trkpt>
      <trkpt lat="45.67635" lon="6.48558">
        <ele>2151</ele>
        <time>2022-07-16T04:32:39Z</time>
      </trkpt>
      <trkpt lat="45.67632" lon="6.48559">
        <ele>2150</ele>
        <time>2022-07-16T04:32:41Z</time>
      </trkpt>
      <trkpt lat="45.6763" lon="6.4856">
        <ele>2149</ele>
        <time>2022-07-16T04:32:43Z</time>
      </trkpt>
      <trkpt lat="45.67628" lon="6.48561">
        <ele>2148</ele>
        <time>2022-07-16T04:32:45Z</time>
      </trkpt>
      <trkpt lat="45.67625" lon="6.48564">
        <ele>2148</ele>
        <time>2022-07-16T04:32:47Z</time>
      </trkpt>
      <trkpt lat="45.67622" lon="6.48566">
        <ele>2148</ele>
        <time>2022-07-16T04:32:49Z</time>
      </trkpt>
      <trkpt lat="45.67621" lon="6.48568">
        <ele>2148</ele>
        <time>2022-07-16T04:32:51Z</time>
      </trkpt>
      <trkpt lat="45.67619" lon="6.4857">
        <ele>2146</ele>
        <time>2022-07-16T04:32:54Z</time>
      </trkpt>
      <trkpt lat="45.67617" lon="6.48572">
        <ele>2145</ele>
        <time>2022-07-16T04:32:57Z</time>
      </trkpt>
      <trkpt lat="45.67616" lon="6.48574">
        <ele>2144</ele>
        <time>2022-07-16T04:33:00Z</time>
      </trkpt>
      <trkpt lat="45.67616" lon="6.48576">
        <ele>2144</ele>
        <time>2022-07-16T04:33:02Z</time>
      </trkpt>
      <trkpt lat="45.67615" lon="6.48578">
        <ele>2142</ele>
        <time>2022-07-16T04:33:07Z</time>
      </trkpt>
      <trkpt lat="45.67614" lon="6.48579">
        <ele>2141</ele>
        <time>2022-07-16T04:33:11Z</time>
      </trkpt>
      <trkpt lat="45.67613" lon="6.48581">
        <ele>2140</ele>
        <time>2022-07-16T04:33:14Z</time>
      </trkpt>
      <trkpt lat="45.67612" lon="6.48584">
        <ele>2139</ele>
        <time>2022-07-16T04:33:19Z</time>
      </trkpt>
      <trkpt lat="45.6761" lon="6.48586">
        <ele>2138</ele>
        <time>2022-07-16T04:33:22Z</time>
      </trkpt>
      <trkpt lat="45.6761" lon="6.48589">
        <ele>2137</ele>
        <time>2022-07-16T04:33:25Z</time>
      </trkpt>
      <trkpt lat="45.67609" lon="6.48593">
        <ele>2135</ele>
        <time>2022-07-16T04:33:28Z</time>
      </trkpt>
      <trkpt lat="45.67609" lon="6.48596">
        <ele>2134</ele>
        <time>2022-07-16T04:33:30Z</time>
      </trkpt>
      <trkpt lat="45.67608" lon="6.48598">
        <ele>2134</ele>
        <time>2022-07-16T04:33:32Z</time>
      </trkpt>
      <trkpt lat="45.67607" lon="6.48601">
        <ele>2134</ele>
        <time>2022-07-16T04:33:34Z</time>
      </trkpt>
      <trkpt lat="45.67605" lon="6.48604">
        <ele>2133</ele>
        <time>2022-07-16T04:33:36Z</time>
      </trkpt>
      <trkpt lat="45.67604" lon="6.48609">
        <ele>2132</ele>
        <time>2022-07-16T04:33:38Z</time>
      </trkpt>
      <trkpt lat="45.67604" lon="6.48612">
        <ele>2132</ele>
        <time>2022-07-16T04:33:39Z</time>
      </trkpt>
      <trkpt lat="45.67605" lon="6.48616">
        <ele>2132</ele>
        <time>2022-07-16T04:33:40Z</time>
      </trkpt>
      <trkpt lat="45.67605" lon="6.48619">
        <ele>2132</ele>
        <time>2022-07-16T04:33:41Z</time>
      </trkpt>
      <trkpt lat="45.67605" lon="6.48623">
        <ele>2132</ele>
        <time>2022-07-16T04:33:42Z</time>
      </trkpt>
      <trkpt lat="45.67605" lon="6.48626">
        <ele>2132</ele>
        <time>2022-07-16T04:33:43Z</time>
      </trkpt>
      <trkpt lat="45.67605" lon="6.4863">
        <ele>2132</ele>
        <time>2022-07-16T04:33:44Z</time>
      </trkpt>
      <trkpt lat="45.67605" lon="6.48633">
        <ele>2132</ele>
        <time>2022-07-16T04:33:45Z</time>
      </trkpt>
      <trkpt lat="45.67605" lon="6.48635">
        <ele>2132</ele>
        <time>2022-07-16T04:33:46Z</time>
      </trkpt>
      <trkpt lat="45.67604" lon="6.4864">
        <ele>2132</ele>
        <time>2022-07-16T04:33:48Z</time>
      </trkpt>
      <trkpt lat="45.67602" lon="6.48644">
        <ele>2132</ele>
        <time>2022-07-16T04:33:49Z</time>
      </trkpt>
      <trkpt lat="45.67602" lon="6.48646">
        <ele>2132</ele>
        <time>2022-07-16T04:33:50Z</time>
      </trkpt>
      <trkpt lat="45.67601" lon="6.48649">
        <ele>2131</ele>
        <time>2022-07-16T04:33:51Z</time>
      </trkpt>
      <trkpt lat="45.67601" lon="6.48654">
        <ele>2132</ele>
        <time>2022-07-16T04:33:53Z</time>
      </trkpt>
      <trkpt lat="45.67602" lon="6.48656">
        <ele>2132</ele>
        <time>2022-07-16T04:33:54Z</time>
      </trkpt>
      <trkpt lat="45.67604" lon="6.48659">
        <ele>2132</ele>
        <time>2022-07-16T04:33:55Z</time>
      </trkpt>
      <trkpt lat="45.67605" lon="6.48662">
        <ele>2132</ele>
        <time>2022-07-16T04:33:56Z</time>
      </trkpt>
      <trkpt lat="45.67605" lon="6.48666">
        <ele>2132</ele>
        <time>2022-07-16T04:33:58Z</time>
      </trkpt>
      <trkpt lat="45.67605" lon="6.4867">
        <ele>2133</ele>
        <time>2022-07-16T04:34:00Z</time>
      </trkpt>
      <trkpt lat="45.67605" lon="6.48673">
        <ele>2133</ele>
        <time>2022-07-16T04:34:02Z</time>
      </trkpt>
      <trkpt lat="45.67607" lon="6.48675">
        <ele>2133</ele>
        <time>2022-07-16T04:34:05Z</time>
      </trkpt>
      <trkpt lat="45.67609" lon="6.48676">
        <ele>2132</ele>
        <time>2022-07-16T04:34:07Z</time>
      </trkpt>
      <trkpt lat="45.6761" lon="6.4868">
        <ele>2132</ele>
        <time>2022-07-16T04:34:09Z</time>
      </trkpt>
      <trkpt lat="45.6761" lon="6.48683">
        <ele>2132</ele>
        <time>2022-07-16T04:34:10Z</time>
      </trkpt>
      <trkpt lat="45.6761" lon="6.48686">
        <ele>2131</ele>
        <time>2022-07-16T04:34:11Z</time>
      </trkpt>
      <trkpt lat="45.6761" lon="6.48689">
        <ele>2131</ele>
        <time>2022-07-16T04:34:12Z</time>
      </trkpt>
      <trkpt lat="45.67609" lon="6.48692">
        <ele>2131</ele>
        <time>2022-07-16T04:34:13Z</time>
      </trkpt>
      <trkpt lat="45.67608" lon="6.48695">
        <ele>2130</ele>
        <time>2022-07-16T04:34:14Z</time>
      </trkpt>
      <trkpt lat="45.67607" lon="6.48698">
        <ele>2130</ele>
        <time>2022-07-16T04:34:15Z</time>
      </trkpt>
      <trkpt lat="45.67606" lon="6.487">
        <ele>2130</ele>
        <time>2022-07-16T04:34:16Z</time>
      </trkpt>
      <trkpt lat="45.67605" lon="6.48703">
        <ele>2129</ele>
        <time>2022-07-16T04:34:17Z</time>
      </trkpt>
      <trkpt lat="45.67604" lon="6.48706">
        <ele>2129</ele>
        <time>2022-07-16T04:34:18Z</time>
      </trkpt>
      <trkpt lat="45.67603" lon="6.48711">
        <ele>2129</ele>
        <time>2022-07-16T04:34:20Z</time>
      </trkpt>
      <trkpt lat="45.67602" lon="6.48715">
        <ele>2129</ele>
        <time>2022-07-16T04:34:22Z</time>
      </trkpt>
      <trkpt lat="45.676" lon="6.48718">
        <ele>2129</ele>
        <time>2022-07-16T04:34:23Z</time>
      </trkpt>
      <trkpt lat="45.676" lon="6.48721">
        <ele>2129</ele>
        <time>2022-07-16T04:34:24Z</time>
      </trkpt>
      <trkpt lat="45.67599" lon="6.48723">
        <ele>2129</ele>
        <time>2022-07-16T04:34:25Z</time>
      </trkpt>
      <trkpt lat="45.67598" lon="6.48725">
        <ele>2129</ele>
        <time>2022-07-16T04:34:26Z</time>
      </trkpt>
      <trkpt lat="45.67597" lon="6.48728">
        <ele>2129</ele>
        <time>2022-07-16T04:34:27Z</time>
      </trkpt>
      <trkpt lat="45.67597" lon="6.48731">
        <ele>2129</ele>
        <time>2022-07-16T04:34:28Z</time>
      </trkpt>
      <trkpt lat="45.67597" lon="6.48734">
        <ele>2129</ele>
        <time>2022-07-16T04:34:29Z</time>
      </trkpt>
      <trkpt lat="45.67597" lon="6.48737">
        <ele>2129</ele>
        <time>2022-07-16T04:34:30Z</time>
      </trkpt>
      <trkpt lat="45.67596" lon="6.4874">
        <ele>2129</ele>
        <time>2022-07-16T04:34:31Z</time>
      </trkpt>
      <trkpt lat="45.67596" lon="6.48743">
        <ele>2129</ele>
        <time>2022-07-16T04:34:32Z</time>
      </trkpt>
      <trkpt lat="45.67596" lon="6.48746">
        <ele>2129</ele>
        <time>2022-07-16T04:34:33Z</time>
      </trkpt>
      <trkpt lat="45.67596" lon="6.4875">
        <ele>2129</ele>
        <time>2022-07-16T04:34:35Z</time>
      </trkpt>
      <trkpt lat="45.67596" lon="6.48754">
        <ele>2129</ele>
        <time>2022-07-16T04:34:37Z</time>
      </trkpt>
      <trkpt lat="45.67595" lon="6.48757">
        <ele>2128</ele>
        <time>2022-07-16T04:34:39Z</time>
      </trkpt>
      <trkpt lat="45.67594" lon="6.48759">
        <ele>2128</ele>
        <time>2022-07-16T04:34:41Z</time>
      </trkpt>
      <trkpt lat="45.67593" lon="6.48762">
        <ele>2128</ele>
        <time>2022-07-16T04:34:44Z</time>
      </trkpt>
      <trkpt lat="45.67593" lon="6.48765">
        <ele>2128</ele>
        <time>2022-07-16T04:34:46Z</time>
      </trkpt>
      <trkpt lat="45.67592" lon="6.48769">
        <ele>2127</ele>
        <time>2022-07-16T04:34:48Z</time>
      </trkpt>
      <trkpt lat="45.67591" lon="6.48771">
        <ele>2126</ele>
        <time>2022-07-16T04:34:49Z</time>
      </trkpt>
      <trkpt lat="45.67591" lon="6.48774">
        <ele>2126</ele>
        <time>2022-07-16T04:34:50Z</time>
      </trkpt>
      <trkpt lat="45.6759" lon="6.48777">
        <ele>2126</ele>
        <time>2022-07-16T04:34:51Z</time>
      </trkpt>
      <trkpt lat="45.6759" lon="6.4878">
        <ele>2126</ele>
        <time>2022-07-16T04:34:52Z</time>
      </trkpt>
      <trkpt lat="45.67589" lon="6.48782">
        <ele>2126</ele>
        <time>2022-07-16T04:34:53Z</time>
      </trkpt>
      <trkpt lat="45.67588" lon="6.48785">
        <ele>2126</ele>
        <time>2022-07-16T04:34:54Z</time>
      </trkpt>
      <trkpt lat="45.67587" lon="6.48789">
        <ele>2126</ele>
        <time>2022-07-16T04:34:56Z</time>
      </trkpt>
      <trkpt lat="45.67587" lon="6.48793">
        <ele>2127</ele>
        <time>2022-07-16T04:34:59Z</time>
      </trkpt>
      <trkpt lat="45.67589" lon="6.48791">
        <ele>2128</ele>
        <time>2022-07-16T04:35:03Z</time>
      </trkpt>
      <trkpt lat="45.6759" lon="6.4879">
        <ele>2128</ele>
        <time>2022-07-16T04:35:05Z</time>
      </trkpt>
      <trkpt lat="45.67592" lon="6.48791">
        <ele>2129</ele>
        <time>2022-07-16T04:35:07Z</time>
      </trkpt>
      <trkpt lat="45.67592" lon="6.48795">
        <ele>2129</ele>
        <time>2022-07-16T04:35:10Z</time>
      </trkpt>
      <trkpt lat="45.67591" lon="6.48797">
        <ele>2130</ele>
        <time>2022-07-16T04:35:12Z</time>
      </trkpt>
      <trkpt lat="45.6759" lon="6.488">
        <ele>2130</ele>
        <time>2022-07-16T04:35:14Z</time>
      </trkpt>
      <trkpt lat="45.67588" lon="6.48803">
        <ele>2130</ele>
        <time>2022-07-16T04:35:16Z</time>
      </trkpt>
      <trkpt lat="45.67587" lon="6.48806">
        <ele>2131</ele>
        <time>2022-07-16T04:35:18Z</time>
      </trkpt>
      <trkpt lat="45.67586" lon="6.48809">
        <ele>2131</ele>
        <time>2022-07-16T04:35:20Z</time>
      </trkpt>
      <trkpt lat="45.67585" lon="6.48812">
        <ele>2131</ele>
        <time>2022-07-16T04:35:22Z</time>
      </trkpt>
      <trkpt lat="45.67584" lon="6.48815">
        <ele>2131</ele>
        <time>2022-07-16T04:35:24Z</time>
      </trkpt>
      <trkpt lat="45.67584" lon="6.48818">
        <ele>2132</ele>
        <time>2022-07-16T04:35:26Z</time>
      </trkpt>
      <trkpt lat="45.67584" lon="6.48821">
        <ele>2132</ele>
        <time>2022-07-16T04:35:28Z</time>
      </trkpt>
      <trkpt lat="45.67586" lon="6.48821">
        <ele>2134</ele>
        <time>2022-07-16T04:35:31Z</time>
      </trkpt>
      <trkpt lat="45.67588" lon="6.4882">
        <ele>2134</ele>
        <time>2022-07-16T04:35:33Z</time>
      </trkpt>
      <trkpt lat="45.6759" lon="6.48819">
        <ele>2134</ele>
        <time>2022-07-16T04:35:35Z</time>
      </trkpt>
      <trkpt lat="45.67592" lon="6.4882">
        <ele>2134</ele>
        <time>2022-07-16T04:35:38Z</time>
      </trkpt>
      <trkpt lat="45.67593" lon="6.48822">
        <ele>2135</ele>
        <time>2022-07-16T04:35:41Z</time>
      </trkpt>
      <trkpt lat="45.67594" lon="6.48826">
        <ele>2136</ele>
        <time>2022-07-16T04:35:45Z</time>
      </trkpt>
      <trkpt lat="45.67593" lon="6.48828">
        <ele>2137</ele>
        <time>2022-07-16T04:35:48Z</time>
      </trkpt>
      <trkpt lat="45.67591" lon="6.4883">
        <ele>2137</ele>
        <time>2022-07-16T04:35:52Z</time>
      </trkpt>
      <trkpt lat="45.67589" lon="6.48832">
        <ele>2137</ele>
        <time>2022-07-16T04:35:54Z</time>
      </trkpt>
      <trkpt lat="45.67588" lon="6.48834">
        <ele>2137</ele>
        <time>2022-07-16T04:35:56Z</time>
      </trkpt>
      <trkpt lat="45.67588" lon="6.48838">
        <ele>2137</ele>
        <time>2022-07-16T04:35:58Z</time>
      </trkpt>
      <trkpt lat="45.6759" lon="6.48839">
        <ele>2138</ele>
        <time>2022-07-16T04:36:01Z</time>
      </trkpt>
      <trkpt lat="45.67593" lon="6.48838">
        <ele>2139</ele>
        <time>2022-07-16T04:36:04Z</time>
      </trkpt>
      <trkpt lat="45.67595" lon="6.48837">
        <ele>2140</ele>
        <time>2022-07-16T04:36:07Z</time>
      </trkpt>
      <trkpt lat="45.67597" lon="6.48838">
        <ele>2140</ele>
        <time>2022-07-16T04:36:10Z</time>
      </trkpt>
      <trkpt lat="45.676" lon="6.48836">
        <ele>2142</ele>
        <time>2022-07-16T04:36:14Z</time>
      </trkpt>
      <trkpt lat="45.67601" lon="6.48835">
        <ele>2144</ele>
        <time>2022-07-16T04:36:16Z</time>
      </trkpt>
      <trkpt lat="45.67603" lon="6.48833">
        <ele>2144</ele>
        <time>2022-07-16T04:36:18Z</time>
      </trkpt>
      <trkpt lat="45.67604" lon="6.4883">
        <ele>2144</ele>
        <time>2022-07-16T04:36:20Z</time>
      </trkpt>
      <trkpt lat="45.67606" lon="6.4883">
        <ele>2144</ele>
        <time>2022-07-16T04:36:22Z</time>
      </trkpt>
      <trkpt lat="45.67606" lon="6.48833">
        <ele>2144</ele>
        <time>2022-07-16T04:36:24Z</time>
      </trkpt>
      <trkpt lat="45.67604" lon="6.48836">
        <ele>2145</ele>
        <time>2022-07-16T04:36:27Z</time>
      </trkpt>
      <trkpt lat="45.67604" lon="6.4884">
        <ele>2145</ele>
        <time>2022-07-16T04:36:30Z</time>
      </trkpt>
      <trkpt lat="45.67604" lon="6.48843">
        <ele>2146</ele>
        <time>2022-07-16T04:36:33Z</time>
      </trkpt>
      <trkpt lat="45.67603" lon="6.48846">
        <ele>2147</ele>
        <time>2022-07-16T04:36:36Z</time>
      </trkpt>
      <trkpt lat="45.67603" lon="6.48849">
        <ele>2147</ele>
        <time>2022-07-16T04:36:39Z</time>
      </trkpt>
      <trkpt lat="45.67604" lon="6.48852">
        <ele>2148</ele>
        <time>2022-07-16T04:36:42Z</time>
      </trkpt>
      <trkpt lat="45.67605" lon="6.48856">
        <ele>2148</ele>
        <time>2022-07-16T04:36:44Z</time>
      </trkpt>
      <trkpt lat="45.67605" lon="6.48858">
        <ele>2148</ele>
        <time>2022-07-16T04:36:46Z</time>
      </trkpt>
      <trkpt lat="45.67606" lon="6.48861">
        <ele>2149</ele>
        <time>2022-07-16T04:36:48Z</time>
      </trkpt>
      <trkpt lat="45.67607" lon="6.48865">
        <ele>2150</ele>
        <time>2022-07-16T04:36:51Z</time>
      </trkpt>
      <trkpt lat="45.67606" lon="6.48869">
        <ele>2150</ele>
        <time>2022-07-16T04:36:53Z</time>
      </trkpt>
      <trkpt lat="45.67606" lon="6.48874">
        <ele>2150</ele>
        <time>2022-07-16T04:36:55Z</time>
      </trkpt>
      <trkpt lat="45.67605" lon="6.48879">
        <ele>2149</ele>
        <time>2022-07-16T04:36:57Z</time>
      </trkpt>
      <trkpt lat="45.67605" lon="6.48882">
        <ele>2149</ele>
        <time>2022-07-16T04:36:58Z</time>
      </trkpt>
      <trkpt lat="45.67604" lon="6.48885">
        <ele>2149</ele>
        <time>2022-07-16T04:36:59Z</time>
      </trkpt>
      <trkpt lat="45.67603" lon="6.48888">
        <ele>2149</ele>
        <time>2022-07-16T04:37:00Z</time>
      </trkpt>
      <trkpt lat="45.67602" lon="6.4889">
        <ele>2149</ele>
        <time>2022-07-16T04:37:01Z</time>
      </trkpt>
      <trkpt lat="45.676" lon="6.48893">
        <ele>2149</ele>
        <time>2022-07-16T04:37:02Z</time>
      </trkpt>
      <trkpt lat="45.67599" lon="6.48895">
        <ele>2148</ele>
        <time>2022-07-16T04:37:03Z</time>
      </trkpt>
      <trkpt lat="45.67598" lon="6.48897">
        <ele>2148</ele>
        <time>2022-07-16T04:37:04Z</time>
      </trkpt>
      <trkpt lat="45.67597" lon="6.489">
        <ele>2147</ele>
        <time>2022-07-16T04:37:05Z</time>
      </trkpt>
      <trkpt lat="45.67596" lon="6.48903">
        <ele>2147</ele>
        <time>2022-07-16T04:37:06Z</time>
      </trkpt>
      <trkpt lat="45.67596" lon="6.48907">
        <ele>2147</ele>
        <time>2022-07-16T04:37:07Z</time>
      </trkpt>
      <trkpt lat="45.67595" lon="6.4891">
        <ele>2147</ele>
        <time>2022-07-16T04:37:08Z</time>
      </trkpt>
      <trkpt lat="45.67594" lon="6.48913">
        <ele>2147</ele>
        <time>2022-07-16T04:37:09Z</time>
      </trkpt>
      <trkpt lat="45.67593" lon="6.48916">
        <ele>2147</ele>
        <time>2022-07-16T04:37:10Z</time>
      </trkpt>
      <trkpt lat="45.67593" lon="6.48919">
        <ele>2147</ele>
        <time>2022-07-16T04:37:11Z</time>
      </trkpt>
      <trkpt lat="45.67592" lon="6.48922">
        <ele>2147</ele>
        <time>2022-07-16T04:37:12Z</time>
      </trkpt>
      <trkpt lat="45.67592" lon="6.48925">
        <ele>2147</ele>
        <time>2022-07-16T04:37:13Z</time>
      </trkpt>
      <trkpt lat="45.67592" lon="6.48928">
        <ele>2147</ele>
        <time>2022-07-16T04:37:14Z</time>
      </trkpt>
      <trkpt lat="45.67592" lon="6.48931">
        <ele>2148</ele>
        <time>2022-07-16T04:37:15Z</time>
      </trkpt>
      <trkpt lat="45.67591" lon="6.48936">
        <ele>2148</ele>
        <time>2022-07-16T04:37:17Z</time>
      </trkpt>
      <trkpt lat="45.6759" lon="6.48939">
        <ele>2148</ele>
        <time>2022-07-16T04:37:18Z</time>
      </trkpt>
      <trkpt lat="45.67588" lon="6.4894">
        <ele>2148</ele>
        <time>2022-07-16T04:37:21Z</time>
      </trkpt>
      <trkpt lat="45.67586" lon="6.48942">
        <ele>2148</ele>
        <time>2022-07-16T04:37:23Z</time>
      </trkpt>
      <trkpt lat="45.67584" lon="6.48944">
        <ele>2148</ele>
        <time>2022-07-16T04:37:25Z</time>
      </trkpt>
      <trkpt lat="45.67583" lon="6.48946">
        <ele>2149</ele>
        <time>2022-07-16T04:37:29Z</time>
      </trkpt>
      <trkpt lat="45.67581" lon="6.48948">
        <ele>2150</ele>
        <time>2022-07-16T04:37:31Z</time>
      </trkpt>
      <trkpt lat="45.6758" lon="6.4895">
        <ele>2150</ele>
        <time>2022-07-16T04:37:33Z</time>
      </trkpt>
      <trkpt lat="45.67578" lon="6.48953">
        <ele>2150</ele>
        <time>2022-07-16T04:37:35Z</time>
      </trkpt>
      <trkpt lat="45.67576" lon="6.48955">
        <ele>2150</ele>
        <time>2022-07-16T04:37:37Z</time>
      </trkpt>
      <trkpt lat="45.67575" lon="6.48958">
        <ele>2150</ele>
        <time>2022-07-16T04:37:39Z</time>
      </trkpt>
      <trkpt lat="45.67575" lon="6.48961">
        <ele>2150</ele>
        <time>2022-07-16T04:37:41Z</time>
      </trkpt>
      <trkpt lat="45.67574" lon="6.48964">
        <ele>2151</ele>
        <time>2022-07-16T04:37:43Z</time>
      </trkpt>
      <trkpt lat="45.67573" lon="6.48967">
        <ele>2151</ele>
        <time>2022-07-16T04:37:45Z</time>
      </trkpt>
      <trkpt lat="45.67572" lon="6.4897">
        <ele>2151</ele>
        <time>2022-07-16T04:37:47Z</time>
      </trkpt>
      <trkpt lat="45.67571" lon="6.48973">
        <ele>2153</ele>
        <time>2022-07-16T04:37:49Z</time>
      </trkpt>
      <trkpt lat="45.67569" lon="6.48977">
        <ele>2153</ele>
        <time>2022-07-16T04:37:51Z</time>
      </trkpt>
      <trkpt lat="45.67568" lon="6.48979">
        <ele>2153</ele>
        <time>2022-07-16T04:37:53Z</time>
      </trkpt>
      <trkpt lat="45.67567" lon="6.48981">
        <ele>2153</ele>
        <time>2022-07-16T04:37:55Z</time>
      </trkpt>
      <trkpt lat="45.67566" lon="6.48984">
        <ele>2153</ele>
        <time>2022-07-16T04:37:58Z</time>
      </trkpt>
      <trkpt lat="45.67564" lon="6.48987">
        <ele>2154</ele>
        <time>2022-07-16T04:38:00Z</time>
      </trkpt>
      <trkpt lat="45.67563" lon="6.48988">
        <ele>2156</ele>
        <time>2022-07-16T04:38:02Z</time>
      </trkpt>
      <trkpt lat="45.67562" lon="6.48991">
        <ele>2156</ele>
        <time>2022-07-16T04:38:04Z</time>
      </trkpt>
      <trkpt lat="45.6756" lon="6.48993">
        <ele>2156</ele>
        <time>2022-07-16T04:38:06Z</time>
      </trkpt>
      <trkpt lat="45.67559" lon="6.48996">
        <ele>2156</ele>
        <time>2022-07-16T04:38:08Z</time>
      </trkpt>
      <trkpt lat="45.67557" lon="6.48999">
        <ele>2156</ele>
        <time>2022-07-16T04:38:10Z</time>
      </trkpt>
      <trkpt lat="45.67556" lon="6.49001">
        <ele>2157</ele>
        <time>2022-07-16T04:38:12Z</time>
      </trkpt>
      <trkpt lat="45.67555" lon="6.49004">
        <ele>2157</ele>
        <time>2022-07-16T04:38:14Z</time>
      </trkpt>
      <trkpt lat="45.67554" lon="6.49007">
        <ele>2157</ele>
        <time>2022-07-16T04:38:16Z</time>
      </trkpt>
      <trkpt lat="45.67553" lon="6.49011">
        <ele>2158</ele>
        <time>2022-07-16T04:38:18Z</time>
      </trkpt>
      <trkpt lat="45.67552" lon="6.49013">
        <ele>2158</ele>
        <time>2022-07-16T04:38:20Z</time>
      </trkpt>
      <trkpt lat="45.67551" lon="6.49016">
        <ele>2158</ele>
        <time>2022-07-16T04:38:22Z</time>
      </trkpt>
      <trkpt lat="45.6755" lon="6.49019">
        <ele>2158</ele>
        <time>2022-07-16T04:38:24Z</time>
      </trkpt>
      <trkpt lat="45.67549" lon="6.49022">
        <ele>2158</ele>
        <time>2022-07-16T04:38:26Z</time>
      </trkpt>
      <trkpt lat="45.67548" lon="6.49025">
        <ele>2159</ele>
        <time>2022-07-16T04:38:28Z</time>
      </trkpt>
      <trkpt lat="45.67547" lon="6.49028">
        <ele>2160</ele>
        <time>2022-07-16T04:38:31Z</time>
      </trkpt>
      <trkpt lat="45.67545" lon="6.49031">
        <ele>2160</ele>
        <time>2022-07-16T04:38:33Z</time>
      </trkpt>
      <trkpt lat="45.67543" lon="6.49035">
        <ele>2160</ele>
        <time>2022-07-16T04:38:34Z</time>
      </trkpt>
      <trkpt lat="45.67543" lon="6.49037">
        <ele>2160</ele>
        <time>2022-07-16T04:38:35Z</time>
      </trkpt>
      <trkpt lat="45.67541" lon="6.49039">
        <ele>2160</ele>
        <time>2022-07-16T04:38:36Z</time>
      </trkpt>
      <trkpt lat="45.6754" lon="6.49042">
        <ele>2160</ele>
        <time>2022-07-16T04:38:37Z</time>
      </trkpt>
      <trkpt lat="45.67538" lon="6.49045">
        <ele>2160</ele>
        <time>2022-07-16T04:38:38Z</time>
      </trkpt>
      <trkpt lat="45.67536" lon="6.49047">
        <ele>2160</ele>
        <time>2022-07-16T04:38:39Z</time>
      </trkpt>
      <trkpt lat="45.67535" lon="6.49049">
        <ele>2160</ele>
        <time>2022-07-16T04:38:40Z</time>
      </trkpt>
      <trkpt lat="45.67534" lon="6.49051">
        <ele>2160</ele>
        <time>2022-07-16T04:38:41Z</time>
      </trkpt>
      <trkpt lat="45.67532" lon="6.49053">
        <ele>2161</ele>
        <time>2022-07-16T04:38:42Z</time>
      </trkpt>
      <trkpt lat="45.67531" lon="6.49056">
        <ele>2161</ele>
        <time>2022-07-16T04:38:43Z</time>
      </trkpt>
      <trkpt lat="45.67531" lon="6.49059">
        <ele>2161</ele>
        <time>2022-07-16T04:38:44Z</time>
      </trkpt>
      <trkpt lat="45.6753" lon="6.49062">
        <ele>2161</ele>
        <time>2022-07-16T04:38:45Z</time>
      </trkpt>
      <trkpt lat="45.67529" lon="6.49065">
        <ele>2161</ele>
        <time>2022-07-16T04:38:46Z</time>
      </trkpt>
      <trkpt lat="45.67527" lon="6.49069">
        <ele>2162</ele>
        <time>2022-07-16T04:38:48Z</time>
      </trkpt>
      <trkpt lat="45.67526" lon="6.49071">
        <ele>2162</ele>
        <time>2022-07-16T04:38:49Z</time>
      </trkpt>
      <trkpt lat="45.67524" lon="6.49074">
        <ele>2162</ele>
        <time>2022-07-16T04:38:51Z</time>
      </trkpt>
      <trkpt lat="45.67523" lon="6.49077">
        <ele>2161</ele>
        <time>2022-07-16T04:38:53Z</time>
      </trkpt>
      <trkpt lat="45.67522" lon="6.49079">
        <ele>2162</ele>
        <time>2022-07-16T04:38:55Z</time>
      </trkpt>
      <trkpt lat="45.6752" lon="6.49082">
        <ele>2162</ele>
        <time>2022-07-16T04:38:58Z</time>
      </trkpt>
      <trkpt lat="45.67519" lon="6.49084">
        <ele>2162</ele>
        <time>2022-07-16T04:39:01Z</time>
      </trkpt>
      <trkpt lat="45.67518" lon="6.49087">
        <ele>2163</ele>
        <time>2022-07-16T04:39:04Z</time>
      </trkpt>
      <trkpt lat="45.67516" lon="6.49089">
        <ele>2163</ele>
        <time>2022-07-16T04:39:06Z</time>
      </trkpt>
      <trkpt lat="45.67514" lon="6.49091">
        <ele>2163</ele>
        <time>2022-07-16T04:39:08Z</time>
      </trkpt>
      <trkpt lat="45.67512" lon="6.49093">
        <ele>2164</ele>
        <time>2022-07-16T04:39:10Z</time>
      </trkpt>
      <trkpt lat="45.67511" lon="6.49096">
        <ele>2164</ele>
        <time>2022-07-16T04:39:13Z</time>
      </trkpt>
      <trkpt lat="45.6751" lon="6.491">
        <ele>2164</ele>
        <time>2022-07-16T04:39:19Z</time>
      </trkpt>
      <trkpt lat="45.6751" lon="6.49102">
        <ele>2165</ele>
        <time>2022-07-16T04:39:22Z</time>
      </trkpt>
      <trkpt lat="45.67509" lon="6.49105">
        <ele>2166</ele>
        <time>2022-07-16T04:39:25Z</time>
      </trkpt>
      <trkpt lat="45.67508" lon="6.49108">
        <ele>2167</ele>
        <time>2022-07-16T04:39:29Z</time>
      </trkpt>
      <trkpt lat="45.67507" lon="6.49111">
        <ele>2168</ele>
        <time>2022-07-16T04:39:32Z</time>
      </trkpt>
      <trkpt lat="45.67506" lon="6.49113">
        <ele>2168</ele>
        <time>2022-07-16T04:39:34Z</time>
      </trkpt>
      <trkpt lat="45.67505" lon="6.49115">
        <ele>2170</ele>
        <time>2022-07-16T04:39:36Z</time>
      </trkpt>
      <trkpt lat="45.67503" lon="6.49117">
        <ele>2170</ele>
        <time>2022-07-16T04:39:38Z</time>
      </trkpt>
      <trkpt lat="45.67501" lon="6.49119">
        <ele>2170</ele>
        <time>2022-07-16T04:39:40Z</time>
      </trkpt>
      <trkpt lat="45.67499" lon="6.49122">
        <ele>2170</ele>
        <time>2022-07-16T04:39:42Z</time>
      </trkpt>
      <trkpt lat="45.67497" lon="6.49124">
        <ele>2170</ele>
        <time>2022-07-16T04:39:44Z</time>
      </trkpt>
      <trkpt lat="45.67496" lon="6.49126">
        <ele>2170</ele>
        <time>2022-07-16T04:39:46Z</time>
      </trkpt>
      <trkpt lat="45.67495" lon="6.49128">
        <ele>2170</ele>
        <time>2022-07-16T04:39:48Z</time>
      </trkpt>
      <trkpt lat="45.67495" lon="6.49131">
        <ele>2171</ele>
        <time>2022-07-16T04:39:50Z</time>
      </trkpt>
      <trkpt lat="45.67494" lon="6.49134">
        <ele>2171</ele>
        <time>2022-07-16T04:39:52Z</time>
      </trkpt>
      <trkpt lat="45.67493" lon="6.49136">
        <ele>2172</ele>
        <time>2022-07-16T04:39:54Z</time>
      </trkpt>
      <trkpt lat="45.67492" lon="6.49139">
        <ele>2172</ele>
        <time>2022-07-16T04:39:56Z</time>
      </trkpt>
      <trkpt lat="45.67491" lon="6.49142">
        <ele>2173</ele>
        <time>2022-07-16T04:39:58Z</time>
      </trkpt>
      <trkpt lat="45.6749" lon="6.49145">
        <ele>2173</ele>
        <time>2022-07-16T04:40:00Z</time>
      </trkpt>
      <trkpt lat="45.67489" lon="6.49147">
        <ele>2173</ele>
        <time>2022-07-16T04:40:02Z</time>
      </trkpt>
      <trkpt lat="45.67487" lon="6.4915">
        <ele>2173</ele>
        <time>2022-07-16T04:40:04Z</time>
      </trkpt>
      <trkpt lat="45.67486" lon="6.49152">
        <ele>2173</ele>
        <time>2022-07-16T04:40:06Z</time>
      </trkpt>
      <trkpt lat="45.67486" lon="6.49156">
        <ele>2173</ele>
        <time>2022-07-16T04:40:09Z</time>
      </trkpt>
      <trkpt lat="45.67485" lon="6.49159">
        <ele>2174</ele>
        <time>2022-07-16T04:40:11Z</time>
      </trkpt>
      <trkpt lat="45.67484" lon="6.49162">
        <ele>2176</ele>
        <time>2022-07-16T04:40:14Z</time>
      </trkpt>
      <trkpt lat="45.67483" lon="6.49165">
        <ele>2176</ele>
        <time>2022-07-16T04:40:17Z</time>
      </trkpt>
      <trkpt lat="45.67482" lon="6.49167">
        <ele>2176</ele>
        <time>2022-07-16T04:40:20Z</time>
      </trkpt>
      <trkpt lat="45.67482" lon="6.4917">
        <ele>2177</ele>
        <time>2022-07-16T04:40:22Z</time>
      </trkpt>
      <trkpt lat="45.6748" lon="6.49172">
        <ele>2178</ele>
        <time>2022-07-16T04:40:24Z</time>
      </trkpt>
      <trkpt lat="45.67479" lon="6.49175">
        <ele>2178</ele>
        <time>2022-07-16T04:40:27Z</time>
      </trkpt>
      <trkpt lat="45.67476" lon="6.49176">
        <ele>2179</ele>
        <time>2022-07-16T04:40:30Z</time>
      </trkpt>
      <trkpt lat="45.67474" lon="6.49176">
        <ele>2179</ele>
        <time>2022-07-16T04:40:32Z</time>
      </trkpt>
      <trkpt lat="45.67471" lon="6.49176">
        <ele>2178</ele>
        <time>2022-07-16T04:40:34Z</time>
      </trkpt>
      <trkpt lat="45.67469" lon="6.49176">
        <ele>2178</ele>
        <time>2022-07-16T04:40:36Z</time>
      </trkpt>
      <trkpt lat="45.67465" lon="6.49176">
        <ele>2177</ele>
        <time>2022-07-16T04:40:38Z</time>
      </trkpt>
      <trkpt lat="45.67463" lon="6.49177">
        <ele>2176</ele>
        <time>2022-07-16T04:40:39Z</time>
      </trkpt>
      <trkpt lat="45.67461" lon="6.49177">
        <ele>2176</ele>
        <time>2022-07-16T04:40:40Z</time>
      </trkpt>
      <trkpt lat="45.67458" lon="6.49178">
        <ele>2176</ele>
        <time>2022-07-16T04:40:42Z</time>
      </trkpt>
      <trkpt lat="45.67455" lon="6.49179">
        <ele>2176</ele>
        <time>2022-07-16T04:40:44Z</time>
      </trkpt>
      <trkpt lat="45.67452" lon="6.4918">
        <ele>2176</ele>
        <time>2022-07-16T04:40:46Z</time>
      </trkpt>
      <trkpt lat="45.67449" lon="6.49182">
        <ele>2176</ele>
        <time>2022-07-16T04:40:48Z</time>
      </trkpt>
      <trkpt lat="45.67448" lon="6.49183">
        <ele>2175</ele>
        <time>2022-07-16T04:40:49Z</time>
      </trkpt>
      <trkpt lat="45.67446" lon="6.49185">
        <ele>2175</ele>
        <time>2022-07-16T04:40:50Z</time>
      </trkpt>
      <trkpt lat="45.67444" lon="6.49187">
        <ele>2175</ele>
        <time>2022-07-16T04:40:51Z</time>
      </trkpt>
      <trkpt lat="45.67442" lon="6.49189">
        <ele>2174</ele>
        <time>2022-07-16T04:40:52Z</time>
      </trkpt>
      <trkpt lat="45.6744" lon="6.49191">
        <ele>2174</ele>
        <time>2022-07-16T04:40:53Z</time>
      </trkpt>
      <trkpt lat="45.67439" lon="6.49193">
        <ele>2173</ele>
        <time>2022-07-16T04:40:54Z</time>
      </trkpt>
      <trkpt lat="45.67437" lon="6.49195">
        <ele>2173</ele>
        <time>2022-07-16T04:40:55Z</time>
      </trkpt>
      <trkpt lat="45.67435" lon="6.49197">
        <ele>2173</ele>
        <time>2022-07-16T04:40:56Z</time>
      </trkpt>
      <trkpt lat="45.67433" lon="6.49199">
        <ele>2173</ele>
        <time>2022-07-16T04:40:57Z</time>
      </trkpt>
      <trkpt lat="45.67431" lon="6.49201">
        <ele>2172</ele>
        <time>2022-07-16T04:40:58Z</time>
      </trkpt>
      <trkpt lat="45.67429" lon="6.49203">
        <ele>2171</ele>
        <time>2022-07-16T04:40:59Z</time>
      </trkpt>
      <trkpt lat="45.67428" lon="6.49206">
        <ele>2171</ele>
        <time>2022-07-16T04:41:00Z</time>
      </trkpt>
      <trkpt lat="45.67426" lon="6.49208">
        <ele>2171</ele>
        <time>2022-07-16T04:41:01Z</time>
      </trkpt>
      <trkpt lat="45.67425" lon="6.4921">
        <ele>2171</ele>
        <time>2022-07-16T04:41:02Z</time>
      </trkpt>
      <trkpt lat="45.67423" lon="6.49212">
        <ele>2171</ele>
        <time>2022-07-16T04:41:03Z</time>
      </trkpt>
      <trkpt lat="45.67421" lon="6.49213">
        <ele>2172</ele>
        <time>2022-07-16T04:41:04Z</time>
      </trkpt>
      <trkpt lat="45.67419" lon="6.49215">
        <ele>2172</ele>
        <time>2022-07-16T04:41:05Z</time>
      </trkpt>
      <trkpt lat="45.67418" lon="6.49216">
        <ele>2172</ele>
        <time>2022-07-16T04:41:06Z</time>
      </trkpt>
      <trkpt lat="45.67417" lon="6.49218">
        <ele>2172</ele>
        <time>2022-07-16T04:41:07Z</time>
      </trkpt>
      <trkpt lat="45.67415" lon="6.49222">
        <ele>2172</ele>
        <time>2022-07-16T04:41:09Z</time>
      </trkpt>
      <trkpt lat="45.67414" lon="6.49225">
        <ele>2172</ele>
        <time>2022-07-16T04:41:11Z</time>
      </trkpt>
      <trkpt lat="45.67413" lon="6.49229">
        <ele>2173</ele>
        <time>2022-07-16T04:41:13Z</time>
      </trkpt>
      <trkpt lat="45.67413" lon="6.49232">
        <ele>2174</ele>
        <time>2022-07-16T04:41:15Z</time>
      </trkpt>
      <trkpt lat="45.67412" lon="6.49234">
        <ele>2174</ele>
        <time>2022-07-16T04:41:17Z</time>
      </trkpt>
      <trkpt lat="45.6741" lon="6.49236">
        <ele>2175</ele>
        <time>2022-07-16T04:41:20Z</time>
      </trkpt>
      <trkpt lat="45.67409" lon="6.49238">
        <ele>2175</ele>
        <time>2022-07-16T04:41:22Z</time>
      </trkpt>
      <trkpt lat="45.67407" lon="6.49242">
        <ele>2176</ele>
        <time>2022-07-16T04:41:25Z</time>
      </trkpt>
      <trkpt lat="45.67406" lon="6.49244">
        <ele>2176</ele>
        <time>2022-07-16T04:41:27Z</time>
      </trkpt>
      <trkpt lat="45.67405" lon="6.49247">
        <ele>2177</ele>
        <time>2022-07-16T04:41:29Z</time>
      </trkpt>
      <trkpt lat="45.67404" lon="6.4925">
        <ele>2177</ele>
        <time>2022-07-16T04:41:31Z</time>
      </trkpt>
      <trkpt lat="45.67403" lon="6.49252">
        <ele>2177</ele>
        <time>2022-07-16T04:41:33Z</time>
      </trkpt>
      <trkpt lat="45.67402" lon="6.49256">
        <ele>2178</ele>
        <time>2022-07-16T04:41:36Z</time>
      </trkpt>
      <trkpt lat="45.67401" lon="6.49259">
        <ele>2178</ele>
        <time>2022-07-16T04:41:39Z</time>
      </trkpt>
      <trkpt lat="45.674" lon="6.49263">
        <ele>2179</ele>
        <time>2022-07-16T04:41:42Z</time>
      </trkpt>
      <trkpt lat="45.674" lon="6.49266">
        <ele>2179</ele>
        <time>2022-07-16T04:41:45Z</time>
      </trkpt>
      <trkpt lat="45.67399" lon="6.49268">
        <ele>2180</ele>
        <time>2022-07-16T04:41:47Z</time>
      </trkpt>
      <trkpt lat="45.67398" lon="6.49271">
        <ele>2181</ele>
        <time>2022-07-16T04:41:49Z</time>
      </trkpt>
      <trkpt lat="45.67397" lon="6.49275">
        <ele>2181</ele>
        <time>2022-07-16T04:41:51Z</time>
      </trkpt>
      <trkpt lat="45.67396" lon="6.49278">
        <ele>2181</ele>
        <time>2022-07-16T04:41:53Z</time>
      </trkpt>
      <trkpt lat="45.67395" lon="6.49281">
        <ele>2181</ele>
        <time>2022-07-16T04:41:55Z</time>
      </trkpt>
      <trkpt lat="45.67393" lon="6.49283">
        <ele>2181</ele>
        <time>2022-07-16T04:41:57Z</time>
      </trkpt>
      <trkpt lat="45.67391" lon="6.49284">
        <ele>2181</ele>
        <time>2022-07-16T04:41:59Z</time>
      </trkpt>
      <trkpt lat="45.6739" lon="6.49286">
        <ele>2182</ele>
        <time>2022-07-16T04:42:01Z</time>
      </trkpt>
      <trkpt lat="45.67388" lon="6.49289">
        <ele>2182</ele>
        <time>2022-07-16T04:42:03Z</time>
      </trkpt>
      <trkpt lat="45.67387" lon="6.49292">
        <ele>2183</ele>
        <time>2022-07-16T04:42:05Z</time>
      </trkpt>
      <trkpt lat="45.67387" lon="6.49295">
        <ele>2184</ele>
        <time>2022-07-16T04:42:07Z</time>
      </trkpt>
      <trkpt lat="45.67386" lon="6.49298">
        <ele>2184</ele>
        <time>2022-07-16T04:42:09Z</time>
      </trkpt>
      <trkpt lat="45.67385" lon="6.49302">
        <ele>2184</ele>
        <time>2022-07-16T04:42:11Z</time>
      </trkpt>
      <trkpt lat="45.67385" lon="6.49306">
        <ele>2184</ele>
        <time>2022-07-16T04:42:13Z</time>
      </trkpt>
      <trkpt lat="45.67384" lon="6.49309">
        <ele>2184</ele>
        <time>2022-07-16T04:42:15Z</time>
      </trkpt>
      <trkpt lat="45.67382" lon="6.49312">
        <ele>2184</ele>
        <time>2022-07-16T04:42:17Z</time>
      </trkpt>
      <trkpt lat="45.67381" lon="6.49314">
        <ele>2185</ele>
        <time>2022-07-16T04:42:19Z</time>
      </trkpt>
      <trkpt lat="45.67379" lon="6.49314">
        <ele>2185</ele>
        <time>2022-07-16T04:42:21Z</time>
      </trkpt>
      <trkpt lat="45.67376" lon="6.49314">
        <ele>2185</ele>
        <time>2022-07-16T04:42:23Z</time>
      </trkpt>
      <trkpt lat="45.67374" lon="6.49315">
        <ele>2185</ele>
        <time>2022-07-16T04:42:25Z</time>
      </trkpt>
      <trkpt lat="45.67371" lon="6.49315">
        <ele>2186</ele>
        <time>2022-07-16T04:42:27Z</time>
      </trkpt>
      <trkpt lat="45.67369" lon="6.49316">
        <ele>2186</ele>
        <time>2022-07-16T04:42:29Z</time>
      </trkpt>
      <trkpt lat="45.67366" lon="6.49318">
        <ele>2186</ele>
        <time>2022-07-16T04:42:31Z</time>
      </trkpt>
      <trkpt lat="45.67364" lon="6.4932">
        <ele>2186</ele>
        <time>2022-07-16T04:42:33Z</time>
      </trkpt>
      <trkpt lat="45.67361" lon="6.49323">
        <ele>2186</ele>
        <time>2022-07-16T04:42:35Z</time>
      </trkpt>
      <trkpt lat="45.67359" lon="6.49324">
        <ele>2186</ele>
        <time>2022-07-16T04:42:37Z</time>
      </trkpt>
      <trkpt lat="45.67355" lon="6.49326">
        <ele>2186</ele>
        <time>2022-07-16T04:42:39Z</time>
      </trkpt>
      <trkpt lat="45.67354" lon="6.49327">
        <ele>2186</ele>
        <time>2022-07-16T04:42:40Z</time>
      </trkpt>
      <trkpt lat="45.67352" lon="6.49328">
        <ele>2187</ele>
        <time>2022-07-16T04:42:42Z</time>
      </trkpt>
      <trkpt lat="45.67349" lon="6.49329">
        <ele>2187</ele>
        <time>2022-07-16T04:42:44Z</time>
      </trkpt>
      <trkpt lat="45.67347" lon="6.49328">
        <ele>2188</ele>
        <time>2022-07-16T04:42:46Z</time>
      </trkpt>
      <trkpt lat="45.67344" lon="6.49328">
        <ele>2189</ele>
        <time>2022-07-16T04:42:48Z</time>
      </trkpt>
      <trkpt lat="45.67341" lon="6.49329">
        <ele>2189</ele>
        <time>2022-07-16T04:42:50Z</time>
      </trkpt>
      <trkpt lat="45.67339" lon="6.49329">
        <ele>2189</ele>
        <time>2022-07-16T04:42:52Z</time>
      </trkpt>
      <trkpt lat="45.67336" lon="6.49331">
        <ele>2189</ele>
        <time>2022-07-16T04:42:54Z</time>
      </trkpt>
      <trkpt lat="45.67334" lon="6.49333">
        <ele>2189</ele>
        <time>2022-07-16T04:42:56Z</time>
      </trkpt>
      <trkpt lat="45.67333" lon="6.49334">
        <ele>2189</ele>
        <time>2022-07-16T04:42:58Z</time>
      </trkpt>
      <trkpt lat="45.6733" lon="6.49336">
        <ele>2189</ele>
        <time>2022-07-16T04:43:00Z</time>
      </trkpt>
      <trkpt lat="45.67328" lon="6.49338">
        <ele>2189</ele>
        <time>2022-07-16T04:43:02Z</time>
      </trkpt>
      <trkpt lat="45.67326" lon="6.4934">
        <ele>2188</ele>
        <time>2022-07-16T04:43:04Z</time>
      </trkpt>
      <trkpt lat="45.67324" lon="6.49343">
        <ele>2188</ele>
        <time>2022-07-16T04:43:06Z</time>
      </trkpt>
      <trkpt lat="45.6732" lon="6.49343">
        <ele>2188</ele>
        <time>2022-07-16T04:43:08Z</time>
      </trkpt>
      <trkpt lat="45.67317" lon="6.49343">
        <ele>2188</ele>
        <time>2022-07-16T04:43:10Z</time>
      </trkpt>
      <trkpt lat="45.67315" lon="6.49344">
        <ele>2189</ele>
        <time>2022-07-16T04:43:11Z</time>
      </trkpt>
      <trkpt lat="45.67313" lon="6.49347">
        <ele>2189</ele>
        <time>2022-07-16T04:43:13Z</time>
      </trkpt>
      <trkpt lat="45.6731" lon="6.49349">
        <ele>2190</ele>
        <time>2022-07-16T04:43:15Z</time>
      </trkpt>
      <trkpt lat="45.67308" lon="6.49351">
        <ele>2190</ele>
        <time>2022-07-16T04:43:17Z</time>
      </trkpt>
      <trkpt lat="45.67306" lon="6.49353">
        <ele>2190</ele>
        <time>2022-07-16T04:43:18Z</time>
      </trkpt>
      <trkpt lat="45.67305" lon="6.49354">
        <ele>2189</ele>
        <time>2022-07-16T04:43:19Z</time>
      </trkpt>
      <trkpt lat="45.67302" lon="6.49356">
        <ele>2189</ele>
        <time>2022-07-16T04:43:21Z</time>
      </trkpt>
      <trkpt lat="45.673" lon="6.49357">
        <ele>2189</ele>
        <time>2022-07-16T04:43:23Z</time>
      </trkpt>
      <trkpt lat="45.67297" lon="6.49358">
        <ele>2190</ele>
        <time>2022-07-16T04:43:25Z</time>
      </trkpt>
      <trkpt lat="45.67295" lon="6.49358">
        <ele>2190</ele>
        <time>2022-07-16T04:43:26Z</time>
      </trkpt>
      <trkpt lat="45.67292" lon="6.49358">
        <ele>2190</ele>
        <time>2022-07-16T04:43:28Z</time>
      </trkpt>
      <trkpt lat="45.6729" lon="6.49357">
        <ele>2190</ele>
        <time>2022-07-16T04:43:30Z</time>
      </trkpt>
      <trkpt lat="45.67287" lon="6.49356">
        <ele>2190</ele>
        <time>2022-07-16T04:43:32Z</time>
      </trkpt>
      <trkpt lat="45.67284" lon="6.49356">
        <ele>2190</ele>
        <time>2022-07-16T04:43:34Z</time>
      </trkpt>
      <trkpt lat="45.67281" lon="6.49357">
        <ele>2190</ele>
        <time>2022-07-16T04:43:36Z</time>
      </trkpt>
      <trkpt lat="45.67278" lon="6.49359">
        <ele>2190</ele>
        <time>2022-07-16T04:43:38Z</time>
      </trkpt>
      <trkpt lat="45.67275" lon="6.49361">
        <ele>2189</ele>
        <time>2022-07-16T04:43:40Z</time>
      </trkpt>
      <trkpt lat="45.67272" lon="6.49362">
        <ele>2189</ele>
        <time>2022-07-16T04:43:42Z</time>
      </trkpt>
      <trkpt lat="45.67269" lon="6.49363">
        <ele>2189</ele>
        <time>2022-07-16T04:43:44Z</time>
      </trkpt>
      <trkpt lat="45.67266" lon="6.49364">
        <ele>2188</ele>
        <time>2022-07-16T04:43:46Z</time>
      </trkpt>
      <trkpt lat="45.67263" lon="6.49365">
        <ele>2188</ele>
        <time>2022-07-16T04:43:48Z</time>
      </trkpt>
      <trkpt lat="45.67259" lon="6.49366">
        <ele>2188</ele>
        <time>2022-07-16T04:43:50Z</time>
      </trkpt>
      <trkpt lat="45.67257" lon="6.49368">
        <ele>2187</ele>
        <time>2022-07-16T04:43:52Z</time>
      </trkpt>
      <trkpt lat="45.67255" lon="6.49369">
        <ele>2187</ele>
        <time>2022-07-16T04:43:54Z</time>
      </trkpt>
      <trkpt lat="45.67253" lon="6.4937">
        <ele>2186</ele>
        <time>2022-07-16T04:43:56Z</time>
      </trkpt>
      <trkpt lat="45.67249" lon="6.49371">
        <ele>2185</ele>
        <time>2022-07-16T04:43:58Z</time>
      </trkpt>
      <trkpt lat="45.67248" lon="6.49372">
        <ele>2185</ele>
        <time>2022-07-16T04:43:59Z</time>
      </trkpt>
      <trkpt lat="45.67246" lon="6.49372">
        <ele>2185</ele>
        <time>2022-07-16T04:44:00Z</time>
      </trkpt>
      <trkpt lat="45.67244" lon="6.49373">
        <ele>2185</ele>
        <time>2022-07-16T04:44:01Z</time>
      </trkpt>
      <trkpt lat="45.67242" lon="6.49374">
        <ele>2185</ele>
        <time>2022-07-16T04:44:02Z</time>
      </trkpt>
      <trkpt lat="45.6724" lon="6.49374">
        <ele>2184</ele>
        <time>2022-07-16T04:44:03Z</time>
      </trkpt>
      <trkpt lat="45.67238" lon="6.49374">
        <ele>2183</ele>
        <time>2022-07-16T04:44:04Z</time>
      </trkpt>
      <trkpt lat="45.67235" lon="6.49374">
        <ele>2183</ele>
        <time>2022-07-16T04:44:06Z</time>
      </trkpt>
      <trkpt lat="45.67233" lon="6.49376">
        <ele>2182</ele>
        <time>2022-07-16T04:44:08Z</time>
      </trkpt>
      <trkpt lat="45.6723" lon="6.49377">
        <ele>2182</ele>
        <time>2022-07-16T04:44:10Z</time>
      </trkpt>
      <trkpt lat="45.67229" lon="6.49379">
        <ele>2180</ele>
        <time>2022-07-16T04:44:12Z</time>
      </trkpt>
      <trkpt lat="45.67226" lon="6.49381">
        <ele>2180</ele>
        <time>2022-07-16T04:44:14Z</time>
      </trkpt>
      <trkpt lat="45.67224" lon="6.49383">
        <ele>2179</ele>
        <time>2022-07-16T04:44:16Z</time>
      </trkpt>
      <trkpt lat="45.67223" lon="6.49386">
        <ele>2178</ele>
        <time>2022-07-16T04:44:18Z</time>
      </trkpt>
      <trkpt lat="45.67223" lon="6.49389">
        <ele>2178</ele>
        <time>2022-07-16T04:44:19Z</time>
      </trkpt>
      <trkpt lat="45.67221" lon="6.49392">
        <ele>2178</ele>
        <time>2022-07-16T04:44:21Z</time>
      </trkpt>
      <trkpt lat="45.67219" lon="6.49395">
        <ele>2178</ele>
        <time>2022-07-16T04:44:23Z</time>
      </trkpt>
      <trkpt lat="45.67218" lon="6.49398">
        <ele>2178</ele>
        <time>2022-07-16T04:44:25Z</time>
      </trkpt>
      <trkpt lat="45.67215" lon="6.494">
        <ele>2177</ele>
        <time>2022-07-16T04:44:27Z</time>
      </trkpt>
      <trkpt lat="45.67213" lon="6.494">
        <ele>2177</ele>
        <time>2022-07-16T04:44:28Z</time>
      </trkpt>
      <trkpt lat="45.6721" lon="6.49401">
        <ele>2177</ele>
        <time>2022-07-16T04:44:30Z</time>
      </trkpt>
      <trkpt lat="45.67207" lon="6.49401">
        <ele>2177</ele>
        <time>2022-07-16T04:44:32Z</time>
      </trkpt>
      <trkpt lat="45.67204" lon="6.49402">
        <ele>2178</ele>
        <time>2022-07-16T04:44:34Z</time>
      </trkpt>
      <trkpt lat="45.67202" lon="6.49403">
        <ele>2178</ele>
        <time>2022-07-16T04:44:36Z</time>
      </trkpt>
      <trkpt lat="45.672" lon="6.49404">
        <ele>2178</ele>
        <time>2022-07-16T04:44:38Z</time>
      </trkpt>
      <trkpt lat="45.67198" lon="6.49405">
        <ele>2178</ele>
        <time>2022-07-16T04:44:40Z</time>
      </trkpt>
      <trkpt lat="45.67196" lon="6.49407">
        <ele>2178</ele>
        <time>2022-07-16T04:44:42Z</time>
      </trkpt>
      <trkpt lat="45.67194" lon="6.49408">
        <ele>2179</ele>
        <time>2022-07-16T04:44:45Z</time>
      </trkpt>
      <trkpt lat="45.67192" lon="6.49408">
        <ele>2180</ele>
        <time>2022-07-16T04:44:47Z</time>
      </trkpt>
      <trkpt lat="45.67189" lon="6.49408">
        <ele>2180</ele>
        <time>2022-07-16T04:44:50Z</time>
      </trkpt>
      <trkpt lat="45.67187" lon="6.49407">
        <ele>2180</ele>
        <time>2022-07-16T04:44:52Z</time>
      </trkpt>
      <trkpt lat="45.67185" lon="6.49406">
        <ele>2180</ele>
        <time>2022-07-16T04:44:54Z</time>
      </trkpt>
      <trkpt lat="45.67183" lon="6.49405">
        <ele>2180</ele>
        <time>2022-07-16T04:44:56Z</time>
      </trkpt>
      <trkpt lat="45.6718" lon="6.49404">
        <ele>2181</ele>
        <time>2022-07-16T04:44:58Z</time>
      </trkpt>
      <trkpt lat="45.67178" lon="6.49404">
        <ele>2181</ele>
        <time>2022-07-16T04:45:00Z</time>
      </trkpt>
      <trkpt lat="45.67176" lon="6.49405">
        <ele>2182</ele>
        <time>2022-07-16T04:45:02Z</time>
      </trkpt>
      <trkpt lat="45.67173" lon="6.49405">
        <ele>2182</ele>
        <time>2022-07-16T04:45:04Z</time>
      </trkpt>
      <trkpt lat="45.6717" lon="6.49405">
        <ele>2182</ele>
        <time>2022-07-16T04:45:06Z</time>
      </trkpt>
      <trkpt lat="45.67166" lon="6.49403">
        <ele>2182</ele>
        <time>2022-07-16T04:45:08Z</time>
      </trkpt>
      <trkpt lat="45.67164" lon="6.49401">
        <ele>2182</ele>
        <time>2022-07-16T04:45:10Z</time>
      </trkpt>
      <trkpt lat="45.67161" lon="6.49399">
        <ele>2182</ele>
        <time>2022-07-16T04:45:12Z</time>
      </trkpt>
      <trkpt lat="45.67159" lon="6.49399">
        <ele>2182</ele>
        <time>2022-07-16T04:45:14Z</time>
      </trkpt>
      <trkpt lat="45.67157" lon="6.49399">
        <ele>2182</ele>
        <time>2022-07-16T04:45:16Z</time>
      </trkpt>
      <trkpt lat="45.67155" lon="6.494">
        <ele>2182</ele>
        <time>2022-07-16T04:45:18Z</time>
      </trkpt>
      <trkpt lat="45.67153" lon="6.49401">
        <ele>2183</ele>
        <time>2022-07-16T04:45:20Z</time>
      </trkpt>
      <trkpt lat="45.67151" lon="6.49401">
        <ele>2183</ele>
        <time>2022-07-16T04:45:22Z</time>
      </trkpt>
      <trkpt lat="45.67149" lon="6.49402">
        <ele>2184</ele>
        <time>2022-07-16T04:45:24Z</time>
      </trkpt>
      <trkpt lat="45.67147" lon="6.49403">
        <ele>2185</ele>
        <time>2022-07-16T04:45:26Z</time>
      </trkpt>
      <trkpt lat="45.67146" lon="6.49404">
        <ele>2185</ele>
        <time>2022-07-16T04:45:28Z</time>
      </trkpt>
      <trkpt lat="45.67144" lon="6.49405">
        <ele>2186</ele>
        <time>2022-07-16T04:45:30Z</time>
      </trkpt>
      <trkpt lat="45.67142" lon="6.49407">
        <ele>2186</ele>
        <time>2022-07-16T04:45:33Z</time>
      </trkpt>
      <trkpt lat="45.6714" lon="6.49408">
        <ele>2186</ele>
        <time>2022-07-16T04:45:35Z</time>
      </trkpt>
      <trkpt lat="45.67138" lon="6.4941">
        <ele>2186</ele>
        <time>2022-07-16T04:45:37Z</time>
      </trkpt>
      <trkpt lat="45.67135" lon="6.49411">
        <ele>2187</ele>
        <time>2022-07-16T04:45:39Z</time>
      </trkpt>
      <trkpt lat="45.67133" lon="6.49413">
        <ele>2188</ele>
        <time>2022-07-16T04:45:42Z</time>
      </trkpt>
      <trkpt lat="45.67132" lon="6.49414">
        <ele>2188</ele>
        <time>2022-07-16T04:45:44Z</time>
      </trkpt>
      <trkpt lat="45.6713" lon="6.49416">
        <ele>2189</ele>
        <time>2022-07-16T04:45:46Z</time>
      </trkpt>
      <trkpt lat="45.67128" lon="6.49417">
        <ele>2189</ele>
        <time>2022-07-16T04:45:48Z</time>
      </trkpt>
      <trkpt lat="45.67126" lon="6.49419">
        <ele>2190</ele>
        <time>2022-07-16T04:45:51Z</time>
      </trkpt>
      <trkpt lat="45.67124" lon="6.49419">
        <ele>2190</ele>
        <time>2022-07-16T04:45:54Z</time>
      </trkpt>
      <trkpt lat="45.67121" lon="6.49421">
        <ele>2190</ele>
        <time>2022-07-16T04:45:57Z</time>
      </trkpt>
      <trkpt lat="45.67119" lon="6.49421">
        <ele>2191</ele>
        <time>2022-07-16T04:46:00Z</time>
      </trkpt>
      <trkpt lat="45.67117" lon="6.49422">
        <ele>2192</ele>
        <time>2022-07-16T04:46:02Z</time>
      </trkpt>
      <trkpt lat="45.67115" lon="6.49424">
        <ele>2192</ele>
        <time>2022-07-16T04:46:04Z</time>
      </trkpt>
      <trkpt lat="45.67114" lon="6.49425">
        <ele>2193</ele>
        <time>2022-07-16T04:46:06Z</time>
      </trkpt>
      <trkpt lat="45.67112" lon="6.49426">
        <ele>2193</ele>
        <time>2022-07-16T04:46:08Z</time>
      </trkpt>
      <trkpt lat="45.6711" lon="6.49427">
        <ele>2193</ele>
        <time>2022-07-16T04:46:10Z</time>
      </trkpt>
      <trkpt lat="45.67108" lon="6.49427">
        <ele>2193</ele>
        <time>2022-07-16T04:46:12Z</time>
      </trkpt>
      <trkpt lat="45.67106" lon="6.49428">
        <ele>2194</ele>
        <time>2022-07-16T04:46:14Z</time>
      </trkpt>
      <trkpt lat="45.67104" lon="6.49429">
        <ele>2196</ele>
        <time>2022-07-16T04:46:16Z</time>
      </trkpt>
      <trkpt lat="45.67102" lon="6.4943">
        <ele>2196</ele>
        <time>2022-07-16T04:46:18Z</time>
      </trkpt>
      <trkpt lat="45.671" lon="6.49431">
        <ele>2196</ele>
        <time>2022-07-16T04:46:20Z</time>
      </trkpt>
      <trkpt lat="45.67098" lon="6.49432">
        <ele>2196</ele>
        <time>2022-07-16T04:46:22Z</time>
      </trkpt>
      <trkpt lat="45.67096" lon="6.49433">
        <ele>2197</ele>
        <time>2022-07-16T04:46:24Z</time>
      </trkpt>
      <trkpt lat="45.67094" lon="6.49434">
        <ele>2197</ele>
        <time>2022-07-16T04:46:26Z</time>
      </trkpt>
      <trkpt lat="45.67091" lon="6.49434">
        <ele>2197</ele>
        <time>2022-07-16T04:46:28Z</time>
      </trkpt>
      <trkpt lat="45.67089" lon="6.49433">
        <ele>2197</ele>
        <time>2022-07-16T04:46:30Z</time>
      </trkpt>
      <trkpt lat="45.67086" lon="6.49433">
        <ele>2198</ele>
        <time>2022-07-16T04:46:33Z</time>
      </trkpt>
      <trkpt lat="45.67083" lon="6.49433">
        <ele>2198</ele>
        <time>2022-07-16T04:46:36Z</time>
      </trkpt>
      <trkpt lat="45.67081" lon="6.49434">
        <ele>2198</ele>
        <time>2022-07-16T04:46:38Z</time>
      </trkpt>
      <trkpt lat="45.67079" lon="6.49434">
        <ele>2198</ele>
        <time>2022-07-16T04:46:40Z</time>
      </trkpt>
      <trkpt lat="45.67077" lon="6.49434">
        <ele>2199</ele>
        <time>2022-07-16T04:46:43Z</time>
      </trkpt>
      <trkpt lat="45.67075" lon="6.49436">
        <ele>2199</ele>
        <time>2022-07-16T04:46:45Z</time>
      </trkpt>
      <trkpt lat="45.67074" lon="6.49438">
        <ele>2200</ele>
        <time>2022-07-16T04:46:48Z</time>
      </trkpt>
      <trkpt lat="45.67072" lon="6.49441">
        <ele>2201</ele>
        <time>2022-07-16T04:46:53Z</time>
      </trkpt>
      <trkpt lat="45.6707" lon="6.49443">
        <ele>2201</ele>
        <time>2022-07-16T04:46:56Z</time>
      </trkpt>
      <trkpt lat="45.67068" lon="6.49443">
        <ele>2202</ele>
        <time>2022-07-16T04:47:00Z</time>
      </trkpt>
      <trkpt lat="45.67066" lon="6.49443">
        <ele>2202</ele>
        <time>2022-07-16T04:47:02Z</time>
      </trkpt>
      <trkpt lat="45.67064" lon="6.49443">
        <ele>2203</ele>
        <time>2022-07-16T04:47:05Z</time>
      </trkpt>
      <trkpt lat="45.67062" lon="6.49442">
        <ele>2205</ele>
        <time>2022-07-16T04:47:09Z</time>
      </trkpt>
      <trkpt lat="45.6706" lon="6.49441">
        <ele>2205</ele>
        <time>2022-07-16T04:47:12Z</time>
      </trkpt>
      <trkpt lat="45.67058" lon="6.49442">
        <ele>2206</ele>
        <time>2022-07-16T04:47:17Z</time>
      </trkpt>
      <trkpt lat="45.67056" lon="6.49443">
        <ele>2207</ele>
        <time>2022-07-16T04:47:22Z</time>
      </trkpt>
      <trkpt lat="45.67053" lon="6.49445">
        <ele>2208</ele>
        <time>2022-07-16T04:47:25Z</time>
      </trkpt>
      <trkpt lat="45.67051" lon="6.49446">
        <ele>2208</ele>
        <time>2022-07-16T04:47:27Z</time>
      </trkpt>
      <trkpt lat="45.67049" lon="6.49446">
        <ele>2209</ele>
        <time>2022-07-16T04:47:29Z</time>
      </trkpt>
      <trkpt lat="45.67047" lon="6.49446">
        <ele>2209</ele>
        <time>2022-07-16T04:47:31Z</time>
      </trkpt>
      <trkpt lat="45.67045" lon="6.49447">
        <ele>2209</ele>
        <time>2022-07-16T04:47:34Z</time>
      </trkpt>
      <trkpt lat="45.67043" lon="6.49447">
        <ele>2210</ele>
        <time>2022-07-16T04:47:36Z</time>
      </trkpt>
      <trkpt lat="45.67041" lon="6.49448">
        <ele>2210</ele>
        <time>2022-07-16T04:47:38Z</time>
      </trkpt>
      <trkpt lat="45.67038" lon="6.49449">
        <ele>2210</ele>
        <time>2022-07-16T04:47:40Z</time>
      </trkpt>
      <trkpt lat="45.67036" lon="6.4945">
        <ele>2211</ele>
        <time>2022-07-16T04:47:42Z</time>
      </trkpt>
      <trkpt lat="45.67034" lon="6.49451">
        <ele>2211</ele>
        <time>2022-07-16T04:47:44Z</time>
      </trkpt>
      <trkpt lat="45.67032" lon="6.49451">
        <ele>2211</ele>
        <time>2022-07-16T04:47:46Z</time>
      </trkpt>
      <trkpt lat="45.6703" lon="6.49452">
        <ele>2212</ele>
        <time>2022-07-16T04:47:48Z</time>
      </trkpt>
      <trkpt lat="45.67028" lon="6.49452">
        <ele>2212</ele>
        <time>2022-07-16T04:47:50Z</time>
      </trkpt>
      <trkpt lat="45.67025" lon="6.49453">
        <ele>2212</ele>
        <time>2022-07-16T04:47:52Z</time>
      </trkpt>
      <trkpt lat="45.67023" lon="6.49453">
        <ele>2212</ele>
        <time>2022-07-16T04:47:54Z</time>
      </trkpt>
      <trkpt lat="45.67021" lon="6.49454">
        <ele>2213</ele>
        <time>2022-07-16T04:47:56Z</time>
      </trkpt>
      <trkpt lat="45.67019" lon="6.49454">
        <ele>2214</ele>
        <time>2022-07-16T04:47:59Z</time>
      </trkpt>
      <trkpt lat="45.67017" lon="6.49455">
        <ele>2214</ele>
        <time>2022-07-16T04:48:01Z</time>
      </trkpt>
      <trkpt lat="45.67014" lon="6.49455">
        <ele>2215</ele>
        <time>2022-07-16T04:48:03Z</time>
      </trkpt>
      <trkpt lat="45.67012" lon="6.49454">
        <ele>2215</ele>
        <time>2022-07-16T04:48:05Z</time>
      </trkpt>
      <trkpt lat="45.6701" lon="6.49456">
        <ele>2215</ele>
        <time>2022-07-16T04:48:08Z</time>
      </trkpt>
      <trkpt lat="45.67008" lon="6.49457">
        <ele>2215</ele>
        <time>2022-07-16T04:48:10Z</time>
      </trkpt>
      <trkpt lat="45.67006" lon="6.49457">
        <ele>2216</ele>
        <time>2022-07-16T04:48:12Z</time>
      </trkpt>
      <trkpt lat="45.67004" lon="6.49458">
        <ele>2216</ele>
        <time>2022-07-16T04:48:14Z</time>
      </trkpt>
      <trkpt lat="45.67001" lon="6.49457">
        <ele>2217</ele>
        <time>2022-07-16T04:48:17Z</time>
      </trkpt>
      <trkpt lat="45.66999" lon="6.49457">
        <ele>2218</ele>
        <time>2022-07-16T04:48:19Z</time>
      </trkpt>
      <trkpt lat="45.66997" lon="6.49457">
        <ele>2218</ele>
        <time>2022-07-16T04:48:21Z</time>
      </trkpt>
      <trkpt lat="45.66995" lon="6.49457">
        <ele>2218</ele>
        <time>2022-07-16T04:48:23Z</time>
      </trkpt>
      <trkpt lat="45.66993" lon="6.49458">
        <ele>2219</ele>
        <time>2022-07-16T04:48:25Z</time>
      </trkpt>
      <trkpt lat="45.66991" lon="6.49458">
        <ele>2220</ele>
        <time>2022-07-16T04:48:27Z</time>
      </trkpt>
      <trkpt lat="45.66988" lon="6.49458">
        <ele>2220</ele>
        <time>2022-07-16T04:48:30Z</time>
      </trkpt>
      <trkpt lat="45.66986" lon="6.49458">
        <ele>2220</ele>
        <time>2022-07-16T04:48:32Z</time>
      </trkpt>
      <trkpt lat="45.66984" lon="6.49459">
        <ele>2220</ele>
        <time>2022-07-16T04:48:34Z</time>
      </trkpt>
      <trkpt lat="45.66982" lon="6.49459">
        <ele>2222</ele>
        <time>2022-07-16T04:48:37Z</time>
      </trkpt>
      <trkpt lat="45.6698" lon="6.49461">
        <ele>2222</ele>
        <time>2022-07-16T04:48:39Z</time>
      </trkpt>
      <trkpt lat="45.66978" lon="6.49462">
        <ele>2222</ele>
        <time>2022-07-16T04:48:41Z</time>
      </trkpt>
      <trkpt lat="45.66976" lon="6.49464">
        <ele>2222</ele>
        <time>2022-07-16T04:48:43Z</time>
      </trkpt>
      <trkpt lat="45.66974" lon="6.49465">
        <ele>2222</ele>
        <time>2022-07-16T04:48:45Z</time>
      </trkpt>
      <trkpt lat="45.66972" lon="6.49465">
        <ele>2222</ele>
        <time>2022-07-16T04:48:47Z</time>
      </trkpt>
      <trkpt lat="45.66969" lon="6.49466">
        <ele>2223</ele>
        <time>2022-07-16T04:48:50Z</time>
      </trkpt>
      <trkpt lat="45.66968" lon="6.49465">
        <ele>2224</ele>
        <time>2022-07-16T04:48:53Z</time>
      </trkpt>
      <trkpt lat="45.66966" lon="6.49465">
        <ele>2224</ele>
        <time>2022-07-16T04:48:56Z</time>
      </trkpt>
      <trkpt lat="45.66964" lon="6.49465">
        <ele>2224</ele>
        <time>2022-07-16T04:48:58Z</time>
      </trkpt>
      <trkpt lat="45.66961" lon="6.49465">
        <ele>2225</ele>
        <time>2022-07-16T04:49:00Z</time>
      </trkpt>
      <trkpt lat="45.66958" lon="6.49464">
        <ele>2225</ele>
        <time>2022-07-16T04:49:02Z</time>
      </trkpt>
      <trkpt lat="45.66957" lon="6.49463">
        <ele>2226</ele>
        <time>2022-07-16T04:49:04Z</time>
      </trkpt>
      <trkpt lat="45.66955" lon="6.49463">
        <ele>2226</ele>
        <time>2022-07-16T04:49:06Z</time>
      </trkpt>
      <trkpt lat="45.66952" lon="6.49464">
        <ele>2226</ele>
        <time>2022-07-16T04:49:08Z</time>
      </trkpt>
      <trkpt lat="45.66951" lon="6.49465">
        <ele>2226</ele>
        <time>2022-07-16T04:49:10Z</time>
      </trkpt>
      <trkpt lat="45.66949" lon="6.49466">
        <ele>2226</ele>
        <time>2022-07-16T04:49:12Z</time>
      </trkpt>
      <trkpt lat="45.66947" lon="6.49467">
        <ele>2226</ele>
        <time>2022-07-16T04:49:15Z</time>
      </trkpt>
      <trkpt lat="45.66945" lon="6.49469">
        <ele>2227</ele>
        <time>2022-07-16T04:49:17Z</time>
      </trkpt>
      <trkpt lat="45.66943" lon="6.4947">
        <ele>2228</ele>
        <time>2022-07-16T04:49:19Z</time>
      </trkpt>
      <trkpt lat="45.66941" lon="6.49472">
        <ele>2228</ele>
        <time>2022-07-16T04:49:22Z</time>
      </trkpt>
      <trkpt lat="45.66939" lon="6.49472">
        <ele>2228</ele>
        <time>2022-07-16T04:49:24Z</time>
      </trkpt>
      <trkpt lat="45.66937" lon="6.49474">
        <ele>2228</ele>
        <time>2022-07-16T04:49:27Z</time>
      </trkpt>
      <trkpt lat="45.66935" lon="6.49476">
        <ele>2230</ele>
        <time>2022-07-16T04:49:30Z</time>
      </trkpt>
      <trkpt lat="45.66933" lon="6.49478">
        <ele>2230</ele>
        <time>2022-07-16T04:49:33Z</time>
      </trkpt>
      <trkpt lat="45.66933" lon="6.49481">
        <ele>2231</ele>
        <time>2022-07-16T04:49:38Z</time>
      </trkpt>
      <trkpt lat="45.66932" lon="6.49484">
        <ele>2232</ele>
        <time>2022-07-16T04:49:42Z</time>
      </trkpt>
      <trkpt lat="45.66932" lon="6.49484">
        <ele>2233</ele>
        <time>2022-07-16T04:49:48Z</time>
      </trkpt>
      <trkpt lat="45.66931" lon="6.49486">
        <ele>2233</ele>
        <time>2022-07-16T04:49:49Z</time>
      </trkpt>
      <trkpt lat="45.6693" lon="6.49489">
        <ele>2235</ele>
        <time>2022-07-16T04:49:53Z</time>
      </trkpt>
      <trkpt lat="45.66928" lon="6.4949">
        <ele>2235</ele>
        <time>2022-07-16T04:49:55Z</time>
      </trkpt>
      <trkpt lat="45.66925" lon="6.49491">
        <ele>2235</ele>
        <time>2022-07-16T04:49:58Z</time>
      </trkpt>
      <trkpt lat="45.66923" lon="6.49491">
        <ele>2235</ele>
        <time>2022-07-16T04:50:00Z</time>
      </trkpt>
      <trkpt lat="45.66921" lon="6.49492">
        <ele>2236</ele>
        <time>2022-07-16T04:50:03Z</time>
      </trkpt>
      <trkpt lat="45.66919" lon="6.49492">
        <ele>2237</ele>
        <time>2022-07-16T04:50:05Z</time>
      </trkpt>
      <trkpt lat="45.66917" lon="6.49492">
        <ele>2238</ele>
        <time>2022-07-16T04:50:09Z</time>
      </trkpt>
      <trkpt lat="45.66914" lon="6.49492">
        <ele>2239</ele>
        <time>2022-07-16T04:50:12Z</time>
      </trkpt>
      <trkpt lat="45.66911" lon="6.49492">
        <ele>2239</ele>
        <time>2022-07-16T04:50:15Z</time>
      </trkpt>
      <trkpt lat="45.66909" lon="6.49493">
        <ele>2240</ele>
        <time>2022-07-16T04:50:19Z</time>
      </trkpt>
      <trkpt lat="45.66907" lon="6.49493">
        <ele>2240</ele>
        <time>2022-07-16T04:50:21Z</time>
      </trkpt>
      <trkpt lat="45.66905" lon="6.49493">
        <ele>2241</ele>
        <time>2022-07-16T04:50:24Z</time>
      </trkpt>
      <trkpt lat="45.66903" lon="6.49494">
        <ele>2242</ele>
        <time>2022-07-16T04:50:29Z</time>
      </trkpt>
      <trkpt lat="45.66901" lon="6.49495">
        <ele>2242</ele>
        <time>2022-07-16T04:50:32Z</time>
      </trkpt>
      <trkpt lat="45.669" lon="6.49495">
        <ele>2243</ele>
        <time>2022-07-16T04:50:36Z</time>
      </trkpt>
      <trkpt lat="45.66898" lon="6.49496">
        <ele>2243</ele>
        <time>2022-07-16T04:50:39Z</time>
      </trkpt>
      <trkpt lat="45.66896" lon="6.49496">
        <ele>2244</ele>
        <time>2022-07-16T04:50:43Z</time>
      </trkpt>
      <trkpt lat="45.66894" lon="6.49497">
        <ele>2245</ele>
        <time>2022-07-16T04:50:46Z</time>
      </trkpt>
      <trkpt lat="45.66892" lon="6.49498">
        <ele>2245</ele>
        <time>2022-07-16T04:50:49Z</time>
      </trkpt>
      <trkpt lat="45.6689" lon="6.49498">
        <ele>2246</ele>
        <time>2022-07-16T04:50:51Z</time>
      </trkpt>
      <trkpt lat="45.66888" lon="6.49496">
        <ele>2246</ele>
        <time>2022-07-16T04:50:55Z</time>
      </trkpt>
      <trkpt lat="45.66886" lon="6.49496">
        <ele>2249</ele>
        <time>2022-07-16T04:50:59Z</time>
      </trkpt>
      <trkpt lat="45.66884" lon="6.49497">
        <ele>2249</ele>
        <time>2022-07-16T04:51:02Z</time>
      </trkpt>
      <trkpt lat="45.66882" lon="6.49498">
        <ele>2249</ele>
        <time>2022-07-16T04:51:05Z</time>
      </trkpt>
      <trkpt lat="45.6688" lon="6.49496">
        <ele>2250</ele>
        <time>2022-07-16T04:51:09Z</time>
      </trkpt>
      <trkpt lat="45.66877" lon="6.49495">
        <ele>2251</ele>
        <time>2022-07-16T04:51:12Z</time>
      </trkpt>
      <trkpt lat="45.66875" lon="6.49495">
        <ele>2251</ele>
        <time>2022-07-16T04:51:14Z</time>
      </trkpt>
      <trkpt lat="45.66872" lon="6.49496">
        <ele>2252</ele>
        <time>2022-07-16T04:51:17Z</time>
      </trkpt>
      <trkpt lat="45.6687" lon="6.49497">
        <ele>2252</ele>
        <time>2022-07-16T04:51:20Z</time>
      </trkpt>
      <trkpt lat="45.66868" lon="6.49498">
        <ele>2253</ele>
        <time>2022-07-16T04:51:23Z</time>
      </trkpt>
      <trkpt lat="45.66866" lon="6.49498">
        <ele>2253</ele>
        <time>2022-07-16T04:51:26Z</time>
      </trkpt>
      <trkpt lat="45.66865" lon="6.495">
        <ele>2253</ele>
        <time>2022-07-16T04:51:28Z</time>
      </trkpt>
      <trkpt lat="45.66863" lon="6.49502">
        <ele>2253</ele>
        <time>2022-07-16T04:51:31Z</time>
      </trkpt>
      <trkpt lat="45.66862" lon="6.49505">
        <ele>2253</ele>
        <time>2022-07-16T04:51:35Z</time>
      </trkpt>
      <trkpt lat="45.66862" lon="6.49508">
        <ele>2254</ele>
        <time>2022-07-16T04:51:38Z</time>
      </trkpt>
      <trkpt lat="45.66861" lon="6.4951">
        <ele>2255</ele>
        <time>2022-07-16T04:51:41Z</time>
      </trkpt>
      <trkpt lat="45.6686" lon="6.49514">
        <ele>2255</ele>
        <time>2022-07-16T04:51:44Z</time>
      </trkpt>
      <trkpt lat="45.6686" lon="6.49517">
        <ele>2256</ele>
        <time>2022-07-16T04:51:47Z</time>
      </trkpt>
      <trkpt lat="45.66858" lon="6.49519">
        <ele>2256</ele>
        <time>2022-07-16T04:51:50Z</time>
      </trkpt>
      <trkpt lat="45.66856" lon="6.49518">
        <ele>2257</ele>
        <time>2022-07-16T04:51:52Z</time>
      </trkpt>
      <trkpt lat="45.66854" lon="6.49518">
        <ele>2258</ele>
        <time>2022-07-16T04:51:54Z</time>
      </trkpt>
      <trkpt lat="45.66852" lon="6.49519">
        <ele>2258</ele>
        <time>2022-07-16T04:51:56Z</time>
      </trkpt>
      <trkpt lat="45.6685" lon="6.49519">
        <ele>2258</ele>
        <time>2022-07-16T04:51:58Z</time>
      </trkpt>
      <trkpt lat="45.66847" lon="6.49519">
        <ele>2258</ele>
        <time>2022-07-16T04:52:00Z</time>
      </trkpt>
      <trkpt lat="45.66845" lon="6.49518">
        <ele>2259</ele>
        <time>2022-07-16T04:52:02Z</time>
      </trkpt>
      <trkpt lat="45.66842" lon="6.49518">
        <ele>2259</ele>
        <time>2022-07-16T04:52:04Z</time>
      </trkpt>
      <trkpt lat="45.66841" lon="6.49516">
        <ele>2259</ele>
        <time>2022-07-16T04:52:07Z</time>
      </trkpt>
      <trkpt lat="45.66839" lon="6.49514">
        <ele>2259</ele>
        <time>2022-07-16T04:52:11Z</time>
      </trkpt>
      <trkpt lat="45.66836" lon="6.49514">
        <ele>2261</ele>
        <time>2022-07-16T04:52:14Z</time>
      </trkpt>
      <trkpt lat="45.66834" lon="6.49513">
        <ele>2261</ele>
        <time>2022-07-16T04:52:17Z</time>
      </trkpt>
      <trkpt lat="45.66832" lon="6.49512">
        <ele>2262</ele>
        <time>2022-07-16T04:52:20Z</time>
      </trkpt>
      <trkpt lat="45.6683" lon="6.49511">
        <ele>2263</ele>
        <time>2022-07-16T04:52:23Z</time>
      </trkpt>
      <trkpt lat="45.66828" lon="6.4951">
        <ele>2263</ele>
        <time>2022-07-16T04:52:26Z</time>
      </trkpt>
      <trkpt lat="45.66826" lon="6.4951">
        <ele>2263</ele>
        <time>2022-07-16T04:52:28Z</time>
      </trkpt>
      <trkpt lat="45.66824" lon="6.49512">
        <ele>2263</ele>
        <time>2022-07-16T04:52:30Z</time>
      </trkpt>
      <trkpt lat="45.66822" lon="6.49513">
        <ele>2263</ele>
        <time>2022-07-16T04:52:32Z</time>
      </trkpt>
      <trkpt lat="45.66821" lon="6.49515">
        <ele>2263</ele>
        <time>2022-07-16T04:52:34Z</time>
      </trkpt>
      <trkpt lat="45.66819" lon="6.49517">
        <ele>2263</ele>
        <time>2022-07-16T04:52:37Z</time>
      </trkpt>
      <trkpt lat="45.66818" lon="6.4952">
        <ele>2265</ele>
        <time>2022-07-16T04:52:40Z</time>
      </trkpt>
      <trkpt lat="45.66816" lon="6.49521">
        <ele>2265</ele>
        <time>2022-07-16T04:52:42Z</time>
      </trkpt>
      <trkpt lat="45.66814" lon="6.49521">
        <ele>2266</ele>
        <time>2022-07-16T04:52:45Z</time>
      </trkpt>
      <trkpt lat="45.66812" lon="6.49521">
        <ele>2266</ele>
        <time>2022-07-16T04:52:48Z</time>
      </trkpt>
      <trkpt lat="45.66809" lon="6.49521">
        <ele>2267</ele>
        <time>2022-07-16T04:52:51Z</time>
      </trkpt>
      <trkpt lat="45.66807" lon="6.4952">
        <ele>2268</ele>
        <time>2022-07-16T04:52:54Z</time>
      </trkpt>
      <trkpt lat="45.66805" lon="6.4952">
        <ele>2268</ele>
        <time>2022-07-16T04:52:57Z</time>
      </trkpt>
      <trkpt lat="45.66803" lon="6.49519">
        <ele>2269</ele>
        <time>2022-07-16T04:53:02Z</time>
      </trkpt>
      <trkpt lat="45.66801" lon="6.4952">
        <ele>2270</ele>
        <time>2022-07-16T04:53:06Z</time>
      </trkpt>
      <trkpt lat="45.66798" lon="6.4952">
        <ele>2270</ele>
        <time>2022-07-16T04:53:08Z</time>
      </trkpt>
      <trkpt lat="45.66796" lon="6.4952">
        <ele>2271</ele>
        <time>2022-07-16T04:53:11Z</time>
      </trkpt>
      <trkpt lat="45.66794" lon="6.49523">
        <ele>2272</ele>
        <time>2022-07-16T04:53:13Z</time>
      </trkpt>
      <trkpt lat="45.66794" lon="6.49526">
        <ele>2272</ele>
        <time>2022-07-16T04:53:16Z</time>
      </trkpt>
      <trkpt lat="45.66794" lon="6.49529">
        <ele>2272</ele>
        <time>2022-07-16T04:53:19Z</time>
      </trkpt>
      <trkpt lat="45.66794" lon="6.49532">
        <ele>2274</ele>
        <time>2022-07-16T04:53:22Z</time>
      </trkpt>
      <trkpt lat="45.66795" lon="6.49535">
        <ele>2274</ele>
        <time>2022-07-16T04:53:25Z</time>
      </trkpt>
      <trkpt lat="45.66794" lon="6.49538">
        <ele>2275</ele>
        <time>2022-07-16T04:53:28Z</time>
      </trkpt>
      <trkpt lat="45.66792" lon="6.4954">
        <ele>2276</ele>
        <time>2022-07-16T04:53:32Z</time>
      </trkpt>
      <trkpt lat="45.6679" lon="6.49541">
        <ele>2277</ele>
        <time>2022-07-16T04:53:34Z</time>
      </trkpt>
      <trkpt lat="45.66788" lon="6.49543">
        <ele>2278</ele>
        <time>2022-07-16T04:53:36Z</time>
      </trkpt>
      <trkpt lat="45.66787" lon="6.49544">
        <ele>2278</ele>
        <time>2022-07-16T04:53:38Z</time>
      </trkpt>
      <trkpt lat="45.66785" lon="6.49547">
        <ele>2279</ele>
        <time>2022-07-16T04:53:41Z</time>
      </trkpt>
      <trkpt lat="45.66783" lon="6.49548">
        <ele>2279</ele>
        <time>2022-07-16T04:53:44Z</time>
      </trkpt>
      <trkpt lat="45.6678" lon="6.49548">
        <ele>2280</ele>
        <time>2022-07-16T04:53:48Z</time>
      </trkpt>
      <trkpt lat="45.66778" lon="6.49548">
        <ele>2281</ele>
        <time>2022-07-16T04:53:51Z</time>
      </trkpt>
      <trkpt lat="45.66776" lon="6.49548">
        <ele>2282</ele>
        <time>2022-07-16T04:53:55Z</time>
      </trkpt>
      <trkpt lat="45.66774" lon="6.49547">
        <ele>2283</ele>
        <time>2022-07-16T04:54:00Z</time>
      </trkpt>
      <trkpt lat="45.66772" lon="6.49546">
        <ele>2284</ele>
        <time>2022-07-16T04:54:04Z</time>
      </trkpt>
      <trkpt lat="45.6677" lon="6.49547">
        <ele>2284</ele>
        <time>2022-07-16T04:54:06Z</time>
      </trkpt>
      <trkpt lat="45.66767" lon="6.49549">
        <ele>2284</ele>
        <time>2022-07-16T04:54:08Z</time>
      </trkpt>
      <trkpt lat="45.66765" lon="6.49549">
        <ele>2284</ele>
        <time>2022-07-16T04:54:10Z</time>
      </trkpt>
      <trkpt lat="45.66762" lon="6.49549">
        <ele>2284</ele>
        <time>2022-07-16T04:54:12Z</time>
      </trkpt>
      <trkpt lat="45.6676" lon="6.49549">
        <ele>2284</ele>
        <time>2022-07-16T04:54:14Z</time>
      </trkpt>
      <trkpt lat="45.66758" lon="6.49549">
        <ele>2284</ele>
        <time>2022-07-16T04:54:16Z</time>
      </trkpt>
      <trkpt lat="45.66756" lon="6.49549">
        <ele>2285</ele>
        <time>2022-07-16T04:54:18Z</time>
      </trkpt>
      <trkpt lat="45.66754" lon="6.4955">
        <ele>2285</ele>
        <time>2022-07-16T04:54:21Z</time>
      </trkpt>
      <trkpt lat="45.66752" lon="6.49551">
        <ele>2285</ele>
        <time>2022-07-16T04:54:23Z</time>
      </trkpt>
      <trkpt lat="45.6675" lon="6.49553">
        <ele>2286</ele>
        <time>2022-07-16T04:54:26Z</time>
      </trkpt>
      <trkpt lat="45.66748" lon="6.49555">
        <ele>2286</ele>
        <time>2022-07-16T04:54:28Z</time>
      </trkpt>
      <trkpt lat="45.66746" lon="6.49556">
        <ele>2287</ele>
        <time>2022-07-16T04:54:31Z</time>
      </trkpt>
      <trkpt lat="45.66744" lon="6.49559">
        <ele>2287</ele>
        <time>2022-07-16T04:54:34Z</time>
      </trkpt>
      <trkpt lat="45.66743" lon="6.4956">
        <ele>2289</ele>
        <time>2022-07-16T04:54:36Z</time>
      </trkpt>
      <trkpt lat="45.6674" lon="6.4956">
        <ele>2289</ele>
        <time>2022-07-16T04:54:39Z</time>
      </trkpt>
      <trkpt lat="45.66738" lon="6.4956">
        <ele>2289</ele>
        <time>2022-07-16T04:54:44Z</time>
      </trkpt>
      <trkpt lat="45.66736" lon="6.4956">
        <ele>2290</ele>
        <time>2022-07-16T04:54:47Z</time>
      </trkpt>
      <trkpt lat="45.66734" lon="6.4956">
        <ele>2291</ele>
        <time>2022-07-16T04:54:50Z</time>
      </trkpt>
      <trkpt lat="45.66732" lon="6.49559">
        <ele>2291</ele>
        <time>2022-07-16T04:54:52Z</time>
      </trkpt>
      <trkpt lat="45.66729" lon="6.49558">
        <ele>2292</ele>
        <time>2022-07-16T04:54:54Z</time>
      </trkpt>
      <trkpt lat="45.66727" lon="6.49557">
        <ele>2292</ele>
        <time>2022-07-16T04:54:57Z</time>
      </trkpt>
      <trkpt lat="45.66724" lon="6.49557">
        <ele>2293</ele>
        <time>2022-07-16T04:55:00Z</time>
      </trkpt>
      <trkpt lat="45.66722" lon="6.49557">
        <ele>2293</ele>
        <time>2022-07-16T04:55:02Z</time>
      </trkpt>
      <trkpt lat="45.66719" lon="6.49558">
        <ele>2293</ele>
        <time>2022-07-16T04:55:04Z</time>
      </trkpt>
      <trkpt lat="45.66717" lon="6.49558">
        <ele>2294</ele>
        <time>2022-07-16T04:55:06Z</time>
      </trkpt>
      <trkpt lat="45.66715" lon="6.49558">
        <ele>2294</ele>
        <time>2022-07-16T04:55:08Z</time>
      </trkpt>
      <trkpt lat="45.66713" lon="6.49559">
        <ele>2294</ele>
        <time>2022-07-16T04:55:11Z</time>
      </trkpt>
      <trkpt lat="45.6671" lon="6.4956">
        <ele>2294</ele>
        <time>2022-07-16T04:55:13Z</time>
      </trkpt>
      <trkpt lat="45.66709" lon="6.49561">
        <ele>2294</ele>
        <time>2022-07-16T04:55:15Z</time>
      </trkpt>
      <trkpt lat="45.66706" lon="6.49561">
        <ele>2294</ele>
        <time>2022-07-16T04:55:18Z</time>
      </trkpt>
      <trkpt lat="45.66704" lon="6.49562">
        <ele>2293</ele>
        <time>2022-07-16T04:55:21Z</time>
      </trkpt>
      <trkpt lat="45.66701" lon="6.49562">
        <ele>2293</ele>
        <time>2022-07-16T04:55:23Z</time>
      </trkpt>
      <trkpt lat="45.66699" lon="6.4956">
        <ele>2293</ele>
        <time>2022-07-16T04:55:25Z</time>
      </trkpt>
      <trkpt lat="45.66697" lon="6.49559">
        <ele>2294</ele>
        <time>2022-07-16T04:55:27Z</time>
      </trkpt>
      <trkpt lat="45.66695" lon="6.49559">
        <ele>2294</ele>
        <time>2022-07-16T04:55:29Z</time>
      </trkpt>
      <trkpt lat="45.66693" lon="6.49559">
        <ele>2294</ele>
        <time>2022-07-16T04:55:31Z</time>
      </trkpt>
      <trkpt lat="45.66691" lon="6.49559">
        <ele>2294</ele>
        <time>2022-07-16T04:55:34Z</time>
      </trkpt>
      <trkpt lat="45.6669" lon="6.49561">
        <ele>2294</ele>
        <time>2022-07-16T04:55:37Z</time>
      </trkpt>
      <trkpt lat="45.66688" lon="6.49563">
        <ele>2294</ele>
        <time>2022-07-16T04:55:39Z</time>
      </trkpt>
      <trkpt lat="45.66685" lon="6.49564">
        <ele>2294</ele>
        <time>2022-07-16T04:55:41Z</time>
      </trkpt>
      <trkpt lat="45.66683" lon="6.49564">
        <ele>2294</ele>
        <time>2022-07-16T04:55:44Z</time>
      </trkpt>
      <trkpt lat="45.66681" lon="6.49565">
        <ele>2294</ele>
        <time>2022-07-16T04:55:46Z</time>
      </trkpt>
      <trkpt lat="45.66679" lon="6.49566">
        <ele>2294</ele>
        <time>2022-07-16T04:55:49Z</time>
      </trkpt>
      <trkpt lat="45.66677" lon="6.49566">
        <ele>2295</ele>
        <time>2022-07-16T04:55:52Z</time>
      </trkpt>
      <trkpt lat="45.66675" lon="6.49567">
        <ele>2296</ele>
        <time>2022-07-16T04:55:56Z</time>
      </trkpt>
      <trkpt lat="45.66673" lon="6.49568">
        <ele>2297</ele>
        <time>2022-07-16T04:56:02Z</time>
      </trkpt>
      <trkpt lat="45.66672" lon="6.49569">
        <ele>2300</ele>
        <time>2022-07-16T04:56:06Z</time>
      </trkpt>
      <trkpt lat="45.6667" lon="6.4957">
        <ele>2300</ele>
        <time>2022-07-16T04:56:09Z</time>
      </trkpt>
      <trkpt lat="45.66668" lon="6.49571">
        <ele>2301</ele>
        <time>2022-07-16T04:56:12Z</time>
      </trkpt>
      <trkpt lat="45.66666" lon="6.49573">
        <ele>2302</ele>
        <time>2022-07-16T04:56:14Z</time>
      </trkpt>
      <trkpt lat="45.66664" lon="6.49573">
        <ele>2302</ele>
        <time>2022-07-16T04:56:17Z</time>
      </trkpt>
      <trkpt lat="45.66662" lon="6.49573">
        <ele>2303</ele>
        <time>2022-07-16T04:56:20Z</time>
      </trkpt>
      <trkpt lat="45.6666" lon="6.49573">
        <ele>2304</ele>
        <time>2022-07-16T04:56:23Z</time>
      </trkpt>
      <trkpt lat="45.66657" lon="6.49572">
        <ele>2304</ele>
        <time>2022-07-16T04:56:26Z</time>
      </trkpt>
      <trkpt lat="45.66655" lon="6.49572">
        <ele>2305</ele>
        <time>2022-07-16T04:56:29Z</time>
      </trkpt>
      <trkpt lat="45.66653" lon="6.49572">
        <ele>2305</ele>
        <time>2022-07-16T04:56:32Z</time>
      </trkpt>
      <trkpt lat="45.66651" lon="6.49572">
        <ele>2305</ele>
        <time>2022-07-16T04:56:34Z</time>
      </trkpt>
      <trkpt lat="45.66648" lon="6.49571">
        <ele>2306</ele>
        <time>2022-07-16T04:56:37Z</time>
      </trkpt>
      <trkpt lat="45.66646" lon="6.49571">
        <ele>2307</ele>
        <time>2022-07-16T04:56:39Z</time>
      </trkpt>
      <trkpt lat="45.66644" lon="6.49571">
        <ele>2308</ele>
        <time>2022-07-16T04:56:42Z</time>
      </trkpt>
      <trkpt lat="45.66642" lon="6.4957">
        <ele>2309</ele>
        <time>2022-07-16T04:56:45Z</time>
      </trkpt>
      <trkpt lat="45.6664" lon="6.49569">
        <ele>2309</ele>
        <time>2022-07-16T04:56:48Z</time>
      </trkpt>
      <trkpt lat="45.66638" lon="6.49567">
        <ele>2310</ele>
        <time>2022-07-16T04:56:51Z</time>
      </trkpt>
      <trkpt lat="45.66635" lon="6.49567">
        <ele>2310</ele>
        <time>2022-07-16T04:56:54Z</time>
      </trkpt>
      <trkpt lat="45.66633" lon="6.49568">
        <ele>2310</ele>
        <time>2022-07-16T04:56:57Z</time>
      </trkpt>
      <trkpt lat="45.66631" lon="6.49569">
        <ele>2310</ele>
        <time>2022-07-16T04:56:59Z</time>
      </trkpt>
      <trkpt lat="45.66628" lon="6.49569">
        <ele>2311</ele>
        <time>2022-07-16T04:57:02Z</time>
      </trkpt>
      <trkpt lat="45.66626" lon="6.49569">
        <ele>2312</ele>
        <time>2022-07-16T04:57:06Z</time>
      </trkpt>
      <trkpt lat="45.66624" lon="6.49568">
        <ele>2313</ele>
        <time>2022-07-16T04:57:09Z</time>
      </trkpt>
      <trkpt lat="45.66621" lon="6.49568">
        <ele>2314</ele>
        <time>2022-07-16T04:57:12Z</time>
      </trkpt>
      <trkpt lat="45.66619" lon="6.49567">
        <ele>2314</ele>
        <time>2022-07-16T04:57:15Z</time>
      </trkpt>
      <trkpt lat="45.66617" lon="6.49567">
        <ele>2315</ele>
        <time>2022-07-16T04:57:19Z</time>
      </trkpt>
      <trkpt lat="45.66615" lon="6.49567">
        <ele>2315</ele>
        <time>2022-07-16T04:57:22Z</time>
      </trkpt>
      <trkpt lat="45.66612" lon="6.49566">
        <ele>2315</ele>
        <time>2022-07-16T04:57:25Z</time>
      </trkpt>
      <trkpt lat="45.6661" lon="6.49565">
        <ele>2316</ele>
        <time>2022-07-16T04:57:28Z</time>
      </trkpt>
      <trkpt lat="45.66608" lon="6.49564">
        <ele>2317</ele>
        <time>2022-07-16T04:57:31Z</time>
      </trkpt>
      <trkpt lat="45.66605" lon="6.49562">
        <ele>2317</ele>
        <time>2022-07-16T04:57:34Z</time>
      </trkpt>
      <trkpt lat="45.66604" lon="6.49561">
        <ele>2317</ele>
        <time>2022-07-16T04:57:36Z</time>
      </trkpt>
      <trkpt lat="45.66602" lon="6.4956">
        <ele>2317</ele>
        <time>2022-07-16T04:57:38Z</time>
      </trkpt>
      <trkpt lat="45.66599" lon="6.49559">
        <ele>2318</ele>
        <time>2022-07-16T04:57:40Z</time>
      </trkpt>
      <trkpt lat="45.66597" lon="6.49558">
        <ele>2318</ele>
        <time>2022-07-16T04:57:42Z</time>
      </trkpt>
      <trkpt lat="45.66595" lon="6.49557">
        <ele>2318</ele>
        <time>2022-07-16T04:57:44Z</time>
      </trkpt>
      <trkpt lat="45.66593" lon="6.49556">
        <ele>2319</ele>
        <time>2022-07-16T04:57:46Z</time>
      </trkpt>
      <trkpt lat="45.66592" lon="6.49554">
        <ele>2319</ele>
        <time>2022-07-16T04:57:48Z</time>
      </trkpt>
      <trkpt lat="45.6659" lon="6.49553">
        <ele>2320</ele>
        <time>2022-07-16T04:57:50Z</time>
      </trkpt>
      <trkpt lat="45.66588" lon="6.49551">
        <ele>2320</ele>
        <time>2022-07-16T04:57:53Z</time>
      </trkpt>
      <trkpt lat="45.66586" lon="6.49549">
        <ele>2320</ele>
        <time>2022-07-16T04:57:56Z</time>
      </trkpt>
      <trkpt lat="45.66583" lon="6.49548">
        <ele>2320</ele>
        <time>2022-07-16T04:57:59Z</time>
      </trkpt>
      <trkpt lat="45.66581" lon="6.49547">
        <ele>2321</ele>
        <time>2022-07-16T04:58:02Z</time>
      </trkpt>
      <trkpt lat="45.66578" lon="6.49548">
        <ele>2323</ele>
        <time>2022-07-16T04:58:05Z</time>
      </trkpt>
      <trkpt lat="45.66576" lon="6.49548">
        <ele>2323</ele>
        <time>2022-07-16T04:58:07Z</time>
      </trkpt>
      <trkpt lat="45.66573" lon="6.49547">
        <ele>2324</ele>
        <time>2022-07-16T04:58:10Z</time>
      </trkpt>
      <trkpt lat="45.66571" lon="6.49546">
        <ele>2324</ele>
        <time>2022-07-16T04:58:12Z</time>
      </trkpt>
      <trkpt lat="45.6657" lon="6.49545">
        <ele>2324</ele>
        <time>2022-07-16T04:58:14Z</time>
      </trkpt>
      <trkpt lat="45.66567" lon="6.49544">
        <ele>2323</ele>
        <time>2022-07-16T04:58:16Z</time>
      </trkpt>
      <trkpt lat="45.66565" lon="6.49543">
        <ele>2323</ele>
        <time>2022-07-16T04:58:18Z</time>
      </trkpt>
      <trkpt lat="45.66563" lon="6.49542">
        <ele>2324</ele>
        <time>2022-07-16T04:58:20Z</time>
      </trkpt>
      <trkpt lat="45.66561" lon="6.49541">
        <ele>2324</ele>
        <time>2022-07-16T04:58:22Z</time>
      </trkpt>
      <trkpt lat="45.66559" lon="6.49541">
        <ele>2326</ele>
        <time>2022-07-16T04:58:24Z</time>
      </trkpt>
      <trkpt lat="45.66557" lon="6.4954">
        <ele>2326</ele>
        <time>2022-07-16T04:58:26Z</time>
      </trkpt>
      <trkpt lat="45.66555" lon="6.4954">
        <ele>2326</ele>
        <time>2022-07-16T04:58:28Z</time>
      </trkpt>
      <trkpt lat="45.66552" lon="6.4954">
        <ele>2326</ele>
        <time>2022-07-16T04:58:31Z</time>
      </trkpt>
      <trkpt lat="45.6655" lon="6.4954">
        <ele>2327</ele>
        <time>2022-07-16T04:58:33Z</time>
      </trkpt>
      <trkpt lat="45.66547" lon="6.49539">
        <ele>2328</ele>
        <time>2022-07-16T04:58:36Z</time>
      </trkpt>
      <trkpt lat="45.66545" lon="6.49539">
        <ele>2328</ele>
        <time>2022-07-16T04:58:38Z</time>
      </trkpt>
      <trkpt lat="45.66544" lon="6.49539">
        <ele>2328</ele>
        <time>2022-07-16T04:58:40Z</time>
      </trkpt>
      <trkpt lat="45.66542" lon="6.49538">
        <ele>2328</ele>
        <time>2022-07-16T04:58:42Z</time>
      </trkpt>
      <trkpt lat="45.66539" lon="6.49538">
        <ele>2329</ele>
        <time>2022-07-16T04:58:45Z</time>
      </trkpt>
      <trkpt lat="45.66537" lon="6.49537">
        <ele>2330</ele>
        <time>2022-07-16T04:58:47Z</time>
      </trkpt>
      <trkpt lat="45.66535" lon="6.49536">
        <ele>2330</ele>
        <time>2022-07-16T04:58:50Z</time>
      </trkpt>
      <trkpt lat="45.66534" lon="6.49535">
        <ele>2330</ele>
        <time>2022-07-16T04:58:52Z</time>
      </trkpt>
      <trkpt lat="45.66531" lon="6.49534">
        <ele>2331</ele>
        <time>2022-07-16T04:58:55Z</time>
      </trkpt>
      <trkpt lat="45.66529" lon="6.49532">
        <ele>2332</ele>
        <time>2022-07-16T04:58:58Z</time>
      </trkpt>
      <trkpt lat="45.66527" lon="6.49531">
        <ele>2332</ele>
        <time>2022-07-16T04:59:00Z</time>
      </trkpt>
      <trkpt lat="45.66525" lon="6.4953">
        <ele>2332</ele>
        <time>2022-07-16T04:59:02Z</time>
      </trkpt>
      <trkpt lat="45.66523" lon="6.49529">
        <ele>2332</ele>
        <time>2022-07-16T04:59:04Z</time>
      </trkpt>
      <trkpt lat="45.66521" lon="6.49528">
        <ele>2332</ele>
        <time>2022-07-16T04:59:06Z</time>
      </trkpt>
      <trkpt lat="45.66519" lon="6.49526">
        <ele>2332</ele>
        <time>2022-07-16T04:59:08Z</time>
      </trkpt>
      <trkpt lat="45.66517" lon="6.49525">
        <ele>2333</ele>
        <time>2022-07-16T04:59:10Z</time>
      </trkpt>
      <trkpt lat="45.66515" lon="6.49523">
        <ele>2333</ele>
        <time>2022-07-16T04:59:12Z</time>
      </trkpt>
      <trkpt lat="45.66514" lon="6.49522">
        <ele>2334</ele>
        <time>2022-07-16T04:59:14Z</time>
      </trkpt>
      <trkpt lat="45.66512" lon="6.49522">
        <ele>2335</ele>
        <time>2022-07-16T04:59:16Z</time>
      </trkpt>
      <trkpt lat="45.66509" lon="6.49521">
        <ele>2335</ele>
        <time>2022-07-16T04:59:19Z</time>
      </trkpt>
      <trkpt lat="45.66507" lon="6.49519">
        <ele>2335</ele>
        <time>2022-07-16T04:59:22Z</time>
      </trkpt>
      <trkpt lat="45.66505" lon="6.49518">
        <ele>2336</ele>
        <time>2022-07-16T04:59:25Z</time>
      </trkpt>
      <trkpt lat="45.66503" lon="6.49518">
        <ele>2337</ele>
        <time>2022-07-16T04:59:28Z</time>
      </trkpt>
      <trkpt lat="45.66501" lon="6.49517">
        <ele>2338</ele>
        <time>2022-07-16T04:59:31Z</time>
      </trkpt>
      <trkpt lat="45.66498" lon="6.49516">
        <ele>2338</ele>
        <time>2022-07-16T04:59:34Z</time>
      </trkpt>
      <trkpt lat="45.66496" lon="6.49516">
        <ele>2339</ele>
        <time>2022-07-16T04:59:37Z</time>
      </trkpt>
      <trkpt lat="45.66494" lon="6.49515">
        <ele>2340</ele>
        <time>2022-07-16T04:59:40Z</time>
      </trkpt>
      <trkpt lat="45.66491" lon="6.49513">
        <ele>2340</ele>
        <time>2022-07-16T04:59:43Z</time>
      </trkpt>
      <trkpt lat="45.66489" lon="6.49512">
        <ele>2340</ele>
        <time>2022-07-16T04:59:45Z</time>
      </trkpt>
      <trkpt lat="45.66488" lon="6.4951">
        <ele>2340</ele>
        <time>2022-07-16T04:59:47Z</time>
      </trkpt>
      <trkpt lat="45.66486" lon="6.49509">
        <ele>2341</ele>
        <time>2022-07-16T04:59:49Z</time>
      </trkpt>
      <trkpt lat="45.66484" lon="6.49507">
        <ele>2341</ele>
        <time>2022-07-16T04:59:51Z</time>
      </trkpt>
      <trkpt lat="45.66481" lon="6.49506">
        <ele>2341</ele>
        <time>2022-07-16T04:59:53Z</time>
      </trkpt>
      <trkpt lat="45.66479" lon="6.49504">
        <ele>2341</ele>
        <time>2022-07-16T04:59:55Z</time>
      </trkpt>
      <trkpt lat="45.66477" lon="6.49503">
        <ele>2341</ele>
        <time>2022-07-16T04:59:57Z</time>
      </trkpt>
      <trkpt lat="45.66475" lon="6.49502">
        <ele>2341</ele>
        <time>2022-07-16T04:59:59Z</time>
      </trkpt>
      <trkpt lat="45.66472" lon="6.49501">
        <ele>2341</ele>
        <time>2022-07-16T05:00:01Z</time>
      </trkpt>
      <trkpt lat="45.6647" lon="6.495">
        <ele>2341</ele>
        <time>2022-07-16T05:00:03Z</time>
      </trkpt>
      <trkpt lat="45.66468" lon="6.495">
        <ele>2342</ele>
        <time>2022-07-16T05:00:05Z</time>
      </trkpt>
      <trkpt lat="45.66465" lon="6.49499">
        <ele>2343</ele>
        <time>2022-07-16T05:00:07Z</time>
      </trkpt>
      <trkpt lat="45.66463" lon="6.49497">
        <ele>2343</ele>
        <time>2022-07-16T05:00:09Z</time>
      </trkpt>
      <trkpt lat="45.66461" lon="6.49495">
        <ele>2342</ele>
        <time>2022-07-16T05:00:11Z</time>
      </trkpt>
      <trkpt lat="45.6646" lon="6.49493">
        <ele>2342</ele>
        <time>2022-07-16T05:00:13Z</time>
      </trkpt>
      <trkpt lat="45.66458" lon="6.49492">
        <ele>2342</ele>
        <time>2022-07-16T05:00:15Z</time>
      </trkpt>
      <trkpt lat="45.66456" lon="6.49491">
        <ele>2342</ele>
        <time>2022-07-16T05:00:17Z</time>
      </trkpt>
      <trkpt lat="45.66454" lon="6.49489">
        <ele>2342</ele>
        <time>2022-07-16T05:00:19Z</time>
      </trkpt>
      <trkpt lat="45.66451" lon="6.49488">
        <ele>2343</ele>
        <time>2022-07-16T05:00:21Z</time>
      </trkpt>
      <trkpt lat="45.66449" lon="6.49487">
        <ele>2344</ele>
        <time>2022-07-16T05:00:24Z</time>
      </trkpt>
      <trkpt lat="45.66447" lon="6.49485">
        <ele>2344</ele>
        <time>2022-07-16T05:00:26Z</time>
      </trkpt>
      <trkpt lat="45.66446" lon="6.49483">
        <ele>2344</ele>
        <time>2022-07-16T05:00:28Z</time>
      </trkpt>
      <trkpt lat="45.66444" lon="6.49482">
        <ele>2345</ele>
        <time>2022-07-16T05:00:30Z</time>
      </trkpt>
      <trkpt lat="45.66442" lon="6.49481">
        <ele>2346</ele>
        <time>2022-07-16T05:00:33Z</time>
      </trkpt>
      <trkpt lat="45.6644" lon="6.4948">
        <ele>2346</ele>
        <time>2022-07-16T05:00:35Z</time>
      </trkpt>
      <trkpt lat="45.66438" lon="6.49478">
        <ele>2346</ele>
        <time>2022-07-16T05:00:38Z</time>
      </trkpt>
      <trkpt lat="45.66436" lon="6.49477">
        <ele>2347</ele>
        <time>2022-07-16T05:00:41Z</time>
      </trkpt>
      <trkpt lat="45.66434" lon="6.49475">
        <ele>2348</ele>
        <time>2022-07-16T05:00:45Z</time>
      </trkpt>
      <trkpt lat="45.66432" lon="6.49476">
        <ele>2348</ele>
        <time>2022-07-16T05:00:49Z</time>
      </trkpt>
      <trkpt lat="45.66429" lon="6.49475">
        <ele>2349</ele>
        <time>2022-07-16T05:00:52Z</time>
      </trkpt>
      <trkpt lat="45.66427" lon="6.49475">
        <ele>2352</ele>
        <time>2022-07-16T05:00:57Z</time>
      </trkpt>
      <trkpt lat="45.66425" lon="6.49476">
        <ele>2352</ele>
        <time>2022-07-16T05:01:03Z</time>
      </trkpt>
      <trkpt lat="45.66425" lon="6.49476">
        <ele>2353</ele>
        <time>2022-07-16T05:01:10Z</time>
      </trkpt>
      <trkpt lat="45.66424" lon="6.49477">
        <ele>2354</ele>
        <time>2022-07-16T05:01:12Z</time>
      </trkpt>
      <trkpt lat="45.66421" lon="6.49478">
        <ele>2355</ele>
        <time>2022-07-16T05:01:15Z</time>
      </trkpt>
      <trkpt lat="45.66419" lon="6.49477">
        <ele>2355</ele>
        <time>2022-07-16T05:01:18Z</time>
      </trkpt>
      <trkpt lat="45.66417" lon="6.49476">
        <ele>2357</ele>
        <time>2022-07-16T05:01:23Z</time>
      </trkpt>
      <trkpt lat="45.66416" lon="6.49474">
        <ele>2358</ele>
        <time>2022-07-16T05:01:26Z</time>
      </trkpt>
      <trkpt lat="45.66414" lon="6.49472">
        <ele>2358</ele>
        <time>2022-07-16T05:01:29Z</time>
      </trkpt>
      <trkpt lat="45.66413" lon="6.4947">
        <ele>2359</ele>
        <time>2022-07-16T05:01:32Z</time>
      </trkpt>
      <trkpt lat="45.66411" lon="6.49469">
        <ele>2360</ele>
        <time>2022-07-16T05:01:36Z</time>
      </trkpt>
      <trkpt lat="45.6641" lon="6.49466">
        <ele>2360</ele>
        <time>2022-07-16T05:01:42Z</time>
      </trkpt>
      <trkpt lat="45.66408" lon="6.49464">
        <ele>2361</ele>
        <time>2022-07-16T05:01:46Z</time>
      </trkpt>
      <trkpt lat="45.66406" lon="6.49462">
        <ele>2362</ele>
        <time>2022-07-16T05:01:49Z</time>
      </trkpt>
      <trkpt lat="45.66404" lon="6.49461">
        <ele>2363</ele>
        <time>2022-07-16T05:01:54Z</time>
      </trkpt>
      <trkpt lat="45.66403" lon="6.4946">
        <ele>2364</ele>
        <time>2022-07-16T05:01:57Z</time>
      </trkpt>
      <trkpt lat="45.66401" lon="6.49459">
        <ele>2364</ele>
        <time>2022-07-16T05:01:59Z</time>
      </trkpt>
      <trkpt lat="45.66399" lon="6.49458">
        <ele>2365</ele>
        <time>2022-07-16T05:02:04Z</time>
      </trkpt>
      <trkpt lat="45.66397" lon="6.49456">
        <ele>2365</ele>
        <time>2022-07-16T05:02:07Z</time>
      </trkpt>
      <trkpt lat="45.66395" lon="6.49455">
        <ele>2365</ele>
        <time>2022-07-16T05:02:09Z</time>
      </trkpt>
      <trkpt lat="45.66393" lon="6.49455">
        <ele>2365</ele>
        <time>2022-07-16T05:02:11Z</time>
      </trkpt>
      <trkpt lat="45.66391" lon="6.49454">
        <ele>2366</ele>
        <time>2022-07-16T05:02:13Z</time>
      </trkpt>
      <trkpt lat="45.66388" lon="6.49453">
        <ele>2366</ele>
        <time>2022-07-16T05:02:16Z</time>
      </trkpt>
      <trkpt lat="45.66386" lon="6.49453">
        <ele>2366</ele>
        <time>2022-07-16T05:02:18Z</time>
      </trkpt>
      <trkpt lat="45.66384" lon="6.49452">
        <ele>2367</ele>
        <time>2022-07-16T05:02:21Z</time>
      </trkpt>
      <trkpt lat="45.66382" lon="6.49451">
        <ele>2368</ele>
        <time>2022-07-16T05:02:24Z</time>
      </trkpt>
      <trkpt lat="45.66379" lon="6.4945">
        <ele>2368</ele>
        <time>2022-07-16T05:02:27Z</time>
      </trkpt>
      <trkpt lat="45.66378" lon="6.49448">
        <ele>2369</ele>
        <time>2022-07-16T05:02:29Z</time>
      </trkpt>
      <trkpt lat="45.66377" lon="6.49446">
        <ele>2369</ele>
        <time>2022-07-16T05:02:31Z</time>
      </trkpt>
      <trkpt lat="45.66375" lon="6.49445">
        <ele>2369</ele>
        <time>2022-07-16T05:02:34Z</time>
      </trkpt>
      <trkpt lat="45.66373" lon="6.49444">
        <ele>2370</ele>
        <time>2022-07-16T05:02:38Z</time>
      </trkpt>
      <trkpt lat="45.66371" lon="6.49442">
        <ele>2370</ele>
        <time>2022-07-16T05:02:41Z</time>
      </trkpt>
      <trkpt lat="45.66369" lon="6.4944">
        <ele>2370</ele>
        <time>2022-07-16T05:02:44Z</time>
      </trkpt>
      <trkpt lat="45.66367" lon="6.49437">
        <ele>2370</ele>
        <time>2022-07-16T05:02:47Z</time>
      </trkpt>
      <trkpt lat="45.66365" lon="6.49435">
        <ele>2370</ele>
        <time>2022-07-16T05:02:50Z</time>
      </trkpt>
      <trkpt lat="45.66364" lon="6.49433">
        <ele>2370</ele>
        <time>2022-07-16T05:02:53Z</time>
      </trkpt>
      <trkpt lat="45.66363" lon="6.49429">
        <ele>2368</ele>
        <time>2022-07-16T05:02:57Z</time>
      </trkpt>
      <trkpt lat="45.66362" lon="6.49426">
        <ele>2367</ele>
        <time>2022-07-16T05:03:00Z</time>
      </trkpt>
      <trkpt lat="45.66362" lon="6.49423">
        <ele>2368</ele>
        <time>2022-07-16T05:03:05Z</time>
      </trkpt>
      <trkpt lat="45.66361" lon="6.49421">
        <ele>2367</ele>
        <time>2022-07-16T05:03:08Z</time>
      </trkpt>
      <trkpt lat="45.66359" lon="6.49421">
        <ele>2366</ele>
        <time>2022-07-16T05:03:10Z</time>
      </trkpt>
      <trkpt lat="45.66356" lon="6.4942">
        <ele>2366</ele>
        <time>2022-07-16T05:03:12Z</time>
      </trkpt>
      <trkpt lat="45.66354" lon="6.49418">
        <ele>2365</ele>
        <time>2022-07-16T05:03:14Z</time>
      </trkpt>
      <trkpt lat="45.66351" lon="6.49415">
        <ele>2365</ele>
        <time>2022-07-16T05:03:16Z</time>
      </trkpt>
      <trkpt lat="45.66348" lon="6.49415">
        <ele>2363</ele>
        <time>2022-07-16T05:03:18Z</time>
      </trkpt>
      <trkpt lat="45.66346" lon="6.49413">
        <ele>2363</ele>
        <time>2022-07-16T05:03:20Z</time>
      </trkpt>
      <trkpt lat="45.66343" lon="6.49413">
        <ele>2363</ele>
        <time>2022-07-16T05:03:22Z</time>
      </trkpt>
      <trkpt lat="45.66341" lon="6.49413">
        <ele>2363</ele>
        <time>2022-07-16T05:03:24Z</time>
      </trkpt>
      <trkpt lat="45.66339" lon="6.4941">
        <ele>2362</ele>
        <time>2022-07-16T05:03:26Z</time>
      </trkpt>
      <trkpt lat="45.66337" lon="6.49407">
        <ele>2360</ele>
        <time>2022-07-16T05:03:28Z</time>
      </trkpt>
      <trkpt lat="45.66334" lon="6.49405">
        <ele>2360</ele>
        <time>2022-07-16T05:03:30Z</time>
      </trkpt>
      <trkpt lat="45.66333" lon="6.49403">
        <ele>2359</ele>
        <time>2022-07-16T05:03:31Z</time>
      </trkpt>
      <trkpt lat="45.66331" lon="6.49399">
        <ele>2359</ele>
        <time>2022-07-16T05:03:33Z</time>
      </trkpt>
      <trkpt lat="45.66328" lon="6.49395">
        <ele>2358</ele>
        <time>2022-07-16T05:03:35Z</time>
      </trkpt>
      <trkpt lat="45.66326" lon="6.49392">
        <ele>2358</ele>
        <time>2022-07-16T05:03:37Z</time>
      </trkpt>
      <trkpt lat="45.66324" lon="6.49389">
        <ele>2357</ele>
        <time>2022-07-16T05:03:39Z</time>
      </trkpt>
      <trkpt lat="45.66321" lon="6.49385">
        <ele>2356</ele>
        <time>2022-07-16T05:03:41Z</time>
      </trkpt>
      <trkpt lat="45.66319" lon="6.49383">
        <ele>2355</ele>
        <time>2022-07-16T05:03:43Z</time>
      </trkpt>
      <trkpt lat="45.66318" lon="6.49381">
        <ele>2354</ele>
        <time>2022-07-16T05:03:45Z</time>
      </trkpt>
      <trkpt lat="45.66316" lon="6.49378">
        <ele>2354</ele>
        <time>2022-07-16T05:03:47Z</time>
      </trkpt>
      <trkpt lat="45.66314" lon="6.49375">
        <ele>2353</ele>
        <time>2022-07-16T05:03:49Z</time>
      </trkpt>
      <trkpt lat="45.66312" lon="6.49371">
        <ele>2352</ele>
        <time>2022-07-16T05:03:51Z</time>
      </trkpt>
      <trkpt lat="45.6631" lon="6.49369">
        <ele>2350</ele>
        <time>2022-07-16T05:03:52Z</time>
      </trkpt>
      <trkpt lat="45.66309" lon="6.49367">
        <ele>2350</ele>
        <time>2022-07-16T05:03:53Z</time>
      </trkpt>
      <trkpt lat="45.66308" lon="6.49365">
        <ele>2350</ele>
        <time>2022-07-16T05:03:54Z</time>
      </trkpt>
      <trkpt lat="45.66307" lon="6.49363">
        <ele>2350</ele>
        <time>2022-07-16T05:03:55Z</time>
      </trkpt>
      <trkpt lat="45.66305" lon="6.49361">
        <ele>2349</ele>
        <time>2022-07-16T05:03:56Z</time>
      </trkpt>
      <trkpt lat="45.66303" lon="6.49357">
        <ele>2347</ele>
        <time>2022-07-16T05:03:58Z</time>
      </trkpt>
      <trkpt lat="45.66302" lon="6.49354">
        <ele>2347</ele>
        <time>2022-07-16T05:03:59Z</time>
      </trkpt>
      <trkpt lat="45.66301" lon="6.49352">
        <ele>2346</ele>
        <time>2022-07-16T05:04:00Z</time>
      </trkpt>
      <trkpt lat="45.663" lon="6.4935">
        <ele>2346</ele>
        <time>2022-07-16T05:04:01Z</time>
      </trkpt>
      <trkpt lat="45.66298" lon="6.49348">
        <ele>2346</ele>
        <time>2022-07-16T05:04:02Z</time>
      </trkpt>
      <trkpt lat="45.66296" lon="6.49346">
        <ele>2345</ele>
        <time>2022-07-16T05:04:04Z</time>
      </trkpt>
      <trkpt lat="45.66293" lon="6.49349">
        <ele>2345</ele>
        <time>2022-07-16T05:04:06Z</time>
      </trkpt>
      <trkpt lat="45.6629" lon="6.49352">
        <ele>2344</ele>
        <time>2022-07-16T05:04:08Z</time>
      </trkpt>
      <trkpt lat="45.66289" lon="6.49354">
        <ele>2344</ele>
        <time>2022-07-16T05:04:09Z</time>
      </trkpt>
      <trkpt lat="45.66287" lon="6.49356">
        <ele>2343</ele>
        <time>2022-07-16T05:04:10Z</time>
      </trkpt>
      <trkpt lat="45.66285" lon="6.49358">
        <ele>2343</ele>
        <time>2022-07-16T05:04:11Z</time>
      </trkpt>
      <trkpt lat="45.66283" lon="6.49362">
        <ele>2342</ele>
        <time>2022-07-16T05:04:13Z</time>
      </trkpt>
      <trkpt lat="45.66281" lon="6.49364">
        <ele>2341</ele>
        <time>2022-07-16T05:04:15Z</time>
      </trkpt>
      <trkpt lat="45.6628" lon="6.49367">
        <ele>2340</ele>
        <time>2022-07-16T05:04:17Z</time>
      </trkpt>
      <trkpt lat="45.66278" lon="6.49372">
        <ele>2340</ele>
        <time>2022-07-16T05:04:19Z</time>
      </trkpt>
      <trkpt lat="45.66277" lon="6.49374">
        <ele>2339</ele>
        <time>2022-07-16T05:04:20Z</time>
      </trkpt>
      <trkpt lat="45.66275" lon="6.49378">
        <ele>2338</ele>
        <time>2022-07-16T05:04:22Z</time>
      </trkpt>
      <trkpt lat="45.66273" lon="6.4938">
        <ele>2338</ele>
        <time>2022-07-16T05:04:23Z</time>
      </trkpt>
      <trkpt lat="45.66272" lon="6.49382">
        <ele>2337</ele>
        <time>2022-07-16T05:04:24Z</time>
      </trkpt>
      <trkpt lat="45.6627" lon="6.49386">
        <ele>2336</ele>
        <time>2022-07-16T05:04:26Z</time>
      </trkpt>
      <trkpt lat="45.6627" lon="6.49391">
        <ele>2336</ele>
        <time>2022-07-16T05:04:28Z</time>
      </trkpt>
      <trkpt lat="45.66269" lon="6.49395">
        <ele>2335</ele>
        <time>2022-07-16T05:04:30Z</time>
      </trkpt>
      <trkpt lat="45.66268" lon="6.494">
        <ele>2334</ele>
        <time>2022-07-16T05:04:32Z</time>
      </trkpt>
      <trkpt lat="45.66266" lon="6.49404">
        <ele>2333</ele>
        <time>2022-07-16T05:04:34Z</time>
      </trkpt>
      <trkpt lat="45.66265" lon="6.49406">
        <ele>2332</ele>
        <time>2022-07-16T05:04:35Z</time>
      </trkpt>
      <trkpt lat="45.66264" lon="6.49408">
        <ele>2332</ele>
        <time>2022-07-16T05:04:36Z</time>
      </trkpt>
      <trkpt lat="45.66263" lon="6.4941">
        <ele>2332</ele>
        <time>2022-07-16T05:04:37Z</time>
      </trkpt>
      <trkpt lat="45.6626" lon="6.49414">
        <ele>2331</ele>
        <time>2022-07-16T05:04:39Z</time>
      </trkpt>
      <trkpt lat="45.66259" lon="6.49416">
        <ele>2330</ele>
        <time>2022-07-16T05:04:40Z</time>
      </trkpt>
      <trkpt lat="45.66258" lon="6.49418">
        <ele>2330</ele>
        <time>2022-07-16T05:04:41Z</time>
      </trkpt>
      <trkpt lat="45.66257" lon="6.4942">
        <ele>2330</ele>
        <time>2022-07-16T05:04:42Z</time>
      </trkpt>
      <trkpt lat="45.66256" lon="6.49422">
        <ele>2329</ele>
        <time>2022-07-16T05:04:43Z</time>
      </trkpt>
      <trkpt lat="45.66253" lon="6.49425">
        <ele>2328</ele>
        <time>2022-07-16T05:04:45Z</time>
      </trkpt>
      <trkpt lat="45.66251" lon="6.49429">
        <ele>2327</ele>
        <time>2022-07-16T05:04:47Z</time>
      </trkpt>
      <trkpt lat="45.66247" lon="6.49432">
        <ele>2327</ele>
        <time>2022-07-16T05:04:49Z</time>
      </trkpt>
      <trkpt lat="45.66245" lon="6.49434">
        <ele>2327</ele>
        <time>2022-07-16T05:04:50Z</time>
      </trkpt>
      <trkpt lat="45.66243" lon="6.49435">
        <ele>2327</ele>
        <time>2022-07-16T05:04:51Z</time>
      </trkpt>
      <trkpt lat="45.66241" lon="6.49436">
        <ele>2327</ele>
        <time>2022-07-16T05:04:52Z</time>
      </trkpt>
      <trkpt lat="45.66239" lon="6.49437">
        <ele>2327</ele>
        <time>2022-07-16T05:04:53Z</time>
      </trkpt>
      <trkpt lat="45.66238" lon="6.49438">
        <ele>2327</ele>
        <time>2022-07-16T05:04:54Z</time>
      </trkpt>
      <trkpt lat="45.66236" lon="6.49439">
        <ele>2327</ele>
        <time>2022-07-16T05:04:55Z</time>
      </trkpt>
      <trkpt lat="45.66232" lon="6.4944">
        <ele>2326</ele>
        <time>2022-07-16T05:04:57Z</time>
      </trkpt>
      <trkpt lat="45.66229" lon="6.49441">
        <ele>2324</ele>
        <time>2022-07-16T05:04:59Z</time>
      </trkpt>
      <trkpt lat="45.66227" lon="6.49441">
        <ele>2323</ele>
        <time>2022-07-16T05:05:00Z</time>
      </trkpt>
      <trkpt lat="45.66225" lon="6.49442">
        <ele>2323</ele>
        <time>2022-07-16T05:05:01Z</time>
      </trkpt>
      <trkpt lat="45.66223" lon="6.49443">
        <ele>2322</ele>
        <time>2022-07-16T05:05:02Z</time>
      </trkpt>
      <trkpt lat="45.66221" lon="6.49444">
        <ele>2322</ele>
        <time>2022-07-16T05:05:03Z</time>
      </trkpt>
      <trkpt lat="45.66219" lon="6.49445">
        <ele>2322</ele>
        <time>2022-07-16T05:05:04Z</time>
      </trkpt>
      <trkpt lat="45.66217" lon="6.49446">
        <ele>2322</ele>
        <time>2022-07-16T05:05:05Z</time>
      </trkpt>
      <trkpt lat="45.66215" lon="6.49447">
        <ele>2321</ele>
        <time>2022-07-16T05:05:06Z</time>
      </trkpt>
      <trkpt lat="45.66213" lon="6.49448">
        <ele>2321</ele>
        <time>2022-07-16T05:05:07Z</time>
      </trkpt>
      <trkpt lat="45.66211" lon="6.4945">
        <ele>2321</ele>
        <time>2022-07-16T05:05:08Z</time>
      </trkpt>
      <trkpt lat="45.6621" lon="6.49452">
        <ele>2321</ele>
        <time>2022-07-16T05:05:09Z</time>
      </trkpt>
      <trkpt lat="45.66208" lon="6.49454">
        <ele>2321</ele>
        <time>2022-07-16T05:05:10Z</time>
      </trkpt>
      <trkpt lat="45.66207" lon="6.49455">
        <ele>2321</ele>
        <time>2022-07-16T05:05:11Z</time>
      </trkpt>
      <trkpt lat="45.66205" lon="6.49457">
        <ele>2320</ele>
        <time>2022-07-16T05:05:12Z</time>
      </trkpt>
      <trkpt lat="45.66203" lon="6.49458">
        <ele>2320</ele>
        <time>2022-07-16T05:05:13Z</time>
      </trkpt>
      <trkpt lat="45.66201" lon="6.49458">
        <ele>2319</ele>
        <time>2022-07-16T05:05:14Z</time>
      </trkpt>
      <trkpt lat="45.66198" lon="6.49459">
        <ele>2319</ele>
        <time>2022-07-16T05:05:16Z</time>
      </trkpt>
      <trkpt lat="45.66196" lon="6.49458">
        <ele>2319</ele>
        <time>2022-07-16T05:05:18Z</time>
      </trkpt>
      <trkpt lat="45.66194" lon="6.49459">
        <ele>2319</ele>
        <time>2022-07-16T05:05:20Z</time>
      </trkpt>
      <trkpt lat="45.66191" lon="6.4946">
        <ele>2318</ele>
        <time>2022-07-16T05:05:22Z</time>
      </trkpt>
      <trkpt lat="45.66189" lon="6.4946">
        <ele>2317</ele>
        <time>2022-07-16T05:05:23Z</time>
      </trkpt>
      <trkpt lat="45.66187" lon="6.49458">
        <ele>2317</ele>
        <time>2022-07-16T05:05:24Z</time>
      </trkpt>
      <trkpt lat="45.66184" lon="6.49455">
        <ele>2316</ele>
        <time>2022-07-16T05:05:26Z</time>
      </trkpt>
      <trkpt lat="45.66182" lon="6.49454">
        <ele>2316</ele>
        <time>2022-07-16T05:05:28Z</time>
      </trkpt>
      <trkpt lat="45.6618" lon="6.49453">
        <ele>2316</ele>
        <time>2022-07-16T05:05:30Z</time>
      </trkpt>
      <trkpt lat="45.66178" lon="6.49451">
        <ele>2316</ele>
        <time>2022-07-16T05:05:32Z</time>
      </trkpt>
      <trkpt lat="45.66176" lon="6.4945">
        <ele>2316</ele>
        <time>2022-07-16T05:05:34Z</time>
      </trkpt>
      <trkpt lat="45.66174" lon="6.49451">
        <ele>2315</ele>
        <time>2022-07-16T05:05:36Z</time>
      </trkpt>
      <trkpt lat="45.66171" lon="6.49451">
        <ele>2314</ele>
        <time>2022-07-16T05:05:38Z</time>
      </trkpt>
      <trkpt lat="45.66169" lon="6.49451">
        <ele>2313</ele>
        <time>2022-07-16T05:05:40Z</time>
      </trkpt>
      <trkpt lat="45.66166" lon="6.49454">
        <ele>2312</ele>
        <time>2022-07-16T05:05:42Z</time>
      </trkpt>
      <trkpt lat="45.66164" lon="6.49454">
        <ele>2312</ele>
        <time>2022-07-16T05:05:43Z</time>
      </trkpt>
      <trkpt lat="45.66162" lon="6.49454">
        <ele>2311</ele>
        <time>2022-07-16T05:05:44Z</time>
      </trkpt>
      <trkpt lat="45.6616" lon="6.49453">
        <ele>2311</ele>
        <time>2022-07-16T05:05:45Z</time>
      </trkpt>
      <trkpt lat="45.66156" lon="6.49452">
        <ele>2311</ele>
        <time>2022-07-16T05:05:47Z</time>
      </trkpt>
      <trkpt lat="45.66154" lon="6.49451">
        <ele>2310</ele>
        <time>2022-07-16T05:05:48Z</time>
      </trkpt>
      <trkpt lat="45.66152" lon="6.49451">
        <ele>2310</ele>
        <time>2022-07-16T05:05:49Z</time>
      </trkpt>
      <trkpt lat="45.6615" lon="6.49451">
        <ele>2310</ele>
        <time>2022-07-16T05:05:50Z</time>
      </trkpt>
      <trkpt lat="45.66148" lon="6.49451">
        <ele>2309</ele>
        <time>2022-07-16T05:05:51Z</time>
      </trkpt>
      <trkpt lat="45.66145" lon="6.49452">
        <ele>2308</ele>
        <time>2022-07-16T05:05:53Z</time>
      </trkpt>
      <trkpt lat="45.66142" lon="6.49452">
        <ele>2308</ele>
        <time>2022-07-16T05:05:55Z</time>
      </trkpt>
      <trkpt lat="45.6614" lon="6.49452">
        <ele>2307</ele>
        <time>2022-07-16T05:05:58Z</time>
      </trkpt>
      <trkpt lat="45.66137" lon="6.49452">
        <ele>2306</ele>
        <time>2022-07-16T05:06:00Z</time>
      </trkpt>
      <trkpt lat="45.66134" lon="6.49452">
        <ele>2306</ele>
        <time>2022-07-16T05:06:01Z</time>
      </trkpt>
      <trkpt lat="45.66132" lon="6.49452">
        <ele>2306</ele>
        <time>2022-07-16T05:06:02Z</time>
      </trkpt>
      <trkpt lat="45.6613" lon="6.49452">
        <ele>2305</ele>
        <time>2022-07-16T05:06:03Z</time>
      </trkpt>
      <trkpt lat="45.66127" lon="6.49452">
        <ele>2305</ele>
        <time>2022-07-16T05:06:04Z</time>
      </trkpt>
      <trkpt lat="45.66125" lon="6.49452">
        <ele>2305</ele>
        <time>2022-07-16T05:06:05Z</time>
      </trkpt>
      <trkpt lat="45.66123" lon="6.49453">
        <ele>2305</ele>
        <time>2022-07-16T05:06:06Z</time>
      </trkpt>
      <trkpt lat="45.66121" lon="6.49454">
        <ele>2305</ele>
        <time>2022-07-16T05:06:07Z</time>
      </trkpt>
      <trkpt lat="45.66119" lon="6.49455">
        <ele>2305</ele>
        <time>2022-07-16T05:06:08Z</time>
      </trkpt>
      <trkpt lat="45.66117" lon="6.49456">
        <ele>2305</ele>
        <time>2022-07-16T05:06:09Z</time>
      </trkpt>
      <trkpt lat="45.66115" lon="6.49457">
        <ele>2305</ele>
        <time>2022-07-16T05:06:10Z</time>
      </trkpt>
      <trkpt lat="45.66113" lon="6.49458">
        <ele>2305</ele>
        <time>2022-07-16T05:06:11Z</time>
      </trkpt>
      <trkpt lat="45.66112" lon="6.4946">
        <ele>2305</ele>
        <time>2022-07-16T05:06:12Z</time>
      </trkpt>
      <trkpt lat="45.66109" lon="6.49462">
        <ele>2305</ele>
        <time>2022-07-16T05:06:14Z</time>
      </trkpt>
      <trkpt lat="45.66106" lon="6.49465">
        <ele>2305</ele>
        <time>2022-07-16T05:06:16Z</time>
      </trkpt>
      <trkpt lat="45.66105" lon="6.49466">
        <ele>2305</ele>
        <time>2022-07-16T05:06:17Z</time>
      </trkpt>
      <trkpt lat="45.66101" lon="6.49467">
        <ele>2305</ele>
        <time>2022-07-16T05:06:19Z</time>
      </trkpt>
      <trkpt lat="45.661" lon="6.49469">
        <ele>2305</ele>
        <time>2022-07-16T05:06:20Z</time>
      </trkpt>
      <trkpt lat="45.66098" lon="6.4947">
        <ele>2305</ele>
        <time>2022-07-16T05:06:21Z</time>
      </trkpt>
      <trkpt lat="45.66096" lon="6.49471">
        <ele>2305</ele>
        <time>2022-07-16T05:06:22Z</time>
      </trkpt>
      <trkpt lat="45.66093" lon="6.49472">
        <ele>2305</ele>
        <time>2022-07-16T05:06:24Z</time>
      </trkpt>
      <trkpt lat="45.66091" lon="6.49474">
        <ele>2305</ele>
        <time>2022-07-16T05:06:25Z</time>
      </trkpt>
      <trkpt lat="45.6609" lon="6.49476">
        <ele>2304</ele>
        <time>2022-07-16T05:06:26Z</time>
      </trkpt>
      <trkpt lat="45.66088" lon="6.49477">
        <ele>2304</ele>
        <time>2022-07-16T05:06:27Z</time>
      </trkpt>
      <trkpt lat="45.66087" lon="6.49479">
        <ele>2304</ele>
        <time>2022-07-16T05:06:28Z</time>
      </trkpt>
      <trkpt lat="45.66085" lon="6.49481">
        <ele>2303</ele>
        <time>2022-07-16T05:06:29Z</time>
      </trkpt>
      <trkpt lat="45.66083" lon="6.49482">
        <ele>2303</ele>
        <time>2022-07-16T05:06:30Z</time>
      </trkpt>
      <trkpt lat="45.66081" lon="6.49484">
        <ele>2302</ele>
        <time>2022-07-16T05:06:31Z</time>
      </trkpt>
      <trkpt lat="45.6608" lon="6.49485">
        <ele>2302</ele>
        <time>2022-07-16T05:06:32Z</time>
      </trkpt>
      <trkpt lat="45.66078" lon="6.49487">
        <ele>2302</ele>
        <time>2022-07-16T05:06:33Z</time>
      </trkpt>
      <trkpt lat="45.66077" lon="6.49488">
        <ele>2302</ele>
        <time>2022-07-16T05:06:34Z</time>
      </trkpt>
      <trkpt lat="45.66075" lon="6.4949">
        <ele>2303</ele>
        <time>2022-07-16T05:06:35Z</time>
      </trkpt>
      <trkpt lat="45.66074" lon="6.49492">
        <ele>2303</ele>
        <time>2022-07-16T05:06:36Z</time>
      </trkpt>
      <trkpt lat="45.66071" lon="6.49495">
        <ele>2303</ele>
        <time>2022-07-16T05:06:38Z</time>
      </trkpt>
      <trkpt lat="45.6607" lon="6.49497">
        <ele>2303</ele>
        <time>2022-07-16T05:06:39Z</time>
      </trkpt>
      <trkpt lat="45.66067" lon="6.49499">
        <ele>2303</ele>
        <time>2022-07-16T05:06:40Z</time>
      </trkpt>
      <trkpt lat="45.66066" lon="6.49499">
        <ele>2303</ele>
        <time>2022-07-16T05:06:41Z</time>
      </trkpt>
      <trkpt lat="45.66065" lon="6.49501">
        <ele>2303</ele>
        <time>2022-07-16T05:06:42Z</time>
      </trkpt>
      <trkpt lat="45.66061" lon="6.49503">
        <ele>2302</ele>
        <time>2022-07-16T05:06:44Z</time>
      </trkpt>
      <trkpt lat="45.6606" lon="6.49504">
        <ele>2302</ele>
        <time>2022-07-16T05:06:45Z</time>
      </trkpt>
      <trkpt lat="45.66058" lon="6.49505">
        <ele>2302</ele>
        <time>2022-07-16T05:06:46Z</time>
      </trkpt>
      <trkpt lat="45.66054" lon="6.49505">
        <ele>2301</ele>
        <time>2022-07-16T05:06:48Z</time>
      </trkpt>
      <trkpt lat="45.66051" lon="6.49506">
        <ele>2301</ele>
        <time>2022-07-16T05:06:50Z</time>
      </trkpt>
      <trkpt lat="45.66049" lon="6.49508">
        <ele>2301</ele>
        <time>2022-07-16T05:06:52Z</time>
      </trkpt>
      <trkpt lat="45.66045" lon="6.4951">
        <ele>2300</ele>
        <time>2022-07-16T05:06:54Z</time>
      </trkpt>
      <trkpt lat="45.66043" lon="6.49511">
        <ele>2300</ele>
        <time>2022-07-16T05:06:55Z</time>
      </trkpt>
      <trkpt lat="45.66041" lon="6.49512">
        <ele>2300</ele>
        <time>2022-07-16T05:06:56Z</time>
      </trkpt>
      <trkpt lat="45.66039" lon="6.49513">
        <ele>2300</ele>
        <time>2022-07-16T05:06:57Z</time>
      </trkpt>
      <trkpt lat="45.66037" lon="6.49512">
        <ele>2300</ele>
        <time>2022-07-16T05:06:58Z</time>
      </trkpt>
      <trkpt lat="45.66035" lon="6.49511">
        <ele>2300</ele>
        <time>2022-07-16T05:06:59Z</time>
      </trkpt>
      <trkpt lat="45.66031" lon="6.4951">
        <ele>2300</ele>
        <time>2022-07-16T05:07:01Z</time>
      </trkpt>
      <trkpt lat="45.66028" lon="6.4951">
        <ele>2300</ele>
        <time>2022-07-16T05:07:03Z</time>
      </trkpt>
      <trkpt lat="45.66024" lon="6.4951">
        <ele>2300</ele>
        <time>2022-07-16T05:07:04Z</time>
      </trkpt>
      <trkpt lat="45.66023" lon="6.4951">
        <ele>2300</ele>
        <time>2022-07-16T05:07:05Z</time>
      </trkpt>
      <trkpt lat="45.66021" lon="6.49511">
        <ele>2300</ele>
        <time>2022-07-16T05:07:06Z</time>
      </trkpt>
      <trkpt lat="45.66019" lon="6.49512">
        <ele>2300</ele>
        <time>2022-07-16T05:07:07Z</time>
      </trkpt>
      <trkpt lat="45.66018" lon="6.49514">
        <ele>2298</ele>
        <time>2022-07-16T05:07:08Z</time>
      </trkpt>
      <trkpt lat="45.66016" lon="6.49516">
        <ele>2298</ele>
        <time>2022-07-16T05:07:09Z</time>
      </trkpt>
      <trkpt lat="45.66014" lon="6.49517">
        <ele>2298</ele>
        <time>2022-07-16T05:07:10Z</time>
      </trkpt>
      <trkpt lat="45.66013" lon="6.49517">
        <ele>2298</ele>
        <time>2022-07-16T05:07:11Z</time>
      </trkpt>
      <trkpt lat="45.66011" lon="6.49517">
        <ele>2298</ele>
        <time>2022-07-16T05:07:12Z</time>
      </trkpt>
      <trkpt lat="45.66009" lon="6.49517">
        <ele>2298</ele>
        <time>2022-07-16T05:07:13Z</time>
      </trkpt>
      <trkpt lat="45.66006" lon="6.49519">
        <ele>2298</ele>
        <time>2022-07-16T05:07:15Z</time>
      </trkpt>
      <trkpt lat="45.66004" lon="6.4952">
        <ele>2298</ele>
        <time>2022-07-16T05:07:16Z</time>
      </trkpt>
      <trkpt lat="45.66002" lon="6.49521">
        <ele>2298</ele>
        <time>2022-07-16T05:07:17Z</time>
      </trkpt>
      <trkpt lat="45.65999" lon="6.49522">
        <ele>2298</ele>
        <time>2022-07-16T05:07:19Z</time>
      </trkpt>
      <trkpt lat="45.65997" lon="6.49522">
        <ele>2297</ele>
        <time>2022-07-16T05:07:20Z</time>
      </trkpt>
      <trkpt lat="45.65995" lon="6.49523">
        <ele>2297</ele>
        <time>2022-07-16T05:07:21Z</time>
      </trkpt>
      <trkpt lat="45.65992" lon="6.49524">
        <ele>2297</ele>
        <time>2022-07-16T05:07:23Z</time>
      </trkpt>
      <trkpt lat="45.65988" lon="6.49526">
        <ele>2296</ele>
        <time>2022-07-16T05:07:25Z</time>
      </trkpt>
      <trkpt lat="45.65986" lon="6.49526">
        <ele>2295</ele>
        <time>2022-07-16T05:07:27Z</time>
      </trkpt>
      <trkpt lat="45.65983" lon="6.49524">
        <ele>2295</ele>
        <time>2022-07-16T05:07:29Z</time>
      </trkpt>
      <trkpt lat="45.6598" lon="6.49525">
        <ele>2295</ele>
        <time>2022-07-16T05:07:31Z</time>
      </trkpt>
      <trkpt lat="45.65978" lon="6.49527">
        <ele>2295</ele>
        <time>2022-07-16T05:07:32Z</time>
      </trkpt>
      <trkpt lat="45.65977" lon="6.49529">
        <ele>2295</ele>
        <time>2022-07-16T05:07:33Z</time>
      </trkpt>
      <trkpt lat="45.65976" lon="6.49532">
        <ele>2294</ele>
        <time>2022-07-16T05:07:34Z</time>
      </trkpt>
      <trkpt lat="45.65975" lon="6.49534">
        <ele>2294</ele>
        <time>2022-07-16T05:07:35Z</time>
      </trkpt>
      <trkpt lat="45.65974" lon="6.49539">
        <ele>2294</ele>
        <time>2022-07-16T05:07:37Z</time>
      </trkpt>
      <trkpt lat="45.65973" lon="6.49544">
        <ele>2293</ele>
        <time>2022-07-16T05:07:39Z</time>
      </trkpt>
      <trkpt lat="45.65972" lon="6.49548">
        <ele>2293</ele>
        <time>2022-07-16T05:07:41Z</time>
      </trkpt>
      <trkpt lat="45.6597" lon="6.49551">
        <ele>2292</ele>
        <time>2022-07-16T05:07:43Z</time>
      </trkpt>
      <trkpt lat="45.65968" lon="6.49554">
        <ele>2292</ele>
        <time>2022-07-16T05:07:45Z</time>
      </trkpt>
      <trkpt lat="45.65965" lon="6.49557">
        <ele>2291</ele>
        <time>2022-07-16T05:07:47Z</time>
      </trkpt>
      <trkpt lat="45.65962" lon="6.49559">
        <ele>2289</ele>
        <time>2022-07-16T05:07:49Z</time>
      </trkpt>
      <trkpt lat="45.6596" lon="6.49558">
        <ele>2289</ele>
        <time>2022-07-16T05:07:50Z</time>
      </trkpt>
      <trkpt lat="45.65958" lon="6.49557">
        <ele>2289</ele>
        <time>2022-07-16T05:07:51Z</time>
      </trkpt>
      <trkpt lat="45.65956" lon="6.49556">
        <ele>2288</ele>
        <time>2022-07-16T05:07:52Z</time>
      </trkpt>
      <trkpt lat="45.65954" lon="6.49556">
        <ele>2288</ele>
        <time>2022-07-16T05:07:53Z</time>
      </trkpt>
      <trkpt lat="45.65952" lon="6.49555">
        <ele>2287</ele>
        <time>2022-07-16T05:07:54Z</time>
      </trkpt>
      <trkpt lat="45.6595" lon="6.49555">
        <ele>2286</ele>
        <time>2022-07-16T05:07:55Z</time>
      </trkpt>
      <trkpt lat="45.65947" lon="6.49555">
        <ele>2286</ele>
        <time>2022-07-16T05:07:57Z</time>
      </trkpt>
      <trkpt lat="45.65944" lon="6.49557">
        <ele>2285</ele>
        <time>2022-07-16T05:07:59Z</time>
      </trkpt>
      <trkpt lat="45.65942" lon="6.4956">
        <ele>2284</ele>
        <time>2022-07-16T05:08:01Z</time>
      </trkpt>
      <trkpt lat="45.6594" lon="6.49563">
        <ele>2284</ele>
        <time>2022-07-16T05:08:03Z</time>
      </trkpt>
      <trkpt lat="45.65939" lon="6.49567">
        <ele>2282</ele>
        <time>2022-07-16T05:08:05Z</time>
      </trkpt>
      <trkpt lat="45.65936" lon="6.4957">
        <ele>2282</ele>
        <time>2022-07-16T05:08:07Z</time>
      </trkpt>
      <trkpt lat="45.65935" lon="6.49571">
        <ele>2282</ele>
        <time>2022-07-16T05:08:08Z</time>
      </trkpt>
      <trkpt lat="45.65933" lon="6.49573">
        <ele>2281</ele>
        <time>2022-07-16T05:08:09Z</time>
      </trkpt>
      <trkpt lat="45.65932" lon="6.49576">
        <ele>2280</ele>
        <time>2022-07-16T05:08:11Z</time>
      </trkpt>
      <trkpt lat="45.65933" lon="6.4958">
        <ele>2280</ele>
        <time>2022-07-16T05:08:13Z</time>
      </trkpt>
      <trkpt lat="45.65934" lon="6.49583">
        <ele>2279</ele>
        <time>2022-07-16T05:08:15Z</time>
      </trkpt>
      <trkpt lat="45.65934" lon="6.49586">
        <ele>2278</ele>
        <time>2022-07-16T05:08:17Z</time>
      </trkpt>
      <trkpt lat="45.65933" lon="6.49588">
        <ele>2277</ele>
        <time>2022-07-16T05:08:19Z</time>
      </trkpt>
      <trkpt lat="45.65934" lon="6.49592">
        <ele>2276</ele>
        <time>2022-07-16T05:08:21Z</time>
      </trkpt>
      <trkpt lat="45.65934" lon="6.49595">
        <ele>2275</ele>
        <time>2022-07-16T05:08:23Z</time>
      </trkpt>
      <trkpt lat="45.65935" lon="6.49599">
        <ele>2275</ele>
        <time>2022-07-16T05:08:25Z</time>
      </trkpt>
      <trkpt lat="45.65937" lon="6.49603">
        <ele>2274</ele>
        <time>2022-07-16T05:08:27Z</time>
      </trkpt>
      <trkpt lat="45.65938" lon="6.49607">
        <ele>2272</ele>
        <time>2022-07-16T05:08:29Z</time>
      </trkpt>
      <trkpt lat="45.65939" lon="6.49611">
        <ele>2271</ele>
        <time>2022-07-16T05:08:31Z</time>
      </trkpt>
      <trkpt lat="45.65939" lon="6.49615">
        <ele>2271</ele>
        <time>2022-07-16T05:08:33Z</time>
      </trkpt>
      <trkpt lat="45.65939" lon="6.49619">
        <ele>2270</ele>
        <time>2022-07-16T05:08:35Z</time>
      </trkpt>
      <trkpt lat="45.65938" lon="6.49624">
        <ele>2269</ele>
        <time>2022-07-16T05:08:37Z</time>
      </trkpt>
      <trkpt lat="45.65938" lon="6.49626">
        <ele>2268</ele>
        <time>2022-07-16T05:08:38Z</time>
      </trkpt>
      <trkpt lat="45.65938" lon="6.49631">
        <ele>2268</ele>
        <time>2022-07-16T05:08:40Z</time>
      </trkpt>
      <trkpt lat="45.65937" lon="6.49635">
        <ele>2266</ele>
        <time>2022-07-16T05:08:42Z</time>
      </trkpt>
      <trkpt lat="45.65938" lon="6.49639">
        <ele>2266</ele>
        <time>2022-07-16T05:08:44Z</time>
      </trkpt>
      <trkpt lat="45.65939" lon="6.49642">
        <ele>2266</ele>
        <time>2022-07-16T05:08:46Z</time>
      </trkpt>
      <trkpt lat="45.6594" lon="6.49645">
        <ele>2265</ele>
        <time>2022-07-16T05:08:48Z</time>
      </trkpt>
      <trkpt lat="45.65943" lon="6.49646">
        <ele>2265</ele>
        <time>2022-07-16T05:08:50Z</time>
      </trkpt>
      <trkpt lat="45.65944" lon="6.49649">
        <ele>2264</ele>
        <time>2022-07-16T05:08:52Z</time>
      </trkpt>
      <trkpt lat="45.65946" lon="6.49653">
        <ele>2262</ele>
        <time>2022-07-16T05:08:54Z</time>
      </trkpt>
      <trkpt lat="45.65947" lon="6.49657">
        <ele>2262</ele>
        <time>2022-07-16T05:08:56Z</time>
      </trkpt>
      <trkpt lat="45.65948" lon="6.4966">
        <ele>2261</ele>
        <time>2022-07-16T05:08:59Z</time>
      </trkpt>
      <trkpt lat="45.6595" lon="6.49662">
        <ele>2260</ele>
        <time>2022-07-16T05:09:01Z</time>
      </trkpt>
      <trkpt lat="45.65951" lon="6.49665">
        <ele>2259</ele>
        <time>2022-07-16T05:09:03Z</time>
      </trkpt>
      <trkpt lat="45.65951" lon="6.49668">
        <ele>2259</ele>
        <time>2022-07-16T05:09:05Z</time>
      </trkpt>
      <trkpt lat="45.65951" lon="6.49672">
        <ele>2258</ele>
        <time>2022-07-16T05:09:07Z</time>
      </trkpt>
      <trkpt lat="45.6595" lon="6.49675">
        <ele>2257</ele>
        <time>2022-07-16T05:09:09Z</time>
      </trkpt>
      <trkpt lat="45.65948" lon="6.49676">
        <ele>2257</ele>
        <time>2022-07-16T05:09:11Z</time>
      </trkpt>
      <trkpt lat="45.65946" lon="6.49675">
        <ele>2256</ele>
        <time>2022-07-16T05:09:13Z</time>
      </trkpt>
      <trkpt lat="45.65943" lon="6.49676">
        <ele>2255</ele>
        <time>2022-07-16T05:09:15Z</time>
      </trkpt>
      <trkpt lat="45.65941" lon="6.49678">
        <ele>2255</ele>
        <time>2022-07-16T05:09:17Z</time>
      </trkpt>
      <trkpt lat="45.6594" lon="6.4968">
        <ele>2255</ele>
        <time>2022-07-16T05:09:19Z</time>
      </trkpt>
      <trkpt lat="45.65941" lon="6.49683">
        <ele>2254</ele>
        <time>2022-07-16T05:09:21Z</time>
      </trkpt>
      <trkpt lat="45.65943" lon="6.49687">
        <ele>2252</ele>
        <time>2022-07-16T05:09:23Z</time>
      </trkpt>
      <trkpt lat="45.65944" lon="6.49689">
        <ele>2252</ele>
        <time>2022-07-16T05:09:24Z</time>
      </trkpt>
      <trkpt lat="45.65945" lon="6.49691">
        <ele>2251</ele>
        <time>2022-07-16T05:09:25Z</time>
      </trkpt>
      <trkpt lat="45.65946" lon="6.49694">
        <ele>2251</ele>
        <time>2022-07-16T05:09:26Z</time>
      </trkpt>
      <trkpt lat="45.65947" lon="6.49697">
        <ele>2250</ele>
        <time>2022-07-16T05:09:27Z</time>
      </trkpt>
      <trkpt lat="45.65948" lon="6.49699">
        <ele>2250</ele>
        <time>2022-07-16T05:09:28Z</time>
      </trkpt>
      <trkpt lat="45.65949" lon="6.49702">
        <ele>2250</ele>
        <time>2022-07-16T05:09:29Z</time>
      </trkpt>
      <trkpt lat="45.6595" lon="6.49704">
        <ele>2250</ele>
        <time>2022-07-16T05:09:30Z</time>
      </trkpt>
      <trkpt lat="45.6595" lon="6.49708">
        <ele>2250</ele>
        <time>2022-07-16T05:09:32Z</time>
      </trkpt>
      <trkpt lat="45.65949" lon="6.49712">
        <ele>2250</ele>
        <time>2022-07-16T05:09:34Z</time>
      </trkpt>
      <trkpt lat="45.65948" lon="6.49717">
        <ele>2250</ele>
        <time>2022-07-16T05:09:36Z</time>
      </trkpt>
      <trkpt lat="45.65946" lon="6.4972">
        <ele>2249</ele>
        <time>2022-07-16T05:09:38Z</time>
      </trkpt>
      <trkpt lat="45.65944" lon="6.49722">
        <ele>2248</ele>
        <time>2022-07-16T05:09:40Z</time>
      </trkpt>
      <trkpt lat="45.65943" lon="6.49726">
        <ele>2245</ele>
        <time>2022-07-16T05:09:42Z</time>
      </trkpt>
      <trkpt lat="45.65939" lon="6.49727">
        <ele>2244</ele>
        <time>2022-07-16T05:09:44Z</time>
      </trkpt>
      <trkpt lat="45.65936" lon="6.49725">
        <ele>2243</ele>
        <time>2022-07-16T05:09:46Z</time>
      </trkpt>
      <trkpt lat="45.65933" lon="6.49723">
        <ele>2242</ele>
        <time>2022-07-16T05:09:48Z</time>
      </trkpt>
      <trkpt lat="45.6593" lon="6.49722">
        <ele>2242</ele>
        <time>2022-07-16T05:09:50Z</time>
      </trkpt>
      <trkpt lat="45.65927" lon="6.49722">
        <ele>2240</ele>
        <time>2022-07-16T05:09:52Z</time>
      </trkpt>
      <trkpt lat="45.65924" lon="6.49722">
        <ele>2240</ele>
        <time>2022-07-16T05:09:54Z</time>
      </trkpt>
      <trkpt lat="45.6592" lon="6.49722">
        <ele>2239</ele>
        <time>2022-07-16T05:09:56Z</time>
      </trkpt>
      <trkpt lat="45.65917" lon="6.49722">
        <ele>2238</ele>
        <time>2022-07-16T05:09:58Z</time>
      </trkpt>
      <trkpt lat="45.65915" lon="6.49722">
        <ele>2238</ele>
        <time>2022-07-16T05:09:59Z</time>
      </trkpt>
      <trkpt lat="45.65914" lon="6.49723">
        <ele>2238</ele>
        <time>2022-07-16T05:10:00Z</time>
      </trkpt>
      <trkpt lat="45.65912" lon="6.49724">
        <ele>2238</ele>
        <time>2022-07-16T05:10:01Z</time>
      </trkpt>
      <trkpt lat="45.6591" lon="6.49725">
        <ele>2238</ele>
        <time>2022-07-16T05:10:02Z</time>
      </trkpt>
      <trkpt lat="45.65908" lon="6.49725">
        <ele>2237</ele>
        <time>2022-07-16T05:10:03Z</time>
      </trkpt>
      <trkpt lat="45.65906" lon="6.49725">
        <ele>2236</ele>
        <time>2022-07-16T05:10:04Z</time>
      </trkpt>
      <trkpt lat="45.65904" lon="6.49725">
        <ele>2236</ele>
        <time>2022-07-16T05:10:05Z</time>
      </trkpt>
      <trkpt lat="45.65902" lon="6.49726">
        <ele>2235</ele>
        <time>2022-07-16T05:10:06Z</time>
      </trkpt>
      <trkpt lat="45.65899" lon="6.49725">
        <ele>2235</ele>
        <time>2022-07-16T05:10:08Z</time>
      </trkpt>
      <trkpt lat="45.65896" lon="6.49724">
        <ele>2235</ele>
        <time>2022-07-16T05:10:09Z</time>
      </trkpt>
      <trkpt lat="45.65894" lon="6.49723">
        <ele>2234</ele>
        <time>2022-07-16T05:10:10Z</time>
      </trkpt>
      <trkpt lat="45.65892" lon="6.49722">
        <ele>2234</ele>
        <time>2022-07-16T05:10:11Z</time>
      </trkpt>
      <trkpt lat="45.6589" lon="6.49722">
        <ele>2233</ele>
        <time>2022-07-16T05:10:12Z</time>
      </trkpt>
      <trkpt lat="45.65888" lon="6.49723">
        <ele>2233</ele>
        <time>2022-07-16T05:10:13Z</time>
      </trkpt>
      <trkpt lat="45.65885" lon="6.49724">
        <ele>2233</ele>
        <time>2022-07-16T05:10:14Z</time>
      </trkpt>
      <trkpt lat="45.65883" lon="6.49724">
        <ele>2233</ele>
        <time>2022-07-16T05:10:15Z</time>
      </trkpt>
      <trkpt lat="45.65881" lon="6.49724">
        <ele>2233</ele>
        <time>2022-07-16T05:10:16Z</time>
      </trkpt>
      <trkpt lat="45.6588" lon="6.49725">
        <ele>2232</ele>
        <time>2022-07-16T05:10:17Z</time>
      </trkpt>
      <trkpt lat="45.65878" lon="6.49726">
        <ele>2231</ele>
        <time>2022-07-16T05:10:18Z</time>
      </trkpt>
      <trkpt lat="45.65875" lon="6.49726">
        <ele>2231</ele>
        <time>2022-07-16T05:10:19Z</time>
      </trkpt>
      <trkpt lat="45.65873" lon="6.49726">
        <ele>2230</ele>
        <time>2022-07-16T05:10:20Z</time>
      </trkpt>
      <trkpt lat="45.65872" lon="6.49726">
        <ele>2230</ele>
        <time>2022-07-16T05:10:21Z</time>
      </trkpt>
      <trkpt lat="45.65869" lon="6.49727">
        <ele>2229</ele>
        <time>2022-07-16T05:10:22Z</time>
      </trkpt>
      <trkpt lat="45.65867" lon="6.49728">
        <ele>2229</ele>
        <time>2022-07-16T05:10:23Z</time>
      </trkpt>
      <trkpt lat="45.65866" lon="6.49729">
        <ele>2228</ele>
        <time>2022-07-16T05:10:24Z</time>
      </trkpt>
      <trkpt lat="45.65864" lon="6.49731">
        <ele>2228</ele>
        <time>2022-07-16T05:10:25Z</time>
      </trkpt>
      <trkpt lat="45.65862" lon="6.49732">
        <ele>2228</ele>
        <time>2022-07-16T05:10:26Z</time>
      </trkpt>
      <trkpt lat="45.65861" lon="6.49733">
        <ele>2228</ele>
        <time>2022-07-16T05:10:27Z</time>
      </trkpt>
      <trkpt lat="45.65857" lon="6.49735">
        <ele>2228</ele>
        <time>2022-07-16T05:10:29Z</time>
      </trkpt>
      <trkpt lat="45.65855" lon="6.49735">
        <ele>2227</ele>
        <time>2022-07-16T05:10:30Z</time>
      </trkpt>
      <trkpt lat="45.65853" lon="6.49736">
        <ele>2226</ele>
        <time>2022-07-16T05:10:31Z</time>
      </trkpt>
      <trkpt lat="45.6585" lon="6.49737">
        <ele>2226</ele>
        <time>2022-07-16T05:10:33Z</time>
      </trkpt>
      <trkpt lat="45.65848" lon="6.49737">
        <ele>2226</ele>
        <time>2022-07-16T05:10:34Z</time>
      </trkpt>
      <trkpt lat="45.65845" lon="6.49737">
        <ele>2224</ele>
        <time>2022-07-16T05:10:36Z</time>
      </trkpt>
      <trkpt lat="45.65843" lon="6.49737">
        <ele>2224</ele>
        <time>2022-07-16T05:10:37Z</time>
      </trkpt>
      <trkpt lat="45.65841" lon="6.49737">
        <ele>2224</ele>
        <time>2022-07-16T05:10:38Z</time>
      </trkpt>
      <trkpt lat="45.65839" lon="6.49738">
        <ele>2224</ele>
        <time>2022-07-16T05:10:39Z</time>
      </trkpt>
      <trkpt lat="45.65838" lon="6.4974">
        <ele>2224</ele>
        <time>2022-07-16T05:10:40Z</time>
      </trkpt>
      <trkpt lat="45.65835" lon="6.49742">
        <ele>2223</ele>
        <time>2022-07-16T05:10:42Z</time>
      </trkpt>
      <trkpt lat="45.65833" lon="6.49741">
        <ele>2223</ele>
        <time>2022-07-16T05:10:43Z</time>
      </trkpt>
      <trkpt lat="45.65831" lon="6.49739">
        <ele>2222</ele>
        <time>2022-07-16T05:10:44Z</time>
      </trkpt>
      <trkpt lat="45.6583" lon="6.49737">
        <ele>2220</ele>
        <time>2022-07-16T05:10:45Z</time>
      </trkpt>
      <trkpt lat="45.65828" lon="6.49736">
        <ele>2220</ele>
        <time>2022-07-16T05:10:46Z</time>
      </trkpt>
      <trkpt lat="45.65826" lon="6.49735">
        <ele>2220</ele>
        <time>2022-07-16T05:10:47Z</time>
      </trkpt>
      <trkpt lat="45.65824" lon="6.49734">
        <ele>2220</ele>
        <time>2022-07-16T05:10:48Z</time>
      </trkpt>
      <trkpt lat="45.65822" lon="6.49734">
        <ele>2219</ele>
        <time>2022-07-16T05:10:49Z</time>
      </trkpt>
      <trkpt lat="45.65819" lon="6.49732">
        <ele>2219</ele>
        <time>2022-07-16T05:10:51Z</time>
      </trkpt>
      <trkpt lat="45.65816" lon="6.49731">
        <ele>2219</ele>
        <time>2022-07-16T05:10:53Z</time>
      </trkpt>
      <trkpt lat="45.65813" lon="6.49733">
        <ele>2217</ele>
        <time>2022-07-16T05:10:55Z</time>
      </trkpt>
      <trkpt lat="45.65811" lon="6.49734">
        <ele>2217</ele>
        <time>2022-07-16T05:10:56Z</time>
      </trkpt>
      <trkpt lat="45.65809" lon="6.49736">
        <ele>2216</ele>
        <time>2022-07-16T05:10:57Z</time>
      </trkpt>
      <trkpt lat="45.65807" lon="6.49736">
        <ele>2216</ele>
        <time>2022-07-16T05:10:58Z</time>
      </trkpt>
      <trkpt lat="45.65805" lon="6.49737">
        <ele>2215</ele>
        <time>2022-07-16T05:10:59Z</time>
      </trkpt>
      <trkpt lat="45.65803" lon="6.49737">
        <ele>2215</ele>
        <time>2022-07-16T05:11:00Z</time>
      </trkpt>
      <trkpt lat="45.65801" lon="6.49737">
        <ele>2215</ele>
        <time>2022-07-16T05:11:01Z</time>
      </trkpt>
      <trkpt lat="45.65799" lon="6.49737">
        <ele>2214</ele>
        <time>2022-07-16T05:11:02Z</time>
      </trkpt>
      <trkpt lat="45.65797" lon="6.49736">
        <ele>2213</ele>
        <time>2022-07-16T05:11:03Z</time>
      </trkpt>
      <trkpt lat="45.65795" lon="6.49735">
        <ele>2213</ele>
        <time>2022-07-16T05:11:04Z</time>
      </trkpt>
      <trkpt lat="45.65792" lon="6.49733">
        <ele>2212</ele>
        <time>2022-07-16T05:11:06Z</time>
      </trkpt>
      <trkpt lat="45.6579" lon="6.49733">
        <ele>2212</ele>
        <time>2022-07-16T05:11:08Z</time>
      </trkpt>
      <trkpt lat="45.65787" lon="6.49734">
        <ele>2212</ele>
        <time>2022-07-16T05:11:11Z</time>
      </trkpt>
      <trkpt lat="45.65785" lon="6.49733">
        <ele>2210</ele>
        <time>2022-07-16T05:11:14Z</time>
      </trkpt>
      <trkpt lat="45.65783" lon="6.49733">
        <ele>2210</ele>
        <time>2022-07-16T05:11:18Z</time>
      </trkpt>
      <trkpt lat="45.65781" lon="6.49736">
        <ele>2209</ele>
        <time>2022-07-16T05:11:20Z</time>
      </trkpt>
      <trkpt lat="45.65779" lon="6.49738">
        <ele>2208</ele>
        <time>2022-07-16T05:11:22Z</time>
      </trkpt>
      <trkpt lat="45.65777" lon="6.49739">
        <ele>2207</ele>
        <time>2022-07-16T05:11:24Z</time>
      </trkpt>
      <trkpt lat="45.65775" lon="6.49741">
        <ele>2206</ele>
        <time>2022-07-16T05:11:26Z</time>
      </trkpt>
      <trkpt lat="45.65772" lon="6.49743">
        <ele>2205</ele>
        <time>2022-07-16T05:11:28Z</time>
      </trkpt>
      <trkpt lat="45.6577" lon="6.49745">
        <ele>2204</ele>
        <time>2022-07-16T05:11:30Z</time>
      </trkpt>
      <trkpt lat="45.65768" lon="6.49747">
        <ele>2204</ele>
        <time>2022-07-16T05:11:32Z</time>
      </trkpt>
      <trkpt lat="45.65765" lon="6.49747">
        <ele>2204</ele>
        <time>2022-07-16T05:11:34Z</time>
      </trkpt>
      <trkpt lat="45.65763" lon="6.49745">
        <ele>2205</ele>
        <time>2022-07-16T05:11:36Z</time>
      </trkpt>
      <trkpt lat="45.6576" lon="6.49743">
        <ele>2206</ele>
        <time>2022-07-16T05:11:38Z</time>
      </trkpt>
      <trkpt lat="45.65758" lon="6.49742">
        <ele>2206</ele>
        <time>2022-07-16T05:11:40Z</time>
      </trkpt>
      <trkpt lat="45.65756" lon="6.49742">
        <ele>2207</ele>
        <time>2022-07-16T05:11:42Z</time>
      </trkpt>
      <trkpt lat="45.65753" lon="6.49741">
        <ele>2207</ele>
        <time>2022-07-16T05:11:44Z</time>
      </trkpt>
      <trkpt lat="45.65751" lon="6.49741">
        <ele>2207</ele>
        <time>2022-07-16T05:11:46Z</time>
      </trkpt>
      <trkpt lat="45.65748" lon="6.49743">
        <ele>2207</ele>
        <time>2022-07-16T05:11:48Z</time>
      </trkpt>
      <trkpt lat="45.65746" lon="6.49745">
        <ele>2208</ele>
        <time>2022-07-16T05:11:50Z</time>
      </trkpt>
      <trkpt lat="45.65744" lon="6.49746">
        <ele>2208</ele>
        <time>2022-07-16T05:11:52Z</time>
      </trkpt>
      <trkpt lat="45.65741" lon="6.49746">
        <ele>2209</ele>
        <time>2022-07-16T05:11:54Z</time>
      </trkpt>
      <trkpt lat="45.65738" lon="6.49746">
        <ele>2209</ele>
        <time>2022-07-16T05:11:56Z</time>
      </trkpt>
      <trkpt lat="45.65735" lon="6.49746">
        <ele>2209</ele>
        <time>2022-07-16T05:11:58Z</time>
      </trkpt>
      <trkpt lat="45.65732" lon="6.49746">
        <ele>2209</ele>
        <time>2022-07-16T05:12:00Z</time>
      </trkpt>
      <trkpt lat="45.65728" lon="6.49747">
        <ele>2209</ele>
        <time>2022-07-16T05:12:02Z</time>
      </trkpt>
      <trkpt lat="45.65727" lon="6.49746">
        <ele>2209</ele>
        <time>2022-07-16T05:12:03Z</time>
      </trkpt>
      <trkpt lat="45.65725" lon="6.49745">
        <ele>2209</ele>
        <time>2022-07-16T05:12:04Z</time>
      </trkpt>
      <trkpt lat="45.65721" lon="6.49744">
        <ele>2209</ele>
        <time>2022-07-16T05:12:06Z</time>
      </trkpt>
      <trkpt lat="45.65719" lon="6.49743">
        <ele>2209</ele>
        <time>2022-07-16T05:12:07Z</time>
      </trkpt>
      <trkpt lat="45.65716" lon="6.49741">
        <ele>2209</ele>
        <time>2022-07-16T05:12:09Z</time>
      </trkpt>
      <trkpt lat="45.65714" lon="6.4974">
        <ele>2209</ele>
        <time>2022-07-16T05:12:11Z</time>
      </trkpt>
      <trkpt lat="45.65711" lon="6.4974">
        <ele>2210</ele>
        <time>2022-07-16T05:12:13Z</time>
      </trkpt>
      <trkpt lat="45.65709" lon="6.4974">
        <ele>2210</ele>
        <time>2022-07-16T05:12:15Z</time>
      </trkpt>
      <trkpt lat="45.65707" lon="6.4974">
        <ele>2210</ele>
        <time>2022-07-16T05:12:17Z</time>
      </trkpt>
      <trkpt lat="45.65706" lon="6.49741">
        <ele>2211</ele>
        <time>2022-07-16T05:12:19Z</time>
      </trkpt>
      <trkpt lat="45.65703" lon="6.49743">
        <ele>2211</ele>
        <time>2022-07-16T05:12:21Z</time>
      </trkpt>
      <trkpt lat="45.65702" lon="6.49746">
        <ele>2210</ele>
        <time>2022-07-16T05:12:23Z</time>
      </trkpt>
      <trkpt lat="45.65701" lon="6.49751">
        <ele>2210</ele>
        <time>2022-07-16T05:12:25Z</time>
      </trkpt>
      <trkpt lat="45.657" lon="6.49753">
        <ele>2209</ele>
        <time>2022-07-16T05:12:26Z</time>
      </trkpt>
      <trkpt lat="45.65698" lon="6.49757">
        <ele>2208</ele>
        <time>2022-07-16T05:12:28Z</time>
      </trkpt>
      <trkpt lat="45.65695" lon="6.4976">
        <ele>2208</ele>
        <time>2022-07-16T05:12:30Z</time>
      </trkpt>
      <trkpt lat="45.65693" lon="6.4976">
        <ele>2207</ele>
        <time>2022-07-16T05:12:31Z</time>
      </trkpt>
      <trkpt lat="45.65691" lon="6.4976">
        <ele>2207</ele>
        <time>2022-07-16T05:12:32Z</time>
      </trkpt>
      <trkpt lat="45.65688" lon="6.49759">
        <ele>2208</ele>
        <time>2022-07-16T05:12:34Z</time>
      </trkpt>
      <trkpt lat="45.65685" lon="6.49758">
        <ele>2208</ele>
        <time>2022-07-16T05:12:36Z</time>
      </trkpt>
      <trkpt lat="45.65682" lon="6.49759">
        <ele>2208</ele>
        <time>2022-07-16T05:12:38Z</time>
      </trkpt>
      <trkpt lat="45.65679" lon="6.49759">
        <ele>2209</ele>
        <time>2022-07-16T05:12:40Z</time>
      </trkpt>
      <trkpt lat="45.65676" lon="6.49759">
        <ele>2209</ele>
        <time>2022-07-16T05:12:42Z</time>
      </trkpt>
      <trkpt lat="45.65673" lon="6.49759">
        <ele>2209</ele>
        <time>2022-07-16T05:12:44Z</time>
      </trkpt>
      <trkpt lat="45.65671" lon="6.49758">
        <ele>2210</ele>
        <time>2022-07-16T05:12:46Z</time>
      </trkpt>
      <trkpt lat="45.65669" lon="6.49759">
        <ele>2210</ele>
        <time>2022-07-16T05:12:49Z</time>
      </trkpt>
      <trkpt lat="45.65666" lon="6.4976">
        <ele>2210</ele>
        <time>2022-07-16T05:12:51Z</time>
      </trkpt>
      <trkpt lat="45.65664" lon="6.4976">
        <ele>2211</ele>
        <time>2022-07-16T05:12:53Z</time>
      </trkpt>
      <trkpt lat="45.65662" lon="6.4976">
        <ele>2211</ele>
        <time>2022-07-16T05:12:55Z</time>
      </trkpt>
      <trkpt lat="45.65661" lon="6.49763">
        <ele>2211</ele>
        <time>2022-07-16T05:12:57Z</time>
      </trkpt>
      <trkpt lat="45.65659" lon="6.49766">
        <ele>2211</ele>
        <time>2022-07-16T05:12:59Z</time>
      </trkpt>
      <trkpt lat="45.65657" lon="6.49768">
        <ele>2211</ele>
        <time>2022-07-16T05:13:01Z</time>
      </trkpt>
      <trkpt lat="45.65655" lon="6.49772">
        <ele>2211</ele>
        <time>2022-07-16T05:13:03Z</time>
      </trkpt>
      <trkpt lat="45.65654" lon="6.49774">
        <ele>2210</ele>
        <time>2022-07-16T05:13:04Z</time>
      </trkpt>
      <trkpt lat="45.65653" lon="6.49776">
        <ele>2210</ele>
        <time>2022-07-16T05:13:05Z</time>
      </trkpt>
      <trkpt lat="45.65652" lon="6.49778">
        <ele>2210</ele>
        <time>2022-07-16T05:13:06Z</time>
      </trkpt>
      <trkpt lat="45.6565" lon="6.49779">
        <ele>2209</ele>
        <time>2022-07-16T05:13:07Z</time>
      </trkpt>
      <trkpt lat="45.65648" lon="6.4978">
        <ele>2208</ele>
        <time>2022-07-16T05:13:08Z</time>
      </trkpt>
      <trkpt lat="45.65646" lon="6.49781">
        <ele>2208</ele>
        <time>2022-07-16T05:13:09Z</time>
      </trkpt>
      <trkpt lat="45.65643" lon="6.49781">
        <ele>2208</ele>
        <time>2022-07-16T05:13:10Z</time>
      </trkpt>
      <trkpt lat="45.65641" lon="6.49781">
        <ele>2208</ele>
        <time>2022-07-16T05:13:11Z</time>
      </trkpt>
      <trkpt lat="45.65639" lon="6.4978">
        <ele>2208</ele>
        <time>2022-07-16T05:13:12Z</time>
      </trkpt>
      <trkpt lat="45.65637" lon="6.49779">
        <ele>2208</ele>
        <time>2022-07-16T05:13:13Z</time>
      </trkpt>
      <trkpt lat="45.65635" lon="6.49778">
        <ele>2208</ele>
        <time>2022-07-16T05:13:14Z</time>
      </trkpt>
      <trkpt lat="45.65633" lon="6.49778">
        <ele>2208</ele>
        <time>2022-07-16T05:13:15Z</time>
      </trkpt>
      <trkpt lat="45.65631" lon="6.49776">
        <ele>2207</ele>
        <time>2022-07-16T05:13:16Z</time>
      </trkpt>
      <trkpt lat="45.65629" lon="6.49775">
        <ele>2207</ele>
        <time>2022-07-16T05:13:17Z</time>
      </trkpt>
      <trkpt lat="45.65626" lon="6.49775">
        <ele>2207</ele>
        <time>2022-07-16T05:13:19Z</time>
      </trkpt>
      <trkpt lat="45.65623" lon="6.49773">
        <ele>2207</ele>
        <time>2022-07-16T05:13:21Z</time>
      </trkpt>
      <trkpt lat="45.65621" lon="6.49772">
        <ele>2207</ele>
        <time>2022-07-16T05:13:22Z</time>
      </trkpt>
      <trkpt lat="45.65619" lon="6.49771">
        <ele>2208</ele>
        <time>2022-07-16T05:13:23Z</time>
      </trkpt>
      <trkpt lat="45.65616" lon="6.4977">
        <ele>2208</ele>
        <time>2022-07-16T05:13:25Z</time>
      </trkpt>
      <trkpt lat="45.65614" lon="6.49771">
        <ele>2208</ele>
        <time>2022-07-16T05:13:27Z</time>
      </trkpt>
      <trkpt lat="45.65613" lon="6.49775">
        <ele>2208</ele>
        <time>2022-07-16T05:13:31Z</time>
      </trkpt>
      <trkpt lat="45.65612" lon="6.49777">
        <ele>2207</ele>
        <time>2022-07-16T05:13:33Z</time>
      </trkpt>
      <trkpt lat="45.65612" lon="6.49781">
        <ele>2207</ele>
        <time>2022-07-16T05:13:35Z</time>
      </trkpt>
      <trkpt lat="45.65611" lon="6.49784">
        <ele>2206</ele>
        <time>2022-07-16T05:13:37Z</time>
      </trkpt>
      <trkpt lat="45.6561" lon="6.49787">
        <ele>2205</ele>
        <time>2022-07-16T05:13:39Z</time>
      </trkpt>
      <trkpt lat="45.65609" lon="6.49791">
        <ele>2204</ele>
        <time>2022-07-16T05:13:41Z</time>
      </trkpt>
      <trkpt lat="45.65608" lon="6.49794">
        <ele>2204</ele>
        <time>2022-07-16T05:13:42Z</time>
      </trkpt>
      <trkpt lat="45.65607" lon="6.49796">
        <ele>2204</ele>
        <time>2022-07-16T05:13:43Z</time>
      </trkpt>
      <trkpt lat="45.65606" lon="6.49798">
        <ele>2204</ele>
        <time>2022-07-16T05:13:44Z</time>
      </trkpt>
      <trkpt lat="45.65604" lon="6.49801">
        <ele>2203</ele>
        <time>2022-07-16T05:13:46Z</time>
      </trkpt>
      <trkpt lat="45.65603" lon="6.49803">
        <ele>2202</ele>
        <time>2022-07-16T05:13:48Z</time>
      </trkpt>
      <trkpt lat="45.656" lon="6.49804">
        <ele>2202</ele>
        <time>2022-07-16T05:13:50Z</time>
      </trkpt>
      <trkpt lat="45.65598" lon="6.49804">
        <ele>2201</ele>
        <time>2022-07-16T05:13:52Z</time>
      </trkpt>
      <trkpt lat="45.65595" lon="6.49805">
        <ele>2200</ele>
        <time>2022-07-16T05:13:54Z</time>
      </trkpt>
      <trkpt lat="45.65593" lon="6.49806">
        <ele>2199</ele>
        <time>2022-07-16T05:13:56Z</time>
      </trkpt>
      <trkpt lat="45.65591" lon="6.49806">
        <ele>2198</ele>
        <time>2022-07-16T05:13:58Z</time>
      </trkpt>
      <trkpt lat="45.65589" lon="6.49807">
        <ele>2197</ele>
        <time>2022-07-16T05:14:00Z</time>
      </trkpt>
      <trkpt lat="45.65586" lon="6.49807">
        <ele>2197</ele>
        <time>2022-07-16T05:14:02Z</time>
      </trkpt>
      <trkpt lat="45.65584" lon="6.49807">
        <ele>2196</ele>
        <time>2022-07-16T05:14:04Z</time>
      </trkpt>
      <trkpt lat="45.65582" lon="6.49809">
        <ele>2193</ele>
        <time>2022-07-16T05:14:06Z</time>
      </trkpt>
      <trkpt lat="45.65579" lon="6.49808">
        <ele>2192</ele>
        <time>2022-07-16T05:14:08Z</time>
      </trkpt>
      <trkpt lat="45.65577" lon="6.49808">
        <ele>2192</ele>
        <time>2022-07-16T05:14:10Z</time>
      </trkpt>
      <trkpt lat="45.65574" lon="6.49809">
        <ele>2191</ele>
        <time>2022-07-16T05:14:12Z</time>
      </trkpt>
      <trkpt lat="45.65572" lon="6.4981">
        <ele>2190</ele>
        <time>2022-07-16T05:14:14Z</time>
      </trkpt>
      <trkpt lat="45.65569" lon="6.49811">
        <ele>2189</ele>
        <time>2022-07-16T05:14:16Z</time>
      </trkpt>
      <trkpt lat="45.65566" lon="6.49812">
        <ele>2188</ele>
        <time>2022-07-16T05:14:18Z</time>
      </trkpt>
      <trkpt lat="45.65564" lon="6.49813">
        <ele>2186</ele>
        <time>2022-07-16T05:14:20Z</time>
      </trkpt>
      <trkpt lat="45.65561" lon="6.49814">
        <ele>2185</ele>
        <time>2022-07-16T05:14:22Z</time>
      </trkpt>
      <trkpt lat="45.65558" lon="6.49814">
        <ele>2185</ele>
        <time>2022-07-16T05:14:24Z</time>
      </trkpt>
      <trkpt lat="45.65556" lon="6.49814">
        <ele>2185</ele>
        <time>2022-07-16T05:14:26Z</time>
      </trkpt>
      <trkpt lat="45.65554" lon="6.49815">
        <ele>2183</ele>
        <time>2022-07-16T05:14:28Z</time>
      </trkpt>
      <trkpt lat="45.65552" lon="6.49817">
        <ele>2183</ele>
        <time>2022-07-16T05:14:30Z</time>
      </trkpt>
      <trkpt lat="45.6555" lon="6.49819">
        <ele>2182</ele>
        <time>2022-07-16T05:14:32Z</time>
      </trkpt>
      <trkpt lat="45.65548" lon="6.49822">
        <ele>2181</ele>
        <time>2022-07-16T05:14:34Z</time>
      </trkpt>
      <trkpt lat="45.65546" lon="6.49825">
        <ele>2179</ele>
        <time>2022-07-16T05:14:36Z</time>
      </trkpt>
      <trkpt lat="45.65543" lon="6.49826">
        <ele>2179</ele>
        <time>2022-07-16T05:14:38Z</time>
      </trkpt>
      <trkpt lat="45.65541" lon="6.49827">
        <ele>2178</ele>
        <time>2022-07-16T05:14:40Z</time>
      </trkpt>
      <trkpt lat="45.6554" lon="6.49829">
        <ele>2178</ele>
        <time>2022-07-16T05:14:42Z</time>
      </trkpt>
      <trkpt lat="45.65538" lon="6.49831">
        <ele>2177</ele>
        <time>2022-07-16T05:14:44Z</time>
      </trkpt>
      <trkpt lat="45.65535" lon="6.49832">
        <ele>2176</ele>
        <time>2022-07-16T05:14:46Z</time>
      </trkpt>
      <trkpt lat="45.65533" lon="6.49832">
        <ele>2176</ele>
        <time>2022-07-16T05:14:48Z</time>
      </trkpt>
      <trkpt lat="45.65531" lon="6.49833">
        <ele>2175</ele>
        <time>2022-07-16T05:14:50Z</time>
      </trkpt>
      <trkpt lat="45.65528" lon="6.49834">
        <ele>2174</ele>
        <time>2022-07-16T05:14:52Z</time>
      </trkpt>
      <trkpt lat="45.65526" lon="6.49835">
        <ele>2174</ele>
        <time>2022-07-16T05:14:54Z</time>
      </trkpt>
      <trkpt lat="45.65524" lon="6.49833">
        <ele>2173</ele>
        <time>2022-07-16T05:14:56Z</time>
      </trkpt>
      <trkpt lat="45.65521" lon="6.49833">
        <ele>2173</ele>
        <time>2022-07-16T05:14:58Z</time>
      </trkpt>
      <trkpt lat="45.65518" lon="6.49832">
        <ele>2173</ele>
        <time>2022-07-16T05:15:00Z</time>
      </trkpt>
      <trkpt lat="45.65515" lon="6.49832">
        <ele>2170</ele>
        <time>2022-07-16T05:15:02Z</time>
      </trkpt>
      <trkpt lat="45.65513" lon="6.49833">
        <ele>2170</ele>
        <time>2022-07-16T05:15:04Z</time>
      </trkpt>
      <trkpt lat="45.65512" lon="6.49835">
        <ele>2168</ele>
        <time>2022-07-16T05:15:06Z</time>
      </trkpt>
      <trkpt lat="45.65509" lon="6.49836">
        <ele>2168</ele>
        <time>2022-07-16T05:15:08Z</time>
      </trkpt>
      <trkpt lat="45.65507" lon="6.49837">
        <ele>2166</ele>
        <time>2022-07-16T05:15:10Z</time>
      </trkpt>
      <trkpt lat="45.65504" lon="6.49838">
        <ele>2166</ele>
        <time>2022-07-16T05:15:12Z</time>
      </trkpt>
      <trkpt lat="45.65501" lon="6.49838">
        <ele>2165</ele>
        <time>2022-07-16T05:15:14Z</time>
      </trkpt>
      <trkpt lat="45.65498" lon="6.49837">
        <ele>2165</ele>
        <time>2022-07-16T05:15:16Z</time>
      </trkpt>
      <trkpt lat="45.65496" lon="6.49837">
        <ele>2164</ele>
        <time>2022-07-16T05:15:17Z</time>
      </trkpt>
      <trkpt lat="45.65495" lon="6.49836">
        <ele>2164</ele>
        <time>2022-07-16T05:15:18Z</time>
      </trkpt>
      <trkpt lat="45.65493" lon="6.49836">
        <ele>2164</ele>
        <time>2022-07-16T05:15:19Z</time>
      </trkpt>
      <trkpt lat="45.65491" lon="6.49836">
        <ele>2163</ele>
        <time>2022-07-16T05:15:20Z</time>
      </trkpt>
      <trkpt lat="45.65488" lon="6.49835">
        <ele>2162</ele>
        <time>2022-07-16T05:15:22Z</time>
      </trkpt>
      <trkpt lat="45.65486" lon="6.49834">
        <ele>2162</ele>
        <time>2022-07-16T05:15:23Z</time>
      </trkpt>
      <trkpt lat="45.65484" lon="6.49833">
        <ele>2162</ele>
        <time>2022-07-16T05:15:24Z</time>
      </trkpt>
      <trkpt lat="45.65482" lon="6.49832">
        <ele>2162</ele>
        <time>2022-07-16T05:15:25Z</time>
      </trkpt>
      <trkpt lat="45.6548" lon="6.49831">
        <ele>2162</ele>
        <time>2022-07-16T05:15:26Z</time>
      </trkpt>
      <trkpt lat="45.65478" lon="6.49831">
        <ele>2162</ele>
        <time>2022-07-16T05:15:27Z</time>
      </trkpt>
      <trkpt lat="45.65476" lon="6.49831">
        <ele>2162</ele>
        <time>2022-07-16T05:15:28Z</time>
      </trkpt>
      <trkpt lat="45.65475" lon="6.49831">
        <ele>2161</ele>
        <time>2022-07-16T05:15:29Z</time>
      </trkpt>
      <trkpt lat="45.65473" lon="6.4983">
        <ele>2160</ele>
        <time>2022-07-16T05:15:30Z</time>
      </trkpt>
      <trkpt lat="45.65471" lon="6.4983">
        <ele>2160</ele>
        <time>2022-07-16T05:15:31Z</time>
      </trkpt>
      <trkpt lat="45.65469" lon="6.49831">
        <ele>2160</ele>
        <time>2022-07-16T05:15:32Z</time>
      </trkpt>
      <trkpt lat="45.65467" lon="6.49831">
        <ele>2159</ele>
        <time>2022-07-16T05:15:33Z</time>
      </trkpt>
      <trkpt lat="45.65465" lon="6.49832">
        <ele>2159</ele>
        <time>2022-07-16T05:15:34Z</time>
      </trkpt>
      <trkpt lat="45.65463" lon="6.49832">
        <ele>2159</ele>
        <time>2022-07-16T05:15:35Z</time>
      </trkpt>
      <trkpt lat="45.65461" lon="6.49833">
        <ele>2159</ele>
        <time>2022-07-16T05:15:36Z</time>
      </trkpt>
      <trkpt lat="45.65459" lon="6.49834">
        <ele>2159</ele>
        <time>2022-07-16T05:15:37Z</time>
      </trkpt>
      <trkpt lat="45.65457" lon="6.49835">
        <ele>2159</ele>
        <time>2022-07-16T05:15:38Z</time>
      </trkpt>
      <trkpt lat="45.65456" lon="6.49837">
        <ele>2158</ele>
        <time>2022-07-16T05:15:39Z</time>
      </trkpt>
      <trkpt lat="45.65454" lon="6.49838">
        <ele>2157</ele>
        <time>2022-07-16T05:15:40Z</time>
      </trkpt>
      <trkpt lat="45.65452" lon="6.49839">
        <ele>2157</ele>
        <time>2022-07-16T05:15:41Z</time>
      </trkpt>
      <trkpt lat="45.6545" lon="6.49841">
        <ele>2156</ele>
        <time>2022-07-16T05:15:42Z</time>
      </trkpt>
      <trkpt lat="45.65449" lon="6.49842">
        <ele>2156</ele>
        <time>2022-07-16T05:15:43Z</time>
      </trkpt>
      <trkpt lat="45.65447" lon="6.49844">
        <ele>2156</ele>
        <time>2022-07-16T05:15:44Z</time>
      </trkpt>
      <trkpt lat="45.65445" lon="6.49847">
        <ele>2156</ele>
        <time>2022-07-16T05:15:46Z</time>
      </trkpt>
      <trkpt lat="45.65444" lon="6.49851">
        <ele>2155</ele>
        <time>2022-07-16T05:15:48Z</time>
      </trkpt>
      <trkpt lat="45.65445" lon="6.49855">
        <ele>2155</ele>
        <time>2022-07-16T05:15:50Z</time>
      </trkpt>
      <trkpt lat="45.65445" lon="6.4986">
        <ele>2153</ele>
        <time>2022-07-16T05:15:52Z</time>
      </trkpt>
      <trkpt lat="45.65446" lon="6.49863">
        <ele>2153</ele>
        <time>2022-07-16T05:15:53Z</time>
      </trkpt>
      <trkpt lat="45.65446" lon="6.49865">
        <ele>2153</ele>
        <time>2022-07-16T05:15:54Z</time>
      </trkpt>
      <trkpt lat="45.65446" lon="6.4987">
        <ele>2152</ele>
        <time>2022-07-16T05:15:56Z</time>
      </trkpt>
      <trkpt lat="45.65446" lon="6.49875">
        <ele>2152</ele>
        <time>2022-07-16T05:15:58Z</time>
      </trkpt>
      <trkpt lat="45.65445" lon="6.49879">
        <ele>2150</ele>
        <time>2022-07-16T05:16:00Z</time>
      </trkpt>
      <trkpt lat="45.65443" lon="6.49883">
        <ele>2150</ele>
        <time>2022-07-16T05:16:02Z</time>
      </trkpt>
      <trkpt lat="45.65442" lon="6.49886">
        <ele>2149</ele>
        <time>2022-07-16T05:16:04Z</time>
      </trkpt>
      <trkpt lat="45.6544" lon="6.49889">
        <ele>2148</ele>
        <time>2022-07-16T05:16:06Z</time>
      </trkpt>
      <trkpt lat="45.65439" lon="6.49892">
        <ele>2148</ele>
        <time>2022-07-16T05:16:08Z</time>
      </trkpt>
      <trkpt lat="45.65438" lon="6.49895">
        <ele>2146</ele>
        <time>2022-07-16T05:16:10Z</time>
      </trkpt>
      <trkpt lat="45.65436" lon="6.49899">
        <ele>2146</ele>
        <time>2022-07-16T05:16:12Z</time>
      </trkpt>
      <trkpt lat="45.65435" lon="6.49903">
        <ele>2145</ele>
        <time>2022-07-16T05:16:14Z</time>
      </trkpt>
      <trkpt lat="45.65433" lon="6.49906">
        <ele>2145</ele>
        <time>2022-07-16T05:16:16Z</time>
      </trkpt>
      <trkpt lat="45.65432" lon="6.4991">
        <ele>2142</ele>
        <time>2022-07-16T05:16:18Z</time>
      </trkpt>
      <trkpt lat="45.6543" lon="6.49912">
        <ele>2141</ele>
        <time>2022-07-16T05:16:20Z</time>
      </trkpt>
      <trkpt lat="45.65429" lon="6.49916">
        <ele>2140</ele>
        <time>2022-07-16T05:16:22Z</time>
      </trkpt>
      <trkpt lat="45.65428" lon="6.49918">
        <ele>2139</ele>
        <time>2022-07-16T05:16:24Z</time>
      </trkpt>
      <trkpt lat="45.65428" lon="6.49922">
        <ele>2139</ele>
        <time>2022-07-16T05:16:26Z</time>
      </trkpt>
      <trkpt lat="45.65427" lon="6.49925">
        <ele>2137</ele>
        <time>2022-07-16T05:16:28Z</time>
      </trkpt>
      <trkpt lat="45.65429" lon="6.49928">
        <ele>2136</ele>
        <time>2022-07-16T05:16:30Z</time>
      </trkpt>
      <trkpt lat="45.65431" lon="6.4993">
        <ele>2135</ele>
        <time>2022-07-16T05:16:32Z</time>
      </trkpt>
      <trkpt lat="45.65433" lon="6.4993">
        <ele>2135</ele>
        <time>2022-07-16T05:16:33Z</time>
      </trkpt>
      <trkpt lat="45.65437" lon="6.49929">
        <ele>2135</ele>
        <time>2022-07-16T05:16:35Z</time>
      </trkpt>
      <trkpt lat="45.65439" lon="6.4993">
        <ele>2135</ele>
        <time>2022-07-16T05:16:36Z</time>
      </trkpt>
      <trkpt lat="45.65441" lon="6.49933">
        <ele>2134</ele>
        <time>2022-07-16T05:16:38Z</time>
      </trkpt>
      <trkpt lat="45.65444" lon="6.49937">
        <ele>2133</ele>
        <time>2022-07-16T05:16:40Z</time>
      </trkpt>
      <trkpt lat="45.65445" lon="6.4994">
        <ele>2133</ele>
        <time>2022-07-16T05:16:41Z</time>
      </trkpt>
      <trkpt lat="45.65445" lon="6.49945">
        <ele>2131</ele>
        <time>2022-07-16T05:16:43Z</time>
      </trkpt>
      <trkpt lat="45.65443" lon="6.49948">
        <ele>2131</ele>
        <time>2022-07-16T05:16:45Z</time>
      </trkpt>
      <trkpt lat="45.65441" lon="6.49952">
        <ele>2131</ele>
        <time>2022-07-16T05:16:47Z</time>
      </trkpt>
      <trkpt lat="45.65439" lon="6.49956">
        <ele>2130</ele>
        <time>2022-07-16T05:16:49Z</time>
      </trkpt>
      <trkpt lat="45.65438" lon="6.49959">
        <ele>2129</ele>
        <time>2022-07-16T05:16:51Z</time>
      </trkpt>
      <trkpt lat="45.65435" lon="6.49962">
        <ele>2128</ele>
        <time>2022-07-16T05:16:53Z</time>
      </trkpt>
      <trkpt lat="45.65433" lon="6.49966">
        <ele>2127</ele>
        <time>2022-07-16T05:16:55Z</time>
      </trkpt>
      <trkpt lat="45.6543" lon="6.49968">
        <ele>2126</ele>
        <time>2022-07-16T05:16:57Z</time>
      </trkpt>
      <trkpt lat="45.65428" lon="6.4997">
        <ele>2125</ele>
        <time>2022-07-16T05:16:59Z</time>
      </trkpt>
      <trkpt lat="45.65425" lon="6.49972">
        <ele>2125</ele>
        <time>2022-07-16T05:17:01Z</time>
      </trkpt>
      <trkpt lat="45.65423" lon="6.49974">
        <ele>2124</ele>
        <time>2022-07-16T05:17:03Z</time>
      </trkpt>
      <trkpt lat="45.65421" lon="6.49975">
        <ele>2123</ele>
        <time>2022-07-16T05:17:05Z</time>
      </trkpt>
      <trkpt lat="45.65418" lon="6.49976">
        <ele>2122</ele>
        <time>2022-07-16T05:17:07Z</time>
      </trkpt>
      <trkpt lat="45.65416" lon="6.49977">
        <ele>2121</ele>
        <time>2022-07-16T05:17:09Z</time>
      </trkpt>
      <trkpt lat="45.65414" lon="6.4998">
        <ele>2120</ele>
        <time>2022-07-16T05:17:12Z</time>
      </trkpt>
      <trkpt lat="45.65412" lon="6.49983">
        <ele>2119</ele>
        <time>2022-07-16T05:17:14Z</time>
      </trkpt>
      <trkpt lat="45.6541" lon="6.49986">
        <ele>2118</ele>
        <time>2022-07-16T05:17:16Z</time>
      </trkpt>
      <trkpt lat="45.65407" lon="6.49988">
        <ele>2115</ele>
        <time>2022-07-16T05:17:18Z</time>
      </trkpt>
      <trkpt lat="45.65404" lon="6.4999">
        <ele>2114</ele>
        <time>2022-07-16T05:17:20Z</time>
      </trkpt>
      <trkpt lat="45.65403" lon="6.49992">
        <ele>2114</ele>
        <time>2022-07-16T05:17:21Z</time>
      </trkpt>
      <trkpt lat="45.654" lon="6.49993">
        <ele>2114</ele>
        <time>2022-07-16T05:17:23Z</time>
      </trkpt>
      <trkpt lat="45.65397" lon="6.49994">
        <ele>2113</ele>
        <time>2022-07-16T05:17:25Z</time>
      </trkpt>
      <trkpt lat="45.65395" lon="6.49996">
        <ele>2112</ele>
        <time>2022-07-16T05:17:27Z</time>
      </trkpt>
      <trkpt lat="45.65394" lon="6.49998">
        <ele>2111</ele>
        <time>2022-07-16T05:17:30Z</time>
      </trkpt>
      <trkpt lat="45.65397" lon="6.49999">
        <ele>2109</ele>
        <time>2022-07-16T05:17:34Z</time>
      </trkpt>
      <trkpt lat="45.65398" lon="6.50001">
        <ele>2108</ele>
        <time>2022-07-16T05:17:36Z</time>
      </trkpt>
      <trkpt lat="45.65401" lon="6.50004">
        <ele>2108</ele>
        <time>2022-07-16T05:17:38Z</time>
      </trkpt>
      <trkpt lat="45.65403" lon="6.50005">
        <ele>2106</ele>
        <time>2022-07-16T05:17:40Z</time>
      </trkpt>
      <trkpt lat="45.65406" lon="6.50005">
        <ele>2105</ele>
        <time>2022-07-16T05:17:42Z</time>
      </trkpt>
      <trkpt lat="45.65409" lon="6.50006">
        <ele>2105</ele>
        <time>2022-07-16T05:17:44Z</time>
      </trkpt>
      <trkpt lat="45.65411" lon="6.50007">
        <ele>2104</ele>
        <time>2022-07-16T05:17:45Z</time>
      </trkpt>
      <trkpt lat="45.65415" lon="6.50008">
        <ele>2103</ele>
        <time>2022-07-16T05:17:47Z</time>
      </trkpt>
      <trkpt lat="45.65417" lon="6.5001">
        <ele>2103</ele>
        <time>2022-07-16T05:17:49Z</time>
      </trkpt>
      <trkpt lat="45.65419" lon="6.50011">
        <ele>2103</ele>
        <time>2022-07-16T05:17:50Z</time>
      </trkpt>
      <trkpt lat="45.65422" lon="6.50013">
        <ele>2102</ele>
        <time>2022-07-16T05:17:52Z</time>
      </trkpt>
      <trkpt lat="45.65425" lon="6.50016">
        <ele>2100</ele>
        <time>2022-07-16T05:17:54Z</time>
      </trkpt>
      <trkpt lat="45.65428" lon="6.5002">
        <ele>2099</ele>
        <time>2022-07-16T05:17:56Z</time>
      </trkpt>
      <trkpt lat="45.65429" lon="6.50021">
        <ele>2099</ele>
        <time>2022-07-16T05:17:57Z</time>
      </trkpt>
      <trkpt lat="45.65431" lon="6.50023">
        <ele>2098</ele>
        <time>2022-07-16T05:17:58Z</time>
      </trkpt>
      <trkpt lat="45.65432" lon="6.50025">
        <ele>2098</ele>
        <time>2022-07-16T05:17:59Z</time>
      </trkpt>
      <trkpt lat="45.65434" lon="6.50029">
        <ele>2097</ele>
        <time>2022-07-16T05:18:01Z</time>
      </trkpt>
      <trkpt lat="45.65436" lon="6.50033">
        <ele>2095</ele>
        <time>2022-07-16T05:18:03Z</time>
      </trkpt>
      <trkpt lat="45.65436" lon="6.50036">
        <ele>2095</ele>
        <time>2022-07-16T05:18:05Z</time>
      </trkpt>
      <trkpt lat="45.65436" lon="6.50041">
        <ele>2095</ele>
        <time>2022-07-16T05:18:07Z</time>
      </trkpt>
      <trkpt lat="45.65435" lon="6.50044">
        <ele>2095</ele>
        <time>2022-07-16T05:18:08Z</time>
      </trkpt>
      <trkpt lat="45.65435" lon="6.50047">
        <ele>2095</ele>
        <time>2022-07-16T05:18:09Z</time>
      </trkpt>
      <trkpt lat="45.65436" lon="6.5005">
        <ele>2093</ele>
        <time>2022-07-16T05:18:11Z</time>
      </trkpt>
      <trkpt lat="45.65437" lon="6.50053">
        <ele>2092</ele>
        <time>2022-07-16T05:18:13Z</time>
      </trkpt>
      <trkpt lat="45.65439" lon="6.50057">
        <ele>2090</ele>
        <time>2022-07-16T05:18:15Z</time>
      </trkpt>
      <trkpt lat="45.65441" lon="6.5006">
        <ele>2089</ele>
        <time>2022-07-16T05:18:17Z</time>
      </trkpt>
      <trkpt lat="45.65444" lon="6.50062">
        <ele>2088</ele>
        <time>2022-07-16T05:18:19Z</time>
      </trkpt>
      <trkpt lat="45.65446" lon="6.50064">
        <ele>2087</ele>
        <time>2022-07-16T05:18:21Z</time>
      </trkpt>
      <trkpt lat="45.65448" lon="6.50068">
        <ele>2087</ele>
        <time>2022-07-16T05:18:23Z</time>
      </trkpt>
      <trkpt lat="45.65451" lon="6.50071">
        <ele>2087</ele>
        <time>2022-07-16T05:18:25Z</time>
      </trkpt>
      <trkpt lat="45.65453" lon="6.50073">
        <ele>2087</ele>
        <time>2022-07-16T05:18:27Z</time>
      </trkpt>
      <trkpt lat="45.65455" lon="6.50074">
        <ele>2087</ele>
        <time>2022-07-16T05:18:28Z</time>
      </trkpt>
      <trkpt lat="45.65457" lon="6.50075">
        <ele>2086</ele>
        <time>2022-07-16T05:18:30Z</time>
      </trkpt>
      <trkpt lat="45.65461" lon="6.50075">
        <ele>2085</ele>
        <time>2022-07-16T05:18:32Z</time>
      </trkpt>
      <trkpt lat="45.65463" lon="6.50076">
        <ele>2085</ele>
        <time>2022-07-16T05:18:34Z</time>
      </trkpt>
      <trkpt lat="45.65465" lon="6.50078">
        <ele>2085</ele>
        <time>2022-07-16T05:18:36Z</time>
      </trkpt>
      <trkpt lat="45.65467" lon="6.50081">
        <ele>2085</ele>
        <time>2022-07-16T05:18:38Z</time>
      </trkpt>
      <trkpt lat="45.65466" lon="6.50083">
        <ele>2084</ele>
        <time>2022-07-16T05:18:39Z</time>
      </trkpt>
      <trkpt lat="45.65465" lon="6.50085">
        <ele>2083</ele>
        <time>2022-07-16T05:18:40Z</time>
      </trkpt>
      <trkpt lat="45.65465" lon="6.50087">
        <ele>2083</ele>
        <time>2022-07-16T05:18:41Z</time>
      </trkpt>
      <trkpt lat="45.65462" lon="6.50087">
        <ele>2082</ele>
        <time>2022-07-16T05:18:44Z</time>
      </trkpt>
      <trkpt lat="45.6546" lon="6.50088">
        <ele>2082</ele>
        <time>2022-07-16T05:18:46Z</time>
      </trkpt>
      <trkpt lat="45.65459" lon="6.5009">
        <ele>2081</ele>
        <time>2022-07-16T05:18:48Z</time>
      </trkpt>
      <trkpt lat="45.65457" lon="6.50094">
        <ele>2080</ele>
        <time>2022-07-16T05:18:50Z</time>
      </trkpt>
      <trkpt lat="45.65456" lon="6.50097">
        <ele>2079</ele>
        <time>2022-07-16T05:18:52Z</time>
      </trkpt>
      <trkpt lat="45.65456" lon="6.501">
        <ele>2079</ele>
        <time>2022-07-16T05:18:54Z</time>
      </trkpt>
      <trkpt lat="45.65454" lon="6.50104">
        <ele>2078</ele>
        <time>2022-07-16T05:18:56Z</time>
      </trkpt>
      <trkpt lat="45.65452" lon="6.50105">
        <ele>2077</ele>
        <time>2022-07-16T05:18:58Z</time>
      </trkpt>
      <trkpt lat="45.65451" lon="6.50107">
        <ele>2076</ele>
        <time>2022-07-16T05:19:00Z</time>
      </trkpt>
      <trkpt lat="45.65449" lon="6.50109">
        <ele>2075</ele>
        <time>2022-07-16T05:19:02Z</time>
      </trkpt>
      <trkpt lat="45.65446" lon="6.50111">
        <ele>2074</ele>
        <time>2022-07-16T05:19:04Z</time>
      </trkpt>
      <trkpt lat="45.65444" lon="6.50113">
        <ele>2073</ele>
        <time>2022-07-16T05:19:06Z</time>
      </trkpt>
      <trkpt lat="45.65441" lon="6.50116">
        <ele>2072</ele>
        <time>2022-07-16T05:19:08Z</time>
      </trkpt>
      <trkpt lat="45.6544" lon="6.50119">
        <ele>2071</ele>
        <time>2022-07-16T05:19:10Z</time>
      </trkpt>
      <trkpt lat="45.65439" lon="6.50122">
        <ele>2069</ele>
        <time>2022-07-16T05:19:13Z</time>
      </trkpt>
      <trkpt lat="45.6544" lon="6.50125">
        <ele>2069</ele>
        <time>2022-07-16T05:19:15Z</time>
      </trkpt>
      <trkpt lat="45.65441" lon="6.50128">
        <ele>2068</ele>
        <time>2022-07-16T05:19:17Z</time>
      </trkpt>
      <trkpt lat="45.6544" lon="6.50131">
        <ele>2068</ele>
        <time>2022-07-16T05:19:19Z</time>
      </trkpt>
      <trkpt lat="45.65439" lon="6.50135">
        <ele>2067</ele>
        <time>2022-07-16T05:19:22Z</time>
      </trkpt>
      <trkpt lat="45.65438" lon="6.50138">
        <ele>2064</ele>
        <time>2022-07-16T05:19:24Z</time>
      </trkpt>
      <trkpt lat="45.65438" lon="6.50142">
        <ele>2064</ele>
        <time>2022-07-16T05:19:26Z</time>
      </trkpt>
      <trkpt lat="45.65437" lon="6.50146">
        <ele>2061</ele>
        <time>2022-07-16T05:19:28Z</time>
      </trkpt>
      <trkpt lat="45.65435" lon="6.50148">
        <ele>2061</ele>
        <time>2022-07-16T05:19:29Z</time>
      </trkpt>
      <trkpt lat="45.65433" lon="6.5015">
        <ele>2061</ele>
        <time>2022-07-16T05:19:31Z</time>
      </trkpt>
      <trkpt lat="45.65431" lon="6.50154">
        <ele>2061</ele>
        <time>2022-07-16T05:19:33Z</time>
      </trkpt>
      <trkpt lat="45.6543" lon="6.50157">
        <ele>2060</ele>
        <time>2022-07-16T05:19:34Z</time>
      </trkpt>
      <trkpt lat="45.65429" lon="6.50159">
        <ele>2059</ele>
        <time>2022-07-16T05:19:35Z</time>
      </trkpt>
      <trkpt lat="45.65427" lon="6.50162">
        <ele>2058</ele>
        <time>2022-07-16T05:19:37Z</time>
      </trkpt>
      <trkpt lat="45.65424" lon="6.50164">
        <ele>2058</ele>
        <time>2022-07-16T05:19:39Z</time>
      </trkpt>
      <trkpt lat="45.65423" lon="6.50166">
        <ele>2057</ele>
        <time>2022-07-16T05:19:41Z</time>
      </trkpt>
      <trkpt lat="45.65422" lon="6.50169">
        <ele>2056</ele>
        <time>2022-07-16T05:19:44Z</time>
      </trkpt>
      <trkpt lat="45.65421" lon="6.50171">
        <ele>2054</ele>
        <time>2022-07-16T05:19:46Z</time>
      </trkpt>
      <trkpt lat="45.6542" lon="6.50175">
        <ele>2053</ele>
        <time>2022-07-16T05:19:48Z</time>
      </trkpt>
      <trkpt lat="45.65417" lon="6.50177">
        <ele>2052</ele>
        <time>2022-07-16T05:19:50Z</time>
      </trkpt>
      <trkpt lat="45.65415" lon="6.50178">
        <ele>2051</ele>
        <time>2022-07-16T05:19:52Z</time>
      </trkpt>
      <trkpt lat="45.65412" lon="6.50178">
        <ele>2050</ele>
        <time>2022-07-16T05:19:54Z</time>
      </trkpt>
      <trkpt lat="45.65409" lon="6.50179">
        <ele>2049</ele>
        <time>2022-07-16T05:19:56Z</time>
      </trkpt>
      <trkpt lat="45.65406" lon="6.5018">
        <ele>2049</ele>
        <time>2022-07-16T05:19:58Z</time>
      </trkpt>
      <trkpt lat="45.65404" lon="6.50182">
        <ele>2047</ele>
        <time>2022-07-16T05:20:00Z</time>
      </trkpt>
      <trkpt lat="45.65402" lon="6.50185">
        <ele>2046</ele>
        <time>2022-07-16T05:20:04Z</time>
      </trkpt>
      <trkpt lat="45.654" lon="6.50187">
        <ele>2045</ele>
        <time>2022-07-16T05:20:06Z</time>
      </trkpt>
      <trkpt lat="45.65397" lon="6.50189">
        <ele>2044</ele>
        <time>2022-07-16T05:20:08Z</time>
      </trkpt>
      <trkpt lat="45.65395" lon="6.50191">
        <ele>2043</ele>
        <time>2022-07-16T05:20:10Z</time>
      </trkpt>
      <trkpt lat="45.65394" lon="6.50194">
        <ele>2042</ele>
        <time>2022-07-16T05:20:12Z</time>
      </trkpt>
      <trkpt lat="45.65394" lon="6.50197">
        <ele>2041</ele>
        <time>2022-07-16T05:20:14Z</time>
      </trkpt>
      <trkpt lat="45.65394" lon="6.50201">
        <ele>2041</ele>
        <time>2022-07-16T05:20:16Z</time>
      </trkpt>
      <trkpt lat="45.65394" lon="6.50204">
        <ele>2037</ele>
        <time>2022-07-16T05:20:18Z</time>
      </trkpt>
      <trkpt lat="45.65395" lon="6.50207">
        <ele>2037</ele>
        <time>2022-07-16T05:20:20Z</time>
      </trkpt>
      <trkpt lat="45.65396" lon="6.5021">
        <ele>2037</ele>
        <time>2022-07-16T05:20:22Z</time>
      </trkpt>
      <trkpt lat="45.65397" lon="6.50214">
        <ele>2035</ele>
        <time>2022-07-16T05:20:24Z</time>
      </trkpt>
      <trkpt lat="45.65399" lon="6.50216">
        <ele>2034</ele>
        <time>2022-07-16T05:20:26Z</time>
      </trkpt>
      <trkpt lat="45.65401" lon="6.5022">
        <ele>2034</ele>
        <time>2022-07-16T05:20:28Z</time>
      </trkpt>
      <trkpt lat="45.65401" lon="6.50222">
        <ele>2033</ele>
        <time>2022-07-16T05:20:29Z</time>
      </trkpt>
      <trkpt lat="45.65401" lon="6.50225">
        <ele>2033</ele>
        <time>2022-07-16T05:20:30Z</time>
      </trkpt>
      <trkpt lat="45.65401" lon="6.50228">
        <ele>2032</ele>
        <time>2022-07-16T05:20:31Z</time>
      </trkpt>
      <trkpt lat="45.65402" lon="6.5023">
        <ele>2031</ele>
        <time>2022-07-16T05:20:32Z</time>
      </trkpt>
      <trkpt lat="45.65402" lon="6.50233">
        <ele>2031</ele>
        <time>2022-07-16T05:20:33Z</time>
      </trkpt>
      <trkpt lat="45.654" lon="6.50235">
        <ele>2030</ele>
        <time>2022-07-16T05:20:34Z</time>
      </trkpt>
      <trkpt lat="45.65399" lon="6.50237">
        <ele>2030</ele>
        <time>2022-07-16T05:20:35Z</time>
      </trkpt>
      <trkpt lat="45.65398" lon="6.50238">
        <ele>2029</ele>
        <time>2022-07-16T05:20:36Z</time>
      </trkpt>
      <trkpt lat="45.65397" lon="6.5024">
        <ele>2029</ele>
        <time>2022-07-16T05:20:37Z</time>
      </trkpt>
      <trkpt lat="45.65395" lon="6.50242">
        <ele>2028</ele>
        <time>2022-07-16T05:20:38Z</time>
      </trkpt>
      <trkpt lat="45.65394" lon="6.50243">
        <ele>2028</ele>
        <time>2022-07-16T05:20:39Z</time>
      </trkpt>
      <trkpt lat="45.65392" lon="6.50244">
        <ele>2028</ele>
        <time>2022-07-16T05:20:40Z</time>
      </trkpt>
      <trkpt lat="45.65391" lon="6.50245">
        <ele>2028</ele>
        <time>2022-07-16T05:20:41Z</time>
      </trkpt>
      <trkpt lat="45.65389" lon="6.50246">
        <ele>2028</ele>
        <time>2022-07-16T05:20:42Z</time>
      </trkpt>
      <trkpt lat="45.65388" lon="6.50247">
        <ele>2028</ele>
        <time>2022-07-16T05:20:43Z</time>
      </trkpt>
      <trkpt lat="45.65386" lon="6.50248">
        <ele>2027</ele>
        <time>2022-07-16T05:20:44Z</time>
      </trkpt>
      <trkpt lat="45.65385" lon="6.50249">
        <ele>2026</ele>
        <time>2022-07-16T05:20:45Z</time>
      </trkpt>
      <trkpt lat="45.65383" lon="6.50249">
        <ele>2025</ele>
        <time>2022-07-16T05:20:46Z</time>
      </trkpt>
      <trkpt lat="45.65382" lon="6.5025">
        <ele>2025</ele>
        <time>2022-07-16T05:20:47Z</time>
      </trkpt>
      <trkpt lat="45.65379" lon="6.5025">
        <ele>2025</ele>
        <time>2022-07-16T05:20:49Z</time>
      </trkpt>
      <trkpt lat="45.65376" lon="6.5025">
        <ele>2024</ele>
        <time>2022-07-16T05:20:51Z</time>
      </trkpt>
      <trkpt lat="45.65374" lon="6.50251">
        <ele>2022</ele>
        <time>2022-07-16T05:20:55Z</time>
      </trkpt>
      <trkpt lat="45.65372" lon="6.50253">
        <ele>2021</ele>
        <time>2022-07-16T05:20:57Z</time>
      </trkpt>
      <trkpt lat="45.65369" lon="6.50254">
        <ele>2021</ele>
        <time>2022-07-16T05:20:59Z</time>
      </trkpt>
      <trkpt lat="45.65366" lon="6.50256">
        <ele>2020</ele>
        <time>2022-07-16T05:21:01Z</time>
      </trkpt>
      <trkpt lat="45.65364" lon="6.50256">
        <ele>2019</ele>
        <time>2022-07-16T05:21:03Z</time>
      </trkpt>
      <trkpt lat="45.65362" lon="6.50257">
        <ele>2018</ele>
        <time>2022-07-16T05:21:05Z</time>
      </trkpt>
      <trkpt lat="45.6536" lon="6.50257">
        <ele>2018</ele>
        <time>2022-07-16T05:21:07Z</time>
      </trkpt>
      <trkpt lat="45.65358" lon="6.50258">
        <ele>2017</ele>
        <time>2022-07-16T05:21:09Z</time>
      </trkpt>
      <trkpt lat="45.65355" lon="6.5026">
        <ele>2016</ele>
        <time>2022-07-16T05:21:11Z</time>
      </trkpt>
      <trkpt lat="45.65355" lon="6.50263">
        <ele>2015</ele>
        <time>2022-07-16T05:21:14Z</time>
      </trkpt>
      <trkpt lat="45.65357" lon="6.50266">
        <ele>2014</ele>
        <time>2022-07-16T05:21:16Z</time>
      </trkpt>
      <trkpt lat="45.65358" lon="6.50268">
        <ele>2012</ele>
        <time>2022-07-16T05:21:18Z</time>
      </trkpt>
      <trkpt lat="45.6536" lon="6.5027">
        <ele>2011</ele>
        <time>2022-07-16T05:21:20Z</time>
      </trkpt>
      <trkpt lat="45.65361" lon="6.50272">
        <ele>2009</ele>
        <time>2022-07-16T05:21:22Z</time>
      </trkpt>
      <trkpt lat="45.65362" lon="6.50275">
        <ele>2009</ele>
        <time>2022-07-16T05:21:25Z</time>
      </trkpt>
      <trkpt lat="45.65363" lon="6.50279">
        <ele>2008</ele>
        <time>2022-07-16T05:21:28Z</time>
      </trkpt>
      <trkpt lat="45.65363" lon="6.50281">
        <ele>2007</ele>
        <time>2022-07-16T05:21:30Z</time>
      </trkpt>
      <trkpt lat="45.65364" lon="6.50284">
        <ele>2006</ele>
        <time>2022-07-16T05:21:32Z</time>
      </trkpt>
      <trkpt lat="45.65366" lon="6.50287">
        <ele>2006</ele>
        <time>2022-07-16T05:21:34Z</time>
      </trkpt>
      <trkpt lat="45.65367" lon="6.50289">
        <ele>2005</ele>
        <time>2022-07-16T05:21:36Z</time>
      </trkpt>
      <trkpt lat="45.65368" lon="6.50292">
        <ele>2004</ele>
        <time>2022-07-16T05:21:39Z</time>
      </trkpt>
      <trkpt lat="45.6537" lon="6.50295">
        <ele>2004</ele>
        <time>2022-07-16T05:21:41Z</time>
      </trkpt>
      <trkpt lat="45.65371" lon="6.50298">
        <ele>2002</ele>
        <time>2022-07-16T05:21:43Z</time>
      </trkpt>
      <trkpt lat="45.65373" lon="6.503">
        <ele>2001</ele>
        <time>2022-07-16T05:21:45Z</time>
      </trkpt>
      <trkpt lat="45.65375" lon="6.50301">
        <ele>2001</ele>
        <time>2022-07-16T05:21:47Z</time>
      </trkpt>
      <trkpt lat="45.65377" lon="6.50302">
        <ele>1999</ele>
        <time>2022-07-16T05:21:49Z</time>
      </trkpt>
      <trkpt lat="45.65378" lon="6.50306">
        <ele>1998</ele>
        <time>2022-07-16T05:21:52Z</time>
      </trkpt>
      <trkpt lat="45.6538" lon="6.50307">
        <ele>1997</ele>
        <time>2022-07-16T05:21:54Z</time>
      </trkpt>
      <trkpt lat="45.65382" lon="6.50309">
        <ele>1996</ele>
        <time>2022-07-16T05:21:57Z</time>
      </trkpt>
      <trkpt lat="45.65385" lon="6.5031">
        <ele>1995</ele>
        <time>2022-07-16T05:21:59Z</time>
      </trkpt>
      <trkpt lat="45.65387" lon="6.50311">
        <ele>1994</ele>
        <time>2022-07-16T05:22:01Z</time>
      </trkpt>
      <trkpt lat="45.65389" lon="6.50311">
        <ele>1994</ele>
        <time>2022-07-16T05:22:02Z</time>
      </trkpt>
      <trkpt lat="45.65392" lon="6.50311">
        <ele>1994</ele>
        <time>2022-07-16T05:22:03Z</time>
      </trkpt>
      <trkpt lat="45.65394" lon="6.5031">
        <ele>1993</ele>
        <time>2022-07-16T05:22:04Z</time>
      </trkpt>
      <trkpt lat="45.65396" lon="6.50309">
        <ele>1992</ele>
        <time>2022-07-16T05:22:05Z</time>
      </trkpt>
      <trkpt lat="45.65398" lon="6.50308">
        <ele>1992</ele>
        <time>2022-07-16T05:22:06Z</time>
      </trkpt>
      <trkpt lat="45.654" lon="6.50307">
        <ele>1992</ele>
        <time>2022-07-16T05:22:07Z</time>
      </trkpt>
      <trkpt lat="45.65403" lon="6.50307">
        <ele>1992</ele>
        <time>2022-07-16T05:22:08Z</time>
      </trkpt>
      <trkpt lat="45.65405" lon="6.50306">
        <ele>1991</ele>
        <time>2022-07-16T05:22:09Z</time>
      </trkpt>
      <trkpt lat="45.65407" lon="6.50306">
        <ele>1991</ele>
        <time>2022-07-16T05:22:10Z</time>
      </trkpt>
      <trkpt lat="45.65409" lon="6.50306">
        <ele>1991</ele>
        <time>2022-07-16T05:22:11Z</time>
      </trkpt>
      <trkpt lat="45.65411" lon="6.50308">
        <ele>1990</ele>
        <time>2022-07-16T05:22:12Z</time>
      </trkpt>
      <trkpt lat="45.65412" lon="6.50311">
        <ele>1990</ele>
        <time>2022-07-16T05:22:13Z</time>
      </trkpt>
      <trkpt lat="45.65413" lon="6.50313">
        <ele>1990</ele>
        <time>2022-07-16T05:22:14Z</time>
      </trkpt>
      <trkpt lat="45.65414" lon="6.50316">
        <ele>1989</ele>
        <time>2022-07-16T05:22:15Z</time>
      </trkpt>
      <trkpt lat="45.65415" lon="6.50319">
        <ele>1989</ele>
        <time>2022-07-16T05:22:16Z</time>
      </trkpt>
      <trkpt lat="45.65415" lon="6.50321">
        <ele>1989</ele>
        <time>2022-07-16T05:22:17Z</time>
      </trkpt>
      <trkpt lat="45.65416" lon="6.50326">
        <ele>1989</ele>
        <time>2022-07-16T05:22:18Z</time>
      </trkpt>
      <trkpt lat="45.65417" lon="6.50331">
        <ele>1988</ele>
        <time>2022-07-16T05:22:19Z</time>
      </trkpt>
      <trkpt lat="45.65417" lon="6.50335">
        <ele>1988</ele>
        <time>2022-07-16T05:22:20Z</time>
      </trkpt>
      <trkpt lat="45.65419" lon="6.50338">
        <ele>1988</ele>
        <time>2022-07-16T05:22:21Z</time>
      </trkpt>
      <trkpt lat="45.65421" lon="6.5034">
        <ele>1988</ele>
        <time>2022-07-16T05:22:22Z</time>
      </trkpt>
      <trkpt lat="45.65422" lon="6.50343">
        <ele>1988</ele>
        <time>2022-07-16T05:22:23Z</time>
      </trkpt>
      <trkpt lat="45.65424" lon="6.50346">
        <ele>1988</ele>
        <time>2022-07-16T05:22:24Z</time>
      </trkpt>
      <trkpt lat="45.65425" lon="6.50348">
        <ele>1986</ele>
        <time>2022-07-16T05:22:25Z</time>
      </trkpt>
      <trkpt lat="45.65427" lon="6.50349">
        <ele>1986</ele>
        <time>2022-07-16T05:22:26Z</time>
      </trkpt>
      <trkpt lat="45.65428" lon="6.50351">
        <ele>1986</ele>
        <time>2022-07-16T05:22:27Z</time>
      </trkpt>
      <trkpt lat="45.65429" lon="6.50353">
        <ele>1986</ele>
        <time>2022-07-16T05:22:28Z</time>
      </trkpt>
      <trkpt lat="45.65431" lon="6.50354">
        <ele>1986</ele>
        <time>2022-07-16T05:22:29Z</time>
      </trkpt>
      <trkpt lat="45.65432" lon="6.50356">
        <ele>1986</ele>
        <time>2022-07-16T05:22:30Z</time>
      </trkpt>
      <trkpt lat="45.65432" lon="6.50358">
        <ele>1986</ele>
        <time>2022-07-16T05:22:31Z</time>
      </trkpt>
      <trkpt lat="45.65433" lon="6.50359">
        <ele>1986</ele>
        <time>2022-07-16T05:22:32Z</time>
      </trkpt>
      <trkpt lat="45.65433" lon="6.50361">
        <ele>1988</ele>
        <time>2022-07-16T05:22:33Z</time>
      </trkpt>
      <trkpt lat="45.65436" lon="6.50371">
        <ele>1988</ele>
        <time>2022-07-16T05:22:34Z</time>
      </trkpt>
      <trkpt lat="45.65436" lon="6.50374">
        <ele>1988</ele>
        <time>2022-07-16T05:22:35Z</time>
      </trkpt>
      <trkpt lat="45.65437" lon="6.50377">
        <ele>1988</ele>
        <time>2022-07-16T05:22:36Z</time>
      </trkpt>
      <trkpt lat="45.65437" lon="6.50381">
        <ele>1988</ele>
        <time>2022-07-16T05:22:37Z</time>
      </trkpt>
      <trkpt lat="45.65437" lon="6.50384">
        <ele>1988</ele>
        <time>2022-07-16T05:22:38Z</time>
      </trkpt>
      <trkpt lat="45.65438" lon="6.50388">
        <ele>1988</ele>
        <time>2022-07-16T05:22:39Z</time>
      </trkpt>
      <trkpt lat="45.65438" lon="6.50391">
        <ele>1988</ele>
        <time>2022-07-16T05:22:40Z</time>
      </trkpt>
      <trkpt lat="45.65438" lon="6.50395">
        <ele>1988</ele>
        <time>2022-07-16T05:22:41Z</time>
      </trkpt>
      <trkpt lat="45.65437" lon="6.50398">
        <ele>1988</ele>
        <time>2022-07-16T05:22:42Z</time>
      </trkpt>
      <trkpt lat="45.65435" lon="6.504">
        <ele>1988</ele>
        <time>2022-07-16T05:22:43Z</time>
      </trkpt>
      <trkpt lat="45.65434" lon="6.50403">
        <ele>1988</ele>
        <time>2022-07-16T05:22:44Z</time>
      </trkpt>
      <trkpt lat="45.65432" lon="6.50406">
        <ele>1988</ele>
        <time>2022-07-16T05:22:45Z</time>
      </trkpt>
      <trkpt lat="45.65432" lon="6.50407">
        <ele>1988</ele>
        <time>2022-07-16T05:22:46Z</time>
      </trkpt>
      <trkpt lat="45.65431" lon="6.50409">
        <ele>1988</ele>
        <time>2022-07-16T05:22:47Z</time>
      </trkpt>
      <trkpt lat="45.6543" lon="6.5041">
        <ele>1988</ele>
        <time>2022-07-16T05:22:48Z</time>
      </trkpt>
      <trkpt lat="45.6543" lon="6.50411">
        <ele>1988</ele>
        <time>2022-07-16T05:22:49Z</time>
      </trkpt>
      <trkpt lat="45.65429" lon="6.50413">
        <ele>1988</ele>
        <time>2022-07-16T05:22:50Z</time>
      </trkpt>
      <trkpt lat="45.65425" lon="6.50422">
        <ele>1988</ele>
        <time>2022-07-16T05:22:51Z</time>
      </trkpt>
      <trkpt lat="45.65424" lon="6.50425">
        <ele>1986</ele>
        <time>2022-07-16T05:22:52Z</time>
      </trkpt>
      <trkpt lat="45.65423" lon="6.50427">
        <ele>1986</ele>
        <time>2022-07-16T05:22:53Z</time>
      </trkpt>
      <trkpt lat="45.65423" lon="6.5043">
        <ele>1986</ele>
        <time>2022-07-16T05:22:54Z</time>
      </trkpt>
      <trkpt lat="45.65422" lon="6.50432">
        <ele>1986</ele>
        <time>2022-07-16T05:22:55Z</time>
      </trkpt>
      <trkpt lat="45.65421" lon="6.50436">
        <ele>1984</ele>
        <time>2022-07-16T05:22:56Z</time>
      </trkpt>
      <trkpt lat="45.65419" lon="6.5044">
        <ele>1983</ele>
        <time>2022-07-16T05:22:57Z</time>
      </trkpt>
      <trkpt lat="45.65418" lon="6.50444">
        <ele>1983</ele>
        <time>2022-07-16T05:22:58Z</time>
      </trkpt>
      <trkpt lat="45.65418" lon="6.50448">
        <ele>1983</ele>
        <time>2022-07-16T05:22:59Z</time>
      </trkpt>
      <trkpt lat="45.65416" lon="6.50451">
        <ele>1983</ele>
        <time>2022-07-16T05:23:00Z</time>
      </trkpt>
      <trkpt lat="45.65415" lon="6.50455">
        <ele>1983</ele>
        <time>2022-07-16T05:23:01Z</time>
      </trkpt>
      <trkpt lat="45.65414" lon="6.50457">
        <ele>1984</ele>
        <time>2022-07-16T05:23:02Z</time>
      </trkpt>
      <trkpt lat="45.65413" lon="6.5046">
        <ele>1984</ele>
        <time>2022-07-16T05:23:03Z</time>
      </trkpt>
      <trkpt lat="45.65412" lon="6.50463">
        <ele>1984</ele>
        <time>2022-07-16T05:23:04Z</time>
      </trkpt>
      <trkpt lat="45.65412" lon="6.50466">
        <ele>1983</ele>
        <time>2022-07-16T05:23:05Z</time>
      </trkpt>
      <trkpt lat="45.65411" lon="6.50469">
        <ele>1983</ele>
        <time>2022-07-16T05:23:06Z</time>
      </trkpt>
      <trkpt lat="45.6541" lon="6.50473">
        <ele>1983</ele>
        <time>2022-07-16T05:23:07Z</time>
      </trkpt>
      <trkpt lat="45.6541" lon="6.50476">
        <ele>1982</ele>
        <time>2022-07-16T05:23:08Z</time>
      </trkpt>
      <trkpt lat="45.6541" lon="6.50479">
        <ele>1982</ele>
        <time>2022-07-16T05:23:09Z</time>
      </trkpt>
      <trkpt lat="45.65409" lon="6.50483">
        <ele>1981</ele>
        <time>2022-07-16T05:23:10Z</time>
      </trkpt>
      <trkpt lat="45.65408" lon="6.50486">
        <ele>1981</ele>
        <time>2022-07-16T05:23:11Z</time>
      </trkpt>
      <trkpt lat="45.65408" lon="6.50489">
        <ele>1981</ele>
        <time>2022-07-16T05:23:12Z</time>
      </trkpt>
      <trkpt lat="45.65407" lon="6.50492">
        <ele>1981</ele>
        <time>2022-07-16T05:23:13Z</time>
      </trkpt>
      <trkpt lat="45.65407" lon="6.50496">
        <ele>1981</ele>
        <time>2022-07-16T05:23:14Z</time>
      </trkpt>
      <trkpt lat="45.65407" lon="6.50499">
        <ele>1981</ele>
        <time>2022-07-16T05:23:15Z</time>
      </trkpt>
      <trkpt lat="45.65406" lon="6.50502">
        <ele>1981</ele>
        <time>2022-07-16T05:23:16Z</time>
      </trkpt>
      <trkpt lat="45.65406" lon="6.50506">
        <ele>1981</ele>
        <time>2022-07-16T05:23:17Z</time>
      </trkpt>
      <trkpt lat="45.65406" lon="6.50509">
        <ele>1980</ele>
        <time>2022-07-16T05:23:18Z</time>
      </trkpt>
      <trkpt lat="45.65407" lon="6.50512">
        <ele>1979</ele>
        <time>2022-07-16T05:23:19Z</time>
      </trkpt>
      <trkpt lat="45.65407" lon="6.50515">
        <ele>1979</ele>
        <time>2022-07-16T05:23:20Z</time>
      </trkpt>
      <trkpt lat="45.65407" lon="6.50518">
        <ele>1980</ele>
        <time>2022-07-16T05:23:21Z</time>
      </trkpt>
      <trkpt lat="45.65407" lon="6.50521">
        <ele>1980</ele>
        <time>2022-07-16T05:23:22Z</time>
      </trkpt>
      <trkpt lat="45.65408" lon="6.50524">
        <ele>1980</ele>
        <time>2022-07-16T05:23:23Z</time>
      </trkpt>
      <trkpt lat="45.65409" lon="6.50528">
        <ele>1979</ele>
        <time>2022-07-16T05:23:24Z</time>
      </trkpt>
      <trkpt lat="45.65409" lon="6.50531">
        <ele>1979</ele>
        <time>2022-07-16T05:23:25Z</time>
      </trkpt>
      <trkpt lat="45.65409" lon="6.50534">
        <ele>1979</ele>
        <time>2022-07-16T05:23:26Z</time>
      </trkpt>
      <trkpt lat="45.65408" lon="6.50537">
        <ele>1979</ele>
        <time>2022-07-16T05:23:27Z</time>
      </trkpt>
      <trkpt lat="45.65408" lon="6.50541">
        <ele>1979</ele>
        <time>2022-07-16T05:23:28Z</time>
      </trkpt>
      <trkpt lat="45.65408" lon="6.50544">
        <ele>1979</ele>
        <time>2022-07-16T05:23:29Z</time>
      </trkpt>
      <trkpt lat="45.65407" lon="6.50547">
        <ele>1979</ele>
        <time>2022-07-16T05:23:30Z</time>
      </trkpt>
      <trkpt lat="45.65406" lon="6.5055">
        <ele>1978</ele>
        <time>2022-07-16T05:23:31Z</time>
      </trkpt>
      <trkpt lat="45.65405" lon="6.50553">
        <ele>1978</ele>
        <time>2022-07-16T05:23:32Z</time>
      </trkpt>
      <trkpt lat="45.65404" lon="6.50557">
        <ele>1978</ele>
        <time>2022-07-16T05:23:33Z</time>
      </trkpt>
      <trkpt lat="45.65403" lon="6.5056">
        <ele>1978</ele>
        <time>2022-07-16T05:23:34Z</time>
      </trkpt>
      <trkpt lat="45.65402" lon="6.50563">
        <ele>1978</ele>
        <time>2022-07-16T05:23:35Z</time>
      </trkpt>
      <trkpt lat="45.65401" lon="6.50566">
        <ele>1978</ele>
        <time>2022-07-16T05:23:36Z</time>
      </trkpt>
      <trkpt lat="45.654" lon="6.5057">
        <ele>1978</ele>
        <time>2022-07-16T05:23:37Z</time>
      </trkpt>
      <trkpt lat="45.65399" lon="6.50573">
        <ele>1978</ele>
        <time>2022-07-16T05:23:38Z</time>
      </trkpt>
      <trkpt lat="45.65398" lon="6.50576">
        <ele>1978</ele>
        <time>2022-07-16T05:23:39Z</time>
      </trkpt>
      <trkpt lat="45.65397" lon="6.50579">
        <ele>1977</ele>
        <time>2022-07-16T05:23:40Z</time>
      </trkpt>
      <trkpt lat="45.65396" lon="6.50582">
        <ele>1977</ele>
        <time>2022-07-16T05:23:41Z</time>
      </trkpt>
      <trkpt lat="45.65395" lon="6.50586">
        <ele>1977</ele>
        <time>2022-07-16T05:23:42Z</time>
      </trkpt>
      <trkpt lat="45.65394" lon="6.50589">
        <ele>1977</ele>
        <time>2022-07-16T05:23:43Z</time>
      </trkpt>
      <trkpt lat="45.65393" lon="6.50592">
        <ele>1977</ele>
        <time>2022-07-16T05:23:44Z</time>
      </trkpt>
      <trkpt lat="45.65392" lon="6.50595">
        <ele>1977</ele>
        <time>2022-07-16T05:23:45Z</time>
      </trkpt>
      <trkpt lat="45.65392" lon="6.50597">
        <ele>1977</ele>
        <time>2022-07-16T05:23:46Z</time>
      </trkpt>
      <trkpt lat="45.65391" lon="6.50598">
        <ele>1976</ele>
        <time>2022-07-16T05:23:47Z</time>
      </trkpt>
      <trkpt lat="45.65391" lon="6.506">
        <ele>1976</ele>
        <time>2022-07-16T05:23:48Z</time>
      </trkpt>
      <trkpt lat="45.6539" lon="6.50602">
        <ele>1976</ele>
        <time>2022-07-16T05:23:49Z</time>
      </trkpt>
      <trkpt lat="45.65386" lon="6.50612">
        <ele>1976</ele>
        <time>2022-07-16T05:23:50Z</time>
      </trkpt>
      <trkpt lat="45.65385" lon="6.50616">
        <ele>1976</ele>
        <time>2022-07-16T05:23:52Z</time>
      </trkpt>
      <trkpt lat="45.65384" lon="6.50621">
        <ele>1974</ele>
        <time>2022-07-16T05:23:53Z</time>
      </trkpt>
      <trkpt lat="45.65383" lon="6.50624">
        <ele>1974</ele>
        <time>2022-07-16T05:23:54Z</time>
      </trkpt>
      <trkpt lat="45.65382" lon="6.50627">
        <ele>1973</ele>
        <time>2022-07-16T05:23:55Z</time>
      </trkpt>
      <trkpt lat="45.65381" lon="6.5063">
        <ele>1974</ele>
        <time>2022-07-16T05:23:56Z</time>
      </trkpt>
      <trkpt lat="45.65381" lon="6.50633">
        <ele>1974</ele>
        <time>2022-07-16T05:23:57Z</time>
      </trkpt>
      <trkpt lat="45.6538" lon="6.50636">
        <ele>1974</ele>
        <time>2022-07-16T05:23:58Z</time>
      </trkpt>
      <trkpt lat="45.65379" lon="6.5064">
        <ele>1974</ele>
        <time>2022-07-16T05:23:59Z</time>
      </trkpt>
      <trkpt lat="45.65378" lon="6.50641">
        <ele>1973</ele>
        <time>2022-07-16T05:24:00Z</time>
      </trkpt>
      <trkpt lat="45.65377" lon="6.50643">
        <ele>1974</ele>
        <time>2022-07-16T05:24:01Z</time>
      </trkpt>
      <trkpt lat="45.65377" lon="6.50645">
        <ele>1974</ele>
        <time>2022-07-16T05:24:02Z</time>
      </trkpt>
      <trkpt lat="45.65376" lon="6.50646">
        <ele>1974</ele>
        <time>2022-07-16T05:24:03Z</time>
      </trkpt>
      <trkpt lat="45.65373" lon="6.50656">
        <ele>1974</ele>
        <time>2022-07-16T05:24:04Z</time>
      </trkpt>
      <trkpt lat="45.65371" lon="6.50659">
        <ele>1973</ele>
        <time>2022-07-16T05:24:05Z</time>
      </trkpt>
      <trkpt lat="45.6537" lon="6.50662">
        <ele>1973</ele>
        <time>2022-07-16T05:24:06Z</time>
      </trkpt>
      <trkpt lat="45.65369" lon="6.50665">
        <ele>1973</ele>
        <time>2022-07-16T05:24:07Z</time>
      </trkpt>
      <trkpt lat="45.65364" lon="6.50677">
        <ele>1973</ele>
        <time>2022-07-16T05:24:11Z</time>
      </trkpt>
      <trkpt lat="45.65363" lon="6.50678">
        <ele>1972</ele>
        <time>2022-07-16T05:24:12Z</time>
      </trkpt>
      <trkpt lat="45.65363" lon="6.50679">
        <ele>1972</ele>
        <time>2022-07-16T05:24:13Z</time>
      </trkpt>
      <trkpt lat="45.65362" lon="6.50681">
        <ele>1972</ele>
        <time>2022-07-16T05:24:14Z</time>
      </trkpt>
      <trkpt lat="45.65361" lon="6.50682">
        <ele>1971</ele>
        <time>2022-07-16T05:24:15Z</time>
      </trkpt>
      <trkpt lat="45.65361" lon="6.50683">
        <ele>1971</ele>
        <time>2022-07-16T05:24:16Z</time>
      </trkpt>
      <trkpt lat="45.65355" lon="6.50692">
        <ele>1971</ele>
        <time>2022-07-16T05:24:17Z</time>
      </trkpt>
      <trkpt lat="45.65353" lon="6.50694">
        <ele>1971</ele>
        <time>2022-07-16T05:24:18Z</time>
      </trkpt>
      <trkpt lat="45.65352" lon="6.50697">
        <ele>1971</ele>
        <time>2022-07-16T05:24:19Z</time>
      </trkpt>
      <trkpt lat="45.6535" lon="6.50699">
        <ele>1971</ele>
        <time>2022-07-16T05:24:20Z</time>
      </trkpt>
      <trkpt lat="45.65348" lon="6.50701">
        <ele>1971</ele>
        <time>2022-07-16T05:24:21Z</time>
      </trkpt>
      <trkpt lat="45.65346" lon="6.50703">
        <ele>1971</ele>
        <time>2022-07-16T05:24:22Z</time>
      </trkpt>
      <trkpt lat="45.65344" lon="6.50705">
        <ele>1971</ele>
        <time>2022-07-16T05:24:23Z</time>
      </trkpt>
      <trkpt lat="45.65343" lon="6.50708">
        <ele>1971</ele>
        <time>2022-07-16T05:24:24Z</time>
      </trkpt>
      <trkpt lat="45.65341" lon="6.50709">
        <ele>1971</ele>
        <time>2022-07-16T05:24:25Z</time>
      </trkpt>
      <trkpt lat="45.65339" lon="6.50711">
        <ele>1971</ele>
        <time>2022-07-16T05:24:26Z</time>
      </trkpt>
      <trkpt lat="45.65337" lon="6.50713">
        <ele>1971</ele>
        <time>2022-07-16T05:24:27Z</time>
      </trkpt>
      <trkpt lat="45.65335" lon="6.50715">
        <ele>1970</ele>
        <time>2022-07-16T05:24:28Z</time>
      </trkpt>
      <trkpt lat="45.65334" lon="6.50717">
        <ele>1969</ele>
        <time>2022-07-16T05:24:29Z</time>
      </trkpt>
      <trkpt lat="45.65332" lon="6.50719">
        <ele>1969</ele>
        <time>2022-07-16T05:24:30Z</time>
      </trkpt>
      <trkpt lat="45.6533" lon="6.50721">
        <ele>1969</ele>
        <time>2022-07-16T05:24:31Z</time>
      </trkpt>
      <trkpt lat="45.65328" lon="6.50723">
        <ele>1969</ele>
        <time>2022-07-16T05:24:32Z</time>
      </trkpt>
      <trkpt lat="45.65326" lon="6.50727">
        <ele>1969</ele>
        <time>2022-07-16T05:24:33Z</time>
      </trkpt>
      <trkpt lat="45.65325" lon="6.50728">
        <ele>1969</ele>
        <time>2022-07-16T05:24:34Z</time>
      </trkpt>
      <trkpt lat="45.65323" lon="6.50731">
        <ele>1969</ele>
        <time>2022-07-16T05:24:35Z</time>
      </trkpt>
      <trkpt lat="45.65322" lon="6.50733">
        <ele>1969</ele>
        <time>2022-07-16T05:24:36Z</time>
      </trkpt>
      <trkpt lat="45.6532" lon="6.50736">
        <ele>1969</ele>
        <time>2022-07-16T05:24:37Z</time>
      </trkpt>
      <trkpt lat="45.65319" lon="6.50738">
        <ele>1969</ele>
        <time>2022-07-16T05:24:38Z</time>
      </trkpt>
      <trkpt lat="45.65317" lon="6.50741">
        <ele>1969</ele>
        <time>2022-07-16T05:24:39Z</time>
      </trkpt>
      <trkpt lat="45.65316" lon="6.50744">
        <ele>1969</ele>
        <time>2022-07-16T05:24:40Z</time>
      </trkpt>
      <trkpt lat="45.65315" lon="6.50747">
        <ele>1969</ele>
        <time>2022-07-16T05:24:41Z</time>
      </trkpt>
      <trkpt lat="45.65314" lon="6.50751">
        <ele>1969</ele>
        <time>2022-07-16T05:24:42Z</time>
      </trkpt>
      <trkpt lat="45.65314" lon="6.50754">
        <ele>1968</ele>
        <time>2022-07-16T05:24:43Z</time>
      </trkpt>
      <trkpt lat="45.65313" lon="6.50757">
        <ele>1968</ele>
        <time>2022-07-16T05:24:44Z</time>
      </trkpt>
      <trkpt lat="45.65313" lon="6.50761">
        <ele>1968</ele>
        <time>2022-07-16T05:24:45Z</time>
      </trkpt>
      <trkpt lat="45.65314" lon="6.50764">
        <ele>1968</ele>
        <time>2022-07-16T05:24:46Z</time>
      </trkpt>
      <trkpt lat="45.65314" lon="6.50768">
        <ele>1968</ele>
        <time>2022-07-16T05:24:47Z</time>
      </trkpt>
      <trkpt lat="45.65315" lon="6.50771">
        <ele>1968</ele>
        <time>2022-07-16T05:24:48Z</time>
      </trkpt>
      <trkpt lat="45.65315" lon="6.50774">
        <ele>1968</ele>
        <time>2022-07-16T05:24:49Z</time>
      </trkpt>
      <trkpt lat="45.65316" lon="6.50777">
        <ele>1968</ele>
        <time>2022-07-16T05:24:50Z</time>
      </trkpt>
      <trkpt lat="45.65316" lon="6.5078">
        <ele>1967</ele>
        <time>2022-07-16T05:24:51Z</time>
      </trkpt>
      <trkpt lat="45.65316" lon="6.50784">
        <ele>1967</ele>
        <time>2022-07-16T05:24:52Z</time>
      </trkpt>
      <trkpt lat="45.65317" lon="6.50787">
        <ele>1966</ele>
        <time>2022-07-16T05:24:53Z</time>
      </trkpt>
      <trkpt lat="45.65317" lon="6.5079">
        <ele>1966</ele>
        <time>2022-07-16T05:24:54Z</time>
      </trkpt>
      <trkpt lat="45.65317" lon="6.50793">
        <ele>1966</ele>
        <time>2022-07-16T05:24:55Z</time>
      </trkpt>
      <trkpt lat="45.65317" lon="6.50797">
        <ele>1966</ele>
        <time>2022-07-16T05:24:56Z</time>
      </trkpt>
      <trkpt lat="45.65317" lon="6.508">
        <ele>1966</ele>
        <time>2022-07-16T05:24:57Z</time>
      </trkpt>
      <trkpt lat="45.65317" lon="6.50803">
        <ele>1966</ele>
        <time>2022-07-16T05:24:58Z</time>
      </trkpt>
      <trkpt lat="45.65317" lon="6.50807">
        <ele>1966</ele>
        <time>2022-07-16T05:24:59Z</time>
      </trkpt>
      <trkpt lat="45.65317" lon="6.5081">
        <ele>1966</ele>
        <time>2022-07-16T05:25:00Z</time>
      </trkpt>
      <trkpt lat="45.65317" lon="6.50814">
        <ele>1966</ele>
        <time>2022-07-16T05:25:01Z</time>
      </trkpt>
      <trkpt lat="45.65317" lon="6.50817">
        <ele>1966</ele>
        <time>2022-07-16T05:25:02Z</time>
      </trkpt>
      <trkpt lat="45.65316" lon="6.50821">
        <ele>1965</ele>
        <time>2022-07-16T05:25:03Z</time>
      </trkpt>
      <trkpt lat="45.65316" lon="6.50825">
        <ele>1965</ele>
        <time>2022-07-16T05:25:04Z</time>
      </trkpt>
      <trkpt lat="45.65316" lon="6.50829">
        <ele>1965</ele>
        <time>2022-07-16T05:25:05Z</time>
      </trkpt>
      <trkpt lat="45.65316" lon="6.50833">
        <ele>1965</ele>
        <time>2022-07-16T05:25:06Z</time>
      </trkpt>
      <trkpt lat="45.65316" lon="6.50836">
        <ele>1965</ele>
        <time>2022-07-16T05:25:07Z</time>
      </trkpt>
      <trkpt lat="45.65316" lon="6.5084">
        <ele>1965</ele>
        <time>2022-07-16T05:25:08Z</time>
      </trkpt>
      <trkpt lat="45.65317" lon="6.50843">
        <ele>1965</ele>
        <time>2022-07-16T05:25:09Z</time>
      </trkpt>
      <trkpt lat="45.65317" lon="6.50847">
        <ele>1964</ele>
        <time>2022-07-16T05:25:10Z</time>
      </trkpt>
      <trkpt lat="45.65317" lon="6.5085">
        <ele>1963</ele>
        <time>2022-07-16T05:25:11Z</time>
      </trkpt>
      <trkpt lat="45.65317" lon="6.50854">
        <ele>1963</ele>
        <time>2022-07-16T05:25:12Z</time>
      </trkpt>
      <trkpt lat="45.65316" lon="6.50857">
        <ele>1963</ele>
        <time>2022-07-16T05:25:13Z</time>
      </trkpt>
      <trkpt lat="45.65316" lon="6.5086">
        <ele>1963</ele>
        <time>2022-07-16T05:25:14Z</time>
      </trkpt>
      <trkpt lat="45.65316" lon="6.50863">
        <ele>1963</ele>
        <time>2022-07-16T05:25:15Z</time>
      </trkpt>
      <trkpt lat="45.65315" lon="6.50866">
        <ele>1963</ele>
        <time>2022-07-16T05:25:16Z</time>
      </trkpt>
      <trkpt lat="45.65314" lon="6.50869">
        <ele>1963</ele>
        <time>2022-07-16T05:25:17Z</time>
      </trkpt>
      <trkpt lat="45.65313" lon="6.50873">
        <ele>1962</ele>
        <time>2022-07-16T05:25:18Z</time>
      </trkpt>
      <trkpt lat="45.65313" lon="6.50878">
        <ele>1962</ele>
        <time>2022-07-16T05:25:19Z</time>
      </trkpt>
      <trkpt lat="45.65312" lon="6.5088">
        <ele>1962</ele>
        <time>2022-07-16T05:25:20Z</time>
      </trkpt>
      <trkpt lat="45.65312" lon="6.50883">
        <ele>1962</ele>
        <time>2022-07-16T05:25:21Z</time>
      </trkpt>
      <trkpt lat="45.65311" lon="6.50886">
        <ele>1962</ele>
        <time>2022-07-16T05:25:22Z</time>
      </trkpt>
      <trkpt lat="45.6531" lon="6.50889">
        <ele>1962</ele>
        <time>2022-07-16T05:25:23Z</time>
      </trkpt>
      <trkpt lat="45.65309" lon="6.50892">
        <ele>1962</ele>
        <time>2022-07-16T05:25:24Z</time>
      </trkpt>
      <trkpt lat="45.65308" lon="6.50895">
        <ele>1962</ele>
        <time>2022-07-16T05:25:25Z</time>
      </trkpt>
      <trkpt lat="45.65307" lon="6.50899">
        <ele>1962</ele>
        <time>2022-07-16T05:25:26Z</time>
      </trkpt>
      <trkpt lat="45.65306" lon="6.50902">
        <ele>1962</ele>
        <time>2022-07-16T05:25:27Z</time>
      </trkpt>
      <trkpt lat="45.65306" lon="6.50905">
        <ele>1960</ele>
        <time>2022-07-16T05:25:28Z</time>
      </trkpt>
      <trkpt lat="45.65305" lon="6.50908">
        <ele>1960</ele>
        <time>2022-07-16T05:25:29Z</time>
      </trkpt>
      <trkpt lat="45.65305" lon="6.50912">
        <ele>1960</ele>
        <time>2022-07-16T05:25:30Z</time>
      </trkpt>
      <trkpt lat="45.65304" lon="6.50915">
        <ele>1960</ele>
        <time>2022-07-16T05:25:31Z</time>
      </trkpt>
      <trkpt lat="45.65304" lon="6.50919">
        <ele>1960</ele>
        <time>2022-07-16T05:25:32Z</time>
      </trkpt>
      <trkpt lat="45.65304" lon="6.50922">
        <ele>1960</ele>
        <time>2022-07-16T05:25:33Z</time>
      </trkpt>
      <trkpt lat="45.65304" lon="6.50926">
        <ele>1960</ele>
        <time>2022-07-16T05:25:34Z</time>
      </trkpt>
      <trkpt lat="45.65304" lon="6.50931">
        <ele>1960</ele>
        <time>2022-07-16T05:25:35Z</time>
      </trkpt>
      <trkpt lat="45.65304" lon="6.50932">
        <ele>1959</ele>
        <time>2022-07-16T05:25:36Z</time>
      </trkpt>
      <trkpt lat="45.65304" lon="6.50935">
        <ele>1959</ele>
        <time>2022-07-16T05:25:37Z</time>
      </trkpt>
      <trkpt lat="45.65304" lon="6.50939">
        <ele>1959</ele>
        <time>2022-07-16T05:25:38Z</time>
      </trkpt>
      <trkpt lat="45.65304" lon="6.50942">
        <ele>1958</ele>
        <time>2022-07-16T05:25:39Z</time>
      </trkpt>
      <trkpt lat="45.65304" lon="6.50946">
        <ele>1958</ele>
        <time>2022-07-16T05:25:40Z</time>
      </trkpt>
      <trkpt lat="45.65303" lon="6.5095">
        <ele>1958</ele>
        <time>2022-07-16T05:25:41Z</time>
      </trkpt>
      <trkpt lat="45.65303" lon="6.50954">
        <ele>1958</ele>
        <time>2022-07-16T05:25:42Z</time>
      </trkpt>
      <trkpt lat="45.65303" lon="6.50957">
        <ele>1958</ele>
        <time>2022-07-16T05:25:43Z</time>
      </trkpt>
      <trkpt lat="45.65303" lon="6.50961">
        <ele>1958</ele>
        <time>2022-07-16T05:25:44Z</time>
      </trkpt>
      <trkpt lat="45.65302" lon="6.50966">
        <ele>1958</ele>
        <time>2022-07-16T05:25:45Z</time>
      </trkpt>
      <trkpt lat="45.65302" lon="6.50967">
        <ele>1958</ele>
        <time>2022-07-16T05:25:46Z</time>
      </trkpt>
      <trkpt lat="45.65302" lon="6.5097">
        <ele>1957</ele>
        <time>2022-07-16T05:25:47Z</time>
      </trkpt>
      <trkpt lat="45.65301" lon="6.50974">
        <ele>1957</ele>
        <time>2022-07-16T05:25:48Z</time>
      </trkpt>
      <trkpt lat="45.65301" lon="6.50977">
        <ele>1957</ele>
        <time>2022-07-16T05:25:49Z</time>
      </trkpt>
      <trkpt lat="45.65301" lon="6.50981">
        <ele>1957</ele>
        <time>2022-07-16T05:25:50Z</time>
      </trkpt>
      <trkpt lat="45.653" lon="6.50985">
        <ele>1956</ele>
        <time>2022-07-16T05:25:51Z</time>
      </trkpt>
      <trkpt lat="45.653" lon="6.50988">
        <ele>1956</ele>
        <time>2022-07-16T05:25:52Z</time>
      </trkpt>
      <trkpt lat="45.65299" lon="6.50991">
        <ele>1956</ele>
        <time>2022-07-16T05:25:53Z</time>
      </trkpt>
      <trkpt lat="45.65299" lon="6.50994">
        <ele>1957</ele>
        <time>2022-07-16T05:25:54Z</time>
      </trkpt>
      <trkpt lat="45.65299" lon="6.50997">
        <ele>1957</ele>
        <time>2022-07-16T05:25:55Z</time>
      </trkpt>
      <trkpt lat="45.65299" lon="6.51001">
        <ele>1957</ele>
        <time>2022-07-16T05:25:56Z</time>
      </trkpt>
      <trkpt lat="45.65299" lon="6.51004">
        <ele>1957</ele>
        <time>2022-07-16T05:25:57Z</time>
      </trkpt>
      <trkpt lat="45.65299" lon="6.51007">
        <ele>1957</ele>
        <time>2022-07-16T05:25:58Z</time>
      </trkpt>
      <trkpt lat="45.65298" lon="6.5101">
        <ele>1956</ele>
        <time>2022-07-16T05:25:59Z</time>
      </trkpt>
      <trkpt lat="45.65298" lon="6.51013">
        <ele>1956</ele>
        <time>2022-07-16T05:26:00Z</time>
      </trkpt>
      <trkpt lat="45.65297" lon="6.51017">
        <ele>1956</ele>
        <time>2022-07-16T05:26:01Z</time>
      </trkpt>
      <trkpt lat="45.65297" lon="6.5102">
        <ele>1956</ele>
        <time>2022-07-16T05:26:02Z</time>
      </trkpt>
      <trkpt lat="45.65296" lon="6.51024">
        <ele>1956</ele>
        <time>2022-07-16T05:26:03Z</time>
      </trkpt>
      <trkpt lat="45.65296" lon="6.51027">
        <ele>1955</ele>
        <time>2022-07-16T05:26:04Z</time>
      </trkpt>
      <trkpt lat="45.65295" lon="6.51031">
        <ele>1955</ele>
        <time>2022-07-16T05:26:05Z</time>
      </trkpt>
      <trkpt lat="45.65294" lon="6.51035">
        <ele>1954</ele>
        <time>2022-07-16T05:26:06Z</time>
      </trkpt>
      <trkpt lat="45.65294" lon="6.51038">
        <ele>1954</ele>
        <time>2022-07-16T05:26:07Z</time>
      </trkpt>
      <trkpt lat="45.65293" lon="6.51042">
        <ele>1953</ele>
        <time>2022-07-16T05:26:08Z</time>
      </trkpt>
      <trkpt lat="45.65292" lon="6.51045">
        <ele>1953</ele>
        <time>2022-07-16T05:26:09Z</time>
      </trkpt>
      <trkpt lat="45.65292" lon="6.51049">
        <ele>1953</ele>
        <time>2022-07-16T05:26:10Z</time>
      </trkpt>
      <trkpt lat="45.65291" lon="6.51052">
        <ele>1953</ele>
        <time>2022-07-16T05:26:11Z</time>
      </trkpt>
      <trkpt lat="45.6529" lon="6.51056">
        <ele>1953</ele>
        <time>2022-07-16T05:26:12Z</time>
      </trkpt>
      <trkpt lat="45.65289" lon="6.5106">
        <ele>1953</ele>
        <time>2022-07-16T05:26:13Z</time>
      </trkpt>
      <trkpt lat="45.65288" lon="6.51063">
        <ele>1952</ele>
        <time>2022-07-16T05:26:14Z</time>
      </trkpt>
      <trkpt lat="45.65288" lon="6.51066">
        <ele>1952</ele>
        <time>2022-07-16T05:26:15Z</time>
      </trkpt>
      <trkpt lat="45.65287" lon="6.51071">
        <ele>1952</ele>
        <time>2022-07-16T05:26:16Z</time>
      </trkpt>
      <trkpt lat="45.65286" lon="6.51072">
        <ele>1952</ele>
        <time>2022-07-16T05:26:17Z</time>
      </trkpt>
      <trkpt lat="45.65286" lon="6.51076">
        <ele>1952</ele>
        <time>2022-07-16T05:26:18Z</time>
      </trkpt>
      <trkpt lat="45.65285" lon="6.51079">
        <ele>1952</ele>
        <time>2022-07-16T05:26:19Z</time>
      </trkpt>
      <trkpt lat="45.65284" lon="6.51082">
        <ele>1952</ele>
        <time>2022-07-16T05:26:20Z</time>
      </trkpt>
      <trkpt lat="45.65283" lon="6.51085">
        <ele>1952</ele>
        <time>2022-07-16T05:26:21Z</time>
      </trkpt>
      <trkpt lat="45.65282" lon="6.51088">
        <ele>1952</ele>
        <time>2022-07-16T05:26:22Z</time>
      </trkpt>
      <trkpt lat="45.65281" lon="6.51092">
        <ele>1951</ele>
        <time>2022-07-16T05:26:23Z</time>
      </trkpt>
      <trkpt lat="45.6528" lon="6.51095">
        <ele>1951</ele>
        <time>2022-07-16T05:26:24Z</time>
      </trkpt>
      <trkpt lat="45.65279" lon="6.51099">
        <ele>1951</ele>
        <time>2022-07-16T05:26:25Z</time>
      </trkpt>
      <trkpt lat="45.65279" lon="6.51103">
        <ele>1951</ele>
        <time>2022-07-16T05:26:26Z</time>
      </trkpt>
      <trkpt lat="45.65278" lon="6.51106">
        <ele>1951</ele>
        <time>2022-07-16T05:26:27Z</time>
      </trkpt>
      <trkpt lat="45.65277" lon="6.5111">
        <ele>1951</ele>
        <time>2022-07-16T05:26:28Z</time>
      </trkpt>
      <trkpt lat="45.65276" lon="6.51113">
        <ele>1950</ele>
        <time>2022-07-16T05:26:29Z</time>
      </trkpt>
      <trkpt lat="45.65275" lon="6.51117">
        <ele>1950</ele>
        <time>2022-07-16T05:26:30Z</time>
      </trkpt>
      <trkpt lat="45.65274" lon="6.5112">
        <ele>1950</ele>
        <time>2022-07-16T05:26:31Z</time>
      </trkpt>
      <trkpt lat="45.65273" lon="6.51123">
        <ele>1950</ele>
        <time>2022-07-16T05:26:32Z</time>
      </trkpt>
      <trkpt lat="45.65272" lon="6.51127">
        <ele>1949</ele>
        <time>2022-07-16T05:26:33Z</time>
      </trkpt>
      <trkpt lat="45.65271" lon="6.5113">
        <ele>1949</ele>
        <time>2022-07-16T05:26:34Z</time>
      </trkpt>
      <trkpt lat="45.6527" lon="6.51134">
        <ele>1949</ele>
        <time>2022-07-16T05:26:35Z</time>
      </trkpt>
      <trkpt lat="45.6527" lon="6.51137">
        <ele>1949</ele>
        <time>2022-07-16T05:26:36Z</time>
      </trkpt>
      <trkpt lat="45.65269" lon="6.51141">
        <ele>1949</ele>
        <time>2022-07-16T05:26:37Z</time>
      </trkpt>
      <trkpt lat="45.65269" lon="6.51144">
        <ele>1948</ele>
        <time>2022-07-16T05:26:38Z</time>
      </trkpt>
      <trkpt lat="45.65269" lon="6.51148">
        <ele>1948</ele>
        <time>2022-07-16T05:26:39Z</time>
      </trkpt>
      <trkpt lat="45.65268" lon="6.51151">
        <ele>1948</ele>
        <time>2022-07-16T05:26:40Z</time>
      </trkpt>
      <trkpt lat="45.65268" lon="6.51155">
        <ele>1948</ele>
        <time>2022-07-16T05:26:41Z</time>
      </trkpt>
      <trkpt lat="45.65268" lon="6.51158">
        <ele>1948</ele>
        <time>2022-07-16T05:26:42Z</time>
      </trkpt>
      <trkpt lat="45.65268" lon="6.51162">
        <ele>1948</ele>
        <time>2022-07-16T05:26:43Z</time>
      </trkpt>
      <trkpt lat="45.65268" lon="6.51166">
        <ele>1948</ele>
        <time>2022-07-16T05:26:44Z</time>
      </trkpt>
      <trkpt lat="45.65268" lon="6.51169">
        <ele>1948</ele>
        <time>2022-07-16T05:26:45Z</time>
      </trkpt>
      <trkpt lat="45.65268" lon="6.51173">
        <ele>1947</ele>
        <time>2022-07-16T05:26:46Z</time>
      </trkpt>
      <trkpt lat="45.65269" lon="6.51176">
        <ele>1947</ele>
        <time>2022-07-16T05:26:47Z</time>
      </trkpt>
      <trkpt lat="45.65269" lon="6.51179">
        <ele>1947</ele>
        <time>2022-07-16T05:26:48Z</time>
      </trkpt>
      <trkpt lat="45.65269" lon="6.51182">
        <ele>1947</ele>
        <time>2022-07-16T05:26:49Z</time>
      </trkpt>
      <trkpt lat="45.6527" lon="6.51185">
        <ele>1947</ele>
        <time>2022-07-16T05:26:50Z</time>
      </trkpt>
      <trkpt lat="45.65271" lon="6.51188">
        <ele>1947</ele>
        <time>2022-07-16T05:26:51Z</time>
      </trkpt>
      <trkpt lat="45.65271" lon="6.51193">
        <ele>1947</ele>
        <time>2022-07-16T05:26:52Z</time>
      </trkpt>
      <trkpt lat="45.65272" lon="6.51195">
        <ele>1946</ele>
        <time>2022-07-16T05:26:53Z</time>
      </trkpt>
      <trkpt lat="45.65271" lon="6.51197">
        <ele>1946</ele>
        <time>2022-07-16T05:26:54Z</time>
      </trkpt>
      <trkpt lat="45.65269" lon="6.51199">
        <ele>1946</ele>
        <time>2022-07-16T05:26:55Z</time>
      </trkpt>
      <trkpt lat="45.65267" lon="6.51199">
        <ele>1946</ele>
        <time>2022-07-16T05:26:56Z</time>
      </trkpt>
      <trkpt lat="45.65264" lon="6.51198">
        <ele>1946</ele>
        <time>2022-07-16T05:26:57Z</time>
      </trkpt>
      <trkpt lat="45.65262" lon="6.51195">
        <ele>1945</ele>
        <time>2022-07-16T05:26:58Z</time>
      </trkpt>
      <trkpt lat="45.65261" lon="6.51192">
        <ele>1945</ele>
        <time>2022-07-16T05:26:59Z</time>
      </trkpt>
      <trkpt lat="45.6526" lon="6.51189">
        <ele>1944</ele>
        <time>2022-07-16T05:27:00Z</time>
      </trkpt>
      <trkpt lat="45.65258" lon="6.51186">
        <ele>1944</ele>
        <time>2022-07-16T05:27:01Z</time>
      </trkpt>
      <trkpt lat="45.65256" lon="6.51183">
        <ele>1944</ele>
        <time>2022-07-16T05:27:02Z</time>
      </trkpt>
      <trkpt lat="45.65255" lon="6.51181">
        <ele>1944</ele>
        <time>2022-07-16T05:27:03Z</time>
      </trkpt>
      <trkpt lat="45.65253" lon="6.51178">
        <ele>1943</ele>
        <time>2022-07-16T05:27:04Z</time>
      </trkpt>
      <trkpt lat="45.65251" lon="6.51175">
        <ele>1943</ele>
        <time>2022-07-16T05:27:05Z</time>
      </trkpt>
      <trkpt lat="45.65249" lon="6.51173">
        <ele>1942</ele>
        <time>2022-07-16T05:27:06Z</time>
      </trkpt>
      <trkpt lat="45.65248" lon="6.51171">
        <ele>1942</ele>
        <time>2022-07-16T05:27:07Z</time>
      </trkpt>
      <trkpt lat="45.65246" lon="6.51168">
        <ele>1942</ele>
        <time>2022-07-16T05:27:08Z</time>
      </trkpt>
      <trkpt lat="45.65244" lon="6.51166">
        <ele>1942</ele>
        <time>2022-07-16T05:27:09Z</time>
      </trkpt>
      <trkpt lat="45.65243" lon="6.51164">
        <ele>1942</ele>
        <time>2022-07-16T05:27:10Z</time>
      </trkpt>
      <trkpt lat="45.65241" lon="6.51161">
        <ele>1942</ele>
        <time>2022-07-16T05:27:11Z</time>
      </trkpt>
      <trkpt lat="45.6524" lon="6.51159">
        <ele>1941</ele>
        <time>2022-07-16T05:27:12Z</time>
      </trkpt>
      <trkpt lat="45.65239" lon="6.51157">
        <ele>1940</ele>
        <time>2022-07-16T05:27:13Z</time>
      </trkpt>
      <trkpt lat="45.65237" lon="6.51155">
        <ele>1940</ele>
        <time>2022-07-16T05:27:14Z</time>
      </trkpt>
      <trkpt lat="45.65236" lon="6.51153">
        <ele>1939</ele>
        <time>2022-07-16T05:27:15Z</time>
      </trkpt>
      <trkpt lat="45.65234" lon="6.51151">
        <ele>1939</ele>
        <time>2022-07-16T05:27:16Z</time>
      </trkpt>
      <trkpt lat="45.65233" lon="6.51148">
        <ele>1938</ele>
        <time>2022-07-16T05:27:18Z</time>
      </trkpt>
      <trkpt lat="45.65231" lon="6.51146">
        <ele>1937</ele>
        <time>2022-07-16T05:27:20Z</time>
      </trkpt>
      <trkpt lat="45.65229" lon="6.51144">
        <ele>1937</ele>
        <time>2022-07-16T05:27:22Z</time>
      </trkpt>
      <trkpt lat="45.65228" lon="6.51142">
        <ele>1936</ele>
        <time>2022-07-16T05:27:24Z</time>
      </trkpt>
      <trkpt lat="45.65227" lon="6.51139">
        <ele>1936</ele>
        <time>2022-07-16T05:27:27Z</time>
      </trkpt>
      <trkpt lat="45.65225" lon="6.51139">
        <ele>1935</ele>
        <time>2022-07-16T05:27:31Z</time>
      </trkpt>
      <trkpt lat="45.65223" lon="6.51141">
        <ele>1935</ele>
        <time>2022-07-16T05:27:39Z</time>
      </trkpt>
      <trkpt lat="45.65223" lon="6.51141">
        <ele>1934</ele>
        <time>2022-07-16T05:27:45Z</time>
      </trkpt>
      <trkpt lat="45.65221" lon="6.51141">
        <ele>1934</ele>
        <time>2022-07-16T05:27:54Z</time>
      </trkpt>
      <trkpt lat="45.65221" lon="6.51141">
        <ele>1934</ele>
        <time>2022-07-16T05:28:02Z</time>
      </trkpt>
      <trkpt lat="45.65221" lon="6.51141">
        <ele>1934</ele>
        <time>2022-07-16T05:28:18Z</time>
      </trkpt>
      <trkpt lat="45.65221" lon="6.51141">
        <ele>1935</ele>
        <time>2022-07-16T05:28:34Z</time>
      </trkpt>
      <trkpt lat="45.65221" lon="6.51141">
        <ele>1935</ele>
        <time>2022-07-16T05:28:50Z</time>
      </trkpt>
      <trkpt lat="45.65221" lon="6.51141">
        <ele>1934</ele>
        <time>2022-07-16T05:29:06Z</time>
      </trkpt>
      <trkpt lat="45.65221" lon="6.51141">
        <ele>1935</ele>
        <time>2022-07-16T05:29:22Z</time>
      </trkpt>
      <trkpt lat="45.6522" lon="6.51143">
        <ele>1935</ele>
        <time>2022-07-16T05:29:23Z</time>
      </trkpt>
      <trkpt lat="45.6522" lon="6.51143">
        <ele>1934</ele>
        <time>2022-07-16T05:29:39Z</time>
      </trkpt>
      <trkpt lat="45.6522" lon="6.51143">
        <ele>1934</ele>
        <time>2022-07-16T05:29:55Z</time>
      </trkpt>
      <trkpt lat="45.65221" lon="6.51145">
        <ele>1935</ele>
        <time>2022-07-16T05:30:09Z</time>
      </trkpt>
      <trkpt lat="45.65221" lon="6.51145">
        <ele>1935</ele>
        <time>2022-07-16T05:30:12Z</time>
      </trkpt>
      <trkpt lat="45.65221" lon="6.51145">
        <ele>1935</ele>
        <time>2022-07-16T05:30:28Z</time>
      </trkpt>
      <trkpt lat="45.65219" lon="6.51147">
        <ele>1934</ele>
        <time>2022-07-16T05:30:33Z</time>
      </trkpt>
      <trkpt lat="45.65219" lon="6.51147">
        <ele>1934</ele>
        <time>2022-07-16T05:30:45Z</time>
      </trkpt>
      <trkpt lat="45.65219" lon="6.51147">
        <ele>1934</ele>
        <time>2022-07-16T05:31:01Z</time>
      </trkpt>
      <trkpt lat="45.65219" lon="6.51147">
        <ele>1934</ele>
        <time>2022-07-16T05:31:17Z</time>
      </trkpt>
      <trkpt lat="45.65219" lon="6.51147">
        <ele>1934</ele>
        <time>2022-07-16T05:31:33Z</time>
      </trkpt>
      <trkpt lat="45.6522" lon="6.5115">
        <ele>1934</ele>
        <time>2022-07-16T05:31:40Z</time>
      </trkpt>
      <trkpt lat="45.6522" lon="6.5115">
        <ele>1934</ele>
        <time>2022-07-16T05:31:51Z</time>
      </trkpt>
      <trkpt lat="45.6522" lon="6.51153">
        <ele>1934</ele>
        <time>2022-07-16T05:31:56Z</time>
      </trkpt>
      <trkpt lat="45.6522" lon="6.51153">
        <ele>1933</ele>
        <time>2022-07-16T05:32:08Z</time>
      </trkpt>
      <trkpt lat="45.6522" lon="6.51153">
        <ele>1933</ele>
        <time>2022-07-16T05:32:24Z</time>
      </trkpt>
      <trkpt lat="45.6522" lon="6.51153">
        <ele>1933</ele>
        <time>2022-07-16T05:32:40Z</time>
      </trkpt>
      <trkpt lat="45.6522" lon="6.51153">
        <ele>1933</ele>
        <time>2022-07-16T05:32:56Z</time>
      </trkpt>
      <trkpt lat="45.6522" lon="6.51153">
        <ele>1933</ele>
        <time>2022-07-16T05:33:12Z</time>
      </trkpt>
      <trkpt lat="45.6522" lon="6.51153">
        <ele>1933</ele>
        <time>2022-07-16T05:33:28Z</time>
      </trkpt>
      <trkpt lat="45.6522" lon="6.51156">
        <ele>1932</ele>
        <time>2022-07-16T05:33:36Z</time>
      </trkpt>
      <trkpt lat="45.6522" lon="6.51156">
        <ele>1933</ele>
        <time>2022-07-16T05:33:45Z</time>
      </trkpt>
      <trkpt lat="45.6522" lon="6.51156">
        <ele>1933</ele>
        <time>2022-07-16T05:34:01Z</time>
      </trkpt>
      <trkpt lat="45.6522" lon="6.51156">
        <ele>1932</ele>
        <time>2022-07-16T05:34:17Z</time>
      </trkpt>
      <trkpt lat="45.65219" lon="6.51159">
        <ele>1932</ele>
        <time>2022-07-16T05:34:22Z</time>
      </trkpt>
      <trkpt lat="45.65219" lon="6.51163">
        <ele>1932</ele>
        <time>2022-07-16T05:34:25Z</time>
      </trkpt>
      <trkpt lat="45.65219" lon="6.51165">
        <ele>1932</ele>
        <time>2022-07-16T05:34:27Z</time>
      </trkpt>
      <trkpt lat="45.65218" lon="6.51169">
        <ele>1932</ele>
        <time>2022-07-16T05:34:29Z</time>
      </trkpt>
      <trkpt lat="45.65218" lon="6.51172">
        <ele>1932</ele>
        <time>2022-07-16T05:34:31Z</time>
      </trkpt>
      <trkpt lat="45.65219" lon="6.51176">
        <ele>1932</ele>
        <time>2022-07-16T05:34:33Z</time>
      </trkpt>
      <trkpt lat="45.65219" lon="6.51179">
        <ele>1932</ele>
        <time>2022-07-16T05:34:35Z</time>
      </trkpt>
      <trkpt lat="45.65219" lon="6.51183">
        <ele>1931</ele>
        <time>2022-07-16T05:34:37Z</time>
      </trkpt>
      <trkpt lat="45.65219" lon="6.51186">
        <ele>1931</ele>
        <time>2022-07-16T05:34:39Z</time>
      </trkpt>
      <trkpt lat="45.65218" lon="6.5119">
        <ele>1931</ele>
        <time>2022-07-16T05:34:41Z</time>
      </trkpt>
      <trkpt lat="45.65218" lon="6.51194">
        <ele>1930</ele>
        <time>2022-07-16T05:34:43Z</time>
      </trkpt>
      <trkpt lat="45.65217" lon="6.51197">
        <ele>1930</ele>
        <time>2022-07-16T05:34:45Z</time>
      </trkpt>
      <trkpt lat="45.65217" lon="6.51201">
        <ele>1930</ele>
        <time>2022-07-16T05:34:47Z</time>
      </trkpt>
      <trkpt lat="45.65216" lon="6.51204">
        <ele>1930</ele>
        <time>2022-07-16T05:34:49Z</time>
      </trkpt>
      <trkpt lat="45.65216" lon="6.51207">
        <ele>1930</ele>
        <time>2022-07-16T05:34:51Z</time>
      </trkpt>
      <trkpt lat="45.65216" lon="6.51211">
        <ele>1930</ele>
        <time>2022-07-16T05:34:53Z</time>
      </trkpt>
      <trkpt lat="45.65215" lon="6.51214">
        <ele>1930</ele>
        <time>2022-07-16T05:34:55Z</time>
      </trkpt>
      <trkpt lat="45.65214" lon="6.51218">
        <ele>1930</ele>
        <time>2022-07-16T05:34:57Z</time>
      </trkpt>
      <trkpt lat="45.65214" lon="6.51221">
        <ele>1929</ele>
        <time>2022-07-16T05:34:59Z</time>
      </trkpt>
      <trkpt lat="45.65214" lon="6.51225">
        <ele>1929</ele>
        <time>2022-07-16T05:35:01Z</time>
      </trkpt>
      <trkpt lat="45.65214" lon="6.51229">
        <ele>1929</ele>
        <time>2022-07-16T05:35:03Z</time>
      </trkpt>
      <trkpt lat="45.65213" lon="6.51232">
        <ele>1929</ele>
        <time>2022-07-16T05:35:05Z</time>
      </trkpt>
      <trkpt lat="45.65212" lon="6.51235">
        <ele>1928</ele>
        <time>2022-07-16T05:35:07Z</time>
      </trkpt>
      <trkpt lat="45.6521" lon="6.51238">
        <ele>1928</ele>
        <time>2022-07-16T05:35:09Z</time>
      </trkpt>
      <trkpt lat="45.65209" lon="6.51241">
        <ele>1928</ele>
        <time>2022-07-16T05:35:11Z</time>
      </trkpt>
      <trkpt lat="45.65208" lon="6.51244">
        <ele>1927</ele>
        <time>2022-07-16T05:35:13Z</time>
      </trkpt>
      <trkpt lat="45.65207" lon="6.51248">
        <ele>1927</ele>
        <time>2022-07-16T05:35:15Z</time>
      </trkpt>
      <trkpt lat="45.65207" lon="6.51251">
        <ele>1926</ele>
        <time>2022-07-16T05:35:17Z</time>
      </trkpt>
      <trkpt lat="45.65206" lon="6.51254">
        <ele>1925</ele>
        <time>2022-07-16T05:35:19Z</time>
      </trkpt>
      <trkpt lat="45.65205" lon="6.51257">
        <ele>1924</ele>
        <time>2022-07-16T05:35:21Z</time>
      </trkpt>
      <trkpt lat="45.65204" lon="6.5126">
        <ele>1924</ele>
        <time>2022-07-16T05:35:23Z</time>
      </trkpt>
      <trkpt lat="45.65203" lon="6.51263">
        <ele>1924</ele>
        <time>2022-07-16T05:35:25Z</time>
      </trkpt>
      <trkpt lat="45.65202" lon="6.51267">
        <ele>1924</ele>
        <time>2022-07-16T05:35:27Z</time>
      </trkpt>
      <trkpt lat="45.65202" lon="6.5127">
        <ele>1924</ele>
        <time>2022-07-16T05:35:29Z</time>
      </trkpt>
      <trkpt lat="45.65202" lon="6.51273">
        <ele>1924</ele>
        <time>2022-07-16T05:35:31Z</time>
      </trkpt>
      <trkpt lat="45.65201" lon="6.51276">
        <ele>1923</ele>
        <time>2022-07-16T05:35:34Z</time>
      </trkpt>
      <trkpt lat="45.652" lon="6.51279">
        <ele>1922</ele>
        <time>2022-07-16T05:35:36Z</time>
      </trkpt>
      <trkpt lat="45.65199" lon="6.51282">
        <ele>1922</ele>
        <time>2022-07-16T05:35:38Z</time>
      </trkpt>
      <trkpt lat="45.65199" lon="6.51285">
        <ele>1922</ele>
        <time>2022-07-16T05:35:40Z</time>
      </trkpt>
      <trkpt lat="45.65198" lon="6.51289">
        <ele>1920</ele>
        <time>2022-07-16T05:35:42Z</time>
      </trkpt>
      <trkpt lat="45.65198" lon="6.51292">
        <ele>1920</ele>
        <time>2022-07-16T05:35:44Z</time>
      </trkpt>
      <trkpt lat="45.65197" lon="6.51295">
        <ele>1919</ele>
        <time>2022-07-16T05:35:46Z</time>
      </trkpt>
      <trkpt lat="45.65195" lon="6.51299">
        <ele>1918</ele>
        <time>2022-07-16T05:35:48Z</time>
      </trkpt>
      <trkpt lat="45.65193" lon="6.51301">
        <ele>1918</ele>
        <time>2022-07-16T05:35:50Z</time>
      </trkpt>
      <trkpt lat="45.65191" lon="6.51302">
        <ele>1917</ele>
        <time>2022-07-16T05:35:52Z</time>
      </trkpt>
      <trkpt lat="45.65188" lon="6.51302">
        <ele>1917</ele>
        <time>2022-07-16T05:35:54Z</time>
      </trkpt>
      <trkpt lat="45.65185" lon="6.513">
        <ele>1917</ele>
        <time>2022-07-16T05:35:56Z</time>
      </trkpt>
      <trkpt lat="45.65182" lon="6.51298">
        <ele>1917</ele>
        <time>2022-07-16T05:35:58Z</time>
      </trkpt>
      <trkpt lat="45.6518" lon="6.51296">
        <ele>1917</ele>
        <time>2022-07-16T05:36:00Z</time>
      </trkpt>
      <trkpt lat="45.65178" lon="6.51292">
        <ele>1917</ele>
        <time>2022-07-16T05:36:02Z</time>
      </trkpt>
      <trkpt lat="45.65176" lon="6.51289">
        <ele>1918</ele>
        <time>2022-07-16T05:36:04Z</time>
      </trkpt>
      <trkpt lat="45.65175" lon="6.51286">
        <ele>1918</ele>
        <time>2022-07-16T05:36:06Z</time>
      </trkpt>
      <trkpt lat="45.65173" lon="6.51284">
        <ele>1918</ele>
        <time>2022-07-16T05:36:08Z</time>
      </trkpt>
      <trkpt lat="45.65171" lon="6.51281">
        <ele>1918</ele>
        <time>2022-07-16T05:36:10Z</time>
      </trkpt>
      <trkpt lat="45.65169" lon="6.51278">
        <ele>1917</ele>
        <time>2022-07-16T05:36:12Z</time>
      </trkpt>
      <trkpt lat="45.65167" lon="6.51276">
        <ele>1917</ele>
        <time>2022-07-16T05:36:14Z</time>
      </trkpt>
      <trkpt lat="45.65165" lon="6.51273">
        <ele>1917</ele>
        <time>2022-07-16T05:36:16Z</time>
      </trkpt>
      <trkpt lat="45.65164" lon="6.51271">
        <ele>1917</ele>
        <time>2022-07-16T05:36:18Z</time>
      </trkpt>
      <trkpt lat="45.65162" lon="6.51269">
        <ele>1917</ele>
        <time>2022-07-16T05:36:20Z</time>
      </trkpt>
      <trkpt lat="45.6516" lon="6.51268">
        <ele>1917</ele>
        <time>2022-07-16T05:36:22Z</time>
      </trkpt>
      <trkpt lat="45.65158" lon="6.51266">
        <ele>1917</ele>
        <time>2022-07-16T05:36:24Z</time>
      </trkpt>
      <trkpt lat="45.65156" lon="6.51263">
        <ele>1916</ele>
        <time>2022-07-16T05:36:26Z</time>
      </trkpt>
      <trkpt lat="45.65154" lon="6.51261">
        <ele>1917</ele>
        <time>2022-07-16T05:36:28Z</time>
      </trkpt>
      <trkpt lat="45.65152" lon="6.51259">
        <ele>1917</ele>
        <time>2022-07-16T05:36:30Z</time>
      </trkpt>
      <trkpt lat="45.65151" lon="6.51257">
        <ele>1917</ele>
        <time>2022-07-16T05:36:32Z</time>
      </trkpt>
      <trkpt lat="45.65149" lon="6.51255">
        <ele>1917</ele>
        <time>2022-07-16T05:36:34Z</time>
      </trkpt>
      <trkpt lat="45.65147" lon="6.51252">
        <ele>1917</ele>
        <time>2022-07-16T05:36:36Z</time>
      </trkpt>
      <trkpt lat="45.65146" lon="6.5125">
        <ele>1918</ele>
        <time>2022-07-16T05:36:38Z</time>
      </trkpt>
      <trkpt lat="45.65144" lon="6.51248">
        <ele>1918</ele>
        <time>2022-07-16T05:36:40Z</time>
      </trkpt>
      <trkpt lat="45.65142" lon="6.51246">
        <ele>1918</ele>
        <time>2022-07-16T05:36:42Z</time>
      </trkpt>
      <trkpt lat="45.6514" lon="6.51246">
        <ele>1917</ele>
        <time>2022-07-16T05:36:44Z</time>
      </trkpt>
      <trkpt lat="45.65137" lon="6.51245">
        <ele>1917</ele>
        <time>2022-07-16T05:36:46Z</time>
      </trkpt>
      <trkpt lat="45.65135" lon="6.51245">
        <ele>1917</ele>
        <time>2022-07-16T05:36:48Z</time>
      </trkpt>
      <trkpt lat="45.65132" lon="6.51245">
        <ele>1917</ele>
        <time>2022-07-16T05:36:50Z</time>
      </trkpt>
      <trkpt lat="45.6513" lon="6.51245">
        <ele>1917</ele>
        <time>2022-07-16T05:36:52Z</time>
      </trkpt>
      <trkpt lat="45.65128" lon="6.51244">
        <ele>1917</ele>
        <time>2022-07-16T05:36:54Z</time>
      </trkpt>
      <trkpt lat="45.65126" lon="6.51242">
        <ele>1917</ele>
        <time>2022-07-16T05:36:56Z</time>
      </trkpt>
      <trkpt lat="45.65124" lon="6.51239">
        <ele>1917</ele>
        <time>2022-07-16T05:36:58Z</time>
      </trkpt>
      <trkpt lat="45.65122" lon="6.51237">
        <ele>1917</ele>
        <time>2022-07-16T05:37:00Z</time>
      </trkpt>
      <trkpt lat="45.6512" lon="6.51235">
        <ele>1917</ele>
        <time>2022-07-16T05:37:02Z</time>
      </trkpt>
      <trkpt lat="45.65118" lon="6.51232">
        <ele>1918</ele>
        <time>2022-07-16T05:37:04Z</time>
      </trkpt>
      <trkpt lat="45.65116" lon="6.51229">
        <ele>1918</ele>
        <time>2022-07-16T05:37:06Z</time>
      </trkpt>
      <trkpt lat="45.65114" lon="6.51227">
        <ele>1918</ele>
        <time>2022-07-16T05:37:07Z</time>
      </trkpt>
      <trkpt lat="45.65112" lon="6.51225">
        <ele>1918</ele>
        <time>2022-07-16T05:37:08Z</time>
      </trkpt>
      <trkpt lat="45.65108" lon="6.51223">
        <ele>1918</ele>
        <time>2022-07-16T05:37:09Z</time>
      </trkpt>
      <trkpt lat="45.65107" lon="6.51222">
        <ele>1918</ele>
        <time>2022-07-16T05:37:10Z</time>
      </trkpt>
      <trkpt lat="45.65105" lon="6.51221">
        <ele>1917</ele>
        <time>2022-07-16T05:37:11Z</time>
      </trkpt>
      <trkpt lat="45.65103" lon="6.5122">
        <ele>1917</ele>
        <time>2022-07-16T05:37:12Z</time>
      </trkpt>
      <trkpt lat="45.65101" lon="6.51218">
        <ele>1917</ele>
        <time>2022-07-16T05:37:13Z</time>
      </trkpt>
      <trkpt lat="45.65099" lon="6.51217">
        <ele>1917</ele>
        <time>2022-07-16T05:37:14Z</time>
      </trkpt>
      <trkpt lat="45.65097" lon="6.51215">
        <ele>1917</ele>
        <time>2022-07-16T05:37:15Z</time>
      </trkpt>
      <trkpt lat="45.65093" lon="6.51213">
        <ele>1917</ele>
        <time>2022-07-16T05:37:16Z</time>
      </trkpt>
      <trkpt lat="45.65092" lon="6.51212">
        <ele>1917</ele>
        <time>2022-07-16T05:37:17Z</time>
      </trkpt>
      <trkpt lat="45.6509" lon="6.5121">
        <ele>1916</ele>
        <time>2022-07-16T05:37:18Z</time>
      </trkpt>
      <trkpt lat="45.65088" lon="6.51209">
        <ele>1916</ele>
        <time>2022-07-16T05:37:19Z</time>
      </trkpt>
      <trkpt lat="45.65085" lon="6.51208">
        <ele>1916</ele>
        <time>2022-07-16T05:37:20Z</time>
      </trkpt>
      <trkpt lat="45.65083" lon="6.51206">
        <ele>1916</ele>
        <time>2022-07-16T05:37:21Z</time>
      </trkpt>
      <trkpt lat="45.65081" lon="6.51205">
        <ele>1916</ele>
        <time>2022-07-16T05:37:22Z</time>
      </trkpt>
      <trkpt lat="45.65079" lon="6.51204">
        <ele>1916</ele>
        <time>2022-07-16T05:37:23Z</time>
      </trkpt>
      <trkpt lat="45.65077" lon="6.51202">
        <ele>1916</ele>
        <time>2022-07-16T05:37:24Z</time>
      </trkpt>
      <trkpt lat="45.65075" lon="6.512">
        <ele>1916</ele>
        <time>2022-07-16T05:37:25Z</time>
      </trkpt>
      <trkpt lat="45.65073" lon="6.51199">
        <ele>1915</ele>
        <time>2022-07-16T05:37:26Z</time>
      </trkpt>
      <trkpt lat="45.65071" lon="6.51198">
        <ele>1915</ele>
        <time>2022-07-16T05:37:27Z</time>
      </trkpt>
      <trkpt lat="45.65067" lon="6.51195">
        <ele>1915</ele>
        <time>2022-07-16T05:37:28Z</time>
      </trkpt>
      <trkpt lat="45.65066" lon="6.51195">
        <ele>1915</ele>
        <time>2022-07-16T05:37:29Z</time>
      </trkpt>
      <trkpt lat="45.65064" lon="6.51193">
        <ele>1914</ele>
        <time>2022-07-16T05:37:30Z</time>
      </trkpt>
      <trkpt lat="45.65062" lon="6.51191">
        <ele>1914</ele>
        <time>2022-07-16T05:37:31Z</time>
      </trkpt>
      <trkpt lat="45.6506" lon="6.5119">
        <ele>1914</ele>
        <time>2022-07-16T05:37:32Z</time>
      </trkpt>
      <trkpt lat="45.65058" lon="6.51187">
        <ele>1914</ele>
        <time>2022-07-16T05:37:33Z</time>
      </trkpt>
      <trkpt lat="45.65056" lon="6.51185">
        <ele>1914</ele>
        <time>2022-07-16T05:37:34Z</time>
      </trkpt>
      <trkpt lat="45.65054" lon="6.51183">
        <ele>1914</ele>
        <time>2022-07-16T05:37:35Z</time>
      </trkpt>
      <trkpt lat="45.65052" lon="6.51181">
        <ele>1914</ele>
        <time>2022-07-16T05:37:36Z</time>
      </trkpt>
      <trkpt lat="45.6505" lon="6.51179">
        <ele>1914</ele>
        <time>2022-07-16T05:37:37Z</time>
      </trkpt>
      <trkpt lat="45.65048" lon="6.51177">
        <ele>1913</ele>
        <time>2022-07-16T05:37:38Z</time>
      </trkpt>
      <trkpt lat="45.65047" lon="6.51175">
        <ele>1913</ele>
        <time>2022-07-16T05:37:39Z</time>
      </trkpt>
      <trkpt lat="45.65045" lon="6.51174">
        <ele>1913</ele>
        <time>2022-07-16T05:37:40Z</time>
      </trkpt>
      <trkpt lat="45.65043" lon="6.51172">
        <ele>1913</ele>
        <time>2022-07-16T05:37:41Z</time>
      </trkpt>
      <trkpt lat="45.65041" lon="6.51171">
        <ele>1912</ele>
        <time>2022-07-16T05:37:42Z</time>
      </trkpt>
      <trkpt lat="45.65039" lon="6.5117">
        <ele>1912</ele>
        <time>2022-07-16T05:37:43Z</time>
      </trkpt>
      <trkpt lat="45.65035" lon="6.51169">
        <ele>1911</ele>
        <time>2022-07-16T05:37:45Z</time>
      </trkpt>
      <trkpt lat="45.65034" lon="6.51168">
        <ele>1911</ele>
        <time>2022-07-16T05:37:46Z</time>
      </trkpt>
      <trkpt lat="45.65032" lon="6.51167">
        <ele>1911</ele>
        <time>2022-07-16T05:37:47Z</time>
      </trkpt>
      <trkpt lat="45.6503" lon="6.51166">
        <ele>1911</ele>
        <time>2022-07-16T05:37:48Z</time>
      </trkpt>
      <trkpt lat="45.65028" lon="6.51165">
        <ele>1911</ele>
        <time>2022-07-16T05:37:49Z</time>
      </trkpt>
      <trkpt lat="45.65026" lon="6.51163">
        <ele>1911</ele>
        <time>2022-07-16T05:37:50Z</time>
      </trkpt>
      <trkpt lat="45.65024" lon="6.51162">
        <ele>1910</ele>
        <time>2022-07-16T05:37:51Z</time>
      </trkpt>
      <trkpt lat="45.65022" lon="6.5116">
        <ele>1910</ele>
        <time>2022-07-16T05:37:52Z</time>
      </trkpt>
      <trkpt lat="45.65019" lon="6.51159">
        <ele>1910</ele>
        <time>2022-07-16T05:37:53Z</time>
      </trkpt>
      <trkpt lat="45.65017" lon="6.51157">
        <ele>1910</ele>
        <time>2022-07-16T05:37:54Z</time>
      </trkpt>
      <trkpt lat="45.65014" lon="6.51155">
        <ele>1910</ele>
        <time>2022-07-16T05:37:55Z</time>
      </trkpt>
      <trkpt lat="45.65012" lon="6.51154">
        <ele>1910</ele>
        <time>2022-07-16T05:37:56Z</time>
      </trkpt>
      <trkpt lat="45.65009" lon="6.51152">
        <ele>1909</ele>
        <time>2022-07-16T05:37:57Z</time>
      </trkpt>
      <trkpt lat="45.65007" lon="6.5115">
        <ele>1909</ele>
        <time>2022-07-16T05:37:58Z</time>
      </trkpt>
      <trkpt lat="45.65005" lon="6.51149">
        <ele>1909</ele>
        <time>2022-07-16T05:37:59Z</time>
      </trkpt>
      <trkpt lat="45.65002" lon="6.51147">
        <ele>1908</ele>
        <time>2022-07-16T05:38:00Z</time>
      </trkpt>
      <trkpt lat="45.65" lon="6.51146">
        <ele>1908</ele>
        <time>2022-07-16T05:38:01Z</time>
      </trkpt>
      <trkpt lat="45.64998" lon="6.51144">
        <ele>1908</ele>
        <time>2022-07-16T05:38:02Z</time>
      </trkpt>
      <trkpt lat="45.64995" lon="6.51143">
        <ele>1908</ele>
        <time>2022-07-16T05:38:03Z</time>
      </trkpt>
      <trkpt lat="45.64993" lon="6.51142">
        <ele>1908</ele>
        <time>2022-07-16T05:38:04Z</time>
      </trkpt>
      <trkpt lat="45.64991" lon="6.5114">
        <ele>1908</ele>
        <time>2022-07-16T05:38:05Z</time>
      </trkpt>
      <trkpt lat="45.64988" lon="6.51139">
        <ele>1908</ele>
        <time>2022-07-16T05:38:06Z</time>
      </trkpt>
      <trkpt lat="45.64986" lon="6.51137">
        <ele>1908</ele>
        <time>2022-07-16T05:38:07Z</time>
      </trkpt>
      <trkpt lat="45.64983" lon="6.51136">
        <ele>1907</ele>
        <time>2022-07-16T05:38:08Z</time>
      </trkpt>
      <trkpt lat="45.64981" lon="6.51135">
        <ele>1906</ele>
        <time>2022-07-16T05:38:09Z</time>
      </trkpt>
      <trkpt lat="45.64979" lon="6.51133">
        <ele>1905</ele>
        <time>2022-07-16T05:38:10Z</time>
      </trkpt>
      <trkpt lat="45.64977" lon="6.51132">
        <ele>1905</ele>
        <time>2022-07-16T05:38:11Z</time>
      </trkpt>
      <trkpt lat="45.64975" lon="6.5113">
        <ele>1905</ele>
        <time>2022-07-16T05:38:12Z</time>
      </trkpt>
      <trkpt lat="45.64973" lon="6.51128">
        <ele>1905</ele>
        <time>2022-07-16T05:38:13Z</time>
      </trkpt>
      <trkpt lat="45.64971" lon="6.51126">
        <ele>1905</ele>
        <time>2022-07-16T05:38:14Z</time>
      </trkpt>
      <trkpt lat="45.64969" lon="6.51125">
        <ele>1905</ele>
        <time>2022-07-16T05:38:15Z</time>
      </trkpt>
      <trkpt lat="45.64967" lon="6.51123">
        <ele>1905</ele>
        <time>2022-07-16T05:38:16Z</time>
      </trkpt>
      <trkpt lat="45.64965" lon="6.51122">
        <ele>1904</ele>
        <time>2022-07-16T05:38:17Z</time>
      </trkpt>
      <trkpt lat="45.64962" lon="6.5112">
        <ele>1903</ele>
        <time>2022-07-16T05:38:18Z</time>
      </trkpt>
      <trkpt lat="45.6496" lon="6.51119">
        <ele>1903</ele>
        <time>2022-07-16T05:38:19Z</time>
      </trkpt>
      <trkpt lat="45.64958" lon="6.51118">
        <ele>1903</ele>
        <time>2022-07-16T05:38:20Z</time>
      </trkpt>
      <trkpt lat="45.64956" lon="6.51117">
        <ele>1903</ele>
        <time>2022-07-16T05:38:21Z</time>
      </trkpt>
      <trkpt lat="45.64954" lon="6.51116">
        <ele>1903</ele>
        <time>2022-07-16T05:38:22Z</time>
      </trkpt>
      <trkpt lat="45.64952" lon="6.51115">
        <ele>1903</ele>
        <time>2022-07-16T05:38:23Z</time>
      </trkpt>
      <trkpt lat="45.64949" lon="6.51115">
        <ele>1903</ele>
        <time>2022-07-16T05:38:24Z</time>
      </trkpt>
      <trkpt lat="45.64947" lon="6.51114">
        <ele>1903</ele>
        <time>2022-07-16T05:38:25Z</time>
      </trkpt>
      <trkpt lat="45.64944" lon="6.51113">
        <ele>1903</ele>
        <time>2022-07-16T05:38:26Z</time>
      </trkpt>
      <trkpt lat="45.64942" lon="6.51112">
        <ele>1903</ele>
        <time>2022-07-16T05:38:27Z</time>
      </trkpt>
      <trkpt lat="45.64939" lon="6.51111">
        <ele>1903</ele>
        <time>2022-07-16T05:38:28Z</time>
      </trkpt>
      <trkpt lat="45.64937" lon="6.5111">
        <ele>1903</ele>
        <time>2022-07-16T05:38:29Z</time>
      </trkpt>
      <trkpt lat="45.64934" lon="6.51109">
        <ele>1902</ele>
        <time>2022-07-16T05:38:30Z</time>
      </trkpt>
      <trkpt lat="45.64932" lon="6.51107">
        <ele>1902</ele>
        <time>2022-07-16T05:38:31Z</time>
      </trkpt>
      <trkpt lat="45.64929" lon="6.51106">
        <ele>1901</ele>
        <time>2022-07-16T05:38:32Z</time>
      </trkpt>
      <trkpt lat="45.64927" lon="6.51105">
        <ele>1900</ele>
        <time>2022-07-16T05:38:33Z</time>
      </trkpt>
      <trkpt lat="45.64925" lon="6.51104">
        <ele>1900</ele>
        <time>2022-07-16T05:38:34Z</time>
      </trkpt>
      <trkpt lat="45.64922" lon="6.51104">
        <ele>1900</ele>
        <time>2022-07-16T05:38:35Z</time>
      </trkpt>
      <trkpt lat="45.6492" lon="6.51103">
        <ele>1900</ele>
        <time>2022-07-16T05:38:36Z</time>
      </trkpt>
      <trkpt lat="45.64918" lon="6.51101">
        <ele>1899</ele>
        <time>2022-07-16T05:38:37Z</time>
      </trkpt>
      <trkpt lat="45.64916" lon="6.51099">
        <ele>1899</ele>
        <time>2022-07-16T05:38:38Z</time>
      </trkpt>
      <trkpt lat="45.64913" lon="6.51096">
        <ele>1899</ele>
        <time>2022-07-16T05:38:39Z</time>
      </trkpt>
      <trkpt lat="45.64913" lon="6.51095">
        <ele>1898</ele>
        <time>2022-07-16T05:38:40Z</time>
      </trkpt>
      <trkpt lat="45.64911" lon="6.51093">
        <ele>1897</ele>
        <time>2022-07-16T05:38:41Z</time>
      </trkpt>
      <trkpt lat="45.6491" lon="6.51092">
        <ele>1897</ele>
        <time>2022-07-16T05:38:42Z</time>
      </trkpt>
      <trkpt lat="45.64908" lon="6.5109">
        <ele>1897</ele>
        <time>2022-07-16T05:38:43Z</time>
      </trkpt>
      <trkpt lat="45.64906" lon="6.51088">
        <ele>1897</ele>
        <time>2022-07-16T05:38:44Z</time>
      </trkpt>
      <trkpt lat="45.64905" lon="6.51085">
        <ele>1897</ele>
        <time>2022-07-16T05:38:45Z</time>
      </trkpt>
      <trkpt lat="45.64904" lon="6.51083">
        <ele>1895</ele>
        <time>2022-07-16T05:38:46Z</time>
      </trkpt>
      <trkpt lat="45.64902" lon="6.5108">
        <ele>1895</ele>
        <time>2022-07-16T05:38:47Z</time>
      </trkpt>
      <trkpt lat="45.64901" lon="6.51078">
        <ele>1895</ele>
        <time>2022-07-16T05:38:48Z</time>
      </trkpt>
      <trkpt lat="45.64899" lon="6.51076">
        <ele>1895</ele>
        <time>2022-07-16T05:38:49Z</time>
      </trkpt>
      <trkpt lat="45.64898" lon="6.51073">
        <ele>1894</ele>
        <time>2022-07-16T05:38:50Z</time>
      </trkpt>
      <trkpt lat="45.64896" lon="6.51071">
        <ele>1894</ele>
        <time>2022-07-16T05:38:51Z</time>
      </trkpt>
      <trkpt lat="45.64895" lon="6.51069">
        <ele>1894</ele>
        <time>2022-07-16T05:38:52Z</time>
      </trkpt>
      <trkpt lat="45.64893" lon="6.51066">
        <ele>1894</ele>
        <time>2022-07-16T05:38:53Z</time>
      </trkpt>
      <trkpt lat="45.64892" lon="6.51063">
        <ele>1893</ele>
        <time>2022-07-16T05:38:54Z</time>
      </trkpt>
      <trkpt lat="45.64891" lon="6.51061">
        <ele>1893</ele>
        <time>2022-07-16T05:38:55Z</time>
      </trkpt>
      <trkpt lat="45.6489" lon="6.51059">
        <ele>1892</ele>
        <time>2022-07-16T05:38:56Z</time>
      </trkpt>
      <trkpt lat="45.64888" lon="6.51057">
        <ele>1892</ele>
        <time>2022-07-16T05:38:57Z</time>
      </trkpt>
      <trkpt lat="45.64887" lon="6.51055">
        <ele>1892</ele>
        <time>2022-07-16T05:38:58Z</time>
      </trkpt>
      <trkpt lat="45.64885" lon="6.51053">
        <ele>1892</ele>
        <time>2022-07-16T05:38:59Z</time>
      </trkpt>
      <trkpt lat="45.64883" lon="6.5105">
        <ele>1890</ele>
        <time>2022-07-16T05:39:00Z</time>
      </trkpt>
      <trkpt lat="45.64882" lon="6.51048">
        <ele>1890</ele>
        <time>2022-07-16T05:39:01Z</time>
      </trkpt>
      <trkpt lat="45.6488" lon="6.51046">
        <ele>1890</ele>
        <time>2022-07-16T05:39:02Z</time>
      </trkpt>
      <trkpt lat="45.64878" lon="6.51044">
        <ele>1890</ele>
        <time>2022-07-16T05:39:03Z</time>
      </trkpt>
      <trkpt lat="45.64876" lon="6.51042">
        <ele>1890</ele>
        <time>2022-07-16T05:39:04Z</time>
      </trkpt>
      <trkpt lat="45.64875" lon="6.5104">
        <ele>1889</ele>
        <time>2022-07-16T05:39:05Z</time>
      </trkpt>
      <trkpt lat="45.64873" lon="6.51038">
        <ele>1888</ele>
        <time>2022-07-16T05:39:06Z</time>
      </trkpt>
      <trkpt lat="45.64871" lon="6.51036">
        <ele>1888</ele>
        <time>2022-07-16T05:39:07Z</time>
      </trkpt>
      <trkpt lat="45.64869" lon="6.51034">
        <ele>1888</ele>
        <time>2022-07-16T05:39:08Z</time>
      </trkpt>
      <trkpt lat="45.64868" lon="6.51033">
        <ele>1887</ele>
        <time>2022-07-16T05:39:09Z</time>
      </trkpt>
      <trkpt lat="45.64866" lon="6.51032">
        <ele>1887</ele>
        <time>2022-07-16T05:39:11Z</time>
      </trkpt>
      <trkpt lat="45.64866" lon="6.51036">
        <ele>1888</ele>
        <time>2022-07-16T05:39:14Z</time>
      </trkpt>
      <trkpt lat="45.64867" lon="6.51039">
        <ele>1888</ele>
        <time>2022-07-16T05:39:16Z</time>
      </trkpt>
      <trkpt lat="45.64867" lon="6.51043">
        <ele>1888</ele>
        <time>2022-07-16T05:39:18Z</time>
      </trkpt>
      <trkpt lat="45.64868" lon="6.51046">
        <ele>1889</ele>
        <time>2022-07-16T05:39:20Z</time>
      </trkpt>
      <trkpt lat="45.64868" lon="6.51049">
        <ele>1889</ele>
        <time>2022-07-16T05:39:22Z</time>
      </trkpt>
      <trkpt lat="45.64868" lon="6.51052">
        <ele>1890</ele>
        <time>2022-07-16T05:39:24Z</time>
      </trkpt>
      <trkpt lat="45.64868" lon="6.51055">
        <ele>1890</ele>
        <time>2022-07-16T05:39:26Z</time>
      </trkpt>
      <trkpt lat="45.64868" lon="6.51058">
        <ele>1891</ele>
        <time>2022-07-16T05:39:28Z</time>
      </trkpt>
      <trkpt lat="45.64869" lon="6.5106">
        <ele>1891</ele>
        <time>2022-07-16T05:39:30Z</time>
      </trkpt>
      <trkpt lat="45.64869" lon="6.51063">
        <ele>1892</ele>
        <time>2022-07-16T05:39:32Z</time>
      </trkpt>
      <trkpt lat="45.64869" lon="6.51066">
        <ele>1893</ele>
        <time>2022-07-16T05:39:34Z</time>
      </trkpt>
      <trkpt lat="45.64868" lon="6.51069">
        <ele>1893</ele>
        <time>2022-07-16T05:39:37Z</time>
      </trkpt>
      <trkpt lat="45.64868" lon="6.51072">
        <ele>1893</ele>
        <time>2022-07-16T05:39:41Z</time>
      </trkpt>
      <trkpt lat="45.64867" lon="6.51075">
        <ele>1893</ele>
        <time>2022-07-16T05:39:43Z</time>
      </trkpt>
      <trkpt lat="45.64866" lon="6.51078">
        <ele>1893</ele>
        <time>2022-07-16T05:39:45Z</time>
      </trkpt>
      <trkpt lat="45.64865" lon="6.5108">
        <ele>1895</ele>
        <time>2022-07-16T05:39:47Z</time>
      </trkpt>
      <trkpt lat="45.64863" lon="6.51082">
        <ele>1895</ele>
        <time>2022-07-16T05:39:50Z</time>
      </trkpt>
      <trkpt lat="45.64862" lon="6.51084">
        <ele>1895</ele>
        <time>2022-07-16T05:39:52Z</time>
      </trkpt>
      <trkpt lat="45.64861" lon="6.51087">
        <ele>1897</ele>
        <time>2022-07-16T05:39:54Z</time>
      </trkpt>
      <trkpt lat="45.64861" lon="6.5109">
        <ele>1897</ele>
        <time>2022-07-16T05:39:56Z</time>
      </trkpt>
      <trkpt lat="45.64861" lon="6.51092">
        <ele>1897</ele>
        <time>2022-07-16T05:39:58Z</time>
      </trkpt>
      <trkpt lat="45.6486" lon="6.51096">
        <ele>1897</ele>
        <time>2022-07-16T05:40:00Z</time>
      </trkpt>
      <trkpt lat="45.6486" lon="6.51099">
        <ele>1898</ele>
        <time>2022-07-16T05:40:02Z</time>
      </trkpt>
      <trkpt lat="45.6486" lon="6.51102">
        <ele>1898</ele>
        <time>2022-07-16T05:40:04Z</time>
      </trkpt>
      <trkpt lat="45.64859" lon="6.51105">
        <ele>1900</ele>
        <time>2022-07-16T05:40:06Z</time>
      </trkpt>
      <trkpt lat="45.64859" lon="6.51108">
        <ele>1900</ele>
        <time>2022-07-16T05:40:08Z</time>
      </trkpt>
      <trkpt lat="45.64859" lon="6.51111">
        <ele>1901</ele>
        <time>2022-07-16T05:40:10Z</time>
      </trkpt>
      <trkpt lat="45.64858" lon="6.51114">
        <ele>1901</ele>
        <time>2022-07-16T05:40:12Z</time>
      </trkpt>
      <trkpt lat="45.64858" lon="6.51117">
        <ele>1902</ele>
        <time>2022-07-16T05:40:14Z</time>
      </trkpt>
      <trkpt lat="45.64857" lon="6.5112">
        <ele>1902</ele>
        <time>2022-07-16T05:40:16Z</time>
      </trkpt>
      <trkpt lat="45.64856" lon="6.51123">
        <ele>1903</ele>
        <time>2022-07-16T05:40:18Z</time>
      </trkpt>
      <trkpt lat="45.64855" lon="6.51126">
        <ele>1903</ele>
        <time>2022-07-16T05:40:20Z</time>
      </trkpt>
      <trkpt lat="45.64855" lon="6.51128">
        <ele>1904</ele>
        <time>2022-07-16T05:40:22Z</time>
      </trkpt>
      <trkpt lat="45.64854" lon="6.51131">
        <ele>1905</ele>
        <time>2022-07-16T05:40:24Z</time>
      </trkpt>
      <trkpt lat="45.64853" lon="6.51134">
        <ele>1905</ele>
        <time>2022-07-16T05:40:26Z</time>
      </trkpt>
      <trkpt lat="45.64853" lon="6.51137">
        <ele>1905</ele>
        <time>2022-07-16T05:40:28Z</time>
      </trkpt>
      <trkpt lat="45.64852" lon="6.5114">
        <ele>1905</ele>
        <time>2022-07-16T05:40:30Z</time>
      </trkpt>
      <trkpt lat="45.64851" lon="6.51143">
        <ele>1906</ele>
        <time>2022-07-16T05:40:32Z</time>
      </trkpt>
      <trkpt lat="45.6485" lon="6.51145">
        <ele>1907</ele>
        <time>2022-07-16T05:40:34Z</time>
      </trkpt>
      <trkpt lat="45.6485" lon="6.51148">
        <ele>1907</ele>
        <time>2022-07-16T05:40:36Z</time>
      </trkpt>
      <trkpt lat="45.64849" lon="6.51151">
        <ele>1907</ele>
        <time>2022-07-16T05:40:38Z</time>
      </trkpt>
      <trkpt lat="45.64848" lon="6.51154">
        <ele>1907</ele>
        <time>2022-07-16T05:40:40Z</time>
      </trkpt>
      <trkpt lat="45.64848" lon="6.51158">
        <ele>1909</ele>
        <time>2022-07-16T05:40:42Z</time>
      </trkpt>
      <trkpt lat="45.64847" lon="6.51161">
        <ele>1909</ele>
        <time>2022-07-16T05:40:44Z</time>
      </trkpt>
      <trkpt lat="45.64846" lon="6.51165">
        <ele>1909</ele>
        <time>2022-07-16T05:40:46Z</time>
      </trkpt>
      <trkpt lat="45.64846" lon="6.51168">
        <ele>1909</ele>
        <time>2022-07-16T05:40:48Z</time>
      </trkpt>
      <trkpt lat="45.64845" lon="6.5117">
        <ele>1910</ele>
        <time>2022-07-16T05:40:50Z</time>
      </trkpt>
      <trkpt lat="45.64844" lon="6.51173">
        <ele>1911</ele>
        <time>2022-07-16T05:40:52Z</time>
      </trkpt>
      <trkpt lat="45.64844" lon="6.51176">
        <ele>1911</ele>
        <time>2022-07-16T05:40:54Z</time>
      </trkpt>
      <trkpt lat="45.64845" lon="6.51179">
        <ele>1911</ele>
        <time>2022-07-16T05:40:56Z</time>
      </trkpt>
      <trkpt lat="45.64846" lon="6.51182">
        <ele>1912</ele>
        <time>2022-07-16T05:40:58Z</time>
      </trkpt>
      <trkpt lat="45.64847" lon="6.51184">
        <ele>1913</ele>
        <time>2022-07-16T05:41:00Z</time>
      </trkpt>
      <trkpt lat="45.64848" lon="6.51187">
        <ele>1913</ele>
        <time>2022-07-16T05:41:02Z</time>
      </trkpt>
      <trkpt lat="45.64849" lon="6.51189">
        <ele>1913</ele>
        <time>2022-07-16T05:41:04Z</time>
      </trkpt>
      <trkpt lat="45.64851" lon="6.51192">
        <ele>1914</ele>
        <time>2022-07-16T05:41:06Z</time>
      </trkpt>
      <trkpt lat="45.64852" lon="6.51194">
        <ele>1915</ele>
        <time>2022-07-16T05:41:08Z</time>
      </trkpt>
      <trkpt lat="45.64854" lon="6.51197">
        <ele>1915</ele>
        <time>2022-07-16T05:41:10Z</time>
      </trkpt>
      <trkpt lat="45.64856" lon="6.51199">
        <ele>1915</ele>
        <time>2022-07-16T05:41:12Z</time>
      </trkpt>
      <trkpt lat="45.64857" lon="6.51201">
        <ele>1916</ele>
        <time>2022-07-16T05:41:14Z</time>
      </trkpt>
      <trkpt lat="45.6486" lon="6.51203">
        <ele>1916</ele>
        <time>2022-07-16T05:41:17Z</time>
      </trkpt>
      <trkpt lat="45.64861" lon="6.51205">
        <ele>1917</ele>
        <time>2022-07-16T05:41:19Z</time>
      </trkpt>
      <trkpt lat="45.64862" lon="6.51208">
        <ele>1917</ele>
        <time>2022-07-16T05:41:21Z</time>
      </trkpt>
      <trkpt lat="45.64864" lon="6.51209">
        <ele>1917</ele>
        <time>2022-07-16T05:41:23Z</time>
      </trkpt>
      <trkpt lat="45.64865" lon="6.51211">
        <ele>1919</ele>
        <time>2022-07-16T05:41:25Z</time>
      </trkpt>
      <trkpt lat="45.64866" lon="6.51214">
        <ele>1919</ele>
        <time>2022-07-16T05:41:27Z</time>
      </trkpt>
      <trkpt lat="45.64868" lon="6.51217">
        <ele>1920</ele>
        <time>2022-07-16T05:41:30Z</time>
      </trkpt>
      <trkpt lat="45.64868" lon="6.5122">
        <ele>1920</ele>
        <time>2022-07-16T05:41:33Z</time>
      </trkpt>
      <trkpt lat="45.64868" lon="6.51224">
        <ele>1921</ele>
        <time>2022-07-16T05:41:36Z</time>
      </trkpt>
      <trkpt lat="45.64868" lon="6.51227">
        <ele>1922</ele>
        <time>2022-07-16T05:41:39Z</time>
      </trkpt>
      <trkpt lat="45.64868" lon="6.51231">
        <ele>1922</ele>
        <time>2022-07-16T05:41:42Z</time>
      </trkpt>
      <trkpt lat="45.64867" lon="6.51234">
        <ele>1923</ele>
        <time>2022-07-16T05:41:44Z</time>
      </trkpt>
      <trkpt lat="45.64867" lon="6.51238">
        <ele>1923</ele>
        <time>2022-07-16T05:41:47Z</time>
      </trkpt>
      <trkpt lat="45.64867" lon="6.5124">
        <ele>1924</ele>
        <time>2022-07-16T05:41:49Z</time>
      </trkpt>
      <trkpt lat="45.64864" lon="6.51242">
        <ele>1924</ele>
        <time>2022-07-16T05:41:52Z</time>
      </trkpt>
      <trkpt lat="45.64862" lon="6.51244">
        <ele>1924</ele>
        <time>2022-07-16T05:41:54Z</time>
      </trkpt>
      <trkpt lat="45.64861" lon="6.51245">
        <ele>1924</ele>
        <time>2022-07-16T05:41:56Z</time>
      </trkpt>
      <trkpt lat="45.64859" lon="6.51246">
        <ele>1925</ele>
        <time>2022-07-16T05:41:58Z</time>
      </trkpt>
      <trkpt lat="45.64857" lon="6.51248">
        <ele>1925</ele>
        <time>2022-07-16T05:42:00Z</time>
      </trkpt>
      <trkpt lat="45.64855" lon="6.5125">
        <ele>1925</ele>
        <time>2022-07-16T05:42:02Z</time>
      </trkpt>
      <trkpt lat="45.64854" lon="6.51251">
        <ele>1925</ele>
        <time>2022-07-16T05:42:04Z</time>
      </trkpt>
      <trkpt lat="45.64852" lon="6.51253">
        <ele>1925</ele>
        <time>2022-07-16T05:42:06Z</time>
      </trkpt>
      <trkpt lat="45.6485" lon="6.51253">
        <ele>1926</ele>
        <time>2022-07-16T05:42:08Z</time>
      </trkpt>
      <trkpt lat="45.64847" lon="6.51254">
        <ele>1926</ele>
        <time>2022-07-16T05:42:10Z</time>
      </trkpt>
      <trkpt lat="45.64846" lon="6.51256">
        <ele>1927</ele>
        <time>2022-07-16T05:42:12Z</time>
      </trkpt>
      <trkpt lat="45.64844" lon="6.51257">
        <ele>1927</ele>
        <time>2022-07-16T05:42:14Z</time>
      </trkpt>
      <trkpt lat="45.64842" lon="6.51258">
        <ele>1927</ele>
        <time>2022-07-16T05:42:16Z</time>
      </trkpt>
      <trkpt lat="45.6484" lon="6.51258">
        <ele>1927</ele>
        <time>2022-07-16T05:42:18Z</time>
      </trkpt>
      <trkpt lat="45.64838" lon="6.5126">
        <ele>1928</ele>
        <time>2022-07-16T05:42:20Z</time>
      </trkpt>
      <trkpt lat="45.64836" lon="6.51262">
        <ele>1929</ele>
        <time>2022-07-16T05:42:22Z</time>
      </trkpt>
      <trkpt lat="45.64834" lon="6.51263">
        <ele>1929</ele>
        <time>2022-07-16T05:42:24Z</time>
      </trkpt>
      <trkpt lat="45.64832" lon="6.51264">
        <ele>1929</ele>
        <time>2022-07-16T05:42:26Z</time>
      </trkpt>
      <trkpt lat="45.6483" lon="6.51266">
        <ele>1929</ele>
        <time>2022-07-16T05:42:28Z</time>
      </trkpt>
      <trkpt lat="45.64827" lon="6.51267">
        <ele>1929</ele>
        <time>2022-07-16T05:42:30Z</time>
      </trkpt>
      <trkpt lat="45.64825" lon="6.51268">
        <ele>1929</ele>
        <time>2022-07-16T05:42:32Z</time>
      </trkpt>
      <trkpt lat="45.64823" lon="6.51269">
        <ele>1929</ele>
        <time>2022-07-16T05:42:34Z</time>
      </trkpt>
      <trkpt lat="45.64821" lon="6.51269">
        <ele>1930</ele>
        <time>2022-07-16T05:42:36Z</time>
      </trkpt>
      <trkpt lat="45.64819" lon="6.5127">
        <ele>1930</ele>
        <time>2022-07-16T05:42:38Z</time>
      </trkpt>
      <trkpt lat="45.64816" lon="6.51271">
        <ele>1930</ele>
        <time>2022-07-16T05:42:40Z</time>
      </trkpt>
      <trkpt lat="45.64814" lon="6.51273">
        <ele>1930</ele>
        <time>2022-07-16T05:42:42Z</time>
      </trkpt>
      <trkpt lat="45.64813" lon="6.51276">
        <ele>1930</ele>
        <time>2022-07-16T05:42:44Z</time>
      </trkpt>
      <trkpt lat="45.64811" lon="6.51279">
        <ele>1931</ele>
        <time>2022-07-16T05:42:46Z</time>
      </trkpt>
      <trkpt lat="45.6481" lon="6.51282">
        <ele>1931</ele>
        <time>2022-07-16T05:42:48Z</time>
      </trkpt>
      <trkpt lat="45.64808" lon="6.51285">
        <ele>1931</ele>
        <time>2022-07-16T05:42:50Z</time>
      </trkpt>
      <trkpt lat="45.64808" lon="6.51288">
        <ele>1931</ele>
        <time>2022-07-16T05:42:52Z</time>
      </trkpt>
      <trkpt lat="45.64807" lon="6.51292">
        <ele>1931</ele>
        <time>2022-07-16T05:42:54Z</time>
      </trkpt>
      <trkpt lat="45.64806" lon="6.51295">
        <ele>1932</ele>
        <time>2022-07-16T05:42:56Z</time>
      </trkpt>
      <trkpt lat="45.64805" lon="6.51298">
        <ele>1932</ele>
        <time>2022-07-16T05:42:58Z</time>
      </trkpt>
      <trkpt lat="45.64804" lon="6.51301">
        <ele>1932</ele>
        <time>2022-07-16T05:43:00Z</time>
      </trkpt>
      <trkpt lat="45.64803" lon="6.51304">
        <ele>1932</ele>
        <time>2022-07-16T05:43:02Z</time>
      </trkpt>
      <trkpt lat="45.648" lon="6.51307">
        <ele>1932</ele>
        <time>2022-07-16T05:43:05Z</time>
      </trkpt>
      <trkpt lat="45.64799" lon="6.51308">
        <ele>1932</ele>
        <time>2022-07-16T05:43:07Z</time>
      </trkpt>
      <trkpt lat="45.64796" lon="6.51309">
        <ele>1933</ele>
        <time>2022-07-16T05:43:09Z</time>
      </trkpt>
      <trkpt lat="45.64794" lon="6.5131">
        <ele>1934</ele>
        <time>2022-07-16T05:43:11Z</time>
      </trkpt>
      <trkpt lat="45.64792" lon="6.51311">
        <ele>1934</ele>
        <time>2022-07-16T05:43:13Z</time>
      </trkpt>
      <trkpt lat="45.64791" lon="6.51312">
        <ele>1934</ele>
        <time>2022-07-16T05:43:15Z</time>
      </trkpt>
      <trkpt lat="45.64788" lon="6.51314">
        <ele>1935</ele>
        <time>2022-07-16T05:43:17Z</time>
      </trkpt>
      <trkpt lat="45.64786" lon="6.51315">
        <ele>1935</ele>
        <time>2022-07-16T05:43:20Z</time>
      </trkpt>
      <trkpt lat="45.64783" lon="6.51317">
        <ele>1935</ele>
        <time>2022-07-16T05:43:22Z</time>
      </trkpt>
      <trkpt lat="45.64781" lon="6.51317">
        <ele>1936</ele>
        <time>2022-07-16T05:43:24Z</time>
      </trkpt>
      <trkpt lat="45.64779" lon="6.51318">
        <ele>1936</ele>
        <time>2022-07-16T05:43:27Z</time>
      </trkpt>
      <trkpt lat="45.64777" lon="6.51317">
        <ele>1936</ele>
        <time>2022-07-16T05:43:29Z</time>
      </trkpt>
      <trkpt lat="45.64774" lon="6.51317">
        <ele>1936</ele>
        <time>2022-07-16T05:43:31Z</time>
      </trkpt>
      <trkpt lat="45.64772" lon="6.51316">
        <ele>1936</ele>
        <time>2022-07-16T05:43:33Z</time>
      </trkpt>
      <trkpt lat="45.6477" lon="6.51316">
        <ele>1936</ele>
        <time>2022-07-16T05:43:35Z</time>
      </trkpt>
      <trkpt lat="45.64768" lon="6.51316">
        <ele>1938</ele>
        <time>2022-07-16T05:43:37Z</time>
      </trkpt>
      <trkpt lat="45.64766" lon="6.51317">
        <ele>1938</ele>
        <time>2022-07-16T05:43:40Z</time>
      </trkpt>
      <trkpt lat="45.64764" lon="6.51317">
        <ele>1939</ele>
        <time>2022-07-16T05:43:42Z</time>
      </trkpt>
      <trkpt lat="45.64761" lon="6.51316">
        <ele>1939</ele>
        <time>2022-07-16T05:43:44Z</time>
      </trkpt>
      <trkpt lat="45.64759" lon="6.51315">
        <ele>1939</ele>
        <time>2022-07-16T05:43:46Z</time>
      </trkpt>
      <trkpt lat="45.64756" lon="6.51314">
        <ele>1939</ele>
        <time>2022-07-16T05:43:48Z</time>
      </trkpt>
      <trkpt lat="45.64753" lon="6.51314">
        <ele>1939</ele>
        <time>2022-07-16T05:43:50Z</time>
      </trkpt>
      <trkpt lat="45.6475" lon="6.51313">
        <ele>1940</ele>
        <time>2022-07-16T05:43:52Z</time>
      </trkpt>
      <trkpt lat="45.64748" lon="6.51313">
        <ele>1940</ele>
        <time>2022-07-16T05:43:54Z</time>
      </trkpt>
      <trkpt lat="45.64746" lon="6.51314">
        <ele>1941</ele>
        <time>2022-07-16T05:43:57Z</time>
      </trkpt>
      <trkpt lat="45.64744" lon="6.51315">
        <ele>1941</ele>
        <time>2022-07-16T05:43:59Z</time>
      </trkpt>
      <trkpt lat="45.64742" lon="6.51315">
        <ele>1941</ele>
        <time>2022-07-16T05:44:01Z</time>
      </trkpt>
      <trkpt lat="45.6474" lon="6.51316">
        <ele>1941</ele>
        <time>2022-07-16T05:44:03Z</time>
      </trkpt>
      <trkpt lat="45.64738" lon="6.51316">
        <ele>1943</ele>
        <time>2022-07-16T05:44:05Z</time>
      </trkpt>
      <trkpt lat="45.64736" lon="6.51316">
        <ele>1943</ele>
        <time>2022-07-16T05:44:07Z</time>
      </trkpt>
      <trkpt lat="45.64734" lon="6.51317">
        <ele>1943</ele>
        <time>2022-07-16T05:44:09Z</time>
      </trkpt>
      <trkpt lat="45.64732" lon="6.51317">
        <ele>1942</ele>
        <time>2022-07-16T05:44:11Z</time>
      </trkpt>
      <trkpt lat="45.64729" lon="6.51318">
        <ele>1943</ele>
        <time>2022-07-16T05:44:13Z</time>
      </trkpt>
      <trkpt lat="45.64727" lon="6.51318">
        <ele>1943</ele>
        <time>2022-07-16T05:44:15Z</time>
      </trkpt>
      <trkpt lat="45.64725" lon="6.51319">
        <ele>1943</ele>
        <time>2022-07-16T05:44:17Z</time>
      </trkpt>
      <trkpt lat="45.64722" lon="6.5132">
        <ele>1944</ele>
        <time>2022-07-16T05:44:19Z</time>
      </trkpt>
      <trkpt lat="45.6472" lon="6.5132">
        <ele>1944</ele>
        <time>2022-07-16T05:44:21Z</time>
      </trkpt>
      <trkpt lat="45.64717" lon="6.5132">
        <ele>1944</ele>
        <time>2022-07-16T05:44:23Z</time>
      </trkpt>
      <trkpt lat="45.64714" lon="6.5132">
        <ele>1944</ele>
        <time>2022-07-16T05:44:25Z</time>
      </trkpt>
      <trkpt lat="45.64711" lon="6.5132">
        <ele>1944</ele>
        <time>2022-07-16T05:44:27Z</time>
      </trkpt>
      <trkpt lat="45.64709" lon="6.51319">
        <ele>1945</ele>
        <time>2022-07-16T05:44:29Z</time>
      </trkpt>
      <trkpt lat="45.64706" lon="6.51319">
        <ele>1945</ele>
        <time>2022-07-16T05:44:31Z</time>
      </trkpt>
      <trkpt lat="45.64703" lon="6.5132">
        <ele>1945</ele>
        <time>2022-07-16T05:44:33Z</time>
      </trkpt>
      <trkpt lat="45.647" lon="6.5132">
        <ele>1945</ele>
        <time>2022-07-16T05:44:35Z</time>
      </trkpt>
      <trkpt lat="45.64697" lon="6.5132">
        <ele>1945</ele>
        <time>2022-07-16T05:44:37Z</time>
      </trkpt>
      <trkpt lat="45.64694" lon="6.5132">
        <ele>1945</ele>
        <time>2022-07-16T05:44:39Z</time>
      </trkpt>
      <trkpt lat="45.64692" lon="6.51322">
        <ele>1946</ele>
        <time>2022-07-16T05:44:41Z</time>
      </trkpt>
      <trkpt lat="45.64689" lon="6.51322">
        <ele>1946</ele>
        <time>2022-07-16T05:44:43Z</time>
      </trkpt>
      <trkpt lat="45.64685" lon="6.51324">
        <ele>1946</ele>
        <time>2022-07-16T05:44:45Z</time>
      </trkpt>
      <trkpt lat="45.64682" lon="6.51326">
        <ele>1946</ele>
        <time>2022-07-16T05:44:47Z</time>
      </trkpt>
      <trkpt lat="45.64681" lon="6.51327">
        <ele>1945</ele>
        <time>2022-07-16T05:44:48Z</time>
      </trkpt>
      <trkpt lat="45.64679" lon="6.51328">
        <ele>1945</ele>
        <time>2022-07-16T05:44:49Z</time>
      </trkpt>
      <trkpt lat="45.64677" lon="6.5133">
        <ele>1946</ele>
        <time>2022-07-16T05:44:50Z</time>
      </trkpt>
      <trkpt lat="45.64674" lon="6.5133">
        <ele>1946</ele>
        <time>2022-07-16T05:44:52Z</time>
      </trkpt>
      <trkpt lat="45.64672" lon="6.5133">
        <ele>1946</ele>
        <time>2022-07-16T05:44:53Z</time>
      </trkpt>
      <trkpt lat="45.64669" lon="6.51331">
        <ele>1947</ele>
        <time>2022-07-16T05:44:55Z</time>
      </trkpt>
      <trkpt lat="45.64666" lon="6.51332">
        <ele>1947</ele>
        <time>2022-07-16T05:44:57Z</time>
      </trkpt>
      <trkpt lat="45.64664" lon="6.51332">
        <ele>1947</ele>
        <time>2022-07-16T05:44:58Z</time>
      </trkpt>
      <trkpt lat="45.64662" lon="6.51332">
        <ele>1947</ele>
        <time>2022-07-16T05:44:59Z</time>
      </trkpt>
      <trkpt lat="45.64659" lon="6.51332">
        <ele>1947</ele>
        <time>2022-07-16T05:45:01Z</time>
      </trkpt>
      <trkpt lat="45.64656" lon="6.51332">
        <ele>1947</ele>
        <time>2022-07-16T05:45:02Z</time>
      </trkpt>
      <trkpt lat="45.64654" lon="6.51331">
        <ele>1947</ele>
        <time>2022-07-16T05:45:03Z</time>
      </trkpt>
      <trkpt lat="45.64652" lon="6.51331">
        <ele>1946</ele>
        <time>2022-07-16T05:45:04Z</time>
      </trkpt>
      <trkpt lat="45.64649" lon="6.51331">
        <ele>1947</ele>
        <time>2022-07-16T05:45:06Z</time>
      </trkpt>
      <trkpt lat="45.64647" lon="6.51331">
        <ele>1947</ele>
        <time>2022-07-16T05:45:07Z</time>
      </trkpt>
      <trkpt lat="45.64644" lon="6.51332">
        <ele>1947</ele>
        <time>2022-07-16T05:45:09Z</time>
      </trkpt>
      <trkpt lat="45.64642" lon="6.51332">
        <ele>1948</ele>
        <time>2022-07-16T05:45:10Z</time>
      </trkpt>
      <trkpt lat="45.6464" lon="6.51332">
        <ele>1948</ele>
        <time>2022-07-16T05:45:11Z</time>
      </trkpt>
      <trkpt lat="45.64638" lon="6.51333">
        <ele>1948</ele>
        <time>2022-07-16T05:45:12Z</time>
      </trkpt>
      <trkpt lat="45.64636" lon="6.51333">
        <ele>1948</ele>
        <time>2022-07-16T05:45:13Z</time>
      </trkpt>
      <trkpt lat="45.64633" lon="6.51334">
        <ele>1948</ele>
        <time>2022-07-16T05:45:15Z</time>
      </trkpt>
      <trkpt lat="45.64629" lon="6.51334">
        <ele>1948</ele>
        <time>2022-07-16T05:45:17Z</time>
      </trkpt>
      <trkpt lat="45.64626" lon="6.51335">
        <ele>1948</ele>
        <time>2022-07-16T05:45:19Z</time>
      </trkpt>
      <trkpt lat="45.64623" lon="6.51336">
        <ele>1948</ele>
        <time>2022-07-16T05:45:21Z</time>
      </trkpt>
      <trkpt lat="45.6462" lon="6.51337">
        <ele>1948</ele>
        <time>2022-07-16T05:45:23Z</time>
      </trkpt>
      <trkpt lat="45.64616" lon="6.51337">
        <ele>1948</ele>
        <time>2022-07-16T05:45:25Z</time>
      </trkpt>
      <trkpt lat="45.64614" lon="6.51337">
        <ele>1948</ele>
        <time>2022-07-16T05:45:27Z</time>
      </trkpt>
      <trkpt lat="45.64611" lon="6.51338">
        <ele>1948</ele>
        <time>2022-07-16T05:45:29Z</time>
      </trkpt>
      <trkpt lat="45.64609" lon="6.51338">
        <ele>1948</ele>
        <time>2022-07-16T05:45:30Z</time>
      </trkpt>
      <trkpt lat="45.64607" lon="6.51339">
        <ele>1948</ele>
        <time>2022-07-16T05:45:31Z</time>
      </trkpt>
      <trkpt lat="45.64604" lon="6.5134">
        <ele>1948</ele>
        <time>2022-07-16T05:45:33Z</time>
      </trkpt>
      <trkpt lat="45.64602" lon="6.51341">
        <ele>1948</ele>
        <time>2022-07-16T05:45:35Z</time>
      </trkpt>
      <trkpt lat="45.64599" lon="6.51341">
        <ele>1948</ele>
        <time>2022-07-16T05:45:37Z</time>
      </trkpt>
      <trkpt lat="45.64595" lon="6.51342">
        <ele>1948</ele>
        <time>2022-07-16T05:45:39Z</time>
      </trkpt>
      <trkpt lat="45.64593" lon="6.51344">
        <ele>1948</ele>
        <time>2022-07-16T05:45:41Z</time>
      </trkpt>
      <trkpt lat="45.64592" lon="6.51346">
        <ele>1948</ele>
        <time>2022-07-16T05:45:43Z</time>
      </trkpt>
      <trkpt lat="45.64591" lon="6.51348">
        <ele>1948</ele>
        <time>2022-07-16T05:45:45Z</time>
      </trkpt>
      <trkpt lat="45.6459" lon="6.51351">
        <ele>1948</ele>
        <time>2022-07-16T05:45:47Z</time>
      </trkpt>
      <trkpt lat="45.64589" lon="6.51353">
        <ele>1948</ele>
        <time>2022-07-16T05:45:49Z</time>
      </trkpt>
      <trkpt lat="45.64586" lon="6.51355">
        <ele>1948</ele>
        <time>2022-07-16T05:45:52Z</time>
      </trkpt>
      <trkpt lat="45.64586" lon="6.51358">
        <ele>1948</ele>
        <time>2022-07-16T05:45:55Z</time>
      </trkpt>
      <trkpt lat="45.64586" lon="6.51361">
        <ele>1948</ele>
        <time>2022-07-16T05:45:57Z</time>
      </trkpt>
      <trkpt lat="45.64587" lon="6.51364">
        <ele>1950</ele>
        <time>2022-07-16T05:46:00Z</time>
      </trkpt>
      <trkpt lat="45.64588" lon="6.51367">
        <ele>1950</ele>
        <time>2022-07-16T05:46:04Z</time>
      </trkpt>
      <trkpt lat="45.64588" lon="6.5137">
        <ele>1950</ele>
        <time>2022-07-16T05:46:07Z</time>
      </trkpt>
      <trkpt lat="45.64588" lon="6.51373">
        <ele>1951</ele>
        <time>2022-07-16T05:46:09Z</time>
      </trkpt>
      <trkpt lat="45.64588" lon="6.51377">
        <ele>1951</ele>
        <time>2022-07-16T05:46:11Z</time>
      </trkpt>
      <trkpt lat="45.64588" lon="6.51381">
        <ele>1951</ele>
        <time>2022-07-16T05:46:14Z</time>
      </trkpt>
      <trkpt lat="45.64588" lon="6.51386">
        <ele>1952</ele>
        <time>2022-07-16T05:46:16Z</time>
      </trkpt>
      <trkpt lat="45.64588" lon="6.51391">
        <ele>1952</ele>
        <time>2022-07-16T05:46:18Z</time>
      </trkpt>
      <trkpt lat="45.64588" lon="6.51395">
        <ele>1952</ele>
        <time>2022-07-16T05:46:20Z</time>
      </trkpt>
      <trkpt lat="45.64587" lon="6.51398">
        <ele>1952</ele>
        <time>2022-07-16T05:46:22Z</time>
      </trkpt>
      <trkpt lat="45.64585" lon="6.51401">
        <ele>1952</ele>
        <time>2022-07-16T05:46:24Z</time>
      </trkpt>
      <trkpt lat="45.64583" lon="6.51404">
        <ele>1952</ele>
        <time>2022-07-16T05:46:26Z</time>
      </trkpt>
      <trkpt lat="45.64581" lon="6.51405">
        <ele>1952</ele>
        <time>2022-07-16T05:46:28Z</time>
      </trkpt>
      <trkpt lat="45.64578" lon="6.51405">
        <ele>1951</ele>
        <time>2022-07-16T05:46:30Z</time>
      </trkpt>
      <trkpt lat="45.64575" lon="6.51406">
        <ele>1951</ele>
        <time>2022-07-16T05:46:32Z</time>
      </trkpt>
      <trkpt lat="45.64573" lon="6.51405">
        <ele>1951</ele>
        <time>2022-07-16T05:46:34Z</time>
      </trkpt>
      <trkpt lat="45.6457" lon="6.51404">
        <ele>1951</ele>
        <time>2022-07-16T05:46:36Z</time>
      </trkpt>
      <trkpt lat="45.64567" lon="6.51402">
        <ele>1951</ele>
        <time>2022-07-16T05:46:38Z</time>
      </trkpt>
      <trkpt lat="45.64565" lon="6.51401">
        <ele>1951</ele>
        <time>2022-07-16T05:46:39Z</time>
      </trkpt>
      <trkpt lat="45.64564" lon="6.51399">
        <ele>1951</ele>
        <time>2022-07-16T05:46:40Z</time>
      </trkpt>
      <trkpt lat="45.6456" lon="6.51398">
        <ele>1951</ele>
        <time>2022-07-16T05:46:42Z</time>
      </trkpt>
      <trkpt lat="45.64557" lon="6.51398">
        <ele>1951</ele>
        <time>2022-07-16T05:46:44Z</time>
      </trkpt>
      <trkpt lat="45.64554" lon="6.51399">
        <ele>1951</ele>
        <time>2022-07-16T05:46:46Z</time>
      </trkpt>
      <trkpt lat="45.64551" lon="6.51399">
        <ele>1951</ele>
        <time>2022-07-16T05:46:48Z</time>
      </trkpt>
      <trkpt lat="45.64548" lon="6.51398">
        <ele>1951</ele>
        <time>2022-07-16T05:46:50Z</time>
      </trkpt>
      <trkpt lat="45.64546" lon="6.51396">
        <ele>1951</ele>
        <time>2022-07-16T05:46:52Z</time>
      </trkpt>
      <trkpt lat="45.64543" lon="6.51396">
        <ele>1951</ele>
        <time>2022-07-16T05:46:54Z</time>
      </trkpt>
      <trkpt lat="45.64541" lon="6.51396">
        <ele>1951</ele>
        <time>2022-07-16T05:46:56Z</time>
      </trkpt>
      <trkpt lat="45.64538" lon="6.51396">
        <ele>1951</ele>
        <time>2022-07-16T05:46:58Z</time>
      </trkpt>
      <trkpt lat="45.64536" lon="6.51396">
        <ele>1951</ele>
        <time>2022-07-16T05:47:00Z</time>
      </trkpt>
      <trkpt lat="45.64533" lon="6.51398">
        <ele>1952</ele>
        <time>2022-07-16T05:47:02Z</time>
      </trkpt>
      <trkpt lat="45.64532" lon="6.514">
        <ele>1952</ele>
        <time>2022-07-16T05:47:04Z</time>
      </trkpt>
      <trkpt lat="45.6453" lon="6.51401">
        <ele>1952</ele>
        <time>2022-07-16T05:47:06Z</time>
      </trkpt>
      <trkpt lat="45.64528" lon="6.51402">
        <ele>1953</ele>
        <time>2022-07-16T05:47:08Z</time>
      </trkpt>
      <trkpt lat="45.64526" lon="6.51403">
        <ele>1953</ele>
        <time>2022-07-16T05:47:10Z</time>
      </trkpt>
      <trkpt lat="45.64524" lon="6.51402">
        <ele>1953</ele>
        <time>2022-07-16T05:47:12Z</time>
      </trkpt>
      <trkpt lat="45.64522" lon="6.51401">
        <ele>1953</ele>
        <time>2022-07-16T05:47:14Z</time>
      </trkpt>
      <trkpt lat="45.6452" lon="6.514">
        <ele>1953</ele>
        <time>2022-07-16T05:47:17Z</time>
      </trkpt>
      <trkpt lat="45.64519" lon="6.51399">
        <ele>1952</ele>
        <time>2022-07-16T05:47:19Z</time>
      </trkpt>
      <trkpt lat="45.64517" lon="6.51397">
        <ele>1951</ele>
        <time>2022-07-16T05:47:22Z</time>
      </trkpt>
      <trkpt lat="45.64515" lon="6.51396">
        <ele>1951</ele>
        <time>2022-07-16T05:47:24Z</time>
      </trkpt>
      <trkpt lat="45.64513" lon="6.51395">
        <ele>1950</ele>
        <time>2022-07-16T05:47:26Z</time>
      </trkpt>
      <trkpt lat="45.64511" lon="6.51395">
        <ele>1950</ele>
        <time>2022-07-16T05:47:28Z</time>
      </trkpt>
      <trkpt lat="45.64508" lon="6.51396">
        <ele>1949</ele>
        <time>2022-07-16T05:47:30Z</time>
      </trkpt>
      <trkpt lat="45.64507" lon="6.51397">
        <ele>1949</ele>
        <time>2022-07-16T05:47:31Z</time>
      </trkpt>
      <trkpt lat="45.64504" lon="6.51398">
        <ele>1949</ele>
        <time>2022-07-16T05:47:33Z</time>
      </trkpt>
      <trkpt lat="45.64501" lon="6.51398">
        <ele>1949</ele>
        <time>2022-07-16T05:47:35Z</time>
      </trkpt>
      <trkpt lat="45.64498" lon="6.51397">
        <ele>1949</ele>
        <time>2022-07-16T05:47:37Z</time>
      </trkpt>
      <trkpt lat="45.64495" lon="6.51396">
        <ele>1949</ele>
        <time>2022-07-16T05:47:39Z</time>
      </trkpt>
      <trkpt lat="45.64493" lon="6.51394">
        <ele>1948</ele>
        <time>2022-07-16T05:47:41Z</time>
      </trkpt>
      <trkpt lat="45.6449" lon="6.51392">
        <ele>1947</ele>
        <time>2022-07-16T05:47:43Z</time>
      </trkpt>
      <trkpt lat="45.64486" lon="6.5139">
        <ele>1946</ele>
        <time>2022-07-16T05:47:45Z</time>
      </trkpt>
      <trkpt lat="45.64485" lon="6.51389">
        <ele>1946</ele>
        <time>2022-07-16T05:47:46Z</time>
      </trkpt>
      <trkpt lat="45.64483" lon="6.51389">
        <ele>1946</ele>
        <time>2022-07-16T05:47:47Z</time>
      </trkpt>
      <trkpt lat="45.64481" lon="6.51388">
        <ele>1945</ele>
        <time>2022-07-16T05:47:48Z</time>
      </trkpt>
      <trkpt lat="45.64478" lon="6.51386">
        <ele>1945</ele>
        <time>2022-07-16T05:47:50Z</time>
      </trkpt>
      <trkpt lat="45.64476" lon="6.51385">
        <ele>1945</ele>
        <time>2022-07-16T05:47:51Z</time>
      </trkpt>
      <trkpt lat="45.64474" lon="6.51384">
        <ele>1944</ele>
        <time>2022-07-16T05:47:52Z</time>
      </trkpt>
      <trkpt lat="45.64472" lon="6.51384">
        <ele>1944</ele>
        <time>2022-07-16T05:47:53Z</time>
      </trkpt>
      <trkpt lat="45.6447" lon="6.51384">
        <ele>1944</ele>
        <time>2022-07-16T05:47:54Z</time>
      </trkpt>
      <trkpt lat="45.64468" lon="6.51382">
        <ele>1943</ele>
        <time>2022-07-16T05:47:56Z</time>
      </trkpt>
      <trkpt lat="45.64465" lon="6.51381">
        <ele>1941</ele>
        <time>2022-07-16T05:47:58Z</time>
      </trkpt>
      <trkpt lat="45.64463" lon="6.5138">
        <ele>1941</ele>
        <time>2022-07-16T05:47:59Z</time>
      </trkpt>
      <trkpt lat="45.64461" lon="6.5138">
        <ele>1941</ele>
        <time>2022-07-16T05:48:00Z</time>
      </trkpt>
      <trkpt lat="45.6446" lon="6.51379">
        <ele>1940</ele>
        <time>2022-07-16T05:48:01Z</time>
      </trkpt>
      <trkpt lat="45.64458" lon="6.51378">
        <ele>1940</ele>
        <time>2022-07-16T05:48:02Z</time>
      </trkpt>
      <trkpt lat="45.64456" lon="6.51377">
        <ele>1940</ele>
        <time>2022-07-16T05:48:03Z</time>
      </trkpt>
      <trkpt lat="45.64454" lon="6.51377">
        <ele>1940</ele>
        <time>2022-07-16T05:48:04Z</time>
      </trkpt>
      <trkpt lat="45.64452" lon="6.51377">
        <ele>1940</ele>
        <time>2022-07-16T05:48:05Z</time>
      </trkpt>
      <trkpt lat="45.64448" lon="6.51377">
        <ele>1939</ele>
        <time>2022-07-16T05:48:07Z</time>
      </trkpt>
      <trkpt lat="45.64446" lon="6.51378">
        <ele>1939</ele>
        <time>2022-07-16T05:48:08Z</time>
      </trkpt>
      <trkpt lat="45.64444" lon="6.51378">
        <ele>1939</ele>
        <time>2022-07-16T05:48:09Z</time>
      </trkpt>
      <trkpt lat="45.64442" lon="6.51377">
        <ele>1939</ele>
        <time>2022-07-16T05:48:10Z</time>
      </trkpt>
      <trkpt lat="45.64439" lon="6.51377">
        <ele>1937</ele>
        <time>2022-07-16T05:48:12Z</time>
      </trkpt>
      <trkpt lat="45.64435" lon="6.51377">
        <ele>1937</ele>
        <time>2022-07-16T05:48:14Z</time>
      </trkpt>
      <trkpt lat="45.64432" lon="6.51378">
        <ele>1937</ele>
        <time>2022-07-16T05:48:16Z</time>
      </trkpt>
      <trkpt lat="45.64429" lon="6.51379">
        <ele>1936</ele>
        <time>2022-07-16T05:48:18Z</time>
      </trkpt>
      <trkpt lat="45.64425" lon="6.51379">
        <ele>1936</ele>
        <time>2022-07-16T05:48:20Z</time>
      </trkpt>
      <trkpt lat="45.64423" lon="6.51379">
        <ele>1936</ele>
        <time>2022-07-16T05:48:21Z</time>
      </trkpt>
      <trkpt lat="45.64422" lon="6.51379">
        <ele>1936</ele>
        <time>2022-07-16T05:48:22Z</time>
      </trkpt>
      <trkpt lat="45.64419" lon="6.51379">
        <ele>1936</ele>
        <time>2022-07-16T05:48:24Z</time>
      </trkpt>
      <trkpt lat="45.64416" lon="6.51377">
        <ele>1936</ele>
        <time>2022-07-16T05:48:26Z</time>
      </trkpt>
      <trkpt lat="45.64413" lon="6.51375">
        <ele>1936</ele>
        <time>2022-07-16T05:48:28Z</time>
      </trkpt>
      <trkpt lat="45.64411" lon="6.51374">
        <ele>1936</ele>
        <time>2022-07-16T05:48:30Z</time>
      </trkpt>
      <trkpt lat="45.64408" lon="6.51373">
        <ele>1936</ele>
        <time>2022-07-16T05:48:32Z</time>
      </trkpt>
      <trkpt lat="45.64405" lon="6.51372">
        <ele>1936</ele>
        <time>2022-07-16T05:48:33Z</time>
      </trkpt>
      <trkpt lat="45.64404" lon="6.51372">
        <ele>1936</ele>
        <time>2022-07-16T05:48:34Z</time>
      </trkpt>
      <trkpt lat="45.64403" lon="6.51371">
        <ele>1936</ele>
        <time>2022-07-16T05:48:35Z</time>
      </trkpt>
      <trkpt lat="45.644" lon="6.5137">
        <ele>1935</ele>
        <time>2022-07-16T05:48:37Z</time>
      </trkpt>
      <trkpt lat="45.64397" lon="6.51369">
        <ele>1935</ele>
        <time>2022-07-16T05:48:39Z</time>
      </trkpt>
      <trkpt lat="45.64395" lon="6.51368">
        <ele>1935</ele>
        <time>2022-07-16T05:48:41Z</time>
      </trkpt>
      <trkpt lat="45.64393" lon="6.51366">
        <ele>1935</ele>
        <time>2022-07-16T05:48:43Z</time>
      </trkpt>
      <trkpt lat="45.6439" lon="6.51364">
        <ele>1935</ele>
        <time>2022-07-16T05:48:45Z</time>
      </trkpt>
      <trkpt lat="45.64388" lon="6.51363">
        <ele>1935</ele>
        <time>2022-07-16T05:48:47Z</time>
      </trkpt>
      <trkpt lat="45.64385" lon="6.51362">
        <ele>1935</ele>
        <time>2022-07-16T05:48:49Z</time>
      </trkpt>
      <trkpt lat="45.64384" lon="6.5136">
        <ele>1935</ele>
        <time>2022-07-16T05:48:51Z</time>
      </trkpt>
      <trkpt lat="45.64382" lon="6.51358">
        <ele>1935</ele>
        <time>2022-07-16T05:48:53Z</time>
      </trkpt>
      <trkpt lat="45.64381" lon="6.51354">
        <ele>1934</ele>
        <time>2022-07-16T05:48:55Z</time>
      </trkpt>
      <trkpt lat="45.64378" lon="6.51351">
        <ele>1934</ele>
        <time>2022-07-16T05:48:57Z</time>
      </trkpt>
      <trkpt lat="45.64376" lon="6.51347">
        <ele>1933</ele>
        <time>2022-07-16T05:48:59Z</time>
      </trkpt>
      <trkpt lat="45.64373" lon="6.51344">
        <ele>1933</ele>
        <time>2022-07-16T05:49:01Z</time>
      </trkpt>
      <trkpt lat="45.64372" lon="6.51343">
        <ele>1932</ele>
        <time>2022-07-16T05:49:02Z</time>
      </trkpt>
      <trkpt lat="45.64369" lon="6.51341">
        <ele>1932</ele>
        <time>2022-07-16T05:49:04Z</time>
      </trkpt>
      <trkpt lat="45.64366" lon="6.51338">
        <ele>1932</ele>
        <time>2022-07-16T05:49:06Z</time>
      </trkpt>
      <trkpt lat="45.64364" lon="6.51337">
        <ele>1933</ele>
        <time>2022-07-16T05:49:08Z</time>
      </trkpt>
      <trkpt lat="45.64362" lon="6.51334">
        <ele>1933</ele>
        <time>2022-07-16T05:49:10Z</time>
      </trkpt>
      <trkpt lat="45.6436" lon="6.51331">
        <ele>1933</ele>
        <time>2022-07-16T05:49:12Z</time>
      </trkpt>
      <trkpt lat="45.64358" lon="6.51329">
        <ele>1932</ele>
        <time>2022-07-16T05:49:14Z</time>
      </trkpt>
      <trkpt lat="45.64356" lon="6.51326">
        <ele>1932</ele>
        <time>2022-07-16T05:49:16Z</time>
      </trkpt>
      <trkpt lat="45.64355" lon="6.51323">
        <ele>1932</ele>
        <time>2022-07-16T05:49:18Z</time>
      </trkpt>
      <trkpt lat="45.64353" lon="6.51321">
        <ele>1932</ele>
        <time>2022-07-16T05:49:20Z</time>
      </trkpt>
      <trkpt lat="45.64352" lon="6.51318">
        <ele>1932</ele>
        <time>2022-07-16T05:49:22Z</time>
      </trkpt>
      <trkpt lat="45.6435" lon="6.51314">
        <ele>1932</ele>
        <time>2022-07-16T05:49:24Z</time>
      </trkpt>
      <trkpt lat="45.64349" lon="6.51311">
        <ele>1932</ele>
        <time>2022-07-16T05:49:26Z</time>
      </trkpt>
      <trkpt lat="45.64347" lon="6.51308">
        <ele>1932</ele>
        <time>2022-07-16T05:49:28Z</time>
      </trkpt>
      <trkpt lat="45.64345" lon="6.51306">
        <ele>1932</ele>
        <time>2022-07-16T05:49:30Z</time>
      </trkpt>
      <trkpt lat="45.64343" lon="6.51304">
        <ele>1932</ele>
        <time>2022-07-16T05:49:32Z</time>
      </trkpt>
      <trkpt lat="45.64341" lon="6.51301">
        <ele>1931</ele>
        <time>2022-07-16T05:49:34Z</time>
      </trkpt>
      <trkpt lat="45.6434" lon="6.51298">
        <ele>1931</ele>
        <time>2022-07-16T05:49:36Z</time>
      </trkpt>
      <trkpt lat="45.64339" lon="6.51295">
        <ele>1931</ele>
        <time>2022-07-16T05:49:38Z</time>
      </trkpt>
      <trkpt lat="45.64338" lon="6.51292">
        <ele>1931</ele>
        <time>2022-07-16T05:49:40Z</time>
      </trkpt>
      <trkpt lat="45.64338" lon="6.51289">
        <ele>1931</ele>
        <time>2022-07-16T05:49:42Z</time>
      </trkpt>
      <trkpt lat="45.64336" lon="6.51286">
        <ele>1931</ele>
        <time>2022-07-16T05:49:44Z</time>
      </trkpt>
      <trkpt lat="45.64334" lon="6.51285">
        <ele>1931</ele>
        <time>2022-07-16T05:49:46Z</time>
      </trkpt>
      <trkpt lat="45.64333" lon="6.51283">
        <ele>1931</ele>
        <time>2022-07-16T05:49:48Z</time>
      </trkpt>
      <trkpt lat="45.64331" lon="6.51282">
        <ele>1931</ele>
        <time>2022-07-16T05:49:50Z</time>
      </trkpt>
      <trkpt lat="45.6433" lon="6.5128">
        <ele>1931</ele>
        <time>2022-07-16T05:49:52Z</time>
      </trkpt>
      <trkpt lat="45.64328" lon="6.51278">
        <ele>1932</ele>
        <time>2022-07-16T05:49:54Z</time>
      </trkpt>
      <trkpt lat="45.64327" lon="6.51275">
        <ele>1932</ele>
        <time>2022-07-16T05:49:56Z</time>
      </trkpt>
      <trkpt lat="45.64326" lon="6.51272">
        <ele>1932</ele>
        <time>2022-07-16T05:49:58Z</time>
      </trkpt>
      <trkpt lat="45.64325" lon="6.51268">
        <ele>1931</ele>
        <time>2022-07-16T05:50:00Z</time>
      </trkpt>
      <trkpt lat="45.64323" lon="6.51264">
        <ele>1931</ele>
        <time>2022-07-16T05:50:02Z</time>
      </trkpt>
      <trkpt lat="45.64322" lon="6.51261">
        <ele>1931</ele>
        <time>2022-07-16T05:50:04Z</time>
      </trkpt>
      <trkpt lat="45.6432" lon="6.51257">
        <ele>1931</ele>
        <time>2022-07-16T05:50:06Z</time>
      </trkpt>
      <trkpt lat="45.64319" lon="6.51254">
        <ele>1931</ele>
        <time>2022-07-16T05:50:08Z</time>
      </trkpt>
      <trkpt lat="45.64317" lon="6.51252">
        <ele>1931</ele>
        <time>2022-07-16T05:50:10Z</time>
      </trkpt>
      <trkpt lat="45.64317" lon="6.51248">
        <ele>1931</ele>
        <time>2022-07-16T05:50:12Z</time>
      </trkpt>
      <trkpt lat="45.64317" lon="6.51246">
        <ele>1932</ele>
        <time>2022-07-16T05:50:14Z</time>
      </trkpt>
      <trkpt lat="45.64316" lon="6.51242">
        <ele>1932</ele>
        <time>2022-07-16T05:50:17Z</time>
      </trkpt>
      <trkpt lat="45.64314" lon="6.5124">
        <ele>1932</ele>
        <time>2022-07-16T05:50:21Z</time>
      </trkpt>
      <trkpt lat="45.64313" lon="6.51238">
        <ele>1932</ele>
        <time>2022-07-16T05:50:23Z</time>
      </trkpt>
      <trkpt lat="45.64312" lon="6.51235">
        <ele>1932</ele>
        <time>2022-07-16T05:50:25Z</time>
      </trkpt>
      <trkpt lat="45.64311" lon="6.51233">
        <ele>1933</ele>
        <time>2022-07-16T05:50:27Z</time>
      </trkpt>
      <trkpt lat="45.64311" lon="6.51229">
        <ele>1934</ele>
        <time>2022-07-16T05:50:29Z</time>
      </trkpt>
      <trkpt lat="45.6431" lon="6.51226">
        <ele>1934</ele>
        <time>2022-07-16T05:50:31Z</time>
      </trkpt>
      <trkpt lat="45.6431" lon="6.51223">
        <ele>1934</ele>
        <time>2022-07-16T05:50:33Z</time>
      </trkpt>
      <trkpt lat="45.64309" lon="6.51221">
        <ele>1934</ele>
        <time>2022-07-16T05:50:35Z</time>
      </trkpt>
      <trkpt lat="45.64307" lon="6.51218">
        <ele>1935</ele>
        <time>2022-07-16T05:50:37Z</time>
      </trkpt>
      <trkpt lat="45.64306" lon="6.51216">
        <ele>1935</ele>
        <time>2022-07-16T05:50:39Z</time>
      </trkpt>
      <trkpt lat="45.64305" lon="6.51214">
        <ele>1935</ele>
        <time>2022-07-16T05:50:41Z</time>
      </trkpt>
      <trkpt lat="45.64305" lon="6.5121">
        <ele>1936</ele>
        <time>2022-07-16T05:50:44Z</time>
      </trkpt>
      <trkpt lat="45.64304" lon="6.51207">
        <ele>1936</ele>
        <time>2022-07-16T05:50:46Z</time>
      </trkpt>
      <trkpt lat="45.64304" lon="6.51204">
        <ele>1936</ele>
        <time>2022-07-16T05:50:48Z</time>
      </trkpt>
      <trkpt lat="45.64302" lon="6.51201">
        <ele>1937</ele>
        <time>2022-07-16T05:50:50Z</time>
      </trkpt>
      <trkpt lat="45.64302" lon="6.51198">
        <ele>1937</ele>
        <time>2022-07-16T05:50:52Z</time>
      </trkpt>
      <trkpt lat="45.64301" lon="6.51194">
        <ele>1937</ele>
        <time>2022-07-16T05:50:54Z</time>
      </trkpt>
      <trkpt lat="45.64301" lon="6.51191">
        <ele>1937</ele>
        <time>2022-07-16T05:50:56Z</time>
      </trkpt>
      <trkpt lat="45.643" lon="6.51188">
        <ele>1937</ele>
        <time>2022-07-16T05:50:58Z</time>
      </trkpt>
      <trkpt lat="45.64299" lon="6.51185">
        <ele>1937</ele>
        <time>2022-07-16T05:51:00Z</time>
      </trkpt>
      <trkpt lat="45.64297" lon="6.51182">
        <ele>1937</ele>
        <time>2022-07-16T05:51:02Z</time>
      </trkpt>
      <trkpt lat="45.64297" lon="6.51179">
        <ele>1937</ele>
        <time>2022-07-16T05:51:04Z</time>
      </trkpt>
      <trkpt lat="45.64296" lon="6.51176">
        <ele>1937</ele>
        <time>2022-07-16T05:51:06Z</time>
      </trkpt>
      <trkpt lat="45.64295" lon="6.51173">
        <ele>1937</ele>
        <time>2022-07-16T05:51:08Z</time>
      </trkpt>
      <trkpt lat="45.64293" lon="6.5117">
        <ele>1937</ele>
        <time>2022-07-16T05:51:10Z</time>
      </trkpt>
      <trkpt lat="45.64293" lon="6.51167">
        <ele>1937</ele>
        <time>2022-07-16T05:51:12Z</time>
      </trkpt>
      <trkpt lat="45.64292" lon="6.51165">
        <ele>1936</ele>
        <time>2022-07-16T05:51:14Z</time>
      </trkpt>
      <trkpt lat="45.64291" lon="6.51161">
        <ele>1936</ele>
        <time>2022-07-16T05:51:17Z</time>
      </trkpt>
      <trkpt lat="45.6429" lon="6.51159">
        <ele>1936</ele>
        <time>2022-07-16T05:51:19Z</time>
      </trkpt>
      <trkpt lat="45.64288" lon="6.51157">
        <ele>1936</ele>
        <time>2022-07-16T05:51:21Z</time>
      </trkpt>
      <trkpt lat="45.64287" lon="6.51155">
        <ele>1936</ele>
        <time>2022-07-16T05:51:23Z</time>
      </trkpt>
      <trkpt lat="45.64285" lon="6.51154">
        <ele>1936</ele>
        <time>2022-07-16T05:51:25Z</time>
      </trkpt>
      <trkpt lat="45.64284" lon="6.51151">
        <ele>1935</ele>
        <time>2022-07-16T05:51:27Z</time>
      </trkpt>
      <trkpt lat="45.64283" lon="6.51149">
        <ele>1935</ele>
        <time>2022-07-16T05:51:29Z</time>
      </trkpt>
      <trkpt lat="45.64281" lon="6.51147">
        <ele>1934</ele>
        <time>2022-07-16T05:51:31Z</time>
      </trkpt>
      <trkpt lat="45.6428" lon="6.51145">
        <ele>1934</ele>
        <time>2022-07-16T05:51:33Z</time>
      </trkpt>
      <trkpt lat="45.64278" lon="6.51144">
        <ele>1933</ele>
        <time>2022-07-16T05:51:35Z</time>
      </trkpt>
      <trkpt lat="45.64275" lon="6.51143">
        <ele>1933</ele>
        <time>2022-07-16T05:51:37Z</time>
      </trkpt>
      <trkpt lat="45.64274" lon="6.5114">
        <ele>1933</ele>
        <time>2022-07-16T05:51:39Z</time>
      </trkpt>
      <trkpt lat="45.64273" lon="6.51138">
        <ele>1933</ele>
        <time>2022-07-16T05:51:41Z</time>
      </trkpt>
      <trkpt lat="45.64272" lon="6.51135">
        <ele>1933</ele>
        <time>2022-07-16T05:51:43Z</time>
      </trkpt>
      <trkpt lat="45.6427" lon="6.51133">
        <ele>1933</ele>
        <time>2022-07-16T05:51:45Z</time>
      </trkpt>
      <trkpt lat="45.64269" lon="6.51132">
        <ele>1933</ele>
        <time>2022-07-16T05:51:47Z</time>
      </trkpt>
      <trkpt lat="45.64267" lon="6.51131">
        <ele>1933</ele>
        <time>2022-07-16T05:51:49Z</time>
      </trkpt>
      <trkpt lat="45.64263" lon="6.5113">
        <ele>1933</ele>
        <time>2022-07-16T05:51:51Z</time>
      </trkpt>
      <trkpt lat="45.64261" lon="6.51129">
        <ele>1933</ele>
        <time>2022-07-16T05:51:53Z</time>
      </trkpt>
      <trkpt lat="45.64259" lon="6.51128">
        <ele>1933</ele>
        <time>2022-07-16T05:51:55Z</time>
      </trkpt>
      <trkpt lat="45.64256" lon="6.51127">
        <ele>1933</ele>
        <time>2022-07-16T05:51:57Z</time>
      </trkpt>
      <trkpt lat="45.64254" lon="6.51126">
        <ele>1933</ele>
        <time>2022-07-16T05:51:59Z</time>
      </trkpt>
      <trkpt lat="45.64251" lon="6.51125">
        <ele>1933</ele>
        <time>2022-07-16T05:52:01Z</time>
      </trkpt>
      <trkpt lat="45.64248" lon="6.51124">
        <ele>1933</ele>
        <time>2022-07-16T05:52:03Z</time>
      </trkpt>
      <trkpt lat="45.64246" lon="6.51122">
        <ele>1933</ele>
        <time>2022-07-16T05:52:05Z</time>
      </trkpt>
      <trkpt lat="45.64243" lon="6.5112">
        <ele>1934</ele>
        <time>2022-07-16T05:52:07Z</time>
      </trkpt>
      <trkpt lat="45.64241" lon="6.51117">
        <ele>1934</ele>
        <time>2022-07-16T05:52:09Z</time>
      </trkpt>
      <trkpt lat="45.6424" lon="6.51113">
        <ele>1934</ele>
        <time>2022-07-16T05:52:11Z</time>
      </trkpt>
      <trkpt lat="45.64239" lon="6.5111">
        <ele>1934</ele>
        <time>2022-07-16T05:52:13Z</time>
      </trkpt>
      <trkpt lat="45.64239" lon="6.51107">
        <ele>1935</ele>
        <time>2022-07-16T05:52:15Z</time>
      </trkpt>
      <trkpt lat="45.64239" lon="6.51103">
        <ele>1935</ele>
        <time>2022-07-16T05:52:18Z</time>
      </trkpt>
      <trkpt lat="45.64238" lon="6.51101">
        <ele>1935</ele>
        <time>2022-07-16T05:52:20Z</time>
      </trkpt>
      <trkpt lat="45.64237" lon="6.51098">
        <ele>1935</ele>
        <time>2022-07-16T05:52:22Z</time>
      </trkpt>
      <trkpt lat="45.64236" lon="6.51095">
        <ele>1936</ele>
        <time>2022-07-16T05:52:24Z</time>
      </trkpt>
      <trkpt lat="45.64235" lon="6.51092">
        <ele>1937</ele>
        <time>2022-07-16T05:52:26Z</time>
      </trkpt>
      <trkpt lat="45.64233" lon="6.5109">
        <ele>1937</ele>
        <time>2022-07-16T05:52:28Z</time>
      </trkpt>
      <trkpt lat="45.64232" lon="6.51086">
        <ele>1938</ele>
        <time>2022-07-16T05:52:30Z</time>
      </trkpt>
      <trkpt lat="45.64231" lon="6.51082">
        <ele>1938</ele>
        <time>2022-07-16T05:52:32Z</time>
      </trkpt>
      <trkpt lat="45.6423" lon="6.51078">
        <ele>1938</ele>
        <time>2022-07-16T05:52:34Z</time>
      </trkpt>
      <trkpt lat="45.64228" lon="6.51074">
        <ele>1938</ele>
        <time>2022-07-16T05:52:36Z</time>
      </trkpt>
      <trkpt lat="45.64227" lon="6.51071">
        <ele>1938</ele>
        <time>2022-07-16T05:52:37Z</time>
      </trkpt>
      <trkpt lat="45.64226" lon="6.51069">
        <ele>1938</ele>
        <time>2022-07-16T05:52:38Z</time>
      </trkpt>
      <trkpt lat="45.64226" lon="6.51066">
        <ele>1938</ele>
        <time>2022-07-16T05:52:39Z</time>
      </trkpt>
      <trkpt lat="45.64226" lon="6.51063">
        <ele>1938</ele>
        <time>2022-07-16T05:52:40Z</time>
      </trkpt>
      <trkpt lat="45.64225" lon="6.5106">
        <ele>1938</ele>
        <time>2022-07-16T05:52:41Z</time>
      </trkpt>
      <trkpt lat="45.64224" lon="6.51058">
        <ele>1938</ele>
        <time>2022-07-16T05:52:42Z</time>
      </trkpt>
      <trkpt lat="45.64223" lon="6.51056">
        <ele>1938</ele>
        <time>2022-07-16T05:52:43Z</time>
      </trkpt>
      <trkpt lat="45.64222" lon="6.51053">
        <ele>1938</ele>
        <time>2022-07-16T05:52:44Z</time>
      </trkpt>
      <trkpt lat="45.64222" lon="6.5105">
        <ele>1938</ele>
        <time>2022-07-16T05:52:45Z</time>
      </trkpt>
      <trkpt lat="45.64222" lon="6.51047">
        <ele>1939</ele>
        <time>2022-07-16T05:52:46Z</time>
      </trkpt>
      <trkpt lat="45.64221" lon="6.51044">
        <ele>1939</ele>
        <time>2022-07-16T05:52:47Z</time>
      </trkpt>
      <trkpt lat="45.64221" lon="6.51041">
        <ele>1939</ele>
        <time>2022-07-16T05:52:48Z</time>
      </trkpt>
      <trkpt lat="45.6422" lon="6.51038">
        <ele>1939</ele>
        <time>2022-07-16T05:52:49Z</time>
      </trkpt>
      <trkpt lat="45.6422" lon="6.51035">
        <ele>1939</ele>
        <time>2022-07-16T05:52:50Z</time>
      </trkpt>
      <trkpt lat="45.64218" lon="6.51031">
        <ele>1940</ele>
        <time>2022-07-16T05:52:52Z</time>
      </trkpt>
      <trkpt lat="45.64218" lon="6.51026">
        <ele>1940</ele>
        <time>2022-07-16T05:52:54Z</time>
      </trkpt>
      <trkpt lat="45.64218" lon="6.51023">
        <ele>1941</ele>
        <time>2022-07-16T05:52:56Z</time>
      </trkpt>
      <trkpt lat="45.64217" lon="6.51018">
        <ele>1941</ele>
        <time>2022-07-16T05:52:58Z</time>
      </trkpt>
      <trkpt lat="45.64217" lon="6.51014">
        <ele>1942</ele>
        <time>2022-07-16T05:53:00Z</time>
      </trkpt>
      <trkpt lat="45.64216" lon="6.5101">
        <ele>1942</ele>
        <time>2022-07-16T05:53:02Z</time>
      </trkpt>
      <trkpt lat="45.64215" lon="6.51006">
        <ele>1942</ele>
        <time>2022-07-16T05:53:04Z</time>
      </trkpt>
      <trkpt lat="45.64215" lon="6.51003">
        <ele>1943</ele>
        <time>2022-07-16T05:53:06Z</time>
      </trkpt>
      <trkpt lat="45.64214" lon="6.51001">
        <ele>1943</ele>
        <time>2022-07-16T05:53:08Z</time>
      </trkpt>
      <trkpt lat="45.64212" lon="6.50998">
        <ele>1943</ele>
        <time>2022-07-16T05:53:10Z</time>
      </trkpt>
      <trkpt lat="45.64211" lon="6.50995">
        <ele>1944</ele>
        <time>2022-07-16T05:53:12Z</time>
      </trkpt>
      <trkpt lat="45.6421" lon="6.50993">
        <ele>1944</ele>
        <time>2022-07-16T05:53:14Z</time>
      </trkpt>
      <trkpt lat="45.64208" lon="6.5099">
        <ele>1944</ele>
        <time>2022-07-16T05:53:16Z</time>
      </trkpt>
      <trkpt lat="45.64207" lon="6.50987">
        <ele>1944</ele>
        <time>2022-07-16T05:53:18Z</time>
      </trkpt>
      <trkpt lat="45.64206" lon="6.50985">
        <ele>1946</ele>
        <time>2022-07-16T05:53:20Z</time>
      </trkpt>
      <trkpt lat="45.64205" lon="6.50982">
        <ele>1946</ele>
        <time>2022-07-16T05:53:22Z</time>
      </trkpt>
      <trkpt lat="45.64203" lon="6.5098">
        <ele>1946</ele>
        <time>2022-07-16T05:53:24Z</time>
      </trkpt>
      <trkpt lat="45.64202" lon="6.50978">
        <ele>1946</ele>
        <time>2022-07-16T05:53:26Z</time>
      </trkpt>
      <trkpt lat="45.642" lon="6.50975">
        <ele>1946</ele>
        <time>2022-07-16T05:53:28Z</time>
      </trkpt>
      <trkpt lat="45.64199" lon="6.50973">
        <ele>1946</ele>
        <time>2022-07-16T05:53:30Z</time>
      </trkpt>
      <trkpt lat="45.64197" lon="6.5097">
        <ele>1948</ele>
        <time>2022-07-16T05:53:32Z</time>
      </trkpt>
      <trkpt lat="45.64196" lon="6.50968">
        <ele>1948</ele>
        <time>2022-07-16T05:53:34Z</time>
      </trkpt>
      <trkpt lat="45.64195" lon="6.50965">
        <ele>1948</ele>
        <time>2022-07-16T05:53:36Z</time>
      </trkpt>
      <trkpt lat="45.64195" lon="6.50962">
        <ele>1948</ele>
        <time>2022-07-16T05:53:38Z</time>
      </trkpt>
      <trkpt lat="45.64194" lon="6.50959">
        <ele>1949</ele>
        <time>2022-07-16T05:53:40Z</time>
      </trkpt>
      <trkpt lat="45.64193" lon="6.50956">
        <ele>1949</ele>
        <time>2022-07-16T05:53:42Z</time>
      </trkpt>
      <trkpt lat="45.64192" lon="6.50953">
        <ele>1949</ele>
        <time>2022-07-16T05:53:44Z</time>
      </trkpt>
      <trkpt lat="45.6419" lon="6.5095">
        <ele>1950</ele>
        <time>2022-07-16T05:53:46Z</time>
      </trkpt>
      <trkpt lat="45.64189" lon="6.50947">
        <ele>1950</ele>
        <time>2022-07-16T05:53:48Z</time>
      </trkpt>
      <trkpt lat="45.64188" lon="6.50944">
        <ele>1951</ele>
        <time>2022-07-16T05:53:50Z</time>
      </trkpt>
      <trkpt lat="45.64187" lon="6.50941">
        <ele>1951</ele>
        <time>2022-07-16T05:53:52Z</time>
      </trkpt>
      <trkpt lat="45.64186" lon="6.50938">
        <ele>1951</ele>
        <time>2022-07-16T05:53:54Z</time>
      </trkpt>
      <trkpt lat="45.64185" lon="6.50936">
        <ele>1952</ele>
        <time>2022-07-16T05:53:56Z</time>
      </trkpt>
      <trkpt lat="45.64184" lon="6.50933">
        <ele>1952</ele>
        <time>2022-07-16T05:53:58Z</time>
      </trkpt>
      <trkpt lat="45.64184" lon="6.5093">
        <ele>1952</ele>
        <time>2022-07-16T05:54:00Z</time>
      </trkpt>
      <trkpt lat="45.64182" lon="6.50927">
        <ele>1952</ele>
        <time>2022-07-16T05:54:02Z</time>
      </trkpt>
      <trkpt lat="45.64181" lon="6.50924">
        <ele>1953</ele>
        <time>2022-07-16T05:54:04Z</time>
      </trkpt>
      <trkpt lat="45.64181" lon="6.50921">
        <ele>1953</ele>
        <time>2022-07-16T05:54:06Z</time>
      </trkpt>
      <trkpt lat="45.6418" lon="6.50917">
        <ele>1954</ele>
        <time>2022-07-16T05:54:08Z</time>
      </trkpt>
      <trkpt lat="45.6418" lon="6.50914">
        <ele>1954</ele>
        <time>2022-07-16T05:54:10Z</time>
      </trkpt>
      <trkpt lat="45.64179" lon="6.50911">
        <ele>1954</ele>
        <time>2022-07-16T05:54:12Z</time>
      </trkpt>
      <trkpt lat="45.64178" lon="6.50909">
        <ele>1954</ele>
        <time>2022-07-16T05:54:14Z</time>
      </trkpt>
      <trkpt lat="45.64176" lon="6.50906">
        <ele>1955</ele>
        <time>2022-07-16T05:54:16Z</time>
      </trkpt>
      <trkpt lat="45.64174" lon="6.50904">
        <ele>1956</ele>
        <time>2022-07-16T05:54:18Z</time>
      </trkpt>
      <trkpt lat="45.64173" lon="6.50902">
        <ele>1956</ele>
        <time>2022-07-16T05:54:20Z</time>
      </trkpt>
      <trkpt lat="45.64171" lon="6.50901">
        <ele>1956</ele>
        <time>2022-07-16T05:54:22Z</time>
      </trkpt>
      <trkpt lat="45.64169" lon="6.509">
        <ele>1956</ele>
        <time>2022-07-16T05:54:24Z</time>
      </trkpt>
      <trkpt lat="45.64166" lon="6.509">
        <ele>1956</ele>
        <time>2022-07-16T05:54:26Z</time>
      </trkpt>
      <trkpt lat="45.64164" lon="6.50899">
        <ele>1957</ele>
        <time>2022-07-16T05:54:28Z</time>
      </trkpt>
      <trkpt lat="45.64162" lon="6.50898">
        <ele>1958</ele>
        <time>2022-07-16T05:54:30Z</time>
      </trkpt>
      <trkpt lat="45.6416" lon="6.50898">
        <ele>1958</ele>
        <time>2022-07-16T05:54:32Z</time>
      </trkpt>
      <trkpt lat="45.64158" lon="6.50897">
        <ele>1958</ele>
        <time>2022-07-16T05:54:34Z</time>
      </trkpt>
      <trkpt lat="45.64156" lon="6.50896">
        <ele>1958</ele>
        <time>2022-07-16T05:54:36Z</time>
      </trkpt>
      <trkpt lat="45.64154" lon="6.50894">
        <ele>1959</ele>
        <time>2022-07-16T05:54:38Z</time>
      </trkpt>
      <trkpt lat="45.64153" lon="6.50893">
        <ele>1959</ele>
        <time>2022-07-16T05:54:40Z</time>
      </trkpt>
      <trkpt lat="45.64151" lon="6.50891">
        <ele>1960</ele>
        <time>2022-07-16T05:54:43Z</time>
      </trkpt>
      <trkpt lat="45.64149" lon="6.50889">
        <ele>1962</ele>
        <time>2022-07-16T05:54:45Z</time>
      </trkpt>
      <trkpt lat="45.64148" lon="6.50887">
        <ele>1962</ele>
        <time>2022-07-16T05:54:47Z</time>
      </trkpt>
      <trkpt lat="45.64147" lon="6.50885">
        <ele>1962</ele>
        <time>2022-07-16T05:54:49Z</time>
      </trkpt>
      <trkpt lat="45.64145" lon="6.50883">
        <ele>1962</ele>
        <time>2022-07-16T05:54:51Z</time>
      </trkpt>
      <trkpt lat="45.64144" lon="6.50881">
        <ele>1962</ele>
        <time>2022-07-16T05:54:53Z</time>
      </trkpt>
      <trkpt lat="45.64142" lon="6.50879">
        <ele>1963</ele>
        <time>2022-07-16T05:54:55Z</time>
      </trkpt>
      <trkpt lat="45.6414" lon="6.50877">
        <ele>1963</ele>
        <time>2022-07-16T05:54:57Z</time>
      </trkpt>
      <trkpt lat="45.64138" lon="6.50874">
        <ele>1964</ele>
        <time>2022-07-16T05:54:59Z</time>
      </trkpt>
      <trkpt lat="45.64137" lon="6.50871">
        <ele>1965</ele>
        <time>2022-07-16T05:55:01Z</time>
      </trkpt>
      <trkpt lat="45.64136" lon="6.50868">
        <ele>1965</ele>
        <time>2022-07-16T05:55:03Z</time>
      </trkpt>
      <trkpt lat="45.64135" lon="6.50864">
        <ele>1965</ele>
        <time>2022-07-16T05:55:05Z</time>
      </trkpt>
      <trkpt lat="45.64134" lon="6.50861">
        <ele>1965</ele>
        <time>2022-07-16T05:55:07Z</time>
      </trkpt>
      <trkpt lat="45.64132" lon="6.50859">
        <ele>1966</ele>
        <time>2022-07-16T05:55:09Z</time>
      </trkpt>
      <trkpt lat="45.6413" lon="6.50858">
        <ele>1966</ele>
        <time>2022-07-16T05:55:11Z</time>
      </trkpt>
      <trkpt lat="45.64129" lon="6.50856">
        <ele>1967</ele>
        <time>2022-07-16T05:55:13Z</time>
      </trkpt>
      <trkpt lat="45.64127" lon="6.50854">
        <ele>1967</ele>
        <time>2022-07-16T05:55:15Z</time>
      </trkpt>
      <trkpt lat="45.64125" lon="6.50853">
        <ele>1967</ele>
        <time>2022-07-16T05:55:17Z</time>
      </trkpt>
      <trkpt lat="45.64123" lon="6.50852">
        <ele>1968</ele>
        <time>2022-07-16T05:55:19Z</time>
      </trkpt>
      <trkpt lat="45.64121" lon="6.50851">
        <ele>1968</ele>
        <time>2022-07-16T05:55:21Z</time>
      </trkpt>
      <trkpt lat="45.64119" lon="6.50849">
        <ele>1968</ele>
        <time>2022-07-16T05:55:23Z</time>
      </trkpt>
      <trkpt lat="45.64118" lon="6.50847">
        <ele>1968</ele>
        <time>2022-07-16T05:55:25Z</time>
      </trkpt>
      <trkpt lat="45.64116" lon="6.50845">
        <ele>1968</ele>
        <time>2022-07-16T05:55:27Z</time>
      </trkpt>
      <trkpt lat="45.64114" lon="6.50844">
        <ele>1970</ele>
        <time>2022-07-16T05:55:30Z</time>
      </trkpt>
      <trkpt lat="45.64112" lon="6.50843">
        <ele>1970</ele>
        <time>2022-07-16T05:55:33Z</time>
      </trkpt>
      <trkpt lat="45.6411" lon="6.5084">
        <ele>1971</ele>
        <time>2022-07-16T05:55:36Z</time>
      </trkpt>
      <trkpt lat="45.64108" lon="6.50839">
        <ele>1972</ele>
        <time>2022-07-16T05:55:38Z</time>
      </trkpt>
      <trkpt lat="45.64106" lon="6.50837">
        <ele>1973</ele>
        <time>2022-07-16T05:55:41Z</time>
      </trkpt>
      <trkpt lat="45.64105" lon="6.50837">
        <ele>1973</ele>
        <time>2022-07-16T05:55:44Z</time>
      </trkpt>
      <trkpt lat="45.64102" lon="6.50836">
        <ele>1974</ele>
        <time>2022-07-16T05:55:47Z</time>
      </trkpt>
      <trkpt lat="45.641" lon="6.50835">
        <ele>1974</ele>
        <time>2022-07-16T05:55:50Z</time>
      </trkpt>
      <trkpt lat="45.64098" lon="6.50834">
        <ele>1975</ele>
        <time>2022-07-16T05:55:53Z</time>
      </trkpt>
      <trkpt lat="45.64097" lon="6.50833">
        <ele>1976</ele>
        <time>2022-07-16T05:55:56Z</time>
      </trkpt>
      <trkpt lat="45.64095" lon="6.50832">
        <ele>1977</ele>
        <time>2022-07-16T05:56:00Z</time>
      </trkpt>
      <trkpt lat="45.64093" lon="6.5083">
        <ele>1978</ele>
        <time>2022-07-16T05:56:03Z</time>
      </trkpt>
      <trkpt lat="45.64091" lon="6.50831">
        <ele>1979</ele>
        <time>2022-07-16T05:56:07Z</time>
      </trkpt>
      <trkpt lat="45.64089" lon="6.5083">
        <ele>1980</ele>
        <time>2022-07-16T05:56:11Z</time>
      </trkpt>
      <trkpt lat="45.64087" lon="6.50832">
        <ele>1981</ele>
        <time>2022-07-16T05:56:17Z</time>
      </trkpt>
      <trkpt lat="45.64085" lon="6.50833">
        <ele>1981</ele>
        <time>2022-07-16T05:56:20Z</time>
      </trkpt>
      <trkpt lat="45.64083" lon="6.50834">
        <ele>1982</ele>
        <time>2022-07-16T05:56:23Z</time>
      </trkpt>
      <trkpt lat="45.64082" lon="6.50835">
        <ele>1983</ele>
        <time>2022-07-16T05:56:27Z</time>
      </trkpt>
      <trkpt lat="45.64081" lon="6.50838">
        <ele>1984</ele>
        <time>2022-07-16T05:56:30Z</time>
      </trkpt>
      <trkpt lat="45.64079" lon="6.50839">
        <ele>1985</ele>
        <time>2022-07-16T05:56:34Z</time>
      </trkpt>
      <trkpt lat="45.64076" lon="6.5084">
        <ele>1986</ele>
        <time>2022-07-16T05:56:38Z</time>
      </trkpt>
      <trkpt lat="45.64075" lon="6.5084">
        <ele>1986</ele>
        <time>2022-07-16T05:56:41Z</time>
      </trkpt>
      <trkpt lat="45.64073" lon="6.50838">
        <ele>1988</ele>
        <time>2022-07-16T05:56:44Z</time>
      </trkpt>
      <trkpt lat="45.6407" lon="6.50838">
        <ele>1988</ele>
        <time>2022-07-16T05:56:47Z</time>
      </trkpt>
      <trkpt lat="45.64068" lon="6.50837">
        <ele>1988</ele>
        <time>2022-07-16T05:56:49Z</time>
      </trkpt>
      <trkpt lat="45.64066" lon="6.50836">
        <ele>1989</ele>
        <time>2022-07-16T05:56:51Z</time>
      </trkpt>
      <trkpt lat="45.64064" lon="6.50835">
        <ele>1989</ele>
        <time>2022-07-16T05:56:53Z</time>
      </trkpt>
      <trkpt lat="45.64062" lon="6.50833">
        <ele>1989</ele>
        <time>2022-07-16T05:56:55Z</time>
      </trkpt>
      <trkpt lat="45.6406" lon="6.50832">
        <ele>1990</ele>
        <time>2022-07-16T05:56:58Z</time>
      </trkpt>
      <trkpt lat="45.64058" lon="6.5083">
        <ele>1990</ele>
        <time>2022-07-16T05:57:00Z</time>
      </trkpt>
      <trkpt lat="45.64056" lon="6.50829">
        <ele>1991</ele>
        <time>2022-07-16T05:57:02Z</time>
      </trkpt>
      <trkpt lat="45.64054" lon="6.50828">
        <ele>1991</ele>
        <time>2022-07-16T05:57:04Z</time>
      </trkpt>
      <trkpt lat="45.64052" lon="6.50827">
        <ele>1991</ele>
        <time>2022-07-16T05:57:06Z</time>
      </trkpt>
      <trkpt lat="45.6405" lon="6.50828">
        <ele>1992</ele>
        <time>2022-07-16T05:57:09Z</time>
      </trkpt>
      <trkpt lat="45.64048" lon="6.50829">
        <ele>1992</ele>
        <time>2022-07-16T05:57:11Z</time>
      </trkpt>
      <trkpt lat="45.64046" lon="6.5083">
        <ele>1993</ele>
        <time>2022-07-16T05:57:13Z</time>
      </trkpt>
      <trkpt lat="45.64044" lon="6.5083">
        <ele>1993</ele>
        <time>2022-07-16T05:57:16Z</time>
      </trkpt>
      <trkpt lat="45.64041" lon="6.5083">
        <ele>1993</ele>
        <time>2022-07-16T05:57:19Z</time>
      </trkpt>
      <trkpt lat="45.64039" lon="6.50829">
        <ele>1994</ele>
        <time>2022-07-16T05:57:21Z</time>
      </trkpt>
      <trkpt lat="45.64037" lon="6.50829">
        <ele>1995</ele>
        <time>2022-07-16T05:57:23Z</time>
      </trkpt>
      <trkpt lat="45.64035" lon="6.50829">
        <ele>1995</ele>
        <time>2022-07-16T05:57:26Z</time>
      </trkpt>
      <trkpt lat="45.64032" lon="6.5083">
        <ele>1995</ele>
        <time>2022-07-16T05:57:29Z</time>
      </trkpt>
      <trkpt lat="45.6403" lon="6.50831">
        <ele>1996</ele>
        <time>2022-07-16T05:57:32Z</time>
      </trkpt>
      <trkpt lat="45.64028" lon="6.50832">
        <ele>1997</ele>
        <time>2022-07-16T05:57:34Z</time>
      </trkpt>
      <trkpt lat="45.64026" lon="6.50833">
        <ele>1997</ele>
        <time>2022-07-16T05:57:36Z</time>
      </trkpt>
      <trkpt lat="45.64024" lon="6.50833">
        <ele>1997</ele>
        <time>2022-07-16T05:57:39Z</time>
      </trkpt>
      <trkpt lat="45.64022" lon="6.50835">
        <ele>1999</ele>
        <time>2022-07-16T05:57:43Z</time>
      </trkpt>
      <trkpt lat="45.6402" lon="6.50835">
        <ele>1999</ele>
        <time>2022-07-16T05:57:47Z</time>
      </trkpt>
      <trkpt lat="45.64018" lon="6.50835">
        <ele>2000</ele>
        <time>2022-07-16T05:57:50Z</time>
      </trkpt>
      <trkpt lat="45.64017" lon="6.50836">
        <ele>2001</ele>
        <time>2022-07-16T05:57:53Z</time>
      </trkpt>
      <trkpt lat="45.64015" lon="6.50837">
        <ele>2002</ele>
        <time>2022-07-16T05:57:56Z</time>
      </trkpt>
      <trkpt lat="45.64013" lon="6.50837">
        <ele>2002</ele>
        <time>2022-07-16T05:57:58Z</time>
      </trkpt>
      <trkpt lat="45.6401" lon="6.50837">
        <ele>2003</ele>
        <time>2022-07-16T05:58:00Z</time>
      </trkpt>
      <trkpt lat="45.64008" lon="6.50837">
        <ele>2004</ele>
        <time>2022-07-16T05:58:03Z</time>
      </trkpt>
      <trkpt lat="45.64006" lon="6.50837">
        <ele>2004</ele>
        <time>2022-07-16T05:58:05Z</time>
      </trkpt>
      <trkpt lat="45.64004" lon="6.50837">
        <ele>2005</ele>
        <time>2022-07-16T05:58:07Z</time>
      </trkpt>
      <trkpt lat="45.64002" lon="6.50837">
        <ele>2006</ele>
        <time>2022-07-16T05:58:09Z</time>
      </trkpt>
      <trkpt lat="45.63999" lon="6.50839">
        <ele>2007</ele>
        <time>2022-07-16T05:58:12Z</time>
      </trkpt>
      <trkpt lat="45.63996" lon="6.50838">
        <ele>2008</ele>
        <time>2022-07-16T05:58:15Z</time>
      </trkpt>
      <trkpt lat="45.63994" lon="6.50837">
        <ele>2008</ele>
        <time>2022-07-16T05:58:17Z</time>
      </trkpt>
      <trkpt lat="45.63992" lon="6.50836">
        <ele>2008</ele>
        <time>2022-07-16T05:58:19Z</time>
      </trkpt>
      <trkpt lat="45.6399" lon="6.50835">
        <ele>2009</ele>
        <time>2022-07-16T05:58:21Z</time>
      </trkpt>
      <trkpt lat="45.63988" lon="6.50835">
        <ele>2010</ele>
        <time>2022-07-16T05:58:24Z</time>
      </trkpt>
      <trkpt lat="45.63985" lon="6.50835">
        <ele>2010</ele>
        <time>2022-07-16T05:58:27Z</time>
      </trkpt>
      <trkpt lat="45.63983" lon="6.50836">
        <ele>2011</ele>
        <time>2022-07-16T05:58:31Z</time>
      </trkpt>
      <trkpt lat="45.63981" lon="6.50837">
        <ele>2012</ele>
        <time>2022-07-16T05:58:34Z</time>
      </trkpt>
      <trkpt lat="45.63979" lon="6.50838">
        <ele>2012</ele>
        <time>2022-07-16T05:58:36Z</time>
      </trkpt>
      <trkpt lat="45.63977" lon="6.50838">
        <ele>2014</ele>
        <time>2022-07-16T05:58:38Z</time>
      </trkpt>
      <trkpt lat="45.63974" lon="6.50839">
        <ele>2014</ele>
        <time>2022-07-16T05:58:41Z</time>
      </trkpt>
      <trkpt lat="45.63972" lon="6.50839">
        <ele>2016</ele>
        <time>2022-07-16T05:58:44Z</time>
      </trkpt>
      <trkpt lat="45.6397" lon="6.50839">
        <ele>2016</ele>
        <time>2022-07-16T05:58:47Z</time>
      </trkpt>
      <trkpt lat="45.63968" lon="6.50839">
        <ele>2017</ele>
        <time>2022-07-16T05:58:50Z</time>
      </trkpt>
      <trkpt lat="45.63966" lon="6.50839">
        <ele>2018</ele>
        <time>2022-07-16T05:58:53Z</time>
      </trkpt>
      <trkpt lat="45.63963" lon="6.5084">
        <ele>2019</ele>
        <time>2022-07-16T05:58:57Z</time>
      </trkpt>
      <trkpt lat="45.63962" lon="6.50842">
        <ele>2019</ele>
        <time>2022-07-16T05:59:00Z</time>
      </trkpt>
      <trkpt lat="45.63959" lon="6.50842">
        <ele>2020</ele>
        <time>2022-07-16T05:59:03Z</time>
      </trkpt>
      <trkpt lat="45.63958" lon="6.50843">
        <ele>2021</ele>
        <time>2022-07-16T05:59:06Z</time>
      </trkpt>
      <trkpt lat="45.63956" lon="6.50844">
        <ele>2022</ele>
        <time>2022-07-16T05:59:09Z</time>
      </trkpt>
      <trkpt lat="45.63954" lon="6.50845">
        <ele>2023</ele>
        <time>2022-07-16T05:59:13Z</time>
      </trkpt>
      <trkpt lat="45.63951" lon="6.50845">
        <ele>2023</ele>
        <time>2022-07-16T05:59:17Z</time>
      </trkpt>
      <trkpt lat="45.63949" lon="6.50845">
        <ele>2024</ele>
        <time>2022-07-16T05:59:20Z</time>
      </trkpt>
      <trkpt lat="45.63947" lon="6.50846">
        <ele>2025</ele>
        <time>2022-07-16T05:59:23Z</time>
      </trkpt>
      <trkpt lat="45.63946" lon="6.50847">
        <ele>2025</ele>
        <time>2022-07-16T05:59:26Z</time>
      </trkpt>
      <trkpt lat="45.63944" lon="6.50847">
        <ele>2027</ele>
        <time>2022-07-16T05:59:29Z</time>
      </trkpt>
      <trkpt lat="45.63942" lon="6.50849">
        <ele>2027</ele>
        <time>2022-07-16T05:59:33Z</time>
      </trkpt>
      <trkpt lat="45.6394" lon="6.50851">
        <ele>2028</ele>
        <time>2022-07-16T05:59:37Z</time>
      </trkpt>
      <trkpt lat="45.63939" lon="6.50853">
        <ele>2029</ele>
        <time>2022-07-16T05:59:39Z</time>
      </trkpt>
      <trkpt lat="45.63937" lon="6.50853">
        <ele>2030</ele>
        <time>2022-07-16T05:59:42Z</time>
      </trkpt>
      <trkpt lat="45.63935" lon="6.50853">
        <ele>2030</ele>
        <time>2022-07-16T05:59:45Z</time>
      </trkpt>
      <trkpt lat="45.63933" lon="6.50852">
        <ele>2031</ele>
        <time>2022-07-16T05:59:49Z</time>
      </trkpt>
      <trkpt lat="45.6393" lon="6.50852">
        <ele>2033</ele>
        <time>2022-07-16T05:59:53Z</time>
      </trkpt>
      <trkpt lat="45.63928" lon="6.50852">
        <ele>2034</ele>
        <time>2022-07-16T05:59:57Z</time>
      </trkpt>
      <trkpt lat="45.63926" lon="6.50852">
        <ele>2034</ele>
        <time>2022-07-16T06:00:00Z</time>
      </trkpt>
      <trkpt lat="45.63924" lon="6.50852">
        <ele>2035</ele>
        <time>2022-07-16T06:00:05Z</time>
      </trkpt>
      <trkpt lat="45.63922" lon="6.50854">
        <ele>2036</ele>
        <time>2022-07-16T06:00:08Z</time>
      </trkpt>
      <trkpt lat="45.6392" lon="6.50854">
        <ele>2038</ele>
        <time>2022-07-16T06:00:12Z</time>
      </trkpt>
      <trkpt lat="45.63918" lon="6.50854">
        <ele>2038</ele>
        <time>2022-07-16T06:00:16Z</time>
      </trkpt>
      <trkpt lat="45.63916" lon="6.50855">
        <ele>2040</ele>
        <time>2022-07-16T06:00:20Z</time>
      </trkpt>
      <trkpt lat="45.63914" lon="6.50856">
        <ele>2041</ele>
        <time>2022-07-16T06:00:24Z</time>
      </trkpt>
      <trkpt lat="45.63912" lon="6.50857">
        <ele>2043</ele>
        <time>2022-07-16T06:00:30Z</time>
      </trkpt>
      <trkpt lat="45.6391" lon="6.50859">
        <ele>2043</ele>
        <time>2022-07-16T06:00:35Z</time>
      </trkpt>
      <trkpt lat="45.63909" lon="6.5086">
        <ele>2045</ele>
        <time>2022-07-16T06:00:39Z</time>
      </trkpt>
      <trkpt lat="45.63907" lon="6.50861">
        <ele>2046</ele>
        <time>2022-07-16T06:00:43Z</time>
      </trkpt>
      <trkpt lat="45.63905" lon="6.50861">
        <ele>2047</ele>
        <time>2022-07-16T06:00:47Z</time>
      </trkpt>
      <trkpt lat="45.63903" lon="6.50862">
        <ele>2048</ele>
        <time>2022-07-16T06:00:51Z</time>
      </trkpt>
      <trkpt lat="45.63901" lon="6.50862">
        <ele>2049</ele>
        <time>2022-07-16T06:00:55Z</time>
      </trkpt>
      <trkpt lat="45.63899" lon="6.50863">
        <ele>2049</ele>
        <time>2022-07-16T06:00:58Z</time>
      </trkpt>
      <trkpt lat="45.63897" lon="6.50864">
        <ele>2050</ele>
        <time>2022-07-16T06:01:05Z</time>
      </trkpt>
      <trkpt lat="45.63896" lon="6.50866">
        <ele>2052</ele>
        <time>2022-07-16T06:01:10Z</time>
      </trkpt>
      <trkpt lat="45.63894" lon="6.50867">
        <ele>2052</ele>
        <time>2022-07-16T06:01:15Z</time>
      </trkpt>
      <trkpt lat="45.63894" lon="6.50867">
        <ele>2052</ele>
        <time>2022-07-16T06:01:21Z</time>
      </trkpt>
      <trkpt lat="45.63892" lon="6.50868">
        <ele>2053</ele>
        <time>2022-07-16T06:01:22Z</time>
      </trkpt>
      <trkpt lat="45.6389" lon="6.50868">
        <ele>2054</ele>
        <time>2022-07-16T06:01:27Z</time>
      </trkpt>
      <trkpt lat="45.63888" lon="6.50869">
        <ele>2055</ele>
        <time>2022-07-16T06:01:32Z</time>
      </trkpt>
      <trkpt lat="45.63886" lon="6.5087">
        <ele>2056</ele>
        <time>2022-07-16T06:01:35Z</time>
      </trkpt>
      <trkpt lat="45.63884" lon="6.50869">
        <ele>2056</ele>
        <time>2022-07-16T06:01:38Z</time>
      </trkpt>
      <trkpt lat="45.63882" lon="6.50869">
        <ele>2057</ele>
        <time>2022-07-16T06:01:42Z</time>
      </trkpt>
      <trkpt lat="45.6388" lon="6.50869">
        <ele>2057</ele>
        <time>2022-07-16T06:01:45Z</time>
      </trkpt>
      <trkpt lat="45.63878" lon="6.5087">
        <ele>2058</ele>
        <time>2022-07-16T06:01:49Z</time>
      </trkpt>
      <trkpt lat="45.63877" lon="6.50872">
        <ele>2060</ele>
        <time>2022-07-16T06:01:57Z</time>
      </trkpt>
      <trkpt lat="45.63875" lon="6.50874">
        <ele>2061</ele>
        <time>2022-07-16T06:02:01Z</time>
      </trkpt>
      <trkpt lat="45.63875" lon="6.50874">
        <ele>2062</ele>
        <time>2022-07-16T06:02:07Z</time>
      </trkpt>
      <trkpt lat="45.63875" lon="6.50877">
        <ele>2062</ele>
        <time>2022-07-16T06:02:10Z</time>
      </trkpt>
      <trkpt lat="45.63875" lon="6.50879">
        <ele>2063</ele>
        <time>2022-07-16T06:02:14Z</time>
      </trkpt>
      <trkpt lat="45.63874" lon="6.50882">
        <ele>2066</ele>
        <time>2022-07-16T06:02:21Z</time>
      </trkpt>
      <trkpt lat="45.63874" lon="6.50886">
        <ele>2066</ele>
        <time>2022-07-16T06:02:26Z</time>
      </trkpt>
      <trkpt lat="45.63873" lon="6.50888">
        <ele>2067</ele>
        <time>2022-07-16T06:02:29Z</time>
      </trkpt>
      <trkpt lat="45.63871" lon="6.5089">
        <ele>2068</ele>
        <time>2022-07-16T06:02:33Z</time>
      </trkpt>
      <trkpt lat="45.63869" lon="6.50891">
        <ele>2068</ele>
        <time>2022-07-16T06:02:37Z</time>
      </trkpt>
      <trkpt lat="45.63867" lon="6.50891">
        <ele>2069</ele>
        <time>2022-07-16T06:02:40Z</time>
      </trkpt>
      <trkpt lat="45.63865" lon="6.50892">
        <ele>2070</ele>
        <time>2022-07-16T06:02:44Z</time>
      </trkpt>
      <trkpt lat="45.63863" lon="6.50891">
        <ele>2071</ele>
        <time>2022-07-16T06:02:48Z</time>
      </trkpt>
      <trkpt lat="45.63861" lon="6.50892">
        <ele>2071</ele>
        <time>2022-07-16T06:02:52Z</time>
      </trkpt>
      <trkpt lat="45.63859" lon="6.50892">
        <ele>2071</ele>
        <time>2022-07-16T06:02:56Z</time>
      </trkpt>
      <trkpt lat="45.63856" lon="6.50892">
        <ele>2072</ele>
        <time>2022-07-16T06:02:59Z</time>
      </trkpt>
      <trkpt lat="45.63854" lon="6.50892">
        <ele>2073</ele>
        <time>2022-07-16T06:03:02Z</time>
      </trkpt>
      <trkpt lat="45.63852" lon="6.50892">
        <ele>2072</ele>
        <time>2022-07-16T06:03:04Z</time>
      </trkpt>
      <trkpt lat="45.63849" lon="6.50892">
        <ele>2072</ele>
        <time>2022-07-16T06:03:06Z</time>
      </trkpt>
      <trkpt lat="45.63846" lon="6.50892">
        <ele>2072</ele>
        <time>2022-07-16T06:03:08Z</time>
      </trkpt>
      <trkpt lat="45.63844" lon="6.50891">
        <ele>2072</ele>
        <time>2022-07-16T06:03:10Z</time>
      </trkpt>
      <trkpt lat="45.63841" lon="6.50889">
        <ele>2072</ele>
        <time>2022-07-16T06:03:12Z</time>
      </trkpt>
      <trkpt lat="45.63839" lon="6.50888">
        <ele>2072</ele>
        <time>2022-07-16T06:03:14Z</time>
      </trkpt>
      <trkpt lat="45.63836" lon="6.50888">
        <ele>2072</ele>
        <time>2022-07-16T06:03:16Z</time>
      </trkpt>
      <trkpt lat="45.63834" lon="6.50889">
        <ele>2072</ele>
        <time>2022-07-16T06:03:18Z</time>
      </trkpt>
      <trkpt lat="45.63832" lon="6.5089">
        <ele>2072</ele>
        <time>2022-07-16T06:03:20Z</time>
      </trkpt>
      <trkpt lat="45.63829" lon="6.5089">
        <ele>2072</ele>
        <time>2022-07-16T06:03:22Z</time>
      </trkpt>
      <trkpt lat="45.63827" lon="6.50891">
        <ele>2072</ele>
        <time>2022-07-16T06:03:24Z</time>
      </trkpt>
      <trkpt lat="45.63825" lon="6.50892">
        <ele>2072</ele>
        <time>2022-07-16T06:03:26Z</time>
      </trkpt>
      <trkpt lat="45.63823" lon="6.50894">
        <ele>2074</ele>
        <time>2022-07-16T06:03:29Z</time>
      </trkpt>
      <trkpt lat="45.63821" lon="6.50896">
        <ele>2074</ele>
        <time>2022-07-16T06:03:31Z</time>
      </trkpt>
      <trkpt lat="45.63819" lon="6.50898">
        <ele>2075</ele>
        <time>2022-07-16T06:03:33Z</time>
      </trkpt>
      <trkpt lat="45.63817" lon="6.50901">
        <ele>2076</ele>
        <time>2022-07-16T06:03:36Z</time>
      </trkpt>
      <trkpt lat="45.63816" lon="6.50903">
        <ele>2076</ele>
        <time>2022-07-16T06:03:38Z</time>
      </trkpt>
      <trkpt lat="45.63814" lon="6.50904">
        <ele>2076</ele>
        <time>2022-07-16T06:03:40Z</time>
      </trkpt>
      <trkpt lat="45.63813" lon="6.50906">
        <ele>2076</ele>
        <time>2022-07-16T06:03:42Z</time>
      </trkpt>
      <trkpt lat="45.63811" lon="6.50908">
        <ele>2076</ele>
        <time>2022-07-16T06:03:44Z</time>
      </trkpt>
      <trkpt lat="45.63809" lon="6.50909">
        <ele>2077</ele>
        <time>2022-07-16T06:03:46Z</time>
      </trkpt>
      <trkpt lat="45.63807" lon="6.5091">
        <ele>2077</ele>
        <time>2022-07-16T06:03:48Z</time>
      </trkpt>
      <trkpt lat="45.63805" lon="6.50912">
        <ele>2078</ele>
        <time>2022-07-16T06:03:50Z</time>
      </trkpt>
      <trkpt lat="45.63803" lon="6.50914">
        <ele>2078</ele>
        <time>2022-07-16T06:03:52Z</time>
      </trkpt>
      <trkpt lat="45.63802" lon="6.50915">
        <ele>2079</ele>
        <time>2022-07-16T06:03:54Z</time>
      </trkpt>
      <trkpt lat="45.638" lon="6.50917">
        <ele>2080</ele>
        <time>2022-07-16T06:03:56Z</time>
      </trkpt>
      <trkpt lat="45.63798" lon="6.50918">
        <ele>2080</ele>
        <time>2022-07-16T06:03:58Z</time>
      </trkpt>
      <trkpt lat="45.63796" lon="6.5092">
        <ele>2080</ele>
        <time>2022-07-16T06:04:00Z</time>
      </trkpt>
      <trkpt lat="45.63793" lon="6.50921">
        <ele>2080</ele>
        <time>2022-07-16T06:04:02Z</time>
      </trkpt>
      <trkpt lat="45.63791" lon="6.50923">
        <ele>2080</ele>
        <time>2022-07-16T06:04:04Z</time>
      </trkpt>
      <trkpt lat="45.63789" lon="6.50924">
        <ele>2080</ele>
        <time>2022-07-16T06:04:06Z</time>
      </trkpt>
      <trkpt lat="45.63787" lon="6.50925">
        <ele>2080</ele>
        <time>2022-07-16T06:04:08Z</time>
      </trkpt>
      <trkpt lat="45.63784" lon="6.50927">
        <ele>2080</ele>
        <time>2022-07-16T06:04:10Z</time>
      </trkpt>
      <trkpt lat="45.63782" lon="6.50928">
        <ele>2080</ele>
        <time>2022-07-16T06:04:12Z</time>
      </trkpt>
      <trkpt lat="45.6378" lon="6.50928">
        <ele>2080</ele>
        <time>2022-07-16T06:04:14Z</time>
      </trkpt>
      <trkpt lat="45.63777" lon="6.50929">
        <ele>2081</ele>
        <time>2022-07-16T06:04:16Z</time>
      </trkpt>
      <trkpt lat="45.63775" lon="6.50929">
        <ele>2081</ele>
        <time>2022-07-16T06:04:18Z</time>
      </trkpt>
      <trkpt lat="45.63773" lon="6.50929">
        <ele>2081</ele>
        <time>2022-07-16T06:04:20Z</time>
      </trkpt>
      <trkpt lat="45.63771" lon="6.50929">
        <ele>2081</ele>
        <time>2022-07-16T06:04:22Z</time>
      </trkpt>
      <trkpt lat="45.63769" lon="6.5093">
        <ele>2081</ele>
        <time>2022-07-16T06:04:24Z</time>
      </trkpt>
      <trkpt lat="45.63766" lon="6.50931">
        <ele>2082</ele>
        <time>2022-07-16T06:04:26Z</time>
      </trkpt>
      <trkpt lat="45.63764" lon="6.50932">
        <ele>2082</ele>
        <time>2022-07-16T06:04:28Z</time>
      </trkpt>
      <trkpt lat="45.63762" lon="6.50932">
        <ele>2083</ele>
        <time>2022-07-16T06:04:30Z</time>
      </trkpt>
      <trkpt lat="45.63759" lon="6.50933">
        <ele>2083</ele>
        <time>2022-07-16T06:04:33Z</time>
      </trkpt>
      <trkpt lat="45.63756" lon="6.50934">
        <ele>2084</ele>
        <time>2022-07-16T06:04:36Z</time>
      </trkpt>
      <trkpt lat="45.63754" lon="6.50933">
        <ele>2084</ele>
        <time>2022-07-16T06:04:38Z</time>
      </trkpt>
      <trkpt lat="45.63751" lon="6.50933">
        <ele>2084</ele>
        <time>2022-07-16T06:04:40Z</time>
      </trkpt>
      <trkpt lat="45.63748" lon="6.50934">
        <ele>2085</ele>
        <time>2022-07-16T06:04:42Z</time>
      </trkpt>
      <trkpt lat="45.63746" lon="6.50935">
        <ele>2085</ele>
        <time>2022-07-16T06:04:44Z</time>
      </trkpt>
      <trkpt lat="45.63743" lon="6.50936">
        <ele>2085</ele>
        <time>2022-07-16T06:04:46Z</time>
      </trkpt>
      <trkpt lat="45.63741" lon="6.50938">
        <ele>2085</ele>
        <time>2022-07-16T06:04:48Z</time>
      </trkpt>
      <trkpt lat="45.63739" lon="6.50939">
        <ele>2085</ele>
        <time>2022-07-16T06:04:50Z</time>
      </trkpt>
      <trkpt lat="45.63737" lon="6.50941">
        <ele>2086</ele>
        <time>2022-07-16T06:04:52Z</time>
      </trkpt>
      <trkpt lat="45.63734" lon="6.50942">
        <ele>2086</ele>
        <time>2022-07-16T06:04:54Z</time>
      </trkpt>
      <trkpt lat="45.63732" lon="6.50943">
        <ele>2086</ele>
        <time>2022-07-16T06:04:56Z</time>
      </trkpt>
      <trkpt lat="45.6373" lon="6.50945">
        <ele>2086</ele>
        <time>2022-07-16T06:04:58Z</time>
      </trkpt>
      <trkpt lat="45.63728" lon="6.50946">
        <ele>2086</ele>
        <time>2022-07-16T06:05:00Z</time>
      </trkpt>
      <trkpt lat="45.63726" lon="6.50948">
        <ele>2086</ele>
        <time>2022-07-16T06:05:02Z</time>
      </trkpt>
      <trkpt lat="45.63724" lon="6.5095">
        <ele>2087</ele>
        <time>2022-07-16T06:05:04Z</time>
      </trkpt>
      <trkpt lat="45.63723" lon="6.50953">
        <ele>2088</ele>
        <time>2022-07-16T06:05:06Z</time>
      </trkpt>
      <trkpt lat="45.63722" lon="6.50957">
        <ele>2088</ele>
        <time>2022-07-16T06:05:08Z</time>
      </trkpt>
      <trkpt lat="45.63722" lon="6.50961">
        <ele>2088</ele>
        <time>2022-07-16T06:05:10Z</time>
      </trkpt>
      <trkpt lat="45.63721" lon="6.50965">
        <ele>2088</ele>
        <time>2022-07-16T06:05:12Z</time>
      </trkpt>
      <trkpt lat="45.6372" lon="6.50968">
        <ele>2088</ele>
        <time>2022-07-16T06:05:14Z</time>
      </trkpt>
      <trkpt lat="45.6372" lon="6.50971">
        <ele>2088</ele>
        <time>2022-07-16T06:05:16Z</time>
      </trkpt>
      <trkpt lat="45.63721" lon="6.50973">
        <ele>2089</ele>
        <time>2022-07-16T06:05:18Z</time>
      </trkpt>
      <trkpt lat="45.63721" lon="6.50977">
        <ele>2089</ele>
        <time>2022-07-16T06:05:20Z</time>
      </trkpt>
      <trkpt lat="45.63722" lon="6.5098">
        <ele>2089</ele>
        <time>2022-07-16T06:05:22Z</time>
      </trkpt>
      <trkpt lat="45.63722" lon="6.50983">
        <ele>2090</ele>
        <time>2022-07-16T06:05:24Z</time>
      </trkpt>
      <trkpt lat="45.63722" lon="6.50986">
        <ele>2090</ele>
        <time>2022-07-16T06:05:26Z</time>
      </trkpt>
      <trkpt lat="45.63722" lon="6.50989">
        <ele>2092</ele>
        <time>2022-07-16T06:05:28Z</time>
      </trkpt>
      <trkpt lat="45.63722" lon="6.50993">
        <ele>2092</ele>
        <time>2022-07-16T06:05:31Z</time>
      </trkpt>
      <trkpt lat="45.63722" lon="6.50996">
        <ele>2092</ele>
        <time>2022-07-16T06:05:34Z</time>
      </trkpt>
      <trkpt lat="45.63722" lon="6.50999">
        <ele>2094</ele>
        <time>2022-07-16T06:05:37Z</time>
      </trkpt>
      <trkpt lat="45.63724" lon="6.50997">
        <ele>2094</ele>
        <time>2022-07-16T06:05:40Z</time>
      </trkpt>
      <trkpt lat="45.63726" lon="6.50994">
        <ele>2094</ele>
        <time>2022-07-16T06:05:42Z</time>
      </trkpt>
      <trkpt lat="45.63728" lon="6.50992">
        <ele>2094</ele>
        <time>2022-07-16T06:05:44Z</time>
      </trkpt>
      <trkpt lat="45.6373" lon="6.5099">
        <ele>2095</ele>
        <time>2022-07-16T06:05:46Z</time>
      </trkpt>
      <trkpt lat="45.63732" lon="6.50988">
        <ele>2095</ele>
        <time>2022-07-16T06:05:48Z</time>
      </trkpt>
      <trkpt lat="45.63733" lon="6.50986">
        <ele>2095</ele>
        <time>2022-07-16T06:05:50Z</time>
      </trkpt>
      <trkpt lat="45.63735" lon="6.50984">
        <ele>2095</ele>
        <time>2022-07-16T06:05:52Z</time>
      </trkpt>
      <trkpt lat="45.63736" lon="6.50981">
        <ele>2096</ele>
        <time>2022-07-16T06:05:54Z</time>
      </trkpt>
      <trkpt lat="45.63738" lon="6.50979">
        <ele>2096</ele>
        <time>2022-07-16T06:05:56Z</time>
      </trkpt>
      <trkpt lat="45.6374" lon="6.50976">
        <ele>2097</ele>
        <time>2022-07-16T06:05:58Z</time>
      </trkpt>
      <trkpt lat="45.63742" lon="6.50975">
        <ele>2097</ele>
        <time>2022-07-16T06:06:00Z</time>
      </trkpt>
      <trkpt lat="45.63744" lon="6.50975">
        <ele>2097</ele>
        <time>2022-07-16T06:06:02Z</time>
      </trkpt>
      <trkpt lat="45.63745" lon="6.50979">
        <ele>2097</ele>
        <time>2022-07-16T06:06:04Z</time>
      </trkpt>
      <trkpt lat="45.63744" lon="6.50982">
        <ele>2098</ele>
        <time>2022-07-16T06:06:06Z</time>
      </trkpt>
      <trkpt lat="45.63743" lon="6.50985">
        <ele>2099</ele>
        <time>2022-07-16T06:06:09Z</time>
      </trkpt>
      <trkpt lat="45.63742" lon="6.50988">
        <ele>2099</ele>
        <time>2022-07-16T06:06:11Z</time>
      </trkpt>
      <trkpt lat="45.63742" lon="6.50992">
        <ele>2099</ele>
        <time>2022-07-16T06:06:13Z</time>
      </trkpt>
      <trkpt lat="45.63741" lon="6.50994">
        <ele>2099</ele>
        <time>2022-07-16T06:06:15Z</time>
      </trkpt>
      <trkpt lat="45.6374" lon="6.50997">
        <ele>2100</ele>
        <time>2022-07-16T06:06:17Z</time>
      </trkpt>
      <trkpt lat="45.63739" lon="6.51">
        <ele>2100</ele>
        <time>2022-07-16T06:06:19Z</time>
      </trkpt>
      <trkpt lat="45.63738" lon="6.51003">
        <ele>2100</ele>
        <time>2022-07-16T06:06:21Z</time>
      </trkpt>
      <trkpt lat="45.63737" lon="6.51006">
        <ele>2100</ele>
        <time>2022-07-16T06:06:23Z</time>
      </trkpt>
      <trkpt lat="45.63737" lon="6.51009">
        <ele>2101</ele>
        <time>2022-07-16T06:06:25Z</time>
      </trkpt>
      <trkpt lat="45.63736" lon="6.51012">
        <ele>2101</ele>
        <time>2022-07-16T06:06:27Z</time>
      </trkpt>
      <trkpt lat="45.63735" lon="6.51015">
        <ele>2102</ele>
        <time>2022-07-16T06:06:29Z</time>
      </trkpt>
      <trkpt lat="45.63734" lon="6.51018">
        <ele>2102</ele>
        <time>2022-07-16T06:06:31Z</time>
      </trkpt>
      <trkpt lat="45.63734" lon="6.51021">
        <ele>2102</ele>
        <time>2022-07-16T06:06:33Z</time>
      </trkpt>
      <trkpt lat="45.63734" lon="6.51025">
        <ele>2102</ele>
        <time>2022-07-16T06:06:35Z</time>
      </trkpt>
      <trkpt lat="45.63733" lon="6.51029">
        <ele>2102</ele>
        <time>2022-07-16T06:06:37Z</time>
      </trkpt>
      <trkpt lat="45.63733" lon="6.51033">
        <ele>2102</ele>
        <time>2022-07-16T06:06:39Z</time>
      </trkpt>
      <trkpt lat="45.63732" lon="6.51036">
        <ele>2103</ele>
        <time>2022-07-16T06:06:41Z</time>
      </trkpt>
      <trkpt lat="45.63731" lon="6.51038">
        <ele>2103</ele>
        <time>2022-07-16T06:06:43Z</time>
      </trkpt>
      <trkpt lat="45.63731" lon="6.51042">
        <ele>2104</ele>
        <time>2022-07-16T06:06:46Z</time>
      </trkpt>
      <trkpt lat="45.63731" lon="6.51045">
        <ele>2105</ele>
        <time>2022-07-16T06:06:49Z</time>
      </trkpt>
      <trkpt lat="45.63731" lon="6.51048">
        <ele>2106</ele>
        <time>2022-07-16T06:06:52Z</time>
      </trkpt>
      <trkpt lat="45.63731" lon="6.51051">
        <ele>2106</ele>
        <time>2022-07-16T06:06:56Z</time>
      </trkpt>
      <trkpt lat="45.63734" lon="6.51051">
        <ele>2107</ele>
        <time>2022-07-16T06:07:02Z</time>
      </trkpt>
      <trkpt lat="45.63735" lon="6.51048">
        <ele>2108</ele>
        <time>2022-07-16T06:07:04Z</time>
      </trkpt>
      <trkpt lat="45.63736" lon="6.51045">
        <ele>2108</ele>
        <time>2022-07-16T06:07:06Z</time>
      </trkpt>
      <trkpt lat="45.63737" lon="6.51042">
        <ele>2109</ele>
        <time>2022-07-16T06:07:08Z</time>
      </trkpt>
      <trkpt lat="45.63738" lon="6.51039">
        <ele>2109</ele>
        <time>2022-07-16T06:07:10Z</time>
      </trkpt>
      <trkpt lat="45.6374" lon="6.51036">
        <ele>2109</ele>
        <time>2022-07-16T06:07:12Z</time>
      </trkpt>
      <trkpt lat="45.63741" lon="6.51033">
        <ele>2109</ele>
        <time>2022-07-16T06:07:14Z</time>
      </trkpt>
      <trkpt lat="45.63743" lon="6.51031">
        <ele>2109</ele>
        <time>2022-07-16T06:07:16Z</time>
      </trkpt>
      <trkpt lat="45.63745" lon="6.51029">
        <ele>2110</ele>
        <time>2022-07-16T06:07:18Z</time>
      </trkpt>
      <trkpt lat="45.63747" lon="6.51027">
        <ele>2110</ele>
        <time>2022-07-16T06:07:20Z</time>
      </trkpt>
      <trkpt lat="45.63749" lon="6.51026">
        <ele>2110</ele>
        <time>2022-07-16T06:07:22Z</time>
      </trkpt>
      <trkpt lat="45.6375" lon="6.51024">
        <ele>2111</ele>
        <time>2022-07-16T06:07:24Z</time>
      </trkpt>
      <trkpt lat="45.63752" lon="6.51023">
        <ele>2111</ele>
        <time>2022-07-16T06:07:26Z</time>
      </trkpt>
      <trkpt lat="45.63754" lon="6.51022">
        <ele>2111</ele>
        <time>2022-07-16T06:07:29Z</time>
      </trkpt>
      <trkpt lat="45.63756" lon="6.51022">
        <ele>2112</ele>
        <time>2022-07-16T06:07:31Z</time>
      </trkpt>
      <trkpt lat="45.63759" lon="6.51023">
        <ele>2112</ele>
        <time>2022-07-16T06:07:34Z</time>
      </trkpt>
      <trkpt lat="45.63761" lon="6.51024">
        <ele>2113</ele>
        <time>2022-07-16T06:07:37Z</time>
      </trkpt>
      <trkpt lat="45.63763" lon="6.51026">
        <ele>2114</ele>
        <time>2022-07-16T06:07:40Z</time>
      </trkpt>
      <trkpt lat="45.63764" lon="6.51029">
        <ele>2115</ele>
        <time>2022-07-16T06:07:42Z</time>
      </trkpt>
      <trkpt lat="45.63766" lon="6.51031">
        <ele>2115</ele>
        <time>2022-07-16T06:07:44Z</time>
      </trkpt>
      <trkpt lat="45.63769" lon="6.51033">
        <ele>2115</ele>
        <time>2022-07-16T06:07:46Z</time>
      </trkpt>
      <trkpt lat="45.63771" lon="6.51033">
        <ele>2115</ele>
        <time>2022-07-16T06:07:48Z</time>
      </trkpt>
      <trkpt lat="45.63773" lon="6.51035">
        <ele>2115</ele>
        <time>2022-07-16T06:07:50Z</time>
      </trkpt>
      <trkpt lat="45.63776" lon="6.51037">
        <ele>2115</ele>
        <time>2022-07-16T06:07:52Z</time>
      </trkpt>
      <trkpt lat="45.63778" lon="6.51038">
        <ele>2116</ele>
        <time>2022-07-16T06:07:54Z</time>
      </trkpt>
      <trkpt lat="45.6378" lon="6.51038">
        <ele>2116</ele>
        <time>2022-07-16T06:07:56Z</time>
      </trkpt>
      <trkpt lat="45.63782" lon="6.5104">
        <ele>2118</ele>
        <time>2022-07-16T06:07:58Z</time>
      </trkpt>
      <trkpt lat="45.63784" lon="6.51041">
        <ele>2118</ele>
        <time>2022-07-16T06:08:00Z</time>
      </trkpt>
      <trkpt lat="45.63786" lon="6.51043">
        <ele>2118</ele>
        <time>2022-07-16T06:08:03Z</time>
      </trkpt>
      <trkpt lat="45.63788" lon="6.51043">
        <ele>2118</ele>
        <time>2022-07-16T06:08:05Z</time>
      </trkpt>
      <trkpt lat="45.6379" lon="6.51043">
        <ele>2118</ele>
        <time>2022-07-16T06:08:07Z</time>
      </trkpt>
      <trkpt lat="45.63792" lon="6.51042">
        <ele>2118</ele>
        <time>2022-07-16T06:08:09Z</time>
      </trkpt>
      <trkpt lat="45.63795" lon="6.51041">
        <ele>2118</ele>
        <time>2022-07-16T06:08:11Z</time>
      </trkpt>
      <trkpt lat="45.63797" lon="6.5104">
        <ele>2118</ele>
        <time>2022-07-16T06:08:13Z</time>
      </trkpt>
      <trkpt lat="45.638" lon="6.5104">
        <ele>2118</ele>
        <time>2022-07-16T06:08:15Z</time>
      </trkpt>
      <trkpt lat="45.63803" lon="6.51038">
        <ele>2118</ele>
        <time>2022-07-16T06:08:17Z</time>
      </trkpt>
      <trkpt lat="45.63806" lon="6.51036">
        <ele>2118</ele>
        <time>2022-07-16T06:08:19Z</time>
      </trkpt>
      <trkpt lat="45.63808" lon="6.51035">
        <ele>2116</ele>
        <time>2022-07-16T06:08:20Z</time>
      </trkpt>
      <trkpt lat="45.63809" lon="6.5103">
        <ele>2116</ele>
        <time>2022-07-16T06:08:22Z</time>
      </trkpt>
      <trkpt lat="45.6381" lon="6.51027">
        <ele>2116</ele>
        <time>2022-07-16T06:08:23Z</time>
      </trkpt>
      <trkpt lat="45.6381" lon="6.51024">
        <ele>2115</ele>
        <time>2022-07-16T06:08:24Z</time>
      </trkpt>
      <trkpt lat="45.6381" lon="6.51021">
        <ele>2115</ele>
        <time>2022-07-16T06:08:25Z</time>
      </trkpt>
      <trkpt lat="45.6381" lon="6.51018">
        <ele>2114</ele>
        <time>2022-07-16T06:08:26Z</time>
      </trkpt>
      <trkpt lat="45.6381" lon="6.51015">
        <ele>2114</ele>
        <time>2022-07-16T06:08:27Z</time>
      </trkpt>
      <trkpt lat="45.63809" lon="6.51012">
        <ele>2114</ele>
        <time>2022-07-16T06:08:28Z</time>
      </trkpt>
      <trkpt lat="45.63808" lon="6.51009">
        <ele>2113</ele>
        <time>2022-07-16T06:08:29Z</time>
      </trkpt>
      <trkpt lat="45.63807" lon="6.51006">
        <ele>2113</ele>
        <time>2022-07-16T06:08:30Z</time>
      </trkpt>
      <trkpt lat="45.63806" lon="6.51003">
        <ele>2114</ele>
        <time>2022-07-16T06:08:31Z</time>
      </trkpt>
      <trkpt lat="45.63805" lon="6.51001">
        <ele>2113</ele>
        <time>2022-07-16T06:08:32Z</time>
      </trkpt>
      <trkpt lat="45.63803" lon="6.50999">
        <ele>2112</ele>
        <time>2022-07-16T06:08:33Z</time>
      </trkpt>
      <trkpt lat="45.63802" lon="6.50996">
        <ele>2113</ele>
        <time>2022-07-16T06:08:34Z</time>
      </trkpt>
      <trkpt lat="45.63803" lon="6.50993">
        <ele>2113</ele>
        <time>2022-07-16T06:08:35Z</time>
      </trkpt>
      <trkpt lat="45.63804" lon="6.50989">
        <ele>2114</ele>
        <time>2022-07-16T06:08:37Z</time>
      </trkpt>
      <trkpt lat="45.63807" lon="6.50986">
        <ele>2114</ele>
        <time>2022-07-16T06:08:39Z</time>
      </trkpt>
      <trkpt lat="45.63809" lon="6.50984">
        <ele>2115</ele>
        <time>2022-07-16T06:08:41Z</time>
      </trkpt>
      <trkpt lat="45.63812" lon="6.50983">
        <ele>2115</ele>
        <time>2022-07-16T06:08:43Z</time>
      </trkpt>
      <trkpt lat="45.63815" lon="6.50983">
        <ele>2115</ele>
        <time>2022-07-16T06:08:45Z</time>
      </trkpt>
      <trkpt lat="45.63817" lon="6.50983">
        <ele>2116</ele>
        <time>2022-07-16T06:08:47Z</time>
      </trkpt>
      <trkpt lat="45.6382" lon="6.50983">
        <ele>2116</ele>
        <time>2022-07-16T06:08:49Z</time>
      </trkpt>
      <trkpt lat="45.63823" lon="6.50983">
        <ele>2118</ele>
        <time>2022-07-16T06:08:51Z</time>
      </trkpt>
      <trkpt lat="45.63824" lon="6.50982">
        <ele>2118</ele>
        <time>2022-07-16T06:08:53Z</time>
      </trkpt>
      <trkpt lat="45.63827" lon="6.50982">
        <ele>2119</ele>
        <time>2022-07-16T06:08:55Z</time>
      </trkpt>
      <trkpt lat="45.63829" lon="6.50981">
        <ele>2119</ele>
        <time>2022-07-16T06:08:57Z</time>
      </trkpt>
      <trkpt lat="45.63831" lon="6.50981">
        <ele>2119</ele>
        <time>2022-07-16T06:08:59Z</time>
      </trkpt>
      <trkpt lat="45.63834" lon="6.5098">
        <ele>2120</ele>
        <time>2022-07-16T06:09:01Z</time>
      </trkpt>
      <trkpt lat="45.63836" lon="6.50981">
        <ele>2120</ele>
        <time>2022-07-16T06:09:03Z</time>
      </trkpt>
      <trkpt lat="45.63838" lon="6.50981">
        <ele>2121</ele>
        <time>2022-07-16T06:09:05Z</time>
      </trkpt>
      <trkpt lat="45.6384" lon="6.50982">
        <ele>2121</ele>
        <time>2022-07-16T06:09:07Z</time>
      </trkpt>
      <trkpt lat="45.63843" lon="6.50984">
        <ele>2121</ele>
        <time>2022-07-16T06:09:09Z</time>
      </trkpt>
      <trkpt lat="45.63845" lon="6.50986">
        <ele>2122</ele>
        <time>2022-07-16T06:09:11Z</time>
      </trkpt>
      <trkpt lat="45.63846" lon="6.50988">
        <ele>2123</ele>
        <time>2022-07-16T06:09:13Z</time>
      </trkpt>
      <trkpt lat="45.63847" lon="6.50991">
        <ele>2123</ele>
        <time>2022-07-16T06:09:15Z</time>
      </trkpt>
      <trkpt lat="45.63848" lon="6.50994">
        <ele>2123</ele>
        <time>2022-07-16T06:09:17Z</time>
      </trkpt>
      <trkpt lat="45.6385" lon="6.50997">
        <ele>2123</ele>
        <time>2022-07-16T06:09:19Z</time>
      </trkpt>
      <trkpt lat="45.63852" lon="6.50999">
        <ele>2124</ele>
        <time>2022-07-16T06:09:21Z</time>
      </trkpt>
      <trkpt lat="45.63855" lon="6.51001">
        <ele>2124</ele>
        <time>2022-07-16T06:09:23Z</time>
      </trkpt>
      <trkpt lat="45.63857" lon="6.51003">
        <ele>2124</ele>
        <time>2022-07-16T06:09:25Z</time>
      </trkpt>
      <trkpt lat="45.63859" lon="6.51004">
        <ele>2124</ele>
        <time>2022-07-16T06:09:27Z</time>
      </trkpt>
      <trkpt lat="45.63861" lon="6.51007">
        <ele>2125</ele>
        <time>2022-07-16T06:09:29Z</time>
      </trkpt>
      <trkpt lat="45.63862" lon="6.51009">
        <ele>2126</ele>
        <time>2022-07-16T06:09:31Z</time>
      </trkpt>
      <trkpt lat="45.63864" lon="6.51012">
        <ele>2126</ele>
        <time>2022-07-16T06:09:33Z</time>
      </trkpt>
      <trkpt lat="45.63866" lon="6.51013">
        <ele>2126</ele>
        <time>2022-07-16T06:09:35Z</time>
      </trkpt>
      <trkpt lat="45.63868" lon="6.51015">
        <ele>2127</ele>
        <time>2022-07-16T06:09:37Z</time>
      </trkpt>
      <trkpt lat="45.63871" lon="6.51017">
        <ele>2127</ele>
        <time>2022-07-16T06:09:39Z</time>
      </trkpt>
      <trkpt lat="45.63873" lon="6.5102">
        <ele>2126</ele>
        <time>2022-07-16T06:09:41Z</time>
      </trkpt>
      <trkpt lat="45.63875" lon="6.51021">
        <ele>2127</ele>
        <time>2022-07-16T06:09:43Z</time>
      </trkpt>
      <trkpt lat="45.63877" lon="6.51025">
        <ele>2127</ele>
        <time>2022-07-16T06:09:45Z</time>
      </trkpt>
      <trkpt lat="45.63879" lon="6.51028">
        <ele>2127</ele>
        <time>2022-07-16T06:09:47Z</time>
      </trkpt>
      <trkpt lat="45.63881" lon="6.5103">
        <ele>2128</ele>
        <time>2022-07-16T06:09:49Z</time>
      </trkpt>
      <trkpt lat="45.63883" lon="6.51032">
        <ele>2128</ele>
        <time>2022-07-16T06:09:51Z</time>
      </trkpt>
      <trkpt lat="45.63885" lon="6.51034">
        <ele>2128</ele>
        <time>2022-07-16T06:09:53Z</time>
      </trkpt>
      <trkpt lat="45.63887" lon="6.51037">
        <ele>2128</ele>
        <time>2022-07-16T06:09:55Z</time>
      </trkpt>
      <trkpt lat="45.63889" lon="6.51039">
        <ele>2128</ele>
        <time>2022-07-16T06:09:57Z</time>
      </trkpt>
      <trkpt lat="45.63891" lon="6.51041">
        <ele>2129</ele>
        <time>2022-07-16T06:09:59Z</time>
      </trkpt>
      <trkpt lat="45.63893" lon="6.51044">
        <ele>2129</ele>
        <time>2022-07-16T06:10:01Z</time>
      </trkpt>
      <trkpt lat="45.63894" lon="6.51047">
        <ele>2129</ele>
        <time>2022-07-16T06:10:03Z</time>
      </trkpt>
      <trkpt lat="45.63896" lon="6.5105">
        <ele>2129</ele>
        <time>2022-07-16T06:10:05Z</time>
      </trkpt>
      <trkpt lat="45.63898" lon="6.51053">
        <ele>2129</ele>
        <time>2022-07-16T06:10:07Z</time>
      </trkpt>
      <trkpt lat="45.63899" lon="6.51056">
        <ele>2129</ele>
        <time>2022-07-16T06:10:09Z</time>
      </trkpt>
      <trkpt lat="45.639" lon="6.5106">
        <ele>2129</ele>
        <time>2022-07-16T06:10:11Z</time>
      </trkpt>
      <trkpt lat="45.63901" lon="6.51063">
        <ele>2130</ele>
        <time>2022-07-16T06:10:13Z</time>
      </trkpt>
      <trkpt lat="45.63903" lon="6.51066">
        <ele>2131</ele>
        <time>2022-07-16T06:10:15Z</time>
      </trkpt>
      <trkpt lat="45.63905" lon="6.51069">
        <ele>2131</ele>
        <time>2022-07-16T06:10:17Z</time>
      </trkpt>
      <trkpt lat="45.63906" lon="6.51071">
        <ele>2131</ele>
        <time>2022-07-16T06:10:19Z</time>
      </trkpt>
      <trkpt lat="45.63908" lon="6.51074">
        <ele>2131</ele>
        <time>2022-07-16T06:10:21Z</time>
      </trkpt>
      <trkpt lat="45.6391" lon="6.51077">
        <ele>2132</ele>
        <time>2022-07-16T06:10:23Z</time>
      </trkpt>
      <trkpt lat="45.63911" lon="6.5108">
        <ele>2132</ele>
        <time>2022-07-16T06:10:25Z</time>
      </trkpt>
      <trkpt lat="45.63913" lon="6.51082">
        <ele>2132</ele>
        <time>2022-07-16T06:10:27Z</time>
      </trkpt>
      <trkpt lat="45.63914" lon="6.51085">
        <ele>2132</ele>
        <time>2022-07-16T06:10:29Z</time>
      </trkpt>
      <trkpt lat="45.63916" lon="6.51088">
        <ele>2133</ele>
        <time>2022-07-16T06:10:31Z</time>
      </trkpt>
      <trkpt lat="45.63917" lon="6.5109">
        <ele>2133</ele>
        <time>2022-07-16T06:10:33Z</time>
      </trkpt>
      <trkpt lat="45.63919" lon="6.51092">
        <ele>2133</ele>
        <time>2022-07-16T06:10:35Z</time>
      </trkpt>
      <trkpt lat="45.63922" lon="6.51094">
        <ele>2133</ele>
        <time>2022-07-16T06:10:37Z</time>
      </trkpt>
      <trkpt lat="45.63923" lon="6.51097">
        <ele>2133</ele>
        <time>2022-07-16T06:10:39Z</time>
      </trkpt>
      <trkpt lat="45.63925" lon="6.51099">
        <ele>2135</ele>
        <time>2022-07-16T06:10:41Z</time>
      </trkpt>
      <trkpt lat="45.63925" lon="6.51103">
        <ele>2135</ele>
        <time>2022-07-16T06:10:44Z</time>
      </trkpt>
      <trkpt lat="45.63925" lon="6.51106">
        <ele>2135</ele>
        <time>2022-07-16T06:10:45Z</time>
      </trkpt>
      <trkpt lat="45.63926" lon="6.5111">
        <ele>2135</ele>
        <time>2022-07-16T06:10:47Z</time>
      </trkpt>
      <trkpt lat="45.63926" lon="6.51114">
        <ele>2136</ele>
        <time>2022-07-16T06:10:49Z</time>
      </trkpt>
      <trkpt lat="45.63927" lon="6.51117">
        <ele>2136</ele>
        <time>2022-07-16T06:10:50Z</time>
      </trkpt>
      <trkpt lat="45.63927" lon="6.51119">
        <ele>2135</ele>
        <time>2022-07-16T06:10:51Z</time>
      </trkpt>
      <trkpt lat="45.63928" lon="6.51122">
        <ele>2135</ele>
        <time>2022-07-16T06:10:52Z</time>
      </trkpt>
      <trkpt lat="45.63929" lon="6.51125">
        <ele>2134</ele>
        <time>2022-07-16T06:10:53Z</time>
      </trkpt>
      <trkpt lat="45.6393" lon="6.51128">
        <ele>2134</ele>
        <time>2022-07-16T06:10:54Z</time>
      </trkpt>
      <trkpt lat="45.6393" lon="6.51132">
        <ele>2134</ele>
        <time>2022-07-16T06:10:56Z</time>
      </trkpt>
      <trkpt lat="45.63931" lon="6.51136">
        <ele>2135</ele>
        <time>2022-07-16T06:10:58Z</time>
      </trkpt>
      <trkpt lat="45.63932" lon="6.51139">
        <ele>2135</ele>
        <time>2022-07-16T06:11:00Z</time>
      </trkpt>
      <trkpt lat="45.63933" lon="6.51142">
        <ele>2136</ele>
        <time>2022-07-16T06:11:02Z</time>
      </trkpt>
      <trkpt lat="45.63934" lon="6.51146">
        <ele>2136</ele>
        <time>2022-07-16T06:11:04Z</time>
      </trkpt>
      <trkpt lat="45.63935" lon="6.51148">
        <ele>2137</ele>
        <time>2022-07-16T06:11:06Z</time>
      </trkpt>
      <trkpt lat="45.63936" lon="6.51151">
        <ele>2137</ele>
        <time>2022-07-16T06:11:08Z</time>
      </trkpt>
      <trkpt lat="45.63937" lon="6.51154">
        <ele>2138</ele>
        <time>2022-07-16T06:11:10Z</time>
      </trkpt>
      <trkpt lat="45.63938" lon="6.51158">
        <ele>2139</ele>
        <time>2022-07-16T06:11:13Z</time>
      </trkpt>
      <trkpt lat="45.6394" lon="6.5116">
        <ele>2140</ele>
        <time>2022-07-16T06:11:15Z</time>
      </trkpt>
      <trkpt lat="45.63942" lon="6.51162">
        <ele>2140</ele>
        <time>2022-07-16T06:11:17Z</time>
      </trkpt>
      <trkpt lat="45.63944" lon="6.51162">
        <ele>2141</ele>
        <time>2022-07-16T06:11:19Z</time>
      </trkpt>
      <trkpt lat="45.63947" lon="6.51164">
        <ele>2141</ele>
        <time>2022-07-16T06:11:21Z</time>
      </trkpt>
      <trkpt lat="45.63949" lon="6.51166">
        <ele>2140</ele>
        <time>2022-07-16T06:11:23Z</time>
      </trkpt>
      <trkpt lat="45.63951" lon="6.51169">
        <ele>2140</ele>
        <time>2022-07-16T06:11:25Z</time>
      </trkpt>
      <trkpt lat="45.63952" lon="6.51172">
        <ele>2141</ele>
        <time>2022-07-16T06:11:27Z</time>
      </trkpt>
      <trkpt lat="45.63953" lon="6.51175">
        <ele>2140</ele>
        <time>2022-07-16T06:11:29Z</time>
      </trkpt>
      <trkpt lat="45.63955" lon="6.51178">
        <ele>2140</ele>
        <time>2022-07-16T06:11:31Z</time>
      </trkpt>
      <trkpt lat="45.63957" lon="6.51181">
        <ele>2140</ele>
        <time>2022-07-16T06:11:33Z</time>
      </trkpt>
      <trkpt lat="45.63959" lon="6.51184">
        <ele>2139</ele>
        <time>2022-07-16T06:11:35Z</time>
      </trkpt>
      <trkpt lat="45.63961" lon="6.51188">
        <ele>2139</ele>
        <time>2022-07-16T06:11:37Z</time>
      </trkpt>
      <trkpt lat="45.63962" lon="6.51192">
        <ele>2139</ele>
        <time>2022-07-16T06:11:39Z</time>
      </trkpt>
      <trkpt lat="45.63963" lon="6.51197">
        <ele>2139</ele>
        <time>2022-07-16T06:11:41Z</time>
      </trkpt>
      <trkpt lat="45.63963" lon="6.512">
        <ele>2139</ele>
        <time>2022-07-16T06:11:43Z</time>
      </trkpt>
      <trkpt lat="45.63962" lon="6.51203">
        <ele>2140</ele>
        <time>2022-07-16T06:11:45Z</time>
      </trkpt>
      <trkpt lat="45.63962" lon="6.51206">
        <ele>2140</ele>
        <time>2022-07-16T06:11:47Z</time>
      </trkpt>
      <trkpt lat="45.63962" lon="6.51209">
        <ele>2140</ele>
        <time>2022-07-16T06:11:49Z</time>
      </trkpt>
      <trkpt lat="45.63963" lon="6.51213">
        <ele>2141</ele>
        <time>2022-07-16T06:11:51Z</time>
      </trkpt>
      <trkpt lat="45.63965" lon="6.51215">
        <ele>2141</ele>
        <time>2022-07-16T06:11:53Z</time>
      </trkpt>
      <trkpt lat="45.63967" lon="6.5122">
        <ele>2141</ele>
        <time>2022-07-16T06:11:55Z</time>
      </trkpt>
      <trkpt lat="45.63968" lon="6.51224">
        <ele>2141</ele>
        <time>2022-07-16T06:11:57Z</time>
      </trkpt>
      <trkpt lat="45.63969" lon="6.51227">
        <ele>2141</ele>
        <time>2022-07-16T06:11:59Z</time>
      </trkpt>
      <trkpt lat="45.63968" lon="6.5123">
        <ele>2142</ele>
        <time>2022-07-16T06:12:01Z</time>
      </trkpt>
      <trkpt lat="45.63969" lon="6.51234">
        <ele>2141</ele>
        <time>2022-07-16T06:12:03Z</time>
      </trkpt>
      <trkpt lat="45.63969" lon="6.51238">
        <ele>2141</ele>
        <time>2022-07-16T06:12:05Z</time>
      </trkpt>
      <trkpt lat="45.63968" lon="6.51241">
        <ele>2142</ele>
        <time>2022-07-16T06:12:07Z</time>
      </trkpt>
      <trkpt lat="45.63968" lon="6.51245">
        <ele>2142</ele>
        <time>2022-07-16T06:12:09Z</time>
      </trkpt>
      <trkpt lat="45.63968" lon="6.51249">
        <ele>2142</ele>
        <time>2022-07-16T06:12:11Z</time>
      </trkpt>
      <trkpt lat="45.63967" lon="6.51253">
        <ele>2142</ele>
        <time>2022-07-16T06:12:13Z</time>
      </trkpt>
      <trkpt lat="45.63966" lon="6.51256">
        <ele>2144</ele>
        <time>2022-07-16T06:12:15Z</time>
      </trkpt>
      <trkpt lat="45.63966" lon="6.51261">
        <ele>2144</ele>
        <time>2022-07-16T06:12:17Z</time>
      </trkpt>
      <trkpt lat="45.63968" lon="6.51265">
        <ele>2144</ele>
        <time>2022-07-16T06:12:19Z</time>
      </trkpt>
      <trkpt lat="45.63969" lon="6.51269">
        <ele>2144</ele>
        <time>2022-07-16T06:12:21Z</time>
      </trkpt>
      <trkpt lat="45.63969" lon="6.51273">
        <ele>2142</ele>
        <time>2022-07-16T06:12:23Z</time>
      </trkpt>
      <trkpt lat="45.63969" lon="6.51276">
        <ele>2142</ele>
        <time>2022-07-16T06:12:24Z</time>
      </trkpt>
      <trkpt lat="45.6397" lon="6.51281">
        <ele>2141</ele>
        <time>2022-07-16T06:12:26Z</time>
      </trkpt>
      <trkpt lat="45.6397" lon="6.51283">
        <ele>2141</ele>
        <time>2022-07-16T06:12:27Z</time>
      </trkpt>
      <trkpt lat="45.63969" lon="6.51286">
        <ele>2140</ele>
        <time>2022-07-16T06:12:28Z</time>
      </trkpt>
      <trkpt lat="45.63969" lon="6.51288">
        <ele>2140</ele>
        <time>2022-07-16T06:12:29Z</time>
      </trkpt>
      <trkpt lat="45.63968" lon="6.51291">
        <ele>2140</ele>
        <time>2022-07-16T06:12:30Z</time>
      </trkpt>
      <trkpt lat="45.63967" lon="6.51293">
        <ele>2140</ele>
        <time>2022-07-16T06:12:31Z</time>
      </trkpt>
      <trkpt lat="45.63967" lon="6.51298">
        <ele>2140</ele>
        <time>2022-07-16T06:12:33Z</time>
      </trkpt>
      <trkpt lat="45.63966" lon="6.51302">
        <ele>2140</ele>
        <time>2022-07-16T06:12:35Z</time>
      </trkpt>
      <trkpt lat="45.63964" lon="6.51305">
        <ele>2140</ele>
        <time>2022-07-16T06:12:37Z</time>
      </trkpt>
      <trkpt lat="45.63963" lon="6.5131">
        <ele>2141</ele>
        <time>2022-07-16T06:12:39Z</time>
      </trkpt>
      <trkpt lat="45.63964" lon="6.51315">
        <ele>2141</ele>
        <time>2022-07-16T06:12:41Z</time>
      </trkpt>
      <trkpt lat="45.63965" lon="6.51317">
        <ele>2141</ele>
        <time>2022-07-16T06:12:42Z</time>
      </trkpt>
      <trkpt lat="45.63967" lon="6.51319">
        <ele>2141</ele>
        <time>2022-07-16T06:12:43Z</time>
      </trkpt>
      <trkpt lat="45.63968" lon="6.5132">
        <ele>2141</ele>
        <time>2022-07-16T06:12:44Z</time>
      </trkpt>
      <trkpt lat="45.6397" lon="6.51322">
        <ele>2141</ele>
        <time>2022-07-16T06:12:45Z</time>
      </trkpt>
      <trkpt lat="45.63971" lon="6.51325">
        <ele>2141</ele>
        <time>2022-07-16T06:12:46Z</time>
      </trkpt>
      <trkpt lat="45.63972" lon="6.51328">
        <ele>2141</ele>
        <time>2022-07-16T06:12:47Z</time>
      </trkpt>
      <trkpt lat="45.63973" lon="6.5133">
        <ele>2141</ele>
        <time>2022-07-16T06:12:48Z</time>
      </trkpt>
      <trkpt lat="45.63974" lon="6.51333">
        <ele>2141</ele>
        <time>2022-07-16T06:12:49Z</time>
      </trkpt>
      <trkpt lat="45.63975" lon="6.51335">
        <ele>2141</ele>
        <time>2022-07-16T06:12:50Z</time>
      </trkpt>
      <trkpt lat="45.63977" lon="6.5134">
        <ele>2141</ele>
        <time>2022-07-16T06:12:52Z</time>
      </trkpt>
      <trkpt lat="45.63978" lon="6.51342">
        <ele>2141</ele>
        <time>2022-07-16T06:12:53Z</time>
      </trkpt>
      <trkpt lat="45.63978" lon="6.51347">
        <ele>2141</ele>
        <time>2022-07-16T06:12:55Z</time>
      </trkpt>
      <trkpt lat="45.63978" lon="6.51351">
        <ele>2141</ele>
        <time>2022-07-16T06:12:57Z</time>
      </trkpt>
      <trkpt lat="45.63978" lon="6.51355">
        <ele>2141</ele>
        <time>2022-07-16T06:12:59Z</time>
      </trkpt>
      <trkpt lat="45.63978" lon="6.51359">
        <ele>2141</ele>
        <time>2022-07-16T06:13:01Z</time>
      </trkpt>
      <trkpt lat="45.63978" lon="6.51363">
        <ele>2142</ele>
        <time>2022-07-16T06:13:03Z</time>
      </trkpt>
      <trkpt lat="45.63979" lon="6.51367">
        <ele>2142</ele>
        <time>2022-07-16T06:13:05Z</time>
      </trkpt>
      <trkpt lat="45.63979" lon="6.51372">
        <ele>2142</ele>
        <time>2022-07-16T06:13:07Z</time>
      </trkpt>
      <trkpt lat="45.63978" lon="6.51374">
        <ele>2142</ele>
        <time>2022-07-16T06:13:08Z</time>
      </trkpt>
      <trkpt lat="45.63977" lon="6.51377">
        <ele>2142</ele>
        <time>2022-07-16T06:13:09Z</time>
      </trkpt>
      <trkpt lat="45.63974" lon="6.51379">
        <ele>2142</ele>
        <time>2022-07-16T06:13:11Z</time>
      </trkpt>
      <trkpt lat="45.63972" lon="6.51381">
        <ele>2142</ele>
        <time>2022-07-16T06:13:13Z</time>
      </trkpt>
      <trkpt lat="45.63971" lon="6.51383">
        <ele>2142</ele>
        <time>2022-07-16T06:13:15Z</time>
      </trkpt>
      <trkpt lat="45.63971" lon="6.51388">
        <ele>2142</ele>
        <time>2022-07-16T06:13:17Z</time>
      </trkpt>
      <trkpt lat="45.63971" lon="6.51391">
        <ele>2142</ele>
        <time>2022-07-16T06:13:18Z</time>
      </trkpt>
      <trkpt lat="45.63971" lon="6.51393">
        <ele>2142</ele>
        <time>2022-07-16T06:13:19Z</time>
      </trkpt>
      <trkpt lat="45.63972" lon="6.51396">
        <ele>2142</ele>
        <time>2022-07-16T06:13:20Z</time>
      </trkpt>
      <trkpt lat="45.63973" lon="6.514">
        <ele>2144</ele>
        <time>2022-07-16T06:13:22Z</time>
      </trkpt>
      <trkpt lat="45.63974" lon="6.51403">
        <ele>2144</ele>
        <time>2022-07-16T06:13:23Z</time>
      </trkpt>
      <trkpt lat="45.63975" lon="6.51407">
        <ele>2144</ele>
        <time>2022-07-16T06:13:25Z</time>
      </trkpt>
      <trkpt lat="45.63976" lon="6.51412">
        <ele>2144</ele>
        <time>2022-07-16T06:13:27Z</time>
      </trkpt>
      <trkpt lat="45.63977" lon="6.51415">
        <ele>2144</ele>
        <time>2022-07-16T06:13:28Z</time>
      </trkpt>
      <trkpt lat="45.63977" lon="6.51418">
        <ele>2144</ele>
        <time>2022-07-16T06:13:29Z</time>
      </trkpt>
      <trkpt lat="45.63978" lon="6.5142">
        <ele>2144</ele>
        <time>2022-07-16T06:13:30Z</time>
      </trkpt>
      <trkpt lat="45.63978" lon="6.51423">
        <ele>2144</ele>
        <time>2022-07-16T06:13:31Z</time>
      </trkpt>
      <trkpt lat="45.63979" lon="6.51426">
        <ele>2144</ele>
        <time>2022-07-16T06:13:32Z</time>
      </trkpt>
      <trkpt lat="45.63979" lon="6.51429">
        <ele>2144</ele>
        <time>2022-07-16T06:13:33Z</time>
      </trkpt>
      <trkpt lat="45.63979" lon="6.51433">
        <ele>2144</ele>
        <time>2022-07-16T06:13:34Z</time>
      </trkpt>
      <trkpt lat="45.6398" lon="6.51435">
        <ele>2144</ele>
        <time>2022-07-16T06:13:35Z</time>
      </trkpt>
      <trkpt lat="45.6398" lon="6.51438">
        <ele>2144</ele>
        <time>2022-07-16T06:13:36Z</time>
      </trkpt>
      <trkpt lat="45.63981" lon="6.51441">
        <ele>2144</ele>
        <time>2022-07-16T06:13:37Z</time>
      </trkpt>
      <trkpt lat="45.63982" lon="6.51443">
        <ele>2142</ele>
        <time>2022-07-16T06:13:38Z</time>
      </trkpt>
      <trkpt lat="45.63983" lon="6.51446">
        <ele>2142</ele>
        <time>2022-07-16T06:13:39Z</time>
      </trkpt>
      <trkpt lat="45.63984" lon="6.51449">
        <ele>2142</ele>
        <time>2022-07-16T06:13:40Z</time>
      </trkpt>
      <trkpt lat="45.63985" lon="6.51452">
        <ele>2142</ele>
        <time>2022-07-16T06:13:41Z</time>
      </trkpt>
      <trkpt lat="45.63986" lon="6.51455">
        <ele>2142</ele>
        <time>2022-07-16T06:13:42Z</time>
      </trkpt>
      <trkpt lat="45.63987" lon="6.51458">
        <ele>2142</ele>
        <time>2022-07-16T06:13:43Z</time>
      </trkpt>
      <trkpt lat="45.63987" lon="6.51461">
        <ele>2142</ele>
        <time>2022-07-16T06:13:44Z</time>
      </trkpt>
      <trkpt lat="45.63988" lon="6.51463">
        <ele>2142</ele>
        <time>2022-07-16T06:13:45Z</time>
      </trkpt>
      <trkpt lat="45.63989" lon="6.51466">
        <ele>2142</ele>
        <time>2022-07-16T06:13:46Z</time>
      </trkpt>
      <trkpt lat="45.6399" lon="6.51469">
        <ele>2142</ele>
        <time>2022-07-16T06:13:47Z</time>
      </trkpt>
      <trkpt lat="45.63991" lon="6.51472">
        <ele>2142</ele>
        <time>2022-07-16T06:13:48Z</time>
      </trkpt>
      <trkpt lat="45.63992" lon="6.51476">
        <ele>2142</ele>
        <time>2022-07-16T06:13:50Z</time>
      </trkpt>
      <trkpt lat="45.63992" lon="6.51479">
        <ele>2142</ele>
        <time>2022-07-16T06:13:52Z</time>
      </trkpt>
      <trkpt lat="45.63992" lon="6.51482">
        <ele>2142</ele>
        <time>2022-07-16T06:13:54Z</time>
      </trkpt>
      <trkpt lat="45.63992" lon="6.51485">
        <ele>2142</ele>
        <time>2022-07-16T06:13:56Z</time>
      </trkpt>
      <trkpt lat="45.63992" lon="6.51488">
        <ele>2144</ele>
        <time>2022-07-16T06:13:58Z</time>
      </trkpt>
      <trkpt lat="45.63993" lon="6.51492">
        <ele>2144</ele>
        <time>2022-07-16T06:14:00Z</time>
      </trkpt>
      <trkpt lat="45.63993" lon="6.51495">
        <ele>2144</ele>
        <time>2022-07-16T06:14:02Z</time>
      </trkpt>
      <trkpt lat="45.63993" lon="6.515">
        <ele>2145</ele>
        <time>2022-07-16T06:14:06Z</time>
      </trkpt>
      <trkpt lat="45.63993" lon="6.51503">
        <ele>2146</ele>
        <time>2022-07-16T06:14:09Z</time>
      </trkpt>
      <trkpt lat="45.63994" lon="6.51507">
        <ele>2147</ele>
        <time>2022-07-16T06:14:12Z</time>
      </trkpt>
      <trkpt lat="45.63994" lon="6.51511">
        <ele>2147</ele>
        <time>2022-07-16T06:14:15Z</time>
      </trkpt>
      <trkpt lat="45.63994" lon="6.51514">
        <ele>2148</ele>
        <time>2022-07-16T06:14:17Z</time>
      </trkpt>
      <trkpt lat="45.63994" lon="6.51518">
        <ele>2148</ele>
        <time>2022-07-16T06:14:19Z</time>
      </trkpt>
      <trkpt lat="45.63994" lon="6.5152">
        <ele>2149</ele>
        <time>2022-07-16T06:14:21Z</time>
      </trkpt>
      <trkpt lat="45.63994" lon="6.51524">
        <ele>2149</ele>
        <time>2022-07-16T06:14:23Z</time>
      </trkpt>
      <trkpt lat="45.63994" lon="6.51527">
        <ele>2150</ele>
        <time>2022-07-16T06:14:25Z</time>
      </trkpt>
      <trkpt lat="45.63994" lon="6.51531">
        <ele>2150</ele>
        <time>2022-07-16T06:14:27Z</time>
      </trkpt>
      <trkpt lat="45.63994" lon="6.51534">
        <ele>2150</ele>
        <time>2022-07-16T06:14:29Z</time>
      </trkpt>
      <trkpt lat="45.63996" lon="6.51538">
        <ele>2150</ele>
        <time>2022-07-16T06:14:31Z</time>
      </trkpt>
      <trkpt lat="45.63997" lon="6.51541">
        <ele>2150</ele>
        <time>2022-07-16T06:14:33Z</time>
      </trkpt>
      <trkpt lat="45.63999" lon="6.51542">
        <ele>2150</ele>
        <time>2022-07-16T06:14:35Z</time>
      </trkpt>
      <trkpt lat="45.64002" lon="6.51544">
        <ele>2150</ele>
        <time>2022-07-16T06:14:37Z</time>
      </trkpt>
      <trkpt lat="45.64005" lon="6.51546">
        <ele>2150</ele>
        <time>2022-07-16T06:14:39Z</time>
      </trkpt>
      <trkpt lat="45.64007" lon="6.5155">
        <ele>2150</ele>
        <time>2022-07-16T06:14:41Z</time>
      </trkpt>
      <trkpt lat="45.64009" lon="6.51553">
        <ele>2150</ele>
        <time>2022-07-16T06:14:43Z</time>
      </trkpt>
      <trkpt lat="45.64012" lon="6.51555">
        <ele>2149</ele>
        <time>2022-07-16T06:14:45Z</time>
      </trkpt>
      <trkpt lat="45.64014" lon="6.51558">
        <ele>2148</ele>
        <time>2022-07-16T06:14:47Z</time>
      </trkpt>
      <trkpt lat="45.64017" lon="6.5156">
        <ele>2147</ele>
        <time>2022-07-16T06:14:49Z</time>
      </trkpt>
      <trkpt lat="45.64019" lon="6.51561">
        <ele>2146</ele>
        <time>2022-07-16T06:14:50Z</time>
      </trkpt>
      <trkpt lat="45.6402" lon="6.51563">
        <ele>2146</ele>
        <time>2022-07-16T06:14:51Z</time>
      </trkpt>
      <trkpt lat="45.64022" lon="6.51566">
        <ele>2145</ele>
        <time>2022-07-16T06:14:53Z</time>
      </trkpt>
      <trkpt lat="45.64026" lon="6.51568">
        <ele>2144</ele>
        <time>2022-07-16T06:14:55Z</time>
      </trkpt>
      <trkpt lat="45.64027" lon="6.51569">
        <ele>2144</ele>
        <time>2022-07-16T06:14:56Z</time>
      </trkpt>
      <trkpt lat="45.64031" lon="6.5157">
        <ele>2142</ele>
        <time>2022-07-16T06:14:58Z</time>
      </trkpt>
      <trkpt lat="45.64033" lon="6.5157">
        <ele>2142</ele>
        <time>2022-07-16T06:15:00Z</time>
      </trkpt>
      <trkpt lat="45.64036" lon="6.51571">
        <ele>2139</ele>
        <time>2022-07-16T06:15:02Z</time>
      </trkpt>
      <trkpt lat="45.64039" lon="6.5157">
        <ele>2139</ele>
        <time>2022-07-16T06:15:04Z</time>
      </trkpt>
      <trkpt lat="45.64041" lon="6.51571">
        <ele>2138</ele>
        <time>2022-07-16T06:15:06Z</time>
      </trkpt>
      <trkpt lat="45.64044" lon="6.51574">
        <ele>2138</ele>
        <time>2022-07-16T06:15:08Z</time>
      </trkpt>
      <trkpt lat="45.64045" lon="6.51576">
        <ele>2137</ele>
        <time>2022-07-16T06:15:09Z</time>
      </trkpt>
      <trkpt lat="45.64048" lon="6.5158">
        <ele>2137</ele>
        <time>2022-07-16T06:15:11Z</time>
      </trkpt>
      <trkpt lat="45.64049" lon="6.51582">
        <ele>2137</ele>
        <time>2022-07-16T06:15:12Z</time>
      </trkpt>
      <trkpt lat="45.64051" lon="6.51584">
        <ele>2137</ele>
        <time>2022-07-16T06:15:13Z</time>
      </trkpt>
      <trkpt lat="45.64052" lon="6.51586">
        <ele>2137</ele>
        <time>2022-07-16T06:15:14Z</time>
      </trkpt>
      <trkpt lat="45.64054" lon="6.51588">
        <ele>2136</ele>
        <time>2022-07-16T06:15:15Z</time>
      </trkpt>
      <trkpt lat="45.64055" lon="6.5159">
        <ele>2136</ele>
        <time>2022-07-16T06:15:16Z</time>
      </trkpt>
      <trkpt lat="45.64057" lon="6.5159">
        <ele>2136</ele>
        <time>2022-07-16T06:15:17Z</time>
      </trkpt>
      <trkpt lat="45.64059" lon="6.51591">
        <ele>2136</ele>
        <time>2022-07-16T06:15:18Z</time>
      </trkpt>
      <trkpt lat="45.64061" lon="6.51591">
        <ele>2135</ele>
        <time>2022-07-16T06:15:19Z</time>
      </trkpt>
      <trkpt lat="45.64064" lon="6.51591">
        <ele>2135</ele>
        <time>2022-07-16T06:15:20Z</time>
      </trkpt>
      <trkpt lat="45.64066" lon="6.5159">
        <ele>2134</ele>
        <time>2022-07-16T06:15:21Z</time>
      </trkpt>
      <trkpt lat="45.64068" lon="6.5159">
        <ele>2134</ele>
        <time>2022-07-16T06:15:22Z</time>
      </trkpt>
      <trkpt lat="45.6407" lon="6.51589">
        <ele>2134</ele>
        <time>2022-07-16T06:15:23Z</time>
      </trkpt>
      <trkpt lat="45.64072" lon="6.51589">
        <ele>2133</ele>
        <time>2022-07-16T06:15:24Z</time>
      </trkpt>
      <trkpt lat="45.64074" lon="6.51588">
        <ele>2133</ele>
        <time>2022-07-16T06:15:25Z</time>
      </trkpt>
      <trkpt lat="45.64076" lon="6.51588">
        <ele>2133</ele>
        <time>2022-07-16T06:15:26Z</time>
      </trkpt>
      <trkpt lat="45.64078" lon="6.51588">
        <ele>2132</ele>
        <time>2022-07-16T06:15:27Z</time>
      </trkpt>
      <trkpt lat="45.64081" lon="6.51588">
        <ele>2132</ele>
        <time>2022-07-16T06:15:29Z</time>
      </trkpt>
      <trkpt lat="45.64084" lon="6.51587">
        <ele>2132</ele>
        <time>2022-07-16T06:15:31Z</time>
      </trkpt>
      <trkpt lat="45.64087" lon="6.51587">
        <ele>2131</ele>
        <time>2022-07-16T06:15:32Z</time>
      </trkpt>
      <trkpt lat="45.64089" lon="6.51588">
        <ele>2130</ele>
        <time>2022-07-16T06:15:33Z</time>
      </trkpt>
      <trkpt lat="45.64092" lon="6.51589">
        <ele>2129</ele>
        <time>2022-07-16T06:15:34Z</time>
      </trkpt>
      <trkpt lat="45.64094" lon="6.51591">
        <ele>2129</ele>
        <time>2022-07-16T06:15:35Z</time>
      </trkpt>
      <trkpt lat="45.64096" lon="6.51595">
        <ele>2129</ele>
        <time>2022-07-16T06:15:37Z</time>
      </trkpt>
      <trkpt lat="45.64097" lon="6.51598">
        <ele>2129</ele>
        <time>2022-07-16T06:15:38Z</time>
      </trkpt>
      <trkpt lat="45.64098" lon="6.51602">
        <ele>2130</ele>
        <time>2022-07-16T06:15:40Z</time>
      </trkpt>
      <trkpt lat="45.641" lon="6.51603">
        <ele>2130</ele>
        <time>2022-07-16T06:15:41Z</time>
      </trkpt>
      <trkpt lat="45.64101" lon="6.51604">
        <ele>2130</ele>
        <time>2022-07-16T06:15:42Z</time>
      </trkpt>
      <trkpt lat="45.64103" lon="6.51605">
        <ele>2130</ele>
        <time>2022-07-16T06:15:43Z</time>
      </trkpt>
      <trkpt lat="45.64105" lon="6.51607">
        <ele>2130</ele>
        <time>2022-07-16T06:15:44Z</time>
      </trkpt>
      <trkpt lat="45.64106" lon="6.51609">
        <ele>2130</ele>
        <time>2022-07-16T06:15:45Z</time>
      </trkpt>
      <trkpt lat="45.64108" lon="6.51611">
        <ele>2130</ele>
        <time>2022-07-16T06:15:46Z</time>
      </trkpt>
      <trkpt lat="45.6411" lon="6.51615">
        <ele>2130</ele>
        <time>2022-07-16T06:15:47Z</time>
      </trkpt>
      <trkpt lat="45.64111" lon="6.51616">
        <ele>2130</ele>
        <time>2022-07-16T06:15:48Z</time>
      </trkpt>
      <trkpt lat="45.64112" lon="6.51618">
        <ele>2130</ele>
        <time>2022-07-16T06:15:49Z</time>
      </trkpt>
      <trkpt lat="45.64114" lon="6.5162">
        <ele>2129</ele>
        <time>2022-07-16T06:15:50Z</time>
      </trkpt>
      <trkpt lat="45.64116" lon="6.51621">
        <ele>2129</ele>
        <time>2022-07-16T06:15:51Z</time>
      </trkpt>
      <trkpt lat="45.64118" lon="6.51623">
        <ele>2129</ele>
        <time>2022-07-16T06:15:52Z</time>
      </trkpt>
      <trkpt lat="45.6412" lon="6.51624">
        <ele>2129</ele>
        <time>2022-07-16T06:15:53Z</time>
      </trkpt>
      <trkpt lat="45.64121" lon="6.51626">
        <ele>2129</ele>
        <time>2022-07-16T06:15:54Z</time>
      </trkpt>
      <trkpt lat="45.64123" lon="6.51628">
        <ele>2129</ele>
        <time>2022-07-16T06:15:55Z</time>
      </trkpt>
      <trkpt lat="45.64124" lon="6.5163">
        <ele>2129</ele>
        <time>2022-07-16T06:15:56Z</time>
      </trkpt>
      <trkpt lat="45.64126" lon="6.51631">
        <ele>2129</ele>
        <time>2022-07-16T06:15:57Z</time>
      </trkpt>
      <trkpt lat="45.64127" lon="6.51633">
        <ele>2129</ele>
        <time>2022-07-16T06:15:58Z</time>
      </trkpt>
      <trkpt lat="45.64129" lon="6.51635">
        <ele>2129</ele>
        <time>2022-07-16T06:15:59Z</time>
      </trkpt>
      <trkpt lat="45.64131" lon="6.51637">
        <ele>2129</ele>
        <time>2022-07-16T06:16:00Z</time>
      </trkpt>
      <trkpt lat="45.64132" lon="6.51638">
        <ele>2129</ele>
        <time>2022-07-16T06:16:01Z</time>
      </trkpt>
      <trkpt lat="45.64135" lon="6.5164">
        <ele>2129</ele>
        <time>2022-07-16T06:16:03Z</time>
      </trkpt>
      <trkpt lat="45.64137" lon="6.5164">
        <ele>2129</ele>
        <time>2022-07-16T06:16:04Z</time>
      </trkpt>
      <trkpt lat="45.64139" lon="6.51641">
        <ele>2128</ele>
        <time>2022-07-16T06:16:05Z</time>
      </trkpt>
      <trkpt lat="45.64141" lon="6.51641">
        <ele>2128</ele>
        <time>2022-07-16T06:16:06Z</time>
      </trkpt>
      <trkpt lat="45.64143" lon="6.51642">
        <ele>2128</ele>
        <time>2022-07-16T06:16:07Z</time>
      </trkpt>
      <trkpt lat="45.64146" lon="6.51642">
        <ele>2127</ele>
        <time>2022-07-16T06:16:08Z</time>
      </trkpt>
      <trkpt lat="45.64148" lon="6.51643">
        <ele>2127</ele>
        <time>2022-07-16T06:16:09Z</time>
      </trkpt>
      <trkpt lat="45.6415" lon="6.51644">
        <ele>2126</ele>
        <time>2022-07-16T06:16:10Z</time>
      </trkpt>
      <trkpt lat="45.64152" lon="6.51646">
        <ele>2126</ele>
        <time>2022-07-16T06:16:11Z</time>
      </trkpt>
      <trkpt lat="45.64154" lon="6.51647">
        <ele>2125</ele>
        <time>2022-07-16T06:16:12Z</time>
      </trkpt>
      <trkpt lat="45.64156" lon="6.51648">
        <ele>2125</ele>
        <time>2022-07-16T06:16:13Z</time>
      </trkpt>
      <trkpt lat="45.64158" lon="6.51649">
        <ele>2125</ele>
        <time>2022-07-16T06:16:14Z</time>
      </trkpt>
      <trkpt lat="45.6416" lon="6.5165">
        <ele>2125</ele>
        <time>2022-07-16T06:16:15Z</time>
      </trkpt>
      <trkpt lat="45.64162" lon="6.51651">
        <ele>2124</ele>
        <time>2022-07-16T06:16:16Z</time>
      </trkpt>
      <trkpt lat="45.64165" lon="6.51652">
        <ele>2124</ele>
        <time>2022-07-16T06:16:17Z</time>
      </trkpt>
      <trkpt lat="45.64167" lon="6.51654">
        <ele>2124</ele>
        <time>2022-07-16T06:16:18Z</time>
      </trkpt>
      <trkpt lat="45.64168" lon="6.51656">
        <ele>2124</ele>
        <time>2022-07-16T06:16:19Z</time>
      </trkpt>
      <trkpt lat="45.6417" lon="6.51658">
        <ele>2124</ele>
        <time>2022-07-16T06:16:20Z</time>
      </trkpt>
      <trkpt lat="45.64172" lon="6.51659">
        <ele>2124</ele>
        <time>2022-07-16T06:16:21Z</time>
      </trkpt>
      <trkpt lat="45.64174" lon="6.51661">
        <ele>2124</ele>
        <time>2022-07-16T06:16:22Z</time>
      </trkpt>
      <trkpt lat="45.64175" lon="6.51663">
        <ele>2124</ele>
        <time>2022-07-16T06:16:23Z</time>
      </trkpt>
      <trkpt lat="45.64177" lon="6.51664">
        <ele>2124</ele>
        <time>2022-07-16T06:16:24Z</time>
      </trkpt>
      <trkpt lat="45.64179" lon="6.51665">
        <ele>2124</ele>
        <time>2022-07-16T06:16:25Z</time>
      </trkpt>
      <trkpt lat="45.6418" lon="6.51666">
        <ele>2124</ele>
        <time>2022-07-16T06:16:26Z</time>
      </trkpt>
      <trkpt lat="45.64182" lon="6.51667">
        <ele>2124</ele>
        <time>2022-07-16T06:16:27Z</time>
      </trkpt>
      <trkpt lat="45.64184" lon="6.51668">
        <ele>2124</ele>
        <time>2022-07-16T06:16:28Z</time>
      </trkpt>
      <trkpt lat="45.64186" lon="6.51669">
        <ele>2124</ele>
        <time>2022-07-16T06:16:29Z</time>
      </trkpt>
      <trkpt lat="45.64188" lon="6.51671">
        <ele>2124</ele>
        <time>2022-07-16T06:16:30Z</time>
      </trkpt>
      <trkpt lat="45.6419" lon="6.51672">
        <ele>2124</ele>
        <time>2022-07-16T06:16:31Z</time>
      </trkpt>
      <trkpt lat="45.64191" lon="6.51673">
        <ele>2124</ele>
        <time>2022-07-16T06:16:32Z</time>
      </trkpt>
      <trkpt lat="45.64192" lon="6.51674">
        <ele>2124</ele>
        <time>2022-07-16T06:16:33Z</time>
      </trkpt>
      <trkpt lat="45.64194" lon="6.51674">
        <ele>2124</ele>
        <time>2022-07-16T06:16:34Z</time>
      </trkpt>
      <trkpt lat="45.64195" lon="6.51675">
        <ele>2124</ele>
        <time>2022-07-16T06:16:35Z</time>
      </trkpt>
      <trkpt lat="45.64197" lon="6.51677">
        <ele>2124</ele>
        <time>2022-07-16T06:16:36Z</time>
      </trkpt>
      <trkpt lat="45.64198" lon="6.5168">
        <ele>2124</ele>
        <time>2022-07-16T06:16:37Z</time>
      </trkpt>
      <trkpt lat="45.64199" lon="6.51682">
        <ele>2124</ele>
        <time>2022-07-16T06:16:38Z</time>
      </trkpt>
      <trkpt lat="45.64201" lon="6.51685">
        <ele>2124</ele>
        <time>2022-07-16T06:16:40Z</time>
      </trkpt>
      <trkpt lat="45.64203" lon="6.51687">
        <ele>2124</ele>
        <time>2022-07-16T06:16:41Z</time>
      </trkpt>
      <trkpt lat="45.64206" lon="6.51688">
        <ele>2124</ele>
        <time>2022-07-16T06:16:42Z</time>
      </trkpt>
      <trkpt lat="45.64208" lon="6.51689">
        <ele>2124</ele>
        <time>2022-07-16T06:16:43Z</time>
      </trkpt>
      <trkpt lat="45.64212" lon="6.5169">
        <ele>2124</ele>
        <time>2022-07-16T06:16:44Z</time>
      </trkpt>
      <trkpt lat="45.64214" lon="6.5169">
        <ele>2124</ele>
        <time>2022-07-16T06:16:46Z</time>
      </trkpt>
      <trkpt lat="45.64216" lon="6.51692">
        <ele>2124</ele>
        <time>2022-07-16T06:16:48Z</time>
      </trkpt>
      <trkpt lat="45.64217" lon="6.51693">
        <ele>2125</ele>
        <time>2022-07-16T06:16:49Z</time>
      </trkpt>
      <trkpt lat="45.64218" lon="6.51694">
        <ele>2125</ele>
        <time>2022-07-16T06:16:50Z</time>
      </trkpt>
      <trkpt lat="45.64219" lon="6.51695">
        <ele>2125</ele>
        <time>2022-07-16T06:16:51Z</time>
      </trkpt>
      <trkpt lat="45.6422" lon="6.51696">
        <ele>2125</ele>
        <time>2022-07-16T06:16:52Z</time>
      </trkpt>
      <trkpt lat="45.64222" lon="6.51698">
        <ele>2126</ele>
        <time>2022-07-16T06:16:55Z</time>
      </trkpt>
      <trkpt lat="45.64224" lon="6.51699">
        <ele>2126</ele>
        <time>2022-07-16T06:16:58Z</time>
      </trkpt>
      <trkpt lat="45.64226" lon="6.517">
        <ele>2127</ele>
        <time>2022-07-16T06:17:01Z</time>
      </trkpt>
      <trkpt lat="45.64228" lon="6.51702">
        <ele>2127</ele>
        <time>2022-07-16T06:17:04Z</time>
      </trkpt>
      <trkpt lat="45.64231" lon="6.51703">
        <ele>2127</ele>
        <time>2022-07-16T06:17:06Z</time>
      </trkpt>
      <trkpt lat="45.64234" lon="6.51704">
        <ele>2127</ele>
        <time>2022-07-16T06:17:08Z</time>
      </trkpt>
      <trkpt lat="45.64237" lon="6.51703">
        <ele>2127</ele>
        <time>2022-07-16T06:17:10Z</time>
      </trkpt>
      <trkpt lat="45.6424" lon="6.51703">
        <ele>2126</ele>
        <time>2022-07-16T06:17:12Z</time>
      </trkpt>
      <trkpt lat="45.64243" lon="6.517">
        <ele>2126</ele>
        <time>2022-07-16T06:17:14Z</time>
      </trkpt>
      <trkpt lat="45.64245" lon="6.517">
        <ele>2126</ele>
        <time>2022-07-16T06:17:15Z</time>
      </trkpt>
      <trkpt lat="45.64247" lon="6.517">
        <ele>2126</ele>
        <time>2022-07-16T06:17:16Z</time>
      </trkpt>
      <trkpt lat="45.64249" lon="6.517">
        <ele>2126</ele>
        <time>2022-07-16T06:17:17Z</time>
      </trkpt>
      <trkpt lat="45.64251" lon="6.517">
        <ele>2126</ele>
        <time>2022-07-16T06:17:18Z</time>
      </trkpt>
      <trkpt lat="45.64253" lon="6.517">
        <ele>2126</ele>
        <time>2022-07-16T06:17:19Z</time>
      </trkpt>
      <trkpt lat="45.64255" lon="6.517">
        <ele>2126</ele>
        <time>2022-07-16T06:17:20Z</time>
      </trkpt>
      <trkpt lat="45.64257" lon="6.51699">
        <ele>2126</ele>
        <time>2022-07-16T06:17:21Z</time>
      </trkpt>
      <trkpt lat="45.64259" lon="6.51699">
        <ele>2126</ele>
        <time>2022-07-16T06:17:22Z</time>
      </trkpt>
      <trkpt lat="45.64261" lon="6.51699">
        <ele>2126</ele>
        <time>2022-07-16T06:17:23Z</time>
      </trkpt>
      <trkpt lat="45.64263" lon="6.51699">
        <ele>2125</ele>
        <time>2022-07-16T06:17:24Z</time>
      </trkpt>
      <trkpt lat="45.64265" lon="6.517">
        <ele>2125</ele>
        <time>2022-07-16T06:17:25Z</time>
      </trkpt>
      <trkpt lat="45.64267" lon="6.517">
        <ele>2125</ele>
        <time>2022-07-16T06:17:26Z</time>
      </trkpt>
      <trkpt lat="45.6427" lon="6.517">
        <ele>2125</ele>
        <time>2022-07-16T06:17:27Z</time>
      </trkpt>
      <trkpt lat="45.64271" lon="6.51699">
        <ele>2125</ele>
        <time>2022-07-16T06:17:28Z</time>
      </trkpt>
      <trkpt lat="45.64273" lon="6.51698">
        <ele>2125</ele>
        <time>2022-07-16T06:17:29Z</time>
      </trkpt>
      <trkpt lat="45.64275" lon="6.51697">
        <ele>2126</ele>
        <time>2022-07-16T06:17:30Z</time>
      </trkpt>
      <trkpt lat="45.64277" lon="6.51696">
        <ele>2126</ele>
        <time>2022-07-16T06:17:31Z</time>
      </trkpt>
      <trkpt lat="45.64278" lon="6.51695">
        <ele>2126</ele>
        <time>2022-07-16T06:17:32Z</time>
      </trkpt>
      <trkpt lat="45.64279" lon="6.51695">
        <ele>2126</ele>
        <time>2022-07-16T06:17:33Z</time>
      </trkpt>
      <trkpt lat="45.6428" lon="6.51694">
        <ele>2126</ele>
        <time>2022-07-16T06:17:34Z</time>
      </trkpt>
      <trkpt lat="45.64282" lon="6.51694">
        <ele>2126</ele>
        <time>2022-07-16T06:17:35Z</time>
      </trkpt>
      <trkpt lat="45.64283" lon="6.51694">
        <ele>2126</ele>
        <time>2022-07-16T06:17:36Z</time>
      </trkpt>
      <trkpt lat="45.64284" lon="6.51694">
        <ele>2126</ele>
        <time>2022-07-16T06:17:37Z</time>
      </trkpt>
      <trkpt lat="45.64291" lon="6.51692">
        <ele>2126</ele>
        <time>2022-07-16T06:17:38Z</time>
      </trkpt>
      <trkpt lat="45.64293" lon="6.51692">
        <ele>2125</ele>
        <time>2022-07-16T06:17:39Z</time>
      </trkpt>
      <trkpt lat="45.64295" lon="6.51692">
        <ele>2125</ele>
        <time>2022-07-16T06:17:40Z</time>
      </trkpt>
      <trkpt lat="45.64299" lon="6.51692">
        <ele>2125</ele>
        <time>2022-07-16T06:17:42Z</time>
      </trkpt>
      <trkpt lat="45.64301" lon="6.51692">
        <ele>2126</ele>
        <time>2022-07-16T06:17:43Z</time>
      </trkpt>
      <trkpt lat="45.64303" lon="6.51691">
        <ele>2126</ele>
        <time>2022-07-16T06:17:44Z</time>
      </trkpt>
      <trkpt lat="45.64307" lon="6.51689">
        <ele>2126</ele>
        <time>2022-07-16T06:17:46Z</time>
      </trkpt>
      <trkpt lat="45.64309" lon="6.51687">
        <ele>2126</ele>
        <time>2022-07-16T06:17:47Z</time>
      </trkpt>
      <trkpt lat="45.6431" lon="6.51686">
        <ele>2126</ele>
        <time>2022-07-16T06:17:48Z</time>
      </trkpt>
      <trkpt lat="45.64313" lon="6.51684">
        <ele>2126</ele>
        <time>2022-07-16T06:17:49Z</time>
      </trkpt>
      <trkpt lat="45.64315" lon="6.51683">
        <ele>2125</ele>
        <time>2022-07-16T06:17:50Z</time>
      </trkpt>
      <trkpt lat="45.64316" lon="6.51682">
        <ele>2125</ele>
        <time>2022-07-16T06:17:51Z</time>
      </trkpt>
      <trkpt lat="45.64319" lon="6.5168">
        <ele>2126</ele>
        <time>2022-07-16T06:17:53Z</time>
      </trkpt>
      <trkpt lat="45.64321" lon="6.51678">
        <ele>2126</ele>
        <time>2022-07-16T06:17:55Z</time>
      </trkpt>
      <trkpt lat="45.64323" lon="6.51675">
        <ele>2126</ele>
        <time>2022-07-16T06:17:57Z</time>
      </trkpt>
      <trkpt lat="45.64325" lon="6.51673">
        <ele>2127</ele>
        <time>2022-07-16T06:17:59Z</time>
      </trkpt>
      <trkpt lat="45.64327" lon="6.5167">
        <ele>2127</ele>
        <time>2022-07-16T06:18:01Z</time>
      </trkpt>
      <trkpt lat="45.64329" lon="6.51669">
        <ele>2127</ele>
        <time>2022-07-16T06:18:03Z</time>
      </trkpt>
      <trkpt lat="45.64332" lon="6.5167">
        <ele>2128</ele>
        <time>2022-07-16T06:18:05Z</time>
      </trkpt>
      <trkpt lat="45.64334" lon="6.51671">
        <ele>2128</ele>
        <time>2022-07-16T06:18:07Z</time>
      </trkpt>
      <trkpt lat="45.64337" lon="6.51675">
        <ele>2128</ele>
        <time>2022-07-16T06:18:09Z</time>
      </trkpt>
      <trkpt lat="45.64337" lon="6.51677">
        <ele>2128</ele>
        <time>2022-07-16T06:18:10Z</time>
      </trkpt>
      <trkpt lat="45.64338" lon="6.5168">
        <ele>2128</ele>
        <time>2022-07-16T06:18:11Z</time>
      </trkpt>
      <trkpt lat="45.64338" lon="6.51684">
        <ele>2128</ele>
        <time>2022-07-16T06:18:12Z</time>
      </trkpt>
      <trkpt lat="45.64338" lon="6.51687">
        <ele>2127</ele>
        <time>2022-07-16T06:18:13Z</time>
      </trkpt>
      <trkpt lat="45.64338" lon="6.5169">
        <ele>2126</ele>
        <time>2022-07-16T06:18:14Z</time>
      </trkpt>
      <trkpt lat="45.64339" lon="6.51694">
        <ele>2126</ele>
        <time>2022-07-16T06:18:15Z</time>
      </trkpt>
      <trkpt lat="45.6434" lon="6.51697">
        <ele>2126</ele>
        <time>2022-07-16T06:18:16Z</time>
      </trkpt>
      <trkpt lat="45.64341" lon="6.51699">
        <ele>2126</ele>
        <time>2022-07-16T06:18:17Z</time>
      </trkpt>
      <trkpt lat="45.64342" lon="6.51702">
        <ele>2126</ele>
        <time>2022-07-16T06:18:18Z</time>
      </trkpt>
      <trkpt lat="45.64344" lon="6.51706">
        <ele>2126</ele>
        <time>2022-07-16T06:18:19Z</time>
      </trkpt>
      <trkpt lat="45.64344" lon="6.51708">
        <ele>2126</ele>
        <time>2022-07-16T06:18:20Z</time>
      </trkpt>
      <trkpt lat="45.64344" lon="6.51712">
        <ele>2126</ele>
        <time>2022-07-16T06:18:21Z</time>
      </trkpt>
      <trkpt lat="45.64345" lon="6.51715">
        <ele>2125</ele>
        <time>2022-07-16T06:18:22Z</time>
      </trkpt>
      <trkpt lat="45.64345" lon="6.51718">
        <ele>2125</ele>
        <time>2022-07-16T06:18:23Z</time>
      </trkpt>
      <trkpt lat="45.64347" lon="6.51721">
        <ele>2125</ele>
        <time>2022-07-16T06:18:24Z</time>
      </trkpt>
      <trkpt lat="45.64348" lon="6.51723">
        <ele>2125</ele>
        <time>2022-07-16T06:18:25Z</time>
      </trkpt>
      <trkpt lat="45.6435" lon="6.51725">
        <ele>2125</ele>
        <time>2022-07-16T06:18:26Z</time>
      </trkpt>
      <trkpt lat="45.64352" lon="6.51727">
        <ele>2125</ele>
        <time>2022-07-16T06:18:27Z</time>
      </trkpt>
      <trkpt lat="45.64354" lon="6.51729">
        <ele>2125</ele>
        <time>2022-07-16T06:18:28Z</time>
      </trkpt>
      <trkpt lat="45.64355" lon="6.51732">
        <ele>2124</ele>
        <time>2022-07-16T06:18:29Z</time>
      </trkpt>
      <trkpt lat="45.64356" lon="6.51735">
        <ele>2124</ele>
        <time>2022-07-16T06:18:30Z</time>
      </trkpt>
      <trkpt lat="45.64357" lon="6.51738">
        <ele>2124</ele>
        <time>2022-07-16T06:18:31Z</time>
      </trkpt>
      <trkpt lat="45.64358" lon="6.51742">
        <ele>2124</ele>
        <time>2022-07-16T06:18:32Z</time>
      </trkpt>
      <trkpt lat="45.64358" lon="6.51745">
        <ele>2124</ele>
        <time>2022-07-16T06:18:33Z</time>
      </trkpt>
      <trkpt lat="45.64359" lon="6.51747">
        <ele>2124</ele>
        <time>2022-07-16T06:18:34Z</time>
      </trkpt>
      <trkpt lat="45.6436" lon="6.5175">
        <ele>2124</ele>
        <time>2022-07-16T06:18:35Z</time>
      </trkpt>
      <trkpt lat="45.64361" lon="6.51753">
        <ele>2124</ele>
        <time>2022-07-16T06:18:36Z</time>
      </trkpt>
      <trkpt lat="45.64362" lon="6.51756">
        <ele>2124</ele>
        <time>2022-07-16T06:18:37Z</time>
      </trkpt>
      <trkpt lat="45.64363" lon="6.51759">
        <ele>2123</ele>
        <time>2022-07-16T06:18:38Z</time>
      </trkpt>
      <trkpt lat="45.64364" lon="6.51761">
        <ele>2123</ele>
        <time>2022-07-16T06:18:39Z</time>
      </trkpt>
      <trkpt lat="45.64364" lon="6.51766">
        <ele>2122</ele>
        <time>2022-07-16T06:18:41Z</time>
      </trkpt>
      <trkpt lat="45.64364" lon="6.51769">
        <ele>2122</ele>
        <time>2022-07-16T06:18:42Z</time>
      </trkpt>
      <trkpt lat="45.64364" lon="6.51772">
        <ele>2121</ele>
        <time>2022-07-16T06:18:43Z</time>
      </trkpt>
      <trkpt lat="45.64365" lon="6.51777">
        <ele>2120</ele>
        <time>2022-07-16T06:18:45Z</time>
      </trkpt>
      <trkpt lat="45.64367" lon="6.51779">
        <ele>2119</ele>
        <time>2022-07-16T06:18:46Z</time>
      </trkpt>
      <trkpt lat="45.6437" lon="6.5178">
        <ele>2119</ele>
        <time>2022-07-16T06:18:47Z</time>
      </trkpt>
      <trkpt lat="45.64372" lon="6.51779">
        <ele>2118</ele>
        <time>2022-07-16T06:18:48Z</time>
      </trkpt>
      <trkpt lat="45.64374" lon="6.51778">
        <ele>2116</ele>
        <time>2022-07-16T06:18:49Z</time>
      </trkpt>
      <trkpt lat="45.64375" lon="6.51778">
        <ele>2116</ele>
        <time>2022-07-16T06:18:50Z</time>
      </trkpt>
      <trkpt lat="45.64378" lon="6.5178">
        <ele>2115</ele>
        <time>2022-07-16T06:18:52Z</time>
      </trkpt>
      <trkpt lat="45.64379" lon="6.51783">
        <ele>2115</ele>
        <time>2022-07-16T06:18:53Z</time>
      </trkpt>
      <trkpt lat="45.64381" lon="6.51786">
        <ele>2115</ele>
        <time>2022-07-16T06:18:54Z</time>
      </trkpt>
      <trkpt lat="45.64382" lon="6.51789">
        <ele>2114</ele>
        <time>2022-07-16T06:18:55Z</time>
      </trkpt>
      <trkpt lat="45.64383" lon="6.51792">
        <ele>2113</ele>
        <time>2022-07-16T06:18:56Z</time>
      </trkpt>
      <trkpt lat="45.64383" lon="6.51795">
        <ele>2113</ele>
        <time>2022-07-16T06:18:57Z</time>
      </trkpt>
      <trkpt lat="45.64383" lon="6.51798">
        <ele>2113</ele>
        <time>2022-07-16T06:18:59Z</time>
      </trkpt>
      <trkpt lat="45.64382" lon="6.51801">
        <ele>2113</ele>
        <time>2022-07-16T06:19:02Z</time>
      </trkpt>
      <trkpt lat="45.6438" lon="6.51803">
        <ele>2112</ele>
        <time>2022-07-16T06:19:04Z</time>
      </trkpt>
      <trkpt lat="45.64378" lon="6.51804">
        <ele>2111</ele>
        <time>2022-07-16T06:19:06Z</time>
      </trkpt>
      <trkpt lat="45.64377" lon="6.51807">
        <ele>2110</ele>
        <time>2022-07-16T06:19:10Z</time>
      </trkpt>
      <trkpt lat="45.64375" lon="6.51809">
        <ele>2109</ele>
        <time>2022-07-16T06:19:12Z</time>
      </trkpt>
      <trkpt lat="45.64374" lon="6.51812">
        <ele>2108</ele>
        <time>2022-07-16T06:19:15Z</time>
      </trkpt>
      <trkpt lat="45.64373" lon="6.51815">
        <ele>2108</ele>
        <time>2022-07-16T06:19:17Z</time>
      </trkpt>
      <trkpt lat="45.64373" lon="6.51817">
        <ele>2106</ele>
        <time>2022-07-16T06:19:19Z</time>
      </trkpt>
      <trkpt lat="45.64373" lon="6.51819">
        <ele>2105</ele>
        <time>2022-07-16T06:19:20Z</time>
      </trkpt>
      <trkpt lat="45.64372" lon="6.51821">
        <ele>2104</ele>
        <time>2022-07-16T06:19:21Z</time>
      </trkpt>
      <trkpt lat="45.64372" lon="6.51822">
        <ele>2103</ele>
        <time>2022-07-16T06:19:22Z</time>
      </trkpt>
      <trkpt lat="45.64372" lon="6.51824">
        <ele>2103</ele>
        <time>2022-07-16T06:19:23Z</time>
      </trkpt>
      <trkpt lat="45.64371" lon="6.51826">
        <ele>2103</ele>
        <time>2022-07-16T06:19:24Z</time>
      </trkpt>
      <trkpt lat="45.64371" lon="6.51828">
        <ele>2103</ele>
        <time>2022-07-16T06:19:25Z</time>
      </trkpt>
      <trkpt lat="45.6437" lon="6.51829">
        <ele>2103</ele>
        <time>2022-07-16T06:19:26Z</time>
      </trkpt>
      <trkpt lat="45.64369" lon="6.5183">
        <ele>2103</ele>
        <time>2022-07-16T06:19:27Z</time>
      </trkpt>
      <trkpt lat="45.64369" lon="6.51831">
        <ele>2102</ele>
        <time>2022-07-16T06:19:28Z</time>
      </trkpt>
      <trkpt lat="45.64368" lon="6.51832">
        <ele>2102</ele>
        <time>2022-07-16T06:19:29Z</time>
      </trkpt>
      <trkpt lat="45.64367" lon="6.51833">
        <ele>2101</ele>
        <time>2022-07-16T06:19:30Z</time>
      </trkpt>
      <trkpt lat="45.64367" lon="6.51837">
        <ele>2100</ele>
        <time>2022-07-16T06:19:35Z</time>
      </trkpt>
      <trkpt lat="45.64367" lon="6.5184">
        <ele>2098</ele>
        <time>2022-07-16T06:19:38Z</time>
      </trkpt>
      <trkpt lat="45.64367" lon="6.51841">
        <ele>2098</ele>
        <time>2022-07-16T06:19:39Z</time>
      </trkpt>
      <trkpt lat="45.64367" lon="6.51842">
        <ele>2097</ele>
        <time>2022-07-16T06:19:41Z</time>
      </trkpt>
      <trkpt lat="45.64367" lon="6.51843">
        <ele>2096</ele>
        <time>2022-07-16T06:19:42Z</time>
      </trkpt>
      <trkpt lat="45.64367" lon="6.51844">
        <ele>2096</ele>
        <time>2022-07-16T06:19:43Z</time>
      </trkpt>
      <trkpt lat="45.64367" lon="6.51845">
        <ele>2096</ele>
        <time>2022-07-16T06:19:45Z</time>
      </trkpt>
      <trkpt lat="45.64368" lon="6.51846">
        <ele>2095</ele>
        <time>2022-07-16T06:19:46Z</time>
      </trkpt>
      <trkpt lat="45.64368" lon="6.51847">
        <ele>2094</ele>
        <time>2022-07-16T06:19:47Z</time>
      </trkpt>
      <trkpt lat="45.64368" lon="6.51855">
        <ele>2093</ele>
        <time>2022-07-16T06:19:49Z</time>
      </trkpt>
      <trkpt lat="45.64376" lon="6.51863">
        <ele>2093</ele>
        <time>2022-07-16T06:19:55Z</time>
      </trkpt>
      <trkpt lat="45.64376" lon="6.51864">
        <ele>2093</ele>
        <time>2022-07-16T06:19:56Z</time>
      </trkpt>
      <trkpt lat="45.64377" lon="6.51866">
        <ele>2093</ele>
        <time>2022-07-16T06:19:57Z</time>
      </trkpt>
      <trkpt lat="45.64378" lon="6.51867">
        <ele>2093</ele>
        <time>2022-07-16T06:19:58Z</time>
      </trkpt>
      <trkpt lat="45.64378" lon="6.51868">
        <ele>2093</ele>
        <time>2022-07-16T06:19:59Z</time>
      </trkpt>
      <trkpt lat="45.64379" lon="6.51869">
        <ele>2092</ele>
        <time>2022-07-16T06:20:00Z</time>
      </trkpt>
      <trkpt lat="45.6438" lon="6.51871">
        <ele>2090</ele>
        <time>2022-07-16T06:20:02Z</time>
      </trkpt>
      <trkpt lat="45.64382" lon="6.51873">
        <ele>2090</ele>
        <time>2022-07-16T06:20:04Z</time>
      </trkpt>
      <trkpt lat="45.64383" lon="6.51876">
        <ele>2090</ele>
        <time>2022-07-16T06:20:06Z</time>
      </trkpt>
      <trkpt lat="45.64385" lon="6.51878">
        <ele>2089</ele>
        <time>2022-07-16T06:20:08Z</time>
      </trkpt>
      <trkpt lat="45.64386" lon="6.51881">
        <ele>2089</ele>
        <time>2022-07-16T06:20:10Z</time>
      </trkpt>
      <trkpt lat="45.64387" lon="6.51883">
        <ele>2089</ele>
        <time>2022-07-16T06:20:12Z</time>
      </trkpt>
      <trkpt lat="45.64389" lon="6.51886">
        <ele>2089</ele>
        <time>2022-07-16T06:20:14Z</time>
      </trkpt>
      <trkpt lat="45.6439" lon="6.5189">
        <ele>2089</ele>
        <time>2022-07-16T06:20:16Z</time>
      </trkpt>
      <trkpt lat="45.6439" lon="6.51893">
        <ele>2089</ele>
        <time>2022-07-16T06:20:18Z</time>
      </trkpt>
      <trkpt lat="45.64389" lon="6.51895">
        <ele>2089</ele>
        <time>2022-07-16T06:20:20Z</time>
      </trkpt>
      <trkpt lat="45.6439" lon="6.51897">
        <ele>2089</ele>
        <time>2022-07-16T06:20:23Z</time>
      </trkpt>
      <trkpt lat="45.64392" lon="6.51899">
        <ele>2089</ele>
        <time>2022-07-16T06:20:27Z</time>
      </trkpt>
      <trkpt lat="45.64394" lon="6.51901">
        <ele>2089</ele>
        <time>2022-07-16T06:20:29Z</time>
      </trkpt>
      <trkpt lat="45.64396" lon="6.51902">
        <ele>2089</ele>
        <time>2022-07-16T06:20:31Z</time>
      </trkpt>
      <trkpt lat="45.64397" lon="6.51904">
        <ele>2089</ele>
        <time>2022-07-16T06:20:35Z</time>
      </trkpt>
      <trkpt lat="45.64399" lon="6.51906">
        <ele>2090</ele>
        <time>2022-07-16T06:20:38Z</time>
      </trkpt>
      <trkpt lat="45.64401" lon="6.51908">
        <ele>2090</ele>
        <time>2022-07-16T06:20:41Z</time>
      </trkpt>
      <trkpt lat="45.64403" lon="6.51911">
        <ele>2090</ele>
        <time>2022-07-16T06:20:44Z</time>
      </trkpt>
      <trkpt lat="45.64404" lon="6.51914">
        <ele>2092</ele>
        <time>2022-07-16T06:20:47Z</time>
      </trkpt>
      <trkpt lat="45.64405" lon="6.51916">
        <ele>2092</ele>
        <time>2022-07-16T06:20:50Z</time>
      </trkpt>
      <trkpt lat="45.64407" lon="6.51918">
        <ele>2092</ele>
        <time>2022-07-16T06:20:53Z</time>
      </trkpt>
      <trkpt lat="45.64408" lon="6.51921">
        <ele>2093</ele>
        <time>2022-07-16T06:20:56Z</time>
      </trkpt>
      <trkpt lat="45.64407" lon="6.51925">
        <ele>2093</ele>
        <time>2022-07-16T06:20:59Z</time>
      </trkpt>
      <trkpt lat="45.64408" lon="6.51927">
        <ele>2094</ele>
        <time>2022-07-16T06:21:02Z</time>
      </trkpt>
      <trkpt lat="45.6441" lon="6.5193">
        <ele>2094</ele>
        <time>2022-07-16T06:21:06Z</time>
      </trkpt>
      <trkpt lat="45.64411" lon="6.51932">
        <ele>2093</ele>
        <time>2022-07-16T06:21:09Z</time>
      </trkpt>
      <trkpt lat="45.6441" lon="6.51936">
        <ele>2093</ele>
        <time>2022-07-16T06:21:12Z</time>
      </trkpt>
      <trkpt lat="45.64412" lon="6.51939">
        <ele>2093</ele>
        <time>2022-07-16T06:21:16Z</time>
      </trkpt>
      <trkpt lat="45.64414" lon="6.51941">
        <ele>2093</ele>
        <time>2022-07-16T06:21:19Z</time>
      </trkpt>
      <trkpt lat="45.64416" lon="6.51943">
        <ele>2093</ele>
        <time>2022-07-16T06:21:23Z</time>
      </trkpt>
      <trkpt lat="45.64418" lon="6.51943">
        <ele>2093</ele>
        <time>2022-07-16T06:21:25Z</time>
      </trkpt>
      <trkpt lat="45.6442" lon="6.51945">
        <ele>2093</ele>
        <time>2022-07-16T06:21:28Z</time>
      </trkpt>
      <trkpt lat="45.64421" lon="6.51947">
        <ele>2092</ele>
        <time>2022-07-16T06:21:31Z</time>
      </trkpt>
      <trkpt lat="45.64422" lon="6.5195">
        <ele>2092</ele>
        <time>2022-07-16T06:21:34Z</time>
      </trkpt>
      <trkpt lat="45.64423" lon="6.51953">
        <ele>2092</ele>
        <time>2022-07-16T06:21:38Z</time>
      </trkpt>
      <trkpt lat="45.64424" lon="6.51956">
        <ele>2090</ele>
        <time>2022-07-16T06:21:41Z</time>
      </trkpt>
      <trkpt lat="45.64425" lon="6.51959">
        <ele>2090</ele>
        <time>2022-07-16T06:21:44Z</time>
      </trkpt>
      <trkpt lat="45.64425" lon="6.51961">
        <ele>2089</ele>
        <time>2022-07-16T06:21:46Z</time>
      </trkpt>
      <trkpt lat="45.64425" lon="6.51964">
        <ele>2089</ele>
        <time>2022-07-16T06:21:49Z</time>
      </trkpt>
      <trkpt lat="45.64426" lon="6.51968">
        <ele>2089</ele>
        <time>2022-07-16T06:21:53Z</time>
      </trkpt>
      <trkpt lat="45.64427" lon="6.5197">
        <ele>2088</ele>
        <time>2022-07-16T06:21:56Z</time>
      </trkpt>
      <trkpt lat="45.64427" lon="6.51973">
        <ele>2087</ele>
        <time>2022-07-16T06:21:58Z</time>
      </trkpt>
      <trkpt lat="45.64428" lon="6.51976">
        <ele>2087</ele>
        <time>2022-07-16T06:22:02Z</time>
      </trkpt>
      <trkpt lat="45.64429" lon="6.51979">
        <ele>2087</ele>
        <time>2022-07-16T06:22:05Z</time>
      </trkpt>
      <trkpt lat="45.6443" lon="6.51982">
        <ele>2087</ele>
        <time>2022-07-16T06:22:09Z</time>
      </trkpt>
      <trkpt lat="45.64431" lon="6.51985">
        <ele>2086</ele>
        <time>2022-07-16T06:22:12Z</time>
      </trkpt>
      <trkpt lat="45.64432" lon="6.51988">
        <ele>2086</ele>
        <time>2022-07-16T06:22:15Z</time>
      </trkpt>
      <trkpt lat="45.64434" lon="6.5199">
        <ele>2086</ele>
        <time>2022-07-16T06:22:19Z</time>
      </trkpt>
      <trkpt lat="45.64437" lon="6.51991">
        <ele>2086</ele>
        <time>2022-07-16T06:22:22Z</time>
      </trkpt>
      <trkpt lat="45.64439" lon="6.51991">
        <ele>2084</ele>
        <time>2022-07-16T06:22:25Z</time>
      </trkpt>
      <trkpt lat="45.64441" lon="6.51993">
        <ele>2084</ele>
        <time>2022-07-16T06:22:27Z</time>
      </trkpt>
      <trkpt lat="45.64442" lon="6.51994">
        <ele>2084</ele>
        <time>2022-07-16T06:22:30Z</time>
      </trkpt>
      <trkpt lat="45.64444" lon="6.51994">
        <ele>2083</ele>
        <time>2022-07-16T06:22:33Z</time>
      </trkpt>
      <trkpt lat="45.64447" lon="6.51994">
        <ele>2082</ele>
        <time>2022-07-16T06:22:36Z</time>
      </trkpt>
      <trkpt lat="45.64449" lon="6.51995">
        <ele>2082</ele>
        <time>2022-07-16T06:22:38Z</time>
      </trkpt>
      <trkpt lat="45.64451" lon="6.51995">
        <ele>2082</ele>
        <time>2022-07-16T06:22:40Z</time>
      </trkpt>
      <trkpt lat="45.64453" lon="6.51996">
        <ele>2082</ele>
        <time>2022-07-16T06:22:42Z</time>
      </trkpt>
      <trkpt lat="45.64455" lon="6.51997">
        <ele>2083</ele>
        <time>2022-07-16T06:22:44Z</time>
      </trkpt>
      <trkpt lat="45.64457" lon="6.51999">
        <ele>2084</ele>
        <time>2022-07-16T06:22:47Z</time>
      </trkpt>
      <trkpt lat="45.64458" lon="6.52001">
        <ele>2083</ele>
        <time>2022-07-16T06:22:49Z</time>
      </trkpt>
      <trkpt lat="45.6446" lon="6.52005">
        <ele>2083</ele>
        <time>2022-07-16T06:22:51Z</time>
      </trkpt>
      <trkpt lat="45.64461" lon="6.52007">
        <ele>2083</ele>
        <time>2022-07-16T06:22:53Z</time>
      </trkpt>
      <trkpt lat="45.64462" lon="6.5201">
        <ele>2084</ele>
        <time>2022-07-16T06:22:55Z</time>
      </trkpt>
      <trkpt lat="45.64464" lon="6.52011">
        <ele>2084</ele>
        <time>2022-07-16T06:22:57Z</time>
      </trkpt>
      <trkpt lat="45.64467" lon="6.52013">
        <ele>2084</ele>
        <time>2022-07-16T06:22:59Z</time>
      </trkpt>
      <trkpt lat="45.64468" lon="6.52016">
        <ele>2084</ele>
        <time>2022-07-16T06:23:01Z</time>
      </trkpt>
      <trkpt lat="45.6447" lon="6.52018">
        <ele>2084</ele>
        <time>2022-07-16T06:23:03Z</time>
      </trkpt>
      <trkpt lat="45.64472" lon="6.52021">
        <ele>2084</ele>
        <time>2022-07-16T06:23:06Z</time>
      </trkpt>
      <trkpt lat="45.64475" lon="6.52023">
        <ele>2083</ele>
        <time>2022-07-16T06:23:08Z</time>
      </trkpt>
      <trkpt lat="45.64477" lon="6.52027">
        <ele>2083</ele>
        <time>2022-07-16T06:23:10Z</time>
      </trkpt>
      <trkpt lat="45.64479" lon="6.52028">
        <ele>2083</ele>
        <time>2022-07-16T06:23:11Z</time>
      </trkpt>
      <trkpt lat="45.64482" lon="6.5203">
        <ele>2083</ele>
        <time>2022-07-16T06:23:13Z</time>
      </trkpt>
      <trkpt lat="45.64484" lon="6.52031">
        <ele>2083</ele>
        <time>2022-07-16T06:23:15Z</time>
      </trkpt>
      <trkpt lat="45.64485" lon="6.52033">
        <ele>2084</ele>
        <time>2022-07-16T06:23:19Z</time>
      </trkpt>
      <trkpt lat="45.64486" lon="6.52036">
        <ele>2085</ele>
        <time>2022-07-16T06:23:22Z</time>
      </trkpt>
      <trkpt lat="45.64489" lon="6.52038">
        <ele>2085</ele>
        <time>2022-07-16T06:23:26Z</time>
      </trkpt>
      <trkpt lat="45.6449" lon="6.5204">
        <ele>2086</ele>
        <time>2022-07-16T06:23:29Z</time>
      </trkpt>
      <trkpt lat="45.64491" lon="6.52042">
        <ele>2087</ele>
        <time>2022-07-16T06:23:31Z</time>
      </trkpt>
      <trkpt lat="45.64493" lon="6.52044">
        <ele>2087</ele>
        <time>2022-07-16T06:23:33Z</time>
      </trkpt>
      <trkpt lat="45.64494" lon="6.52047">
        <ele>2087</ele>
        <time>2022-07-16T06:23:36Z</time>
      </trkpt>
      <trkpt lat="45.64496" lon="6.52049">
        <ele>2088</ele>
        <time>2022-07-16T06:23:39Z</time>
      </trkpt>
      <trkpt lat="45.64497" lon="6.52051">
        <ele>2088</ele>
        <time>2022-07-16T06:23:42Z</time>
      </trkpt>
      <trkpt lat="45.64499" lon="6.52054">
        <ele>2088</ele>
        <time>2022-07-16T06:23:45Z</time>
      </trkpt>
      <trkpt lat="45.64499" lon="6.52057">
        <ele>2088</ele>
        <time>2022-07-16T06:23:47Z</time>
      </trkpt>
      <trkpt lat="45.645" lon="6.5206">
        <ele>2089</ele>
        <time>2022-07-16T06:23:50Z</time>
      </trkpt>
      <trkpt lat="45.64501" lon="6.52062">
        <ele>2088</ele>
        <time>2022-07-16T06:23:53Z</time>
      </trkpt>
      <trkpt lat="45.64504" lon="6.52064">
        <ele>2088</ele>
        <time>2022-07-16T06:23:58Z</time>
      </trkpt>
      <trkpt lat="45.64506" lon="6.52066">
        <ele>2088</ele>
        <time>2022-07-16T06:24:01Z</time>
      </trkpt>
      <trkpt lat="45.64508" lon="6.52066">
        <ele>2089</ele>
        <time>2022-07-16T06:24:04Z</time>
      </trkpt>
      <trkpt lat="45.64509" lon="6.52066">
        <ele>2089</ele>
        <time>2022-07-16T06:24:06Z</time>
      </trkpt>
      <trkpt lat="45.6451" lon="6.52067">
        <ele>2089</ele>
        <time>2022-07-16T06:24:07Z</time>
      </trkpt>
      <trkpt lat="45.64512" lon="6.52067">
        <ele>2090</ele>
        <time>2022-07-16T06:24:08Z</time>
      </trkpt>
      <trkpt lat="45.64513" lon="6.52067">
        <ele>2090</ele>
        <time>2022-07-16T06:24:09Z</time>
      </trkpt>
      <trkpt lat="45.64515" lon="6.52068">
        <ele>2090</ele>
        <time>2022-07-16T06:24:12Z</time>
      </trkpt>
      <trkpt lat="45.64517" lon="6.52069">
        <ele>2090</ele>
        <time>2022-07-16T06:24:16Z</time>
      </trkpt>
      <trkpt lat="45.64519" lon="6.52069">
        <ele>2092</ele>
        <time>2022-07-16T06:24:19Z</time>
      </trkpt>
      <trkpt lat="45.64521" lon="6.52068">
        <ele>2092</ele>
        <time>2022-07-16T06:24:23Z</time>
      </trkpt>
      <trkpt lat="45.64523" lon="6.5207">
        <ele>2092</ele>
        <time>2022-07-16T06:24:28Z</time>
      </trkpt>
      <trkpt lat="45.64526" lon="6.5207">
        <ele>2090</ele>
        <time>2022-07-16T06:24:31Z</time>
      </trkpt>
      <trkpt lat="45.64528" lon="6.5207">
        <ele>2090</ele>
        <time>2022-07-16T06:24:34Z</time>
      </trkpt>
      <trkpt lat="45.6453" lon="6.52072">
        <ele>2090</ele>
        <time>2022-07-16T06:24:37Z</time>
      </trkpt>
      <trkpt lat="45.64532" lon="6.52073">
        <ele>2090</ele>
        <time>2022-07-16T06:24:41Z</time>
      </trkpt>
      <trkpt lat="45.64534" lon="6.52072">
        <ele>2090</ele>
        <time>2022-07-16T06:24:44Z</time>
      </trkpt>
      <trkpt lat="45.64536" lon="6.52073">
        <ele>2089</ele>
        <time>2022-07-16T06:24:48Z</time>
      </trkpt>
      <trkpt lat="45.64538" lon="6.52074">
        <ele>2089</ele>
        <time>2022-07-16T06:24:51Z</time>
      </trkpt>
      <trkpt lat="45.6454" lon="6.52073">
        <ele>2089</ele>
        <time>2022-07-16T06:24:55Z</time>
      </trkpt>
      <trkpt lat="45.64542" lon="6.52072">
        <ele>2089</ele>
        <time>2022-07-16T06:24:57Z</time>
      </trkpt>
      <trkpt lat="45.64544" lon="6.52071">
        <ele>2088</ele>
        <time>2022-07-16T06:25:00Z</time>
      </trkpt>
      <trkpt lat="45.64545" lon="6.52072">
        <ele>2089</ele>
        <time>2022-07-16T06:25:02Z</time>
      </trkpt>
      <trkpt lat="45.64547" lon="6.52074">
        <ele>2089</ele>
        <time>2022-07-16T06:25:04Z</time>
      </trkpt>
      <trkpt lat="45.64549" lon="6.52075">
        <ele>2089</ele>
        <time>2022-07-16T06:25:07Z</time>
      </trkpt>
      <trkpt lat="45.64551" lon="6.52077">
        <ele>2089</ele>
        <time>2022-07-16T06:25:10Z</time>
      </trkpt>
      <trkpt lat="45.64553" lon="6.52078">
        <ele>2088</ele>
        <time>2022-07-16T06:25:12Z</time>
      </trkpt>
      <trkpt lat="45.64554" lon="6.5208">
        <ele>2088</ele>
        <time>2022-07-16T06:25:14Z</time>
      </trkpt>
      <trkpt lat="45.64556" lon="6.52082">
        <ele>2088</ele>
        <time>2022-07-16T06:25:16Z</time>
      </trkpt>
      <trkpt lat="45.64558" lon="6.52083">
        <ele>2088</ele>
        <time>2022-07-16T06:25:19Z</time>
      </trkpt>
      <trkpt lat="45.6456" lon="6.52085">
        <ele>2088</ele>
        <time>2022-07-16T06:25:21Z</time>
      </trkpt>
      <trkpt lat="45.64562" lon="6.52086">
        <ele>2087</ele>
        <time>2022-07-16T06:25:24Z</time>
      </trkpt>
      <trkpt lat="45.64564" lon="6.52087">
        <ele>2087</ele>
        <time>2022-07-16T06:25:26Z</time>
      </trkpt>
      <trkpt lat="45.64565" lon="6.52089">
        <ele>2087</ele>
        <time>2022-07-16T06:25:29Z</time>
      </trkpt>
      <trkpt lat="45.64567" lon="6.5209">
        <ele>2086</ele>
        <time>2022-07-16T06:25:31Z</time>
      </trkpt>
      <trkpt lat="45.64569" lon="6.52092">
        <ele>2086</ele>
        <time>2022-07-16T06:25:33Z</time>
      </trkpt>
      <trkpt lat="45.64571" lon="6.52093">
        <ele>2085</ele>
        <time>2022-07-16T06:25:35Z</time>
      </trkpt>
      <trkpt lat="45.64573" lon="6.52095">
        <ele>2085</ele>
        <time>2022-07-16T06:25:37Z</time>
      </trkpt>
      <trkpt lat="45.64575" lon="6.52096">
        <ele>2085</ele>
        <time>2022-07-16T06:25:39Z</time>
      </trkpt>
      <trkpt lat="45.64577" lon="6.52096">
        <ele>2084</ele>
        <time>2022-07-16T06:25:41Z</time>
      </trkpt>
      <trkpt lat="45.64579" lon="6.52096">
        <ele>2084</ele>
        <time>2022-07-16T06:25:43Z</time>
      </trkpt>
      <trkpt lat="45.64582" lon="6.52097">
        <ele>2084</ele>
        <time>2022-07-16T06:25:45Z</time>
      </trkpt>
      <trkpt lat="45.64584" lon="6.52097">
        <ele>2084</ele>
        <time>2022-07-16T06:25:47Z</time>
      </trkpt>
      <trkpt lat="45.64586" lon="6.52098">
        <ele>2083</ele>
        <time>2022-07-16T06:25:49Z</time>
      </trkpt>
      <trkpt lat="45.64589" lon="6.52099">
        <ele>2083</ele>
        <time>2022-07-16T06:25:51Z</time>
      </trkpt>
      <trkpt lat="45.64591" lon="6.521">
        <ele>2083</ele>
        <time>2022-07-16T06:25:53Z</time>
      </trkpt>
      <trkpt lat="45.64593" lon="6.521">
        <ele>2083</ele>
        <time>2022-07-16T06:25:55Z</time>
      </trkpt>
      <trkpt lat="45.64595" lon="6.52099">
        <ele>2084</ele>
        <time>2022-07-16T06:25:58Z</time>
      </trkpt>
      <trkpt lat="45.64598" lon="6.521">
        <ele>2084</ele>
        <time>2022-07-16T06:26:00Z</time>
      </trkpt>
      <trkpt lat="45.646" lon="6.52101">
        <ele>2084</ele>
        <time>2022-07-16T06:26:02Z</time>
      </trkpt>
      <trkpt lat="45.64601" lon="6.52102">
        <ele>2084</ele>
        <time>2022-07-16T06:26:04Z</time>
      </trkpt>
      <trkpt lat="45.64604" lon="6.52103">
        <ele>2084</ele>
        <time>2022-07-16T06:26:07Z</time>
      </trkpt>
      <trkpt lat="45.64606" lon="6.52105">
        <ele>2084</ele>
        <time>2022-07-16T06:26:09Z</time>
      </trkpt>
      <trkpt lat="45.64608" lon="6.52106">
        <ele>2084</ele>
        <time>2022-07-16T06:26:11Z</time>
      </trkpt>
      <trkpt lat="45.6461" lon="6.52107">
        <ele>2084</ele>
        <time>2022-07-16T06:26:13Z</time>
      </trkpt>
      <trkpt lat="45.64612" lon="6.52109">
        <ele>2084</ele>
        <time>2022-07-16T06:26:16Z</time>
      </trkpt>
      <trkpt lat="45.64614" lon="6.5211">
        <ele>2084</ele>
        <time>2022-07-16T06:26:18Z</time>
      </trkpt>
      <trkpt lat="45.64617" lon="6.52112">
        <ele>2084</ele>
        <time>2022-07-16T06:26:20Z</time>
      </trkpt>
      <trkpt lat="45.64619" lon="6.52113">
        <ele>2084</ele>
        <time>2022-07-16T06:26:22Z</time>
      </trkpt>
      <trkpt lat="45.6462" lon="6.52114">
        <ele>2085</ele>
        <time>2022-07-16T06:26:24Z</time>
      </trkpt>
      <trkpt lat="45.64623" lon="6.52114">
        <ele>2085</ele>
        <time>2022-07-16T06:26:27Z</time>
      </trkpt>
      <trkpt lat="45.64626" lon="6.52114">
        <ele>2086</ele>
        <time>2022-07-16T06:26:30Z</time>
      </trkpt>
      <trkpt lat="45.64628" lon="6.52115">
        <ele>2086</ele>
        <time>2022-07-16T06:26:33Z</time>
      </trkpt>
      <trkpt lat="45.6463" lon="6.52115">
        <ele>2086</ele>
        <time>2022-07-16T06:26:35Z</time>
      </trkpt>
      <trkpt lat="45.64632" lon="6.52115">
        <ele>2087</ele>
        <time>2022-07-16T06:26:37Z</time>
      </trkpt>
      <trkpt lat="45.64634" lon="6.52114">
        <ele>2087</ele>
        <time>2022-07-16T06:26:39Z</time>
      </trkpt>
      <trkpt lat="45.64637" lon="6.52114">
        <ele>2087</ele>
        <time>2022-07-16T06:26:41Z</time>
      </trkpt>
      <trkpt lat="45.64639" lon="6.52116">
        <ele>2088</ele>
        <time>2022-07-16T06:26:44Z</time>
      </trkpt>
      <trkpt lat="45.6464" lon="6.52118">
        <ele>2088</ele>
        <time>2022-07-16T06:26:46Z</time>
      </trkpt>
      <trkpt lat="45.64641" lon="6.5212">
        <ele>2089</ele>
        <time>2022-07-16T06:26:49Z</time>
      </trkpt>
      <trkpt lat="45.64643" lon="6.52122">
        <ele>2090</ele>
        <time>2022-07-16T06:26:52Z</time>
      </trkpt>
      <trkpt lat="45.64645" lon="6.52123">
        <ele>2090</ele>
        <time>2022-07-16T06:26:55Z</time>
      </trkpt>
      <trkpt lat="45.64647" lon="6.52124">
        <ele>2090</ele>
        <time>2022-07-16T06:26:58Z</time>
      </trkpt>
      <trkpt lat="45.64649" lon="6.52124">
        <ele>2090</ele>
        <time>2022-07-16T06:27:00Z</time>
      </trkpt>
      <trkpt lat="45.64651" lon="6.52124">
        <ele>2092</ele>
        <time>2022-07-16T06:27:03Z</time>
      </trkpt>
      <trkpt lat="45.64652" lon="6.52126">
        <ele>2093</ele>
        <time>2022-07-16T06:27:08Z</time>
      </trkpt>
      <trkpt lat="45.64652" lon="6.52129">
        <ele>2093</ele>
        <time>2022-07-16T06:27:11Z</time>
      </trkpt>
      <trkpt lat="45.64653" lon="6.52132">
        <ele>2094</ele>
        <time>2022-07-16T06:27:15Z</time>
      </trkpt>
      <trkpt lat="45.64655" lon="6.52132">
        <ele>2094</ele>
        <time>2022-07-16T06:27:18Z</time>
      </trkpt>
      <trkpt lat="45.64657" lon="6.52134">
        <ele>2094</ele>
        <time>2022-07-16T06:27:20Z</time>
      </trkpt>
      <trkpt lat="45.6466" lon="6.52135">
        <ele>2095</ele>
        <time>2022-07-16T06:27:23Z</time>
      </trkpt>
      <trkpt lat="45.64661" lon="6.52137">
        <ele>2095</ele>
        <time>2022-07-16T06:27:26Z</time>
      </trkpt>
      <trkpt lat="45.64662" lon="6.52139">
        <ele>2095</ele>
        <time>2022-07-16T06:27:29Z</time>
      </trkpt>
      <trkpt lat="45.64662" lon="6.52143">
        <ele>2097</ele>
        <time>2022-07-16T06:27:32Z</time>
      </trkpt>
      <trkpt lat="45.64662" lon="6.52146">
        <ele>2098</ele>
        <time>2022-07-16T06:27:35Z</time>
      </trkpt>
      <trkpt lat="45.64663" lon="6.52149">
        <ele>2098</ele>
        <time>2022-07-16T06:27:38Z</time>
      </trkpt>
      <trkpt lat="45.64663" lon="6.52152">
        <ele>2098</ele>
        <time>2022-07-16T06:27:42Z</time>
      </trkpt>
      <trkpt lat="45.64664" lon="6.52155">
        <ele>2099</ele>
        <time>2022-07-16T06:27:45Z</time>
      </trkpt>
      <trkpt lat="45.64664" lon="6.52158">
        <ele>2100</ele>
        <time>2022-07-16T06:27:48Z</time>
      </trkpt>
      <trkpt lat="45.64665" lon="6.52161">
        <ele>2100</ele>
        <time>2022-07-16T06:27:51Z</time>
      </trkpt>
      <trkpt lat="45.64666" lon="6.52163">
        <ele>2100</ele>
        <time>2022-07-16T06:27:53Z</time>
      </trkpt>
      <trkpt lat="45.64668" lon="6.52165">
        <ele>2100</ele>
        <time>2022-07-16T06:27:55Z</time>
      </trkpt>
      <trkpt lat="45.64669" lon="6.52169">
        <ele>2100</ele>
        <time>2022-07-16T06:27:57Z</time>
      </trkpt>
      <trkpt lat="45.64669" lon="6.52172">
        <ele>2099</ele>
        <time>2022-07-16T06:27:59Z</time>
      </trkpt>
      <trkpt lat="45.64668" lon="6.52175">
        <ele>2100</ele>
        <time>2022-07-16T06:28:02Z</time>
      </trkpt>
      <trkpt lat="45.64668" lon="6.52179">
        <ele>2101</ele>
        <time>2022-07-16T06:28:05Z</time>
      </trkpt>
      <trkpt lat="45.64668" lon="6.52182">
        <ele>2101</ele>
        <time>2022-07-16T06:28:09Z</time>
      </trkpt>
      <trkpt lat="45.6467" lon="6.52184">
        <ele>2103</ele>
        <time>2022-07-16T06:28:11Z</time>
      </trkpt>
      <trkpt lat="45.64672" lon="6.52186">
        <ele>2103</ele>
        <time>2022-07-16T06:28:14Z</time>
      </trkpt>
      <trkpt lat="45.64675" lon="6.52188">
        <ele>2103</ele>
        <time>2022-07-16T06:28:17Z</time>
      </trkpt>
      <trkpt lat="45.64677" lon="6.52189">
        <ele>2103</ele>
        <time>2022-07-16T06:28:19Z</time>
      </trkpt>
      <trkpt lat="45.64678" lon="6.5219">
        <ele>2103</ele>
        <time>2022-07-16T06:28:21Z</time>
      </trkpt>
      <trkpt lat="45.6468" lon="6.52193">
        <ele>2104</ele>
        <time>2022-07-16T06:28:23Z</time>
      </trkpt>
      <trkpt lat="45.64681" lon="6.52196">
        <ele>2105</ele>
        <time>2022-07-16T06:28:26Z</time>
      </trkpt>
      <trkpt lat="45.64683" lon="6.52196">
        <ele>2106</ele>
        <time>2022-07-16T06:28:28Z</time>
      </trkpt>
      <trkpt lat="45.64685" lon="6.52197">
        <ele>2106</ele>
        <time>2022-07-16T06:28:30Z</time>
      </trkpt>
      <trkpt lat="45.64687" lon="6.52198">
        <ele>2105</ele>
        <time>2022-07-16T06:28:32Z</time>
      </trkpt>
      <trkpt lat="45.64689" lon="6.52198">
        <ele>2105</ele>
        <time>2022-07-16T06:28:35Z</time>
      </trkpt>
      <trkpt lat="45.64691" lon="6.52197">
        <ele>2106</ele>
        <time>2022-07-16T06:28:37Z</time>
      </trkpt>
      <trkpt lat="45.64693" lon="6.52197">
        <ele>2107</ele>
        <time>2022-07-16T06:28:40Z</time>
      </trkpt>
      <trkpt lat="45.64696" lon="6.52198">
        <ele>2108</ele>
        <time>2022-07-16T06:28:44Z</time>
      </trkpt>
      <trkpt lat="45.64698" lon="6.52198">
        <ele>2109</ele>
        <time>2022-07-16T06:28:48Z</time>
      </trkpt>
      <trkpt lat="45.647" lon="6.52198">
        <ele>2109</ele>
        <time>2022-07-16T06:28:52Z</time>
      </trkpt>
      <trkpt lat="45.64702" lon="6.52197">
        <ele>2110</ele>
        <time>2022-07-16T06:28:55Z</time>
      </trkpt>
      <trkpt lat="45.64704" lon="6.52197">
        <ele>2111</ele>
        <time>2022-07-16T06:28:58Z</time>
      </trkpt>
      <trkpt lat="45.64706" lon="6.52196">
        <ele>2111</ele>
        <time>2022-07-16T06:29:01Z</time>
      </trkpt>
      <trkpt lat="45.64708" lon="6.52196">
        <ele>2112</ele>
        <time>2022-07-16T06:29:03Z</time>
      </trkpt>
      <trkpt lat="45.6471" lon="6.52196">
        <ele>2112</ele>
        <time>2022-07-16T06:29:06Z</time>
      </trkpt>
      <trkpt lat="45.64712" lon="6.52195">
        <ele>2112</ele>
        <time>2022-07-16T06:29:09Z</time>
      </trkpt>
      <trkpt lat="45.64714" lon="6.52196">
        <ele>2114</ele>
        <time>2022-07-16T06:29:12Z</time>
      </trkpt>
      <trkpt lat="45.64716" lon="6.52197">
        <ele>2114</ele>
        <time>2022-07-16T06:29:15Z</time>
      </trkpt>
      <trkpt lat="45.64719" lon="6.52196">
        <ele>2115</ele>
        <time>2022-07-16T06:29:18Z</time>
      </trkpt>
      <trkpt lat="45.64721" lon="6.52195">
        <ele>2115</ele>
        <time>2022-07-16T06:29:21Z</time>
      </trkpt>
      <trkpt lat="45.64723" lon="6.52195">
        <ele>2116</ele>
        <time>2022-07-16T06:29:23Z</time>
      </trkpt>
      <trkpt lat="45.64726" lon="6.52195">
        <ele>2118</ele>
        <time>2022-07-16T06:29:26Z</time>
      </trkpt>
      <trkpt lat="45.64728" lon="6.52194">
        <ele>2118</ele>
        <time>2022-07-16T06:29:28Z</time>
      </trkpt>
      <trkpt lat="45.6473" lon="6.52194">
        <ele>2119</ele>
        <time>2022-07-16T06:29:30Z</time>
      </trkpt>
      <trkpt lat="45.64732" lon="6.52193">
        <ele>2119</ele>
        <time>2022-07-16T06:29:32Z</time>
      </trkpt>
      <trkpt lat="45.64734" lon="6.52193">
        <ele>2119</ele>
        <time>2022-07-16T06:29:35Z</time>
      </trkpt>
      <trkpt lat="45.64736" lon="6.52193">
        <ele>2120</ele>
        <time>2022-07-16T06:29:37Z</time>
      </trkpt>
      <trkpt lat="45.64737" lon="6.52192">
        <ele>2120</ele>
        <time>2022-07-16T06:29:39Z</time>
      </trkpt>
      <trkpt lat="45.64739" lon="6.52189">
        <ele>2120</ele>
        <time>2022-07-16T06:29:41Z</time>
      </trkpt>
      <trkpt lat="45.64742" lon="6.52189">
        <ele>2120</ele>
        <time>2022-07-16T06:29:43Z</time>
      </trkpt>
      <trkpt lat="45.64744" lon="6.52189">
        <ele>2120</ele>
        <time>2022-07-16T06:29:46Z</time>
      </trkpt>
      <trkpt lat="45.64745" lon="6.52189">
        <ele>2121</ele>
        <time>2022-07-16T06:29:47Z</time>
      </trkpt>
      <trkpt lat="45.64746" lon="6.52189">
        <ele>2121</ele>
        <time>2022-07-16T06:29:48Z</time>
      </trkpt>
      <trkpt lat="45.64747" lon="6.52189">
        <ele>2121</ele>
        <time>2022-07-16T06:29:49Z</time>
      </trkpt>
      <trkpt lat="45.64748" lon="6.52189">
        <ele>2122</ele>
        <time>2022-07-16T06:29:50Z</time>
      </trkpt>
      <trkpt lat="45.64749" lon="6.52189">
        <ele>2122</ele>
        <time>2022-07-16T06:29:51Z</time>
      </trkpt>
      <trkpt lat="45.6475" lon="6.52189">
        <ele>2122</ele>
        <time>2022-07-16T06:29:52Z</time>
      </trkpt>
      <trkpt lat="45.64751" lon="6.52189">
        <ele>2122</ele>
        <time>2022-07-16T06:29:53Z</time>
      </trkpt>
      <trkpt lat="45.64752" lon="6.52189">
        <ele>2122</ele>
        <time>2022-07-16T06:29:54Z</time>
      </trkpt>
      <trkpt lat="45.64753" lon="6.52189">
        <ele>2123</ele>
        <time>2022-07-16T06:29:56Z</time>
      </trkpt>
      <trkpt lat="45.64754" lon="6.52189">
        <ele>2123</ele>
        <time>2022-07-16T06:29:57Z</time>
      </trkpt>
      <trkpt lat="45.64755" lon="6.52189">
        <ele>2123</ele>
        <time>2022-07-16T06:29:58Z</time>
      </trkpt>
      <trkpt lat="45.64756" lon="6.52189">
        <ele>2123</ele>
        <time>2022-07-16T06:29:59Z</time>
      </trkpt>
      <trkpt lat="45.64757" lon="6.52188">
        <ele>2123</ele>
        <time>2022-07-16T06:30:00Z</time>
      </trkpt>
      <trkpt lat="45.64758" lon="6.52188">
        <ele>2123</ele>
        <time>2022-07-16T06:30:01Z</time>
      </trkpt>
      <trkpt lat="45.6476" lon="6.52188">
        <ele>2123</ele>
        <time>2022-07-16T06:30:03Z</time>
      </trkpt>
      <trkpt lat="45.64761" lon="6.52188">
        <ele>2124</ele>
        <time>2022-07-16T06:30:04Z</time>
      </trkpt>
      <trkpt lat="45.64762" lon="6.52187">
        <ele>2124</ele>
        <time>2022-07-16T06:30:06Z</time>
      </trkpt>
      <trkpt lat="45.64764" lon="6.52185">
        <ele>2125</ele>
        <time>2022-07-16T06:30:08Z</time>
      </trkpt>
      <trkpt lat="45.64765" lon="6.52183">
        <ele>2125</ele>
        <time>2022-07-16T06:30:10Z</time>
      </trkpt>
      <trkpt lat="45.64767" lon="6.52181">
        <ele>2125</ele>
        <time>2022-07-16T06:30:12Z</time>
      </trkpt>
      <trkpt lat="45.64769" lon="6.52179">
        <ele>2126</ele>
        <time>2022-07-16T06:30:14Z</time>
      </trkpt>
      <trkpt lat="45.6477" lon="6.52176">
        <ele>2126</ele>
        <time>2022-07-16T06:30:16Z</time>
      </trkpt>
      <trkpt lat="45.64772" lon="6.52173">
        <ele>2126</ele>
        <time>2022-07-16T06:30:18Z</time>
      </trkpt>
      <trkpt lat="45.64773" lon="6.5217">
        <ele>2126</ele>
        <time>2022-07-16T06:30:20Z</time>
      </trkpt>
      <trkpt lat="45.64774" lon="6.52166">
        <ele>2126</ele>
        <time>2022-07-16T06:30:22Z</time>
      </trkpt>
      <trkpt lat="45.64775" lon="6.52162">
        <ele>2127</ele>
        <time>2022-07-16T06:30:24Z</time>
      </trkpt>
      <trkpt lat="45.64776" lon="6.52159">
        <ele>2127</ele>
        <time>2022-07-16T06:30:26Z</time>
      </trkpt>
      <trkpt lat="45.64777" lon="6.52156">
        <ele>2127</ele>
        <time>2022-07-16T06:30:28Z</time>
      </trkpt>
      <trkpt lat="45.64778" lon="6.52153">
        <ele>2127</ele>
        <time>2022-07-16T06:30:30Z</time>
      </trkpt>
      <trkpt lat="45.64779" lon="6.52149">
        <ele>2127</ele>
        <time>2022-07-16T06:30:32Z</time>
      </trkpt>
      <trkpt lat="45.64779" lon="6.52145">
        <ele>2127</ele>
        <time>2022-07-16T06:30:34Z</time>
      </trkpt>
      <trkpt lat="45.64779" lon="6.52141">
        <ele>2127</ele>
        <time>2022-07-16T06:30:36Z</time>
      </trkpt>
      <trkpt lat="45.6478" lon="6.52137">
        <ele>2127</ele>
        <time>2022-07-16T06:30:38Z</time>
      </trkpt>
      <trkpt lat="45.64781" lon="6.52134">
        <ele>2127</ele>
        <time>2022-07-16T06:30:40Z</time>
      </trkpt>
      <trkpt lat="45.64783" lon="6.52132">
        <ele>2128</ele>
        <time>2022-07-16T06:30:42Z</time>
      </trkpt>
      <trkpt lat="45.64784" lon="6.52128">
        <ele>2128</ele>
        <time>2022-07-16T06:30:44Z</time>
      </trkpt>
      <trkpt lat="45.64786" lon="6.52127">
        <ele>2128</ele>
        <time>2022-07-16T06:30:46Z</time>
      </trkpt>
      <trkpt lat="45.64788" lon="6.52125">
        <ele>2128</ele>
        <time>2022-07-16T06:30:48Z</time>
      </trkpt>
      <trkpt lat="45.6479" lon="6.52123">
        <ele>2128</ele>
        <time>2022-07-16T06:30:50Z</time>
      </trkpt>
      <trkpt lat="45.64792" lon="6.5212">
        <ele>2128</ele>
        <time>2022-07-16T06:30:52Z</time>
      </trkpt>
      <trkpt lat="45.64793" lon="6.52117">
        <ele>2128</ele>
        <time>2022-07-16T06:30:54Z</time>
      </trkpt>
      <trkpt lat="45.64794" lon="6.52114">
        <ele>2128</ele>
        <time>2022-07-16T06:30:56Z</time>
      </trkpt>
      <trkpt lat="45.64796" lon="6.52111">
        <ele>2128</ele>
        <time>2022-07-16T06:30:58Z</time>
      </trkpt>
      <trkpt lat="45.64797" lon="6.52108">
        <ele>2128</ele>
        <time>2022-07-16T06:31:00Z</time>
      </trkpt>
      <trkpt lat="45.648" lon="6.52107">
        <ele>2129</ele>
        <time>2022-07-16T06:31:02Z</time>
      </trkpt>
      <trkpt lat="45.64802" lon="6.52106">
        <ele>2129</ele>
        <time>2022-07-16T06:31:04Z</time>
      </trkpt>
      <trkpt lat="45.64804" lon="6.52104">
        <ele>2130</ele>
        <time>2022-07-16T06:31:06Z</time>
      </trkpt>
      <trkpt lat="45.64806" lon="6.52103">
        <ele>2130</ele>
        <time>2022-07-16T06:31:08Z</time>
      </trkpt>
      <trkpt lat="45.64808" lon="6.52102">
        <ele>2130</ele>
        <time>2022-07-16T06:31:10Z</time>
      </trkpt>
      <trkpt lat="45.6481" lon="6.52101">
        <ele>2131</ele>
        <time>2022-07-16T06:31:12Z</time>
      </trkpt>
      <trkpt lat="45.64812" lon="6.52101">
        <ele>2131</ele>
        <time>2022-07-16T06:31:14Z</time>
      </trkpt>
      <trkpt lat="45.64814" lon="6.521">
        <ele>2132</ele>
        <time>2022-07-16T06:31:16Z</time>
      </trkpt>
      <trkpt lat="45.64816" lon="6.52098">
        <ele>2132</ele>
        <time>2022-07-16T06:31:18Z</time>
      </trkpt>
      <trkpt lat="45.64817" lon="6.52096">
        <ele>2132</ele>
        <time>2022-07-16T06:31:20Z</time>
      </trkpt>
      <trkpt lat="45.64819" lon="6.52095">
        <ele>2132</ele>
        <time>2022-07-16T06:31:21Z</time>
      </trkpt>
      <trkpt lat="45.6482" lon="6.52094">
        <ele>2132</ele>
        <time>2022-07-16T06:31:22Z</time>
      </trkpt>
      <trkpt lat="45.64822" lon="6.52093">
        <ele>2133</ele>
        <time>2022-07-16T06:31:24Z</time>
      </trkpt>
      <trkpt lat="45.64824" lon="6.52092">
        <ele>2133</ele>
        <time>2022-07-16T06:31:26Z</time>
      </trkpt>
      <trkpt lat="45.64826" lon="6.52093">
        <ele>2133</ele>
        <time>2022-07-16T06:31:29Z</time>
      </trkpt>
      <trkpt lat="45.64828" lon="6.52094">
        <ele>2134</ele>
        <time>2022-07-16T06:31:31Z</time>
      </trkpt>
      <trkpt lat="45.6483" lon="6.52096">
        <ele>2135</ele>
        <time>2022-07-16T06:31:33Z</time>
      </trkpt>
      <trkpt lat="45.64831" lon="6.52099">
        <ele>2136</ele>
        <time>2022-07-16T06:31:36Z</time>
      </trkpt>
      <trkpt lat="45.64832" lon="6.52102">
        <ele>2137</ele>
        <time>2022-07-16T06:31:39Z</time>
      </trkpt>
      <trkpt lat="45.64833" lon="6.52105">
        <ele>2137</ele>
        <time>2022-07-16T06:31:41Z</time>
      </trkpt>
      <trkpt lat="45.64834" lon="6.52109">
        <ele>2138</ele>
        <time>2022-07-16T06:31:44Z</time>
      </trkpt>
      <trkpt lat="45.64834" lon="6.52112">
        <ele>2138</ele>
        <time>2022-07-16T06:31:47Z</time>
      </trkpt>
      <trkpt lat="45.64835" lon="6.52115">
        <ele>2139</ele>
        <time>2022-07-16T06:31:49Z</time>
      </trkpt>
      <trkpt lat="45.64835" lon="6.52118">
        <ele>2140</ele>
        <time>2022-07-16T06:31:52Z</time>
      </trkpt>
      <trkpt lat="45.64838" lon="6.52119">
        <ele>2141</ele>
        <time>2022-07-16T06:31:56Z</time>
      </trkpt>
      <trkpt lat="45.6484" lon="6.52119">
        <ele>2142</ele>
        <time>2022-07-16T06:31:59Z</time>
      </trkpt>
      <trkpt lat="45.64842" lon="6.52117">
        <ele>2144</ele>
        <time>2022-07-16T06:32:02Z</time>
      </trkpt>
      <trkpt lat="45.64844" lon="6.52115">
        <ele>2144</ele>
        <time>2022-07-16T06:32:04Z</time>
      </trkpt>
      <trkpt lat="45.64845" lon="6.52114">
        <ele>2144</ele>
        <time>2022-07-16T06:32:06Z</time>
      </trkpt>
      <trkpt lat="45.64847" lon="6.52112">
        <ele>2144</ele>
        <time>2022-07-16T06:32:08Z</time>
      </trkpt>
      <trkpt lat="45.64848" lon="6.52109">
        <ele>2145</ele>
        <time>2022-07-16T06:32:11Z</time>
      </trkpt>
      <trkpt lat="45.64849" lon="6.52106">
        <ele>2146</ele>
        <time>2022-07-16T06:32:14Z</time>
      </trkpt>
      <trkpt lat="45.6485" lon="6.52104">
        <ele>2146</ele>
        <time>2022-07-16T06:32:17Z</time>
      </trkpt>
      <trkpt lat="45.64852" lon="6.52101">
        <ele>2147</ele>
        <time>2022-07-16T06:32:20Z</time>
      </trkpt>
      <trkpt lat="45.64853" lon="6.521">
        <ele>2149</ele>
        <time>2022-07-16T06:32:23Z</time>
      </trkpt>
      <trkpt lat="45.64855" lon="6.52097">
        <ele>2149</ele>
        <time>2022-07-16T06:32:26Z</time>
      </trkpt>
      <trkpt lat="45.64856" lon="6.52095">
        <ele>2149</ele>
        <time>2022-07-16T06:32:29Z</time>
      </trkpt>
      <trkpt lat="45.64857" lon="6.52092">
        <ele>2149</ele>
        <time>2022-07-16T06:32:32Z</time>
      </trkpt>
      <trkpt lat="45.64859" lon="6.52091">
        <ele>2151</ele>
        <time>2022-07-16T06:32:36Z</time>
      </trkpt>
      <trkpt lat="45.6486" lon="6.5209">
        <ele>2151</ele>
        <time>2022-07-16T06:32:39Z</time>
      </trkpt>
      <trkpt lat="45.64862" lon="6.52087">
        <ele>2152</ele>
        <time>2022-07-16T06:32:41Z</time>
      </trkpt>
      <trkpt lat="45.64862" lon="6.52086">
        <ele>2152</ele>
        <time>2022-07-16T06:32:43Z</time>
      </trkpt>
      <trkpt lat="45.64863" lon="6.52085">
        <ele>2153</ele>
        <time>2022-07-16T06:32:44Z</time>
      </trkpt>
      <trkpt lat="45.64863" lon="6.52084">
        <ele>2153</ele>
        <time>2022-07-16T06:32:45Z</time>
      </trkpt>
      <trkpt lat="45.64864" lon="6.52083">
        <ele>2153</ele>
        <time>2022-07-16T06:32:46Z</time>
      </trkpt>
      <trkpt lat="45.64865" lon="6.5208">
        <ele>2154</ele>
        <time>2022-07-16T06:32:51Z</time>
      </trkpt>
      <trkpt lat="45.64866" lon="6.52078">
        <ele>2154</ele>
        <time>2022-07-16T06:32:54Z</time>
      </trkpt>
      <trkpt lat="45.64868" lon="6.52076">
        <ele>2155</ele>
        <time>2022-07-16T06:32:58Z</time>
      </trkpt>
      <trkpt lat="45.64869" lon="6.52074">
        <ele>2156</ele>
        <time>2022-07-16T06:33:01Z</time>
      </trkpt>
      <trkpt lat="45.6487" lon="6.52072">
        <ele>2156</ele>
        <time>2022-07-16T06:33:04Z</time>
      </trkpt>
      <trkpt lat="45.64872" lon="6.52071">
        <ele>2157</ele>
        <time>2022-07-16T06:33:07Z</time>
      </trkpt>
      <trkpt lat="45.64874" lon="6.52069">
        <ele>2158</ele>
        <time>2022-07-16T06:33:10Z</time>
      </trkpt>
      <trkpt lat="45.64875" lon="6.52067">
        <ele>2159</ele>
        <time>2022-07-16T06:33:13Z</time>
      </trkpt>
      <trkpt lat="45.64877" lon="6.52065">
        <ele>2159</ele>
        <time>2022-07-16T06:33:16Z</time>
      </trkpt>
      <trkpt lat="45.64878" lon="6.52063">
        <ele>2160</ele>
        <time>2022-07-16T06:33:19Z</time>
      </trkpt>
      <trkpt lat="45.64881" lon="6.52061">
        <ele>2160</ele>
        <time>2022-07-16T06:33:22Z</time>
      </trkpt>
      <trkpt lat="45.64882" lon="6.52059">
        <ele>2160</ele>
        <time>2022-07-16T06:33:25Z</time>
      </trkpt>
      <trkpt lat="45.64884" lon="6.52057">
        <ele>2161</ele>
        <time>2022-07-16T06:33:28Z</time>
      </trkpt>
      <trkpt lat="45.64887" lon="6.52057">
        <ele>2162</ele>
        <time>2022-07-16T06:33:31Z</time>
      </trkpt>
      <trkpt lat="45.64888" lon="6.5206">
        <ele>2163</ele>
        <time>2022-07-16T06:33:34Z</time>
      </trkpt>
      <trkpt lat="45.64888" lon="6.52062">
        <ele>2163</ele>
        <time>2022-07-16T06:33:37Z</time>
      </trkpt>
      <trkpt lat="45.64889" lon="6.52065">
        <ele>2164</ele>
        <time>2022-07-16T06:33:41Z</time>
      </trkpt>
      <trkpt lat="45.6489" lon="6.52068">
        <ele>2165</ele>
        <time>2022-07-16T06:33:44Z</time>
      </trkpt>
      <trkpt lat="45.64891" lon="6.5207">
        <ele>2165</ele>
        <time>2022-07-16T06:33:47Z</time>
      </trkpt>
      <trkpt lat="45.64892" lon="6.52072">
        <ele>2165</ele>
        <time>2022-07-16T06:33:50Z</time>
      </trkpt>
      <trkpt lat="45.64893" lon="6.52075">
        <ele>2167</ele>
        <time>2022-07-16T06:33:54Z</time>
      </trkpt>
      <trkpt lat="45.64894" lon="6.52078">
        <ele>2168</ele>
        <time>2022-07-16T06:33:57Z</time>
      </trkpt>
      <trkpt lat="45.64896" lon="6.5208">
        <ele>2168</ele>
        <time>2022-07-16T06:34:00Z</time>
      </trkpt>
      <trkpt lat="45.64897" lon="6.52083">
        <ele>2170</ele>
        <time>2022-07-16T06:34:03Z</time>
      </trkpt>
      <trkpt lat="45.64898" lon="6.52086">
        <ele>2171</ele>
        <time>2022-07-16T06:34:06Z</time>
      </trkpt>
      <trkpt lat="45.649" lon="6.52088">
        <ele>2171</ele>
        <time>2022-07-16T06:34:09Z</time>
      </trkpt>
      <trkpt lat="45.649" lon="6.52091">
        <ele>2171</ele>
        <time>2022-07-16T06:34:12Z</time>
      </trkpt>
      <trkpt lat="45.64901" lon="6.52094">
        <ele>2172</ele>
        <time>2022-07-16T06:34:15Z</time>
      </trkpt>
      <trkpt lat="45.64902" lon="6.52097">
        <ele>2172</ele>
        <time>2022-07-16T06:34:18Z</time>
      </trkpt>
      <trkpt lat="45.64903" lon="6.52099">
        <ele>2173</ele>
        <time>2022-07-16T06:34:21Z</time>
      </trkpt>
      <trkpt lat="45.64904" lon="6.52103">
        <ele>2174</ele>
        <time>2022-07-16T06:34:24Z</time>
      </trkpt>
      <trkpt lat="45.64906" lon="6.52105">
        <ele>2174</ele>
        <time>2022-07-16T06:34:27Z</time>
      </trkpt>
      <trkpt lat="45.64907" lon="6.52107">
        <ele>2175</ele>
        <time>2022-07-16T06:34:30Z</time>
      </trkpt>
      <trkpt lat="45.64908" lon="6.5211">
        <ele>2176</ele>
        <time>2022-07-16T06:34:33Z</time>
      </trkpt>
      <trkpt lat="45.64909" lon="6.52113">
        <ele>2176</ele>
        <time>2022-07-16T06:34:36Z</time>
      </trkpt>
      <trkpt lat="45.6491" lon="6.52115">
        <ele>2177</ele>
        <time>2022-07-16T06:34:40Z</time>
      </trkpt>
      <trkpt lat="45.64911" lon="6.52118">
        <ele>2177</ele>
        <time>2022-07-16T06:34:43Z</time>
      </trkpt>
      <trkpt lat="45.64912" lon="6.52121">
        <ele>2179</ele>
        <time>2022-07-16T06:34:46Z</time>
      </trkpt>
      <trkpt lat="45.64913" lon="6.52123">
        <ele>2179</ele>
        <time>2022-07-16T06:34:49Z</time>
      </trkpt>
      <trkpt lat="45.64915" lon="6.52126">
        <ele>2179</ele>
        <time>2022-07-16T06:34:52Z</time>
      </trkpt>
      <trkpt lat="45.64915" lon="6.52128">
        <ele>2180</ele>
        <time>2022-07-16T06:34:55Z</time>
      </trkpt>
      <trkpt lat="45.64917" lon="6.52131">
        <ele>2180</ele>
        <time>2022-07-16T06:34:59Z</time>
      </trkpt>
      <trkpt lat="45.64918" lon="6.52134">
        <ele>2182</ele>
        <time>2022-07-16T06:35:03Z</time>
      </trkpt>
      <trkpt lat="45.64919" lon="6.52137">
        <ele>2182</ele>
        <time>2022-07-16T06:35:07Z</time>
      </trkpt>
      <trkpt lat="45.6492" lon="6.5214">
        <ele>2183</ele>
        <time>2022-07-16T06:35:11Z</time>
      </trkpt>
      <trkpt lat="45.6492" lon="6.52143">
        <ele>2184</ele>
        <time>2022-07-16T06:35:16Z</time>
      </trkpt>
      <trkpt lat="45.64921" lon="6.52146">
        <ele>2185</ele>
        <time>2022-07-16T06:35:19Z</time>
      </trkpt>
      <trkpt lat="45.64921" lon="6.52149">
        <ele>2185</ele>
        <time>2022-07-16T06:35:23Z</time>
      </trkpt>
      <trkpt lat="45.64922" lon="6.52152">
        <ele>2186</ele>
        <time>2022-07-16T06:35:26Z</time>
      </trkpt>
      <trkpt lat="45.64923" lon="6.52154">
        <ele>2187</ele>
        <time>2022-07-16T06:35:29Z</time>
      </trkpt>
      <trkpt lat="45.64924" lon="6.52156">
        <ele>2188</ele>
        <time>2022-07-16T06:35:32Z</time>
      </trkpt>
      <trkpt lat="45.64926" lon="6.52158">
        <ele>2188</ele>
        <time>2022-07-16T06:35:35Z</time>
      </trkpt>
      <trkpt lat="45.64928" lon="6.5216">
        <ele>2188</ele>
        <time>2022-07-16T06:35:38Z</time>
      </trkpt>
      <trkpt lat="45.64929" lon="6.52163">
        <ele>2188</ele>
        <time>2022-07-16T06:35:40Z</time>
      </trkpt>
      <trkpt lat="45.6493" lon="6.52166">
        <ele>2189</ele>
        <time>2022-07-16T06:35:43Z</time>
      </trkpt>
      <trkpt lat="45.64931" lon="6.52169">
        <ele>2190</ele>
        <time>2022-07-16T06:35:46Z</time>
      </trkpt>
      <trkpt lat="45.64932" lon="6.52172">
        <ele>2190</ele>
        <time>2022-07-16T06:35:49Z</time>
      </trkpt>
      <trkpt lat="45.64934" lon="6.52175">
        <ele>2191</ele>
        <time>2022-07-16T06:35:52Z</time>
      </trkpt>
      <trkpt lat="45.64935" lon="6.52177">
        <ele>2192</ele>
        <time>2022-07-16T06:35:55Z</time>
      </trkpt>
      <trkpt lat="45.64936" lon="6.5218">
        <ele>2192</ele>
        <time>2022-07-16T06:35:58Z</time>
      </trkpt>
      <trkpt lat="45.64938" lon="6.52183">
        <ele>2192</ele>
        <time>2022-07-16T06:36:01Z</time>
      </trkpt>
      <trkpt lat="45.64939" lon="6.52187">
        <ele>2193</ele>
        <time>2022-07-16T06:36:04Z</time>
      </trkpt>
      <trkpt lat="45.64939" lon="6.52189">
        <ele>2194</ele>
        <time>2022-07-16T06:36:07Z</time>
      </trkpt>
      <trkpt lat="45.6494" lon="6.52192">
        <ele>2194</ele>
        <time>2022-07-16T06:36:10Z</time>
      </trkpt>
      <trkpt lat="45.64941" lon="6.52194">
        <ele>2194</ele>
        <time>2022-07-16T06:36:13Z</time>
      </trkpt>
      <trkpt lat="45.64942" lon="6.52197">
        <ele>2196</ele>
        <time>2022-07-16T06:36:16Z</time>
      </trkpt>
      <trkpt lat="45.64943" lon="6.522">
        <ele>2196</ele>
        <time>2022-07-16T06:36:19Z</time>
      </trkpt>
      <trkpt lat="45.64943" lon="6.52203">
        <ele>2197</ele>
        <time>2022-07-16T06:36:23Z</time>
      </trkpt>
      <trkpt lat="45.64944" lon="6.52206">
        <ele>2198</ele>
        <time>2022-07-16T06:36:25Z</time>
      </trkpt>
      <trkpt lat="45.64944" lon="6.52208">
        <ele>2199</ele>
        <time>2022-07-16T06:36:28Z</time>
      </trkpt>
      <trkpt lat="45.64944" lon="6.52212">
        <ele>2199</ele>
        <time>2022-07-16T06:36:31Z</time>
      </trkpt>
      <trkpt lat="45.64944" lon="6.52215">
        <ele>2200</ele>
        <time>2022-07-16T06:36:34Z</time>
      </trkpt>
      <trkpt lat="45.64943" lon="6.52218">
        <ele>2201</ele>
        <time>2022-07-16T06:36:37Z</time>
      </trkpt>
      <trkpt lat="45.64942" lon="6.52221">
        <ele>2201</ele>
        <time>2022-07-16T06:36:40Z</time>
      </trkpt>
      <trkpt lat="45.64941" lon="6.52224">
        <ele>2202</ele>
        <time>2022-07-16T06:36:43Z</time>
      </trkpt>
      <trkpt lat="45.6494" lon="6.52227">
        <ele>2202</ele>
        <time>2022-07-16T06:36:46Z</time>
      </trkpt>
      <trkpt lat="45.64939" lon="6.52229">
        <ele>2203</ele>
        <time>2022-07-16T06:36:49Z</time>
      </trkpt>
      <trkpt lat="45.64938" lon="6.52232">
        <ele>2204</ele>
        <time>2022-07-16T06:36:52Z</time>
      </trkpt>
      <trkpt lat="45.64938" lon="6.52235">
        <ele>2205</ele>
        <time>2022-07-16T06:36:55Z</time>
      </trkpt>
      <trkpt lat="45.64937" lon="6.52238">
        <ele>2206</ele>
        <time>2022-07-16T06:36:58Z</time>
      </trkpt>
      <trkpt lat="45.64937" lon="6.52241">
        <ele>2205</ele>
        <time>2022-07-16T06:37:01Z</time>
      </trkpt>
      <trkpt lat="45.64936" lon="6.52243">
        <ele>2206</ele>
        <time>2022-07-16T06:37:04Z</time>
      </trkpt>
      <trkpt lat="45.64935" lon="6.52246">
        <ele>2207</ele>
        <time>2022-07-16T06:37:07Z</time>
      </trkpt>
      <trkpt lat="45.64934" lon="6.52249">
        <ele>2207</ele>
        <time>2022-07-16T06:37:10Z</time>
      </trkpt>
      <trkpt lat="45.64934" lon="6.52252">
        <ele>2208</ele>
        <time>2022-07-16T06:37:13Z</time>
      </trkpt>
      <trkpt lat="45.64934" lon="6.52255">
        <ele>2208</ele>
        <time>2022-07-16T06:37:16Z</time>
      </trkpt>
      <trkpt lat="45.64934" lon="6.52258">
        <ele>2209</ele>
        <time>2022-07-16T06:37:20Z</time>
      </trkpt>
      <trkpt lat="45.64936" lon="6.52259">
        <ele>2210</ele>
        <time>2022-07-16T06:37:24Z</time>
      </trkpt>
      <trkpt lat="45.64938" lon="6.52259">
        <ele>2212</ele>
        <time>2022-07-16T06:37:27Z</time>
      </trkpt>
      <trkpt lat="45.6494" lon="6.5226">
        <ele>2212</ele>
        <time>2022-07-16T06:37:31Z</time>
      </trkpt>
      <trkpt lat="45.64942" lon="6.52261">
        <ele>2213</ele>
        <time>2022-07-16T06:37:34Z</time>
      </trkpt>
      <trkpt lat="45.64944" lon="6.52261">
        <ele>2213</ele>
        <time>2022-07-16T06:37:37Z</time>
      </trkpt>
      <trkpt lat="45.64946" lon="6.5226">
        <ele>2213</ele>
        <time>2022-07-16T06:37:40Z</time>
      </trkpt>
      <trkpt lat="45.64948" lon="6.5226">
        <ele>2214</ele>
        <time>2022-07-16T06:37:43Z</time>
      </trkpt>
      <trkpt lat="45.6495" lon="6.52259">
        <ele>2215</ele>
        <time>2022-07-16T06:37:46Z</time>
      </trkpt>
      <trkpt lat="45.64952" lon="6.52259">
        <ele>2216</ele>
        <time>2022-07-16T06:37:49Z</time>
      </trkpt>
      <trkpt lat="45.64954" lon="6.52261">
        <ele>2216</ele>
        <time>2022-07-16T06:37:52Z</time>
      </trkpt>
      <trkpt lat="45.64954" lon="6.52263">
        <ele>2216</ele>
        <time>2022-07-16T06:37:54Z</time>
      </trkpt>
      <trkpt lat="45.64953" lon="6.52266">
        <ele>2217</ele>
        <time>2022-07-16T06:37:58Z</time>
      </trkpt>
      <trkpt lat="45.64952" lon="6.52269">
        <ele>2217</ele>
        <time>2022-07-16T06:38:00Z</time>
      </trkpt>
      <trkpt lat="45.64952" lon="6.52272">
        <ele>2218</ele>
        <time>2022-07-16T06:38:03Z</time>
      </trkpt>
      <trkpt lat="45.64951" lon="6.52275">
        <ele>2219</ele>
        <time>2022-07-16T06:38:06Z</time>
      </trkpt>
      <trkpt lat="45.64951" lon="6.52278">
        <ele>2219</ele>
        <time>2022-07-16T06:38:09Z</time>
      </trkpt>
      <trkpt lat="45.64951" lon="6.5228">
        <ele>2222</ele>
        <time>2022-07-16T06:38:12Z</time>
      </trkpt>
      <trkpt lat="45.6495" lon="6.52284">
        <ele>2222</ele>
        <time>2022-07-16T06:38:17Z</time>
      </trkpt>
      <trkpt lat="45.6495" lon="6.52287">
        <ele>2222</ele>
        <time>2022-07-16T06:38:20Z</time>
      </trkpt>
      <trkpt lat="45.64951" lon="6.5229">
        <ele>2223</ele>
        <time>2022-07-16T06:38:24Z</time>
      </trkpt>
      <trkpt lat="45.64951" lon="6.52293">
        <ele>2225</ele>
        <time>2022-07-16T06:38:28Z</time>
      </trkpt>
      <trkpt lat="45.64951" lon="6.52296">
        <ele>2226</ele>
        <time>2022-07-16T06:38:32Z</time>
      </trkpt>
      <trkpt lat="45.64952" lon="6.52299">
        <ele>2226</ele>
        <time>2022-07-16T06:38:36Z</time>
      </trkpt>
      <trkpt lat="45.64953" lon="6.52302">
        <ele>2228</ele>
        <time>2022-07-16T06:38:40Z</time>
      </trkpt>
      <trkpt lat="45.64954" lon="6.52304">
        <ele>2228</ele>
        <time>2022-07-16T06:38:43Z</time>
      </trkpt>
      <trkpt lat="45.64956" lon="6.52306">
        <ele>2228</ele>
        <time>2022-07-16T06:38:47Z</time>
      </trkpt>
      <trkpt lat="45.64957" lon="6.52308">
        <ele>2229</ele>
        <time>2022-07-16T06:38:50Z</time>
      </trkpt>
      <trkpt lat="45.64958" lon="6.52311">
        <ele>2230</ele>
        <time>2022-07-16T06:38:53Z</time>
      </trkpt>
      <trkpt lat="45.64959" lon="6.52314">
        <ele>2231</ele>
        <time>2022-07-16T06:38:56Z</time>
      </trkpt>
      <trkpt lat="45.64961" lon="6.52315">
        <ele>2231</ele>
        <time>2022-07-16T06:38:59Z</time>
      </trkpt>
      <trkpt lat="45.64963" lon="6.52317">
        <ele>2232</ele>
        <time>2022-07-16T06:39:02Z</time>
      </trkpt>
      <trkpt lat="45.64964" lon="6.5232">
        <ele>2232</ele>
        <time>2022-07-16T06:39:05Z</time>
      </trkpt>
      <trkpt lat="45.64965" lon="6.52322">
        <ele>2232</ele>
        <time>2022-07-16T06:39:08Z</time>
      </trkpt>
      <trkpt lat="45.64966" lon="6.52325">
        <ele>2233</ele>
        <time>2022-07-16T06:39:11Z</time>
      </trkpt>
      <trkpt lat="45.64967" lon="6.52327">
        <ele>2233</ele>
        <time>2022-07-16T06:39:14Z</time>
      </trkpt>
      <trkpt lat="45.64968" lon="6.5233">
        <ele>2234</ele>
        <time>2022-07-16T06:39:17Z</time>
      </trkpt>
      <trkpt lat="45.6497" lon="6.52331">
        <ele>2235</ele>
        <time>2022-07-16T06:39:20Z</time>
      </trkpt>
      <trkpt lat="45.64972" lon="6.52333">
        <ele>2235</ele>
        <time>2022-07-16T06:39:23Z</time>
      </trkpt>
      <trkpt lat="45.64974" lon="6.52334">
        <ele>2236</ele>
        <time>2022-07-16T06:39:26Z</time>
      </trkpt>
      <trkpt lat="45.64976" lon="6.52336">
        <ele>2237</ele>
        <time>2022-07-16T06:39:29Z</time>
      </trkpt>
      <trkpt lat="45.64978" lon="6.52337">
        <ele>2237</ele>
        <time>2022-07-16T06:39:33Z</time>
      </trkpt>
      <trkpt lat="45.64979" lon="6.5234">
        <ele>2239</ele>
        <time>2022-07-16T06:39:35Z</time>
      </trkpt>
      <trkpt lat="45.64979" lon="6.52343">
        <ele>2239</ele>
        <time>2022-07-16T06:39:38Z</time>
      </trkpt>
      <trkpt lat="45.6498" lon="6.52346">
        <ele>2240</ele>
        <time>2022-07-16T06:39:41Z</time>
      </trkpt>
      <trkpt lat="45.64981" lon="6.52348">
        <ele>2241</ele>
        <time>2022-07-16T06:39:44Z</time>
      </trkpt>
      <trkpt lat="45.64982" lon="6.52351">
        <ele>2241</ele>
        <time>2022-07-16T06:39:48Z</time>
      </trkpt>
      <trkpt lat="45.64983" lon="6.52353">
        <ele>2241</ele>
        <time>2022-07-16T06:39:52Z</time>
      </trkpt>
      <trkpt lat="45.64983" lon="6.52356">
        <ele>2242</ele>
        <time>2022-07-16T06:39:54Z</time>
      </trkpt>
      <trkpt lat="45.64984" lon="6.52359">
        <ele>2243</ele>
        <time>2022-07-16T06:39:58Z</time>
      </trkpt>
      <trkpt lat="45.64985" lon="6.52361">
        <ele>2244</ele>
        <time>2022-07-16T06:40:02Z</time>
      </trkpt>
      <trkpt lat="45.64986" lon="6.52364">
        <ele>2244</ele>
        <time>2022-07-16T06:40:05Z</time>
      </trkpt>
      <trkpt lat="45.64987" lon="6.52367">
        <ele>2246</ele>
        <time>2022-07-16T06:40:09Z</time>
      </trkpt>
      <trkpt lat="45.64988" lon="6.52369">
        <ele>2246</ele>
        <time>2022-07-16T06:40:13Z</time>
      </trkpt>
      <trkpt lat="45.64989" lon="6.52372">
        <ele>2248</ele>
        <time>2022-07-16T06:40:16Z</time>
      </trkpt>
      <trkpt lat="45.6499" lon="6.52374">
        <ele>2249</ele>
        <time>2022-07-16T06:40:19Z</time>
      </trkpt>
      <trkpt lat="45.64992" lon="6.52377">
        <ele>2249</ele>
        <time>2022-07-16T06:40:22Z</time>
      </trkpt>
      <trkpt lat="45.64993" lon="6.5238">
        <ele>2250</ele>
        <time>2022-07-16T06:40:25Z</time>
      </trkpt>
      <trkpt lat="45.64995" lon="6.52383">
        <ele>2251</ele>
        <time>2022-07-16T06:40:28Z</time>
      </trkpt>
      <trkpt lat="45.64996" lon="6.52386">
        <ele>2251</ele>
        <time>2022-07-16T06:40:31Z</time>
      </trkpt>
      <trkpt lat="45.64998" lon="6.52389">
        <ele>2252</ele>
        <time>2022-07-16T06:40:34Z</time>
      </trkpt>
      <trkpt lat="45.64999" lon="6.52391">
        <ele>2252</ele>
        <time>2022-07-16T06:40:36Z</time>
      </trkpt>
      <trkpt lat="45.65" lon="6.52393">
        <ele>2252</ele>
        <time>2022-07-16T06:40:38Z</time>
      </trkpt>
      <trkpt lat="45.65001" lon="6.52395">
        <ele>2252</ele>
        <time>2022-07-16T06:40:40Z</time>
      </trkpt>
      <trkpt lat="45.65003" lon="6.52398">
        <ele>2253</ele>
        <time>2022-07-16T06:40:43Z</time>
      </trkpt>
      <trkpt lat="45.65004" lon="6.524">
        <ele>2253</ele>
        <time>2022-07-16T06:40:45Z</time>
      </trkpt>
      <trkpt lat="45.65006" lon="6.52403">
        <ele>2253</ele>
        <time>2022-07-16T06:40:48Z</time>
      </trkpt>
      <trkpt lat="45.65006" lon="6.52406">
        <ele>2253</ele>
        <time>2022-07-16T06:40:50Z</time>
      </trkpt>
      <trkpt lat="45.65007" lon="6.52409">
        <ele>2253</ele>
        <time>2022-07-16T06:40:52Z</time>
      </trkpt>
      <trkpt lat="45.65009" lon="6.52411">
        <ele>2253</ele>
        <time>2022-07-16T06:40:54Z</time>
      </trkpt>
      <trkpt lat="45.65011" lon="6.52414">
        <ele>2252</ele>
        <time>2022-07-16T06:40:56Z</time>
      </trkpt>
      <trkpt lat="45.65014" lon="6.52417">
        <ele>2251</ele>
        <time>2022-07-16T06:40:58Z</time>
      </trkpt>
      <trkpt lat="45.65016" lon="6.52421">
        <ele>2249</ele>
        <time>2022-07-16T06:41:00Z</time>
      </trkpt>
      <trkpt lat="45.65017" lon="6.52425">
        <ele>2249</ele>
        <time>2022-07-16T06:41:02Z</time>
      </trkpt>
      <trkpt lat="45.65018" lon="6.5243">
        <ele>2248</ele>
        <time>2022-07-16T06:41:04Z</time>
      </trkpt>
      <trkpt lat="45.65019" lon="6.52434">
        <ele>2245</ele>
        <time>2022-07-16T06:41:06Z</time>
      </trkpt>
      <trkpt lat="45.65021" lon="6.52436">
        <ele>2245</ele>
        <time>2022-07-16T06:41:08Z</time>
      </trkpt>
      <trkpt lat="45.65022" lon="6.52438">
        <ele>2244</ele>
        <time>2022-07-16T06:41:10Z</time>
      </trkpt>
      <trkpt lat="45.65024" lon="6.52442">
        <ele>2243</ele>
        <time>2022-07-16T06:41:12Z</time>
      </trkpt>
      <trkpt lat="45.65025" lon="6.52445">
        <ele>2242</ele>
        <time>2022-07-16T06:41:14Z</time>
      </trkpt>
      <trkpt lat="45.65027" lon="6.52448">
        <ele>2241</ele>
        <time>2022-07-16T06:41:16Z</time>
      </trkpt>
      <trkpt lat="45.65028" lon="6.52451">
        <ele>2240</ele>
        <time>2022-07-16T06:41:18Z</time>
      </trkpt>
      <trkpt lat="45.6503" lon="6.52455">
        <ele>2239</ele>
        <time>2022-07-16T06:41:20Z</time>
      </trkpt>
      <trkpt lat="45.65032" lon="6.52459">
        <ele>2238</ele>
        <time>2022-07-16T06:41:22Z</time>
      </trkpt>
      <trkpt lat="45.65034" lon="6.52463">
        <ele>2237</ele>
        <time>2022-07-16T06:41:24Z</time>
      </trkpt>
      <trkpt lat="45.65035" lon="6.52465">
        <ele>2236</ele>
        <time>2022-07-16T06:41:25Z</time>
      </trkpt>
      <trkpt lat="45.65038" lon="6.52468">
        <ele>2235</ele>
        <time>2022-07-16T06:41:27Z</time>
      </trkpt>
      <trkpt lat="45.6504" lon="6.52472">
        <ele>2233</ele>
        <time>2022-07-16T06:41:29Z</time>
      </trkpt>
      <trkpt lat="45.65041" lon="6.52473">
        <ele>2233</ele>
        <time>2022-07-16T06:41:30Z</time>
      </trkpt>
      <trkpt lat="45.65042" lon="6.52474">
        <ele>2233</ele>
        <time>2022-07-16T06:41:31Z</time>
      </trkpt>
      <trkpt lat="45.65043" lon="6.52476">
        <ele>2233</ele>
        <time>2022-07-16T06:41:32Z</time>
      </trkpt>
      <trkpt lat="45.65045" lon="6.52479">
        <ele>2232</ele>
        <time>2022-07-16T06:41:33Z</time>
      </trkpt>
      <trkpt lat="45.65046" lon="6.52484">
        <ele>2231</ele>
        <time>2022-07-16T06:41:35Z</time>
      </trkpt>
      <trkpt lat="45.65048" lon="6.52487">
        <ele>2230</ele>
        <time>2022-07-16T06:41:37Z</time>
      </trkpt>
      <trkpt lat="45.6505" lon="6.52491">
        <ele>2229</ele>
        <time>2022-07-16T06:41:39Z</time>
      </trkpt>
      <trkpt lat="45.65052" lon="6.52494">
        <ele>2229</ele>
        <time>2022-07-16T06:41:41Z</time>
      </trkpt>
      <trkpt lat="45.65053" lon="6.52497">
        <ele>2228</ele>
        <time>2022-07-16T06:41:43Z</time>
      </trkpt>
      <trkpt lat="45.65053" lon="6.52501">
        <ele>2228</ele>
        <time>2022-07-16T06:41:45Z</time>
      </trkpt>
      <trkpt lat="45.65054" lon="6.52504">
        <ele>2227</ele>
        <time>2022-07-16T06:41:47Z</time>
      </trkpt>
      <trkpt lat="45.65055" lon="6.52507">
        <ele>2225</ele>
        <time>2022-07-16T06:41:49Z</time>
      </trkpt>
      <trkpt lat="45.65056" lon="6.5251">
        <ele>2224</ele>
        <time>2022-07-16T06:41:51Z</time>
      </trkpt>
      <trkpt lat="45.65058" lon="6.52512">
        <ele>2223</ele>
        <time>2022-07-16T06:41:53Z</time>
      </trkpt>
      <trkpt lat="45.65059" lon="6.52514">
        <ele>2223</ele>
        <time>2022-07-16T06:41:55Z</time>
      </trkpt>
      <trkpt lat="45.65061" lon="6.52517">
        <ele>2222</ele>
        <time>2022-07-16T06:41:57Z</time>
      </trkpt>
      <trkpt lat="45.65062" lon="6.52519">
        <ele>2220</ele>
        <time>2022-07-16T06:41:58Z</time>
      </trkpt>
      <trkpt lat="45.65063" lon="6.52522">
        <ele>2219</ele>
        <time>2022-07-16T06:41:59Z</time>
      </trkpt>
      <trkpt lat="45.65064" lon="6.52524">
        <ele>2218</ele>
        <time>2022-07-16T06:42:00Z</time>
      </trkpt>
      <trkpt lat="45.65064" lon="6.52528">
        <ele>2218</ele>
        <time>2022-07-16T06:42:01Z</time>
      </trkpt>
      <trkpt lat="45.65063" lon="6.52531">
        <ele>2218</ele>
        <time>2022-07-16T06:42:02Z</time>
      </trkpt>
      <trkpt lat="45.65063" lon="6.52534">
        <ele>2218</ele>
        <time>2022-07-16T06:42:03Z</time>
      </trkpt>
      <trkpt lat="45.65062" lon="6.5254">
        <ele>2218</ele>
        <time>2022-07-16T06:42:05Z</time>
      </trkpt>
      <trkpt lat="45.65061" lon="6.52544">
        <ele>2218</ele>
        <time>2022-07-16T06:42:06Z</time>
      </trkpt>
      <trkpt lat="45.65061" lon="6.52545">
        <ele>2217</ele>
        <time>2022-07-16T06:42:07Z</time>
      </trkpt>
      <trkpt lat="45.6506" lon="6.52548">
        <ele>2217</ele>
        <time>2022-07-16T06:42:08Z</time>
      </trkpt>
      <trkpt lat="45.65059" lon="6.5255">
        <ele>2216</ele>
        <time>2022-07-16T06:42:09Z</time>
      </trkpt>
      <trkpt lat="45.65058" lon="6.52555">
        <ele>2216</ele>
        <time>2022-07-16T06:42:11Z</time>
      </trkpt>
      <trkpt lat="45.65058" lon="6.52557">
        <ele>2215</ele>
        <time>2022-07-16T06:42:12Z</time>
      </trkpt>
      <trkpt lat="45.65056" lon="6.52562">
        <ele>2214</ele>
        <time>2022-07-16T06:42:14Z</time>
      </trkpt>
      <trkpt lat="45.65055" lon="6.52567">
        <ele>2213</ele>
        <time>2022-07-16T06:42:16Z</time>
      </trkpt>
      <trkpt lat="45.65054" lon="6.52569">
        <ele>2213</ele>
        <time>2022-07-16T06:42:17Z</time>
      </trkpt>
      <trkpt lat="45.65053" lon="6.52572">
        <ele>2213</ele>
        <time>2022-07-16T06:42:18Z</time>
      </trkpt>
      <trkpt lat="45.65051" lon="6.52575">
        <ele>2212</ele>
        <time>2022-07-16T06:42:19Z</time>
      </trkpt>
      <trkpt lat="45.6505" lon="6.52578">
        <ele>2212</ele>
        <time>2022-07-16T06:42:20Z</time>
      </trkpt>
      <trkpt lat="45.65049" lon="6.5258">
        <ele>2211</ele>
        <time>2022-07-16T06:42:21Z</time>
      </trkpt>
      <trkpt lat="45.65048" lon="6.52583">
        <ele>2211</ele>
        <time>2022-07-16T06:42:22Z</time>
      </trkpt>
      <trkpt lat="45.65047" lon="6.52585">
        <ele>2211</ele>
        <time>2022-07-16T06:42:23Z</time>
      </trkpt>
      <trkpt lat="45.65046" lon="6.52588">
        <ele>2211</ele>
        <time>2022-07-16T06:42:24Z</time>
      </trkpt>
      <trkpt lat="45.65045" lon="6.52591">
        <ele>2211</ele>
        <time>2022-07-16T06:42:25Z</time>
      </trkpt>
      <trkpt lat="45.65044" lon="6.52592">
        <ele>2210</ele>
        <time>2022-07-16T06:42:26Z</time>
      </trkpt>
      <trkpt lat="45.65042" lon="6.52596">
        <ele>2209</ele>
        <time>2022-07-16T06:42:27Z</time>
      </trkpt>
      <trkpt lat="45.65041" lon="6.52598">
        <ele>2208</ele>
        <time>2022-07-16T06:42:28Z</time>
      </trkpt>
      <trkpt lat="45.6504" lon="6.526">
        <ele>2208</ele>
        <time>2022-07-16T06:42:29Z</time>
      </trkpt>
      <trkpt lat="45.65038" lon="6.52603">
        <ele>2208</ele>
        <time>2022-07-16T06:42:30Z</time>
      </trkpt>
      <trkpt lat="45.65037" lon="6.52605">
        <ele>2207</ele>
        <time>2022-07-16T06:42:31Z</time>
      </trkpt>
      <trkpt lat="45.65036" lon="6.52608">
        <ele>2207</ele>
        <time>2022-07-16T06:42:32Z</time>
      </trkpt>
      <trkpt lat="45.65034" lon="6.52611">
        <ele>2207</ele>
        <time>2022-07-16T06:42:33Z</time>
      </trkpt>
      <trkpt lat="45.65032" lon="6.52613">
        <ele>2207</ele>
        <time>2022-07-16T06:42:34Z</time>
      </trkpt>
      <trkpt lat="45.65031" lon="6.52615">
        <ele>2207</ele>
        <time>2022-07-16T06:42:35Z</time>
      </trkpt>
      <trkpt lat="45.6503" lon="6.52617">
        <ele>2207</ele>
        <time>2022-07-16T06:42:36Z</time>
      </trkpt>
      <trkpt lat="45.65029" lon="6.5262">
        <ele>2206</ele>
        <time>2022-07-16T06:42:37Z</time>
      </trkpt>
      <trkpt lat="45.65027" lon="6.52623">
        <ele>2206</ele>
        <time>2022-07-16T06:42:38Z</time>
      </trkpt>
      <trkpt lat="45.65026" lon="6.52625">
        <ele>2206</ele>
        <time>2022-07-16T06:42:39Z</time>
      </trkpt>
      <trkpt lat="45.65025" lon="6.52628">
        <ele>2206</ele>
        <time>2022-07-16T06:42:40Z</time>
      </trkpt>
      <trkpt lat="45.65023" lon="6.5263">
        <ele>2205</ele>
        <time>2022-07-16T06:42:41Z</time>
      </trkpt>
      <trkpt lat="45.65022" lon="6.52632">
        <ele>2205</ele>
        <time>2022-07-16T06:42:42Z</time>
      </trkpt>
      <trkpt lat="45.65021" lon="6.52634">
        <ele>2205</ele>
        <time>2022-07-16T06:42:43Z</time>
      </trkpt>
      <trkpt lat="45.65019" lon="6.52638">
        <ele>2205</ele>
        <time>2022-07-16T06:42:44Z</time>
      </trkpt>
      <trkpt lat="45.65018" lon="6.52639">
        <ele>2205</ele>
        <time>2022-07-16T06:42:45Z</time>
      </trkpt>
      <trkpt lat="45.65017" lon="6.52642">
        <ele>2205</ele>
        <time>2022-07-16T06:42:46Z</time>
      </trkpt>
      <trkpt lat="45.65016" lon="6.52645">
        <ele>2205</ele>
        <time>2022-07-16T06:42:47Z</time>
      </trkpt>
      <trkpt lat="45.65016" lon="6.52647">
        <ele>2205</ele>
        <time>2022-07-16T06:42:48Z</time>
      </trkpt>
      <trkpt lat="45.65015" lon="6.5265">
        <ele>2204</ele>
        <time>2022-07-16T06:42:49Z</time>
      </trkpt>
      <trkpt lat="45.65013" lon="6.52653">
        <ele>2205</ele>
        <time>2022-07-16T06:42:50Z</time>
      </trkpt>
      <trkpt lat="45.65012" lon="6.52655">
        <ele>2205</ele>
        <time>2022-07-16T06:42:51Z</time>
      </trkpt>
      <trkpt lat="45.65011" lon="6.52658">
        <ele>2205</ele>
        <time>2022-07-16T06:42:52Z</time>
      </trkpt>
      <trkpt lat="45.6501" lon="6.5266">
        <ele>2205</ele>
        <time>2022-07-16T06:42:53Z</time>
      </trkpt>
      <trkpt lat="45.65009" lon="6.52662">
        <ele>2205</ele>
        <time>2022-07-16T06:42:54Z</time>
      </trkpt>
      <trkpt lat="45.65008" lon="6.52665">
        <ele>2205</ele>
        <time>2022-07-16T06:42:55Z</time>
      </trkpt>
      <trkpt lat="45.65007" lon="6.52667">
        <ele>2205</ele>
        <time>2022-07-16T06:42:56Z</time>
      </trkpt>
      <trkpt lat="45.65006" lon="6.5267">
        <ele>2205</ele>
        <time>2022-07-16T06:42:57Z</time>
      </trkpt>
      <trkpt lat="45.65005" lon="6.52672">
        <ele>2205</ele>
        <time>2022-07-16T06:42:58Z</time>
      </trkpt>
      <trkpt lat="45.65004" lon="6.52675">
        <ele>2204</ele>
        <time>2022-07-16T06:42:59Z</time>
      </trkpt>
      <trkpt lat="45.65002" lon="6.52677">
        <ele>2204</ele>
        <time>2022-07-16T06:43:00Z</time>
      </trkpt>
      <trkpt lat="45.65001" lon="6.5268">
        <ele>2204</ele>
        <time>2022-07-16T06:43:01Z</time>
      </trkpt>
      <trkpt lat="45.65" lon="6.52682">
        <ele>2204</ele>
        <time>2022-07-16T06:43:02Z</time>
      </trkpt>
      <trkpt lat="45.64998" lon="6.52686">
        <ele>2204</ele>
        <time>2022-07-16T06:43:03Z</time>
      </trkpt>
      <trkpt lat="45.64998" lon="6.52687">
        <ele>2204</ele>
        <time>2022-07-16T06:43:04Z</time>
      </trkpt>
      <trkpt lat="45.64996" lon="6.52689">
        <ele>2204</ele>
        <time>2022-07-16T06:43:06Z</time>
      </trkpt>
      <trkpt lat="45.64994" lon="6.52692">
        <ele>2205</ele>
        <time>2022-07-16T06:43:08Z</time>
      </trkpt>
      <trkpt lat="45.64992" lon="6.52695">
        <ele>2205</ele>
        <time>2022-07-16T06:43:10Z</time>
      </trkpt>
      <trkpt lat="45.6499" lon="6.52698">
        <ele>2206</ele>
        <time>2022-07-16T06:43:12Z</time>
      </trkpt>
      <trkpt lat="45.64988" lon="6.527">
        <ele>2206</ele>
        <time>2022-07-16T06:43:14Z</time>
      </trkpt>
      <trkpt lat="45.64985" lon="6.52703">
        <ele>2206</ele>
        <time>2022-07-16T06:43:16Z</time>
      </trkpt>
      <trkpt lat="45.64983" lon="6.52705">
        <ele>2206</ele>
        <time>2022-07-16T06:43:18Z</time>
      </trkpt>
      <trkpt lat="45.64981" lon="6.52707">
        <ele>2206</ele>
        <time>2022-07-16T06:43:21Z</time>
      </trkpt>
      <trkpt lat="45.64979" lon="6.5271">
        <ele>2207</ele>
        <time>2022-07-16T06:43:22Z</time>
      </trkpt>
      <trkpt lat="45.64977" lon="6.52712">
        <ele>2207</ele>
        <time>2022-07-16T06:43:24Z</time>
      </trkpt>
      <trkpt lat="45.64975" lon="6.52714">
        <ele>2208</ele>
        <time>2022-07-16T06:43:26Z</time>
      </trkpt>
      <trkpt lat="45.64973" lon="6.52717">
        <ele>2208</ele>
        <time>2022-07-16T06:43:28Z</time>
      </trkpt>
      <trkpt lat="45.64971" lon="6.52719">
        <ele>2208</ele>
        <time>2022-07-16T06:43:30Z</time>
      </trkpt>
      <trkpt lat="45.6497" lon="6.52721">
        <ele>2209</ele>
        <time>2022-07-16T06:43:32Z</time>
      </trkpt>
      <trkpt lat="45.64968" lon="6.52724">
        <ele>2209</ele>
        <time>2022-07-16T06:43:34Z</time>
      </trkpt>
      <trkpt lat="45.64967" lon="6.52727">
        <ele>2209</ele>
        <time>2022-07-16T06:43:36Z</time>
      </trkpt>
      <trkpt lat="45.64966" lon="6.52729">
        <ele>2209</ele>
        <time>2022-07-16T06:43:38Z</time>
      </trkpt>
      <trkpt lat="45.64965" lon="6.52731">
        <ele>2210</ele>
        <time>2022-07-16T06:43:40Z</time>
      </trkpt>
      <trkpt lat="45.64964" lon="6.52734">
        <ele>2210</ele>
        <time>2022-07-16T06:43:42Z</time>
      </trkpt>
      <trkpt lat="45.64963" lon="6.52736">
        <ele>2210</ele>
        <time>2022-07-16T06:43:44Z</time>
      </trkpt>
      <trkpt lat="45.64962" lon="6.52739">
        <ele>2211</ele>
        <time>2022-07-16T06:43:46Z</time>
      </trkpt>
      <trkpt lat="45.6496" lon="6.52743">
        <ele>2211</ele>
        <time>2022-07-16T06:43:49Z</time>
      </trkpt>
      <trkpt lat="45.64959" lon="6.52746">
        <ele>2212</ele>
        <time>2022-07-16T06:43:52Z</time>
      </trkpt>
      <trkpt lat="45.64958" lon="6.52748">
        <ele>2212</ele>
        <time>2022-07-16T06:43:54Z</time>
      </trkpt>
      <trkpt lat="45.64958" lon="6.5275">
        <ele>2213</ele>
        <time>2022-07-16T06:43:55Z</time>
      </trkpt>
      <trkpt lat="45.64958" lon="6.52751">
        <ele>2213</ele>
        <time>2022-07-16T06:43:56Z</time>
      </trkpt>
      <trkpt lat="45.64957" lon="6.52752">
        <ele>2213</ele>
        <time>2022-07-16T06:43:57Z</time>
      </trkpt>
      <trkpt lat="45.64957" lon="6.52754">
        <ele>2213</ele>
        <time>2022-07-16T06:43:59Z</time>
      </trkpt>
      <trkpt lat="45.64957" lon="6.52755">
        <ele>2213</ele>
        <time>2022-07-16T06:44:00Z</time>
      </trkpt>
      <trkpt lat="45.64956" lon="6.52756">
        <ele>2214</ele>
        <time>2022-07-16T06:44:01Z</time>
      </trkpt>
      <trkpt lat="45.64956" lon="6.52757">
        <ele>2214</ele>
        <time>2022-07-16T06:44:02Z</time>
      </trkpt>
      <trkpt lat="45.64956" lon="6.52759">
        <ele>2214</ele>
        <time>2022-07-16T06:44:03Z</time>
      </trkpt>
      <trkpt lat="45.64955" lon="6.5276">
        <ele>2214</ele>
        <time>2022-07-16T06:44:04Z</time>
      </trkpt>
      <trkpt lat="45.64955" lon="6.52761">
        <ele>2215</ele>
        <time>2022-07-16T06:44:05Z</time>
      </trkpt>
      <trkpt lat="45.64954" lon="6.52765">
        <ele>2215</ele>
        <time>2022-07-16T06:44:07Z</time>
      </trkpt>
      <trkpt lat="45.64953" lon="6.52769">
        <ele>2215</ele>
        <time>2022-07-16T06:44:10Z</time>
      </trkpt>
      <trkpt lat="45.64952" lon="6.52771">
        <ele>2216</ele>
        <time>2022-07-16T06:44:12Z</time>
      </trkpt>
      <trkpt lat="45.64952" lon="6.52773">
        <ele>2216</ele>
        <time>2022-07-16T06:44:13Z</time>
      </trkpt>
      <trkpt lat="45.64952" lon="6.52774">
        <ele>2216</ele>
        <time>2022-07-16T06:44:14Z</time>
      </trkpt>
      <trkpt lat="45.64951" lon="6.52775">
        <ele>2216</ele>
        <time>2022-07-16T06:44:15Z</time>
      </trkpt>
      <trkpt lat="45.64951" lon="6.52776">
        <ele>2217</ele>
        <time>2022-07-16T06:44:16Z</time>
      </trkpt>
      <trkpt lat="45.64951" lon="6.52777">
        <ele>2217</ele>
        <time>2022-07-16T06:44:17Z</time>
      </trkpt>
      <trkpt lat="45.64951" lon="6.52778">
        <ele>2217</ele>
        <time>2022-07-16T06:44:18Z</time>
      </trkpt>
      <trkpt lat="45.6495" lon="6.52779">
        <ele>2217</ele>
        <time>2022-07-16T06:44:19Z</time>
      </trkpt>
      <trkpt lat="45.6495" lon="6.5278">
        <ele>2217</ele>
        <time>2022-07-16T06:44:20Z</time>
      </trkpt>
      <trkpt lat="45.6495" lon="6.52781">
        <ele>2217</ele>
        <time>2022-07-16T06:44:21Z</time>
      </trkpt>
      <trkpt lat="45.6495" lon="6.52782">
        <ele>2217</ele>
        <time>2022-07-16T06:44:22Z</time>
      </trkpt>
      <trkpt lat="45.6495" lon="6.52783">
        <ele>2218</ele>
        <time>2022-07-16T06:44:23Z</time>
      </trkpt>
      <trkpt lat="45.64949" lon="6.52784">
        <ele>2218</ele>
        <time>2022-07-16T06:44:24Z</time>
      </trkpt>
      <trkpt lat="45.64949" lon="6.52785">
        <ele>2218</ele>
        <time>2022-07-16T06:44:25Z</time>
      </trkpt>
      <trkpt lat="45.64949" lon="6.52786">
        <ele>2218</ele>
        <time>2022-07-16T06:44:26Z</time>
      </trkpt>
      <trkpt lat="45.64949" lon="6.52789">
        <ele>2219</ele>
        <time>2022-07-16T06:44:28Z</time>
      </trkpt>
      <trkpt lat="45.64949" lon="6.52792">
        <ele>2219</ele>
        <time>2022-07-16T06:44:30Z</time>
      </trkpt>
      <trkpt lat="45.64948" lon="6.52795">
        <ele>2219</ele>
        <time>2022-07-16T06:44:33Z</time>
      </trkpt>
      <trkpt lat="45.64948" lon="6.52797">
        <ele>2220</ele>
        <time>2022-07-16T06:44:36Z</time>
      </trkpt>
      <trkpt lat="45.64947" lon="6.52801">
        <ele>2222</ele>
        <time>2022-07-16T06:44:39Z</time>
      </trkpt>
      <trkpt lat="45.64946" lon="6.52804">
        <ele>2222</ele>
        <time>2022-07-16T06:44:42Z</time>
      </trkpt>
      <trkpt lat="45.64945" lon="6.52808">
        <ele>2223</ele>
        <time>2022-07-16T06:44:46Z</time>
      </trkpt>
      <trkpt lat="45.64943" lon="6.52811">
        <ele>2224</ele>
        <time>2022-07-16T06:44:49Z</time>
      </trkpt>
      <trkpt lat="45.64943" lon="6.52812">
        <ele>2224</ele>
        <time>2022-07-16T06:44:50Z</time>
      </trkpt>
      <trkpt lat="45.64943" lon="6.52813">
        <ele>2224</ele>
        <time>2022-07-16T06:44:51Z</time>
      </trkpt>
      <trkpt lat="45.64943" lon="6.52814">
        <ele>2224</ele>
        <time>2022-07-16T06:44:52Z</time>
      </trkpt>
      <trkpt lat="45.64943" lon="6.52815">
        <ele>2225</ele>
        <time>2022-07-16T06:44:53Z</time>
      </trkpt>
      <trkpt lat="45.64942" lon="6.52817">
        <ele>2225</ele>
        <time>2022-07-16T06:44:54Z</time>
      </trkpt>
      <trkpt lat="45.64942" lon="6.52818">
        <ele>2226</ele>
        <time>2022-07-16T06:44:56Z</time>
      </trkpt>
      <trkpt lat="45.64942" lon="6.52819">
        <ele>2226</ele>
        <time>2022-07-16T06:44:57Z</time>
      </trkpt>
      <trkpt lat="45.64942" lon="6.5282">
        <ele>2226</ele>
        <time>2022-07-16T06:44:58Z</time>
      </trkpt>
      <trkpt lat="45.64941" lon="6.52821">
        <ele>2226</ele>
        <time>2022-07-16T06:44:59Z</time>
      </trkpt>
      <trkpt lat="45.64941" lon="6.52822">
        <ele>2226</ele>
        <time>2022-07-16T06:45:00Z</time>
      </trkpt>
      <trkpt lat="45.64941" lon="6.52823">
        <ele>2227</ele>
        <time>2022-07-16T06:45:01Z</time>
      </trkpt>
      <trkpt lat="45.64941" lon="6.52825">
        <ele>2227</ele>
        <time>2022-07-16T06:45:02Z</time>
      </trkpt>
      <trkpt lat="45.64941" lon="6.52826">
        <ele>2227</ele>
        <time>2022-07-16T06:45:03Z</time>
      </trkpt>
      <trkpt lat="45.6494" lon="6.52827">
        <ele>2227</ele>
        <time>2022-07-16T06:45:04Z</time>
      </trkpt>
      <trkpt lat="45.6494" lon="6.52828">
        <ele>2227</ele>
        <time>2022-07-16T06:45:05Z</time>
      </trkpt>
      <trkpt lat="45.6494" lon="6.52829">
        <ele>2228</ele>
        <time>2022-07-16T06:45:06Z</time>
      </trkpt>
      <trkpt lat="45.6494" lon="6.52832">
        <ele>2228</ele>
        <time>2022-07-16T06:45:08Z</time>
      </trkpt>
      <trkpt lat="45.6494" lon="6.52836">
        <ele>2228</ele>
        <time>2022-07-16T06:45:11Z</time>
      </trkpt>
      <trkpt lat="45.64942" lon="6.52839">
        <ele>2229</ele>
        <time>2022-07-16T06:45:14Z</time>
      </trkpt>
      <trkpt lat="45.64942" lon="6.52844">
        <ele>2230</ele>
        <time>2022-07-16T06:45:18Z</time>
      </trkpt>
      <trkpt lat="45.64942" lon="6.52847">
        <ele>2231</ele>
        <time>2022-07-16T06:45:21Z</time>
      </trkpt>
      <trkpt lat="45.64943" lon="6.5285">
        <ele>2231</ele>
        <time>2022-07-16T06:45:24Z</time>
      </trkpt>
      <trkpt lat="45.64944" lon="6.52853">
        <ele>2232</ele>
        <time>2022-07-16T06:45:27Z</time>
      </trkpt>
      <trkpt lat="45.64944" lon="6.52857">
        <ele>2233</ele>
        <time>2022-07-16T06:45:30Z</time>
      </trkpt>
      <trkpt lat="45.64944" lon="6.5286">
        <ele>2233</ele>
        <time>2022-07-16T06:45:33Z</time>
      </trkpt>
      <trkpt lat="45.64945" lon="6.52863">
        <ele>2233</ele>
        <time>2022-07-16T06:45:36Z</time>
      </trkpt>
      <trkpt lat="45.64945" lon="6.52866">
        <ele>2234</ele>
        <time>2022-07-16T06:45:39Z</time>
      </trkpt>
      <trkpt lat="45.64945" lon="6.52869">
        <ele>2235</ele>
        <time>2022-07-16T06:45:42Z</time>
      </trkpt>
      <trkpt lat="45.64945" lon="6.52872">
        <ele>2236</ele>
        <time>2022-07-16T06:45:45Z</time>
      </trkpt>
      <trkpt lat="45.64945" lon="6.52874">
        <ele>2236</ele>
        <time>2022-07-16T06:45:48Z</time>
      </trkpt>
      <trkpt lat="45.64944" lon="6.52878">
        <ele>2237</ele>
        <time>2022-07-16T06:45:51Z</time>
      </trkpt>
      <trkpt lat="45.64944" lon="6.52881">
        <ele>2238</ele>
        <time>2022-07-16T06:45:54Z</time>
      </trkpt>
      <trkpt lat="45.64944" lon="6.52884">
        <ele>2239</ele>
        <time>2022-07-16T06:45:57Z</time>
      </trkpt>
      <trkpt lat="45.64944" lon="6.52887">
        <ele>2238</ele>
        <time>2022-07-16T06:46:00Z</time>
      </trkpt>
      <trkpt lat="45.64944" lon="6.52891">
        <ele>2239</ele>
        <time>2022-07-16T06:46:03Z</time>
      </trkpt>
      <trkpt lat="45.64945" lon="6.52894">
        <ele>2240</ele>
        <time>2022-07-16T06:46:06Z</time>
      </trkpt>
      <trkpt lat="45.64945" lon="6.52897">
        <ele>2241</ele>
        <time>2022-07-16T06:46:09Z</time>
      </trkpt>
      <trkpt lat="45.64945" lon="6.52901">
        <ele>2241</ele>
        <time>2022-07-16T06:46:12Z</time>
      </trkpt>
      <trkpt lat="45.64945" lon="6.52904">
        <ele>2242</ele>
        <time>2022-07-16T06:46:15Z</time>
      </trkpt>
      <trkpt lat="45.64945" lon="6.52908">
        <ele>2242</ele>
        <time>2022-07-16T06:46:18Z</time>
      </trkpt>
      <trkpt lat="45.64945" lon="6.52911">
        <ele>2242</ele>
        <time>2022-07-16T06:46:21Z</time>
      </trkpt>
      <trkpt lat="45.64945" lon="6.52914">
        <ele>2244</ele>
        <time>2022-07-16T06:46:24Z</time>
      </trkpt>
      <trkpt lat="45.64944" lon="6.52918">
        <ele>2244</ele>
        <time>2022-07-16T06:46:27Z</time>
      </trkpt>
      <trkpt lat="45.64944" lon="6.52921">
        <ele>2245</ele>
        <time>2022-07-16T06:46:30Z</time>
      </trkpt>
      <trkpt lat="45.64944" lon="6.52925">
        <ele>2245</ele>
        <time>2022-07-16T06:46:33Z</time>
      </trkpt>
      <trkpt lat="45.64944" lon="6.52928">
        <ele>2246</ele>
        <time>2022-07-16T06:46:36Z</time>
      </trkpt>
      <trkpt lat="45.64944" lon="6.52932">
        <ele>2246</ele>
        <time>2022-07-16T06:46:39Z</time>
      </trkpt>
      <trkpt lat="45.64944" lon="6.52934">
        <ele>2248</ele>
        <time>2022-07-16T06:46:41Z</time>
      </trkpt>
      <trkpt lat="45.64943" lon="6.52938">
        <ele>2248</ele>
        <time>2022-07-16T06:46:44Z</time>
      </trkpt>
      <trkpt lat="45.64944" lon="6.52941">
        <ele>2249</ele>
        <time>2022-07-16T06:46:47Z</time>
      </trkpt>
      <trkpt lat="45.64944" lon="6.52945">
        <ele>2250</ele>
        <time>2022-07-16T06:46:50Z</time>
      </trkpt>
      <trkpt lat="45.64944" lon="6.52948">
        <ele>2250</ele>
        <time>2022-07-16T06:46:53Z</time>
      </trkpt>
      <trkpt lat="45.64943" lon="6.52952">
        <ele>2251</ele>
        <time>2022-07-16T06:46:56Z</time>
      </trkpt>
      <trkpt lat="45.64943" lon="6.52955">
        <ele>2251</ele>
        <time>2022-07-16T06:46:58Z</time>
      </trkpt>
      <trkpt lat="45.64943" lon="6.52958">
        <ele>2252</ele>
        <time>2022-07-16T06:47:01Z</time>
      </trkpt>
      <trkpt lat="45.64944" lon="6.52961">
        <ele>2252</ele>
        <time>2022-07-16T06:47:03Z</time>
      </trkpt>
      <trkpt lat="45.64944" lon="6.52964">
        <ele>2252</ele>
        <time>2022-07-16T06:47:05Z</time>
      </trkpt>
      <trkpt lat="45.64945" lon="6.52966">
        <ele>2253</ele>
        <time>2022-07-16T06:47:07Z</time>
      </trkpt>
      <trkpt lat="45.64945" lon="6.52969">
        <ele>2253</ele>
        <time>2022-07-16T06:47:09Z</time>
      </trkpt>
      <trkpt lat="45.64946" lon="6.52973">
        <ele>2253</ele>
        <time>2022-07-16T06:47:11Z</time>
      </trkpt>
      <trkpt lat="45.64947" lon="6.52976">
        <ele>2253</ele>
        <time>2022-07-16T06:47:13Z</time>
      </trkpt>
      <trkpt lat="45.64948" lon="6.52979">
        <ele>2253</ele>
        <time>2022-07-16T06:47:15Z</time>
      </trkpt>
      <trkpt lat="45.64949" lon="6.52982">
        <ele>2254</ele>
        <time>2022-07-16T06:47:17Z</time>
      </trkpt>
      <trkpt lat="45.6495" lon="6.52985">
        <ele>2254</ele>
        <time>2022-07-16T06:47:19Z</time>
      </trkpt>
      <trkpt lat="45.6495" lon="6.52988">
        <ele>2254</ele>
        <time>2022-07-16T06:47:21Z</time>
      </trkpt>
      <trkpt lat="45.64952" lon="6.52991">
        <ele>2255</ele>
        <time>2022-07-16T06:47:24Z</time>
      </trkpt>
      <trkpt lat="45.64954" lon="6.52993">
        <ele>2254</ele>
        <time>2022-07-16T06:47:26Z</time>
      </trkpt>
      <trkpt lat="45.64956" lon="6.52995">
        <ele>2254</ele>
        <time>2022-07-16T06:47:28Z</time>
      </trkpt>
      <trkpt lat="45.64958" lon="6.52997">
        <ele>2254</ele>
        <time>2022-07-16T06:47:30Z</time>
      </trkpt>
      <trkpt lat="45.6496" lon="6.52998">
        <ele>2254</ele>
        <time>2022-07-16T06:47:32Z</time>
      </trkpt>
      <trkpt lat="45.64962" lon="6.52999">
        <ele>2254</ele>
        <time>2022-07-16T06:47:34Z</time>
      </trkpt>
      <trkpt lat="45.64964" lon="6.53001">
        <ele>2254</ele>
        <time>2022-07-16T06:47:36Z</time>
      </trkpt>
      <trkpt lat="45.64966" lon="6.53003">
        <ele>2254</ele>
        <time>2022-07-16T06:47:38Z</time>
      </trkpt>
      <trkpt lat="45.64968" lon="6.53006">
        <ele>2254</ele>
        <time>2022-07-16T06:47:40Z</time>
      </trkpt>
      <trkpt lat="45.6497" lon="6.53008">
        <ele>2254</ele>
        <time>2022-07-16T06:47:42Z</time>
      </trkpt>
      <trkpt lat="45.64971" lon="6.5301">
        <ele>2254</ele>
        <time>2022-07-16T06:47:44Z</time>
      </trkpt>
      <trkpt lat="45.64973" lon="6.53013">
        <ele>2254</ele>
        <time>2022-07-16T06:47:47Z</time>
      </trkpt>
      <trkpt lat="45.64975" lon="6.53015">
        <ele>2254</ele>
        <time>2022-07-16T06:47:48Z</time>
      </trkpt>
      <trkpt lat="45.64976" lon="6.53018">
        <ele>2254</ele>
        <time>2022-07-16T06:47:50Z</time>
      </trkpt>
      <trkpt lat="45.64978" lon="6.5302">
        <ele>2254</ele>
        <time>2022-07-16T06:47:52Z</time>
      </trkpt>
      <trkpt lat="45.6498" lon="6.53022">
        <ele>2254</ele>
        <time>2022-07-16T06:47:54Z</time>
      </trkpt>
      <trkpt lat="45.64981" lon="6.53024">
        <ele>2254</ele>
        <time>2022-07-16T06:47:56Z</time>
      </trkpt>
      <trkpt lat="45.64983" lon="6.53026">
        <ele>2254</ele>
        <time>2022-07-16T06:47:58Z</time>
      </trkpt>
      <trkpt lat="45.64983" lon="6.53029">
        <ele>2253</ele>
        <time>2022-07-16T06:48:00Z</time>
      </trkpt>
      <trkpt lat="45.64983" lon="6.53032">
        <ele>2253</ele>
        <time>2022-07-16T06:48:02Z</time>
      </trkpt>
      <trkpt lat="45.64982" lon="6.53035">
        <ele>2253</ele>
        <time>2022-07-16T06:48:06Z</time>
      </trkpt>
      <trkpt lat="45.64982" lon="6.53039">
        <ele>2254</ele>
        <time>2022-07-16T06:48:08Z</time>
      </trkpt>
      <trkpt lat="45.64982" lon="6.53042">
        <ele>2255</ele>
        <time>2022-07-16T06:48:11Z</time>
      </trkpt>
      <trkpt lat="45.64982" lon="6.53045">
        <ele>2255</ele>
        <time>2022-07-16T06:48:14Z</time>
      </trkpt>
      <trkpt lat="45.64981" lon="6.53048">
        <ele>2256</ele>
        <time>2022-07-16T06:48:18Z</time>
      </trkpt>
      <trkpt lat="45.64981" lon="6.5305">
        <ele>2256</ele>
        <time>2022-07-16T06:48:30Z</time>
      </trkpt>
      <trkpt lat="45.64981" lon="6.5305">
        <ele>2255</ele>
        <time>2022-07-16T06:48:32Z</time>
      </trkpt>
      <trkpt lat="45.6498" lon="6.53053">
        <ele>2255</ele>
        <time>2022-07-16T06:48:34Z</time>
      </trkpt>
      <trkpt lat="45.64981" lon="6.53056">
        <ele>2255</ele>
        <time>2022-07-16T06:48:39Z</time>
      </trkpt>
      <trkpt lat="45.64981" lon="6.53056">
        <ele>2254</ele>
        <time>2022-07-16T06:48:50Z</time>
      </trkpt>
      <trkpt lat="45.6498" lon="6.5306">
        <ele>2254</ele>
        <time>2022-07-16T06:49:05Z</time>
      </trkpt>
      <trkpt lat="45.6498" lon="6.53063">
        <ele>2253</ele>
        <time>2022-07-16T06:49:07Z</time>
      </trkpt>
      <trkpt lat="45.64978" lon="6.53065">
        <ele>2252</ele>
        <time>2022-07-16T06:49:09Z</time>
      </trkpt>
      <trkpt lat="45.64977" lon="6.53068">
        <ele>2252</ele>
        <time>2022-07-16T06:49:12Z</time>
      </trkpt>
      <trkpt lat="45.64976" lon="6.53071">
        <ele>2250</ele>
        <time>2022-07-16T06:49:15Z</time>
      </trkpt>
      <trkpt lat="45.64976" lon="6.53075">
        <ele>2249</ele>
        <time>2022-07-16T06:49:18Z</time>
      </trkpt>
      <trkpt lat="45.64975" lon="6.53078">
        <ele>2248</ele>
        <time>2022-07-16T06:49:20Z</time>
      </trkpt>
      <trkpt lat="45.64974" lon="6.53081">
        <ele>2248</ele>
        <time>2022-07-16T06:49:22Z</time>
      </trkpt>
      <trkpt lat="45.64973" lon="6.53083">
        <ele>2248</ele>
        <time>2022-07-16T06:49:24Z</time>
      </trkpt>
      <trkpt lat="45.64972" lon="6.53086">
        <ele>2246</ele>
        <time>2022-07-16T06:49:26Z</time>
      </trkpt>
      <trkpt lat="45.64971" lon="6.53089">
        <ele>2245</ele>
        <time>2022-07-16T06:49:28Z</time>
      </trkpt>
      <trkpt lat="45.64971" lon="6.53091">
        <ele>2244</ele>
        <time>2022-07-16T06:49:30Z</time>
      </trkpt>
      <trkpt lat="45.6497" lon="6.53095">
        <ele>2243</ele>
        <time>2022-07-16T06:49:32Z</time>
      </trkpt>
      <trkpt lat="45.64969" lon="6.53098">
        <ele>2242</ele>
        <time>2022-07-16T06:49:34Z</time>
      </trkpt>
      <trkpt lat="45.64966" lon="6.53101">
        <ele>2241</ele>
        <time>2022-07-16T06:49:36Z</time>
      </trkpt>
      <trkpt lat="45.64965" lon="6.53104">
        <ele>2241</ele>
        <time>2022-07-16T06:49:38Z</time>
      </trkpt>
      <trkpt lat="45.64964" lon="6.53107">
        <ele>2241</ele>
        <time>2022-07-16T06:49:40Z</time>
      </trkpt>
      <trkpt lat="45.64964" lon="6.53111">
        <ele>2239</ele>
        <time>2022-07-16T06:49:43Z</time>
      </trkpt>
      <trkpt lat="45.64962" lon="6.53115">
        <ele>2238</ele>
        <time>2022-07-16T06:49:45Z</time>
      </trkpt>
      <trkpt lat="45.6496" lon="6.53117">
        <ele>2238</ele>
        <time>2022-07-16T06:49:47Z</time>
      </trkpt>
      <trkpt lat="45.64959" lon="6.53119">
        <ele>2237</ele>
        <time>2022-07-16T06:49:49Z</time>
      </trkpt>
      <trkpt lat="45.64957" lon="6.53121">
        <ele>2237</ele>
        <time>2022-07-16T06:49:51Z</time>
      </trkpt>
      <trkpt lat="45.64956" lon="6.53124">
        <ele>2237</ele>
        <time>2022-07-16T06:49:54Z</time>
      </trkpt>
      <trkpt lat="45.64955" lon="6.53126">
        <ele>2237</ele>
        <time>2022-07-16T06:49:56Z</time>
      </trkpt>
      <trkpt lat="45.64953" lon="6.53127">
        <ele>2237</ele>
        <time>2022-07-16T06:49:58Z</time>
      </trkpt>
      <trkpt lat="45.64951" lon="6.53129">
        <ele>2236</ele>
        <time>2022-07-16T06:50:00Z</time>
      </trkpt>
      <trkpt lat="45.64949" lon="6.53131">
        <ele>2236</ele>
        <time>2022-07-16T06:50:02Z</time>
      </trkpt>
      <trkpt lat="45.64948" lon="6.53133">
        <ele>2236</ele>
        <time>2022-07-16T06:50:04Z</time>
      </trkpt>
      <trkpt lat="45.64946" lon="6.53135">
        <ele>2236</ele>
        <time>2022-07-16T06:50:06Z</time>
      </trkpt>
      <trkpt lat="45.64944" lon="6.53139">
        <ele>2235</ele>
        <time>2022-07-16T06:50:08Z</time>
      </trkpt>
      <trkpt lat="45.64942" lon="6.53142">
        <ele>2234</ele>
        <time>2022-07-16T06:50:10Z</time>
      </trkpt>
      <trkpt lat="45.6494" lon="6.53145">
        <ele>2233</ele>
        <time>2022-07-16T06:50:12Z</time>
      </trkpt>
      <trkpt lat="45.64939" lon="6.53148">
        <ele>2233</ele>
        <time>2022-07-16T06:50:14Z</time>
      </trkpt>
      <trkpt lat="45.64937" lon="6.53149">
        <ele>2233</ele>
        <time>2022-07-16T06:50:15Z</time>
      </trkpt>
      <trkpt lat="45.64936" lon="6.53151">
        <ele>2233</ele>
        <time>2022-07-16T06:50:16Z</time>
      </trkpt>
      <trkpt lat="45.64932" lon="6.53153">
        <ele>2231</ele>
        <time>2022-07-16T06:50:18Z</time>
      </trkpt>
      <trkpt lat="45.6493" lon="6.53155">
        <ele>2230</ele>
        <time>2022-07-16T06:50:20Z</time>
      </trkpt>
      <trkpt lat="45.64928" lon="6.53157">
        <ele>2229</ele>
        <time>2022-07-16T06:50:22Z</time>
      </trkpt>
      <trkpt lat="45.64926" lon="6.53159">
        <ele>2229</ele>
        <time>2022-07-16T06:50:24Z</time>
      </trkpt>
      <trkpt lat="45.64924" lon="6.53161">
        <ele>2228</ele>
        <time>2022-07-16T06:50:26Z</time>
      </trkpt>
      <trkpt lat="45.64921" lon="6.53164">
        <ele>2227</ele>
        <time>2022-07-16T06:50:28Z</time>
      </trkpt>
      <trkpt lat="45.64919" lon="6.53166">
        <ele>2227</ele>
        <time>2022-07-16T06:50:29Z</time>
      </trkpt>
      <trkpt lat="45.64917" lon="6.53168">
        <ele>2227</ele>
        <time>2022-07-16T06:50:31Z</time>
      </trkpt>
      <trkpt lat="45.64914" lon="6.5317">
        <ele>2227</ele>
        <time>2022-07-16T06:50:33Z</time>
      </trkpt>
      <trkpt lat="45.64911" lon="6.53173">
        <ele>2227</ele>
        <time>2022-07-16T06:50:35Z</time>
      </trkpt>
      <trkpt lat="45.64909" lon="6.53175">
        <ele>2227</ele>
        <time>2022-07-16T06:50:38Z</time>
      </trkpt>
      <trkpt lat="45.64908" lon="6.53178">
        <ele>2227</ele>
        <time>2022-07-16T06:50:39Z</time>
      </trkpt>
      <trkpt lat="45.64906" lon="6.5318">
        <ele>2227</ele>
        <time>2022-07-16T06:50:42Z</time>
      </trkpt>
      <trkpt lat="45.64905" lon="6.53182">
        <ele>2227</ele>
        <time>2022-07-16T06:50:44Z</time>
      </trkpt>
      <trkpt lat="45.64904" lon="6.53185">
        <ele>2225</ele>
        <time>2022-07-16T06:50:49Z</time>
      </trkpt>
      <trkpt lat="45.64902" lon="6.53188">
        <ele>2224</ele>
        <time>2022-07-16T06:50:53Z</time>
      </trkpt>
      <trkpt lat="45.649" lon="6.5319">
        <ele>2224</ele>
        <time>2022-07-16T06:50:55Z</time>
      </trkpt>
      <trkpt lat="45.64898" lon="6.53191">
        <ele>2223</ele>
        <time>2022-07-16T06:50:57Z</time>
      </trkpt>
      <trkpt lat="45.64896" lon="6.5319">
        <ele>2223</ele>
        <time>2022-07-16T06:50:59Z</time>
      </trkpt>
      <trkpt lat="45.64893" lon="6.53191">
        <ele>2223</ele>
        <time>2022-07-16T06:51:01Z</time>
      </trkpt>
      <trkpt lat="45.6489" lon="6.53192">
        <ele>2223</ele>
        <time>2022-07-16T06:51:03Z</time>
      </trkpt>
      <trkpt lat="45.64888" lon="6.53192">
        <ele>2223</ele>
        <time>2022-07-16T06:51:05Z</time>
      </trkpt>
      <trkpt lat="45.64885" lon="6.53193">
        <ele>2223</ele>
        <time>2022-07-16T06:51:07Z</time>
      </trkpt>
      <trkpt lat="45.64882" lon="6.53195">
        <ele>2223</ele>
        <time>2022-07-16T06:51:09Z</time>
      </trkpt>
      <trkpt lat="45.64881" lon="6.53198">
        <ele>2222</ele>
        <time>2022-07-16T06:51:11Z</time>
      </trkpt>
      <trkpt lat="45.64878" lon="6.532">
        <ele>2222</ele>
        <time>2022-07-16T06:51:13Z</time>
      </trkpt>
      <trkpt lat="45.64875" lon="6.532">
        <ele>2222</ele>
        <time>2022-07-16T06:51:15Z</time>
      </trkpt>
      <trkpt lat="45.64873" lon="6.53202">
        <ele>2220</ele>
        <time>2022-07-16T06:51:17Z</time>
      </trkpt>
      <trkpt lat="45.6487" lon="6.53203">
        <ele>2219</ele>
        <time>2022-07-16T06:51:19Z</time>
      </trkpt>
      <trkpt lat="45.64867" lon="6.53204">
        <ele>2219</ele>
        <time>2022-07-16T06:51:21Z</time>
      </trkpt>
      <trkpt lat="45.64865" lon="6.53206">
        <ele>2218</ele>
        <time>2022-07-16T06:51:23Z</time>
      </trkpt>
      <trkpt lat="45.64863" lon="6.53209">
        <ele>2218</ele>
        <time>2022-07-16T06:51:25Z</time>
      </trkpt>
      <trkpt lat="45.64862" lon="6.53212">
        <ele>2218</ele>
        <time>2022-07-16T06:51:27Z</time>
      </trkpt>
      <trkpt lat="45.64861" lon="6.53215">
        <ele>2217</ele>
        <time>2022-07-16T06:51:29Z</time>
      </trkpt>
      <trkpt lat="45.64861" lon="6.53218">
        <ele>2217</ele>
        <time>2022-07-16T06:51:31Z</time>
      </trkpt>
      <trkpt lat="45.64862" lon="6.5322">
        <ele>2216</ele>
        <time>2022-07-16T06:51:33Z</time>
      </trkpt>
      <trkpt lat="45.64864" lon="6.53222">
        <ele>2216</ele>
        <time>2022-07-16T06:51:35Z</time>
      </trkpt>
      <trkpt lat="45.64866" lon="6.53223">
        <ele>2214</ele>
        <time>2022-07-16T06:51:37Z</time>
      </trkpt>
      <trkpt lat="45.64869" lon="6.53224">
        <ele>2214</ele>
        <time>2022-07-16T06:51:39Z</time>
      </trkpt>
      <trkpt lat="45.64871" lon="6.53226">
        <ele>2214</ele>
        <time>2022-07-16T06:51:41Z</time>
      </trkpt>
      <trkpt lat="45.64873" lon="6.53227">
        <ele>2213</ele>
        <time>2022-07-16T06:51:43Z</time>
      </trkpt>
      <trkpt lat="45.64875" lon="6.53228">
        <ele>2213</ele>
        <time>2022-07-16T06:51:45Z</time>
      </trkpt>
      <trkpt lat="45.64877" lon="6.53229">
        <ele>2212</ele>
        <time>2022-07-16T06:51:47Z</time>
      </trkpt>
      <trkpt lat="45.64878" lon="6.53232">
        <ele>2211</ele>
        <time>2022-07-16T06:51:49Z</time>
      </trkpt>
      <trkpt lat="45.6488" lon="6.53231">
        <ele>2210</ele>
        <time>2022-07-16T06:51:52Z</time>
      </trkpt>
      <trkpt lat="45.64882" lon="6.53232">
        <ele>2209</ele>
        <time>2022-07-16T06:51:55Z</time>
      </trkpt>
      <trkpt lat="45.64884" lon="6.53234">
        <ele>2208</ele>
        <time>2022-07-16T06:51:57Z</time>
      </trkpt>
      <trkpt lat="45.64886" lon="6.53237">
        <ele>2207</ele>
        <time>2022-07-16T06:51:59Z</time>
      </trkpt>
      <trkpt lat="45.64888" lon="6.5324">
        <ele>2207</ele>
        <time>2022-07-16T06:52:01Z</time>
      </trkpt>
      <trkpt lat="45.6489" lon="6.53242">
        <ele>2206</ele>
        <time>2022-07-16T06:52:03Z</time>
      </trkpt>
      <trkpt lat="45.64893" lon="6.53241">
        <ele>2205</ele>
        <time>2022-07-16T06:52:05Z</time>
      </trkpt>
      <trkpt lat="45.64895" lon="6.53241">
        <ele>2205</ele>
        <time>2022-07-16T06:52:07Z</time>
      </trkpt>
      <trkpt lat="45.64897" lon="6.53242">
        <ele>2204</ele>
        <time>2022-07-16T06:52:09Z</time>
      </trkpt>
      <trkpt lat="45.649" lon="6.53243">
        <ele>2203</ele>
        <time>2022-07-16T06:52:11Z</time>
      </trkpt>
      <trkpt lat="45.64902" lon="6.53245">
        <ele>2202</ele>
        <time>2022-07-16T06:52:13Z</time>
      </trkpt>
      <trkpt lat="45.64905" lon="6.53246">
        <ele>2200</ele>
        <time>2022-07-16T06:52:15Z</time>
      </trkpt>
      <trkpt lat="45.64908" lon="6.53247">
        <ele>2200</ele>
        <time>2022-07-16T06:52:17Z</time>
      </trkpt>
      <trkpt lat="45.6491" lon="6.53248">
        <ele>2200</ele>
        <time>2022-07-16T06:52:19Z</time>
      </trkpt>
      <trkpt lat="45.64911" lon="6.53252">
        <ele>2200</ele>
        <time>2022-07-16T06:52:21Z</time>
      </trkpt>
      <trkpt lat="45.6491" lon="6.53254">
        <ele>2199</ele>
        <time>2022-07-16T06:52:23Z</time>
      </trkpt>
      <trkpt lat="45.64908" lon="6.53255">
        <ele>2198</ele>
        <time>2022-07-16T06:52:25Z</time>
      </trkpt>
      <trkpt lat="45.64907" lon="6.53258">
        <ele>2197</ele>
        <time>2022-07-16T06:52:27Z</time>
      </trkpt>
      <trkpt lat="45.64906" lon="6.53261">
        <ele>2196</ele>
        <time>2022-07-16T06:52:29Z</time>
      </trkpt>
      <trkpt lat="45.64905" lon="6.53264">
        <ele>2196</ele>
        <time>2022-07-16T06:52:32Z</time>
      </trkpt>
      <trkpt lat="45.64905" lon="6.53267">
        <ele>2194</ele>
        <time>2022-07-16T06:52:34Z</time>
      </trkpt>
      <trkpt lat="45.64905" lon="6.5327">
        <ele>2192</ele>
        <time>2022-07-16T06:52:37Z</time>
      </trkpt>
      <trkpt lat="45.64906" lon="6.53272">
        <ele>2192</ele>
        <time>2022-07-16T06:52:39Z</time>
      </trkpt>
      <trkpt lat="45.64908" lon="6.53275">
        <ele>2191</ele>
        <time>2022-07-16T06:52:41Z</time>
      </trkpt>
      <trkpt lat="45.6491" lon="6.53278">
        <ele>2189</ele>
        <time>2022-07-16T06:52:43Z</time>
      </trkpt>
      <trkpt lat="45.64912" lon="6.53281">
        <ele>2189</ele>
        <time>2022-07-16T06:52:45Z</time>
      </trkpt>
      <trkpt lat="45.64915" lon="6.53284">
        <ele>2188</ele>
        <time>2022-07-16T06:52:47Z</time>
      </trkpt>
      <trkpt lat="45.64917" lon="6.53287">
        <ele>2187</ele>
        <time>2022-07-16T06:52:49Z</time>
      </trkpt>
      <trkpt lat="45.6492" lon="6.5329">
        <ele>2187</ele>
        <time>2022-07-16T06:52:51Z</time>
      </trkpt>
      <trkpt lat="45.64922" lon="6.53291">
        <ele>2186</ele>
        <time>2022-07-16T06:52:52Z</time>
      </trkpt>
      <trkpt lat="45.64923" lon="6.53292">
        <ele>2186</ele>
        <time>2022-07-16T06:52:53Z</time>
      </trkpt>
      <trkpt lat="45.64925" lon="6.53294">
        <ele>2186</ele>
        <time>2022-07-16T06:52:54Z</time>
      </trkpt>
      <trkpt lat="45.64926" lon="6.53295">
        <ele>2185</ele>
        <time>2022-07-16T06:52:55Z</time>
      </trkpt>
      <trkpt lat="45.64928" lon="6.53297">
        <ele>2184</ele>
        <time>2022-07-16T06:52:56Z</time>
      </trkpt>
      <trkpt lat="45.64928" lon="6.53301">
        <ele>2184</ele>
        <time>2022-07-16T06:52:57Z</time>
      </trkpt>
      <trkpt lat="45.64928" lon="6.53302">
        <ele>2183</ele>
        <time>2022-07-16T06:52:58Z</time>
      </trkpt>
      <trkpt lat="45.64929" lon="6.53305">
        <ele>2183</ele>
        <time>2022-07-16T06:52:59Z</time>
      </trkpt>
      <trkpt lat="45.64929" lon="6.53308">
        <ele>2182</ele>
        <time>2022-07-16T06:53:00Z</time>
      </trkpt>
      <trkpt lat="45.6493" lon="6.53311">
        <ele>2182</ele>
        <time>2022-07-16T06:53:01Z</time>
      </trkpt>
      <trkpt lat="45.64931" lon="6.53314">
        <ele>2181</ele>
        <time>2022-07-16T06:53:02Z</time>
      </trkpt>
      <trkpt lat="45.64931" lon="6.53317">
        <ele>2181</ele>
        <time>2022-07-16T06:53:03Z</time>
      </trkpt>
      <trkpt lat="45.64932" lon="6.53322">
        <ele>2180</ele>
        <time>2022-07-16T06:53:05Z</time>
      </trkpt>
      <trkpt lat="45.64933" lon="6.53325">
        <ele>2180</ele>
        <time>2022-07-16T06:53:06Z</time>
      </trkpt>
      <trkpt lat="45.64934" lon="6.53329">
        <ele>2178</ele>
        <time>2022-07-16T06:53:08Z</time>
      </trkpt>
      <trkpt lat="45.64935" lon="6.53334">
        <ele>2178</ele>
        <time>2022-07-16T06:53:10Z</time>
      </trkpt>
      <trkpt lat="45.64936" lon="6.53336">
        <ele>2178</ele>
        <time>2022-07-16T06:53:11Z</time>
      </trkpt>
      <trkpt lat="45.64937" lon="6.53339">
        <ele>2177</ele>
        <time>2022-07-16T06:53:12Z</time>
      </trkpt>
      <trkpt lat="45.6494" lon="6.53343">
        <ele>2176</ele>
        <time>2022-07-16T06:53:14Z</time>
      </trkpt>
      <trkpt lat="45.64941" lon="6.53347">
        <ele>2176</ele>
        <time>2022-07-16T06:53:16Z</time>
      </trkpt>
      <trkpt lat="45.64942" lon="6.53353">
        <ele>2176</ele>
        <time>2022-07-16T06:53:18Z</time>
      </trkpt>
      <trkpt lat="45.64942" lon="6.53354">
        <ele>2175</ele>
        <time>2022-07-16T06:53:19Z</time>
      </trkpt>
      <trkpt lat="45.64943" lon="6.53357">
        <ele>2174</ele>
        <time>2022-07-16T06:53:20Z</time>
      </trkpt>
      <trkpt lat="45.64942" lon="6.53362">
        <ele>2173</ele>
        <time>2022-07-16T06:53:22Z</time>
      </trkpt>
      <trkpt lat="45.64943" lon="6.53367">
        <ele>2172</ele>
        <time>2022-07-16T06:53:24Z</time>
      </trkpt>
      <trkpt lat="45.64944" lon="6.53369">
        <ele>2172</ele>
        <time>2022-07-16T06:53:25Z</time>
      </trkpt>
      <trkpt lat="45.64947" lon="6.53373">
        <ele>2172</ele>
        <time>2022-07-16T06:53:26Z</time>
      </trkpt>
      <trkpt lat="45.64948" lon="6.53374">
        <ele>2171</ele>
        <time>2022-07-16T06:53:27Z</time>
      </trkpt>
      <trkpt lat="45.6495" lon="6.53378">
        <ele>2171</ele>
        <time>2022-07-16T06:53:28Z</time>
      </trkpt>
      <trkpt lat="45.64951" lon="6.53379">
        <ele>2171</ele>
        <time>2022-07-16T06:53:29Z</time>
      </trkpt>
      <trkpt lat="45.64952" lon="6.53382">
        <ele>2171</ele>
        <time>2022-07-16T06:53:30Z</time>
      </trkpt>
      <trkpt lat="45.64953" lon="6.53384">
        <ele>2170</ele>
        <time>2022-07-16T06:53:31Z</time>
      </trkpt>
      <trkpt lat="45.64955" lon="6.53386">
        <ele>2170</ele>
        <time>2022-07-16T06:53:32Z</time>
      </trkpt>
      <trkpt lat="45.64956" lon="6.53389">
        <ele>2170</ele>
        <time>2022-07-16T06:53:33Z</time>
      </trkpt>
      <trkpt lat="45.64957" lon="6.53391">
        <ele>2170</ele>
        <time>2022-07-16T06:53:34Z</time>
      </trkpt>
      <trkpt lat="45.64958" lon="6.53393">
        <ele>2170</ele>
        <time>2022-07-16T06:53:35Z</time>
      </trkpt>
      <trkpt lat="45.6496" lon="6.53394">
        <ele>2170</ele>
        <time>2022-07-16T06:53:36Z</time>
      </trkpt>
      <trkpt lat="45.64962" lon="6.53395">
        <ele>2170</ele>
        <time>2022-07-16T06:53:37Z</time>
      </trkpt>
      <trkpt lat="45.64964" lon="6.53397">
        <ele>2170</ele>
        <time>2022-07-16T06:53:38Z</time>
      </trkpt>
      <trkpt lat="45.64965" lon="6.53398">
        <ele>2170</ele>
        <time>2022-07-16T06:53:39Z</time>
      </trkpt>
      <trkpt lat="45.64967" lon="6.534">
        <ele>2168</ele>
        <time>2022-07-16T06:53:40Z</time>
      </trkpt>
      <trkpt lat="45.64969" lon="6.53401">
        <ele>2168</ele>
        <time>2022-07-16T06:53:41Z</time>
      </trkpt>
      <trkpt lat="45.64971" lon="6.53402">
        <ele>2168</ele>
        <time>2022-07-16T06:53:42Z</time>
      </trkpt>
      <trkpt lat="45.64972" lon="6.53404">
        <ele>2167</ele>
        <time>2022-07-16T06:53:43Z</time>
      </trkpt>
      <trkpt lat="45.64975" lon="6.53407">
        <ele>2166</ele>
        <time>2022-07-16T06:53:45Z</time>
      </trkpt>
      <trkpt lat="45.64977" lon="6.53409">
        <ele>2166</ele>
        <time>2022-07-16T06:53:46Z</time>
      </trkpt>
      <trkpt lat="45.6498" lon="6.53412">
        <ele>2165</ele>
        <time>2022-07-16T06:53:48Z</time>
      </trkpt>
      <trkpt lat="45.64982" lon="6.53415">
        <ele>2164</ele>
        <time>2022-07-16T06:53:49Z</time>
      </trkpt>
      <trkpt lat="45.64983" lon="6.53417">
        <ele>2163</ele>
        <time>2022-07-16T06:53:50Z</time>
      </trkpt>
      <trkpt lat="45.64985" lon="6.5342">
        <ele>2163</ele>
        <time>2022-07-16T06:53:51Z</time>
      </trkpt>
      <trkpt lat="45.64986" lon="6.53422">
        <ele>2163</ele>
        <time>2022-07-16T06:53:52Z</time>
      </trkpt>
      <trkpt lat="45.64988" lon="6.53424">
        <ele>2163</ele>
        <time>2022-07-16T06:53:53Z</time>
      </trkpt>
      <trkpt lat="45.64989" lon="6.53426">
        <ele>2163</ele>
        <time>2022-07-16T06:53:54Z</time>
      </trkpt>
      <trkpt lat="45.64991" lon="6.53428">
        <ele>2162</ele>
        <time>2022-07-16T06:53:55Z</time>
      </trkpt>
      <trkpt lat="45.64993" lon="6.53432">
        <ele>2162</ele>
        <time>2022-07-16T06:53:56Z</time>
      </trkpt>
      <trkpt lat="45.64994" lon="6.53434">
        <ele>2162</ele>
        <time>2022-07-16T06:53:57Z</time>
      </trkpt>
      <trkpt lat="45.64995" lon="6.53436">
        <ele>2162</ele>
        <time>2022-07-16T06:53:58Z</time>
      </trkpt>
      <trkpt lat="45.64996" lon="6.53438">
        <ele>2162</ele>
        <time>2022-07-16T06:53:59Z</time>
      </trkpt>
      <trkpt lat="45.64998" lon="6.53441">
        <ele>2161</ele>
        <time>2022-07-16T06:54:00Z</time>
      </trkpt>
      <trkpt lat="45.64999" lon="6.53443">
        <ele>2161</ele>
        <time>2022-07-16T06:54:01Z</time>
      </trkpt>
      <trkpt lat="45.65002" lon="6.53446">
        <ele>2161</ele>
        <time>2022-07-16T06:54:03Z</time>
      </trkpt>
      <trkpt lat="45.65003" lon="6.53449">
        <ele>2161</ele>
        <time>2022-07-16T06:54:05Z</time>
      </trkpt>
      <trkpt lat="45.65006" lon="6.53452">
        <ele>2160</ele>
        <time>2022-07-16T06:54:08Z</time>
      </trkpt>
      <trkpt lat="45.65008" lon="6.53454">
        <ele>2159</ele>
        <time>2022-07-16T06:54:10Z</time>
      </trkpt>
      <trkpt lat="45.6501" lon="6.53458">
        <ele>2159</ele>
        <time>2022-07-16T06:54:12Z</time>
      </trkpt>
      <trkpt lat="45.65011" lon="6.53462">
        <ele>2159</ele>
        <time>2022-07-16T06:54:13Z</time>
      </trkpt>
      <trkpt lat="45.65011" lon="6.53463">
        <ele>2159</ele>
        <time>2022-07-16T06:54:14Z</time>
      </trkpt>
      <trkpt lat="45.65012" lon="6.53465">
        <ele>2159</ele>
        <time>2022-07-16T06:54:15Z</time>
      </trkpt>
      <trkpt lat="45.65014" lon="6.5347">
        <ele>2159</ele>
        <time>2022-07-16T06:54:17Z</time>
      </trkpt>
      <trkpt lat="45.65014" lon="6.53474">
        <ele>2158</ele>
        <time>2022-07-16T06:54:19Z</time>
      </trkpt>
      <trkpt lat="45.65013" lon="6.53479">
        <ele>2158</ele>
        <time>2022-07-16T06:54:21Z</time>
      </trkpt>
      <trkpt lat="45.65012" lon="6.53483">
        <ele>2157</ele>
        <time>2022-07-16T06:54:23Z</time>
      </trkpt>
      <trkpt lat="45.65011" lon="6.53487">
        <ele>2157</ele>
        <time>2022-07-16T06:54:25Z</time>
      </trkpt>
      <trkpt lat="45.65011" lon="6.53491">
        <ele>2156</ele>
        <time>2022-07-16T06:54:27Z</time>
      </trkpt>
      <trkpt lat="45.65011" lon="6.53495">
        <ele>2156</ele>
        <time>2022-07-16T06:54:29Z</time>
      </trkpt>
      <trkpt lat="45.65009" lon="6.53499">
        <ele>2155</ele>
        <time>2022-07-16T06:54:31Z</time>
      </trkpt>
      <trkpt lat="45.65008" lon="6.53502">
        <ele>2154</ele>
        <time>2022-07-16T06:54:33Z</time>
      </trkpt>
      <trkpt lat="45.65009" lon="6.53506">
        <ele>2154</ele>
        <time>2022-07-16T06:54:35Z</time>
      </trkpt>
      <trkpt lat="45.65009" lon="6.5351">
        <ele>2153</ele>
        <time>2022-07-16T06:54:37Z</time>
      </trkpt>
      <trkpt lat="45.6501" lon="6.53514">
        <ele>2152</ele>
        <time>2022-07-16T06:54:39Z</time>
      </trkpt>
      <trkpt lat="45.6501" lon="6.53517">
        <ele>2151</ele>
        <time>2022-07-16T06:54:41Z</time>
      </trkpt>
      <trkpt lat="45.6501" lon="6.5352">
        <ele>2150</ele>
        <time>2022-07-16T06:54:45Z</time>
      </trkpt>
      <trkpt lat="45.65009" lon="6.53523">
        <ele>2150</ele>
        <time>2022-07-16T06:54:46Z</time>
      </trkpt>
      <trkpt lat="45.65007" lon="6.53525">
        <ele>2149</ele>
        <time>2022-07-16T06:54:48Z</time>
      </trkpt>
      <trkpt lat="45.65004" lon="6.53525">
        <ele>2148</ele>
        <time>2022-07-16T06:54:50Z</time>
      </trkpt>
      <trkpt lat="45.65002" lon="6.53525">
        <ele>2147</ele>
        <time>2022-07-16T06:54:51Z</time>
      </trkpt>
      <trkpt lat="45.64999" lon="6.53524">
        <ele>2146</ele>
        <time>2022-07-16T06:54:53Z</time>
      </trkpt>
      <trkpt lat="45.64997" lon="6.53526">
        <ele>2145</ele>
        <time>2022-07-16T06:54:55Z</time>
      </trkpt>
      <trkpt lat="45.64998" lon="6.53529">
        <ele>2145</ele>
        <time>2022-07-16T06:54:57Z</time>
      </trkpt>
      <trkpt lat="45.64999" lon="6.53533">
        <ele>2145</ele>
        <time>2022-07-16T06:54:59Z</time>
      </trkpt>
      <trkpt lat="45.65" lon="6.53538">
        <ele>2144</ele>
        <time>2022-07-16T06:55:01Z</time>
      </trkpt>
      <trkpt lat="45.65001" lon="6.5354">
        <ele>2142</ele>
        <time>2022-07-16T06:55:02Z</time>
      </trkpt>
      <trkpt lat="45.65003" lon="6.53544">
        <ele>2142</ele>
        <time>2022-07-16T06:55:04Z</time>
      </trkpt>
      <trkpt lat="45.65004" lon="6.53548">
        <ele>2141</ele>
        <time>2022-07-16T06:55:05Z</time>
      </trkpt>
      <trkpt lat="45.65005" lon="6.53549">
        <ele>2141</ele>
        <time>2022-07-16T06:55:06Z</time>
      </trkpt>
      <trkpt lat="45.65006" lon="6.53552">
        <ele>2140</ele>
        <time>2022-07-16T06:55:07Z</time>
      </trkpt>
      <trkpt lat="45.65007" lon="6.53554">
        <ele>2139</ele>
        <time>2022-07-16T06:55:08Z</time>
      </trkpt>
      <trkpt lat="45.65008" lon="6.53557">
        <ele>2139</ele>
        <time>2022-07-16T06:55:09Z</time>
      </trkpt>
      <trkpt lat="45.65009" lon="6.5356">
        <ele>2138</ele>
        <time>2022-07-16T06:55:10Z</time>
      </trkpt>
      <trkpt lat="45.6501" lon="6.53562">
        <ele>2138</ele>
        <time>2022-07-16T06:55:11Z</time>
      </trkpt>
      <trkpt lat="45.65011" lon="6.53566">
        <ele>2137</ele>
        <time>2022-07-16T06:55:13Z</time>
      </trkpt>
      <trkpt lat="45.65011" lon="6.53569">
        <ele>2137</ele>
        <time>2022-07-16T06:55:14Z</time>
      </trkpt>
      <trkpt lat="45.65011" lon="6.53571">
        <ele>2137</ele>
        <time>2022-07-16T06:55:15Z</time>
      </trkpt>
      <trkpt lat="45.65011" lon="6.53573">
        <ele>2136</ele>
        <time>2022-07-16T06:55:16Z</time>
      </trkpt>
      <trkpt lat="45.6501" lon="6.53575">
        <ele>2135</ele>
        <time>2022-07-16T06:55:17Z</time>
      </trkpt>
      <trkpt lat="45.65008" lon="6.53579">
        <ele>2134</ele>
        <time>2022-07-16T06:55:19Z</time>
      </trkpt>
      <trkpt lat="45.65008" lon="6.53581">
        <ele>2134</ele>
        <time>2022-07-16T06:55:20Z</time>
      </trkpt>
      <trkpt lat="45.65008" lon="6.53584">
        <ele>2134</ele>
        <time>2022-07-16T06:55:21Z</time>
      </trkpt>
      <trkpt lat="45.65007" lon="6.53588">
        <ele>2133</ele>
        <time>2022-07-16T06:55:23Z</time>
      </trkpt>
      <trkpt lat="45.65008" lon="6.53591">
        <ele>2133</ele>
        <time>2022-07-16T06:55:27Z</time>
      </trkpt>
      <trkpt lat="45.65009" lon="6.53595">
        <ele>2132</ele>
        <time>2022-07-16T06:55:29Z</time>
      </trkpt>
      <trkpt lat="45.65008" lon="6.53599">
        <ele>2132</ele>
        <time>2022-07-16T06:55:31Z</time>
      </trkpt>
      <trkpt lat="45.65006" lon="6.53601">
        <ele>2131</ele>
        <time>2022-07-16T06:55:33Z</time>
      </trkpt>
      <trkpt lat="45.65004" lon="6.53602">
        <ele>2130</ele>
        <time>2022-07-16T06:55:35Z</time>
      </trkpt>
      <trkpt lat="45.65002" lon="6.53605">
        <ele>2128</ele>
        <time>2022-07-16T06:55:38Z</time>
      </trkpt>
      <trkpt lat="45.65002" lon="6.53608">
        <ele>2128</ele>
        <time>2022-07-16T06:55:40Z</time>
      </trkpt>
      <trkpt lat="45.64999" lon="6.5361">
        <ele>2127</ele>
        <time>2022-07-16T06:55:42Z</time>
      </trkpt>
      <trkpt lat="45.64997" lon="6.53611">
        <ele>2126</ele>
        <time>2022-07-16T06:55:43Z</time>
      </trkpt>
      <trkpt lat="45.64995" lon="6.53608">
        <ele>2125</ele>
        <time>2022-07-16T06:55:45Z</time>
      </trkpt>
      <trkpt lat="45.64993" lon="6.53604">
        <ele>2125</ele>
        <time>2022-07-16T06:55:47Z</time>
      </trkpt>
      <trkpt lat="45.64991" lon="6.53603">
        <ele>2123</ele>
        <time>2022-07-16T06:55:49Z</time>
      </trkpt>
      <trkpt lat="45.64989" lon="6.53601">
        <ele>2123</ele>
        <time>2022-07-16T06:55:51Z</time>
      </trkpt>
      <trkpt lat="45.64986" lon="6.536">
        <ele>2122</ele>
        <time>2022-07-16T06:55:53Z</time>
      </trkpt>
      <trkpt lat="45.64984" lon="6.53599">
        <ele>2121</ele>
        <time>2022-07-16T06:55:55Z</time>
      </trkpt>
      <trkpt lat="45.64981" lon="6.53599">
        <ele>2120</ele>
        <time>2022-07-16T06:55:57Z</time>
      </trkpt>
      <trkpt lat="45.64979" lon="6.53596">
        <ele>2120</ele>
        <time>2022-07-16T06:55:59Z</time>
      </trkpt>
      <trkpt lat="45.64977" lon="6.53594">
        <ele>2118</ele>
        <time>2022-07-16T06:56:01Z</time>
      </trkpt>
      <trkpt lat="45.64975" lon="6.53594">
        <ele>2118</ele>
        <time>2022-07-16T06:56:03Z</time>
      </trkpt>
      <trkpt lat="45.64975" lon="6.53599">
        <ele>2116</ele>
        <time>2022-07-16T06:56:06Z</time>
      </trkpt>
      <trkpt lat="45.64975" lon="6.53603">
        <ele>2114</ele>
        <time>2022-07-16T06:56:08Z</time>
      </trkpt>
      <trkpt lat="45.64976" lon="6.53607">
        <ele>2113</ele>
        <time>2022-07-16T06:56:10Z</time>
      </trkpt>
      <trkpt lat="45.64974" lon="6.53606">
        <ele>2113</ele>
        <time>2022-07-16T06:56:12Z</time>
      </trkpt>
      <trkpt lat="45.64971" lon="6.53604">
        <ele>2111</ele>
        <time>2022-07-16T06:56:14Z</time>
      </trkpt>
      <trkpt lat="45.64969" lon="6.53604">
        <ele>2110</ele>
        <time>2022-07-16T06:56:16Z</time>
      </trkpt>
      <trkpt lat="45.64966" lon="6.53604">
        <ele>2110</ele>
        <time>2022-07-16T06:56:18Z</time>
      </trkpt>
      <trkpt lat="45.64964" lon="6.53604">
        <ele>2109</ele>
        <time>2022-07-16T06:56:20Z</time>
      </trkpt>
      <trkpt lat="45.64962" lon="6.53607">
        <ele>2108</ele>
        <time>2022-07-16T06:56:23Z</time>
      </trkpt>
      <trkpt lat="45.64961" lon="6.53609">
        <ele>2107</ele>
        <time>2022-07-16T06:56:25Z</time>
      </trkpt>
      <trkpt lat="45.64959" lon="6.53612">
        <ele>2106</ele>
        <time>2022-07-16T06:56:27Z</time>
      </trkpt>
      <trkpt lat="45.64958" lon="6.53615">
        <ele>2105</ele>
        <time>2022-07-16T06:56:29Z</time>
      </trkpt>
      <trkpt lat="45.64958" lon="6.53618">
        <ele>2103</ele>
        <time>2022-07-16T06:56:31Z</time>
      </trkpt>
      <trkpt lat="45.64957" lon="6.53621">
        <ele>2103</ele>
        <time>2022-07-16T06:56:33Z</time>
      </trkpt>
      <trkpt lat="45.64956" lon="6.53625">
        <ele>2102</ele>
        <time>2022-07-16T06:56:35Z</time>
      </trkpt>
      <trkpt lat="45.64955" lon="6.53628">
        <ele>2101</ele>
        <time>2022-07-16T06:56:37Z</time>
      </trkpt>
      <trkpt lat="45.64953" lon="6.53631">
        <ele>2101</ele>
        <time>2022-07-16T06:56:39Z</time>
      </trkpt>
      <trkpt lat="45.64951" lon="6.53633">
        <ele>2099</ele>
        <time>2022-07-16T06:56:41Z</time>
      </trkpt>
      <trkpt lat="45.64949" lon="6.53635">
        <ele>2099</ele>
        <time>2022-07-16T06:56:43Z</time>
      </trkpt>
      <trkpt lat="45.64946" lon="6.53637">
        <ele>2098</ele>
        <time>2022-07-16T06:56:45Z</time>
      </trkpt>
      <trkpt lat="45.64944" lon="6.53638">
        <ele>2097</ele>
        <time>2022-07-16T06:56:47Z</time>
      </trkpt>
      <trkpt lat="45.64941" lon="6.53638">
        <ele>2096</ele>
        <time>2022-07-16T06:56:49Z</time>
      </trkpt>
      <trkpt lat="45.64939" lon="6.53637">
        <ele>2094</ele>
        <time>2022-07-16T06:56:51Z</time>
      </trkpt>
      <trkpt lat="45.64936" lon="6.53637">
        <ele>2094</ele>
        <time>2022-07-16T06:56:53Z</time>
      </trkpt>
      <trkpt lat="45.64935" lon="6.53639">
        <ele>2093</ele>
        <time>2022-07-16T06:56:56Z</time>
      </trkpt>
      <trkpt lat="45.64936" lon="6.53642">
        <ele>2093</ele>
        <time>2022-07-16T06:56:58Z</time>
      </trkpt>
      <trkpt lat="45.64936" lon="6.53645">
        <ele>2092</ele>
        <time>2022-07-16T06:57:00Z</time>
      </trkpt>
      <trkpt lat="45.64935" lon="6.53648">
        <ele>2089</ele>
        <time>2022-07-16T06:57:03Z</time>
      </trkpt>
      <trkpt lat="45.64935" lon="6.53651">
        <ele>2088</ele>
        <time>2022-07-16T06:57:05Z</time>
      </trkpt>
      <trkpt lat="45.64934" lon="6.53653">
        <ele>2087</ele>
        <time>2022-07-16T06:57:07Z</time>
      </trkpt>
      <trkpt lat="45.64933" lon="6.53656">
        <ele>2086</ele>
        <time>2022-07-16T06:57:09Z</time>
      </trkpt>
      <trkpt lat="45.64932" lon="6.5366">
        <ele>2085</ele>
        <time>2022-07-16T06:57:11Z</time>
      </trkpt>
      <trkpt lat="45.64932" lon="6.53664">
        <ele>2083</ele>
        <time>2022-07-16T06:57:13Z</time>
      </trkpt>
      <trkpt lat="45.64932" lon="6.53667">
        <ele>2082</ele>
        <time>2022-07-16T06:57:15Z</time>
      </trkpt>
      <trkpt lat="45.64932" lon="6.53672">
        <ele>2081</ele>
        <time>2022-07-16T06:57:17Z</time>
      </trkpt>
      <trkpt lat="45.64931" lon="6.53676">
        <ele>2080</ele>
        <time>2022-07-16T06:57:19Z</time>
      </trkpt>
      <trkpt lat="45.64929" lon="6.53682">
        <ele>2080</ele>
        <time>2022-07-16T06:57:21Z</time>
      </trkpt>
      <trkpt lat="45.64929" lon="6.53683">
        <ele>2079</ele>
        <time>2022-07-16T06:57:22Z</time>
      </trkpt>
      <trkpt lat="45.64928" lon="6.53686">
        <ele>2079</ele>
        <time>2022-07-16T06:57:23Z</time>
      </trkpt>
      <trkpt lat="45.64928" lon="6.53689">
        <ele>2079</ele>
        <time>2022-07-16T06:57:24Z</time>
      </trkpt>
      <trkpt lat="45.64926" lon="6.53693">
        <ele>2079</ele>
        <time>2022-07-16T06:57:25Z</time>
      </trkpt>
      <trkpt lat="45.64926" lon="6.53694">
        <ele>2079</ele>
        <time>2022-07-16T06:57:26Z</time>
      </trkpt>
      <trkpt lat="45.64925" lon="6.53697">
        <ele>2078</ele>
        <time>2022-07-16T06:57:27Z</time>
      </trkpt>
      <trkpt lat="45.64924" lon="6.53699">
        <ele>2077</ele>
        <time>2022-07-16T06:57:28Z</time>
      </trkpt>
      <trkpt lat="45.64923" lon="6.53704">
        <ele>2076</ele>
        <time>2022-07-16T06:57:30Z</time>
      </trkpt>
      <trkpt lat="45.64923" lon="6.53707">
        <ele>2076</ele>
        <time>2022-07-16T06:57:31Z</time>
      </trkpt>
      <trkpt lat="45.64922" lon="6.5371">
        <ele>2076</ele>
        <time>2022-07-16T06:57:32Z</time>
      </trkpt>
      <trkpt lat="45.64922" lon="6.53712">
        <ele>2075</ele>
        <time>2022-07-16T06:57:33Z</time>
      </trkpt>
      <trkpt lat="45.64923" lon="6.53714">
        <ele>2075</ele>
        <time>2022-07-16T06:57:34Z</time>
      </trkpt>
      <trkpt lat="45.64923" lon="6.53716">
        <ele>2075</ele>
        <time>2022-07-16T06:57:35Z</time>
      </trkpt>
      <trkpt lat="45.64923" lon="6.53718">
        <ele>2075</ele>
        <time>2022-07-16T06:57:36Z</time>
      </trkpt>
      <trkpt lat="45.64924" lon="6.5372">
        <ele>2075</ele>
        <time>2022-07-16T06:57:37Z</time>
      </trkpt>
      <trkpt lat="45.64924" lon="6.53722">
        <ele>2074</ele>
        <time>2022-07-16T06:57:38Z</time>
      </trkpt>
      <trkpt lat="45.64924" lon="6.53724">
        <ele>2074</ele>
        <time>2022-07-16T06:57:39Z</time>
      </trkpt>
      <trkpt lat="45.64925" lon="6.53726">
        <ele>2073</ele>
        <time>2022-07-16T06:57:40Z</time>
      </trkpt>
      <trkpt lat="45.64927" lon="6.53729">
        <ele>2072</ele>
        <time>2022-07-16T06:57:42Z</time>
      </trkpt>
      <trkpt lat="45.64927" lon="6.53731">
        <ele>2072</ele>
        <time>2022-07-16T06:57:43Z</time>
      </trkpt>
      <trkpt lat="45.64927" lon="6.53733">
        <ele>2071</ele>
        <time>2022-07-16T06:57:44Z</time>
      </trkpt>
      <trkpt lat="45.64927" lon="6.53734">
        <ele>2071</ele>
        <time>2022-07-16T06:57:45Z</time>
      </trkpt>
      <trkpt lat="45.64927" lon="6.53736">
        <ele>2071</ele>
        <time>2022-07-16T06:57:46Z</time>
      </trkpt>
      <trkpt lat="45.64927" lon="6.53738">
        <ele>2071</ele>
        <time>2022-07-16T06:57:47Z</time>
      </trkpt>
      <trkpt lat="45.64928" lon="6.53742">
        <ele>2070</ele>
        <time>2022-07-16T06:57:49Z</time>
      </trkpt>
      <trkpt lat="45.64929" lon="6.53745">
        <ele>2068</ele>
        <time>2022-07-16T06:57:51Z</time>
      </trkpt>
      <trkpt lat="45.64929" lon="6.53749">
        <ele>2068</ele>
        <time>2022-07-16T06:57:52Z</time>
      </trkpt>
      <trkpt lat="45.64929" lon="6.53753">
        <ele>2068</ele>
        <time>2022-07-16T06:57:55Z</time>
      </trkpt>
      <trkpt lat="45.64928" lon="6.53757">
        <ele>2067</ele>
        <time>2022-07-16T06:57:56Z</time>
      </trkpt>
      <trkpt lat="45.64925" lon="6.53757">
        <ele>2067</ele>
        <time>2022-07-16T06:57:58Z</time>
      </trkpt>
      <trkpt lat="45.64922" lon="6.53757">
        <ele>2067</ele>
        <time>2022-07-16T06:58:00Z</time>
      </trkpt>
      <trkpt lat="45.6492" lon="6.53755">
        <ele>2067</ele>
        <time>2022-07-16T06:58:02Z</time>
      </trkpt>
      <trkpt lat="45.64917" lon="6.53754">
        <ele>2067</ele>
        <time>2022-07-16T06:58:04Z</time>
      </trkpt>
      <trkpt lat="45.64914" lon="6.53752">
        <ele>2067</ele>
        <time>2022-07-16T06:58:06Z</time>
      </trkpt>
      <trkpt lat="45.64912" lon="6.53751">
        <ele>2068</ele>
        <time>2022-07-16T06:58:08Z</time>
      </trkpt>
      <trkpt lat="45.64909" lon="6.53749">
        <ele>2068</ele>
        <time>2022-07-16T06:58:10Z</time>
      </trkpt>
      <trkpt lat="45.64906" lon="6.53747">
        <ele>2068</ele>
        <time>2022-07-16T06:58:12Z</time>
      </trkpt>
      <trkpt lat="45.64904" lon="6.53744">
        <ele>2068</ele>
        <time>2022-07-16T06:58:14Z</time>
      </trkpt>
      <trkpt lat="45.64901" lon="6.53742">
        <ele>2068</ele>
        <time>2022-07-16T06:58:16Z</time>
      </trkpt>
      <trkpt lat="45.64899" lon="6.53739">
        <ele>2069</ele>
        <time>2022-07-16T06:58:18Z</time>
      </trkpt>
      <trkpt lat="45.64897" lon="6.53737">
        <ele>2069</ele>
        <time>2022-07-16T06:58:20Z</time>
      </trkpt>
      <trkpt lat="45.64895" lon="6.53734">
        <ele>2070</ele>
        <time>2022-07-16T06:58:22Z</time>
      </trkpt>
      <trkpt lat="45.64893" lon="6.53732">
        <ele>2070</ele>
        <time>2022-07-16T06:58:24Z</time>
      </trkpt>
      <trkpt lat="45.64891" lon="6.5373">
        <ele>2070</ele>
        <time>2022-07-16T06:58:26Z</time>
      </trkpt>
      <trkpt lat="45.6489" lon="6.53728">
        <ele>2070</ele>
        <time>2022-07-16T06:58:28Z</time>
      </trkpt>
      <trkpt lat="45.64888" lon="6.53726">
        <ele>2071</ele>
        <time>2022-07-16T06:58:30Z</time>
      </trkpt>
      <trkpt lat="45.64884" lon="6.53724">
        <ele>2070</ele>
        <time>2022-07-16T06:58:33Z</time>
      </trkpt>
      <trkpt lat="45.64881" lon="6.53722">
        <ele>2071</ele>
        <time>2022-07-16T06:58:35Z</time>
      </trkpt>
      <trkpt lat="45.64879" lon="6.5372">
        <ele>2071</ele>
        <time>2022-07-16T06:58:37Z</time>
      </trkpt>
      <trkpt lat="45.64876" lon="6.53718">
        <ele>2071</ele>
        <time>2022-07-16T06:58:39Z</time>
      </trkpt>
      <trkpt lat="45.64874" lon="6.53716">
        <ele>2071</ele>
        <time>2022-07-16T06:58:41Z</time>
      </trkpt>
      <trkpt lat="45.64872" lon="6.53714">
        <ele>2071</ele>
        <time>2022-07-16T06:58:43Z</time>
      </trkpt>
      <trkpt lat="45.6487" lon="6.53712">
        <ele>2071</ele>
        <time>2022-07-16T06:58:45Z</time>
      </trkpt>
      <trkpt lat="45.64867" lon="6.53711">
        <ele>2071</ele>
        <time>2022-07-16T06:58:47Z</time>
      </trkpt>
      <trkpt lat="45.64864" lon="6.5371">
        <ele>2071</ele>
        <time>2022-07-16T06:58:49Z</time>
      </trkpt>
      <trkpt lat="45.64862" lon="6.53709">
        <ele>2071</ele>
        <time>2022-07-16T06:58:51Z</time>
      </trkpt>
      <trkpt lat="45.64859" lon="6.5371">
        <ele>2071</ele>
        <time>2022-07-16T06:58:54Z</time>
      </trkpt>
      <trkpt lat="45.64856" lon="6.5371">
        <ele>2071</ele>
        <time>2022-07-16T06:58:56Z</time>
      </trkpt>
      <trkpt lat="45.64853" lon="6.5371">
        <ele>2071</ele>
        <time>2022-07-16T06:58:58Z</time>
      </trkpt>
      <trkpt lat="45.64849" lon="6.53709">
        <ele>2071</ele>
        <time>2022-07-16T06:59:01Z</time>
      </trkpt>
      <trkpt lat="45.64846" lon="6.53708">
        <ele>2071</ele>
        <time>2022-07-16T06:59:03Z</time>
      </trkpt>
      <trkpt lat="45.64844" lon="6.53707">
        <ele>2071</ele>
        <time>2022-07-16T06:59:05Z</time>
      </trkpt>
      <trkpt lat="45.64841" lon="6.53707">
        <ele>2071</ele>
        <time>2022-07-16T06:59:07Z</time>
      </trkpt>
      <trkpt lat="45.64838" lon="6.53706">
        <ele>2072</ele>
        <time>2022-07-16T06:59:09Z</time>
      </trkpt>
      <trkpt lat="45.64836" lon="6.53706">
        <ele>2072</ele>
        <time>2022-07-16T06:59:11Z</time>
      </trkpt>
      <trkpt lat="45.64834" lon="6.53706">
        <ele>2073</ele>
        <time>2022-07-16T06:59:13Z</time>
      </trkpt>
      <trkpt lat="45.64831" lon="6.53705">
        <ele>2073</ele>
        <time>2022-07-16T06:59:15Z</time>
      </trkpt>
      <trkpt lat="45.64829" lon="6.53704">
        <ele>2073</ele>
        <time>2022-07-16T06:59:17Z</time>
      </trkpt>
      <trkpt lat="45.64827" lon="6.53703">
        <ele>2073</ele>
        <time>2022-07-16T06:59:19Z</time>
      </trkpt>
      <trkpt lat="45.64824" lon="6.53702">
        <ele>2073</ele>
        <time>2022-07-16T06:59:21Z</time>
      </trkpt>
      <trkpt lat="45.64822" lon="6.53701">
        <ele>2073</ele>
        <time>2022-07-16T06:59:23Z</time>
      </trkpt>
      <trkpt lat="45.64819" lon="6.537">
        <ele>2073</ele>
        <time>2022-07-16T06:59:25Z</time>
      </trkpt>
      <trkpt lat="45.64816" lon="6.53699">
        <ele>2073</ele>
        <time>2022-07-16T06:59:27Z</time>
      </trkpt>
      <trkpt lat="45.64814" lon="6.53698">
        <ele>2074</ele>
        <time>2022-07-16T06:59:30Z</time>
      </trkpt>
      <trkpt lat="45.6481" lon="6.53697">
        <ele>2074</ele>
        <time>2022-07-16T06:59:31Z</time>
      </trkpt>
      <trkpt lat="45.64808" lon="6.53696">
        <ele>2074</ele>
        <time>2022-07-16T06:59:33Z</time>
      </trkpt>
      <trkpt lat="45.64806" lon="6.53695">
        <ele>2074</ele>
        <time>2022-07-16T06:59:35Z</time>
      </trkpt>
      <trkpt lat="45.64803" lon="6.53694">
        <ele>2074</ele>
        <time>2022-07-16T06:59:37Z</time>
      </trkpt>
      <trkpt lat="45.648" lon="6.53693">
        <ele>2074</ele>
        <time>2022-07-16T06:59:39Z</time>
      </trkpt>
      <trkpt lat="45.64798" lon="6.53692">
        <ele>2074</ele>
        <time>2022-07-16T06:59:41Z</time>
      </trkpt>
      <trkpt lat="45.64797" lon="6.53691">
        <ele>2074</ele>
        <time>2022-07-16T06:59:42Z</time>
      </trkpt>
      <trkpt lat="45.64794" lon="6.5369">
        <ele>2074</ele>
        <time>2022-07-16T06:59:44Z</time>
      </trkpt>
      <trkpt lat="45.64791" lon="6.53689">
        <ele>2074</ele>
        <time>2022-07-16T06:59:46Z</time>
      </trkpt>
      <trkpt lat="45.64788" lon="6.53689">
        <ele>2075</ele>
        <time>2022-07-16T06:59:48Z</time>
      </trkpt>
      <trkpt lat="45.64785" lon="6.53688">
        <ele>2075</ele>
        <time>2022-07-16T06:59:50Z</time>
      </trkpt>
      <trkpt lat="45.64783" lon="6.53688">
        <ele>2075</ele>
        <time>2022-07-16T06:59:52Z</time>
      </trkpt>
      <trkpt lat="45.6478" lon="6.53687">
        <ele>2075</ele>
        <time>2022-07-16T06:59:54Z</time>
      </trkpt>
      <trkpt lat="45.64779" lon="6.53686">
        <ele>2075</ele>
        <time>2022-07-16T06:59:56Z</time>
      </trkpt>
      <trkpt lat="45.64776" lon="6.53686">
        <ele>2075</ele>
        <time>2022-07-16T06:59:58Z</time>
      </trkpt>
      <trkpt lat="45.64774" lon="6.53684">
        <ele>2075</ele>
        <time>2022-07-16T07:00:00Z</time>
      </trkpt>
      <trkpt lat="45.64772" lon="6.53683">
        <ele>2075</ele>
        <time>2022-07-16T07:00:02Z</time>
      </trkpt>
      <trkpt lat="45.6477" lon="6.53684">
        <ele>2074</ele>
        <time>2022-07-16T07:00:04Z</time>
      </trkpt>
      <trkpt lat="45.64767" lon="6.53684">
        <ele>2074</ele>
        <time>2022-07-16T07:00:06Z</time>
      </trkpt>
      <trkpt lat="45.64764" lon="6.53684">
        <ele>2073</ele>
        <time>2022-07-16T07:00:08Z</time>
      </trkpt>
      <trkpt lat="45.64763" lon="6.53683">
        <ele>2073</ele>
        <time>2022-07-16T07:00:09Z</time>
      </trkpt>
      <trkpt lat="45.64761" lon="6.53682">
        <ele>2073</ele>
        <time>2022-07-16T07:00:10Z</time>
      </trkpt>
      <trkpt lat="45.64759" lon="6.53682">
        <ele>2073</ele>
        <time>2022-07-16T07:00:11Z</time>
      </trkpt>
      <trkpt lat="45.64757" lon="6.53681">
        <ele>2073</ele>
        <time>2022-07-16T07:00:12Z</time>
      </trkpt>
      <trkpt lat="45.64753" lon="6.5368">
        <ele>2072</ele>
        <time>2022-07-16T07:00:14Z</time>
      </trkpt>
      <trkpt lat="45.64751" lon="6.53679">
        <ele>2073</ele>
        <time>2022-07-16T07:00:15Z</time>
      </trkpt>
      <trkpt lat="45.6475" lon="6.53677">
        <ele>2073</ele>
        <time>2022-07-16T07:00:16Z</time>
      </trkpt>
      <trkpt lat="45.64747" lon="6.53675">
        <ele>2072</ele>
        <time>2022-07-16T07:00:18Z</time>
      </trkpt>
      <trkpt lat="45.64746" lon="6.53674">
        <ele>2072</ele>
        <time>2022-07-16T07:00:19Z</time>
      </trkpt>
      <trkpt lat="45.64745" lon="6.53673">
        <ele>2072</ele>
        <time>2022-07-16T07:00:20Z</time>
      </trkpt>
      <trkpt lat="45.64743" lon="6.53672">
        <ele>2072</ele>
        <time>2022-07-16T07:00:21Z</time>
      </trkpt>
      <trkpt lat="45.6474" lon="6.53669">
        <ele>2072</ele>
        <time>2022-07-16T07:00:22Z</time>
      </trkpt>
      <trkpt lat="45.64738" lon="6.53669">
        <ele>2071</ele>
        <time>2022-07-16T07:00:23Z</time>
      </trkpt>
      <trkpt lat="45.64735" lon="6.53667">
        <ele>2071</ele>
        <time>2022-07-16T07:00:25Z</time>
      </trkpt>
      <trkpt lat="45.64734" lon="6.53666">
        <ele>2070</ele>
        <time>2022-07-16T07:00:28Z</time>
      </trkpt>
      <trkpt lat="45.64732" lon="6.53664">
        <ele>2070</ele>
        <time>2022-07-16T07:00:29Z</time>
      </trkpt>
      <trkpt lat="45.6473" lon="6.53663">
        <ele>2070</ele>
        <time>2022-07-16T07:00:30Z</time>
      </trkpt>
      <trkpt lat="45.64728" lon="6.53661">
        <ele>2069</ele>
        <time>2022-07-16T07:00:32Z</time>
      </trkpt>
      <trkpt lat="45.64727" lon="6.5366">
        <ele>2069</ele>
        <time>2022-07-16T07:00:34Z</time>
      </trkpt>
      <trkpt lat="45.64724" lon="6.53659">
        <ele>2067</ele>
        <time>2022-07-16T07:00:38Z</time>
      </trkpt>
      <trkpt lat="45.64722" lon="6.53658">
        <ele>2067</ele>
        <time>2022-07-16T07:00:41Z</time>
      </trkpt>
      <trkpt lat="45.6472" lon="6.53656">
        <ele>2066</ele>
        <time>2022-07-16T07:00:43Z</time>
      </trkpt>
      <trkpt lat="45.64719" lon="6.53654">
        <ele>2066</ele>
        <time>2022-07-16T07:00:45Z</time>
      </trkpt>
      <trkpt lat="45.64717" lon="6.53652">
        <ele>2066</ele>
        <time>2022-07-16T07:00:47Z</time>
      </trkpt>
      <trkpt lat="45.64715" lon="6.53651">
        <ele>2064</ele>
        <time>2022-07-16T07:00:49Z</time>
      </trkpt>
      <trkpt lat="45.64714" lon="6.5365">
        <ele>2064</ele>
        <time>2022-07-16T07:00:51Z</time>
      </trkpt>
      <trkpt lat="45.64711" lon="6.53649">
        <ele>2063</ele>
        <time>2022-07-16T07:00:57Z</time>
      </trkpt>
      <trkpt lat="45.64709" lon="6.53649">
        <ele>2063</ele>
        <time>2022-07-16T07:00:59Z</time>
      </trkpt>
      <trkpt lat="45.64708" lon="6.5365">
        <ele>2064</ele>
        <time>2022-07-16T07:01:01Z</time>
      </trkpt>
      <trkpt lat="45.64705" lon="6.5365">
        <ele>2066</ele>
        <time>2022-07-16T07:01:04Z</time>
      </trkpt>
      <trkpt lat="45.64703" lon="6.53651">
        <ele>2064</ele>
        <time>2022-07-16T07:01:06Z</time>
      </trkpt>
      <trkpt lat="45.64699" lon="6.53651">
        <ele>2063</ele>
        <time>2022-07-16T07:01:08Z</time>
      </trkpt>
      <trkpt lat="45.64697" lon="6.53651">
        <ele>2064</ele>
        <time>2022-07-16T07:01:09Z</time>
      </trkpt>
      <trkpt lat="45.64695" lon="6.53651">
        <ele>2064</ele>
        <time>2022-07-16T07:01:10Z</time>
      </trkpt>
      <trkpt lat="45.64693" lon="6.53651">
        <ele>2064</ele>
        <time>2022-07-16T07:01:11Z</time>
      </trkpt>
      <trkpt lat="45.64692" lon="6.53651">
        <ele>2064</ele>
        <time>2022-07-16T07:01:12Z</time>
      </trkpt>
      <trkpt lat="45.64689" lon="6.53651">
        <ele>2064</ele>
        <time>2022-07-16T07:01:13Z</time>
      </trkpt>
      <trkpt lat="45.64688" lon="6.53651">
        <ele>2064</ele>
        <time>2022-07-16T07:01:14Z</time>
      </trkpt>
      <trkpt lat="45.64686" lon="6.53652">
        <ele>2064</ele>
        <time>2022-07-16T07:01:15Z</time>
      </trkpt>
      <trkpt lat="45.64683" lon="6.53652">
        <ele>2064</ele>
        <time>2022-07-16T07:01:16Z</time>
      </trkpt>
      <trkpt lat="45.64681" lon="6.53652">
        <ele>2063</ele>
        <time>2022-07-16T07:01:17Z</time>
      </trkpt>
      <trkpt lat="45.64679" lon="6.53652">
        <ele>2064</ele>
        <time>2022-07-16T07:01:18Z</time>
      </trkpt>
      <trkpt lat="45.64676" lon="6.53651">
        <ele>2064</ele>
        <time>2022-07-16T07:01:19Z</time>
      </trkpt>
      <trkpt lat="45.64674" lon="6.53651">
        <ele>2064</ele>
        <time>2022-07-16T07:01:20Z</time>
      </trkpt>
      <trkpt lat="45.64672" lon="6.53651">
        <ele>2064</ele>
        <time>2022-07-16T07:01:21Z</time>
      </trkpt>
      <trkpt lat="45.6467" lon="6.53651">
        <ele>2064</ele>
        <time>2022-07-16T07:01:22Z</time>
      </trkpt>
      <trkpt lat="45.64668" lon="6.53651">
        <ele>2064</ele>
        <time>2022-07-16T07:01:23Z</time>
      </trkpt>
      <trkpt lat="45.64666" lon="6.5365">
        <ele>2064</ele>
        <time>2022-07-16T07:01:24Z</time>
      </trkpt>
      <trkpt lat="45.64664" lon="6.5365">
        <ele>2064</ele>
        <time>2022-07-16T07:01:25Z</time>
      </trkpt>
      <trkpt lat="45.64662" lon="6.5365">
        <ele>2064</ele>
        <time>2022-07-16T07:01:26Z</time>
      </trkpt>
      <trkpt lat="45.64658" lon="6.5365">
        <ele>2066</ele>
        <time>2022-07-16T07:01:28Z</time>
      </trkpt>
      <trkpt lat="45.64656" lon="6.5365">
        <ele>2066</ele>
        <time>2022-07-16T07:01:29Z</time>
      </trkpt>
      <trkpt lat="45.64654" lon="6.5365">
        <ele>2066</ele>
        <time>2022-07-16T07:01:30Z</time>
      </trkpt>
      <trkpt lat="45.64652" lon="6.53649">
        <ele>2066</ele>
        <time>2022-07-16T07:01:31Z</time>
      </trkpt>
      <trkpt lat="45.64649" lon="6.53647">
        <ele>2066</ele>
        <time>2022-07-16T07:01:33Z</time>
      </trkpt>
      <trkpt lat="45.64647" lon="6.53645">
        <ele>2066</ele>
        <time>2022-07-16T07:01:35Z</time>
      </trkpt>
      <trkpt lat="45.64643" lon="6.53645">
        <ele>2067</ele>
        <time>2022-07-16T07:01:37Z</time>
      </trkpt>
      <trkpt lat="45.64639" lon="6.53645">
        <ele>2067</ele>
        <time>2022-07-16T07:01:39Z</time>
      </trkpt>
      <trkpt lat="45.64638" lon="6.53646">
        <ele>2067</ele>
        <time>2022-07-16T07:01:40Z</time>
      </trkpt>
      <trkpt lat="45.64636" lon="6.53647">
        <ele>2067</ele>
        <time>2022-07-16T07:01:41Z</time>
      </trkpt>
      <trkpt lat="45.64633" lon="6.53646">
        <ele>2067</ele>
        <time>2022-07-16T07:01:43Z</time>
      </trkpt>
      <trkpt lat="45.64632" lon="6.53646">
        <ele>2067</ele>
        <time>2022-07-16T07:01:44Z</time>
      </trkpt>
      <trkpt lat="45.6463" lon="6.53647">
        <ele>2068</ele>
        <time>2022-07-16T07:01:45Z</time>
      </trkpt>
      <trkpt lat="45.64629" lon="6.53647">
        <ele>2068</ele>
        <time>2022-07-16T07:01:46Z</time>
      </trkpt>
      <trkpt lat="45.64627" lon="6.53647">
        <ele>2068</ele>
        <time>2022-07-16T07:01:47Z</time>
      </trkpt>
      <trkpt lat="45.64626" lon="6.53647">
        <ele>2069</ele>
        <time>2022-07-16T07:01:48Z</time>
      </trkpt>
      <trkpt lat="45.64624" lon="6.53647">
        <ele>2069</ele>
        <time>2022-07-16T07:01:49Z</time>
      </trkpt>
      <trkpt lat="45.64623" lon="6.53647">
        <ele>2069</ele>
        <time>2022-07-16T07:01:50Z</time>
      </trkpt>
      <trkpt lat="45.64622" lon="6.53646">
        <ele>2069</ele>
        <time>2022-07-16T07:01:51Z</time>
      </trkpt>
      <trkpt lat="45.64621" lon="6.53645">
        <ele>2069</ele>
        <time>2022-07-16T07:01:52Z</time>
      </trkpt>
      <trkpt lat="45.6462" lon="6.53644">
        <ele>2070</ele>
        <time>2022-07-16T07:01:53Z</time>
      </trkpt>
      <trkpt lat="45.64618" lon="6.53643">
        <ele>2070</ele>
        <time>2022-07-16T07:01:54Z</time>
      </trkpt>
      <trkpt lat="45.64617" lon="6.53642">
        <ele>2070</ele>
        <time>2022-07-16T07:01:55Z</time>
      </trkpt>
      <trkpt lat="45.64616" lon="6.53641">
        <ele>2069</ele>
        <time>2022-07-16T07:01:56Z</time>
      </trkpt>
      <trkpt lat="45.64615" lon="6.5364">
        <ele>2069</ele>
        <time>2022-07-16T07:01:57Z</time>
      </trkpt>
      <trkpt lat="45.64614" lon="6.53639">
        <ele>2069</ele>
        <time>2022-07-16T07:01:58Z</time>
      </trkpt>
      <trkpt lat="45.64613" lon="6.53638">
        <ele>2069</ele>
        <time>2022-07-16T07:01:59Z</time>
      </trkpt>
      <trkpt lat="45.64613" lon="6.53637">
        <ele>2069</ele>
        <time>2022-07-16T07:02:00Z</time>
      </trkpt>
      <trkpt lat="45.64612" lon="6.53636">
        <ele>2069</ele>
        <time>2022-07-16T07:02:01Z</time>
      </trkpt>
      <trkpt lat="45.64611" lon="6.53635">
        <ele>2070</ele>
        <time>2022-07-16T07:02:02Z</time>
      </trkpt>
      <trkpt lat="45.64609" lon="6.53634">
        <ele>2070</ele>
        <time>2022-07-16T07:02:03Z</time>
      </trkpt>
      <trkpt lat="45.64607" lon="6.53634">
        <ele>2070</ele>
        <time>2022-07-16T07:02:05Z</time>
      </trkpt>
      <trkpt lat="45.64604" lon="6.53632">
        <ele>2070</ele>
        <time>2022-07-16T07:02:07Z</time>
      </trkpt>
      <trkpt lat="45.64603" lon="6.53631">
        <ele>2071</ele>
        <time>2022-07-16T07:02:09Z</time>
      </trkpt>
      <trkpt lat="45.646" lon="6.5363">
        <ele>2071</ele>
        <time>2022-07-16T07:02:11Z</time>
      </trkpt>
      <trkpt lat="45.64598" lon="6.53629">
        <ele>2071</ele>
        <time>2022-07-16T07:02:13Z</time>
      </trkpt>
      <trkpt lat="45.64596" lon="6.53627">
        <ele>2072</ele>
        <time>2022-07-16T07:02:15Z</time>
      </trkpt>
      <trkpt lat="45.64594" lon="6.53625">
        <ele>2072</ele>
        <time>2022-07-16T07:02:17Z</time>
      </trkpt>
      <trkpt lat="45.64592" lon="6.53624">
        <ele>2072</ele>
        <time>2022-07-16T07:02:19Z</time>
      </trkpt>
      <trkpt lat="45.64589" lon="6.53623">
        <ele>2072</ele>
        <time>2022-07-16T07:02:22Z</time>
      </trkpt>
      <trkpt lat="45.64587" lon="6.53622">
        <ele>2072</ele>
        <time>2022-07-16T07:02:24Z</time>
      </trkpt>
      <trkpt lat="45.64585" lon="6.53621">
        <ele>2073</ele>
        <time>2022-07-16T07:02:26Z</time>
      </trkpt>
      <trkpt lat="45.64582" lon="6.53619">
        <ele>2073</ele>
        <time>2022-07-16T07:02:28Z</time>
      </trkpt>
      <trkpt lat="45.6458" lon="6.53618">
        <ele>2073</ele>
        <time>2022-07-16T07:02:30Z</time>
      </trkpt>
      <trkpt lat="45.64578" lon="6.53616">
        <ele>2073</ele>
        <time>2022-07-16T07:02:32Z</time>
      </trkpt>
      <trkpt lat="45.64576" lon="6.53614">
        <ele>2073</ele>
        <time>2022-07-16T07:02:34Z</time>
      </trkpt>
      <trkpt lat="45.64574" lon="6.53612">
        <ele>2075</ele>
        <time>2022-07-16T07:02:36Z</time>
      </trkpt>
      <trkpt lat="45.64572" lon="6.5361">
        <ele>2075</ele>
        <time>2022-07-16T07:02:39Z</time>
      </trkpt>
      <trkpt lat="45.64569" lon="6.53609">
        <ele>2075</ele>
        <time>2022-07-16T07:02:42Z</time>
      </trkpt>
      <trkpt lat="45.64569" lon="6.53608">
        <ele>2075</ele>
        <time>2022-07-16T07:02:43Z</time>
      </trkpt>
      <trkpt lat="45.64568" lon="6.53608">
        <ele>2076</ele>
        <time>2022-07-16T07:02:44Z</time>
      </trkpt>
      <trkpt lat="45.64567" lon="6.53608">
        <ele>2076</ele>
        <time>2022-07-16T07:02:45Z</time>
      </trkpt>
      <trkpt lat="45.64566" lon="6.53607">
        <ele>2076</ele>
        <time>2022-07-16T07:02:46Z</time>
      </trkpt>
      <trkpt lat="45.64565" lon="6.53607">
        <ele>2076</ele>
        <time>2022-07-16T07:02:47Z</time>
      </trkpt>
      <trkpt lat="45.64563" lon="6.53605">
        <ele>2076</ele>
        <time>2022-07-16T07:02:49Z</time>
      </trkpt>
      <trkpt lat="45.64561" lon="6.53605">
        <ele>2076</ele>
        <time>2022-07-16T07:02:51Z</time>
      </trkpt>
      <trkpt lat="45.64559" lon="6.53604">
        <ele>2076</ele>
        <time>2022-07-16T07:02:53Z</time>
      </trkpt>
      <trkpt lat="45.64557" lon="6.53602">
        <ele>2076</ele>
        <time>2022-07-16T07:02:56Z</time>
      </trkpt>
      <trkpt lat="45.64555" lon="6.53601">
        <ele>2077</ele>
        <time>2022-07-16T07:02:58Z</time>
      </trkpt>
      <trkpt lat="45.64553" lon="6.536">
        <ele>2077</ele>
        <time>2022-07-16T07:03:00Z</time>
      </trkpt>
      <trkpt lat="45.64551" lon="6.53599">
        <ele>2077</ele>
        <time>2022-07-16T07:03:03Z</time>
      </trkpt>
      <trkpt lat="45.64549" lon="6.53599">
        <ele>2077</ele>
        <time>2022-07-16T07:03:05Z</time>
      </trkpt>
      <trkpt lat="45.64547" lon="6.53599">
        <ele>2077</ele>
        <time>2022-07-16T07:03:07Z</time>
      </trkpt>
      <trkpt lat="45.64545" lon="6.53597">
        <ele>2078</ele>
        <time>2022-07-16T07:03:09Z</time>
      </trkpt>
      <trkpt lat="45.64543" lon="6.53596">
        <ele>2078</ele>
        <time>2022-07-16T07:03:11Z</time>
      </trkpt>
      <trkpt lat="45.6454" lon="6.53596">
        <ele>2079</ele>
        <time>2022-07-16T07:03:15Z</time>
      </trkpt>
      <trkpt lat="45.64539" lon="6.53593">
        <ele>2079</ele>
        <time>2022-07-16T07:03:18Z</time>
      </trkpt>
      <trkpt lat="45.64538" lon="6.53591">
        <ele>2080</ele>
        <time>2022-07-16T07:03:20Z</time>
      </trkpt>
      <trkpt lat="45.64536" lon="6.5359">
        <ele>2081</ele>
        <time>2022-07-16T07:03:23Z</time>
      </trkpt>
      <trkpt lat="45.64534" lon="6.53589">
        <ele>2081</ele>
        <time>2022-07-16T07:03:26Z</time>
      </trkpt>
      <trkpt lat="45.64532" lon="6.53589">
        <ele>2081</ele>
        <time>2022-07-16T07:03:28Z</time>
      </trkpt>
      <trkpt lat="45.6453" lon="6.53589">
        <ele>2081</ele>
        <time>2022-07-16T07:03:30Z</time>
      </trkpt>
      <trkpt lat="45.64528" lon="6.53589">
        <ele>2082</ele>
        <time>2022-07-16T07:03:32Z</time>
      </trkpt>
      <trkpt lat="45.64526" lon="6.53589">
        <ele>2083</ele>
        <time>2022-07-16T07:03:34Z</time>
      </trkpt>
      <trkpt lat="45.64524" lon="6.5359">
        <ele>2083</ele>
        <time>2022-07-16T07:03:37Z</time>
      </trkpt>
      <trkpt lat="45.64522" lon="6.5359">
        <ele>2083</ele>
        <time>2022-07-16T07:03:39Z</time>
      </trkpt>
      <trkpt lat="45.64519" lon="6.53592">
        <ele>2084</ele>
        <time>2022-07-16T07:03:42Z</time>
      </trkpt>
      <trkpt lat="45.64518" lon="6.53594">
        <ele>2084</ele>
        <time>2022-07-16T07:03:45Z</time>
      </trkpt>
      <trkpt lat="45.64517" lon="6.53597">
        <ele>2085</ele>
        <time>2022-07-16T07:03:48Z</time>
      </trkpt>
      <trkpt lat="45.64516" lon="6.53599">
        <ele>2085</ele>
        <time>2022-07-16T07:03:51Z</time>
      </trkpt>
      <trkpt lat="45.64515" lon="6.53602">
        <ele>2086</ele>
        <time>2022-07-16T07:03:56Z</time>
      </trkpt>
      <trkpt lat="45.64513" lon="6.53604">
        <ele>2087</ele>
        <time>2022-07-16T07:03:58Z</time>
      </trkpt>
      <trkpt lat="45.64511" lon="6.53605">
        <ele>2087</ele>
        <time>2022-07-16T07:04:01Z</time>
      </trkpt>
      <trkpt lat="45.64509" lon="6.53606">
        <ele>2087</ele>
        <time>2022-07-16T07:04:04Z</time>
      </trkpt>
      <trkpt lat="45.64507" lon="6.53607">
        <ele>2088</ele>
        <time>2022-07-16T07:04:07Z</time>
      </trkpt>
      <trkpt lat="45.64505" lon="6.53607">
        <ele>2088</ele>
        <time>2022-07-16T07:04:09Z</time>
      </trkpt>
      <trkpt lat="45.64502" lon="6.53609">
        <ele>2089</ele>
        <time>2022-07-16T07:04:12Z</time>
      </trkpt>
      <trkpt lat="45.64501" lon="6.53611">
        <ele>2090</ele>
        <time>2022-07-16T07:04:14Z</time>
      </trkpt>
      <trkpt lat="45.645" lon="6.53614">
        <ele>2090</ele>
        <time>2022-07-16T07:04:16Z</time>
      </trkpt>
      <trkpt lat="45.64498" lon="6.53617">
        <ele>2090</ele>
        <time>2022-07-16T07:04:18Z</time>
      </trkpt>
      <trkpt lat="45.64497" lon="6.5362">
        <ele>2092</ele>
        <time>2022-07-16T07:04:21Z</time>
      </trkpt>
      <trkpt lat="45.64496" lon="6.53622">
        <ele>2092</ele>
        <time>2022-07-16T07:04:23Z</time>
      </trkpt>
      <trkpt lat="45.64495" lon="6.53625">
        <ele>2093</ele>
        <time>2022-07-16T07:04:25Z</time>
      </trkpt>
      <trkpt lat="45.64494" lon="6.53628">
        <ele>2094</ele>
        <time>2022-07-16T07:04:28Z</time>
      </trkpt>
      <trkpt lat="45.64493" lon="6.5363">
        <ele>2094</ele>
        <time>2022-07-16T07:04:30Z</time>
      </trkpt>
      <trkpt lat="45.64491" lon="6.53633">
        <ele>2095</ele>
        <time>2022-07-16T07:04:34Z</time>
      </trkpt>
      <trkpt lat="45.64489" lon="6.53636">
        <ele>2095</ele>
        <time>2022-07-16T07:04:35Z</time>
      </trkpt>
      <trkpt lat="45.64488" lon="6.53638">
        <ele>2096</ele>
        <time>2022-07-16T07:04:37Z</time>
      </trkpt>
      <trkpt lat="45.64486" lon="6.53641">
        <ele>2096</ele>
        <time>2022-07-16T07:04:40Z</time>
      </trkpt>
      <trkpt lat="45.64485" lon="6.53644">
        <ele>2096</ele>
        <time>2022-07-16T07:04:42Z</time>
      </trkpt>
      <trkpt lat="45.64484" lon="6.53647">
        <ele>2096</ele>
        <time>2022-07-16T07:04:44Z</time>
      </trkpt>
      <trkpt lat="45.64483" lon="6.53651">
        <ele>2096</ele>
        <time>2022-07-16T07:04:46Z</time>
      </trkpt>
      <trkpt lat="45.64482" lon="6.53654">
        <ele>2096</ele>
        <time>2022-07-16T07:04:48Z</time>
      </trkpt>
      <trkpt lat="45.64481" lon="6.53657">
        <ele>2096</ele>
        <time>2022-07-16T07:04:51Z</time>
      </trkpt>
      <trkpt lat="45.6448" lon="6.5366">
        <ele>2097</ele>
        <time>2022-07-16T07:04:53Z</time>
      </trkpt>
      <trkpt lat="45.64479" lon="6.53661">
        <ele>2098</ele>
        <time>2022-07-16T07:04:56Z</time>
      </trkpt>
      <trkpt lat="45.64478" lon="6.53664">
        <ele>2098</ele>
        <time>2022-07-16T07:05:00Z</time>
      </trkpt>
      <trkpt lat="45.64478" lon="6.53667">
        <ele>2098</ele>
        <time>2022-07-16T07:05:03Z</time>
      </trkpt>
      <trkpt lat="45.64477" lon="6.53671">
        <ele>2100</ele>
        <time>2022-07-16T07:05:07Z</time>
      </trkpt>
      <trkpt lat="45.64478" lon="6.53673">
        <ele>2102</ele>
        <time>2022-07-16T07:05:14Z</time>
      </trkpt>
      <trkpt lat="45.64479" lon="6.53675">
        <ele>2103</ele>
        <time>2022-07-16T07:05:17Z</time>
      </trkpt>
      <trkpt lat="45.64479" lon="6.53678">
        <ele>2103</ele>
        <time>2022-07-16T07:05:22Z</time>
      </trkpt>
      <trkpt lat="45.6448" lon="6.53681">
        <ele>2104</ele>
        <time>2022-07-16T07:05:26Z</time>
      </trkpt>
      <trkpt lat="45.64483" lon="6.53683">
        <ele>2105</ele>
        <time>2022-07-16T07:05:29Z</time>
      </trkpt>
      <trkpt lat="45.64484" lon="6.53685">
        <ele>2105</ele>
        <time>2022-07-16T07:05:31Z</time>
      </trkpt>
      <trkpt lat="45.64486" lon="6.53687">
        <ele>2105</ele>
        <time>2022-07-16T07:05:34Z</time>
      </trkpt>
      <trkpt lat="45.64488" lon="6.53689">
        <ele>2105</ele>
        <time>2022-07-16T07:05:37Z</time>
      </trkpt>
      <trkpt lat="45.64489" lon="6.53691">
        <ele>2107</ele>
        <time>2022-07-16T07:05:41Z</time>
      </trkpt>
      <trkpt lat="45.64491" lon="6.53694">
        <ele>2107</ele>
        <time>2022-07-16T07:05:44Z</time>
      </trkpt>
      <trkpt lat="45.64491" lon="6.53696">
        <ele>2108</ele>
        <time>2022-07-16T07:05:47Z</time>
      </trkpt>
      <trkpt lat="45.64492" lon="6.53699">
        <ele>2108</ele>
        <time>2022-07-16T07:05:50Z</time>
      </trkpt>
      <trkpt lat="45.64492" lon="6.53703">
        <ele>2108</ele>
        <time>2022-07-16T07:05:52Z</time>
      </trkpt>
      <trkpt lat="45.64492" lon="6.53706">
        <ele>2109</ele>
        <time>2022-07-16T07:05:54Z</time>
      </trkpt>
      <trkpt lat="45.64492" lon="6.53709">
        <ele>2109</ele>
        <time>2022-07-16T07:05:56Z</time>
      </trkpt>
      <trkpt lat="45.64492" lon="6.53712">
        <ele>2109</ele>
        <time>2022-07-16T07:05:58Z</time>
      </trkpt>
      <trkpt lat="45.64493" lon="6.53714">
        <ele>2110</ele>
        <time>2022-07-16T07:06:00Z</time>
      </trkpt>
      <trkpt lat="45.64493" lon="6.53716">
        <ele>2110</ele>
        <time>2022-07-16T07:06:01Z</time>
      </trkpt>
      <trkpt lat="45.64493" lon="6.53718">
        <ele>2110</ele>
        <time>2022-07-16T07:06:02Z</time>
      </trkpt>
      <trkpt lat="45.64495" lon="6.53721">
        <ele>2110</ele>
        <time>2022-07-16T07:06:04Z</time>
      </trkpt>
      <trkpt lat="45.64495" lon="6.53724">
        <ele>2110</ele>
        <time>2022-07-16T07:06:06Z</time>
      </trkpt>
      <trkpt lat="45.64496" lon="6.53727">
        <ele>2110</ele>
        <time>2022-07-16T07:06:08Z</time>
      </trkpt>
      <trkpt lat="45.64495" lon="6.53731">
        <ele>2111</ele>
        <time>2022-07-16T07:06:11Z</time>
      </trkpt>
      <trkpt lat="45.64494" lon="6.53733">
        <ele>2112</ele>
        <time>2022-07-16T07:06:13Z</time>
      </trkpt>
      <trkpt lat="45.64493" lon="6.53736">
        <ele>2112</ele>
        <time>2022-07-16T07:06:15Z</time>
      </trkpt>
      <trkpt lat="45.64493" lon="6.53738">
        <ele>2112</ele>
        <time>2022-07-16T07:06:17Z</time>
      </trkpt>
      <trkpt lat="45.64494" lon="6.53742">
        <ele>2112</ele>
        <time>2022-07-16T07:06:19Z</time>
      </trkpt>
      <trkpt lat="45.64496" lon="6.53745">
        <ele>2112</ele>
        <time>2022-07-16T07:06:21Z</time>
      </trkpt>
      <trkpt lat="45.64498" lon="6.53749">
        <ele>2113</ele>
        <time>2022-07-16T07:06:23Z</time>
      </trkpt>
      <trkpt lat="45.64498" lon="6.53752">
        <ele>2113</ele>
        <time>2022-07-16T07:06:25Z</time>
      </trkpt>
      <trkpt lat="45.64498" lon="6.53755">
        <ele>2114</ele>
        <time>2022-07-16T07:06:27Z</time>
      </trkpt>
      <trkpt lat="45.64499" lon="6.53759">
        <ele>2114</ele>
        <time>2022-07-16T07:06:29Z</time>
      </trkpt>
      <trkpt lat="45.64501" lon="6.53763">
        <ele>2114</ele>
        <time>2022-07-16T07:06:31Z</time>
      </trkpt>
      <trkpt lat="45.64501" lon="6.53767">
        <ele>2114</ele>
        <time>2022-07-16T07:06:33Z</time>
      </trkpt>
      <trkpt lat="45.64502" lon="6.5377">
        <ele>2114</ele>
        <time>2022-07-16T07:06:35Z</time>
      </trkpt>
      <trkpt lat="45.64504" lon="6.53773">
        <ele>2114</ele>
        <time>2022-07-16T07:06:37Z</time>
      </trkpt>
      <trkpt lat="45.64505" lon="6.53777">
        <ele>2115</ele>
        <time>2022-07-16T07:06:40Z</time>
      </trkpt>
      <trkpt lat="45.64504" lon="6.5378">
        <ele>2116</ele>
        <time>2022-07-16T07:06:42Z</time>
      </trkpt>
      <trkpt lat="45.64504" lon="6.53783">
        <ele>2116</ele>
        <time>2022-07-16T07:06:44Z</time>
      </trkpt>
      <trkpt lat="45.64504" lon="6.53786">
        <ele>2118</ele>
        <time>2022-07-16T07:06:46Z</time>
      </trkpt>
      <trkpt lat="45.64504" lon="6.53788">
        <ele>2118</ele>
        <time>2022-07-16T07:06:47Z</time>
      </trkpt>
      <trkpt lat="45.64504" lon="6.5379">
        <ele>2118</ele>
        <time>2022-07-16T07:06:48Z</time>
      </trkpt>
      <trkpt lat="45.64504" lon="6.53792">
        <ele>2118</ele>
        <time>2022-07-16T07:06:49Z</time>
      </trkpt>
      <trkpt lat="45.64504" lon="6.53795">
        <ele>2118</ele>
        <time>2022-07-16T07:06:50Z</time>
      </trkpt>
      <trkpt lat="45.64505" lon="6.53798">
        <ele>2118</ele>
        <time>2022-07-16T07:06:51Z</time>
      </trkpt>
      <trkpt lat="45.64505" lon="6.53801">
        <ele>2118</ele>
        <time>2022-07-16T07:06:52Z</time>
      </trkpt>
      <trkpt lat="45.64505" lon="6.53803">
        <ele>2118</ele>
        <time>2022-07-16T07:06:53Z</time>
      </trkpt>
      <trkpt lat="45.64506" lon="6.53806">
        <ele>2118</ele>
        <time>2022-07-16T07:06:54Z</time>
      </trkpt>
      <trkpt lat="45.64507" lon="6.5381">
        <ele>2118</ele>
        <time>2022-07-16T07:06:55Z</time>
      </trkpt>
      <trkpt lat="45.64507" lon="6.53812">
        <ele>2118</ele>
        <time>2022-07-16T07:06:56Z</time>
      </trkpt>
      <trkpt lat="45.64508" lon="6.53815">
        <ele>2116</ele>
        <time>2022-07-16T07:06:57Z</time>
      </trkpt>
      <trkpt lat="45.64508" lon="6.53818">
        <ele>2116</ele>
        <time>2022-07-16T07:06:58Z</time>
      </trkpt>
      <trkpt lat="45.64509" lon="6.53823">
        <ele>2116</ele>
        <time>2022-07-16T07:07:00Z</time>
      </trkpt>
      <trkpt lat="45.64509" lon="6.53826">
        <ele>2118</ele>
        <time>2022-07-16T07:07:01Z</time>
      </trkpt>
      <trkpt lat="45.64508" lon="6.53831">
        <ele>2118</ele>
        <time>2022-07-16T07:07:03Z</time>
      </trkpt>
      <trkpt lat="45.64507" lon="6.53835">
        <ele>2118</ele>
        <time>2022-07-16T07:07:05Z</time>
      </trkpt>
      <trkpt lat="45.64507" lon="6.53838">
        <ele>2115</ele>
        <time>2022-07-16T07:07:08Z</time>
      </trkpt>
      <trkpt lat="45.64509" lon="6.53843">
        <ele>2115</ele>
        <time>2022-07-16T07:07:12Z</time>
      </trkpt>
      <trkpt lat="45.64511" lon="6.53846">
        <ele>2114</ele>
        <time>2022-07-16T07:07:15Z</time>
      </trkpt>
      <trkpt lat="45.64512" lon="6.5385">
        <ele>2113</ele>
        <time>2022-07-16T07:07:18Z</time>
      </trkpt>
      <trkpt lat="45.64512" lon="6.53855">
        <ele>2113</ele>
        <time>2022-07-16T07:07:20Z</time>
      </trkpt>
      <trkpt lat="45.64512" lon="6.53859">
        <ele>2111</ele>
        <time>2022-07-16T07:07:22Z</time>
      </trkpt>
      <trkpt lat="45.64512" lon="6.53862">
        <ele>2111</ele>
        <time>2022-07-16T07:07:24Z</time>
      </trkpt>
      <trkpt lat="45.64513" lon="6.53865">
        <ele>2110</ele>
        <time>2022-07-16T07:07:26Z</time>
      </trkpt>
      <trkpt lat="45.64512" lon="6.53868">
        <ele>2109</ele>
        <time>2022-07-16T07:07:28Z</time>
      </trkpt>
      <trkpt lat="45.6451" lon="6.5387">
        <ele>2108</ele>
        <time>2022-07-16T07:07:30Z</time>
      </trkpt>
      <trkpt lat="45.64509" lon="6.53873">
        <ele>2107</ele>
        <time>2022-07-16T07:07:32Z</time>
      </trkpt>
      <trkpt lat="45.6451" lon="6.53877">
        <ele>2106</ele>
        <time>2022-07-16T07:07:34Z</time>
      </trkpt>
      <trkpt lat="45.6451" lon="6.5388">
        <ele>2106</ele>
        <time>2022-07-16T07:07:35Z</time>
      </trkpt>
      <trkpt lat="45.64509" lon="6.53883">
        <ele>2105</ele>
        <time>2022-07-16T07:07:37Z</time>
      </trkpt>
      <trkpt lat="45.64508" lon="6.53885">
        <ele>2105</ele>
        <time>2022-07-16T07:07:39Z</time>
      </trkpt>
      <trkpt lat="45.64508" lon="6.5389">
        <ele>2105</ele>
        <time>2022-07-16T07:07:41Z</time>
      </trkpt>
      <trkpt lat="45.64509" lon="6.53893">
        <ele>2105</ele>
        <time>2022-07-16T07:07:42Z</time>
      </trkpt>
      <trkpt lat="45.64509" lon="6.53898">
        <ele>2105</ele>
        <time>2022-07-16T07:07:44Z</time>
      </trkpt>
      <trkpt lat="45.64509" lon="6.53902">
        <ele>2105</ele>
        <time>2022-07-16T07:07:46Z</time>
      </trkpt>
      <trkpt lat="45.64509" lon="6.53906">
        <ele>2105</ele>
        <time>2022-07-16T07:07:48Z</time>
      </trkpt>
      <trkpt lat="45.64509" lon="6.5391">
        <ele>2104</ele>
        <time>2022-07-16T07:07:50Z</time>
      </trkpt>
      <trkpt lat="45.64508" lon="6.53914">
        <ele>2104</ele>
        <time>2022-07-16T07:07:52Z</time>
      </trkpt>
      <trkpt lat="45.64507" lon="6.53917">
        <ele>2104</ele>
        <time>2022-07-16T07:07:53Z</time>
      </trkpt>
      <trkpt lat="45.64507" lon="6.53919">
        <ele>2103</ele>
        <time>2022-07-16T07:07:54Z</time>
      </trkpt>
      <trkpt lat="45.64506" lon="6.53921">
        <ele>2102</ele>
        <time>2022-07-16T07:07:55Z</time>
      </trkpt>
      <trkpt lat="45.64505" lon="6.53924">
        <ele>2102</ele>
        <time>2022-07-16T07:07:56Z</time>
      </trkpt>
      <trkpt lat="45.64504" lon="6.53927">
        <ele>2102</ele>
        <time>2022-07-16T07:07:57Z</time>
      </trkpt>
      <trkpt lat="45.64504" lon="6.5393">
        <ele>2102</ele>
        <time>2022-07-16T07:07:58Z</time>
      </trkpt>
      <trkpt lat="45.64502" lon="6.53935">
        <ele>2101</ele>
        <time>2022-07-16T07:08:00Z</time>
      </trkpt>
      <trkpt lat="45.64501" lon="6.53939">
        <ele>2100</ele>
        <time>2022-07-16T07:08:02Z</time>
      </trkpt>
      <trkpt lat="45.64501" lon="6.53945">
        <ele>2100</ele>
        <time>2022-07-16T07:08:04Z</time>
      </trkpt>
      <trkpt lat="45.645" lon="6.53946">
        <ele>2099</ele>
        <time>2022-07-16T07:08:05Z</time>
      </trkpt>
      <trkpt lat="45.64499" lon="6.5395">
        <ele>2098</ele>
        <time>2022-07-16T07:08:06Z</time>
      </trkpt>
      <trkpt lat="45.64498" lon="6.53951">
        <ele>2098</ele>
        <time>2022-07-16T07:08:07Z</time>
      </trkpt>
      <trkpt lat="45.64498" lon="6.53956">
        <ele>2098</ele>
        <time>2022-07-16T07:08:09Z</time>
      </trkpt>
      <trkpt lat="45.64498" lon="6.5396">
        <ele>2098</ele>
        <time>2022-07-16T07:08:11Z</time>
      </trkpt>
      <trkpt lat="45.64497" lon="6.53963">
        <ele>2097</ele>
        <time>2022-07-16T07:08:13Z</time>
      </trkpt>
      <trkpt lat="45.64496" lon="6.53967">
        <ele>2097</ele>
        <time>2022-07-16T07:08:15Z</time>
      </trkpt>
      <trkpt lat="45.64496" lon="6.53971">
        <ele>2097</ele>
        <time>2022-07-16T07:08:17Z</time>
      </trkpt>
      <trkpt lat="45.64497" lon="6.53973">
        <ele>2097</ele>
        <time>2022-07-16T07:08:18Z</time>
      </trkpt>
      <trkpt lat="45.64497" lon="6.53976">
        <ele>2097</ele>
        <time>2022-07-16T07:08:19Z</time>
      </trkpt>
      <trkpt lat="45.64497" lon="6.53978">
        <ele>2097</ele>
        <time>2022-07-16T07:08:20Z</time>
      </trkpt>
      <trkpt lat="45.64497" lon="6.53983">
        <ele>2097</ele>
        <time>2022-07-16T07:08:22Z</time>
      </trkpt>
      <trkpt lat="45.64496" lon="6.53988">
        <ele>2095</ele>
        <time>2022-07-16T07:08:24Z</time>
      </trkpt>
      <trkpt lat="45.64496" lon="6.53992">
        <ele>2095</ele>
        <time>2022-07-16T07:08:26Z</time>
      </trkpt>
      <trkpt lat="45.64496" lon="6.53997">
        <ele>2095</ele>
        <time>2022-07-16T07:08:28Z</time>
      </trkpt>
      <trkpt lat="45.64497" lon="6.54001">
        <ele>2095</ele>
        <time>2022-07-16T07:08:30Z</time>
      </trkpt>
      <trkpt lat="45.64499" lon="6.54008">
        <ele>2094</ele>
        <time>2022-07-16T07:08:32Z</time>
      </trkpt>
      <trkpt lat="45.64499" lon="6.54009">
        <ele>2094</ele>
        <time>2022-07-16T07:08:33Z</time>
      </trkpt>
      <trkpt lat="45.64499" lon="6.54014">
        <ele>2094</ele>
        <time>2022-07-16T07:08:35Z</time>
      </trkpt>
      <trkpt lat="45.64499" lon="6.54016">
        <ele>2094</ele>
        <time>2022-07-16T07:08:36Z</time>
      </trkpt>
      <trkpt lat="45.64499" lon="6.54019">
        <ele>2094</ele>
        <time>2022-07-16T07:08:37Z</time>
      </trkpt>
      <trkpt lat="45.645" lon="6.54025">
        <ele>2093</ele>
        <time>2022-07-16T07:08:39Z</time>
      </trkpt>
      <trkpt lat="45.64501" lon="6.54027">
        <ele>2093</ele>
        <time>2022-07-16T07:08:40Z</time>
      </trkpt>
      <trkpt lat="45.64502" lon="6.54029">
        <ele>2093</ele>
        <time>2022-07-16T07:08:41Z</time>
      </trkpt>
      <trkpt lat="45.64502" lon="6.54034">
        <ele>2093</ele>
        <time>2022-07-16T07:08:43Z</time>
      </trkpt>
      <trkpt lat="45.64502" lon="6.54037">
        <ele>2092</ele>
        <time>2022-07-16T07:08:44Z</time>
      </trkpt>
      <trkpt lat="45.64502" lon="6.5404">
        <ele>2092</ele>
        <time>2022-07-16T07:08:45Z</time>
      </trkpt>
      <trkpt lat="45.64502" lon="6.54042">
        <ele>2092</ele>
        <time>2022-07-16T07:08:46Z</time>
      </trkpt>
      <trkpt lat="45.64501" lon="6.54047">
        <ele>2092</ele>
        <time>2022-07-16T07:08:48Z</time>
      </trkpt>
      <trkpt lat="45.64501" lon="6.54051">
        <ele>2090</ele>
        <time>2022-07-16T07:08:50Z</time>
      </trkpt>
      <trkpt lat="45.64501" lon="6.54057">
        <ele>2089</ele>
        <time>2022-07-16T07:08:52Z</time>
      </trkpt>
      <trkpt lat="45.64502" lon="6.5406">
        <ele>2088</ele>
        <time>2022-07-16T07:08:53Z</time>
      </trkpt>
      <trkpt lat="45.64502" lon="6.54065">
        <ele>2087</ele>
        <time>2022-07-16T07:08:55Z</time>
      </trkpt>
      <trkpt lat="45.64503" lon="6.5407">
        <ele>2087</ele>
        <time>2022-07-16T07:08:57Z</time>
      </trkpt>
      <trkpt lat="45.64503" lon="6.54073">
        <ele>2087</ele>
        <time>2022-07-16T07:09:00Z</time>
      </trkpt>
      <trkpt lat="45.64502" lon="6.54077">
        <ele>2086</ele>
        <time>2022-07-16T07:09:01Z</time>
      </trkpt>
      <trkpt lat="45.64501" lon="6.54079">
        <ele>2087</ele>
        <time>2022-07-16T07:09:03Z</time>
      </trkpt>
      <trkpt lat="45.64501" lon="6.54083">
        <ele>2087</ele>
        <time>2022-07-16T07:09:06Z</time>
      </trkpt>
      <trkpt lat="45.64502" lon="6.54085">
        <ele>2088</ele>
        <time>2022-07-16T07:09:09Z</time>
      </trkpt>
      <trkpt lat="45.64502" lon="6.54089">
        <ele>2088</ele>
        <time>2022-07-16T07:09:12Z</time>
      </trkpt>
      <trkpt lat="45.64502" lon="6.54092">
        <ele>2088</ele>
        <time>2022-07-16T07:09:14Z</time>
      </trkpt>
      <trkpt lat="45.64503" lon="6.54096">
        <ele>2087</ele>
        <time>2022-07-16T07:09:16Z</time>
      </trkpt>
      <trkpt lat="45.64503" lon="6.54101">
        <ele>2087</ele>
        <time>2022-07-16T07:09:19Z</time>
      </trkpt>
      <trkpt lat="45.64503" lon="6.54104">
        <ele>2087</ele>
        <time>2022-07-16T07:09:21Z</time>
      </trkpt>
      <trkpt lat="45.64502" lon="6.54106">
        <ele>2087</ele>
        <time>2022-07-16T07:09:23Z</time>
      </trkpt>
      <trkpt lat="45.64501" lon="6.54109">
        <ele>2087</ele>
        <time>2022-07-16T07:09:25Z</time>
      </trkpt>
      <trkpt lat="45.64501" lon="6.54113">
        <ele>2087</ele>
        <time>2022-07-16T07:09:27Z</time>
      </trkpt>
      <trkpt lat="45.645" lon="6.54116">
        <ele>2088</ele>
        <time>2022-07-16T07:09:29Z</time>
      </trkpt>
      <trkpt lat="45.64499" lon="6.54119">
        <ele>2088</ele>
        <time>2022-07-16T07:09:32Z</time>
      </trkpt>
      <trkpt lat="45.645" lon="6.54122">
        <ele>2088</ele>
        <time>2022-07-16T07:09:34Z</time>
      </trkpt>
      <trkpt lat="45.645" lon="6.54125">
        <ele>2088</ele>
        <time>2022-07-16T07:09:36Z</time>
      </trkpt>
      <trkpt lat="45.645" lon="6.54128">
        <ele>2088</ele>
        <time>2022-07-16T07:09:38Z</time>
      </trkpt>
      <trkpt lat="45.64501" lon="6.54131">
        <ele>2089</ele>
        <time>2022-07-16T07:09:41Z</time>
      </trkpt>
      <trkpt lat="45.64501" lon="6.54133">
        <ele>2090</ele>
        <time>2022-07-16T07:09:44Z</time>
      </trkpt>
      <trkpt lat="45.64502" lon="6.54135">
        <ele>2092</ele>
        <time>2022-07-16T07:09:46Z</time>
      </trkpt>
      <trkpt lat="45.64503" lon="6.54138">
        <ele>2092</ele>
        <time>2022-07-16T07:09:51Z</time>
      </trkpt>
      <trkpt lat="45.64503" lon="6.54142">
        <ele>2093</ele>
        <time>2022-07-16T07:09:55Z</time>
      </trkpt>
      <trkpt lat="45.64503" lon="6.54144">
        <ele>2094</ele>
        <time>2022-07-16T07:09:58Z</time>
      </trkpt>
      <trkpt lat="45.64503" lon="6.54145">
        <ele>2094</ele>
        <time>2022-07-16T07:09:59Z</time>
      </trkpt>
      <trkpt lat="45.64503" lon="6.54147">
        <ele>2094</ele>
        <time>2022-07-16T07:10:00Z</time>
      </trkpt>
      <trkpt lat="45.64503" lon="6.54148">
        <ele>2094</ele>
        <time>2022-07-16T07:10:01Z</time>
      </trkpt>
      <trkpt lat="45.64503" lon="6.54149">
        <ele>2094</ele>
        <time>2022-07-16T07:10:02Z</time>
      </trkpt>
      <trkpt lat="45.64504" lon="6.5415">
        <ele>2094</ele>
        <time>2022-07-16T07:10:03Z</time>
      </trkpt>
      <trkpt lat="45.64504" lon="6.54152">
        <ele>2094</ele>
        <time>2022-07-16T07:10:04Z</time>
      </trkpt>
      <trkpt lat="45.64504" lon="6.54153">
        <ele>2094</ele>
        <time>2022-07-16T07:10:05Z</time>
      </trkpt>
      <trkpt lat="45.64504" lon="6.54154">
        <ele>2095</ele>
        <time>2022-07-16T07:10:06Z</time>
      </trkpt>
      <trkpt lat="45.64504" lon="6.54155">
        <ele>2095</ele>
        <time>2022-07-16T07:10:07Z</time>
      </trkpt>
      <trkpt lat="45.64504" lon="6.54157">
        <ele>2095</ele>
        <time>2022-07-16T07:10:08Z</time>
      </trkpt>
      <trkpt lat="45.64504" lon="6.54158">
        <ele>2096</ele>
        <time>2022-07-16T07:10:09Z</time>
      </trkpt>
      <trkpt lat="45.64505" lon="6.54162">
        <ele>2098</ele>
        <time>2022-07-16T07:10:18Z</time>
      </trkpt>
      <trkpt lat="45.64504" lon="6.54162">
        <ele>2099</ele>
        <time>2022-07-16T07:10:19Z</time>
      </trkpt>
      <trkpt lat="45.64504" lon="6.54163">
        <ele>2099</ele>
        <time>2022-07-16T07:10:20Z</time>
      </trkpt>
      <trkpt lat="45.64503" lon="6.54163">
        <ele>2099</ele>
        <time>2022-07-16T07:10:24Z</time>
      </trkpt>
      <trkpt lat="45.64502" lon="6.54163">
        <ele>2101</ele>
        <time>2022-07-16T07:10:29Z</time>
      </trkpt>
      <trkpt lat="45.64502" lon="6.54164">
        <ele>2101</ele>
        <time>2022-07-16T07:10:32Z</time>
      </trkpt>
      <trkpt lat="45.64501" lon="6.54164">
        <ele>2102</ele>
        <time>2022-07-16T07:10:34Z</time>
      </trkpt>
      <trkpt lat="45.645" lon="6.54164">
        <ele>2102</ele>
        <time>2022-07-16T07:10:39Z</time>
      </trkpt>
      <trkpt lat="45.645" lon="6.54168">
        <ele>2104</ele>
        <time>2022-07-16T07:10:48Z</time>
      </trkpt>
      <trkpt lat="45.645" lon="6.54168">
        <ele>2105</ele>
        <time>2022-07-16T07:10:50Z</time>
      </trkpt>
      <trkpt lat="45.64499" lon="6.54169">
        <ele>2105</ele>
        <time>2022-07-16T07:10:51Z</time>
      </trkpt>
      <trkpt lat="45.64497" lon="6.54171">
        <ele>2106</ele>
        <time>2022-07-16T07:10:54Z</time>
      </trkpt>
      <trkpt lat="45.64496" lon="6.54174">
        <ele>2107</ele>
        <time>2022-07-16T07:10:58Z</time>
      </trkpt>
      <trkpt lat="45.64496" lon="6.54179">
        <ele>2107</ele>
        <time>2022-07-16T07:11:05Z</time>
      </trkpt>
      <trkpt lat="45.64496" lon="6.54182">
        <ele>2106</ele>
        <time>2022-07-16T07:11:09Z</time>
      </trkpt>
      <trkpt lat="45.64495" lon="6.54185">
        <ele>2107</ele>
        <time>2022-07-16T07:11:13Z</time>
      </trkpt>
      <trkpt lat="45.64494" lon="6.54188">
        <ele>2109</ele>
        <time>2022-07-16T07:11:18Z</time>
      </trkpt>
      <trkpt lat="45.64494" lon="6.54189">
        <ele>2109</ele>
        <time>2022-07-16T07:11:21Z</time>
      </trkpt>
      <trkpt lat="45.64493" lon="6.5419">
        <ele>2109</ele>
        <time>2022-07-16T07:11:22Z</time>
      </trkpt>
      <trkpt lat="45.64493" lon="6.54191">
        <ele>2109</ele>
        <time>2022-07-16T07:11:24Z</time>
      </trkpt>
      <trkpt lat="45.64492" lon="6.54192">
        <ele>2109</ele>
        <time>2022-07-16T07:11:25Z</time>
      </trkpt>
      <trkpt lat="45.64492" lon="6.54193">
        <ele>2109</ele>
        <time>2022-07-16T07:11:27Z</time>
      </trkpt>
      <trkpt lat="45.64492" lon="6.54194">
        <ele>2109</ele>
        <time>2022-07-16T07:11:28Z</time>
      </trkpt>
      <trkpt lat="45.64491" lon="6.54194">
        <ele>2110</ele>
        <time>2022-07-16T07:11:29Z</time>
      </trkpt>
      <trkpt lat="45.64491" lon="6.54195">
        <ele>2110</ele>
        <time>2022-07-16T07:11:30Z</time>
      </trkpt>
      <trkpt lat="45.64491" lon="6.54196">
        <ele>2110</ele>
        <time>2022-07-16T07:11:31Z</time>
      </trkpt>
      <trkpt lat="45.6449" lon="6.54196">
        <ele>2110</ele>
        <time>2022-07-16T07:11:32Z</time>
      </trkpt>
      <trkpt lat="45.6449" lon="6.54197">
        <ele>2110</ele>
        <time>2022-07-16T07:11:33Z</time>
      </trkpt>
      <trkpt lat="45.6449" lon="6.54198">
        <ele>2111</ele>
        <time>2022-07-16T07:11:34Z</time>
      </trkpt>
      <trkpt lat="45.64489" lon="6.54199">
        <ele>2111</ele>
        <time>2022-07-16T07:11:36Z</time>
      </trkpt>
      <trkpt lat="45.64489" lon="6.542">
        <ele>2111</ele>
        <time>2022-07-16T07:11:37Z</time>
      </trkpt>
      <trkpt lat="45.64488" lon="6.542">
        <ele>2112</ele>
        <time>2022-07-16T07:11:38Z</time>
      </trkpt>
      <trkpt lat="45.64488" lon="6.54201">
        <ele>2112</ele>
        <time>2022-07-16T07:11:40Z</time>
      </trkpt>
      <trkpt lat="45.64487" lon="6.54201">
        <ele>2112</ele>
        <time>2022-07-16T07:11:41Z</time>
      </trkpt>
      <trkpt lat="45.64487" lon="6.54202">
        <ele>2112</ele>
        <time>2022-07-16T07:11:42Z</time>
      </trkpt>
      <trkpt lat="45.64486" lon="6.54202">
        <ele>2113</ele>
        <time>2022-07-16T07:11:43Z</time>
      </trkpt>
      <trkpt lat="45.64486" lon="6.54203">
        <ele>2114</ele>
        <time>2022-07-16T07:11:44Z</time>
      </trkpt>
      <trkpt lat="45.64485" lon="6.54203">
        <ele>2114</ele>
        <time>2022-07-16T07:11:45Z</time>
      </trkpt>
      <trkpt lat="45.64485" lon="6.54204">
        <ele>2114</ele>
        <time>2022-07-16T07:11:46Z</time>
      </trkpt>
      <trkpt lat="45.64484" lon="6.54204">
        <ele>2114</ele>
        <time>2022-07-16T07:11:47Z</time>
      </trkpt>
      <trkpt lat="45.64484" lon="6.54205">
        <ele>2114</ele>
        <time>2022-07-16T07:11:49Z</time>
      </trkpt>
      <trkpt lat="45.64483" lon="6.54205">
        <ele>2114</ele>
        <time>2022-07-16T07:11:51Z</time>
      </trkpt>
      <trkpt lat="45.64483" lon="6.54206">
        <ele>2114</ele>
        <time>2022-07-16T07:11:52Z</time>
      </trkpt>
      <trkpt lat="45.64482" lon="6.54206">
        <ele>2114</ele>
        <time>2022-07-16T07:11:53Z</time>
      </trkpt>
      <trkpt lat="45.64482" lon="6.54207">
        <ele>2114</ele>
        <time>2022-07-16T07:11:54Z</time>
      </trkpt>
      <trkpt lat="45.64481" lon="6.54207">
        <ele>2114</ele>
        <time>2022-07-16T07:11:55Z</time>
      </trkpt>
      <trkpt lat="45.6448" lon="6.54208">
        <ele>2114</ele>
        <time>2022-07-16T07:11:56Z</time>
      </trkpt>
      <trkpt lat="45.64478" lon="6.54208">
        <ele>2114</ele>
        <time>2022-07-16T07:11:57Z</time>
      </trkpt>
      <trkpt lat="45.64477" lon="6.54209">
        <ele>2114</ele>
        <time>2022-07-16T07:11:58Z</time>
      </trkpt>
      <trkpt lat="45.64476" lon="6.54209">
        <ele>2114</ele>
        <time>2022-07-16T07:11:59Z</time>
      </trkpt>
      <trkpt lat="45.64475" lon="6.5421">
        <ele>2114</ele>
        <time>2022-07-16T07:12:00Z</time>
      </trkpt>
      <trkpt lat="45.64474" lon="6.5421">
        <ele>2114</ele>
        <time>2022-07-16T07:12:01Z</time>
      </trkpt>
      <trkpt lat="45.64473" lon="6.5421">
        <ele>2115</ele>
        <time>2022-07-16T07:12:02Z</time>
      </trkpt>
      <trkpt lat="45.64472" lon="6.54211">
        <ele>2115</ele>
        <time>2022-07-16T07:12:03Z</time>
      </trkpt>
      <trkpt lat="45.64471" lon="6.54211">
        <ele>2115</ele>
        <time>2022-07-16T07:12:04Z</time>
      </trkpt>
      <trkpt lat="45.6447" lon="6.54211">
        <ele>2115</ele>
        <time>2022-07-16T07:12:05Z</time>
      </trkpt>
      <trkpt lat="45.64469" lon="6.54212">
        <ele>2115</ele>
        <time>2022-07-16T07:12:06Z</time>
      </trkpt>
      <trkpt lat="45.64468" lon="6.54212">
        <ele>2116</ele>
        <time>2022-07-16T07:12:07Z</time>
      </trkpt>
      <trkpt lat="45.64467" lon="6.54212">
        <ele>2116</ele>
        <time>2022-07-16T07:12:08Z</time>
      </trkpt>
      <trkpt lat="45.64466" lon="6.54212">
        <ele>2116</ele>
        <time>2022-07-16T07:12:09Z</time>
      </trkpt>
      <trkpt lat="45.64466" lon="6.54213">
        <ele>2116</ele>
        <time>2022-07-16T07:12:10Z</time>
      </trkpt>
      <trkpt lat="45.64465" lon="6.54214">
        <ele>2116</ele>
        <time>2022-07-16T07:12:11Z</time>
      </trkpt>
      <trkpt lat="45.64465" lon="6.54215">
        <ele>2116</ele>
        <time>2022-07-16T07:12:13Z</time>
      </trkpt>
      <trkpt lat="45.64464" lon="6.54215">
        <ele>2116</ele>
        <time>2022-07-16T07:12:14Z</time>
      </trkpt>
      <trkpt lat="45.64464" lon="6.54216">
        <ele>2116</ele>
        <time>2022-07-16T07:12:15Z</time>
      </trkpt>
      <trkpt lat="45.64463" lon="6.54216">
        <ele>2116</ele>
        <time>2022-07-16T07:12:16Z</time>
      </trkpt>
      <trkpt lat="45.64463" lon="6.54217">
        <ele>2116</ele>
        <time>2022-07-16T07:12:17Z</time>
      </trkpt>
      <trkpt lat="45.64463" lon="6.54218">
        <ele>2116</ele>
        <time>2022-07-16T07:12:18Z</time>
      </trkpt>
      <trkpt lat="45.64462" lon="6.54218">
        <ele>2116</ele>
        <time>2022-07-16T07:12:19Z</time>
      </trkpt>
      <trkpt lat="45.64462" lon="6.54219">
        <ele>2116</ele>
        <time>2022-07-16T07:12:20Z</time>
      </trkpt>
      <trkpt lat="45.64461" lon="6.54219">
        <ele>2116</ele>
        <time>2022-07-16T07:12:21Z</time>
      </trkpt>
      <trkpt lat="45.64461" lon="6.5422">
        <ele>2116</ele>
        <time>2022-07-16T07:12:22Z</time>
      </trkpt>
      <trkpt lat="45.64461" lon="6.54221">
        <ele>2116</ele>
        <time>2022-07-16T07:12:23Z</time>
      </trkpt>
      <trkpt lat="45.6446" lon="6.54221">
        <ele>2116</ele>
        <time>2022-07-16T07:12:24Z</time>
      </trkpt>
      <trkpt lat="45.6446" lon="6.54222">
        <ele>2118</ele>
        <time>2022-07-16T07:12:25Z</time>
      </trkpt>
      <trkpt lat="45.64459" lon="6.54222">
        <ele>2118</ele>
        <time>2022-07-16T07:12:26Z</time>
      </trkpt>
      <trkpt lat="45.64458" lon="6.54223">
        <ele>2118</ele>
        <time>2022-07-16T07:12:27Z</time>
      </trkpt>
      <trkpt lat="45.64457" lon="6.54224">
        <ele>2118</ele>
        <time>2022-07-16T07:12:30Z</time>
      </trkpt>
      <trkpt lat="45.64456" lon="6.54225">
        <ele>2118</ele>
        <time>2022-07-16T07:12:31Z</time>
      </trkpt>
      <trkpt lat="45.64455" lon="6.54226">
        <ele>2118</ele>
        <time>2022-07-16T07:12:32Z</time>
      </trkpt>
      <trkpt lat="45.64455" lon="6.54227">
        <ele>2118</ele>
        <time>2022-07-16T07:12:33Z</time>
      </trkpt>
      <trkpt lat="45.64454" lon="6.54228">
        <ele>2118</ele>
        <time>2022-07-16T07:12:34Z</time>
      </trkpt>
      <trkpt lat="45.64454" lon="6.54229">
        <ele>2118</ele>
        <time>2022-07-16T07:12:35Z</time>
      </trkpt>
      <trkpt lat="45.64453" lon="6.5423">
        <ele>2118</ele>
        <time>2022-07-16T07:12:36Z</time>
      </trkpt>
      <trkpt lat="45.64452" lon="6.54231">
        <ele>2118</ele>
        <time>2022-07-16T07:12:37Z</time>
      </trkpt>
      <trkpt lat="45.64452" lon="6.54232">
        <ele>2119</ele>
        <time>2022-07-16T07:12:38Z</time>
      </trkpt>
      <trkpt lat="45.64451" lon="6.54233">
        <ele>2119</ele>
        <time>2022-07-16T07:12:39Z</time>
      </trkpt>
      <trkpt lat="45.64451" lon="6.54234">
        <ele>2119</ele>
        <time>2022-07-16T07:12:40Z</time>
      </trkpt>
      <trkpt lat="45.6445" lon="6.54235">
        <ele>2119</ele>
        <time>2022-07-16T07:12:41Z</time>
      </trkpt>
      <trkpt lat="45.64449" lon="6.54235">
        <ele>2119</ele>
        <time>2022-07-16T07:12:42Z</time>
      </trkpt>
      <trkpt lat="45.64448" lon="6.54236">
        <ele>2119</ele>
        <time>2022-07-16T07:12:44Z</time>
      </trkpt>
      <trkpt lat="45.64447" lon="6.54236">
        <ele>2119</ele>
        <time>2022-07-16T07:12:46Z</time>
      </trkpt>
      <trkpt lat="45.64446" lon="6.54236">
        <ele>2120</ele>
        <time>2022-07-16T07:12:47Z</time>
      </trkpt>
      <trkpt lat="45.64445" lon="6.54237">
        <ele>2120</ele>
        <time>2022-07-16T07:12:49Z</time>
      </trkpt>
      <trkpt lat="45.64444" lon="6.54237">
        <ele>2120</ele>
        <time>2022-07-16T07:12:51Z</time>
      </trkpt>
      <trkpt lat="45.64443" lon="6.54237">
        <ele>2120</ele>
        <time>2022-07-16T07:12:53Z</time>
      </trkpt>
      <trkpt lat="45.64442" lon="6.54238">
        <ele>2120</ele>
        <time>2022-07-16T07:12:54Z</time>
      </trkpt>
      <trkpt lat="45.64441" lon="6.54238">
        <ele>2121</ele>
        <time>2022-07-16T07:12:56Z</time>
      </trkpt>
      <trkpt lat="45.6444" lon="6.54238">
        <ele>2121</ele>
        <time>2022-07-16T07:12:58Z</time>
      </trkpt>
      <trkpt lat="45.64439" lon="6.54239">
        <ele>2121</ele>
        <time>2022-07-16T07:12:59Z</time>
      </trkpt>
      <trkpt lat="45.64438" lon="6.54239">
        <ele>2121</ele>
        <time>2022-07-16T07:13:00Z</time>
      </trkpt>
      <trkpt lat="45.64437" lon="6.54239">
        <ele>2121</ele>
        <time>2022-07-16T07:13:01Z</time>
      </trkpt>
      <trkpt lat="45.64436" lon="6.54239">
        <ele>2121</ele>
        <time>2022-07-16T07:13:02Z</time>
      </trkpt>
      <trkpt lat="45.64435" lon="6.54239">
        <ele>2122</ele>
        <time>2022-07-16T07:13:04Z</time>
      </trkpt>
      <trkpt lat="45.64434" lon="6.54239">
        <ele>2122</ele>
        <time>2022-07-16T07:13:05Z</time>
      </trkpt>
      <trkpt lat="45.64433" lon="6.54239">
        <ele>2122</ele>
        <time>2022-07-16T07:13:06Z</time>
      </trkpt>
      <trkpt lat="45.64432" lon="6.5424">
        <ele>2122</ele>
        <time>2022-07-16T07:13:07Z</time>
      </trkpt>
      <trkpt lat="45.64431" lon="6.5424">
        <ele>2123</ele>
        <time>2022-07-16T07:13:08Z</time>
      </trkpt>
      <trkpt lat="45.6443" lon="6.5424">
        <ele>2123</ele>
        <time>2022-07-16T07:13:09Z</time>
      </trkpt>
      <trkpt lat="45.64429" lon="6.5424">
        <ele>2123</ele>
        <time>2022-07-16T07:13:10Z</time>
      </trkpt>
      <trkpt lat="45.64428" lon="6.5424">
        <ele>2123</ele>
        <time>2022-07-16T07:13:11Z</time>
      </trkpt>
      <trkpt lat="45.64426" lon="6.54241">
        <ele>2123</ele>
        <time>2022-07-16T07:13:12Z</time>
      </trkpt>
      <trkpt lat="45.64425" lon="6.54241">
        <ele>2123</ele>
        <time>2022-07-16T07:13:13Z</time>
      </trkpt>
      <trkpt lat="45.64423" lon="6.5424">
        <ele>2123</ele>
        <time>2022-07-16T07:13:15Z</time>
      </trkpt>
      <trkpt lat="45.64421" lon="6.54241">
        <ele>2123</ele>
        <time>2022-07-16T07:13:17Z</time>
      </trkpt>
      <trkpt lat="45.64419" lon="6.54242">
        <ele>2123</ele>
        <time>2022-07-16T07:13:19Z</time>
      </trkpt>
      <trkpt lat="45.64417" lon="6.54244">
        <ele>2123</ele>
        <time>2022-07-16T07:13:21Z</time>
      </trkpt>
      <trkpt lat="45.64412" lon="6.54247">
        <ele>2123</ele>
        <time>2022-07-16T07:13:24Z</time>
      </trkpt>
      <trkpt lat="45.6441" lon="6.54249">
        <ele>2123</ele>
        <time>2022-07-16T07:13:26Z</time>
      </trkpt>
      <trkpt lat="45.64408" lon="6.54249">
        <ele>2123</ele>
        <time>2022-07-16T07:13:27Z</time>
      </trkpt>
      <trkpt lat="45.64406" lon="6.5425">
        <ele>2123</ele>
        <time>2022-07-16T07:13:28Z</time>
      </trkpt>
      <trkpt lat="45.64404" lon="6.5425">
        <ele>2124</ele>
        <time>2022-07-16T07:13:30Z</time>
      </trkpt>
      <trkpt lat="45.64402" lon="6.54249">
        <ele>2124</ele>
        <time>2022-07-16T07:13:32Z</time>
      </trkpt>
      <trkpt lat="45.644" lon="6.5425">
        <ele>2124</ele>
        <time>2022-07-16T07:13:34Z</time>
      </trkpt>
      <trkpt lat="45.64398" lon="6.5425">
        <ele>2124</ele>
        <time>2022-07-16T07:13:36Z</time>
      </trkpt>
      <trkpt lat="45.64396" lon="6.54252">
        <ele>2124</ele>
        <time>2022-07-16T07:13:40Z</time>
      </trkpt>
      <trkpt lat="45.64398" lon="6.54255">
        <ele>2124</ele>
        <time>2022-07-16T07:13:43Z</time>
      </trkpt>
      <trkpt lat="45.64395" lon="6.54257">
        <ele>2124</ele>
        <time>2022-07-16T07:13:45Z</time>
      </trkpt>
      <trkpt lat="45.64392" lon="6.54258">
        <ele>2124</ele>
        <time>2022-07-16T07:13:47Z</time>
      </trkpt>
      <trkpt lat="45.64391" lon="6.5426">
        <ele>2124</ele>
        <time>2022-07-16T07:13:48Z</time>
      </trkpt>
      <trkpt lat="45.64388" lon="6.54263">
        <ele>2124</ele>
        <time>2022-07-16T07:13:50Z</time>
      </trkpt>
      <trkpt lat="45.64386" lon="6.54266">
        <ele>2124</ele>
        <time>2022-07-16T07:13:52Z</time>
      </trkpt>
      <trkpt lat="45.64385" lon="6.54271">
        <ele>2124</ele>
        <time>2022-07-16T07:13:54Z</time>
      </trkpt>
      <trkpt lat="45.64385" lon="6.54274">
        <ele>2124</ele>
        <time>2022-07-16T07:13:55Z</time>
      </trkpt>
      <trkpt lat="45.64385" lon="6.54276">
        <ele>2124</ele>
        <time>2022-07-16T07:13:56Z</time>
      </trkpt>
      <trkpt lat="45.64385" lon="6.5428">
        <ele>2124</ele>
        <time>2022-07-16T07:13:57Z</time>
      </trkpt>
      <trkpt lat="45.64384" lon="6.54284">
        <ele>2124</ele>
        <time>2022-07-16T07:13:58Z</time>
      </trkpt>
      <trkpt lat="45.64384" lon="6.54285">
        <ele>2124</ele>
        <time>2022-07-16T07:13:59Z</time>
      </trkpt>
      <trkpt lat="45.64384" lon="6.54289">
        <ele>2124</ele>
        <time>2022-07-16T07:14:00Z</time>
      </trkpt>
      <trkpt lat="45.64382" lon="6.54294">
        <ele>2124</ele>
        <time>2022-07-16T07:14:02Z</time>
      </trkpt>
      <trkpt lat="45.64382" lon="6.54297">
        <ele>2124</ele>
        <time>2022-07-16T07:14:03Z</time>
      </trkpt>
      <trkpt lat="45.64382" lon="6.543">
        <ele>2124</ele>
        <time>2022-07-16T07:14:04Z</time>
      </trkpt>
      <trkpt lat="45.64382" lon="6.54303">
        <ele>2124</ele>
        <time>2022-07-16T07:14:05Z</time>
      </trkpt>
      <trkpt lat="45.64383" lon="6.54306">
        <ele>2124</ele>
        <time>2022-07-16T07:14:06Z</time>
      </trkpt>
      <trkpt lat="45.64383" lon="6.54309">
        <ele>2125</ele>
        <time>2022-07-16T07:14:07Z</time>
      </trkpt>
      <trkpt lat="45.64384" lon="6.54313">
        <ele>2125</ele>
        <time>2022-07-16T07:14:09Z</time>
      </trkpt>
      <trkpt lat="45.64384" lon="6.54314">
        <ele>2125</ele>
        <time>2022-07-16T07:14:10Z</time>
      </trkpt>
      <trkpt lat="45.64385" lon="6.54316">
        <ele>2125</ele>
        <time>2022-07-16T07:14:11Z</time>
      </trkpt>
      <trkpt lat="45.64385" lon="6.54317">
        <ele>2125</ele>
        <time>2022-07-16T07:14:12Z</time>
      </trkpt>
      <trkpt lat="45.64386" lon="6.54318">
        <ele>2125</ele>
        <time>2022-07-16T07:14:13Z</time>
      </trkpt>
      <trkpt lat="45.64387" lon="6.54321">
        <ele>2125</ele>
        <time>2022-07-16T07:14:14Z</time>
      </trkpt>
      <trkpt lat="45.64388" lon="6.54324">
        <ele>2126</ele>
        <time>2022-07-16T07:14:16Z</time>
      </trkpt>
      <trkpt lat="45.64389" lon="6.54327">
        <ele>2127</ele>
        <time>2022-07-16T07:14:19Z</time>
      </trkpt>
      <trkpt lat="45.6439" lon="6.5433">
        <ele>2128</ele>
        <time>2022-07-16T07:14:21Z</time>
      </trkpt>
      <trkpt lat="45.64392" lon="6.54331">
        <ele>2128</ele>
        <time>2022-07-16T07:14:23Z</time>
      </trkpt>
      <trkpt lat="45.64394" lon="6.54333">
        <ele>2129</ele>
        <time>2022-07-16T07:14:26Z</time>
      </trkpt>
      <trkpt lat="45.64396" lon="6.54336">
        <ele>2129</ele>
        <time>2022-07-16T07:14:29Z</time>
      </trkpt>
      <trkpt lat="45.64397" lon="6.54338">
        <ele>2130</ele>
        <time>2022-07-16T07:14:32Z</time>
      </trkpt>
      <trkpt lat="45.64399" lon="6.5434">
        <ele>2130</ele>
        <time>2022-07-16T07:14:35Z</time>
      </trkpt>
      <trkpt lat="45.644" lon="6.54341">
        <ele>2131</ele>
        <time>2022-07-16T07:14:38Z</time>
      </trkpt>
      <trkpt lat="45.64403" lon="6.54343">
        <ele>2131</ele>
        <time>2022-07-16T07:14:42Z</time>
      </trkpt>
      <trkpt lat="45.64405" lon="6.54345">
        <ele>2132</ele>
        <time>2022-07-16T07:14:45Z</time>
      </trkpt>
      <trkpt lat="45.64407" lon="6.54345">
        <ele>2133</ele>
        <time>2022-07-16T07:14:48Z</time>
      </trkpt>
      <trkpt lat="45.64408" lon="6.54346">
        <ele>2133</ele>
        <time>2022-07-16T07:14:51Z</time>
      </trkpt>
      <trkpt lat="45.64409" lon="6.54349">
        <ele>2134</ele>
        <time>2022-07-16T07:14:54Z</time>
      </trkpt>
      <trkpt lat="45.6441" lon="6.54352">
        <ele>2134</ele>
        <time>2022-07-16T07:14:56Z</time>
      </trkpt>
      <trkpt lat="45.6441" lon="6.54355">
        <ele>2134</ele>
        <time>2022-07-16T07:14:58Z</time>
      </trkpt>
      <trkpt lat="45.64411" lon="6.54358">
        <ele>2135</ele>
        <time>2022-07-16T07:15:01Z</time>
      </trkpt>
      <trkpt lat="45.64412" lon="6.5436">
        <ele>2135</ele>
        <time>2022-07-16T07:15:03Z</time>
      </trkpt>
      <trkpt lat="45.64412" lon="6.54363">
        <ele>2136</ele>
        <time>2022-07-16T07:15:05Z</time>
      </trkpt>
      <trkpt lat="45.64412" lon="6.54367">
        <ele>2137</ele>
        <time>2022-07-16T07:15:08Z</time>
      </trkpt>
      <trkpt lat="45.64413" lon="6.54369">
        <ele>2136</ele>
        <time>2022-07-16T07:15:10Z</time>
      </trkpt>
      <trkpt lat="45.64414" lon="6.54372">
        <ele>2137</ele>
        <time>2022-07-16T07:15:13Z</time>
      </trkpt>
      <trkpt lat="45.64415" lon="6.54375">
        <ele>2137</ele>
        <time>2022-07-16T07:15:15Z</time>
      </trkpt>
      <trkpt lat="45.64417" lon="6.54377">
        <ele>2137</ele>
        <time>2022-07-16T07:15:17Z</time>
      </trkpt>
      <trkpt lat="45.64418" lon="6.54379">
        <ele>2138</ele>
        <time>2022-07-16T07:15:20Z</time>
      </trkpt>
      <trkpt lat="45.6442" lon="6.54381">
        <ele>2138</ele>
        <time>2022-07-16T07:15:21Z</time>
      </trkpt>
      <trkpt lat="45.64422" lon="6.54384">
        <ele>2139</ele>
        <time>2022-07-16T07:15:24Z</time>
      </trkpt>
      <trkpt lat="45.64424" lon="6.54386">
        <ele>2139</ele>
        <time>2022-07-16T07:15:27Z</time>
      </trkpt>
      <trkpt lat="45.64426" lon="6.54387">
        <ele>2140</ele>
        <time>2022-07-16T07:15:29Z</time>
      </trkpt>
      <trkpt lat="45.64428" lon="6.54388">
        <ele>2140</ele>
        <time>2022-07-16T07:15:31Z</time>
      </trkpt>
      <trkpt lat="45.64429" lon="6.54389">
        <ele>2140</ele>
        <time>2022-07-16T07:15:33Z</time>
      </trkpt>
      <trkpt lat="45.64431" lon="6.5439">
        <ele>2140</ele>
        <time>2022-07-16T07:15:35Z</time>
      </trkpt>
      <trkpt lat="45.64433" lon="6.54392">
        <ele>2141</ele>
        <time>2022-07-16T07:15:37Z</time>
      </trkpt>
      <trkpt lat="45.64435" lon="6.54394">
        <ele>2141</ele>
        <time>2022-07-16T07:15:39Z</time>
      </trkpt>
      <trkpt lat="45.64436" lon="6.54395">
        <ele>2141</ele>
        <time>2022-07-16T07:15:41Z</time>
      </trkpt>
      <trkpt lat="45.64438" lon="6.54397">
        <ele>2141</ele>
        <time>2022-07-16T07:15:43Z</time>
      </trkpt>
      <trkpt lat="45.64441" lon="6.54398">
        <ele>2142</ele>
        <time>2022-07-16T07:15:46Z</time>
      </trkpt>
      <trkpt lat="45.64443" lon="6.544">
        <ele>2142</ele>
        <time>2022-07-16T07:15:48Z</time>
      </trkpt>
      <trkpt lat="45.64444" lon="6.54402">
        <ele>2142</ele>
        <time>2022-07-16T07:15:50Z</time>
      </trkpt>
      <trkpt lat="45.64446" lon="6.54404">
        <ele>2142</ele>
        <time>2022-07-16T07:15:52Z</time>
      </trkpt>
      <trkpt lat="45.64447" lon="6.54405">
        <ele>2144</ele>
        <time>2022-07-16T07:15:54Z</time>
      </trkpt>
      <trkpt lat="45.64449" lon="6.54408">
        <ele>2144</ele>
        <time>2022-07-16T07:15:57Z</time>
      </trkpt>
      <trkpt lat="45.6445" lon="6.5441">
        <ele>2144</ele>
        <time>2022-07-16T07:15:59Z</time>
      </trkpt>
      <trkpt lat="45.64451" lon="6.54412">
        <ele>2145</ele>
        <time>2022-07-16T07:16:01Z</time>
      </trkpt>
      <trkpt lat="45.64453" lon="6.54414">
        <ele>2146</ele>
        <time>2022-07-16T07:16:03Z</time>
      </trkpt>
      <trkpt lat="45.64454" lon="6.54417">
        <ele>2147</ele>
        <time>2022-07-16T07:16:06Z</time>
      </trkpt>
      <trkpt lat="45.64455" lon="6.5442">
        <ele>2147</ele>
        <time>2022-07-16T07:16:08Z</time>
      </trkpt>
      <trkpt lat="45.64457" lon="6.54422">
        <ele>2148</ele>
        <time>2022-07-16T07:16:11Z</time>
      </trkpt>
      <trkpt lat="45.64458" lon="6.54425">
        <ele>2148</ele>
        <time>2022-07-16T07:16:14Z</time>
      </trkpt>
      <trkpt lat="45.6446" lon="6.54427">
        <ele>2148</ele>
        <time>2022-07-16T07:16:17Z</time>
      </trkpt>
      <trkpt lat="45.64461" lon="6.5443">
        <ele>2149</ele>
        <time>2022-07-16T07:16:20Z</time>
      </trkpt>
      <trkpt lat="45.64463" lon="6.54432">
        <ele>2149</ele>
        <time>2022-07-16T07:16:22Z</time>
      </trkpt>
      <trkpt lat="45.64464" lon="6.54435">
        <ele>2150</ele>
        <time>2022-07-16T07:16:24Z</time>
      </trkpt>
      <trkpt lat="45.64465" lon="6.54438">
        <ele>2150</ele>
        <time>2022-07-16T07:16:26Z</time>
      </trkpt>
      <trkpt lat="45.64466" lon="6.5444">
        <ele>2150</ele>
        <time>2022-07-16T07:16:28Z</time>
      </trkpt>
      <trkpt lat="45.64467" lon="6.54443">
        <ele>2150</ele>
        <time>2022-07-16T07:16:31Z</time>
      </trkpt>
      <trkpt lat="45.64468" lon="6.54446">
        <ele>2151</ele>
        <time>2022-07-16T07:16:34Z</time>
      </trkpt>
      <trkpt lat="45.64468" lon="6.54448">
        <ele>2152</ele>
        <time>2022-07-16T07:16:37Z</time>
      </trkpt>
      <trkpt lat="45.64468" lon="6.54451">
        <ele>2153</ele>
        <time>2022-07-16T07:16:41Z</time>
      </trkpt>
      <trkpt lat="45.64467" lon="6.54453">
        <ele>2154</ele>
        <time>2022-07-16T07:16:44Z</time>
      </trkpt>
      <trkpt lat="45.64468" lon="6.54456">
        <ele>2154</ele>
        <time>2022-07-16T07:16:47Z</time>
      </trkpt>
      <trkpt lat="45.6447" lon="6.54458">
        <ele>2155</ele>
        <time>2022-07-16T07:16:51Z</time>
      </trkpt>
      <trkpt lat="45.64472" lon="6.54461">
        <ele>2156</ele>
        <time>2022-07-16T07:16:54Z</time>
      </trkpt>
      <trkpt lat="45.64472" lon="6.54464">
        <ele>2156</ele>
        <time>2022-07-16T07:16:57Z</time>
      </trkpt>
      <trkpt lat="45.64472" lon="6.54466">
        <ele>2157</ele>
        <time>2022-07-16T07:16:59Z</time>
      </trkpt>
      <trkpt lat="45.64472" lon="6.54469">
        <ele>2158</ele>
        <time>2022-07-16T07:17:02Z</time>
      </trkpt>
      <trkpt lat="45.64473" lon="6.54472">
        <ele>2158</ele>
        <time>2022-07-16T07:17:05Z</time>
      </trkpt>
      <trkpt lat="45.64475" lon="6.54474">
        <ele>2158</ele>
        <time>2022-07-16T07:17:08Z</time>
      </trkpt>
      <trkpt lat="45.64475" lon="6.54477">
        <ele>2159</ele>
        <time>2022-07-16T07:17:11Z</time>
      </trkpt>
      <trkpt lat="45.64475" lon="6.5448">
        <ele>2159</ele>
        <time>2022-07-16T07:17:14Z</time>
      </trkpt>
      <trkpt lat="45.64476" lon="6.54483">
        <ele>2161</ele>
        <time>2022-07-16T07:17:17Z</time>
      </trkpt>
      <trkpt lat="45.64478" lon="6.54485">
        <ele>2161</ele>
        <time>2022-07-16T07:17:21Z</time>
      </trkpt>
      <trkpt lat="45.6448" lon="6.54487">
        <ele>2162</ele>
        <time>2022-07-16T07:17:24Z</time>
      </trkpt>
      <trkpt lat="45.64481" lon="6.54489">
        <ele>2163</ele>
        <time>2022-07-16T07:17:28Z</time>
      </trkpt>
      <trkpt lat="45.64484" lon="6.54488">
        <ele>2163</ele>
        <time>2022-07-16T07:17:31Z</time>
      </trkpt>
      <trkpt lat="45.64486" lon="6.54489">
        <ele>2164</ele>
        <time>2022-07-16T07:17:34Z</time>
      </trkpt>
      <trkpt lat="45.64488" lon="6.5449">
        <ele>2164</ele>
        <time>2022-07-16T07:17:37Z</time>
      </trkpt>
      <trkpt lat="45.6449" lon="6.54491">
        <ele>2165</ele>
        <time>2022-07-16T07:17:40Z</time>
      </trkpt>
      <trkpt lat="45.64491" lon="6.54494">
        <ele>2166</ele>
        <time>2022-07-16T07:17:43Z</time>
      </trkpt>
      <trkpt lat="45.64493" lon="6.54496">
        <ele>2166</ele>
        <time>2022-07-16T07:17:47Z</time>
      </trkpt>
      <trkpt lat="45.64494" lon="6.54497">
        <ele>2167</ele>
        <time>2022-07-16T07:17:50Z</time>
      </trkpt>
      <trkpt lat="45.64497" lon="6.54499">
        <ele>2168</ele>
        <time>2022-07-16T07:17:53Z</time>
      </trkpt>
      <trkpt lat="45.64498" lon="6.54501">
        <ele>2170</ele>
        <time>2022-07-16T07:17:56Z</time>
      </trkpt>
      <trkpt lat="45.645" lon="6.54502">
        <ele>2170</ele>
        <time>2022-07-16T07:17:59Z</time>
      </trkpt>
      <trkpt lat="45.64503" lon="6.54504">
        <ele>2170</ele>
        <time>2022-07-16T07:18:02Z</time>
      </trkpt>
      <trkpt lat="45.64505" lon="6.54506">
        <ele>2170</ele>
        <time>2022-07-16T07:18:05Z</time>
      </trkpt>
      <trkpt lat="45.64506" lon="6.54509">
        <ele>2171</ele>
        <time>2022-07-16T07:18:09Z</time>
      </trkpt>
      <trkpt lat="45.64508" lon="6.54511">
        <ele>2171</ele>
        <time>2022-07-16T07:18:12Z</time>
      </trkpt>
      <trkpt lat="45.64509" lon="6.54513">
        <ele>2173</ele>
        <time>2022-07-16T07:18:15Z</time>
      </trkpt>
      <trkpt lat="45.64509" lon="6.54516">
        <ele>2174</ele>
        <time>2022-07-16T07:18:19Z</time>
      </trkpt>
      <trkpt lat="45.64511" lon="6.54518">
        <ele>2174</ele>
        <time>2022-07-16T07:18:22Z</time>
      </trkpt>
      <trkpt lat="45.64511" lon="6.5452">
        <ele>2175</ele>
        <time>2022-07-16T07:18:25Z</time>
      </trkpt>
      <trkpt lat="45.64511" lon="6.54523">
        <ele>2176</ele>
        <time>2022-07-16T07:18:28Z</time>
      </trkpt>
      <trkpt lat="45.64511" lon="6.54526">
        <ele>2176</ele>
        <time>2022-07-16T07:18:31Z</time>
      </trkpt>
      <trkpt lat="45.64511" lon="6.5453">
        <ele>2177</ele>
        <time>2022-07-16T07:18:34Z</time>
      </trkpt>
      <trkpt lat="45.64511" lon="6.54533">
        <ele>2177</ele>
        <time>2022-07-16T07:18:36Z</time>
      </trkpt>
      <trkpt lat="45.64513" lon="6.54536">
        <ele>2177</ele>
        <time>2022-07-16T07:18:38Z</time>
      </trkpt>
      <trkpt lat="45.64514" lon="6.54538">
        <ele>2178</ele>
        <time>2022-07-16T07:18:40Z</time>
      </trkpt>
      <trkpt lat="45.64516" lon="6.54541">
        <ele>2178</ele>
        <time>2022-07-16T07:18:42Z</time>
      </trkpt>
      <trkpt lat="45.64517" lon="6.54544">
        <ele>2178</ele>
        <time>2022-07-16T07:18:44Z</time>
      </trkpt>
      <trkpt lat="45.64517" lon="6.54547">
        <ele>2178</ele>
        <time>2022-07-16T07:18:46Z</time>
      </trkpt>
      <trkpt lat="45.64518" lon="6.54549">
        <ele>2178</ele>
        <time>2022-07-16T07:18:48Z</time>
      </trkpt>
      <trkpt lat="45.64519" lon="6.54552">
        <ele>2178</ele>
        <time>2022-07-16T07:18:50Z</time>
      </trkpt>
      <trkpt lat="45.6452" lon="6.54555">
        <ele>2178</ele>
        <time>2022-07-16T07:18:52Z</time>
      </trkpt>
      <trkpt lat="45.6452" lon="6.54559">
        <ele>2180</ele>
        <time>2022-07-16T07:18:55Z</time>
      </trkpt>
      <trkpt lat="45.64521" lon="6.54562">
        <ele>2180</ele>
        <time>2022-07-16T07:18:58Z</time>
      </trkpt>
      <trkpt lat="45.64523" lon="6.54565">
        <ele>2180</ele>
        <time>2022-07-16T07:19:00Z</time>
      </trkpt>
      <trkpt lat="45.64524" lon="6.54567">
        <ele>2180</ele>
        <time>2022-07-16T07:19:02Z</time>
      </trkpt>
      <trkpt lat="45.64526" lon="6.54569">
        <ele>2180</ele>
        <time>2022-07-16T07:19:04Z</time>
      </trkpt>
      <trkpt lat="45.64528" lon="6.54572">
        <ele>2180</ele>
        <time>2022-07-16T07:19:06Z</time>
      </trkpt>
      <trkpt lat="45.64528" lon="6.54576">
        <ele>2180</ele>
        <time>2022-07-16T07:19:08Z</time>
      </trkpt>
      <trkpt lat="45.64529" lon="6.54579">
        <ele>2179</ele>
        <time>2022-07-16T07:19:10Z</time>
      </trkpt>
      <trkpt lat="45.6453" lon="6.54584">
        <ele>2179</ele>
        <time>2022-07-16T07:19:12Z</time>
      </trkpt>
      <trkpt lat="45.64531" lon="6.54586">
        <ele>2178</ele>
        <time>2022-07-16T07:19:14Z</time>
      </trkpt>
      <trkpt lat="45.64533" lon="6.54588">
        <ele>2178</ele>
        <time>2022-07-16T07:19:17Z</time>
      </trkpt>
      <trkpt lat="45.64536" lon="6.54591">
        <ele>2177</ele>
        <time>2022-07-16T07:19:19Z</time>
      </trkpt>
      <trkpt lat="45.64537" lon="6.54594">
        <ele>2177</ele>
        <time>2022-07-16T07:19:21Z</time>
      </trkpt>
      <trkpt lat="45.64539" lon="6.54596">
        <ele>2177</ele>
        <time>2022-07-16T07:19:23Z</time>
      </trkpt>
      <trkpt lat="45.64539" lon="6.546">
        <ele>2176</ele>
        <time>2022-07-16T07:19:25Z</time>
      </trkpt>
      <trkpt lat="45.6454" lon="6.54604">
        <ele>2175</ele>
        <time>2022-07-16T07:19:27Z</time>
      </trkpt>
      <trkpt lat="45.64541" lon="6.54607">
        <ele>2174</ele>
        <time>2022-07-16T07:19:30Z</time>
      </trkpt>
      <trkpt lat="45.64542" lon="6.54609">
        <ele>2174</ele>
        <time>2022-07-16T07:19:32Z</time>
      </trkpt>
      <trkpt lat="45.64542" lon="6.54612">
        <ele>2174</ele>
        <time>2022-07-16T07:19:34Z</time>
      </trkpt>
      <trkpt lat="45.64542" lon="6.54615">
        <ele>2173</ele>
        <time>2022-07-16T07:19:36Z</time>
      </trkpt>
      <trkpt lat="45.64541" lon="6.54619">
        <ele>2172</ele>
        <time>2022-07-16T07:19:38Z</time>
      </trkpt>
      <trkpt lat="45.64542" lon="6.54622">
        <ele>2172</ele>
        <time>2022-07-16T07:19:40Z</time>
      </trkpt>
      <trkpt lat="45.64542" lon="6.54626">
        <ele>2171</ele>
        <time>2022-07-16T07:19:43Z</time>
      </trkpt>
      <trkpt lat="45.64544" lon="6.54628">
        <ele>2171</ele>
        <time>2022-07-16T07:19:44Z</time>
      </trkpt>
      <trkpt lat="45.64544" lon="6.54632">
        <ele>2171</ele>
        <time>2022-07-16T07:19:46Z</time>
      </trkpt>
      <trkpt lat="45.64543" lon="6.54636">
        <ele>2171</ele>
        <time>2022-07-16T07:19:48Z</time>
      </trkpt>
      <trkpt lat="45.64545" lon="6.5464">
        <ele>2172</ele>
        <time>2022-07-16T07:19:50Z</time>
      </trkpt>
      <trkpt lat="45.64546" lon="6.54642">
        <ele>2172</ele>
        <time>2022-07-16T07:19:52Z</time>
      </trkpt>
      <trkpt lat="45.64546" lon="6.54646">
        <ele>2173</ele>
        <time>2022-07-16T07:19:55Z</time>
      </trkpt>
      <trkpt lat="45.64546" lon="6.54649">
        <ele>2174</ele>
        <time>2022-07-16T07:19:57Z</time>
      </trkpt>
      <trkpt lat="45.64545" lon="6.54652">
        <ele>2174</ele>
        <time>2022-07-16T07:19:59Z</time>
      </trkpt>
      <trkpt lat="45.64547" lon="6.54655">
        <ele>2175</ele>
        <time>2022-07-16T07:20:02Z</time>
      </trkpt>
      <trkpt lat="45.64548" lon="6.54661">
        <ele>2174</ele>
        <time>2022-07-16T07:20:05Z</time>
      </trkpt>
      <trkpt lat="45.64549" lon="6.54664">
        <ele>2175</ele>
        <time>2022-07-16T07:20:08Z</time>
      </trkpt>
      <trkpt lat="45.64551" lon="6.54667">
        <ele>2175</ele>
        <time>2022-07-16T07:20:10Z</time>
      </trkpt>
      <trkpt lat="45.64552" lon="6.54671">
        <ele>2175</ele>
        <time>2022-07-16T07:20:12Z</time>
      </trkpt>
      <trkpt lat="45.64552" lon="6.54673">
        <ele>2175</ele>
        <time>2022-07-16T07:20:14Z</time>
      </trkpt>
      <trkpt lat="45.64553" lon="6.54677">
        <ele>2176</ele>
        <time>2022-07-16T07:20:16Z</time>
      </trkpt>
      <trkpt lat="45.64554" lon="6.5468">
        <ele>2176</ele>
        <time>2022-07-16T07:20:18Z</time>
      </trkpt>
      <trkpt lat="45.64555" lon="6.54683">
        <ele>2176</ele>
        <time>2022-07-16T07:20:20Z</time>
      </trkpt>
      <trkpt lat="45.64557" lon="6.54686">
        <ele>2176</ele>
        <time>2022-07-16T07:20:22Z</time>
      </trkpt>
      <trkpt lat="45.64557" lon="6.54689">
        <ele>2176</ele>
        <time>2022-07-16T07:20:24Z</time>
      </trkpt>
      <trkpt lat="45.64558" lon="6.54692">
        <ele>2177</ele>
        <time>2022-07-16T07:20:26Z</time>
      </trkpt>
      <trkpt lat="45.64559" lon="6.54695">
        <ele>2177</ele>
        <time>2022-07-16T07:20:28Z</time>
      </trkpt>
      <trkpt lat="45.6456" lon="6.547">
        <ele>2177</ele>
        <time>2022-07-16T07:20:30Z</time>
      </trkpt>
      <trkpt lat="45.64561" lon="6.54704">
        <ele>2177</ele>
        <time>2022-07-16T07:20:32Z</time>
      </trkpt>
      <trkpt lat="45.64561" lon="6.54708">
        <ele>2178</ele>
        <time>2022-07-16T07:20:34Z</time>
      </trkpt>
      <trkpt lat="45.64562" lon="6.54712">
        <ele>2178</ele>
        <time>2022-07-16T07:20:36Z</time>
      </trkpt>
      <trkpt lat="45.64565" lon="6.54716">
        <ele>2178</ele>
        <time>2022-07-16T07:20:38Z</time>
      </trkpt>
      <trkpt lat="45.64567" lon="6.54719">
        <ele>2178</ele>
        <time>2022-07-16T07:20:40Z</time>
      </trkpt>
      <trkpt lat="45.64568" lon="6.54723">
        <ele>2177</ele>
        <time>2022-07-16T07:20:42Z</time>
      </trkpt>
      <trkpt lat="45.6457" lon="6.54726">
        <ele>2177</ele>
        <time>2022-07-16T07:20:44Z</time>
      </trkpt>
      <trkpt lat="45.64572" lon="6.5473">
        <ele>2177</ele>
        <time>2022-07-16T07:20:46Z</time>
      </trkpt>
      <trkpt lat="45.64573" lon="6.54733">
        <ele>2177</ele>
        <time>2022-07-16T07:20:47Z</time>
      </trkpt>
      <trkpt lat="45.64573" lon="6.54735">
        <ele>2176</ele>
        <time>2022-07-16T07:20:48Z</time>
      </trkpt>
      <trkpt lat="45.64574" lon="6.54738">
        <ele>2176</ele>
        <time>2022-07-16T07:20:49Z</time>
      </trkpt>
      <trkpt lat="45.64574" lon="6.54741">
        <ele>2177</ele>
        <time>2022-07-16T07:20:50Z</time>
      </trkpt>
      <trkpt lat="45.64575" lon="6.54746">
        <ele>2177</ele>
        <time>2022-07-16T07:20:52Z</time>
      </trkpt>
      <trkpt lat="45.64576" lon="6.5475">
        <ele>2177</ele>
        <time>2022-07-16T07:20:54Z</time>
      </trkpt>
      <trkpt lat="45.64577" lon="6.54754">
        <ele>2177</ele>
        <time>2022-07-16T07:20:56Z</time>
      </trkpt>
      <trkpt lat="45.6458" lon="6.54757">
        <ele>2177</ele>
        <time>2022-07-16T07:20:58Z</time>
      </trkpt>
      <trkpt lat="45.6458" lon="6.5476">
        <ele>2177</ele>
        <time>2022-07-16T07:20:59Z</time>
      </trkpt>
      <trkpt lat="45.64582" lon="6.54762">
        <ele>2177</ele>
        <time>2022-07-16T07:21:00Z</time>
      </trkpt>
      <trkpt lat="45.64583" lon="6.54764">
        <ele>2177</ele>
        <time>2022-07-16T07:21:01Z</time>
      </trkpt>
      <trkpt lat="45.64584" lon="6.54765">
        <ele>2177</ele>
        <time>2022-07-16T07:21:02Z</time>
      </trkpt>
      <trkpt lat="45.64586" lon="6.54769">
        <ele>2177</ele>
        <time>2022-07-16T07:21:03Z</time>
      </trkpt>
      <trkpt lat="45.64587" lon="6.5477">
        <ele>2176</ele>
        <time>2022-07-16T07:21:04Z</time>
      </trkpt>
      <trkpt lat="45.64588" lon="6.54774">
        <ele>2176</ele>
        <time>2022-07-16T07:21:06Z</time>
      </trkpt>
      <trkpt lat="45.64589" lon="6.54778">
        <ele>2176</ele>
        <time>2022-07-16T07:21:08Z</time>
      </trkpt>
      <trkpt lat="45.6459" lon="6.54781">
        <ele>2176</ele>
        <time>2022-07-16T07:21:10Z</time>
      </trkpt>
      <trkpt lat="45.64592" lon="6.54784">
        <ele>2176</ele>
        <time>2022-07-16T07:21:12Z</time>
      </trkpt>
      <trkpt lat="45.64593" lon="6.54786">
        <ele>2175</ele>
        <time>2022-07-16T07:21:13Z</time>
      </trkpt>
      <trkpt lat="45.64595" lon="6.5479">
        <ele>2175</ele>
        <time>2022-07-16T07:21:15Z</time>
      </trkpt>
      <trkpt lat="45.64597" lon="6.54794">
        <ele>2174</ele>
        <time>2022-07-16T07:21:17Z</time>
      </trkpt>
      <trkpt lat="45.64598" lon="6.54796">
        <ele>2174</ele>
        <time>2022-07-16T07:21:18Z</time>
      </trkpt>
      <trkpt lat="45.64599" lon="6.54799">
        <ele>2174</ele>
        <time>2022-07-16T07:21:21Z</time>
      </trkpt>
      <trkpt lat="45.64602" lon="6.54801">
        <ele>2174</ele>
        <time>2022-07-16T07:21:22Z</time>
      </trkpt>
      <trkpt lat="45.64604" lon="6.54804">
        <ele>2174</ele>
        <time>2022-07-16T07:21:23Z</time>
      </trkpt>
      <trkpt lat="45.64605" lon="6.54806">
        <ele>2174</ele>
        <time>2022-07-16T07:21:24Z</time>
      </trkpt>
      <trkpt lat="45.64607" lon="6.5481">
        <ele>2173</ele>
        <time>2022-07-16T07:21:26Z</time>
      </trkpt>
      <trkpt lat="45.6461" lon="6.54812">
        <ele>2172</ele>
        <time>2022-07-16T07:21:28Z</time>
      </trkpt>
      <trkpt lat="45.64611" lon="6.54816">
        <ele>2171</ele>
        <time>2022-07-16T07:21:30Z</time>
      </trkpt>
      <trkpt lat="45.64613" lon="6.54819">
        <ele>2172</ele>
        <time>2022-07-16T07:21:32Z</time>
      </trkpt>
      <trkpt lat="45.64615" lon="6.54822">
        <ele>2172</ele>
        <time>2022-07-16T07:21:34Z</time>
      </trkpt>
      <trkpt lat="45.64618" lon="6.54826">
        <ele>2172</ele>
        <time>2022-07-16T07:21:36Z</time>
      </trkpt>
      <trkpt lat="45.6462" lon="6.54828">
        <ele>2171</ele>
        <time>2022-07-16T07:21:37Z</time>
      </trkpt>
      <trkpt lat="45.64621" lon="6.54831">
        <ele>2171</ele>
        <time>2022-07-16T07:21:38Z</time>
      </trkpt>
      <trkpt lat="45.64622" lon="6.54833">
        <ele>2171</ele>
        <time>2022-07-16T07:21:39Z</time>
      </trkpt>
      <trkpt lat="45.64624" lon="6.54836">
        <ele>2171</ele>
        <time>2022-07-16T07:21:40Z</time>
      </trkpt>
      <trkpt lat="45.64625" lon="6.54838">
        <ele>2171</ele>
        <time>2022-07-16T07:21:41Z</time>
      </trkpt>
      <trkpt lat="45.64626" lon="6.54841">
        <ele>2170</ele>
        <time>2022-07-16T07:21:42Z</time>
      </trkpt>
      <trkpt lat="45.64627" lon="6.54843">
        <ele>2170</ele>
        <time>2022-07-16T07:21:43Z</time>
      </trkpt>
      <trkpt lat="45.64628" lon="6.54848">
        <ele>2170</ele>
        <time>2022-07-16T07:21:45Z</time>
      </trkpt>
      <trkpt lat="45.6463" lon="6.5485">
        <ele>2170</ele>
        <time>2022-07-16T07:21:46Z</time>
      </trkpt>
      <trkpt lat="45.64632" lon="6.54853">
        <ele>2170</ele>
        <time>2022-07-16T07:21:48Z</time>
      </trkpt>
      <trkpt lat="45.64635" lon="6.54857">
        <ele>2170</ele>
        <time>2022-07-16T07:21:50Z</time>
      </trkpt>
      <trkpt lat="45.64638" lon="6.54861">
        <ele>2168</ele>
        <time>2022-07-16T07:21:52Z</time>
      </trkpt>
      <trkpt lat="45.64638" lon="6.54863">
        <ele>2167</ele>
        <time>2022-07-16T07:21:53Z</time>
      </trkpt>
      <trkpt lat="45.64639" lon="6.54865">
        <ele>2167</ele>
        <time>2022-07-16T07:21:54Z</time>
      </trkpt>
      <trkpt lat="45.6464" lon="6.5487">
        <ele>2167</ele>
        <time>2022-07-16T07:21:56Z</time>
      </trkpt>
      <trkpt lat="45.64642" lon="6.54873">
        <ele>2168</ele>
        <time>2022-07-16T07:21:58Z</time>
      </trkpt>
      <trkpt lat="45.64644" lon="6.54877">
        <ele>2168</ele>
        <time>2022-07-16T07:22:00Z</time>
      </trkpt>
      <trkpt lat="45.64645" lon="6.5488">
        <ele>2168</ele>
        <time>2022-07-16T07:22:02Z</time>
      </trkpt>
      <trkpt lat="45.64648" lon="6.54883">
        <ele>2167</ele>
        <time>2022-07-16T07:22:04Z</time>
      </trkpt>
      <trkpt lat="45.64649" lon="6.54885">
        <ele>2167</ele>
        <time>2022-07-16T07:22:05Z</time>
      </trkpt>
      <trkpt lat="45.64651" lon="6.54888">
        <ele>2166</ele>
        <time>2022-07-16T07:22:07Z</time>
      </trkpt>
      <trkpt lat="45.64654" lon="6.54892">
        <ele>2166</ele>
        <time>2022-07-16T07:22:09Z</time>
      </trkpt>
      <trkpt lat="45.64656" lon="6.54896">
        <ele>2165</ele>
        <time>2022-07-16T07:22:11Z</time>
      </trkpt>
      <trkpt lat="45.64657" lon="6.54898">
        <ele>2165</ele>
        <time>2022-07-16T07:22:12Z</time>
      </trkpt>
      <trkpt lat="45.64659" lon="6.549">
        <ele>2165</ele>
        <time>2022-07-16T07:22:13Z</time>
      </trkpt>
      <trkpt lat="45.64661" lon="6.54904">
        <ele>2164</ele>
        <time>2022-07-16T07:22:15Z</time>
      </trkpt>
      <trkpt lat="45.64663" lon="6.54907">
        <ele>2165</ele>
        <time>2022-07-16T07:22:18Z</time>
      </trkpt>
      <trkpt lat="45.64664" lon="6.5491">
        <ele>2165</ele>
        <time>2022-07-16T07:22:21Z</time>
      </trkpt>
      <trkpt lat="45.64666" lon="6.54912">
        <ele>2165</ele>
        <time>2022-07-16T07:22:23Z</time>
      </trkpt>
      <trkpt lat="45.64667" lon="6.54914">
        <ele>2165</ele>
        <time>2022-07-16T07:22:24Z</time>
      </trkpt>
      <trkpt lat="45.64668" lon="6.54917">
        <ele>2164</ele>
        <time>2022-07-16T07:22:25Z</time>
      </trkpt>
      <trkpt lat="45.64669" lon="6.54919">
        <ele>2163</ele>
        <time>2022-07-16T07:22:26Z</time>
      </trkpt>
      <trkpt lat="45.64671" lon="6.54923">
        <ele>2162</ele>
        <time>2022-07-16T07:22:28Z</time>
      </trkpt>
      <trkpt lat="45.64672" lon="6.54926">
        <ele>2162</ele>
        <time>2022-07-16T07:22:29Z</time>
      </trkpt>
      <trkpt lat="45.64674" lon="6.5493">
        <ele>2162</ele>
        <time>2022-07-16T07:22:31Z</time>
      </trkpt>
      <trkpt lat="45.64675" lon="6.54932">
        <ele>2162</ele>
        <time>2022-07-16T07:22:34Z</time>
      </trkpt>
      <trkpt lat="45.64678" lon="6.54935">
        <ele>2161</ele>
        <time>2022-07-16T07:22:36Z</time>
      </trkpt>
      <trkpt lat="45.6468" lon="6.54939">
        <ele>2160</ele>
        <time>2022-07-16T07:22:39Z</time>
      </trkpt>
      <trkpt lat="45.64681" lon="6.54942">
        <ele>2160</ele>
        <time>2022-07-16T07:22:43Z</time>
      </trkpt>
      <trkpt lat="45.64682" lon="6.54944">
        <ele>2160</ele>
        <time>2022-07-16T07:22:45Z</time>
      </trkpt>
      <trkpt lat="45.64683" lon="6.54946">
        <ele>2160</ele>
        <time>2022-07-16T07:22:46Z</time>
      </trkpt>
      <trkpt lat="45.64684" lon="6.54949">
        <ele>2160</ele>
        <time>2022-07-16T07:22:47Z</time>
      </trkpt>
      <trkpt lat="45.64685" lon="6.54951">
        <ele>2159</ele>
        <time>2022-07-16T07:22:48Z</time>
      </trkpt>
      <trkpt lat="45.64686" lon="6.54953">
        <ele>2159</ele>
        <time>2022-07-16T07:22:49Z</time>
      </trkpt>
      <trkpt lat="45.64687" lon="6.54956">
        <ele>2159</ele>
        <time>2022-07-16T07:22:50Z</time>
      </trkpt>
      <trkpt lat="45.64689" lon="6.54961">
        <ele>2159</ele>
        <time>2022-07-16T07:22:52Z</time>
      </trkpt>
      <trkpt lat="45.6469" lon="6.54963">
        <ele>2159</ele>
        <time>2022-07-16T07:22:53Z</time>
      </trkpt>
      <trkpt lat="45.64691" lon="6.54965">
        <ele>2159</ele>
        <time>2022-07-16T07:22:54Z</time>
      </trkpt>
      <trkpt lat="45.64693" lon="6.54968">
        <ele>2159</ele>
        <time>2022-07-16T07:22:55Z</time>
      </trkpt>
      <trkpt lat="45.64693" lon="6.54969">
        <ele>2158</ele>
        <time>2022-07-16T07:22:56Z</time>
      </trkpt>
      <trkpt lat="45.64695" lon="6.54973">
        <ele>2157</ele>
        <time>2022-07-16T07:22:58Z</time>
      </trkpt>
      <trkpt lat="45.64696" lon="6.54976">
        <ele>2157</ele>
        <time>2022-07-16T07:22:59Z</time>
      </trkpt>
      <trkpt lat="45.64697" lon="6.5498">
        <ele>2157</ele>
        <time>2022-07-16T07:23:01Z</time>
      </trkpt>
      <trkpt lat="45.64698" lon="6.54983">
        <ele>2158</ele>
        <time>2022-07-16T07:23:03Z</time>
      </trkpt>
      <trkpt lat="45.64699" lon="6.54986">
        <ele>2158</ele>
        <time>2022-07-16T07:23:05Z</time>
      </trkpt>
      <trkpt lat="45.647" lon="6.54988">
        <ele>2159</ele>
        <time>2022-07-16T07:23:07Z</time>
      </trkpt>
      <trkpt lat="45.64701" lon="6.5499">
        <ele>2159</ele>
        <time>2022-07-16T07:23:09Z</time>
      </trkpt>
      <trkpt lat="45.64702" lon="6.54993">
        <ele>2159</ele>
        <time>2022-07-16T07:23:11Z</time>
      </trkpt>
      <trkpt lat="45.64703" lon="6.54997">
        <ele>2159</ele>
        <time>2022-07-16T07:23:13Z</time>
      </trkpt>
      <trkpt lat="45.64703" lon="6.55002">
        <ele>2159</ele>
        <time>2022-07-16T07:23:15Z</time>
      </trkpt>
      <trkpt lat="45.64704" lon="6.55007">
        <ele>2160</ele>
        <time>2022-07-16T07:23:17Z</time>
      </trkpt>
      <trkpt lat="45.64705" lon="6.5501">
        <ele>2160</ele>
        <time>2022-07-16T07:23:19Z</time>
      </trkpt>
      <trkpt lat="45.64705" lon="6.55015">
        <ele>2159</ele>
        <time>2022-07-16T07:23:21Z</time>
      </trkpt>
      <trkpt lat="45.64706" lon="6.5502">
        <ele>2158</ele>
        <time>2022-07-16T07:23:24Z</time>
      </trkpt>
      <trkpt lat="45.64707" lon="6.55024">
        <ele>2157</ele>
        <time>2022-07-16T07:23:26Z</time>
      </trkpt>
      <trkpt lat="45.64708" lon="6.55026">
        <ele>2157</ele>
        <time>2022-07-16T07:23:27Z</time>
      </trkpt>
      <trkpt lat="45.64708" lon="6.55031">
        <ele>2156</ele>
        <time>2022-07-16T07:23:29Z</time>
      </trkpt>
      <trkpt lat="45.64708" lon="6.55033">
        <ele>2155</ele>
        <time>2022-07-16T07:23:30Z</time>
      </trkpt>
      <trkpt lat="45.64708" lon="6.55039">
        <ele>2155</ele>
        <time>2022-07-16T07:23:32Z</time>
      </trkpt>
      <trkpt lat="45.64708" lon="6.55043">
        <ele>2155</ele>
        <time>2022-07-16T07:23:34Z</time>
      </trkpt>
      <trkpt lat="45.64708" lon="6.55046">
        <ele>2155</ele>
        <time>2022-07-16T07:23:35Z</time>
      </trkpt>
      <trkpt lat="45.64709" lon="6.5505">
        <ele>2155</ele>
        <time>2022-07-16T07:23:37Z</time>
      </trkpt>
      <trkpt lat="45.64709" lon="6.55053">
        <ele>2154</ele>
        <time>2022-07-16T07:23:39Z</time>
      </trkpt>
      <trkpt lat="45.64712" lon="6.55057">
        <ele>2153</ele>
        <time>2022-07-16T07:23:47Z</time>
      </trkpt>
      <trkpt lat="45.64714" lon="6.5506">
        <ele>2153</ele>
        <time>2022-07-16T07:23:49Z</time>
      </trkpt>
      <trkpt lat="45.64715" lon="6.55062">
        <ele>2153</ele>
        <time>2022-07-16T07:23:50Z</time>
      </trkpt>
      <trkpt lat="45.64715" lon="6.55064">
        <ele>2152</ele>
        <time>2022-07-16T07:23:52Z</time>
      </trkpt>
      <trkpt lat="45.64715" lon="6.55066">
        <ele>2152</ele>
        <time>2022-07-16T07:23:53Z</time>
      </trkpt>
      <trkpt lat="45.64715" lon="6.55067">
        <ele>2152</ele>
        <time>2022-07-16T07:23:54Z</time>
      </trkpt>
      <trkpt lat="45.64716" lon="6.55069">
        <ele>2153</ele>
        <time>2022-07-16T07:23:55Z</time>
      </trkpt>
      <trkpt lat="45.64716" lon="6.5507">
        <ele>2154</ele>
        <time>2022-07-16T07:23:56Z</time>
      </trkpt>
      <trkpt lat="45.64716" lon="6.55072">
        <ele>2154</ele>
        <time>2022-07-16T07:23:57Z</time>
      </trkpt>
      <trkpt lat="45.64717" lon="6.55076">
        <ele>2154</ele>
        <time>2022-07-16T07:23:59Z</time>
      </trkpt>
      <trkpt lat="45.64717" lon="6.5508">
        <ele>2154</ele>
        <time>2022-07-16T07:24:01Z</time>
      </trkpt>
      <trkpt lat="45.64717" lon="6.55084">
        <ele>2154</ele>
        <time>2022-07-16T07:24:03Z</time>
      </trkpt>
      <trkpt lat="45.64717" lon="6.55088">
        <ele>2154</ele>
        <time>2022-07-16T07:24:06Z</time>
      </trkpt>
      <trkpt lat="45.64717" lon="6.55091">
        <ele>2154</ele>
        <time>2022-07-16T07:24:08Z</time>
      </trkpt>
      <trkpt lat="45.64717" lon="6.55092">
        <ele>2154</ele>
        <time>2022-07-16T07:24:09Z</time>
      </trkpt>
      <trkpt lat="45.64717" lon="6.55094">
        <ele>2154</ele>
        <time>2022-07-16T07:24:10Z</time>
      </trkpt>
      <trkpt lat="45.64718" lon="6.55096">
        <ele>2154</ele>
        <time>2022-07-16T07:24:12Z</time>
      </trkpt>
      <trkpt lat="45.64718" lon="6.55097">
        <ele>2154</ele>
        <time>2022-07-16T07:24:13Z</time>
      </trkpt>
      <trkpt lat="45.64719" lon="6.55102">
        <ele>2154</ele>
        <time>2022-07-16T07:24:16Z</time>
      </trkpt>
      <trkpt lat="45.64719" lon="6.55105">
        <ele>2154</ele>
        <time>2022-07-16T07:24:18Z</time>
      </trkpt>
      <trkpt lat="45.64719" lon="6.55108">
        <ele>2154</ele>
        <time>2022-07-16T07:24:20Z</time>
      </trkpt>
      <trkpt lat="45.6472" lon="6.55111">
        <ele>2154</ele>
        <time>2022-07-16T07:24:22Z</time>
      </trkpt>
      <trkpt lat="45.6472" lon="6.55114">
        <ele>2154</ele>
        <time>2022-07-16T07:24:25Z</time>
      </trkpt>
      <trkpt lat="45.64721" lon="6.55117">
        <ele>2154</ele>
        <time>2022-07-16T07:24:28Z</time>
      </trkpt>
      <trkpt lat="45.64721" lon="6.55118">
        <ele>2154</ele>
        <time>2022-07-16T07:24:29Z</time>
      </trkpt>
      <trkpt lat="45.64722" lon="6.55119">
        <ele>2154</ele>
        <time>2022-07-16T07:24:30Z</time>
      </trkpt>
      <trkpt lat="45.64723" lon="6.55121">
        <ele>2154</ele>
        <time>2022-07-16T07:24:31Z</time>
      </trkpt>
      <trkpt lat="45.64723" lon="6.55122">
        <ele>2154</ele>
        <time>2022-07-16T07:24:32Z</time>
      </trkpt>
      <trkpt lat="45.64724" lon="6.55123">
        <ele>2154</ele>
        <time>2022-07-16T07:24:33Z</time>
      </trkpt>
      <trkpt lat="45.64725" lon="6.55126">
        <ele>2154</ele>
        <time>2022-07-16T07:24:34Z</time>
      </trkpt>
      <trkpt lat="45.64726" lon="6.5513">
        <ele>2154</ele>
        <time>2022-07-16T07:24:36Z</time>
      </trkpt>
      <trkpt lat="45.64727" lon="6.55132">
        <ele>2154</ele>
        <time>2022-07-16T07:24:37Z</time>
      </trkpt>
      <trkpt lat="45.64728" lon="6.55137">
        <ele>2155</ele>
        <time>2022-07-16T07:24:39Z</time>
      </trkpt>
      <trkpt lat="45.64728" lon="6.55142">
        <ele>2155</ele>
        <time>2022-07-16T07:24:41Z</time>
      </trkpt>
      <trkpt lat="45.64728" lon="6.55145">
        <ele>2155</ele>
        <time>2022-07-16T07:24:42Z</time>
      </trkpt>
      <trkpt lat="45.64728" lon="6.55147">
        <ele>2155</ele>
        <time>2022-07-16T07:24:43Z</time>
      </trkpt>
      <trkpt lat="45.64729" lon="6.55151">
        <ele>2154</ele>
        <time>2022-07-16T07:24:44Z</time>
      </trkpt>
      <trkpt lat="45.64729" lon="6.55153">
        <ele>2154</ele>
        <time>2022-07-16T07:24:45Z</time>
      </trkpt>
      <trkpt lat="45.6473" lon="6.55156">
        <ele>2154</ele>
        <time>2022-07-16T07:24:46Z</time>
      </trkpt>
      <trkpt lat="45.6473" lon="6.5516">
        <ele>2154</ele>
        <time>2022-07-16T07:24:48Z</time>
      </trkpt>
      <trkpt lat="45.6473" lon="6.55163">
        <ele>2154</ele>
        <time>2022-07-16T07:24:50Z</time>
      </trkpt>
      <trkpt lat="45.6473" lon="6.55168">
        <ele>2155</ele>
        <time>2022-07-16T07:24:53Z</time>
      </trkpt>
      <trkpt lat="45.64731" lon="6.55171">
        <ele>2155</ele>
        <time>2022-07-16T07:24:55Z</time>
      </trkpt>
      <trkpt lat="45.64731" lon="6.55175">
        <ele>2155</ele>
        <time>2022-07-16T07:24:57Z</time>
      </trkpt>
      <trkpt lat="45.64732" lon="6.55177">
        <ele>2155</ele>
        <time>2022-07-16T07:24:59Z</time>
      </trkpt>
      <trkpt lat="45.64732" lon="6.55179">
        <ele>2156</ele>
        <time>2022-07-16T07:25:00Z</time>
      </trkpt>
      <trkpt lat="45.64732" lon="6.55181">
        <ele>2156</ele>
        <time>2022-07-16T07:25:01Z</time>
      </trkpt>
      <trkpt lat="45.64733" lon="6.55183">
        <ele>2156</ele>
        <time>2022-07-16T07:25:02Z</time>
      </trkpt>
      <trkpt lat="45.64733" lon="6.55185">
        <ele>2156</ele>
        <time>2022-07-16T07:25:03Z</time>
      </trkpt>
      <trkpt lat="45.64733" lon="6.55187">
        <ele>2156</ele>
        <time>2022-07-16T07:25:04Z</time>
      </trkpt>
      <trkpt lat="45.64734" lon="6.55189">
        <ele>2156</ele>
        <time>2022-07-16T07:25:05Z</time>
      </trkpt>
      <trkpt lat="45.64734" lon="6.5519">
        <ele>2156</ele>
        <time>2022-07-16T07:25:06Z</time>
      </trkpt>
      <trkpt lat="45.64734" lon="6.55192">
        <ele>2156</ele>
        <time>2022-07-16T07:25:07Z</time>
      </trkpt>
      <trkpt lat="45.64734" lon="6.55194">
        <ele>2156</ele>
        <time>2022-07-16T07:25:08Z</time>
      </trkpt>
      <trkpt lat="45.64734" lon="6.55195">
        <ele>2156</ele>
        <time>2022-07-16T07:25:09Z</time>
      </trkpt>
      <trkpt lat="45.64734" lon="6.55197">
        <ele>2156</ele>
        <time>2022-07-16T07:25:10Z</time>
      </trkpt>
      <trkpt lat="45.64734" lon="6.55199">
        <ele>2156</ele>
        <time>2022-07-16T07:25:11Z</time>
      </trkpt>
      <trkpt lat="45.64734" lon="6.552">
        <ele>2156</ele>
        <time>2022-07-16T07:25:12Z</time>
      </trkpt>
      <trkpt lat="45.64733" lon="6.55205">
        <ele>2157</ele>
        <time>2022-07-16T07:25:15Z</time>
      </trkpt>
      <trkpt lat="45.64733" lon="6.55207">
        <ele>2157</ele>
        <time>2022-07-16T07:25:17Z</time>
      </trkpt>
      <trkpt lat="45.64733" lon="6.55208">
        <ele>2157</ele>
        <time>2022-07-16T07:25:18Z</time>
      </trkpt>
      <trkpt lat="45.64733" lon="6.5521">
        <ele>2157</ele>
        <time>2022-07-16T07:25:19Z</time>
      </trkpt>
      <trkpt lat="45.64733" lon="6.55212">
        <ele>2157</ele>
        <time>2022-07-16T07:25:20Z</time>
      </trkpt>
      <trkpt lat="45.64733" lon="6.55217">
        <ele>2157</ele>
        <time>2022-07-16T07:25:24Z</time>
      </trkpt>
      <trkpt lat="45.64733" lon="6.55219">
        <ele>2157</ele>
        <time>2022-07-16T07:25:26Z</time>
      </trkpt>
      <trkpt lat="45.64732" lon="6.5522">
        <ele>2157</ele>
        <time>2022-07-16T07:25:28Z</time>
      </trkpt>
      <trkpt lat="45.64732" lon="6.55221">
        <ele>2157</ele>
        <time>2022-07-16T07:25:29Z</time>
      </trkpt>
      <trkpt lat="45.64732" lon="6.55223">
        <ele>2157</ele>
        <time>2022-07-16T07:25:30Z</time>
      </trkpt>
      <trkpt lat="45.64732" lon="6.55224">
        <ele>2157</ele>
        <time>2022-07-16T07:25:31Z</time>
      </trkpt>
      <trkpt lat="45.64732" lon="6.55225">
        <ele>2157</ele>
        <time>2022-07-16T07:25:32Z</time>
      </trkpt>
      <trkpt lat="45.64732" lon="6.55227">
        <ele>2158</ele>
        <time>2022-07-16T07:25:33Z</time>
      </trkpt>
      <trkpt lat="45.64733" lon="6.5523">
        <ele>2158</ele>
        <time>2022-07-16T07:25:34Z</time>
      </trkpt>
      <trkpt lat="45.64733" lon="6.55232">
        <ele>2158</ele>
        <time>2022-07-16T07:25:36Z</time>
      </trkpt>
      <trkpt lat="45.64733" lon="6.55234">
        <ele>2158</ele>
        <time>2022-07-16T07:25:37Z</time>
      </trkpt>
      <trkpt lat="45.64734" lon="6.55235">
        <ele>2158</ele>
        <time>2022-07-16T07:25:38Z</time>
      </trkpt>
      <trkpt lat="45.64734" lon="6.55237">
        <ele>2158</ele>
        <time>2022-07-16T07:25:39Z</time>
      </trkpt>
      <trkpt lat="45.64734" lon="6.55239">
        <ele>2158</ele>
        <time>2022-07-16T07:25:40Z</time>
      </trkpt>
      <trkpt lat="45.64735" lon="6.55242">
        <ele>2158</ele>
        <time>2022-07-16T07:25:42Z</time>
      </trkpt>
      <trkpt lat="45.64736" lon="6.55246">
        <ele>2159</ele>
        <time>2022-07-16T07:25:44Z</time>
      </trkpt>
      <trkpt lat="45.64737" lon="6.5525">
        <ele>2159</ele>
        <time>2022-07-16T07:25:46Z</time>
      </trkpt>
      <trkpt lat="45.64738" lon="6.55253">
        <ele>2159</ele>
        <time>2022-07-16T07:25:48Z</time>
      </trkpt>
      <trkpt lat="45.64738" lon="6.55256">
        <ele>2159</ele>
        <time>2022-07-16T07:25:50Z</time>
      </trkpt>
      <trkpt lat="45.64739" lon="6.55259">
        <ele>2159</ele>
        <time>2022-07-16T07:25:52Z</time>
      </trkpt>
      <trkpt lat="45.64741" lon="6.55261">
        <ele>2159</ele>
        <time>2022-07-16T07:25:55Z</time>
      </trkpt>
      <trkpt lat="45.64743" lon="6.55263">
        <ele>2159</ele>
        <time>2022-07-16T07:25:57Z</time>
      </trkpt>
      <trkpt lat="45.64743" lon="6.55265">
        <ele>2159</ele>
        <time>2022-07-16T07:25:59Z</time>
      </trkpt>
      <trkpt lat="45.64743" lon="6.55269">
        <ele>2159</ele>
        <time>2022-07-16T07:26:02Z</time>
      </trkpt>
      <trkpt lat="45.64744" lon="6.55272">
        <ele>2159</ele>
        <time>2022-07-16T07:26:04Z</time>
      </trkpt>
      <trkpt lat="45.64744" lon="6.55275">
        <ele>2159</ele>
        <time>2022-07-16T07:26:06Z</time>
      </trkpt>
      <trkpt lat="45.64745" lon="6.55278">
        <ele>2160</ele>
        <time>2022-07-16T07:26:08Z</time>
      </trkpt>
      <trkpt lat="45.64747" lon="6.5528">
        <ele>2161</ele>
        <time>2022-07-16T07:26:10Z</time>
      </trkpt>
      <trkpt lat="45.64748" lon="6.55284">
        <ele>2161</ele>
        <time>2022-07-16T07:26:13Z</time>
      </trkpt>
      <trkpt lat="45.64749" lon="6.55287">
        <ele>2161</ele>
        <time>2022-07-16T07:26:15Z</time>
      </trkpt>
      <trkpt lat="45.6475" lon="6.55291">
        <ele>2161</ele>
        <time>2022-07-16T07:26:17Z</time>
      </trkpt>
      <trkpt lat="45.64751" lon="6.55293">
        <ele>2162</ele>
        <time>2022-07-16T07:26:19Z</time>
      </trkpt>
      <trkpt lat="45.64752" lon="6.55296">
        <ele>2162</ele>
        <time>2022-07-16T07:26:21Z</time>
      </trkpt>
      <trkpt lat="45.64754" lon="6.553">
        <ele>2162</ele>
        <time>2022-07-16T07:26:24Z</time>
      </trkpt>
      <trkpt lat="45.64755" lon="6.55303">
        <ele>2162</ele>
        <time>2022-07-16T07:26:26Z</time>
      </trkpt>
      <trkpt lat="45.64755" lon="6.55305">
        <ele>2162</ele>
        <time>2022-07-16T07:26:28Z</time>
      </trkpt>
      <trkpt lat="45.64756" lon="6.55306">
        <ele>2162</ele>
        <time>2022-07-16T07:26:29Z</time>
      </trkpt>
      <trkpt lat="45.64756" lon="6.55308">
        <ele>2163</ele>
        <time>2022-07-16T07:26:30Z</time>
      </trkpt>
      <trkpt lat="45.64757" lon="6.55309">
        <ele>2163</ele>
        <time>2022-07-16T07:26:31Z</time>
      </trkpt>
      <trkpt lat="45.64758" lon="6.55312">
        <ele>2163</ele>
        <time>2022-07-16T07:26:33Z</time>
      </trkpt>
      <trkpt lat="45.64758" lon="6.55315">
        <ele>2163</ele>
        <time>2022-07-16T07:26:36Z</time>
      </trkpt>
      <trkpt lat="45.64759" lon="6.55318">
        <ele>2163</ele>
        <time>2022-07-16T07:26:40Z</time>
      </trkpt>
      <trkpt lat="45.6476" lon="6.5532">
        <ele>2164</ele>
        <time>2022-07-16T07:26:42Z</time>
      </trkpt>
      <trkpt lat="45.64761" lon="6.55323">
        <ele>2164</ele>
        <time>2022-07-16T07:26:44Z</time>
      </trkpt>
      <trkpt lat="45.64763" lon="6.55325">
        <ele>2164</ele>
        <time>2022-07-16T07:26:47Z</time>
      </trkpt>
      <trkpt lat="45.64765" lon="6.55326">
        <ele>2164</ele>
        <time>2022-07-16T07:26:49Z</time>
      </trkpt>
      <trkpt lat="45.64768" lon="6.55327">
        <ele>2164</ele>
        <time>2022-07-16T07:26:51Z</time>
      </trkpt>
      <trkpt lat="45.64768" lon="6.55328">
        <ele>2164</ele>
        <time>2022-07-16T07:26:52Z</time>
      </trkpt>
      <trkpt lat="45.64769" lon="6.55329">
        <ele>2164</ele>
        <time>2022-07-16T07:26:53Z</time>
      </trkpt>
      <trkpt lat="45.6477" lon="6.5533">
        <ele>2164</ele>
        <time>2022-07-16T07:26:54Z</time>
      </trkpt>
      <trkpt lat="45.64771" lon="6.5533">
        <ele>2164</ele>
        <time>2022-07-16T07:26:55Z</time>
      </trkpt>
      <trkpt lat="45.64772" lon="6.55331">
        <ele>2164</ele>
        <time>2022-07-16T07:26:56Z</time>
      </trkpt>
      <trkpt lat="45.64773" lon="6.55332">
        <ele>2164</ele>
        <time>2022-07-16T07:26:57Z</time>
      </trkpt>
      <trkpt lat="45.64774" lon="6.55333">
        <ele>2164</ele>
        <time>2022-07-16T07:26:58Z</time>
      </trkpt>
      <trkpt lat="45.64776" lon="6.55334">
        <ele>2164</ele>
        <time>2022-07-16T07:27:01Z</time>
      </trkpt>
      <trkpt lat="45.64778" lon="6.55337">
        <ele>2164</ele>
        <time>2022-07-16T07:27:04Z</time>
      </trkpt>
      <trkpt lat="45.6478" lon="6.5534">
        <ele>2166</ele>
        <time>2022-07-16T07:27:08Z</time>
      </trkpt>
      <trkpt lat="45.64781" lon="6.55342">
        <ele>2166</ele>
        <time>2022-07-16T07:27:11Z</time>
      </trkpt>
      <trkpt lat="45.64783" lon="6.55345">
        <ele>2167</ele>
        <time>2022-07-16T07:27:15Z</time>
      </trkpt>
      <trkpt lat="45.64785" lon="6.55348">
        <ele>2167</ele>
        <time>2022-07-16T07:27:18Z</time>
      </trkpt>
      <trkpt lat="45.64786" lon="6.5535">
        <ele>2170</ele>
        <time>2022-07-16T07:27:21Z</time>
      </trkpt>
      <trkpt lat="45.64787" lon="6.55352">
        <ele>2170</ele>
        <time>2022-07-16T07:27:23Z</time>
      </trkpt>
      <trkpt lat="45.64788" lon="6.55352">
        <ele>2170</ele>
        <time>2022-07-16T07:27:25Z</time>
      </trkpt>
      <trkpt lat="45.64789" lon="6.55353">
        <ele>2170</ele>
        <time>2022-07-16T07:27:26Z</time>
      </trkpt>
      <trkpt lat="45.6479" lon="6.55354">
        <ele>2170</ele>
        <time>2022-07-16T07:27:27Z</time>
      </trkpt>
      <trkpt lat="45.64791" lon="6.55355">
        <ele>2170</ele>
        <time>2022-07-16T07:27:29Z</time>
      </trkpt>
      <trkpt lat="45.64792" lon="6.55355">
        <ele>2170</ele>
        <time>2022-07-16T07:27:30Z</time>
      </trkpt>
      <trkpt lat="45.64792" lon="6.55356">
        <ele>2170</ele>
        <time>2022-07-16T07:27:31Z</time>
      </trkpt>
      <trkpt lat="45.64793" lon="6.55357">
        <ele>2170</ele>
        <time>2022-07-16T07:27:32Z</time>
      </trkpt>
      <trkpt lat="45.64794" lon="6.55357">
        <ele>2171</ele>
        <time>2022-07-16T07:27:33Z</time>
      </trkpt>
      <trkpt lat="45.64795" lon="6.55358">
        <ele>2171</ele>
        <time>2022-07-16T07:27:34Z</time>
      </trkpt>
      <trkpt lat="45.64795" lon="6.55359">
        <ele>2171</ele>
        <time>2022-07-16T07:27:35Z</time>
      </trkpt>
      <trkpt lat="45.64796" lon="6.55359">
        <ele>2171</ele>
        <time>2022-07-16T07:27:36Z</time>
      </trkpt>
      <trkpt lat="45.64797" lon="6.5536">
        <ele>2172</ele>
        <time>2022-07-16T07:27:37Z</time>
      </trkpt>
      <trkpt lat="45.64797" lon="6.55361">
        <ele>2172</ele>
        <time>2022-07-16T07:27:38Z</time>
      </trkpt>
      <trkpt lat="45.64798" lon="6.55362">
        <ele>2172</ele>
        <time>2022-07-16T07:27:39Z</time>
      </trkpt>
      <trkpt lat="45.64799" lon="6.55362">
        <ele>2172</ele>
        <time>2022-07-16T07:27:41Z</time>
      </trkpt>
      <trkpt lat="45.64799" lon="6.55363">
        <ele>2172</ele>
        <time>2022-07-16T07:27:42Z</time>
      </trkpt>
      <trkpt lat="45.648" lon="6.55364">
        <ele>2172</ele>
        <time>2022-07-16T07:27:43Z</time>
      </trkpt>
      <trkpt lat="45.64801" lon="6.55365">
        <ele>2173</ele>
        <time>2022-07-16T07:27:44Z</time>
      </trkpt>
      <trkpt lat="45.64802" lon="6.55365">
        <ele>2173</ele>
        <time>2022-07-16T07:27:45Z</time>
      </trkpt>
      <trkpt lat="45.64802" lon="6.55366">
        <ele>2173</ele>
        <time>2022-07-16T07:27:46Z</time>
      </trkpt>
      <trkpt lat="45.64803" lon="6.55367">
        <ele>2173</ele>
        <time>2022-07-16T07:27:47Z</time>
      </trkpt>
      <trkpt lat="45.64803" lon="6.55368">
        <ele>2173</ele>
        <time>2022-07-16T07:27:48Z</time>
      </trkpt>
      <trkpt lat="45.64804" lon="6.55369">
        <ele>2173</ele>
        <time>2022-07-16T07:27:49Z</time>
      </trkpt>
      <trkpt lat="45.64805" lon="6.5537">
        <ele>2173</ele>
        <time>2022-07-16T07:27:51Z</time>
      </trkpt>
      <trkpt lat="45.64806" lon="6.55371">
        <ele>2173</ele>
        <time>2022-07-16T07:27:52Z</time>
      </trkpt>
      <trkpt lat="45.64806" lon="6.55372">
        <ele>2173</ele>
        <time>2022-07-16T07:27:53Z</time>
      </trkpt>
      <trkpt lat="45.64807" lon="6.55373">
        <ele>2173</ele>
        <time>2022-07-16T07:27:54Z</time>
      </trkpt>
      <trkpt lat="45.64808" lon="6.55374">
        <ele>2175</ele>
        <time>2022-07-16T07:27:56Z</time>
      </trkpt>
      <trkpt lat="45.64808" lon="6.55375">
        <ele>2175</ele>
        <time>2022-07-16T07:27:57Z</time>
      </trkpt>
      <trkpt lat="45.64809" lon="6.55376">
        <ele>2175</ele>
        <time>2022-07-16T07:27:58Z</time>
      </trkpt>
      <trkpt lat="45.6481" lon="6.55376">
        <ele>2175</ele>
        <time>2022-07-16T07:28:00Z</time>
      </trkpt>
      <trkpt lat="45.64811" lon="6.55377">
        <ele>2175</ele>
        <time>2022-07-16T07:28:01Z</time>
      </trkpt>
      <trkpt lat="45.64812" lon="6.55378">
        <ele>2175</ele>
        <time>2022-07-16T07:28:02Z</time>
      </trkpt>
      <trkpt lat="45.64813" lon="6.55378">
        <ele>2175</ele>
        <time>2022-07-16T07:28:03Z</time>
      </trkpt>
      <trkpt lat="45.64813" lon="6.55379">
        <ele>2175</ele>
        <time>2022-07-16T07:28:04Z</time>
      </trkpt>
      <trkpt lat="45.64814" lon="6.55379">
        <ele>2175</ele>
        <time>2022-07-16T07:28:05Z</time>
      </trkpt>
      <trkpt lat="45.64815" lon="6.5538">
        <ele>2175</ele>
        <time>2022-07-16T07:28:06Z</time>
      </trkpt>
      <trkpt lat="45.64816" lon="6.5538">
        <ele>2176</ele>
        <time>2022-07-16T07:28:07Z</time>
      </trkpt>
      <trkpt lat="45.64817" lon="6.55381">
        <ele>2177</ele>
        <time>2022-07-16T07:28:08Z</time>
      </trkpt>
      <trkpt lat="45.64818" lon="6.55382">
        <ele>2177</ele>
        <time>2022-07-16T07:28:09Z</time>
      </trkpt>
      <trkpt lat="45.64818" lon="6.55383">
        <ele>2177</ele>
        <time>2022-07-16T07:28:11Z</time>
      </trkpt>
      <trkpt lat="45.64819" lon="6.55384">
        <ele>2177</ele>
        <time>2022-07-16T07:28:13Z</time>
      </trkpt>
      <trkpt lat="45.64819" lon="6.55385">
        <ele>2177</ele>
        <time>2022-07-16T07:28:14Z</time>
      </trkpt>
      <trkpt lat="45.6482" lon="6.55386">
        <ele>2177</ele>
        <time>2022-07-16T07:28:16Z</time>
      </trkpt>
      <trkpt lat="45.6482" lon="6.55387">
        <ele>2179</ele>
        <time>2022-07-16T07:28:18Z</time>
      </trkpt>
      <trkpt lat="45.64821" lon="6.55387">
        <ele>2179</ele>
        <time>2022-07-16T07:28:19Z</time>
      </trkpt>
      <trkpt lat="45.64821" lon="6.55388">
        <ele>2179</ele>
        <time>2022-07-16T07:28:20Z</time>
      </trkpt>
      <trkpt lat="45.64821" lon="6.55389">
        <ele>2180</ele>
        <time>2022-07-16T07:28:21Z</time>
      </trkpt>
      <trkpt lat="45.64822" lon="6.5539">
        <ele>2180</ele>
        <time>2022-07-16T07:28:23Z</time>
      </trkpt>
      <trkpt lat="45.64822" lon="6.55391">
        <ele>2180</ele>
        <time>2022-07-16T07:28:25Z</time>
      </trkpt>
      <trkpt lat="45.64823" lon="6.55391">
        <ele>2181</ele>
        <time>2022-07-16T07:28:26Z</time>
      </trkpt>
      <trkpt lat="45.64823" lon="6.55392">
        <ele>2181</ele>
        <time>2022-07-16T07:28:27Z</time>
      </trkpt>
      <trkpt lat="45.64824" lon="6.55392">
        <ele>2181</ele>
        <time>2022-07-16T07:28:28Z</time>
      </trkpt>
      <trkpt lat="45.64825" lon="6.55391">
        <ele>2181</ele>
        <time>2022-07-16T07:28:30Z</time>
      </trkpt>
      <trkpt lat="45.64826" lon="6.55391">
        <ele>2181</ele>
        <time>2022-07-16T07:28:31Z</time>
      </trkpt>
      <trkpt lat="45.64827" lon="6.55391">
        <ele>2182</ele>
        <time>2022-07-16T07:28:33Z</time>
      </trkpt>
      <trkpt lat="45.64828" lon="6.5539">
        <ele>2182</ele>
        <time>2022-07-16T07:28:34Z</time>
      </trkpt>
      <trkpt lat="45.64829" lon="6.5539">
        <ele>2182</ele>
        <time>2022-07-16T07:28:35Z</time>
      </trkpt>
      <trkpt lat="45.6483" lon="6.55389">
        <ele>2182</ele>
        <time>2022-07-16T07:28:38Z</time>
      </trkpt>
      <trkpt lat="45.64831" lon="6.55389">
        <ele>2182</ele>
        <time>2022-07-16T07:28:39Z</time>
      </trkpt>
      <trkpt lat="45.64832" lon="6.55389">
        <ele>2182</ele>
        <time>2022-07-16T07:28:41Z</time>
      </trkpt>
      <trkpt lat="45.64833" lon="6.55389">
        <ele>2183</ele>
        <time>2022-07-16T07:28:42Z</time>
      </trkpt>
      <trkpt lat="45.64834" lon="6.55389">
        <ele>2183</ele>
        <time>2022-07-16T07:28:43Z</time>
      </trkpt>
      <trkpt lat="45.64835" lon="6.55389">
        <ele>2183</ele>
        <time>2022-07-16T07:28:44Z</time>
      </trkpt>
      <trkpt lat="45.64836" lon="6.55389">
        <ele>2183</ele>
        <time>2022-07-16T07:28:46Z</time>
      </trkpt>
      <trkpt lat="45.64837" lon="6.55389">
        <ele>2183</ele>
        <time>2022-07-16T07:28:47Z</time>
      </trkpt>
      <trkpt lat="45.64838" lon="6.5539">
        <ele>2184</ele>
        <time>2022-07-16T07:28:48Z</time>
      </trkpt>
      <trkpt lat="45.64839" lon="6.5539">
        <ele>2185</ele>
        <time>2022-07-16T07:28:49Z</time>
      </trkpt>
      <trkpt lat="45.6484" lon="6.5539">
        <ele>2185</ele>
        <time>2022-07-16T07:28:51Z</time>
      </trkpt>
      <trkpt lat="45.64841" lon="6.5539">
        <ele>2185</ele>
        <time>2022-07-16T07:28:52Z</time>
      </trkpt>
      <trkpt lat="45.64842" lon="6.5539">
        <ele>2185</ele>
        <time>2022-07-16T07:28:53Z</time>
      </trkpt>
      <trkpt lat="45.64842" lon="6.55391">
        <ele>2185</ele>
        <time>2022-07-16T07:28:54Z</time>
      </trkpt>
      <trkpt lat="45.64843" lon="6.55391">
        <ele>2185</ele>
        <time>2022-07-16T07:28:55Z</time>
      </trkpt>
      <trkpt lat="45.64844" lon="6.55391">
        <ele>2185</ele>
        <time>2022-07-16T07:28:57Z</time>
      </trkpt>
      <trkpt lat="45.64845" lon="6.55392">
        <ele>2185</ele>
        <time>2022-07-16T07:28:58Z</time>
      </trkpt>
      <trkpt lat="45.64846" lon="6.55392">
        <ele>2186</ele>
        <time>2022-07-16T07:29:00Z</time>
      </trkpt>
      <trkpt lat="45.64847" lon="6.55393">
        <ele>2187</ele>
        <time>2022-07-16T07:29:02Z</time>
      </trkpt>
      <trkpt lat="45.64848" lon="6.55393">
        <ele>2187</ele>
        <time>2022-07-16T07:29:03Z</time>
      </trkpt>
      <trkpt lat="45.64849" lon="6.55393">
        <ele>2187</ele>
        <time>2022-07-16T07:29:05Z</time>
      </trkpt>
      <trkpt lat="45.6485" lon="6.55394">
        <ele>2187</ele>
        <time>2022-07-16T07:29:07Z</time>
      </trkpt>
      <trkpt lat="45.64851" lon="6.55394">
        <ele>2188</ele>
        <time>2022-07-16T07:29:09Z</time>
      </trkpt>
      <trkpt lat="45.64851" lon="6.55395">
        <ele>2188</ele>
        <time>2022-07-16T07:29:10Z</time>
      </trkpt>
      <trkpt lat="45.64852" lon="6.55396">
        <ele>2189</ele>
        <time>2022-07-16T07:29:12Z</time>
      </trkpt>
      <trkpt lat="45.64853" lon="6.55396">
        <ele>2190</ele>
        <time>2022-07-16T07:29:14Z</time>
      </trkpt>
      <trkpt lat="45.64853" lon="6.55397">
        <ele>2190</ele>
        <time>2022-07-16T07:29:16Z</time>
      </trkpt>
      <trkpt lat="45.64854" lon="6.55397">
        <ele>2190</ele>
        <time>2022-07-16T07:29:18Z</time>
      </trkpt>
      <trkpt lat="45.64854" lon="6.55398">
        <ele>2190</ele>
        <time>2022-07-16T07:29:19Z</time>
      </trkpt>
      <trkpt lat="45.64855" lon="6.55398">
        <ele>2191</ele>
        <time>2022-07-16T07:29:20Z</time>
      </trkpt>
      <trkpt lat="45.64855" lon="6.55399">
        <ele>2191</ele>
        <time>2022-07-16T07:29:21Z</time>
      </trkpt>
      <trkpt lat="45.64856" lon="6.55399">
        <ele>2191</ele>
        <time>2022-07-16T07:29:23Z</time>
      </trkpt>
      <trkpt lat="45.64856" lon="6.554">
        <ele>2191</ele>
        <time>2022-07-16T07:29:24Z</time>
      </trkpt>
      <trkpt lat="45.64857" lon="6.554">
        <ele>2191</ele>
        <time>2022-07-16T07:29:26Z</time>
      </trkpt>
      <trkpt lat="45.64857" lon="6.55401">
        <ele>2191</ele>
        <time>2022-07-16T07:29:27Z</time>
      </trkpt>
      <trkpt lat="45.64858" lon="6.55401">
        <ele>2192</ele>
        <time>2022-07-16T07:29:28Z</time>
      </trkpt>
      <trkpt lat="45.6486" lon="6.55402">
        <ele>2193</ele>
        <time>2022-07-16T07:29:35Z</time>
      </trkpt>
      <trkpt lat="45.64862" lon="6.55403">
        <ele>2194</ele>
        <time>2022-07-16T07:29:37Z</time>
      </trkpt>
      <trkpt lat="45.64864" lon="6.55403">
        <ele>2194</ele>
        <time>2022-07-16T07:29:41Z</time>
      </trkpt>
      <trkpt lat="45.64866" lon="6.55404">
        <ele>2196</ele>
        <time>2022-07-16T07:29:45Z</time>
      </trkpt>
      <trkpt lat="45.64868" lon="6.55404">
        <ele>2198</ele>
        <time>2022-07-16T07:29:50Z</time>
      </trkpt>
      <trkpt lat="45.6487" lon="6.55404">
        <ele>2198</ele>
        <time>2022-07-16T07:29:57Z</time>
      </trkpt>
      <trkpt lat="45.64872" lon="6.55406">
        <ele>2199</ele>
        <time>2022-07-16T07:30:01Z</time>
      </trkpt>
      <trkpt lat="45.64873" lon="6.55408">
        <ele>2199</ele>
        <time>2022-07-16T07:30:03Z</time>
      </trkpt>
      <trkpt lat="45.64873" lon="6.55412">
        <ele>2199</ele>
        <time>2022-07-16T07:30:06Z</time>
      </trkpt>
      <trkpt lat="45.64873" lon="6.55415">
        <ele>2201</ele>
        <time>2022-07-16T07:30:09Z</time>
      </trkpt>
      <trkpt lat="45.64875" lon="6.55419">
        <ele>2200</ele>
        <time>2022-07-16T07:30:12Z</time>
      </trkpt>
      <trkpt lat="45.64876" lon="6.55421">
        <ele>2201</ele>
        <time>2022-07-16T07:30:14Z</time>
      </trkpt>
      <trkpt lat="45.64877" lon="6.55424">
        <ele>2201</ele>
        <time>2022-07-16T07:30:16Z</time>
      </trkpt>
      <trkpt lat="45.64879" lon="6.55427">
        <ele>2201</ele>
        <time>2022-07-16T07:30:19Z</time>
      </trkpt>
      <trkpt lat="45.6488" lon="6.5543">
        <ele>2201</ele>
        <time>2022-07-16T07:30:21Z</time>
      </trkpt>
      <trkpt lat="45.64881" lon="6.55432">
        <ele>2201</ele>
        <time>2022-07-16T07:30:23Z</time>
      </trkpt>
      <trkpt lat="45.64882" lon="6.55435">
        <ele>2201</ele>
        <time>2022-07-16T07:30:25Z</time>
      </trkpt>
      <trkpt lat="45.64883" lon="6.55438">
        <ele>2202</ele>
        <time>2022-07-16T07:30:27Z</time>
      </trkpt>
      <trkpt lat="45.64884" lon="6.5544">
        <ele>2202</ele>
        <time>2022-07-16T07:30:29Z</time>
      </trkpt>
      <trkpt lat="45.64886" lon="6.55443">
        <ele>2202</ele>
        <time>2022-07-16T07:30:32Z</time>
      </trkpt>
      <trkpt lat="45.64886" lon="6.55446">
        <ele>2204</ele>
        <time>2022-07-16T07:30:35Z</time>
      </trkpt>
      <trkpt lat="45.64885" lon="6.55449">
        <ele>2206</ele>
        <time>2022-07-16T07:30:41Z</time>
      </trkpt>
      <trkpt lat="45.64887" lon="6.55452">
        <ele>2206</ele>
        <time>2022-07-16T07:30:45Z</time>
      </trkpt>
      <trkpt lat="45.64889" lon="6.55455">
        <ele>2206</ele>
        <time>2022-07-16T07:30:47Z</time>
      </trkpt>
      <trkpt lat="45.6489" lon="6.55458">
        <ele>2206</ele>
        <time>2022-07-16T07:30:49Z</time>
      </trkpt>
      <trkpt lat="45.64892" lon="6.5546">
        <ele>2206</ele>
        <time>2022-07-16T07:30:51Z</time>
      </trkpt>
      <trkpt lat="45.64893" lon="6.55462">
        <ele>2206</ele>
        <time>2022-07-16T07:30:54Z</time>
      </trkpt>
      <trkpt lat="45.64895" lon="6.55463">
        <ele>2207</ele>
        <time>2022-07-16T07:30:57Z</time>
      </trkpt>
      <trkpt lat="45.64897" lon="6.55465">
        <ele>2208</ele>
        <time>2022-07-16T07:31:01Z</time>
      </trkpt>
      <trkpt lat="45.64899" lon="6.55466">
        <ele>2208</ele>
        <time>2022-07-16T07:31:03Z</time>
      </trkpt>
      <trkpt lat="45.649" lon="6.55467">
        <ele>2209</ele>
        <time>2022-07-16T07:31:05Z</time>
      </trkpt>
      <trkpt lat="45.64902" lon="6.5547">
        <ele>2209</ele>
        <time>2022-07-16T07:31:09Z</time>
      </trkpt>
      <trkpt lat="45.64903" lon="6.55472">
        <ele>2209</ele>
        <time>2022-07-16T07:31:11Z</time>
      </trkpt>
      <trkpt lat="45.64904" lon="6.55474">
        <ele>2210</ele>
        <time>2022-07-16T07:31:13Z</time>
      </trkpt>
      <trkpt lat="45.64906" lon="6.55477">
        <ele>2210</ele>
        <time>2022-07-16T07:31:15Z</time>
      </trkpt>
      <trkpt lat="45.64908" lon="6.55478">
        <ele>2210</ele>
        <time>2022-07-16T07:31:17Z</time>
      </trkpt>
      <trkpt lat="45.6491" lon="6.5548">
        <ele>2210</ele>
        <time>2022-07-16T07:31:19Z</time>
      </trkpt>
      <trkpt lat="45.64912" lon="6.55481">
        <ele>2211</ele>
        <time>2022-07-16T07:31:21Z</time>
      </trkpt>
      <trkpt lat="45.64914" lon="6.55482">
        <ele>2211</ele>
        <time>2022-07-16T07:31:23Z</time>
      </trkpt>
      <trkpt lat="45.64916" lon="6.55483">
        <ele>2211</ele>
        <time>2022-07-16T07:31:25Z</time>
      </trkpt>
      <trkpt lat="45.64918" lon="6.55485">
        <ele>2212</ele>
        <time>2022-07-16T07:31:29Z</time>
      </trkpt>
      <trkpt lat="45.6492" lon="6.55487">
        <ele>2213</ele>
        <time>2022-07-16T07:31:31Z</time>
      </trkpt>
      <trkpt lat="45.64922" lon="6.55488">
        <ele>2213</ele>
        <time>2022-07-16T07:31:34Z</time>
      </trkpt>
      <trkpt lat="45.64924" lon="6.55488">
        <ele>2213</ele>
        <time>2022-07-16T07:31:37Z</time>
      </trkpt>
      <trkpt lat="45.64926" lon="6.55488">
        <ele>2214</ele>
        <time>2022-07-16T07:31:41Z</time>
      </trkpt>
      <trkpt lat="45.64928" lon="6.55489">
        <ele>2216</ele>
        <time>2022-07-16T07:31:45Z</time>
      </trkpt>
      <trkpt lat="45.6493" lon="6.55491">
        <ele>2216</ele>
        <time>2022-07-16T07:31:49Z</time>
      </trkpt>
      <trkpt lat="45.64932" lon="6.55491">
        <ele>2216</ele>
        <time>2022-07-16T07:31:51Z</time>
      </trkpt>
      <trkpt lat="45.64934" lon="6.55492">
        <ele>2217</ele>
        <time>2022-07-16T07:31:53Z</time>
      </trkpt>
      <trkpt lat="45.64936" lon="6.55495">
        <ele>2217</ele>
        <time>2022-07-16T07:31:55Z</time>
      </trkpt>
      <trkpt lat="45.64937" lon="6.55497">
        <ele>2217</ele>
        <time>2022-07-16T07:31:57Z</time>
      </trkpt>
      <trkpt lat="45.64939" lon="6.555">
        <ele>2217</ele>
        <time>2022-07-16T07:31:59Z</time>
      </trkpt>
      <trkpt lat="45.64941" lon="6.55502">
        <ele>2217</ele>
        <time>2022-07-16T07:32:01Z</time>
      </trkpt>
      <trkpt lat="45.64942" lon="6.55505">
        <ele>2217</ele>
        <time>2022-07-16T07:32:03Z</time>
      </trkpt>
      <trkpt lat="45.64943" lon="6.55507">
        <ele>2217</ele>
        <time>2022-07-16T07:32:05Z</time>
      </trkpt>
      <trkpt lat="45.64944" lon="6.55511">
        <ele>2217</ele>
        <time>2022-07-16T07:32:08Z</time>
      </trkpt>
      <trkpt lat="45.64945" lon="6.55513">
        <ele>2217</ele>
        <time>2022-07-16T07:32:10Z</time>
      </trkpt>
      <trkpt lat="45.64946" lon="6.55515">
        <ele>2217</ele>
        <time>2022-07-16T07:32:12Z</time>
      </trkpt>
      <trkpt lat="45.64948" lon="6.55517">
        <ele>2217</ele>
        <time>2022-07-16T07:32:14Z</time>
      </trkpt>
      <trkpt lat="45.6495" lon="6.55518">
        <ele>2217</ele>
        <time>2022-07-16T07:32:16Z</time>
      </trkpt>
      <trkpt lat="45.64952" lon="6.55521">
        <ele>2216</ele>
        <time>2022-07-16T07:32:18Z</time>
      </trkpt>
      <trkpt lat="45.64954" lon="6.55523">
        <ele>2216</ele>
        <time>2022-07-16T07:32:20Z</time>
      </trkpt>
      <trkpt lat="45.64955" lon="6.55527">
        <ele>2216</ele>
        <time>2022-07-16T07:32:22Z</time>
      </trkpt>
      <trkpt lat="45.64956" lon="6.55529">
        <ele>2216</ele>
        <time>2022-07-16T07:32:24Z</time>
      </trkpt>
      <trkpt lat="45.64957" lon="6.55532">
        <ele>2215</ele>
        <time>2022-07-16T07:32:26Z</time>
      </trkpt>
      <trkpt lat="45.64959" lon="6.55534">
        <ele>2214</ele>
        <time>2022-07-16T07:32:28Z</time>
      </trkpt>
      <trkpt lat="45.64961" lon="6.55536">
        <ele>2214</ele>
        <time>2022-07-16T07:32:30Z</time>
      </trkpt>
      <trkpt lat="45.64962" lon="6.55539">
        <ele>2213</ele>
        <time>2022-07-16T07:32:32Z</time>
      </trkpt>
      <trkpt lat="45.64964" lon="6.55542">
        <ele>2213</ele>
        <time>2022-07-16T07:32:34Z</time>
      </trkpt>
      <trkpt lat="45.64965" lon="6.55544">
        <ele>2212</ele>
        <time>2022-07-16T07:32:36Z</time>
      </trkpt>
      <trkpt lat="45.64967" lon="6.55547">
        <ele>2212</ele>
        <time>2022-07-16T07:32:38Z</time>
      </trkpt>
      <trkpt lat="45.64968" lon="6.5555">
        <ele>2211</ele>
        <time>2022-07-16T07:32:40Z</time>
      </trkpt>
      <trkpt lat="45.64969" lon="6.55553">
        <ele>2211</ele>
        <time>2022-07-16T07:32:42Z</time>
      </trkpt>
      <trkpt lat="45.64969" lon="6.55557">
        <ele>2211</ele>
        <time>2022-07-16T07:32:44Z</time>
      </trkpt>
      <trkpt lat="45.64969" lon="6.5556">
        <ele>2211</ele>
        <time>2022-07-16T07:32:47Z</time>
      </trkpt>
      <trkpt lat="45.64969" lon="6.55564">
        <ele>2210</ele>
        <time>2022-07-16T07:32:49Z</time>
      </trkpt>
      <trkpt lat="45.64969" lon="6.55568">
        <ele>2209</ele>
        <time>2022-07-16T07:32:51Z</time>
      </trkpt>
      <trkpt lat="45.64968" lon="6.55571">
        <ele>2209</ele>
        <time>2022-07-16T07:32:53Z</time>
      </trkpt>
      <trkpt lat="45.6497" lon="6.55576">
        <ele>2208</ele>
        <time>2022-07-16T07:32:55Z</time>
      </trkpt>
      <trkpt lat="45.64971" lon="6.55579">
        <ele>2208</ele>
        <time>2022-07-16T07:32:56Z</time>
      </trkpt>
      <trkpt lat="45.64972" lon="6.55581">
        <ele>2208</ele>
        <time>2022-07-16T07:32:57Z</time>
      </trkpt>
      <trkpt lat="45.64972" lon="6.55586">
        <ele>2207</ele>
        <time>2022-07-16T07:32:59Z</time>
      </trkpt>
      <trkpt lat="45.64972" lon="6.5559">
        <ele>2207</ele>
        <time>2022-07-16T07:33:00Z</time>
      </trkpt>
      <trkpt lat="45.64972" lon="6.55591">
        <ele>2207</ele>
        <time>2022-07-16T07:33:01Z</time>
      </trkpt>
      <trkpt lat="45.64973" lon="6.55594">
        <ele>2206</ele>
        <time>2022-07-16T07:33:02Z</time>
      </trkpt>
      <trkpt lat="45.64973" lon="6.55597">
        <ele>2206</ele>
        <time>2022-07-16T07:33:03Z</time>
      </trkpt>
      <trkpt lat="45.64974" lon="6.556">
        <ele>2206</ele>
        <time>2022-07-16T07:33:04Z</time>
      </trkpt>
      <trkpt lat="45.64974" lon="6.55603">
        <ele>2206</ele>
        <time>2022-07-16T07:33:05Z</time>
      </trkpt>
      <trkpt lat="45.64974" lon="6.55606">
        <ele>2206</ele>
        <time>2022-07-16T07:33:06Z</time>
      </trkpt>
      <trkpt lat="45.64974" lon="6.55609">
        <ele>2206</ele>
        <time>2022-07-16T07:33:07Z</time>
      </trkpt>
      <trkpt lat="45.64974" lon="6.55611">
        <ele>2206</ele>
        <time>2022-07-16T07:33:08Z</time>
      </trkpt>
      <trkpt lat="45.64974" lon="6.55617">
        <ele>2206</ele>
        <time>2022-07-16T07:33:10Z</time>
      </trkpt>
      <trkpt lat="45.64975" lon="6.55621">
        <ele>2206</ele>
        <time>2022-07-16T07:33:12Z</time>
      </trkpt>
      <trkpt lat="45.64975" lon="6.55625">
        <ele>2206</ele>
        <time>2022-07-16T07:33:14Z</time>
      </trkpt>
      <trkpt lat="45.64973" lon="6.55628">
        <ele>2206</ele>
        <time>2022-07-16T07:33:16Z</time>
      </trkpt>
      <trkpt lat="45.64972" lon="6.5563">
        <ele>2206</ele>
        <time>2022-07-16T07:33:18Z</time>
      </trkpt>
      <trkpt lat="45.64971" lon="6.55634">
        <ele>2206</ele>
        <time>2022-07-16T07:33:20Z</time>
      </trkpt>
      <trkpt lat="45.64971" lon="6.55637">
        <ele>2206</ele>
        <time>2022-07-16T07:33:22Z</time>
      </trkpt>
      <trkpt lat="45.64972" lon="6.55641">
        <ele>2206</ele>
        <time>2022-07-16T07:33:25Z</time>
      </trkpt>
      <trkpt lat="45.64973" lon="6.55645">
        <ele>2206</ele>
        <time>2022-07-16T07:33:27Z</time>
      </trkpt>
      <trkpt lat="45.64973" lon="6.55648">
        <ele>2206</ele>
        <time>2022-07-16T07:33:29Z</time>
      </trkpt>
      <trkpt lat="45.64974" lon="6.55652">
        <ele>2206</ele>
        <time>2022-07-16T07:33:31Z</time>
      </trkpt>
      <trkpt lat="45.64973" lon="6.55657">
        <ele>2206</ele>
        <time>2022-07-16T07:33:33Z</time>
      </trkpt>
      <trkpt lat="45.64973" lon="6.5566">
        <ele>2206</ele>
        <time>2022-07-16T07:33:34Z</time>
      </trkpt>
      <trkpt lat="45.64973" lon="6.55666">
        <ele>2206</ele>
        <time>2022-07-16T07:33:36Z</time>
      </trkpt>
      <trkpt lat="45.64973" lon="6.55667">
        <ele>2206</ele>
        <time>2022-07-16T07:33:37Z</time>
      </trkpt>
      <trkpt lat="45.64971" lon="6.55671">
        <ele>2205</ele>
        <time>2022-07-16T07:33:39Z</time>
      </trkpt>
      <trkpt lat="45.64971" lon="6.55674">
        <ele>2205</ele>
        <time>2022-07-16T07:33:42Z</time>
      </trkpt>
      <trkpt lat="45.64971" lon="6.55679">
        <ele>2205</ele>
        <time>2022-07-16T07:33:43Z</time>
      </trkpt>
      <trkpt lat="45.64972" lon="6.55683">
        <ele>2205</ele>
        <time>2022-07-16T07:33:45Z</time>
      </trkpt>
      <trkpt lat="45.64973" lon="6.55688">
        <ele>2205</ele>
        <time>2022-07-16T07:33:47Z</time>
      </trkpt>
      <trkpt lat="45.64975" lon="6.55691">
        <ele>2205</ele>
        <time>2022-07-16T07:33:49Z</time>
      </trkpt>
      <trkpt lat="45.64977" lon="6.55695">
        <ele>2205</ele>
        <time>2022-07-16T07:33:51Z</time>
      </trkpt>
      <trkpt lat="45.64977" lon="6.557">
        <ele>2205</ele>
        <time>2022-07-16T07:33:53Z</time>
      </trkpt>
      <trkpt lat="45.64978" lon="6.55704">
        <ele>2204</ele>
        <time>2022-07-16T07:33:55Z</time>
      </trkpt>
      <trkpt lat="45.64978" lon="6.55708">
        <ele>2204</ele>
        <time>2022-07-16T07:33:57Z</time>
      </trkpt>
      <trkpt lat="45.64978" lon="6.55712">
        <ele>2203</ele>
        <time>2022-07-16T07:33:59Z</time>
      </trkpt>
      <trkpt lat="45.64978" lon="6.55715">
        <ele>2203</ele>
        <time>2022-07-16T07:34:02Z</time>
      </trkpt>
      <trkpt lat="45.64978" lon="6.55718">
        <ele>2202</ele>
        <time>2022-07-16T07:34:04Z</time>
      </trkpt>
      <trkpt lat="45.6498" lon="6.55721">
        <ele>2202</ele>
        <time>2022-07-16T07:34:08Z</time>
      </trkpt>
      <trkpt lat="45.64981" lon="6.55723">
        <ele>2201</ele>
        <time>2022-07-16T07:34:10Z</time>
      </trkpt>
      <trkpt lat="45.64983" lon="6.55726">
        <ele>2201</ele>
        <time>2022-07-16T07:34:12Z</time>
      </trkpt>
      <trkpt lat="45.64985" lon="6.5573">
        <ele>2200</ele>
        <time>2022-07-16T07:34:14Z</time>
      </trkpt>
      <trkpt lat="45.64987" lon="6.55734">
        <ele>2199</ele>
        <time>2022-07-16T07:34:16Z</time>
      </trkpt>
      <trkpt lat="45.64987" lon="6.55737">
        <ele>2199</ele>
        <time>2022-07-16T07:34:17Z</time>
      </trkpt>
      <trkpt lat="45.64988" lon="6.55739">
        <ele>2198</ele>
        <time>2022-07-16T07:34:18Z</time>
      </trkpt>
      <trkpt lat="45.6499" lon="6.55744">
        <ele>2198</ele>
        <time>2022-07-16T07:34:20Z</time>
      </trkpt>
      <trkpt lat="45.64992" lon="6.55748">
        <ele>2197</ele>
        <time>2022-07-16T07:34:22Z</time>
      </trkpt>
      <trkpt lat="45.64994" lon="6.55751">
        <ele>2198</ele>
        <time>2022-07-16T07:34:24Z</time>
      </trkpt>
      <trkpt lat="45.64996" lon="6.55755">
        <ele>2198</ele>
        <time>2022-07-16T07:34:26Z</time>
      </trkpt>
      <trkpt lat="45.64997" lon="6.55758">
        <ele>2198</ele>
        <time>2022-07-16T07:34:27Z</time>
      </trkpt>
      <trkpt lat="45.64998" lon="6.5576">
        <ele>2198</ele>
        <time>2022-07-16T07:34:28Z</time>
      </trkpt>
      <trkpt lat="45.64999" lon="6.55765">
        <ele>2197</ele>
        <time>2022-07-16T07:34:30Z</time>
      </trkpt>
      <trkpt lat="45.64999" lon="6.55769">
        <ele>2197</ele>
        <time>2022-07-16T07:34:32Z</time>
      </trkpt>
      <trkpt lat="45.64999" lon="6.55774">
        <ele>2196</ele>
        <time>2022-07-16T07:34:34Z</time>
      </trkpt>
      <trkpt lat="45.64999" lon="6.55779">
        <ele>2194</ele>
        <time>2022-07-16T07:34:36Z</time>
      </trkpt>
      <trkpt lat="45.64999" lon="6.55782">
        <ele>2194</ele>
        <time>2022-07-16T07:34:38Z</time>
      </trkpt>
      <trkpt lat="45.65" lon="6.55787">
        <ele>2193</ele>
        <time>2022-07-16T07:34:40Z</time>
      </trkpt>
      <trkpt lat="45.65001" lon="6.55789">
        <ele>2193</ele>
        <time>2022-07-16T07:34:41Z</time>
      </trkpt>
      <trkpt lat="45.65002" lon="6.55791">
        <ele>2193</ele>
        <time>2022-07-16T07:34:42Z</time>
      </trkpt>
      <trkpt lat="45.65003" lon="6.55795">
        <ele>2192</ele>
        <time>2022-07-16T07:34:43Z</time>
      </trkpt>
      <trkpt lat="45.65003" lon="6.55797">
        <ele>2192</ele>
        <time>2022-07-16T07:34:44Z</time>
      </trkpt>
      <trkpt lat="45.65002" lon="6.55801">
        <ele>2192</ele>
        <time>2022-07-16T07:34:45Z</time>
      </trkpt>
      <trkpt lat="45.65002" lon="6.55803">
        <ele>2191</ele>
        <time>2022-07-16T07:34:46Z</time>
      </trkpt>
      <trkpt lat="45.65002" lon="6.55806">
        <ele>2191</ele>
        <time>2022-07-16T07:34:47Z</time>
      </trkpt>
      <trkpt lat="45.65002" lon="6.55809">
        <ele>2191</ele>
        <time>2022-07-16T07:34:48Z</time>
      </trkpt>
      <trkpt lat="45.65002" lon="6.55812">
        <ele>2191</ele>
        <time>2022-07-16T07:34:49Z</time>
      </trkpt>
      <trkpt lat="45.65002" lon="6.55814">
        <ele>2190</ele>
        <time>2022-07-16T07:34:50Z</time>
      </trkpt>
      <trkpt lat="45.65" lon="6.55818">
        <ele>2190</ele>
        <time>2022-07-16T07:34:52Z</time>
      </trkpt>
      <trkpt lat="45.64999" lon="6.55822">
        <ele>2190</ele>
        <time>2022-07-16T07:34:54Z</time>
      </trkpt>
      <trkpt lat="45.64999" lon="6.55825">
        <ele>2190</ele>
        <time>2022-07-16T07:34:56Z</time>
      </trkpt>
      <trkpt lat="45.64999" lon="6.55828">
        <ele>2190</ele>
        <time>2022-07-16T07:34:58Z</time>
      </trkpt>
      <trkpt lat="45.64998" lon="6.55831">
        <ele>2189</ele>
        <time>2022-07-16T07:35:03Z</time>
      </trkpt>
      <trkpt lat="45.64997" lon="6.55833">
        <ele>2189</ele>
        <time>2022-07-16T07:35:06Z</time>
      </trkpt>
      <trkpt lat="45.64997" lon="6.55836">
        <ele>2189</ele>
        <time>2022-07-16T07:35:09Z</time>
      </trkpt>
      <trkpt lat="45.64997" lon="6.55839">
        <ele>2189</ele>
        <time>2022-07-16T07:35:11Z</time>
      </trkpt>
      <trkpt lat="45.64996" lon="6.55842">
        <ele>2189</ele>
        <time>2022-07-16T07:35:13Z</time>
      </trkpt>
      <trkpt lat="45.64997" lon="6.55846">
        <ele>2189</ele>
        <time>2022-07-16T07:35:15Z</time>
      </trkpt>
      <trkpt lat="45.64997" lon="6.5585">
        <ele>2189</ele>
        <time>2022-07-16T07:35:17Z</time>
      </trkpt>
      <trkpt lat="45.64998" lon="6.55854">
        <ele>2189</ele>
        <time>2022-07-16T07:35:19Z</time>
      </trkpt>
      <trkpt lat="45.64999" lon="6.55858">
        <ele>2189</ele>
        <time>2022-07-16T07:35:21Z</time>
      </trkpt>
      <trkpt lat="45.65" lon="6.5586">
        <ele>2189</ele>
        <time>2022-07-16T07:35:22Z</time>
      </trkpt>
      <trkpt lat="45.65001" lon="6.55863">
        <ele>2189</ele>
        <time>2022-07-16T07:35:23Z</time>
      </trkpt>
      <trkpt lat="45.65001" lon="6.55865">
        <ele>2189</ele>
        <time>2022-07-16T07:35:24Z</time>
      </trkpt>
      <trkpt lat="45.65001" lon="6.55868">
        <ele>2189</ele>
        <time>2022-07-16T07:35:25Z</time>
      </trkpt>
      <trkpt lat="45.65003" lon="6.55872">
        <ele>2189</ele>
        <time>2022-07-16T07:35:27Z</time>
      </trkpt>
      <trkpt lat="45.65004" lon="6.55877">
        <ele>2188</ele>
        <time>2022-07-16T07:35:29Z</time>
      </trkpt>
      <trkpt lat="45.65004" lon="6.55881">
        <ele>2188</ele>
        <time>2022-07-16T07:35:31Z</time>
      </trkpt>
      <trkpt lat="45.65004" lon="6.55886">
        <ele>2188</ele>
        <time>2022-07-16T07:35:33Z</time>
      </trkpt>
      <trkpt lat="45.65003" lon="6.5589">
        <ele>2188</ele>
        <time>2022-07-16T07:35:36Z</time>
      </trkpt>
      <trkpt lat="45.65004" lon="6.55895">
        <ele>2188</ele>
        <time>2022-07-16T07:35:37Z</time>
      </trkpt>
      <trkpt lat="45.65004" lon="6.55899">
        <ele>2187</ele>
        <time>2022-07-16T07:35:39Z</time>
      </trkpt>
      <trkpt lat="45.65004" lon="6.55902">
        <ele>2187</ele>
        <time>2022-07-16T07:35:41Z</time>
      </trkpt>
      <trkpt lat="45.65005" lon="6.55905">
        <ele>2188</ele>
        <time>2022-07-16T07:35:43Z</time>
      </trkpt>
      <trkpt lat="45.65007" lon="6.55909">
        <ele>2188</ele>
        <time>2022-07-16T07:35:45Z</time>
      </trkpt>
      <trkpt lat="45.65008" lon="6.55913">
        <ele>2188</ele>
        <time>2022-07-16T07:35:47Z</time>
      </trkpt>
      <trkpt lat="45.65009" lon="6.55916">
        <ele>2188</ele>
        <time>2022-07-16T07:35:49Z</time>
      </trkpt>
      <trkpt lat="45.65011" lon="6.55919">
        <ele>2188</ele>
        <time>2022-07-16T07:35:51Z</time>
      </trkpt>
      <trkpt lat="45.65013" lon="6.55921">
        <ele>2189</ele>
        <time>2022-07-16T07:35:53Z</time>
      </trkpt>
      <trkpt lat="45.65015" lon="6.55923">
        <ele>2189</ele>
        <time>2022-07-16T07:35:55Z</time>
      </trkpt>
      <trkpt lat="45.65017" lon="6.55924">
        <ele>2188</ele>
        <time>2022-07-16T07:35:57Z</time>
      </trkpt>
      <trkpt lat="45.65019" lon="6.55925">
        <ele>2187</ele>
        <time>2022-07-16T07:36:01Z</time>
      </trkpt>
      <trkpt lat="45.65021" lon="6.55926">
        <ele>2187</ele>
        <time>2022-07-16T07:36:03Z</time>
      </trkpt>
      <trkpt lat="45.65023" lon="6.55927">
        <ele>2187</ele>
        <time>2022-07-16T07:36:05Z</time>
      </trkpt>
      <trkpt lat="45.65024" lon="6.55928">
        <ele>2187</ele>
        <time>2022-07-16T07:36:07Z</time>
      </trkpt>
      <trkpt lat="45.65027" lon="6.5593">
        <ele>2187</ele>
        <time>2022-07-16T07:36:09Z</time>
      </trkpt>
      <trkpt lat="45.65029" lon="6.55931">
        <ele>2187</ele>
        <time>2022-07-16T07:36:11Z</time>
      </trkpt>
      <trkpt lat="45.6503" lon="6.55933">
        <ele>2187</ele>
        <time>2022-07-16T07:36:13Z</time>
      </trkpt>
      <trkpt lat="45.65033" lon="6.55934">
        <ele>2186</ele>
        <time>2022-07-16T07:36:15Z</time>
      </trkpt>
      <trkpt lat="45.65035" lon="6.55935">
        <ele>2186</ele>
        <time>2022-07-16T07:36:17Z</time>
      </trkpt>
      <trkpt lat="45.65037" lon="6.55937">
        <ele>2186</ele>
        <time>2022-07-16T07:36:19Z</time>
      </trkpt>
      <trkpt lat="45.65039" lon="6.55939">
        <ele>2186</ele>
        <time>2022-07-16T07:36:21Z</time>
      </trkpt>
      <trkpt lat="45.65041" lon="6.5594">
        <ele>2186</ele>
        <time>2022-07-16T07:36:23Z</time>
      </trkpt>
      <trkpt lat="45.65043" lon="6.55941">
        <ele>2186</ele>
        <time>2022-07-16T07:36:25Z</time>
      </trkpt>
      <trkpt lat="45.65045" lon="6.55941">
        <ele>2186</ele>
        <time>2022-07-16T07:36:27Z</time>
      </trkpt>
      <trkpt lat="45.65047" lon="6.55941">
        <ele>2185</ele>
        <time>2022-07-16T07:36:29Z</time>
      </trkpt>
      <trkpt lat="45.65049" lon="6.55942">
        <ele>2185</ele>
        <time>2022-07-16T07:36:31Z</time>
      </trkpt>
      <trkpt lat="45.65052" lon="6.55946">
        <ele>2185</ele>
        <time>2022-07-16T07:36:33Z</time>
      </trkpt>
      <trkpt lat="45.65053" lon="6.55948">
        <ele>2185</ele>
        <time>2022-07-16T07:36:34Z</time>
      </trkpt>
      <trkpt lat="45.65056" lon="6.55951">
        <ele>2184</ele>
        <time>2022-07-16T07:36:36Z</time>
      </trkpt>
      <trkpt lat="45.65057" lon="6.55953">
        <ele>2184</ele>
        <time>2022-07-16T07:36:37Z</time>
      </trkpt>
      <trkpt lat="45.65059" lon="6.55955">
        <ele>2183</ele>
        <time>2022-07-16T07:36:38Z</time>
      </trkpt>
      <trkpt lat="45.6506" lon="6.55957">
        <ele>2183</ele>
        <time>2022-07-16T07:36:39Z</time>
      </trkpt>
      <trkpt lat="45.65061" lon="6.55962">
        <ele>2183</ele>
        <time>2022-07-16T07:36:41Z</time>
      </trkpt>
      <trkpt lat="45.65063" lon="6.55965">
        <ele>2183</ele>
        <time>2022-07-16T07:36:43Z</time>
      </trkpt>
      <trkpt lat="45.65065" lon="6.55968">
        <ele>2183</ele>
        <time>2022-07-16T07:36:45Z</time>
      </trkpt>
      <trkpt lat="45.65067" lon="6.55971">
        <ele>2183</ele>
        <time>2022-07-16T07:36:47Z</time>
      </trkpt>
      <trkpt lat="45.65069" lon="6.55974">
        <ele>2183</ele>
        <time>2022-07-16T07:36:49Z</time>
      </trkpt>
      <trkpt lat="45.6507" lon="6.55977">
        <ele>2184</ele>
        <time>2022-07-16T07:36:52Z</time>
      </trkpt>
      <trkpt lat="45.65073" lon="6.55979">
        <ele>2185</ele>
        <time>2022-07-16T07:36:55Z</time>
      </trkpt>
      <trkpt lat="45.65074" lon="6.55981">
        <ele>2185</ele>
        <time>2022-07-16T07:36:57Z</time>
      </trkpt>
      <trkpt lat="45.65076" lon="6.55983">
        <ele>2185</ele>
        <time>2022-07-16T07:36:59Z</time>
      </trkpt>
      <trkpt lat="45.65077" lon="6.55985">
        <ele>2185</ele>
        <time>2022-07-16T07:37:01Z</time>
      </trkpt>
      <trkpt lat="45.65079" lon="6.55987">
        <ele>2185</ele>
        <time>2022-07-16T07:37:03Z</time>
      </trkpt>
      <trkpt lat="45.65081" lon="6.55988">
        <ele>2185</ele>
        <time>2022-07-16T07:37:05Z</time>
      </trkpt>
      <trkpt lat="45.65082" lon="6.5599">
        <ele>2186</ele>
        <time>2022-07-16T07:37:07Z</time>
      </trkpt>
      <trkpt lat="45.65085" lon="6.55992">
        <ele>2186</ele>
        <time>2022-07-16T07:37:10Z</time>
      </trkpt>
      <trkpt lat="45.65086" lon="6.55994">
        <ele>2188</ele>
        <time>2022-07-16T07:37:13Z</time>
      </trkpt>
      <trkpt lat="45.65088" lon="6.55997">
        <ele>2188</ele>
        <time>2022-07-16T07:37:16Z</time>
      </trkpt>
      <trkpt lat="45.65088" lon="6.56">
        <ele>2188</ele>
        <time>2022-07-16T07:37:19Z</time>
      </trkpt>
      <trkpt lat="45.6509" lon="6.56003">
        <ele>2188</ele>
        <time>2022-07-16T07:37:22Z</time>
      </trkpt>
      <trkpt lat="45.65091" lon="6.56005">
        <ele>2188</ele>
        <time>2022-07-16T07:37:25Z</time>
      </trkpt>
      <trkpt lat="45.65092" lon="6.56008">
        <ele>2188</ele>
        <time>2022-07-16T07:37:27Z</time>
      </trkpt>
      <trkpt lat="45.65096" lon="6.56014">
        <ele>2188</ele>
        <time>2022-07-16T07:37:30Z</time>
      </trkpt>
      <trkpt lat="45.65097" lon="6.56016">
        <ele>2187</ele>
        <time>2022-07-16T07:37:31Z</time>
      </trkpt>
      <trkpt lat="45.65098" lon="6.56018">
        <ele>2187</ele>
        <time>2022-07-16T07:37:32Z</time>
      </trkpt>
      <trkpt lat="45.651" lon="6.5602">
        <ele>2187</ele>
        <time>2022-07-16T07:37:33Z</time>
      </trkpt>
      <trkpt lat="45.65102" lon="6.56022">
        <ele>2187</ele>
        <time>2022-07-16T07:37:34Z</time>
      </trkpt>
      <trkpt lat="45.65103" lon="6.56024">
        <ele>2187</ele>
        <time>2022-07-16T07:37:35Z</time>
      </trkpt>
      <trkpt lat="45.65104" lon="6.56027">
        <ele>2186</ele>
        <time>2022-07-16T07:37:36Z</time>
      </trkpt>
      <trkpt lat="45.65106" lon="6.56029">
        <ele>2186</ele>
        <time>2022-07-16T07:37:37Z</time>
      </trkpt>
      <trkpt lat="45.65107" lon="6.56031">
        <ele>2186</ele>
        <time>2022-07-16T07:37:38Z</time>
      </trkpt>
      <trkpt lat="45.65108" lon="6.56034">
        <ele>2186</ele>
        <time>2022-07-16T07:37:39Z</time>
      </trkpt>
      <trkpt lat="45.65109" lon="6.56037">
        <ele>2186</ele>
        <time>2022-07-16T07:37:40Z</time>
      </trkpt>
      <trkpt lat="45.65111" lon="6.5604">
        <ele>2186</ele>
        <time>2022-07-16T07:37:41Z</time>
      </trkpt>
      <trkpt lat="45.65111" lon="6.56043">
        <ele>2186</ele>
        <time>2022-07-16T07:37:42Z</time>
      </trkpt>
      <trkpt lat="45.65112" lon="6.56046">
        <ele>2186</ele>
        <time>2022-07-16T07:37:43Z</time>
      </trkpt>
      <trkpt lat="45.65114" lon="6.56049">
        <ele>2186</ele>
        <time>2022-07-16T07:37:44Z</time>
      </trkpt>
      <trkpt lat="45.65115" lon="6.56053">
        <ele>2186</ele>
        <time>2022-07-16T07:37:45Z</time>
      </trkpt>
      <trkpt lat="45.65116" lon="6.56056">
        <ele>2186</ele>
        <time>2022-07-16T07:37:46Z</time>
      </trkpt>
      <trkpt lat="45.65116" lon="6.56059">
        <ele>2186</ele>
        <time>2022-07-16T07:37:47Z</time>
      </trkpt>
      <trkpt lat="45.65118" lon="6.56064">
        <ele>2186</ele>
        <time>2022-07-16T07:37:48Z</time>
      </trkpt>
      <trkpt lat="45.65118" lon="6.56066">
        <ele>2186</ele>
        <time>2022-07-16T07:37:49Z</time>
      </trkpt>
      <trkpt lat="45.65119" lon="6.56069">
        <ele>2186</ele>
        <time>2022-07-16T07:37:50Z</time>
      </trkpt>
      <trkpt lat="45.65119" lon="6.56072">
        <ele>2186</ele>
        <time>2022-07-16T07:37:51Z</time>
      </trkpt>
      <trkpt lat="45.6512" lon="6.56076">
        <ele>2186</ele>
        <time>2022-07-16T07:37:52Z</time>
      </trkpt>
      <trkpt lat="45.65121" lon="6.56079">
        <ele>2185</ele>
        <time>2022-07-16T07:37:53Z</time>
      </trkpt>
      <trkpt lat="45.65121" lon="6.56082">
        <ele>2185</ele>
        <time>2022-07-16T07:37:54Z</time>
      </trkpt>
      <trkpt lat="45.65122" lon="6.56086">
        <ele>2185</ele>
        <time>2022-07-16T07:37:55Z</time>
      </trkpt>
      <trkpt lat="45.65123" lon="6.56089">
        <ele>2185</ele>
        <time>2022-07-16T07:37:56Z</time>
      </trkpt>
      <trkpt lat="45.65124" lon="6.56091">
        <ele>2185</ele>
        <time>2022-07-16T07:37:57Z</time>
      </trkpt>
      <trkpt lat="45.65125" lon="6.56094">
        <ele>2185</ele>
        <time>2022-07-16T07:37:58Z</time>
      </trkpt>
      <trkpt lat="45.65126" lon="6.56097">
        <ele>2185</ele>
        <time>2022-07-16T07:37:59Z</time>
      </trkpt>
      <trkpt lat="45.65127" lon="6.561">
        <ele>2185</ele>
        <time>2022-07-16T07:38:00Z</time>
      </trkpt>
      <trkpt lat="45.65128" lon="6.56103">
        <ele>2185</ele>
        <time>2022-07-16T07:38:01Z</time>
      </trkpt>
      <trkpt lat="45.6513" lon="6.56105">
        <ele>2185</ele>
        <time>2022-07-16T07:38:02Z</time>
      </trkpt>
      <trkpt lat="45.65131" lon="6.56108">
        <ele>2185</ele>
        <time>2022-07-16T07:38:03Z</time>
      </trkpt>
      <trkpt lat="45.65134" lon="6.56112">
        <ele>2185</ele>
        <time>2022-07-16T07:38:04Z</time>
      </trkpt>
      <trkpt lat="45.65135" lon="6.56114">
        <ele>2185</ele>
        <time>2022-07-16T07:38:05Z</time>
      </trkpt>
      <trkpt lat="45.65137" lon="6.56116">
        <ele>2185</ele>
        <time>2022-07-16T07:38:06Z</time>
      </trkpt>
      <trkpt lat="45.6514" lon="6.5612">
        <ele>2185</ele>
        <time>2022-07-16T07:38:07Z</time>
      </trkpt>
      <trkpt lat="45.65141" lon="6.56122">
        <ele>2184</ele>
        <time>2022-07-16T07:38:09Z</time>
      </trkpt>
      <trkpt lat="45.65143" lon="6.56124">
        <ele>2183</ele>
        <time>2022-07-16T07:38:10Z</time>
      </trkpt>
      <trkpt lat="45.65145" lon="6.56125">
        <ele>2183</ele>
        <time>2022-07-16T07:38:11Z</time>
      </trkpt>
      <trkpt lat="45.65147" lon="6.56128">
        <ele>2183</ele>
        <time>2022-07-16T07:38:12Z</time>
      </trkpt>
      <trkpt lat="45.65149" lon="6.56129">
        <ele>2183</ele>
        <time>2022-07-16T07:38:13Z</time>
      </trkpt>
      <trkpt lat="45.6515" lon="6.56131">
        <ele>2183</ele>
        <time>2022-07-16T07:38:14Z</time>
      </trkpt>
      <trkpt lat="45.65152" lon="6.56132">
        <ele>2182</ele>
        <time>2022-07-16T07:38:15Z</time>
      </trkpt>
      <trkpt lat="45.65154" lon="6.56134">
        <ele>2182</ele>
        <time>2022-07-16T07:38:16Z</time>
      </trkpt>
      <trkpt lat="45.65156" lon="6.56136">
        <ele>2182</ele>
        <time>2022-07-16T07:38:17Z</time>
      </trkpt>
      <trkpt lat="45.65158" lon="6.56138">
        <ele>2182</ele>
        <time>2022-07-16T07:38:18Z</time>
      </trkpt>
      <trkpt lat="45.6516" lon="6.56139">
        <ele>2181</ele>
        <time>2022-07-16T07:38:19Z</time>
      </trkpt>
      <trkpt lat="45.65162" lon="6.56141">
        <ele>2181</ele>
        <time>2022-07-16T07:38:20Z</time>
      </trkpt>
      <trkpt lat="45.65164" lon="6.56142">
        <ele>2181</ele>
        <time>2022-07-16T07:38:21Z</time>
      </trkpt>
      <trkpt lat="45.65166" lon="6.56144">
        <ele>2181</ele>
        <time>2022-07-16T07:38:22Z</time>
      </trkpt>
      <trkpt lat="45.6517" lon="6.56148">
        <ele>2181</ele>
        <time>2022-07-16T07:38:24Z</time>
      </trkpt>
      <trkpt lat="45.65172" lon="6.5615">
        <ele>2181</ele>
        <time>2022-07-16T07:38:25Z</time>
      </trkpt>
      <trkpt lat="45.65175" lon="6.56154">
        <ele>2181</ele>
        <time>2022-07-16T07:38:27Z</time>
      </trkpt>
      <trkpt lat="45.65177" lon="6.56156">
        <ele>2181</ele>
        <time>2022-07-16T07:38:28Z</time>
      </trkpt>
      <trkpt lat="45.65178" lon="6.56157">
        <ele>2180</ele>
        <time>2022-07-16T07:38:29Z</time>
      </trkpt>
      <trkpt lat="45.6518" lon="6.56159">
        <ele>2180</ele>
        <time>2022-07-16T07:38:30Z</time>
      </trkpt>
      <trkpt lat="45.65182" lon="6.56161">
        <ele>2180</ele>
        <time>2022-07-16T07:38:31Z</time>
      </trkpt>
      <trkpt lat="45.65184" lon="6.56163">
        <ele>2180</ele>
        <time>2022-07-16T07:38:32Z</time>
      </trkpt>
      <trkpt lat="45.65185" lon="6.56165">
        <ele>2180</ele>
        <time>2022-07-16T07:38:33Z</time>
      </trkpt>
      <trkpt lat="45.65187" lon="6.56166">
        <ele>2180</ele>
        <time>2022-07-16T07:38:34Z</time>
      </trkpt>
      <trkpt lat="45.65188" lon="6.56168">
        <ele>2180</ele>
        <time>2022-07-16T07:38:35Z</time>
      </trkpt>
      <trkpt lat="45.6519" lon="6.56169">
        <ele>2180</ele>
        <time>2022-07-16T07:38:36Z</time>
      </trkpt>
      <trkpt lat="45.65192" lon="6.5617">
        <ele>2180</ele>
        <time>2022-07-16T07:38:37Z</time>
      </trkpt>
      <trkpt lat="45.65195" lon="6.56172">
        <ele>2179</ele>
        <time>2022-07-16T07:38:38Z</time>
      </trkpt>
      <trkpt lat="45.65196" lon="6.56172">
        <ele>2179</ele>
        <time>2022-07-16T07:38:39Z</time>
      </trkpt>
      <trkpt lat="45.65198" lon="6.56173">
        <ele>2179</ele>
        <time>2022-07-16T07:38:40Z</time>
      </trkpt>
      <trkpt lat="45.652" lon="6.56174">
        <ele>2179</ele>
        <time>2022-07-16T07:38:41Z</time>
      </trkpt>
      <trkpt lat="45.65203" lon="6.56174">
        <ele>2178</ele>
        <time>2022-07-16T07:38:42Z</time>
      </trkpt>
      <trkpt lat="45.65205" lon="6.56175">
        <ele>2178</ele>
        <time>2022-07-16T07:38:43Z</time>
      </trkpt>
      <trkpt lat="45.65207" lon="6.56175">
        <ele>2178</ele>
        <time>2022-07-16T07:38:44Z</time>
      </trkpt>
      <trkpt lat="45.6521" lon="6.56176">
        <ele>2178</ele>
        <time>2022-07-16T07:38:45Z</time>
      </trkpt>
      <trkpt lat="45.65211" lon="6.56177">
        <ele>2178</ele>
        <time>2022-07-16T07:38:46Z</time>
      </trkpt>
      <trkpt lat="45.65213" lon="6.56177">
        <ele>2178</ele>
        <time>2022-07-16T07:38:47Z</time>
      </trkpt>
      <trkpt lat="45.65216" lon="6.56178">
        <ele>2177</ele>
        <time>2022-07-16T07:38:48Z</time>
      </trkpt>
      <trkpt lat="45.65218" lon="6.56178">
        <ele>2177</ele>
        <time>2022-07-16T07:38:49Z</time>
      </trkpt>
      <trkpt lat="45.6522" lon="6.56179">
        <ele>2177</ele>
        <time>2022-07-16T07:38:50Z</time>
      </trkpt>
      <trkpt lat="45.65222" lon="6.5618">
        <ele>2176</ele>
        <time>2022-07-16T07:38:51Z</time>
      </trkpt>
      <trkpt lat="45.65225" lon="6.56181">
        <ele>2176</ele>
        <time>2022-07-16T07:38:52Z</time>
      </trkpt>
      <trkpt lat="45.65227" lon="6.56182">
        <ele>2176</ele>
        <time>2022-07-16T07:38:53Z</time>
      </trkpt>
      <trkpt lat="45.65229" lon="6.56183">
        <ele>2176</ele>
        <time>2022-07-16T07:38:54Z</time>
      </trkpt>
      <trkpt lat="45.65231" lon="6.56184">
        <ele>2176</ele>
        <time>2022-07-16T07:38:55Z</time>
      </trkpt>
      <trkpt lat="45.65233" lon="6.56185">
        <ele>2176</ele>
        <time>2022-07-16T07:38:56Z</time>
      </trkpt>
      <trkpt lat="45.65236" lon="6.56188">
        <ele>2175</ele>
        <time>2022-07-16T07:38:57Z</time>
      </trkpt>
      <trkpt lat="45.65237" lon="6.56188">
        <ele>2175</ele>
        <time>2022-07-16T07:38:58Z</time>
      </trkpt>
      <trkpt lat="45.65239" lon="6.5619">
        <ele>2175</ele>
        <time>2022-07-16T07:38:59Z</time>
      </trkpt>
      <trkpt lat="45.65242" lon="6.56193">
        <ele>2174</ele>
        <time>2022-07-16T07:39:00Z</time>
      </trkpt>
      <trkpt lat="45.65243" lon="6.56194">
        <ele>2174</ele>
        <time>2022-07-16T07:39:01Z</time>
      </trkpt>
      <trkpt lat="45.65244" lon="6.56196">
        <ele>2174</ele>
        <time>2022-07-16T07:39:02Z</time>
      </trkpt>
      <trkpt lat="45.65246" lon="6.56198">
        <ele>2173</ele>
        <time>2022-07-16T07:39:03Z</time>
      </trkpt>
      <trkpt lat="45.65249" lon="6.56201">
        <ele>2173</ele>
        <time>2022-07-16T07:39:04Z</time>
      </trkpt>
      <trkpt lat="45.6525" lon="6.56202">
        <ele>2173</ele>
        <time>2022-07-16T07:39:05Z</time>
      </trkpt>
      <trkpt lat="45.65252" lon="6.56203">
        <ele>2172</ele>
        <time>2022-07-16T07:39:06Z</time>
      </trkpt>
      <trkpt lat="45.65254" lon="6.56205">
        <ele>2171</ele>
        <time>2022-07-16T07:39:07Z</time>
      </trkpt>
      <trkpt lat="45.65258" lon="6.56209">
        <ele>2171</ele>
        <time>2022-07-16T07:39:09Z</time>
      </trkpt>
      <trkpt lat="45.6526" lon="6.5621">
        <ele>2171</ele>
        <time>2022-07-16T07:39:10Z</time>
      </trkpt>
      <trkpt lat="45.65261" lon="6.56212">
        <ele>2171</ele>
        <time>2022-07-16T07:39:11Z</time>
      </trkpt>
      <trkpt lat="45.65263" lon="6.56214">
        <ele>2171</ele>
        <time>2022-07-16T07:39:12Z</time>
      </trkpt>
      <trkpt lat="45.65265" lon="6.56215">
        <ele>2171</ele>
        <time>2022-07-16T07:39:13Z</time>
      </trkpt>
      <trkpt lat="45.65267" lon="6.56217">
        <ele>2171</ele>
        <time>2022-07-16T07:39:14Z</time>
      </trkpt>
      <trkpt lat="45.65269" lon="6.56219">
        <ele>2170</ele>
        <time>2022-07-16T07:39:15Z</time>
      </trkpt>
      <trkpt lat="45.65271" lon="6.5622">
        <ele>2170</ele>
        <time>2022-07-16T07:39:16Z</time>
      </trkpt>
      <trkpt lat="45.65273" lon="6.56222">
        <ele>2170</ele>
        <time>2022-07-16T07:39:17Z</time>
      </trkpt>
      <trkpt lat="45.65275" lon="6.56224">
        <ele>2168</ele>
        <time>2022-07-16T07:39:18Z</time>
      </trkpt>
      <trkpt lat="45.65277" lon="6.56226">
        <ele>2168</ele>
        <time>2022-07-16T07:39:19Z</time>
      </trkpt>
      <trkpt lat="45.65278" lon="6.56227">
        <ele>2168</ele>
        <time>2022-07-16T07:39:20Z</time>
      </trkpt>
      <trkpt lat="45.6528" lon="6.56229">
        <ele>2168</ele>
        <time>2022-07-16T07:39:21Z</time>
      </trkpt>
      <trkpt lat="45.65282" lon="6.5623">
        <ele>2167</ele>
        <time>2022-07-16T07:39:22Z</time>
      </trkpt>
      <trkpt lat="45.65284" lon="6.56232">
        <ele>2167</ele>
        <time>2022-07-16T07:39:23Z</time>
      </trkpt>
      <trkpt lat="45.65286" lon="6.56234">
        <ele>2167</ele>
        <time>2022-07-16T07:39:24Z</time>
      </trkpt>
      <trkpt lat="45.65288" lon="6.56236">
        <ele>2167</ele>
        <time>2022-07-16T07:39:25Z</time>
      </trkpt>
      <trkpt lat="45.65291" lon="6.56237">
        <ele>2166</ele>
        <time>2022-07-16T07:39:26Z</time>
      </trkpt>
      <trkpt lat="45.65292" lon="6.56239">
        <ele>2166</ele>
        <time>2022-07-16T07:39:27Z</time>
      </trkpt>
      <trkpt lat="45.65294" lon="6.56241">
        <ele>2165</ele>
        <time>2022-07-16T07:39:28Z</time>
      </trkpt>
      <trkpt lat="45.65296" lon="6.56243">
        <ele>2164</ele>
        <time>2022-07-16T07:39:29Z</time>
      </trkpt>
      <trkpt lat="45.65298" lon="6.56244">
        <ele>2164</ele>
        <time>2022-07-16T07:39:30Z</time>
      </trkpt>
      <trkpt lat="45.65299" lon="6.56246">
        <ele>2163</ele>
        <time>2022-07-16T07:39:31Z</time>
      </trkpt>
      <trkpt lat="45.65301" lon="6.56248">
        <ele>2163</ele>
        <time>2022-07-16T07:39:32Z</time>
      </trkpt>
      <trkpt lat="45.65303" lon="6.5625">
        <ele>2163</ele>
        <time>2022-07-16T07:39:33Z</time>
      </trkpt>
      <trkpt lat="45.65305" lon="6.56252">
        <ele>2163</ele>
        <time>2022-07-16T07:39:34Z</time>
      </trkpt>
      <trkpt lat="45.65307" lon="6.56254">
        <ele>2162</ele>
        <time>2022-07-16T07:39:35Z</time>
      </trkpt>
      <trkpt lat="45.65309" lon="6.56256">
        <ele>2162</ele>
        <time>2022-07-16T07:39:36Z</time>
      </trkpt>
      <trkpt lat="45.65311" lon="6.56259">
        <ele>2161</ele>
        <time>2022-07-16T07:39:37Z</time>
      </trkpt>
      <trkpt lat="45.65312" lon="6.56261">
        <ele>2160</ele>
        <time>2022-07-16T07:39:38Z</time>
      </trkpt>
      <trkpt lat="45.65314" lon="6.56264">
        <ele>2160</ele>
        <time>2022-07-16T07:39:39Z</time>
      </trkpt>
      <trkpt lat="45.65315" lon="6.56267">
        <ele>2160</ele>
        <time>2022-07-16T07:39:40Z</time>
      </trkpt>
      <trkpt lat="45.65317" lon="6.56271">
        <ele>2160</ele>
        <time>2022-07-16T07:39:41Z</time>
      </trkpt>
      <trkpt lat="45.65318" lon="6.56273">
        <ele>2160</ele>
        <time>2022-07-16T07:39:42Z</time>
      </trkpt>
      <trkpt lat="45.6532" lon="6.56275">
        <ele>2160</ele>
        <time>2022-07-16T07:39:43Z</time>
      </trkpt>
      <trkpt lat="45.65321" lon="6.56277">
        <ele>2159</ele>
        <time>2022-07-16T07:39:44Z</time>
      </trkpt>
      <trkpt lat="45.65323" lon="6.56279">
        <ele>2158</ele>
        <time>2022-07-16T07:39:45Z</time>
      </trkpt>
      <trkpt lat="45.65325" lon="6.56281">
        <ele>2158</ele>
        <time>2022-07-16T07:39:46Z</time>
      </trkpt>
      <trkpt lat="45.65327" lon="6.56282">
        <ele>2158</ele>
        <time>2022-07-16T07:39:47Z</time>
      </trkpt>
      <trkpt lat="45.65329" lon="6.56284">
        <ele>2157</ele>
        <time>2022-07-16T07:39:48Z</time>
      </trkpt>
      <trkpt lat="45.65331" lon="6.56286">
        <ele>2157</ele>
        <time>2022-07-16T07:39:49Z</time>
      </trkpt>
      <trkpt lat="45.65333" lon="6.56287">
        <ele>2156</ele>
        <time>2022-07-16T07:39:50Z</time>
      </trkpt>
      <trkpt lat="45.65336" lon="6.56288">
        <ele>2156</ele>
        <time>2022-07-16T07:39:51Z</time>
      </trkpt>
      <trkpt lat="45.65337" lon="6.56289">
        <ele>2156</ele>
        <time>2022-07-16T07:39:52Z</time>
      </trkpt>
      <trkpt lat="45.65339" lon="6.56289">
        <ele>2156</ele>
        <time>2022-07-16T07:39:53Z</time>
      </trkpt>
      <trkpt lat="45.65341" lon="6.5629">
        <ele>2155</ele>
        <time>2022-07-16T07:39:54Z</time>
      </trkpt>
      <trkpt lat="45.65343" lon="6.56291">
        <ele>2155</ele>
        <time>2022-07-16T07:39:55Z</time>
      </trkpt>
      <trkpt lat="45.65345" lon="6.56292">
        <ele>2155</ele>
        <time>2022-07-16T07:39:56Z</time>
      </trkpt>
      <trkpt lat="45.65347" lon="6.56294">
        <ele>2155</ele>
        <time>2022-07-16T07:39:57Z</time>
      </trkpt>
      <trkpt lat="45.65349" lon="6.56295">
        <ele>2155</ele>
        <time>2022-07-16T07:39:58Z</time>
      </trkpt>
      <trkpt lat="45.6535" lon="6.56296">
        <ele>2155</ele>
        <time>2022-07-16T07:39:59Z</time>
      </trkpt>
      <trkpt lat="45.65352" lon="6.56296">
        <ele>2153</ele>
        <time>2022-07-16T07:40:00Z</time>
      </trkpt>
      <trkpt lat="45.65354" lon="6.56297">
        <ele>2153</ele>
        <time>2022-07-16T07:40:01Z</time>
      </trkpt>
      <trkpt lat="45.65356" lon="6.56297">
        <ele>2153</ele>
        <time>2022-07-16T07:40:02Z</time>
      </trkpt>
      <trkpt lat="45.6536" lon="6.56299">
        <ele>2152</ele>
        <time>2022-07-16T07:40:04Z</time>
      </trkpt>
      <trkpt lat="45.65362" lon="6.56299">
        <ele>2152</ele>
        <time>2022-07-16T07:40:05Z</time>
      </trkpt>
      <trkpt lat="45.65364" lon="6.563">
        <ele>2151</ele>
        <time>2022-07-16T07:40:06Z</time>
      </trkpt>
      <trkpt lat="45.65366" lon="6.56301">
        <ele>2151</ele>
        <time>2022-07-16T07:40:07Z</time>
      </trkpt>
      <trkpt lat="45.65368" lon="6.56301">
        <ele>2151</ele>
        <time>2022-07-16T07:40:08Z</time>
      </trkpt>
      <trkpt lat="45.6537" lon="6.56302">
        <ele>2150</ele>
        <time>2022-07-16T07:40:09Z</time>
      </trkpt>
      <trkpt lat="45.65372" lon="6.56303">
        <ele>2150</ele>
        <time>2022-07-16T07:40:10Z</time>
      </trkpt>
      <trkpt lat="45.65374" lon="6.56305">
        <ele>2150</ele>
        <time>2022-07-16T07:40:11Z</time>
      </trkpt>
      <trkpt lat="45.65376" lon="6.56306">
        <ele>2149</ele>
        <time>2022-07-16T07:40:12Z</time>
      </trkpt>
      <trkpt lat="45.65378" lon="6.56308">
        <ele>2148</ele>
        <time>2022-07-16T07:40:13Z</time>
      </trkpt>
      <trkpt lat="45.6538" lon="6.56309">
        <ele>2148</ele>
        <time>2022-07-16T07:40:14Z</time>
      </trkpt>
      <trkpt lat="45.65383" lon="6.56311">
        <ele>2148</ele>
        <time>2022-07-16T07:40:16Z</time>
      </trkpt>
      <trkpt lat="45.65387" lon="6.56311">
        <ele>2148</ele>
        <time>2022-07-16T07:40:18Z</time>
      </trkpt>
      <trkpt lat="45.65389" lon="6.56311">
        <ele>2147</ele>
        <time>2022-07-16T07:40:19Z</time>
      </trkpt>
      <trkpt lat="45.65392" lon="6.56311">
        <ele>2147</ele>
        <time>2022-07-16T07:40:20Z</time>
      </trkpt>
      <trkpt lat="45.65393" lon="6.56311">
        <ele>2146</ele>
        <time>2022-07-16T07:40:21Z</time>
      </trkpt>
      <trkpt lat="45.65395" lon="6.56311">
        <ele>2144</ele>
        <time>2022-07-16T07:40:22Z</time>
      </trkpt>
      <trkpt lat="45.65397" lon="6.56311">
        <ele>2142</ele>
        <time>2022-07-16T07:40:23Z</time>
      </trkpt>
      <trkpt lat="45.65399" lon="6.56312">
        <ele>2142</ele>
        <time>2022-07-16T07:40:24Z</time>
      </trkpt>
      <trkpt lat="45.65401" lon="6.56312">
        <ele>2141</ele>
        <time>2022-07-16T07:40:25Z</time>
      </trkpt>
      <trkpt lat="45.65403" lon="6.56313">
        <ele>2141</ele>
        <time>2022-07-16T07:40:26Z</time>
      </trkpt>
      <trkpt lat="45.65406" lon="6.56313">
        <ele>2140</ele>
        <time>2022-07-16T07:40:27Z</time>
      </trkpt>
      <trkpt lat="45.65408" lon="6.56314">
        <ele>2140</ele>
        <time>2022-07-16T07:40:28Z</time>
      </trkpt>
      <trkpt lat="45.6541" lon="6.56314">
        <ele>2139</ele>
        <time>2022-07-16T07:40:29Z</time>
      </trkpt>
      <trkpt lat="45.65413" lon="6.56315">
        <ele>2139</ele>
        <time>2022-07-16T07:40:30Z</time>
      </trkpt>
      <trkpt lat="45.65414" lon="6.56315">
        <ele>2138</ele>
        <time>2022-07-16T07:40:31Z</time>
      </trkpt>
      <trkpt lat="45.65416" lon="6.56315">
        <ele>2138</ele>
        <time>2022-07-16T07:40:32Z</time>
      </trkpt>
      <trkpt lat="45.65418" lon="6.56315">
        <ele>2137</ele>
        <time>2022-07-16T07:40:33Z</time>
      </trkpt>
      <trkpt lat="45.6542" lon="6.56316">
        <ele>2137</ele>
        <time>2022-07-16T07:40:34Z</time>
      </trkpt>
      <trkpt lat="45.65422" lon="6.56316">
        <ele>2136</ele>
        <time>2022-07-16T07:40:35Z</time>
      </trkpt>
      <trkpt lat="45.65425" lon="6.56316">
        <ele>2135</ele>
        <time>2022-07-16T07:40:36Z</time>
      </trkpt>
      <trkpt lat="45.65427" lon="6.56317">
        <ele>2134</ele>
        <time>2022-07-16T07:40:37Z</time>
      </trkpt>
      <trkpt lat="45.65429" lon="6.56317">
        <ele>2134</ele>
        <time>2022-07-16T07:40:38Z</time>
      </trkpt>
      <trkpt lat="45.65431" lon="6.56318">
        <ele>2134</ele>
        <time>2022-07-16T07:40:39Z</time>
      </trkpt>
      <trkpt lat="45.65433" lon="6.56318">
        <ele>2134</ele>
        <time>2022-07-16T07:40:40Z</time>
      </trkpt>
      <trkpt lat="45.65436" lon="6.56319">
        <ele>2133</ele>
        <time>2022-07-16T07:40:41Z</time>
      </trkpt>
      <trkpt lat="45.65438" lon="6.56319">
        <ele>2132</ele>
        <time>2022-07-16T07:40:42Z</time>
      </trkpt>
      <trkpt lat="45.6544" lon="6.5632">
        <ele>2132</ele>
        <time>2022-07-16T07:40:43Z</time>
      </trkpt>
      <trkpt lat="45.65443" lon="6.56321">
        <ele>2131</ele>
        <time>2022-07-16T07:40:44Z</time>
      </trkpt>
      <trkpt lat="45.65445" lon="6.56322">
        <ele>2130</ele>
        <time>2022-07-16T07:40:45Z</time>
      </trkpt>
      <trkpt lat="45.65447" lon="6.56322">
        <ele>2130</ele>
        <time>2022-07-16T07:40:46Z</time>
      </trkpt>
      <trkpt lat="45.65449" lon="6.56323">
        <ele>2129</ele>
        <time>2022-07-16T07:40:47Z</time>
      </trkpt>
      <trkpt lat="45.65453" lon="6.56325">
        <ele>2129</ele>
        <time>2022-07-16T07:40:48Z</time>
      </trkpt>
      <trkpt lat="45.65454" lon="6.56325">
        <ele>2129</ele>
        <time>2022-07-16T07:40:49Z</time>
      </trkpt>
      <trkpt lat="45.65456" lon="6.56326">
        <ele>2128</ele>
        <time>2022-07-16T07:40:50Z</time>
      </trkpt>
      <trkpt lat="45.65459" lon="6.56327">
        <ele>2127</ele>
        <time>2022-07-16T07:40:51Z</time>
      </trkpt>
      <trkpt lat="45.65461" lon="6.56327">
        <ele>2127</ele>
        <time>2022-07-16T07:40:52Z</time>
      </trkpt>
      <trkpt lat="45.65463" lon="6.56328">
        <ele>2127</ele>
        <time>2022-07-16T07:40:53Z</time>
      </trkpt>
      <trkpt lat="45.65465" lon="6.56329">
        <ele>2126</ele>
        <time>2022-07-16T07:40:54Z</time>
      </trkpt>
      <trkpt lat="45.65467" lon="6.5633">
        <ele>2126</ele>
        <time>2022-07-16T07:40:55Z</time>
      </trkpt>
      <trkpt lat="45.65469" lon="6.5633">
        <ele>2125</ele>
        <time>2022-07-16T07:40:56Z</time>
      </trkpt>
      <trkpt lat="45.65471" lon="6.56331">
        <ele>2124</ele>
        <time>2022-07-16T07:40:57Z</time>
      </trkpt>
      <trkpt lat="45.65475" lon="6.56334">
        <ele>2123</ele>
        <time>2022-07-16T07:40:59Z</time>
      </trkpt>
      <trkpt lat="45.65477" lon="6.56335">
        <ele>2123</ele>
        <time>2022-07-16T07:41:00Z</time>
      </trkpt>
      <trkpt lat="45.65479" lon="6.56336">
        <ele>2123</ele>
        <time>2022-07-16T07:41:01Z</time>
      </trkpt>
      <trkpt lat="45.65481" lon="6.56337">
        <ele>2123</ele>
        <time>2022-07-16T07:41:02Z</time>
      </trkpt>
      <trkpt lat="45.65483" lon="6.56337">
        <ele>2122</ele>
        <time>2022-07-16T07:41:03Z</time>
      </trkpt>
      <trkpt lat="45.65486" lon="6.56339">
        <ele>2121</ele>
        <time>2022-07-16T07:41:04Z</time>
      </trkpt>
      <trkpt lat="45.65487" lon="6.56339">
        <ele>2120</ele>
        <time>2022-07-16T07:41:05Z</time>
      </trkpt>
      <trkpt lat="45.65489" lon="6.5634">
        <ele>2120</ele>
        <time>2022-07-16T07:41:06Z</time>
      </trkpt>
      <trkpt lat="45.65491" lon="6.56341">
        <ele>2120</ele>
        <time>2022-07-16T07:41:07Z</time>
      </trkpt>
      <trkpt lat="45.65494" lon="6.56341">
        <ele>2120</ele>
        <time>2022-07-16T07:41:08Z</time>
      </trkpt>
      <trkpt lat="45.65496" lon="6.56341">
        <ele>2119</ele>
        <time>2022-07-16T07:41:09Z</time>
      </trkpt>
      <trkpt lat="45.65498" lon="6.56341">
        <ele>2119</ele>
        <time>2022-07-16T07:41:10Z</time>
      </trkpt>
      <trkpt lat="45.655" lon="6.5634">
        <ele>2119</ele>
        <time>2022-07-16T07:41:11Z</time>
      </trkpt>
      <trkpt lat="45.65502" lon="6.56339">
        <ele>2118</ele>
        <time>2022-07-16T07:41:12Z</time>
      </trkpt>
      <trkpt lat="45.65505" lon="6.56338">
        <ele>2118</ele>
        <time>2022-07-16T07:41:13Z</time>
      </trkpt>
      <trkpt lat="45.65507" lon="6.56337">
        <ele>2118</ele>
        <time>2022-07-16T07:41:14Z</time>
      </trkpt>
      <trkpt lat="45.65508" lon="6.56335">
        <ele>2116</ele>
        <time>2022-07-16T07:41:15Z</time>
      </trkpt>
      <trkpt lat="45.6551" lon="6.56334">
        <ele>2115</ele>
        <time>2022-07-16T07:41:16Z</time>
      </trkpt>
      <trkpt lat="45.65512" lon="6.56333">
        <ele>2115</ele>
        <time>2022-07-16T07:41:17Z</time>
      </trkpt>
      <trkpt lat="45.65514" lon="6.56331">
        <ele>2115</ele>
        <time>2022-07-16T07:41:18Z</time>
      </trkpt>
      <trkpt lat="45.65515" lon="6.5633">
        <ele>2115</ele>
        <time>2022-07-16T07:41:19Z</time>
      </trkpt>
      <trkpt lat="45.65517" lon="6.56329">
        <ele>2114</ele>
        <time>2022-07-16T07:41:20Z</time>
      </trkpt>
      <trkpt lat="45.65519" lon="6.56327">
        <ele>2114</ele>
        <time>2022-07-16T07:41:21Z</time>
      </trkpt>
      <trkpt lat="45.65522" lon="6.56325">
        <ele>2114</ele>
        <time>2022-07-16T07:41:22Z</time>
      </trkpt>
      <trkpt lat="45.65524" lon="6.56324">
        <ele>2113</ele>
        <time>2022-07-16T07:41:23Z</time>
      </trkpt>
      <trkpt lat="45.65527" lon="6.56321">
        <ele>2113</ele>
        <time>2022-07-16T07:41:24Z</time>
      </trkpt>
      <trkpt lat="45.65527" lon="6.5632">
        <ele>2112</ele>
        <time>2022-07-16T07:41:25Z</time>
      </trkpt>
      <trkpt lat="45.65529" lon="6.56318">
        <ele>2111</ele>
        <time>2022-07-16T07:41:26Z</time>
      </trkpt>
      <trkpt lat="45.65531" lon="6.56316">
        <ele>2110</ele>
        <time>2022-07-16T07:41:27Z</time>
      </trkpt>
      <trkpt lat="45.65534" lon="6.56315">
        <ele>2110</ele>
        <time>2022-07-16T07:41:28Z</time>
      </trkpt>
      <trkpt lat="45.65536" lon="6.56314">
        <ele>2110</ele>
        <time>2022-07-16T07:41:29Z</time>
      </trkpt>
      <trkpt lat="45.65539" lon="6.56313">
        <ele>2110</ele>
        <time>2022-07-16T07:41:30Z</time>
      </trkpt>
      <trkpt lat="45.65542" lon="6.56312">
        <ele>2110</ele>
        <time>2022-07-16T07:41:31Z</time>
      </trkpt>
      <trkpt lat="45.65545" lon="6.56312">
        <ele>2109</ele>
        <time>2022-07-16T07:41:32Z</time>
      </trkpt>
      <trkpt lat="45.65547" lon="6.56312">
        <ele>2109</ele>
        <time>2022-07-16T07:41:33Z</time>
      </trkpt>
      <trkpt lat="45.65549" lon="6.56311">
        <ele>2108</ele>
        <time>2022-07-16T07:41:34Z</time>
      </trkpt>
      <trkpt lat="45.65552" lon="6.56311">
        <ele>2108</ele>
        <time>2022-07-16T07:41:35Z</time>
      </trkpt>
      <trkpt lat="45.65555" lon="6.56312">
        <ele>2108</ele>
        <time>2022-07-16T07:41:36Z</time>
      </trkpt>
      <trkpt lat="45.65558" lon="6.56312">
        <ele>2108</ele>
        <time>2022-07-16T07:41:37Z</time>
      </trkpt>
      <trkpt lat="45.65561" lon="6.56312">
        <ele>2108</ele>
        <time>2022-07-16T07:41:38Z</time>
      </trkpt>
      <trkpt lat="45.65563" lon="6.56313">
        <ele>2108</ele>
        <time>2022-07-16T07:41:39Z</time>
      </trkpt>
      <trkpt lat="45.65566" lon="6.56314">
        <ele>2108</ele>
        <time>2022-07-16T07:41:40Z</time>
      </trkpt>
      <trkpt lat="45.65569" lon="6.56314">
        <ele>2108</ele>
        <time>2022-07-16T07:41:41Z</time>
      </trkpt>
      <trkpt lat="45.65571" lon="6.56315">
        <ele>2108</ele>
        <time>2022-07-16T07:41:42Z</time>
      </trkpt>
      <trkpt lat="45.65574" lon="6.56315">
        <ele>2108</ele>
        <time>2022-07-16T07:41:43Z</time>
      </trkpt>
      <trkpt lat="45.65576" lon="6.56316">
        <ele>2108</ele>
        <time>2022-07-16T07:41:44Z</time>
      </trkpt>
      <trkpt lat="45.65578" lon="6.56318">
        <ele>2108</ele>
        <time>2022-07-16T07:41:45Z</time>
      </trkpt>
      <trkpt lat="45.65582" lon="6.5632">
        <ele>2108</ele>
        <time>2022-07-16T07:41:46Z</time>
      </trkpt>
      <trkpt lat="45.65583" lon="6.56321">
        <ele>2108</ele>
        <time>2022-07-16T07:41:47Z</time>
      </trkpt>
      <trkpt lat="45.65585" lon="6.56322">
        <ele>2107</ele>
        <time>2022-07-16T07:41:48Z</time>
      </trkpt>
      <trkpt lat="45.65586" lon="6.56324">
        <ele>2107</ele>
        <time>2022-07-16T07:41:49Z</time>
      </trkpt>
      <trkpt lat="45.65588" lon="6.56325">
        <ele>2106</ele>
        <time>2022-07-16T07:41:50Z</time>
      </trkpt>
      <trkpt lat="45.6559" lon="6.56328">
        <ele>2106</ele>
        <time>2022-07-16T07:41:51Z</time>
      </trkpt>
      <trkpt lat="45.65591" lon="6.5633">
        <ele>2106</ele>
        <time>2022-07-16T07:41:52Z</time>
      </trkpt>
      <trkpt lat="45.65593" lon="6.56333">
        <ele>2106</ele>
        <time>2022-07-16T07:41:53Z</time>
      </trkpt>
      <trkpt lat="45.65594" lon="6.56336">
        <ele>2105</ele>
        <time>2022-07-16T07:41:54Z</time>
      </trkpt>
      <trkpt lat="45.65596" lon="6.56339">
        <ele>2105</ele>
        <time>2022-07-16T07:41:55Z</time>
      </trkpt>
      <trkpt lat="45.65598" lon="6.56341">
        <ele>2105</ele>
        <time>2022-07-16T07:41:56Z</time>
      </trkpt>
      <trkpt lat="45.656" lon="6.56346">
        <ele>2105</ele>
        <time>2022-07-16T07:41:57Z</time>
      </trkpt>
      <trkpt lat="45.656" lon="6.56347">
        <ele>2105</ele>
        <time>2022-07-16T07:41:58Z</time>
      </trkpt>
      <trkpt lat="45.65602" lon="6.5635">
        <ele>2104</ele>
        <time>2022-07-16T07:41:59Z</time>
      </trkpt>
      <trkpt lat="45.65603" lon="6.56353">
        <ele>2102</ele>
        <time>2022-07-16T07:42:00Z</time>
      </trkpt>
      <trkpt lat="45.65604" lon="6.56357">
        <ele>2102</ele>
        <time>2022-07-16T07:42:01Z</time>
      </trkpt>
      <trkpt lat="45.65605" lon="6.5636">
        <ele>2102</ele>
        <time>2022-07-16T07:42:02Z</time>
      </trkpt>
      <trkpt lat="45.65606" lon="6.56363">
        <ele>2102</ele>
        <time>2022-07-16T07:42:03Z</time>
      </trkpt>
      <trkpt lat="45.65607" lon="6.56366">
        <ele>2102</ele>
        <time>2022-07-16T07:42:04Z</time>
      </trkpt>
      <trkpt lat="45.65608" lon="6.56369">
        <ele>2101</ele>
        <time>2022-07-16T07:42:05Z</time>
      </trkpt>
      <trkpt lat="45.65609" lon="6.56372">
        <ele>2101</ele>
        <time>2022-07-16T07:42:06Z</time>
      </trkpt>
      <trkpt lat="45.6561" lon="6.56375">
        <ele>2100</ele>
        <time>2022-07-16T07:42:07Z</time>
      </trkpt>
      <trkpt lat="45.65611" lon="6.56379">
        <ele>2100</ele>
        <time>2022-07-16T07:42:08Z</time>
      </trkpt>
      <trkpt lat="45.65612" lon="6.56381">
        <ele>2100</ele>
        <time>2022-07-16T07:42:09Z</time>
      </trkpt>
      <trkpt lat="45.65614" lon="6.56384">
        <ele>2100</ele>
        <time>2022-07-16T07:42:10Z</time>
      </trkpt>
      <trkpt lat="45.65615" lon="6.56387">
        <ele>2099</ele>
        <time>2022-07-16T07:42:11Z</time>
      </trkpt>
      <trkpt lat="45.65616" lon="6.5639">
        <ele>2098</ele>
        <time>2022-07-16T07:42:12Z</time>
      </trkpt>
      <trkpt lat="45.65618" lon="6.56394">
        <ele>2098</ele>
        <time>2022-07-16T07:42:13Z</time>
      </trkpt>
      <trkpt lat="45.65619" lon="6.56395">
        <ele>2097</ele>
        <time>2022-07-16T07:42:14Z</time>
      </trkpt>
      <trkpt lat="45.65621" lon="6.56397">
        <ele>2097</ele>
        <time>2022-07-16T07:42:15Z</time>
      </trkpt>
      <trkpt lat="45.65622" lon="6.56399">
        <ele>2097</ele>
        <time>2022-07-16T07:42:16Z</time>
      </trkpt>
      <trkpt lat="45.65624" lon="6.56401">
        <ele>2097</ele>
        <time>2022-07-16T07:42:17Z</time>
      </trkpt>
      <trkpt lat="45.65626" lon="6.56402">
        <ele>2097</ele>
        <time>2022-07-16T07:42:18Z</time>
      </trkpt>
      <trkpt lat="45.65628" lon="6.56404">
        <ele>2097</ele>
        <time>2022-07-16T07:42:19Z</time>
      </trkpt>
      <trkpt lat="45.6563" lon="6.56405">
        <ele>2096</ele>
        <time>2022-07-16T07:42:20Z</time>
      </trkpt>
      <trkpt lat="45.65632" lon="6.56406">
        <ele>2096</ele>
        <time>2022-07-16T07:42:21Z</time>
      </trkpt>
      <trkpt lat="45.65634" lon="6.56408">
        <ele>2095</ele>
        <time>2022-07-16T07:42:22Z</time>
      </trkpt>
      <trkpt lat="45.65637" lon="6.56409">
        <ele>2095</ele>
        <time>2022-07-16T07:42:23Z</time>
      </trkpt>
      <trkpt lat="45.65639" lon="6.5641">
        <ele>2095</ele>
        <time>2022-07-16T07:42:24Z</time>
      </trkpt>
      <trkpt lat="45.65641" lon="6.56411">
        <ele>2095</ele>
        <time>2022-07-16T07:42:25Z</time>
      </trkpt>
      <trkpt lat="45.65644" lon="6.56413">
        <ele>2095</ele>
        <time>2022-07-16T07:42:26Z</time>
      </trkpt>
      <trkpt lat="45.65646" lon="6.56414">
        <ele>2094</ele>
        <time>2022-07-16T07:42:27Z</time>
      </trkpt>
      <trkpt lat="45.65647" lon="6.56416">
        <ele>2094</ele>
        <time>2022-07-16T07:42:28Z</time>
      </trkpt>
      <trkpt lat="45.65649" lon="6.56418">
        <ele>2094</ele>
        <time>2022-07-16T07:42:29Z</time>
      </trkpt>
      <trkpt lat="45.65651" lon="6.5642">
        <ele>2093</ele>
        <time>2022-07-16T07:42:30Z</time>
      </trkpt>
      <trkpt lat="45.65653" lon="6.56422">
        <ele>2093</ele>
        <time>2022-07-16T07:42:31Z</time>
      </trkpt>
      <trkpt lat="45.65655" lon="6.56424">
        <ele>2092</ele>
        <time>2022-07-16T07:42:32Z</time>
      </trkpt>
      <trkpt lat="45.65657" lon="6.56426">
        <ele>2090</ele>
        <time>2022-07-16T07:42:33Z</time>
      </trkpt>
      <trkpt lat="45.65658" lon="6.56428">
        <ele>2090</ele>
        <time>2022-07-16T07:42:34Z</time>
      </trkpt>
      <trkpt lat="45.6566" lon="6.56431">
        <ele>2089</ele>
        <time>2022-07-16T07:42:35Z</time>
      </trkpt>
      <trkpt lat="45.65661" lon="6.56433">
        <ele>2089</ele>
        <time>2022-07-16T07:42:36Z</time>
      </trkpt>
      <trkpt lat="45.65663" lon="6.56436">
        <ele>2089</ele>
        <time>2022-07-16T07:42:37Z</time>
      </trkpt>
      <trkpt lat="45.65664" lon="6.56438">
        <ele>2088</ele>
        <time>2022-07-16T07:42:38Z</time>
      </trkpt>
      <trkpt lat="45.65666" lon="6.56441">
        <ele>2087</ele>
        <time>2022-07-16T07:42:39Z</time>
      </trkpt>
      <trkpt lat="45.65668" lon="6.56444">
        <ele>2087</ele>
        <time>2022-07-16T07:42:40Z</time>
      </trkpt>
      <trkpt lat="45.65669" lon="6.56446">
        <ele>2087</ele>
        <time>2022-07-16T07:42:41Z</time>
      </trkpt>
      <trkpt lat="45.65671" lon="6.56449">
        <ele>2086</ele>
        <time>2022-07-16T07:42:42Z</time>
      </trkpt>
      <trkpt lat="45.65672" lon="6.56452">
        <ele>2086</ele>
        <time>2022-07-16T07:42:43Z</time>
      </trkpt>
      <trkpt lat="45.65673" lon="6.56454">
        <ele>2086</ele>
        <time>2022-07-16T07:42:44Z</time>
      </trkpt>
      <trkpt lat="45.65675" lon="6.56457">
        <ele>2085</ele>
        <time>2022-07-16T07:42:45Z</time>
      </trkpt>
      <trkpt lat="45.65676" lon="6.5646">
        <ele>2085</ele>
        <time>2022-07-16T07:42:46Z</time>
      </trkpt>
      <trkpt lat="45.65678" lon="6.56462">
        <ele>2085</ele>
        <time>2022-07-16T07:42:47Z</time>
      </trkpt>
      <trkpt lat="45.65679" lon="6.56465">
        <ele>2084</ele>
        <time>2022-07-16T07:42:48Z</time>
      </trkpt>
      <trkpt lat="45.65681" lon="6.56468">
        <ele>2084</ele>
        <time>2022-07-16T07:42:49Z</time>
      </trkpt>
      <trkpt lat="45.65682" lon="6.56471">
        <ele>2084</ele>
        <time>2022-07-16T07:42:50Z</time>
      </trkpt>
      <trkpt lat="45.65683" lon="6.56474">
        <ele>2084</ele>
        <time>2022-07-16T07:42:51Z</time>
      </trkpt>
      <trkpt lat="45.65686" lon="6.56478">
        <ele>2083</ele>
        <time>2022-07-16T07:42:52Z</time>
      </trkpt>
      <trkpt lat="45.65686" lon="6.56479">
        <ele>2083</ele>
        <time>2022-07-16T07:42:53Z</time>
      </trkpt>
      <trkpt lat="45.65689" lon="6.56483">
        <ele>2083</ele>
        <time>2022-07-16T07:42:54Z</time>
      </trkpt>
      <trkpt lat="45.6569" lon="6.56484">
        <ele>2083</ele>
        <time>2022-07-16T07:42:55Z</time>
      </trkpt>
      <trkpt lat="45.65692" lon="6.56488">
        <ele>2082</ele>
        <time>2022-07-16T07:42:56Z</time>
      </trkpt>
      <trkpt lat="45.65693" lon="6.56489">
        <ele>2082</ele>
        <time>2022-07-16T07:42:57Z</time>
      </trkpt>
      <trkpt lat="45.65695" lon="6.56492">
        <ele>2082</ele>
        <time>2022-07-16T07:42:58Z</time>
      </trkpt>
      <trkpt lat="45.65696" lon="6.56494">
        <ele>2082</ele>
        <time>2022-07-16T07:42:59Z</time>
      </trkpt>
      <trkpt lat="45.65698" lon="6.56497">
        <ele>2082</ele>
        <time>2022-07-16T07:43:00Z</time>
      </trkpt>
      <trkpt lat="45.657" lon="6.56499">
        <ele>2082</ele>
        <time>2022-07-16T07:43:01Z</time>
      </trkpt>
      <trkpt lat="45.65702" lon="6.56501">
        <ele>2082</ele>
        <time>2022-07-16T07:43:02Z</time>
      </trkpt>
      <trkpt lat="45.65703" lon="6.56503">
        <ele>2082</ele>
        <time>2022-07-16T07:43:03Z</time>
      </trkpt>
      <trkpt lat="45.65705" lon="6.56505">
        <ele>2082</ele>
        <time>2022-07-16T07:43:04Z</time>
      </trkpt>
      <trkpt lat="45.65707" lon="6.56507">
        <ele>2081</ele>
        <time>2022-07-16T07:43:05Z</time>
      </trkpt>
      <trkpt lat="45.65709" lon="6.5651">
        <ele>2081</ele>
        <time>2022-07-16T07:43:06Z</time>
      </trkpt>
      <trkpt lat="45.65711" lon="6.56511">
        <ele>2081</ele>
        <time>2022-07-16T07:43:07Z</time>
      </trkpt>
      <trkpt lat="45.65713" lon="6.56513">
        <ele>2081</ele>
        <time>2022-07-16T07:43:08Z</time>
      </trkpt>
      <trkpt lat="45.65715" lon="6.56515">
        <ele>2080</ele>
        <time>2022-07-16T07:43:09Z</time>
      </trkpt>
      <trkpt lat="45.65717" lon="6.56516">
        <ele>2080</ele>
        <time>2022-07-16T07:43:10Z</time>
      </trkpt>
      <trkpt lat="45.65718" lon="6.56518">
        <ele>2080</ele>
        <time>2022-07-16T07:43:11Z</time>
      </trkpt>
      <trkpt lat="45.6572" lon="6.56519">
        <ele>2080</ele>
        <time>2022-07-16T07:43:12Z</time>
      </trkpt>
      <trkpt lat="45.65722" lon="6.5652">
        <ele>2080</ele>
        <time>2022-07-16T07:43:13Z</time>
      </trkpt>
      <trkpt lat="45.65724" lon="6.56521">
        <ele>2079</ele>
        <time>2022-07-16T07:43:14Z</time>
      </trkpt>
      <trkpt lat="45.65726" lon="6.56522">
        <ele>2079</ele>
        <time>2022-07-16T07:43:15Z</time>
      </trkpt>
      <trkpt lat="45.65728" lon="6.56523">
        <ele>2079</ele>
        <time>2022-07-16T07:43:16Z</time>
      </trkpt>
      <trkpt lat="45.6573" lon="6.56524">
        <ele>2079</ele>
        <time>2022-07-16T07:43:17Z</time>
      </trkpt>
      <trkpt lat="45.65732" lon="6.56526">
        <ele>2079</ele>
        <time>2022-07-16T07:43:18Z</time>
      </trkpt>
      <trkpt lat="45.65734" lon="6.56527">
        <ele>2079</ele>
        <time>2022-07-16T07:43:19Z</time>
      </trkpt>
      <trkpt lat="45.65736" lon="6.56528">
        <ele>2078</ele>
        <time>2022-07-16T07:43:20Z</time>
      </trkpt>
      <trkpt lat="45.65738" lon="6.56529">
        <ele>2077</ele>
        <time>2022-07-16T07:43:21Z</time>
      </trkpt>
      <trkpt lat="45.6574" lon="6.5653">
        <ele>2077</ele>
        <time>2022-07-16T07:43:22Z</time>
      </trkpt>
      <trkpt lat="45.65742" lon="6.56531">
        <ele>2077</ele>
        <time>2022-07-16T07:43:23Z</time>
      </trkpt>
      <trkpt lat="45.65745" lon="6.56532">
        <ele>2076</ele>
        <time>2022-07-16T07:43:24Z</time>
      </trkpt>
      <trkpt lat="45.65747" lon="6.56533">
        <ele>2076</ele>
        <time>2022-07-16T07:43:25Z</time>
      </trkpt>
      <trkpt lat="45.65749" lon="6.56535">
        <ele>2076</ele>
        <time>2022-07-16T07:43:26Z</time>
      </trkpt>
      <trkpt lat="45.65751" lon="6.56536">
        <ele>2076</ele>
        <time>2022-07-16T07:43:27Z</time>
      </trkpt>
      <trkpt lat="45.65753" lon="6.56536">
        <ele>2076</ele>
        <time>2022-07-16T07:43:28Z</time>
      </trkpt>
      <trkpt lat="45.65756" lon="6.56537">
        <ele>2075</ele>
        <time>2022-07-16T07:43:29Z</time>
      </trkpt>
      <trkpt lat="45.65759" lon="6.56539">
        <ele>2075</ele>
        <time>2022-07-16T07:43:30Z</time>
      </trkpt>
      <trkpt lat="45.6576" lon="6.5654">
        <ele>2075</ele>
        <time>2022-07-16T07:43:31Z</time>
      </trkpt>
      <trkpt lat="45.65762" lon="6.56541">
        <ele>2075</ele>
        <time>2022-07-16T07:43:32Z</time>
      </trkpt>
      <trkpt lat="45.65764" lon="6.56543">
        <ele>2075</ele>
        <time>2022-07-16T07:43:33Z</time>
      </trkpt>
      <trkpt lat="45.65766" lon="6.56545">
        <ele>2074</ele>
        <time>2022-07-16T07:43:34Z</time>
      </trkpt>
      <trkpt lat="45.65768" lon="6.56547">
        <ele>2073</ele>
        <time>2022-07-16T07:43:35Z</time>
      </trkpt>
      <trkpt lat="45.65769" lon="6.56548">
        <ele>2072</ele>
        <time>2022-07-16T07:43:36Z</time>
      </trkpt>
      <trkpt lat="45.65772" lon="6.5655">
        <ele>2072</ele>
        <time>2022-07-16T07:43:37Z</time>
      </trkpt>
      <trkpt lat="45.65774" lon="6.56551">
        <ele>2072</ele>
        <time>2022-07-16T07:43:38Z</time>
      </trkpt>
      <trkpt lat="45.65776" lon="6.56553">
        <ele>2072</ele>
        <time>2022-07-16T07:43:39Z</time>
      </trkpt>
      <trkpt lat="45.65778" lon="6.56555">
        <ele>2071</ele>
        <time>2022-07-16T07:43:40Z</time>
      </trkpt>
      <trkpt lat="45.6578" lon="6.56556">
        <ele>2070</ele>
        <time>2022-07-16T07:43:41Z</time>
      </trkpt>
      <trkpt lat="45.65783" lon="6.56557">
        <ele>2070</ele>
        <time>2022-07-16T07:43:42Z</time>
      </trkpt>
      <trkpt lat="45.65785" lon="6.56559">
        <ele>2070</ele>
        <time>2022-07-16T07:43:43Z</time>
      </trkpt>
      <trkpt lat="45.65787" lon="6.56561">
        <ele>2070</ele>
        <time>2022-07-16T07:43:44Z</time>
      </trkpt>
      <trkpt lat="45.6579" lon="6.56564">
        <ele>2070</ele>
        <time>2022-07-16T07:43:45Z</time>
      </trkpt>
      <trkpt lat="45.65791" lon="6.56565">
        <ele>2069</ele>
        <time>2022-07-16T07:43:46Z</time>
      </trkpt>
      <trkpt lat="45.65793" lon="6.56567">
        <ele>2068</ele>
        <time>2022-07-16T07:43:47Z</time>
      </trkpt>
      <trkpt lat="45.65796" lon="6.5657">
        <ele>2068</ele>
        <time>2022-07-16T07:43:48Z</time>
      </trkpt>
      <trkpt lat="45.65797" lon="6.56571">
        <ele>2068</ele>
        <time>2022-07-16T07:43:49Z</time>
      </trkpt>
      <trkpt lat="45.65799" lon="6.56573">
        <ele>2068</ele>
        <time>2022-07-16T07:43:50Z</time>
      </trkpt>
      <trkpt lat="45.65801" lon="6.56574">
        <ele>2068</ele>
        <time>2022-07-16T07:43:51Z</time>
      </trkpt>
      <trkpt lat="45.65803" lon="6.56576">
        <ele>2068</ele>
        <time>2022-07-16T07:43:52Z</time>
      </trkpt>
      <trkpt lat="45.65805" lon="6.56578">
        <ele>2068</ele>
        <time>2022-07-16T07:43:53Z</time>
      </trkpt>
      <trkpt lat="45.65807" lon="6.5658">
        <ele>2068</ele>
        <time>2022-07-16T07:43:54Z</time>
      </trkpt>
      <trkpt lat="45.65809" lon="6.56582">
        <ele>2067</ele>
        <time>2022-07-16T07:43:55Z</time>
      </trkpt>
      <trkpt lat="45.65811" lon="6.56584">
        <ele>2066</ele>
        <time>2022-07-16T07:43:56Z</time>
      </trkpt>
      <trkpt lat="45.65813" lon="6.56586">
        <ele>2064</ele>
        <time>2022-07-16T07:43:57Z</time>
      </trkpt>
      <trkpt lat="45.65815" lon="6.56588">
        <ele>2064</ele>
        <time>2022-07-16T07:43:58Z</time>
      </trkpt>
      <trkpt lat="45.65817" lon="6.5659">
        <ele>2064</ele>
        <time>2022-07-16T07:43:59Z</time>
      </trkpt>
      <trkpt lat="45.65818" lon="6.56591">
        <ele>2063</ele>
        <time>2022-07-16T07:44:00Z</time>
      </trkpt>
      <trkpt lat="45.6582" lon="6.56593">
        <ele>2063</ele>
        <time>2022-07-16T07:44:01Z</time>
      </trkpt>
      <trkpt lat="45.65822" lon="6.56594">
        <ele>2063</ele>
        <time>2022-07-16T07:44:02Z</time>
      </trkpt>
      <trkpt lat="45.65824" lon="6.56596">
        <ele>2063</ele>
        <time>2022-07-16T07:44:03Z</time>
      </trkpt>
      <trkpt lat="45.65826" lon="6.56598">
        <ele>2063</ele>
        <time>2022-07-16T07:44:04Z</time>
      </trkpt>
      <trkpt lat="45.65828" lon="6.566">
        <ele>2063</ele>
        <time>2022-07-16T07:44:05Z</time>
      </trkpt>
      <trkpt lat="45.6583" lon="6.56601">
        <ele>2062</ele>
        <time>2022-07-16T07:44:06Z</time>
      </trkpt>
      <trkpt lat="45.65832" lon="6.56603">
        <ele>2061</ele>
        <time>2022-07-16T07:44:07Z</time>
      </trkpt>
      <trkpt lat="45.65834" lon="6.56605">
        <ele>2061</ele>
        <time>2022-07-16T07:44:08Z</time>
      </trkpt>
      <trkpt lat="45.65836" lon="6.56606">
        <ele>2061</ele>
        <time>2022-07-16T07:44:09Z</time>
      </trkpt>
      <trkpt lat="45.65839" lon="6.56608">
        <ele>2061</ele>
        <time>2022-07-16T07:44:10Z</time>
      </trkpt>
      <trkpt lat="45.65841" lon="6.5661">
        <ele>2061</ele>
        <time>2022-07-16T07:44:11Z</time>
      </trkpt>
      <trkpt lat="45.65844" lon="6.56613">
        <ele>2061</ele>
        <time>2022-07-16T07:44:12Z</time>
      </trkpt>
      <trkpt lat="45.65845" lon="6.56614">
        <ele>2061</ele>
        <time>2022-07-16T07:44:13Z</time>
      </trkpt>
      <trkpt lat="45.65847" lon="6.56616">
        <ele>2061</ele>
        <time>2022-07-16T07:44:14Z</time>
      </trkpt>
      <trkpt lat="45.65849" lon="6.56619">
        <ele>2060</ele>
        <time>2022-07-16T07:44:15Z</time>
      </trkpt>
      <trkpt lat="45.65851" lon="6.5662">
        <ele>2060</ele>
        <time>2022-07-16T07:44:16Z</time>
      </trkpt>
      <trkpt lat="45.65853" lon="6.56622">
        <ele>2060</ele>
        <time>2022-07-16T07:44:17Z</time>
      </trkpt>
      <trkpt lat="45.65856" lon="6.56624">
        <ele>2060</ele>
        <time>2022-07-16T07:44:18Z</time>
      </trkpt>
      <trkpt lat="45.65857" lon="6.56625">
        <ele>2060</ele>
        <time>2022-07-16T07:44:19Z</time>
      </trkpt>
      <trkpt lat="45.65859" lon="6.56626">
        <ele>2059</ele>
        <time>2022-07-16T07:44:20Z</time>
      </trkpt>
      <trkpt lat="45.6586" lon="6.56628">
        <ele>2059</ele>
        <time>2022-07-16T07:44:21Z</time>
      </trkpt>
      <trkpt lat="45.65862" lon="6.56629">
        <ele>2059</ele>
        <time>2022-07-16T07:44:22Z</time>
      </trkpt>
      <trkpt lat="45.65864" lon="6.5663">
        <ele>2059</ele>
        <time>2022-07-16T07:44:23Z</time>
      </trkpt>
      <trkpt lat="45.65866" lon="6.56631">
        <ele>2059</ele>
        <time>2022-07-16T07:44:24Z</time>
      </trkpt>
      <trkpt lat="45.65868" lon="6.56632">
        <ele>2058</ele>
        <time>2022-07-16T07:44:25Z</time>
      </trkpt>
      <trkpt lat="45.6587" lon="6.56633">
        <ele>2058</ele>
        <time>2022-07-16T07:44:26Z</time>
      </trkpt>
      <trkpt lat="45.65872" lon="6.56634">
        <ele>2058</ele>
        <time>2022-07-16T07:44:27Z</time>
      </trkpt>
      <trkpt lat="45.65873" lon="6.56634">
        <ele>2057</ele>
        <time>2022-07-16T07:44:28Z</time>
      </trkpt>
      <trkpt lat="45.65875" lon="6.56635">
        <ele>2057</ele>
        <time>2022-07-16T07:44:29Z</time>
      </trkpt>
      <trkpt lat="45.65877" lon="6.56636">
        <ele>2057</ele>
        <time>2022-07-16T07:44:30Z</time>
      </trkpt>
      <trkpt lat="45.65879" lon="6.56636">
        <ele>2057</ele>
        <time>2022-07-16T07:44:31Z</time>
      </trkpt>
      <trkpt lat="45.65881" lon="6.56637">
        <ele>2057</ele>
        <time>2022-07-16T07:44:32Z</time>
      </trkpt>
      <trkpt lat="45.65883" lon="6.56638">
        <ele>2056</ele>
        <time>2022-07-16T07:44:33Z</time>
      </trkpt>
      <trkpt lat="45.65886" lon="6.56641">
        <ele>2056</ele>
        <time>2022-07-16T07:44:35Z</time>
      </trkpt>
      <trkpt lat="45.65886" lon="6.56646">
        <ele>2056</ele>
        <time>2022-07-16T07:44:37Z</time>
      </trkpt>
      <trkpt lat="45.65885" lon="6.5665">
        <ele>2056</ele>
        <time>2022-07-16T07:44:39Z</time>
      </trkpt>
      <trkpt lat="45.65883" lon="6.56653">
        <ele>2056</ele>
        <time>2022-07-16T07:44:41Z</time>
      </trkpt>
      <trkpt lat="45.6588" lon="6.56655">
        <ele>2055</ele>
        <time>2022-07-16T07:44:43Z</time>
      </trkpt>
      <trkpt lat="45.65877" lon="6.56657">
        <ele>2055</ele>
        <time>2022-07-16T07:44:45Z</time>
      </trkpt>
      <trkpt lat="45.65875" lon="6.56657">
        <ele>2054</ele>
        <time>2022-07-16T07:44:46Z</time>
      </trkpt>
      <trkpt lat="45.65873" lon="6.56657">
        <ele>2054</ele>
        <time>2022-07-16T07:44:47Z</time>
      </trkpt>
      <trkpt lat="45.65871" lon="6.56657">
        <ele>2053</ele>
        <time>2022-07-16T07:44:48Z</time>
      </trkpt>
      <trkpt lat="45.65869" lon="6.56657">
        <ele>2052</ele>
        <time>2022-07-16T07:44:49Z</time>
      </trkpt>
      <trkpt lat="45.65867" lon="6.56656">
        <ele>2052</ele>
        <time>2022-07-16T07:44:50Z</time>
      </trkpt>
      <trkpt lat="45.65864" lon="6.56656">
        <ele>2051</ele>
        <time>2022-07-16T07:44:52Z</time>
      </trkpt>
      <trkpt lat="45.65861" lon="6.56655">
        <ele>2051</ele>
        <time>2022-07-16T07:44:54Z</time>
      </trkpt>
      <trkpt lat="45.65858" lon="6.56655">
        <ele>2052</ele>
        <time>2022-07-16T07:44:56Z</time>
      </trkpt>
      <trkpt lat="45.65855" lon="6.56655">
        <ele>2051</ele>
        <time>2022-07-16T07:44:58Z</time>
      </trkpt>
      <trkpt lat="45.65852" lon="6.56654">
        <ele>2051</ele>
        <time>2022-07-16T07:45:00Z</time>
      </trkpt>
      <trkpt lat="45.65849" lon="6.56653">
        <ele>2051</ele>
        <time>2022-07-16T07:45:02Z</time>
      </trkpt>
      <trkpt lat="45.65846" lon="6.56653">
        <ele>2050</ele>
        <time>2022-07-16T07:45:04Z</time>
      </trkpt>
      <trkpt lat="45.65843" lon="6.56654">
        <ele>2050</ele>
        <time>2022-07-16T07:45:06Z</time>
      </trkpt>
      <trkpt lat="45.65841" lon="6.56655">
        <ele>2050</ele>
        <time>2022-07-16T07:45:07Z</time>
      </trkpt>
      <trkpt lat="45.65839" lon="6.56656">
        <ele>2049</ele>
        <time>2022-07-16T07:45:08Z</time>
      </trkpt>
      <trkpt lat="45.65837" lon="6.56657">
        <ele>2049</ele>
        <time>2022-07-16T07:45:09Z</time>
      </trkpt>
      <trkpt lat="45.65835" lon="6.56658">
        <ele>2049</ele>
        <time>2022-07-16T07:45:10Z</time>
      </trkpt>
      <trkpt lat="45.65832" lon="6.5666">
        <ele>2049</ele>
        <time>2022-07-16T07:45:12Z</time>
      </trkpt>
      <trkpt lat="45.65829" lon="6.56663">
        <ele>2049</ele>
        <time>2022-07-16T07:45:14Z</time>
      </trkpt>
      <trkpt lat="45.65828" lon="6.56665">
        <ele>2048</ele>
        <time>2022-07-16T07:45:15Z</time>
      </trkpt>
      <trkpt lat="45.65826" lon="6.56666">
        <ele>2048</ele>
        <time>2022-07-16T07:45:16Z</time>
      </trkpt>
      <trkpt lat="45.65824" lon="6.56667">
        <ele>2048</ele>
        <time>2022-07-16T07:45:17Z</time>
      </trkpt>
      <trkpt lat="45.65822" lon="6.56667">
        <ele>2048</ele>
        <time>2022-07-16T07:45:18Z</time>
      </trkpt>
      <trkpt lat="45.65819" lon="6.56667">
        <ele>2047</ele>
        <time>2022-07-16T07:45:19Z</time>
      </trkpt>
      <trkpt lat="45.65817" lon="6.56667">
        <ele>2047</ele>
        <time>2022-07-16T07:45:20Z</time>
      </trkpt>
      <trkpt lat="45.65815" lon="6.56667">
        <ele>2048</ele>
        <time>2022-07-16T07:45:22Z</time>
      </trkpt>
      <trkpt lat="45.65812" lon="6.56667">
        <ele>2048</ele>
        <time>2022-07-16T07:45:24Z</time>
      </trkpt>
      <trkpt lat="45.6581" lon="6.56667">
        <ele>2048</ele>
        <time>2022-07-16T07:45:25Z</time>
      </trkpt>
      <trkpt lat="45.65809" lon="6.56667">
        <ele>2048</ele>
        <time>2022-07-16T07:45:26Z</time>
      </trkpt>
      <trkpt lat="45.65807" lon="6.56668">
        <ele>2048</ele>
        <time>2022-07-16T07:45:27Z</time>
      </trkpt>
      <trkpt lat="45.65804" lon="6.56668">
        <ele>2048</ele>
        <time>2022-07-16T07:45:29Z</time>
      </trkpt>
      <trkpt lat="45.65802" lon="6.56669">
        <ele>2048</ele>
        <time>2022-07-16T07:45:31Z</time>
      </trkpt>
      <trkpt lat="45.65799" lon="6.56669">
        <ele>2047</ele>
        <time>2022-07-16T07:45:33Z</time>
      </trkpt>
      <trkpt lat="45.65796" lon="6.56669">
        <ele>2046</ele>
        <time>2022-07-16T07:45:35Z</time>
      </trkpt>
      <trkpt lat="45.65793" lon="6.56668">
        <ele>2046</ele>
        <time>2022-07-16T07:45:37Z</time>
      </trkpt>
      <trkpt lat="45.6579" lon="6.56668">
        <ele>2046</ele>
        <time>2022-07-16T07:45:39Z</time>
      </trkpt>
      <trkpt lat="45.65788" lon="6.56669">
        <ele>2045</ele>
        <time>2022-07-16T07:45:40Z</time>
      </trkpt>
      <trkpt lat="45.65787" lon="6.56669">
        <ele>2045</ele>
        <time>2022-07-16T07:45:41Z</time>
      </trkpt>
      <trkpt lat="45.65785" lon="6.5667">
        <ele>2045</ele>
        <time>2022-07-16T07:45:42Z</time>
      </trkpt>
      <trkpt lat="45.65782" lon="6.56669">
        <ele>2045</ele>
        <time>2022-07-16T07:45:44Z</time>
      </trkpt>
      <trkpt lat="45.65779" lon="6.56668">
        <ele>2045</ele>
        <time>2022-07-16T07:45:46Z</time>
      </trkpt>
      <trkpt lat="45.65776" lon="6.56669">
        <ele>2045</ele>
        <time>2022-07-16T07:45:48Z</time>
      </trkpt>
      <trkpt lat="45.65774" lon="6.5667">
        <ele>2045</ele>
        <time>2022-07-16T07:45:50Z</time>
      </trkpt>
      <trkpt lat="45.65772" lon="6.56673">
        <ele>2045</ele>
        <time>2022-07-16T07:45:52Z</time>
      </trkpt>
      <trkpt lat="45.6577" lon="6.56675">
        <ele>2045</ele>
        <time>2022-07-16T07:45:54Z</time>
      </trkpt>
      <trkpt lat="45.65768" lon="6.56677">
        <ele>2045</ele>
        <time>2022-07-16T07:45:56Z</time>
      </trkpt>
      <trkpt lat="45.65765" lon="6.56677">
        <ele>2044</ele>
        <time>2022-07-16T07:45:58Z</time>
      </trkpt>
      <trkpt lat="45.6576" lon="6.56678">
        <ele>2043</ele>
        <time>2022-07-16T07:46:00Z</time>
      </trkpt>
      <trkpt lat="45.65759" lon="6.56679">
        <ele>2043</ele>
        <time>2022-07-16T07:46:01Z</time>
      </trkpt>
      <trkpt lat="45.65757" lon="6.56679">
        <ele>2043</ele>
        <time>2022-07-16T07:46:02Z</time>
      </trkpt>
      <trkpt lat="45.65755" lon="6.5668">
        <ele>2043</ele>
        <time>2022-07-16T07:46:04Z</time>
      </trkpt>
      <trkpt lat="45.65752" lon="6.56681">
        <ele>2042</ele>
        <time>2022-07-16T07:46:06Z</time>
      </trkpt>
      <trkpt lat="45.6575" lon="6.56683">
        <ele>2042</ele>
        <time>2022-07-16T07:46:07Z</time>
      </trkpt>
      <trkpt lat="45.65749" lon="6.56684">
        <ele>2042</ele>
        <time>2022-07-16T07:46:08Z</time>
      </trkpt>
      <trkpt lat="45.65747" lon="6.56686">
        <ele>2042</ele>
        <time>2022-07-16T07:46:09Z</time>
      </trkpt>
      <trkpt lat="45.65745" lon="6.56688">
        <ele>2042</ele>
        <time>2022-07-16T07:46:10Z</time>
      </trkpt>
      <trkpt lat="45.65744" lon="6.5669">
        <ele>2042</ele>
        <time>2022-07-16T07:46:11Z</time>
      </trkpt>
      <trkpt lat="45.65743" lon="6.56692">
        <ele>2042</ele>
        <time>2022-07-16T07:46:12Z</time>
      </trkpt>
      <trkpt lat="45.65741" lon="6.56694">
        <ele>2042</ele>
        <time>2022-07-16T07:46:13Z</time>
      </trkpt>
      <trkpt lat="45.65739" lon="6.56697">
        <ele>2042</ele>
        <time>2022-07-16T07:46:15Z</time>
      </trkpt>
      <trkpt lat="45.65738" lon="6.567">
        <ele>2042</ele>
        <time>2022-07-16T07:46:17Z</time>
      </trkpt>
      <trkpt lat="45.65738" lon="6.56704">
        <ele>2042</ele>
        <time>2022-07-16T07:46:19Z</time>
      </trkpt>
      <trkpt lat="45.65736" lon="6.56707">
        <ele>2043</ele>
        <time>2022-07-16T07:46:21Z</time>
      </trkpt>
      <trkpt lat="45.65735" lon="6.56709">
        <ele>2043</ele>
        <time>2022-07-16T07:46:23Z</time>
      </trkpt>
      <trkpt lat="45.65734" lon="6.56712">
        <ele>2044</ele>
        <time>2022-07-16T07:46:25Z</time>
      </trkpt>
      <trkpt lat="45.65733" lon="6.56715">
        <ele>2044</ele>
        <time>2022-07-16T07:46:27Z</time>
      </trkpt>
      <trkpt lat="45.65732" lon="6.56718">
        <ele>2044</ele>
        <time>2022-07-16T07:46:29Z</time>
      </trkpt>
      <trkpt lat="45.6573" lon="6.56722">
        <ele>2044</ele>
        <time>2022-07-16T07:46:31Z</time>
      </trkpt>
      <trkpt lat="45.65727" lon="6.56725">
        <ele>2044</ele>
        <time>2022-07-16T07:46:33Z</time>
      </trkpt>
      <trkpt lat="45.65724" lon="6.56727">
        <ele>2044</ele>
        <time>2022-07-16T07:46:35Z</time>
      </trkpt>
      <trkpt lat="45.65721" lon="6.56729">
        <ele>2044</ele>
        <time>2022-07-16T07:46:37Z</time>
      </trkpt>
      <trkpt lat="45.65718" lon="6.56731">
        <ele>2044</ele>
        <time>2022-07-16T07:46:39Z</time>
      </trkpt>
      <trkpt lat="45.65714" lon="6.56733">
        <ele>2044</ele>
        <time>2022-07-16T07:46:41Z</time>
      </trkpt>
      <trkpt lat="45.65711" lon="6.56734">
        <ele>2043</ele>
        <time>2022-07-16T07:46:42Z</time>
      </trkpt>
      <trkpt lat="45.6571" lon="6.56734">
        <ele>2042</ele>
        <time>2022-07-16T07:46:43Z</time>
      </trkpt>
      <trkpt lat="45.65708" lon="6.56734">
        <ele>2043</ele>
        <time>2022-07-16T07:46:44Z</time>
      </trkpt>
      <trkpt lat="45.65706" lon="6.56733">
        <ele>2043</ele>
        <time>2022-07-16T07:46:45Z</time>
      </trkpt>
      <trkpt lat="45.65704" lon="6.56732">
        <ele>2043</ele>
        <time>2022-07-16T07:46:47Z</time>
      </trkpt>
      <trkpt lat="45.65702" lon="6.56731">
        <ele>2043</ele>
        <time>2022-07-16T07:46:49Z</time>
      </trkpt>
      <trkpt lat="45.65699" lon="6.5673">
        <ele>2043</ele>
        <time>2022-07-16T07:46:51Z</time>
      </trkpt>
      <trkpt lat="45.65696" lon="6.56729">
        <ele>2043</ele>
        <time>2022-07-16T07:46:53Z</time>
      </trkpt>
      <trkpt lat="45.65694" lon="6.56727">
        <ele>2043</ele>
        <time>2022-07-16T07:46:55Z</time>
      </trkpt>
      <trkpt lat="45.65692" lon="6.56726">
        <ele>2044</ele>
        <time>2022-07-16T07:46:57Z</time>
      </trkpt>
      <trkpt lat="45.6569" lon="6.56725">
        <ele>2044</ele>
        <time>2022-07-16T07:46:59Z</time>
      </trkpt>
      <trkpt lat="45.65688" lon="6.56722">
        <ele>2044</ele>
        <time>2022-07-16T07:47:01Z</time>
      </trkpt>
      <trkpt lat="45.65688" lon="6.56719">
        <ele>2044</ele>
        <time>2022-07-16T07:47:03Z</time>
      </trkpt>
      <trkpt lat="45.65687" lon="6.56715">
        <ele>2044</ele>
        <time>2022-07-16T07:47:05Z</time>
      </trkpt>
      <trkpt lat="45.65688" lon="6.56712">
        <ele>2045</ele>
        <time>2022-07-16T07:47:07Z</time>
      </trkpt>
      <trkpt lat="45.65687" lon="6.56709">
        <ele>2045</ele>
        <time>2022-07-16T07:47:10Z</time>
      </trkpt>
      <trkpt lat="45.65686" lon="6.56707">
        <ele>2046</ele>
        <time>2022-07-16T07:47:12Z</time>
      </trkpt>
      <trkpt lat="45.65686" lon="6.56704">
        <ele>2046</ele>
        <time>2022-07-16T07:47:14Z</time>
      </trkpt>
      <trkpt lat="45.65686" lon="6.56701">
        <ele>2046</ele>
        <time>2022-07-16T07:47:16Z</time>
      </trkpt>
      <trkpt lat="45.65684" lon="6.56697">
        <ele>2046</ele>
        <time>2022-07-16T07:47:19Z</time>
      </trkpt>
      <trkpt lat="45.65682" lon="6.56695">
        <ele>2047</ele>
        <time>2022-07-16T07:47:21Z</time>
      </trkpt>
      <trkpt lat="45.6568" lon="6.56694">
        <ele>2047</ele>
        <time>2022-07-16T07:47:22Z</time>
      </trkpt>
      <trkpt lat="45.65679" lon="6.56692">
        <ele>2047</ele>
        <time>2022-07-16T07:47:23Z</time>
      </trkpt>
      <trkpt lat="45.65677" lon="6.56691">
        <ele>2047</ele>
        <time>2022-07-16T07:47:24Z</time>
      </trkpt>
      <trkpt lat="45.65674" lon="6.56689">
        <ele>2047</ele>
        <time>2022-07-16T07:47:26Z</time>
      </trkpt>
      <trkpt lat="45.65672" lon="6.56688">
        <ele>2047</ele>
        <time>2022-07-16T07:47:27Z</time>
      </trkpt>
      <trkpt lat="45.6567" lon="6.56687">
        <ele>2046</ele>
        <time>2022-07-16T07:47:28Z</time>
      </trkpt>
      <trkpt lat="45.65667" lon="6.56687">
        <ele>2046</ele>
        <time>2022-07-16T07:47:30Z</time>
      </trkpt>
      <trkpt lat="45.65665" lon="6.56686">
        <ele>2046</ele>
        <time>2022-07-16T07:47:31Z</time>
      </trkpt>
      <trkpt lat="45.65663" lon="6.56686">
        <ele>2045</ele>
        <time>2022-07-16T07:47:32Z</time>
      </trkpt>
      <trkpt lat="45.65661" lon="6.56686">
        <ele>2045</ele>
        <time>2022-07-16T07:47:33Z</time>
      </trkpt>
      <trkpt lat="45.65659" lon="6.56685">
        <ele>2045</ele>
        <time>2022-07-16T07:47:34Z</time>
      </trkpt>
      <trkpt lat="45.65657" lon="6.56684">
        <ele>2045</ele>
        <time>2022-07-16T07:47:35Z</time>
      </trkpt>
      <trkpt lat="45.65655" lon="6.56683">
        <ele>2044</ele>
        <time>2022-07-16T07:47:36Z</time>
      </trkpt>
      <trkpt lat="45.65653" lon="6.56682">
        <ele>2044</ele>
        <time>2022-07-16T07:47:37Z</time>
      </trkpt>
      <trkpt lat="45.65651" lon="6.56682">
        <ele>2044</ele>
        <time>2022-07-16T07:47:38Z</time>
      </trkpt>
      <trkpt lat="45.65649" lon="6.56683">
        <ele>2043</ele>
        <time>2022-07-16T07:47:39Z</time>
      </trkpt>
      <trkpt lat="45.65647" lon="6.56683">
        <ele>2043</ele>
        <time>2022-07-16T07:47:40Z</time>
      </trkpt>
      <trkpt lat="45.65645" lon="6.56684">
        <ele>2043</ele>
        <time>2022-07-16T07:47:41Z</time>
      </trkpt>
      <trkpt lat="45.65643" lon="6.56685">
        <ele>2042</ele>
        <time>2022-07-16T07:47:42Z</time>
      </trkpt>
      <trkpt lat="45.65641" lon="6.56688">
        <ele>2042</ele>
        <time>2022-07-16T07:47:44Z</time>
      </trkpt>
      <trkpt lat="45.65639" lon="6.56692">
        <ele>2042</ele>
        <time>2022-07-16T07:47:46Z</time>
      </trkpt>
      <trkpt lat="45.65637" lon="6.56694">
        <ele>2043</ele>
        <time>2022-07-16T07:47:48Z</time>
      </trkpt>
      <trkpt lat="45.65636" lon="6.56696">
        <ele>2044</ele>
        <time>2022-07-16T07:47:50Z</time>
      </trkpt>
      <trkpt lat="45.65635" lon="6.56699">
        <ele>2044</ele>
        <time>2022-07-16T07:47:53Z</time>
      </trkpt>
      <trkpt lat="45.65632" lon="6.56702">
        <ele>2044</ele>
        <time>2022-07-16T07:47:55Z</time>
      </trkpt>
      <trkpt lat="45.6563" lon="6.56703">
        <ele>2044</ele>
        <time>2022-07-16T07:47:56Z</time>
      </trkpt>
      <trkpt lat="45.65628" lon="6.56703">
        <ele>2044</ele>
        <time>2022-07-16T07:47:57Z</time>
      </trkpt>
      <trkpt lat="45.65625" lon="6.56704">
        <ele>2044</ele>
        <time>2022-07-16T07:47:58Z</time>
      </trkpt>
      <trkpt lat="45.65623" lon="6.56705">
        <ele>2043</ele>
        <time>2022-07-16T07:47:59Z</time>
      </trkpt>
      <trkpt lat="45.65621" lon="6.56706">
        <ele>2042</ele>
        <time>2022-07-16T07:48:00Z</time>
      </trkpt>
      <trkpt lat="45.65619" lon="6.56707">
        <ele>2042</ele>
        <time>2022-07-16T07:48:01Z</time>
      </trkpt>
      <trkpt lat="45.65617" lon="6.56708">
        <ele>2042</ele>
        <time>2022-07-16T07:48:02Z</time>
      </trkpt>
      <trkpt lat="45.65615" lon="6.56709">
        <ele>2042</ele>
        <time>2022-07-16T07:48:03Z</time>
      </trkpt>
      <trkpt lat="45.65613" lon="6.56711">
        <ele>2042</ele>
        <time>2022-07-16T07:48:04Z</time>
      </trkpt>
      <trkpt lat="45.65611" lon="6.56713">
        <ele>2042</ele>
        <time>2022-07-16T07:48:05Z</time>
      </trkpt>
      <trkpt lat="45.65609" lon="6.56715">
        <ele>2042</ele>
        <time>2022-07-16T07:48:06Z</time>
      </trkpt>
      <trkpt lat="45.65608" lon="6.56717">
        <ele>2042</ele>
        <time>2022-07-16T07:48:07Z</time>
      </trkpt>
      <trkpt lat="45.65605" lon="6.5672">
        <ele>2041</ele>
        <time>2022-07-16T07:48:09Z</time>
      </trkpt>
      <trkpt lat="45.65602" lon="6.5672">
        <ele>2041</ele>
        <time>2022-07-16T07:48:11Z</time>
      </trkpt>
      <trkpt lat="45.65599" lon="6.5672">
        <ele>2041</ele>
        <time>2022-07-16T07:48:12Z</time>
      </trkpt>
      <trkpt lat="45.65597" lon="6.5672">
        <ele>2041</ele>
        <time>2022-07-16T07:48:13Z</time>
      </trkpt>
      <trkpt lat="45.65594" lon="6.5672">
        <ele>2041</ele>
        <time>2022-07-16T07:48:14Z</time>
      </trkpt>
      <trkpt lat="45.6559" lon="6.56721">
        <ele>2041</ele>
        <time>2022-07-16T07:48:16Z</time>
      </trkpt>
      <trkpt lat="45.65588" lon="6.56722">
        <ele>2040</ele>
        <time>2022-07-16T07:48:17Z</time>
      </trkpt>
      <trkpt lat="45.65586" lon="6.56723">
        <ele>2040</ele>
        <time>2022-07-16T07:48:18Z</time>
      </trkpt>
      <trkpt lat="45.65584" lon="6.56725">
        <ele>2040</ele>
        <time>2022-07-16T07:48:19Z</time>
      </trkpt>
      <trkpt lat="45.65583" lon="6.56726">
        <ele>2041</ele>
        <time>2022-07-16T07:48:20Z</time>
      </trkpt>
      <trkpt lat="45.65579" lon="6.56728">
        <ele>2041</ele>
        <time>2022-07-16T07:48:22Z</time>
      </trkpt>
      <trkpt lat="45.65576" lon="6.5673">
        <ele>2041</ele>
        <time>2022-07-16T07:48:24Z</time>
      </trkpt>
      <trkpt lat="45.65575" lon="6.56731">
        <ele>2041</ele>
        <time>2022-07-16T07:48:25Z</time>
      </trkpt>
      <trkpt lat="45.65573" lon="6.56733">
        <ele>2041</ele>
        <time>2022-07-16T07:48:26Z</time>
      </trkpt>
      <trkpt lat="45.65572" lon="6.56734">
        <ele>2040</ele>
        <time>2022-07-16T07:48:27Z</time>
      </trkpt>
      <trkpt lat="45.65569" lon="6.56737">
        <ele>2040</ele>
        <time>2022-07-16T07:48:28Z</time>
      </trkpt>
      <trkpt lat="45.65569" lon="6.56738">
        <ele>2040</ele>
        <time>2022-07-16T07:48:29Z</time>
      </trkpt>
      <trkpt lat="45.65567" lon="6.5674">
        <ele>2038</ele>
        <time>2022-07-16T07:48:30Z</time>
      </trkpt>
      <trkpt lat="45.65565" lon="6.56741">
        <ele>2037</ele>
        <time>2022-07-16T07:48:31Z</time>
      </trkpt>
      <trkpt lat="45.65563" lon="6.56742">
        <ele>2037</ele>
        <time>2022-07-16T07:48:32Z</time>
      </trkpt>
      <trkpt lat="45.65561" lon="6.56744">
        <ele>2037</ele>
        <time>2022-07-16T07:48:33Z</time>
      </trkpt>
      <trkpt lat="45.65559" lon="6.56747">
        <ele>2037</ele>
        <time>2022-07-16T07:48:35Z</time>
      </trkpt>
      <trkpt lat="45.65558" lon="6.5675">
        <ele>2038</ele>
        <time>2022-07-16T07:48:37Z</time>
      </trkpt>
      <trkpt lat="45.65556" lon="6.56753">
        <ele>2038</ele>
        <time>2022-07-16T07:48:40Z</time>
      </trkpt>
      <trkpt lat="45.65555" lon="6.56755">
        <ele>2040</ele>
        <time>2022-07-16T07:48:42Z</time>
      </trkpt>
      <trkpt lat="45.65553" lon="6.56757">
        <ele>2040</ele>
        <time>2022-07-16T07:48:45Z</time>
      </trkpt>
      <trkpt lat="45.65551" lon="6.56759">
        <ele>2041</ele>
        <time>2022-07-16T07:48:48Z</time>
      </trkpt>
      <trkpt lat="45.65549" lon="6.56761">
        <ele>2041</ele>
        <time>2022-07-16T07:48:51Z</time>
      </trkpt>
      <trkpt lat="45.65548" lon="6.56762">
        <ele>2042</ele>
        <time>2022-07-16T07:48:53Z</time>
      </trkpt>
      <trkpt lat="45.65546" lon="6.56764">
        <ele>2042</ele>
        <time>2022-07-16T07:48:55Z</time>
      </trkpt>
      <trkpt lat="45.65544" lon="6.56766">
        <ele>2042</ele>
        <time>2022-07-16T07:48:57Z</time>
      </trkpt>
      <trkpt lat="45.65542" lon="6.56769">
        <ele>2042</ele>
        <time>2022-07-16T07:48:59Z</time>
      </trkpt>
      <trkpt lat="45.6554" lon="6.56771">
        <ele>2042</ele>
        <time>2022-07-16T07:49:01Z</time>
      </trkpt>
      <trkpt lat="45.65538" lon="6.56772">
        <ele>2043</ele>
        <time>2022-07-16T07:49:03Z</time>
      </trkpt>
      <trkpt lat="45.65536" lon="6.56773">
        <ele>2043</ele>
        <time>2022-07-16T07:49:05Z</time>
      </trkpt>
      <trkpt lat="45.65534" lon="6.56774">
        <ele>2043</ele>
        <time>2022-07-16T07:49:07Z</time>
      </trkpt>
      <trkpt lat="45.65532" lon="6.56776">
        <ele>2044</ele>
        <time>2022-07-16T07:49:09Z</time>
      </trkpt>
      <trkpt lat="45.6553" lon="6.56778">
        <ele>2044</ele>
        <time>2022-07-16T07:49:11Z</time>
      </trkpt>
      <trkpt lat="45.65528" lon="6.56779">
        <ele>2044</ele>
        <time>2022-07-16T07:49:13Z</time>
      </trkpt>
      <trkpt lat="45.65526" lon="6.56781">
        <ele>2044</ele>
        <time>2022-07-16T07:49:16Z</time>
      </trkpt>
      <trkpt lat="45.65524" lon="6.56784">
        <ele>2045</ele>
        <time>2022-07-16T07:49:18Z</time>
      </trkpt>
      <trkpt lat="45.65521" lon="6.56785">
        <ele>2045</ele>
        <time>2022-07-16T07:49:20Z</time>
      </trkpt>
      <trkpt lat="45.65519" lon="6.56785">
        <ele>2045</ele>
        <time>2022-07-16T07:49:22Z</time>
      </trkpt>
      <trkpt lat="45.65517" lon="6.56783">
        <ele>2045</ele>
        <time>2022-07-16T07:49:24Z</time>
      </trkpt>
      <trkpt lat="45.65515" lon="6.56782">
        <ele>2045</ele>
        <time>2022-07-16T07:49:26Z</time>
      </trkpt>
      <trkpt lat="45.65513" lon="6.56781">
        <ele>2045</ele>
        <time>2022-07-16T07:49:28Z</time>
      </trkpt>
      <trkpt lat="45.65511" lon="6.56781">
        <ele>2045</ele>
        <time>2022-07-16T07:49:30Z</time>
      </trkpt>
      <trkpt lat="45.65509" lon="6.5678">
        <ele>2045</ele>
        <time>2022-07-16T07:49:32Z</time>
      </trkpt>
      <trkpt lat="45.65507" lon="6.5678">
        <ele>2045</ele>
        <time>2022-07-16T07:49:34Z</time>
      </trkpt>
      <trkpt lat="45.65505" lon="6.56781">
        <ele>2045</ele>
        <time>2022-07-16T07:49:36Z</time>
      </trkpt>
      <trkpt lat="45.65502" lon="6.5678">
        <ele>2045</ele>
        <time>2022-07-16T07:49:38Z</time>
      </trkpt>
      <trkpt lat="45.65499" lon="6.5678">
        <ele>2044</ele>
        <time>2022-07-16T07:49:40Z</time>
      </trkpt>
      <trkpt lat="45.65497" lon="6.56778">
        <ele>2044</ele>
        <time>2022-07-16T07:49:42Z</time>
      </trkpt>
      <trkpt lat="45.65495" lon="6.56778">
        <ele>2044</ele>
        <time>2022-07-16T07:49:44Z</time>
      </trkpt>
      <trkpt lat="45.65492" lon="6.56778">
        <ele>2043</ele>
        <time>2022-07-16T07:49:46Z</time>
      </trkpt>
      <trkpt lat="45.65489" lon="6.56778">
        <ele>2042</ele>
        <time>2022-07-16T07:49:48Z</time>
      </trkpt>
      <trkpt lat="45.65487" lon="6.56777">
        <ele>2042</ele>
        <time>2022-07-16T07:49:49Z</time>
      </trkpt>
      <trkpt lat="45.65485" lon="6.56777">
        <ele>2041</ele>
        <time>2022-07-16T07:49:50Z</time>
      </trkpt>
      <trkpt lat="45.65483" lon="6.56776">
        <ele>2041</ele>
        <time>2022-07-16T07:49:51Z</time>
      </trkpt>
      <trkpt lat="45.6548" lon="6.56776">
        <ele>2041</ele>
        <time>2022-07-16T07:49:53Z</time>
      </trkpt>
      <trkpt lat="45.65478" lon="6.56778">
        <ele>2040</ele>
        <time>2022-07-16T07:49:55Z</time>
      </trkpt>
      <trkpt lat="45.65473" lon="6.56778">
        <ele>2040</ele>
        <time>2022-07-16T07:49:57Z</time>
      </trkpt>
      <trkpt lat="45.65472" lon="6.56778">
        <ele>2038</ele>
        <time>2022-07-16T07:49:58Z</time>
      </trkpt>
      <trkpt lat="45.65469" lon="6.56779">
        <ele>2037</ele>
        <time>2022-07-16T07:50:00Z</time>
      </trkpt>
      <trkpt lat="45.65467" lon="6.5678">
        <ele>2037</ele>
        <time>2022-07-16T07:50:02Z</time>
      </trkpt>
      <trkpt lat="45.65465" lon="6.5678">
        <ele>2036</ele>
        <time>2022-07-16T07:50:03Z</time>
      </trkpt>
      <trkpt lat="45.65462" lon="6.5678">
        <ele>2036</ele>
        <time>2022-07-16T07:50:04Z</time>
      </trkpt>
      <trkpt lat="45.6546" lon="6.5678">
        <ele>2035</ele>
        <time>2022-07-16T07:50:05Z</time>
      </trkpt>
      <trkpt lat="45.65457" lon="6.56779">
        <ele>2035</ele>
        <time>2022-07-16T07:50:06Z</time>
      </trkpt>
      <trkpt lat="45.65456" lon="6.56779">
        <ele>2035</ele>
        <time>2022-07-16T07:50:07Z</time>
      </trkpt>
      <trkpt lat="45.65454" lon="6.56778">
        <ele>2035</ele>
        <time>2022-07-16T07:50:08Z</time>
      </trkpt>
      <trkpt lat="45.6545" lon="6.56776">
        <ele>2035</ele>
        <time>2022-07-16T07:50:10Z</time>
      </trkpt>
      <trkpt lat="45.65448" lon="6.56776">
        <ele>2034</ele>
        <time>2022-07-16T07:50:11Z</time>
      </trkpt>
      <trkpt lat="45.65445" lon="6.56776">
        <ele>2034</ele>
        <time>2022-07-16T07:50:13Z</time>
      </trkpt>
      <trkpt lat="45.65443" lon="6.56777">
        <ele>2034</ele>
        <time>2022-07-16T07:50:15Z</time>
      </trkpt>
      <trkpt lat="45.6544" lon="6.56777">
        <ele>2033</ele>
        <time>2022-07-16T07:50:17Z</time>
      </trkpt>
      <trkpt lat="45.65438" lon="6.56778">
        <ele>2033</ele>
        <time>2022-07-16T07:50:18Z</time>
      </trkpt>
      <trkpt lat="45.65436" lon="6.56778">
        <ele>2033</ele>
        <time>2022-07-16T07:50:19Z</time>
      </trkpt>
      <trkpt lat="45.65434" lon="6.56778">
        <ele>2033</ele>
        <time>2022-07-16T07:50:20Z</time>
      </trkpt>
      <trkpt lat="45.65432" lon="6.56778">
        <ele>2033</ele>
        <time>2022-07-16T07:50:21Z</time>
      </trkpt>
      <trkpt lat="45.6543" lon="6.56779">
        <ele>2032</ele>
        <time>2022-07-16T07:50:22Z</time>
      </trkpt>
      <trkpt lat="45.65428" lon="6.56779">
        <ele>2032</ele>
        <time>2022-07-16T07:50:23Z</time>
      </trkpt>
      <trkpt lat="45.65427" lon="6.5678">
        <ele>2032</ele>
        <time>2022-07-16T07:50:24Z</time>
      </trkpt>
      <trkpt lat="45.65425" lon="6.56781">
        <ele>2032</ele>
        <time>2022-07-16T07:50:25Z</time>
      </trkpt>
      <trkpt lat="45.65423" lon="6.56783">
        <ele>2031</ele>
        <time>2022-07-16T07:50:26Z</time>
      </trkpt>
      <trkpt lat="45.65421" lon="6.56784">
        <ele>2031</ele>
        <time>2022-07-16T07:50:27Z</time>
      </trkpt>
      <trkpt lat="45.6542" lon="6.56786">
        <ele>2031</ele>
        <time>2022-07-16T07:50:28Z</time>
      </trkpt>
      <trkpt lat="45.65418" lon="6.56788">
        <ele>2031</ele>
        <time>2022-07-16T07:50:29Z</time>
      </trkpt>
      <trkpt lat="45.65417" lon="6.5679">
        <ele>2032</ele>
        <time>2022-07-16T07:50:30Z</time>
      </trkpt>
      <trkpt lat="45.65416" lon="6.56793">
        <ele>2032</ele>
        <time>2022-07-16T07:50:31Z</time>
      </trkpt>
      <trkpt lat="45.65415" lon="6.56795">
        <ele>2032</ele>
        <time>2022-07-16T07:50:32Z</time>
      </trkpt>
      <trkpt lat="45.65414" lon="6.56798">
        <ele>2032</ele>
        <time>2022-07-16T07:50:33Z</time>
      </trkpt>
      <trkpt lat="45.65413" lon="6.568">
        <ele>2032</ele>
        <time>2022-07-16T07:50:34Z</time>
      </trkpt>
      <trkpt lat="45.65412" lon="6.56802">
        <ele>2032</ele>
        <time>2022-07-16T07:50:35Z</time>
      </trkpt>
      <trkpt lat="45.65411" lon="6.56805">
        <ele>2032</ele>
        <time>2022-07-16T07:50:36Z</time>
      </trkpt>
      <trkpt lat="45.6541" lon="6.56807">
        <ele>2032</ele>
        <time>2022-07-16T07:50:37Z</time>
      </trkpt>
      <trkpt lat="45.65409" lon="6.5681">
        <ele>2032</ele>
        <time>2022-07-16T07:50:38Z</time>
      </trkpt>
      <trkpt lat="45.65408" lon="6.56812">
        <ele>2032</ele>
        <time>2022-07-16T07:50:39Z</time>
      </trkpt>
      <trkpt lat="45.65407" lon="6.56817">
        <ele>2031</ele>
        <time>2022-07-16T07:50:41Z</time>
      </trkpt>
      <trkpt lat="45.65408" lon="6.56821">
        <ele>2031</ele>
        <time>2022-07-16T07:50:43Z</time>
      </trkpt>
      <trkpt lat="45.65408" lon="6.56826">
        <ele>2030</ele>
        <time>2022-07-16T07:50:45Z</time>
      </trkpt>
      <trkpt lat="45.65408" lon="6.56829">
        <ele>2030</ele>
        <time>2022-07-16T07:50:47Z</time>
      </trkpt>
      <trkpt lat="45.65408" lon="6.5683">
        <ele>2030</ele>
        <time>2022-07-16T07:50:48Z</time>
      </trkpt>
      <trkpt lat="45.65408" lon="6.56831">
        <ele>2030</ele>
        <time>2022-07-16T07:50:49Z</time>
      </trkpt>
      <trkpt lat="45.65409" lon="6.56832">
        <ele>2029</ele>
        <time>2022-07-16T07:50:50Z</time>
      </trkpt>
      <trkpt lat="45.65409" lon="6.56834">
        <ele>2029</ele>
        <time>2022-07-16T07:50:51Z</time>
      </trkpt>
      <trkpt lat="45.65409" lon="6.56835">
        <ele>2029</ele>
        <time>2022-07-16T07:50:52Z</time>
      </trkpt>
      <trkpt lat="45.6541" lon="6.56838">
        <ele>2029</ele>
        <time>2022-07-16T07:50:53Z</time>
      </trkpt>
      <trkpt lat="45.6541" lon="6.5684">
        <ele>2028</ele>
        <time>2022-07-16T07:50:54Z</time>
      </trkpt>
      <trkpt lat="45.65411" lon="6.56843">
        <ele>2027</ele>
        <time>2022-07-16T07:50:55Z</time>
      </trkpt>
      <trkpt lat="45.6541" lon="6.56846">
        <ele>2026</ele>
        <time>2022-07-16T07:50:58Z</time>
      </trkpt>
      <trkpt lat="45.65407" lon="6.56847">
        <ele>2026</ele>
        <time>2022-07-16T07:51:00Z</time>
      </trkpt>
      <trkpt lat="45.65404" lon="6.56847">
        <ele>2026</ele>
        <time>2022-07-16T07:51:02Z</time>
      </trkpt>
      <trkpt lat="45.65401" lon="6.56847">
        <ele>2025</ele>
        <time>2022-07-16T07:51:04Z</time>
      </trkpt>
      <trkpt lat="45.65399" lon="6.56848">
        <ele>2025</ele>
        <time>2022-07-16T07:51:05Z</time>
      </trkpt>
      <trkpt lat="45.65397" lon="6.56848">
        <ele>2024</ele>
        <time>2022-07-16T07:51:07Z</time>
      </trkpt>
      <trkpt lat="45.65394" lon="6.56849">
        <ele>2024</ele>
        <time>2022-07-16T07:51:08Z</time>
      </trkpt>
      <trkpt lat="45.65392" lon="6.5685">
        <ele>2023</ele>
        <time>2022-07-16T07:51:09Z</time>
      </trkpt>
      <trkpt lat="45.6539" lon="6.56851">
        <ele>2023</ele>
        <time>2022-07-16T07:51:10Z</time>
      </trkpt>
      <trkpt lat="45.65388" lon="6.56851">
        <ele>2023</ele>
        <time>2022-07-16T07:51:11Z</time>
      </trkpt>
      <trkpt lat="45.65385" lon="6.56852">
        <ele>2023</ele>
        <time>2022-07-16T07:51:12Z</time>
      </trkpt>
      <trkpt lat="45.65383" lon="6.56852">
        <ele>2022</ele>
        <time>2022-07-16T07:51:13Z</time>
      </trkpt>
      <trkpt lat="45.65381" lon="6.56852">
        <ele>2021</ele>
        <time>2022-07-16T07:51:14Z</time>
      </trkpt>
      <trkpt lat="45.65378" lon="6.56851">
        <ele>2021</ele>
        <time>2022-07-16T07:51:15Z</time>
      </trkpt>
      <trkpt lat="45.65376" lon="6.56851">
        <ele>2021</ele>
        <time>2022-07-16T07:51:16Z</time>
      </trkpt>
      <trkpt lat="45.65374" lon="6.5685">
        <ele>2021</ele>
        <time>2022-07-16T07:51:17Z</time>
      </trkpt>
      <trkpt lat="45.65372" lon="6.56851">
        <ele>2021</ele>
        <time>2022-07-16T07:51:18Z</time>
      </trkpt>
      <trkpt lat="45.6537" lon="6.56852">
        <ele>2021</ele>
        <time>2022-07-16T07:51:19Z</time>
      </trkpt>
      <trkpt lat="45.65368" lon="6.56853">
        <ele>2021</ele>
        <time>2022-07-16T07:51:20Z</time>
      </trkpt>
      <trkpt lat="45.65366" lon="6.56854">
        <ele>2021</ele>
        <time>2022-07-16T07:51:21Z</time>
      </trkpt>
      <trkpt lat="45.65364" lon="6.56855">
        <ele>2021</ele>
        <time>2022-07-16T07:51:22Z</time>
      </trkpt>
      <trkpt lat="45.65362" lon="6.56856">
        <ele>2020</ele>
        <time>2022-07-16T07:51:23Z</time>
      </trkpt>
      <trkpt lat="45.6536" lon="6.56857">
        <ele>2020</ele>
        <time>2022-07-16T07:51:24Z</time>
      </trkpt>
      <trkpt lat="45.65358" lon="6.56857">
        <ele>2020</ele>
        <time>2022-07-16T07:51:25Z</time>
      </trkpt>
      <trkpt lat="45.65356" lon="6.56857">
        <ele>2020</ele>
        <time>2022-07-16T07:51:26Z</time>
      </trkpt>
      <trkpt lat="45.65354" lon="6.56857">
        <ele>2020</ele>
        <time>2022-07-16T07:51:27Z</time>
      </trkpt>
      <trkpt lat="45.65351" lon="6.56858">
        <ele>2019</ele>
        <time>2022-07-16T07:51:29Z</time>
      </trkpt>
      <trkpt lat="45.65349" lon="6.56859">
        <ele>2019</ele>
        <time>2022-07-16T07:51:31Z</time>
      </trkpt>
      <trkpt lat="45.65346" lon="6.56859">
        <ele>2018</ele>
        <time>2022-07-16T07:51:33Z</time>
      </trkpt>
      <trkpt lat="45.65342" lon="6.56859">
        <ele>2018</ele>
        <time>2022-07-16T07:51:35Z</time>
      </trkpt>
      <trkpt lat="45.6534" lon="6.56857">
        <ele>2017</ele>
        <time>2022-07-16T07:51:37Z</time>
      </trkpt>
      <trkpt lat="45.65337" lon="6.56856">
        <ele>2017</ele>
        <time>2022-07-16T07:51:39Z</time>
      </trkpt>
      <trkpt lat="45.65335" lon="6.56857">
        <ele>2016</ele>
        <time>2022-07-16T07:51:41Z</time>
      </trkpt>
      <trkpt lat="45.65333" lon="6.56857">
        <ele>2016</ele>
        <time>2022-07-16T07:51:42Z</time>
      </trkpt>
      <trkpt lat="45.65331" lon="6.56856">
        <ele>2015</ele>
        <time>2022-07-16T07:51:43Z</time>
      </trkpt>
      <trkpt lat="45.65329" lon="6.56854">
        <ele>2015</ele>
        <time>2022-07-16T07:51:44Z</time>
      </trkpt>
      <trkpt lat="45.65327" lon="6.56853">
        <ele>2015</ele>
        <time>2022-07-16T07:51:45Z</time>
      </trkpt>
      <trkpt lat="45.65325" lon="6.56851">
        <ele>2015</ele>
        <time>2022-07-16T07:51:46Z</time>
      </trkpt>
      <trkpt lat="45.65323" lon="6.5685">
        <ele>2014</ele>
        <time>2022-07-16T07:51:47Z</time>
      </trkpt>
      <trkpt lat="45.65319" lon="6.56849">
        <ele>2014</ele>
        <time>2022-07-16T07:51:49Z</time>
      </trkpt>
      <trkpt lat="45.65318" lon="6.56849">
        <ele>2014</ele>
        <time>2022-07-16T07:51:50Z</time>
      </trkpt>
      <trkpt lat="45.65316" lon="6.56849">
        <ele>2014</ele>
        <time>2022-07-16T07:51:51Z</time>
      </trkpt>
      <trkpt lat="45.65314" lon="6.56848">
        <ele>2014</ele>
        <time>2022-07-16T07:51:52Z</time>
      </trkpt>
      <trkpt lat="45.65312" lon="6.56847">
        <ele>2014</ele>
        <time>2022-07-16T07:51:53Z</time>
      </trkpt>
      <trkpt lat="45.65311" lon="6.56846">
        <ele>2014</ele>
        <time>2022-07-16T07:51:54Z</time>
      </trkpt>
      <trkpt lat="45.65308" lon="6.56844">
        <ele>2014</ele>
        <time>2022-07-16T07:51:56Z</time>
      </trkpt>
      <trkpt lat="45.65306" lon="6.56845">
        <ele>2014</ele>
        <time>2022-07-16T07:51:58Z</time>
      </trkpt>
      <trkpt lat="45.65303" lon="6.56846">
        <ele>2012</ele>
        <time>2022-07-16T07:52:00Z</time>
      </trkpt>
      <trkpt lat="45.653" lon="6.56847">
        <ele>2012</ele>
        <time>2022-07-16T07:52:02Z</time>
      </trkpt>
      <trkpt lat="45.65298" lon="6.56848">
        <ele>2012</ele>
        <time>2022-07-16T07:52:03Z</time>
      </trkpt>
      <trkpt lat="45.65296" lon="6.56848">
        <ele>2012</ele>
        <time>2022-07-16T07:52:04Z</time>
      </trkpt>
      <trkpt lat="45.65294" lon="6.5685">
        <ele>2011</ele>
        <time>2022-07-16T07:52:05Z</time>
      </trkpt>
      <trkpt lat="45.65292" lon="6.56851">
        <ele>2010</ele>
        <time>2022-07-16T07:52:06Z</time>
      </trkpt>
      <trkpt lat="45.6529" lon="6.56853">
        <ele>2009</ele>
        <time>2022-07-16T07:52:07Z</time>
      </trkpt>
      <trkpt lat="45.65289" lon="6.56855">
        <ele>2009</ele>
        <time>2022-07-16T07:52:08Z</time>
      </trkpt>
      <trkpt lat="45.65288" lon="6.56858">
        <ele>2009</ele>
        <time>2022-07-16T07:52:09Z</time>
      </trkpt>
      <trkpt lat="45.65286" lon="6.5686">
        <ele>2009</ele>
        <time>2022-07-16T07:52:10Z</time>
      </trkpt>
      <trkpt lat="45.65285" lon="6.56863">
        <ele>2009</ele>
        <time>2022-07-16T07:52:11Z</time>
      </trkpt>
      <trkpt lat="45.65284" lon="6.56866">
        <ele>2009</ele>
        <time>2022-07-16T07:52:12Z</time>
      </trkpt>
      <trkpt lat="45.65284" lon="6.56869">
        <ele>2009</ele>
        <time>2022-07-16T07:52:13Z</time>
      </trkpt>
      <trkpt lat="45.65283" lon="6.56871">
        <ele>2009</ele>
        <time>2022-07-16T07:52:14Z</time>
      </trkpt>
      <trkpt lat="45.65282" lon="6.56876">
        <ele>2009</ele>
        <time>2022-07-16T07:52:16Z</time>
      </trkpt>
      <trkpt lat="45.65282" lon="6.56878">
        <ele>2009</ele>
        <time>2022-07-16T07:52:18Z</time>
      </trkpt>
      <trkpt lat="45.65282" lon="6.56881">
        <ele>2010</ele>
        <time>2022-07-16T07:52:20Z</time>
      </trkpt>
      <trkpt lat="45.65282" lon="6.56885">
        <ele>2010</ele>
        <time>2022-07-16T07:52:23Z</time>
      </trkpt>
      <trkpt lat="45.65281" lon="6.56888">
        <ele>2010</ele>
        <time>2022-07-16T07:52:25Z</time>
      </trkpt>
      <trkpt lat="45.6528" lon="6.56891">
        <ele>2011</ele>
        <time>2022-07-16T07:52:27Z</time>
      </trkpt>
      <trkpt lat="45.65276" lon="6.56893">
        <ele>2011</ele>
        <time>2022-07-16T07:52:29Z</time>
      </trkpt>
      <trkpt lat="45.65275" lon="6.56894">
        <ele>2011</ele>
        <time>2022-07-16T07:52:30Z</time>
      </trkpt>
      <trkpt lat="45.65273" lon="6.56894">
        <ele>2011</ele>
        <time>2022-07-16T07:52:31Z</time>
      </trkpt>
      <trkpt lat="45.65271" lon="6.56894">
        <ele>2011</ele>
        <time>2022-07-16T07:52:32Z</time>
      </trkpt>
      <trkpt lat="45.65268" lon="6.56894">
        <ele>2010</ele>
        <time>2022-07-16T07:52:33Z</time>
      </trkpt>
      <trkpt lat="45.65266" lon="6.56894">
        <ele>2010</ele>
        <time>2022-07-16T07:52:34Z</time>
      </trkpt>
      <trkpt lat="45.65265" lon="6.56893">
        <ele>2010</ele>
        <time>2022-07-16T07:52:35Z</time>
      </trkpt>
      <trkpt lat="45.65262" lon="6.56892">
        <ele>2010</ele>
        <time>2022-07-16T07:52:37Z</time>
      </trkpt>
      <trkpt lat="45.6526" lon="6.56892">
        <ele>2010</ele>
        <time>2022-07-16T07:52:38Z</time>
      </trkpt>
      <trkpt lat="45.65258" lon="6.56891">
        <ele>2009</ele>
        <time>2022-07-16T07:52:39Z</time>
      </trkpt>
      <trkpt lat="45.65256" lon="6.56891">
        <ele>2009</ele>
        <time>2022-07-16T07:52:40Z</time>
      </trkpt>
      <trkpt lat="45.65254" lon="6.5689">
        <ele>2009</ele>
        <time>2022-07-16T07:52:41Z</time>
      </trkpt>
      <trkpt lat="45.65252" lon="6.56889">
        <ele>2009</ele>
        <time>2022-07-16T07:52:42Z</time>
      </trkpt>
      <trkpt lat="45.6525" lon="6.56888">
        <ele>2009</ele>
        <time>2022-07-16T07:52:43Z</time>
      </trkpt>
      <trkpt lat="45.65248" lon="6.56887">
        <ele>2009</ele>
        <time>2022-07-16T07:52:44Z</time>
      </trkpt>
      <trkpt lat="45.65246" lon="6.56886">
        <ele>2009</ele>
        <time>2022-07-16T07:52:45Z</time>
      </trkpt>
      <trkpt lat="45.65244" lon="6.56886">
        <ele>2009</ele>
        <time>2022-07-16T07:52:46Z</time>
      </trkpt>
      <trkpt lat="45.65242" lon="6.56885">
        <ele>2009</ele>
        <time>2022-07-16T07:52:47Z</time>
      </trkpt>
      <trkpt lat="45.65239" lon="6.56883">
        <ele>2009</ele>
        <time>2022-07-16T07:52:48Z</time>
      </trkpt>
      <trkpt lat="45.65238" lon="6.56883">
        <ele>2009</ele>
        <time>2022-07-16T07:52:49Z</time>
      </trkpt>
      <trkpt lat="45.65237" lon="6.56881">
        <ele>2009</ele>
        <time>2022-07-16T07:52:50Z</time>
      </trkpt>
      <trkpt lat="45.65234" lon="6.56878">
        <ele>2009</ele>
        <time>2022-07-16T07:52:52Z</time>
      </trkpt>
      <trkpt lat="45.65231" lon="6.56875">
        <ele>2009</ele>
        <time>2022-07-16T07:52:54Z</time>
      </trkpt>
      <trkpt lat="45.65229" lon="6.56872">
        <ele>2009</ele>
        <time>2022-07-16T07:52:56Z</time>
      </trkpt>
      <trkpt lat="45.65226" lon="6.56869">
        <ele>2009</ele>
        <time>2022-07-16T07:52:58Z</time>
      </trkpt>
      <trkpt lat="45.65224" lon="6.56867">
        <ele>2009</ele>
        <time>2022-07-16T07:52:59Z</time>
      </trkpt>
      <trkpt lat="45.65221" lon="6.56865">
        <ele>2010</ele>
        <time>2022-07-16T07:53:01Z</time>
      </trkpt>
      <trkpt lat="45.65219" lon="6.56864">
        <ele>2010</ele>
        <time>2022-07-16T07:53:02Z</time>
      </trkpt>
      <trkpt lat="45.65218" lon="6.56863">
        <ele>2010</ele>
        <time>2022-07-16T07:53:03Z</time>
      </trkpt>
      <trkpt lat="45.65214" lon="6.56861">
        <ele>2010</ele>
        <time>2022-07-16T07:53:05Z</time>
      </trkpt>
      <trkpt lat="45.65212" lon="6.5686">
        <ele>2010</ele>
        <time>2022-07-16T07:53:06Z</time>
      </trkpt>
      <trkpt lat="45.6521" lon="6.56858">
        <ele>2010</ele>
        <time>2022-07-16T07:53:07Z</time>
      </trkpt>
      <trkpt lat="45.65209" lon="6.56857">
        <ele>2010</ele>
        <time>2022-07-16T07:53:08Z</time>
      </trkpt>
      <trkpt lat="45.65208" lon="6.56854">
        <ele>2010</ele>
        <time>2022-07-16T07:53:09Z</time>
      </trkpt>
      <trkpt lat="45.65207" lon="6.56852">
        <ele>2010</ele>
        <time>2022-07-16T07:53:10Z</time>
      </trkpt>
      <trkpt lat="45.65206" lon="6.56849">
        <ele>2010</ele>
        <time>2022-07-16T07:53:11Z</time>
      </trkpt>
      <trkpt lat="45.65204" lon="6.56846">
        <ele>2010</ele>
        <time>2022-07-16T07:53:13Z</time>
      </trkpt>
      <trkpt lat="45.65202" lon="6.56843">
        <ele>2009</ele>
        <time>2022-07-16T07:53:15Z</time>
      </trkpt>
      <trkpt lat="45.65201" lon="6.56838">
        <ele>2010</ele>
        <time>2022-07-16T07:53:17Z</time>
      </trkpt>
      <trkpt lat="45.65199" lon="6.56833">
        <ele>2010</ele>
        <time>2022-07-16T07:53:20Z</time>
      </trkpt>
      <trkpt lat="45.65198" lon="6.56833">
        <ele>2010</ele>
        <time>2022-07-16T07:53:21Z</time>
      </trkpt>
      <trkpt lat="45.65196" lon="6.56832">
        <ele>2010</ele>
        <time>2022-07-16T07:53:22Z</time>
      </trkpt>
      <trkpt lat="45.65195" lon="6.56831">
        <ele>2010</ele>
        <time>2022-07-16T07:53:23Z</time>
      </trkpt>
      <trkpt lat="45.65193" lon="6.56829">
        <ele>2009</ele>
        <time>2022-07-16T07:53:24Z</time>
      </trkpt>
      <trkpt lat="45.65192" lon="6.56827">
        <ele>2009</ele>
        <time>2022-07-16T07:53:25Z</time>
      </trkpt>
      <trkpt lat="45.6519" lon="6.56825">
        <ele>2009</ele>
        <time>2022-07-16T07:53:26Z</time>
      </trkpt>
      <trkpt lat="45.65188" lon="6.56823">
        <ele>2009</ele>
        <time>2022-07-16T07:53:27Z</time>
      </trkpt>
      <trkpt lat="45.65187" lon="6.56822">
        <ele>2009</ele>
        <time>2022-07-16T07:53:28Z</time>
      </trkpt>
      <trkpt lat="45.65185" lon="6.5682">
        <ele>2009</ele>
        <time>2022-07-16T07:53:29Z</time>
      </trkpt>
      <trkpt lat="45.65184" lon="6.56819">
        <ele>2009</ele>
        <time>2022-07-16T07:53:30Z</time>
      </trkpt>
      <trkpt lat="45.65182" lon="6.56817">
        <ele>2009</ele>
        <time>2022-07-16T07:53:31Z</time>
      </trkpt>
      <trkpt lat="45.65179" lon="6.5682">
        <ele>2009</ele>
        <time>2022-07-16T07:53:33Z</time>
      </trkpt>
      <trkpt lat="45.65179" lon="6.56822">
        <ele>2009</ele>
        <time>2022-07-16T07:53:34Z</time>
      </trkpt>
      <trkpt lat="45.65178" lon="6.56824">
        <ele>2009</ele>
        <time>2022-07-16T07:53:35Z</time>
      </trkpt>
      <trkpt lat="45.65177" lon="6.56828">
        <ele>2008</ele>
        <time>2022-07-16T07:53:37Z</time>
      </trkpt>
      <trkpt lat="45.65175" lon="6.56833">
        <ele>2008</ele>
        <time>2022-07-16T07:53:39Z</time>
      </trkpt>
      <trkpt lat="45.65175" lon="6.56836">
        <ele>2008</ele>
        <time>2022-07-16T07:53:40Z</time>
      </trkpt>
      <trkpt lat="45.65173" lon="6.56839">
        <ele>2008</ele>
        <time>2022-07-16T07:53:41Z</time>
      </trkpt>
      <trkpt lat="45.65172" lon="6.56842">
        <ele>2008</ele>
        <time>2022-07-16T07:53:42Z</time>
      </trkpt>
      <trkpt lat="45.65171" lon="6.56844">
        <ele>2007</ele>
        <time>2022-07-16T07:53:43Z</time>
      </trkpt>
      <trkpt lat="45.65169" lon="6.56846">
        <ele>2007</ele>
        <time>2022-07-16T07:53:44Z</time>
      </trkpt>
      <trkpt lat="45.65168" lon="6.56848">
        <ele>2007</ele>
        <time>2022-07-16T07:53:45Z</time>
      </trkpt>
      <trkpt lat="45.65167" lon="6.56851">
        <ele>2006</ele>
        <time>2022-07-16T07:53:46Z</time>
      </trkpt>
      <trkpt lat="45.65165" lon="6.56854">
        <ele>2006</ele>
        <time>2022-07-16T07:53:47Z</time>
      </trkpt>
      <trkpt lat="45.65164" lon="6.56855">
        <ele>2006</ele>
        <time>2022-07-16T07:53:48Z</time>
      </trkpt>
      <trkpt lat="45.65162" lon="6.56857">
        <ele>2006</ele>
        <time>2022-07-16T07:53:50Z</time>
      </trkpt>
      <trkpt lat="45.6516" lon="6.56859">
        <ele>2007</ele>
        <time>2022-07-16T07:53:53Z</time>
      </trkpt>
      <trkpt lat="45.65157" lon="6.56862">
        <ele>2007</ele>
        <time>2022-07-16T07:53:55Z</time>
      </trkpt>
      <trkpt lat="45.65155" lon="6.56862">
        <ele>2007</ele>
        <time>2022-07-16T07:53:56Z</time>
      </trkpt>
      <trkpt lat="45.65151" lon="6.56864">
        <ele>2007</ele>
        <time>2022-07-16T07:53:58Z</time>
      </trkpt>
      <trkpt lat="45.65149" lon="6.56864">
        <ele>2007</ele>
        <time>2022-07-16T07:53:59Z</time>
      </trkpt>
      <trkpt lat="45.65147" lon="6.56865">
        <ele>2006</ele>
        <time>2022-07-16T07:54:00Z</time>
      </trkpt>
      <trkpt lat="45.65145" lon="6.56867">
        <ele>2006</ele>
        <time>2022-07-16T07:54:01Z</time>
      </trkpt>
      <trkpt lat="45.65143" lon="6.56869">
        <ele>2006</ele>
        <time>2022-07-16T07:54:02Z</time>
      </trkpt>
      <trkpt lat="45.65142" lon="6.56871">
        <ele>2006</ele>
        <time>2022-07-16T07:54:03Z</time>
      </trkpt>
      <trkpt lat="45.65141" lon="6.56873">
        <ele>2006</ele>
        <time>2022-07-16T07:54:04Z</time>
      </trkpt>
      <trkpt lat="45.65139" lon="6.56875">
        <ele>2006</ele>
        <time>2022-07-16T07:54:05Z</time>
      </trkpt>
      <trkpt lat="45.65137" lon="6.56879">
        <ele>2006</ele>
        <time>2022-07-16T07:54:06Z</time>
      </trkpt>
      <trkpt lat="45.65136" lon="6.56879">
        <ele>2006</ele>
        <time>2022-07-16T07:54:07Z</time>
      </trkpt>
      <trkpt lat="45.65134" lon="6.56881">
        <ele>2006</ele>
        <time>2022-07-16T07:54:08Z</time>
      </trkpt>
      <trkpt lat="45.65133" lon="6.56883">
        <ele>2006</ele>
        <time>2022-07-16T07:54:09Z</time>
      </trkpt>
      <trkpt lat="45.65131" lon="6.56884">
        <ele>2006</ele>
        <time>2022-07-16T07:54:10Z</time>
      </trkpt>
      <trkpt lat="45.65129" lon="6.56886">
        <ele>2006</ele>
        <time>2022-07-16T07:54:11Z</time>
      </trkpt>
      <trkpt lat="45.65127" lon="6.56886">
        <ele>2006</ele>
        <time>2022-07-16T07:54:12Z</time>
      </trkpt>
      <trkpt lat="45.65125" lon="6.56887">
        <ele>2006</ele>
        <time>2022-07-16T07:54:13Z</time>
      </trkpt>
      <trkpt lat="45.65123" lon="6.56887">
        <ele>2006</ele>
        <time>2022-07-16T07:54:14Z</time>
      </trkpt>
      <trkpt lat="45.65121" lon="6.56887">
        <ele>2006</ele>
        <time>2022-07-16T07:54:15Z</time>
      </trkpt>
      <trkpt lat="45.65117" lon="6.56887">
        <ele>2006</ele>
        <time>2022-07-16T07:54:17Z</time>
      </trkpt>
      <trkpt lat="45.65115" lon="6.56887">
        <ele>2006</ele>
        <time>2022-07-16T07:54:18Z</time>
      </trkpt>
      <trkpt lat="45.65113" lon="6.56888">
        <ele>2006</ele>
        <time>2022-07-16T07:54:19Z</time>
      </trkpt>
      <trkpt lat="45.65111" lon="6.56889">
        <ele>2006</ele>
        <time>2022-07-16T07:54:20Z</time>
      </trkpt>
      <trkpt lat="45.65108" lon="6.56889">
        <ele>2006</ele>
        <time>2022-07-16T07:54:22Z</time>
      </trkpt>
      <trkpt lat="45.65106" lon="6.5689">
        <ele>2006</ele>
        <time>2022-07-16T07:54:23Z</time>
      </trkpt>
      <trkpt lat="45.65104" lon="6.5689">
        <ele>2006</ele>
        <time>2022-07-16T07:54:24Z</time>
      </trkpt>
      <trkpt lat="45.65102" lon="6.5689">
        <ele>2006</ele>
        <time>2022-07-16T07:54:25Z</time>
      </trkpt>
      <trkpt lat="45.651" lon="6.5689">
        <ele>2006</ele>
        <time>2022-07-16T07:54:26Z</time>
      </trkpt>
      <trkpt lat="45.65098" lon="6.56891">
        <ele>2006</ele>
        <time>2022-07-16T07:54:27Z</time>
      </trkpt>
      <trkpt lat="45.65096" lon="6.56891">
        <ele>2006</ele>
        <time>2022-07-16T07:54:28Z</time>
      </trkpt>
      <trkpt lat="45.65094" lon="6.56891">
        <ele>2006</ele>
        <time>2022-07-16T07:54:29Z</time>
      </trkpt>
      <trkpt lat="45.65092" lon="6.56891">
        <ele>2006</ele>
        <time>2022-07-16T07:54:30Z</time>
      </trkpt>
      <trkpt lat="45.6509" lon="6.56892">
        <ele>2006</ele>
        <time>2022-07-16T07:54:31Z</time>
      </trkpt>
      <trkpt lat="45.65088" lon="6.56892">
        <ele>2006</ele>
        <time>2022-07-16T07:54:32Z</time>
      </trkpt>
      <trkpt lat="45.65087" lon="6.56891">
        <ele>2005</ele>
        <time>2022-07-16T07:54:33Z</time>
      </trkpt>
      <trkpt lat="45.65085" lon="6.56891">
        <ele>2005</ele>
        <time>2022-07-16T07:54:34Z</time>
      </trkpt>
      <trkpt lat="45.65083" lon="6.56892">
        <ele>2005</ele>
        <time>2022-07-16T07:54:35Z</time>
      </trkpt>
      <trkpt lat="45.65082" lon="6.56892">
        <ele>2005</ele>
        <time>2022-07-16T07:54:36Z</time>
      </trkpt>
      <trkpt lat="45.65079" lon="6.56892">
        <ele>2005</ele>
        <time>2022-07-16T07:54:37Z</time>
      </trkpt>
      <trkpt lat="45.65077" lon="6.5689">
        <ele>2006</ele>
        <time>2022-07-16T07:54:39Z</time>
      </trkpt>
      <trkpt lat="45.65074" lon="6.56891">
        <ele>2005</ele>
        <time>2022-07-16T07:54:41Z</time>
      </trkpt>
      <trkpt lat="45.65071" lon="6.56892">
        <ele>2005</ele>
        <time>2022-07-16T07:54:42Z</time>
      </trkpt>
      <trkpt lat="45.65069" lon="6.56893">
        <ele>2005</ele>
        <time>2022-07-16T07:54:43Z</time>
      </trkpt>
      <trkpt lat="45.65067" lon="6.56893">
        <ele>2005</ele>
        <time>2022-07-16T07:54:44Z</time>
      </trkpt>
      <trkpt lat="45.65064" lon="6.56896">
        <ele>2005</ele>
        <time>2022-07-16T07:54:46Z</time>
      </trkpt>
      <trkpt lat="45.65062" lon="6.56899">
        <ele>2005</ele>
        <time>2022-07-16T07:54:48Z</time>
      </trkpt>
      <trkpt lat="45.65062" lon="6.56902">
        <ele>2006</ele>
        <time>2022-07-16T07:54:50Z</time>
      </trkpt>
      <trkpt lat="45.65062" lon="6.56906">
        <ele>2006</ele>
        <time>2022-07-16T07:54:52Z</time>
      </trkpt>
      <trkpt lat="45.65062" lon="6.56911">
        <ele>2005</ele>
        <time>2022-07-16T07:54:55Z</time>
      </trkpt>
      <trkpt lat="45.65061" lon="6.56915">
        <ele>2004</ele>
        <time>2022-07-16T07:54:56Z</time>
      </trkpt>
      <trkpt lat="45.6506" lon="6.5692">
        <ele>2004</ele>
        <time>2022-07-16T07:54:58Z</time>
      </trkpt>
      <trkpt lat="45.65059" lon="6.56922">
        <ele>2004</ele>
        <time>2022-07-16T07:54:59Z</time>
      </trkpt>
      <trkpt lat="45.65057" lon="6.56926">
        <ele>2005</ele>
        <time>2022-07-16T07:55:01Z</time>
      </trkpt>
      <trkpt lat="45.65056" lon="6.56929">
        <ele>2006</ele>
        <time>2022-07-16T07:55:03Z</time>
      </trkpt>
      <trkpt lat="45.65055" lon="6.56933">
        <ele>2006</ele>
        <time>2022-07-16T07:55:05Z</time>
      </trkpt>
      <trkpt lat="45.65054" lon="6.56936">
        <ele>2006</ele>
        <time>2022-07-16T07:55:07Z</time>
      </trkpt>
      <trkpt lat="45.65053" lon="6.5694">
        <ele>2006</ele>
        <time>2022-07-16T07:55:09Z</time>
      </trkpt>
      <trkpt lat="45.65053" lon="6.56943">
        <ele>2007</ele>
        <time>2022-07-16T07:55:11Z</time>
      </trkpt>
      <trkpt lat="45.65052" lon="6.56946">
        <ele>2007</ele>
        <time>2022-07-16T07:55:13Z</time>
      </trkpt>
      <trkpt lat="45.65052" lon="6.5695">
        <ele>2007</ele>
        <time>2022-07-16T07:55:15Z</time>
      </trkpt>
      <trkpt lat="45.6505" lon="6.56955">
        <ele>2007</ele>
        <time>2022-07-16T07:55:17Z</time>
      </trkpt>
      <trkpt lat="45.65049" lon="6.56958">
        <ele>2007</ele>
        <time>2022-07-16T07:55:19Z</time>
      </trkpt>
      <trkpt lat="45.65047" lon="6.56962">
        <ele>2007</ele>
        <time>2022-07-16T07:55:21Z</time>
      </trkpt>
      <trkpt lat="45.65045" lon="6.56966">
        <ele>2007</ele>
        <time>2022-07-16T07:55:23Z</time>
      </trkpt>
      <trkpt lat="45.65044" lon="6.56968">
        <ele>2007</ele>
        <time>2022-07-16T07:55:24Z</time>
      </trkpt>
      <trkpt lat="45.65043" lon="6.56971">
        <ele>2007</ele>
        <time>2022-07-16T07:55:25Z</time>
      </trkpt>
      <trkpt lat="45.65042" lon="6.56973">
        <ele>2007</ele>
        <time>2022-07-16T07:55:26Z</time>
      </trkpt>
      <trkpt lat="45.6504" lon="6.56975">
        <ele>2007</ele>
        <time>2022-07-16T07:55:27Z</time>
      </trkpt>
      <trkpt lat="45.65039" lon="6.56978">
        <ele>2007</ele>
        <time>2022-07-16T07:55:28Z</time>
      </trkpt>
      <trkpt lat="45.65037" lon="6.56979">
        <ele>2007</ele>
        <time>2022-07-16T07:55:29Z</time>
      </trkpt>
      <trkpt lat="45.65036" lon="6.56983">
        <ele>2007</ele>
        <time>2022-07-16T07:55:31Z</time>
      </trkpt>
      <trkpt lat="45.65034" lon="6.56988">
        <ele>2008</ele>
        <time>2022-07-16T07:55:33Z</time>
      </trkpt>
      <trkpt lat="45.65033" lon="6.56991">
        <ele>2007</ele>
        <time>2022-07-16T07:55:34Z</time>
      </trkpt>
      <trkpt lat="45.65033" lon="6.56993">
        <ele>2006</ele>
        <time>2022-07-16T07:55:35Z</time>
      </trkpt>
      <trkpt lat="45.65032" lon="6.56995">
        <ele>2006</ele>
        <time>2022-07-16T07:55:36Z</time>
      </trkpt>
      <trkpt lat="45.65031" lon="6.56998">
        <ele>2006</ele>
        <time>2022-07-16T07:55:37Z</time>
      </trkpt>
      <trkpt lat="45.6503" lon="6.57">
        <ele>2006</ele>
        <time>2022-07-16T07:55:38Z</time>
      </trkpt>
      <trkpt lat="45.6503" lon="6.57003">
        <ele>2006</ele>
        <time>2022-07-16T07:55:39Z</time>
      </trkpt>
      <trkpt lat="45.65029" lon="6.57006">
        <ele>2006</ele>
        <time>2022-07-16T07:55:40Z</time>
      </trkpt>
      <trkpt lat="45.65029" lon="6.57009">
        <ele>2006</ele>
        <time>2022-07-16T07:55:41Z</time>
      </trkpt>
      <trkpt lat="45.65028" lon="6.57011">
        <ele>2006</ele>
        <time>2022-07-16T07:55:42Z</time>
      </trkpt>
      <trkpt lat="45.65028" lon="6.57015">
        <ele>2006</ele>
        <time>2022-07-16T07:55:43Z</time>
      </trkpt>
      <trkpt lat="45.65028" lon="6.57018">
        <ele>2006</ele>
        <time>2022-07-16T07:55:44Z</time>
      </trkpt>
      <trkpt lat="45.65027" lon="6.57021">
        <ele>2006</ele>
        <time>2022-07-16T07:55:45Z</time>
      </trkpt>
      <trkpt lat="45.65026" lon="6.57026">
        <ele>2006</ele>
        <time>2022-07-16T07:55:47Z</time>
      </trkpt>
      <trkpt lat="45.65025" lon="6.57031">
        <ele>2006</ele>
        <time>2022-07-16T07:55:49Z</time>
      </trkpt>
      <trkpt lat="45.65024" lon="6.57035">
        <ele>2006</ele>
        <time>2022-07-16T07:55:51Z</time>
      </trkpt>
      <trkpt lat="45.65023" lon="6.57039">
        <ele>2006</ele>
        <time>2022-07-16T07:55:53Z</time>
      </trkpt>
      <trkpt lat="45.65022" lon="6.57043">
        <ele>2007</ele>
        <time>2022-07-16T07:55:55Z</time>
      </trkpt>
      <trkpt lat="45.65022" lon="6.57045">
        <ele>2007</ele>
        <time>2022-07-16T07:55:56Z</time>
      </trkpt>
      <trkpt lat="45.65021" lon="6.57048">
        <ele>2007</ele>
        <time>2022-07-16T07:55:57Z</time>
      </trkpt>
      <trkpt lat="45.65021" lon="6.57051">
        <ele>2007</ele>
        <time>2022-07-16T07:55:58Z</time>
      </trkpt>
      <trkpt lat="45.6502" lon="6.57053">
        <ele>2007</ele>
        <time>2022-07-16T07:55:59Z</time>
      </trkpt>
      <trkpt lat="45.65019" lon="6.57056">
        <ele>2007</ele>
        <time>2022-07-16T07:56:00Z</time>
      </trkpt>
      <trkpt lat="45.65018" lon="6.57058">
        <ele>2007</ele>
        <time>2022-07-16T07:56:01Z</time>
      </trkpt>
      <trkpt lat="45.65017" lon="6.5706">
        <ele>2007</ele>
        <time>2022-07-16T07:56:02Z</time>
      </trkpt>
      <trkpt lat="45.65015" lon="6.57061">
        <ele>2007</ele>
        <time>2022-07-16T07:56:03Z</time>
      </trkpt>
      <trkpt lat="45.65013" lon="6.57061">
        <ele>2007</ele>
        <time>2022-07-16T07:56:04Z</time>
      </trkpt>
      <trkpt lat="45.65011" lon="6.57062">
        <ele>2007</ele>
        <time>2022-07-16T07:56:05Z</time>
      </trkpt>
      <trkpt lat="45.65009" lon="6.57062">
        <ele>2007</ele>
        <time>2022-07-16T07:56:06Z</time>
      </trkpt>
      <trkpt lat="45.65006" lon="6.57062">
        <ele>2007</ele>
        <time>2022-07-16T07:56:07Z</time>
      </trkpt>
      <trkpt lat="45.65005" lon="6.57062">
        <ele>2007</ele>
        <time>2022-07-16T07:56:08Z</time>
      </trkpt>
      <trkpt lat="45.65003" lon="6.57061">
        <ele>2007</ele>
        <time>2022-07-16T07:56:09Z</time>
      </trkpt>
      <trkpt lat="45.65001" lon="6.57061">
        <ele>2007</ele>
        <time>2022-07-16T07:56:10Z</time>
      </trkpt>
      <trkpt lat="45.64999" lon="6.57062">
        <ele>2007</ele>
        <time>2022-07-16T07:56:11Z</time>
      </trkpt>
      <trkpt lat="45.64998" lon="6.57063">
        <ele>2007</ele>
        <time>2022-07-16T07:56:12Z</time>
      </trkpt>
      <trkpt lat="45.64996" lon="6.57064">
        <ele>2007</ele>
        <time>2022-07-16T07:56:13Z</time>
      </trkpt>
      <trkpt lat="45.64994" lon="6.57066">
        <ele>2006</ele>
        <time>2022-07-16T07:56:14Z</time>
      </trkpt>
      <trkpt lat="45.64992" lon="6.57068">
        <ele>2006</ele>
        <time>2022-07-16T07:56:15Z</time>
      </trkpt>
      <trkpt lat="45.64991" lon="6.5707">
        <ele>2006</ele>
        <time>2022-07-16T07:56:16Z</time>
      </trkpt>
      <trkpt lat="45.6499" lon="6.57073">
        <ele>2005</ele>
        <time>2022-07-16T07:56:17Z</time>
      </trkpt>
      <trkpt lat="45.64989" lon="6.57075">
        <ele>2005</ele>
        <time>2022-07-16T07:56:18Z</time>
      </trkpt>
      <trkpt lat="45.64988" lon="6.57078">
        <ele>2005</ele>
        <time>2022-07-16T07:56:19Z</time>
      </trkpt>
      <trkpt lat="45.64987" lon="6.57081">
        <ele>2005</ele>
        <time>2022-07-16T07:56:20Z</time>
      </trkpt>
      <trkpt lat="45.64987" lon="6.57084">
        <ele>2005</ele>
        <time>2022-07-16T07:56:21Z</time>
      </trkpt>
      <trkpt lat="45.64986" lon="6.57087">
        <ele>2004</ele>
        <time>2022-07-16T07:56:22Z</time>
      </trkpt>
      <trkpt lat="45.64985" lon="6.5709">
        <ele>2004</ele>
        <time>2022-07-16T07:56:23Z</time>
      </trkpt>
      <trkpt lat="45.64985" lon="6.57092">
        <ele>2004</ele>
        <time>2022-07-16T07:56:24Z</time>
      </trkpt>
      <trkpt lat="45.64984" lon="6.57097">
        <ele>2004</ele>
        <time>2022-07-16T07:56:26Z</time>
      </trkpt>
      <trkpt lat="45.64984" lon="6.571">
        <ele>2004</ele>
        <time>2022-07-16T07:56:27Z</time>
      </trkpt>
      <trkpt lat="45.64983" lon="6.57102">
        <ele>2004</ele>
        <time>2022-07-16T07:56:28Z</time>
      </trkpt>
      <trkpt lat="45.6498" lon="6.57105">
        <ele>2004</ele>
        <time>2022-07-16T07:56:30Z</time>
      </trkpt>
      <trkpt lat="45.64979" lon="6.57108">
        <ele>2004</ele>
        <time>2022-07-16T07:56:34Z</time>
      </trkpt>
      <trkpt lat="45.64978" lon="6.57111">
        <ele>2003</ele>
        <time>2022-07-16T07:56:36Z</time>
      </trkpt>
      <trkpt lat="45.64975" lon="6.57115">
        <ele>2003</ele>
        <time>2022-07-16T07:56:38Z</time>
      </trkpt>
      <trkpt lat="45.64974" lon="6.57116">
        <ele>2003</ele>
        <time>2022-07-16T07:56:39Z</time>
      </trkpt>
      <trkpt lat="45.64973" lon="6.57118">
        <ele>2003</ele>
        <time>2022-07-16T07:56:40Z</time>
      </trkpt>
      <trkpt lat="45.64972" lon="6.5712">
        <ele>2003</ele>
        <time>2022-07-16T07:56:41Z</time>
      </trkpt>
      <trkpt lat="45.64971" lon="6.57123">
        <ele>2003</ele>
        <time>2022-07-16T07:56:42Z</time>
      </trkpt>
      <trkpt lat="45.6497" lon="6.57125">
        <ele>2003</ele>
        <time>2022-07-16T07:56:43Z</time>
      </trkpt>
      <trkpt lat="45.64968" lon="6.57128">
        <ele>2003</ele>
        <time>2022-07-16T07:56:44Z</time>
      </trkpt>
      <trkpt lat="45.64966" lon="6.5713">
        <ele>2002</ele>
        <time>2022-07-16T07:56:45Z</time>
      </trkpt>
      <trkpt lat="45.64964" lon="6.57132">
        <ele>2002</ele>
        <time>2022-07-16T07:56:46Z</time>
      </trkpt>
      <trkpt lat="45.64962" lon="6.57134">
        <ele>2002</ele>
        <time>2022-07-16T07:56:47Z</time>
      </trkpt>
      <trkpt lat="45.64961" lon="6.57135">
        <ele>2002</ele>
        <time>2022-07-16T07:56:48Z</time>
      </trkpt>
      <trkpt lat="45.64959" lon="6.57137">
        <ele>2002</ele>
        <time>2022-07-16T07:56:49Z</time>
      </trkpt>
      <trkpt lat="45.64958" lon="6.5714">
        <ele>2002</ele>
        <time>2022-07-16T07:56:50Z</time>
      </trkpt>
      <trkpt lat="45.64956" lon="6.57142">
        <ele>2002</ele>
        <time>2022-07-16T07:56:51Z</time>
      </trkpt>
      <trkpt lat="45.64955" lon="6.57145">
        <ele>2002</ele>
        <time>2022-07-16T07:56:52Z</time>
      </trkpt>
      <trkpt lat="45.64955" lon="6.57147">
        <ele>2002</ele>
        <time>2022-07-16T07:56:53Z</time>
      </trkpt>
      <trkpt lat="45.64954" lon="6.57151">
        <ele>2002</ele>
        <time>2022-07-16T07:56:54Z</time>
      </trkpt>
      <trkpt lat="45.64954" lon="6.57154">
        <ele>2002</ele>
        <time>2022-07-16T07:56:55Z</time>
      </trkpt>
      <trkpt lat="45.64954" lon="6.57157">
        <ele>2002</ele>
        <time>2022-07-16T07:56:56Z</time>
      </trkpt>
      <trkpt lat="45.64954" lon="6.5716">
        <ele>2002</ele>
        <time>2022-07-16T07:56:57Z</time>
      </trkpt>
      <trkpt lat="45.64954" lon="6.57163">
        <ele>2001</ele>
        <time>2022-07-16T07:56:58Z</time>
      </trkpt>
      <trkpt lat="45.64954" lon="6.57165">
        <ele>2001</ele>
        <time>2022-07-16T07:56:59Z</time>
      </trkpt>
      <trkpt lat="45.64955" lon="6.5717">
        <ele>2001</ele>
        <time>2022-07-16T07:57:01Z</time>
      </trkpt>
      <trkpt lat="45.64956" lon="6.57173">
        <ele>2001</ele>
        <time>2022-07-16T07:57:02Z</time>
      </trkpt>
      <trkpt lat="45.64953" lon="6.57178">
        <ele>2000</ele>
        <time>2022-07-16T07:57:04Z</time>
      </trkpt>
      <trkpt lat="45.64953" lon="6.5718">
        <ele>2000</ele>
        <time>2022-07-16T07:57:05Z</time>
      </trkpt>
      <trkpt lat="45.64951" lon="6.57182">
        <ele>2000</ele>
        <time>2022-07-16T07:57:06Z</time>
      </trkpt>
      <trkpt lat="45.64948" lon="6.57186">
        <ele>2000</ele>
        <time>2022-07-16T07:57:08Z</time>
      </trkpt>
      <trkpt lat="45.64947" lon="6.57188">
        <ele>2000</ele>
        <time>2022-07-16T07:57:09Z</time>
      </trkpt>
      <trkpt lat="45.64946" lon="6.5719">
        <ele>1999</ele>
        <time>2022-07-16T07:57:10Z</time>
      </trkpt>
      <trkpt lat="45.64944" lon="6.57192">
        <ele>1999</ele>
        <time>2022-07-16T07:57:11Z</time>
      </trkpt>
      <trkpt lat="45.64943" lon="6.57194">
        <ele>1999</ele>
        <time>2022-07-16T07:57:12Z</time>
      </trkpt>
      <trkpt lat="45.64942" lon="6.57196">
        <ele>1999</ele>
        <time>2022-07-16T07:57:13Z</time>
      </trkpt>
      <trkpt lat="45.6494" lon="6.57198">
        <ele>1999</ele>
        <time>2022-07-16T07:57:14Z</time>
      </trkpt>
      <trkpt lat="45.64938" lon="6.57199">
        <ele>1999</ele>
        <time>2022-07-16T07:57:15Z</time>
      </trkpt>
      <trkpt lat="45.64936" lon="6.572">
        <ele>1999</ele>
        <time>2022-07-16T07:57:16Z</time>
      </trkpt>
      <trkpt lat="45.64935" lon="6.57202">
        <ele>1999</ele>
        <time>2022-07-16T07:57:17Z</time>
      </trkpt>
      <trkpt lat="45.64932" lon="6.57203">
        <ele>1999</ele>
        <time>2022-07-16T07:57:18Z</time>
      </trkpt>
      <trkpt lat="45.64931" lon="6.57204">
        <ele>1998</ele>
        <time>2022-07-16T07:57:19Z</time>
      </trkpt>
      <trkpt lat="45.64929" lon="6.57205">
        <ele>1998</ele>
        <time>2022-07-16T07:57:20Z</time>
      </trkpt>
      <trkpt lat="45.64928" lon="6.57207">
        <ele>1997</ele>
        <time>2022-07-16T07:57:21Z</time>
      </trkpt>
      <trkpt lat="45.64926" lon="6.57209">
        <ele>1997</ele>
        <time>2022-07-16T07:57:22Z</time>
      </trkpt>
      <trkpt lat="45.64924" lon="6.57213">
        <ele>1996</ele>
        <time>2022-07-16T07:57:23Z</time>
      </trkpt>
      <trkpt lat="45.64923" lon="6.57214">
        <ele>1996</ele>
        <time>2022-07-16T07:57:24Z</time>
      </trkpt>
      <trkpt lat="45.64921" lon="6.57217">
        <ele>1996</ele>
        <time>2022-07-16T07:57:25Z</time>
      </trkpt>
      <trkpt lat="45.6492" lon="6.57219">
        <ele>1995</ele>
        <time>2022-07-16T07:57:26Z</time>
      </trkpt>
      <trkpt lat="45.64919" lon="6.57221">
        <ele>1995</ele>
        <time>2022-07-16T07:57:27Z</time>
      </trkpt>
      <trkpt lat="45.64917" lon="6.57223">
        <ele>1995</ele>
        <time>2022-07-16T07:57:28Z</time>
      </trkpt>
      <trkpt lat="45.64915" lon="6.57225">
        <ele>1995</ele>
        <time>2022-07-16T07:57:29Z</time>
      </trkpt>
      <trkpt lat="45.64912" lon="6.57227">
        <ele>1995</ele>
        <time>2022-07-16T07:57:30Z</time>
      </trkpt>
      <trkpt lat="45.64911" lon="6.57228">
        <ele>1994</ele>
        <time>2022-07-16T07:57:31Z</time>
      </trkpt>
      <trkpt lat="45.64909" lon="6.57229">
        <ele>1994</ele>
        <time>2022-07-16T07:57:32Z</time>
      </trkpt>
      <trkpt lat="45.64908" lon="6.57231">
        <ele>1994</ele>
        <time>2022-07-16T07:57:33Z</time>
      </trkpt>
      <trkpt lat="45.64906" lon="6.57236">
        <ele>1993</ele>
        <time>2022-07-16T07:57:35Z</time>
      </trkpt>
      <trkpt lat="45.64905" lon="6.57239">
        <ele>1993</ele>
        <time>2022-07-16T07:57:36Z</time>
      </trkpt>
      <trkpt lat="45.64904" lon="6.57242">
        <ele>1993</ele>
        <time>2022-07-16T07:57:37Z</time>
      </trkpt>
      <trkpt lat="45.64903" lon="6.57244">
        <ele>1993</ele>
        <time>2022-07-16T07:57:38Z</time>
      </trkpt>
      <trkpt lat="45.64902" lon="6.57247">
        <ele>1992</ele>
        <time>2022-07-16T07:57:39Z</time>
      </trkpt>
      <trkpt lat="45.64901" lon="6.5725">
        <ele>1992</ele>
        <time>2022-07-16T07:57:40Z</time>
      </trkpt>
      <trkpt lat="45.64901" lon="6.57253">
        <ele>1992</ele>
        <time>2022-07-16T07:57:41Z</time>
      </trkpt>
      <trkpt lat="45.64902" lon="6.57257">
        <ele>1992</ele>
        <time>2022-07-16T07:57:42Z</time>
      </trkpt>
      <trkpt lat="45.64902" lon="6.57259">
        <ele>1992</ele>
        <time>2022-07-16T07:57:43Z</time>
      </trkpt>
      <trkpt lat="45.64902" lon="6.57262">
        <ele>1992</ele>
        <time>2022-07-16T07:57:44Z</time>
      </trkpt>
      <trkpt lat="45.64903" lon="6.57265">
        <ele>1991</ele>
        <time>2022-07-16T07:57:45Z</time>
      </trkpt>
      <trkpt lat="45.64903" lon="6.57268">
        <ele>1991</ele>
        <time>2022-07-16T07:57:46Z</time>
      </trkpt>
      <trkpt lat="45.64904" lon="6.57273">
        <ele>1990</ele>
        <time>2022-07-16T07:57:47Z</time>
      </trkpt>
      <trkpt lat="45.64905" lon="6.57274">
        <ele>1990</ele>
        <time>2022-07-16T07:57:48Z</time>
      </trkpt>
      <trkpt lat="45.64906" lon="6.57279">
        <ele>1990</ele>
        <time>2022-07-16T07:57:49Z</time>
      </trkpt>
      <trkpt lat="45.64907" lon="6.5728">
        <ele>1990</ele>
        <time>2022-07-16T07:57:50Z</time>
      </trkpt>
      <trkpt lat="45.64908" lon="6.57283">
        <ele>1990</ele>
        <time>2022-07-16T07:57:51Z</time>
      </trkpt>
      <trkpt lat="45.64909" lon="6.57285">
        <ele>1990</ele>
        <time>2022-07-16T07:57:52Z</time>
      </trkpt>
      <trkpt lat="45.64911" lon="6.57287">
        <ele>1990</ele>
        <time>2022-07-16T07:57:53Z</time>
      </trkpt>
      <trkpt lat="45.64912" lon="6.57289">
        <ele>1990</ele>
        <time>2022-07-16T07:57:54Z</time>
      </trkpt>
      <trkpt lat="45.64914" lon="6.57291">
        <ele>1989</ele>
        <time>2022-07-16T07:57:55Z</time>
      </trkpt>
      <trkpt lat="45.64915" lon="6.57295">
        <ele>1989</ele>
        <time>2022-07-16T07:57:57Z</time>
      </trkpt>
      <trkpt lat="45.64915" lon="6.573">
        <ele>1988</ele>
        <time>2022-07-16T07:57:59Z</time>
      </trkpt>
      <trkpt lat="45.64913" lon="6.57306">
        <ele>1986</ele>
        <time>2022-07-16T07:58:01Z</time>
      </trkpt>
      <trkpt lat="45.64913" lon="6.57307">
        <ele>1986</ele>
        <time>2022-07-16T07:58:02Z</time>
      </trkpt>
      <trkpt lat="45.64911" lon="6.57308">
        <ele>1986</ele>
        <time>2022-07-16T07:58:03Z</time>
      </trkpt>
      <trkpt lat="45.64907" lon="6.57311">
        <ele>1986</ele>
        <time>2022-07-16T07:58:05Z</time>
      </trkpt>
      <trkpt lat="45.64904" lon="6.57313">
        <ele>1984</ele>
        <time>2022-07-16T07:58:06Z</time>
      </trkpt>
      <trkpt lat="45.64903" lon="6.57313">
        <ele>1983</ele>
        <time>2022-07-16T07:58:07Z</time>
      </trkpt>
      <trkpt lat="45.64901" lon="6.57315">
        <ele>1983</ele>
        <time>2022-07-16T07:58:08Z</time>
      </trkpt>
      <trkpt lat="45.64899" lon="6.57316">
        <ele>1983</ele>
        <time>2022-07-16T07:58:09Z</time>
      </trkpt>
      <trkpt lat="45.64897" lon="6.57318">
        <ele>1983</ele>
        <time>2022-07-16T07:58:10Z</time>
      </trkpt>
      <trkpt lat="45.64896" lon="6.57319">
        <ele>1983</ele>
        <time>2022-07-16T07:58:11Z</time>
      </trkpt>
      <trkpt lat="45.64894" lon="6.57319">
        <ele>1983</ele>
        <time>2022-07-16T07:58:12Z</time>
      </trkpt>
      <trkpt lat="45.64892" lon="6.57322">
        <ele>1982</ele>
        <time>2022-07-16T07:58:14Z</time>
      </trkpt>
      <trkpt lat="45.64892" lon="6.57325">
        <ele>1981</ele>
        <time>2022-07-16T07:58:16Z</time>
      </trkpt>
      <trkpt lat="45.64893" lon="6.5733">
        <ele>1980</ele>
        <time>2022-07-16T07:58:18Z</time>
      </trkpt>
      <trkpt lat="45.64894" lon="6.57335">
        <ele>1979</ele>
        <time>2022-07-16T07:58:20Z</time>
      </trkpt>
      <trkpt lat="45.64895" lon="6.57339">
        <ele>1979</ele>
        <time>2022-07-16T07:58:22Z</time>
      </trkpt>
      <trkpt lat="45.64895" lon="6.57343">
        <ele>1978</ele>
        <time>2022-07-16T07:58:24Z</time>
      </trkpt>
      <trkpt lat="45.64892" lon="6.57346">
        <ele>1977</ele>
        <time>2022-07-16T07:58:26Z</time>
      </trkpt>
      <trkpt lat="45.6489" lon="6.57346">
        <ele>1977</ele>
        <time>2022-07-16T07:58:28Z</time>
      </trkpt>
      <trkpt lat="45.64887" lon="6.57345">
        <ele>1976</ele>
        <time>2022-07-16T07:58:31Z</time>
      </trkpt>
      <trkpt lat="45.64885" lon="6.57345">
        <ele>1974</ele>
        <time>2022-07-16T07:58:33Z</time>
      </trkpt>
      <trkpt lat="45.64882" lon="6.57345">
        <ele>1973</ele>
        <time>2022-07-16T07:58:35Z</time>
      </trkpt>
      <trkpt lat="45.6488" lon="6.57346">
        <ele>1973</ele>
        <time>2022-07-16T07:58:37Z</time>
      </trkpt>
      <trkpt lat="45.64877" lon="6.57349">
        <ele>1973</ele>
        <time>2022-07-16T07:58:39Z</time>
      </trkpt>
      <trkpt lat="45.64875" lon="6.57352">
        <ele>1972</ele>
        <time>2022-07-16T07:58:41Z</time>
      </trkpt>
      <trkpt lat="45.64872" lon="6.57353">
        <ele>1972</ele>
        <time>2022-07-16T07:58:43Z</time>
      </trkpt>
      <trkpt lat="45.64869" lon="6.57355">
        <ele>1970</ele>
        <time>2022-07-16T07:58:45Z</time>
      </trkpt>
      <trkpt lat="45.64865" lon="6.57355">
        <ele>1970</ele>
        <time>2022-07-16T07:58:47Z</time>
      </trkpt>
      <trkpt lat="45.64863" lon="6.57354">
        <ele>1970</ele>
        <time>2022-07-16T07:58:48Z</time>
      </trkpt>
      <trkpt lat="45.64861" lon="6.57354">
        <ele>1970</ele>
        <time>2022-07-16T07:58:49Z</time>
      </trkpt>
      <trkpt lat="45.64858" lon="6.57352">
        <ele>1969</ele>
        <time>2022-07-16T07:58:51Z</time>
      </trkpt>
      <trkpt lat="45.64855" lon="6.5735">
        <ele>1968</ele>
        <time>2022-07-16T07:58:53Z</time>
      </trkpt>
      <trkpt lat="45.64852" lon="6.57351">
        <ele>1967</ele>
        <time>2022-07-16T07:58:55Z</time>
      </trkpt>
      <trkpt lat="45.64851" lon="6.57353">
        <ele>1966</ele>
        <time>2022-07-16T07:58:57Z</time>
      </trkpt>
      <trkpt lat="45.64849" lon="6.57354">
        <ele>1966</ele>
        <time>2022-07-16T07:58:59Z</time>
      </trkpt>
      <trkpt lat="45.64847" lon="6.57354">
        <ele>1965</ele>
        <time>2022-07-16T07:59:00Z</time>
      </trkpt>
      <trkpt lat="45.64845" lon="6.57353">
        <ele>1965</ele>
        <time>2022-07-16T07:59:01Z</time>
      </trkpt>
      <trkpt lat="45.64842" lon="6.5735">
        <ele>1964</ele>
        <time>2022-07-16T07:59:03Z</time>
      </trkpt>
      <trkpt lat="45.64841" lon="6.57348">
        <ele>1964</ele>
        <time>2022-07-16T07:59:05Z</time>
      </trkpt>
      <trkpt lat="45.64839" lon="6.57347">
        <ele>1963</ele>
        <time>2022-07-16T07:59:07Z</time>
      </trkpt>
      <trkpt lat="45.64837" lon="6.57347">
        <ele>1963</ele>
        <time>2022-07-16T07:59:09Z</time>
      </trkpt>
      <trkpt lat="45.64834" lon="6.57348">
        <ele>1962</ele>
        <time>2022-07-16T07:59:11Z</time>
      </trkpt>
      <trkpt lat="45.64831" lon="6.57347">
        <ele>1960</ele>
        <time>2022-07-16T07:59:13Z</time>
      </trkpt>
      <trkpt lat="45.64829" lon="6.57346">
        <ele>1960</ele>
        <time>2022-07-16T07:59:14Z</time>
      </trkpt>
      <trkpt lat="45.64828" lon="6.57345">
        <ele>1960</ele>
        <time>2022-07-16T07:59:15Z</time>
      </trkpt>
      <trkpt lat="45.64827" lon="6.57344">
        <ele>1959</ele>
        <time>2022-07-16T07:59:16Z</time>
      </trkpt>
      <trkpt lat="45.64825" lon="6.57344">
        <ele>1959</ele>
        <time>2022-07-16T07:59:17Z</time>
      </trkpt>
      <trkpt lat="45.64822" lon="6.57343">
        <ele>1958</ele>
        <time>2022-07-16T07:59:19Z</time>
      </trkpt>
      <trkpt lat="45.64819" lon="6.57342">
        <ele>1958</ele>
        <time>2022-07-16T07:59:21Z</time>
      </trkpt>
      <trkpt lat="45.64817" lon="6.5734">
        <ele>1956</ele>
        <time>2022-07-16T07:59:23Z</time>
      </trkpt>
      <trkpt lat="45.64815" lon="6.57339">
        <ele>1956</ele>
        <time>2022-07-16T07:59:25Z</time>
      </trkpt>
      <trkpt lat="45.64813" lon="6.57339">
        <ele>1955</ele>
        <time>2022-07-16T07:59:27Z</time>
      </trkpt>
      <trkpt lat="45.64811" lon="6.57341">
        <ele>1954</ele>
        <time>2022-07-16T07:59:30Z</time>
      </trkpt>
      <trkpt lat="45.6481" lon="6.57343">
        <ele>1953</ele>
        <time>2022-07-16T07:59:32Z</time>
      </trkpt>
      <trkpt lat="45.64808" lon="6.57344">
        <ele>1952</ele>
        <time>2022-07-16T07:59:34Z</time>
      </trkpt>
      <trkpt lat="45.64806" lon="6.57344">
        <ele>1951</ele>
        <time>2022-07-16T07:59:40Z</time>
      </trkpt>
      <trkpt lat="45.64803" lon="6.57345">
        <ele>1951</ele>
        <time>2022-07-16T07:59:41Z</time>
      </trkpt>
      <trkpt lat="45.64801" lon="6.57346">
        <ele>1948</ele>
        <time>2022-07-16T07:59:44Z</time>
      </trkpt>
      <trkpt lat="45.64798" lon="6.57346">
        <ele>1947</ele>
        <time>2022-07-16T07:59:47Z</time>
      </trkpt>
      <trkpt lat="45.64795" lon="6.57346">
        <ele>1947</ele>
        <time>2022-07-16T07:59:49Z</time>
      </trkpt>
      <trkpt lat="45.64793" lon="6.57345">
        <ele>1946</ele>
        <time>2022-07-16T07:59:51Z</time>
      </trkpt>
      <trkpt lat="45.6479" lon="6.57345">
        <ele>1944</ele>
        <time>2022-07-16T07:59:53Z</time>
      </trkpt>
      <trkpt lat="45.64788" lon="6.57345">
        <ele>1944</ele>
        <time>2022-07-16T07:59:55Z</time>
      </trkpt>
      <trkpt lat="45.64786" lon="6.57345">
        <ele>1944</ele>
        <time>2022-07-16T07:59:57Z</time>
      </trkpt>
      <trkpt lat="45.64784" lon="6.57346">
        <ele>1943</ele>
        <time>2022-07-16T07:59:59Z</time>
      </trkpt>
      <trkpt lat="45.64781" lon="6.57346">
        <ele>1943</ele>
        <time>2022-07-16T08:00:00Z</time>
      </trkpt>
      <trkpt lat="45.64778" lon="6.57345">
        <ele>1941</ele>
        <time>2022-07-16T08:00:02Z</time>
      </trkpt>
      <trkpt lat="45.64775" lon="6.57344">
        <ele>1941</ele>
        <time>2022-07-16T08:00:04Z</time>
      </trkpt>
      <trkpt lat="45.64772" lon="6.57343">
        <ele>1941</ele>
        <time>2022-07-16T08:00:07Z</time>
      </trkpt>
      <trkpt lat="45.6477" lon="6.57344">
        <ele>1940</ele>
        <time>2022-07-16T08:00:10Z</time>
      </trkpt>
      <trkpt lat="45.64766" lon="6.57345">
        <ele>1939</ele>
        <time>2022-07-16T08:00:12Z</time>
      </trkpt>
      <trkpt lat="45.64764" lon="6.57345">
        <ele>1939</ele>
        <time>2022-07-16T08:00:13Z</time>
      </trkpt>
      <trkpt lat="45.64762" lon="6.57346">
        <ele>1938</ele>
        <time>2022-07-16T08:00:15Z</time>
      </trkpt>
      <trkpt lat="45.6476" lon="6.57346">
        <ele>1937</ele>
        <time>2022-07-16T08:00:17Z</time>
      </trkpt>
      <trkpt lat="45.64757" lon="6.57345">
        <ele>1937</ele>
        <time>2022-07-16T08:00:19Z</time>
      </trkpt>
      <trkpt lat="45.64755" lon="6.57344">
        <ele>1937</ele>
        <time>2022-07-16T08:00:21Z</time>
      </trkpt>
      <trkpt lat="45.64752" lon="6.57346">
        <ele>1935</ele>
        <time>2022-07-16T08:00:23Z</time>
      </trkpt>
      <trkpt lat="45.6475" lon="6.57347">
        <ele>1934</ele>
        <time>2022-07-16T08:00:25Z</time>
      </trkpt>
      <trkpt lat="45.64749" lon="6.5735">
        <ele>1933</ele>
        <time>2022-07-16T08:00:29Z</time>
      </trkpt>
      <trkpt lat="45.6475" lon="6.57353">
        <ele>1933</ele>
        <time>2022-07-16T08:00:31Z</time>
      </trkpt>
      <trkpt lat="45.64748" lon="6.57355">
        <ele>1932</ele>
        <time>2022-07-16T08:00:33Z</time>
      </trkpt>
      <trkpt lat="45.64746" lon="6.57358">
        <ele>1931</ele>
        <time>2022-07-16T08:00:35Z</time>
      </trkpt>
      <trkpt lat="45.64744" lon="6.5736">
        <ele>1931</ele>
        <time>2022-07-16T08:00:37Z</time>
      </trkpt>
      <trkpt lat="45.64742" lon="6.57361">
        <ele>1929</ele>
        <time>2022-07-16T08:00:40Z</time>
      </trkpt>
      <trkpt lat="45.64739" lon="6.57362">
        <ele>1929</ele>
        <time>2022-07-16T08:00:42Z</time>
      </trkpt>
      <trkpt lat="45.64737" lon="6.57364">
        <ele>1928</ele>
        <time>2022-07-16T08:00:44Z</time>
      </trkpt>
      <trkpt lat="45.64736" lon="6.57367">
        <ele>1926</ele>
        <time>2022-07-16T08:00:46Z</time>
      </trkpt>
      <trkpt lat="45.64737" lon="6.5737">
        <ele>1926</ele>
        <time>2022-07-16T08:00:48Z</time>
      </trkpt>
      <trkpt lat="45.64735" lon="6.57375">
        <ele>1926</ele>
        <time>2022-07-16T08:00:50Z</time>
      </trkpt>
      <trkpt lat="45.64734" lon="6.57376">
        <ele>1925</ele>
        <time>2022-07-16T08:00:51Z</time>
      </trkpt>
      <trkpt lat="45.64732" lon="6.57377">
        <ele>1925</ele>
        <time>2022-07-16T08:00:52Z</time>
      </trkpt>
      <trkpt lat="45.6473" lon="6.57377">
        <ele>1925</ele>
        <time>2022-07-16T08:00:53Z</time>
      </trkpt>
      <trkpt lat="45.64727" lon="6.57377">
        <ele>1925</ele>
        <time>2022-07-16T08:00:54Z</time>
      </trkpt>
      <trkpt lat="45.64723" lon="6.57376">
        <ele>1925</ele>
        <time>2022-07-16T08:00:56Z</time>
      </trkpt>
      <trkpt lat="45.6472" lon="6.57374">
        <ele>1923</ele>
        <time>2022-07-16T08:00:58Z</time>
      </trkpt>
      <trkpt lat="45.64716" lon="6.57373">
        <ele>1923</ele>
        <time>2022-07-16T08:01:00Z</time>
      </trkpt>
      <trkpt lat="45.64713" lon="6.57373">
        <ele>1923</ele>
        <time>2022-07-16T08:01:01Z</time>
      </trkpt>
      <trkpt lat="45.64711" lon="6.57372">
        <ele>1923</ele>
        <time>2022-07-16T08:01:02Z</time>
      </trkpt>
      <trkpt lat="45.64709" lon="6.57371">
        <ele>1923</ele>
        <time>2022-07-16T08:01:03Z</time>
      </trkpt>
      <trkpt lat="45.64707" lon="6.5737">
        <ele>1922</ele>
        <time>2022-07-16T08:01:04Z</time>
      </trkpt>
      <trkpt lat="45.64705" lon="6.57369">
        <ele>1922</ele>
        <time>2022-07-16T08:01:05Z</time>
      </trkpt>
      <trkpt lat="45.64703" lon="6.57367">
        <ele>1922</ele>
        <time>2022-07-16T08:01:06Z</time>
      </trkpt>
      <trkpt lat="45.64701" lon="6.57365">
        <ele>1921</ele>
        <time>2022-07-16T08:01:07Z</time>
      </trkpt>
      <trkpt lat="45.64698" lon="6.57364">
        <ele>1921</ele>
        <time>2022-07-16T08:01:08Z</time>
      </trkpt>
      <trkpt lat="45.64697" lon="6.57363">
        <ele>1921</ele>
        <time>2022-07-16T08:01:09Z</time>
      </trkpt>
      <trkpt lat="45.64695" lon="6.57362">
        <ele>1921</ele>
        <time>2022-07-16T08:01:10Z</time>
      </trkpt>
      <trkpt lat="45.64693" lon="6.57361">
        <ele>1920</ele>
        <time>2022-07-16T08:01:11Z</time>
      </trkpt>
      <trkpt lat="45.64691" lon="6.57359">
        <ele>1920</ele>
        <time>2022-07-16T08:01:12Z</time>
      </trkpt>
      <trkpt lat="45.64689" lon="6.57358">
        <ele>1920</ele>
        <time>2022-07-16T08:01:13Z</time>
      </trkpt>
      <trkpt lat="45.64687" lon="6.57356">
        <ele>1920</ele>
        <time>2022-07-16T08:01:14Z</time>
      </trkpt>
      <trkpt lat="45.64684" lon="6.57355">
        <ele>1920</ele>
        <time>2022-07-16T08:01:16Z</time>
      </trkpt>
      <trkpt lat="45.64681" lon="6.57354">
        <ele>1920</ele>
        <time>2022-07-16T08:01:18Z</time>
      </trkpt>
      <trkpt lat="45.64678" lon="6.57352">
        <ele>1920</ele>
        <time>2022-07-16T08:01:20Z</time>
      </trkpt>
      <trkpt lat="45.64676" lon="6.57351">
        <ele>1920</ele>
        <time>2022-07-16T08:01:21Z</time>
      </trkpt>
      <trkpt lat="45.64674" lon="6.57349">
        <ele>1919</ele>
        <time>2022-07-16T08:01:22Z</time>
      </trkpt>
      <trkpt lat="45.64673" lon="6.57346">
        <ele>1919</ele>
        <time>2022-07-16T08:01:23Z</time>
      </trkpt>
      <trkpt lat="45.64672" lon="6.57344">
        <ele>1919</ele>
        <time>2022-07-16T08:01:24Z</time>
      </trkpt>
      <trkpt lat="45.64671" lon="6.57341">
        <ele>1919</ele>
        <time>2022-07-16T08:01:25Z</time>
      </trkpt>
      <trkpt lat="45.64669" lon="6.57339">
        <ele>1919</ele>
        <time>2022-07-16T08:01:26Z</time>
      </trkpt>
      <trkpt lat="45.64667" lon="6.57338">
        <ele>1919</ele>
        <time>2022-07-16T08:01:27Z</time>
      </trkpt>
      <trkpt lat="45.64666" lon="6.57336">
        <ele>1919</ele>
        <time>2022-07-16T08:01:28Z</time>
      </trkpt>
      <trkpt lat="45.64664" lon="6.57335">
        <ele>1919</ele>
        <time>2022-07-16T08:01:29Z</time>
      </trkpt>
      <trkpt lat="45.64661" lon="6.57334">
        <ele>1918</ele>
        <time>2022-07-16T08:01:31Z</time>
      </trkpt>
      <trkpt lat="45.64659" lon="6.57335">
        <ele>1918</ele>
        <time>2022-07-16T08:01:34Z</time>
      </trkpt>
      <trkpt lat="45.64656" lon="6.57337">
        <ele>1916</ele>
        <time>2022-07-16T08:01:35Z</time>
      </trkpt>
      <trkpt lat="45.64652" lon="6.57338">
        <ele>1915</ele>
        <time>2022-07-16T08:01:37Z</time>
      </trkpt>
      <trkpt lat="45.64649" lon="6.57338">
        <ele>1915</ele>
        <time>2022-07-16T08:01:39Z</time>
      </trkpt>
      <trkpt lat="45.64647" lon="6.57337">
        <ele>1915</ele>
        <time>2022-07-16T08:01:41Z</time>
      </trkpt>
      <trkpt lat="45.64649" lon="6.57339">
        <ele>1914</ele>
        <time>2022-07-16T08:01:45Z</time>
      </trkpt>
      <trkpt lat="45.64647" lon="6.57341">
        <ele>1913</ele>
        <time>2022-07-16T08:01:47Z</time>
      </trkpt>
      <trkpt lat="45.64644" lon="6.5734">
        <ele>1912</ele>
        <time>2022-07-16T08:01:49Z</time>
      </trkpt>
      <trkpt lat="45.64642" lon="6.57341">
        <ele>1911</ele>
        <time>2022-07-16T08:01:52Z</time>
      </trkpt>
      <trkpt lat="45.6464" lon="6.57342">
        <ele>1910</ele>
        <time>2022-07-16T08:01:55Z</time>
      </trkpt>
      <trkpt lat="45.64638" lon="6.57343">
        <ele>1910</ele>
        <time>2022-07-16T08:01:58Z</time>
      </trkpt>
      <trkpt lat="45.64636" lon="6.57343">
        <ele>1908</ele>
        <time>2022-07-16T08:02:00Z</time>
      </trkpt>
      <trkpt lat="45.64634" lon="6.57342">
        <ele>1908</ele>
        <time>2022-07-16T08:02:03Z</time>
      </trkpt>
      <trkpt lat="45.64632" lon="6.57342">
        <ele>1906</ele>
        <time>2022-07-16T08:02:06Z</time>
      </trkpt>
      <trkpt lat="45.6463" lon="6.57345">
        <ele>1906</ele>
        <time>2022-07-16T08:02:10Z</time>
      </trkpt>
      <trkpt lat="45.64629" lon="6.57346">
        <ele>1905</ele>
        <time>2022-07-16T08:02:12Z</time>
      </trkpt>
      <trkpt lat="45.64627" lon="6.57347">
        <ele>1904</ele>
        <time>2022-07-16T08:02:15Z</time>
      </trkpt>
      <trkpt lat="45.64625" lon="6.57349">
        <ele>1903</ele>
        <time>2022-07-16T08:02:17Z</time>
      </trkpt>
      <trkpt lat="45.64622" lon="6.57348">
        <ele>1903</ele>
        <time>2022-07-16T08:02:19Z</time>
      </trkpt>
      <trkpt lat="45.6462" lon="6.57349">
        <ele>1902</ele>
        <time>2022-07-16T08:02:21Z</time>
      </trkpt>
      <trkpt lat="45.64616" lon="6.5735">
        <ele>1901</ele>
        <time>2022-07-16T08:02:23Z</time>
      </trkpt>
      <trkpt lat="45.64614" lon="6.57349">
        <ele>1900</ele>
        <time>2022-07-16T08:02:25Z</time>
      </trkpt>
      <trkpt lat="45.64615" lon="6.57352">
        <ele>1899</ele>
        <time>2022-07-16T08:02:28Z</time>
      </trkpt>
      <trkpt lat="45.64617" lon="6.57353">
        <ele>1899</ele>
        <time>2022-07-16T08:02:31Z</time>
      </trkpt>
      <trkpt lat="45.64619" lon="6.57353">
        <ele>1898</ele>
        <time>2022-07-16T08:02:33Z</time>
      </trkpt>
      <trkpt lat="45.6462" lon="6.57356">
        <ele>1896</ele>
        <time>2022-07-16T08:02:35Z</time>
      </trkpt>
      <trkpt lat="45.64622" lon="6.57359">
        <ele>1895</ele>
        <time>2022-07-16T08:02:38Z</time>
      </trkpt>
      <trkpt lat="45.64622" lon="6.57361">
        <ele>1894</ele>
        <time>2022-07-16T08:02:41Z</time>
      </trkpt>
      <trkpt lat="45.64619" lon="6.57363">
        <ele>1894</ele>
        <time>2022-07-16T08:02:43Z</time>
      </trkpt>
      <trkpt lat="45.64617" lon="6.57365">
        <ele>1893</ele>
        <time>2022-07-16T08:02:45Z</time>
      </trkpt>
      <trkpt lat="45.64614" lon="6.57367">
        <ele>1892</ele>
        <time>2022-07-16T08:02:48Z</time>
      </trkpt>
      <trkpt lat="45.64611" lon="6.57367">
        <ele>1891</ele>
        <time>2022-07-16T08:02:50Z</time>
      </trkpt>
      <trkpt lat="45.64608" lon="6.57367">
        <ele>1891</ele>
        <time>2022-07-16T08:02:51Z</time>
      </trkpt>
      <trkpt lat="45.64606" lon="6.57366">
        <ele>1890</ele>
        <time>2022-07-16T08:02:53Z</time>
      </trkpt>
      <trkpt lat="45.64604" lon="6.57365">
        <ele>1890</ele>
        <time>2022-07-16T08:02:54Z</time>
      </trkpt>
      <trkpt lat="45.64601" lon="6.57362">
        <ele>1890</ele>
        <time>2022-07-16T08:02:56Z</time>
      </trkpt>
      <trkpt lat="45.64598" lon="6.5736">
        <ele>1889</ele>
        <time>2022-07-16T08:02:58Z</time>
      </trkpt>
      <trkpt lat="45.64596" lon="6.57362">
        <ele>1888</ele>
        <time>2022-07-16T08:03:00Z</time>
      </trkpt>
      <trkpt lat="45.64592" lon="6.57364">
        <ele>1887</ele>
        <time>2022-07-16T08:03:02Z</time>
      </trkpt>
      <trkpt lat="45.6459" lon="6.57365">
        <ele>1887</ele>
        <time>2022-07-16T08:03:04Z</time>
      </trkpt>
      <trkpt lat="45.64587" lon="6.57367">
        <ele>1887</ele>
        <time>2022-07-16T08:03:06Z</time>
      </trkpt>
      <trkpt lat="45.64585" lon="6.57367">
        <ele>1886</ele>
        <time>2022-07-16T08:03:09Z</time>
      </trkpt>
      <trkpt lat="45.64583" lon="6.57367">
        <ele>1886</ele>
        <time>2022-07-16T08:03:10Z</time>
      </trkpt>
      <trkpt lat="45.6458" lon="6.57368">
        <ele>1884</ele>
        <time>2022-07-16T08:03:12Z</time>
      </trkpt>
      <trkpt lat="45.64578" lon="6.57368">
        <ele>1884</ele>
        <time>2022-07-16T08:03:13Z</time>
      </trkpt>
      <trkpt lat="45.64576" lon="6.57368">
        <ele>1884</ele>
        <time>2022-07-16T08:03:14Z</time>
      </trkpt>
      <trkpt lat="45.64574" lon="6.57367">
        <ele>1884</ele>
        <time>2022-07-16T08:03:15Z</time>
      </trkpt>
      <trkpt lat="45.64571" lon="6.57366">
        <ele>1883</ele>
        <time>2022-07-16T08:03:17Z</time>
      </trkpt>
      <trkpt lat="45.64568" lon="6.57365">
        <ele>1883</ele>
        <time>2022-07-16T08:03:19Z</time>
      </trkpt>
      <trkpt lat="45.64565" lon="6.57364">
        <ele>1881</ele>
        <time>2022-07-16T08:03:21Z</time>
      </trkpt>
      <trkpt lat="45.64563" lon="6.57364">
        <ele>1881</ele>
        <time>2022-07-16T08:03:22Z</time>
      </trkpt>
      <trkpt lat="45.6456" lon="6.57364">
        <ele>1881</ele>
        <time>2022-07-16T08:03:24Z</time>
      </trkpt>
      <trkpt lat="45.6456" lon="6.57367">
        <ele>1880</ele>
        <time>2022-07-16T08:03:28Z</time>
      </trkpt>
      <trkpt lat="45.6456" lon="6.5737">
        <ele>1878</ele>
        <time>2022-07-16T08:03:31Z</time>
      </trkpt>
      <trkpt lat="45.64562" lon="6.57371">
        <ele>1877</ele>
        <time>2022-07-16T08:03:33Z</time>
      </trkpt>
      <trkpt lat="45.64562" lon="6.57374">
        <ele>1877</ele>
        <time>2022-07-16T08:03:35Z</time>
      </trkpt>
      <trkpt lat="45.6456" lon="6.57376">
        <ele>1876</ele>
        <time>2022-07-16T08:03:37Z</time>
      </trkpt>
      <trkpt lat="45.64558" lon="6.57377">
        <ele>1875</ele>
        <time>2022-07-16T08:03:38Z</time>
      </trkpt>
      <trkpt lat="45.64556" lon="6.57378">
        <ele>1875</ele>
        <time>2022-07-16T08:03:39Z</time>
      </trkpt>
      <trkpt lat="45.64555" lon="6.57379">
        <ele>1875</ele>
        <time>2022-07-16T08:03:40Z</time>
      </trkpt>
      <trkpt lat="45.64552" lon="6.57378">
        <ele>1875</ele>
        <time>2022-07-16T08:03:42Z</time>
      </trkpt>
      <trkpt lat="45.6455" lon="6.57377">
        <ele>1874</ele>
        <time>2022-07-16T08:03:44Z</time>
      </trkpt>
      <trkpt lat="45.64548" lon="6.57377">
        <ele>1874</ele>
        <time>2022-07-16T08:03:45Z</time>
      </trkpt>
      <trkpt lat="45.64546" lon="6.57376">
        <ele>1874</ele>
        <time>2022-07-16T08:03:46Z</time>
      </trkpt>
      <trkpt lat="45.64545" lon="6.57376">
        <ele>1874</ele>
        <time>2022-07-16T08:03:47Z</time>
      </trkpt>
      <trkpt lat="45.64543" lon="6.57376">
        <ele>1874</ele>
        <time>2022-07-16T08:03:48Z</time>
      </trkpt>
      <trkpt lat="45.64541" lon="6.57376">
        <ele>1873</ele>
        <time>2022-07-16T08:03:49Z</time>
      </trkpt>
      <trkpt lat="45.64538" lon="6.57375">
        <ele>1872</ele>
        <time>2022-07-16T08:03:50Z</time>
      </trkpt>
      <trkpt lat="45.64536" lon="6.57374">
        <ele>1872</ele>
        <time>2022-07-16T08:03:51Z</time>
      </trkpt>
      <trkpt lat="45.64533" lon="6.57373">
        <ele>1872</ele>
        <time>2022-07-16T08:03:52Z</time>
      </trkpt>
      <trkpt lat="45.64531" lon="6.57372">
        <ele>1872</ele>
        <time>2022-07-16T08:03:53Z</time>
      </trkpt>
      <trkpt lat="45.64529" lon="6.57372">
        <ele>1871</ele>
        <time>2022-07-16T08:03:54Z</time>
      </trkpt>
      <trkpt lat="45.64526" lon="6.5737">
        <ele>1871</ele>
        <time>2022-07-16T08:03:56Z</time>
      </trkpt>
      <trkpt lat="45.64524" lon="6.57368">
        <ele>1870</ele>
        <time>2022-07-16T08:03:58Z</time>
      </trkpt>
      <trkpt lat="45.64523" lon="6.57366">
        <ele>1869</ele>
        <time>2022-07-16T08:04:00Z</time>
      </trkpt>
      <trkpt lat="45.6452" lon="6.57367">
        <ele>1869</ele>
        <time>2022-07-16T08:04:03Z</time>
      </trkpt>
      <trkpt lat="45.64518" lon="6.57368">
        <ele>1868</ele>
        <time>2022-07-16T08:04:06Z</time>
      </trkpt>
      <trkpt lat="45.64516" lon="6.57368">
        <ele>1866</ele>
        <time>2022-07-16T08:04:09Z</time>
      </trkpt>
      <trkpt lat="45.64517" lon="6.5737">
        <ele>1864</ele>
        <time>2022-07-16T08:04:14Z</time>
      </trkpt>
      <trkpt lat="45.64519" lon="6.57371">
        <ele>1864</ele>
        <time>2022-07-16T08:04:16Z</time>
      </trkpt>
      <trkpt lat="45.64517" lon="6.57372">
        <ele>1863</ele>
        <time>2022-07-16T08:04:18Z</time>
      </trkpt>
      <trkpt lat="45.64517" lon="6.57375">
        <ele>1862</ele>
        <time>2022-07-16T08:04:20Z</time>
      </trkpt>
      <trkpt lat="45.64517" lon="6.57379">
        <ele>1862</ele>
        <time>2022-07-16T08:04:22Z</time>
      </trkpt>
      <trkpt lat="45.64518" lon="6.57383">
        <ele>1860</ele>
        <time>2022-07-16T08:04:25Z</time>
      </trkpt>
      <trkpt lat="45.64516" lon="6.57385">
        <ele>1859</ele>
        <time>2022-07-16T08:04:27Z</time>
      </trkpt>
      <trkpt lat="45.64513" lon="6.57385">
        <ele>1859</ele>
        <time>2022-07-16T08:04:29Z</time>
      </trkpt>
      <trkpt lat="45.6451" lon="6.57385">
        <ele>1858</ele>
        <time>2022-07-16T08:04:30Z</time>
      </trkpt>
      <trkpt lat="45.64508" lon="6.57385">
        <ele>1858</ele>
        <time>2022-07-16T08:04:31Z</time>
      </trkpt>
      <trkpt lat="45.64506" lon="6.57384">
        <ele>1857</ele>
        <time>2022-07-16T08:04:32Z</time>
      </trkpt>
      <trkpt lat="45.64504" lon="6.57383">
        <ele>1857</ele>
        <time>2022-07-16T08:04:33Z</time>
      </trkpt>
      <trkpt lat="45.64501" lon="6.57381">
        <ele>1857</ele>
        <time>2022-07-16T08:04:34Z</time>
      </trkpt>
      <trkpt lat="45.645" lon="6.57381">
        <ele>1856</ele>
        <time>2022-07-16T08:04:35Z</time>
      </trkpt>
      <trkpt lat="45.64496" lon="6.5738">
        <ele>1856</ele>
        <time>2022-07-16T08:04:36Z</time>
      </trkpt>
      <trkpt lat="45.64494" lon="6.57379">
        <ele>1856</ele>
        <time>2022-07-16T08:04:37Z</time>
      </trkpt>
      <trkpt lat="45.64492" lon="6.57378">
        <ele>1856</ele>
        <time>2022-07-16T08:04:38Z</time>
      </trkpt>
      <trkpt lat="45.64489" lon="6.57378">
        <ele>1856</ele>
        <time>2022-07-16T08:04:39Z</time>
      </trkpt>
      <trkpt lat="45.64487" lon="6.57378">
        <ele>1856</ele>
        <time>2022-07-16T08:04:40Z</time>
      </trkpt>
      <trkpt lat="45.64485" lon="6.57377">
        <ele>1855</ele>
        <time>2022-07-16T08:04:41Z</time>
      </trkpt>
      <trkpt lat="45.64484" lon="6.57375">
        <ele>1855</ele>
        <time>2022-07-16T08:04:42Z</time>
      </trkpt>
      <trkpt lat="45.64481" lon="6.57372">
        <ele>1855</ele>
        <time>2022-07-16T08:04:44Z</time>
      </trkpt>
      <trkpt lat="45.64479" lon="6.57371">
        <ele>1854</ele>
        <time>2022-07-16T08:04:47Z</time>
      </trkpt>
      <trkpt lat="45.64477" lon="6.57369">
        <ele>1854</ele>
        <time>2022-07-16T08:04:49Z</time>
      </trkpt>
      <trkpt lat="45.64474" lon="6.57368">
        <ele>1854</ele>
        <time>2022-07-16T08:04:51Z</time>
      </trkpt>
      <trkpt lat="45.64472" lon="6.57366">
        <ele>1854</ele>
        <time>2022-07-16T08:04:53Z</time>
      </trkpt>
      <trkpt lat="45.6447" lon="6.57363">
        <ele>1854</ele>
        <time>2022-07-16T08:04:55Z</time>
      </trkpt>
      <trkpt lat="45.64468" lon="6.57359">
        <ele>1855</ele>
        <time>2022-07-16T08:04:57Z</time>
      </trkpt>
      <trkpt lat="45.64467" lon="6.57356">
        <ele>1855</ele>
        <time>2022-07-16T08:04:59Z</time>
      </trkpt>
      <trkpt lat="45.64466" lon="6.57354">
        <ele>1856</ele>
        <time>2022-07-16T08:05:00Z</time>
      </trkpt>
      <trkpt lat="45.64464" lon="6.57352">
        <ele>1857</ele>
        <time>2022-07-16T08:05:03Z</time>
      </trkpt>
      <trkpt lat="45.64462" lon="6.5735">
        <ele>1857</ele>
        <time>2022-07-16T08:05:04Z</time>
      </trkpt>
      <trkpt lat="45.64459" lon="6.57348">
        <ele>1857</ele>
        <time>2022-07-16T08:05:06Z</time>
      </trkpt>
      <trkpt lat="45.64457" lon="6.57346">
        <ele>1857</ele>
        <time>2022-07-16T08:05:08Z</time>
      </trkpt>
      <trkpt lat="45.64454" lon="6.57345">
        <ele>1856</ele>
        <time>2022-07-16T08:05:11Z</time>
      </trkpt>
      <trkpt lat="45.64452" lon="6.57346">
        <ele>1855</ele>
        <time>2022-07-16T08:05:13Z</time>
      </trkpt>
      <trkpt lat="45.64449" lon="6.57344">
        <ele>1855</ele>
        <time>2022-07-16T08:05:15Z</time>
      </trkpt>
      <trkpt lat="45.64448" lon="6.57342">
        <ele>1854</ele>
        <time>2022-07-16T08:05:17Z</time>
      </trkpt>
      <trkpt lat="45.64445" lon="6.57343">
        <ele>1853</ele>
        <time>2022-07-16T08:05:19Z</time>
      </trkpt>
      <trkpt lat="45.64442" lon="6.57342">
        <ele>1853</ele>
        <time>2022-07-16T08:05:22Z</time>
      </trkpt>
      <trkpt lat="45.6444" lon="6.5734">
        <ele>1853</ele>
        <time>2022-07-16T08:05:23Z</time>
      </trkpt>
      <trkpt lat="45.64438" lon="6.57338">
        <ele>1852</ele>
        <time>2022-07-16T08:05:25Z</time>
      </trkpt>
      <trkpt lat="45.64435" lon="6.57336">
        <ele>1852</ele>
        <time>2022-07-16T08:05:27Z</time>
      </trkpt>
      <trkpt lat="45.64434" lon="6.57332">
        <ele>1852</ele>
        <time>2022-07-16T08:05:29Z</time>
      </trkpt>
      <trkpt lat="45.64432" lon="6.5733">
        <ele>1852</ele>
        <time>2022-07-16T08:05:31Z</time>
      </trkpt>
      <trkpt lat="45.6443" lon="6.57328">
        <ele>1852</ele>
        <time>2022-07-16T08:05:33Z</time>
      </trkpt>
      <trkpt lat="45.64429" lon="6.57325">
        <ele>1852</ele>
        <time>2022-07-16T08:05:35Z</time>
      </trkpt>
      <trkpt lat="45.64427" lon="6.57322">
        <ele>1851</ele>
        <time>2022-07-16T08:05:37Z</time>
      </trkpt>
      <trkpt lat="45.64425" lon="6.57322">
        <ele>1850</ele>
        <time>2022-07-16T08:05:38Z</time>
      </trkpt>
      <trkpt lat="45.64424" lon="6.57321">
        <ele>1850</ele>
        <time>2022-07-16T08:05:39Z</time>
      </trkpt>
      <trkpt lat="45.64423" lon="6.57321">
        <ele>1850</ele>
        <time>2022-07-16T08:05:40Z</time>
      </trkpt>
      <trkpt lat="45.64421" lon="6.5732">
        <ele>1850</ele>
        <time>2022-07-16T08:05:41Z</time>
      </trkpt>
      <trkpt lat="45.64419" lon="6.5732">
        <ele>1850</ele>
        <time>2022-07-16T08:05:42Z</time>
      </trkpt>
      <trkpt lat="45.64418" lon="6.57319">
        <ele>1849</ele>
        <time>2022-07-16T08:05:43Z</time>
      </trkpt>
      <trkpt lat="45.64416" lon="6.57317">
        <ele>1849</ele>
        <time>2022-07-16T08:05:44Z</time>
      </trkpt>
      <trkpt lat="45.64414" lon="6.57314">
        <ele>1849</ele>
        <time>2022-07-16T08:05:46Z</time>
      </trkpt>
      <trkpt lat="45.64412" lon="6.57313">
        <ele>1849</ele>
        <time>2022-07-16T08:05:47Z</time>
      </trkpt>
      <trkpt lat="45.64409" lon="6.57311">
        <ele>1849</ele>
        <time>2022-07-16T08:05:49Z</time>
      </trkpt>
      <trkpt lat="45.64407" lon="6.5731">
        <ele>1849</ele>
        <time>2022-07-16T08:05:51Z</time>
      </trkpt>
      <trkpt lat="45.64405" lon="6.5731">
        <ele>1849</ele>
        <time>2022-07-16T08:05:52Z</time>
      </trkpt>
      <trkpt lat="45.64403" lon="6.57309">
        <ele>1849</ele>
        <time>2022-07-16T08:05:53Z</time>
      </trkpt>
      <trkpt lat="45.64402" lon="6.57308">
        <ele>1849</ele>
        <time>2022-07-16T08:05:54Z</time>
      </trkpt>
      <trkpt lat="45.644" lon="6.57306">
        <ele>1848</ele>
        <time>2022-07-16T08:05:55Z</time>
      </trkpt>
      <trkpt lat="45.64398" lon="6.57303">
        <ele>1848</ele>
        <time>2022-07-16T08:05:56Z</time>
      </trkpt>
      <trkpt lat="45.64397" lon="6.57301">
        <ele>1848</ele>
        <time>2022-07-16T08:05:57Z</time>
      </trkpt>
      <trkpt lat="45.64396" lon="6.57299">
        <ele>1848</ele>
        <time>2022-07-16T08:05:58Z</time>
      </trkpt>
      <trkpt lat="45.64395" lon="6.57298">
        <ele>1848</ele>
        <time>2022-07-16T08:05:59Z</time>
      </trkpt>
      <trkpt lat="45.64394" lon="6.57296">
        <ele>1848</ele>
        <time>2022-07-16T08:06:00Z</time>
      </trkpt>
      <trkpt lat="45.64391" lon="6.57294">
        <ele>1848</ele>
        <time>2022-07-16T08:06:02Z</time>
      </trkpt>
      <trkpt lat="45.64389" lon="6.57292">
        <ele>1848</ele>
        <time>2022-07-16T08:06:03Z</time>
      </trkpt>
      <trkpt lat="45.64387" lon="6.57289">
        <ele>1847</ele>
        <time>2022-07-16T08:06:05Z</time>
      </trkpt>
      <trkpt lat="45.64385" lon="6.57287">
        <ele>1847</ele>
        <time>2022-07-16T08:06:07Z</time>
      </trkpt>
      <trkpt lat="45.64383" lon="6.57284">
        <ele>1847</ele>
        <time>2022-07-16T08:06:09Z</time>
      </trkpt>
      <trkpt lat="45.64381" lon="6.57282">
        <ele>1847</ele>
        <time>2022-07-16T08:06:11Z</time>
      </trkpt>
      <trkpt lat="45.64378" lon="6.5728">
        <ele>1846</ele>
        <time>2022-07-16T08:06:13Z</time>
      </trkpt>
      <trkpt lat="45.64376" lon="6.57277">
        <ele>1845</ele>
        <time>2022-07-16T08:06:15Z</time>
      </trkpt>
      <trkpt lat="45.64373" lon="6.57276">
        <ele>1844</ele>
        <time>2022-07-16T08:06:17Z</time>
      </trkpt>
      <trkpt lat="45.64371" lon="6.57274">
        <ele>1844</ele>
        <time>2022-07-16T08:06:19Z</time>
      </trkpt>
      <trkpt lat="45.64369" lon="6.57274">
        <ele>1844</ele>
        <time>2022-07-16T08:06:21Z</time>
      </trkpt>
      <trkpt lat="45.64366" lon="6.57272">
        <ele>1844</ele>
        <time>2022-07-16T08:06:23Z</time>
      </trkpt>
      <trkpt lat="45.64364" lon="6.5727">
        <ele>1844</ele>
        <time>2022-07-16T08:06:25Z</time>
      </trkpt>
      <trkpt lat="45.64361" lon="6.57268">
        <ele>1844</ele>
        <time>2022-07-16T08:06:27Z</time>
      </trkpt>
      <trkpt lat="45.64359" lon="6.57268">
        <ele>1843</ele>
        <time>2022-07-16T08:06:29Z</time>
      </trkpt>
      <trkpt lat="45.64357" lon="6.57267">
        <ele>1842</ele>
        <time>2022-07-16T08:06:31Z</time>
      </trkpt>
      <trkpt lat="45.64355" lon="6.57268">
        <ele>1842</ele>
        <time>2022-07-16T08:06:33Z</time>
      </trkpt>
      <trkpt lat="45.64353" lon="6.57267">
        <ele>1841</ele>
        <time>2022-07-16T08:06:35Z</time>
      </trkpt>
      <trkpt lat="45.64351" lon="6.57265">
        <ele>1840</ele>
        <time>2022-07-16T08:06:37Z</time>
      </trkpt>
      <trkpt lat="45.64349" lon="6.57263">
        <ele>1840</ele>
        <time>2022-07-16T08:06:39Z</time>
      </trkpt>
      <trkpt lat="45.64348" lon="6.57261">
        <ele>1840</ele>
        <time>2022-07-16T08:06:41Z</time>
      </trkpt>
      <trkpt lat="45.64346" lon="6.5726">
        <ele>1840</ele>
        <time>2022-07-16T08:06:43Z</time>
      </trkpt>
      <trkpt lat="45.64344" lon="6.57259">
        <ele>1839</ele>
        <time>2022-07-16T08:06:45Z</time>
      </trkpt>
      <trkpt lat="45.6434" lon="6.57258">
        <ele>1839</ele>
        <time>2022-07-16T08:06:47Z</time>
      </trkpt>
      <trkpt lat="45.64337" lon="6.57256">
        <ele>1838</ele>
        <time>2022-07-16T08:06:49Z</time>
      </trkpt>
      <trkpt lat="45.64335" lon="6.57255">
        <ele>1838</ele>
        <time>2022-07-16T08:06:51Z</time>
      </trkpt>
      <trkpt lat="45.64333" lon="6.57253">
        <ele>1837</ele>
        <time>2022-07-16T08:06:54Z</time>
      </trkpt>
      <trkpt lat="45.64332" lon="6.5725">
        <ele>1837</ele>
        <time>2022-07-16T08:06:57Z</time>
      </trkpt>
      <trkpt lat="45.6433" lon="6.57248">
        <ele>1836</ele>
        <time>2022-07-16T08:06:58Z</time>
      </trkpt>
      <trkpt lat="45.64328" lon="6.57246">
        <ele>1835</ele>
        <time>2022-07-16T08:07:00Z</time>
      </trkpt>
      <trkpt lat="45.64326" lon="6.57243">
        <ele>1835</ele>
        <time>2022-07-16T08:07:02Z</time>
      </trkpt>
      <trkpt lat="45.64324" lon="6.57241">
        <ele>1835</ele>
        <time>2022-07-16T08:07:04Z</time>
      </trkpt>
      <trkpt lat="45.64322" lon="6.57238">
        <ele>1836</ele>
        <time>2022-07-16T08:07:07Z</time>
      </trkpt>
      <trkpt lat="45.6432" lon="6.57237">
        <ele>1836</ele>
        <time>2022-07-16T08:07:08Z</time>
      </trkpt>
      <trkpt lat="45.64318" lon="6.57235">
        <ele>1835</ele>
        <time>2022-07-16T08:07:09Z</time>
      </trkpt>
      <trkpt lat="45.64316" lon="6.57233">
        <ele>1835</ele>
        <time>2022-07-16T08:07:11Z</time>
      </trkpt>
      <trkpt lat="45.64314" lon="6.5723">
        <ele>1835</ele>
        <time>2022-07-16T08:07:13Z</time>
      </trkpt>
      <trkpt lat="45.64312" lon="6.57227">
        <ele>1835</ele>
        <time>2022-07-16T08:07:15Z</time>
      </trkpt>
      <trkpt lat="45.6431" lon="6.57226">
        <ele>1835</ele>
        <time>2022-07-16T08:07:17Z</time>
      </trkpt>
      <trkpt lat="45.64309" lon="6.57224">
        <ele>1835</ele>
        <time>2022-07-16T08:07:20Z</time>
      </trkpt>
      <trkpt lat="45.64307" lon="6.57223">
        <ele>1834</ele>
        <time>2022-07-16T08:07:23Z</time>
      </trkpt>
      <trkpt lat="45.64305" lon="6.57222">
        <ele>1834</ele>
        <time>2022-07-16T08:07:25Z</time>
      </trkpt>
      <trkpt lat="45.64304" lon="6.5722">
        <ele>1833</ele>
        <time>2022-07-16T08:07:27Z</time>
      </trkpt>
      <trkpt lat="45.64303" lon="6.57219">
        <ele>1833</ele>
        <time>2022-07-16T08:07:28Z</time>
      </trkpt>
      <trkpt lat="45.64302" lon="6.57218">
        <ele>1833</ele>
        <time>2022-07-16T08:07:29Z</time>
      </trkpt>
      <trkpt lat="45.64301" lon="6.57218">
        <ele>1833</ele>
        <time>2022-07-16T08:07:30Z</time>
      </trkpt>
      <trkpt lat="45.643" lon="6.57217">
        <ele>1833</ele>
        <time>2022-07-16T08:07:31Z</time>
      </trkpt>
      <trkpt lat="45.64299" lon="6.57217">
        <ele>1832</ele>
        <time>2022-07-16T08:07:32Z</time>
      </trkpt>
      <trkpt lat="45.64298" lon="6.57213">
        <ele>1831</ele>
        <time>2022-07-16T08:07:33Z</time>
      </trkpt>
      <trkpt lat="45.64296" lon="6.57209">
        <ele>1831</ele>
        <time>2022-07-16T08:07:35Z</time>
      </trkpt>
      <trkpt lat="45.64294" lon="6.57208">
        <ele>1831</ele>
        <time>2022-07-16T08:07:37Z</time>
      </trkpt>
      <trkpt lat="45.64291" lon="6.57207">
        <ele>1831</ele>
        <time>2022-07-16T08:07:39Z</time>
      </trkpt>
      <trkpt lat="45.64289" lon="6.57206">
        <ele>1831</ele>
        <time>2022-07-16T08:07:41Z</time>
      </trkpt>
      <trkpt lat="45.64287" lon="6.57204">
        <ele>1830</ele>
        <time>2022-07-16T08:07:43Z</time>
      </trkpt>
      <trkpt lat="45.64284" lon="6.57202">
        <ele>1830</ele>
        <time>2022-07-16T08:07:45Z</time>
      </trkpt>
      <trkpt lat="45.64282" lon="6.572">
        <ele>1830</ele>
        <time>2022-07-16T08:07:47Z</time>
      </trkpt>
      <trkpt lat="45.6428" lon="6.57199">
        <ele>1830</ele>
        <time>2022-07-16T08:07:50Z</time>
      </trkpt>
      <trkpt lat="45.64278" lon="6.57199">
        <ele>1829</ele>
        <time>2022-07-16T08:07:55Z</time>
      </trkpt>
      <trkpt lat="45.64275" lon="6.57198">
        <ele>1827</ele>
        <time>2022-07-16T08:07:57Z</time>
      </trkpt>
      <trkpt lat="45.64273" lon="6.57195">
        <ele>1827</ele>
        <time>2022-07-16T08:08:00Z</time>
      </trkpt>
      <trkpt lat="45.64269" lon="6.57193">
        <ele>1827</ele>
        <time>2022-07-16T08:08:01Z</time>
      </trkpt>
      <trkpt lat="45.64267" lon="6.57191">
        <ele>1826</ele>
        <time>2022-07-16T08:08:03Z</time>
      </trkpt>
      <trkpt lat="45.64265" lon="6.5719">
        <ele>1826</ele>
        <time>2022-07-16T08:08:05Z</time>
      </trkpt>
      <trkpt lat="45.64263" lon="6.57189">
        <ele>1826</ele>
        <time>2022-07-16T08:08:07Z</time>
      </trkpt>
      <trkpt lat="45.64261" lon="6.57187">
        <ele>1826</ele>
        <time>2022-07-16T08:08:09Z</time>
      </trkpt>
      <trkpt lat="45.64259" lon="6.57185">
        <ele>1826</ele>
        <time>2022-07-16T08:08:11Z</time>
      </trkpt>
      <trkpt lat="45.64258" lon="6.57184">
        <ele>1825</ele>
        <time>2022-07-16T08:08:12Z</time>
      </trkpt>
      <trkpt lat="45.64257" lon="6.57184">
        <ele>1825</ele>
        <time>2022-07-16T08:08:13Z</time>
      </trkpt>
      <trkpt lat="45.64256" lon="6.57183">
        <ele>1825</ele>
        <time>2022-07-16T08:08:14Z</time>
      </trkpt>
      <trkpt lat="45.64253" lon="6.57182">
        <ele>1825</ele>
        <time>2022-07-16T08:08:15Z</time>
      </trkpt>
      <trkpt lat="45.64251" lon="6.57181">
        <ele>1825</ele>
        <time>2022-07-16T08:08:16Z</time>
      </trkpt>
      <trkpt lat="45.64249" lon="6.5718">
        <ele>1825</ele>
        <time>2022-07-16T08:08:17Z</time>
      </trkpt>
      <trkpt lat="45.64246" lon="6.57179">
        <ele>1824</ele>
        <time>2022-07-16T08:08:18Z</time>
      </trkpt>
      <trkpt lat="45.64245" lon="6.57178">
        <ele>1823</ele>
        <time>2022-07-16T08:08:19Z</time>
      </trkpt>
      <trkpt lat="45.64242" lon="6.57175">
        <ele>1823</ele>
        <time>2022-07-16T08:08:21Z</time>
      </trkpt>
      <trkpt lat="45.64242" lon="6.57172">
        <ele>1824</ele>
        <time>2022-07-16T08:08:23Z</time>
      </trkpt>
      <trkpt lat="45.6424" lon="6.5717">
        <ele>1824</ele>
        <time>2022-07-16T08:08:25Z</time>
      </trkpt>
      <trkpt lat="45.64239" lon="6.57169">
        <ele>1824</ele>
        <time>2022-07-16T08:08:28Z</time>
      </trkpt>
      <trkpt lat="45.64237" lon="6.57168">
        <ele>1823</ele>
        <time>2022-07-16T08:08:29Z</time>
      </trkpt>
      <trkpt lat="45.64236" lon="6.57168">
        <ele>1822</ele>
        <time>2022-07-16T08:08:30Z</time>
      </trkpt>
      <trkpt lat="45.64235" lon="6.57167">
        <ele>1821</ele>
        <time>2022-07-16T08:08:31Z</time>
      </trkpt>
      <trkpt lat="45.64234" lon="6.57167">
        <ele>1821</ele>
        <time>2022-07-16T08:08:32Z</time>
      </trkpt>
      <trkpt lat="45.64232" lon="6.57166">
        <ele>1821</ele>
        <time>2022-07-16T08:08:33Z</time>
      </trkpt>
      <trkpt lat="45.6423" lon="6.57166">
        <ele>1820</ele>
        <time>2022-07-16T08:08:34Z</time>
      </trkpt>
      <trkpt lat="45.64226" lon="6.57164">
        <ele>1820</ele>
        <time>2022-07-16T08:08:36Z</time>
      </trkpt>
      <trkpt lat="45.64225" lon="6.57163">
        <ele>1820</ele>
        <time>2022-07-16T08:08:37Z</time>
      </trkpt>
      <trkpt lat="45.64223" lon="6.57162">
        <ele>1820</ele>
        <time>2022-07-16T08:08:38Z</time>
      </trkpt>
      <trkpt lat="45.64222" lon="6.57159">
        <ele>1820</ele>
        <time>2022-07-16T08:08:40Z</time>
      </trkpt>
      <trkpt lat="45.6422" lon="6.57157">
        <ele>1820</ele>
        <time>2022-07-16T08:08:43Z</time>
      </trkpt>
      <trkpt lat="45.64218" lon="6.57156">
        <ele>1819</ele>
        <time>2022-07-16T08:08:46Z</time>
      </trkpt>
      <trkpt lat="45.64216" lon="6.57157">
        <ele>1818</ele>
        <time>2022-07-16T08:08:48Z</time>
      </trkpt>
      <trkpt lat="45.64213" lon="6.57155">
        <ele>1817</ele>
        <time>2022-07-16T08:08:51Z</time>
      </trkpt>
      <trkpt lat="45.64212" lon="6.57153">
        <ele>1816</ele>
        <time>2022-07-16T08:08:53Z</time>
      </trkpt>
      <trkpt lat="45.6421" lon="6.57151">
        <ele>1815</ele>
        <time>2022-07-16T08:08:56Z</time>
      </trkpt>
      <trkpt lat="45.64207" lon="6.5715">
        <ele>1815</ele>
        <time>2022-07-16T08:08:58Z</time>
      </trkpt>
      <trkpt lat="45.64206" lon="6.5715">
        <ele>1815</ele>
        <time>2022-07-16T08:09:00Z</time>
      </trkpt>
      <trkpt lat="45.64203" lon="6.5715">
        <ele>1814</ele>
        <time>2022-07-16T08:09:02Z</time>
      </trkpt>
      <trkpt lat="45.64201" lon="6.57151">
        <ele>1813</ele>
        <time>2022-07-16T08:09:04Z</time>
      </trkpt>
      <trkpt lat="45.64199" lon="6.57151">
        <ele>1813</ele>
        <time>2022-07-16T08:09:06Z</time>
      </trkpt>
      <trkpt lat="45.64197" lon="6.57151">
        <ele>1811</ele>
        <time>2022-07-16T08:09:08Z</time>
      </trkpt>
      <trkpt lat="45.64194" lon="6.5715">
        <ele>1811</ele>
        <time>2022-07-16T08:09:10Z</time>
      </trkpt>
      <trkpt lat="45.64192" lon="6.5715">
        <ele>1810</ele>
        <time>2022-07-16T08:09:11Z</time>
      </trkpt>
      <trkpt lat="45.6419" lon="6.57149">
        <ele>1809</ele>
        <time>2022-07-16T08:09:12Z</time>
      </trkpt>
      <trkpt lat="45.64188" lon="6.57147">
        <ele>1809</ele>
        <time>2022-07-16T08:09:13Z</time>
      </trkpt>
      <trkpt lat="45.64185" lon="6.57147">
        <ele>1809</ele>
        <time>2022-07-16T08:09:15Z</time>
      </trkpt>
      <trkpt lat="45.64182" lon="6.57146">
        <ele>1809</ele>
        <time>2022-07-16T08:09:17Z</time>
      </trkpt>
      <trkpt lat="45.6418" lon="6.57147">
        <ele>1808</ele>
        <time>2022-07-16T08:09:18Z</time>
      </trkpt>
      <trkpt lat="45.64177" lon="6.57147">
        <ele>1808</ele>
        <time>2022-07-16T08:09:19Z</time>
      </trkpt>
      <trkpt lat="45.64175" lon="6.57146">
        <ele>1808</ele>
        <time>2022-07-16T08:09:20Z</time>
      </trkpt>
      <trkpt lat="45.64174" lon="6.57145">
        <ele>1808</ele>
        <time>2022-07-16T08:09:21Z</time>
      </trkpt>
      <trkpt lat="45.64171" lon="6.57141">
        <ele>1807</ele>
        <time>2022-07-16T08:09:23Z</time>
      </trkpt>
      <trkpt lat="45.64168" lon="6.57137">
        <ele>1807</ele>
        <time>2022-07-16T08:09:25Z</time>
      </trkpt>
      <trkpt lat="45.64166" lon="6.57135">
        <ele>1807</ele>
        <time>2022-07-16T08:09:27Z</time>
      </trkpt>
      <trkpt lat="45.64164" lon="6.57135">
        <ele>1807</ele>
        <time>2022-07-16T08:09:29Z</time>
      </trkpt>
      <trkpt lat="45.64161" lon="6.57135">
        <ele>1806</ele>
        <time>2022-07-16T08:09:31Z</time>
      </trkpt>
      <trkpt lat="45.64159" lon="6.57132">
        <ele>1805</ele>
        <time>2022-07-16T08:09:33Z</time>
      </trkpt>
      <trkpt lat="45.64158" lon="6.5713">
        <ele>1805</ele>
        <time>2022-07-16T08:09:35Z</time>
      </trkpt>
      <trkpt lat="45.64155" lon="6.57128">
        <ele>1805</ele>
        <time>2022-07-16T08:09:37Z</time>
      </trkpt>
      <trkpt lat="45.64153" lon="6.57127">
        <ele>1804</ele>
        <time>2022-07-16T08:09:40Z</time>
      </trkpt>
      <trkpt lat="45.64151" lon="6.57127">
        <ele>1803</ele>
        <time>2022-07-16T08:09:42Z</time>
      </trkpt>
      <trkpt lat="45.6415" lon="6.57131">
        <ele>1802</ele>
        <time>2022-07-16T08:09:45Z</time>
      </trkpt>
      <trkpt lat="45.64153" lon="6.57133">
        <ele>1802</ele>
        <time>2022-07-16T08:09:47Z</time>
      </trkpt>
      <trkpt lat="45.64155" lon="6.57134">
        <ele>1802</ele>
        <time>2022-07-16T08:09:49Z</time>
      </trkpt>
      <trkpt lat="45.64158" lon="6.57136">
        <ele>1802</ele>
        <time>2022-07-16T08:09:51Z</time>
      </trkpt>
      <trkpt lat="45.64161" lon="6.57137">
        <ele>1801</ele>
        <time>2022-07-16T08:09:53Z</time>
      </trkpt>
      <trkpt lat="45.64163" lon="6.57139">
        <ele>1800</ele>
        <time>2022-07-16T08:09:55Z</time>
      </trkpt>
      <trkpt lat="45.64165" lon="6.57141">
        <ele>1800</ele>
        <time>2022-07-16T08:09:57Z</time>
      </trkpt>
      <trkpt lat="45.64161" lon="6.57143">
        <ele>1799</ele>
        <time>2022-07-16T08:09:59Z</time>
      </trkpt>
      <trkpt lat="45.64159" lon="6.57143">
        <ele>1798</ele>
        <time>2022-07-16T08:10:00Z</time>
      </trkpt>
      <trkpt lat="45.64157" lon="6.57141">
        <ele>1798</ele>
        <time>2022-07-16T08:10:02Z</time>
      </trkpt>
      <trkpt lat="45.64154" lon="6.5714">
        <ele>1797</ele>
        <time>2022-07-16T08:10:04Z</time>
      </trkpt>
      <trkpt lat="45.64152" lon="6.57141">
        <ele>1797</ele>
        <time>2022-07-16T08:10:07Z</time>
      </trkpt>
      <trkpt lat="45.64151" lon="6.57144">
        <ele>1795</ele>
        <time>2022-07-16T08:10:09Z</time>
      </trkpt>
      <trkpt lat="45.64152" lon="6.57148">
        <ele>1795</ele>
        <time>2022-07-16T08:10:11Z</time>
      </trkpt>
      <trkpt lat="45.64152" lon="6.57151">
        <ele>1793</ele>
        <time>2022-07-16T08:10:13Z</time>
      </trkpt>
      <trkpt lat="45.64154" lon="6.57153">
        <ele>1793</ele>
        <time>2022-07-16T08:10:15Z</time>
      </trkpt>
      <trkpt lat="45.64153" lon="6.57156">
        <ele>1792</ele>
        <time>2022-07-16T08:10:17Z</time>
      </trkpt>
      <trkpt lat="45.6415" lon="6.57157">
        <ele>1791</ele>
        <time>2022-07-16T08:10:19Z</time>
      </trkpt>
      <trkpt lat="45.64148" lon="6.57158">
        <ele>1791</ele>
        <time>2022-07-16T08:10:21Z</time>
      </trkpt>
      <trkpt lat="45.64146" lon="6.57158">
        <ele>1790</ele>
        <time>2022-07-16T08:10:22Z</time>
      </trkpt>
      <trkpt lat="45.64144" lon="6.57157">
        <ele>1790</ele>
        <time>2022-07-16T08:10:24Z</time>
      </trkpt>
      <trkpt lat="45.64141" lon="6.57157">
        <ele>1789</ele>
        <time>2022-07-16T08:10:25Z</time>
      </trkpt>
      <trkpt lat="45.64138" lon="6.57156">
        <ele>1789</ele>
        <time>2022-07-16T08:10:27Z</time>
      </trkpt>
      <trkpt lat="45.64136" lon="6.57155">
        <ele>1788</ele>
        <time>2022-07-16T08:10:29Z</time>
      </trkpt>
      <trkpt lat="45.64134" lon="6.57157">
        <ele>1787</ele>
        <time>2022-07-16T08:10:31Z</time>
      </trkpt>
      <trkpt lat="45.64134" lon="6.5716">
        <ele>1787</ele>
        <time>2022-07-16T08:10:34Z</time>
      </trkpt>
      <trkpt lat="45.64135" lon="6.57163">
        <ele>1785</ele>
        <time>2022-07-16T08:10:37Z</time>
      </trkpt>
      <trkpt lat="45.64132" lon="6.57165">
        <ele>1784</ele>
        <time>2022-07-16T08:10:39Z</time>
      </trkpt>
      <trkpt lat="45.64131" lon="6.57168">
        <ele>1783</ele>
        <time>2022-07-16T08:10:42Z</time>
      </trkpt>
      <trkpt lat="45.64128" lon="6.5717">
        <ele>1782</ele>
        <time>2022-07-16T08:10:45Z</time>
      </trkpt>
      <trkpt lat="45.64126" lon="6.57173">
        <ele>1782</ele>
        <time>2022-07-16T08:10:48Z</time>
      </trkpt>
      <trkpt lat="45.64124" lon="6.57173">
        <ele>1779</ele>
        <time>2022-07-16T08:10:52Z</time>
      </trkpt>
      <trkpt lat="45.64123" lon="6.57177">
        <ele>1779</ele>
        <time>2022-07-16T08:10:55Z</time>
      </trkpt>
      <trkpt lat="45.64124" lon="6.5718">
        <ele>1778</ele>
        <time>2022-07-16T08:10:58Z</time>
      </trkpt>
      <trkpt lat="45.64125" lon="6.57184">
        <ele>1777</ele>
        <time>2022-07-16T08:11:00Z</time>
      </trkpt>
      <trkpt lat="45.64123" lon="6.57187">
        <ele>1776</ele>
        <time>2022-07-16T08:11:02Z</time>
      </trkpt>
      <trkpt lat="45.64121" lon="6.57189">
        <ele>1776</ele>
        <time>2022-07-16T08:11:04Z</time>
      </trkpt>
      <trkpt lat="45.64119" lon="6.57191">
        <ele>1776</ele>
        <time>2022-07-16T08:11:05Z</time>
      </trkpt>
      <trkpt lat="45.64118" lon="6.57194">
        <ele>1775</ele>
        <time>2022-07-16T08:11:07Z</time>
      </trkpt>
      <trkpt lat="45.64118" lon="6.57198">
        <ele>1773</ele>
        <time>2022-07-16T08:11:09Z</time>
      </trkpt>
      <trkpt lat="45.64119" lon="6.572">
        <ele>1773</ele>
        <time>2022-07-16T08:11:10Z</time>
      </trkpt>
      <trkpt lat="45.64119" lon="6.57201">
        <ele>1773</ele>
        <time>2022-07-16T08:11:11Z</time>
      </trkpt>
      <trkpt lat="45.6412" lon="6.57203">
        <ele>1773</ele>
        <time>2022-07-16T08:11:12Z</time>
      </trkpt>
      <trkpt lat="45.64121" lon="6.57204">
        <ele>1773</ele>
        <time>2022-07-16T08:11:13Z</time>
      </trkpt>
      <trkpt lat="45.64121" lon="6.57206">
        <ele>1773</ele>
        <time>2022-07-16T08:11:14Z</time>
      </trkpt>
      <trkpt lat="45.64122" lon="6.57207">
        <ele>1772</ele>
        <time>2022-07-16T08:11:15Z</time>
      </trkpt>
      <trkpt lat="45.6412" lon="6.5721">
        <ele>1771</ele>
        <time>2022-07-16T08:11:16Z</time>
      </trkpt>
      <trkpt lat="45.64119" lon="6.57213">
        <ele>1771</ele>
        <time>2022-07-16T08:11:17Z</time>
      </trkpt>
      <trkpt lat="45.64116" lon="6.57216">
        <ele>1770</ele>
        <time>2022-07-16T08:11:19Z</time>
      </trkpt>
      <trkpt lat="45.64114" lon="6.57217">
        <ele>1770</ele>
        <time>2022-07-16T08:11:20Z</time>
      </trkpt>
      <trkpt lat="45.64112" lon="6.57219">
        <ele>1769</ele>
        <time>2022-07-16T08:11:22Z</time>
      </trkpt>
      <trkpt lat="45.64113" lon="6.57222">
        <ele>1767</ele>
        <time>2022-07-16T08:11:25Z</time>
      </trkpt>
      <trkpt lat="45.64115" lon="6.57223">
        <ele>1766</ele>
        <time>2022-07-16T08:11:27Z</time>
      </trkpt>
      <trkpt lat="45.64118" lon="6.57225">
        <ele>1766</ele>
        <time>2022-07-16T08:11:30Z</time>
      </trkpt>
      <trkpt lat="45.64119" lon="6.57229">
        <ele>1765</ele>
        <time>2022-07-16T08:11:33Z</time>
      </trkpt>
      <trkpt lat="45.64119" lon="6.57232">
        <ele>1765</ele>
        <time>2022-07-16T08:11:35Z</time>
      </trkpt>
      <trkpt lat="45.64118" lon="6.57237">
        <ele>1764</ele>
        <time>2022-07-16T08:11:38Z</time>
      </trkpt>
      <trkpt lat="45.64117" lon="6.5724">
        <ele>1763</ele>
        <time>2022-07-16T08:11:40Z</time>
      </trkpt>
      <trkpt lat="45.64118" lon="6.57244">
        <ele>1763</ele>
        <time>2022-07-16T08:11:43Z</time>
      </trkpt>
      <trkpt lat="45.64118" lon="6.57246">
        <ele>1762</ele>
        <time>2022-07-16T08:11:44Z</time>
      </trkpt>
      <trkpt lat="45.64119" lon="6.57248">
        <ele>1762</ele>
        <time>2022-07-16T08:11:45Z</time>
      </trkpt>
      <trkpt lat="45.64119" lon="6.5725">
        <ele>1762</ele>
        <time>2022-07-16T08:11:46Z</time>
      </trkpt>
      <trkpt lat="45.64119" lon="6.57252">
        <ele>1761</ele>
        <time>2022-07-16T08:11:47Z</time>
      </trkpt>
      <trkpt lat="45.64119" lon="6.57254">
        <ele>1761</ele>
        <time>2022-07-16T08:11:48Z</time>
      </trkpt>
      <trkpt lat="45.64119" lon="6.57256">
        <ele>1761</ele>
        <time>2022-07-16T08:11:49Z</time>
      </trkpt>
      <trkpt lat="45.6412" lon="6.57258">
        <ele>1761</ele>
        <time>2022-07-16T08:11:50Z</time>
      </trkpt>
      <trkpt lat="45.6412" lon="6.57261">
        <ele>1760</ele>
        <time>2022-07-16T08:11:52Z</time>
      </trkpt>
      <trkpt lat="45.64119" lon="6.57263">
        <ele>1759</ele>
        <time>2022-07-16T08:11:54Z</time>
      </trkpt>
      <trkpt lat="45.64117" lon="6.57265">
        <ele>1758</ele>
        <time>2022-07-16T08:11:56Z</time>
      </trkpt>
      <trkpt lat="45.64117" lon="6.57268">
        <ele>1758</ele>
        <time>2022-07-16T08:11:58Z</time>
      </trkpt>
      <trkpt lat="45.64116" lon="6.57271">
        <ele>1756</ele>
        <time>2022-07-16T08:12:01Z</time>
      </trkpt>
      <trkpt lat="45.64114" lon="6.57272">
        <ele>1756</ele>
        <time>2022-07-16T08:12:02Z</time>
      </trkpt>
      <trkpt lat="45.64113" lon="6.57276">
        <ele>1756</ele>
        <time>2022-07-16T08:12:06Z</time>
      </trkpt>
      <trkpt lat="45.64114" lon="6.57278">
        <ele>1756</ele>
        <time>2022-07-16T08:12:08Z</time>
      </trkpt>
      <trkpt lat="45.64116" lon="6.5728">
        <ele>1755</ele>
        <time>2022-07-16T08:12:10Z</time>
      </trkpt>
      <trkpt lat="45.64117" lon="6.57282">
        <ele>1755</ele>
        <time>2022-07-16T08:12:12Z</time>
      </trkpt>
      <trkpt lat="45.64119" lon="6.57285">
        <ele>1754</ele>
        <time>2022-07-16T08:12:14Z</time>
      </trkpt>
      <trkpt lat="45.64121" lon="6.57287">
        <ele>1754</ele>
        <time>2022-07-16T08:12:16Z</time>
      </trkpt>
      <trkpt lat="45.64123" lon="6.5729">
        <ele>1754</ele>
        <time>2022-07-16T08:12:18Z</time>
      </trkpt>
      <trkpt lat="45.64124" lon="6.57294">
        <ele>1754</ele>
        <time>2022-07-16T08:12:20Z</time>
      </trkpt>
      <trkpt lat="45.64125" lon="6.573">
        <ele>1752</ele>
        <time>2022-07-16T08:12:22Z</time>
      </trkpt>
      <trkpt lat="45.64126" lon="6.57301">
        <ele>1752</ele>
        <time>2022-07-16T08:12:23Z</time>
      </trkpt>
      <trkpt lat="45.64126" lon="6.57306">
        <ele>1752</ele>
        <time>2022-07-16T08:12:25Z</time>
      </trkpt>
      <trkpt lat="45.64125" lon="6.57309">
        <ele>1751</ele>
        <time>2022-07-16T08:12:26Z</time>
      </trkpt>
      <trkpt lat="45.64124" lon="6.57311">
        <ele>1751</ele>
        <time>2022-07-16T08:12:27Z</time>
      </trkpt>
      <trkpt lat="45.64123" lon="6.57313">
        <ele>1751</ele>
        <time>2022-07-16T08:12:28Z</time>
      </trkpt>
      <trkpt lat="45.64122" lon="6.57316">
        <ele>1750</ele>
        <time>2022-07-16T08:12:29Z</time>
      </trkpt>
      <trkpt lat="45.64121" lon="6.57318">
        <ele>1750</ele>
        <time>2022-07-16T08:12:30Z</time>
      </trkpt>
      <trkpt lat="45.6412" lon="6.57321">
        <ele>1750</ele>
        <time>2022-07-16T08:12:31Z</time>
      </trkpt>
      <trkpt lat="45.6412" lon="6.57323">
        <ele>1749</ele>
        <time>2022-07-16T08:12:32Z</time>
      </trkpt>
      <trkpt lat="45.64119" lon="6.57327">
        <ele>1748</ele>
        <time>2022-07-16T08:12:33Z</time>
      </trkpt>
      <trkpt lat="45.64119" lon="6.57329">
        <ele>1748</ele>
        <time>2022-07-16T08:12:34Z</time>
      </trkpt>
      <trkpt lat="45.64118" lon="6.57331">
        <ele>1748</ele>
        <time>2022-07-16T08:12:35Z</time>
      </trkpt>
      <trkpt lat="45.64117" lon="6.57334">
        <ele>1747</ele>
        <time>2022-07-16T08:12:36Z</time>
      </trkpt>
      <trkpt lat="45.64116" lon="6.57337">
        <ele>1747</ele>
        <time>2022-07-16T08:12:37Z</time>
      </trkpt>
      <trkpt lat="45.64115" lon="6.57343">
        <ele>1747</ele>
        <time>2022-07-16T08:12:39Z</time>
      </trkpt>
      <trkpt lat="45.64114" lon="6.57347">
        <ele>1745</ele>
        <time>2022-07-16T08:12:40Z</time>
      </trkpt>
      <trkpt lat="45.64114" lon="6.57348">
        <ele>1744</ele>
        <time>2022-07-16T08:12:41Z</time>
      </trkpt>
      <trkpt lat="45.64115" lon="6.57351">
        <ele>1744</ele>
        <time>2022-07-16T08:12:42Z</time>
      </trkpt>
      <trkpt lat="45.64116" lon="6.57353">
        <ele>1744</ele>
        <time>2022-07-16T08:12:43Z</time>
      </trkpt>
      <trkpt lat="45.64118" lon="6.5736">
        <ele>1744</ele>
        <time>2022-07-16T08:12:46Z</time>
      </trkpt>
      <trkpt lat="45.64118" lon="6.57365">
        <ele>1742</ele>
        <time>2022-07-16T08:12:48Z</time>
      </trkpt>
      <trkpt lat="45.64118" lon="6.57369">
        <ele>1742</ele>
        <time>2022-07-16T08:12:50Z</time>
      </trkpt>
      <trkpt lat="45.64117" lon="6.57374">
        <ele>1740</ele>
        <time>2022-07-16T08:12:52Z</time>
      </trkpt>
      <trkpt lat="45.64116" lon="6.57376">
        <ele>1739</ele>
        <time>2022-07-16T08:12:54Z</time>
      </trkpt>
      <trkpt lat="45.64118" lon="6.57379">
        <ele>1739</ele>
        <time>2022-07-16T08:12:57Z</time>
      </trkpt>
      <trkpt lat="45.6412" lon="6.57381">
        <ele>1738</ele>
        <time>2022-07-16T08:12:59Z</time>
      </trkpt>
      <trkpt lat="45.64122" lon="6.57383">
        <ele>1738</ele>
        <time>2022-07-16T08:13:01Z</time>
      </trkpt>
      <trkpt lat="45.64123" lon="6.57386">
        <ele>1737</ele>
        <time>2022-07-16T08:13:03Z</time>
      </trkpt>
      <trkpt lat="45.64124" lon="6.57388">
        <ele>1736</ele>
        <time>2022-07-16T08:13:05Z</time>
      </trkpt>
      <trkpt lat="45.64124" lon="6.57391">
        <ele>1736</ele>
        <time>2022-07-16T08:13:07Z</time>
      </trkpt>
      <trkpt lat="45.64126" lon="6.57393">
        <ele>1736</ele>
        <time>2022-07-16T08:13:09Z</time>
      </trkpt>
      <trkpt lat="45.64128" lon="6.57395">
        <ele>1736</ele>
        <time>2022-07-16T08:13:11Z</time>
      </trkpt>
      <trkpt lat="45.64129" lon="6.57397">
        <ele>1735</ele>
        <time>2022-07-16T08:13:13Z</time>
      </trkpt>
      <trkpt lat="45.64131" lon="6.574">
        <ele>1734</ele>
        <time>2022-07-16T08:13:15Z</time>
      </trkpt>
      <trkpt lat="45.64131" lon="6.57403">
        <ele>1734</ele>
        <time>2022-07-16T08:13:17Z</time>
      </trkpt>
      <trkpt lat="45.64133" lon="6.57406">
        <ele>1733</ele>
        <time>2022-07-16T08:13:19Z</time>
      </trkpt>
      <trkpt lat="45.64135" lon="6.57409">
        <ele>1732</ele>
        <time>2022-07-16T08:13:21Z</time>
      </trkpt>
      <trkpt lat="45.64136" lon="6.57411">
        <ele>1732</ele>
        <time>2022-07-16T08:13:22Z</time>
      </trkpt>
      <trkpt lat="45.64138" lon="6.57413">
        <ele>1732</ele>
        <time>2022-07-16T08:13:23Z</time>
      </trkpt>
      <trkpt lat="45.64139" lon="6.57415">
        <ele>1732</ele>
        <time>2022-07-16T08:13:24Z</time>
      </trkpt>
      <trkpt lat="45.64141" lon="6.57417">
        <ele>1732</ele>
        <time>2022-07-16T08:13:25Z</time>
      </trkpt>
      <trkpt lat="45.64143" lon="6.5742">
        <ele>1731</ele>
        <time>2022-07-16T08:13:27Z</time>
      </trkpt>
      <trkpt lat="45.64145" lon="6.57425">
        <ele>1730</ele>
        <time>2022-07-16T08:13:29Z</time>
      </trkpt>
      <trkpt lat="45.64146" lon="6.57428">
        <ele>1730</ele>
        <time>2022-07-16T08:13:31Z</time>
      </trkpt>
      <trkpt lat="45.64146" lon="6.57431">
        <ele>1729</ele>
        <time>2022-07-16T08:13:33Z</time>
      </trkpt>
      <trkpt lat="45.64148" lon="6.57435">
        <ele>1729</ele>
        <time>2022-07-16T08:13:35Z</time>
      </trkpt>
      <trkpt lat="45.64149" lon="6.57439">
        <ele>1728</ele>
        <time>2022-07-16T08:13:37Z</time>
      </trkpt>
      <trkpt lat="45.64151" lon="6.57443">
        <ele>1728</ele>
        <time>2022-07-16T08:13:39Z</time>
      </trkpt>
      <trkpt lat="45.64152" lon="6.57445">
        <ele>1728</ele>
        <time>2022-07-16T08:13:40Z</time>
      </trkpt>
      <trkpt lat="45.64154" lon="6.57448">
        <ele>1728</ele>
        <time>2022-07-16T08:13:42Z</time>
      </trkpt>
      <trkpt lat="45.64155" lon="6.5745">
        <ele>1728</ele>
        <time>2022-07-16T08:13:43Z</time>
      </trkpt>
      <trkpt lat="45.64157" lon="6.57452">
        <ele>1728</ele>
        <time>2022-07-16T08:13:44Z</time>
      </trkpt>
      <trkpt lat="45.64158" lon="6.57454">
        <ele>1727</ele>
        <time>2022-07-16T08:13:45Z</time>
      </trkpt>
      <trkpt lat="45.6416" lon="6.57455">
        <ele>1727</ele>
        <time>2022-07-16T08:13:46Z</time>
      </trkpt>
      <trkpt lat="45.64161" lon="6.57457">
        <ele>1727</ele>
        <time>2022-07-16T08:13:47Z</time>
      </trkpt>
      <trkpt lat="45.64164" lon="6.57459">
        <ele>1727</ele>
        <time>2022-07-16T08:13:49Z</time>
      </trkpt>
      <trkpt lat="45.64167" lon="6.57458">
        <ele>1726</ele>
        <time>2022-07-16T08:14:04Z</time>
      </trkpt>
      <trkpt lat="45.64167" lon="6.57458">
        <ele>1726</ele>
        <time>2022-07-16T08:14:05Z</time>
      </trkpt>
      <trkpt lat="45.64169" lon="6.5746">
        <ele>1725</ele>
        <time>2022-07-16T08:14:14Z</time>
      </trkpt>
      <trkpt lat="45.64171" lon="6.57463">
        <ele>1726</ele>
        <time>2022-07-16T08:14:16Z</time>
      </trkpt>
      <trkpt lat="45.64173" lon="6.57465">
        <ele>1725</ele>
        <time>2022-07-16T08:14:18Z</time>
      </trkpt>
      <trkpt lat="45.64175" lon="6.57467">
        <ele>1725</ele>
        <time>2022-07-16T08:14:21Z</time>
      </trkpt>
      <trkpt lat="45.64178" lon="6.57469">
        <ele>1725</ele>
        <time>2022-07-16T08:14:23Z</time>
      </trkpt>
      <trkpt lat="45.64181" lon="6.57471">
        <ele>1725</ele>
        <time>2022-07-16T08:14:25Z</time>
      </trkpt>
      <trkpt lat="45.64183" lon="6.57474">
        <ele>1726</ele>
        <time>2022-07-16T08:14:27Z</time>
      </trkpt>
      <trkpt lat="45.64185" lon="6.57476">
        <ele>1726</ele>
        <time>2022-07-16T08:14:28Z</time>
      </trkpt>
      <trkpt lat="45.64186" lon="6.57477">
        <ele>1725</ele>
        <time>2022-07-16T08:14:29Z</time>
      </trkpt>
      <trkpt lat="45.64188" lon="6.57479">
        <ele>1725</ele>
        <time>2022-07-16T08:14:30Z</time>
      </trkpt>
      <trkpt lat="45.64189" lon="6.57481">
        <ele>1725</ele>
        <time>2022-07-16T08:14:31Z</time>
      </trkpt>
      <trkpt lat="45.64191" lon="6.57485">
        <ele>1725</ele>
        <time>2022-07-16T08:14:33Z</time>
      </trkpt>
      <trkpt lat="45.64191" lon="6.57488">
        <ele>1725</ele>
        <time>2022-07-16T08:14:34Z</time>
      </trkpt>
      <trkpt lat="45.64192" lon="6.57491">
        <ele>1724</ele>
        <time>2022-07-16T08:14:35Z</time>
      </trkpt>
      <trkpt lat="45.64192" lon="6.57493">
        <ele>1723</ele>
        <time>2022-07-16T08:14:36Z</time>
      </trkpt>
      <trkpt lat="45.64192" lon="6.57496">
        <ele>1723</ele>
        <time>2022-07-16T08:14:37Z</time>
      </trkpt>
      <trkpt lat="45.64193" lon="6.57499">
        <ele>1723</ele>
        <time>2022-07-16T08:14:38Z</time>
      </trkpt>
      <trkpt lat="45.64193" lon="6.57502">
        <ele>1722</ele>
        <time>2022-07-16T08:14:39Z</time>
      </trkpt>
      <trkpt lat="45.64193" lon="6.57504">
        <ele>1722</ele>
        <time>2022-07-16T08:14:40Z</time>
      </trkpt>
      <trkpt lat="45.64194" lon="6.57509">
        <ele>1722</ele>
        <time>2022-07-16T08:14:42Z</time>
      </trkpt>
      <trkpt lat="45.64194" lon="6.57512">
        <ele>1721</ele>
        <time>2022-07-16T08:14:43Z</time>
      </trkpt>
      <trkpt lat="45.64194" lon="6.57517">
        <ele>1720</ele>
        <time>2022-07-16T08:14:45Z</time>
      </trkpt>
      <trkpt lat="45.64193" lon="6.57523">
        <ele>1719</ele>
        <time>2022-07-16T08:14:47Z</time>
      </trkpt>
      <trkpt lat="45.64192" lon="6.57524">
        <ele>1718</ele>
        <time>2022-07-16T08:14:48Z</time>
      </trkpt>
      <trkpt lat="45.64191" lon="6.57528">
        <ele>1717</ele>
        <time>2022-07-16T08:14:50Z</time>
      </trkpt>
      <trkpt lat="45.64189" lon="6.57532">
        <ele>1716</ele>
        <time>2022-07-16T08:14:52Z</time>
      </trkpt>
      <trkpt lat="45.64189" lon="6.57537">
        <ele>1714</ele>
        <time>2022-07-16T08:14:54Z</time>
      </trkpt>
      <trkpt lat="45.64189" lon="6.57542">
        <ele>1714</ele>
        <time>2022-07-16T08:14:56Z</time>
      </trkpt>
      <trkpt lat="45.64188" lon="6.57546">
        <ele>1712</ele>
        <time>2022-07-16T08:14:58Z</time>
      </trkpt>
      <trkpt lat="45.64186" lon="6.5755">
        <ele>1712</ele>
        <time>2022-07-16T08:15:00Z</time>
      </trkpt>
      <trkpt lat="45.64184" lon="6.57553">
        <ele>1710</ele>
        <time>2022-07-16T08:15:02Z</time>
      </trkpt>
      <trkpt lat="45.64184" lon="6.57556">
        <ele>1709</ele>
        <time>2022-07-16T08:15:04Z</time>
      </trkpt>
      <trkpt lat="45.64184" lon="6.5756">
        <ele>1708</ele>
        <time>2022-07-16T08:15:06Z</time>
      </trkpt>
      <trkpt lat="45.64183" lon="6.57566">
        <ele>1707</ele>
        <time>2022-07-16T08:15:09Z</time>
      </trkpt>
      <trkpt lat="45.64182" lon="6.57569">
        <ele>1707</ele>
        <time>2022-07-16T08:15:11Z</time>
      </trkpt>
      <trkpt lat="45.64182" lon="6.57571">
        <ele>1706</ele>
        <time>2022-07-16T08:15:13Z</time>
      </trkpt>
      <trkpt lat="45.64182" lon="6.57573">
        <ele>1705</ele>
        <time>2022-07-16T08:15:14Z</time>
      </trkpt>
      <trkpt lat="45.64181" lon="6.57574">
        <ele>1704</ele>
        <time>2022-07-16T08:15:15Z</time>
      </trkpt>
      <trkpt lat="45.64181" lon="6.57576">
        <ele>1704</ele>
        <time>2022-07-16T08:15:16Z</time>
      </trkpt>
      <trkpt lat="45.64183" lon="6.57579">
        <ele>1704</ele>
        <time>2022-07-16T08:15:17Z</time>
      </trkpt>
      <trkpt lat="45.64183" lon="6.57583">
        <ele>1703</ele>
        <time>2022-07-16T08:15:19Z</time>
      </trkpt>
      <trkpt lat="45.6418" lon="6.57584">
        <ele>1702</ele>
        <time>2022-07-16T08:15:21Z</time>
      </trkpt>
      <trkpt lat="45.64178" lon="6.57584">
        <ele>1702</ele>
        <time>2022-07-16T08:15:23Z</time>
      </trkpt>
      <trkpt lat="45.64175" lon="6.57585">
        <ele>1701</ele>
        <time>2022-07-16T08:15:25Z</time>
      </trkpt>
      <trkpt lat="45.64173" lon="6.57587">
        <ele>1701</ele>
        <time>2022-07-16T08:15:26Z</time>
      </trkpt>
      <trkpt lat="45.64171" lon="6.57588">
        <ele>1700</ele>
        <time>2022-07-16T08:15:27Z</time>
      </trkpt>
      <trkpt lat="45.64169" lon="6.57589">
        <ele>1700</ele>
        <time>2022-07-16T08:15:28Z</time>
      </trkpt>
      <trkpt lat="45.64167" lon="6.57589">
        <ele>1700</ele>
        <time>2022-07-16T08:15:29Z</time>
      </trkpt>
      <trkpt lat="45.64165" lon="6.5759">
        <ele>1700</ele>
        <time>2022-07-16T08:15:30Z</time>
      </trkpt>
      <trkpt lat="45.64164" lon="6.57591">
        <ele>1699</ele>
        <time>2022-07-16T08:15:31Z</time>
      </trkpt>
      <trkpt lat="45.64162" lon="6.57592">
        <ele>1698</ele>
        <time>2022-07-16T08:15:32Z</time>
      </trkpt>
      <trkpt lat="45.64161" lon="6.57594">
        <ele>1698</ele>
        <time>2022-07-16T08:15:33Z</time>
      </trkpt>
      <trkpt lat="45.64159" lon="6.57595">
        <ele>1698</ele>
        <time>2022-07-16T08:15:34Z</time>
      </trkpt>
      <trkpt lat="45.64157" lon="6.57596">
        <ele>1699</ele>
        <time>2022-07-16T08:15:35Z</time>
      </trkpt>
      <trkpt lat="45.64154" lon="6.57598">
        <ele>1699</ele>
        <time>2022-07-16T08:15:36Z</time>
      </trkpt>
      <trkpt lat="45.64153" lon="6.57598">
        <ele>1698</ele>
        <time>2022-07-16T08:15:37Z</time>
      </trkpt>
      <trkpt lat="45.6415" lon="6.57599">
        <ele>1698</ele>
        <time>2022-07-16T08:15:38Z</time>
      </trkpt>
      <trkpt lat="45.64148" lon="6.576">
        <ele>1698</ele>
        <time>2022-07-16T08:15:39Z</time>
      </trkpt>
      <trkpt lat="45.64146" lon="6.57601">
        <ele>1698</ele>
        <time>2022-07-16T08:15:40Z</time>
      </trkpt>
      <trkpt lat="45.64144" lon="6.57602">
        <ele>1698</ele>
        <time>2022-07-16T08:15:41Z</time>
      </trkpt>
      <trkpt lat="45.64142" lon="6.57602">
        <ele>1698</ele>
        <time>2022-07-16T08:15:42Z</time>
      </trkpt>
      <trkpt lat="45.6414" lon="6.57602">
        <ele>1697</ele>
        <time>2022-07-16T08:15:43Z</time>
      </trkpt>
      <trkpt lat="45.64137" lon="6.57603">
        <ele>1697</ele>
        <time>2022-07-16T08:15:44Z</time>
      </trkpt>
      <trkpt lat="45.64135" lon="6.57604">
        <ele>1697</ele>
        <time>2022-07-16T08:15:46Z</time>
      </trkpt>
      <trkpt lat="45.64132" lon="6.57604">
        <ele>1696</ele>
        <time>2022-07-16T08:15:47Z</time>
      </trkpt>
      <trkpt lat="45.6413" lon="6.57605">
        <ele>1696</ele>
        <time>2022-07-16T08:15:48Z</time>
      </trkpt>
      <trkpt lat="45.64127" lon="6.57606">
        <ele>1696</ele>
        <time>2022-07-16T08:15:49Z</time>
      </trkpt>
      <trkpt lat="45.64125" lon="6.57605">
        <ele>1696</ele>
        <time>2022-07-16T08:15:50Z</time>
      </trkpt>
      <trkpt lat="45.64123" lon="6.57604">
        <ele>1695</ele>
        <time>2022-07-16T08:15:51Z</time>
      </trkpt>
      <trkpt lat="45.6412" lon="6.57603">
        <ele>1695</ele>
        <time>2022-07-16T08:15:52Z</time>
      </trkpt>
      <trkpt lat="45.64118" lon="6.57602">
        <ele>1695</ele>
        <time>2022-07-16T08:15:53Z</time>
      </trkpt>
      <trkpt lat="45.64116" lon="6.57601">
        <ele>1695</ele>
        <time>2022-07-16T08:15:54Z</time>
      </trkpt>
      <trkpt lat="45.64114" lon="6.576">
        <ele>1695</ele>
        <time>2022-07-16T08:15:55Z</time>
      </trkpt>
      <trkpt lat="45.64111" lon="6.57599">
        <ele>1696</ele>
        <time>2022-07-16T08:15:56Z</time>
      </trkpt>
      <trkpt lat="45.64109" lon="6.57598">
        <ele>1696</ele>
        <time>2022-07-16T08:15:57Z</time>
      </trkpt>
      <trkpt lat="45.64107" lon="6.57596">
        <ele>1695</ele>
        <time>2022-07-16T08:15:58Z</time>
      </trkpt>
      <trkpt lat="45.64105" lon="6.57594">
        <ele>1695</ele>
        <time>2022-07-16T08:15:59Z</time>
      </trkpt>
      <trkpt lat="45.64103" lon="6.57593">
        <ele>1695</ele>
        <time>2022-07-16T08:16:00Z</time>
      </trkpt>
      <trkpt lat="45.64101" lon="6.57591">
        <ele>1695</ele>
        <time>2022-07-16T08:16:01Z</time>
      </trkpt>
      <trkpt lat="45.64099" lon="6.57589">
        <ele>1695</ele>
        <time>2022-07-16T08:16:02Z</time>
      </trkpt>
      <trkpt lat="45.64097" lon="6.57588">
        <ele>1695</ele>
        <time>2022-07-16T08:16:03Z</time>
      </trkpt>
      <trkpt lat="45.64095" lon="6.57586">
        <ele>1695</ele>
        <time>2022-07-16T08:16:04Z</time>
      </trkpt>
      <trkpt lat="45.64093" lon="6.57584">
        <ele>1695</ele>
        <time>2022-07-16T08:16:05Z</time>
      </trkpt>
      <trkpt lat="45.64092" lon="6.57583">
        <ele>1695</ele>
        <time>2022-07-16T08:16:06Z</time>
      </trkpt>
      <trkpt lat="45.64089" lon="6.57581">
        <ele>1695</ele>
        <time>2022-07-16T08:16:08Z</time>
      </trkpt>
      <trkpt lat="45.64087" lon="6.57579">
        <ele>1695</ele>
        <time>2022-07-16T08:16:09Z</time>
      </trkpt>
      <trkpt lat="45.64084" lon="6.57577">
        <ele>1695</ele>
        <time>2022-07-16T08:16:10Z</time>
      </trkpt>
      <trkpt lat="45.64082" lon="6.57574">
        <ele>1694</ele>
        <time>2022-07-16T08:16:11Z</time>
      </trkpt>
      <trkpt lat="45.64081" lon="6.57574">
        <ele>1694</ele>
        <time>2022-07-16T08:16:12Z</time>
      </trkpt>
      <trkpt lat="45.64079" lon="6.57573">
        <ele>1694</ele>
        <time>2022-07-16T08:16:13Z</time>
      </trkpt>
      <trkpt lat="45.64078" lon="6.57573">
        <ele>1694</ele>
        <time>2022-07-16T08:16:14Z</time>
      </trkpt>
      <trkpt lat="45.64077" lon="6.57572">
        <ele>1694</ele>
        <time>2022-07-16T08:16:15Z</time>
      </trkpt>
      <trkpt lat="45.64071" lon="6.57571">
        <ele>1694</ele>
        <time>2022-07-16T08:16:16Z</time>
      </trkpt>
      <trkpt lat="45.64071" lon="6.57573">
        <ele>1694</ele>
        <time>2022-07-16T08:16:17Z</time>
      </trkpt>
      <trkpt lat="45.64071" lon="6.57574">
        <ele>1693</ele>
        <time>2022-07-16T08:16:18Z</time>
      </trkpt>
      <trkpt lat="45.64071" lon="6.57575">
        <ele>1693</ele>
        <time>2022-07-16T08:16:19Z</time>
      </trkpt>
      <trkpt lat="45.64071" lon="6.57577">
        <ele>1693</ele>
        <time>2022-07-16T08:16:20Z</time>
      </trkpt>
      <trkpt lat="45.64071" lon="6.57578">
        <ele>1693</ele>
        <time>2022-07-16T08:16:21Z</time>
      </trkpt>
      <trkpt lat="45.64071" lon="6.57579">
        <ele>1693</ele>
        <time>2022-07-16T08:16:22Z</time>
      </trkpt>
      <trkpt lat="45.6407" lon="6.57581">
        <ele>1693</ele>
        <time>2022-07-16T08:16:23Z</time>
      </trkpt>
      <trkpt lat="45.6407" lon="6.57582">
        <ele>1694</ele>
        <time>2022-07-16T08:16:24Z</time>
      </trkpt>
      <trkpt lat="45.6407" lon="6.57584">
        <ele>1694</ele>
        <time>2022-07-16T08:16:25Z</time>
      </trkpt>
      <trkpt lat="45.64072" lon="6.57586">
        <ele>1694</ele>
        <time>2022-07-16T08:16:26Z</time>
      </trkpt>
      <trkpt lat="45.64073" lon="6.57589">
        <ele>1694</ele>
        <time>2022-07-16T08:16:27Z</time>
      </trkpt>
      <trkpt lat="45.64075" lon="6.57591">
        <ele>1694</ele>
        <time>2022-07-16T08:16:28Z</time>
      </trkpt>
      <trkpt lat="45.64076" lon="6.57593">
        <ele>1694</ele>
        <time>2022-07-16T08:16:29Z</time>
      </trkpt>
      <trkpt lat="45.64077" lon="6.57595">
        <ele>1694</ele>
        <time>2022-07-16T08:16:30Z</time>
      </trkpt>
      <trkpt lat="45.64079" lon="6.57597">
        <ele>1694</ele>
        <time>2022-07-16T08:16:31Z</time>
      </trkpt>
      <trkpt lat="45.6408" lon="6.57599">
        <ele>1694</ele>
        <time>2022-07-16T08:16:32Z</time>
      </trkpt>
      <trkpt lat="45.64081" lon="6.57601">
        <ele>1694</ele>
        <time>2022-07-16T08:16:33Z</time>
      </trkpt>
      <trkpt lat="45.64083" lon="6.57603">
        <ele>1694</ele>
        <time>2022-07-16T08:16:34Z</time>
      </trkpt>
      <trkpt lat="45.64083" lon="6.57606">
        <ele>1694</ele>
        <time>2022-07-16T08:16:35Z</time>
      </trkpt>
      <trkpt lat="45.64082" lon="6.57609">
        <ele>1695</ele>
        <time>2022-07-16T08:16:36Z</time>
      </trkpt>
      <trkpt lat="45.64082" lon="6.57611">
        <ele>1695</ele>
        <time>2022-07-16T08:16:37Z</time>
      </trkpt>
      <trkpt lat="45.64082" lon="6.57614">
        <ele>1695</ele>
        <time>2022-07-16T08:16:38Z</time>
      </trkpt>
      <trkpt lat="45.64082" lon="6.57616">
        <ele>1695</ele>
        <time>2022-07-16T08:16:39Z</time>
      </trkpt>
      <trkpt lat="45.64082" lon="6.57619">
        <ele>1696</ele>
        <time>2022-07-16T08:16:40Z</time>
      </trkpt>
      <trkpt lat="45.64086" lon="6.57633">
        <ele>1695</ele>
        <time>2022-07-16T08:16:44Z</time>
      </trkpt>
      <trkpt lat="45.64089" lon="6.57635">
        <ele>1695</ele>
        <time>2022-07-16T08:16:47Z</time>
      </trkpt>
      <trkpt lat="45.64092" lon="6.57638">
        <ele>1695</ele>
        <time>2022-07-16T08:16:48Z</time>
      </trkpt>
      <trkpt lat="45.64095" lon="6.57641">
        <ele>1695</ele>
        <time>2022-07-16T08:16:49Z</time>
      </trkpt>
      <trkpt lat="45.64096" lon="6.57642">
        <ele>1695</ele>
        <time>2022-07-16T08:16:50Z</time>
      </trkpt>
      <trkpt lat="45.64097" lon="6.57643">
        <ele>1695</ele>
        <time>2022-07-16T08:16:51Z</time>
      </trkpt>
      <trkpt lat="45.64098" lon="6.57645">
        <ele>1695</ele>
        <time>2022-07-16T08:16:52Z</time>
      </trkpt>
      <trkpt lat="45.641" lon="6.57646">
        <ele>1695</ele>
        <time>2022-07-16T08:16:53Z</time>
      </trkpt>
      <trkpt lat="45.64101" lon="6.57647">
        <ele>1695</ele>
        <time>2022-07-16T08:16:54Z</time>
      </trkpt>
      <trkpt lat="45.64102" lon="6.57649">
        <ele>1695</ele>
        <time>2022-07-16T08:16:55Z</time>
      </trkpt>
      <trkpt lat="45.64103" lon="6.57651">
        <ele>1695</ele>
        <time>2022-07-16T08:16:56Z</time>
      </trkpt>
      <trkpt lat="45.64105" lon="6.57653">
        <ele>1695</ele>
        <time>2022-07-16T08:16:57Z</time>
      </trkpt>
      <trkpt lat="45.64106" lon="6.57655">
        <ele>1695</ele>
        <time>2022-07-16T08:16:58Z</time>
      </trkpt>
      <trkpt lat="45.64107" lon="6.57657">
        <ele>1695</ele>
        <time>2022-07-16T08:16:59Z</time>
      </trkpt>
      <trkpt lat="45.64108" lon="6.5766">
        <ele>1695</ele>
        <time>2022-07-16T08:17:00Z</time>
      </trkpt>
      <trkpt lat="45.64109" lon="6.5766">
        <ele>1696</ele>
        <time>2022-07-16T08:17:01Z</time>
      </trkpt>
      <trkpt lat="45.6411" lon="6.57661">
        <ele>1696</ele>
        <time>2022-07-16T08:17:02Z</time>
      </trkpt>
      <trkpt lat="45.64111" lon="6.57662">
        <ele>1696</ele>
        <time>2022-07-16T08:17:03Z</time>
      </trkpt>
      <trkpt lat="45.64112" lon="6.57663">
        <ele>1696</ele>
        <time>2022-07-16T08:17:04Z</time>
      </trkpt>
      <trkpt lat="45.64113" lon="6.57664">
        <ele>1696</ele>
        <time>2022-07-16T08:17:05Z</time>
      </trkpt>
      <trkpt lat="45.64114" lon="6.57665">
        <ele>1696</ele>
        <time>2022-07-16T08:17:06Z</time>
      </trkpt>
      <trkpt lat="45.64115" lon="6.57666">
        <ele>1696</ele>
        <time>2022-07-16T08:17:07Z</time>
      </trkpt>
      <trkpt lat="45.64116" lon="6.57667">
        <ele>1696</ele>
        <time>2022-07-16T08:17:08Z</time>
      </trkpt>
      <trkpt lat="45.64117" lon="6.57668">
        <ele>1696</ele>
        <time>2022-07-16T08:17:09Z</time>
      </trkpt>
      <trkpt lat="45.64119" lon="6.57669">
        <ele>1696</ele>
        <time>2022-07-16T08:17:10Z</time>
      </trkpt>
      <trkpt lat="45.6412" lon="6.57669">
        <ele>1696</ele>
        <time>2022-07-16T08:17:11Z</time>
      </trkpt>
      <trkpt lat="45.64122" lon="6.5767">
        <ele>1696</ele>
        <time>2022-07-16T08:17:12Z</time>
      </trkpt>
      <trkpt lat="45.64123" lon="6.57671">
        <ele>1696</ele>
        <time>2022-07-16T08:17:13Z</time>
      </trkpt>
      <trkpt lat="45.64124" lon="6.57672">
        <ele>1696</ele>
        <time>2022-07-16T08:17:14Z</time>
      </trkpt>
      <trkpt lat="45.64126" lon="6.57673">
        <ele>1696</ele>
        <time>2022-07-16T08:17:15Z</time>
      </trkpt>
      <trkpt lat="45.64127" lon="6.57674">
        <ele>1696</ele>
        <time>2022-07-16T08:17:16Z</time>
      </trkpt>
      <trkpt lat="45.64128" lon="6.57674">
        <ele>1696</ele>
        <time>2022-07-16T08:17:17Z</time>
      </trkpt>
      <trkpt lat="45.6413" lon="6.57675">
        <ele>1696</ele>
        <time>2022-07-16T08:17:18Z</time>
      </trkpt>
      <trkpt lat="45.64131" lon="6.57676">
        <ele>1696</ele>
        <time>2022-07-16T08:17:19Z</time>
      </trkpt>
      <trkpt lat="45.64138" lon="6.5768">
        <ele>1696</ele>
        <time>2022-07-16T08:17:20Z</time>
      </trkpt>
      <trkpt lat="45.64139" lon="6.57682">
        <ele>1695</ele>
        <time>2022-07-16T08:17:21Z</time>
      </trkpt>
      <trkpt lat="45.64141" lon="6.57683">
        <ele>1695</ele>
        <time>2022-07-16T08:17:22Z</time>
      </trkpt>
      <trkpt lat="45.64148" lon="6.5769">
        <ele>1695</ele>
        <time>2022-07-16T08:17:23Z</time>
      </trkpt>
      <trkpt lat="45.6415" lon="6.57692">
        <ele>1695</ele>
        <time>2022-07-16T08:17:24Z</time>
      </trkpt>
      <trkpt lat="45.64152" lon="6.57695">
        <ele>1695</ele>
        <time>2022-07-16T08:17:25Z</time>
      </trkpt>
      <trkpt lat="45.64154" lon="6.57697">
        <ele>1695</ele>
        <time>2022-07-16T08:17:26Z</time>
      </trkpt>
      <trkpt lat="45.64154" lon="6.577">
        <ele>1695</ele>
        <time>2022-07-16T08:17:27Z</time>
      </trkpt>
      <trkpt lat="45.64155" lon="6.57702">
        <ele>1695</ele>
        <time>2022-07-16T08:17:28Z</time>
      </trkpt>
      <trkpt lat="45.64156" lon="6.57705">
        <ele>1695</ele>
        <time>2022-07-16T08:17:29Z</time>
      </trkpt>
      <trkpt lat="45.64156" lon="6.57708">
        <ele>1695</ele>
        <time>2022-07-16T08:17:30Z</time>
      </trkpt>
      <trkpt lat="45.64157" lon="6.5771">
        <ele>1695</ele>
        <time>2022-07-16T08:17:31Z</time>
      </trkpt>
      <trkpt lat="45.64157" lon="6.57725">
        <ele>1696</ele>
        <time>2022-07-16T08:17:36Z</time>
      </trkpt>
      <trkpt lat="45.64157" lon="6.57727">
        <ele>1696</ele>
        <time>2022-07-16T08:17:39Z</time>
      </trkpt>
      <trkpt lat="45.64157" lon="6.57729">
        <ele>1696</ele>
        <time>2022-07-16T08:17:40Z</time>
      </trkpt>
      <trkpt lat="45.64157" lon="6.5773">
        <ele>1696</ele>
        <time>2022-07-16T08:17:41Z</time>
      </trkpt>
      <trkpt lat="45.64156" lon="6.57743">
        <ele>1696</ele>
        <time>2022-07-16T08:17:43Z</time>
      </trkpt>
      <trkpt lat="45.64156" lon="6.57745">
        <ele>1695</ele>
        <time>2022-07-16T08:17:44Z</time>
      </trkpt>
      <trkpt lat="45.64155" lon="6.57746">
        <ele>1695</ele>
        <time>2022-07-16T08:17:45Z</time>
      </trkpt>
      <trkpt lat="45.64155" lon="6.57748">
        <ele>1695</ele>
        <time>2022-07-16T08:17:46Z</time>
      </trkpt>
      <trkpt lat="45.64155" lon="6.57759">
        <ele>1695</ele>
        <time>2022-07-16T08:17:47Z</time>
      </trkpt>
      <trkpt lat="45.64155" lon="6.57761">
        <ele>1695</ele>
        <time>2022-07-16T08:17:48Z</time>
      </trkpt>
      <trkpt lat="45.64156" lon="6.57764">
        <ele>1695</ele>
        <time>2022-07-16T08:17:49Z</time>
      </trkpt>
      <trkpt lat="45.64156" lon="6.57766">
        <ele>1695</ele>
        <time>2022-07-16T08:17:50Z</time>
      </trkpt>
      <trkpt lat="45.64156" lon="6.57769">
        <ele>1695</ele>
        <time>2022-07-16T08:17:51Z</time>
      </trkpt>
      <trkpt lat="45.64156" lon="6.57771">
        <ele>1695</ele>
        <time>2022-07-16T08:17:52Z</time>
      </trkpt>
      <trkpt lat="45.64158" lon="6.57774">
        <ele>1695</ele>
        <time>2022-07-16T08:17:53Z</time>
      </trkpt>
      <trkpt lat="45.64159" lon="6.57776">
        <ele>1695</ele>
        <time>2022-07-16T08:17:54Z</time>
      </trkpt>
      <trkpt lat="45.6416" lon="6.57778">
        <ele>1695</ele>
        <time>2022-07-16T08:17:55Z</time>
      </trkpt>
      <trkpt lat="45.64162" lon="6.57781">
        <ele>1695</ele>
        <time>2022-07-16T08:17:56Z</time>
      </trkpt>
      <trkpt lat="45.64163" lon="6.57783">
        <ele>1695</ele>
        <time>2022-07-16T08:17:57Z</time>
      </trkpt>
      <trkpt lat="45.64165" lon="6.57787">
        <ele>1695</ele>
        <time>2022-07-16T08:17:58Z</time>
      </trkpt>
      <trkpt lat="45.64166" lon="6.57791">
        <ele>1695</ele>
        <time>2022-07-16T08:17:59Z</time>
      </trkpt>
      <trkpt lat="45.64168" lon="6.57795">
        <ele>1695</ele>
        <time>2022-07-16T08:18:00Z</time>
      </trkpt>
      <trkpt lat="45.64169" lon="6.57798">
        <ele>1695</ele>
        <time>2022-07-16T08:18:01Z</time>
      </trkpt>
      <trkpt lat="45.64169" lon="6.578">
        <ele>1695</ele>
        <time>2022-07-16T08:18:02Z</time>
      </trkpt>
      <trkpt lat="45.6417" lon="6.57803">
        <ele>1695</ele>
        <time>2022-07-16T08:18:03Z</time>
      </trkpt>
      <trkpt lat="45.6417" lon="6.57806">
        <ele>1695</ele>
        <time>2022-07-16T08:18:04Z</time>
      </trkpt>
      <trkpt lat="45.64171" lon="6.57809">
        <ele>1695</ele>
        <time>2022-07-16T08:18:05Z</time>
      </trkpt>
      <trkpt lat="45.64171" lon="6.57812">
        <ele>1694</ele>
        <time>2022-07-16T08:18:06Z</time>
      </trkpt>
      <trkpt lat="45.64171" lon="6.57814">
        <ele>1694</ele>
        <time>2022-07-16T08:18:07Z</time>
      </trkpt>
      <trkpt lat="45.64172" lon="6.57817">
        <ele>1694</ele>
        <time>2022-07-16T08:18:08Z</time>
      </trkpt>
      <trkpt lat="45.64172" lon="6.57819">
        <ele>1694</ele>
        <time>2022-07-16T08:18:09Z</time>
      </trkpt>
      <trkpt lat="45.64172" lon="6.57822">
        <ele>1694</ele>
        <time>2022-07-16T08:18:10Z</time>
      </trkpt>
      <trkpt lat="45.64173" lon="6.57824">
        <ele>1694</ele>
        <time>2022-07-16T08:18:11Z</time>
      </trkpt>
      <trkpt lat="45.64173" lon="6.57825">
        <ele>1694</ele>
        <time>2022-07-16T08:18:12Z</time>
      </trkpt>
      <trkpt lat="45.64174" lon="6.57827">
        <ele>1695</ele>
        <time>2022-07-16T08:18:13Z</time>
      </trkpt>
      <trkpt lat="45.64175" lon="6.57829">
        <ele>1695</ele>
        <time>2022-07-16T08:18:14Z</time>
      </trkpt>
      <trkpt lat="45.64178" lon="6.57837">
        <ele>1695</ele>
        <time>2022-07-16T08:18:15Z</time>
      </trkpt>
      <trkpt lat="45.64178" lon="6.5784">
        <ele>1695</ele>
        <time>2022-07-16T08:18:16Z</time>
      </trkpt>
      <trkpt lat="45.64178" lon="6.57842">
        <ele>1695</ele>
        <time>2022-07-16T08:18:17Z</time>
      </trkpt>
      <trkpt lat="45.64179" lon="6.57844">
        <ele>1695</ele>
        <time>2022-07-16T08:18:18Z</time>
      </trkpt>
      <trkpt lat="45.64179" lon="6.57846">
        <ele>1695</ele>
        <time>2022-07-16T08:18:19Z</time>
      </trkpt>
      <trkpt lat="45.6418" lon="6.57848">
        <ele>1695</ele>
        <time>2022-07-16T08:18:20Z</time>
      </trkpt>
      <trkpt lat="45.64181" lon="6.57851">
        <ele>1695</ele>
        <time>2022-07-16T08:18:21Z</time>
      </trkpt>
      <trkpt lat="45.64182" lon="6.57854">
        <ele>1695</ele>
        <time>2022-07-16T08:18:22Z</time>
      </trkpt>
      <trkpt lat="45.64183" lon="6.57857">
        <ele>1695</ele>
        <time>2022-07-16T08:18:23Z</time>
      </trkpt>
      <trkpt lat="45.64184" lon="6.5786">
        <ele>1695</ele>
        <time>2022-07-16T08:18:24Z</time>
      </trkpt>
      <trkpt lat="45.64185" lon="6.57862">
        <ele>1695</ele>
        <time>2022-07-16T08:18:25Z</time>
      </trkpt>
      <trkpt lat="45.64186" lon="6.57865">
        <ele>1695</ele>
        <time>2022-07-16T08:18:26Z</time>
      </trkpt>
      <trkpt lat="45.64188" lon="6.57867">
        <ele>1694</ele>
        <time>2022-07-16T08:18:27Z</time>
      </trkpt>
      <trkpt lat="45.64189" lon="6.57869">
        <ele>1694</ele>
        <time>2022-07-16T08:18:28Z</time>
      </trkpt>
      <trkpt lat="45.6419" lon="6.57872">
        <ele>1694</ele>
        <time>2022-07-16T08:18:29Z</time>
      </trkpt>
      <trkpt lat="45.6419" lon="6.57875">
        <ele>1694</ele>
        <time>2022-07-16T08:18:30Z</time>
      </trkpt>
      <trkpt lat="45.64191" lon="6.57878">
        <ele>1694</ele>
        <time>2022-07-16T08:18:31Z</time>
      </trkpt>
      <trkpt lat="45.64192" lon="6.57881">
        <ele>1694</ele>
        <time>2022-07-16T08:18:32Z</time>
      </trkpt>
      <trkpt lat="45.64192" lon="6.57884">
        <ele>1694</ele>
        <time>2022-07-16T08:18:33Z</time>
      </trkpt>
      <trkpt lat="45.64193" lon="6.57887">
        <ele>1695</ele>
        <time>2022-07-16T08:18:34Z</time>
      </trkpt>
      <trkpt lat="45.64194" lon="6.57892">
        <ele>1695</ele>
        <time>2022-07-16T08:18:35Z</time>
      </trkpt>
      <trkpt lat="45.64194" lon="6.57896">
        <ele>1695</ele>
        <time>2022-07-16T08:18:36Z</time>
      </trkpt>
      <trkpt lat="45.64195" lon="6.57901">
        <ele>1695</ele>
        <time>2022-07-16T08:18:37Z</time>
      </trkpt>
      <trkpt lat="45.64196" lon="6.57903">
        <ele>1695</ele>
        <time>2022-07-16T08:18:38Z</time>
      </trkpt>
      <trkpt lat="45.64196" lon="6.57905">
        <ele>1695</ele>
        <time>2022-07-16T08:18:39Z</time>
      </trkpt>
      <trkpt lat="45.64196" lon="6.57908">
        <ele>1695</ele>
        <time>2022-07-16T08:18:40Z</time>
      </trkpt>
      <trkpt lat="45.64196" lon="6.5791">
        <ele>1695</ele>
        <time>2022-07-16T08:18:41Z</time>
      </trkpt>
      <trkpt lat="45.64196" lon="6.57912">
        <ele>1695</ele>
        <time>2022-07-16T08:18:42Z</time>
      </trkpt>
      <trkpt lat="45.64196" lon="6.57915">
        <ele>1695</ele>
        <time>2022-07-16T08:18:43Z</time>
      </trkpt>
      <trkpt lat="45.64197" lon="6.57917">
        <ele>1695</ele>
        <time>2022-07-16T08:18:44Z</time>
      </trkpt>
      <trkpt lat="45.64198" lon="6.5792">
        <ele>1694</ele>
        <time>2022-07-16T08:18:45Z</time>
      </trkpt>
      <trkpt lat="45.64199" lon="6.57922">
        <ele>1695</ele>
        <time>2022-07-16T08:18:46Z</time>
      </trkpt>
      <trkpt lat="45.642" lon="6.57924">
        <ele>1695</ele>
        <time>2022-07-16T08:18:47Z</time>
      </trkpt>
      <trkpt lat="45.64201" lon="6.57927">
        <ele>1695</ele>
        <time>2022-07-16T08:18:48Z</time>
      </trkpt>
      <trkpt lat="45.64202" lon="6.5793">
        <ele>1695</ele>
        <time>2022-07-16T08:18:49Z</time>
      </trkpt>
      <trkpt lat="45.64204" lon="6.57933">
        <ele>1695</ele>
        <time>2022-07-16T08:18:50Z</time>
      </trkpt>
      <trkpt lat="45.64205" lon="6.57936">
        <ele>1695</ele>
        <time>2022-07-16T08:18:51Z</time>
      </trkpt>
      <trkpt lat="45.64206" lon="6.5794">
        <ele>1695</ele>
        <time>2022-07-16T08:18:52Z</time>
      </trkpt>
      <trkpt lat="45.64206" lon="6.57943">
        <ele>1696</ele>
        <time>2022-07-16T08:18:53Z</time>
      </trkpt>
      <trkpt lat="45.64206" lon="6.57946">
        <ele>1696</ele>
        <time>2022-07-16T08:18:54Z</time>
      </trkpt>
      <trkpt lat="45.64207" lon="6.5795">
        <ele>1696</ele>
        <time>2022-07-16T08:18:55Z</time>
      </trkpt>
      <trkpt lat="45.64207" lon="6.57953">
        <ele>1696</ele>
        <time>2022-07-16T08:18:56Z</time>
      </trkpt>
      <trkpt lat="45.64205" lon="6.57957">
        <ele>1696</ele>
        <time>2022-07-16T08:18:57Z</time>
      </trkpt>
      <trkpt lat="45.64203" lon="6.5796">
        <ele>1695</ele>
        <time>2022-07-16T08:18:58Z</time>
      </trkpt>
      <trkpt lat="45.64201" lon="6.57964">
        <ele>1695</ele>
        <time>2022-07-16T08:18:59Z</time>
      </trkpt>
      <trkpt lat="45.64201" lon="6.57966">
        <ele>1695</ele>
        <time>2022-07-16T08:19:00Z</time>
      </trkpt>
      <trkpt lat="45.642" lon="6.57968">
        <ele>1695</ele>
        <time>2022-07-16T08:19:01Z</time>
      </trkpt>
      <trkpt lat="45.642" lon="6.5797">
        <ele>1695</ele>
        <time>2022-07-16T08:19:02Z</time>
      </trkpt>
      <trkpt lat="45.642" lon="6.57972">
        <ele>1695</ele>
        <time>2022-07-16T08:19:03Z</time>
      </trkpt>
      <trkpt lat="45.642" lon="6.57974">
        <ele>1695</ele>
        <time>2022-07-16T08:19:04Z</time>
      </trkpt>
      <trkpt lat="45.642" lon="6.57976">
        <ele>1695</ele>
        <time>2022-07-16T08:19:05Z</time>
      </trkpt>
      <trkpt lat="45.64199" lon="6.57978">
        <ele>1695</ele>
        <time>2022-07-16T08:19:06Z</time>
      </trkpt>
      <trkpt lat="45.64205" lon="6.57991">
        <ele>1696</ele>
        <time>2022-07-16T08:19:11Z</time>
      </trkpt>
      <trkpt lat="45.64206" lon="6.57996">
        <ele>1696</ele>
        <time>2022-07-16T08:19:14Z</time>
      </trkpt>
      <trkpt lat="45.64207" lon="6.58">
        <ele>1696</ele>
        <time>2022-07-16T08:19:15Z</time>
      </trkpt>
      <trkpt lat="45.64208" lon="6.58005">
        <ele>1696</ele>
        <time>2022-07-16T08:19:16Z</time>
      </trkpt>
      <trkpt lat="45.64208" lon="6.58007">
        <ele>1696</ele>
        <time>2022-07-16T08:19:17Z</time>
      </trkpt>
      <trkpt lat="45.64208" lon="6.5801">
        <ele>1696</ele>
        <time>2022-07-16T08:19:18Z</time>
      </trkpt>
      <trkpt lat="45.64208" lon="6.58012">
        <ele>1696</ele>
        <time>2022-07-16T08:19:19Z</time>
      </trkpt>
      <trkpt lat="45.64208" lon="6.58015">
        <ele>1696</ele>
        <time>2022-07-16T08:19:20Z</time>
      </trkpt>
      <trkpt lat="45.64208" lon="6.58017">
        <ele>1696</ele>
        <time>2022-07-16T08:19:21Z</time>
      </trkpt>
      <trkpt lat="45.64208" lon="6.5802">
        <ele>1696</ele>
        <time>2022-07-16T08:19:22Z</time>
      </trkpt>
      <trkpt lat="45.64208" lon="6.58023">
        <ele>1696</ele>
        <time>2022-07-16T08:19:23Z</time>
      </trkpt>
      <trkpt lat="45.64207" lon="6.58026">
        <ele>1696</ele>
        <time>2022-07-16T08:19:24Z</time>
      </trkpt>
      <trkpt lat="45.64207" lon="6.58029">
        <ele>1696</ele>
        <time>2022-07-16T08:19:25Z</time>
      </trkpt>
      <trkpt lat="45.64207" lon="6.58032">
        <ele>1696</ele>
        <time>2022-07-16T08:19:26Z</time>
      </trkpt>
      <trkpt lat="45.64205" lon="6.58036">
        <ele>1696</ele>
        <time>2022-07-16T08:19:27Z</time>
      </trkpt>
      <trkpt lat="45.64203" lon="6.5804">
        <ele>1696</ele>
        <time>2022-07-16T08:19:28Z</time>
      </trkpt>
      <trkpt lat="45.64201" lon="6.58044">
        <ele>1696</ele>
        <time>2022-07-16T08:19:29Z</time>
      </trkpt>
      <trkpt lat="45.642" lon="6.58045">
        <ele>1696</ele>
        <time>2022-07-16T08:19:30Z</time>
      </trkpt>
      <trkpt lat="45.642" lon="6.58046">
        <ele>1696</ele>
        <time>2022-07-16T08:19:31Z</time>
      </trkpt>
      <trkpt lat="45.64199" lon="6.58048">
        <ele>1696</ele>
        <time>2022-07-16T08:19:32Z</time>
      </trkpt>
      <trkpt lat="45.64198" lon="6.58049">
        <ele>1696</ele>
        <time>2022-07-16T08:19:33Z</time>
      </trkpt>
      <trkpt lat="45.64198" lon="6.5805">
        <ele>1696</ele>
        <time>2022-07-16T08:19:34Z</time>
      </trkpt>
      <trkpt lat="45.64193" lon="6.58058">
        <ele>1696</ele>
        <time>2022-07-16T08:19:35Z</time>
      </trkpt>
      <trkpt lat="45.64192" lon="6.5806">
        <ele>1696</ele>
        <time>2022-07-16T08:19:36Z</time>
      </trkpt>
      <trkpt lat="45.6419" lon="6.58062">
        <ele>1696</ele>
        <time>2022-07-16T08:19:37Z</time>
      </trkpt>
      <trkpt lat="45.64189" lon="6.58064">
        <ele>1696</ele>
        <time>2022-07-16T08:19:38Z</time>
      </trkpt>
      <trkpt lat="45.64187" lon="6.58066">
        <ele>1695</ele>
        <time>2022-07-16T08:19:39Z</time>
      </trkpt>
      <trkpt lat="45.64186" lon="6.58069">
        <ele>1696</ele>
        <time>2022-07-16T08:19:40Z</time>
      </trkpt>
      <trkpt lat="45.64185" lon="6.58071">
        <ele>1696</ele>
        <time>2022-07-16T08:19:41Z</time>
      </trkpt>
      <trkpt lat="45.64183" lon="6.58074">
        <ele>1695</ele>
        <time>2022-07-16T08:19:42Z</time>
      </trkpt>
      <trkpt lat="45.64182" lon="6.58076">
        <ele>1695</ele>
        <time>2022-07-16T08:19:43Z</time>
      </trkpt>
      <trkpt lat="45.64181" lon="6.58079">
        <ele>1695</ele>
        <time>2022-07-16T08:19:44Z</time>
      </trkpt>
      <trkpt lat="45.6418" lon="6.58081">
        <ele>1695</ele>
        <time>2022-07-16T08:19:45Z</time>
      </trkpt>
      <trkpt lat="45.64178" lon="6.58083">
        <ele>1695</ele>
        <time>2022-07-16T08:19:46Z</time>
      </trkpt>
      <trkpt lat="45.64177" lon="6.58086">
        <ele>1695</ele>
        <time>2022-07-16T08:19:47Z</time>
      </trkpt>
      <trkpt lat="45.64176" lon="6.58088">
        <ele>1695</ele>
        <time>2022-07-16T08:19:48Z</time>
      </trkpt>
      <trkpt lat="45.64175" lon="6.58091">
        <ele>1695</ele>
        <time>2022-07-16T08:19:49Z</time>
      </trkpt>
      <trkpt lat="45.64174" lon="6.58093">
        <ele>1695</ele>
        <time>2022-07-16T08:19:50Z</time>
      </trkpt>
      <trkpt lat="45.64173" lon="6.58096">
        <ele>1695</ele>
        <time>2022-07-16T08:19:51Z</time>
      </trkpt>
      <trkpt lat="45.64173" lon="6.58099">
        <ele>1695</ele>
        <time>2022-07-16T08:19:52Z</time>
      </trkpt>
      <trkpt lat="45.64172" lon="6.58102">
        <ele>1695</ele>
        <time>2022-07-16T08:19:53Z</time>
      </trkpt>
      <trkpt lat="45.64171" lon="6.58105">
        <ele>1696</ele>
        <time>2022-07-16T08:19:54Z</time>
      </trkpt>
      <trkpt lat="45.64171" lon="6.58108">
        <ele>1696</ele>
        <time>2022-07-16T08:19:56Z</time>
      </trkpt>
      <trkpt lat="45.6417" lon="6.58111">
        <ele>1696</ele>
        <time>2022-07-16T08:19:57Z</time>
      </trkpt>
      <trkpt lat="45.6417" lon="6.58114">
        <ele>1696</ele>
        <time>2022-07-16T08:19:58Z</time>
      </trkpt>
      <trkpt lat="45.64169" lon="6.58117">
        <ele>1696</ele>
        <time>2022-07-16T08:19:59Z</time>
      </trkpt>
      <trkpt lat="45.64169" lon="6.58118">
        <ele>1696</ele>
        <time>2022-07-16T08:20:00Z</time>
      </trkpt>
      <trkpt lat="45.64169" lon="6.58119">
        <ele>1696</ele>
        <time>2022-07-16T08:20:03Z</time>
      </trkpt>
      <trkpt lat="45.64169" lon="6.5812">
        <ele>1695</ele>
        <time>2022-07-16T08:20:05Z</time>
      </trkpt>
      <trkpt lat="45.64169" lon="6.58121">
        <ele>1696</ele>
        <time>2022-07-16T08:20:07Z</time>
      </trkpt>
      <trkpt lat="45.64169" lon="6.58122">
        <ele>1696</ele>
        <time>2022-07-16T08:20:10Z</time>
      </trkpt>
      <trkpt lat="45.64169" lon="6.58123">
        <ele>1696</ele>
        <time>2022-07-16T08:20:12Z</time>
      </trkpt>
      <trkpt lat="45.64169" lon="6.58124">
        <ele>1696</ele>
        <time>2022-07-16T08:20:14Z</time>
      </trkpt>
      <trkpt lat="45.64169" lon="6.58125">
        <ele>1696</ele>
        <time>2022-07-16T08:20:17Z</time>
      </trkpt>
      <trkpt lat="45.64169" lon="6.58126">
        <ele>1696</ele>
        <time>2022-07-16T08:20:19Z</time>
      </trkpt>
      <trkpt lat="45.64169" lon="6.58127">
        <ele>1696</ele>
        <time>2022-07-16T08:20:21Z</time>
      </trkpt>
      <trkpt lat="45.64168" lon="6.58127">
        <ele>1696</ele>
        <time>2022-07-16T08:20:22Z</time>
      </trkpt>
      <trkpt lat="45.64168" lon="6.58128">
        <ele>1696</ele>
        <time>2022-07-16T08:20:24Z</time>
      </trkpt>
      <trkpt lat="45.64168" lon="6.58129">
        <ele>1696</ele>
        <time>2022-07-16T08:20:26Z</time>
      </trkpt>
      <trkpt lat="45.64168" lon="6.5813">
        <ele>1695</ele>
        <time>2022-07-16T08:20:28Z</time>
      </trkpt>
      <trkpt lat="45.64168" lon="6.58131">
        <ele>1696</ele>
        <time>2022-07-16T08:20:31Z</time>
      </trkpt>
      <trkpt lat="45.64168" lon="6.58132">
        <ele>1696</ele>
        <time>2022-07-16T08:20:32Z</time>
      </trkpt>
      <trkpt lat="45.64168" lon="6.58134">
        <ele>1696</ele>
        <time>2022-07-16T08:20:33Z</time>
      </trkpt>
      <trkpt lat="45.64168" lon="6.58135">
        <ele>1696</ele>
        <time>2022-07-16T08:20:34Z</time>
      </trkpt>
      <trkpt lat="45.64168" lon="6.58137">
        <ele>1696</ele>
        <time>2022-07-16T08:20:35Z</time>
      </trkpt>
      <trkpt lat="45.64168" lon="6.58138">
        <ele>1696</ele>
        <time>2022-07-16T08:20:36Z</time>
      </trkpt>
      <trkpt lat="45.64168" lon="6.5814">
        <ele>1696</ele>
        <time>2022-07-16T08:20:37Z</time>
      </trkpt>
      <trkpt lat="45.64168" lon="6.58141">
        <ele>1696</ele>
        <time>2022-07-16T08:20:38Z</time>
      </trkpt>
      <trkpt lat="45.64168" lon="6.58143">
        <ele>1696</ele>
        <time>2022-07-16T08:20:39Z</time>
      </trkpt>
      <trkpt lat="45.64168" lon="6.58145">
        <ele>1696</ele>
        <time>2022-07-16T08:20:40Z</time>
      </trkpt>
      <trkpt lat="45.64169" lon="6.58147">
        <ele>1696</ele>
        <time>2022-07-16T08:20:41Z</time>
      </trkpt>
      <trkpt lat="45.64169" lon="6.58149">
        <ele>1697</ele>
        <time>2022-07-16T08:20:42Z</time>
      </trkpt>
      <trkpt lat="45.6417" lon="6.58151">
        <ele>1697</ele>
        <time>2022-07-16T08:20:43Z</time>
      </trkpt>
      <trkpt lat="45.6417" lon="6.58154">
        <ele>1697</ele>
        <time>2022-07-16T08:20:44Z</time>
      </trkpt>
      <trkpt lat="45.64171" lon="6.58156">
        <ele>1697</ele>
        <time>2022-07-16T08:20:45Z</time>
      </trkpt>
      <trkpt lat="45.64171" lon="6.5816">
        <ele>1698</ele>
        <time>2022-07-16T08:20:47Z</time>
      </trkpt>
      <trkpt lat="45.64172" lon="6.58162">
        <ele>1698</ele>
        <time>2022-07-16T08:20:49Z</time>
      </trkpt>
      <trkpt lat="45.64172" lon="6.58164">
        <ele>1698</ele>
        <time>2022-07-16T08:20:50Z</time>
      </trkpt>
      <trkpt lat="45.64172" lon="6.58166">
        <ele>1698</ele>
        <time>2022-07-16T08:20:51Z</time>
      </trkpt>
      <trkpt lat="45.64173" lon="6.58168">
        <ele>1698</ele>
        <time>2022-07-16T08:20:52Z</time>
      </trkpt>
      <trkpt lat="45.64173" lon="6.5817">
        <ele>1698</ele>
        <time>2022-07-16T08:20:53Z</time>
      </trkpt>
      <trkpt lat="45.64174" lon="6.58172">
        <ele>1698</ele>
        <time>2022-07-16T08:20:54Z</time>
      </trkpt>
      <trkpt lat="45.64174" lon="6.58174">
        <ele>1697</ele>
        <time>2022-07-16T08:20:55Z</time>
      </trkpt>
      <trkpt lat="45.64174" lon="6.58175">
        <ele>1697</ele>
        <time>2022-07-16T08:20:56Z</time>
      </trkpt>
      <trkpt lat="45.64175" lon="6.58176">
        <ele>1697</ele>
        <time>2022-07-16T08:20:57Z</time>
      </trkpt>
      <trkpt lat="45.64175" lon="6.58177">
        <ele>1697</ele>
        <time>2022-07-16T08:20:58Z</time>
      </trkpt>
      <trkpt lat="45.64175" lon="6.58178">
        <ele>1697</ele>
        <time>2022-07-16T08:20:59Z</time>
      </trkpt>
      <trkpt lat="45.64176" lon="6.58179">
        <ele>1697</ele>
        <time>2022-07-16T08:21:00Z</time>
      </trkpt>
      <trkpt lat="45.64176" lon="6.5818">
        <ele>1697</ele>
        <time>2022-07-16T08:21:01Z</time>
      </trkpt>
      <trkpt lat="45.64176" lon="6.58181">
        <ele>1697</ele>
        <time>2022-07-16T08:21:02Z</time>
      </trkpt>
      <trkpt lat="45.64179" lon="6.5819">
        <ele>1697</ele>
        <time>2022-07-16T08:21:03Z</time>
      </trkpt>
      <trkpt lat="45.6418" lon="6.58192">
        <ele>1697</ele>
        <time>2022-07-16T08:21:04Z</time>
      </trkpt>
      <trkpt lat="45.6418" lon="6.58194">
        <ele>1697</ele>
        <time>2022-07-16T08:21:05Z</time>
      </trkpt>
      <trkpt lat="45.64181" lon="6.58196">
        <ele>1697</ele>
        <time>2022-07-16T08:21:06Z</time>
      </trkpt>
      <trkpt lat="45.64181" lon="6.58198">
        <ele>1697</ele>
        <time>2022-07-16T08:21:07Z</time>
      </trkpt>
      <trkpt lat="45.64182" lon="6.582">
        <ele>1697</ele>
        <time>2022-07-16T08:21:08Z</time>
      </trkpt>
      <trkpt lat="45.64181" lon="6.58202">
        <ele>1698</ele>
        <time>2022-07-16T08:21:09Z</time>
      </trkpt>
      <trkpt lat="45.64181" lon="6.58204">
        <ele>1698</ele>
        <time>2022-07-16T08:21:10Z</time>
      </trkpt>
      <trkpt lat="45.6418" lon="6.58206">
        <ele>1698</ele>
        <time>2022-07-16T08:21:11Z</time>
      </trkpt>
      <trkpt lat="45.6418" lon="6.58208">
        <ele>1698</ele>
        <time>2022-07-16T08:21:12Z</time>
      </trkpt>
      <trkpt lat="45.6418" lon="6.5821">
        <ele>1698</ele>
        <time>2022-07-16T08:21:13Z</time>
      </trkpt>
      <trkpt lat="45.64179" lon="6.58212">
        <ele>1698</ele>
        <time>2022-07-16T08:21:14Z</time>
      </trkpt>
      <trkpt lat="45.64179" lon="6.58215">
        <ele>1698</ele>
        <time>2022-07-16T08:21:15Z</time>
      </trkpt>
      <trkpt lat="45.64179" lon="6.58216">
        <ele>1698</ele>
        <time>2022-07-16T08:21:16Z</time>
      </trkpt>
      <trkpt lat="45.64179" lon="6.58217">
        <ele>1698</ele>
        <time>2022-07-16T08:21:17Z</time>
      </trkpt>
      <trkpt lat="45.6418" lon="6.58219">
        <ele>1698</ele>
        <time>2022-07-16T08:21:18Z</time>
      </trkpt>
      <trkpt lat="45.6418" lon="6.5822">
        <ele>1698</ele>
        <time>2022-07-16T08:21:19Z</time>
      </trkpt>
      <trkpt lat="45.64181" lon="6.58221">
        <ele>1698</ele>
        <time>2022-07-16T08:21:20Z</time>
      </trkpt>
      <trkpt lat="45.64181" lon="6.58223">
        <ele>1699</ele>
        <time>2022-07-16T08:21:21Z</time>
      </trkpt>
      <trkpt lat="45.64181" lon="6.58224">
        <ele>1700</ele>
        <time>2022-07-16T08:21:22Z</time>
      </trkpt>
      <trkpt lat="45.64182" lon="6.58225">
        <ele>1700</ele>
        <time>2022-07-16T08:21:23Z</time>
      </trkpt>
      <trkpt lat="45.64182" lon="6.58227">
        <ele>1700</ele>
        <time>2022-07-16T08:21:24Z</time>
      </trkpt>
      <trkpt lat="45.64183" lon="6.58228">
        <ele>1700</ele>
        <time>2022-07-16T08:21:25Z</time>
      </trkpt>
      <trkpt lat="45.64184" lon="6.58228">
        <ele>1700</ele>
        <time>2022-07-16T08:21:26Z</time>
      </trkpt>
      <trkpt lat="45.64185" lon="6.58229">
        <ele>1700</ele>
        <time>2022-07-16T08:21:27Z</time>
      </trkpt>
      <trkpt lat="45.64186" lon="6.5823">
        <ele>1699</ele>
        <time>2022-07-16T08:21:28Z</time>
      </trkpt>
      <trkpt lat="45.64187" lon="6.58231">
        <ele>1699</ele>
        <time>2022-07-16T08:21:29Z</time>
      </trkpt>
      <trkpt lat="45.64188" lon="6.58232">
        <ele>1699</ele>
        <time>2022-07-16T08:21:30Z</time>
      </trkpt>
      <trkpt lat="45.64188" lon="6.58233">
        <ele>1699</ele>
        <time>2022-07-16T08:21:31Z</time>
      </trkpt>
      <trkpt lat="45.64189" lon="6.58234">
        <ele>1700</ele>
        <time>2022-07-16T08:21:32Z</time>
      </trkpt>
      <trkpt lat="45.6419" lon="6.58235">
        <ele>1700</ele>
        <time>2022-07-16T08:21:33Z</time>
      </trkpt>
      <trkpt lat="45.64191" lon="6.58236">
        <ele>1700</ele>
        <time>2022-07-16T08:21:34Z</time>
      </trkpt>
      <trkpt lat="45.64192" lon="6.58237">
        <ele>1699</ele>
        <time>2022-07-16T08:21:35Z</time>
      </trkpt>
      <trkpt lat="45.64193" lon="6.58238">
        <ele>1699</ele>
        <time>2022-07-16T08:21:36Z</time>
      </trkpt>
      <trkpt lat="45.64194" lon="6.58239">
        <ele>1699</ele>
        <time>2022-07-16T08:21:37Z</time>
      </trkpt>
      <trkpt lat="45.64195" lon="6.5824">
        <ele>1699</ele>
        <time>2022-07-16T08:21:38Z</time>
      </trkpt>
      <trkpt lat="45.64196" lon="6.58241">
        <ele>1699</ele>
        <time>2022-07-16T08:21:39Z</time>
      </trkpt>
      <trkpt lat="45.64197" lon="6.58242">
        <ele>1699</ele>
        <time>2022-07-16T08:21:40Z</time>
      </trkpt>
      <trkpt lat="45.64198" lon="6.58243">
        <ele>1699</ele>
        <time>2022-07-16T08:21:41Z</time>
      </trkpt>
      <trkpt lat="45.64201" lon="6.58246">
        <ele>1699</ele>
        <time>2022-07-16T08:21:42Z</time>
      </trkpt>
      <trkpt lat="45.64203" lon="6.58249">
        <ele>1698</ele>
        <time>2022-07-16T08:21:44Z</time>
      </trkpt>
      <trkpt lat="45.64204" lon="6.5825">
        <ele>1699</ele>
        <time>2022-07-16T08:21:45Z</time>
      </trkpt>
      <trkpt lat="45.64205" lon="6.58252">
        <ele>1699</ele>
        <time>2022-07-16T08:21:46Z</time>
      </trkpt>
      <trkpt lat="45.64206" lon="6.58253">
        <ele>1698</ele>
        <time>2022-07-16T08:21:47Z</time>
      </trkpt>
      <trkpt lat="45.64206" lon="6.58254">
        <ele>1698</ele>
        <time>2022-07-16T08:21:48Z</time>
      </trkpt>
      <trkpt lat="45.64207" lon="6.58255">
        <ele>1698</ele>
        <time>2022-07-16T08:21:49Z</time>
      </trkpt>
      <trkpt lat="45.64208" lon="6.58256">
        <ele>1698</ele>
        <time>2022-07-16T08:21:50Z</time>
      </trkpt>
      <trkpt lat="45.64209" lon="6.58257">
        <ele>1698</ele>
        <time>2022-07-16T08:21:51Z</time>
      </trkpt>
      <trkpt lat="45.64209" lon="6.58258">
        <ele>1698</ele>
        <time>2022-07-16T08:21:52Z</time>
      </trkpt>
      <trkpt lat="45.64211" lon="6.58261">
        <ele>1699</ele>
        <time>2022-07-16T08:21:53Z</time>
      </trkpt>
      <trkpt lat="45.64214" lon="6.58263">
        <ele>1698</ele>
        <time>2022-07-16T08:21:55Z</time>
      </trkpt>
      <trkpt lat="45.64216" lon="6.58265">
        <ele>1698</ele>
        <time>2022-07-16T08:21:57Z</time>
      </trkpt>
      <trkpt lat="45.64218" lon="6.58268">
        <ele>1698</ele>
        <time>2022-07-16T08:21:59Z</time>
      </trkpt>
      <trkpt lat="45.6422" lon="6.5827">
        <ele>1698</ele>
        <time>2022-07-16T08:22:01Z</time>
      </trkpt>
      <trkpt lat="45.64222" lon="6.58272">
        <ele>1698</ele>
        <time>2022-07-16T08:22:03Z</time>
      </trkpt>
      <trkpt lat="45.64225" lon="6.58275">
        <ele>1698</ele>
        <time>2022-07-16T08:22:05Z</time>
      </trkpt>
      <trkpt lat="45.64227" lon="6.58277">
        <ele>1698</ele>
        <time>2022-07-16T08:22:07Z</time>
      </trkpt>
      <trkpt lat="45.6423" lon="6.58279">
        <ele>1699</ele>
        <time>2022-07-16T08:22:09Z</time>
      </trkpt>
      <trkpt lat="45.64232" lon="6.58281">
        <ele>1699</ele>
        <time>2022-07-16T08:22:11Z</time>
      </trkpt>
      <trkpt lat="45.64234" lon="6.58283">
        <ele>1700</ele>
        <time>2022-07-16T08:22:13Z</time>
      </trkpt>
      <trkpt lat="45.64237" lon="6.58286">
        <ele>1700</ele>
        <time>2022-07-16T08:22:15Z</time>
      </trkpt>
      <trkpt lat="45.64238" lon="6.58288">
        <ele>1701</ele>
        <time>2022-07-16T08:22:17Z</time>
      </trkpt>
      <trkpt lat="45.6424" lon="6.58289">
        <ele>1701</ele>
        <time>2022-07-16T08:22:19Z</time>
      </trkpt>
      <trkpt lat="45.64242" lon="6.58291">
        <ele>1701</ele>
        <time>2022-07-16T08:22:22Z</time>
      </trkpt>
      <trkpt lat="45.64243" lon="6.58293">
        <ele>1701</ele>
        <time>2022-07-16T08:22:24Z</time>
      </trkpt>
      <trkpt lat="45.64246" lon="6.58295">
        <ele>1701</ele>
        <time>2022-07-16T08:22:27Z</time>
      </trkpt>
      <trkpt lat="45.64248" lon="6.58296">
        <ele>1701</ele>
        <time>2022-07-16T08:22:29Z</time>
      </trkpt>
      <trkpt lat="45.6425" lon="6.58297">
        <ele>1701</ele>
        <time>2022-07-16T08:22:31Z</time>
      </trkpt>
      <trkpt lat="45.64253" lon="6.58298">
        <ele>1702</ele>
        <time>2022-07-16T08:22:33Z</time>
      </trkpt>
      <trkpt lat="45.64255" lon="6.58299">
        <ele>1702</ele>
        <time>2022-07-16T08:22:35Z</time>
      </trkpt>
      <trkpt lat="45.64257" lon="6.58299">
        <ele>1702</ele>
        <time>2022-07-16T08:22:37Z</time>
      </trkpt>
      <trkpt lat="45.64259" lon="6.58299">
        <ele>1702</ele>
        <time>2022-07-16T08:22:38Z</time>
      </trkpt>
      <trkpt lat="45.64261" lon="6.583">
        <ele>1703</ele>
        <time>2022-07-16T08:22:39Z</time>
      </trkpt>
      <trkpt lat="45.64263" lon="6.583">
        <ele>1703</ele>
        <time>2022-07-16T08:22:40Z</time>
      </trkpt>
      <trkpt lat="45.64265" lon="6.583">
        <ele>1703</ele>
        <time>2022-07-16T08:22:41Z</time>
      </trkpt>
      <trkpt lat="45.64267" lon="6.58301">
        <ele>1703</ele>
        <time>2022-07-16T08:22:42Z</time>
      </trkpt>
      <trkpt lat="45.64268" lon="6.58301">
        <ele>1703</ele>
        <time>2022-07-16T08:22:43Z</time>
      </trkpt>
      <trkpt lat="45.6427" lon="6.58304">
        <ele>1703</ele>
        <time>2022-07-16T08:22:45Z</time>
      </trkpt>
      <trkpt lat="45.6427" lon="6.58305">
        <ele>1704</ele>
        <time>2022-07-16T08:22:47Z</time>
      </trkpt>
      <trkpt lat="45.64269" lon="6.58306">
        <ele>1704</ele>
        <time>2022-07-16T08:22:48Z</time>
      </trkpt>
      <trkpt lat="45.64268" lon="6.58306">
        <ele>1704</ele>
        <time>2022-07-16T08:22:49Z</time>
      </trkpt>
      <trkpt lat="45.64267" lon="6.58307">
        <ele>1704</ele>
        <time>2022-07-16T08:22:50Z</time>
      </trkpt>
      <trkpt lat="45.64267" lon="6.58308">
        <ele>1704</ele>
        <time>2022-07-16T08:22:51Z</time>
      </trkpt>
      <trkpt lat="45.64266" lon="6.58308">
        <ele>1704</ele>
        <time>2022-07-16T08:22:52Z</time>
      </trkpt>
      <trkpt lat="45.64265" lon="6.58309">
        <ele>1705</ele>
        <time>2022-07-16T08:22:53Z</time>
      </trkpt>
      <trkpt lat="45.64265" lon="6.5831">
        <ele>1705</ele>
        <time>2022-07-16T08:22:54Z</time>
      </trkpt>
      <trkpt lat="45.64264" lon="6.5831">
        <ele>1705</ele>
        <time>2022-07-16T08:22:55Z</time>
      </trkpt>
      <trkpt lat="45.64263" lon="6.58311">
        <ele>1705</ele>
        <time>2022-07-16T08:22:56Z</time>
      </trkpt>
      <trkpt lat="45.6426" lon="6.5831">
        <ele>1705</ele>
        <time>2022-07-16T08:22:58Z</time>
      </trkpt>
      <trkpt lat="45.64257" lon="6.58311">
        <ele>1705</ele>
        <time>2022-07-16T08:23:00Z</time>
      </trkpt>
      <trkpt lat="45.64258" lon="6.58311">
        <ele>1706</ele>
        <time>2022-07-16T08:23:02Z</time>
      </trkpt>
      <trkpt lat="45.64258" lon="6.5831">
        <ele>1706</ele>
        <time>2022-07-16T08:23:03Z</time>
      </trkpt>
      <trkpt lat="45.64259" lon="6.5831">
        <ele>1706</ele>
        <time>2022-07-16T08:23:04Z</time>
      </trkpt>
      <trkpt lat="45.64259" lon="6.58309">
        <ele>1706</ele>
        <time>2022-07-16T08:23:05Z</time>
      </trkpt>
      <trkpt lat="45.6426" lon="6.58309">
        <ele>1706</ele>
        <time>2022-07-16T08:23:06Z</time>
      </trkpt>
      <trkpt lat="45.6426" lon="6.58308">
        <ele>1706</ele>
        <time>2022-07-16T08:23:07Z</time>
      </trkpt>
      <trkpt lat="45.64261" lon="6.58308">
        <ele>1707</ele>
        <time>2022-07-16T08:23:08Z</time>
      </trkpt>
      <trkpt lat="45.64261" lon="6.58307">
        <ele>1707</ele>
        <time>2022-07-16T08:23:09Z</time>
      </trkpt>
      <trkpt lat="45.64262" lon="6.58307">
        <ele>1707</ele>
        <time>2022-07-16T08:23:10Z</time>
      </trkpt>
      <trkpt lat="45.64263" lon="6.58306">
        <ele>1707</ele>
        <time>2022-07-16T08:23:11Z</time>
      </trkpt>
      <trkpt lat="45.64264" lon="6.58306">
        <ele>1707</ele>
        <time>2022-07-16T08:23:13Z</time>
      </trkpt>
      <trkpt lat="45.64264" lon="6.58305">
        <ele>1707</ele>
        <time>2022-07-16T08:23:14Z</time>
      </trkpt>
      <trkpt lat="45.64265" lon="6.58305">
        <ele>1708</ele>
        <time>2022-07-16T08:23:15Z</time>
      </trkpt>
      <trkpt lat="45.64265" lon="6.58304">
        <ele>1708</ele>
        <time>2022-07-16T08:23:16Z</time>
      </trkpt>
      <trkpt lat="45.64265" lon="6.58305">
        <ele>1708</ele>
        <time>2022-07-16T08:23:17Z</time>
      </trkpt>
      <trkpt lat="45.64264" lon="6.58305">
        <ele>1708</ele>
        <time>2022-07-16T08:23:18Z</time>
      </trkpt>
      <trkpt lat="45.64264" lon="6.58306">
        <ele>1708</ele>
        <time>2022-07-16T08:23:19Z</time>
      </trkpt>
      <trkpt lat="45.64264" lon="6.58307">
        <ele>1708</ele>
        <time>2022-07-16T08:23:20Z</time>
      </trkpt>
      <trkpt lat="45.64263" lon="6.58307">
        <ele>1708</ele>
        <time>2022-07-16T08:23:21Z</time>
      </trkpt>
      <trkpt lat="45.64263" lon="6.58308">
        <ele>1709</ele>
        <time>2022-07-16T08:23:22Z</time>
      </trkpt>
      <trkpt lat="45.64262" lon="6.58308">
        <ele>1709</ele>
        <time>2022-07-16T08:23:23Z</time>
      </trkpt>
      <trkpt lat="45.64262" lon="6.58309">
        <ele>1709</ele>
        <time>2022-07-16T08:23:24Z</time>
      </trkpt>
      <trkpt lat="45.64261" lon="6.58309">
        <ele>1709</ele>
        <time>2022-07-16T08:23:25Z</time>
      </trkpt>
      <trkpt lat="45.64261" lon="6.5831">
        <ele>1709</ele>
        <time>2022-07-16T08:23:26Z</time>
      </trkpt>
      <trkpt lat="45.64261" lon="6.58311">
        <ele>1709</ele>
        <time>2022-07-16T08:23:27Z</time>
      </trkpt>
      <trkpt lat="45.6426" lon="6.58311">
        <ele>1709</ele>
        <time>2022-07-16T08:23:28Z</time>
      </trkpt>
      <trkpt lat="45.6426" lon="6.58312">
        <ele>1709</ele>
        <time>2022-07-16T08:23:29Z</time>
      </trkpt>
      <trkpt lat="45.64259" lon="6.58312">
        <ele>1709</ele>
        <time>2022-07-16T08:23:30Z</time>
      </trkpt>
      <trkpt lat="45.64259" lon="6.58313">
        <ele>1709</ele>
        <time>2022-07-16T08:23:31Z</time>
      </trkpt>
      <trkpt lat="45.64258" lon="6.58313">
        <ele>1710</ele>
        <time>2022-07-16T08:23:32Z</time>
      </trkpt>
      <trkpt lat="45.64258" lon="6.58314">
        <ele>1710</ele>
        <time>2022-07-16T08:23:33Z</time>
      </trkpt>
      <trkpt lat="45.64257" lon="6.58315">
        <ele>1710</ele>
        <time>2022-07-16T08:23:34Z</time>
      </trkpt>
      <trkpt lat="45.64256" lon="6.58316">
        <ele>1710</ele>
        <time>2022-07-16T08:23:35Z</time>
      </trkpt>
      <trkpt lat="45.64255" lon="6.58317">
        <ele>1710</ele>
        <time>2022-07-16T08:23:36Z</time>
      </trkpt>
      <trkpt lat="45.64254" lon="6.58318">
        <ele>1710</ele>
        <time>2022-07-16T08:23:37Z</time>
      </trkpt>
      <trkpt lat="45.64253" lon="6.58319">
        <ele>1710</ele>
        <time>2022-07-16T08:23:38Z</time>
      </trkpt>
      <trkpt lat="45.64252" lon="6.5832">
        <ele>1711</ele>
        <time>2022-07-16T08:23:39Z</time>
      </trkpt>
      <trkpt lat="45.64251" lon="6.58321">
        <ele>1711</ele>
        <time>2022-07-16T08:23:41Z</time>
      </trkpt>
      <trkpt lat="45.6425" lon="6.58322">
        <ele>1711</ele>
        <time>2022-07-16T08:23:42Z</time>
      </trkpt>
      <trkpt lat="45.64249" lon="6.58323">
        <ele>1711</ele>
        <time>2022-07-16T08:23:44Z</time>
      </trkpt>
      <trkpt lat="45.64248" lon="6.58324">
        <ele>1711</ele>
        <time>2022-07-16T08:23:45Z</time>
      </trkpt>
      <trkpt lat="45.64247" lon="6.58325">
        <ele>1712</ele>
        <time>2022-07-16T08:23:46Z</time>
      </trkpt>
      <trkpt lat="45.64246" lon="6.58326">
        <ele>1712</ele>
        <time>2022-07-16T08:23:47Z</time>
      </trkpt>
      <trkpt lat="45.64245" lon="6.58327">
        <ele>1712</ele>
        <time>2022-07-16T08:23:48Z</time>
      </trkpt>
      <trkpt lat="45.64244" lon="6.58327">
        <ele>1712</ele>
        <time>2022-07-16T08:23:49Z</time>
      </trkpt>
      <trkpt lat="45.64243" lon="6.58328">
        <ele>1712</ele>
        <time>2022-07-16T08:23:50Z</time>
      </trkpt>
      <trkpt lat="45.64243" lon="6.5833">
        <ele>1713</ele>
        <time>2022-07-16T08:23:51Z</time>
      </trkpt>
      <trkpt lat="45.64242" lon="6.58331">
        <ele>1713</ele>
        <time>2022-07-16T08:23:52Z</time>
      </trkpt>
      <trkpt lat="45.64242" lon="6.58333">
        <ele>1713</ele>
        <time>2022-07-16T08:23:53Z</time>
      </trkpt>
      <trkpt lat="45.64242" lon="6.58335">
        <ele>1714</ele>
        <time>2022-07-16T08:23:54Z</time>
      </trkpt>
      <trkpt lat="45.64241" lon="6.58336">
        <ele>1714</ele>
        <time>2022-07-16T08:23:55Z</time>
      </trkpt>
      <trkpt lat="45.64241" lon="6.58338">
        <ele>1714</ele>
        <time>2022-07-16T08:23:56Z</time>
      </trkpt>
      <trkpt lat="45.6424" lon="6.58339">
        <ele>1714</ele>
        <time>2022-07-16T08:23:57Z</time>
      </trkpt>
      <trkpt lat="45.6424" lon="6.58341">
        <ele>1714</ele>
        <time>2022-07-16T08:23:58Z</time>
      </trkpt>
      <trkpt lat="45.6424" lon="6.58342">
        <ele>1714</ele>
        <time>2022-07-16T08:23:59Z</time>
      </trkpt>
      <trkpt lat="45.64239" lon="6.58343">
        <ele>1715</ele>
        <time>2022-07-16T08:24:00Z</time>
      </trkpt>
      <trkpt lat="45.64239" lon="6.58344">
        <ele>1715</ele>
        <time>2022-07-16T08:24:01Z</time>
      </trkpt>
      <trkpt lat="45.64238" lon="6.58345">
        <ele>1715</ele>
        <time>2022-07-16T08:24:02Z</time>
      </trkpt>
      <trkpt lat="45.64238" lon="6.58346">
        <ele>1715</ele>
        <time>2022-07-16T08:24:03Z</time>
      </trkpt>
      <trkpt lat="45.64237" lon="6.58347">
        <ele>1715</ele>
        <time>2022-07-16T08:24:04Z</time>
      </trkpt>
      <trkpt lat="45.64237" lon="6.58349">
        <ele>1714</ele>
        <time>2022-07-16T08:24:05Z</time>
      </trkpt>
      <trkpt lat="45.64237" lon="6.5835">
        <ele>1715</ele>
        <time>2022-07-16T08:24:06Z</time>
      </trkpt>
      <trkpt lat="45.64236" lon="6.58351">
        <ele>1716</ele>
        <time>2022-07-16T08:24:07Z</time>
      </trkpt>
      <trkpt lat="45.64236" lon="6.58352">
        <ele>1716</ele>
        <time>2022-07-16T08:24:08Z</time>
      </trkpt>
      <trkpt lat="45.64235" lon="6.58353">
        <ele>1716</ele>
        <time>2022-07-16T08:24:09Z</time>
      </trkpt>
      <trkpt lat="45.64234" lon="6.58354">
        <ele>1716</ele>
        <time>2022-07-16T08:24:10Z</time>
      </trkpt>
      <trkpt lat="45.64233" lon="6.58354">
        <ele>1716</ele>
        <time>2022-07-16T08:24:11Z</time>
      </trkpt>
      <trkpt lat="45.64232" lon="6.58355">
        <ele>1716</ele>
        <time>2022-07-16T08:24:12Z</time>
      </trkpt>
      <trkpt lat="45.64231" lon="6.58356">
        <ele>1716</ele>
        <time>2022-07-16T08:24:13Z</time>
      </trkpt>
      <trkpt lat="45.6423" lon="6.58357">
        <ele>1716</ele>
        <time>2022-07-16T08:24:14Z</time>
      </trkpt>
      <trkpt lat="45.64228" lon="6.58357">
        <ele>1716</ele>
        <time>2022-07-16T08:24:15Z</time>
      </trkpt>
      <trkpt lat="45.64227" lon="6.58358">
        <ele>1716</ele>
        <time>2022-07-16T08:24:16Z</time>
      </trkpt>
      <trkpt lat="45.64226" lon="6.58359">
        <ele>1716</ele>
        <time>2022-07-16T08:24:17Z</time>
      </trkpt>
      <trkpt lat="45.64225" lon="6.58359">
        <ele>1716</ele>
        <time>2022-07-16T08:24:18Z</time>
      </trkpt>
      <trkpt lat="45.64224" lon="6.58359">
        <ele>1716</ele>
        <time>2022-07-16T08:24:19Z</time>
      </trkpt>
      <trkpt lat="45.64223" lon="6.58359">
        <ele>1716</ele>
        <time>2022-07-16T08:24:20Z</time>
      </trkpt>
      <trkpt lat="45.64222" lon="6.58359">
        <ele>1717</ele>
        <time>2022-07-16T08:24:22Z</time>
      </trkpt>
      <trkpt lat="45.64221" lon="6.58359">
        <ele>1718</ele>
        <time>2022-07-16T08:24:23Z</time>
      </trkpt>
      <trkpt lat="45.64215" lon="6.5836">
        <ele>1718</ele>
        <time>2022-07-16T08:24:24Z</time>
      </trkpt>
      <trkpt lat="45.64213" lon="6.5836">
        <ele>1718</ele>
        <time>2022-07-16T08:24:25Z</time>
      </trkpt>
      <trkpt lat="45.64212" lon="6.58361">
        <ele>1718</ele>
        <time>2022-07-16T08:24:26Z</time>
      </trkpt>
      <trkpt lat="45.64211" lon="6.58361">
        <ele>1718</ele>
        <time>2022-07-16T08:24:27Z</time>
      </trkpt>
      <trkpt lat="45.64209" lon="6.58361">
        <ele>1718</ele>
        <time>2022-07-16T08:24:28Z</time>
      </trkpt>
      <trkpt lat="45.64208" lon="6.58362">
        <ele>1718</ele>
        <time>2022-07-16T08:24:29Z</time>
      </trkpt>
      <trkpt lat="45.64207" lon="6.58362">
        <ele>1718</ele>
        <time>2022-07-16T08:24:30Z</time>
      </trkpt>
      <trkpt lat="45.64206" lon="6.58363">
        <ele>1718</ele>
        <time>2022-07-16T08:24:31Z</time>
      </trkpt>
      <trkpt lat="45.64205" lon="6.58364">
        <ele>1719</ele>
        <time>2022-07-16T08:24:32Z</time>
      </trkpt>
      <trkpt lat="45.64204" lon="6.58365">
        <ele>1719</ele>
        <time>2022-07-16T08:24:33Z</time>
      </trkpt>
      <trkpt lat="45.64203" lon="6.58366">
        <ele>1719</ele>
        <time>2022-07-16T08:24:34Z</time>
      </trkpt>
      <trkpt lat="45.64202" lon="6.58367">
        <ele>1719</ele>
        <time>2022-07-16T08:24:35Z</time>
      </trkpt>
      <trkpt lat="45.64202" lon="6.58368">
        <ele>1719</ele>
        <time>2022-07-16T08:24:36Z</time>
      </trkpt>
      <trkpt lat="45.64201" lon="6.58369">
        <ele>1719</ele>
        <time>2022-07-16T08:24:37Z</time>
      </trkpt>
      <trkpt lat="45.642" lon="6.5837">
        <ele>1719</ele>
        <time>2022-07-16T08:24:38Z</time>
      </trkpt>
      <trkpt lat="45.64199" lon="6.58371">
        <ele>1719</ele>
        <time>2022-07-16T08:24:39Z</time>
      </trkpt>
      <trkpt lat="45.64198" lon="6.58372">
        <ele>1719</ele>
        <time>2022-07-16T08:24:40Z</time>
      </trkpt>
      <trkpt lat="45.64198" lon="6.58373">
        <ele>1719</ele>
        <time>2022-07-16T08:24:41Z</time>
      </trkpt>
      <trkpt lat="45.64197" lon="6.58374">
        <ele>1719</ele>
        <time>2022-07-16T08:24:42Z</time>
      </trkpt>
      <trkpt lat="45.64196" lon="6.58375">
        <ele>1719</ele>
        <time>2022-07-16T08:24:43Z</time>
      </trkpt>
      <trkpt lat="45.64195" lon="6.58375">
        <ele>1719</ele>
        <time>2022-07-16T08:24:44Z</time>
      </trkpt>
      <trkpt lat="45.64195" lon="6.58376">
        <ele>1720</ele>
        <time>2022-07-16T08:24:45Z</time>
      </trkpt>
      <trkpt lat="45.64194" lon="6.58377">
        <ele>1721</ele>
        <time>2022-07-16T08:24:46Z</time>
      </trkpt>
      <trkpt lat="45.64193" lon="6.58378">
        <ele>1721</ele>
        <time>2022-07-16T08:24:47Z</time>
      </trkpt>
      <trkpt lat="45.64192" lon="6.58379">
        <ele>1721</ele>
        <time>2022-07-16T08:24:49Z</time>
      </trkpt>
      <trkpt lat="45.64191" lon="6.5838">
        <ele>1721</ele>
        <time>2022-07-16T08:24:50Z</time>
      </trkpt>
      <trkpt lat="45.64191" lon="6.58381">
        <ele>1721</ele>
        <time>2022-07-16T08:24:51Z</time>
      </trkpt>
      <trkpt lat="45.6419" lon="6.58383">
        <ele>1720</ele>
        <time>2022-07-16T08:24:52Z</time>
      </trkpt>
      <trkpt lat="45.6419" lon="6.58384">
        <ele>1720</ele>
        <time>2022-07-16T08:24:53Z</time>
      </trkpt>
      <trkpt lat="45.64189" lon="6.58386">
        <ele>1720</ele>
        <time>2022-07-16T08:24:54Z</time>
      </trkpt>
      <trkpt lat="45.64188" lon="6.58387">
        <ele>1720</ele>
        <time>2022-07-16T08:24:55Z</time>
      </trkpt>
      <trkpt lat="45.64188" lon="6.58389">
        <ele>1720</ele>
        <time>2022-07-16T08:24:56Z</time>
      </trkpt>
      <trkpt lat="45.64187" lon="6.5839">
        <ele>1720</ele>
        <time>2022-07-16T08:24:57Z</time>
      </trkpt>
      <trkpt lat="45.64187" lon="6.58392">
        <ele>1720</ele>
        <time>2022-07-16T08:24:58Z</time>
      </trkpt>
      <trkpt lat="45.64187" lon="6.58395">
        <ele>1720</ele>
        <time>2022-07-16T08:24:59Z</time>
      </trkpt>
      <trkpt lat="45.64187" lon="6.58398">
        <ele>1720</ele>
        <time>2022-07-16T08:25:00Z</time>
      </trkpt>
      <trkpt lat="45.64186" lon="6.58401">
        <ele>1720</ele>
        <time>2022-07-16T08:25:01Z</time>
      </trkpt>
      <trkpt lat="45.64186" lon="6.58404">
        <ele>1720</ele>
        <time>2022-07-16T08:25:02Z</time>
      </trkpt>
      <trkpt lat="45.64186" lon="6.58407">
        <ele>1720</ele>
        <time>2022-07-16T08:25:03Z</time>
      </trkpt>
      <trkpt lat="45.64186" lon="6.58409">
        <ele>1720</ele>
        <time>2022-07-16T08:25:04Z</time>
      </trkpt>
      <trkpt lat="45.64185" lon="6.58411">
        <ele>1720</ele>
        <time>2022-07-16T08:25:05Z</time>
      </trkpt>
      <trkpt lat="45.64185" lon="6.58413">
        <ele>1720</ele>
        <time>2022-07-16T08:25:06Z</time>
      </trkpt>
      <trkpt lat="45.64185" lon="6.58415">
        <ele>1720</ele>
        <time>2022-07-16T08:25:07Z</time>
      </trkpt>
      <trkpt lat="45.64184" lon="6.58418">
        <ele>1720</ele>
        <time>2022-07-16T08:25:08Z</time>
      </trkpt>
      <trkpt lat="45.64184" lon="6.5842">
        <ele>1720</ele>
        <time>2022-07-16T08:25:09Z</time>
      </trkpt>
      <trkpt lat="45.64183" lon="6.58421">
        <ele>1720</ele>
        <time>2022-07-16T08:25:10Z</time>
      </trkpt>
      <trkpt lat="45.64183" lon="6.58422">
        <ele>1720</ele>
        <time>2022-07-16T08:25:11Z</time>
      </trkpt>
      <trkpt lat="45.64182" lon="6.58424">
        <ele>1720</ele>
        <time>2022-07-16T08:25:12Z</time>
      </trkpt>
      <trkpt lat="45.64181" lon="6.58425">
        <ele>1721</ele>
        <time>2022-07-16T08:25:13Z</time>
      </trkpt>
      <trkpt lat="45.6418" lon="6.58426">
        <ele>1721</ele>
        <time>2022-07-16T08:25:14Z</time>
      </trkpt>
      <trkpt lat="45.64179" lon="6.58428">
        <ele>1721</ele>
        <time>2022-07-16T08:25:15Z</time>
      </trkpt>
      <trkpt lat="45.64179" lon="6.58429">
        <ele>1721</ele>
        <time>2022-07-16T08:25:16Z</time>
      </trkpt>
      <trkpt lat="45.64178" lon="6.5843">
        <ele>1721</ele>
        <time>2022-07-16T08:25:17Z</time>
      </trkpt>
      <trkpt lat="45.64176" lon="6.58431">
        <ele>1721</ele>
        <time>2022-07-16T08:25:18Z</time>
      </trkpt>
      <trkpt lat="45.64175" lon="6.58433">
        <ele>1721</ele>
        <time>2022-07-16T08:25:19Z</time>
      </trkpt>
      <trkpt lat="45.64174" lon="6.58434">
        <ele>1721</ele>
        <time>2022-07-16T08:25:20Z</time>
      </trkpt>
      <trkpt lat="45.64172" lon="6.58435">
        <ele>1722</ele>
        <time>2022-07-16T08:25:21Z</time>
      </trkpt>
      <trkpt lat="45.64171" lon="6.58436">
        <ele>1722</ele>
        <time>2022-07-16T08:25:22Z</time>
      </trkpt>
      <trkpt lat="45.6417" lon="6.58437">
        <ele>1722</ele>
        <time>2022-07-16T08:25:23Z</time>
      </trkpt>
      <trkpt lat="45.64168" lon="6.58437">
        <ele>1722</ele>
        <time>2022-07-16T08:25:24Z</time>
      </trkpt>
      <trkpt lat="45.64166" lon="6.58438">
        <ele>1722</ele>
        <time>2022-07-16T08:25:25Z</time>
      </trkpt>
      <trkpt lat="45.64164" lon="6.58438">
        <ele>1722</ele>
        <time>2022-07-16T08:25:26Z</time>
      </trkpt>
      <trkpt lat="45.64162" lon="6.58438">
        <ele>1722</ele>
        <time>2022-07-16T08:25:27Z</time>
      </trkpt>
      <trkpt lat="45.6416" lon="6.58438">
        <ele>1722</ele>
        <time>2022-07-16T08:25:28Z</time>
      </trkpt>
      <trkpt lat="45.64159" lon="6.58438">
        <ele>1722</ele>
        <time>2022-07-16T08:25:29Z</time>
      </trkpt>
      <trkpt lat="45.64158" lon="6.58438">
        <ele>1722</ele>
        <time>2022-07-16T08:25:30Z</time>
      </trkpt>
      <trkpt lat="45.64157" lon="6.58438">
        <ele>1722</ele>
        <time>2022-07-16T08:25:31Z</time>
      </trkpt>
      <trkpt lat="45.64155" lon="6.58439">
        <ele>1722</ele>
        <time>2022-07-16T08:25:32Z</time>
      </trkpt>
      <trkpt lat="45.64154" lon="6.58439">
        <ele>1722</ele>
        <time>2022-07-16T08:25:33Z</time>
      </trkpt>
      <trkpt lat="45.64153" lon="6.58439">
        <ele>1722</ele>
        <time>2022-07-16T08:25:34Z</time>
      </trkpt>
      <trkpt lat="45.64152" lon="6.5844">
        <ele>1722</ele>
        <time>2022-07-16T08:25:35Z</time>
      </trkpt>
      <trkpt lat="45.64151" lon="6.5844">
        <ele>1722</ele>
        <time>2022-07-16T08:25:36Z</time>
      </trkpt>
      <trkpt lat="45.64149" lon="6.58441">
        <ele>1723</ele>
        <time>2022-07-16T08:25:38Z</time>
      </trkpt>
      <trkpt lat="45.64146" lon="6.58442">
        <ele>1723</ele>
        <time>2022-07-16T08:25:39Z</time>
      </trkpt>
      <trkpt lat="45.64144" lon="6.58444">
        <ele>1724</ele>
        <time>2022-07-16T08:25:40Z</time>
      </trkpt>
      <trkpt lat="45.64142" lon="6.58445">
        <ele>1724</ele>
        <time>2022-07-16T08:25:41Z</time>
      </trkpt>
      <trkpt lat="45.6414" lon="6.58446">
        <ele>1724</ele>
        <time>2022-07-16T08:25:42Z</time>
      </trkpt>
      <trkpt lat="45.64138" lon="6.58447">
        <ele>1724</ele>
        <time>2022-07-16T08:25:43Z</time>
      </trkpt>
      <trkpt lat="45.64136" lon="6.58447">
        <ele>1723</ele>
        <time>2022-07-16T08:25:45Z</time>
      </trkpt>
      <trkpt lat="45.64134" lon="6.58447">
        <ele>1723</ele>
        <time>2022-07-16T08:25:46Z</time>
      </trkpt>
      <trkpt lat="45.64132" lon="6.58447">
        <ele>1723</ele>
        <time>2022-07-16T08:25:47Z</time>
      </trkpt>
      <trkpt lat="45.6413" lon="6.58447">
        <ele>1723</ele>
        <time>2022-07-16T08:25:48Z</time>
      </trkpt>
      <trkpt lat="45.64127" lon="6.58447">
        <ele>1723</ele>
        <time>2022-07-16T08:25:50Z</time>
      </trkpt>
      <trkpt lat="45.64124" lon="6.5845">
        <ele>1723</ele>
        <time>2022-07-16T08:25:52Z</time>
      </trkpt>
      <trkpt lat="45.64122" lon="6.58452">
        <ele>1723</ele>
        <time>2022-07-16T08:25:53Z</time>
      </trkpt>
      <trkpt lat="45.6412" lon="6.58453">
        <ele>1723</ele>
        <time>2022-07-16T08:25:54Z</time>
      </trkpt>
      <trkpt lat="45.64118" lon="6.58455">
        <ele>1723</ele>
        <time>2022-07-16T08:25:55Z</time>
      </trkpt>
      <trkpt lat="45.64114" lon="6.58457">
        <ele>1723</ele>
        <time>2022-07-16T08:25:56Z</time>
      </trkpt>
      <trkpt lat="45.64113" lon="6.58458">
        <ele>1723</ele>
        <time>2022-07-16T08:25:57Z</time>
      </trkpt>
      <trkpt lat="45.64112" lon="6.5846">
        <ele>1722</ele>
        <time>2022-07-16T08:25:58Z</time>
      </trkpt>
      <trkpt lat="45.6411" lon="6.58462">
        <ele>1722</ele>
        <time>2022-07-16T08:25:59Z</time>
      </trkpt>
      <trkpt lat="45.64109" lon="6.58465">
        <ele>1721</ele>
        <time>2022-07-16T08:26:00Z</time>
      </trkpt>
      <trkpt lat="45.64108" lon="6.58467">
        <ele>1721</ele>
        <time>2022-07-16T08:26:01Z</time>
      </trkpt>
      <trkpt lat="45.64107" lon="6.5847">
        <ele>1721</ele>
        <time>2022-07-16T08:26:02Z</time>
      </trkpt>
      <trkpt lat="45.64105" lon="6.58473">
        <ele>1721</ele>
        <time>2022-07-16T08:26:03Z</time>
      </trkpt>
      <trkpt lat="45.64104" lon="6.58475">
        <ele>1721</ele>
        <time>2022-07-16T08:26:04Z</time>
      </trkpt>
      <trkpt lat="45.64102" lon="6.58478">
        <ele>1720</ele>
        <time>2022-07-16T08:26:05Z</time>
      </trkpt>
      <trkpt lat="45.64101" lon="6.58481">
        <ele>1720</ele>
        <time>2022-07-16T08:26:06Z</time>
      </trkpt>
      <trkpt lat="45.64099" lon="6.58483">
        <ele>1720</ele>
        <time>2022-07-16T08:26:07Z</time>
      </trkpt>
      <trkpt lat="45.64098" lon="6.58486">
        <ele>1720</ele>
        <time>2022-07-16T08:26:08Z</time>
      </trkpt>
      <trkpt lat="45.64097" lon="6.58488">
        <ele>1720</ele>
        <time>2022-07-16T08:26:09Z</time>
      </trkpt>
      <trkpt lat="45.64095" lon="6.5849">
        <ele>1720</ele>
        <time>2022-07-16T08:26:10Z</time>
      </trkpt>
      <trkpt lat="45.64092" lon="6.58493">
        <ele>1719</ele>
        <time>2022-07-16T08:26:12Z</time>
      </trkpt>
      <trkpt lat="45.6409" lon="6.58494">
        <ele>1719</ele>
        <time>2022-07-16T08:26:13Z</time>
      </trkpt>
      <trkpt lat="45.64088" lon="6.58495">
        <ele>1719</ele>
        <time>2022-07-16T08:26:14Z</time>
      </trkpt>
      <trkpt lat="45.64085" lon="6.58496">
        <ele>1719</ele>
        <time>2022-07-16T08:26:16Z</time>
      </trkpt>
      <trkpt lat="45.64084" lon="6.58498">
        <ele>1720</ele>
        <time>2022-07-16T08:26:18Z</time>
      </trkpt>
      <trkpt lat="45.64081" lon="6.585">
        <ele>1721</ele>
        <time>2022-07-16T08:26:20Z</time>
      </trkpt>
      <trkpt lat="45.64078" lon="6.58501">
        <ele>1721</ele>
        <time>2022-07-16T08:26:22Z</time>
      </trkpt>
      <trkpt lat="45.64076" lon="6.58503">
        <ele>1721</ele>
        <time>2022-07-16T08:26:24Z</time>
      </trkpt>
      <trkpt lat="45.64075" lon="6.58505">
        <ele>1721</ele>
        <time>2022-07-16T08:26:26Z</time>
      </trkpt>
      <trkpt lat="45.64072" lon="6.58508">
        <ele>1722</ele>
        <time>2022-07-16T08:26:29Z</time>
      </trkpt>
      <trkpt lat="45.6407" lon="6.58511">
        <ele>1722</ele>
        <time>2022-07-16T08:26:31Z</time>
      </trkpt>
      <trkpt lat="45.64068" lon="6.58513">
        <ele>1722</ele>
        <time>2022-07-16T08:26:33Z</time>
      </trkpt>
      <trkpt lat="45.64066" lon="6.58515">
        <ele>1722</ele>
        <time>2022-07-16T08:26:35Z</time>
      </trkpt>
      <trkpt lat="45.64065" lon="6.58518">
        <ele>1722</ele>
        <time>2022-07-16T08:26:37Z</time>
      </trkpt>
      <trkpt lat="45.64064" lon="6.58521">
        <ele>1723</ele>
        <time>2022-07-16T08:26:39Z</time>
      </trkpt>
      <trkpt lat="45.64063" lon="6.58523">
        <ele>1723</ele>
        <time>2022-07-16T08:26:41Z</time>
      </trkpt>
      <trkpt lat="45.64062" lon="6.58526">
        <ele>1723</ele>
        <time>2022-07-16T08:26:43Z</time>
      </trkpt>
      <trkpt lat="45.64061" lon="6.5853">
        <ele>1723</ele>
        <time>2022-07-16T08:26:45Z</time>
      </trkpt>
      <trkpt lat="45.6406" lon="6.58533">
        <ele>1724</ele>
        <time>2022-07-16T08:26:47Z</time>
      </trkpt>
      <trkpt lat="45.64058" lon="6.58536">
        <ele>1724</ele>
        <time>2022-07-16T08:26:49Z</time>
      </trkpt>
      <trkpt lat="45.64056" lon="6.58539">
        <ele>1724</ele>
        <time>2022-07-16T08:26:51Z</time>
      </trkpt>
      <trkpt lat="45.64054" lon="6.58542">
        <ele>1725</ele>
        <time>2022-07-16T08:26:53Z</time>
      </trkpt>
      <trkpt lat="45.64052" lon="6.58545">
        <ele>1725</ele>
        <time>2022-07-16T08:26:55Z</time>
      </trkpt>
      <trkpt lat="45.64051" lon="6.58549">
        <ele>1725</ele>
        <time>2022-07-16T08:26:59Z</time>
      </trkpt>
      <trkpt lat="45.64049" lon="6.58552">
        <ele>1725</ele>
        <time>2022-07-16T08:27:01Z</time>
      </trkpt>
      <trkpt lat="45.64047" lon="6.58555">
        <ele>1724</ele>
        <time>2022-07-16T08:27:03Z</time>
      </trkpt>
      <trkpt lat="45.64045" lon="6.58558">
        <ele>1725</ele>
        <time>2022-07-16T08:27:05Z</time>
      </trkpt>
      <trkpt lat="45.64042" lon="6.58561">
        <ele>1725</ele>
        <time>2022-07-16T08:27:07Z</time>
      </trkpt>
      <trkpt lat="45.64041" lon="6.58563">
        <ele>1725</ele>
        <time>2022-07-16T08:27:09Z</time>
      </trkpt>
      <trkpt lat="45.64039" lon="6.58566">
        <ele>1725</ele>
        <time>2022-07-16T08:27:11Z</time>
      </trkpt>
      <trkpt lat="45.64037" lon="6.58566">
        <ele>1725</ele>
        <time>2022-07-16T08:27:13Z</time>
      </trkpt>
      <trkpt lat="45.64034" lon="6.58566">
        <ele>1726</ele>
        <time>2022-07-16T08:27:15Z</time>
      </trkpt>
      <trkpt lat="45.64032" lon="6.58566">
        <ele>1726</ele>
        <time>2022-07-16T08:27:17Z</time>
      </trkpt>
      <trkpt lat="45.6403" lon="6.58566">
        <ele>1727</ele>
        <time>2022-07-16T08:27:19Z</time>
      </trkpt>
      <trkpt lat="45.64028" lon="6.58565">
        <ele>1727</ele>
        <time>2022-07-16T08:27:21Z</time>
      </trkpt>
      <trkpt lat="45.64026" lon="6.58565">
        <ele>1727</ele>
        <time>2022-07-16T08:27:23Z</time>
      </trkpt>
      <trkpt lat="45.64023" lon="6.58565">
        <ele>1728</ele>
        <time>2022-07-16T08:27:25Z</time>
      </trkpt>
      <trkpt lat="45.64021" lon="6.58564">
        <ele>1728</ele>
        <time>2022-07-16T08:27:27Z</time>
      </trkpt>
      <trkpt lat="45.64019" lon="6.58563">
        <ele>1728</ele>
        <time>2022-07-16T08:27:29Z</time>
      </trkpt>
      <trkpt lat="45.64017" lon="6.58563">
        <ele>1728</ele>
        <time>2022-07-16T08:27:32Z</time>
      </trkpt>
      <trkpt lat="45.64014" lon="6.58563">
        <ele>1729</ele>
        <time>2022-07-16T08:27:33Z</time>
      </trkpt>
      <trkpt lat="45.64012" lon="6.58563">
        <ele>1729</ele>
        <time>2022-07-16T08:27:35Z</time>
      </trkpt>
      <trkpt lat="45.6401" lon="6.58563">
        <ele>1729</ele>
        <time>2022-07-16T08:27:37Z</time>
      </trkpt>
      <trkpt lat="45.64008" lon="6.58563">
        <ele>1729</ele>
        <time>2022-07-16T08:27:39Z</time>
      </trkpt>
      <trkpt lat="45.64006" lon="6.58564">
        <ele>1729</ele>
        <time>2022-07-16T08:27:41Z</time>
      </trkpt>
      <trkpt lat="45.64004" lon="6.58566">
        <ele>1730</ele>
        <time>2022-07-16T08:27:43Z</time>
      </trkpt>
      <trkpt lat="45.64002" lon="6.58567">
        <ele>1730</ele>
        <time>2022-07-16T08:27:45Z</time>
      </trkpt>
      <trkpt lat="45.64" lon="6.58568">
        <ele>1730</ele>
        <time>2022-07-16T08:27:47Z</time>
      </trkpt>
      <trkpt lat="45.63998" lon="6.5857">
        <ele>1730</ele>
        <time>2022-07-16T08:27:49Z</time>
      </trkpt>
      <trkpt lat="45.63996" lon="6.58572">
        <ele>1731</ele>
        <time>2022-07-16T08:27:51Z</time>
      </trkpt>
      <trkpt lat="45.63994" lon="6.58574">
        <ele>1731</ele>
        <time>2022-07-16T08:27:53Z</time>
      </trkpt>
      <trkpt lat="45.63992" lon="6.58576">
        <ele>1731</ele>
        <time>2022-07-16T08:27:55Z</time>
      </trkpt>
      <trkpt lat="45.6399" lon="6.58577">
        <ele>1732</ele>
        <time>2022-07-16T08:27:57Z</time>
      </trkpt>
      <trkpt lat="45.63988" lon="6.58579">
        <ele>1732</ele>
        <time>2022-07-16T08:27:59Z</time>
      </trkpt>
      <trkpt lat="45.63986" lon="6.5858">
        <ele>1732</ele>
        <time>2022-07-16T08:28:01Z</time>
      </trkpt>
      <trkpt lat="45.63984" lon="6.58583">
        <ele>1732</ele>
        <time>2022-07-16T08:28:03Z</time>
      </trkpt>
      <trkpt lat="45.63981" lon="6.58584">
        <ele>1731</ele>
        <time>2022-07-16T08:28:05Z</time>
      </trkpt>
      <trkpt lat="45.63978" lon="6.58586">
        <ele>1731</ele>
        <time>2022-07-16T08:28:07Z</time>
      </trkpt>
      <trkpt lat="45.63975" lon="6.58588">
        <ele>1731</ele>
        <time>2022-07-16T08:28:09Z</time>
      </trkpt>
      <trkpt lat="45.63972" lon="6.58589">
        <ele>1731</ele>
        <time>2022-07-16T08:28:11Z</time>
      </trkpt>
      <trkpt lat="45.63969" lon="6.58591">
        <ele>1731</ele>
        <time>2022-07-16T08:28:13Z</time>
      </trkpt>
      <trkpt lat="45.63967" lon="6.58593">
        <ele>1732</ele>
        <time>2022-07-16T08:28:15Z</time>
      </trkpt>
      <trkpt lat="45.63964" lon="6.58594">
        <ele>1732</ele>
        <time>2022-07-16T08:28:17Z</time>
      </trkpt>
      <trkpt lat="45.63962" lon="6.58595">
        <ele>1732</ele>
        <time>2022-07-16T08:28:19Z</time>
      </trkpt>
      <trkpt lat="45.63959" lon="6.58597">
        <ele>1733</ele>
        <time>2022-07-16T08:28:22Z</time>
      </trkpt>
      <trkpt lat="45.63957" lon="6.58598">
        <ele>1733</ele>
        <time>2022-07-16T08:28:24Z</time>
      </trkpt>
      <trkpt lat="45.63955" lon="6.586">
        <ele>1733</ele>
        <time>2022-07-16T08:28:26Z</time>
      </trkpt>
      <trkpt lat="45.63952" lon="6.58602">
        <ele>1733</ele>
        <time>2022-07-16T08:28:28Z</time>
      </trkpt>
      <trkpt lat="45.6395" lon="6.58603">
        <ele>1733</ele>
        <time>2022-07-16T08:28:30Z</time>
      </trkpt>
      <trkpt lat="45.63948" lon="6.58604">
        <ele>1733</ele>
        <time>2022-07-16T08:28:32Z</time>
      </trkpt>
      <trkpt lat="45.63946" lon="6.58605">
        <ele>1733</ele>
        <time>2022-07-16T08:28:34Z</time>
      </trkpt>
      <trkpt lat="45.63944" lon="6.58607">
        <ele>1734</ele>
        <time>2022-07-16T08:28:36Z</time>
      </trkpt>
      <trkpt lat="45.63942" lon="6.58609">
        <ele>1735</ele>
        <time>2022-07-16T08:28:38Z</time>
      </trkpt>
      <trkpt lat="45.63939" lon="6.5861">
        <ele>1736</ele>
        <time>2022-07-16T08:28:41Z</time>
      </trkpt>
      <trkpt lat="45.63937" lon="6.58611">
        <ele>1736</ele>
        <time>2022-07-16T08:28:43Z</time>
      </trkpt>
      <trkpt lat="45.63935" lon="6.58613">
        <ele>1737</ele>
        <time>2022-07-16T08:28:45Z</time>
      </trkpt>
      <trkpt lat="45.63934" lon="6.58615">
        <ele>1737</ele>
        <time>2022-07-16T08:28:48Z</time>
      </trkpt>
      <trkpt lat="45.63932" lon="6.58617">
        <ele>1737</ele>
        <time>2022-07-16T08:28:50Z</time>
      </trkpt>
      <trkpt lat="45.63931" lon="6.58618">
        <ele>1738</ele>
        <time>2022-07-16T08:28:52Z</time>
      </trkpt>
      <trkpt lat="45.63929" lon="6.58619">
        <ele>1738</ele>
        <time>2022-07-16T08:28:54Z</time>
      </trkpt>
      <trkpt lat="45.63927" lon="6.58621">
        <ele>1738</ele>
        <time>2022-07-16T08:28:56Z</time>
      </trkpt>
      <trkpt lat="45.63926" lon="6.58623">
        <ele>1738</ele>
        <time>2022-07-16T08:28:58Z</time>
      </trkpt>
      <trkpt lat="45.63924" lon="6.58625">
        <ele>1739</ele>
        <time>2022-07-16T08:29:00Z</time>
      </trkpt>
      <trkpt lat="45.63922" lon="6.58627">
        <ele>1740</ele>
        <time>2022-07-16T08:29:03Z</time>
      </trkpt>
      <trkpt lat="45.6392" lon="6.58628">
        <ele>1741</ele>
        <time>2022-07-16T08:29:06Z</time>
      </trkpt>
      <trkpt lat="45.63918" lon="6.58629">
        <ele>1741</ele>
        <time>2022-07-16T08:29:08Z</time>
      </trkpt>
      <trkpt lat="45.63916" lon="6.5863">
        <ele>1741</ele>
        <time>2022-07-16T08:29:10Z</time>
      </trkpt>
      <trkpt lat="45.63914" lon="6.58631">
        <ele>1741</ele>
        <time>2022-07-16T08:29:12Z</time>
      </trkpt>
      <trkpt lat="45.63912" lon="6.58632">
        <ele>1741</ele>
        <time>2022-07-16T08:29:14Z</time>
      </trkpt>
      <trkpt lat="45.63911" lon="6.58634">
        <ele>1742</ele>
        <time>2022-07-16T08:29:16Z</time>
      </trkpt>
      <trkpt lat="45.63909" lon="6.58636">
        <ele>1742</ele>
        <time>2022-07-16T08:29:19Z</time>
      </trkpt>
      <trkpt lat="45.63907" lon="6.58638">
        <ele>1742</ele>
        <time>2022-07-16T08:29:21Z</time>
      </trkpt>
      <trkpt lat="45.63905" lon="6.5864">
        <ele>1743</ele>
        <time>2022-07-16T08:29:24Z</time>
      </trkpt>
      <trkpt lat="45.63903" lon="6.5864">
        <ele>1744</ele>
        <time>2022-07-16T08:29:26Z</time>
      </trkpt>
      <trkpt lat="45.639" lon="6.58641">
        <ele>1744</ele>
        <time>2022-07-16T08:29:28Z</time>
      </trkpt>
      <trkpt lat="45.63898" lon="6.58641">
        <ele>1745</ele>
        <time>2022-07-16T08:29:30Z</time>
      </trkpt>
      <trkpt lat="45.63896" lon="6.58641">
        <ele>1745</ele>
        <time>2022-07-16T08:29:32Z</time>
      </trkpt>
      <trkpt lat="45.63893" lon="6.58642">
        <ele>1745</ele>
        <time>2022-07-16T08:29:34Z</time>
      </trkpt>
      <trkpt lat="45.63891" lon="6.58643">
        <ele>1745</ele>
        <time>2022-07-16T08:29:36Z</time>
      </trkpt>
      <trkpt lat="45.63889" lon="6.58644">
        <ele>1745</ele>
        <time>2022-07-16T08:29:38Z</time>
      </trkpt>
      <trkpt lat="45.63886" lon="6.58645">
        <ele>1745</ele>
        <time>2022-07-16T08:29:40Z</time>
      </trkpt>
      <trkpt lat="45.63884" lon="6.58646">
        <ele>1746</ele>
        <time>2022-07-16T08:29:42Z</time>
      </trkpt>
      <trkpt lat="45.63882" lon="6.58647">
        <ele>1747</ele>
        <time>2022-07-16T08:29:44Z</time>
      </trkpt>
      <trkpt lat="45.6388" lon="6.58648">
        <ele>1747</ele>
        <time>2022-07-16T08:29:46Z</time>
      </trkpt>
      <trkpt lat="45.63878" lon="6.58649">
        <ele>1747</ele>
        <time>2022-07-16T08:29:48Z</time>
      </trkpt>
      <trkpt lat="45.63875" lon="6.5865">
        <ele>1747</ele>
        <time>2022-07-16T08:29:50Z</time>
      </trkpt>
      <trkpt lat="45.63873" lon="6.58651">
        <ele>1747</ele>
        <time>2022-07-16T08:29:52Z</time>
      </trkpt>
      <trkpt lat="45.6387" lon="6.58653">
        <ele>1747</ele>
        <time>2022-07-16T08:29:54Z</time>
      </trkpt>
      <trkpt lat="45.63868" lon="6.58653">
        <ele>1747</ele>
        <time>2022-07-16T08:29:56Z</time>
      </trkpt>
      <trkpt lat="45.63865" lon="6.58653">
        <ele>1747</ele>
        <time>2022-07-16T08:29:58Z</time>
      </trkpt>
      <trkpt lat="45.63863" lon="6.58653">
        <ele>1748</ele>
        <time>2022-07-16T08:30:00Z</time>
      </trkpt>
      <trkpt lat="45.6386" lon="6.58654">
        <ele>1748</ele>
        <time>2022-07-16T08:30:02Z</time>
      </trkpt>
      <trkpt lat="45.63858" lon="6.58655">
        <ele>1748</ele>
        <time>2022-07-16T08:30:04Z</time>
      </trkpt>
      <trkpt lat="45.63855" lon="6.58655">
        <ele>1748</ele>
        <time>2022-07-16T08:30:06Z</time>
      </trkpt>
      <trkpt lat="45.63852" lon="6.58657">
        <ele>1748</ele>
        <time>2022-07-16T08:30:08Z</time>
      </trkpt>
      <trkpt lat="45.6385" lon="6.58658">
        <ele>1748</ele>
        <time>2022-07-16T08:30:10Z</time>
      </trkpt>
      <trkpt lat="45.63848" lon="6.5866">
        <ele>1748</ele>
        <time>2022-07-16T08:30:12Z</time>
      </trkpt>
      <trkpt lat="45.63845" lon="6.58661">
        <ele>1749</ele>
        <time>2022-07-16T08:30:14Z</time>
      </trkpt>
      <trkpt lat="45.63843" lon="6.58662">
        <ele>1749</ele>
        <time>2022-07-16T08:30:16Z</time>
      </trkpt>
      <trkpt lat="45.63841" lon="6.58663">
        <ele>1749</ele>
        <time>2022-07-16T08:30:18Z</time>
      </trkpt>
      <trkpt lat="45.63838" lon="6.58665">
        <ele>1750</ele>
        <time>2022-07-16T08:30:20Z</time>
      </trkpt>
      <trkpt lat="45.63836" lon="6.58666">
        <ele>1749</ele>
        <time>2022-07-16T08:30:23Z</time>
      </trkpt>
      <trkpt lat="45.63834" lon="6.58666">
        <ele>1750</ele>
        <time>2022-07-16T08:30:24Z</time>
      </trkpt>
      <trkpt lat="45.63832" lon="6.58666">
        <ele>1750</ele>
        <time>2022-07-16T08:30:26Z</time>
      </trkpt>
      <trkpt lat="45.6383" lon="6.58667">
        <ele>1750</ele>
        <time>2022-07-16T08:30:28Z</time>
      </trkpt>
      <trkpt lat="45.63827" lon="6.58669">
        <ele>1750</ele>
        <time>2022-07-16T08:30:30Z</time>
      </trkpt>
      <trkpt lat="45.63826" lon="6.5867">
        <ele>1751</ele>
        <time>2022-07-16T08:30:32Z</time>
      </trkpt>
      <trkpt lat="45.63824" lon="6.58672">
        <ele>1751</ele>
        <time>2022-07-16T08:30:34Z</time>
      </trkpt>
      <trkpt lat="45.63822" lon="6.58674">
        <ele>1752</ele>
        <time>2022-07-16T08:30:36Z</time>
      </trkpt>
      <trkpt lat="45.6382" lon="6.58676">
        <ele>1752</ele>
        <time>2022-07-16T08:30:38Z</time>
      </trkpt>
      <trkpt lat="45.63819" lon="6.58677">
        <ele>1752</ele>
        <time>2022-07-16T08:30:40Z</time>
      </trkpt>
      <trkpt lat="45.63817" lon="6.5868">
        <ele>1752</ele>
        <time>2022-07-16T08:30:42Z</time>
      </trkpt>
      <trkpt lat="45.63816" lon="6.58681">
        <ele>1754</ele>
        <time>2022-07-16T08:30:44Z</time>
      </trkpt>
      <trkpt lat="45.63814" lon="6.58683">
        <ele>1754</ele>
        <time>2022-07-16T08:30:46Z</time>
      </trkpt>
      <trkpt lat="45.63812" lon="6.58685">
        <ele>1754</ele>
        <time>2022-07-16T08:30:48Z</time>
      </trkpt>
      <trkpt lat="45.6381" lon="6.58687">
        <ele>1754</ele>
        <time>2022-07-16T08:30:51Z</time>
      </trkpt>
      <trkpt lat="45.63809" lon="6.58688">
        <ele>1755</ele>
        <time>2022-07-16T08:30:53Z</time>
      </trkpt>
      <trkpt lat="45.63807" lon="6.5869">
        <ele>1755</ele>
        <time>2022-07-16T08:30:55Z</time>
      </trkpt>
      <trkpt lat="45.63805" lon="6.58691">
        <ele>1756</ele>
        <time>2022-07-16T08:30:58Z</time>
      </trkpt>
      <trkpt lat="45.63804" lon="6.58693">
        <ele>1757</ele>
        <time>2022-07-16T08:31:01Z</time>
      </trkpt>
      <trkpt lat="45.63802" lon="6.58695">
        <ele>1758</ele>
        <time>2022-07-16T08:31:04Z</time>
      </trkpt>
      <trkpt lat="45.63801" lon="6.58698">
        <ele>1759</ele>
        <time>2022-07-16T08:31:07Z</time>
      </trkpt>
      <trkpt lat="45.63799" lon="6.58701">
        <ele>1759</ele>
        <time>2022-07-16T08:31:10Z</time>
      </trkpt>
      <trkpt lat="45.63798" lon="6.58703">
        <ele>1760</ele>
        <time>2022-07-16T08:31:13Z</time>
      </trkpt>
      <trkpt lat="45.63797" lon="6.58706">
        <ele>1760</ele>
        <time>2022-07-16T08:31:16Z</time>
      </trkpt>
      <trkpt lat="45.63795" lon="6.58709">
        <ele>1761</ele>
        <time>2022-07-16T08:31:19Z</time>
      </trkpt>
      <trkpt lat="45.63794" lon="6.58712">
        <ele>1761</ele>
        <time>2022-07-16T08:31:22Z</time>
      </trkpt>
      <trkpt lat="45.63792" lon="6.58715">
        <ele>1762</ele>
        <time>2022-07-16T08:31:24Z</time>
      </trkpt>
      <trkpt lat="45.63791" lon="6.58717">
        <ele>1762</ele>
        <time>2022-07-16T08:31:26Z</time>
      </trkpt>
      <trkpt lat="45.6379" lon="6.58719">
        <ele>1762</ele>
        <time>2022-07-16T08:31:28Z</time>
      </trkpt>
      <trkpt lat="45.63788" lon="6.58721">
        <ele>1763</ele>
        <time>2022-07-16T08:31:32Z</time>
      </trkpt>
      <trkpt lat="45.63787" lon="6.58723">
        <ele>1764</ele>
        <time>2022-07-16T08:31:34Z</time>
      </trkpt>
      <trkpt lat="45.63786" lon="6.58726">
        <ele>1765</ele>
        <time>2022-07-16T08:31:37Z</time>
      </trkpt>
      <trkpt lat="45.63784" lon="6.58728">
        <ele>1765</ele>
        <time>2022-07-16T08:31:40Z</time>
      </trkpt>
      <trkpt lat="45.63783" lon="6.5873">
        <ele>1765</ele>
        <time>2022-07-16T08:31:43Z</time>
      </trkpt>
      <trkpt lat="45.63781" lon="6.58732">
        <ele>1767</ele>
        <time>2022-07-16T08:31:45Z</time>
      </trkpt>
      <trkpt lat="45.6378" lon="6.58734">
        <ele>1767</ele>
        <time>2022-07-16T08:31:48Z</time>
      </trkpt>
      <trkpt lat="45.63779" lon="6.58737">
        <ele>1768</ele>
        <time>2022-07-16T08:31:50Z</time>
      </trkpt>
      <trkpt lat="45.63779" lon="6.5874">
        <ele>1768</ele>
        <time>2022-07-16T08:31:52Z</time>
      </trkpt>
      <trkpt lat="45.63778" lon="6.58743">
        <ele>1768</ele>
        <time>2022-07-16T08:31:54Z</time>
      </trkpt>
      <trkpt lat="45.63778" lon="6.58747">
        <ele>1768</ele>
        <time>2022-07-16T08:31:58Z</time>
      </trkpt>
      <trkpt lat="45.63777" lon="6.5875">
        <ele>1769</ele>
        <time>2022-07-16T08:32:00Z</time>
      </trkpt>
      <trkpt lat="45.63777" lon="6.58752">
        <ele>1769</ele>
        <time>2022-07-16T08:32:02Z</time>
      </trkpt>
      <trkpt lat="45.63776" lon="6.58756">
        <ele>1770</ele>
        <time>2022-07-16T08:32:05Z</time>
      </trkpt>
      <trkpt lat="45.63776" lon="6.58759">
        <ele>1771</ele>
        <time>2022-07-16T08:32:07Z</time>
      </trkpt>
      <trkpt lat="45.63776" lon="6.58762">
        <ele>1771</ele>
        <time>2022-07-16T08:32:09Z</time>
      </trkpt>
      <trkpt lat="45.63775" lon="6.58765">
        <ele>1771</ele>
        <time>2022-07-16T08:32:11Z</time>
      </trkpt>
      <trkpt lat="45.63774" lon="6.58768">
        <ele>1771</ele>
        <time>2022-07-16T08:32:13Z</time>
      </trkpt>
      <trkpt lat="45.63774" lon="6.58771">
        <ele>1772</ele>
        <time>2022-07-16T08:32:17Z</time>
      </trkpt>
      <trkpt lat="45.63775" lon="6.58773">
        <ele>1772</ele>
        <time>2022-07-16T08:32:19Z</time>
      </trkpt>
      <trkpt lat="45.63777" lon="6.58774">
        <ele>1773</ele>
        <time>2022-07-16T08:32:21Z</time>
      </trkpt>
      <trkpt lat="45.63778" lon="6.58777">
        <ele>1773</ele>
        <time>2022-07-16T08:32:23Z</time>
      </trkpt>
      <trkpt lat="45.63779" lon="6.5878">
        <ele>1773</ele>
        <time>2022-07-16T08:32:25Z</time>
      </trkpt>
      <trkpt lat="45.63779" lon="6.58784">
        <ele>1773</ele>
        <time>2022-07-16T08:32:27Z</time>
      </trkpt>
      <trkpt lat="45.63779" lon="6.58788">
        <ele>1773</ele>
        <time>2022-07-16T08:32:29Z</time>
      </trkpt>
      <trkpt lat="45.6378" lon="6.58791">
        <ele>1773</ele>
        <time>2022-07-16T08:32:31Z</time>
      </trkpt>
      <trkpt lat="45.6378" lon="6.58793">
        <ele>1774</ele>
        <time>2022-07-16T08:32:33Z</time>
      </trkpt>
      <trkpt lat="45.6378" lon="6.58796">
        <ele>1775</ele>
        <time>2022-07-16T08:32:36Z</time>
      </trkpt>
      <trkpt lat="45.6378" lon="6.58799">
        <ele>1776</ele>
        <time>2022-07-16T08:32:38Z</time>
      </trkpt>
      <trkpt lat="45.63782" lon="6.58798">
        <ele>1777</ele>
        <time>2022-07-16T08:32:44Z</time>
      </trkpt>
      <trkpt lat="45.63784" lon="6.588">
        <ele>1777</ele>
        <time>2022-07-16T08:32:48Z</time>
      </trkpt>
      <trkpt lat="45.63784" lon="6.58803">
        <ele>1777</ele>
        <time>2022-07-16T08:32:50Z</time>
      </trkpt>
      <trkpt lat="45.63782" lon="6.58806">
        <ele>1777</ele>
        <time>2022-07-16T08:32:52Z</time>
      </trkpt>
      <trkpt lat="45.6378" lon="6.58808">
        <ele>1777</ele>
        <time>2022-07-16T08:32:55Z</time>
      </trkpt>
      <trkpt lat="45.63778" lon="6.58811">
        <ele>1777</ele>
        <time>2022-07-16T08:32:57Z</time>
      </trkpt>
      <trkpt lat="45.63775" lon="6.58812">
        <ele>1777</ele>
        <time>2022-07-16T08:32:59Z</time>
      </trkpt>
      <trkpt lat="45.63772" lon="6.58813">
        <ele>1777</ele>
        <time>2022-07-16T08:33:01Z</time>
      </trkpt>
      <trkpt lat="45.63769" lon="6.58814">
        <ele>1777</ele>
        <time>2022-07-16T08:33:03Z</time>
      </trkpt>
      <trkpt lat="45.63767" lon="6.58814">
        <ele>1777</ele>
        <time>2022-07-16T08:33:05Z</time>
      </trkpt>
      <trkpt lat="45.63765" lon="6.58815">
        <ele>1777</ele>
        <time>2022-07-16T08:33:07Z</time>
      </trkpt>
      <trkpt lat="45.63762" lon="6.58815">
        <ele>1777</ele>
        <time>2022-07-16T08:33:09Z</time>
      </trkpt>
      <trkpt lat="45.63759" lon="6.58815">
        <ele>1778</ele>
        <time>2022-07-16T08:33:11Z</time>
      </trkpt>
      <trkpt lat="45.63757" lon="6.58816">
        <ele>1778</ele>
        <time>2022-07-16T08:33:13Z</time>
      </trkpt>
      <trkpt lat="45.63756" lon="6.58819">
        <ele>1778</ele>
        <time>2022-07-16T08:33:15Z</time>
      </trkpt>
      <trkpt lat="45.63756" lon="6.58822">
        <ele>1778</ele>
        <time>2022-07-16T08:33:17Z</time>
      </trkpt>
      <trkpt lat="45.63756" lon="6.58825">
        <ele>1779</ele>
        <time>2022-07-16T08:33:20Z</time>
      </trkpt>
      <trkpt lat="45.63756" lon="6.58827">
        <ele>1780</ele>
        <time>2022-07-16T08:33:24Z</time>
      </trkpt>
      <trkpt lat="45.63754" lon="6.58829">
        <ele>1781</ele>
        <time>2022-07-16T08:33:26Z</time>
      </trkpt>
      <trkpt lat="45.63752" lon="6.58831">
        <ele>1782</ele>
        <time>2022-07-16T08:33:29Z</time>
      </trkpt>
      <trkpt lat="45.6375" lon="6.58832">
        <ele>1782</ele>
        <time>2022-07-16T08:33:33Z</time>
      </trkpt>
      <trkpt lat="45.63748" lon="6.58832">
        <ele>1782</ele>
        <time>2022-07-16T08:33:35Z</time>
      </trkpt>
      <trkpt lat="45.63745" lon="6.58832">
        <ele>1783</ele>
        <time>2022-07-16T08:33:37Z</time>
      </trkpt>
      <trkpt lat="45.63743" lon="6.58831">
        <ele>1783</ele>
        <time>2022-07-16T08:33:39Z</time>
      </trkpt>
      <trkpt lat="45.63741" lon="6.58829">
        <ele>1784</ele>
        <time>2022-07-16T08:33:42Z</time>
      </trkpt>
      <trkpt lat="45.63739" lon="6.58827">
        <ele>1784</ele>
        <time>2022-07-16T08:33:45Z</time>
      </trkpt>
      <trkpt lat="45.63737" lon="6.58826">
        <ele>1785</ele>
        <time>2022-07-16T08:33:48Z</time>
      </trkpt>
      <trkpt lat="45.63735" lon="6.58826">
        <ele>1786</ele>
        <time>2022-07-16T08:33:52Z</time>
      </trkpt>
      <trkpt lat="45.63733" lon="6.58827">
        <ele>1787</ele>
        <time>2022-07-16T08:33:56Z</time>
      </trkpt>
      <trkpt lat="45.63731" lon="6.58826">
        <ele>1787</ele>
        <time>2022-07-16T08:33:59Z</time>
      </trkpt>
      <trkpt lat="45.63729" lon="6.58825">
        <ele>1787</ele>
        <time>2022-07-16T08:34:02Z</time>
      </trkpt>
      <trkpt lat="45.63727" lon="6.58825">
        <ele>1788</ele>
        <time>2022-07-16T08:34:05Z</time>
      </trkpt>
      <trkpt lat="45.63725" lon="6.58825">
        <ele>1789</ele>
        <time>2022-07-16T08:34:07Z</time>
      </trkpt>
      <trkpt lat="45.63723" lon="6.58824">
        <ele>1789</ele>
        <time>2022-07-16T08:34:09Z</time>
      </trkpt>
      <trkpt lat="45.63722" lon="6.58823">
        <ele>1789</ele>
        <time>2022-07-16T08:34:12Z</time>
      </trkpt>
      <trkpt lat="45.63719" lon="6.58822">
        <ele>1790</ele>
        <time>2022-07-16T08:34:14Z</time>
      </trkpt>
      <trkpt lat="45.63717" lon="6.58821">
        <ele>1790</ele>
        <time>2022-07-16T08:34:16Z</time>
      </trkpt>
      <trkpt lat="45.63715" lon="6.58819">
        <ele>1790</ele>
        <time>2022-07-16T08:34:19Z</time>
      </trkpt>
      <trkpt lat="45.63713" lon="6.58818">
        <ele>1791</ele>
        <time>2022-07-16T08:34:21Z</time>
      </trkpt>
      <trkpt lat="45.63711" lon="6.58818">
        <ele>1791</ele>
        <time>2022-07-16T08:34:23Z</time>
      </trkpt>
      <trkpt lat="45.63709" lon="6.58818">
        <ele>1791</ele>
        <time>2022-07-16T08:34:25Z</time>
      </trkpt>
      <trkpt lat="45.63707" lon="6.58819">
        <ele>1792</ele>
        <time>2022-07-16T08:34:27Z</time>
      </trkpt>
      <trkpt lat="45.63705" lon="6.58821">
        <ele>1792</ele>
        <time>2022-07-16T08:34:30Z</time>
      </trkpt>
      <trkpt lat="45.63703" lon="6.58822">
        <ele>1792</ele>
        <time>2022-07-16T08:34:31Z</time>
      </trkpt>
      <trkpt lat="45.63701" lon="6.58824">
        <ele>1792</ele>
        <time>2022-07-16T08:34:34Z</time>
      </trkpt>
      <trkpt lat="45.63699" lon="6.58826">
        <ele>1793</ele>
        <time>2022-07-16T08:34:36Z</time>
      </trkpt>
      <trkpt lat="45.63696" lon="6.58826">
        <ele>1794</ele>
        <time>2022-07-16T08:34:39Z</time>
      </trkpt>
      <trkpt lat="45.63694" lon="6.58827">
        <ele>1794</ele>
        <time>2022-07-16T08:34:41Z</time>
      </trkpt>
      <trkpt lat="45.63691" lon="6.58828">
        <ele>1794</ele>
        <time>2022-07-16T08:34:43Z</time>
      </trkpt>
      <trkpt lat="45.63689" lon="6.58829">
        <ele>1794</ele>
        <time>2022-07-16T08:34:45Z</time>
      </trkpt>
      <trkpt lat="45.63687" lon="6.58829">
        <ele>1794</ele>
        <time>2022-07-16T08:34:48Z</time>
      </trkpt>
      <trkpt lat="45.63685" lon="6.58831">
        <ele>1794</ele>
        <time>2022-07-16T08:34:49Z</time>
      </trkpt>
      <trkpt lat="45.63684" lon="6.58832">
        <ele>1795</ele>
        <time>2022-07-16T08:34:51Z</time>
      </trkpt>
      <trkpt lat="45.63682" lon="6.58833">
        <ele>1795</ele>
        <time>2022-07-16T08:34:53Z</time>
      </trkpt>
      <trkpt lat="45.63679" lon="6.58835">
        <ele>1796</ele>
        <time>2022-07-16T08:34:56Z</time>
      </trkpt>
      <trkpt lat="45.63678" lon="6.58836">
        <ele>1796</ele>
        <time>2022-07-16T08:34:58Z</time>
      </trkpt>
      <trkpt lat="45.63676" lon="6.58836">
        <ele>1797</ele>
        <time>2022-07-16T08:35:00Z</time>
      </trkpt>
      <trkpt lat="45.63674" lon="6.58838">
        <ele>1798</ele>
        <time>2022-07-16T08:35:03Z</time>
      </trkpt>
      <trkpt lat="45.63672" lon="6.58839">
        <ele>1798</ele>
        <time>2022-07-16T08:35:04Z</time>
      </trkpt>
      <trkpt lat="45.6367" lon="6.58841">
        <ele>1798</ele>
        <time>2022-07-16T08:35:06Z</time>
      </trkpt>
      <trkpt lat="45.63669" lon="6.58843">
        <ele>1798</ele>
        <time>2022-07-16T08:35:08Z</time>
      </trkpt>
      <trkpt lat="45.63667" lon="6.58846">
        <ele>1799</ele>
        <time>2022-07-16T08:35:11Z</time>
      </trkpt>
      <trkpt lat="45.63666" lon="6.58848">
        <ele>1799</ele>
        <time>2022-07-16T08:35:13Z</time>
      </trkpt>
      <trkpt lat="45.63664" lon="6.58849">
        <ele>1800</ele>
        <time>2022-07-16T08:35:16Z</time>
      </trkpt>
      <trkpt lat="45.63663" lon="6.58851">
        <ele>1800</ele>
        <time>2022-07-16T08:35:17Z</time>
      </trkpt>
      <trkpt lat="45.63661" lon="6.58853">
        <ele>1801</ele>
        <time>2022-07-16T08:35:19Z</time>
      </trkpt>
      <trkpt lat="45.63659" lon="6.58854">
        <ele>1800</ele>
        <time>2022-07-16T08:35:23Z</time>
      </trkpt>
      <trkpt lat="45.63658" lon="6.58856">
        <ele>1801</ele>
        <time>2022-07-16T08:35:25Z</time>
      </trkpt>
      <trkpt lat="45.63656" lon="6.58858">
        <ele>1801</ele>
        <time>2022-07-16T08:35:27Z</time>
      </trkpt>
      <trkpt lat="45.63654" lon="6.58859">
        <ele>1802</ele>
        <time>2022-07-16T08:35:29Z</time>
      </trkpt>
      <trkpt lat="45.63652" lon="6.58861">
        <ele>1802</ele>
        <time>2022-07-16T08:35:31Z</time>
      </trkpt>
      <trkpt lat="45.6365" lon="6.58861">
        <ele>1803</ele>
        <time>2022-07-16T08:35:33Z</time>
      </trkpt>
      <trkpt lat="45.63648" lon="6.58861">
        <ele>1803</ele>
        <time>2022-07-16T08:35:35Z</time>
      </trkpt>
      <trkpt lat="45.63646" lon="6.58861">
        <ele>1804</ele>
        <time>2022-07-16T08:35:37Z</time>
      </trkpt>
      <trkpt lat="45.63644" lon="6.58863">
        <ele>1804</ele>
        <time>2022-07-16T08:35:39Z</time>
      </trkpt>
      <trkpt lat="45.63642" lon="6.58864">
        <ele>1804</ele>
        <time>2022-07-16T08:35:41Z</time>
      </trkpt>
      <trkpt lat="45.6364" lon="6.58865">
        <ele>1804</ele>
        <time>2022-07-16T08:35:43Z</time>
      </trkpt>
      <trkpt lat="45.63637" lon="6.58865">
        <ele>1804</ele>
        <time>2022-07-16T08:35:46Z</time>
      </trkpt>
      <trkpt lat="45.63634" lon="6.58865">
        <ele>1805</ele>
        <time>2022-07-16T08:35:47Z</time>
      </trkpt>
      <trkpt lat="45.63631" lon="6.58865">
        <ele>1805</ele>
        <time>2022-07-16T08:35:49Z</time>
      </trkpt>
      <trkpt lat="45.63629" lon="6.58866">
        <ele>1806</ele>
        <time>2022-07-16T08:35:51Z</time>
      </trkpt>
      <trkpt lat="45.63627" lon="6.58868">
        <ele>1806</ele>
        <time>2022-07-16T08:35:53Z</time>
      </trkpt>
      <trkpt lat="45.63624" lon="6.5887">
        <ele>1806</ele>
        <time>2022-07-16T08:35:55Z</time>
      </trkpt>
      <trkpt lat="45.63622" lon="6.58872">
        <ele>1806</ele>
        <time>2022-07-16T08:35:57Z</time>
      </trkpt>
      <trkpt lat="45.63619" lon="6.58874">
        <ele>1805</ele>
        <time>2022-07-16T08:35:59Z</time>
      </trkpt>
      <trkpt lat="45.63617" lon="6.58877">
        <ele>1805</ele>
        <time>2022-07-16T08:36:01Z</time>
      </trkpt>
      <trkpt lat="45.63615" lon="6.5888">
        <ele>1805</ele>
        <time>2022-07-16T08:36:03Z</time>
      </trkpt>
      <trkpt lat="45.63613" lon="6.58882">
        <ele>1805</ele>
        <time>2022-07-16T08:36:05Z</time>
      </trkpt>
      <trkpt lat="45.63612" lon="6.58884">
        <ele>1806</ele>
        <time>2022-07-16T08:36:07Z</time>
      </trkpt>
      <trkpt lat="45.63611" lon="6.58886">
        <ele>1807</ele>
        <time>2022-07-16T08:36:09Z</time>
      </trkpt>
      <trkpt lat="45.6361" lon="6.58888">
        <ele>1807</ele>
        <time>2022-07-16T08:36:13Z</time>
      </trkpt>
      <trkpt lat="45.63609" lon="6.58891">
        <ele>1808</ele>
        <time>2022-07-16T08:36:15Z</time>
      </trkpt>
      <trkpt lat="45.63607" lon="6.58893">
        <ele>1808</ele>
        <time>2022-07-16T08:36:17Z</time>
      </trkpt>
      <trkpt lat="45.63606" lon="6.58895">
        <ele>1808</ele>
        <time>2022-07-16T08:36:19Z</time>
      </trkpt>
      <trkpt lat="45.63605" lon="6.58897">
        <ele>1809</ele>
        <time>2022-07-16T08:36:21Z</time>
      </trkpt>
      <trkpt lat="45.63604" lon="6.589">
        <ele>1809</ele>
        <time>2022-07-16T08:36:24Z</time>
      </trkpt>
      <trkpt lat="45.63603" lon="6.58902">
        <ele>1809</ele>
        <time>2022-07-16T08:36:26Z</time>
      </trkpt>
      <trkpt lat="45.63601" lon="6.58905">
        <ele>1811</ele>
        <time>2022-07-16T08:36:29Z</time>
      </trkpt>
      <trkpt lat="45.636" lon="6.58907">
        <ele>1811</ele>
        <time>2022-07-16T08:36:31Z</time>
      </trkpt>
      <trkpt lat="45.63598" lon="6.58909">
        <ele>1811</ele>
        <time>2022-07-16T08:36:33Z</time>
      </trkpt>
      <trkpt lat="45.63596" lon="6.58911">
        <ele>1812</ele>
        <time>2022-07-16T08:36:36Z</time>
      </trkpt>
      <trkpt lat="45.63594" lon="6.58912">
        <ele>1812</ele>
        <time>2022-07-16T08:36:38Z</time>
      </trkpt>
      <trkpt lat="45.63592" lon="6.58913">
        <ele>1813</ele>
        <time>2022-07-16T08:36:40Z</time>
      </trkpt>
      <trkpt lat="45.63589" lon="6.58913">
        <ele>1813</ele>
        <time>2022-07-16T08:36:43Z</time>
      </trkpt>
      <trkpt lat="45.63587" lon="6.58914">
        <ele>1813</ele>
        <time>2022-07-16T08:36:44Z</time>
      </trkpt>
      <trkpt lat="45.63585" lon="6.58914">
        <ele>1814</ele>
        <time>2022-07-16T08:36:46Z</time>
      </trkpt>
      <trkpt lat="45.63583" lon="6.58915">
        <ele>1814</ele>
        <time>2022-07-16T08:36:48Z</time>
      </trkpt>
      <trkpt lat="45.6358" lon="6.58917">
        <ele>1814</ele>
        <time>2022-07-16T08:36:50Z</time>
      </trkpt>
      <trkpt lat="45.63577" lon="6.58919">
        <ele>1814</ele>
        <time>2022-07-16T08:36:52Z</time>
      </trkpt>
      <trkpt lat="45.63573" lon="6.58921">
        <ele>1813</ele>
        <time>2022-07-16T08:36:54Z</time>
      </trkpt>
      <trkpt lat="45.63571" lon="6.58923">
        <ele>1813</ele>
        <time>2022-07-16T08:36:55Z</time>
      </trkpt>
      <trkpt lat="45.63569" lon="6.58925">
        <ele>1812</ele>
        <time>2022-07-16T08:36:56Z</time>
      </trkpt>
      <trkpt lat="45.63567" lon="6.58927">
        <ele>1812</ele>
        <time>2022-07-16T08:36:57Z</time>
      </trkpt>
      <trkpt lat="45.63566" lon="6.58929">
        <ele>1812</ele>
        <time>2022-07-16T08:36:58Z</time>
      </trkpt>
      <trkpt lat="45.63565" lon="6.58931">
        <ele>1812</ele>
        <time>2022-07-16T08:36:59Z</time>
      </trkpt>
      <trkpt lat="45.63562" lon="6.58934">
        <ele>1812</ele>
        <time>2022-07-16T08:37:01Z</time>
      </trkpt>
      <trkpt lat="45.6356" lon="6.58936">
        <ele>1812</ele>
        <time>2022-07-16T08:37:03Z</time>
      </trkpt>
      <trkpt lat="45.63558" lon="6.58937">
        <ele>1812</ele>
        <time>2022-07-16T08:37:05Z</time>
      </trkpt>
      <trkpt lat="45.63556" lon="6.58939">
        <ele>1813</ele>
        <time>2022-07-16T08:37:07Z</time>
      </trkpt>
      <trkpt lat="45.63555" lon="6.5894">
        <ele>1814</ele>
        <time>2022-07-16T08:37:09Z</time>
      </trkpt>
      <trkpt lat="45.63553" lon="6.58942">
        <ele>1814</ele>
        <time>2022-07-16T08:37:11Z</time>
      </trkpt>
      <trkpt lat="45.63551" lon="6.58944">
        <ele>1814</ele>
        <time>2022-07-16T08:37:13Z</time>
      </trkpt>
      <trkpt lat="45.63549" lon="6.58946">
        <ele>1815</ele>
        <time>2022-07-16T08:37:15Z</time>
      </trkpt>
      <trkpt lat="45.63548" lon="6.58947">
        <ele>1815</ele>
        <time>2022-07-16T08:37:17Z</time>
      </trkpt>
      <trkpt lat="45.63546" lon="6.58949">
        <ele>1816</ele>
        <time>2022-07-16T08:37:19Z</time>
      </trkpt>
      <trkpt lat="45.63544" lon="6.5895">
        <ele>1816</ele>
        <time>2022-07-16T08:37:21Z</time>
      </trkpt>
      <trkpt lat="45.63542" lon="6.58951">
        <ele>1816</ele>
        <time>2022-07-16T08:37:23Z</time>
      </trkpt>
      <trkpt lat="45.6354" lon="6.58951">
        <ele>1816</ele>
        <time>2022-07-16T08:37:25Z</time>
      </trkpt>
      <trkpt lat="45.63538" lon="6.58952">
        <ele>1816</ele>
        <time>2022-07-16T08:37:27Z</time>
      </trkpt>
      <trkpt lat="45.63536" lon="6.58954">
        <ele>1816</ele>
        <time>2022-07-16T08:37:29Z</time>
      </trkpt>
      <trkpt lat="45.63534" lon="6.58957">
        <ele>1816</ele>
        <time>2022-07-16T08:37:31Z</time>
      </trkpt>
      <trkpt lat="45.63533" lon="6.58959">
        <ele>1817</ele>
        <time>2022-07-16T08:37:33Z</time>
      </trkpt>
      <trkpt lat="45.63532" lon="6.58962">
        <ele>1817</ele>
        <time>2022-07-16T08:37:35Z</time>
      </trkpt>
      <trkpt lat="45.6353" lon="6.58965">
        <ele>1817</ele>
        <time>2022-07-16T08:37:38Z</time>
      </trkpt>
      <trkpt lat="45.63529" lon="6.58968">
        <ele>1817</ele>
        <time>2022-07-16T08:37:41Z</time>
      </trkpt>
      <trkpt lat="45.63527" lon="6.5897">
        <ele>1817</ele>
        <time>2022-07-16T08:37:42Z</time>
      </trkpt>
      <trkpt lat="45.63525" lon="6.58972">
        <ele>1818</ele>
        <time>2022-07-16T08:37:44Z</time>
      </trkpt>
      <trkpt lat="45.63523" lon="6.58974">
        <ele>1819</ele>
        <time>2022-07-16T08:37:46Z</time>
      </trkpt>
      <trkpt lat="45.63522" lon="6.58976">
        <ele>1819</ele>
        <time>2022-07-16T08:37:48Z</time>
      </trkpt>
      <trkpt lat="45.6352" lon="6.58979">
        <ele>1819</ele>
        <time>2022-07-16T08:37:50Z</time>
      </trkpt>
      <trkpt lat="45.63518" lon="6.58981">
        <ele>1818</ele>
        <time>2022-07-16T08:37:52Z</time>
      </trkpt>
      <trkpt lat="45.63516" lon="6.58983">
        <ele>1818</ele>
        <time>2022-07-16T08:37:54Z</time>
      </trkpt>
      <trkpt lat="45.63515" lon="6.58986">
        <ele>1819</ele>
        <time>2022-07-16T08:37:57Z</time>
      </trkpt>
      <trkpt lat="45.63515" lon="6.58989">
        <ele>1819</ele>
        <time>2022-07-16T08:37:58Z</time>
      </trkpt>
      <trkpt lat="45.63514" lon="6.58992">
        <ele>1820</ele>
        <time>2022-07-16T08:38:00Z</time>
      </trkpt>
      <trkpt lat="45.63514" lon="6.58996">
        <ele>1820</ele>
        <time>2022-07-16T08:38:02Z</time>
      </trkpt>
      <trkpt lat="45.63512" lon="6.58999">
        <ele>1820</ele>
        <time>2022-07-16T08:38:04Z</time>
      </trkpt>
      <trkpt lat="45.63511" lon="6.59001">
        <ele>1820</ele>
        <time>2022-07-16T08:38:06Z</time>
      </trkpt>
      <trkpt lat="45.63509" lon="6.59004">
        <ele>1820</ele>
        <time>2022-07-16T08:38:08Z</time>
      </trkpt>
      <trkpt lat="45.63508" lon="6.59006">
        <ele>1821</ele>
        <time>2022-07-16T08:38:10Z</time>
      </trkpt>
      <trkpt lat="45.63506" lon="6.5901">
        <ele>1821</ele>
        <time>2022-07-16T08:38:12Z</time>
      </trkpt>
      <trkpt lat="45.63505" lon="6.59012">
        <ele>1822</ele>
        <time>2022-07-16T08:38:14Z</time>
      </trkpt>
      <trkpt lat="45.63503" lon="6.59013">
        <ele>1822</ele>
        <time>2022-07-16T08:38:16Z</time>
      </trkpt>
      <trkpt lat="45.63501" lon="6.59015">
        <ele>1822</ele>
        <time>2022-07-16T08:38:18Z</time>
      </trkpt>
      <trkpt lat="45.63499" lon="6.59016">
        <ele>1823</ele>
        <time>2022-07-16T08:38:20Z</time>
      </trkpt>
      <trkpt lat="45.63497" lon="6.59017">
        <ele>1823</ele>
        <time>2022-07-16T08:38:22Z</time>
      </trkpt>
      <trkpt lat="45.63495" lon="6.59019">
        <ele>1823</ele>
        <time>2022-07-16T08:38:24Z</time>
      </trkpt>
      <trkpt lat="45.63493" lon="6.5902">
        <ele>1823</ele>
        <time>2022-07-16T08:38:26Z</time>
      </trkpt>
      <trkpt lat="45.63491" lon="6.59023">
        <ele>1823</ele>
        <time>2022-07-16T08:38:28Z</time>
      </trkpt>
      <trkpt lat="45.63489" lon="6.59024">
        <ele>1823</ele>
        <time>2022-07-16T08:38:30Z</time>
      </trkpt>
      <trkpt lat="45.63487" lon="6.59026">
        <ele>1824</ele>
        <time>2022-07-16T08:38:32Z</time>
      </trkpt>
      <trkpt lat="45.63485" lon="6.59027">
        <ele>1824</ele>
        <time>2022-07-16T08:38:34Z</time>
      </trkpt>
      <trkpt lat="45.63483" lon="6.59029">
        <ele>1824</ele>
        <time>2022-07-16T08:38:37Z</time>
      </trkpt>
      <trkpt lat="45.63481" lon="6.59031">
        <ele>1824</ele>
        <time>2022-07-16T08:38:38Z</time>
      </trkpt>
      <trkpt lat="45.63479" lon="6.59033">
        <ele>1824</ele>
        <time>2022-07-16T08:38:40Z</time>
      </trkpt>
      <trkpt lat="45.63477" lon="6.59035">
        <ele>1825</ele>
        <time>2022-07-16T08:38:42Z</time>
      </trkpt>
      <trkpt lat="45.63475" lon="6.59035">
        <ele>1825</ele>
        <time>2022-07-16T08:38:44Z</time>
      </trkpt>
      <trkpt lat="45.63472" lon="6.59035">
        <ele>1826</ele>
        <time>2022-07-16T08:38:46Z</time>
      </trkpt>
      <trkpt lat="45.6347" lon="6.59036">
        <ele>1826</ele>
        <time>2022-07-16T08:38:48Z</time>
      </trkpt>
      <trkpt lat="45.63468" lon="6.59037">
        <ele>1826</ele>
        <time>2022-07-16T08:38:50Z</time>
      </trkpt>
      <trkpt lat="45.63466" lon="6.5904">
        <ele>1826</ele>
        <time>2022-07-16T08:38:52Z</time>
      </trkpt>
      <trkpt lat="45.63464" lon="6.59042">
        <ele>1826</ele>
        <time>2022-07-16T08:38:54Z</time>
      </trkpt>
      <trkpt lat="45.63462" lon="6.59044">
        <ele>1826</ele>
        <time>2022-07-16T08:38:56Z</time>
      </trkpt>
      <trkpt lat="45.63459" lon="6.59046">
        <ele>1826</ele>
        <time>2022-07-16T08:38:58Z</time>
      </trkpt>
      <trkpt lat="45.63457" lon="6.59048">
        <ele>1826</ele>
        <time>2022-07-16T08:39:01Z</time>
      </trkpt>
      <trkpt lat="45.63455" lon="6.5905">
        <ele>1826</ele>
        <time>2022-07-16T08:39:02Z</time>
      </trkpt>
      <trkpt lat="45.63453" lon="6.59051">
        <ele>1826</ele>
        <time>2022-07-16T08:39:04Z</time>
      </trkpt>
      <trkpt lat="45.6345" lon="6.59051">
        <ele>1827</ele>
        <time>2022-07-16T08:39:06Z</time>
      </trkpt>
      <trkpt lat="45.63448" lon="6.59051">
        <ele>1827</ele>
        <time>2022-07-16T08:39:08Z</time>
      </trkpt>
      <trkpt lat="45.63445" lon="6.59051">
        <ele>1828</ele>
        <time>2022-07-16T08:39:10Z</time>
      </trkpt>
      <trkpt lat="45.63442" lon="6.59051">
        <ele>1827</ele>
        <time>2022-07-16T08:39:12Z</time>
      </trkpt>
      <trkpt lat="45.63439" lon="6.59051">
        <ele>1828</ele>
        <time>2022-07-16T08:39:15Z</time>
      </trkpt>
      <trkpt lat="45.63436" lon="6.59049">
        <ele>1828</ele>
        <time>2022-07-16T08:39:16Z</time>
      </trkpt>
      <trkpt lat="45.63433" lon="6.59048">
        <ele>1828</ele>
        <time>2022-07-16T08:39:18Z</time>
      </trkpt>
      <trkpt lat="45.6343" lon="6.59048">
        <ele>1828</ele>
        <time>2022-07-16T08:39:20Z</time>
      </trkpt>
      <trkpt lat="45.63428" lon="6.59048">
        <ele>1828</ele>
        <time>2022-07-16T08:39:22Z</time>
      </trkpt>
      <trkpt lat="45.63426" lon="6.59048">
        <ele>1829</ele>
        <time>2022-07-16T08:39:24Z</time>
      </trkpt>
      <trkpt lat="45.63424" lon="6.59049">
        <ele>1829</ele>
        <time>2022-07-16T08:39:27Z</time>
      </trkpt>
      <trkpt lat="45.63422" lon="6.5905">
        <ele>1829</ele>
        <time>2022-07-16T08:39:29Z</time>
      </trkpt>
      <trkpt lat="45.63419" lon="6.59051">
        <ele>1830</ele>
        <time>2022-07-16T08:39:32Z</time>
      </trkpt>
      <trkpt lat="45.63418" lon="6.59053">
        <ele>1831</ele>
        <time>2022-07-16T08:39:35Z</time>
      </trkpt>
      <trkpt lat="45.63416" lon="6.59054">
        <ele>1831</ele>
        <time>2022-07-16T08:39:37Z</time>
      </trkpt>
      <trkpt lat="45.63415" lon="6.59056">
        <ele>1832</ele>
        <time>2022-07-16T08:39:38Z</time>
      </trkpt>
      <trkpt lat="45.63413" lon="6.59058">
        <ele>1832</ele>
        <time>2022-07-16T08:39:40Z</time>
      </trkpt>
      <trkpt lat="45.63411" lon="6.59061">
        <ele>1832</ele>
        <time>2022-07-16T08:39:42Z</time>
      </trkpt>
      <trkpt lat="45.63409" lon="6.59064">
        <ele>1832</ele>
        <time>2022-07-16T08:39:44Z</time>
      </trkpt>
      <trkpt lat="45.63408" lon="6.59066">
        <ele>1832</ele>
        <time>2022-07-16T08:39:46Z</time>
      </trkpt>
      <trkpt lat="45.63406" lon="6.59068">
        <ele>1832</ele>
        <time>2022-07-16T08:39:48Z</time>
      </trkpt>
      <trkpt lat="45.63405" lon="6.59071">
        <ele>1832</ele>
        <time>2022-07-16T08:39:51Z</time>
      </trkpt>
      <trkpt lat="45.63404" lon="6.59073">
        <ele>1833</ele>
        <time>2022-07-16T08:39:53Z</time>
      </trkpt>
      <trkpt lat="45.63402" lon="6.59076">
        <ele>1833</ele>
        <time>2022-07-16T08:39:54Z</time>
      </trkpt>
      <trkpt lat="45.634" lon="6.59078">
        <ele>1833</ele>
        <time>2022-07-16T08:39:56Z</time>
      </trkpt>
      <trkpt lat="45.63398" lon="6.5908">
        <ele>1834</ele>
        <time>2022-07-16T08:39:58Z</time>
      </trkpt>
      <trkpt lat="45.63396" lon="6.59081">
        <ele>1834</ele>
        <time>2022-07-16T08:40:00Z</time>
      </trkpt>
      <trkpt lat="45.63394" lon="6.59082">
        <ele>1834</ele>
        <time>2022-07-16T08:40:02Z</time>
      </trkpt>
      <trkpt lat="45.63392" lon="6.59082">
        <ele>1835</ele>
        <time>2022-07-16T08:40:04Z</time>
      </trkpt>
      <trkpt lat="45.6339" lon="6.59083">
        <ele>1835</ele>
        <time>2022-07-16T08:40:06Z</time>
      </trkpt>
      <trkpt lat="45.63387" lon="6.59084">
        <ele>1836</ele>
        <time>2022-07-16T08:40:09Z</time>
      </trkpt>
      <trkpt lat="45.63385" lon="6.59085">
        <ele>1836</ele>
        <time>2022-07-16T08:40:10Z</time>
      </trkpt>
      <trkpt lat="45.63383" lon="6.59087">
        <ele>1836</ele>
        <time>2022-07-16T08:40:13Z</time>
      </trkpt>
      <trkpt lat="45.63381" lon="6.59088">
        <ele>1837</ele>
        <time>2022-07-16T08:40:14Z</time>
      </trkpt>
      <trkpt lat="45.6338" lon="6.5909">
        <ele>1837</ele>
        <time>2022-07-16T08:40:17Z</time>
      </trkpt>
      <trkpt lat="45.63378" lon="6.59092">
        <ele>1837</ele>
        <time>2022-07-16T08:40:18Z</time>
      </trkpt>
      <trkpt lat="45.63376" lon="6.59094">
        <ele>1838</ele>
        <time>2022-07-16T08:40:20Z</time>
      </trkpt>
      <trkpt lat="45.63374" lon="6.59095">
        <ele>1838</ele>
        <time>2022-07-16T08:40:22Z</time>
      </trkpt>
      <trkpt lat="45.63372" lon="6.59097">
        <ele>1839</ele>
        <time>2022-07-16T08:40:24Z</time>
      </trkpt>
      <trkpt lat="45.63371" lon="6.59099">
        <ele>1839</ele>
        <time>2022-07-16T08:40:26Z</time>
      </trkpt>
      <trkpt lat="45.63369" lon="6.59102">
        <ele>1839</ele>
        <time>2022-07-16T08:40:28Z</time>
      </trkpt>
      <trkpt lat="45.63367" lon="6.59105">
        <ele>1839</ele>
        <time>2022-07-16T08:40:31Z</time>
      </trkpt>
      <trkpt lat="45.63366" lon="6.59109">
        <ele>1839</ele>
        <time>2022-07-16T08:40:32Z</time>
      </trkpt>
      <trkpt lat="45.63364" lon="6.59112">
        <ele>1839</ele>
        <time>2022-07-16T08:40:34Z</time>
      </trkpt>
      <trkpt lat="45.63362" lon="6.59115">
        <ele>1839</ele>
        <time>2022-07-16T08:40:36Z</time>
      </trkpt>
      <trkpt lat="45.6336" lon="6.59118">
        <ele>1839</ele>
        <time>2022-07-16T08:40:39Z</time>
      </trkpt>
      <trkpt lat="45.63359" lon="6.59121">
        <ele>1839</ele>
        <time>2022-07-16T08:40:40Z</time>
      </trkpt>
      <trkpt lat="45.63357" lon="6.59124">
        <ele>1839</ele>
        <time>2022-07-16T08:40:42Z</time>
      </trkpt>
      <trkpt lat="45.63356" lon="6.59127">
        <ele>1840</ele>
        <time>2022-07-16T08:40:44Z</time>
      </trkpt>
      <trkpt lat="45.63355" lon="6.59129">
        <ele>1840</ele>
        <time>2022-07-16T08:40:46Z</time>
      </trkpt>
      <trkpt lat="45.63353" lon="6.59131">
        <ele>1840</ele>
        <time>2022-07-16T08:40:48Z</time>
      </trkpt>
      <trkpt lat="45.6335" lon="6.59132">
        <ele>1840</ele>
        <time>2022-07-16T08:40:51Z</time>
      </trkpt>
      <trkpt lat="45.63347" lon="6.59132">
        <ele>1841</ele>
        <time>2022-07-16T08:40:52Z</time>
      </trkpt>
      <trkpt lat="45.63345" lon="6.59132">
        <ele>1841</ele>
        <time>2022-07-16T08:40:55Z</time>
      </trkpt>
      <trkpt lat="45.63343" lon="6.59134">
        <ele>1842</ele>
        <time>2022-07-16T08:40:57Z</time>
      </trkpt>
      <trkpt lat="45.63341" lon="6.59136">
        <ele>1842</ele>
        <time>2022-07-16T08:41:00Z</time>
      </trkpt>
      <trkpt lat="45.63339" lon="6.59137">
        <ele>1842</ele>
        <time>2022-07-16T08:41:01Z</time>
      </trkpt>
      <trkpt lat="45.63338" lon="6.59138">
        <ele>1842</ele>
        <time>2022-07-16T08:41:03Z</time>
      </trkpt>
      <trkpt lat="45.63335" lon="6.59139">
        <ele>1842</ele>
        <time>2022-07-16T08:41:05Z</time>
      </trkpt>
      <trkpt lat="45.63333" lon="6.5914">
        <ele>1843</ele>
        <time>2022-07-16T08:41:07Z</time>
      </trkpt>
      <trkpt lat="45.63331" lon="6.59141">
        <ele>1843</ele>
        <time>2022-07-16T08:41:09Z</time>
      </trkpt>
      <trkpt lat="45.63329" lon="6.59142">
        <ele>1843</ele>
        <time>2022-07-16T08:41:11Z</time>
      </trkpt>
      <trkpt lat="45.63327" lon="6.59142">
        <ele>1843</ele>
        <time>2022-07-16T08:41:13Z</time>
      </trkpt>
      <trkpt lat="45.63325" lon="6.59143">
        <ele>1843</ele>
        <time>2022-07-16T08:41:15Z</time>
      </trkpt>
      <trkpt lat="45.63322" lon="6.59144">
        <ele>1844</ele>
        <time>2022-07-16T08:41:17Z</time>
      </trkpt>
      <trkpt lat="45.6332" lon="6.59145">
        <ele>1844</ele>
        <time>2022-07-16T08:41:19Z</time>
      </trkpt>
      <trkpt lat="45.63318" lon="6.59146">
        <ele>1844</ele>
        <time>2022-07-16T08:41:21Z</time>
      </trkpt>
      <trkpt lat="45.63316" lon="6.59147">
        <ele>1845</ele>
        <time>2022-07-16T08:41:24Z</time>
      </trkpt>
      <trkpt lat="45.63314" lon="6.59148">
        <ele>1845</ele>
        <time>2022-07-16T08:41:25Z</time>
      </trkpt>
      <trkpt lat="45.63312" lon="6.5915">
        <ele>1846</ele>
        <time>2022-07-16T08:41:27Z</time>
      </trkpt>
      <trkpt lat="45.6331" lon="6.59151">
        <ele>1846</ele>
        <time>2022-07-16T08:41:29Z</time>
      </trkpt>
      <trkpt lat="45.63308" lon="6.59152">
        <ele>1846</ele>
        <time>2022-07-16T08:41:31Z</time>
      </trkpt>
      <trkpt lat="45.63306" lon="6.59153">
        <ele>1846</ele>
        <time>2022-07-16T08:41:33Z</time>
      </trkpt>
      <trkpt lat="45.63304" lon="6.59154">
        <ele>1847</ele>
        <time>2022-07-16T08:41:35Z</time>
      </trkpt>
      <trkpt lat="45.63302" lon="6.59157">
        <ele>1848</ele>
        <time>2022-07-16T08:41:38Z</time>
      </trkpt>
      <trkpt lat="45.63301" lon="6.59158">
        <ele>1848</ele>
        <time>2022-07-16T08:41:39Z</time>
      </trkpt>
      <trkpt lat="45.63299" lon="6.5916">
        <ele>1848</ele>
        <time>2022-07-16T08:41:41Z</time>
      </trkpt>
      <trkpt lat="45.63297" lon="6.59162">
        <ele>1849</ele>
        <time>2022-07-16T08:41:43Z</time>
      </trkpt>
      <trkpt lat="45.63295" lon="6.59162">
        <ele>1849</ele>
        <time>2022-07-16T08:41:45Z</time>
      </trkpt>
      <trkpt lat="45.63293" lon="6.59163">
        <ele>1849</ele>
        <time>2022-07-16T08:41:48Z</time>
      </trkpt>
      <trkpt lat="45.63291" lon="6.59164">
        <ele>1849</ele>
        <time>2022-07-16T08:41:50Z</time>
      </trkpt>
      <trkpt lat="45.63288" lon="6.59165">
        <ele>1850</ele>
        <time>2022-07-16T08:41:52Z</time>
      </trkpt>
      <trkpt lat="45.63287" lon="6.59166">
        <ele>1851</ele>
        <time>2022-07-16T08:41:55Z</time>
      </trkpt>
      <trkpt lat="45.63286" lon="6.5917">
        <ele>1851</ele>
        <time>2022-07-16T08:41:58Z</time>
      </trkpt>
      <trkpt lat="45.63284" lon="6.59172">
        <ele>1851</ele>
        <time>2022-07-16T08:41:59Z</time>
      </trkpt>
      <trkpt lat="45.63283" lon="6.59174">
        <ele>1851</ele>
        <time>2022-07-16T08:42:01Z</time>
      </trkpt>
      <trkpt lat="45.63283" lon="6.59177">
        <ele>1852</ele>
        <time>2022-07-16T08:42:04Z</time>
      </trkpt>
      <trkpt lat="45.63285" lon="6.59177">
        <ele>1853</ele>
        <time>2022-07-16T08:42:07Z</time>
      </trkpt>
      <trkpt lat="45.63287" lon="6.59177">
        <ele>1854</ele>
        <time>2022-07-16T08:42:10Z</time>
      </trkpt>
      <trkpt lat="45.63289" lon="6.59177">
        <ele>1854</ele>
        <time>2022-07-16T08:42:13Z</time>
      </trkpt>
      <trkpt lat="45.63291" lon="6.59178">
        <ele>1855</ele>
        <time>2022-07-16T08:42:16Z</time>
      </trkpt>
      <trkpt lat="45.63293" lon="6.5918">
        <ele>1856</ele>
        <time>2022-07-16T08:42:19Z</time>
      </trkpt>
      <trkpt lat="45.63295" lon="6.59183">
        <ele>1857</ele>
        <time>2022-07-16T08:42:21Z</time>
      </trkpt>
      <trkpt lat="45.63295" lon="6.59186">
        <ele>1858</ele>
        <time>2022-07-16T08:42:23Z</time>
      </trkpt>
      <trkpt lat="45.63294" lon="6.59189">
        <ele>1858</ele>
        <time>2022-07-16T08:42:25Z</time>
      </trkpt>
      <trkpt lat="45.63293" lon="6.59191">
        <ele>1858</ele>
        <time>2022-07-16T08:42:27Z</time>
      </trkpt>
      <trkpt lat="45.63292" lon="6.59194">
        <ele>1858</ele>
        <time>2022-07-16T08:42:30Z</time>
      </trkpt>
      <trkpt lat="45.63291" lon="6.59197">
        <ele>1858</ele>
        <time>2022-07-16T08:42:31Z</time>
      </trkpt>
      <trkpt lat="45.63291" lon="6.59201">
        <ele>1858</ele>
        <time>2022-07-16T08:42:33Z</time>
      </trkpt>
      <trkpt lat="45.6329" lon="6.59204">
        <ele>1858</ele>
        <time>2022-07-16T08:42:35Z</time>
      </trkpt>
      <trkpt lat="45.6329" lon="6.59207">
        <ele>1859</ele>
        <time>2022-07-16T08:42:37Z</time>
      </trkpt>
      <trkpt lat="45.63289" lon="6.5921">
        <ele>1859</ele>
        <time>2022-07-16T08:42:39Z</time>
      </trkpt>
      <trkpt lat="45.63288" lon="6.59213">
        <ele>1860</ele>
        <time>2022-07-16T08:42:41Z</time>
      </trkpt>
      <trkpt lat="45.63286" lon="6.59215">
        <ele>1860</ele>
        <time>2022-07-16T08:42:45Z</time>
      </trkpt>
      <trkpt lat="45.63286" lon="6.59218">
        <ele>1863</ele>
        <time>2022-07-16T08:42:51Z</time>
      </trkpt>
      <trkpt lat="45.63285" lon="6.59221">
        <ele>1863</ele>
        <time>2022-07-16T08:42:54Z</time>
      </trkpt>
      <trkpt lat="45.63284" lon="6.59223">
        <ele>1864</ele>
        <time>2022-07-16T08:42:57Z</time>
      </trkpt>
      <trkpt lat="45.63284" lon="6.59226">
        <ele>1864</ele>
        <time>2022-07-16T08:43:01Z</time>
      </trkpt>
      <trkpt lat="45.63282" lon="6.59228">
        <ele>1865</ele>
        <time>2022-07-16T08:43:04Z</time>
      </trkpt>
      <trkpt lat="45.63281" lon="6.59229">
        <ele>1866</ele>
        <time>2022-07-16T08:43:07Z</time>
      </trkpt>
      <trkpt lat="45.63278" lon="6.5923">
        <ele>1867</ele>
        <time>2022-07-16T08:43:11Z</time>
      </trkpt>
      <trkpt lat="45.63278" lon="6.59234">
        <ele>1868</ele>
        <time>2022-07-16T08:43:14Z</time>
      </trkpt>
      <trkpt lat="45.63277" lon="6.59237">
        <ele>1868</ele>
        <time>2022-07-16T08:43:17Z</time>
      </trkpt>
      <trkpt lat="45.63276" lon="6.59238">
        <ele>1869</ele>
        <time>2022-07-16T08:43:20Z</time>
      </trkpt>
      <trkpt lat="45.63274" lon="6.5924">
        <ele>1870</ele>
        <time>2022-07-16T08:43:23Z</time>
      </trkpt>
      <trkpt lat="45.63273" lon="6.59243">
        <ele>1871</ele>
        <time>2022-07-16T08:43:27Z</time>
      </trkpt>
      <trkpt lat="45.63271" lon="6.59245">
        <ele>1872</ele>
        <time>2022-07-16T08:43:30Z</time>
      </trkpt>
      <trkpt lat="45.6327" lon="6.59247">
        <ele>1873</ele>
        <time>2022-07-16T08:43:33Z</time>
      </trkpt>
      <trkpt lat="45.63268" lon="6.59248">
        <ele>1873</ele>
        <time>2022-07-16T08:43:36Z</time>
      </trkpt>
      <trkpt lat="45.63267" lon="6.5925">
        <ele>1873</ele>
        <time>2022-07-16T08:43:39Z</time>
      </trkpt>
      <trkpt lat="45.63265" lon="6.59251">
        <ele>1874</ele>
        <time>2022-07-16T08:43:42Z</time>
      </trkpt>
      <trkpt lat="45.63263" lon="6.59253">
        <ele>1874</ele>
        <time>2022-07-16T08:43:43Z</time>
      </trkpt>
      <trkpt lat="45.63261" lon="6.59255">
        <ele>1874</ele>
        <time>2022-07-16T08:43:45Z</time>
      </trkpt>
      <trkpt lat="45.6326" lon="6.59256">
        <ele>1875</ele>
        <time>2022-07-16T08:43:47Z</time>
      </trkpt>
      <trkpt lat="45.63258" lon="6.59258">
        <ele>1875</ele>
        <time>2022-07-16T08:43:49Z</time>
      </trkpt>
      <trkpt lat="45.63257" lon="6.5926">
        <ele>1875</ele>
        <time>2022-07-16T08:43:52Z</time>
      </trkpt>
      <trkpt lat="45.63256" lon="6.59263">
        <ele>1875</ele>
        <time>2022-07-16T08:43:56Z</time>
      </trkpt>
      <trkpt lat="45.63255" lon="6.59266">
        <ele>1876</ele>
        <time>2022-07-16T08:43:58Z</time>
      </trkpt>
      <trkpt lat="45.63255" lon="6.59269">
        <ele>1877</ele>
        <time>2022-07-16T08:44:01Z</time>
      </trkpt>
      <trkpt lat="45.63255" lon="6.59272">
        <ele>1878</ele>
        <time>2022-07-16T08:44:04Z</time>
      </trkpt>
      <trkpt lat="45.63254" lon="6.59275">
        <ele>1878</ele>
        <time>2022-07-16T08:44:06Z</time>
      </trkpt>
      <trkpt lat="45.63254" lon="6.59278">
        <ele>1879</ele>
        <time>2022-07-16T08:44:09Z</time>
      </trkpt>
      <trkpt lat="45.63254" lon="6.59281">
        <ele>1879</ele>
        <time>2022-07-16T08:44:12Z</time>
      </trkpt>
      <trkpt lat="45.63254" lon="6.59284">
        <ele>1879</ele>
        <time>2022-07-16T08:44:15Z</time>
      </trkpt>
      <trkpt lat="45.63254" lon="6.59287">
        <ele>1879</ele>
        <time>2022-07-16T08:44:22Z</time>
      </trkpt>
      <trkpt lat="45.63253" lon="6.59286">
        <ele>1879</ele>
        <time>2022-07-16T08:44:25Z</time>
      </trkpt>
      <trkpt lat="45.63252" lon="6.59286">
        <ele>1879</ele>
        <time>2022-07-16T08:44:28Z</time>
      </trkpt>
      <trkpt lat="45.63251" lon="6.59285">
        <ele>1879</ele>
        <time>2022-07-16T08:44:30Z</time>
      </trkpt>
      <trkpt lat="45.6325" lon="6.59285">
        <ele>1880</ele>
        <time>2022-07-16T08:44:33Z</time>
      </trkpt>
      <trkpt lat="45.63249" lon="6.59285">
        <ele>1880</ele>
        <time>2022-07-16T08:44:35Z</time>
      </trkpt>
      <trkpt lat="45.63249" lon="6.59284">
        <ele>1880</ele>
        <time>2022-07-16T08:44:36Z</time>
      </trkpt>
      <trkpt lat="45.63248" lon="6.59284">
        <ele>1880</ele>
        <time>2022-07-16T08:44:39Z</time>
      </trkpt>
      <trkpt lat="45.63247" lon="6.59284">
        <ele>1880</ele>
        <time>2022-07-16T08:44:42Z</time>
      </trkpt>
      <trkpt lat="45.63247" lon="6.59283">
        <ele>1880</ele>
        <time>2022-07-16T08:44:43Z</time>
      </trkpt>
      <trkpt lat="45.63246" lon="6.59283">
        <ele>1880</ele>
        <time>2022-07-16T08:44:44Z</time>
      </trkpt>
      <trkpt lat="45.63245" lon="6.59283">
        <ele>1881</ele>
        <time>2022-07-16T08:44:47Z</time>
      </trkpt>
      <trkpt lat="45.63244" lon="6.59282">
        <ele>1881</ele>
        <time>2022-07-16T08:44:48Z</time>
      </trkpt>
      <trkpt lat="45.63243" lon="6.59282">
        <ele>1881</ele>
        <time>2022-07-16T08:44:49Z</time>
      </trkpt>
      <trkpt lat="45.63242" lon="6.59282">
        <ele>1881</ele>
        <time>2022-07-16T08:44:50Z</time>
      </trkpt>
      <trkpt lat="45.63242" lon="6.59281">
        <ele>1881</ele>
        <time>2022-07-16T08:44:51Z</time>
      </trkpt>
      <trkpt lat="45.63241" lon="6.59281">
        <ele>1881</ele>
        <time>2022-07-16T08:44:52Z</time>
      </trkpt>
      <trkpt lat="45.6324" lon="6.59281">
        <ele>1881</ele>
        <time>2022-07-16T08:44:53Z</time>
      </trkpt>
      <trkpt lat="45.63239" lon="6.5928">
        <ele>1882</ele>
        <time>2022-07-16T08:44:54Z</time>
      </trkpt>
      <trkpt lat="45.63238" lon="6.5928">
        <ele>1882</ele>
        <time>2022-07-16T08:44:55Z</time>
      </trkpt>
      <trkpt lat="45.63235" lon="6.59282">
        <ele>1882</ele>
        <time>2022-07-16T08:44:58Z</time>
      </trkpt>
      <trkpt lat="45.63233" lon="6.59284">
        <ele>1881</ele>
        <time>2022-07-16T08:45:00Z</time>
      </trkpt>
      <trkpt lat="45.63232" lon="6.59286">
        <ele>1881</ele>
        <time>2022-07-16T08:45:01Z</time>
      </trkpt>
      <trkpt lat="45.6323" lon="6.59288">
        <ele>1882</ele>
        <time>2022-07-16T08:45:03Z</time>
      </trkpt>
      <trkpt lat="45.63229" lon="6.5929">
        <ele>1882</ele>
        <time>2022-07-16T08:45:05Z</time>
      </trkpt>
      <trkpt lat="45.63228" lon="6.59292">
        <ele>1882</ele>
        <time>2022-07-16T08:45:08Z</time>
      </trkpt>
      <trkpt lat="45.63227" lon="6.59295">
        <ele>1882</ele>
        <time>2022-07-16T08:45:09Z</time>
      </trkpt>
      <trkpt lat="45.63226" lon="6.59298">
        <ele>1883</ele>
        <time>2022-07-16T08:45:11Z</time>
      </trkpt>
      <trkpt lat="45.63225" lon="6.59302">
        <ele>1883</ele>
        <time>2022-07-16T08:45:15Z</time>
      </trkpt>
      <trkpt lat="45.63225" lon="6.59305">
        <ele>1883</ele>
        <time>2022-07-16T08:45:17Z</time>
      </trkpt>
      <trkpt lat="45.63224" lon="6.59308">
        <ele>1884</ele>
        <time>2022-07-16T08:45:19Z</time>
      </trkpt>
      <trkpt lat="45.63222" lon="6.59311">
        <ele>1884</ele>
        <time>2022-07-16T08:45:21Z</time>
      </trkpt>
      <trkpt lat="45.63222" lon="6.59313">
        <ele>1885</ele>
        <time>2022-07-16T08:45:24Z</time>
      </trkpt>
      <trkpt lat="45.63221" lon="6.59315">
        <ele>1885</ele>
        <time>2022-07-16T08:45:26Z</time>
      </trkpt>
      <trkpt lat="45.63221" lon="6.59318">
        <ele>1886</ele>
        <time>2022-07-16T08:45:27Z</time>
      </trkpt>
      <trkpt lat="45.63222" lon="6.59321">
        <ele>1887</ele>
        <time>2022-07-16T08:45:30Z</time>
      </trkpt>
      <trkpt lat="45.63223" lon="6.59324">
        <ele>1887</ele>
        <time>2022-07-16T08:45:33Z</time>
      </trkpt>
      <trkpt lat="45.63223" lon="6.59326">
        <ele>1887</ele>
        <time>2022-07-16T08:45:36Z</time>
      </trkpt>
      <trkpt lat="45.63223" lon="6.59329">
        <ele>1888</ele>
        <time>2022-07-16T08:45:38Z</time>
      </trkpt>
      <trkpt lat="45.63221" lon="6.59333">
        <ele>1888</ele>
        <time>2022-07-16T08:45:39Z</time>
      </trkpt>
      <trkpt lat="45.6322" lon="6.59335">
        <ele>1888</ele>
        <time>2022-07-16T08:45:41Z</time>
      </trkpt>
      <trkpt lat="45.63219" lon="6.59338">
        <ele>1888</ele>
        <time>2022-07-16T08:45:43Z</time>
      </trkpt>
      <trkpt lat="45.63218" lon="6.59341">
        <ele>1888</ele>
        <time>2022-07-16T08:45:45Z</time>
      </trkpt>
      <trkpt lat="45.63217" lon="6.59344">
        <ele>1888</ele>
        <time>2022-07-16T08:45:47Z</time>
      </trkpt>
      <trkpt lat="45.63215" lon="6.59348">
        <ele>1889</ele>
        <time>2022-07-16T08:45:49Z</time>
      </trkpt>
      <trkpt lat="45.63214" lon="6.59351">
        <ele>1890</ele>
        <time>2022-07-16T08:45:51Z</time>
      </trkpt>
      <trkpt lat="45.63212" lon="6.59354">
        <ele>1890</ele>
        <time>2022-07-16T08:45:53Z</time>
      </trkpt>
      <trkpt lat="45.63211" lon="6.59358">
        <ele>1890</ele>
        <time>2022-07-16T08:45:55Z</time>
      </trkpt>
      <trkpt lat="45.6321" lon="6.59361">
        <ele>1890</ele>
        <time>2022-07-16T08:45:57Z</time>
      </trkpt>
      <trkpt lat="45.63208" lon="6.59364">
        <ele>1890</ele>
        <time>2022-07-16T08:45:59Z</time>
      </trkpt>
      <trkpt lat="45.63207" lon="6.59367">
        <ele>1890</ele>
        <time>2022-07-16T08:46:01Z</time>
      </trkpt>
      <trkpt lat="45.63206" lon="6.59371">
        <ele>1890</ele>
        <time>2022-07-16T08:46:03Z</time>
      </trkpt>
      <trkpt lat="45.63206" lon="6.59375">
        <ele>1890</ele>
        <time>2022-07-16T08:46:05Z</time>
      </trkpt>
      <trkpt lat="45.63204" lon="6.59378">
        <ele>1890</ele>
        <time>2022-07-16T08:46:07Z</time>
      </trkpt>
      <trkpt lat="45.63203" lon="6.59382">
        <ele>1890</ele>
        <time>2022-07-16T08:46:09Z</time>
      </trkpt>
      <trkpt lat="45.63203" lon="6.59385">
        <ele>1891</ele>
        <time>2022-07-16T08:46:11Z</time>
      </trkpt>
      <trkpt lat="45.63202" lon="6.59388">
        <ele>1891</ele>
        <time>2022-07-16T08:46:14Z</time>
      </trkpt>
      <trkpt lat="45.63202" lon="6.59392">
        <ele>1891</ele>
        <time>2022-07-16T08:46:15Z</time>
      </trkpt>
      <trkpt lat="45.63202" lon="6.59396">
        <ele>1890</ele>
        <time>2022-07-16T08:46:18Z</time>
      </trkpt>
      <trkpt lat="45.63201" lon="6.594">
        <ele>1890</ele>
        <time>2022-07-16T08:46:20Z</time>
      </trkpt>
      <trkpt lat="45.632" lon="6.59404">
        <ele>1890</ele>
        <time>2022-07-16T08:46:21Z</time>
      </trkpt>
      <trkpt lat="45.63199" lon="6.59408">
        <ele>1890</ele>
        <time>2022-07-16T08:46:23Z</time>
      </trkpt>
      <trkpt lat="45.63198" lon="6.59412">
        <ele>1890</ele>
        <time>2022-07-16T08:46:25Z</time>
      </trkpt>
      <trkpt lat="45.63198" lon="6.59416">
        <ele>1890</ele>
        <time>2022-07-16T08:46:27Z</time>
      </trkpt>
      <trkpt lat="45.63198" lon="6.5942">
        <ele>1890</ele>
        <time>2022-07-16T08:46:29Z</time>
      </trkpt>
      <trkpt lat="45.63196" lon="6.59423">
        <ele>1890</ele>
        <time>2022-07-16T08:46:31Z</time>
      </trkpt>
      <trkpt lat="45.63194" lon="6.59426">
        <ele>1890</ele>
        <time>2022-07-16T08:46:33Z</time>
      </trkpt>
      <trkpt lat="45.63191" lon="6.59428">
        <ele>1890</ele>
        <time>2022-07-16T08:46:35Z</time>
      </trkpt>
      <trkpt lat="45.63188" lon="6.59431">
        <ele>1891</ele>
        <time>2022-07-16T08:46:37Z</time>
      </trkpt>
      <trkpt lat="45.63186" lon="6.59433">
        <ele>1891</ele>
        <time>2022-07-16T08:46:40Z</time>
      </trkpt>
      <trkpt lat="45.63186" lon="6.59437">
        <ele>1891</ele>
        <time>2022-07-16T08:46:41Z</time>
      </trkpt>
      <trkpt lat="45.63185" lon="6.5944">
        <ele>1891</ele>
        <time>2022-07-16T08:46:42Z</time>
      </trkpt>
      <trkpt lat="45.63185" lon="6.59443">
        <ele>1891</ele>
        <time>2022-07-16T08:46:43Z</time>
      </trkpt>
      <trkpt lat="45.63185" lon="6.59445">
        <ele>1891</ele>
        <time>2022-07-16T08:46:44Z</time>
      </trkpt>
      <trkpt lat="45.63186" lon="6.59449">
        <ele>1891</ele>
        <time>2022-07-16T08:46:46Z</time>
      </trkpt>
      <trkpt lat="45.63187" lon="6.59452">
        <ele>1890</ele>
        <time>2022-07-16T08:46:48Z</time>
      </trkpt>
      <trkpt lat="45.63188" lon="6.59455">
        <ele>1890</ele>
        <time>2022-07-16T08:46:51Z</time>
      </trkpt>
      <trkpt lat="45.63189" lon="6.59458">
        <ele>1890</ele>
        <time>2022-07-16T08:46:52Z</time>
      </trkpt>
      <trkpt lat="45.63188" lon="6.59461">
        <ele>1890</ele>
        <time>2022-07-16T08:46:55Z</time>
      </trkpt>
      <trkpt lat="45.63186" lon="6.59463">
        <ele>1890</ele>
        <time>2022-07-16T08:46:57Z</time>
      </trkpt>
      <trkpt lat="45.63185" lon="6.59466">
        <ele>1890</ele>
        <time>2022-07-16T08:46:59Z</time>
      </trkpt>
      <trkpt lat="45.63185" lon="6.59469">
        <ele>1890</ele>
        <time>2022-07-16T08:47:01Z</time>
      </trkpt>
      <trkpt lat="45.63184" lon="6.59472">
        <ele>1891</ele>
        <time>2022-07-16T08:47:03Z</time>
      </trkpt>
      <trkpt lat="45.63183" lon="6.59474">
        <ele>1892</ele>
        <time>2022-07-16T08:47:05Z</time>
      </trkpt>
      <trkpt lat="45.63181" lon="6.59476">
        <ele>1892</ele>
        <time>2022-07-16T08:47:07Z</time>
      </trkpt>
      <trkpt lat="45.63179" lon="6.59479">
        <ele>1892</ele>
        <time>2022-07-16T08:47:10Z</time>
      </trkpt>
      <trkpt lat="45.63177" lon="6.59481">
        <ele>1893</ele>
        <time>2022-07-16T08:47:11Z</time>
      </trkpt>
      <trkpt lat="45.63174" lon="6.59482">
        <ele>1893</ele>
        <time>2022-07-16T08:47:14Z</time>
      </trkpt>
      <trkpt lat="45.63172" lon="6.59482">
        <ele>1894</ele>
        <time>2022-07-16T08:47:19Z</time>
      </trkpt>
      <trkpt lat="45.6317" lon="6.59481">
        <ele>1895</ele>
        <time>2022-07-16T08:47:22Z</time>
      </trkpt>
      <trkpt lat="45.63168" lon="6.5948">
        <ele>1895</ele>
        <time>2022-07-16T08:47:24Z</time>
      </trkpt>
      <trkpt lat="45.63166" lon="6.59481">
        <ele>1895</ele>
        <time>2022-07-16T08:47:26Z</time>
      </trkpt>
      <trkpt lat="45.63164" lon="6.59483">
        <ele>1896</ele>
        <time>2022-07-16T08:47:30Z</time>
      </trkpt>
      <trkpt lat="45.63162" lon="6.59485">
        <ele>1896</ele>
        <time>2022-07-16T08:47:32Z</time>
      </trkpt>
      <trkpt lat="45.6316" lon="6.59486">
        <ele>1897</ele>
        <time>2022-07-16T08:47:35Z</time>
      </trkpt>
      <trkpt lat="45.63159" lon="6.59489">
        <ele>1897</ele>
        <time>2022-07-16T08:47:37Z</time>
      </trkpt>
      <trkpt lat="45.63158" lon="6.59492">
        <ele>1898</ele>
        <time>2022-07-16T08:47:39Z</time>
      </trkpt>
      <trkpt lat="45.63158" lon="6.59494">
        <ele>1899</ele>
        <time>2022-07-16T08:47:41Z</time>
      </trkpt>
      <trkpt lat="45.63158" lon="6.59497">
        <ele>1899</ele>
        <time>2022-07-16T08:47:43Z</time>
      </trkpt>
      <trkpt lat="45.63158" lon="6.59501">
        <ele>1900</ele>
        <time>2022-07-16T08:47:46Z</time>
      </trkpt>
      <trkpt lat="45.63159" lon="6.59503">
        <ele>1901</ele>
        <time>2022-07-16T08:47:49Z</time>
      </trkpt>
      <trkpt lat="45.63159" lon="6.59507">
        <ele>1901</ele>
        <time>2022-07-16T08:47:51Z</time>
      </trkpt>
      <trkpt lat="45.63159" lon="6.5951">
        <ele>1901</ele>
        <time>2022-07-16T08:47:53Z</time>
      </trkpt>
      <trkpt lat="45.6316" lon="6.59512">
        <ele>1902</ele>
        <time>2022-07-16T08:47:56Z</time>
      </trkpt>
      <trkpt lat="45.63159" lon="6.59516">
        <ele>1902</ele>
        <time>2022-07-16T08:47:59Z</time>
      </trkpt>
      <trkpt lat="45.63157" lon="6.59519">
        <ele>1902</ele>
        <time>2022-07-16T08:48:01Z</time>
      </trkpt>
      <trkpt lat="45.63157" lon="6.59522">
        <ele>1902</ele>
        <time>2022-07-16T08:48:03Z</time>
      </trkpt>
      <trkpt lat="45.63156" lon="6.59525">
        <ele>1902</ele>
        <time>2022-07-16T08:48:05Z</time>
      </trkpt>
      <trkpt lat="45.63156" lon="6.59528">
        <ele>1903</ele>
        <time>2022-07-16T08:48:08Z</time>
      </trkpt>
      <trkpt lat="45.63155" lon="6.59532">
        <ele>1903</ele>
        <time>2022-07-16T08:48:10Z</time>
      </trkpt>
      <trkpt lat="45.63153" lon="6.59534">
        <ele>1903</ele>
        <time>2022-07-16T08:48:11Z</time>
      </trkpt>
      <trkpt lat="45.63151" lon="6.59536">
        <ele>1903</ele>
        <time>2022-07-16T08:48:13Z</time>
      </trkpt>
      <trkpt lat="45.63148" lon="6.59536">
        <ele>1903</ele>
        <time>2022-07-16T08:48:15Z</time>
      </trkpt>
      <trkpt lat="45.63145" lon="6.59537">
        <ele>1903</ele>
        <time>2022-07-16T08:48:17Z</time>
      </trkpt>
      <trkpt lat="45.63143" lon="6.5954">
        <ele>1903</ele>
        <time>2022-07-16T08:48:19Z</time>
      </trkpt>
      <trkpt lat="45.63142" lon="6.59543">
        <ele>1903</ele>
        <time>2022-07-16T08:48:20Z</time>
      </trkpt>
      <trkpt lat="45.63141" lon="6.59545">
        <ele>1903</ele>
        <time>2022-07-16T08:48:21Z</time>
      </trkpt>
      <trkpt lat="45.63141" lon="6.59551">
        <ele>1903</ele>
        <time>2022-07-16T08:48:23Z</time>
      </trkpt>
      <trkpt lat="45.63141" lon="6.59553">
        <ele>1903</ele>
        <time>2022-07-16T08:48:24Z</time>
      </trkpt>
      <trkpt lat="45.63141" lon="6.59556">
        <ele>1903</ele>
        <time>2022-07-16T08:48:26Z</time>
      </trkpt>
      <trkpt lat="45.63141" lon="6.5956">
        <ele>1903</ele>
        <time>2022-07-16T08:48:27Z</time>
      </trkpt>
      <trkpt lat="45.63141" lon="6.59564">
        <ele>1902</ele>
        <time>2022-07-16T08:48:29Z</time>
      </trkpt>
      <trkpt lat="45.63141" lon="6.59568">
        <ele>1902</ele>
        <time>2022-07-16T08:48:31Z</time>
      </trkpt>
      <trkpt lat="45.63141" lon="6.59571">
        <ele>1902</ele>
        <time>2022-07-16T08:48:34Z</time>
      </trkpt>
      <trkpt lat="45.63141" lon="6.59575">
        <ele>1902</ele>
        <time>2022-07-16T08:48:37Z</time>
      </trkpt>
      <trkpt lat="45.63141" lon="6.59577">
        <ele>1902</ele>
        <time>2022-07-16T08:48:39Z</time>
      </trkpt>
      <trkpt lat="45.63139" lon="6.59579">
        <ele>1902</ele>
        <time>2022-07-16T08:48:41Z</time>
      </trkpt>
      <trkpt lat="45.63136" lon="6.59579">
        <ele>1902</ele>
        <time>2022-07-16T08:48:43Z</time>
      </trkpt>
      <trkpt lat="45.63134" lon="6.59578">
        <ele>1903</ele>
        <time>2022-07-16T08:48:46Z</time>
      </trkpt>
      <trkpt lat="45.63131" lon="6.59576">
        <ele>1903</ele>
        <time>2022-07-16T08:48:47Z</time>
      </trkpt>
      <trkpt lat="45.6313" lon="6.59574">
        <ele>1903</ele>
        <time>2022-07-16T08:48:49Z</time>
      </trkpt>
      <trkpt lat="45.63127" lon="6.59572">
        <ele>1903</ele>
        <time>2022-07-16T08:48:51Z</time>
      </trkpt>
      <trkpt lat="45.63125" lon="6.5957">
        <ele>1904</ele>
        <time>2022-07-16T08:48:53Z</time>
      </trkpt>
      <trkpt lat="45.63123" lon="6.59568">
        <ele>1904</ele>
        <time>2022-07-16T08:48:55Z</time>
      </trkpt>
      <trkpt lat="45.63121" lon="6.59566">
        <ele>1905</ele>
        <time>2022-07-16T08:48:57Z</time>
      </trkpt>
      <trkpt lat="45.63119" lon="6.59566">
        <ele>1905</ele>
        <time>2022-07-16T08:48:59Z</time>
      </trkpt>
      <trkpt lat="45.63116" lon="6.59566">
        <ele>1905</ele>
        <time>2022-07-16T08:49:01Z</time>
      </trkpt>
      <trkpt lat="45.63112" lon="6.59566">
        <ele>1905</ele>
        <time>2022-07-16T08:49:03Z</time>
      </trkpt>
      <trkpt lat="45.63109" lon="6.59565">
        <ele>1904</ele>
        <time>2022-07-16T08:49:05Z</time>
      </trkpt>
      <trkpt lat="45.63106" lon="6.59564">
        <ele>1904</ele>
        <time>2022-07-16T08:49:07Z</time>
      </trkpt>
      <trkpt lat="45.63104" lon="6.59563">
        <ele>1904</ele>
        <time>2022-07-16T08:49:09Z</time>
      </trkpt>
      <trkpt lat="45.63101" lon="6.59562">
        <ele>1905</ele>
        <time>2022-07-16T08:49:11Z</time>
      </trkpt>
      <trkpt lat="45.63099" lon="6.59562">
        <ele>1905</ele>
        <time>2022-07-16T08:49:13Z</time>
      </trkpt>
      <trkpt lat="45.63096" lon="6.59563">
        <ele>1906</ele>
        <time>2022-07-16T08:49:15Z</time>
      </trkpt>
      <trkpt lat="45.63091" lon="6.59564">
        <ele>1906</ele>
        <time>2022-07-16T08:49:18Z</time>
      </trkpt>
      <trkpt lat="45.6309" lon="6.59565">
        <ele>1906</ele>
        <time>2022-07-16T08:49:19Z</time>
      </trkpt>
      <trkpt lat="45.63088" lon="6.59565">
        <ele>1906</ele>
        <time>2022-07-16T08:49:20Z</time>
      </trkpt>
      <trkpt lat="45.63086" lon="6.59566">
        <ele>1906</ele>
        <time>2022-07-16T08:49:21Z</time>
      </trkpt>
      <trkpt lat="45.63084" lon="6.59566">
        <ele>1907</ele>
        <time>2022-07-16T08:49:22Z</time>
      </trkpt>
      <trkpt lat="45.63082" lon="6.59566">
        <ele>1907</ele>
        <time>2022-07-16T08:49:23Z</time>
      </trkpt>
      <trkpt lat="45.6308" lon="6.59567">
        <ele>1907</ele>
        <time>2022-07-16T08:49:24Z</time>
      </trkpt>
      <trkpt lat="45.63078" lon="6.59566">
        <ele>1907</ele>
        <time>2022-07-16T08:49:25Z</time>
      </trkpt>
      <trkpt lat="45.63075" lon="6.59563">
        <ele>1907</ele>
        <time>2022-07-16T08:49:27Z</time>
      </trkpt>
      <trkpt lat="45.63072" lon="6.59562">
        <ele>1907</ele>
        <time>2022-07-16T08:49:29Z</time>
      </trkpt>
      <trkpt lat="45.63069" lon="6.59561">
        <ele>1906</ele>
        <time>2022-07-16T08:49:31Z</time>
      </trkpt>
      <trkpt lat="45.63067" lon="6.5956">
        <ele>1906</ele>
        <time>2022-07-16T08:49:32Z</time>
      </trkpt>
      <trkpt lat="45.63066" lon="6.59558">
        <ele>1906</ele>
        <time>2022-07-16T08:49:33Z</time>
      </trkpt>
      <trkpt lat="45.63064" lon="6.59556">
        <ele>1906</ele>
        <time>2022-07-16T08:49:34Z</time>
      </trkpt>
      <trkpt lat="45.63063" lon="6.59554">
        <ele>1905</ele>
        <time>2022-07-16T08:49:35Z</time>
      </trkpt>
      <trkpt lat="45.63061" lon="6.59552">
        <ele>1905</ele>
        <time>2022-07-16T08:49:36Z</time>
      </trkpt>
      <trkpt lat="45.6306" lon="6.5955">
        <ele>1905</ele>
        <time>2022-07-16T08:49:37Z</time>
      </trkpt>
      <trkpt lat="45.63058" lon="6.59548">
        <ele>1905</ele>
        <time>2022-07-16T08:49:38Z</time>
      </trkpt>
      <trkpt lat="45.63057" lon="6.59545">
        <ele>1905</ele>
        <time>2022-07-16T08:49:39Z</time>
      </trkpt>
      <trkpt lat="45.63056" lon="6.59542">
        <ele>1905</ele>
        <time>2022-07-16T08:49:40Z</time>
      </trkpt>
      <trkpt lat="45.63055" lon="6.59539">
        <ele>1904</ele>
        <time>2022-07-16T08:49:41Z</time>
      </trkpt>
      <trkpt lat="45.63054" lon="6.59536">
        <ele>1904</ele>
        <time>2022-07-16T08:49:42Z</time>
      </trkpt>
      <trkpt lat="45.63053" lon="6.59534">
        <ele>1904</ele>
        <time>2022-07-16T08:49:43Z</time>
      </trkpt>
      <trkpt lat="45.6305" lon="6.5953">
        <ele>1904</ele>
        <time>2022-07-16T08:49:45Z</time>
      </trkpt>
      <trkpt lat="45.63048" lon="6.59529">
        <ele>1903</ele>
        <time>2022-07-16T08:49:46Z</time>
      </trkpt>
      <trkpt lat="45.63046" lon="6.59528">
        <ele>1903</ele>
        <time>2022-07-16T08:49:47Z</time>
      </trkpt>
      <trkpt lat="45.63045" lon="6.59526">
        <ele>1903</ele>
        <time>2022-07-16T08:49:48Z</time>
      </trkpt>
      <trkpt lat="45.63044" lon="6.59523">
        <ele>1902</ele>
        <time>2022-07-16T08:49:49Z</time>
      </trkpt>
      <trkpt lat="45.63042" lon="6.59521">
        <ele>1902</ele>
        <time>2022-07-16T08:49:50Z</time>
      </trkpt>
      <trkpt lat="45.63041" lon="6.59519">
        <ele>1902</ele>
        <time>2022-07-16T08:49:51Z</time>
      </trkpt>
      <trkpt lat="45.6304" lon="6.59516">
        <ele>1902</ele>
        <time>2022-07-16T08:49:53Z</time>
      </trkpt>
      <trkpt lat="45.63038" lon="6.59513">
        <ele>1902</ele>
        <time>2022-07-16T08:49:55Z</time>
      </trkpt>
      <trkpt lat="45.63036" lon="6.59512">
        <ele>1902</ele>
        <time>2022-07-16T08:49:57Z</time>
      </trkpt>
      <trkpt lat="45.63034" lon="6.59511">
        <ele>1902</ele>
        <time>2022-07-16T08:50:00Z</time>
      </trkpt>
      <trkpt lat="45.63032" lon="6.59511">
        <ele>1902</ele>
        <time>2022-07-16T08:50:02Z</time>
      </trkpt>
      <trkpt lat="45.63029" lon="6.59512">
        <ele>1903</ele>
        <time>2022-07-16T08:50:04Z</time>
      </trkpt>
      <trkpt lat="45.63027" lon="6.59514">
        <ele>1904</ele>
        <time>2022-07-16T08:50:07Z</time>
      </trkpt>
      <trkpt lat="45.63026" lon="6.59515">
        <ele>1904</ele>
        <time>2022-07-16T08:50:09Z</time>
      </trkpt>
      <trkpt lat="45.63024" lon="6.59518">
        <ele>1904</ele>
        <time>2022-07-16T08:50:12Z</time>
      </trkpt>
      <trkpt lat="45.63023" lon="6.5952">
        <ele>1905</ele>
        <time>2022-07-16T08:50:14Z</time>
      </trkpt>
      <trkpt lat="45.63022" lon="6.59523">
        <ele>1906</ele>
        <time>2022-07-16T08:50:17Z</time>
      </trkpt>
      <trkpt lat="45.63021" lon="6.59525">
        <ele>1907</ele>
        <time>2022-07-16T08:50:19Z</time>
      </trkpt>
      <trkpt lat="45.63019" lon="6.59527">
        <ele>1907</ele>
        <time>2022-07-16T08:50:21Z</time>
      </trkpt>
      <trkpt lat="45.63017" lon="6.59529">
        <ele>1908</ele>
        <time>2022-07-16T08:50:23Z</time>
      </trkpt>
      <trkpt lat="45.63015" lon="6.59531">
        <ele>1908</ele>
        <time>2022-07-16T08:50:26Z</time>
      </trkpt>
      <trkpt lat="45.63013" lon="6.5953">
        <ele>1908</ele>
        <time>2022-07-16T08:50:28Z</time>
      </trkpt>
      <trkpt lat="45.63011" lon="6.59531">
        <ele>1908</ele>
        <time>2022-07-16T08:50:30Z</time>
      </trkpt>
      <trkpt lat="45.63008" lon="6.59533">
        <ele>1908</ele>
        <time>2022-07-16T08:50:32Z</time>
      </trkpt>
      <trkpt lat="45.63006" lon="6.59536">
        <ele>1908</ele>
        <time>2022-07-16T08:50:34Z</time>
      </trkpt>
      <trkpt lat="45.63004" lon="6.59538">
        <ele>1908</ele>
        <time>2022-07-16T08:50:37Z</time>
      </trkpt>
      <trkpt lat="45.63001" lon="6.59539">
        <ele>1907</ele>
        <time>2022-07-16T08:50:39Z</time>
      </trkpt>
      <trkpt lat="45.62999" lon="6.59541">
        <ele>1907</ele>
        <time>2022-07-16T08:50:40Z</time>
      </trkpt>
      <trkpt lat="45.62997" lon="6.59543">
        <ele>1907</ele>
        <time>2022-07-16T08:50:42Z</time>
      </trkpt>
      <trkpt lat="45.62995" lon="6.59545">
        <ele>1907</ele>
        <time>2022-07-16T08:50:44Z</time>
      </trkpt>
      <trkpt lat="45.62994" lon="6.59547">
        <ele>1907</ele>
        <time>2022-07-16T08:50:46Z</time>
      </trkpt>
      <trkpt lat="45.62992" lon="6.59545">
        <ele>1907</ele>
        <time>2022-07-16T08:50:49Z</time>
      </trkpt>
      <trkpt lat="45.6299" lon="6.59543">
        <ele>1907</ele>
        <time>2022-07-16T08:50:51Z</time>
      </trkpt>
      <trkpt lat="45.62989" lon="6.5954">
        <ele>1907</ele>
        <time>2022-07-16T08:50:54Z</time>
      </trkpt>
      <trkpt lat="45.62989" lon="6.59537">
        <ele>1908</ele>
        <time>2022-07-16T08:50:55Z</time>
      </trkpt>
      <trkpt lat="45.62989" lon="6.59533">
        <ele>1908</ele>
        <time>2022-07-16T08:50:57Z</time>
      </trkpt>
      <trkpt lat="45.62989" lon="6.5953">
        <ele>1908</ele>
        <time>2022-07-16T08:50:59Z</time>
      </trkpt>
      <trkpt lat="45.6299" lon="6.59527">
        <ele>1908</ele>
        <time>2022-07-16T08:51:01Z</time>
      </trkpt>
      <trkpt lat="45.62991" lon="6.59524">
        <ele>1908</ele>
        <time>2022-07-16T08:51:03Z</time>
      </trkpt>
      <trkpt lat="45.62992" lon="6.59521">
        <ele>1908</ele>
        <time>2022-07-16T08:51:05Z</time>
      </trkpt>
      <trkpt lat="45.62992" lon="6.59518">
        <ele>1909</ele>
        <time>2022-07-16T08:51:08Z</time>
      </trkpt>
      <trkpt lat="45.62993" lon="6.59515">
        <ele>1909</ele>
        <time>2022-07-16T08:51:09Z</time>
      </trkpt>
      <trkpt lat="45.62993" lon="6.59512">
        <ele>1910</ele>
        <time>2022-07-16T08:51:11Z</time>
      </trkpt>
      <trkpt lat="45.62993" lon="6.59509">
        <ele>1910</ele>
        <time>2022-07-16T08:51:13Z</time>
      </trkpt>
      <trkpt lat="45.62993" lon="6.59506">
        <ele>1910</ele>
        <time>2022-07-16T08:51:15Z</time>
      </trkpt>
      <trkpt lat="45.62993" lon="6.59503">
        <ele>1910</ele>
        <time>2022-07-16T08:51:17Z</time>
      </trkpt>
      <trkpt lat="45.62992" lon="6.59499">
        <ele>1911</ele>
        <time>2022-07-16T08:51:20Z</time>
      </trkpt>
      <trkpt lat="45.62991" lon="6.59496">
        <ele>1912</ele>
        <time>2022-07-16T08:51:23Z</time>
      </trkpt>
      <trkpt lat="45.6299" lon="6.59492">
        <ele>1913</ele>
        <time>2022-07-16T08:51:26Z</time>
      </trkpt>
      <trkpt lat="45.6299" lon="6.59489">
        <ele>1914</ele>
        <time>2022-07-16T08:51:30Z</time>
      </trkpt>
      <trkpt lat="45.62988" lon="6.59486">
        <ele>1915</ele>
        <time>2022-07-16T08:51:32Z</time>
      </trkpt>
      <trkpt lat="45.62986" lon="6.59484">
        <ele>1915</ele>
        <time>2022-07-16T08:51:35Z</time>
      </trkpt>
      <trkpt lat="45.62984" lon="6.59483">
        <ele>1915</ele>
        <time>2022-07-16T08:51:37Z</time>
      </trkpt>
      <trkpt lat="45.62982" lon="6.59484">
        <ele>1915</ele>
        <time>2022-07-16T08:51:39Z</time>
      </trkpt>
      <trkpt lat="45.62981" lon="6.59486">
        <ele>1916</ele>
        <time>2022-07-16T08:51:41Z</time>
      </trkpt>
      <trkpt lat="45.62979" lon="6.59489">
        <ele>1916</ele>
        <time>2022-07-16T08:51:44Z</time>
      </trkpt>
      <trkpt lat="45.62979" lon="6.59492">
        <ele>1917</ele>
        <time>2022-07-16T08:51:46Z</time>
      </trkpt>
      <trkpt lat="45.62977" lon="6.59495">
        <ele>1917</ele>
        <time>2022-07-16T08:51:49Z</time>
      </trkpt>
      <trkpt lat="45.62976" lon="6.59498">
        <ele>1918</ele>
        <time>2022-07-16T08:51:52Z</time>
      </trkpt>
      <trkpt lat="45.62975" lon="6.59502">
        <ele>1918</ele>
        <time>2022-07-16T08:51:56Z</time>
      </trkpt>
      <trkpt lat="45.62974" lon="6.59504">
        <ele>1918</ele>
        <time>2022-07-16T08:51:57Z</time>
      </trkpt>
      <trkpt lat="45.62972" lon="6.59505">
        <ele>1919</ele>
        <time>2022-07-16T08:51:59Z</time>
      </trkpt>
      <trkpt lat="45.6297" lon="6.59506">
        <ele>1920</ele>
        <time>2022-07-16T08:52:02Z</time>
      </trkpt>
      <trkpt lat="45.62968" lon="6.59507">
        <ele>1921</ele>
        <time>2022-07-16T08:52:05Z</time>
      </trkpt>
      <trkpt lat="45.62966" lon="6.5951">
        <ele>1921</ele>
        <time>2022-07-16T08:52:08Z</time>
      </trkpt>
      <trkpt lat="45.62964" lon="6.59511">
        <ele>1922</ele>
        <time>2022-07-16T08:52:10Z</time>
      </trkpt>
      <trkpt lat="45.62963" lon="6.59513">
        <ele>1922</ele>
        <time>2022-07-16T08:52:12Z</time>
      </trkpt>
      <trkpt lat="45.62962" lon="6.59516">
        <ele>1922</ele>
        <time>2022-07-16T08:52:14Z</time>
      </trkpt>
      <trkpt lat="45.62961" lon="6.59519">
        <ele>1922</ele>
        <time>2022-07-16T08:52:17Z</time>
      </trkpt>
      <trkpt lat="45.6296" lon="6.59522">
        <ele>1922</ele>
        <time>2022-07-16T08:52:18Z</time>
      </trkpt>
      <trkpt lat="45.62958" lon="6.59525">
        <ele>1922</ele>
        <time>2022-07-16T08:52:20Z</time>
      </trkpt>
      <trkpt lat="45.62956" lon="6.59526">
        <ele>1923</ele>
        <time>2022-07-16T08:52:22Z</time>
      </trkpt>
      <trkpt lat="45.62954" lon="6.59526">
        <ele>1923</ele>
        <time>2022-07-16T08:52:24Z</time>
      </trkpt>
      <trkpt lat="45.62952" lon="6.59527">
        <ele>1924</ele>
        <time>2022-07-16T08:52:26Z</time>
      </trkpt>
      <trkpt lat="45.62949" lon="6.59528">
        <ele>1924</ele>
        <time>2022-07-16T08:52:28Z</time>
      </trkpt>
      <trkpt lat="45.62947" lon="6.59529">
        <ele>1924</ele>
        <time>2022-07-16T08:52:30Z</time>
      </trkpt>
      <trkpt lat="45.62945" lon="6.5953">
        <ele>1924</ele>
        <time>2022-07-16T08:52:33Z</time>
      </trkpt>
      <trkpt lat="45.62943" lon="6.59531">
        <ele>1924</ele>
        <time>2022-07-16T08:52:34Z</time>
      </trkpt>
      <trkpt lat="45.62941" lon="6.59532">
        <ele>1924</ele>
        <time>2022-07-16T08:52:36Z</time>
      </trkpt>
      <trkpt lat="45.6294" lon="6.59534">
        <ele>1924</ele>
        <time>2022-07-16T08:52:38Z</time>
      </trkpt>
      <trkpt lat="45.62938" lon="6.59535">
        <ele>1924</ele>
        <time>2022-07-16T08:52:40Z</time>
      </trkpt>
      <trkpt lat="45.62936" lon="6.59537">
        <ele>1925</ele>
        <time>2022-07-16T08:52:42Z</time>
      </trkpt>
      <trkpt lat="45.62934" lon="6.59538">
        <ele>1925</ele>
        <time>2022-07-16T08:52:45Z</time>
      </trkpt>
      <trkpt lat="45.62933" lon="6.59541">
        <ele>1925</ele>
        <time>2022-07-16T08:52:48Z</time>
      </trkpt>
      <trkpt lat="45.62931" lon="6.59543">
        <ele>1926</ele>
        <time>2022-07-16T08:52:50Z</time>
      </trkpt>
      <trkpt lat="45.62929" lon="6.59543">
        <ele>1926</ele>
        <time>2022-07-16T08:52:53Z</time>
      </trkpt>
      <trkpt lat="45.62927" lon="6.59542">
        <ele>1926</ele>
        <time>2022-07-16T08:52:55Z</time>
      </trkpt>
      <trkpt lat="45.62925" lon="6.59541">
        <ele>1927</ele>
        <time>2022-07-16T08:52:57Z</time>
      </trkpt>
      <trkpt lat="45.62923" lon="6.59539">
        <ele>1927</ele>
        <time>2022-07-16T08:52:58Z</time>
      </trkpt>
      <trkpt lat="45.6292" lon="6.59538">
        <ele>1927</ele>
        <time>2022-07-16T08:53:01Z</time>
      </trkpt>
      <trkpt lat="45.62919" lon="6.59538">
        <ele>1928</ele>
        <time>2022-07-16T08:53:03Z</time>
      </trkpt>
      <trkpt lat="45.62917" lon="6.59537">
        <ele>1928</ele>
        <time>2022-07-16T08:53:05Z</time>
      </trkpt>
      <trkpt lat="45.62915" lon="6.59539">
        <ele>1929</ele>
        <time>2022-07-16T08:53:09Z</time>
      </trkpt>
      <trkpt lat="45.62913" lon="6.59542">
        <ele>1929</ele>
        <time>2022-07-16T08:53:11Z</time>
      </trkpt>
      <trkpt lat="45.62912" lon="6.59544">
        <ele>1929</ele>
        <time>2022-07-16T08:53:12Z</time>
      </trkpt>
      <trkpt lat="45.6291" lon="6.59547">
        <ele>1930</ele>
        <time>2022-07-16T08:53:16Z</time>
      </trkpt>
      <trkpt lat="45.62909" lon="6.59549">
        <ele>1931</ele>
        <time>2022-07-16T08:53:17Z</time>
      </trkpt>
      <trkpt lat="45.62908" lon="6.59552">
        <ele>1931</ele>
        <time>2022-07-16T08:53:19Z</time>
      </trkpt>
      <trkpt lat="45.62906" lon="6.59554">
        <ele>1931</ele>
        <time>2022-07-16T08:53:21Z</time>
      </trkpt>
      <trkpt lat="45.62905" lon="6.59556">
        <ele>1931</ele>
        <time>2022-07-16T08:53:23Z</time>
      </trkpt>
      <trkpt lat="45.62903" lon="6.59558">
        <ele>1932</ele>
        <time>2022-07-16T08:53:26Z</time>
      </trkpt>
      <trkpt lat="45.62901" lon="6.5956">
        <ele>1932</ele>
        <time>2022-07-16T08:53:28Z</time>
      </trkpt>
      <trkpt lat="45.629" lon="6.59563">
        <ele>1932</ele>
        <time>2022-07-16T08:53:31Z</time>
      </trkpt>
      <trkpt lat="45.62898" lon="6.59565">
        <ele>1932</ele>
        <time>2022-07-16T08:53:32Z</time>
      </trkpt>
      <trkpt lat="45.62897" lon="6.59567">
        <ele>1932</ele>
        <time>2022-07-16T08:53:34Z</time>
      </trkpt>
      <trkpt lat="45.62894" lon="6.59569">
        <ele>1933</ele>
        <time>2022-07-16T08:53:37Z</time>
      </trkpt>
      <trkpt lat="45.62893" lon="6.59571">
        <ele>1934</ele>
        <time>2022-07-16T08:53:40Z</time>
      </trkpt>
      <trkpt lat="45.62891" lon="6.59574">
        <ele>1934</ele>
        <time>2022-07-16T08:53:43Z</time>
      </trkpt>
      <trkpt lat="45.62889" lon="6.59576">
        <ele>1935</ele>
        <time>2022-07-16T08:53:46Z</time>
      </trkpt>
      <trkpt lat="45.62887" lon="6.59578">
        <ele>1936</ele>
        <time>2022-07-16T08:53:49Z</time>
      </trkpt>
      <trkpt lat="45.62886" lon="6.5958">
        <ele>1936</ele>
        <time>2022-07-16T08:53:51Z</time>
      </trkpt>
      <trkpt lat="45.62884" lon="6.59582">
        <ele>1936</ele>
        <time>2022-07-16T08:53:54Z</time>
      </trkpt>
      <trkpt lat="45.62882" lon="6.59584">
        <ele>1937</ele>
        <time>2022-07-16T08:53:55Z</time>
      </trkpt>
      <trkpt lat="45.6288" lon="6.59586">
        <ele>1937</ele>
        <time>2022-07-16T08:53:58Z</time>
      </trkpt>
      <trkpt lat="45.62879" lon="6.59588">
        <ele>1937</ele>
        <time>2022-07-16T08:54:00Z</time>
      </trkpt>
      <trkpt lat="45.62877" lon="6.59591">
        <ele>1937</ele>
        <time>2022-07-16T08:54:03Z</time>
      </trkpt>
      <trkpt lat="45.62876" lon="6.59593">
        <ele>1937</ele>
        <time>2022-07-16T08:54:04Z</time>
      </trkpt>
      <trkpt lat="45.62874" lon="6.59596">
        <ele>1938</ele>
        <time>2022-07-16T08:54:07Z</time>
      </trkpt>
      <trkpt lat="45.62871" lon="6.59596">
        <ele>1938</ele>
        <time>2022-07-16T08:54:09Z</time>
      </trkpt>
      <trkpt lat="45.62869" lon="6.59596">
        <ele>1938</ele>
        <time>2022-07-16T08:54:11Z</time>
      </trkpt>
      <trkpt lat="45.62867" lon="6.59596">
        <ele>1939</ele>
        <time>2022-07-16T08:54:13Z</time>
      </trkpt>
      <trkpt lat="45.62866" lon="6.59597">
        <ele>1940</ele>
        <time>2022-07-16T08:54:16Z</time>
      </trkpt>
      <trkpt lat="45.62864" lon="6.59599">
        <ele>1940</ele>
        <time>2022-07-16T08:54:18Z</time>
      </trkpt>
      <trkpt lat="45.62863" lon="6.59602">
        <ele>1941</ele>
        <time>2022-07-16T08:54:20Z</time>
      </trkpt>
      <trkpt lat="45.62862" lon="6.59604">
        <ele>1941</ele>
        <time>2022-07-16T08:54:22Z</time>
      </trkpt>
      <trkpt lat="45.6286" lon="6.59606">
        <ele>1941</ele>
        <time>2022-07-16T08:54:24Z</time>
      </trkpt>
      <trkpt lat="45.62858" lon="6.59607">
        <ele>1941</ele>
        <time>2022-07-16T08:54:26Z</time>
      </trkpt>
      <trkpt lat="45.62856" lon="6.59607">
        <ele>1942</ele>
        <time>2022-07-16T08:54:28Z</time>
      </trkpt>
      <trkpt lat="45.62854" lon="6.59607">
        <ele>1942</ele>
        <time>2022-07-16T08:54:30Z</time>
      </trkpt>
      <trkpt lat="45.62852" lon="6.59607">
        <ele>1944</ele>
        <time>2022-07-16T08:54:33Z</time>
      </trkpt>
      <trkpt lat="45.6285" lon="6.59606">
        <ele>1944</ele>
        <time>2022-07-16T08:54:36Z</time>
      </trkpt>
      <trkpt lat="45.62848" lon="6.59605">
        <ele>1944</ele>
        <time>2022-07-16T08:54:38Z</time>
      </trkpt>
      <trkpt lat="45.62846" lon="6.59604">
        <ele>1944</ele>
        <time>2022-07-16T08:54:40Z</time>
      </trkpt>
      <trkpt lat="45.62844" lon="6.59602">
        <ele>1944</ele>
        <time>2022-07-16T08:54:42Z</time>
      </trkpt>
      <trkpt lat="45.62842" lon="6.596">
        <ele>1944</ele>
        <time>2022-07-16T08:54:44Z</time>
      </trkpt>
      <trkpt lat="45.6284" lon="6.59599">
        <ele>1945</ele>
        <time>2022-07-16T08:54:47Z</time>
      </trkpt>
      <trkpt lat="45.62838" lon="6.59598">
        <ele>1946</ele>
        <time>2022-07-16T08:54:48Z</time>
      </trkpt>
      <trkpt lat="45.62836" lon="6.59597">
        <ele>1946</ele>
        <time>2022-07-16T08:54:50Z</time>
      </trkpt>
      <trkpt lat="45.62834" lon="6.59598">
        <ele>1946</ele>
        <time>2022-07-16T08:54:52Z</time>
      </trkpt>
      <trkpt lat="45.62832" lon="6.59599">
        <ele>1946</ele>
        <time>2022-07-16T08:54:54Z</time>
      </trkpt>
      <trkpt lat="45.6283" lon="6.596">
        <ele>1946</ele>
        <time>2022-07-16T08:54:56Z</time>
      </trkpt>
      <trkpt lat="45.62828" lon="6.59599">
        <ele>1947</ele>
        <time>2022-07-16T08:54:59Z</time>
      </trkpt>
      <trkpt lat="45.62825" lon="6.596">
        <ele>1948</ele>
        <time>2022-07-16T08:55:02Z</time>
      </trkpt>
      <trkpt lat="45.62823" lon="6.59601">
        <ele>1949</ele>
        <time>2022-07-16T08:55:05Z</time>
      </trkpt>
      <trkpt lat="45.62821" lon="6.59601">
        <ele>1949</ele>
        <time>2022-07-16T08:55:08Z</time>
      </trkpt>
      <trkpt lat="45.62819" lon="6.59602">
        <ele>1949</ele>
        <time>2022-07-16T08:55:09Z</time>
      </trkpt>
      <trkpt lat="45.62817" lon="6.59602">
        <ele>1949</ele>
        <time>2022-07-16T08:55:11Z</time>
      </trkpt>
      <trkpt lat="45.62815" lon="6.59601">
        <ele>1950</ele>
        <time>2022-07-16T08:55:13Z</time>
      </trkpt>
      <trkpt lat="45.62813" lon="6.59599">
        <ele>1951</ele>
        <time>2022-07-16T08:55:17Z</time>
      </trkpt>
      <trkpt lat="45.62811" lon="6.59599">
        <ele>1951</ele>
        <time>2022-07-16T08:55:18Z</time>
      </trkpt>
      <trkpt lat="45.62809" lon="6.596">
        <ele>1951</ele>
        <time>2022-07-16T08:55:20Z</time>
      </trkpt>
      <trkpt lat="45.62806" lon="6.59601">
        <ele>1951</ele>
        <time>2022-07-16T08:55:22Z</time>
      </trkpt>
      <trkpt lat="45.62804" lon="6.59603">
        <ele>1951</ele>
        <time>2022-07-16T08:55:24Z</time>
      </trkpt>
      <trkpt lat="45.62801" lon="6.59604">
        <ele>1951</ele>
        <time>2022-07-16T08:55:26Z</time>
      </trkpt>
      <trkpt lat="45.62799" lon="6.59605">
        <ele>1951</ele>
        <time>2022-07-16T08:55:29Z</time>
      </trkpt>
      <trkpt lat="45.62796" lon="6.59607">
        <ele>1951</ele>
        <time>2022-07-16T08:55:30Z</time>
      </trkpt>
      <trkpt lat="45.62794" lon="6.59608">
        <ele>1951</ele>
        <time>2022-07-16T08:55:32Z</time>
      </trkpt>
      <trkpt lat="45.62792" lon="6.5961">
        <ele>1952</ele>
        <time>2022-07-16T08:55:34Z</time>
      </trkpt>
      <trkpt lat="45.62789" lon="6.59613">
        <ele>1952</ele>
        <time>2022-07-16T08:55:36Z</time>
      </trkpt>
      <trkpt lat="45.62788" lon="6.59616">
        <ele>1952</ele>
        <time>2022-07-16T08:55:38Z</time>
      </trkpt>
      <trkpt lat="45.62786" lon="6.59619">
        <ele>1952</ele>
        <time>2022-07-16T08:55:40Z</time>
      </trkpt>
      <trkpt lat="45.62784" lon="6.59621">
        <ele>1952</ele>
        <time>2022-07-16T08:55:43Z</time>
      </trkpt>
      <trkpt lat="45.62782" lon="6.59624">
        <ele>1952</ele>
        <time>2022-07-16T08:55:44Z</time>
      </trkpt>
      <trkpt lat="45.6278" lon="6.59627">
        <ele>1952</ele>
        <time>2022-07-16T08:55:46Z</time>
      </trkpt>
      <trkpt lat="45.62778" lon="6.59629">
        <ele>1952</ele>
        <time>2022-07-16T08:55:49Z</time>
      </trkpt>
      <trkpt lat="45.62776" lon="6.59632">
        <ele>1952</ele>
        <time>2022-07-16T08:55:50Z</time>
      </trkpt>
      <trkpt lat="45.62774" lon="6.59635">
        <ele>1952</ele>
        <time>2022-07-16T08:55:52Z</time>
      </trkpt>
      <trkpt lat="45.62773" lon="6.59637">
        <ele>1952</ele>
        <time>2022-07-16T08:55:54Z</time>
      </trkpt>
      <trkpt lat="45.62772" lon="6.5964">
        <ele>1952</ele>
        <time>2022-07-16T08:55:56Z</time>
      </trkpt>
      <trkpt lat="45.6277" lon="6.59643">
        <ele>1952</ele>
        <time>2022-07-16T08:55:58Z</time>
      </trkpt>
      <trkpt lat="45.62768" lon="6.59645">
        <ele>1952</ele>
        <time>2022-07-16T08:56:01Z</time>
      </trkpt>
      <trkpt lat="45.62767" lon="6.59648">
        <ele>1952</ele>
        <time>2022-07-16T08:56:03Z</time>
      </trkpt>
      <trkpt lat="45.62766" lon="6.59651">
        <ele>1952</ele>
        <time>2022-07-16T08:56:04Z</time>
      </trkpt>
      <trkpt lat="45.62765" lon="6.59654">
        <ele>1953</ele>
        <time>2022-07-16T08:56:06Z</time>
      </trkpt>
      <trkpt lat="45.62764" lon="6.59658">
        <ele>1953</ele>
        <time>2022-07-16T08:56:08Z</time>
      </trkpt>
      <trkpt lat="45.62763" lon="6.59662">
        <ele>1953</ele>
        <time>2022-07-16T08:56:10Z</time>
      </trkpt>
      <trkpt lat="45.62762" lon="6.59665">
        <ele>1953</ele>
        <time>2022-07-16T08:56:12Z</time>
      </trkpt>
      <trkpt lat="45.62761" lon="6.59668">
        <ele>1953</ele>
        <time>2022-07-16T08:56:15Z</time>
      </trkpt>
      <trkpt lat="45.6276" lon="6.59672">
        <ele>1953</ele>
        <time>2022-07-16T08:56:16Z</time>
      </trkpt>
      <trkpt lat="45.62759" lon="6.59675">
        <ele>1953</ele>
        <time>2022-07-16T08:56:18Z</time>
      </trkpt>
      <trkpt lat="45.62759" lon="6.59678">
        <ele>1953</ele>
        <time>2022-07-16T08:56:21Z</time>
      </trkpt>
      <trkpt lat="45.62758" lon="6.59682">
        <ele>1953</ele>
        <time>2022-07-16T08:56:22Z</time>
      </trkpt>
      <trkpt lat="45.62756" lon="6.59685">
        <ele>1953</ele>
        <time>2022-07-16T08:56:25Z</time>
      </trkpt>
      <trkpt lat="45.62755" lon="6.59688">
        <ele>1953</ele>
        <time>2022-07-16T08:56:27Z</time>
      </trkpt>
      <trkpt lat="45.62754" lon="6.59692">
        <ele>1953</ele>
        <time>2022-07-16T08:56:28Z</time>
      </trkpt>
      <trkpt lat="45.62753" lon="6.59695">
        <ele>1953</ele>
        <time>2022-07-16T08:56:30Z</time>
      </trkpt>
      <trkpt lat="45.62752" lon="6.59698">
        <ele>1954</ele>
        <time>2022-07-16T08:56:32Z</time>
      </trkpt>
      <trkpt lat="45.6275" lon="6.59702">
        <ele>1954</ele>
        <time>2022-07-16T08:56:34Z</time>
      </trkpt>
      <trkpt lat="45.62749" lon="6.59705">
        <ele>1954</ele>
        <time>2022-07-16T08:56:36Z</time>
      </trkpt>
      <trkpt lat="45.62748" lon="6.59708">
        <ele>1954</ele>
        <time>2022-07-16T08:56:38Z</time>
      </trkpt>
      <trkpt lat="45.62746" lon="6.59712">
        <ele>1954</ele>
        <time>2022-07-16T08:56:40Z</time>
      </trkpt>
      <trkpt lat="45.62745" lon="6.59714">
        <ele>1954</ele>
        <time>2022-07-16T08:56:42Z</time>
      </trkpt>
      <trkpt lat="45.62744" lon="6.59718">
        <ele>1954</ele>
        <time>2022-07-16T08:56:44Z</time>
      </trkpt>
      <trkpt lat="45.62743" lon="6.59721">
        <ele>1954</ele>
        <time>2022-07-16T08:56:46Z</time>
      </trkpt>
      <trkpt lat="45.62742" lon="6.59724">
        <ele>1955</ele>
        <time>2022-07-16T08:56:48Z</time>
      </trkpt>
      <trkpt lat="45.62741" lon="6.59727">
        <ele>1955</ele>
        <time>2022-07-16T08:56:50Z</time>
      </trkpt>
      <trkpt lat="45.6274" lon="6.5973">
        <ele>1955</ele>
        <time>2022-07-16T08:56:53Z</time>
      </trkpt>
      <trkpt lat="45.62739" lon="6.59734">
        <ele>1956</ele>
        <time>2022-07-16T08:56:55Z</time>
      </trkpt>
      <trkpt lat="45.62738" lon="6.59737">
        <ele>1956</ele>
        <time>2022-07-16T08:56:56Z</time>
      </trkpt>
      <trkpt lat="45.62737" lon="6.5974">
        <ele>1956</ele>
        <time>2022-07-16T08:56:59Z</time>
      </trkpt>
      <trkpt lat="45.62735" lon="6.59743">
        <ele>1956</ele>
        <time>2022-07-16T08:57:00Z</time>
      </trkpt>
      <trkpt lat="45.62734" lon="6.59745">
        <ele>1956</ele>
        <time>2022-07-16T08:57:02Z</time>
      </trkpt>
      <trkpt lat="45.62733" lon="6.59749">
        <ele>1956</ele>
        <time>2022-07-16T08:57:05Z</time>
      </trkpt>
      <trkpt lat="45.62732" lon="6.59752">
        <ele>1956</ele>
        <time>2022-07-16T08:57:06Z</time>
      </trkpt>
      <trkpt lat="45.62731" lon="6.59755">
        <ele>1957</ele>
        <time>2022-07-16T08:57:08Z</time>
      </trkpt>
      <trkpt lat="45.6273" lon="6.59758">
        <ele>1958</ele>
        <time>2022-07-16T08:57:11Z</time>
      </trkpt>
      <trkpt lat="45.62729" lon="6.59761">
        <ele>1958</ele>
        <time>2022-07-16T08:57:12Z</time>
      </trkpt>
      <trkpt lat="45.62728" lon="6.59764">
        <ele>1957</ele>
        <time>2022-07-16T08:57:14Z</time>
      </trkpt>
      <trkpt lat="45.62727" lon="6.59767">
        <ele>1958</ele>
        <time>2022-07-16T08:57:16Z</time>
      </trkpt>
      <trkpt lat="45.62728" lon="6.5977">
        <ele>1958</ele>
        <time>2022-07-16T08:57:19Z</time>
      </trkpt>
      <trkpt lat="45.62728" lon="6.59774">
        <ele>1958</ele>
        <time>2022-07-16T08:57:20Z</time>
      </trkpt>
      <trkpt lat="45.62728" lon="6.59777">
        <ele>1958</ele>
        <time>2022-07-16T08:57:23Z</time>
      </trkpt>
      <trkpt lat="45.62728" lon="6.59781">
        <ele>1958</ele>
        <time>2022-07-16T08:57:24Z</time>
      </trkpt>
      <trkpt lat="45.62728" lon="6.59784">
        <ele>1959</ele>
        <time>2022-07-16T08:57:26Z</time>
      </trkpt>
      <trkpt lat="45.62729" lon="6.59787">
        <ele>1959</ele>
        <time>2022-07-16T08:57:28Z</time>
      </trkpt>
      <trkpt lat="45.6273" lon="6.5979">
        <ele>1959</ele>
        <time>2022-07-16T08:57:30Z</time>
      </trkpt>
      <trkpt lat="45.62731" lon="6.59794">
        <ele>1959</ele>
        <time>2022-07-16T08:57:33Z</time>
      </trkpt>
      <trkpt lat="45.62732" lon="6.59797">
        <ele>1960</ele>
        <time>2022-07-16T08:57:35Z</time>
      </trkpt>
      <trkpt lat="45.62733" lon="6.598">
        <ele>1962</ele>
        <time>2022-07-16T08:57:38Z</time>
      </trkpt>
      <trkpt lat="45.62732" lon="6.59803">
        <ele>1962</ele>
        <time>2022-07-16T08:57:39Z</time>
      </trkpt>
      <trkpt lat="45.6273" lon="6.59806">
        <ele>1962</ele>
        <time>2022-07-16T08:57:42Z</time>
      </trkpt>
      <trkpt lat="45.62728" lon="6.59808">
        <ele>1962</ele>
        <time>2022-07-16T08:57:43Z</time>
      </trkpt>
      <trkpt lat="45.62726" lon="6.5981">
        <ele>1962</ele>
        <time>2022-07-16T08:57:46Z</time>
      </trkpt>
      <trkpt lat="45.62723" lon="6.59811">
        <ele>1962</ele>
        <time>2022-07-16T08:57:47Z</time>
      </trkpt>
      <trkpt lat="45.62721" lon="6.59811">
        <ele>1962</ele>
        <time>2022-07-16T08:57:49Z</time>
      </trkpt>
      <trkpt lat="45.62718" lon="6.5981">
        <ele>1962</ele>
        <time>2022-07-16T08:57:52Z</time>
      </trkpt>
      <trkpt lat="45.62715" lon="6.59809">
        <ele>1962</ele>
        <time>2022-07-16T08:57:53Z</time>
      </trkpt>
      <trkpt lat="45.62713" lon="6.59808">
        <ele>1963</ele>
        <time>2022-07-16T08:57:56Z</time>
      </trkpt>
      <trkpt lat="45.62711" lon="6.59808">
        <ele>1963</ele>
        <time>2022-07-16T08:57:57Z</time>
      </trkpt>
      <trkpt lat="45.62709" lon="6.59809">
        <ele>1963</ele>
        <time>2022-07-16T08:57:59Z</time>
      </trkpt>
      <trkpt lat="45.62707" lon="6.59811">
        <ele>1964</ele>
        <time>2022-07-16T08:58:02Z</time>
      </trkpt>
      <trkpt lat="45.62706" lon="6.59814">
        <ele>1966</ele>
        <time>2022-07-16T08:58:05Z</time>
      </trkpt>
      <trkpt lat="45.62707" lon="6.59818">
        <ele>1966</ele>
        <time>2022-07-16T08:58:08Z</time>
      </trkpt>
      <trkpt lat="45.62707" lon="6.59821">
        <ele>1967</ele>
        <time>2022-07-16T08:58:11Z</time>
      </trkpt>
      <trkpt lat="45.62707" lon="6.59824">
        <ele>1967</ele>
        <time>2022-07-16T08:58:12Z</time>
      </trkpt>
      <trkpt lat="45.62707" lon="6.59827">
        <ele>1967</ele>
        <time>2022-07-16T08:58:16Z</time>
      </trkpt>
      <trkpt lat="45.62707" lon="6.5983">
        <ele>1967</ele>
        <time>2022-07-16T08:58:17Z</time>
      </trkpt>
      <trkpt lat="45.62707" lon="6.59833">
        <ele>1967</ele>
        <time>2022-07-16T08:58:19Z</time>
      </trkpt>
      <trkpt lat="45.62707" lon="6.59836">
        <ele>1967</ele>
        <time>2022-07-16T08:58:21Z</time>
      </trkpt>
      <trkpt lat="45.62706" lon="6.59839">
        <ele>1969</ele>
        <time>2022-07-16T08:58:24Z</time>
      </trkpt>
      <trkpt lat="45.62705" lon="6.59841">
        <ele>1969</ele>
        <time>2022-07-16T08:58:27Z</time>
      </trkpt>
      <trkpt lat="45.62705" lon="6.59844">
        <ele>1969</ele>
        <time>2022-07-16T08:58:29Z</time>
      </trkpt>
      <trkpt lat="45.62705" lon="6.59848">
        <ele>1969</ele>
        <time>2022-07-16T08:58:31Z</time>
      </trkpt>
      <trkpt lat="45.62704" lon="6.5985">
        <ele>1970</ele>
        <time>2022-07-16T08:58:33Z</time>
      </trkpt>
      <trkpt lat="45.62703" lon="6.59852">
        <ele>1970</ele>
        <time>2022-07-16T08:58:35Z</time>
      </trkpt>
      <trkpt lat="45.62702" lon="6.59855">
        <ele>1971</ele>
        <time>2022-07-16T08:58:38Z</time>
      </trkpt>
      <trkpt lat="45.62702" lon="6.59858">
        <ele>1971</ele>
        <time>2022-07-16T08:58:41Z</time>
      </trkpt>
      <trkpt lat="45.62701" lon="6.59861">
        <ele>1971</ele>
        <time>2022-07-16T08:58:44Z</time>
      </trkpt>
      <trkpt lat="45.62702" lon="6.59864">
        <ele>1973</ele>
        <time>2022-07-16T08:58:47Z</time>
      </trkpt>
      <trkpt lat="45.62703" lon="6.59867">
        <ele>1974</ele>
        <time>2022-07-16T08:58:50Z</time>
      </trkpt>
      <trkpt lat="45.62703" lon="6.5987">
        <ele>1974</ele>
        <time>2022-07-16T08:58:54Z</time>
      </trkpt>
      <trkpt lat="45.62702" lon="6.59873">
        <ele>1974</ele>
        <time>2022-07-16T08:58:56Z</time>
      </trkpt>
      <trkpt lat="45.627" lon="6.59874">
        <ele>1975</ele>
        <time>2022-07-16T08:58:58Z</time>
      </trkpt>
      <trkpt lat="45.62698" lon="6.59875">
        <ele>1975</ele>
        <time>2022-07-16T08:59:00Z</time>
      </trkpt>
      <trkpt lat="45.62696" lon="6.59876">
        <ele>1976</ele>
        <time>2022-07-16T08:59:03Z</time>
      </trkpt>
      <trkpt lat="45.62694" lon="6.59877">
        <ele>1976</ele>
        <time>2022-07-16T08:59:06Z</time>
      </trkpt>
      <trkpt lat="45.62692" lon="6.59878">
        <ele>1977</ele>
        <time>2022-07-16T08:59:09Z</time>
      </trkpt>
      <trkpt lat="45.6269" lon="6.59879">
        <ele>1977</ele>
        <time>2022-07-16T08:59:11Z</time>
      </trkpt>
      <trkpt lat="45.62688" lon="6.5988">
        <ele>1977</ele>
        <time>2022-07-16T08:59:14Z</time>
      </trkpt>
      <trkpt lat="45.62686" lon="6.5988">
        <ele>1977</ele>
        <time>2022-07-16T08:59:17Z</time>
      </trkpt>
      <trkpt lat="45.62684" lon="6.59878">
        <ele>1979</ele>
        <time>2022-07-16T08:59:19Z</time>
      </trkpt>
      <trkpt lat="45.62683" lon="6.59877">
        <ele>1979</ele>
        <time>2022-07-16T08:59:22Z</time>
      </trkpt>
      <trkpt lat="45.62681" lon="6.59876">
        <ele>1979</ele>
        <time>2022-07-16T08:59:23Z</time>
      </trkpt>
      <trkpt lat="45.62678" lon="6.59875">
        <ele>1979</ele>
        <time>2022-07-16T08:59:25Z</time>
      </trkpt>
      <trkpt lat="45.62677" lon="6.59874">
        <ele>1980</ele>
        <time>2022-07-16T08:59:27Z</time>
      </trkpt>
      <trkpt lat="45.62675" lon="6.59877">
        <ele>1980</ele>
        <time>2022-07-16T08:59:31Z</time>
      </trkpt>
      <trkpt lat="45.62675" lon="6.5988">
        <ele>1981</ele>
        <time>2022-07-16T08:59:33Z</time>
      </trkpt>
      <trkpt lat="45.62675" lon="6.59883">
        <ele>1982</ele>
        <time>2022-07-16T08:59:35Z</time>
      </trkpt>
      <trkpt lat="45.62676" lon="6.59886">
        <ele>1982</ele>
        <time>2022-07-16T08:59:37Z</time>
      </trkpt>
      <trkpt lat="45.62676" lon="6.59888">
        <ele>1982</ele>
        <time>2022-07-16T08:59:39Z</time>
      </trkpt>
      <trkpt lat="45.62677" lon="6.59892">
        <ele>1983</ele>
        <time>2022-07-16T08:59:42Z</time>
      </trkpt>
      <trkpt lat="45.62678" lon="6.59894">
        <ele>1983</ele>
        <time>2022-07-16T08:59:44Z</time>
      </trkpt>
      <trkpt lat="45.62679" lon="6.59896">
        <ele>1984</ele>
        <time>2022-07-16T08:59:47Z</time>
      </trkpt>
      <trkpt lat="45.62681" lon="6.59898">
        <ele>1985</ele>
        <time>2022-07-16T08:59:51Z</time>
      </trkpt>
      <trkpt lat="45.62683" lon="6.599">
        <ele>1985</ele>
        <time>2022-07-16T08:59:53Z</time>
      </trkpt>
      <trkpt lat="45.62684" lon="6.59903">
        <ele>1985</ele>
        <time>2022-07-16T08:59:56Z</time>
      </trkpt>
      <trkpt lat="45.62685" lon="6.59905">
        <ele>1988</ele>
        <time>2022-07-16T09:00:00Z</time>
      </trkpt>
      <trkpt lat="45.62685" lon="6.59908">
        <ele>1988</ele>
        <time>2022-07-16T09:00:03Z</time>
      </trkpt>
      <trkpt lat="45.62686" lon="6.59911">
        <ele>1988</ele>
        <time>2022-07-16T09:00:06Z</time>
      </trkpt>
      <trkpt lat="45.62687" lon="6.59914">
        <ele>1989</ele>
        <time>2022-07-16T09:00:09Z</time>
      </trkpt>
      <trkpt lat="45.62687" lon="6.59918">
        <ele>1990</ele>
        <time>2022-07-16T09:00:13Z</time>
      </trkpt>
      <trkpt lat="45.62688" lon="6.5992">
        <ele>1990</ele>
        <time>2022-07-16T09:00:15Z</time>
      </trkpt>
      <trkpt lat="45.62689" lon="6.59923">
        <ele>1990</ele>
        <time>2022-07-16T09:00:17Z</time>
      </trkpt>
      <trkpt lat="45.6269" lon="6.59925">
        <ele>1991</ele>
        <time>2022-07-16T09:00:20Z</time>
      </trkpt>
      <trkpt lat="45.6269" lon="6.59928">
        <ele>1991</ele>
        <time>2022-07-16T09:00:24Z</time>
      </trkpt>
      <trkpt lat="45.6269" lon="6.5993">
        <ele>1992</ele>
        <time>2022-07-16T09:00:28Z</time>
      </trkpt>
      <trkpt lat="45.6269" lon="6.59934">
        <ele>1993</ele>
        <time>2022-07-16T09:00:33Z</time>
      </trkpt>
      <trkpt lat="45.62692" lon="6.59936">
        <ele>1994</ele>
        <time>2022-07-16T09:00:36Z</time>
      </trkpt>
      <trkpt lat="45.62694" lon="6.59938">
        <ele>1994</ele>
        <time>2022-07-16T09:00:40Z</time>
      </trkpt>
      <trkpt lat="45.62695" lon="6.59941">
        <ele>1995</ele>
        <time>2022-07-16T09:00:43Z</time>
      </trkpt>
      <trkpt lat="45.62697" lon="6.59943">
        <ele>1996</ele>
        <time>2022-07-16T09:00:47Z</time>
      </trkpt>
      <trkpt lat="45.62699" lon="6.59946">
        <ele>1997</ele>
        <time>2022-07-16T09:00:50Z</time>
      </trkpt>
      <trkpt lat="45.627" lon="6.59949">
        <ele>1998</ele>
        <time>2022-07-16T09:00:53Z</time>
      </trkpt>
      <trkpt lat="45.627" lon="6.59951">
        <ele>1998</ele>
        <time>2022-07-16T09:00:56Z</time>
      </trkpt>
      <trkpt lat="45.62701" lon="6.59954">
        <ele>1999</ele>
        <time>2022-07-16T09:01:00Z</time>
      </trkpt>
      <trkpt lat="45.62703" lon="6.59957">
        <ele>1999</ele>
        <time>2022-07-16T09:01:03Z</time>
      </trkpt>
      <trkpt lat="45.62704" lon="6.5996">
        <ele>2000</ele>
        <time>2022-07-16T09:01:06Z</time>
      </trkpt>
      <trkpt lat="45.62705" lon="6.59962">
        <ele>2000</ele>
        <time>2022-07-16T09:01:09Z</time>
      </trkpt>
      <trkpt lat="45.62706" lon="6.59965">
        <ele>2000</ele>
        <time>2022-07-16T09:01:12Z</time>
      </trkpt>
      <trkpt lat="45.62707" lon="6.59968">
        <ele>2002</ele>
        <time>2022-07-16T09:01:16Z</time>
      </trkpt>
      <trkpt lat="45.62709" lon="6.5997">
        <ele>2002</ele>
        <time>2022-07-16T09:01:19Z</time>
      </trkpt>
      <trkpt lat="45.6271" lon="6.59972">
        <ele>2003</ele>
        <time>2022-07-16T09:01:22Z</time>
      </trkpt>
      <trkpt lat="45.62712" lon="6.59976">
        <ele>2004</ele>
        <time>2022-07-16T09:01:26Z</time>
      </trkpt>
      <trkpt lat="45.62713" lon="6.59978">
        <ele>2004</ele>
        <time>2022-07-16T09:01:29Z</time>
      </trkpt>
      <trkpt lat="45.62713" lon="6.59981">
        <ele>2004</ele>
        <time>2022-07-16T09:01:32Z</time>
      </trkpt>
      <trkpt lat="45.62714" lon="6.59983">
        <ele>2006</ele>
        <time>2022-07-16T09:01:36Z</time>
      </trkpt>
      <trkpt lat="45.62715" lon="6.59986">
        <ele>2006</ele>
        <time>2022-07-16T09:01:41Z</time>
      </trkpt>
      <trkpt lat="45.62717" lon="6.59987">
        <ele>2007</ele>
        <time>2022-07-16T09:01:44Z</time>
      </trkpt>
      <trkpt lat="45.62717" lon="6.5999">
        <ele>2008</ele>
        <time>2022-07-16T09:01:48Z</time>
      </trkpt>
      <trkpt lat="45.62717" lon="6.59993">
        <ele>2008</ele>
        <time>2022-07-16T09:01:51Z</time>
      </trkpt>
      <trkpt lat="45.62716" lon="6.59997">
        <ele>2008</ele>
        <time>2022-07-16T09:01:54Z</time>
      </trkpt>
      <trkpt lat="45.62716" lon="6.6">
        <ele>2009</ele>
        <time>2022-07-16T09:01:56Z</time>
      </trkpt>
      <trkpt lat="45.62716" lon="6.60003">
        <ele>2009</ele>
        <time>2022-07-16T09:01:59Z</time>
      </trkpt>
      <trkpt lat="45.62716" lon="6.60007">
        <ele>2010</ele>
        <time>2022-07-16T09:02:02Z</time>
      </trkpt>
      <trkpt lat="45.62715" lon="6.6001">
        <ele>2011</ele>
        <time>2022-07-16T09:02:06Z</time>
      </trkpt>
      <trkpt lat="45.62715" lon="6.60013">
        <ele>2012</ele>
        <time>2022-07-16T09:02:08Z</time>
      </trkpt>
      <trkpt lat="45.62715" lon="6.60016">
        <ele>2012</ele>
        <time>2022-07-16T09:02:11Z</time>
      </trkpt>
      <trkpt lat="45.62716" lon="6.60019">
        <ele>2014</ele>
        <time>2022-07-16T09:02:14Z</time>
      </trkpt>
      <trkpt lat="45.62717" lon="6.60022">
        <ele>2014</ele>
        <time>2022-07-16T09:02:17Z</time>
      </trkpt>
      <trkpt lat="45.62717" lon="6.60024">
        <ele>2015</ele>
        <time>2022-07-16T09:02:20Z</time>
      </trkpt>
      <trkpt lat="45.62718" lon="6.60027">
        <ele>2015</ele>
        <time>2022-07-16T09:02:23Z</time>
      </trkpt>
      <trkpt lat="45.62719" lon="6.60029">
        <ele>2016</ele>
        <time>2022-07-16T09:02:26Z</time>
      </trkpt>
      <trkpt lat="45.6272" lon="6.60032">
        <ele>2017</ele>
        <time>2022-07-16T09:02:30Z</time>
      </trkpt>
      <trkpt lat="45.6272" lon="6.60035">
        <ele>2017</ele>
        <time>2022-07-16T09:02:33Z</time>
      </trkpt>
      <trkpt lat="45.6272" lon="6.60038">
        <ele>2017</ele>
        <time>2022-07-16T09:02:35Z</time>
      </trkpt>
      <trkpt lat="45.6272" lon="6.60042">
        <ele>2018</ele>
        <time>2022-07-16T09:02:38Z</time>
      </trkpt>
      <trkpt lat="45.6272" lon="6.60045">
        <ele>2018</ele>
        <time>2022-07-16T09:02:40Z</time>
      </trkpt>
      <trkpt lat="45.6272" lon="6.60048">
        <ele>2019</ele>
        <time>2022-07-16T09:02:43Z</time>
      </trkpt>
      <trkpt lat="45.6272" lon="6.60051">
        <ele>2019</ele>
        <time>2022-07-16T09:02:46Z</time>
      </trkpt>
      <trkpt lat="45.62721" lon="6.60054">
        <ele>2019</ele>
        <time>2022-07-16T09:02:49Z</time>
      </trkpt>
      <trkpt lat="45.62721" lon="6.60057">
        <ele>2020</ele>
        <time>2022-07-16T09:02:52Z</time>
      </trkpt>
      <trkpt lat="45.6272" lon="6.60061">
        <ele>2021</ele>
        <time>2022-07-16T09:02:55Z</time>
      </trkpt>
      <trkpt lat="45.62719" lon="6.60064">
        <ele>2022</ele>
        <time>2022-07-16T09:02:58Z</time>
      </trkpt>
      <trkpt lat="45.62719" lon="6.60068">
        <ele>2022</ele>
        <time>2022-07-16T09:03:00Z</time>
      </trkpt>
      <trkpt lat="45.62718" lon="6.60071">
        <ele>2022</ele>
        <time>2022-07-16T09:03:03Z</time>
      </trkpt>
      <trkpt lat="45.62717" lon="6.60073">
        <ele>2022</ele>
        <time>2022-07-16T09:03:04Z</time>
      </trkpt>
      <trkpt lat="45.62716" lon="6.60076">
        <ele>2022</ele>
        <time>2022-07-16T09:03:06Z</time>
      </trkpt>
      <trkpt lat="45.62715" lon="6.60078">
        <ele>2022</ele>
        <time>2022-07-16T09:03:08Z</time>
      </trkpt>
      <trkpt lat="45.62714" lon="6.6008">
        <ele>2022</ele>
        <time>2022-07-16T09:03:11Z</time>
      </trkpt>
      <trkpt lat="45.62712" lon="6.60082">
        <ele>2022</ele>
        <time>2022-07-16T09:03:12Z</time>
      </trkpt>
      <trkpt lat="45.6271" lon="6.60083">
        <ele>2023</ele>
        <time>2022-07-16T09:03:14Z</time>
      </trkpt>
      <trkpt lat="45.62708" lon="6.60084">
        <ele>2023</ele>
        <time>2022-07-16T09:03:17Z</time>
      </trkpt>
      <trkpt lat="45.62707" lon="6.60087">
        <ele>2023</ele>
        <time>2022-07-16T09:03:20Z</time>
      </trkpt>
      <trkpt lat="45.62707" lon="6.60087">
        <ele>2022</ele>
        <time>2022-07-16T09:03:31Z</time>
      </trkpt>
      <trkpt lat="45.62707" lon="6.60087">
        <ele>2023</ele>
        <time>2022-07-16T09:03:47Z</time>
      </trkpt>
      <trkpt lat="45.62707" lon="6.60087">
        <ele>2022</ele>
        <time>2022-07-16T09:04:03Z</time>
      </trkpt>
      <trkpt lat="45.62706" lon="6.60084">
        <ele>2022</ele>
        <time>2022-07-16T09:04:16Z</time>
      </trkpt>
      <trkpt lat="45.62703" lon="6.60083">
        <ele>2022</ele>
        <time>2022-07-16T09:04:18Z</time>
      </trkpt>
      <trkpt lat="45.62701" lon="6.60081">
        <ele>2023</ele>
        <time>2022-07-16T09:04:21Z</time>
      </trkpt>
      <trkpt lat="45.627" lon="6.60079">
        <ele>2023</ele>
        <time>2022-07-16T09:04:22Z</time>
      </trkpt>
      <trkpt lat="45.62698" lon="6.60078">
        <ele>2023</ele>
        <time>2022-07-16T09:04:24Z</time>
      </trkpt>
      <trkpt lat="45.62695" lon="6.60078">
        <ele>2023</ele>
        <time>2022-07-16T09:04:26Z</time>
      </trkpt>
      <trkpt lat="45.62692" lon="6.60079">
        <ele>2023</ele>
        <time>2022-07-16T09:04:28Z</time>
      </trkpt>
      <trkpt lat="45.62689" lon="6.6008">
        <ele>2023</ele>
        <time>2022-07-16T09:04:30Z</time>
      </trkpt>
      <trkpt lat="45.62686" lon="6.60079">
        <ele>2023</ele>
        <time>2022-07-16T09:04:32Z</time>
      </trkpt>
      <trkpt lat="45.62684" lon="6.60079">
        <ele>2023</ele>
        <time>2022-07-16T09:04:35Z</time>
      </trkpt>
      <trkpt lat="45.62681" lon="6.60079">
        <ele>2023</ele>
        <time>2022-07-16T09:04:36Z</time>
      </trkpt>
      <trkpt lat="45.62678" lon="6.60078">
        <ele>2022</ele>
        <time>2022-07-16T09:04:38Z</time>
      </trkpt>
      <trkpt lat="45.62676" lon="6.60076">
        <ele>2022</ele>
        <time>2022-07-16T09:04:41Z</time>
      </trkpt>
      <trkpt lat="45.62673" lon="6.60076">
        <ele>2022</ele>
        <time>2022-07-16T09:04:43Z</time>
      </trkpt>
      <trkpt lat="45.62671" lon="6.60076">
        <ele>2022</ele>
        <time>2022-07-16T09:04:44Z</time>
      </trkpt>
      <trkpt lat="45.62668" lon="6.60077">
        <ele>2023</ele>
        <time>2022-07-16T09:04:46Z</time>
      </trkpt>
      <trkpt lat="45.62666" lon="6.60077">
        <ele>2023</ele>
        <time>2022-07-16T09:04:48Z</time>
      </trkpt>
      <trkpt lat="45.62663" lon="6.60078">
        <ele>2023</ele>
        <time>2022-07-16T09:04:51Z</time>
      </trkpt>
      <trkpt lat="45.6266" lon="6.60078">
        <ele>2023</ele>
        <time>2022-07-16T09:04:52Z</time>
      </trkpt>
      <trkpt lat="45.62657" lon="6.60078">
        <ele>2023</ele>
        <time>2022-07-16T09:04:55Z</time>
      </trkpt>
      <trkpt lat="45.62655" lon="6.60078">
        <ele>2022</ele>
        <time>2022-07-16T09:04:57Z</time>
      </trkpt>
      <trkpt lat="45.62653" lon="6.60078">
        <ele>2022</ele>
        <time>2022-07-16T09:04:59Z</time>
      </trkpt>
      <trkpt lat="45.6265" lon="6.60078">
        <ele>2022</ele>
        <time>2022-07-16T09:05:00Z</time>
      </trkpt>
      <trkpt lat="45.62648" lon="6.60078">
        <ele>2022</ele>
        <time>2022-07-16T09:05:02Z</time>
      </trkpt>
      <trkpt lat="45.62646" lon="6.60078">
        <ele>2022</ele>
        <time>2022-07-16T09:05:04Z</time>
      </trkpt>
      <trkpt lat="45.62644" lon="6.60077">
        <ele>2023</ele>
        <time>2022-07-16T09:05:06Z</time>
      </trkpt>
      <trkpt lat="45.62643" lon="6.60073">
        <ele>2023</ele>
        <time>2022-07-16T09:05:09Z</time>
      </trkpt>
      <trkpt lat="45.62643" lon="6.6007">
        <ele>2023</ele>
        <time>2022-07-16T09:05:11Z</time>
      </trkpt>
      <trkpt lat="45.62643" lon="6.60068">
        <ele>2024</ele>
        <time>2022-07-16T09:05:14Z</time>
      </trkpt>
      <trkpt lat="45.62643" lon="6.60065">
        <ele>2024</ele>
        <time>2022-07-16T09:05:16Z</time>
      </trkpt>
      <trkpt lat="45.62643" lon="6.60062">
        <ele>2024</ele>
        <time>2022-07-16T09:05:17Z</time>
      </trkpt>
      <trkpt lat="45.62643" lon="6.60059">
        <ele>2024</ele>
        <time>2022-07-16T09:05:20Z</time>
      </trkpt>
      <trkpt lat="45.62642" lon="6.60057">
        <ele>2024</ele>
        <time>2022-07-16T09:05:22Z</time>
      </trkpt>
      <trkpt lat="45.62641" lon="6.60054">
        <ele>2025</ele>
        <time>2022-07-16T09:05:24Z</time>
      </trkpt>
      <trkpt lat="45.62641" lon="6.6005">
        <ele>2026</ele>
        <time>2022-07-16T09:05:27Z</time>
      </trkpt>
      <trkpt lat="45.62642" lon="6.60047">
        <ele>2027</ele>
        <time>2022-07-16T09:05:31Z</time>
      </trkpt>
      <trkpt lat="45.62641" lon="6.60045">
        <ele>2027</ele>
        <time>2022-07-16T09:05:35Z</time>
      </trkpt>
      <trkpt lat="45.62639" lon="6.60042">
        <ele>2028</ele>
        <time>2022-07-16T09:05:38Z</time>
      </trkpt>
      <trkpt lat="45.62637" lon="6.60042">
        <ele>2028</ele>
        <time>2022-07-16T09:05:41Z</time>
      </trkpt>
      <trkpt lat="45.62635" lon="6.60042">
        <ele>2028</ele>
        <time>2022-07-16T09:05:43Z</time>
      </trkpt>
      <trkpt lat="45.62632" lon="6.60042">
        <ele>2028</ele>
        <time>2022-07-16T09:05:45Z</time>
      </trkpt>
      <trkpt lat="45.6263" lon="6.60041">
        <ele>2029</ele>
        <time>2022-07-16T09:05:48Z</time>
      </trkpt>
      <trkpt lat="45.62628" lon="6.60041">
        <ele>2029</ele>
        <time>2022-07-16T09:05:49Z</time>
      </trkpt>
      <trkpt lat="45.62626" lon="6.60041">
        <ele>2029</ele>
        <time>2022-07-16T09:05:52Z</time>
      </trkpt>
      <trkpt lat="45.62624" lon="6.60042">
        <ele>2029</ele>
        <time>2022-07-16T09:05:54Z</time>
      </trkpt>
      <trkpt lat="45.62622" lon="6.60043">
        <ele>2029</ele>
        <time>2022-07-16T09:05:56Z</time>
      </trkpt>
      <trkpt lat="45.6262" lon="6.60044">
        <ele>2029</ele>
        <time>2022-07-16T09:05:57Z</time>
      </trkpt>
      <trkpt lat="45.62618" lon="6.60044">
        <ele>2029</ele>
        <time>2022-07-16T09:05:59Z</time>
      </trkpt>
      <trkpt lat="45.62616" lon="6.60045">
        <ele>2029</ele>
        <time>2022-07-16T09:06:01Z</time>
      </trkpt>
      <trkpt lat="45.62614" lon="6.60047">
        <ele>2029</ele>
        <time>2022-07-16T09:06:04Z</time>
      </trkpt>
      <trkpt lat="45.62613" lon="6.60049">
        <ele>2029</ele>
        <time>2022-07-16T09:06:06Z</time>
      </trkpt>
      <trkpt lat="45.62611" lon="6.60052">
        <ele>2030</ele>
        <time>2022-07-16T09:06:08Z</time>
      </trkpt>
      <trkpt lat="45.6261" lon="6.60054">
        <ele>2030</ele>
        <time>2022-07-16T09:06:11Z</time>
      </trkpt>
      <trkpt lat="45.62608" lon="6.60056">
        <ele>2030</ele>
        <time>2022-07-16T09:06:12Z</time>
      </trkpt>
      <trkpt lat="45.62607" lon="6.60057">
        <ele>2030</ele>
        <time>2022-07-16T09:06:15Z</time>
      </trkpt>
      <trkpt lat="45.62604" lon="6.60058">
        <ele>2030</ele>
        <time>2022-07-16T09:06:17Z</time>
      </trkpt>
      <trkpt lat="45.62602" lon="6.60059">
        <ele>2031</ele>
        <time>2022-07-16T09:06:21Z</time>
      </trkpt>
      <trkpt lat="45.62601" lon="6.60059">
        <ele>2031</ele>
        <time>2022-07-16T09:06:25Z</time>
      </trkpt>
      <trkpt lat="45.62599" lon="6.60061">
        <ele>2030</ele>
        <time>2022-07-16T09:06:37Z</time>
      </trkpt>
      <trkpt lat="45.62599" lon="6.60061">
        <ele>2031</ele>
        <time>2022-07-16T09:06:40Z</time>
      </trkpt>
      <trkpt lat="45.62599" lon="6.60061">
        <ele>2031</ele>
        <time>2022-07-16T09:06:57Z</time>
      </trkpt>
      <trkpt lat="45.62599" lon="6.60061">
        <ele>2030</ele>
        <time>2022-07-16T09:07:13Z</time>
      </trkpt>
      <trkpt lat="45.62598" lon="6.60059">
        <ele>2031</ele>
        <time>2022-07-16T09:07:15Z</time>
      </trkpt>
      <trkpt lat="45.62598" lon="6.60059">
        <ele>2030</ele>
        <time>2022-07-16T09:07:30Z</time>
      </trkpt>
      <trkpt lat="45.62598" lon="6.60059">
        <ele>2030</ele>
        <time>2022-07-16T09:07:46Z</time>
      </trkpt>
      <trkpt lat="45.62598" lon="6.60059">
        <ele>2031</ele>
        <time>2022-07-16T09:08:03Z</time>
      </trkpt>
      <trkpt lat="45.62597" lon="6.60061">
        <ele>2030</ele>
        <time>2022-07-16T09:08:15Z</time>
      </trkpt>
      <trkpt lat="45.62597" lon="6.60061">
        <ele>2031</ele>
        <time>2022-07-16T09:08:20Z</time>
      </trkpt>
      <trkpt lat="45.62597" lon="6.60061">
        <ele>2032</ele>
        <time>2022-07-16T09:08:36Z</time>
      </trkpt>
      <trkpt lat="45.62597" lon="6.60061">
        <ele>2030</ele>
        <time>2022-07-16T09:08:53Z</time>
      </trkpt>
      <trkpt lat="45.62597" lon="6.60061">
        <ele>2030</ele>
        <time>2022-07-16T09:09:09Z</time>
      </trkpt>
      <trkpt lat="45.62597" lon="6.60061">
        <ele>2030</ele>
        <time>2022-07-16T09:09:25Z</time>
      </trkpt>
      <trkpt lat="45.62597" lon="6.60061">
        <ele>2030</ele>
        <time>2022-07-16T09:09:41Z</time>
      </trkpt>
      <trkpt lat="45.62597" lon="6.60061">
        <ele>2030</ele>
        <time>2022-07-16T09:09:57Z</time>
      </trkpt>
      <trkpt lat="45.62597" lon="6.60061">
        <ele>2030</ele>
        <time>2022-07-16T09:10:13Z</time>
      </trkpt>
      <trkpt lat="45.62597" lon="6.60061">
        <ele>2030</ele>
        <time>2022-07-16T09:10:30Z</time>
      </trkpt>
      <trkpt lat="45.62597" lon="6.60061">
        <ele>2030</ele>
        <time>2022-07-16T09:10:46Z</time>
      </trkpt>
      <trkpt lat="45.62597" lon="6.60061">
        <ele>2030</ele>
        <time>2022-07-16T09:11:02Z</time>
      </trkpt>
      <trkpt lat="45.62597" lon="6.60061">
        <ele>2031</ele>
        <time>2022-07-16T09:11:18Z</time>
      </trkpt>
      <trkpt lat="45.62597" lon="6.60061">
        <ele>2031</ele>
        <time>2022-07-16T09:11:34Z</time>
      </trkpt>
      <trkpt lat="45.62597" lon="6.60061">
        <ele>2031</ele>
        <time>2022-07-16T09:11:50Z</time>
      </trkpt>
      <trkpt lat="45.62597" lon="6.60061">
        <ele>2031</ele>
        <time>2022-07-16T09:12:06Z</time>
      </trkpt>
      <trkpt lat="45.62597" lon="6.60061">
        <ele>2031</ele>
        <time>2022-07-16T09:12:22Z</time>
      </trkpt>
      <trkpt lat="45.62597" lon="6.60064">
        <ele>2031</ele>
        <time>2022-07-16T09:12:24Z</time>
      </trkpt>
      <trkpt lat="45.62597" lon="6.60064">
        <ele>2031</ele>
        <time>2022-07-16T09:12:40Z</time>
      </trkpt>
      <trkpt lat="45.62596" lon="6.60066">
        <ele>2031</ele>
        <time>2022-07-16T09:12:55Z</time>
      </trkpt>
      <trkpt lat="45.62596" lon="6.60066">
        <ele>2031</ele>
        <time>2022-07-16T09:12:58Z</time>
      </trkpt>
      <trkpt lat="45.62595" lon="6.60069">
        <ele>2031</ele>
        <time>2022-07-16T09:13:08Z</time>
      </trkpt>
      <trkpt lat="45.62595" lon="6.60069">
        <ele>2031</ele>
        <time>2022-07-16T09:13:15Z</time>
      </trkpt>
      <trkpt lat="45.62595" lon="6.60069">
        <ele>2032</ele>
        <time>2022-07-16T09:13:31Z</time>
      </trkpt>
      <trkpt lat="45.62595" lon="6.60069">
        <ele>2031</ele>
        <time>2022-07-16T09:13:47Z</time>
      </trkpt>
      <trkpt lat="45.62595" lon="6.60069">
        <ele>2031</ele>
        <time>2022-07-16T09:14:03Z</time>
      </trkpt>
      <trkpt lat="45.62595" lon="6.60069">
        <ele>2031</ele>
        <time>2022-07-16T09:14:19Z</time>
      </trkpt>
      <trkpt lat="45.62595" lon="6.60069">
        <ele>2031</ele>
        <time>2022-07-16T09:14:35Z</time>
      </trkpt>
      <trkpt lat="45.62595" lon="6.60069">
        <ele>2031</ele>
        <time>2022-07-16T09:14:51Z</time>
      </trkpt>
      <trkpt lat="45.62593" lon="6.60069">
        <ele>2031</ele>
        <time>2022-07-16T09:15:05Z</time>
      </trkpt>
      <trkpt lat="45.62593" lon="6.60069">
        <ele>2032</ele>
        <time>2022-07-16T09:15:08Z</time>
      </trkpt>
      <trkpt lat="45.62593" lon="6.60069">
        <ele>2031</ele>
        <time>2022-07-16T09:15:24Z</time>
      </trkpt>
      <trkpt lat="45.62593" lon="6.60069">
        <ele>2031</ele>
        <time>2022-07-16T09:15:41Z</time>
      </trkpt>
      <trkpt lat="45.62594" lon="6.60066">
        <ele>2031</ele>
        <time>2022-07-16T09:15:54Z</time>
      </trkpt>
      <trkpt lat="45.62594" lon="6.60066">
        <ele>2031</ele>
        <time>2022-07-16T09:15:58Z</time>
      </trkpt>
      <trkpt lat="45.62595" lon="6.60063">
        <ele>2031</ele>
        <time>2022-07-16T09:15:59Z</time>
      </trkpt>
      <trkpt lat="45.62595" lon="6.60063">
        <ele>2032</ele>
        <time>2022-07-16T09:16:15Z</time>
      </trkpt>
      <trkpt lat="45.62595" lon="6.60063">
        <ele>2031</ele>
        <time>2022-07-16T09:16:31Z</time>
      </trkpt>
      <trkpt lat="45.62595" lon="6.60063">
        <ele>2031</ele>
        <time>2022-07-16T09:16:47Z</time>
      </trkpt>
      <trkpt lat="45.62595" lon="6.60063">
        <ele>2031</ele>
        <time>2022-07-16T09:17:03Z</time>
      </trkpt>
      <trkpt lat="45.62595" lon="6.60063">
        <ele>2031</ele>
        <time>2022-07-16T09:17:19Z</time>
      </trkpt>
      <trkpt lat="45.62595" lon="6.60063">
        <ele>2030</ele>
        <time>2022-07-16T09:17:35Z</time>
      </trkpt>
      <trkpt lat="45.62596" lon="6.60062">
        <ele>2031</ele>
        <time>2022-07-16T09:17:50Z</time>
      </trkpt>
      <trkpt lat="45.62596" lon="6.60062">
        <ele>2030</ele>
        <time>2022-07-16T09:17:52Z</time>
      </trkpt>
      <trkpt lat="45.62596" lon="6.60065">
        <ele>2031</ele>
        <time>2022-07-16T09:18:08Z</time>
      </trkpt>
      <trkpt lat="45.62596" lon="6.60065">
        <ele>2031</ele>
        <time>2022-07-16T09:18:09Z</time>
      </trkpt>
      <trkpt lat="45.62596" lon="6.60065">
        <ele>2031</ele>
        <time>2022-07-16T09:18:25Z</time>
      </trkpt>
      <trkpt lat="45.62596" lon="6.60065">
        <ele>2031</ele>
        <time>2022-07-16T09:18:41Z</time>
      </trkpt>
      <trkpt lat="45.62594" lon="6.60065">
        <ele>2031</ele>
        <time>2022-07-16T09:18:42Z</time>
      </trkpt>
      <trkpt lat="45.62595" lon="6.60064">
        <ele>2031</ele>
        <time>2022-07-16T09:18:54Z</time>
      </trkpt>
      <trkpt lat="45.62595" lon="6.60064">
        <ele>2031</ele>
        <time>2022-07-16T09:18:59Z</time>
      </trkpt>
      <trkpt lat="45.62595" lon="6.60064">
        <ele>2031</ele>
        <time>2022-07-16T09:19:15Z</time>
      </trkpt>
      <trkpt lat="45.62597" lon="6.60062">
        <ele>2031</ele>
        <time>2022-07-16T09:19:28Z</time>
      </trkpt>
      <trkpt lat="45.62597" lon="6.60062">
        <ele>2031</ele>
        <time>2022-07-16T09:19:32Z</time>
      </trkpt>
      <trkpt lat="45.62597" lon="6.60065">
        <ele>2031</ele>
        <time>2022-07-16T09:19:35Z</time>
      </trkpt>
      <trkpt lat="45.62597" lon="6.60065">
        <ele>2031</ele>
        <time>2022-07-16T09:19:49Z</time>
      </trkpt>
      <trkpt lat="45.62597" lon="6.60068">
        <ele>2031</ele>
        <time>2022-07-16T09:19:52Z</time>
      </trkpt>
      <trkpt lat="45.62598" lon="6.60071">
        <ele>2031</ele>
        <time>2022-07-16T09:19:55Z</time>
      </trkpt>
      <trkpt lat="45.62598" lon="6.60074">
        <ele>2031</ele>
        <time>2022-07-16T09:19:58Z</time>
      </trkpt>
      <trkpt lat="45.62597" lon="6.60077">
        <ele>2032</ele>
        <time>2022-07-16T09:20:01Z</time>
      </trkpt>
      <trkpt lat="45.62597" lon="6.60081">
        <ele>2032</ele>
        <time>2022-07-16T09:20:04Z</time>
      </trkpt>
      <trkpt lat="45.62596" lon="6.60084">
        <ele>2032</ele>
        <time>2022-07-16T09:20:07Z</time>
      </trkpt>
      <trkpt lat="45.62595" lon="6.60087">
        <ele>2032</ele>
        <time>2022-07-16T09:20:09Z</time>
      </trkpt>
      <trkpt lat="45.62594" lon="6.60089">
        <ele>2032</ele>
        <time>2022-07-16T09:20:11Z</time>
      </trkpt>
      <trkpt lat="45.62593" lon="6.60091">
        <ele>2032</ele>
        <time>2022-07-16T09:20:14Z</time>
      </trkpt>
      <trkpt lat="45.62591" lon="6.60093">
        <ele>2032</ele>
        <time>2022-07-16T09:20:15Z</time>
      </trkpt>
      <trkpt lat="45.62589" lon="6.60094">
        <ele>2032</ele>
        <time>2022-07-16T09:20:17Z</time>
      </trkpt>
      <trkpt lat="45.62587" lon="6.60094">
        <ele>2032</ele>
        <time>2022-07-16T09:20:21Z</time>
      </trkpt>
      <trkpt lat="45.62585" lon="6.60094">
        <ele>2032</ele>
        <time>2022-07-16T09:20:23Z</time>
      </trkpt>
      <trkpt lat="45.62584" lon="6.60092">
        <ele>2032</ele>
        <time>2022-07-16T09:20:26Z</time>
      </trkpt>
      <trkpt lat="45.62583" lon="6.60089">
        <ele>2032</ele>
        <time>2022-07-16T09:20:29Z</time>
      </trkpt>
      <trkpt lat="45.62582" lon="6.60087">
        <ele>2032</ele>
        <time>2022-07-16T09:20:31Z</time>
      </trkpt>
      <trkpt lat="45.6258" lon="6.60085">
        <ele>2032</ele>
        <time>2022-07-16T09:20:34Z</time>
      </trkpt>
      <trkpt lat="45.62579" lon="6.60082">
        <ele>2032</ele>
        <time>2022-07-16T09:20:35Z</time>
      </trkpt>
      <trkpt lat="45.62578" lon="6.6008">
        <ele>2036</ele>
        <time>2022-07-16T09:20:37Z</time>
      </trkpt>
      <trkpt lat="45.62577" lon="6.60078">
        <ele>2036</ele>
        <time>2022-07-16T09:20:40Z</time>
      </trkpt>
      <trkpt lat="45.62577" lon="6.60074">
        <ele>2036</ele>
        <time>2022-07-16T09:20:42Z</time>
      </trkpt>
      <trkpt lat="45.62577" lon="6.60071">
        <ele>2036</ele>
        <time>2022-07-16T09:20:45Z</time>
      </trkpt>
      <trkpt lat="45.62577" lon="6.60067">
        <ele>2036</ele>
        <time>2022-07-16T09:20:47Z</time>
      </trkpt>
      <trkpt lat="45.62576" lon="6.60065">
        <ele>2036</ele>
        <time>2022-07-16T09:20:49Z</time>
      </trkpt>
      <trkpt lat="45.62577" lon="6.60061">
        <ele>2036</ele>
        <time>2022-07-16T09:20:52Z</time>
      </trkpt>
      <trkpt lat="45.62577" lon="6.60058">
        <ele>2036</ele>
        <time>2022-07-16T09:20:57Z</time>
      </trkpt>
      <trkpt lat="45.62576" lon="6.60056">
        <ele>2037</ele>
        <time>2022-07-16T09:20:59Z</time>
      </trkpt>
      <trkpt lat="45.62575" lon="6.60053">
        <ele>2037</ele>
        <time>2022-07-16T09:21:02Z</time>
      </trkpt>
      <trkpt lat="45.62575" lon="6.6005">
        <ele>2038</ele>
        <time>2022-07-16T09:21:05Z</time>
      </trkpt>
      <trkpt lat="45.62575" lon="6.60047">
        <ele>2038</ele>
        <time>2022-07-16T09:21:08Z</time>
      </trkpt>
      <trkpt lat="45.62574" lon="6.60044">
        <ele>2038</ele>
        <time>2022-07-16T09:21:11Z</time>
      </trkpt>
      <trkpt lat="45.62572" lon="6.60043">
        <ele>2038</ele>
        <time>2022-07-16T09:21:13Z</time>
      </trkpt>
      <trkpt lat="45.6257" lon="6.60043">
        <ele>2038</ele>
        <time>2022-07-16T09:21:15Z</time>
      </trkpt>
      <trkpt lat="45.62568" lon="6.60042">
        <ele>2038</ele>
        <time>2022-07-16T09:21:17Z</time>
      </trkpt>
      <trkpt lat="45.62566" lon="6.6004">
        <ele>2038</ele>
        <time>2022-07-16T09:21:19Z</time>
      </trkpt>
      <trkpt lat="45.62564" lon="6.6004">
        <ele>2038</ele>
        <time>2022-07-16T09:21:22Z</time>
      </trkpt>
      <trkpt lat="45.62561" lon="6.60039">
        <ele>2038</ele>
        <time>2022-07-16T09:21:23Z</time>
      </trkpt>
      <trkpt lat="45.62559" lon="6.60038">
        <ele>2038</ele>
        <time>2022-07-16T09:21:25Z</time>
      </trkpt>
      <trkpt lat="45.62557" lon="6.60036">
        <ele>2037</ele>
        <time>2022-07-16T09:21:27Z</time>
      </trkpt>
      <trkpt lat="45.62555" lon="6.60035">
        <ele>2037</ele>
        <time>2022-07-16T09:21:29Z</time>
      </trkpt>
      <trkpt lat="45.62553" lon="6.60035">
        <ele>2038</ele>
        <time>2022-07-16T09:21:31Z</time>
      </trkpt>
      <trkpt lat="45.62551" lon="6.60033">
        <ele>2038</ele>
        <time>2022-07-16T09:21:33Z</time>
      </trkpt>
      <trkpt lat="45.6255" lon="6.6003">
        <ele>2038</ele>
        <time>2022-07-16T09:21:35Z</time>
      </trkpt>
      <trkpt lat="45.62548" lon="6.60027">
        <ele>2040</ele>
        <time>2022-07-16T09:21:37Z</time>
      </trkpt>
      <trkpt lat="45.62547" lon="6.60025">
        <ele>2038</ele>
        <time>2022-07-16T09:21:39Z</time>
      </trkpt>
      <trkpt lat="45.62545" lon="6.60023">
        <ele>2040</ele>
        <time>2022-07-16T09:21:42Z</time>
      </trkpt>
      <trkpt lat="45.62543" lon="6.60021">
        <ele>2040</ele>
        <time>2022-07-16T09:21:43Z</time>
      </trkpt>
      <trkpt lat="45.62541" lon="6.60019">
        <ele>2040</ele>
        <time>2022-07-16T09:21:45Z</time>
      </trkpt>
      <trkpt lat="45.6254" lon="6.60018">
        <ele>2040</ele>
        <time>2022-07-16T09:21:47Z</time>
      </trkpt>
      <trkpt lat="45.62538" lon="6.60016">
        <ele>2040</ele>
        <time>2022-07-16T09:21:50Z</time>
      </trkpt>
      <trkpt lat="45.62535" lon="6.60014">
        <ele>2040</ele>
        <time>2022-07-16T09:21:53Z</time>
      </trkpt>
      <trkpt lat="45.62533" lon="6.60013">
        <ele>2041</ele>
        <time>2022-07-16T09:21:56Z</time>
      </trkpt>
      <trkpt lat="45.6253" lon="6.60013">
        <ele>2041</ele>
        <time>2022-07-16T09:21:58Z</time>
      </trkpt>
      <trkpt lat="45.62528" lon="6.60013">
        <ele>2041</ele>
        <time>2022-07-16T09:22:01Z</time>
      </trkpt>
      <trkpt lat="45.62526" lon="6.60013">
        <ele>2041</ele>
        <time>2022-07-16T09:22:02Z</time>
      </trkpt>
      <trkpt lat="45.62523" lon="6.60013">
        <ele>2041</ele>
        <time>2022-07-16T09:22:04Z</time>
      </trkpt>
      <trkpt lat="45.62521" lon="6.60013">
        <ele>2041</ele>
        <time>2022-07-16T09:22:06Z</time>
      </trkpt>
      <trkpt lat="45.62519" lon="6.60012">
        <ele>2041</ele>
        <time>2022-07-16T09:22:08Z</time>
      </trkpt>
      <trkpt lat="45.62516" lon="6.60012">
        <ele>2042</ele>
        <time>2022-07-16T09:22:11Z</time>
      </trkpt>
      <trkpt lat="45.62514" lon="6.60013">
        <ele>2042</ele>
        <time>2022-07-16T09:22:12Z</time>
      </trkpt>
      <trkpt lat="45.62511" lon="6.60012">
        <ele>2042</ele>
        <time>2022-07-16T09:22:14Z</time>
      </trkpt>
      <trkpt lat="45.62509" lon="6.60011">
        <ele>2042</ele>
        <time>2022-07-16T09:22:16Z</time>
      </trkpt>
      <trkpt lat="45.62507" lon="6.60011">
        <ele>2042</ele>
        <time>2022-07-16T09:22:18Z</time>
      </trkpt>
      <trkpt lat="45.62504" lon="6.60011">
        <ele>2042</ele>
        <time>2022-07-16T09:22:20Z</time>
      </trkpt>
      <trkpt lat="45.62503" lon="6.6001">
        <ele>2042</ele>
        <time>2022-07-16T09:22:22Z</time>
      </trkpt>
      <trkpt lat="45.625" lon="6.60008">
        <ele>2042</ele>
        <time>2022-07-16T09:22:24Z</time>
      </trkpt>
      <trkpt lat="45.62498" lon="6.60007">
        <ele>2042</ele>
        <time>2022-07-16T09:22:27Z</time>
      </trkpt>
      <trkpt lat="45.62497" lon="6.60005">
        <ele>2042</ele>
        <time>2022-07-16T09:22:29Z</time>
      </trkpt>
      <trkpt lat="45.62495" lon="6.60002">
        <ele>2042</ele>
        <time>2022-07-16T09:22:30Z</time>
      </trkpt>
      <trkpt lat="45.62492" lon="6.60002">
        <ele>2043</ele>
        <time>2022-07-16T09:22:32Z</time>
      </trkpt>
      <trkpt lat="45.6249" lon="6.6">
        <ele>2044</ele>
        <time>2022-07-16T09:22:34Z</time>
      </trkpt>
      <trkpt lat="45.62487" lon="6.59998">
        <ele>2043</ele>
        <time>2022-07-16T09:22:36Z</time>
      </trkpt>
      <trkpt lat="45.62486" lon="6.59997">
        <ele>2043</ele>
        <time>2022-07-16T09:22:39Z</time>
      </trkpt>
      <trkpt lat="45.62483" lon="6.59995">
        <ele>2043</ele>
        <time>2022-07-16T09:22:40Z</time>
      </trkpt>
      <trkpt lat="45.62481" lon="6.59992">
        <ele>2043</ele>
        <time>2022-07-16T09:22:42Z</time>
      </trkpt>
      <trkpt lat="45.6248" lon="6.5999">
        <ele>2043</ele>
        <time>2022-07-16T09:22:44Z</time>
      </trkpt>
      <trkpt lat="45.62478" lon="6.59989">
        <ele>2043</ele>
        <time>2022-07-16T09:22:46Z</time>
      </trkpt>
      <trkpt lat="45.62476" lon="6.59987">
        <ele>2043</ele>
        <time>2022-07-16T09:22:48Z</time>
      </trkpt>
      <trkpt lat="45.62474" lon="6.59986">
        <ele>2043</ele>
        <time>2022-07-16T09:22:50Z</time>
      </trkpt>
      <trkpt lat="45.62472" lon="6.59985">
        <ele>2043</ele>
        <time>2022-07-16T09:22:52Z</time>
      </trkpt>
      <trkpt lat="45.6247" lon="6.59983">
        <ele>2043</ele>
        <time>2022-07-16T09:22:54Z</time>
      </trkpt>
      <trkpt lat="45.62469" lon="6.59982">
        <ele>2043</ele>
        <time>2022-07-16T09:22:57Z</time>
      </trkpt>
      <trkpt lat="45.62468" lon="6.5998">
        <ele>2043</ele>
        <time>2022-07-16T09:22:58Z</time>
      </trkpt>
      <trkpt lat="45.62467" lon="6.59978">
        <ele>2044</ele>
        <time>2022-07-16T09:23:00Z</time>
      </trkpt>
      <trkpt lat="45.62465" lon="6.59975">
        <ele>2045</ele>
        <time>2022-07-16T09:23:03Z</time>
      </trkpt>
      <trkpt lat="45.62464" lon="6.59972">
        <ele>2045</ele>
        <time>2022-07-16T09:23:05Z</time>
      </trkpt>
      <trkpt lat="45.62464" lon="6.59969">
        <ele>2046</ele>
        <time>2022-07-16T09:23:09Z</time>
      </trkpt>
      <trkpt lat="45.62462" lon="6.59967">
        <ele>2046</ele>
        <time>2022-07-16T09:23:11Z</time>
      </trkpt>
      <trkpt lat="45.6246" lon="6.59966">
        <ele>2047</ele>
        <time>2022-07-16T09:23:14Z</time>
      </trkpt>
      <trkpt lat="45.62458" lon="6.59963">
        <ele>2047</ele>
        <time>2022-07-16T09:23:17Z</time>
      </trkpt>
      <trkpt lat="45.62457" lon="6.59961">
        <ele>2047</ele>
        <time>2022-07-16T09:23:19Z</time>
      </trkpt>
      <trkpt lat="45.62456" lon="6.59958">
        <ele>2048</ele>
        <time>2022-07-16T09:23:22Z</time>
      </trkpt>
      <trkpt lat="45.62455" lon="6.59955">
        <ele>2048</ele>
        <time>2022-07-16T09:23:29Z</time>
      </trkpt>
      <trkpt lat="45.62455" lon="6.59955">
        <ele>2049</ele>
        <time>2022-07-16T09:23:36Z</time>
      </trkpt>
      <trkpt lat="45.62455" lon="6.59955">
        <ele>2050</ele>
        <time>2022-07-16T09:23:52Z</time>
      </trkpt>
      <trkpt lat="45.62455" lon="6.59955">
        <ele>2049</ele>
        <time>2022-07-16T09:24:08Z</time>
      </trkpt>
      <trkpt lat="45.62455" lon="6.59955">
        <ele>2050</ele>
        <time>2022-07-16T09:24:24Z</time>
      </trkpt>
      <trkpt lat="45.62454" lon="6.59954">
        <ele>2049</ele>
        <time>2022-07-16T09:24:38Z</time>
      </trkpt>
      <trkpt lat="45.62454" lon="6.59954">
        <ele>2049</ele>
        <time>2022-07-16T09:24:41Z</time>
      </trkpt>
      <trkpt lat="45.62451" lon="6.59953">
        <ele>2049</ele>
        <time>2022-07-16T09:24:42Z</time>
      </trkpt>
      <trkpt lat="45.62449" lon="6.59955">
        <ele>2049</ele>
        <time>2022-07-16T09:24:45Z</time>
      </trkpt>
      <trkpt lat="45.62447" lon="6.59954">
        <ele>2050</ele>
        <time>2022-07-16T09:24:49Z</time>
      </trkpt>
      <trkpt lat="45.62445" lon="6.59954">
        <ele>2051</ele>
        <time>2022-07-16T09:24:52Z</time>
      </trkpt>
      <trkpt lat="45.62443" lon="6.59953">
        <ele>2051</ele>
        <time>2022-07-16T09:24:56Z</time>
      </trkpt>
      <trkpt lat="45.62441" lon="6.59953">
        <ele>2051</ele>
        <time>2022-07-16T09:24:59Z</time>
      </trkpt>
      <trkpt lat="45.62439" lon="6.59952">
        <ele>2052</ele>
        <time>2022-07-16T09:25:02Z</time>
      </trkpt>
      <trkpt lat="45.62438" lon="6.59949">
        <ele>2053</ele>
        <time>2022-07-16T09:25:05Z</time>
      </trkpt>
      <trkpt lat="45.62437" lon="6.59946">
        <ele>2054</ele>
        <time>2022-07-16T09:25:08Z</time>
      </trkpt>
      <trkpt lat="45.62436" lon="6.59945">
        <ele>2055</ele>
        <time>2022-07-16T09:25:11Z</time>
      </trkpt>
      <trkpt lat="45.62434" lon="6.59943">
        <ele>2056</ele>
        <time>2022-07-16T09:25:15Z</time>
      </trkpt>
      <trkpt lat="45.62432" lon="6.59943">
        <ele>2056</ele>
        <time>2022-07-16T09:25:18Z</time>
      </trkpt>
      <trkpt lat="45.62429" lon="6.59943">
        <ele>2057</ele>
        <time>2022-07-16T09:25:21Z</time>
      </trkpt>
      <trkpt lat="45.62428" lon="6.59941">
        <ele>2058</ele>
        <time>2022-07-16T09:25:24Z</time>
      </trkpt>
      <trkpt lat="45.62426" lon="6.59938">
        <ele>2058</ele>
        <time>2022-07-16T09:25:27Z</time>
      </trkpt>
      <trkpt lat="45.62424" lon="6.59936">
        <ele>2058</ele>
        <time>2022-07-16T09:25:30Z</time>
      </trkpt>
      <trkpt lat="45.62423" lon="6.59934">
        <ele>2059</ele>
        <time>2022-07-16T09:25:33Z</time>
      </trkpt>
      <trkpt lat="45.62421" lon="6.59932">
        <ele>2059</ele>
        <time>2022-07-16T09:25:35Z</time>
      </trkpt>
      <trkpt lat="45.6242" lon="6.5993">
        <ele>2060</ele>
        <time>2022-07-16T09:25:37Z</time>
      </trkpt>
      <trkpt lat="45.62418" lon="6.59928">
        <ele>2060</ele>
        <time>2022-07-16T09:25:40Z</time>
      </trkpt>
      <trkpt lat="45.62416" lon="6.59926">
        <ele>2060</ele>
        <time>2022-07-16T09:25:43Z</time>
      </trkpt>
      <trkpt lat="45.62413" lon="6.59925">
        <ele>2061</ele>
        <time>2022-07-16T09:25:46Z</time>
      </trkpt>
      <trkpt lat="45.62412" lon="6.59925">
        <ele>2061</ele>
        <time>2022-07-16T09:25:49Z</time>
      </trkpt>
      <trkpt lat="45.62409" lon="6.59924">
        <ele>2061</ele>
        <time>2022-07-16T09:25:50Z</time>
      </trkpt>
      <trkpt lat="45.62407" lon="6.59924">
        <ele>2062</ele>
        <time>2022-07-16T09:25:53Z</time>
      </trkpt>
      <trkpt lat="45.62405" lon="6.59924">
        <ele>2062</ele>
        <time>2022-07-16T09:25:54Z</time>
      </trkpt>
      <trkpt lat="45.62404" lon="6.59926">
        <ele>2063</ele>
        <time>2022-07-16T09:25:56Z</time>
      </trkpt>
      <trkpt lat="45.62402" lon="6.59928">
        <ele>2063</ele>
        <time>2022-07-16T09:25:58Z</time>
      </trkpt>
      <trkpt lat="45.624" lon="6.5993">
        <ele>2064</ele>
        <time>2022-07-16T09:26:02Z</time>
      </trkpt>
      <trkpt lat="45.62399" lon="6.59931">
        <ele>2064</ele>
        <time>2022-07-16T09:26:04Z</time>
      </trkpt>
      <trkpt lat="45.62397" lon="6.59934">
        <ele>2064</ele>
        <time>2022-07-16T09:26:07Z</time>
      </trkpt>
      <trkpt lat="45.62396" lon="6.59936">
        <ele>2064</ele>
        <time>2022-07-16T09:26:09Z</time>
      </trkpt>
      <trkpt lat="45.62394" lon="6.59938">
        <ele>2066</ele>
        <time>2022-07-16T09:26:12Z</time>
      </trkpt>
      <trkpt lat="45.62392" lon="6.5994">
        <ele>2066</ele>
        <time>2022-07-16T09:26:15Z</time>
      </trkpt>
      <trkpt lat="45.62391" lon="6.59943">
        <ele>2067</ele>
        <time>2022-07-16T09:26:18Z</time>
      </trkpt>
      <trkpt lat="45.62389" lon="6.59946">
        <ele>2067</ele>
        <time>2022-07-16T09:26:21Z</time>
      </trkpt>
      <trkpt lat="45.62387" lon="6.59948">
        <ele>2067</ele>
        <time>2022-07-16T09:26:23Z</time>
      </trkpt>
      <trkpt lat="45.62386" lon="6.5995">
        <ele>2067</ele>
        <time>2022-07-16T09:26:26Z</time>
      </trkpt>
      <trkpt lat="45.62384" lon="6.59952">
        <ele>2067</ele>
        <time>2022-07-16T09:26:27Z</time>
      </trkpt>
      <trkpt lat="45.62382" lon="6.59955">
        <ele>2068</ele>
        <time>2022-07-16T09:26:29Z</time>
      </trkpt>
      <trkpt lat="45.62381" lon="6.59957">
        <ele>2068</ele>
        <time>2022-07-16T09:26:31Z</time>
      </trkpt>
      <trkpt lat="45.62379" lon="6.5996">
        <ele>2068</ele>
        <time>2022-07-16T09:26:33Z</time>
      </trkpt>
      <trkpt lat="45.62378" lon="6.59962">
        <ele>2068</ele>
        <time>2022-07-16T09:26:35Z</time>
      </trkpt>
      <trkpt lat="45.62376" lon="6.59965">
        <ele>2068</ele>
        <time>2022-07-16T09:26:37Z</time>
      </trkpt>
      <trkpt lat="45.62374" lon="6.59967">
        <ele>2068</ele>
        <time>2022-07-16T09:26:39Z</time>
      </trkpt>
      <trkpt lat="45.62372" lon="6.59968">
        <ele>2068</ele>
        <time>2022-07-16T09:26:41Z</time>
      </trkpt>
      <trkpt lat="45.6237" lon="6.59969">
        <ele>2068</ele>
        <time>2022-07-16T09:26:44Z</time>
      </trkpt>
      <trkpt lat="45.62368" lon="6.59969">
        <ele>2069</ele>
        <time>2022-07-16T09:26:46Z</time>
      </trkpt>
      <trkpt lat="45.62366" lon="6.5997">
        <ele>2069</ele>
        <time>2022-07-16T09:26:47Z</time>
      </trkpt>
      <trkpt lat="45.62364" lon="6.5997">
        <ele>2070</ele>
        <time>2022-07-16T09:26:49Z</time>
      </trkpt>
      <trkpt lat="45.62362" lon="6.59969">
        <ele>2070</ele>
        <time>2022-07-16T09:26:51Z</time>
      </trkpt>
      <trkpt lat="45.62359" lon="6.59969">
        <ele>2071</ele>
        <time>2022-07-16T09:26:55Z</time>
      </trkpt>
      <trkpt lat="45.62357" lon="6.5997">
        <ele>2072</ele>
        <time>2022-07-16T09:26:57Z</time>
      </trkpt>
      <trkpt lat="45.62355" lon="6.59969">
        <ele>2072</ele>
        <time>2022-07-16T09:26:59Z</time>
      </trkpt>
      <trkpt lat="45.62354" lon="6.59965">
        <ele>2072</ele>
        <time>2022-07-16T09:27:02Z</time>
      </trkpt>
      <trkpt lat="45.62353" lon="6.59963">
        <ele>2072</ele>
        <time>2022-07-16T09:27:05Z</time>
      </trkpt>
      <trkpt lat="45.62351" lon="6.5996">
        <ele>2073</ele>
        <time>2022-07-16T09:27:08Z</time>
      </trkpt>
      <trkpt lat="45.62349" lon="6.59959">
        <ele>2073</ele>
        <time>2022-07-16T09:27:10Z</time>
      </trkpt>
      <trkpt lat="45.62347" lon="6.59959">
        <ele>2074</ele>
        <time>2022-07-16T09:27:12Z</time>
      </trkpt>
      <trkpt lat="45.62345" lon="6.5996">
        <ele>2074</ele>
        <time>2022-07-16T09:27:14Z</time>
      </trkpt>
      <trkpt lat="45.62342" lon="6.5996">
        <ele>2075</ele>
        <time>2022-07-16T09:27:16Z</time>
      </trkpt>
      <trkpt lat="45.62341" lon="6.5996">
        <ele>2075</ele>
        <time>2022-07-16T09:27:18Z</time>
      </trkpt>
      <trkpt lat="45.62338" lon="6.5996">
        <ele>2075</ele>
        <time>2022-07-16T09:27:21Z</time>
      </trkpt>
      <trkpt lat="45.62336" lon="6.59961">
        <ele>2077</ele>
        <time>2022-07-16T09:27:24Z</time>
      </trkpt>
      <trkpt lat="45.62334" lon="6.59962">
        <ele>2077</ele>
        <time>2022-07-16T09:27:26Z</time>
      </trkpt>
      <trkpt lat="45.62332" lon="6.59963">
        <ele>2077</ele>
        <time>2022-07-16T09:27:27Z</time>
      </trkpt>
      <trkpt lat="45.6233" lon="6.59964">
        <ele>2077</ele>
        <time>2022-07-16T09:27:29Z</time>
      </trkpt>
      <trkpt lat="45.62328" lon="6.59964">
        <ele>2077</ele>
        <time>2022-07-16T09:27:31Z</time>
      </trkpt>
      <trkpt lat="45.62326" lon="6.59964">
        <ele>2077</ele>
        <time>2022-07-16T09:27:33Z</time>
      </trkpt>
      <trkpt lat="45.62323" lon="6.59965">
        <ele>2077</ele>
        <time>2022-07-16T09:27:35Z</time>
      </trkpt>
      <trkpt lat="45.62321" lon="6.59965">
        <ele>2077</ele>
        <time>2022-07-16T09:27:37Z</time>
      </trkpt>
      <trkpt lat="45.62318" lon="6.59965">
        <ele>2077</ele>
        <time>2022-07-16T09:27:39Z</time>
      </trkpt>
      <trkpt lat="45.62315" lon="6.59964">
        <ele>2077</ele>
        <time>2022-07-16T09:27:41Z</time>
      </trkpt>
      <trkpt lat="45.62313" lon="6.59963">
        <ele>2077</ele>
        <time>2022-07-16T09:27:43Z</time>
      </trkpt>
      <trkpt lat="45.6231" lon="6.59963">
        <ele>2077</ele>
        <time>2022-07-16T09:27:46Z</time>
      </trkpt>
      <trkpt lat="45.62308" lon="6.59963">
        <ele>2077</ele>
        <time>2022-07-16T09:27:47Z</time>
      </trkpt>
      <trkpt lat="45.62305" lon="6.59961">
        <ele>2077</ele>
        <time>2022-07-16T09:27:49Z</time>
      </trkpt>
      <trkpt lat="45.62303" lon="6.59961">
        <ele>2077</ele>
        <time>2022-07-16T09:27:51Z</time>
      </trkpt>
      <trkpt lat="45.62301" lon="6.5996">
        <ele>2078</ele>
        <time>2022-07-16T09:27:54Z</time>
      </trkpt>
      <trkpt lat="45.62299" lon="6.5996">
        <ele>2077</ele>
        <time>2022-07-16T09:27:56Z</time>
      </trkpt>
      <trkpt lat="45.62297" lon="6.59959">
        <ele>2077</ele>
        <time>2022-07-16T09:27:57Z</time>
      </trkpt>
      <trkpt lat="45.62295" lon="6.59958">
        <ele>2077</ele>
        <time>2022-07-16T09:28:00Z</time>
      </trkpt>
      <trkpt lat="45.62293" lon="6.59956">
        <ele>2077</ele>
        <time>2022-07-16T09:28:01Z</time>
      </trkpt>
      <trkpt lat="45.62292" lon="6.59954">
        <ele>2077</ele>
        <time>2022-07-16T09:28:03Z</time>
      </trkpt>
      <trkpt lat="45.62291" lon="6.59951">
        <ele>2077</ele>
        <time>2022-07-16T09:28:05Z</time>
      </trkpt>
      <trkpt lat="45.6229" lon="6.59948">
        <ele>2077</ele>
        <time>2022-07-16T09:28:07Z</time>
      </trkpt>
      <trkpt lat="45.62289" lon="6.59945">
        <ele>2077</ele>
        <time>2022-07-16T09:28:09Z</time>
      </trkpt>
      <trkpt lat="45.62288" lon="6.59942">
        <ele>2077</ele>
        <time>2022-07-16T09:28:11Z</time>
      </trkpt>
      <trkpt lat="45.62287" lon="6.5994">
        <ele>2078</ele>
        <time>2022-07-16T09:28:13Z</time>
      </trkpt>
      <trkpt lat="45.62285" lon="6.59937">
        <ele>2078</ele>
        <time>2022-07-16T09:28:15Z</time>
      </trkpt>
      <trkpt lat="45.62284" lon="6.59935">
        <ele>2079</ele>
        <time>2022-07-16T09:28:17Z</time>
      </trkpt>
      <trkpt lat="45.62282" lon="6.59934">
        <ele>2079</ele>
        <time>2022-07-16T09:28:20Z</time>
      </trkpt>
      <trkpt lat="45.6228" lon="6.59932">
        <ele>2080</ele>
        <time>2022-07-16T09:28:23Z</time>
      </trkpt>
      <trkpt lat="45.62278" lon="6.59932">
        <ele>2080</ele>
        <time>2022-07-16T09:28:25Z</time>
      </trkpt>
      <trkpt lat="45.62276" lon="6.59932">
        <ele>2080</ele>
        <time>2022-07-16T09:28:26Z</time>
      </trkpt>
      <trkpt lat="45.62274" lon="6.59933">
        <ele>2081</ele>
        <time>2022-07-16T09:28:28Z</time>
      </trkpt>
      <trkpt lat="45.62272" lon="6.59935">
        <ele>2081</ele>
        <time>2022-07-16T09:28:30Z</time>
      </trkpt>
      <trkpt lat="45.6227" lon="6.59936">
        <ele>2081</ele>
        <time>2022-07-16T09:28:32Z</time>
      </trkpt>
      <trkpt lat="45.62268" lon="6.59938">
        <ele>2081</ele>
        <time>2022-07-16T09:28:34Z</time>
      </trkpt>
      <trkpt lat="45.62267" lon="6.59941">
        <ele>2081</ele>
        <time>2022-07-16T09:28:36Z</time>
      </trkpt>
      <trkpt lat="45.62265" lon="6.59943">
        <ele>2081</ele>
        <time>2022-07-16T09:28:39Z</time>
      </trkpt>
      <trkpt lat="45.62263" lon="6.59945">
        <ele>2081</ele>
        <time>2022-07-16T09:28:41Z</time>
      </trkpt>
      <trkpt lat="45.62261" lon="6.59947">
        <ele>2081</ele>
        <time>2022-07-16T09:28:43Z</time>
      </trkpt>
      <trkpt lat="45.62261" lon="6.59949">
        <ele>2081</ele>
        <time>2022-07-16T09:28:45Z</time>
      </trkpt>
      <trkpt lat="45.6226" lon="6.59952">
        <ele>2081</ele>
        <time>2022-07-16T09:28:47Z</time>
      </trkpt>
      <trkpt lat="45.62259" lon="6.59956">
        <ele>2083</ele>
        <time>2022-07-16T09:28:50Z</time>
      </trkpt>
      <trkpt lat="45.62258" lon="6.59959">
        <ele>2083</ele>
        <time>2022-07-16T09:28:54Z</time>
      </trkpt>
      <trkpt lat="45.62256" lon="6.59961">
        <ele>2083</ele>
        <time>2022-07-16T09:28:55Z</time>
      </trkpt>
      <trkpt lat="45.62254" lon="6.5996">
        <ele>2083</ele>
        <time>2022-07-16T09:28:57Z</time>
      </trkpt>
      <trkpt lat="45.62252" lon="6.59959">
        <ele>2083</ele>
        <time>2022-07-16T09:28:59Z</time>
      </trkpt>
      <trkpt lat="45.6225" lon="6.59958">
        <ele>2083</ele>
        <time>2022-07-16T09:29:01Z</time>
      </trkpt>
      <trkpt lat="45.62248" lon="6.59957">
        <ele>2083</ele>
        <time>2022-07-16T09:29:03Z</time>
      </trkpt>
      <trkpt lat="45.62246" lon="6.59956">
        <ele>2085</ele>
        <time>2022-07-16T09:29:06Z</time>
      </trkpt>
      <trkpt lat="45.62243" lon="6.59957">
        <ele>2086</ele>
        <time>2022-07-16T09:29:10Z</time>
      </trkpt>
      <trkpt lat="45.62242" lon="6.59959">
        <ele>2086</ele>
        <time>2022-07-16T09:29:13Z</time>
      </trkpt>
      <trkpt lat="45.6224" lon="6.5996">
        <ele>2087</ele>
        <time>2022-07-16T09:29:16Z</time>
      </trkpt>
      <trkpt lat="45.62237" lon="6.59961">
        <ele>2088</ele>
        <time>2022-07-16T09:29:20Z</time>
      </trkpt>
      <trkpt lat="45.62235" lon="6.59961">
        <ele>2088</ele>
        <time>2022-07-16T09:29:22Z</time>
      </trkpt>
      <trkpt lat="45.62232" lon="6.59961">
        <ele>2088</ele>
        <time>2022-07-16T09:29:25Z</time>
      </trkpt>
      <trkpt lat="45.6223" lon="6.59961">
        <ele>2088</ele>
        <time>2022-07-16T09:29:28Z</time>
      </trkpt>
      <trkpt lat="45.62228" lon="6.59962">
        <ele>2089</ele>
        <time>2022-07-16T09:29:31Z</time>
      </trkpt>
      <trkpt lat="45.62225" lon="6.59963">
        <ele>2092</ele>
        <time>2022-07-16T09:29:35Z</time>
      </trkpt>
      <trkpt lat="45.62224" lon="6.59965">
        <ele>2092</ele>
        <time>2022-07-16T09:29:37Z</time>
      </trkpt>
      <trkpt lat="45.62224" lon="6.59968">
        <ele>2092</ele>
        <time>2022-07-16T09:29:41Z</time>
      </trkpt>
      <trkpt lat="45.62225" lon="6.59971">
        <ele>2093</ele>
        <time>2022-07-16T09:29:43Z</time>
      </trkpt>
      <trkpt lat="45.62225" lon="6.59974">
        <ele>2094</ele>
        <time>2022-07-16T09:29:46Z</time>
      </trkpt>
      <trkpt lat="45.62224" lon="6.59977">
        <ele>2094</ele>
        <time>2022-07-16T09:29:49Z</time>
      </trkpt>
      <trkpt lat="45.62223" lon="6.59978">
        <ele>2094</ele>
        <time>2022-07-16T09:29:51Z</time>
      </trkpt>
      <trkpt lat="45.62221" lon="6.59979">
        <ele>2095</ele>
        <time>2022-07-16T09:29:55Z</time>
      </trkpt>
      <trkpt lat="45.62219" lon="6.5998">
        <ele>2095</ele>
        <time>2022-07-16T09:29:56Z</time>
      </trkpt>
      <trkpt lat="45.62216" lon="6.59979">
        <ele>2095</ele>
        <time>2022-07-16T09:30:00Z</time>
      </trkpt>
      <trkpt lat="45.62214" lon="6.59979">
        <ele>2095</ele>
        <time>2022-07-16T09:30:01Z</time>
      </trkpt>
      <trkpt lat="45.62212" lon="6.59981">
        <ele>2096</ele>
        <time>2022-07-16T09:30:04Z</time>
      </trkpt>
      <trkpt lat="45.62211" lon="6.59983">
        <ele>2096</ele>
        <time>2022-07-16T09:30:07Z</time>
      </trkpt>
      <trkpt lat="45.6221" lon="6.59986">
        <ele>2097</ele>
        <time>2022-07-16T09:30:10Z</time>
      </trkpt>
      <trkpt lat="45.62209" lon="6.59988">
        <ele>2097</ele>
        <time>2022-07-16T09:30:14Z</time>
      </trkpt>
      <trkpt lat="45.62208" lon="6.59991">
        <ele>2098</ele>
        <time>2022-07-16T09:30:16Z</time>
      </trkpt>
      <trkpt lat="45.62206" lon="6.59992">
        <ele>2099</ele>
        <time>2022-07-16T09:30:19Z</time>
      </trkpt>
      <trkpt lat="45.62205" lon="6.59995">
        <ele>2099</ele>
        <time>2022-07-16T09:30:22Z</time>
      </trkpt>
      <trkpt lat="45.62204" lon="6.59997">
        <ele>2100</ele>
        <time>2022-07-16T09:30:25Z</time>
      </trkpt>
      <trkpt lat="45.62203" lon="6.60001">
        <ele>2101</ele>
        <time>2022-07-16T09:30:28Z</time>
      </trkpt>
      <trkpt lat="45.62201" lon="6.60002">
        <ele>2101</ele>
        <time>2022-07-16T09:30:30Z</time>
      </trkpt>
      <trkpt lat="45.62199" lon="6.60002">
        <ele>2101</ele>
        <time>2022-07-16T09:30:33Z</time>
      </trkpt>
      <trkpt lat="45.62197" lon="6.6">
        <ele>2101</ele>
        <time>2022-07-16T09:30:34Z</time>
      </trkpt>
      <trkpt lat="45.62195" lon="6.6">
        <ele>2101</ele>
        <time>2022-07-16T09:30:36Z</time>
      </trkpt>
      <trkpt lat="45.62193" lon="6.6">
        <ele>2101</ele>
        <time>2022-07-16T09:30:38Z</time>
      </trkpt>
      <trkpt lat="45.62191" lon="6.59999">
        <ele>2102</ele>
        <time>2022-07-16T09:30:41Z</time>
      </trkpt>
      <trkpt lat="45.6219" lon="6.60001">
        <ele>2102</ele>
        <time>2022-07-16T09:30:44Z</time>
      </trkpt>
      <trkpt lat="45.62189" lon="6.60004">
        <ele>2103</ele>
        <time>2022-07-16T09:30:47Z</time>
      </trkpt>
      <trkpt lat="45.62188" lon="6.60006">
        <ele>2103</ele>
        <time>2022-07-16T09:30:50Z</time>
      </trkpt>
      <trkpt lat="45.62185" lon="6.60008">
        <ele>2103</ele>
        <time>2022-07-16T09:30:53Z</time>
      </trkpt>
      <trkpt lat="45.62183" lon="6.60009">
        <ele>2104</ele>
        <time>2022-07-16T09:30:56Z</time>
      </trkpt>
      <trkpt lat="45.62182" lon="6.6001">
        <ele>2105</ele>
        <time>2022-07-16T09:30:58Z</time>
      </trkpt>
      <trkpt lat="45.6218" lon="6.6001">
        <ele>2106</ele>
        <time>2022-07-16T09:31:01Z</time>
      </trkpt>
      <trkpt lat="45.62177" lon="6.6001">
        <ele>2106</ele>
        <time>2022-07-16T09:31:04Z</time>
      </trkpt>
      <trkpt lat="45.62176" lon="6.60011">
        <ele>2106</ele>
        <time>2022-07-16T09:31:06Z</time>
      </trkpt>
      <trkpt lat="45.62173" lon="6.60012">
        <ele>2106</ele>
        <time>2022-07-16T09:31:10Z</time>
      </trkpt>
      <trkpt lat="45.62171" lon="6.60012">
        <ele>2107</ele>
        <time>2022-07-16T09:31:12Z</time>
      </trkpt>
      <trkpt lat="45.62169" lon="6.60012">
        <ele>2107</ele>
        <time>2022-07-16T09:31:14Z</time>
      </trkpt>
      <trkpt lat="45.62167" lon="6.60014">
        <ele>2107</ele>
        <time>2022-07-16T09:31:17Z</time>
      </trkpt>
      <trkpt lat="45.62166" lon="6.60015">
        <ele>2107</ele>
        <time>2022-07-16T09:31:19Z</time>
      </trkpt>
      <trkpt lat="45.62164" lon="6.60018">
        <ele>2108</ele>
        <time>2022-07-16T09:31:22Z</time>
      </trkpt>
      <trkpt lat="45.62163" lon="6.6002">
        <ele>2109</ele>
        <time>2022-07-16T09:31:25Z</time>
      </trkpt>
      <trkpt lat="45.62163" lon="6.60024">
        <ele>2110</ele>
        <time>2022-07-16T09:31:30Z</time>
      </trkpt>
      <trkpt lat="45.62164" lon="6.60027">
        <ele>2111</ele>
        <time>2022-07-16T09:31:33Z</time>
      </trkpt>
      <trkpt lat="45.62164" lon="6.6003">
        <ele>2111</ele>
        <time>2022-07-16T09:31:35Z</time>
      </trkpt>
      <trkpt lat="45.62165" lon="6.60032">
        <ele>2112</ele>
        <time>2022-07-16T09:31:39Z</time>
      </trkpt>
      <trkpt lat="45.62165" lon="6.60035">
        <ele>2112</ele>
        <time>2022-07-16T09:31:43Z</time>
      </trkpt>
      <trkpt lat="45.62164" lon="6.60038">
        <ele>2113</ele>
        <time>2022-07-16T09:31:45Z</time>
      </trkpt>
      <trkpt lat="45.62162" lon="6.60039">
        <ele>2113</ele>
        <time>2022-07-16T09:31:47Z</time>
      </trkpt>
      <trkpt lat="45.6216" lon="6.6004">
        <ele>2114</ele>
        <time>2022-07-16T09:31:49Z</time>
      </trkpt>
      <trkpt lat="45.62158" lon="6.6004">
        <ele>2113</ele>
        <time>2022-07-16T09:31:52Z</time>
      </trkpt>
      <trkpt lat="45.62155" lon="6.6004">
        <ele>2114</ele>
        <time>2022-07-16T09:31:55Z</time>
      </trkpt>
      <trkpt lat="45.62153" lon="6.60038">
        <ele>2115</ele>
        <time>2022-07-16T09:31:59Z</time>
      </trkpt>
      <trkpt lat="45.62151" lon="6.60037">
        <ele>2116</ele>
        <time>2022-07-16T09:32:02Z</time>
      </trkpt>
      <trkpt lat="45.62149" lon="6.60035">
        <ele>2116</ele>
        <time>2022-07-16T09:32:04Z</time>
      </trkpt>
      <trkpt lat="45.62147" lon="6.60035">
        <ele>2118</ele>
        <time>2022-07-16T09:32:09Z</time>
      </trkpt>
      <trkpt lat="45.62145" lon="6.60036">
        <ele>2118</ele>
        <time>2022-07-16T09:32:12Z</time>
      </trkpt>
      <trkpt lat="45.62142" lon="6.60036">
        <ele>2119</ele>
        <time>2022-07-16T09:32:15Z</time>
      </trkpt>
      <trkpt lat="45.6214" lon="6.60037">
        <ele>2119</ele>
        <time>2022-07-16T09:32:17Z</time>
      </trkpt>
      <trkpt lat="45.62138" lon="6.60037">
        <ele>2120</ele>
        <time>2022-07-16T09:32:20Z</time>
      </trkpt>
      <trkpt lat="45.62135" lon="6.60036">
        <ele>2120</ele>
        <time>2022-07-16T09:32:23Z</time>
      </trkpt>
      <trkpt lat="45.62133" lon="6.60036">
        <ele>2120</ele>
        <time>2022-07-16T09:32:25Z</time>
      </trkpt>
      <trkpt lat="45.62131" lon="6.60036">
        <ele>2121</ele>
        <time>2022-07-16T09:32:28Z</time>
      </trkpt>
      <trkpt lat="45.62129" lon="6.60035">
        <ele>2121</ele>
        <time>2022-07-16T09:32:29Z</time>
      </trkpt>
      <trkpt lat="45.62127" lon="6.60034">
        <ele>2121</ele>
        <time>2022-07-16T09:32:31Z</time>
      </trkpt>
      <trkpt lat="45.62125" lon="6.60034">
        <ele>2121</ele>
        <time>2022-07-16T09:32:33Z</time>
      </trkpt>
      <trkpt lat="45.62123" lon="6.60033">
        <ele>2121</ele>
        <time>2022-07-16T09:32:35Z</time>
      </trkpt>
      <trkpt lat="45.62121" lon="6.60032">
        <ele>2121</ele>
        <time>2022-07-16T09:32:38Z</time>
      </trkpt>
      <trkpt lat="45.62119" lon="6.60031">
        <ele>2122</ele>
        <time>2022-07-16T09:32:39Z</time>
      </trkpt>
      <trkpt lat="45.62118" lon="6.60028">
        <ele>2123</ele>
        <time>2022-07-16T09:32:43Z</time>
      </trkpt>
      <trkpt lat="45.62118" lon="6.60025">
        <ele>2123</ele>
        <time>2022-07-16T09:32:46Z</time>
      </trkpt>
      <trkpt lat="45.62118" lon="6.60022">
        <ele>2124</ele>
        <time>2022-07-16T09:32:49Z</time>
      </trkpt>
      <trkpt lat="45.62117" lon="6.60021">
        <ele>2125</ele>
        <time>2022-07-16T09:32:54Z</time>
      </trkpt>
      <trkpt lat="45.62114" lon="6.60023">
        <ele>2126</ele>
        <time>2022-07-16T09:32:59Z</time>
      </trkpt>
      <trkpt lat="45.62114" lon="6.60023">
        <ele>2127</ele>
        <time>2022-07-16T09:33:04Z</time>
      </trkpt>
      <trkpt lat="45.62113" lon="6.60025">
        <ele>2127</ele>
        <time>2022-07-16T09:33:06Z</time>
      </trkpt>
      <trkpt lat="45.62111" lon="6.60026">
        <ele>2127</ele>
        <time>2022-07-16T09:33:08Z</time>
      </trkpt>
      <trkpt lat="45.62109" lon="6.60026">
        <ele>2128</ele>
        <time>2022-07-16T09:33:13Z</time>
      </trkpt>
      <trkpt lat="45.62107" lon="6.60027">
        <ele>2129</ele>
        <time>2022-07-16T09:33:15Z</time>
      </trkpt>
      <trkpt lat="45.62105" lon="6.60027">
        <ele>2130</ele>
        <time>2022-07-16T09:33:18Z</time>
      </trkpt>
      <trkpt lat="45.62103" lon="6.60027">
        <ele>2131</ele>
        <time>2022-07-16T09:33:22Z</time>
      </trkpt>
      <trkpt lat="45.62101" lon="6.60027">
        <ele>2130</ele>
        <time>2022-07-16T09:33:25Z</time>
      </trkpt>
      <trkpt lat="45.62099" lon="6.60026">
        <ele>2132</ele>
        <time>2022-07-16T09:33:30Z</time>
      </trkpt>
      <trkpt lat="45.62097" lon="6.60026">
        <ele>2132</ele>
        <time>2022-07-16T09:33:33Z</time>
      </trkpt>
      <trkpt lat="45.62098" lon="6.60023">
        <ele>2132</ele>
        <time>2022-07-16T09:33:37Z</time>
      </trkpt>
      <trkpt lat="45.62099" lon="6.60021">
        <ele>2132</ele>
        <time>2022-07-16T09:33:39Z</time>
      </trkpt>
      <trkpt lat="45.621" lon="6.60019">
        <ele>2133</ele>
        <time>2022-07-16T09:33:41Z</time>
      </trkpt>
      <trkpt lat="45.62102" lon="6.60015">
        <ele>2133</ele>
        <time>2022-07-16T09:33:44Z</time>
      </trkpt>
      <trkpt lat="45.62103" lon="6.60013">
        <ele>2133</ele>
        <time>2022-07-16T09:33:46Z</time>
      </trkpt>
      <trkpt lat="45.62105" lon="6.60011">
        <ele>2134</ele>
        <time>2022-07-16T09:33:49Z</time>
      </trkpt>
      <trkpt lat="45.62107" lon="6.60009">
        <ele>2134</ele>
        <time>2022-07-16T09:33:51Z</time>
      </trkpt>
      <trkpt lat="45.62108" lon="6.60007">
        <ele>2134</ele>
        <time>2022-07-16T09:33:54Z</time>
      </trkpt>
      <trkpt lat="45.62107" lon="6.60004">
        <ele>2134</ele>
        <time>2022-07-16T09:33:57Z</time>
      </trkpt>
      <trkpt lat="45.62106" lon="6.60001">
        <ele>2135</ele>
        <time>2022-07-16T09:34:00Z</time>
      </trkpt>
      <trkpt lat="45.62106" lon="6.59999">
        <ele>2136</ele>
        <time>2022-07-16T09:34:03Z</time>
      </trkpt>
      <trkpt lat="45.62105" lon="6.59996">
        <ele>2136</ele>
        <time>2022-07-16T09:34:05Z</time>
      </trkpt>
      <trkpt lat="45.62103" lon="6.59995">
        <ele>2136</ele>
        <time>2022-07-16T09:34:08Z</time>
      </trkpt>
      <trkpt lat="45.621" lon="6.59997">
        <ele>2137</ele>
        <time>2022-07-16T09:34:12Z</time>
      </trkpt>
      <trkpt lat="45.62099" lon="6.59999">
        <ele>2138</ele>
        <time>2022-07-16T09:34:15Z</time>
      </trkpt>
      <trkpt lat="45.62099" lon="6.60002">
        <ele>2138</ele>
        <time>2022-07-16T09:34:18Z</time>
      </trkpt>
      <trkpt lat="45.62098" lon="6.60004">
        <ele>2138</ele>
        <time>2022-07-16T09:34:21Z</time>
      </trkpt>
      <trkpt lat="45.62096" lon="6.60005">
        <ele>2138</ele>
        <time>2022-07-16T09:34:24Z</time>
      </trkpt>
      <trkpt lat="45.62093" lon="6.60005">
        <ele>2139</ele>
        <time>2022-07-16T09:34:26Z</time>
      </trkpt>
      <trkpt lat="45.62091" lon="6.60006">
        <ele>2139</ele>
        <time>2022-07-16T09:34:29Z</time>
      </trkpt>
      <trkpt lat="45.62089" lon="6.60006">
        <ele>2140</ele>
        <time>2022-07-16T09:34:32Z</time>
      </trkpt>
      <trkpt lat="45.62087" lon="6.60007">
        <ele>2141</ele>
        <time>2022-07-16T09:34:36Z</time>
      </trkpt>
      <trkpt lat="45.62084" lon="6.60007">
        <ele>2141</ele>
        <time>2022-07-16T09:34:38Z</time>
      </trkpt>
      <trkpt lat="45.62083" lon="6.60009">
        <ele>2141</ele>
        <time>2022-07-16T09:34:41Z</time>
      </trkpt>
      <trkpt lat="45.62081" lon="6.6001">
        <ele>2141</ele>
        <time>2022-07-16T09:34:43Z</time>
      </trkpt>
      <trkpt lat="45.62079" lon="6.60012">
        <ele>2141</ele>
        <time>2022-07-16T09:34:45Z</time>
      </trkpt>
      <trkpt lat="45.62077" lon="6.60013">
        <ele>2141</ele>
        <time>2022-07-16T09:34:47Z</time>
      </trkpt>
      <trkpt lat="45.62075" lon="6.60013">
        <ele>2142</ele>
        <time>2022-07-16T09:34:49Z</time>
      </trkpt>
      <trkpt lat="45.62073" lon="6.60014">
        <ele>2144</ele>
        <time>2022-07-16T09:34:52Z</time>
      </trkpt>
      <trkpt lat="45.6207" lon="6.60015">
        <ele>2145</ele>
        <time>2022-07-16T09:34:56Z</time>
      </trkpt>
      <trkpt lat="45.62068" lon="6.60016">
        <ele>2145</ele>
        <time>2022-07-16T09:34:59Z</time>
      </trkpt>
      <trkpt lat="45.62066" lon="6.60015">
        <ele>2145</ele>
        <time>2022-07-16T09:35:01Z</time>
      </trkpt>
      <trkpt lat="45.62064" lon="6.60013">
        <ele>2146</ele>
        <time>2022-07-16T09:35:04Z</time>
      </trkpt>
      <trkpt lat="45.62062" lon="6.60013">
        <ele>2147</ele>
        <time>2022-07-16T09:35:07Z</time>
      </trkpt>
      <trkpt lat="45.6206" lon="6.60012">
        <ele>2147</ele>
        <time>2022-07-16T09:35:10Z</time>
      </trkpt>
      <trkpt lat="45.62057" lon="6.60011">
        <ele>2148</ele>
        <time>2022-07-16T09:35:13Z</time>
      </trkpt>
      <trkpt lat="45.62055" lon="6.60011">
        <ele>2148</ele>
        <time>2022-07-16T09:35:16Z</time>
      </trkpt>
      <trkpt lat="45.62053" lon="6.60011">
        <ele>2148</ele>
        <time>2022-07-16T09:35:19Z</time>
      </trkpt>
      <trkpt lat="45.62051" lon="6.60011">
        <ele>2149</ele>
        <time>2022-07-16T09:35:22Z</time>
      </trkpt>
      <trkpt lat="45.62049" lon="6.60011">
        <ele>2150</ele>
        <time>2022-07-16T09:35:25Z</time>
      </trkpt>
      <trkpt lat="45.62047" lon="6.60011">
        <ele>2150</ele>
        <time>2022-07-16T09:35:29Z</time>
      </trkpt>
      <trkpt lat="45.62045" lon="6.60011">
        <ele>2151</ele>
        <time>2022-07-16T09:35:32Z</time>
      </trkpt>
      <trkpt lat="45.62044" lon="6.60009">
        <ele>2152</ele>
        <time>2022-07-16T09:35:36Z</time>
      </trkpt>
      <trkpt lat="45.62042" lon="6.60007">
        <ele>2153</ele>
        <time>2022-07-16T09:35:41Z</time>
      </trkpt>
      <trkpt lat="45.6204" lon="6.60006">
        <ele>2154</ele>
        <time>2022-07-16T09:35:44Z</time>
      </trkpt>
      <trkpt lat="45.62038" lon="6.60007">
        <ele>2154</ele>
        <time>2022-07-16T09:35:48Z</time>
      </trkpt>
      <trkpt lat="45.62036" lon="6.60007">
        <ele>2155</ele>
        <time>2022-07-16T09:35:50Z</time>
      </trkpt>
      <trkpt lat="45.62033" lon="6.60009">
        <ele>2155</ele>
        <time>2022-07-16T09:35:55Z</time>
      </trkpt>
      <trkpt lat="45.62032" lon="6.6001">
        <ele>2155</ele>
        <time>2022-07-16T09:35:57Z</time>
      </trkpt>
      <trkpt lat="45.6203" lon="6.60011">
        <ele>2156</ele>
        <time>2022-07-16T09:36:01Z</time>
      </trkpt>
      <trkpt lat="45.62027" lon="6.60012">
        <ele>2157</ele>
        <time>2022-07-16T09:36:04Z</time>
      </trkpt>
      <trkpt lat="45.62025" lon="6.60012">
        <ele>2158</ele>
        <time>2022-07-16T09:36:07Z</time>
      </trkpt>
      <trkpt lat="45.62024" lon="6.60013">
        <ele>2158</ele>
        <time>2022-07-16T09:36:10Z</time>
      </trkpt>
      <trkpt lat="45.62022" lon="6.60015">
        <ele>2159</ele>
        <time>2022-07-16T09:36:15Z</time>
      </trkpt>
      <trkpt lat="45.62021" lon="6.60016">
        <ele>2159</ele>
        <time>2022-07-16T09:36:17Z</time>
      </trkpt>
      <trkpt lat="45.62019" lon="6.60017">
        <ele>2160</ele>
        <time>2022-07-16T09:36:21Z</time>
      </trkpt>
      <trkpt lat="45.62017" lon="6.60017">
        <ele>2160</ele>
        <time>2022-07-16T09:36:24Z</time>
      </trkpt>
      <trkpt lat="45.62015" lon="6.60018">
        <ele>2161</ele>
        <time>2022-07-16T09:36:27Z</time>
      </trkpt>
      <trkpt lat="45.62013" lon="6.60016">
        <ele>2162</ele>
        <time>2022-07-16T09:36:30Z</time>
      </trkpt>
      <trkpt lat="45.62012" lon="6.60014">
        <ele>2163</ele>
        <time>2022-07-16T09:36:34Z</time>
      </trkpt>
      <trkpt lat="45.62012" lon="6.60011">
        <ele>2163</ele>
        <time>2022-07-16T09:36:38Z</time>
      </trkpt>
      <trkpt lat="45.62012" lon="6.60008">
        <ele>2164</ele>
        <time>2022-07-16T09:36:41Z</time>
      </trkpt>
      <trkpt lat="45.62012" lon="6.60006">
        <ele>2164</ele>
        <time>2022-07-16T09:36:46Z</time>
      </trkpt>
      <trkpt lat="45.6201" lon="6.60007">
        <ele>2165</ele>
        <time>2022-07-16T09:36:51Z</time>
      </trkpt>
      <trkpt lat="45.62008" lon="6.60009">
        <ele>2165</ele>
        <time>2022-07-16T09:36:53Z</time>
      </trkpt>
      <trkpt lat="45.62007" lon="6.60011">
        <ele>2166</ele>
        <time>2022-07-16T09:36:57Z</time>
      </trkpt>
      <trkpt lat="45.62005" lon="6.60012">
        <ele>2167</ele>
        <time>2022-07-16T09:37:01Z</time>
      </trkpt>
      <trkpt lat="45.62003" lon="6.60013">
        <ele>2168</ele>
        <time>2022-07-16T09:37:06Z</time>
      </trkpt>
      <trkpt lat="45.62001" lon="6.60013">
        <ele>2168</ele>
        <time>2022-07-16T09:37:08Z</time>
      </trkpt>
      <trkpt lat="45.61999" lon="6.60012">
        <ele>2170</ele>
        <time>2022-07-16T09:37:12Z</time>
      </trkpt>
      <trkpt lat="45.61998" lon="6.6001">
        <ele>2171</ele>
        <time>2022-07-16T09:37:14Z</time>
      </trkpt>
      <trkpt lat="45.61998" lon="6.60007">
        <ele>2171</ele>
        <time>2022-07-16T09:37:18Z</time>
      </trkpt>
      <trkpt lat="45.61999" lon="6.60004">
        <ele>2172</ele>
        <time>2022-07-16T09:37:21Z</time>
      </trkpt>
      <trkpt lat="45.61998" lon="6.60001">
        <ele>2173</ele>
        <time>2022-07-16T09:37:25Z</time>
      </trkpt>
      <trkpt lat="45.61997" lon="6.59999">
        <ele>2173</ele>
        <time>2022-07-16T09:37:28Z</time>
      </trkpt>
      <trkpt lat="45.61996" lon="6.59996">
        <ele>2174</ele>
        <time>2022-07-16T09:37:32Z</time>
      </trkpt>
      <trkpt lat="45.61995" lon="6.59994">
        <ele>2174</ele>
        <time>2022-07-16T09:37:35Z</time>
      </trkpt>
      <trkpt lat="45.61993" lon="6.59994">
        <ele>2175</ele>
        <time>2022-07-16T09:37:40Z</time>
      </trkpt>
      <trkpt lat="45.61991" lon="6.59997">
        <ele>2176</ele>
        <time>2022-07-16T09:37:46Z</time>
      </trkpt>
      <trkpt lat="45.61989" lon="6.59998">
        <ele>2176</ele>
        <time>2022-07-16T09:37:50Z</time>
      </trkpt>
      <trkpt lat="45.61987" lon="6.59998">
        <ele>2178</ele>
        <time>2022-07-16T09:37:54Z</time>
      </trkpt>
      <trkpt lat="45.61986" lon="6.6">
        <ele>2179</ele>
        <time>2022-07-16T09:37:58Z</time>
      </trkpt>
      <trkpt lat="45.61984" lon="6.60001">
        <ele>2179</ele>
        <time>2022-07-16T09:38:03Z</time>
      </trkpt>
      <trkpt lat="45.61982" lon="6.60001">
        <ele>2180</ele>
        <time>2022-07-16T09:38:06Z</time>
      </trkpt>
      <trkpt lat="45.61979" lon="6.60003">
        <ele>2181</ele>
        <time>2022-07-16T09:38:10Z</time>
      </trkpt>
      <trkpt lat="45.61977" lon="6.60004">
        <ele>2182</ele>
        <time>2022-07-16T09:38:14Z</time>
      </trkpt>
      <trkpt lat="45.61976" lon="6.60004">
        <ele>2183</ele>
        <time>2022-07-16T09:38:17Z</time>
      </trkpt>
      <trkpt lat="45.61973" lon="6.60005">
        <ele>2183</ele>
        <time>2022-07-16T09:38:22Z</time>
      </trkpt>
      <trkpt lat="45.61972" lon="6.60003">
        <ele>2183</ele>
        <time>2022-07-16T09:38:23Z</time>
      </trkpt>
      <trkpt lat="45.61971" lon="6.6">
        <ele>2184</ele>
        <time>2022-07-16T09:38:25Z</time>
      </trkpt>
      <trkpt lat="45.6197" lon="6.59997">
        <ele>2184</ele>
        <time>2022-07-16T09:38:28Z</time>
      </trkpt>
      <trkpt lat="45.6197" lon="6.59995">
        <ele>2184</ele>
        <time>2022-07-16T09:38:29Z</time>
      </trkpt>
      <trkpt lat="45.6197" lon="6.59992">
        <ele>2184</ele>
        <time>2022-07-16T09:38:31Z</time>
      </trkpt>
      <trkpt lat="45.6197" lon="6.59989">
        <ele>2184</ele>
        <time>2022-07-16T09:38:33Z</time>
      </trkpt>
      <trkpt lat="45.6197" lon="6.59986">
        <ele>2184</ele>
        <time>2022-07-16T09:38:35Z</time>
      </trkpt>
      <trkpt lat="45.6197" lon="6.59983">
        <ele>2184</ele>
        <time>2022-07-16T09:38:37Z</time>
      </trkpt>
      <trkpt lat="45.61969" lon="6.59979">
        <ele>2185</ele>
        <time>2022-07-16T09:38:40Z</time>
      </trkpt>
      <trkpt lat="45.61968" lon="6.59976">
        <ele>2185</ele>
        <time>2022-07-16T09:38:43Z</time>
      </trkpt>
      <trkpt lat="45.61968" lon="6.59974">
        <ele>2185</ele>
        <time>2022-07-16T09:38:44Z</time>
      </trkpt>
      <trkpt lat="45.61966" lon="6.59972">
        <ele>2186</ele>
        <time>2022-07-16T09:38:46Z</time>
      </trkpt>
      <trkpt lat="45.61965" lon="6.59969">
        <ele>2186</ele>
        <time>2022-07-16T09:38:48Z</time>
      </trkpt>
      <trkpt lat="45.61964" lon="6.59967">
        <ele>2186</ele>
        <time>2022-07-16T09:38:50Z</time>
      </trkpt>
      <trkpt lat="45.61962" lon="6.59966">
        <ele>2186</ele>
        <time>2022-07-16T09:38:52Z</time>
      </trkpt>
      <trkpt lat="45.6196" lon="6.59965">
        <ele>2187</ele>
        <time>2022-07-16T09:38:54Z</time>
      </trkpt>
      <trkpt lat="45.61958" lon="6.59965">
        <ele>2187</ele>
        <time>2022-07-16T09:38:56Z</time>
      </trkpt>
      <trkpt lat="45.61956" lon="6.59964">
        <ele>2188</ele>
        <time>2022-07-16T09:38:59Z</time>
      </trkpt>
      <trkpt lat="45.61954" lon="6.59965">
        <ele>2188</ele>
        <time>2022-07-16T09:39:01Z</time>
      </trkpt>
      <trkpt lat="45.61952" lon="6.59966">
        <ele>2188</ele>
        <time>2022-07-16T09:39:03Z</time>
      </trkpt>
      <trkpt lat="45.6195" lon="6.59968">
        <ele>2188</ele>
        <time>2022-07-16T09:39:06Z</time>
      </trkpt>
      <trkpt lat="45.61948" lon="6.59969">
        <ele>2189</ele>
        <time>2022-07-16T09:39:08Z</time>
      </trkpt>
      <trkpt lat="45.61946" lon="6.5997">
        <ele>2189</ele>
        <time>2022-07-16T09:39:10Z</time>
      </trkpt>
      <trkpt lat="45.61944" lon="6.59971">
        <ele>2189</ele>
        <time>2022-07-16T09:39:12Z</time>
      </trkpt>
      <trkpt lat="45.61942" lon="6.59973">
        <ele>2189</ele>
        <time>2022-07-16T09:39:14Z</time>
      </trkpt>
      <trkpt lat="45.61941" lon="6.59974">
        <ele>2189</ele>
        <time>2022-07-16T09:39:16Z</time>
      </trkpt>
      <trkpt lat="45.61939" lon="6.59975">
        <ele>2189</ele>
        <time>2022-07-16T09:39:18Z</time>
      </trkpt>
      <trkpt lat="45.61937" lon="6.59977">
        <ele>2189</ele>
        <time>2022-07-16T09:39:20Z</time>
      </trkpt>
      <trkpt lat="45.61935" lon="6.59979">
        <ele>2190</ele>
        <time>2022-07-16T09:39:22Z</time>
      </trkpt>
      <trkpt lat="45.61933" lon="6.5998">
        <ele>2190</ele>
        <time>2022-07-16T09:39:25Z</time>
      </trkpt>
      <trkpt lat="45.61931" lon="6.59982">
        <ele>2190</ele>
        <time>2022-07-16T09:39:26Z</time>
      </trkpt>
      <trkpt lat="45.61929" lon="6.59983">
        <ele>2190</ele>
        <time>2022-07-16T09:39:28Z</time>
      </trkpt>
      <trkpt lat="45.61927" lon="6.59985">
        <ele>2191</ele>
        <time>2022-07-16T09:39:30Z</time>
      </trkpt>
      <trkpt lat="45.61925" lon="6.59986">
        <ele>2191</ele>
        <time>2022-07-16T09:39:32Z</time>
      </trkpt>
      <trkpt lat="45.61923" lon="6.59987">
        <ele>2192</ele>
        <time>2022-07-16T09:39:34Z</time>
      </trkpt>
      <trkpt lat="45.61921" lon="6.59988">
        <ele>2192</ele>
        <time>2022-07-16T09:39:36Z</time>
      </trkpt>
      <trkpt lat="45.61919" lon="6.59989">
        <ele>2192</ele>
        <time>2022-07-16T09:39:38Z</time>
      </trkpt>
      <trkpt lat="45.61917" lon="6.5999">
        <ele>2192</ele>
        <time>2022-07-16T09:39:40Z</time>
      </trkpt>
      <trkpt lat="45.61915" lon="6.59992">
        <ele>2192</ele>
        <time>2022-07-16T09:39:43Z</time>
      </trkpt>
      <trkpt lat="45.61913" lon="6.59993">
        <ele>2192</ele>
        <time>2022-07-16T09:39:45Z</time>
      </trkpt>
      <trkpt lat="45.61911" lon="6.59994">
        <ele>2192</ele>
        <time>2022-07-16T09:39:47Z</time>
      </trkpt>
      <trkpt lat="45.61909" lon="6.59996">
        <ele>2192</ele>
        <time>2022-07-16T09:39:48Z</time>
      </trkpt>
      <trkpt lat="45.61907" lon="6.59997">
        <ele>2193</ele>
        <time>2022-07-16T09:39:50Z</time>
      </trkpt>
      <trkpt lat="45.61905" lon="6.59997">
        <ele>2193</ele>
        <time>2022-07-16T09:39:52Z</time>
      </trkpt>
      <trkpt lat="45.61903" lon="6.59997">
        <ele>2193</ele>
        <time>2022-07-16T09:39:54Z</time>
      </trkpt>
      <trkpt lat="45.61901" lon="6.59998">
        <ele>2193</ele>
        <time>2022-07-16T09:39:56Z</time>
      </trkpt>
      <trkpt lat="45.61899" lon="6.59999">
        <ele>2194</ele>
        <time>2022-07-16T09:39:58Z</time>
      </trkpt>
      <trkpt lat="45.61897" lon="6.6">
        <ele>2194</ele>
        <time>2022-07-16T09:40:00Z</time>
      </trkpt>
      <trkpt lat="45.61895" lon="6.60001">
        <ele>2194</ele>
        <time>2022-07-16T09:40:03Z</time>
      </trkpt>
      <trkpt lat="45.61893" lon="6.60002">
        <ele>2196</ele>
        <time>2022-07-16T09:40:04Z</time>
      </trkpt>
      <trkpt lat="45.61891" lon="6.60003">
        <ele>2196</ele>
        <time>2022-07-16T09:40:06Z</time>
      </trkpt>
      <trkpt lat="45.61889" lon="6.60005">
        <ele>2196</ele>
        <time>2022-07-16T09:40:08Z</time>
      </trkpt>
      <trkpt lat="45.61886" lon="6.60006">
        <ele>2196</ele>
        <time>2022-07-16T09:40:10Z</time>
      </trkpt>
      <trkpt lat="45.61884" lon="6.60007">
        <ele>2196</ele>
        <time>2022-07-16T09:40:12Z</time>
      </trkpt>
      <trkpt lat="45.61882" lon="6.60008">
        <ele>2196</ele>
        <time>2022-07-16T09:40:14Z</time>
      </trkpt>
      <trkpt lat="45.6188" lon="6.60009">
        <ele>2197</ele>
        <time>2022-07-16T09:40:16Z</time>
      </trkpt>
      <trkpt lat="45.61878" lon="6.6001">
        <ele>2197</ele>
        <time>2022-07-16T09:40:18Z</time>
      </trkpt>
      <trkpt lat="45.61876" lon="6.60011">
        <ele>2197</ele>
        <time>2022-07-16T09:40:20Z</time>
      </trkpt>
      <trkpt lat="45.61874" lon="6.60013">
        <ele>2197</ele>
        <time>2022-07-16T09:40:23Z</time>
      </trkpt>
      <trkpt lat="45.61871" lon="6.60014">
        <ele>2197</ele>
        <time>2022-07-16T09:40:24Z</time>
      </trkpt>
      <trkpt lat="45.61869" lon="6.60015">
        <ele>2198</ele>
        <time>2022-07-16T09:40:27Z</time>
      </trkpt>
      <trkpt lat="45.61867" lon="6.60017">
        <ele>2198</ele>
        <time>2022-07-16T09:40:29Z</time>
      </trkpt>
      <trkpt lat="45.61865" lon="6.60019">
        <ele>2198</ele>
        <time>2022-07-16T09:40:30Z</time>
      </trkpt>
      <trkpt lat="45.61863" lon="6.6002">
        <ele>2198</ele>
        <time>2022-07-16T09:40:33Z</time>
      </trkpt>
      <trkpt lat="45.61861" lon="6.60023">
        <ele>2199</ele>
        <time>2022-07-16T09:40:34Z</time>
      </trkpt>
      <trkpt lat="45.6186" lon="6.60025">
        <ele>2199</ele>
        <time>2022-07-16T09:40:36Z</time>
      </trkpt>
      <trkpt lat="45.61858" lon="6.60027">
        <ele>2199</ele>
        <time>2022-07-16T09:40:38Z</time>
      </trkpt>
      <trkpt lat="45.61856" lon="6.60029">
        <ele>2199</ele>
        <time>2022-07-16T09:40:41Z</time>
      </trkpt>
      <trkpt lat="45.61854" lon="6.60031">
        <ele>2199</ele>
        <time>2022-07-16T09:40:42Z</time>
      </trkpt>
      <trkpt lat="45.61853" lon="6.60033">
        <ele>2199</ele>
        <time>2022-07-16T09:40:44Z</time>
      </trkpt>
      <trkpt lat="45.61851" lon="6.60036">
        <ele>2200</ele>
        <time>2022-07-16T09:40:46Z</time>
      </trkpt>
      <trkpt lat="45.6185" lon="6.60038">
        <ele>2201</ele>
        <time>2022-07-16T09:40:48Z</time>
      </trkpt>
      <trkpt lat="45.61848" lon="6.6004">
        <ele>2201</ele>
        <time>2022-07-16T09:40:50Z</time>
      </trkpt>
      <trkpt lat="45.61847" lon="6.60043">
        <ele>2201</ele>
        <time>2022-07-16T09:40:53Z</time>
      </trkpt>
      <trkpt lat="45.61846" lon="6.60045">
        <ele>2201</ele>
        <time>2022-07-16T09:40:54Z</time>
      </trkpt>
      <trkpt lat="45.61844" lon="6.60048">
        <ele>2201</ele>
        <time>2022-07-16T09:40:56Z</time>
      </trkpt>
      <trkpt lat="45.61843" lon="6.6005">
        <ele>2201</ele>
        <time>2022-07-16T09:40:58Z</time>
      </trkpt>
      <trkpt lat="45.61842" lon="6.60052">
        <ele>2201</ele>
        <time>2022-07-16T09:41:01Z</time>
      </trkpt>
      <trkpt lat="45.6184" lon="6.60055">
        <ele>2201</ele>
        <time>2022-07-16T09:41:02Z</time>
      </trkpt>
      <trkpt lat="45.61839" lon="6.60057">
        <ele>2201</ele>
        <time>2022-07-16T09:41:04Z</time>
      </trkpt>
      <trkpt lat="45.61838" lon="6.60059">
        <ele>2201</ele>
        <time>2022-07-16T09:41:06Z</time>
      </trkpt>
      <trkpt lat="45.61836" lon="6.60062">
        <ele>2201</ele>
        <time>2022-07-16T09:41:08Z</time>
      </trkpt>
      <trkpt lat="45.61835" lon="6.60064">
        <ele>2202</ele>
        <time>2022-07-16T09:41:10Z</time>
      </trkpt>
      <trkpt lat="45.61833" lon="6.60067">
        <ele>2202</ele>
        <time>2022-07-16T09:41:12Z</time>
      </trkpt>
      <trkpt lat="45.61832" lon="6.60069">
        <ele>2203</ele>
        <time>2022-07-16T09:41:14Z</time>
      </trkpt>
      <trkpt lat="45.6183" lon="6.60071">
        <ele>2203</ele>
        <time>2022-07-16T09:41:16Z</time>
      </trkpt>
      <trkpt lat="45.61829" lon="6.60074">
        <ele>2203</ele>
        <time>2022-07-16T09:41:19Z</time>
      </trkpt>
      <trkpt lat="45.61828" lon="6.60076">
        <ele>2203</ele>
        <time>2022-07-16T09:41:20Z</time>
      </trkpt>
      <trkpt lat="45.61826" lon="6.60078">
        <ele>2203</ele>
        <time>2022-07-16T09:41:22Z</time>
      </trkpt>
      <trkpt lat="45.61824" lon="6.6008">
        <ele>2204</ele>
        <time>2022-07-16T09:41:24Z</time>
      </trkpt>
      <trkpt lat="45.61823" lon="6.60082">
        <ele>2204</ele>
        <time>2022-07-16T09:41:27Z</time>
      </trkpt>
      <trkpt lat="45.61822" lon="6.60084">
        <ele>2204</ele>
        <time>2022-07-16T09:41:29Z</time>
      </trkpt>
      <trkpt lat="45.61821" lon="6.60087">
        <ele>2204</ele>
        <time>2022-07-16T09:41:30Z</time>
      </trkpt>
      <trkpt lat="45.61819" lon="6.6009">
        <ele>2204</ele>
        <time>2022-07-16T09:41:32Z</time>
      </trkpt>
      <trkpt lat="45.61818" lon="6.60092">
        <ele>2205</ele>
        <time>2022-07-16T09:41:34Z</time>
      </trkpt>
      <trkpt lat="45.61817" lon="6.60095">
        <ele>2205</ele>
        <time>2022-07-16T09:41:36Z</time>
      </trkpt>
      <trkpt lat="45.61816" lon="6.60098">
        <ele>2205</ele>
        <time>2022-07-16T09:41:39Z</time>
      </trkpt>
      <trkpt lat="45.61815" lon="6.601">
        <ele>2205</ele>
        <time>2022-07-16T09:41:41Z</time>
      </trkpt>
      <trkpt lat="45.61815" lon="6.60103">
        <ele>2205</ele>
        <time>2022-07-16T09:41:42Z</time>
      </trkpt>
      <trkpt lat="45.61813" lon="6.60106">
        <ele>2206</ele>
        <time>2022-07-16T09:41:44Z</time>
      </trkpt>
      <trkpt lat="45.61812" lon="6.60108">
        <ele>2206</ele>
        <time>2022-07-16T09:41:47Z</time>
      </trkpt>
      <trkpt lat="45.61811" lon="6.60112">
        <ele>2206</ele>
        <time>2022-07-16T09:41:48Z</time>
      </trkpt>
      <trkpt lat="45.6181" lon="6.60114">
        <ele>2207</ele>
        <time>2022-07-16T09:41:50Z</time>
      </trkpt>
      <trkpt lat="45.61808" lon="6.60117">
        <ele>2207</ele>
        <time>2022-07-16T09:41:52Z</time>
      </trkpt>
      <trkpt lat="45.61807" lon="6.60119">
        <ele>2207</ele>
        <time>2022-07-16T09:41:54Z</time>
      </trkpt>
      <trkpt lat="45.61806" lon="6.60122">
        <ele>2207</ele>
        <time>2022-07-16T09:41:56Z</time>
      </trkpt>
      <trkpt lat="45.61804" lon="6.60124">
        <ele>2207</ele>
        <time>2022-07-16T09:41:58Z</time>
      </trkpt>
      <trkpt lat="45.61803" lon="6.60127">
        <ele>2207</ele>
        <time>2022-07-16T09:42:00Z</time>
      </trkpt>
      <trkpt lat="45.61803" lon="6.6013">
        <ele>2207</ele>
        <time>2022-07-16T09:42:02Z</time>
      </trkpt>
      <trkpt lat="45.61802" lon="6.60133">
        <ele>2208</ele>
        <time>2022-07-16T09:42:04Z</time>
      </trkpt>
      <trkpt lat="45.618" lon="6.60136">
        <ele>2208</ele>
        <time>2022-07-16T09:42:06Z</time>
      </trkpt>
      <trkpt lat="45.618" lon="6.60139">
        <ele>2209</ele>
        <time>2022-07-16T09:42:09Z</time>
      </trkpt>
      <trkpt lat="45.61799" lon="6.60142">
        <ele>2209</ele>
        <time>2022-07-16T09:42:10Z</time>
      </trkpt>
      <trkpt lat="45.61798" lon="6.60145">
        <ele>2209</ele>
        <time>2022-07-16T09:42:12Z</time>
      </trkpt>
      <trkpt lat="45.61797" lon="6.60148">
        <ele>2209</ele>
        <time>2022-07-16T09:42:14Z</time>
      </trkpt>
      <trkpt lat="45.61796" lon="6.60151">
        <ele>2209</ele>
        <time>2022-07-16T09:42:17Z</time>
      </trkpt>
      <trkpt lat="45.61795" lon="6.60153">
        <ele>2209</ele>
        <time>2022-07-16T09:42:19Z</time>
      </trkpt>
      <trkpt lat="45.61794" lon="6.60156">
        <ele>2210</ele>
        <time>2022-07-16T09:42:21Z</time>
      </trkpt>
      <trkpt lat="45.61793" lon="6.60158">
        <ele>2210</ele>
        <time>2022-07-16T09:42:22Z</time>
      </trkpt>
      <trkpt lat="45.61792" lon="6.60161">
        <ele>2210</ele>
        <time>2022-07-16T09:42:24Z</time>
      </trkpt>
      <trkpt lat="45.61791" lon="6.60163">
        <ele>2211</ele>
        <time>2022-07-16T09:42:26Z</time>
      </trkpt>
      <trkpt lat="45.61789" lon="6.60166">
        <ele>2211</ele>
        <time>2022-07-16T09:42:28Z</time>
      </trkpt>
      <trkpt lat="45.61788" lon="6.60168">
        <ele>2211</ele>
        <time>2022-07-16T09:42:30Z</time>
      </trkpt>
      <trkpt lat="45.61786" lon="6.6017">
        <ele>2211</ele>
        <time>2022-07-16T09:42:32Z</time>
      </trkpt>
      <trkpt lat="45.61784" lon="6.60173">
        <ele>2211</ele>
        <time>2022-07-16T09:42:35Z</time>
      </trkpt>
      <trkpt lat="45.61783" lon="6.60175">
        <ele>2211</ele>
        <time>2022-07-16T09:42:36Z</time>
      </trkpt>
      <trkpt lat="45.61781" lon="6.60177">
        <ele>2212</ele>
        <time>2022-07-16T09:42:38Z</time>
      </trkpt>
      <trkpt lat="45.6178" lon="6.6018">
        <ele>2212</ele>
        <time>2022-07-16T09:42:40Z</time>
      </trkpt>
      <trkpt lat="45.61778" lon="6.60182">
        <ele>2212</ele>
        <time>2022-07-16T09:42:42Z</time>
      </trkpt>
      <trkpt lat="45.61777" lon="6.60184">
        <ele>2212</ele>
        <time>2022-07-16T09:42:44Z</time>
      </trkpt>
      <trkpt lat="45.61775" lon="6.60186">
        <ele>2213</ele>
        <time>2022-07-16T09:42:47Z</time>
      </trkpt>
      <trkpt lat="45.61773" lon="6.60188">
        <ele>2213</ele>
        <time>2022-07-16T09:42:49Z</time>
      </trkpt>
      <trkpt lat="45.61771" lon="6.6019">
        <ele>2213</ele>
        <time>2022-07-16T09:42:50Z</time>
      </trkpt>
      <trkpt lat="45.6177" lon="6.60192">
        <ele>2213</ele>
        <time>2022-07-16T09:42:52Z</time>
      </trkpt>
      <trkpt lat="45.61768" lon="6.60194">
        <ele>2213</ele>
        <time>2022-07-16T09:42:54Z</time>
      </trkpt>
      <trkpt lat="45.61766" lon="6.60195">
        <ele>2214</ele>
        <time>2022-07-16T09:42:56Z</time>
      </trkpt>
      <trkpt lat="45.61765" lon="6.60198">
        <ele>2214</ele>
        <time>2022-07-16T09:42:59Z</time>
      </trkpt>
      <trkpt lat="45.61763" lon="6.602">
        <ele>2214</ele>
        <time>2022-07-16T09:43:00Z</time>
      </trkpt>
      <trkpt lat="45.61761" lon="6.60202">
        <ele>2214</ele>
        <time>2022-07-16T09:43:02Z</time>
      </trkpt>
      <trkpt lat="45.6176" lon="6.60204">
        <ele>2215</ele>
        <time>2022-07-16T09:43:04Z</time>
      </trkpt>
      <trkpt lat="45.61758" lon="6.60206">
        <ele>2215</ele>
        <time>2022-07-16T09:43:06Z</time>
      </trkpt>
      <trkpt lat="45.61756" lon="6.60208">
        <ele>2215</ele>
        <time>2022-07-16T09:43:08Z</time>
      </trkpt>
      <trkpt lat="45.61755" lon="6.6021">
        <ele>2216</ele>
        <time>2022-07-16T09:43:10Z</time>
      </trkpt>
      <trkpt lat="45.61753" lon="6.60213">
        <ele>2216</ele>
        <time>2022-07-16T09:43:13Z</time>
      </trkpt>
      <trkpt lat="45.61752" lon="6.60215">
        <ele>2216</ele>
        <time>2022-07-16T09:43:14Z</time>
      </trkpt>
      <trkpt lat="45.6175" lon="6.60217">
        <ele>2216</ele>
        <time>2022-07-16T09:43:16Z</time>
      </trkpt>
      <trkpt lat="45.61748" lon="6.6022">
        <ele>2216</ele>
        <time>2022-07-16T09:43:18Z</time>
      </trkpt>
      <trkpt lat="45.61746" lon="6.60222">
        <ele>2217</ele>
        <time>2022-07-16T09:43:21Z</time>
      </trkpt>
      <trkpt lat="45.61745" lon="6.60224">
        <ele>2217</ele>
        <time>2022-07-16T09:43:22Z</time>
      </trkpt>
      <trkpt lat="45.61743" lon="6.60226">
        <ele>2217</ele>
        <time>2022-07-16T09:43:24Z</time>
      </trkpt>
      <trkpt lat="45.61741" lon="6.60229">
        <ele>2217</ele>
        <time>2022-07-16T09:43:26Z</time>
      </trkpt>
      <trkpt lat="45.6174" lon="6.60231">
        <ele>2217</ele>
        <time>2022-07-16T09:43:28Z</time>
      </trkpt>
      <trkpt lat="45.61738" lon="6.60234">
        <ele>2217</ele>
        <time>2022-07-16T09:43:30Z</time>
      </trkpt>
      <trkpt lat="45.61737" lon="6.60236">
        <ele>2217</ele>
        <time>2022-07-16T09:43:32Z</time>
      </trkpt>
      <trkpt lat="45.61735" lon="6.60238">
        <ele>2218</ele>
        <time>2022-07-16T09:43:35Z</time>
      </trkpt>
      <trkpt lat="45.61735" lon="6.60241">
        <ele>2218</ele>
        <time>2022-07-16T09:43:36Z</time>
      </trkpt>
      <trkpt lat="45.61734" lon="6.60244">
        <ele>2218</ele>
        <time>2022-07-16T09:43:38Z</time>
      </trkpt>
      <trkpt lat="45.61732" lon="6.60247">
        <ele>2219</ele>
        <time>2022-07-16T09:43:40Z</time>
      </trkpt>
      <trkpt lat="45.61731" lon="6.60249">
        <ele>2219</ele>
        <time>2022-07-16T09:43:43Z</time>
      </trkpt>
      <trkpt lat="45.61729" lon="6.60251">
        <ele>2220</ele>
        <time>2022-07-16T09:43:44Z</time>
      </trkpt>
      <trkpt lat="45.61727" lon="6.60253">
        <ele>2220</ele>
        <time>2022-07-16T09:43:46Z</time>
      </trkpt>
      <trkpt lat="45.61726" lon="6.60256">
        <ele>2220</ele>
        <time>2022-07-16T09:43:48Z</time>
      </trkpt>
      <trkpt lat="45.61724" lon="6.60258">
        <ele>2220</ele>
        <time>2022-07-16T09:43:51Z</time>
      </trkpt>
      <trkpt lat="45.61722" lon="6.6026">
        <ele>2220</ele>
        <time>2022-07-16T09:43:52Z</time>
      </trkpt>
      <trkpt lat="45.61721" lon="6.60262">
        <ele>2220</ele>
        <time>2022-07-16T09:43:54Z</time>
      </trkpt>
      <trkpt lat="45.61719" lon="6.60264">
        <ele>2220</ele>
        <time>2022-07-16T09:43:56Z</time>
      </trkpt>
      <trkpt lat="45.61718" lon="6.60267">
        <ele>2220</ele>
        <time>2022-07-16T09:43:58Z</time>
      </trkpt>
      <trkpt lat="45.61716" lon="6.60269">
        <ele>2222</ele>
        <time>2022-07-16T09:44:00Z</time>
      </trkpt>
      <trkpt lat="45.61715" lon="6.60271">
        <ele>2222</ele>
        <time>2022-07-16T09:44:02Z</time>
      </trkpt>
      <trkpt lat="45.61713" lon="6.60274">
        <ele>2222</ele>
        <time>2022-07-16T09:44:04Z</time>
      </trkpt>
      <trkpt lat="45.61713" lon="6.60276">
        <ele>2222</ele>
        <time>2022-07-16T09:44:06Z</time>
      </trkpt>
      <trkpt lat="45.61712" lon="6.60279">
        <ele>2222</ele>
        <time>2022-07-16T09:44:08Z</time>
      </trkpt>
      <trkpt lat="45.61712" lon="6.60282">
        <ele>2222</ele>
        <time>2022-07-16T09:44:10Z</time>
      </trkpt>
      <trkpt lat="45.61714" lon="6.60286">
        <ele>2223</ele>
        <time>2022-07-16T09:44:13Z</time>
      </trkpt>
      <trkpt lat="45.61716" lon="6.60288">
        <ele>2223</ele>
        <time>2022-07-16T09:44:15Z</time>
      </trkpt>
      <trkpt lat="45.61717" lon="6.6029">
        <ele>2223</ele>
        <time>2022-07-16T09:44:18Z</time>
      </trkpt>
      <trkpt lat="45.61718" lon="6.60293">
        <ele>2223</ele>
        <time>2022-07-16T09:44:19Z</time>
      </trkpt>
      <trkpt lat="45.6172" lon="6.60295">
        <ele>2223</ele>
        <time>2022-07-16T09:44:21Z</time>
      </trkpt>
      <trkpt lat="45.61722" lon="6.60298">
        <ele>2224</ele>
        <time>2022-07-16T09:44:23Z</time>
      </trkpt>
      <trkpt lat="45.61723" lon="6.603">
        <ele>2224</ele>
        <time>2022-07-16T09:44:25Z</time>
      </trkpt>
      <trkpt lat="45.61725" lon="6.60302">
        <ele>2224</ele>
        <time>2022-07-16T09:44:27Z</time>
      </trkpt>
      <trkpt lat="45.61726" lon="6.60304">
        <ele>2225</ele>
        <time>2022-07-16T09:44:30Z</time>
      </trkpt>
      <trkpt lat="45.61728" lon="6.60307">
        <ele>2224</ele>
        <time>2022-07-16T09:44:31Z</time>
      </trkpt>
      <trkpt lat="45.6173" lon="6.60309">
        <ele>2224</ele>
        <time>2022-07-16T09:44:33Z</time>
      </trkpt>
      <trkpt lat="45.61732" lon="6.60311">
        <ele>2225</ele>
        <time>2022-07-16T09:44:35Z</time>
      </trkpt>
      <trkpt lat="45.61734" lon="6.60312">
        <ele>2224</ele>
        <time>2022-07-16T09:44:37Z</time>
      </trkpt>
      <trkpt lat="45.61735" lon="6.60313">
        <ele>2224</ele>
        <time>2022-07-16T09:44:39Z</time>
      </trkpt>
      <trkpt lat="45.61738" lon="6.60313">
        <ele>2225</ele>
        <time>2022-07-16T09:44:42Z</time>
      </trkpt>
      <trkpt lat="45.61739" lon="6.60311">
        <ele>2225</ele>
        <time>2022-07-16T09:44:48Z</time>
      </trkpt>
      <trkpt lat="45.61742" lon="6.60312">
        <ele>2224</ele>
        <time>2022-07-16T09:44:49Z</time>
      </trkpt>
      <trkpt lat="45.61744" lon="6.60312">
        <ele>2224</ele>
        <time>2022-07-16T09:44:51Z</time>
      </trkpt>
      <trkpt lat="45.61746" lon="6.60312">
        <ele>2225</ele>
        <time>2022-07-16T09:44:53Z</time>
      </trkpt>
      <trkpt lat="45.61749" lon="6.60313">
        <ele>2225</ele>
        <time>2022-07-16T09:44:55Z</time>
      </trkpt>
      <trkpt lat="45.61751" lon="6.60314">
        <ele>2226</ele>
        <time>2022-07-16T09:44:58Z</time>
      </trkpt>
      <trkpt lat="45.61753" lon="6.60315">
        <ele>2226</ele>
        <time>2022-07-16T09:45:00Z</time>
      </trkpt>
      <trkpt lat="45.61755" lon="6.60316">
        <ele>2227</ele>
        <time>2022-07-16T09:45:03Z</time>
      </trkpt>
      <trkpt lat="45.61758" lon="6.60317">
        <ele>2227</ele>
        <time>2022-07-16T09:45:05Z</time>
      </trkpt>
      <trkpt lat="45.6176" lon="6.60317">
        <ele>2227</ele>
        <time>2022-07-16T09:45:08Z</time>
      </trkpt>
      <trkpt lat="45.61763" lon="6.60318">
        <ele>2228</ele>
        <time>2022-07-16T09:45:11Z</time>
      </trkpt>
      <trkpt lat="45.61765" lon="6.60318">
        <ele>2229</ele>
        <time>2022-07-16T09:45:14Z</time>
      </trkpt>
      <trkpt lat="45.61768" lon="6.60318">
        <ele>2229</ele>
        <time>2022-07-16T09:45:17Z</time>
      </trkpt>
      <trkpt lat="45.6177" lon="6.60318">
        <ele>2229</ele>
        <time>2022-07-16T09:45:20Z</time>
      </trkpt>
      <trkpt lat="45.61773" lon="6.60318">
        <ele>2230</ele>
        <time>2022-07-16T09:45:23Z</time>
      </trkpt>
      <trkpt lat="45.61774" lon="6.60318">
        <ele>2230</ele>
        <time>2022-07-16T09:45:26Z</time>
      </trkpt>
      <trkpt lat="45.61776" lon="6.60318">
        <ele>2231</ele>
        <time>2022-07-16T09:45:27Z</time>
      </trkpt>
      <trkpt lat="45.61778" lon="6.60319">
        <ele>2232</ele>
        <time>2022-07-16T09:45:29Z</time>
      </trkpt>
      <trkpt lat="45.6178" lon="6.60319">
        <ele>2233</ele>
        <time>2022-07-16T09:45:31Z</time>
      </trkpt>
      <trkpt lat="45.61783" lon="6.60318">
        <ele>2232</ele>
        <time>2022-07-16T09:45:34Z</time>
      </trkpt>
      <trkpt lat="45.61785" lon="6.60319">
        <ele>2232</ele>
        <time>2022-07-16T09:45:36Z</time>
      </trkpt>
      <trkpt lat="45.61787" lon="6.60319">
        <ele>2232</ele>
        <time>2022-07-16T09:45:38Z</time>
      </trkpt>
      <trkpt lat="45.61789" lon="6.6032">
        <ele>2233</ele>
        <time>2022-07-16T09:45:41Z</time>
      </trkpt>
      <trkpt lat="45.61791" lon="6.60321">
        <ele>2233</ele>
        <time>2022-07-16T09:45:43Z</time>
      </trkpt>
      <trkpt lat="45.61793" lon="6.60321">
        <ele>2233</ele>
        <time>2022-07-16T09:45:45Z</time>
      </trkpt>
      <trkpt lat="45.61795" lon="6.60322">
        <ele>2233</ele>
        <time>2022-07-16T09:45:46Z</time>
      </trkpt>
      <trkpt lat="45.61797" lon="6.60323">
        <ele>2233</ele>
        <time>2022-07-16T09:45:48Z</time>
      </trkpt>
      <trkpt lat="45.61799" lon="6.60324">
        <ele>2233</ele>
        <time>2022-07-16T09:45:50Z</time>
      </trkpt>
      <trkpt lat="45.61801" lon="6.60326">
        <ele>2233</ele>
        <time>2022-07-16T09:45:52Z</time>
      </trkpt>
      <trkpt lat="45.61803" lon="6.60327">
        <ele>2234</ele>
        <time>2022-07-16T09:45:55Z</time>
      </trkpt>
      <trkpt lat="45.61806" lon="6.60329">
        <ele>2234</ele>
        <time>2022-07-16T09:45:57Z</time>
      </trkpt>
      <trkpt lat="45.61807" lon="6.60329">
        <ele>2234</ele>
        <time>2022-07-16T09:45:59Z</time>
      </trkpt>
      <trkpt lat="45.61809" lon="6.60329">
        <ele>2234</ele>
        <time>2022-07-16T09:46:01Z</time>
      </trkpt>
      <trkpt lat="45.61812" lon="6.6033">
        <ele>2235</ele>
        <time>2022-07-16T09:46:04Z</time>
      </trkpt>
      <trkpt lat="45.61814" lon="6.60331">
        <ele>2235</ele>
        <time>2022-07-16T09:46:07Z</time>
      </trkpt>
      <trkpt lat="45.61816" lon="6.60332">
        <ele>2235</ele>
        <time>2022-07-16T09:46:09Z</time>
      </trkpt>
      <trkpt lat="45.61819" lon="6.60334">
        <ele>2235</ele>
        <time>2022-07-16T09:46:10Z</time>
      </trkpt>
      <trkpt lat="45.61821" lon="6.60334">
        <ele>2236</ele>
        <time>2022-07-16T09:46:12Z</time>
      </trkpt>
      <trkpt lat="45.61823" lon="6.60335">
        <ele>2236</ele>
        <time>2022-07-16T09:46:14Z</time>
      </trkpt>
      <trkpt lat="45.61825" lon="6.60336">
        <ele>2236</ele>
        <time>2022-07-16T09:46:17Z</time>
      </trkpt>
      <trkpt lat="45.61828" lon="6.60338">
        <ele>2237</ele>
        <time>2022-07-16T09:46:20Z</time>
      </trkpt>
      <trkpt lat="45.6183" lon="6.60339">
        <ele>2237</ele>
        <time>2022-07-16T09:46:23Z</time>
      </trkpt>
      <trkpt lat="45.61832" lon="6.60339">
        <ele>2237</ele>
        <time>2022-07-16T09:46:26Z</time>
      </trkpt>
      <trkpt lat="45.61834" lon="6.60339">
        <ele>2237</ele>
        <time>2022-07-16T09:46:28Z</time>
      </trkpt>
      <trkpt lat="45.61837" lon="6.60338">
        <ele>2239</ele>
        <time>2022-07-16T09:46:31Z</time>
      </trkpt>
      <trkpt lat="45.61839" lon="6.60337">
        <ele>2239</ele>
        <time>2022-07-16T09:46:34Z</time>
      </trkpt>
      <trkpt lat="45.6184" lon="6.60336">
        <ele>2239</ele>
        <time>2022-07-16T09:46:36Z</time>
      </trkpt>
      <trkpt lat="45.61842" lon="6.60336">
        <ele>2240</ele>
        <time>2022-07-16T09:46:38Z</time>
      </trkpt>
      <trkpt lat="45.61844" lon="6.60336">
        <ele>2240</ele>
        <time>2022-07-16T09:46:40Z</time>
      </trkpt>
      <trkpt lat="45.61847" lon="6.60337">
        <ele>2240</ele>
        <time>2022-07-16T09:46:43Z</time>
      </trkpt>
      <trkpt lat="45.6185" lon="6.60337">
        <ele>2241</ele>
        <time>2022-07-16T09:46:46Z</time>
      </trkpt>
      <trkpt lat="45.61852" lon="6.60336">
        <ele>2241</ele>
        <time>2022-07-16T09:46:48Z</time>
      </trkpt>
      <trkpt lat="45.61854" lon="6.60335">
        <ele>2242</ele>
        <time>2022-07-16T09:46:51Z</time>
      </trkpt>
      <trkpt lat="45.61857" lon="6.60334">
        <ele>2242</ele>
        <time>2022-07-16T09:46:54Z</time>
      </trkpt>
      <trkpt lat="45.61858" lon="6.60335">
        <ele>2242</ele>
        <time>2022-07-16T09:46:56Z</time>
      </trkpt>
      <trkpt lat="45.61861" lon="6.60335">
        <ele>2242</ele>
        <time>2022-07-16T09:46:59Z</time>
      </trkpt>
      <trkpt lat="45.61863" lon="6.60336">
        <ele>2244</ele>
        <time>2022-07-16T09:47:02Z</time>
      </trkpt>
      <trkpt lat="45.61865" lon="6.60337">
        <ele>2244</ele>
        <time>2022-07-16T09:47:04Z</time>
      </trkpt>
      <trkpt lat="45.61866" lon="6.60337">
        <ele>2244</ele>
        <time>2022-07-16T09:47:06Z</time>
      </trkpt>
      <trkpt lat="45.61868" lon="6.60338">
        <ele>2244</ele>
        <time>2022-07-16T09:47:08Z</time>
      </trkpt>
      <trkpt lat="45.6187" lon="6.60338">
        <ele>2244</ele>
        <time>2022-07-16T09:47:10Z</time>
      </trkpt>
      <trkpt lat="45.61873" lon="6.60338">
        <ele>2245</ele>
        <time>2022-07-16T09:47:14Z</time>
      </trkpt>
      <trkpt lat="45.61875" lon="6.60339">
        <ele>2245</ele>
        <time>2022-07-16T09:47:16Z</time>
      </trkpt>
      <trkpt lat="45.61877" lon="6.6034">
        <ele>2245</ele>
        <time>2022-07-16T09:47:18Z</time>
      </trkpt>
      <trkpt lat="45.6188" lon="6.6034">
        <ele>2246</ele>
        <time>2022-07-16T09:47:21Z</time>
      </trkpt>
      <trkpt lat="45.61881" lon="6.60341">
        <ele>2246</ele>
        <time>2022-07-16T09:47:23Z</time>
      </trkpt>
      <trkpt lat="45.61883" lon="6.60342">
        <ele>2248</ele>
        <time>2022-07-16T09:47:26Z</time>
      </trkpt>
      <trkpt lat="45.61885" lon="6.60343">
        <ele>2248</ele>
        <time>2022-07-16T09:47:27Z</time>
      </trkpt>
      <trkpt lat="45.61887" lon="6.60344">
        <ele>2248</ele>
        <time>2022-07-16T09:47:30Z</time>
      </trkpt>
      <trkpt lat="45.61889" lon="6.60344">
        <ele>2249</ele>
        <time>2022-07-16T09:47:32Z</time>
      </trkpt>
      <trkpt lat="45.61891" lon="6.60343">
        <ele>2249</ele>
        <time>2022-07-16T09:47:34Z</time>
      </trkpt>
      <trkpt lat="45.61893" lon="6.60344">
        <ele>2249</ele>
        <time>2022-07-16T09:47:36Z</time>
      </trkpt>
      <trkpt lat="45.61894" lon="6.60345">
        <ele>2249</ele>
        <time>2022-07-16T09:47:39Z</time>
      </trkpt>
      <trkpt lat="45.61897" lon="6.60348">
        <ele>2250</ele>
        <time>2022-07-16T09:47:41Z</time>
      </trkpt>
      <trkpt lat="45.61899" lon="6.60349">
        <ele>2250</ele>
        <time>2022-07-16T09:47:44Z</time>
      </trkpt>
      <trkpt lat="45.61901" lon="6.6035">
        <ele>2250</ele>
        <time>2022-07-16T09:47:46Z</time>
      </trkpt>
      <trkpt lat="45.61903" lon="6.6035">
        <ele>2251</ele>
        <time>2022-07-16T09:47:48Z</time>
      </trkpt>
      <trkpt lat="45.61904" lon="6.60352">
        <ele>2251</ele>
        <time>2022-07-16T09:47:50Z</time>
      </trkpt>
      <trkpt lat="45.61906" lon="6.60353">
        <ele>2252</ele>
        <time>2022-07-16T09:47:53Z</time>
      </trkpt>
      <trkpt lat="45.61908" lon="6.60353">
        <ele>2253</ele>
        <time>2022-07-16T09:47:57Z</time>
      </trkpt>
      <trkpt lat="45.6191" lon="6.60354">
        <ele>2253</ele>
        <time>2022-07-16T09:47:59Z</time>
      </trkpt>
      <trkpt lat="45.61912" lon="6.60355">
        <ele>2254</ele>
        <time>2022-07-16T09:48:02Z</time>
      </trkpt>
      <trkpt lat="45.61913" lon="6.60358">
        <ele>2254</ele>
        <time>2022-07-16T09:48:06Z</time>
      </trkpt>
      <trkpt lat="45.61915" lon="6.6036">
        <ele>2255</ele>
        <time>2022-07-16T09:48:09Z</time>
      </trkpt>
      <trkpt lat="45.61917" lon="6.60362">
        <ele>2255</ele>
        <time>2022-07-16T09:48:11Z</time>
      </trkpt>
      <trkpt lat="45.61918" lon="6.60365">
        <ele>2257</ele>
        <time>2022-07-16T09:48:14Z</time>
      </trkpt>
      <trkpt lat="45.61918" lon="6.60369">
        <ele>2257</ele>
        <time>2022-07-16T09:48:18Z</time>
      </trkpt>
      <trkpt lat="45.61917" lon="6.60373">
        <ele>2258</ele>
        <time>2022-07-16T09:48:20Z</time>
      </trkpt>
      <trkpt lat="45.61917" lon="6.60376">
        <ele>2258</ele>
        <time>2022-07-16T09:48:23Z</time>
      </trkpt>
      <trkpt lat="45.61917" lon="6.60379">
        <ele>2258</ele>
        <time>2022-07-16T09:48:26Z</time>
      </trkpt>
      <trkpt lat="45.61917" lon="6.60382">
        <ele>2258</ele>
        <time>2022-07-16T09:48:29Z</time>
      </trkpt>
      <trkpt lat="45.61918" lon="6.60385">
        <ele>2258</ele>
        <time>2022-07-16T09:48:30Z</time>
      </trkpt>
      <trkpt lat="45.61919" lon="6.60388">
        <ele>2258</ele>
        <time>2022-07-16T09:48:32Z</time>
      </trkpt>
      <trkpt lat="45.6192" lon="6.60391">
        <ele>2258</ele>
        <time>2022-07-16T09:48:34Z</time>
      </trkpt>
      <trkpt lat="45.61921" lon="6.60395">
        <ele>2258</ele>
        <time>2022-07-16T09:48:36Z</time>
      </trkpt>
      <trkpt lat="45.61922" lon="6.60397">
        <ele>2258</ele>
        <time>2022-07-16T09:48:38Z</time>
      </trkpt>
      <trkpt lat="45.61923" lon="6.604">
        <ele>2259</ele>
        <time>2022-07-16T09:48:41Z</time>
      </trkpt>
      <trkpt lat="45.61924" lon="6.60402">
        <ele>2259</ele>
        <time>2022-07-16T09:48:42Z</time>
      </trkpt>
      <trkpt lat="45.61926" lon="6.60405">
        <ele>2259</ele>
        <time>2022-07-16T09:48:45Z</time>
      </trkpt>
      <trkpt lat="45.61927" lon="6.60408">
        <ele>2259</ele>
        <time>2022-07-16T09:48:46Z</time>
      </trkpt>
      <trkpt lat="45.61928" lon="6.60411">
        <ele>2259</ele>
        <time>2022-07-16T09:48:48Z</time>
      </trkpt>
      <trkpt lat="45.61929" lon="6.60413">
        <ele>2259</ele>
        <time>2022-07-16T09:48:50Z</time>
      </trkpt>
      <trkpt lat="45.61929" lon="6.60416">
        <ele>2259</ele>
        <time>2022-07-16T09:48:53Z</time>
      </trkpt>
      <trkpt lat="45.61931" lon="6.6042">
        <ele>2259</ele>
        <time>2022-07-16T09:48:54Z</time>
      </trkpt>
      <trkpt lat="45.61932" lon="6.60422">
        <ele>2259</ele>
        <time>2022-07-16T09:48:56Z</time>
      </trkpt>
      <trkpt lat="45.61932" lon="6.60426">
        <ele>2259</ele>
        <time>2022-07-16T09:48:58Z</time>
      </trkpt>
      <trkpt lat="45.61932" lon="6.60429">
        <ele>2259</ele>
        <time>2022-07-16T09:49:00Z</time>
      </trkpt>
      <trkpt lat="45.61933" lon="6.60431">
        <ele>2259</ele>
        <time>2022-07-16T09:49:03Z</time>
      </trkpt>
      <trkpt lat="45.61933" lon="6.60435">
        <ele>2260</ele>
        <time>2022-07-16T09:49:05Z</time>
      </trkpt>
      <trkpt lat="45.61932" lon="6.60438">
        <ele>2260</ele>
        <time>2022-07-16T09:49:07Z</time>
      </trkpt>
      <trkpt lat="45.61932" lon="6.6044">
        <ele>2260</ele>
        <time>2022-07-16T09:49:09Z</time>
      </trkpt>
      <trkpt lat="45.61933" lon="6.60444">
        <ele>2261</ele>
        <time>2022-07-16T09:49:12Z</time>
      </trkpt>
      <trkpt lat="45.61934" lon="6.60446">
        <ele>2261</ele>
        <time>2022-07-16T09:49:15Z</time>
      </trkpt>
      <trkpt lat="45.61934" lon="6.60449">
        <ele>2262</ele>
        <time>2022-07-16T09:49:18Z</time>
      </trkpt>
      <trkpt lat="45.61934" lon="6.60452">
        <ele>2263</ele>
        <time>2022-07-16T09:49:20Z</time>
      </trkpt>
      <trkpt lat="45.61934" lon="6.60455">
        <ele>2263</ele>
        <time>2022-07-16T09:49:23Z</time>
      </trkpt>
      <trkpt lat="45.61934" lon="6.60458">
        <ele>2263</ele>
        <time>2022-07-16T09:49:27Z</time>
      </trkpt>
      <trkpt lat="45.61934" lon="6.60461">
        <ele>2264</ele>
        <time>2022-07-16T09:49:30Z</time>
      </trkpt>
      <trkpt lat="45.61935" lon="6.60464">
        <ele>2265</ele>
        <time>2022-07-16T09:49:34Z</time>
      </trkpt>
      <trkpt lat="45.61935" lon="6.60467">
        <ele>2266</ele>
        <time>2022-07-16T09:49:37Z</time>
      </trkpt>
      <trkpt lat="45.61936" lon="6.60469">
        <ele>2266</ele>
        <time>2022-07-16T09:49:41Z</time>
      </trkpt>
      <trkpt lat="45.61937" lon="6.60472">
        <ele>2267</ele>
        <time>2022-07-16T09:49:44Z</time>
      </trkpt>
      <trkpt lat="45.61938" lon="6.60475">
        <ele>2267</ele>
        <time>2022-07-16T09:49:49Z</time>
      </trkpt>
      <trkpt lat="45.6194" lon="6.60476">
        <ele>2268</ele>
        <time>2022-07-16T09:49:52Z</time>
      </trkpt>
      <trkpt lat="45.61942" lon="6.60477">
        <ele>2269</ele>
        <time>2022-07-16T09:49:55Z</time>
      </trkpt>
      <trkpt lat="45.61944" lon="6.60477">
        <ele>2270</ele>
        <time>2022-07-16T09:49:58Z</time>
      </trkpt>
      <trkpt lat="45.61946" lon="6.60479">
        <ele>2271</ele>
        <time>2022-07-16T09:50:04Z</time>
      </trkpt>
      <trkpt lat="45.61948" lon="6.6048">
        <ele>2272</ele>
        <time>2022-07-16T09:50:09Z</time>
      </trkpt>
      <trkpt lat="45.6195" lon="6.60481">
        <ele>2272</ele>
        <time>2022-07-16T09:50:12Z</time>
      </trkpt>
      <trkpt lat="45.61951" lon="6.60484">
        <ele>2274</ele>
        <time>2022-07-16T09:50:16Z</time>
      </trkpt>
      <trkpt lat="45.61952" lon="6.60487">
        <ele>2275</ele>
        <time>2022-07-16T09:50:19Z</time>
      </trkpt>
      <trkpt lat="45.61953" lon="6.6049">
        <ele>2275</ele>
        <time>2022-07-16T09:50:22Z</time>
      </trkpt>
      <trkpt lat="45.61954" lon="6.60493">
        <ele>2276</ele>
        <time>2022-07-16T09:50:25Z</time>
      </trkpt>
      <trkpt lat="45.61955" lon="6.60495">
        <ele>2276</ele>
        <time>2022-07-16T09:50:28Z</time>
      </trkpt>
      <trkpt lat="45.61956" lon="6.60497">
        <ele>2276</ele>
        <time>2022-07-16T09:50:31Z</time>
      </trkpt>
      <trkpt lat="45.61957" lon="6.60499">
        <ele>2278</ele>
        <time>2022-07-16T09:50:34Z</time>
      </trkpt>
      <trkpt lat="45.61959" lon="6.60501">
        <ele>2277</ele>
        <time>2022-07-16T09:50:38Z</time>
      </trkpt>
      <trkpt lat="45.61961" lon="6.60503">
        <ele>2278</ele>
        <time>2022-07-16T09:50:40Z</time>
      </trkpt>
      <trkpt lat="45.61962" lon="6.60505">
        <ele>2278</ele>
        <time>2022-07-16T09:50:43Z</time>
      </trkpt>
      <trkpt lat="45.61964" lon="6.60507">
        <ele>2278</ele>
        <time>2022-07-16T09:50:44Z</time>
      </trkpt>
      <trkpt lat="45.61965" lon="6.60509">
        <ele>2279</ele>
        <time>2022-07-16T09:50:46Z</time>
      </trkpt>
      <trkpt lat="45.61967" lon="6.60511">
        <ele>2279</ele>
        <time>2022-07-16T09:50:49Z</time>
      </trkpt>
      <trkpt lat="45.61969" lon="6.60514">
        <ele>2279</ele>
        <time>2022-07-16T09:50:50Z</time>
      </trkpt>
      <trkpt lat="45.6197" lon="6.60516">
        <ele>2279</ele>
        <time>2022-07-16T09:50:52Z</time>
      </trkpt>
      <trkpt lat="45.61972" lon="6.60517">
        <ele>2279</ele>
        <time>2022-07-16T09:50:55Z</time>
      </trkpt>
      <trkpt lat="45.61974" lon="6.60519">
        <ele>2279</ele>
        <time>2022-07-16T09:50:56Z</time>
      </trkpt>
      <trkpt lat="45.61975" lon="6.60521">
        <ele>2279</ele>
        <time>2022-07-16T09:50:58Z</time>
      </trkpt>
      <trkpt lat="45.61977" lon="6.60523">
        <ele>2279</ele>
        <time>2022-07-16T09:51:00Z</time>
      </trkpt>
      <trkpt lat="45.61978" lon="6.60525">
        <ele>2279</ele>
        <time>2022-07-16T09:51:02Z</time>
      </trkpt>
      <trkpt lat="45.61979" lon="6.60527">
        <ele>2280</ele>
        <time>2022-07-16T09:51:04Z</time>
      </trkpt>
      <trkpt lat="45.61981" lon="6.6053">
        <ele>2280</ele>
        <time>2022-07-16T09:51:08Z</time>
      </trkpt>
      <trkpt lat="45.61983" lon="6.60532">
        <ele>2281</ele>
        <time>2022-07-16T09:51:10Z</time>
      </trkpt>
      <trkpt lat="45.61985" lon="6.60533">
        <ele>2281</ele>
        <time>2022-07-16T09:51:13Z</time>
      </trkpt>
      <trkpt lat="45.61987" lon="6.60534">
        <ele>2281</ele>
        <time>2022-07-16T09:51:14Z</time>
      </trkpt>
      <trkpt lat="45.61989" lon="6.60534">
        <ele>2282</ele>
        <time>2022-07-16T09:51:16Z</time>
      </trkpt>
      <trkpt lat="45.61991" lon="6.60533">
        <ele>2282</ele>
        <time>2022-07-16T09:51:19Z</time>
      </trkpt>
      <trkpt lat="45.61993" lon="6.60534">
        <ele>2283</ele>
        <time>2022-07-16T09:51:22Z</time>
      </trkpt>
      <trkpt lat="45.61995" lon="6.60535">
        <ele>2284</ele>
        <time>2022-07-16T09:51:25Z</time>
      </trkpt>
      <trkpt lat="45.61997" lon="6.60536">
        <ele>2284</ele>
        <time>2022-07-16T09:51:28Z</time>
      </trkpt>
      <trkpt lat="45.61999" lon="6.60537">
        <ele>2284</ele>
        <time>2022-07-16T09:51:31Z</time>
      </trkpt>
      <trkpt lat="45.62001" lon="6.60539">
        <ele>2285</ele>
        <time>2022-07-16T09:51:35Z</time>
      </trkpt>
      <trkpt lat="45.62003" lon="6.6054">
        <ele>2285</ele>
        <time>2022-07-16T09:51:37Z</time>
      </trkpt>
      <trkpt lat="45.62005" lon="6.60542">
        <ele>2286</ele>
        <time>2022-07-16T09:51:40Z</time>
      </trkpt>
      <trkpt lat="45.62007" lon="6.60543">
        <ele>2286</ele>
        <time>2022-07-16T09:51:42Z</time>
      </trkpt>
      <trkpt lat="45.62009" lon="6.60544">
        <ele>2287</ele>
        <time>2022-07-16T09:51:44Z</time>
      </trkpt>
      <trkpt lat="45.6201" lon="6.60546">
        <ele>2287</ele>
        <time>2022-07-16T09:51:47Z</time>
      </trkpt>
      <trkpt lat="45.62012" lon="6.60547">
        <ele>2288</ele>
        <time>2022-07-16T09:51:49Z</time>
      </trkpt>
      <trkpt lat="45.62014" lon="6.60549">
        <ele>2288</ele>
        <time>2022-07-16T09:51:51Z</time>
      </trkpt>
      <trkpt lat="45.62017" lon="6.60551">
        <ele>2288</ele>
        <time>2022-07-16T09:51:54Z</time>
      </trkpt>
      <trkpt lat="45.62018" lon="6.60553">
        <ele>2289</ele>
        <time>2022-07-16T09:51:57Z</time>
      </trkpt>
      <trkpt lat="45.62021" lon="6.60554">
        <ele>2289</ele>
        <time>2022-07-16T09:52:00Z</time>
      </trkpt>
      <trkpt lat="45.62023" lon="6.60556">
        <ele>2291</ele>
        <time>2022-07-16T09:52:03Z</time>
      </trkpt>
      <trkpt lat="45.62024" lon="6.60559">
        <ele>2291</ele>
        <time>2022-07-16T09:52:06Z</time>
      </trkpt>
      <trkpt lat="45.62026" lon="6.60562">
        <ele>2291</ele>
        <time>2022-07-16T09:52:09Z</time>
      </trkpt>
      <trkpt lat="45.62028" lon="6.60563">
        <ele>2291</ele>
        <time>2022-07-16T09:52:13Z</time>
      </trkpt>
      <trkpt lat="45.6203" lon="6.60565">
        <ele>2292</ele>
        <time>2022-07-16T09:52:15Z</time>
      </trkpt>
      <trkpt lat="45.62033" lon="6.60567">
        <ele>2293</ele>
        <time>2022-07-16T09:52:18Z</time>
      </trkpt>
      <trkpt lat="45.62034" lon="6.60569">
        <ele>2293</ele>
        <time>2022-07-16T09:52:21Z</time>
      </trkpt>
      <trkpt lat="45.62036" lon="6.60571">
        <ele>2294</ele>
        <time>2022-07-16T09:52:25Z</time>
      </trkpt>
      <trkpt lat="45.62038" lon="6.60573">
        <ele>2294</ele>
        <time>2022-07-16T09:52:27Z</time>
      </trkpt>
      <trkpt lat="45.6204" lon="6.60575">
        <ele>2294</ele>
        <time>2022-07-16T09:52:30Z</time>
      </trkpt>
      <trkpt lat="45.62041" lon="6.60577">
        <ele>2295</ele>
        <time>2022-07-16T09:52:33Z</time>
      </trkpt>
      <trkpt lat="45.62043" lon="6.6058">
        <ele>2295</ele>
        <time>2022-07-16T09:52:36Z</time>
      </trkpt>
      <trkpt lat="45.62045" lon="6.60582">
        <ele>2295</ele>
        <time>2022-07-16T09:52:38Z</time>
      </trkpt>
      <trkpt lat="45.62046" lon="6.60584">
        <ele>2296</ele>
        <time>2022-07-16T09:52:40Z</time>
      </trkpt>
      <trkpt lat="45.62047" lon="6.60587">
        <ele>2296</ele>
        <time>2022-07-16T09:52:43Z</time>
      </trkpt>
      <trkpt lat="45.62049" lon="6.60589">
        <ele>2296</ele>
        <time>2022-07-16T09:52:44Z</time>
      </trkpt>
      <trkpt lat="45.62051" lon="6.60591">
        <ele>2296</ele>
        <time>2022-07-16T09:52:47Z</time>
      </trkpt>
      <trkpt lat="45.62053" lon="6.60593">
        <ele>2297</ele>
        <time>2022-07-16T09:52:50Z</time>
      </trkpt>
      <trkpt lat="45.62054" lon="6.60595">
        <ele>2298</ele>
        <time>2022-07-16T09:52:52Z</time>
      </trkpt>
      <trkpt lat="45.62056" lon="6.60597">
        <ele>2298</ele>
        <time>2022-07-16T09:52:55Z</time>
      </trkpt>
      <trkpt lat="45.62058" lon="6.60599">
        <ele>2298</ele>
        <time>2022-07-16T09:52:57Z</time>
      </trkpt>
      <trkpt lat="45.62059" lon="6.606">
        <ele>2298</ele>
        <time>2022-07-16T09:53:00Z</time>
      </trkpt>
      <trkpt lat="45.62061" lon="6.60602">
        <ele>2298</ele>
        <time>2022-07-16T09:53:02Z</time>
      </trkpt>
      <trkpt lat="45.62063" lon="6.60605">
        <ele>2300</ele>
        <time>2022-07-16T09:53:03Z</time>
      </trkpt>
      <trkpt lat="45.62064" lon="6.60607">
        <ele>2300</ele>
        <time>2022-07-16T09:53:05Z</time>
      </trkpt>
      <trkpt lat="45.62065" lon="6.60609">
        <ele>2300</ele>
        <time>2022-07-16T09:53:07Z</time>
      </trkpt>
      <trkpt lat="45.62068" lon="6.60611">
        <ele>2301</ele>
        <time>2022-07-16T09:53:10Z</time>
      </trkpt>
      <trkpt lat="45.6207" lon="6.60613">
        <ele>2301</ele>
        <time>2022-07-16T09:53:12Z</time>
      </trkpt>
      <trkpt lat="45.62071" lon="6.60614">
        <ele>2301</ele>
        <time>2022-07-16T09:53:14Z</time>
      </trkpt>
      <trkpt lat="45.62073" lon="6.60616">
        <ele>2302</ele>
        <time>2022-07-16T09:53:16Z</time>
      </trkpt>
      <trkpt lat="45.62075" lon="6.60618">
        <ele>2302</ele>
        <time>2022-07-16T09:53:19Z</time>
      </trkpt>
      <trkpt lat="45.62077" lon="6.6062">
        <ele>2302</ele>
        <time>2022-07-16T09:53:21Z</time>
      </trkpt>
      <trkpt lat="45.62079" lon="6.60622">
        <ele>2302</ele>
        <time>2022-07-16T09:53:22Z</time>
      </trkpt>
      <trkpt lat="45.62081" lon="6.60624">
        <ele>2302</ele>
        <time>2022-07-16T09:53:24Z</time>
      </trkpt>
      <trkpt lat="45.62082" lon="6.60627">
        <ele>2302</ele>
        <time>2022-07-16T09:53:27Z</time>
      </trkpt>
      <trkpt lat="45.62084" lon="6.60629">
        <ele>2302</ele>
        <time>2022-07-16T09:53:29Z</time>
      </trkpt>
      <trkpt lat="45.62086" lon="6.60631">
        <ele>2302</ele>
        <time>2022-07-16T09:53:30Z</time>
      </trkpt>
      <trkpt lat="45.62088" lon="6.60634">
        <ele>2302</ele>
        <time>2022-07-16T09:53:32Z</time>
      </trkpt>
      <trkpt lat="45.6209" lon="6.60636">
        <ele>2302</ele>
        <time>2022-07-16T09:53:34Z</time>
      </trkpt>
      <trkpt lat="45.62092" lon="6.60638">
        <ele>2303</ele>
        <time>2022-07-16T09:53:36Z</time>
      </trkpt>
      <trkpt lat="45.62095" lon="6.60639">
        <ele>2303</ele>
        <time>2022-07-16T09:53:39Z</time>
      </trkpt>
      <trkpt lat="45.62096" lon="6.60641">
        <ele>2303</ele>
        <time>2022-07-16T09:53:41Z</time>
      </trkpt>
      <trkpt lat="45.62099" lon="6.60644">
        <ele>2303</ele>
        <time>2022-07-16T09:53:42Z</time>
      </trkpt>
      <trkpt lat="45.62101" lon="6.60646">
        <ele>2304</ele>
        <time>2022-07-16T09:53:45Z</time>
      </trkpt>
      <trkpt lat="45.62103" lon="6.60648">
        <ele>2304</ele>
        <time>2022-07-16T09:53:46Z</time>
      </trkpt>
      <trkpt lat="45.62105" lon="6.6065">
        <ele>2304</ele>
        <time>2022-07-16T09:53:48Z</time>
      </trkpt>
      <trkpt lat="45.62107" lon="6.60651">
        <ele>2304</ele>
        <time>2022-07-16T09:53:50Z</time>
      </trkpt>
      <trkpt lat="45.62109" lon="6.60653">
        <ele>2304</ele>
        <time>2022-07-16T09:53:52Z</time>
      </trkpt>
      <trkpt lat="45.62111" lon="6.60655">
        <ele>2304</ele>
        <time>2022-07-16T09:53:54Z</time>
      </trkpt>
      <trkpt lat="45.62113" lon="6.60656">
        <ele>2304</ele>
        <time>2022-07-16T09:53:56Z</time>
      </trkpt>
      <trkpt lat="45.62115" lon="6.60658">
        <ele>2304</ele>
        <time>2022-07-16T09:53:59Z</time>
      </trkpt>
      <trkpt lat="45.62117" lon="6.60659">
        <ele>2304</ele>
        <time>2022-07-16T09:54:00Z</time>
      </trkpt>
      <trkpt lat="45.6212" lon="6.60661">
        <ele>2304</ele>
        <time>2022-07-16T09:54:02Z</time>
      </trkpt>
      <trkpt lat="45.62122" lon="6.60662">
        <ele>2304</ele>
        <time>2022-07-16T09:54:04Z</time>
      </trkpt>
      <trkpt lat="45.62124" lon="6.60662">
        <ele>2304</ele>
        <time>2022-07-16T09:54:06Z</time>
      </trkpt>
      <trkpt lat="45.62127" lon="6.60662">
        <ele>2305</ele>
        <time>2022-07-16T09:54:09Z</time>
      </trkpt>
      <trkpt lat="45.62129" lon="6.60661">
        <ele>2305</ele>
        <time>2022-07-16T09:54:10Z</time>
      </trkpt>
      <trkpt lat="45.62131" lon="6.60661">
        <ele>2305</ele>
        <time>2022-07-16T09:54:12Z</time>
      </trkpt>
      <trkpt lat="45.62133" lon="6.60661">
        <ele>2306</ele>
        <time>2022-07-16T09:54:14Z</time>
      </trkpt>
      <trkpt lat="45.62135" lon="6.60661">
        <ele>2306</ele>
        <time>2022-07-16T09:54:17Z</time>
      </trkpt>
      <trkpt lat="45.62138" lon="6.6066">
        <ele>2307</ele>
        <time>2022-07-16T09:54:19Z</time>
      </trkpt>
      <trkpt lat="45.6214" lon="6.6066">
        <ele>2307</ele>
        <time>2022-07-16T09:54:21Z</time>
      </trkpt>
      <trkpt lat="45.62142" lon="6.60661">
        <ele>2308</ele>
        <time>2022-07-16T09:54:23Z</time>
      </trkpt>
      <trkpt lat="45.62144" lon="6.60662">
        <ele>2308</ele>
        <time>2022-07-16T09:54:25Z</time>
      </trkpt>
      <trkpt lat="45.62146" lon="6.60662">
        <ele>2308</ele>
        <time>2022-07-16T09:54:27Z</time>
      </trkpt>
      <trkpt lat="45.62148" lon="6.60663">
        <ele>2308</ele>
        <time>2022-07-16T09:54:29Z</time>
      </trkpt>
      <trkpt lat="45.6215" lon="6.60664">
        <ele>2309</ele>
        <time>2022-07-16T09:54:31Z</time>
      </trkpt>
      <trkpt lat="45.62153" lon="6.60663">
        <ele>2309</ele>
        <time>2022-07-16T09:54:34Z</time>
      </trkpt>
      <trkpt lat="45.62155" lon="6.60663">
        <ele>2310</ele>
        <time>2022-07-16T09:54:37Z</time>
      </trkpt>
      <trkpt lat="45.62157" lon="6.60663">
        <ele>2311</ele>
        <time>2022-07-16T09:54:41Z</time>
      </trkpt>
      <trkpt lat="45.6216" lon="6.60663">
        <ele>2312</ele>
        <time>2022-07-16T09:54:44Z</time>
      </trkpt>
      <trkpt lat="45.62162" lon="6.60665">
        <ele>2313</ele>
        <time>2022-07-16T09:54:47Z</time>
      </trkpt>
      <trkpt lat="45.62164" lon="6.60666">
        <ele>2313</ele>
        <time>2022-07-16T09:54:50Z</time>
      </trkpt>
      <trkpt lat="45.62167" lon="6.60667">
        <ele>2314</ele>
        <time>2022-07-16T09:54:54Z</time>
      </trkpt>
      <trkpt lat="45.62169" lon="6.60668">
        <ele>2314</ele>
        <time>2022-07-16T09:54:56Z</time>
      </trkpt>
      <trkpt lat="45.6217" lon="6.60669">
        <ele>2314</ele>
        <time>2022-07-16T09:54:57Z</time>
      </trkpt>
      <trkpt lat="45.62172" lon="6.6067">
        <ele>2315</ele>
        <time>2022-07-16T09:54:59Z</time>
      </trkpt>
      <trkpt lat="45.62174" lon="6.60671">
        <ele>2315</ele>
        <time>2022-07-16T09:55:01Z</time>
      </trkpt>
      <trkpt lat="45.62176" lon="6.60672">
        <ele>2315</ele>
        <time>2022-07-16T09:55:04Z</time>
      </trkpt>
      <trkpt lat="45.62179" lon="6.60674">
        <ele>2315</ele>
        <time>2022-07-16T09:55:07Z</time>
      </trkpt>
      <trkpt lat="45.62181" lon="6.60675">
        <ele>2316</ele>
        <time>2022-07-16T09:55:11Z</time>
      </trkpt>
      <trkpt lat="45.62184" lon="6.60675">
        <ele>2316</ele>
        <time>2022-07-16T09:55:13Z</time>
      </trkpt>
      <trkpt lat="45.62185" lon="6.60676">
        <ele>2316</ele>
        <time>2022-07-16T09:55:15Z</time>
      </trkpt>
      <trkpt lat="45.62187" lon="6.60677">
        <ele>2317</ele>
        <time>2022-07-16T09:55:17Z</time>
      </trkpt>
      <trkpt lat="45.62189" lon="6.60678">
        <ele>2317</ele>
        <time>2022-07-16T09:55:19Z</time>
      </trkpt>
      <trkpt lat="45.62191" lon="6.60681">
        <ele>2317</ele>
        <time>2022-07-16T09:55:21Z</time>
      </trkpt>
      <trkpt lat="45.62192" lon="6.60683">
        <ele>2317</ele>
        <time>2022-07-16T09:55:23Z</time>
      </trkpt>
      <trkpt lat="45.62194" lon="6.60685">
        <ele>2319</ele>
        <time>2022-07-16T09:55:26Z</time>
      </trkpt>
      <trkpt lat="45.62195" lon="6.60688">
        <ele>2319</ele>
        <time>2022-07-16T09:55:28Z</time>
      </trkpt>
      <trkpt lat="45.62197" lon="6.60689">
        <ele>2320</ele>
        <time>2022-07-16T09:55:30Z</time>
      </trkpt>
      <trkpt lat="45.62198" lon="6.60691">
        <ele>2320</ele>
        <time>2022-07-16T09:55:33Z</time>
      </trkpt>
      <trkpt lat="45.622" lon="6.60693">
        <ele>2320</ele>
        <time>2022-07-16T09:55:35Z</time>
      </trkpt>
      <trkpt lat="45.62201" lon="6.60696">
        <ele>2320</ele>
        <time>2022-07-16T09:55:37Z</time>
      </trkpt>
      <trkpt lat="45.62201" lon="6.60699">
        <ele>2320</ele>
        <time>2022-07-16T09:55:38Z</time>
      </trkpt>
      <trkpt lat="45.62202" lon="6.60703">
        <ele>2320</ele>
        <time>2022-07-16T09:55:40Z</time>
      </trkpt>
      <trkpt lat="45.62202" lon="6.60706">
        <ele>2320</ele>
        <time>2022-07-16T09:55:42Z</time>
      </trkpt>
      <trkpt lat="45.62202" lon="6.60709">
        <ele>2320</ele>
        <time>2022-07-16T09:55:44Z</time>
      </trkpt>
      <trkpt lat="45.62203" lon="6.60712">
        <ele>2320</ele>
        <time>2022-07-16T09:55:46Z</time>
      </trkpt>
      <trkpt lat="45.62204" lon="6.60715">
        <ele>2320</ele>
        <time>2022-07-16T09:55:48Z</time>
      </trkpt>
      <trkpt lat="45.62205" lon="6.60718">
        <ele>2321</ele>
        <time>2022-07-16T09:55:51Z</time>
      </trkpt>
      <trkpt lat="45.62206" lon="6.60721">
        <ele>2321</ele>
        <time>2022-07-16T09:55:53Z</time>
      </trkpt>
      <trkpt lat="45.62208" lon="6.60724">
        <ele>2321</ele>
        <time>2022-07-16T09:55:54Z</time>
      </trkpt>
      <trkpt lat="45.62209" lon="6.60726">
        <ele>2321</ele>
        <time>2022-07-16T09:55:56Z</time>
      </trkpt>
      <trkpt lat="45.62211" lon="6.60729">
        <ele>2321</ele>
        <time>2022-07-16T09:55:58Z</time>
      </trkpt>
      <trkpt lat="45.62212" lon="6.60732">
        <ele>2321</ele>
        <time>2022-07-16T09:56:00Z</time>
      </trkpt>
      <trkpt lat="45.62214" lon="6.60735">
        <ele>2322</ele>
        <time>2022-07-16T09:56:03Z</time>
      </trkpt>
      <trkpt lat="45.62215" lon="6.60738">
        <ele>2322</ele>
        <time>2022-07-16T09:56:04Z</time>
      </trkpt>
      <trkpt lat="45.62216" lon="6.60741">
        <ele>2323</ele>
        <time>2022-07-16T09:56:06Z</time>
      </trkpt>
      <trkpt lat="45.62217" lon="6.60744">
        <ele>2322</ele>
        <time>2022-07-16T09:56:08Z</time>
      </trkpt>
      <trkpt lat="45.62217" lon="6.60747">
        <ele>2323</ele>
        <time>2022-07-16T09:56:10Z</time>
      </trkpt>
      <trkpt lat="45.62218" lon="6.6075">
        <ele>2323</ele>
        <time>2022-07-16T09:56:13Z</time>
      </trkpt>
      <trkpt lat="45.62218" lon="6.60753">
        <ele>2323</ele>
        <time>2022-07-16T09:56:15Z</time>
      </trkpt>
      <trkpt lat="45.62218" lon="6.60756">
        <ele>2323</ele>
        <time>2022-07-16T09:56:16Z</time>
      </trkpt>
      <trkpt lat="45.62219" lon="6.60759">
        <ele>2323</ele>
        <time>2022-07-16T09:56:18Z</time>
      </trkpt>
      <trkpt lat="45.62221" lon="6.60762">
        <ele>2323</ele>
        <time>2022-07-16T09:56:20Z</time>
      </trkpt>
      <trkpt lat="45.62222" lon="6.60766">
        <ele>2324</ele>
        <time>2022-07-16T09:56:22Z</time>
      </trkpt>
      <trkpt lat="45.62222" lon="6.60769">
        <ele>2324</ele>
        <time>2022-07-16T09:56:24Z</time>
      </trkpt>
      <trkpt lat="45.62222" lon="6.60773">
        <ele>2324</ele>
        <time>2022-07-16T09:56:27Z</time>
      </trkpt>
      <trkpt lat="45.62222" lon="6.60777">
        <ele>2324</ele>
        <time>2022-07-16T09:56:28Z</time>
      </trkpt>
      <trkpt lat="45.62223" lon="6.6078">
        <ele>2324</ele>
        <time>2022-07-16T09:56:31Z</time>
      </trkpt>
      <trkpt lat="45.62223" lon="6.60783">
        <ele>2326</ele>
        <time>2022-07-16T09:56:32Z</time>
      </trkpt>
      <trkpt lat="45.62224" lon="6.60786">
        <ele>2326</ele>
        <time>2022-07-16T09:56:34Z</time>
      </trkpt>
      <trkpt lat="45.62225" lon="6.60789">
        <ele>2326</ele>
        <time>2022-07-16T09:56:36Z</time>
      </trkpt>
      <trkpt lat="45.62226" lon="6.60791">
        <ele>2324</ele>
        <time>2022-07-16T09:56:39Z</time>
      </trkpt>
      <trkpt lat="45.62228" lon="6.60792">
        <ele>2324</ele>
        <time>2022-07-16T09:56:40Z</time>
      </trkpt>
      <trkpt lat="45.6223" lon="6.60794">
        <ele>2326</ele>
        <time>2022-07-16T09:56:42Z</time>
      </trkpt>
      <trkpt lat="45.62232" lon="6.60796">
        <ele>2327</ele>
        <time>2022-07-16T09:56:45Z</time>
      </trkpt>
      <trkpt lat="45.62234" lon="6.60799">
        <ele>2328</ele>
        <time>2022-07-16T09:56:48Z</time>
      </trkpt>
      <trkpt lat="45.62235" lon="6.60802">
        <ele>2328</ele>
        <time>2022-07-16T09:56:50Z</time>
      </trkpt>
      <trkpt lat="45.62236" lon="6.60805">
        <ele>2329</ele>
        <time>2022-07-16T09:56:53Z</time>
      </trkpt>
      <trkpt lat="45.62237" lon="6.60807">
        <ele>2329</ele>
        <time>2022-07-16T09:56:55Z</time>
      </trkpt>
      <trkpt lat="45.62239" lon="6.6081">
        <ele>2331</ele>
        <time>2022-07-16T09:56:58Z</time>
      </trkpt>
      <trkpt lat="45.62239" lon="6.60814">
        <ele>2331</ele>
        <time>2022-07-16T09:57:01Z</time>
      </trkpt>
      <trkpt lat="45.62238" lon="6.60817">
        <ele>2331</ele>
        <time>2022-07-16T09:57:03Z</time>
      </trkpt>
      <trkpt lat="45.62236" lon="6.60819">
        <ele>2331</ele>
        <time>2022-07-16T09:57:05Z</time>
      </trkpt>
      <trkpt lat="45.62235" lon="6.60822">
        <ele>2332</ele>
        <time>2022-07-16T09:57:07Z</time>
      </trkpt>
      <trkpt lat="45.62235" lon="6.60825">
        <ele>2332</ele>
        <time>2022-07-16T09:57:09Z</time>
      </trkpt>
      <trkpt lat="45.62235" lon="6.60827">
        <ele>2332</ele>
        <time>2022-07-16T09:57:11Z</time>
      </trkpt>
      <trkpt lat="45.62237" lon="6.60831">
        <ele>2332</ele>
        <time>2022-07-16T09:57:15Z</time>
      </trkpt>
      <trkpt lat="45.62237" lon="6.60833">
        <ele>2332</ele>
        <time>2022-07-16T09:57:17Z</time>
      </trkpt>
      <trkpt lat="45.62238" lon="6.60837">
        <ele>2333</ele>
        <time>2022-07-16T09:57:19Z</time>
      </trkpt>
      <trkpt lat="45.62239" lon="6.6084">
        <ele>2333</ele>
        <time>2022-07-16T09:57:22Z</time>
      </trkpt>
      <trkpt lat="45.62241" lon="6.60842">
        <ele>2334</ele>
        <time>2022-07-16T09:57:25Z</time>
      </trkpt>
      <trkpt lat="45.62242" lon="6.60843">
        <ele>2335</ele>
        <time>2022-07-16T09:57:29Z</time>
      </trkpt>
      <trkpt lat="45.62245" lon="6.60843">
        <ele>2335</ele>
        <time>2022-07-16T09:57:31Z</time>
      </trkpt>
      <trkpt lat="45.62247" lon="6.60842">
        <ele>2336</ele>
        <time>2022-07-16T09:57:34Z</time>
      </trkpt>
      <trkpt lat="45.62248" lon="6.60841">
        <ele>2336</ele>
        <time>2022-07-16T09:57:37Z</time>
      </trkpt>
      <trkpt lat="45.62251" lon="6.60839">
        <ele>2337</ele>
        <time>2022-07-16T09:57:41Z</time>
      </trkpt>
      <trkpt lat="45.62252" lon="6.60838">
        <ele>2338</ele>
        <time>2022-07-16T09:57:44Z</time>
      </trkpt>
      <trkpt lat="45.62255" lon="6.60837">
        <ele>2340</ele>
        <time>2022-07-16T09:57:48Z</time>
      </trkpt>
      <trkpt lat="45.62256" lon="6.6084">
        <ele>2341</ele>
        <time>2022-07-16T09:57:52Z</time>
      </trkpt>
      <trkpt lat="45.62255" lon="6.60842">
        <ele>2341</ele>
        <time>2022-07-16T09:57:55Z</time>
      </trkpt>
      <trkpt lat="45.62255" lon="6.60846">
        <ele>2342</ele>
        <time>2022-07-16T09:58:00Z</time>
      </trkpt>
      <trkpt lat="45.62253" lon="6.60848">
        <ele>2342</ele>
        <time>2022-07-16T09:58:03Z</time>
      </trkpt>
      <trkpt lat="45.62254" lon="6.60851">
        <ele>2343</ele>
        <time>2022-07-16T09:58:06Z</time>
      </trkpt>
      <trkpt lat="45.62254" lon="6.60854">
        <ele>2343</ele>
        <time>2022-07-16T09:58:10Z</time>
      </trkpt>
      <trkpt lat="45.62254" lon="6.60856">
        <ele>2344</ele>
        <time>2022-07-16T09:58:14Z</time>
      </trkpt>
      <trkpt lat="45.62253" lon="6.60859">
        <ele>2345</ele>
        <time>2022-07-16T09:58:18Z</time>
      </trkpt>
      <trkpt lat="45.62253" lon="6.60862">
        <ele>2346</ele>
        <time>2022-07-16T09:58:24Z</time>
      </trkpt>
      <trkpt lat="45.62255" lon="6.60862">
        <ele>2346</ele>
        <time>2022-07-16T09:58:26Z</time>
      </trkpt>
      <trkpt lat="45.62257" lon="6.60862">
        <ele>2347</ele>
        <time>2022-07-16T09:58:29Z</time>
      </trkpt>
      <trkpt lat="45.6226" lon="6.60863">
        <ele>2348</ele>
        <time>2022-07-16T09:58:33Z</time>
      </trkpt>
      <trkpt lat="45.62261" lon="6.60864">
        <ele>2348</ele>
        <time>2022-07-16T09:58:35Z</time>
      </trkpt>
      <trkpt lat="45.62263" lon="6.60864">
        <ele>2348</ele>
        <time>2022-07-16T09:58:37Z</time>
      </trkpt>
      <trkpt lat="45.62266" lon="6.60866">
        <ele>2348</ele>
        <time>2022-07-16T09:58:41Z</time>
      </trkpt>
      <trkpt lat="45.62268" lon="6.60867">
        <ele>2349</ele>
        <time>2022-07-16T09:58:44Z</time>
      </trkpt>
      <trkpt lat="45.6227" lon="6.60868">
        <ele>2350</ele>
        <time>2022-07-16T09:58:46Z</time>
      </trkpt>
      <trkpt lat="45.62272" lon="6.60869">
        <ele>2350</ele>
        <time>2022-07-16T09:58:49Z</time>
      </trkpt>
      <trkpt lat="45.62274" lon="6.6087">
        <ele>2350</ele>
        <time>2022-07-16T09:58:52Z</time>
      </trkpt>
      <trkpt lat="45.62276" lon="6.60872">
        <ele>2352</ele>
        <time>2022-07-16T09:58:56Z</time>
      </trkpt>
      <trkpt lat="45.62278" lon="6.60874">
        <ele>2353</ele>
        <time>2022-07-16T09:59:00Z</time>
      </trkpt>
      <trkpt lat="45.62279" lon="6.60877">
        <ele>2353</ele>
        <time>2022-07-16T09:59:04Z</time>
      </trkpt>
      <trkpt lat="45.62281" lon="6.60879">
        <ele>2354</ele>
        <time>2022-07-16T09:59:06Z</time>
      </trkpt>
      <trkpt lat="45.62284" lon="6.60879">
        <ele>2354</ele>
        <time>2022-07-16T09:59:10Z</time>
      </trkpt>
      <trkpt lat="45.62286" lon="6.6088">
        <ele>2355</ele>
        <time>2022-07-16T09:59:15Z</time>
      </trkpt>
      <trkpt lat="45.62287" lon="6.60882">
        <ele>2356</ele>
        <time>2022-07-16T09:59:18Z</time>
      </trkpt>
      <trkpt lat="45.62288" lon="6.60884">
        <ele>2357</ele>
        <time>2022-07-16T09:59:24Z</time>
      </trkpt>
      <trkpt lat="45.6229" lon="6.60886">
        <ele>2356</ele>
        <time>2022-07-16T09:59:26Z</time>
      </trkpt>
      <trkpt lat="45.62291" lon="6.60889">
        <ele>2357</ele>
        <time>2022-07-16T09:59:29Z</time>
      </trkpt>
      <trkpt lat="45.62293" lon="6.60891">
        <ele>2357</ele>
        <time>2022-07-16T09:59:32Z</time>
      </trkpt>
      <trkpt lat="45.62294" lon="6.60893">
        <ele>2358</ele>
        <time>2022-07-16T09:59:37Z</time>
      </trkpt>
      <trkpt lat="45.62295" lon="6.60896">
        <ele>2358</ele>
        <time>2022-07-16T09:59:40Z</time>
      </trkpt>
      <trkpt lat="45.62295" lon="6.60899">
        <ele>2359</ele>
        <time>2022-07-16T09:59:44Z</time>
      </trkpt>
      <trkpt lat="45.62297" lon="6.60902">
        <ele>2359</ele>
        <time>2022-07-16T09:59:48Z</time>
      </trkpt>
      <trkpt lat="45.62298" lon="6.60904">
        <ele>2359</ele>
        <time>2022-07-16T09:59:49Z</time>
      </trkpt>
      <trkpt lat="45.62297" lon="6.60906">
        <ele>2359</ele>
        <time>2022-07-16T09:59:52Z</time>
      </trkpt>
      <trkpt lat="45.62295" lon="6.60905">
        <ele>2359</ele>
        <time>2022-07-16T09:59:55Z</time>
      </trkpt>
      <trkpt lat="45.62293" lon="6.60904">
        <ele>2359</ele>
        <time>2022-07-16T09:59:58Z</time>
      </trkpt>
      <trkpt lat="45.62291" lon="6.60902">
        <ele>2359</ele>
        <time>2022-07-16T10:00:01Z</time>
      </trkpt>
      <trkpt lat="45.6229" lon="6.609">
        <ele>2360</ele>
        <time>2022-07-16T10:00:11Z</time>
      </trkpt>
      <trkpt lat="45.62288" lon="6.60898">
        <ele>2361</ele>
        <time>2022-07-16T10:00:14Z</time>
      </trkpt>
      <trkpt lat="45.62287" lon="6.60895">
        <ele>2362</ele>
        <time>2022-07-16T10:00:17Z</time>
      </trkpt>
      <trkpt lat="45.62287" lon="6.60895">
        <ele>2362</ele>
        <time>2022-07-16T10:00:31Z</time>
      </trkpt>
      <trkpt lat="45.62287" lon="6.60895">
        <ele>2362</ele>
        <time>2022-07-16T10:00:47Z</time>
      </trkpt>
      <trkpt lat="45.62287" lon="6.60895">
        <ele>2362</ele>
        <time>2022-07-16T10:01:03Z</time>
      </trkpt>
      <trkpt lat="45.62289" lon="6.60895">
        <ele>2362</ele>
        <time>2022-07-16T10:01:07Z</time>
      </trkpt>
      <trkpt lat="45.62291" lon="6.60897">
        <ele>2362</ele>
        <time>2022-07-16T10:01:10Z</time>
      </trkpt>
      <trkpt lat="45.62292" lon="6.609">
        <ele>2361</ele>
        <time>2022-07-16T10:01:14Z</time>
      </trkpt>
      <trkpt lat="45.62294" lon="6.60902">
        <ele>2360</ele>
        <time>2022-07-16T10:01:19Z</time>
      </trkpt>
      <trkpt lat="45.62296" lon="6.60903">
        <ele>2360</ele>
        <time>2022-07-16T10:01:21Z</time>
      </trkpt>
      <trkpt lat="45.62299" lon="6.60905">
        <ele>2360</ele>
        <time>2022-07-16T10:01:24Z</time>
      </trkpt>
      <trkpt lat="45.623" lon="6.60908">
        <ele>2360</ele>
        <time>2022-07-16T10:01:25Z</time>
      </trkpt>
      <trkpt lat="45.62302" lon="6.60911">
        <ele>2360</ele>
        <time>2022-07-16T10:01:27Z</time>
      </trkpt>
      <trkpt lat="45.62305" lon="6.60911">
        <ele>2360</ele>
        <time>2022-07-16T10:01:31Z</time>
      </trkpt>
      <trkpt lat="45.62308" lon="6.60911">
        <ele>2359</ele>
        <time>2022-07-16T10:01:34Z</time>
      </trkpt>
      <trkpt lat="45.6231" lon="6.60912">
        <ele>2359</ele>
        <time>2022-07-16T10:01:35Z</time>
      </trkpt>
      <trkpt lat="45.62313" lon="6.60912">
        <ele>2360</ele>
        <time>2022-07-16T10:01:37Z</time>
      </trkpt>
      <trkpt lat="45.62314" lon="6.60913">
        <ele>2361</ele>
        <time>2022-07-16T10:01:39Z</time>
      </trkpt>
      <trkpt lat="45.62317" lon="6.60914">
        <ele>2361</ele>
        <time>2022-07-16T10:01:42Z</time>
      </trkpt>
      <trkpt lat="45.62319" lon="6.60916">
        <ele>2362</ele>
        <time>2022-07-16T10:01:45Z</time>
      </trkpt>
      <trkpt lat="45.62321" lon="6.60917">
        <ele>2362</ele>
        <time>2022-07-16T10:01:47Z</time>
      </trkpt>
      <trkpt lat="45.62324" lon="6.60918">
        <ele>2362</ele>
        <time>2022-07-16T10:01:49Z</time>
      </trkpt>
      <trkpt lat="45.62325" lon="6.6092">
        <ele>2363</ele>
        <time>2022-07-16T10:01:51Z</time>
      </trkpt>
      <trkpt lat="45.62327" lon="6.60922">
        <ele>2364</ele>
        <time>2022-07-16T10:01:54Z</time>
      </trkpt>
      <trkpt lat="45.62328" lon="6.60924">
        <ele>2364</ele>
        <time>2022-07-16T10:01:55Z</time>
      </trkpt>
      <trkpt lat="45.62331" lon="6.60925">
        <ele>2363</ele>
        <time>2022-07-16T10:01:57Z</time>
      </trkpt>
      <trkpt lat="45.62333" lon="6.60926">
        <ele>2363</ele>
        <time>2022-07-16T10:01:59Z</time>
      </trkpt>
      <trkpt lat="45.62336" lon="6.60927">
        <ele>2362</ele>
        <time>2022-07-16T10:02:02Z</time>
      </trkpt>
      <trkpt lat="45.62338" lon="6.60927">
        <ele>2362</ele>
        <time>2022-07-16T10:02:03Z</time>
      </trkpt>
      <trkpt lat="45.62341" lon="6.60927">
        <ele>2362</ele>
        <time>2022-07-16T10:02:05Z</time>
      </trkpt>
      <trkpt lat="45.62343" lon="6.60929">
        <ele>2362</ele>
        <time>2022-07-16T10:02:07Z</time>
      </trkpt>
      <trkpt lat="45.62346" lon="6.60931">
        <ele>2362</ele>
        <time>2022-07-16T10:02:09Z</time>
      </trkpt>
      <trkpt lat="45.62348" lon="6.60933">
        <ele>2362</ele>
        <time>2022-07-16T10:02:11Z</time>
      </trkpt>
      <trkpt lat="45.62351" lon="6.60934">
        <ele>2362</ele>
        <time>2022-07-16T10:02:13Z</time>
      </trkpt>
      <trkpt lat="45.62353" lon="6.60936">
        <ele>2362</ele>
        <time>2022-07-16T10:02:16Z</time>
      </trkpt>
      <trkpt lat="45.62355" lon="6.60938">
        <ele>2362</ele>
        <time>2022-07-16T10:02:17Z</time>
      </trkpt>
      <trkpt lat="45.62357" lon="6.6094">
        <ele>2362</ele>
        <time>2022-07-16T10:02:19Z</time>
      </trkpt>
      <trkpt lat="45.62359" lon="6.60941">
        <ele>2362</ele>
        <time>2022-07-16T10:02:21Z</time>
      </trkpt>
      <trkpt lat="45.62361" lon="6.60942">
        <ele>2362</ele>
        <time>2022-07-16T10:02:23Z</time>
      </trkpt>
      <trkpt lat="45.62362" lon="6.60944">
        <ele>2362</ele>
        <time>2022-07-16T10:02:25Z</time>
      </trkpt>
      <trkpt lat="45.62363" lon="6.60946">
        <ele>2362</ele>
        <time>2022-07-16T10:02:27Z</time>
      </trkpt>
      <trkpt lat="45.62364" lon="6.60948">
        <ele>2364</ele>
        <time>2022-07-16T10:02:29Z</time>
      </trkpt>
      <trkpt lat="45.62366" lon="6.6095">
        <ele>2364</ele>
        <time>2022-07-16T10:02:33Z</time>
      </trkpt>
      <trkpt lat="45.62367" lon="6.60952">
        <ele>2364</ele>
        <time>2022-07-16T10:02:35Z</time>
      </trkpt>
      <trkpt lat="45.62368" lon="6.60954">
        <ele>2364</ele>
        <time>2022-07-16T10:02:38Z</time>
      </trkpt>
      <trkpt lat="45.62369" lon="6.60957">
        <ele>2365</ele>
        <time>2022-07-16T10:02:42Z</time>
      </trkpt>
      <trkpt lat="45.62371" lon="6.6096">
        <ele>2365</ele>
        <time>2022-07-16T10:02:44Z</time>
      </trkpt>
      <trkpt lat="45.62372" lon="6.60962">
        <ele>2365</ele>
        <time>2022-07-16T10:02:47Z</time>
      </trkpt>
      <trkpt lat="45.62374" lon="6.60963">
        <ele>2366</ele>
        <time>2022-07-16T10:02:51Z</time>
      </trkpt>
      <trkpt lat="45.62377" lon="6.60965">
        <ele>2366</ele>
        <time>2022-07-16T10:02:53Z</time>
      </trkpt>
      <trkpt lat="45.62379" lon="6.60965">
        <ele>2368</ele>
        <time>2022-07-16T10:02:56Z</time>
      </trkpt>
      <trkpt lat="45.62381" lon="6.60966">
        <ele>2368</ele>
        <time>2022-07-16T10:02:59Z</time>
      </trkpt>
      <trkpt lat="45.62383" lon="6.60968">
        <ele>2369</ele>
        <time>2022-07-16T10:03:02Z</time>
      </trkpt>
      <trkpt lat="45.62384" lon="6.60969">
        <ele>2370</ele>
        <time>2022-07-16T10:03:05Z</time>
      </trkpt>
      <trkpt lat="45.62386" lon="6.60971">
        <ele>2372</ele>
        <time>2022-07-16T10:03:10Z</time>
      </trkpt>
      <trkpt lat="45.62388" lon="6.60972">
        <ele>2373</ele>
        <time>2022-07-16T10:03:12Z</time>
      </trkpt>
      <trkpt lat="45.6239" lon="6.60974">
        <ele>2373</ele>
        <time>2022-07-16T10:03:14Z</time>
      </trkpt>
      <trkpt lat="45.62392" lon="6.60975">
        <ele>2372</ele>
        <time>2022-07-16T10:03:16Z</time>
      </trkpt>
      <trkpt lat="45.62394" lon="6.60976">
        <ele>2372</ele>
        <time>2022-07-16T10:03:18Z</time>
      </trkpt>
      <trkpt lat="45.62396" lon="6.60976">
        <ele>2372</ele>
        <time>2022-07-16T10:03:20Z</time>
      </trkpt>
      <trkpt lat="45.62398" lon="6.60978">
        <ele>2371</ele>
        <time>2022-07-16T10:03:22Z</time>
      </trkpt>
      <trkpt lat="45.62399" lon="6.6098">
        <ele>2371</ele>
        <time>2022-07-16T10:03:24Z</time>
      </trkpt>
      <trkpt lat="45.62401" lon="6.60981">
        <ele>2370</ele>
        <time>2022-07-16T10:03:27Z</time>
      </trkpt>
      <trkpt lat="45.62403" lon="6.6098">
        <ele>2369</ele>
        <time>2022-07-16T10:03:30Z</time>
      </trkpt>
      <trkpt lat="45.62405" lon="6.6098">
        <ele>2369</ele>
        <time>2022-07-16T10:03:31Z</time>
      </trkpt>
      <trkpt lat="45.62407" lon="6.6098">
        <ele>2368</ele>
        <time>2022-07-16T10:03:33Z</time>
      </trkpt>
      <trkpt lat="45.62409" lon="6.60981">
        <ele>2368</ele>
        <time>2022-07-16T10:03:35Z</time>
      </trkpt>
      <trkpt lat="45.62411" lon="6.60982">
        <ele>2368</ele>
        <time>2022-07-16T10:03:37Z</time>
      </trkpt>
      <trkpt lat="45.62414" lon="6.60983">
        <ele>2369</ele>
        <time>2022-07-16T10:03:40Z</time>
      </trkpt>
      <trkpt lat="45.62416" lon="6.60986">
        <ele>2369</ele>
        <time>2022-07-16T10:03:42Z</time>
      </trkpt>
      <trkpt lat="45.62417" lon="6.60988">
        <ele>2368</ele>
        <time>2022-07-16T10:03:44Z</time>
      </trkpt>
      <trkpt lat="45.62418" lon="6.6099">
        <ele>2368</ele>
        <time>2022-07-16T10:03:46Z</time>
      </trkpt>
      <trkpt lat="45.62419" lon="6.60993">
        <ele>2369</ele>
        <time>2022-07-16T10:03:49Z</time>
      </trkpt>
      <trkpt lat="45.62421" lon="6.60996">
        <ele>2369</ele>
        <time>2022-07-16T10:03:50Z</time>
      </trkpt>
      <trkpt lat="45.62422" lon="6.60997">
        <ele>2369</ele>
        <time>2022-07-16T10:03:53Z</time>
      </trkpt>
      <trkpt lat="45.62424" lon="6.60996">
        <ele>2371</ele>
        <time>2022-07-16T10:03:59Z</time>
      </trkpt>
      <trkpt lat="45.62424" lon="6.60996">
        <ele>2372</ele>
        <time>2022-07-16T10:04:08Z</time>
      </trkpt>
      <trkpt lat="45.62426" lon="6.60995">
        <ele>2372</ele>
        <time>2022-07-16T10:04:10Z</time>
      </trkpt>
      <trkpt lat="45.62428" lon="6.60997">
        <ele>2374</ele>
        <time>2022-07-16T10:04:17Z</time>
      </trkpt>
      <trkpt lat="45.6243" lon="6.60998">
        <ele>2375</ele>
        <time>2022-07-16T10:04:22Z</time>
      </trkpt>
      <trkpt lat="45.62433" lon="6.60999">
        <ele>2375</ele>
        <time>2022-07-16T10:04:24Z</time>
      </trkpt>
      <trkpt lat="45.62434" lon="6.61">
        <ele>2375</ele>
        <time>2022-07-16T10:04:26Z</time>
      </trkpt>
      <trkpt lat="45.62437" lon="6.61001">
        <ele>2375</ele>
        <time>2022-07-16T10:04:29Z</time>
      </trkpt>
      <trkpt lat="45.62439" lon="6.61001">
        <ele>2375</ele>
        <time>2022-07-16T10:04:32Z</time>
      </trkpt>
      <trkpt lat="45.62441" lon="6.61001">
        <ele>2376</ele>
        <time>2022-07-16T10:04:35Z</time>
      </trkpt>
      <trkpt lat="45.62443" lon="6.61002">
        <ele>2376</ele>
        <time>2022-07-16T10:04:39Z</time>
      </trkpt>
      <trkpt lat="45.62445" lon="6.61003">
        <ele>2378</ele>
        <time>2022-07-16T10:04:44Z</time>
      </trkpt>
      <trkpt lat="45.62447" lon="6.61004">
        <ele>2380</ele>
        <time>2022-07-16T10:04:47Z</time>
      </trkpt>
      <trkpt lat="45.62448" lon="6.61005">
        <ele>2380</ele>
        <time>2022-07-16T10:04:59Z</time>
      </trkpt>
      <trkpt lat="45.62448" lon="6.61005">
        <ele>2381</ele>
        <time>2022-07-16T10:05:01Z</time>
      </trkpt>
      <trkpt lat="45.6245" lon="6.61005">
        <ele>2382</ele>
        <time>2022-07-16T10:05:09Z</time>
      </trkpt>
      <trkpt lat="45.62452" lon="6.61004">
        <ele>2383</ele>
        <time>2022-07-16T10:05:15Z</time>
      </trkpt>
      <trkpt lat="45.62452" lon="6.61004">
        <ele>2383</ele>
        <time>2022-07-16T10:05:19Z</time>
      </trkpt>
      <trkpt lat="45.62454" lon="6.61006">
        <ele>2384</ele>
        <time>2022-07-16T10:05:22Z</time>
      </trkpt>
      <trkpt lat="45.62456" lon="6.61006">
        <ele>2385</ele>
        <time>2022-07-16T10:05:27Z</time>
      </trkpt>
      <trkpt lat="45.62458" lon="6.61007">
        <ele>2386</ele>
        <time>2022-07-16T10:05:31Z</time>
      </trkpt>
      <trkpt lat="45.6246" lon="6.61009">
        <ele>2386</ele>
        <time>2022-07-16T10:05:36Z</time>
      </trkpt>
      <trkpt lat="45.62461" lon="6.61011">
        <ele>2386</ele>
        <time>2022-07-16T10:05:41Z</time>
      </trkpt>
      <trkpt lat="45.62462" lon="6.61013">
        <ele>2387</ele>
        <time>2022-07-16T10:05:43Z</time>
      </trkpt>
      <trkpt lat="45.62464" lon="6.61014">
        <ele>2387</ele>
        <time>2022-07-16T10:05:45Z</time>
      </trkpt>
      <trkpt lat="45.62466" lon="6.61014">
        <ele>2388</ele>
        <time>2022-07-16T10:05:47Z</time>
      </trkpt>
      <trkpt lat="45.62469" lon="6.61014">
        <ele>2388</ele>
        <time>2022-07-16T10:05:49Z</time>
      </trkpt>
      <trkpt lat="45.62471" lon="6.61014">
        <ele>2388</ele>
        <time>2022-07-16T10:05:51Z</time>
      </trkpt>
      <trkpt lat="45.62473" lon="6.61014">
        <ele>2388</ele>
        <time>2022-07-16T10:05:53Z</time>
      </trkpt>
      <trkpt lat="45.62475" lon="6.61013">
        <ele>2388</ele>
        <time>2022-07-16T10:05:55Z</time>
      </trkpt>
      <trkpt lat="45.62477" lon="6.61012">
        <ele>2389</ele>
        <time>2022-07-16T10:05:57Z</time>
      </trkpt>
      <trkpt lat="45.62479" lon="6.61011">
        <ele>2389</ele>
        <time>2022-07-16T10:05:59Z</time>
      </trkpt>
      <trkpt lat="45.62481" lon="6.61011">
        <ele>2389</ele>
        <time>2022-07-16T10:06:02Z</time>
      </trkpt>
      <trkpt lat="45.62483" lon="6.61011">
        <ele>2389</ele>
        <time>2022-07-16T10:06:03Z</time>
      </trkpt>
      <trkpt lat="45.62486" lon="6.61011">
        <ele>2389</ele>
        <time>2022-07-16T10:06:06Z</time>
      </trkpt>
      <trkpt lat="45.62488" lon="6.6101">
        <ele>2389</ele>
        <time>2022-07-16T10:06:07Z</time>
      </trkpt>
      <trkpt lat="45.62491" lon="6.61009">
        <ele>2389</ele>
        <time>2022-07-16T10:06:09Z</time>
      </trkpt>
      <trkpt lat="45.62493" lon="6.61008">
        <ele>2389</ele>
        <time>2022-07-16T10:06:11Z</time>
      </trkpt>
      <trkpt lat="45.62496" lon="6.61008">
        <ele>2388</ele>
        <time>2022-07-16T10:06:14Z</time>
      </trkpt>
      <trkpt lat="45.62498" lon="6.61007">
        <ele>2388</ele>
        <time>2022-07-16T10:06:16Z</time>
      </trkpt>
      <trkpt lat="45.62501" lon="6.61007">
        <ele>2388</ele>
        <time>2022-07-16T10:06:17Z</time>
      </trkpt>
      <trkpt lat="45.62504" lon="6.61008">
        <ele>2388</ele>
        <time>2022-07-16T10:06:20Z</time>
      </trkpt>
      <trkpt lat="45.62508" lon="6.6101">
        <ele>2387</ele>
        <time>2022-07-16T10:06:21Z</time>
      </trkpt>
      <trkpt lat="45.62511" lon="6.61012">
        <ele>2387</ele>
        <time>2022-07-16T10:06:23Z</time>
      </trkpt>
      <trkpt lat="45.62514" lon="6.61013">
        <ele>2387</ele>
        <time>2022-07-16T10:06:24Z</time>
      </trkpt>
      <trkpt lat="45.62515" lon="6.61014">
        <ele>2386</ele>
        <time>2022-07-16T10:06:25Z</time>
      </trkpt>
      <trkpt lat="45.62519" lon="6.61016">
        <ele>2386</ele>
        <time>2022-07-16T10:06:27Z</time>
      </trkpt>
      <trkpt lat="45.62521" lon="6.61017">
        <ele>2386</ele>
        <time>2022-07-16T10:06:28Z</time>
      </trkpt>
      <trkpt lat="45.62522" lon="6.61018">
        <ele>2386</ele>
        <time>2022-07-16T10:06:29Z</time>
      </trkpt>
      <trkpt lat="45.62524" lon="6.61019">
        <ele>2386</ele>
        <time>2022-07-16T10:06:30Z</time>
      </trkpt>
      <trkpt lat="45.62526" lon="6.6102">
        <ele>2386</ele>
        <time>2022-07-16T10:06:31Z</time>
      </trkpt>
      <trkpt lat="45.62528" lon="6.61021">
        <ele>2386</ele>
        <time>2022-07-16T10:06:32Z</time>
      </trkpt>
      <trkpt lat="45.6253" lon="6.61021">
        <ele>2386</ele>
        <time>2022-07-16T10:06:33Z</time>
      </trkpt>
      <trkpt lat="45.62532" lon="6.61022">
        <ele>2386</ele>
        <time>2022-07-16T10:06:34Z</time>
      </trkpt>
      <trkpt lat="45.62536" lon="6.61024">
        <ele>2386</ele>
        <time>2022-07-16T10:06:36Z</time>
      </trkpt>
      <trkpt lat="45.62538" lon="6.61025">
        <ele>2386</ele>
        <time>2022-07-16T10:06:37Z</time>
      </trkpt>
      <trkpt lat="45.6254" lon="6.61026">
        <ele>2386</ele>
        <time>2022-07-16T10:06:39Z</time>
      </trkpt>
      <trkpt lat="45.62541" lon="6.61027">
        <ele>2386</ele>
        <time>2022-07-16T10:06:40Z</time>
      </trkpt>
      <trkpt lat="45.62544" lon="6.61029">
        <ele>2386</ele>
        <time>2022-07-16T10:06:41Z</time>
      </trkpt>
      <trkpt lat="45.62547" lon="6.6103">
        <ele>2386</ele>
        <time>2022-07-16T10:06:43Z</time>
      </trkpt>
      <trkpt lat="45.6255" lon="6.61031">
        <ele>2385</ele>
        <time>2022-07-16T10:06:45Z</time>
      </trkpt>
      <trkpt lat="45.62552" lon="6.61033">
        <ele>2385</ele>
        <time>2022-07-16T10:06:47Z</time>
      </trkpt>
      <trkpt lat="45.62555" lon="6.61035">
        <ele>2386</ele>
        <time>2022-07-16T10:06:49Z</time>
      </trkpt>
      <trkpt lat="45.62557" lon="6.61037">
        <ele>2386</ele>
        <time>2022-07-16T10:06:52Z</time>
      </trkpt>
      <trkpt lat="45.62559" lon="6.61039">
        <ele>2387</ele>
        <time>2022-07-16T10:06:53Z</time>
      </trkpt>
      <trkpt lat="45.62561" lon="6.61041">
        <ele>2386</ele>
        <time>2022-07-16T10:06:55Z</time>
      </trkpt>
      <trkpt lat="45.62563" lon="6.61043">
        <ele>2387</ele>
        <time>2022-07-16T10:06:57Z</time>
      </trkpt>
      <trkpt lat="45.62565" lon="6.61044">
        <ele>2387</ele>
        <time>2022-07-16T10:06:59Z</time>
      </trkpt>
      <trkpt lat="45.62568" lon="6.61045">
        <ele>2387</ele>
        <time>2022-07-16T10:07:01Z</time>
      </trkpt>
      <trkpt lat="45.62572" lon="6.61047">
        <ele>2387</ele>
        <time>2022-07-16T10:07:03Z</time>
      </trkpt>
      <trkpt lat="45.62574" lon="6.61048">
        <ele>2386</ele>
        <time>2022-07-16T10:07:04Z</time>
      </trkpt>
      <trkpt lat="45.62578" lon="6.6105">
        <ele>2386</ele>
        <time>2022-07-16T10:07:06Z</time>
      </trkpt>
      <trkpt lat="45.6258" lon="6.61051">
        <ele>2386</ele>
        <time>2022-07-16T10:07:07Z</time>
      </trkpt>
      <trkpt lat="45.62582" lon="6.61051">
        <ele>2386</ele>
        <time>2022-07-16T10:07:08Z</time>
      </trkpt>
      <trkpt lat="45.62584" lon="6.61052">
        <ele>2386</ele>
        <time>2022-07-16T10:07:09Z</time>
      </trkpt>
      <trkpt lat="45.62586" lon="6.61053">
        <ele>2386</ele>
        <time>2022-07-16T10:07:10Z</time>
      </trkpt>
      <trkpt lat="45.62588" lon="6.61054">
        <ele>2386</ele>
        <time>2022-07-16T10:07:11Z</time>
      </trkpt>
      <trkpt lat="45.6259" lon="6.61054">
        <ele>2386</ele>
        <time>2022-07-16T10:07:12Z</time>
      </trkpt>
      <trkpt lat="45.62592" lon="6.61055">
        <ele>2386</ele>
        <time>2022-07-16T10:07:13Z</time>
      </trkpt>
      <trkpt lat="45.62595" lon="6.61056">
        <ele>2385</ele>
        <time>2022-07-16T10:07:14Z</time>
      </trkpt>
      <trkpt lat="45.62596" lon="6.61057">
        <ele>2385</ele>
        <time>2022-07-16T10:07:15Z</time>
      </trkpt>
      <trkpt lat="45.62598" lon="6.61057">
        <ele>2385</ele>
        <time>2022-07-16T10:07:17Z</time>
      </trkpt>
      <trkpt lat="45.626" lon="6.61058">
        <ele>2385</ele>
        <time>2022-07-16T10:07:18Z</time>
      </trkpt>
      <trkpt lat="45.62603" lon="6.6106">
        <ele>2385</ele>
        <time>2022-07-16T10:07:19Z</time>
      </trkpt>
      <trkpt lat="45.62605" lon="6.61062">
        <ele>2385</ele>
        <time>2022-07-16T10:07:20Z</time>
      </trkpt>
      <trkpt lat="45.62609" lon="6.61064">
        <ele>2385</ele>
        <time>2022-07-16T10:07:22Z</time>
      </trkpt>
      <trkpt lat="45.62611" lon="6.61066">
        <ele>2384</ele>
        <time>2022-07-16T10:07:23Z</time>
      </trkpt>
      <trkpt lat="45.62612" lon="6.61067">
        <ele>2384</ele>
        <time>2022-07-16T10:07:24Z</time>
      </trkpt>
      <trkpt lat="45.62614" lon="6.61069">
        <ele>2384</ele>
        <time>2022-07-16T10:07:25Z</time>
      </trkpt>
      <trkpt lat="45.62615" lon="6.61071">
        <ele>2384</ele>
        <time>2022-07-16T10:07:26Z</time>
      </trkpt>
      <trkpt lat="45.62616" lon="6.61072">
        <ele>2384</ele>
        <time>2022-07-16T10:07:27Z</time>
      </trkpt>
      <trkpt lat="45.62618" lon="6.61074">
        <ele>2383</ele>
        <time>2022-07-16T10:07:28Z</time>
      </trkpt>
      <trkpt lat="45.6262" lon="6.61075">
        <ele>2382</ele>
        <time>2022-07-16T10:07:29Z</time>
      </trkpt>
      <trkpt lat="45.62621" lon="6.61077">
        <ele>2382</ele>
        <time>2022-07-16T10:07:30Z</time>
      </trkpt>
      <trkpt lat="45.62623" lon="6.61078">
        <ele>2382</ele>
        <time>2022-07-16T10:07:31Z</time>
      </trkpt>
      <trkpt lat="45.62624" lon="6.6108">
        <ele>2382</ele>
        <time>2022-07-16T10:07:32Z</time>
      </trkpt>
      <trkpt lat="45.62626" lon="6.61082">
        <ele>2382</ele>
        <time>2022-07-16T10:07:33Z</time>
      </trkpt>
      <trkpt lat="45.62627" lon="6.61083">
        <ele>2382</ele>
        <time>2022-07-16T10:07:34Z</time>
      </trkpt>
      <trkpt lat="45.62631" lon="6.61086">
        <ele>2381</ele>
        <time>2022-07-16T10:07:36Z</time>
      </trkpt>
      <trkpt lat="45.62633" lon="6.61087">
        <ele>2381</ele>
        <time>2022-07-16T10:07:37Z</time>
      </trkpt>
      <trkpt lat="45.62635" lon="6.61087">
        <ele>2382</ele>
        <time>2022-07-16T10:07:38Z</time>
      </trkpt>
      <trkpt lat="45.62637" lon="6.61088">
        <ele>2382</ele>
        <time>2022-07-16T10:07:39Z</time>
      </trkpt>
      <trkpt lat="45.62639" lon="6.61088">
        <ele>2382</ele>
        <time>2022-07-16T10:07:40Z</time>
      </trkpt>
      <trkpt lat="45.62642" lon="6.61089">
        <ele>2382</ele>
        <time>2022-07-16T10:07:42Z</time>
      </trkpt>
      <trkpt lat="45.62644" lon="6.6109">
        <ele>2382</ele>
        <time>2022-07-16T10:07:43Z</time>
      </trkpt>
      <trkpt lat="45.62646" lon="6.61091">
        <ele>2382</ele>
        <time>2022-07-16T10:07:44Z</time>
      </trkpt>
      <trkpt lat="45.62648" lon="6.61092">
        <ele>2381</ele>
        <time>2022-07-16T10:07:45Z</time>
      </trkpt>
      <trkpt lat="45.62649" lon="6.61093">
        <ele>2381</ele>
        <time>2022-07-16T10:07:46Z</time>
      </trkpt>
      <trkpt lat="45.62652" lon="6.61094">
        <ele>2381</ele>
        <time>2022-07-16T10:07:47Z</time>
      </trkpt>
      <trkpt lat="45.62655" lon="6.61096">
        <ele>2381</ele>
        <time>2022-07-16T10:07:49Z</time>
      </trkpt>
      <trkpt lat="45.62657" lon="6.61097">
        <ele>2381</ele>
        <time>2022-07-16T10:07:50Z</time>
      </trkpt>
      <trkpt lat="45.62659" lon="6.61099">
        <ele>2381</ele>
        <time>2022-07-16T10:07:51Z</time>
      </trkpt>
      <trkpt lat="45.62662" lon="6.61101">
        <ele>2381</ele>
        <time>2022-07-16T10:07:53Z</time>
      </trkpt>
      <trkpt lat="45.62664" lon="6.61104">
        <ele>2381</ele>
        <time>2022-07-16T10:07:56Z</time>
      </trkpt>
      <trkpt lat="45.62666" lon="6.61106">
        <ele>2382</ele>
        <time>2022-07-16T10:07:57Z</time>
      </trkpt>
      <trkpt lat="45.62668" lon="6.61109">
        <ele>2382</ele>
        <time>2022-07-16T10:08:00Z</time>
      </trkpt>
      <trkpt lat="45.6267" lon="6.61111">
        <ele>2382</ele>
        <time>2022-07-16T10:08:01Z</time>
      </trkpt>
      <trkpt lat="45.62672" lon="6.61114">
        <ele>2382</ele>
        <time>2022-07-16T10:08:03Z</time>
      </trkpt>
      <trkpt lat="45.62674" lon="6.61116">
        <ele>2382</ele>
        <time>2022-07-16T10:08:05Z</time>
      </trkpt>
      <trkpt lat="45.62676" lon="6.61119">
        <ele>2383</ele>
        <time>2022-07-16T10:08:07Z</time>
      </trkpt>
      <trkpt lat="45.62677" lon="6.61121">
        <ele>2383</ele>
        <time>2022-07-16T10:08:09Z</time>
      </trkpt>
      <trkpt lat="45.62679" lon="6.61124">
        <ele>2383</ele>
        <time>2022-07-16T10:08:11Z</time>
      </trkpt>
      <trkpt lat="45.6268" lon="6.61127">
        <ele>2383</ele>
        <time>2022-07-16T10:08:14Z</time>
      </trkpt>
      <trkpt lat="45.62681" lon="6.61129">
        <ele>2384</ele>
        <time>2022-07-16T10:08:16Z</time>
      </trkpt>
      <trkpt lat="45.62683" lon="6.61132">
        <ele>2384</ele>
        <time>2022-07-16T10:08:17Z</time>
      </trkpt>
      <trkpt lat="45.62685" lon="6.61134">
        <ele>2384</ele>
        <time>2022-07-16T10:08:19Z</time>
      </trkpt>
      <trkpt lat="45.62687" lon="6.61135">
        <ele>2384</ele>
        <time>2022-07-16T10:08:21Z</time>
      </trkpt>
      <trkpt lat="45.62689" lon="6.61136">
        <ele>2384</ele>
        <time>2022-07-16T10:08:23Z</time>
      </trkpt>
      <trkpt lat="45.62692" lon="6.61137">
        <ele>2385</ele>
        <time>2022-07-16T10:08:25Z</time>
      </trkpt>
      <trkpt lat="45.62695" lon="6.61137">
        <ele>2385</ele>
        <time>2022-07-16T10:08:27Z</time>
      </trkpt>
      <trkpt lat="45.62697" lon="6.61137">
        <ele>2384</ele>
        <time>2022-07-16T10:08:28Z</time>
      </trkpt>
      <trkpt lat="45.62699" lon="6.61136">
        <ele>2383</ele>
        <time>2022-07-16T10:08:29Z</time>
      </trkpt>
      <trkpt lat="45.62701" lon="6.61136">
        <ele>2383</ele>
        <time>2022-07-16T10:08:30Z</time>
      </trkpt>
      <trkpt lat="45.62703" lon="6.61136">
        <ele>2383</ele>
        <time>2022-07-16T10:08:31Z</time>
      </trkpt>
      <trkpt lat="45.62705" lon="6.61136">
        <ele>2383</ele>
        <time>2022-07-16T10:08:33Z</time>
      </trkpt>
      <trkpt lat="45.62709" lon="6.61137">
        <ele>2383</ele>
        <time>2022-07-16T10:08:34Z</time>
      </trkpt>
      <trkpt lat="45.62711" lon="6.61137">
        <ele>2383</ele>
        <time>2022-07-16T10:08:35Z</time>
      </trkpt>
      <trkpt lat="45.62713" lon="6.61139">
        <ele>2383</ele>
        <time>2022-07-16T10:08:36Z</time>
      </trkpt>
      <trkpt lat="45.62715" lon="6.6114">
        <ele>2383</ele>
        <time>2022-07-16T10:08:37Z</time>
      </trkpt>
      <trkpt lat="45.62716" lon="6.61142">
        <ele>2382</ele>
        <time>2022-07-16T10:08:38Z</time>
      </trkpt>
      <trkpt lat="45.62718" lon="6.61143">
        <ele>2382</ele>
        <time>2022-07-16T10:08:39Z</time>
      </trkpt>
      <trkpt lat="45.6272" lon="6.61145">
        <ele>2382</ele>
        <time>2022-07-16T10:08:40Z</time>
      </trkpt>
      <trkpt lat="45.62721" lon="6.61147">
        <ele>2382</ele>
        <time>2022-07-16T10:08:41Z</time>
      </trkpt>
      <trkpt lat="45.62725" lon="6.6115">
        <ele>2382</ele>
        <time>2022-07-16T10:08:43Z</time>
      </trkpt>
      <trkpt lat="45.62726" lon="6.61152">
        <ele>2382</ele>
        <time>2022-07-16T10:08:44Z</time>
      </trkpt>
      <trkpt lat="45.62728" lon="6.61154">
        <ele>2382</ele>
        <time>2022-07-16T10:08:45Z</time>
      </trkpt>
      <trkpt lat="45.6273" lon="6.61155">
        <ele>2382</ele>
        <time>2022-07-16T10:08:46Z</time>
      </trkpt>
      <trkpt lat="45.62731" lon="6.61157">
        <ele>2381</ele>
        <time>2022-07-16T10:08:48Z</time>
      </trkpt>
      <trkpt lat="45.62734" lon="6.61162">
        <ele>2381</ele>
        <time>2022-07-16T10:08:49Z</time>
      </trkpt>
      <trkpt lat="45.62735" lon="6.61165">
        <ele>2381</ele>
        <time>2022-07-16T10:08:51Z</time>
      </trkpt>
      <trkpt lat="45.62736" lon="6.61167">
        <ele>2381</ele>
        <time>2022-07-16T10:08:52Z</time>
      </trkpt>
      <trkpt lat="45.62737" lon="6.61172">
        <ele>2381</ele>
        <time>2022-07-16T10:08:53Z</time>
      </trkpt>
      <trkpt lat="45.6274" lon="6.61176">
        <ele>2380</ele>
        <time>2022-07-16T10:08:55Z</time>
      </trkpt>
      <trkpt lat="45.62741" lon="6.61178">
        <ele>2380</ele>
        <time>2022-07-16T10:08:56Z</time>
      </trkpt>
      <trkpt lat="45.62742" lon="6.61184">
        <ele>2380</ele>
        <time>2022-07-16T10:08:58Z</time>
      </trkpt>
      <trkpt lat="45.62743" lon="6.61186">
        <ele>2380</ele>
        <time>2022-07-16T10:08:59Z</time>
      </trkpt>
      <trkpt lat="45.62743" lon="6.61189">
        <ele>2380</ele>
        <time>2022-07-16T10:09:00Z</time>
      </trkpt>
      <trkpt lat="45.62742" lon="6.61194">
        <ele>2380</ele>
        <time>2022-07-16T10:09:02Z</time>
      </trkpt>
      <trkpt lat="45.62743" lon="6.61198">
        <ele>2380</ele>
        <time>2022-07-16T10:09:04Z</time>
      </trkpt>
      <trkpt lat="45.62744" lon="6.612">
        <ele>2381</ele>
        <time>2022-07-16T10:09:07Z</time>
      </trkpt>
      <trkpt lat="45.62746" lon="6.61203">
        <ele>2381</ele>
        <time>2022-07-16T10:09:08Z</time>
      </trkpt>
      <trkpt lat="45.62749" lon="6.61206">
        <ele>2380</ele>
        <time>2022-07-16T10:09:11Z</time>
      </trkpt>
      <trkpt lat="45.62751" lon="6.61209">
        <ele>2380</ele>
        <time>2022-07-16T10:09:13Z</time>
      </trkpt>
      <trkpt lat="45.62753" lon="6.61213">
        <ele>2380</ele>
        <time>2022-07-16T10:09:14Z</time>
      </trkpt>
      <trkpt lat="45.62756" lon="6.61215">
        <ele>2380</ele>
        <time>2022-07-16T10:09:16Z</time>
      </trkpt>
      <trkpt lat="45.62758" lon="6.61216">
        <ele>2380</ele>
        <time>2022-07-16T10:09:18Z</time>
      </trkpt>
      <trkpt lat="45.62762" lon="6.61217">
        <ele>2380</ele>
        <time>2022-07-16T10:09:19Z</time>
      </trkpt>
      <trkpt lat="45.62764" lon="6.61217">
        <ele>2380</ele>
        <time>2022-07-16T10:09:20Z</time>
      </trkpt>
      <trkpt lat="45.62767" lon="6.61219">
        <ele>2379</ele>
        <time>2022-07-16T10:09:22Z</time>
      </trkpt>
      <trkpt lat="45.62769" lon="6.61222">
        <ele>2380</ele>
        <time>2022-07-16T10:09:24Z</time>
      </trkpt>
      <trkpt lat="45.62769" lon="6.61226">
        <ele>2380</ele>
        <time>2022-07-16T10:09:26Z</time>
      </trkpt>
      <trkpt lat="45.62769" lon="6.6123">
        <ele>2380</ele>
        <time>2022-07-16T10:09:28Z</time>
      </trkpt>
      <trkpt lat="45.62767" lon="6.61235">
        <ele>2380</ele>
        <time>2022-07-16T10:09:31Z</time>
      </trkpt>
      <trkpt lat="45.62765" lon="6.61241">
        <ele>2379</ele>
        <time>2022-07-16T10:09:33Z</time>
      </trkpt>
      <trkpt lat="45.62764" lon="6.61246">
        <ele>2379</ele>
        <time>2022-07-16T10:09:35Z</time>
      </trkpt>
      <trkpt lat="45.62764" lon="6.61249">
        <ele>2379</ele>
        <time>2022-07-16T10:09:36Z</time>
      </trkpt>
      <trkpt lat="45.62763" lon="6.61252">
        <ele>2379</ele>
        <time>2022-07-16T10:09:37Z</time>
      </trkpt>
      <trkpt lat="45.62762" lon="6.61254">
        <ele>2379</ele>
        <time>2022-07-16T10:09:38Z</time>
      </trkpt>
      <trkpt lat="45.62761" lon="6.61259">
        <ele>2379</ele>
        <time>2022-07-16T10:09:40Z</time>
      </trkpt>
      <trkpt lat="45.6276" lon="6.61262">
        <ele>2379</ele>
        <time>2022-07-16T10:09:41Z</time>
      </trkpt>
      <trkpt lat="45.62759" lon="6.61264">
        <ele>2379</ele>
        <time>2022-07-16T10:09:42Z</time>
      </trkpt>
      <trkpt lat="45.62759" lon="6.61267">
        <ele>2379</ele>
        <time>2022-07-16T10:09:43Z</time>
      </trkpt>
      <trkpt lat="45.62758" lon="6.6127">
        <ele>2379</ele>
        <time>2022-07-16T10:09:44Z</time>
      </trkpt>
      <trkpt lat="45.62758" lon="6.61274">
        <ele>2379</ele>
        <time>2022-07-16T10:09:46Z</time>
      </trkpt>
      <trkpt lat="45.62758" lon="6.61278">
        <ele>2379</ele>
        <time>2022-07-16T10:09:48Z</time>
      </trkpt>
      <trkpt lat="45.62756" lon="6.61281">
        <ele>2379</ele>
        <time>2022-07-16T10:09:50Z</time>
      </trkpt>
      <trkpt lat="45.62754" lon="6.61286">
        <ele>2378</ele>
        <time>2022-07-16T10:09:52Z</time>
      </trkpt>
      <trkpt lat="45.62753" lon="6.61288">
        <ele>2378</ele>
        <time>2022-07-16T10:09:53Z</time>
      </trkpt>
      <trkpt lat="45.62753" lon="6.61291">
        <ele>2378</ele>
        <time>2022-07-16T10:09:54Z</time>
      </trkpt>
      <trkpt lat="45.62752" lon="6.61293">
        <ele>2378</ele>
        <time>2022-07-16T10:09:55Z</time>
      </trkpt>
      <trkpt lat="45.62751" lon="6.61296">
        <ele>2378</ele>
        <time>2022-07-16T10:09:56Z</time>
      </trkpt>
      <trkpt lat="45.6275" lon="6.61298">
        <ele>2378</ele>
        <time>2022-07-16T10:09:57Z</time>
      </trkpt>
      <trkpt lat="45.6275" lon="6.61301">
        <ele>2378</ele>
        <time>2022-07-16T10:09:58Z</time>
      </trkpt>
      <trkpt lat="45.62749" lon="6.61303">
        <ele>2378</ele>
        <time>2022-07-16T10:09:59Z</time>
      </trkpt>
      <trkpt lat="45.62748" lon="6.61306">
        <ele>2378</ele>
        <time>2022-07-16T10:10:00Z</time>
      </trkpt>
      <trkpt lat="45.62747" lon="6.6131">
        <ele>2378</ele>
        <time>2022-07-16T10:10:02Z</time>
      </trkpt>
      <trkpt lat="45.62746" lon="6.61317">
        <ele>2378</ele>
        <time>2022-07-16T10:10:04Z</time>
      </trkpt>
      <trkpt lat="45.62746" lon="6.61318">
        <ele>2378</ele>
        <time>2022-07-16T10:10:05Z</time>
      </trkpt>
      <trkpt lat="45.62745" lon="6.61323">
        <ele>2378</ele>
        <time>2022-07-16T10:10:08Z</time>
      </trkpt>
      <trkpt lat="45.62746" lon="6.61327">
        <ele>2378</ele>
        <time>2022-07-16T10:10:09Z</time>
      </trkpt>
      <trkpt lat="45.62746" lon="6.61331">
        <ele>2378</ele>
        <time>2022-07-16T10:10:11Z</time>
      </trkpt>
      <trkpt lat="45.62746" lon="6.61334">
        <ele>2378</ele>
        <time>2022-07-16T10:10:13Z</time>
      </trkpt>
      <trkpt lat="45.62746" lon="6.61337">
        <ele>2378</ele>
        <time>2022-07-16T10:10:15Z</time>
      </trkpt>
      <trkpt lat="45.62746" lon="6.61341">
        <ele>2378</ele>
        <time>2022-07-16T10:10:17Z</time>
      </trkpt>
      <trkpt lat="45.62745" lon="6.61344">
        <ele>2378</ele>
        <time>2022-07-16T10:10:20Z</time>
      </trkpt>
      <trkpt lat="45.62743" lon="6.61348">
        <ele>2378</ele>
        <time>2022-07-16T10:10:21Z</time>
      </trkpt>
      <trkpt lat="45.62742" lon="6.61351">
        <ele>2378</ele>
        <time>2022-07-16T10:10:23Z</time>
      </trkpt>
      <trkpt lat="45.62741" lon="6.61354">
        <ele>2378</ele>
        <time>2022-07-16T10:10:25Z</time>
      </trkpt>
      <trkpt lat="45.6274" lon="6.61358">
        <ele>2378</ele>
        <time>2022-07-16T10:10:28Z</time>
      </trkpt>
      <trkpt lat="45.62739" lon="6.61361">
        <ele>2378</ele>
        <time>2022-07-16T10:10:30Z</time>
      </trkpt>
      <trkpt lat="45.62738" lon="6.61363">
        <ele>2378</ele>
        <time>2022-07-16T10:10:31Z</time>
      </trkpt>
      <trkpt lat="45.62738" lon="6.61367">
        <ele>2378</ele>
        <time>2022-07-16T10:10:33Z</time>
      </trkpt>
      <trkpt lat="45.62737" lon="6.61371">
        <ele>2378</ele>
        <time>2022-07-16T10:10:35Z</time>
      </trkpt>
      <trkpt lat="45.62735" lon="6.61375">
        <ele>2378</ele>
        <time>2022-07-16T10:10:37Z</time>
      </trkpt>
      <trkpt lat="45.62734" lon="6.61378">
        <ele>2378</ele>
        <time>2022-07-16T10:10:39Z</time>
      </trkpt>
      <trkpt lat="45.62733" lon="6.61381">
        <ele>2378</ele>
        <time>2022-07-16T10:10:41Z</time>
      </trkpt>
      <trkpt lat="45.62732" lon="6.61385">
        <ele>2379</ele>
        <time>2022-07-16T10:10:43Z</time>
      </trkpt>
      <trkpt lat="45.62731" lon="6.61388">
        <ele>2379</ele>
        <time>2022-07-16T10:10:46Z</time>
      </trkpt>
      <trkpt lat="45.6273" lon="6.61391">
        <ele>2379</ele>
        <time>2022-07-16T10:10:47Z</time>
      </trkpt>
      <trkpt lat="45.62729" lon="6.61394">
        <ele>2380</ele>
        <time>2022-07-16T10:10:49Z</time>
      </trkpt>
      <trkpt lat="45.62727" lon="6.61398">
        <ele>2380</ele>
        <time>2022-07-16T10:10:51Z</time>
      </trkpt>
      <trkpt lat="45.62725" lon="6.61401">
        <ele>2380</ele>
        <time>2022-07-16T10:10:53Z</time>
      </trkpt>
      <trkpt lat="45.62724" lon="6.61404">
        <ele>2380</ele>
        <time>2022-07-16T10:10:55Z</time>
      </trkpt>
      <trkpt lat="45.62722" lon="6.61407">
        <ele>2380</ele>
        <time>2022-07-16T10:10:58Z</time>
      </trkpt>
      <trkpt lat="45.6272" lon="6.61409">
        <ele>2380</ele>
        <time>2022-07-16T10:10:59Z</time>
      </trkpt>
      <trkpt lat="45.62719" lon="6.61411">
        <ele>2381</ele>
        <time>2022-07-16T10:11:01Z</time>
      </trkpt>
      <trkpt lat="45.62717" lon="6.61413">
        <ele>2381</ele>
        <time>2022-07-16T10:11:03Z</time>
      </trkpt>
      <trkpt lat="45.62716" lon="6.61415">
        <ele>2382</ele>
        <time>2022-07-16T10:11:05Z</time>
      </trkpt>
      <trkpt lat="45.62714" lon="6.61418">
        <ele>2382</ele>
        <time>2022-07-16T10:11:07Z</time>
      </trkpt>
      <trkpt lat="45.62712" lon="6.6142">
        <ele>2382</ele>
        <time>2022-07-16T10:11:10Z</time>
      </trkpt>
      <trkpt lat="45.62709" lon="6.61422">
        <ele>2382</ele>
        <time>2022-07-16T10:11:11Z</time>
      </trkpt>
      <trkpt lat="45.62707" lon="6.61424">
        <ele>2382</ele>
        <time>2022-07-16T10:11:13Z</time>
      </trkpt>
      <trkpt lat="45.62705" lon="6.61427">
        <ele>2382</ele>
        <time>2022-07-16T10:11:15Z</time>
      </trkpt>
      <trkpt lat="45.62703" lon="6.6143">
        <ele>2383</ele>
        <time>2022-07-16T10:11:18Z</time>
      </trkpt>
      <trkpt lat="45.62701" lon="6.61432">
        <ele>2383</ele>
        <time>2022-07-16T10:11:19Z</time>
      </trkpt>
      <trkpt lat="45.62699" lon="6.61434">
        <ele>2383</ele>
        <time>2022-07-16T10:11:21Z</time>
      </trkpt>
      <trkpt lat="45.62697" lon="6.61437">
        <ele>2383</ele>
        <time>2022-07-16T10:11:24Z</time>
      </trkpt>
      <trkpt lat="45.62696" lon="6.6144">
        <ele>2383</ele>
        <time>2022-07-16T10:11:25Z</time>
      </trkpt>
      <trkpt lat="45.62694" lon="6.61443">
        <ele>2383</ele>
        <time>2022-07-16T10:11:27Z</time>
      </trkpt>
      <trkpt lat="45.62694" lon="6.61446">
        <ele>2384</ele>
        <time>2022-07-16T10:11:29Z</time>
      </trkpt>
      <trkpt lat="45.62693" lon="6.61449">
        <ele>2384</ele>
        <time>2022-07-16T10:11:31Z</time>
      </trkpt>
      <trkpt lat="45.62694" lon="6.61452">
        <ele>2384</ele>
        <time>2022-07-16T10:11:33Z</time>
      </trkpt>
      <trkpt lat="45.62695" lon="6.61455">
        <ele>2384</ele>
        <time>2022-07-16T10:11:36Z</time>
      </trkpt>
      <trkpt lat="45.62695" lon="6.61458">
        <ele>2384</ele>
        <time>2022-07-16T10:11:38Z</time>
      </trkpt>
      <trkpt lat="45.62696" lon="6.61461">
        <ele>2384</ele>
        <time>2022-07-16T10:11:40Z</time>
      </trkpt>
      <trkpt lat="45.62696" lon="6.61465">
        <ele>2385</ele>
        <time>2022-07-16T10:11:41Z</time>
      </trkpt>
      <trkpt lat="45.62696" lon="6.61468">
        <ele>2385</ele>
        <time>2022-07-16T10:11:43Z</time>
      </trkpt>
      <trkpt lat="45.62697" lon="6.61472">
        <ele>2385</ele>
        <time>2022-07-16T10:11:45Z</time>
      </trkpt>
      <trkpt lat="45.62697" lon="6.61475">
        <ele>2385</ele>
        <time>2022-07-16T10:11:48Z</time>
      </trkpt>
      <trkpt lat="45.62697" lon="6.61479">
        <ele>2385</ele>
        <time>2022-07-16T10:11:49Z</time>
      </trkpt>
      <trkpt lat="45.62697" lon="6.61483">
        <ele>2384</ele>
        <time>2022-07-16T10:11:51Z</time>
      </trkpt>
      <trkpt lat="45.62697" lon="6.61486">
        <ele>2384</ele>
        <time>2022-07-16T10:11:53Z</time>
      </trkpt>
      <trkpt lat="45.62697" lon="6.6149">
        <ele>2384</ele>
        <time>2022-07-16T10:11:55Z</time>
      </trkpt>
      <trkpt lat="45.62698" lon="6.61494">
        <ele>2384</ele>
        <time>2022-07-16T10:11:57Z</time>
      </trkpt>
      <trkpt lat="45.62698" lon="6.61497">
        <ele>2384</ele>
        <time>2022-07-16T10:12:00Z</time>
      </trkpt>
      <trkpt lat="45.62699" lon="6.61501">
        <ele>2384</ele>
        <time>2022-07-16T10:12:02Z</time>
      </trkpt>
      <trkpt lat="45.62699" lon="6.61505">
        <ele>2384</ele>
        <time>2022-07-16T10:12:03Z</time>
      </trkpt>
      <trkpt lat="45.62699" lon="6.61509">
        <ele>2384</ele>
        <time>2022-07-16T10:12:05Z</time>
      </trkpt>
      <trkpt lat="45.62699" lon="6.61513">
        <ele>2384</ele>
        <time>2022-07-16T10:12:07Z</time>
      </trkpt>
      <trkpt lat="45.62699" lon="6.61517">
        <ele>2384</ele>
        <time>2022-07-16T10:12:09Z</time>
      </trkpt>
      <trkpt lat="45.62699" lon="6.61522">
        <ele>2384</ele>
        <time>2022-07-16T10:12:12Z</time>
      </trkpt>
      <trkpt lat="45.62699" lon="6.61526">
        <ele>2384</ele>
        <time>2022-07-16T10:12:13Z</time>
      </trkpt>
      <trkpt lat="45.62699" lon="6.6153">
        <ele>2384</ele>
        <time>2022-07-16T10:12:15Z</time>
      </trkpt>
      <trkpt lat="45.62698" lon="6.61533">
        <ele>2384</ele>
        <time>2022-07-16T10:12:17Z</time>
      </trkpt>
      <trkpt lat="45.62697" lon="6.61537">
        <ele>2384</ele>
        <time>2022-07-16T10:12:19Z</time>
      </trkpt>
      <trkpt lat="45.62696" lon="6.61541">
        <ele>2384</ele>
        <time>2022-07-16T10:12:22Z</time>
      </trkpt>
      <trkpt lat="45.62695" lon="6.61544">
        <ele>2383</ele>
        <time>2022-07-16T10:12:24Z</time>
      </trkpt>
      <trkpt lat="45.62693" lon="6.61548">
        <ele>2383</ele>
        <time>2022-07-16T10:12:26Z</time>
      </trkpt>
      <trkpt lat="45.62691" lon="6.6155">
        <ele>2383</ele>
        <time>2022-07-16T10:12:27Z</time>
      </trkpt>
      <trkpt lat="45.62689" lon="6.61553">
        <ele>2383</ele>
        <time>2022-07-16T10:12:29Z</time>
      </trkpt>
      <trkpt lat="45.62687" lon="6.61556">
        <ele>2383</ele>
        <time>2022-07-16T10:12:31Z</time>
      </trkpt>
      <trkpt lat="45.62685" lon="6.61558">
        <ele>2384</ele>
        <time>2022-07-16T10:12:34Z</time>
      </trkpt>
      <trkpt lat="45.62683" lon="6.6156">
        <ele>2384</ele>
        <time>2022-07-16T10:12:36Z</time>
      </trkpt>
      <trkpt lat="45.6268" lon="6.61561">
        <ele>2384</ele>
        <time>2022-07-16T10:12:37Z</time>
      </trkpt>
      <trkpt lat="45.62678" lon="6.61562">
        <ele>2385</ele>
        <time>2022-07-16T10:12:39Z</time>
      </trkpt>
      <trkpt lat="45.62676" lon="6.61563">
        <ele>2385</ele>
        <time>2022-07-16T10:12:41Z</time>
      </trkpt>
      <trkpt lat="45.62674" lon="6.61564">
        <ele>2385</ele>
        <time>2022-07-16T10:12:45Z</time>
      </trkpt>
      <trkpt lat="45.62672" lon="6.61567">
        <ele>2386</ele>
        <time>2022-07-16T10:12:47Z</time>
      </trkpt>
      <trkpt lat="45.6267" lon="6.61568">
        <ele>2387</ele>
        <time>2022-07-16T10:12:49Z</time>
      </trkpt>
      <trkpt lat="45.62669" lon="6.61571">
        <ele>2387</ele>
        <time>2022-07-16T10:12:51Z</time>
      </trkpt>
      <trkpt lat="45.62667" lon="6.61573">
        <ele>2387</ele>
        <time>2022-07-16T10:12:53Z</time>
      </trkpt>
      <trkpt lat="45.62665" lon="6.61574">
        <ele>2387</ele>
        <time>2022-07-16T10:12:56Z</time>
      </trkpt>
      <trkpt lat="45.62663" lon="6.61575">
        <ele>2388</ele>
        <time>2022-07-16T10:12:57Z</time>
      </trkpt>
      <trkpt lat="45.62661" lon="6.61576">
        <ele>2388</ele>
        <time>2022-07-16T10:13:00Z</time>
      </trkpt>
      <trkpt lat="45.6266" lon="6.61577">
        <ele>2388</ele>
        <time>2022-07-16T10:13:02Z</time>
      </trkpt>
      <trkpt lat="45.62658" lon="6.61579">
        <ele>2388</ele>
        <time>2022-07-16T10:13:04Z</time>
      </trkpt>
      <trkpt lat="45.62657" lon="6.61581">
        <ele>2388</ele>
        <time>2022-07-16T10:13:05Z</time>
      </trkpt>
      <trkpt lat="45.62655" lon="6.61583">
        <ele>2389</ele>
        <time>2022-07-16T10:13:09Z</time>
      </trkpt>
      <trkpt lat="45.62653" lon="6.61585">
        <ele>2389</ele>
        <time>2022-07-16T10:13:10Z</time>
      </trkpt>
      <trkpt lat="45.62651" lon="6.61587">
        <ele>2389</ele>
        <time>2022-07-16T10:13:12Z</time>
      </trkpt>
      <trkpt lat="45.6265" lon="6.61589">
        <ele>2390</ele>
        <time>2022-07-16T10:13:15Z</time>
      </trkpt>
      <trkpt lat="45.62648" lon="6.61592">
        <ele>2390</ele>
        <time>2022-07-16T10:13:19Z</time>
      </trkpt>
      <trkpt lat="45.62647" lon="6.61594">
        <ele>2391</ele>
        <time>2022-07-16T10:13:21Z</time>
      </trkpt>
      <trkpt lat="45.62646" lon="6.61597">
        <ele>2392</ele>
        <time>2022-07-16T10:13:24Z</time>
      </trkpt>
      <trkpt lat="45.62645" lon="6.61599">
        <ele>2393</ele>
        <time>2022-07-16T10:13:27Z</time>
      </trkpt>
      <trkpt lat="45.62644" lon="6.61602">
        <ele>2393</ele>
        <time>2022-07-16T10:13:30Z</time>
      </trkpt>
      <trkpt lat="45.62643" lon="6.61604">
        <ele>2393</ele>
        <time>2022-07-16T10:13:33Z</time>
      </trkpt>
      <trkpt lat="45.62641" lon="6.61606">
        <ele>2393</ele>
        <time>2022-07-16T10:13:36Z</time>
      </trkpt>
      <trkpt lat="45.62641" lon="6.61609">
        <ele>2394</ele>
        <time>2022-07-16T10:13:40Z</time>
      </trkpt>
      <trkpt lat="45.6264" lon="6.61612">
        <ele>2395</ele>
        <time>2022-07-16T10:13:43Z</time>
      </trkpt>
      <trkpt lat="45.62639" lon="6.61615">
        <ele>2396</ele>
        <time>2022-07-16T10:13:48Z</time>
      </trkpt>
      <trkpt lat="45.62639" lon="6.61617">
        <ele>2397</ele>
        <time>2022-07-16T10:13:52Z</time>
      </trkpt>
      <trkpt lat="45.62639" lon="6.61621">
        <ele>2398</ele>
        <time>2022-07-16T10:13:56Z</time>
      </trkpt>
      <trkpt lat="45.62639" lon="6.61624">
        <ele>2398</ele>
        <time>2022-07-16T10:13:58Z</time>
      </trkpt>
      <trkpt lat="45.62639" lon="6.61627">
        <ele>2398</ele>
        <time>2022-07-16T10:14:01Z</time>
      </trkpt>
      <trkpt lat="45.62638" lon="6.6163">
        <ele>2399</ele>
        <time>2022-07-16T10:14:04Z</time>
      </trkpt>
      <trkpt lat="45.62638" lon="6.61634">
        <ele>2400</ele>
        <time>2022-07-16T10:14:07Z</time>
      </trkpt>
      <trkpt lat="45.62638" lon="6.61637">
        <ele>2401</ele>
        <time>2022-07-16T10:14:10Z</time>
      </trkpt>
      <trkpt lat="45.62637" lon="6.61639">
        <ele>2400</ele>
        <time>2022-07-16T10:14:14Z</time>
      </trkpt>
      <trkpt lat="45.62637" lon="6.61643">
        <ele>2401</ele>
        <time>2022-07-16T10:14:16Z</time>
      </trkpt>
      <trkpt lat="45.62637" lon="6.61645">
        <ele>2402</ele>
        <time>2022-07-16T10:14:18Z</time>
      </trkpt>
      <trkpt lat="45.62636" lon="6.61649">
        <ele>2402</ele>
        <time>2022-07-16T10:14:21Z</time>
      </trkpt>
      <trkpt lat="45.62635" lon="6.61652">
        <ele>2404</ele>
        <time>2022-07-16T10:14:24Z</time>
      </trkpt>
      <trkpt lat="45.62634" lon="6.61655">
        <ele>2404</ele>
        <time>2022-07-16T10:14:27Z</time>
      </trkpt>
      <trkpt lat="45.62634" lon="6.61658">
        <ele>2404</ele>
        <time>2022-07-16T10:14:30Z</time>
      </trkpt>
      <trkpt lat="45.62634" lon="6.61661">
        <ele>2406</ele>
        <time>2022-07-16T10:14:35Z</time>
      </trkpt>
      <trkpt lat="45.62634" lon="6.61664">
        <ele>2406</ele>
        <time>2022-07-16T10:14:37Z</time>
      </trkpt>
      <trkpt lat="45.62634" lon="6.61668">
        <ele>2406</ele>
        <time>2022-07-16T10:14:40Z</time>
      </trkpt>
      <trkpt lat="45.62634" lon="6.61671">
        <ele>2407</ele>
        <time>2022-07-16T10:14:43Z</time>
      </trkpt>
      <trkpt lat="45.62635" lon="6.61674">
        <ele>2408</ele>
        <time>2022-07-16T10:14:46Z</time>
      </trkpt>
      <trkpt lat="45.62636" lon="6.61676">
        <ele>2408</ele>
        <time>2022-07-16T10:14:48Z</time>
      </trkpt>
      <trkpt lat="45.62635" lon="6.61679">
        <ele>2409</ele>
        <time>2022-07-16T10:14:51Z</time>
      </trkpt>
      <trkpt lat="45.62635" lon="6.61682">
        <ele>2409</ele>
        <time>2022-07-16T10:14:54Z</time>
      </trkpt>
      <trkpt lat="45.62635" lon="6.61685">
        <ele>2409</ele>
        <time>2022-07-16T10:14:56Z</time>
      </trkpt>
      <trkpt lat="45.62636" lon="6.61688">
        <ele>2410</ele>
        <time>2022-07-16T10:15:00Z</time>
      </trkpt>
      <trkpt lat="45.62636" lon="6.61691">
        <ele>2410</ele>
        <time>2022-07-16T10:15:01Z</time>
      </trkpt>
      <trkpt lat="45.62637" lon="6.61694">
        <ele>2411</ele>
        <time>2022-07-16T10:15:05Z</time>
      </trkpt>
      <trkpt lat="45.62638" lon="6.61697">
        <ele>2412</ele>
        <time>2022-07-16T10:15:07Z</time>
      </trkpt>
      <trkpt lat="45.62639" lon="6.617">
        <ele>2412</ele>
        <time>2022-07-16T10:15:09Z</time>
      </trkpt>
      <trkpt lat="45.62639" lon="6.61703">
        <ele>2413</ele>
        <time>2022-07-16T10:15:13Z</time>
      </trkpt>
      <trkpt lat="45.62641" lon="6.61706">
        <ele>2413</ele>
        <time>2022-07-16T10:15:16Z</time>
      </trkpt>
      <trkpt lat="45.62642" lon="6.61708">
        <ele>2413</ele>
        <time>2022-07-16T10:15:18Z</time>
      </trkpt>
      <trkpt lat="45.62645" lon="6.61709">
        <ele>2414</ele>
        <time>2022-07-16T10:15:21Z</time>
      </trkpt>
      <trkpt lat="45.62647" lon="6.61711">
        <ele>2414</ele>
        <time>2022-07-16T10:15:23Z</time>
      </trkpt>
      <trkpt lat="45.62649" lon="6.61713">
        <ele>2414</ele>
        <time>2022-07-16T10:15:26Z</time>
      </trkpt>
      <trkpt lat="45.6265" lon="6.61714">
        <ele>2414</ele>
        <time>2022-07-16T10:15:28Z</time>
      </trkpt>
      <trkpt lat="45.62652" lon="6.61717">
        <ele>2414</ele>
        <time>2022-07-16T10:15:32Z</time>
      </trkpt>
      <trkpt lat="45.62653" lon="6.6172">
        <ele>2414</ele>
        <time>2022-07-16T10:15:34Z</time>
      </trkpt>
      <trkpt lat="45.62654" lon="6.61722">
        <ele>2415</ele>
        <time>2022-07-16T10:15:36Z</time>
      </trkpt>
      <trkpt lat="45.62656" lon="6.61724">
        <ele>2415</ele>
        <time>2022-07-16T10:15:38Z</time>
      </trkpt>
      <trkpt lat="45.62658" lon="6.61725">
        <ele>2415</ele>
        <time>2022-07-16T10:15:41Z</time>
      </trkpt>
      <trkpt lat="45.62659" lon="6.61727">
        <ele>2415</ele>
        <time>2022-07-16T10:15:43Z</time>
      </trkpt>
      <trkpt lat="45.6266" lon="6.61729">
        <ele>2415</ele>
        <time>2022-07-16T10:15:44Z</time>
      </trkpt>
      <trkpt lat="45.62662" lon="6.61731">
        <ele>2415</ele>
        <time>2022-07-16T10:15:46Z</time>
      </trkpt>
      <trkpt lat="45.62663" lon="6.61734">
        <ele>2415</ele>
        <time>2022-07-16T10:15:49Z</time>
      </trkpt>
      <trkpt lat="45.62664" lon="6.61736">
        <ele>2416</ele>
        <time>2022-07-16T10:15:51Z</time>
      </trkpt>
      <trkpt lat="45.62665" lon="6.61738">
        <ele>2415</ele>
        <time>2022-07-16T10:15:53Z</time>
      </trkpt>
      <trkpt lat="45.62666" lon="6.6174">
        <ele>2416</ele>
        <time>2022-07-16T10:15:54Z</time>
      </trkpt>
      <trkpt lat="45.62667" lon="6.61743">
        <ele>2416</ele>
        <time>2022-07-16T10:15:56Z</time>
      </trkpt>
      <trkpt lat="45.62668" lon="6.61746">
        <ele>2416</ele>
        <time>2022-07-16T10:15:58Z</time>
      </trkpt>
      <trkpt lat="45.62669" lon="6.61749">
        <ele>2416</ele>
        <time>2022-07-16T10:16:01Z</time>
      </trkpt>
      <trkpt lat="45.6267" lon="6.61752">
        <ele>2417</ele>
        <time>2022-07-16T10:16:03Z</time>
      </trkpt>
      <trkpt lat="45.62672" lon="6.61754">
        <ele>2417</ele>
        <time>2022-07-16T10:16:06Z</time>
      </trkpt>
      <trkpt lat="45.62674" lon="6.61757">
        <ele>2417</ele>
        <time>2022-07-16T10:16:08Z</time>
      </trkpt>
      <trkpt lat="45.62675" lon="6.61759">
        <ele>2417</ele>
        <time>2022-07-16T10:16:10Z</time>
      </trkpt>
      <trkpt lat="45.62677" lon="6.61761">
        <ele>2417</ele>
        <time>2022-07-16T10:16:14Z</time>
      </trkpt>
      <trkpt lat="45.62678" lon="6.61764">
        <ele>2418</ele>
        <time>2022-07-16T10:16:15Z</time>
      </trkpt>
      <trkpt lat="45.62679" lon="6.61767">
        <ele>2419</ele>
        <time>2022-07-16T10:16:18Z</time>
      </trkpt>
      <trkpt lat="45.6268" lon="6.6177">
        <ele>2419</ele>
        <time>2022-07-16T10:16:21Z</time>
      </trkpt>
      <trkpt lat="45.62681" lon="6.61772">
        <ele>2419</ele>
        <time>2022-07-16T10:16:23Z</time>
      </trkpt>
      <trkpt lat="45.62682" lon="6.61775">
        <ele>2420</ele>
        <time>2022-07-16T10:16:26Z</time>
      </trkpt>
      <trkpt lat="45.62684" lon="6.61778">
        <ele>2420</ele>
        <time>2022-07-16T10:16:29Z</time>
      </trkpt>
      <trkpt lat="45.62685" lon="6.61781">
        <ele>2420</ele>
        <time>2022-07-16T10:16:32Z</time>
      </trkpt>
      <trkpt lat="45.62687" lon="6.61783">
        <ele>2422</ele>
        <time>2022-07-16T10:16:36Z</time>
      </trkpt>
      <trkpt lat="45.62689" lon="6.61784">
        <ele>2422</ele>
        <time>2022-07-16T10:16:39Z</time>
      </trkpt>
      <trkpt lat="45.62691" lon="6.61785">
        <ele>2422</ele>
        <time>2022-07-16T10:16:41Z</time>
      </trkpt>
      <trkpt lat="45.62694" lon="6.61786">
        <ele>2423</ele>
        <time>2022-07-16T10:16:44Z</time>
      </trkpt>
      <trkpt lat="45.62696" lon="6.61788">
        <ele>2424</ele>
        <time>2022-07-16T10:16:48Z</time>
      </trkpt>
      <trkpt lat="45.62697" lon="6.61789">
        <ele>2424</ele>
        <time>2022-07-16T10:16:50Z</time>
      </trkpt>
      <trkpt lat="45.62699" lon="6.61792">
        <ele>2424</ele>
        <time>2022-07-16T10:16:53Z</time>
      </trkpt>
      <trkpt lat="45.62702" lon="6.61794">
        <ele>2424</ele>
        <time>2022-07-16T10:16:56Z</time>
      </trkpt>
      <trkpt lat="45.62703" lon="6.61795">
        <ele>2425</ele>
        <time>2022-07-16T10:16:58Z</time>
      </trkpt>
      <trkpt lat="45.62705" lon="6.61798">
        <ele>2425</ele>
        <time>2022-07-16T10:17:01Z</time>
      </trkpt>
      <trkpt lat="45.62707" lon="6.61801">
        <ele>2426</ele>
        <time>2022-07-16T10:17:04Z</time>
      </trkpt>
      <trkpt lat="45.62707" lon="6.61804">
        <ele>2426</ele>
        <time>2022-07-16T10:17:06Z</time>
      </trkpt>
      <trkpt lat="45.62708" lon="6.61808">
        <ele>2427</ele>
        <time>2022-07-16T10:17:09Z</time>
      </trkpt>
      <trkpt lat="45.62708" lon="6.61811">
        <ele>2428</ele>
        <time>2022-07-16T10:17:12Z</time>
      </trkpt>
      <trkpt lat="45.62709" lon="6.61815">
        <ele>2428</ele>
        <time>2022-07-16T10:17:16Z</time>
      </trkpt>
      <trkpt lat="45.62709" lon="6.61817">
        <ele>2428</ele>
        <time>2022-07-16T10:17:18Z</time>
      </trkpt>
      <trkpt lat="45.6271" lon="6.61821">
        <ele>2428</ele>
        <time>2022-07-16T10:17:20Z</time>
      </trkpt>
      <trkpt lat="45.6271" lon="6.61824">
        <ele>2428</ele>
        <time>2022-07-16T10:17:23Z</time>
      </trkpt>
      <trkpt lat="45.6271" lon="6.61828">
        <ele>2430</ele>
        <time>2022-07-16T10:17:26Z</time>
      </trkpt>
      <trkpt lat="45.6271" lon="6.61831">
        <ele>2430</ele>
        <time>2022-07-16T10:17:29Z</time>
      </trkpt>
      <trkpt lat="45.62708" lon="6.61834">
        <ele>2431</ele>
        <time>2022-07-16T10:17:33Z</time>
      </trkpt>
      <trkpt lat="45.62707" lon="6.61836">
        <ele>2432</ele>
        <time>2022-07-16T10:17:36Z</time>
      </trkpt>
      <trkpt lat="45.62706" lon="6.61838">
        <ele>2433</ele>
        <time>2022-07-16T10:17:39Z</time>
      </trkpt>
      <trkpt lat="45.62704" lon="6.6184">
        <ele>2434</ele>
        <time>2022-07-16T10:17:44Z</time>
      </trkpt>
      <trkpt lat="45.62702" lon="6.6184">
        <ele>2434</ele>
        <time>2022-07-16T10:17:49Z</time>
      </trkpt>
      <trkpt lat="45.627" lon="6.61841">
        <ele>2435</ele>
        <time>2022-07-16T10:17:53Z</time>
      </trkpt>
      <trkpt lat="45.62698" lon="6.61842">
        <ele>2436</ele>
        <time>2022-07-16T10:17:57Z</time>
      </trkpt>
      <trkpt lat="45.62697" lon="6.61844">
        <ele>2437</ele>
        <time>2022-07-16T10:18:03Z</time>
      </trkpt>
      <trkpt lat="45.62698" lon="6.61846">
        <ele>2438</ele>
        <time>2022-07-16T10:18:08Z</time>
      </trkpt>
      <trkpt lat="45.627" lon="6.61847">
        <ele>2438</ele>
        <time>2022-07-16T10:18:11Z</time>
      </trkpt>
      <trkpt lat="45.62702" lon="6.61847">
        <ele>2439</ele>
        <time>2022-07-16T10:18:15Z</time>
      </trkpt>
      <trkpt lat="45.62702" lon="6.6185">
        <ele>2440</ele>
        <time>2022-07-16T10:18:20Z</time>
      </trkpt>
      <trkpt lat="45.62701" lon="6.61853">
        <ele>2441</ele>
        <time>2022-07-16T10:18:24Z</time>
      </trkpt>
      <trkpt lat="45.627" lon="6.61856">
        <ele>2442</ele>
        <time>2022-07-16T10:18:29Z</time>
      </trkpt>
      <trkpt lat="45.62703" lon="6.61856">
        <ele>2442</ele>
        <time>2022-07-16T10:18:34Z</time>
      </trkpt>
      <trkpt lat="45.62705" lon="6.61856">
        <ele>2443</ele>
        <time>2022-07-16T10:18:36Z</time>
      </trkpt>
      <trkpt lat="45.62706" lon="6.61856">
        <ele>2444</ele>
        <time>2022-07-16T10:18:39Z</time>
      </trkpt>
      <trkpt lat="45.62708" lon="6.61858">
        <ele>2444</ele>
        <time>2022-07-16T10:18:41Z</time>
      </trkpt>
      <trkpt lat="45.62708" lon="6.61861">
        <ele>2444</ele>
        <time>2022-07-16T10:18:44Z</time>
      </trkpt>
      <trkpt lat="45.62708" lon="6.61864">
        <ele>2445</ele>
        <time>2022-07-16T10:18:49Z</time>
      </trkpt>
      <trkpt lat="45.62706" lon="6.61866">
        <ele>2445</ele>
        <time>2022-07-16T10:18:51Z</time>
      </trkpt>
      <trkpt lat="45.62704" lon="6.61866">
        <ele>2445</ele>
        <time>2022-07-16T10:18:55Z</time>
      </trkpt>
      <trkpt lat="45.62702" lon="6.61865">
        <ele>2445</ele>
        <time>2022-07-16T10:18:58Z</time>
      </trkpt>
      <trkpt lat="45.627" lon="6.61864">
        <ele>2445</ele>
        <time>2022-07-16T10:19:00Z</time>
      </trkpt>
      <trkpt lat="45.62698" lon="6.61864">
        <ele>2446</ele>
        <time>2022-07-16T10:19:02Z</time>
      </trkpt>
      <trkpt lat="45.62698" lon="6.61867">
        <ele>2447</ele>
        <time>2022-07-16T10:19:07Z</time>
      </trkpt>
      <trkpt lat="45.62699" lon="6.61871">
        <ele>2447</ele>
        <time>2022-07-16T10:19:11Z</time>
      </trkpt>
      <trkpt lat="45.62701" lon="6.61872">
        <ele>2447</ele>
        <time>2022-07-16T10:19:12Z</time>
      </trkpt>
      <trkpt lat="45.62702" lon="6.61875">
        <ele>2448</ele>
        <time>2022-07-16T10:19:16Z</time>
      </trkpt>
      <trkpt lat="45.62704" lon="6.61877">
        <ele>2448</ele>
        <time>2022-07-16T10:19:17Z</time>
      </trkpt>
      <trkpt lat="45.62706" lon="6.61879">
        <ele>2449</ele>
        <time>2022-07-16T10:19:20Z</time>
      </trkpt>
      <trkpt lat="45.62708" lon="6.61881">
        <ele>2449</ele>
        <time>2022-07-16T10:19:24Z</time>
      </trkpt>
      <trkpt lat="45.62709" lon="6.61884">
        <ele>2449</ele>
        <time>2022-07-16T10:19:26Z</time>
      </trkpt>
      <trkpt lat="45.6271" lon="6.61886">
        <ele>2450</ele>
        <time>2022-07-16T10:19:30Z</time>
      </trkpt>
      <trkpt lat="45.62712" lon="6.61888">
        <ele>2450</ele>
        <time>2022-07-16T10:19:39Z</time>
      </trkpt>
      <trkpt lat="45.62712" lon="6.61888">
        <ele>2450</ele>
        <time>2022-07-16T10:19:42Z</time>
      </trkpt>
      <trkpt lat="45.62713" lon="6.6189">
        <ele>2450</ele>
        <time>2022-07-16T10:19:43Z</time>
      </trkpt>
      <trkpt lat="45.62715" lon="6.61893">
        <ele>2451</ele>
        <time>2022-07-16T10:19:45Z</time>
      </trkpt>
      <trkpt lat="45.62716" lon="6.61895">
        <ele>2452</ele>
        <time>2022-07-16T10:19:47Z</time>
      </trkpt>
      <trkpt lat="45.62718" lon="6.61899">
        <ele>2452</ele>
        <time>2022-07-16T10:19:50Z</time>
      </trkpt>
      <trkpt lat="45.62719" lon="6.61902">
        <ele>2452</ele>
        <time>2022-07-16T10:19:53Z</time>
      </trkpt>
      <trkpt lat="45.62721" lon="6.61904">
        <ele>2453</ele>
        <time>2022-07-16T10:19:55Z</time>
      </trkpt>
      <trkpt lat="45.62722" lon="6.61906">
        <ele>2453</ele>
        <time>2022-07-16T10:19:58Z</time>
      </trkpt>
      <trkpt lat="45.62724" lon="6.61908">
        <ele>2453</ele>
        <time>2022-07-16T10:20:00Z</time>
      </trkpt>
      <trkpt lat="45.62726" lon="6.61911">
        <ele>2453</ele>
        <time>2022-07-16T10:20:03Z</time>
      </trkpt>
      <trkpt lat="45.62727" lon="6.61912">
        <ele>2454</ele>
        <time>2022-07-16T10:20:05Z</time>
      </trkpt>
      <trkpt lat="45.62729" lon="6.61914">
        <ele>2454</ele>
        <time>2022-07-16T10:20:07Z</time>
      </trkpt>
      <trkpt lat="45.62731" lon="6.61915">
        <ele>2454</ele>
        <time>2022-07-16T10:20:10Z</time>
      </trkpt>
      <trkpt lat="45.62733" lon="6.61916">
        <ele>2454</ele>
        <time>2022-07-16T10:20:11Z</time>
      </trkpt>
      <trkpt lat="45.62735" lon="6.61917">
        <ele>2454</ele>
        <time>2022-07-16T10:20:13Z</time>
      </trkpt>
      <trkpt lat="45.62736" lon="6.61918">
        <ele>2454</ele>
        <time>2022-07-16T10:20:16Z</time>
      </trkpt>
      <trkpt lat="45.62738" lon="6.61919">
        <ele>2454</ele>
        <time>2022-07-16T10:20:17Z</time>
      </trkpt>
      <trkpt lat="45.6274" lon="6.6192">
        <ele>2453</ele>
        <time>2022-07-16T10:20:19Z</time>
      </trkpt>
      <trkpt lat="45.62742" lon="6.61922">
        <ele>2452</ele>
        <time>2022-07-16T10:20:22Z</time>
      </trkpt>
      <trkpt lat="45.62744" lon="6.61923">
        <ele>2452</ele>
        <time>2022-07-16T10:20:23Z</time>
      </trkpt>
      <trkpt lat="45.62745" lon="6.61925">
        <ele>2451</ele>
        <time>2022-07-16T10:20:25Z</time>
      </trkpt>
      <trkpt lat="45.62747" lon="6.61927">
        <ele>2451</ele>
        <time>2022-07-16T10:20:29Z</time>
      </trkpt>
      <trkpt lat="45.6275" lon="6.61929">
        <ele>2451</ele>
        <time>2022-07-16T10:20:30Z</time>
      </trkpt>
      <trkpt lat="45.62752" lon="6.6193">
        <ele>2450</ele>
        <time>2022-07-16T10:20:33Z</time>
      </trkpt>
      <trkpt lat="45.62754" lon="6.61932">
        <ele>2449</ele>
        <time>2022-07-16T10:20:36Z</time>
      </trkpt>
      <trkpt lat="45.62756" lon="6.61933">
        <ele>2449</ele>
        <time>2022-07-16T10:20:37Z</time>
      </trkpt>
      <trkpt lat="45.62758" lon="6.61935">
        <ele>2448</ele>
        <time>2022-07-16T10:20:40Z</time>
      </trkpt>
      <trkpt lat="45.6276" lon="6.61938">
        <ele>2448</ele>
        <time>2022-07-16T10:20:41Z</time>
      </trkpt>
      <trkpt lat="45.62762" lon="6.61941">
        <ele>2448</ele>
        <time>2022-07-16T10:20:43Z</time>
      </trkpt>
      <trkpt lat="45.62764" lon="6.61944">
        <ele>2447</ele>
        <time>2022-07-16T10:20:45Z</time>
      </trkpt>
      <trkpt lat="45.62766" lon="6.61948">
        <ele>2446</ele>
        <time>2022-07-16T10:20:47Z</time>
      </trkpt>
      <trkpt lat="45.62768" lon="6.61951">
        <ele>2445</ele>
        <time>2022-07-16T10:20:50Z</time>
      </trkpt>
      <trkpt lat="45.6277" lon="6.61955">
        <ele>2445</ele>
        <time>2022-07-16T10:20:51Z</time>
      </trkpt>
      <trkpt lat="45.62773" lon="6.61958">
        <ele>2444</ele>
        <time>2022-07-16T10:20:54Z</time>
      </trkpt>
      <trkpt lat="45.62775" lon="6.61962">
        <ele>2444</ele>
        <time>2022-07-16T10:20:55Z</time>
      </trkpt>
      <trkpt lat="45.62776" lon="6.61964">
        <ele>2444</ele>
        <time>2022-07-16T10:20:57Z</time>
      </trkpt>
      <trkpt lat="45.62778" lon="6.61968">
        <ele>2444</ele>
        <time>2022-07-16T10:20:58Z</time>
      </trkpt>
      <trkpt lat="45.62779" lon="6.61972">
        <ele>2444</ele>
        <time>2022-07-16T10:21:00Z</time>
      </trkpt>
      <trkpt lat="45.62781" lon="6.61976">
        <ele>2443</ele>
        <time>2022-07-16T10:21:02Z</time>
      </trkpt>
      <trkpt lat="45.62782" lon="6.6198">
        <ele>2443</ele>
        <time>2022-07-16T10:21:04Z</time>
      </trkpt>
      <trkpt lat="45.62783" lon="6.61983">
        <ele>2443</ele>
        <time>2022-07-16T10:21:06Z</time>
      </trkpt>
      <trkpt lat="45.62784" lon="6.61986">
        <ele>2443</ele>
        <time>2022-07-16T10:21:08Z</time>
      </trkpt>
      <trkpt lat="45.62785" lon="6.6199">
        <ele>2444</ele>
        <time>2022-07-16T10:21:10Z</time>
      </trkpt>
      <trkpt lat="45.62786" lon="6.61993">
        <ele>2444</ele>
        <time>2022-07-16T10:21:13Z</time>
      </trkpt>
      <trkpt lat="45.62788" lon="6.61996">
        <ele>2444</ele>
        <time>2022-07-16T10:21:14Z</time>
      </trkpt>
      <trkpt lat="45.62788" lon="6.61999">
        <ele>2445</ele>
        <time>2022-07-16T10:21:18Z</time>
      </trkpt>
      <trkpt lat="45.62789" lon="6.62003">
        <ele>2445</ele>
        <time>2022-07-16T10:21:19Z</time>
      </trkpt>
      <trkpt lat="45.62791" lon="6.62008">
        <ele>2445</ele>
        <time>2022-07-16T10:21:21Z</time>
      </trkpt>
      <trkpt lat="45.62791" lon="6.62012">
        <ele>2445</ele>
        <time>2022-07-16T10:21:23Z</time>
      </trkpt>
      <trkpt lat="45.62791" lon="6.62015">
        <ele>2445</ele>
        <time>2022-07-16T10:21:25Z</time>
      </trkpt>
      <trkpt lat="45.62791" lon="6.62017">
        <ele>2445</ele>
        <time>2022-07-16T10:21:27Z</time>
      </trkpt>
      <trkpt lat="45.62792" lon="6.6202">
        <ele>2445</ele>
        <time>2022-07-16T10:21:30Z</time>
      </trkpt>
      <trkpt lat="45.62793" lon="6.62023">
        <ele>2445</ele>
        <time>2022-07-16T10:21:32Z</time>
      </trkpt>
      <trkpt lat="45.62793" lon="6.62026">
        <ele>2445</ele>
        <time>2022-07-16T10:21:33Z</time>
      </trkpt>
      <trkpt lat="45.62794" lon="6.62029">
        <ele>2445</ele>
        <time>2022-07-16T10:21:35Z</time>
      </trkpt>
      <trkpt lat="45.62794" lon="6.62032">
        <ele>2445</ele>
        <time>2022-07-16T10:21:37Z</time>
      </trkpt>
      <trkpt lat="45.62795" lon="6.62035">
        <ele>2445</ele>
        <time>2022-07-16T10:21:39Z</time>
      </trkpt>
      <trkpt lat="45.62796" lon="6.62039">
        <ele>2445</ele>
        <time>2022-07-16T10:21:42Z</time>
      </trkpt>
      <trkpt lat="45.62796" lon="6.62042">
        <ele>2445</ele>
        <time>2022-07-16T10:21:43Z</time>
      </trkpt>
      <trkpt lat="45.62797" lon="6.62045">
        <ele>2445</ele>
        <time>2022-07-16T10:21:46Z</time>
      </trkpt>
      <trkpt lat="45.62797" lon="6.62048">
        <ele>2446</ele>
        <time>2022-07-16T10:21:47Z</time>
      </trkpt>
      <trkpt lat="45.62796" lon="6.62051">
        <ele>2446</ele>
        <time>2022-07-16T10:21:49Z</time>
      </trkpt>
      <trkpt lat="45.62797" lon="6.62054">
        <ele>2446</ele>
        <time>2022-07-16T10:21:52Z</time>
      </trkpt>
      <trkpt lat="45.62797" lon="6.62057">
        <ele>2447</ele>
        <time>2022-07-16T10:21:53Z</time>
      </trkpt>
      <trkpt lat="45.62797" lon="6.62059">
        <ele>2447</ele>
        <time>2022-07-16T10:21:55Z</time>
      </trkpt>
      <trkpt lat="45.62797" lon="6.62063">
        <ele>2447</ele>
        <time>2022-07-16T10:21:58Z</time>
      </trkpt>
      <trkpt lat="45.62797" lon="6.62066">
        <ele>2448</ele>
        <time>2022-07-16T10:22:01Z</time>
      </trkpt>
      <trkpt lat="45.62797" lon="6.62069">
        <ele>2448</ele>
        <time>2022-07-16T10:22:04Z</time>
      </trkpt>
      <trkpt lat="45.62798" lon="6.62072">
        <ele>2448</ele>
        <time>2022-07-16T10:22:08Z</time>
      </trkpt>
      <trkpt lat="45.62798" lon="6.62075">
        <ele>2450</ele>
        <time>2022-07-16T10:22:11Z</time>
      </trkpt>
      <trkpt lat="45.62797" lon="6.62077">
        <ele>2450</ele>
        <time>2022-07-16T10:22:13Z</time>
      </trkpt>
      <trkpt lat="45.62796" lon="6.6208">
        <ele>2451</ele>
        <time>2022-07-16T10:22:15Z</time>
      </trkpt>
      <trkpt lat="45.62796" lon="6.62083">
        <ele>2450</ele>
        <time>2022-07-16T10:22:17Z</time>
      </trkpt>
      <trkpt lat="45.62795" lon="6.62086">
        <ele>2450</ele>
        <time>2022-07-16T10:22:20Z</time>
      </trkpt>
      <trkpt lat="45.62795" lon="6.6209">
        <ele>2450</ele>
        <time>2022-07-16T10:22:23Z</time>
      </trkpt>
      <trkpt lat="45.62796" lon="6.62092">
        <ele>2450</ele>
        <time>2022-07-16T10:22:25Z</time>
      </trkpt>
      <trkpt lat="45.62797" lon="6.62095">
        <ele>2450</ele>
        <time>2022-07-16T10:22:29Z</time>
      </trkpt>
      <trkpt lat="45.62798" lon="6.62098">
        <ele>2450</ele>
        <time>2022-07-16T10:22:30Z</time>
      </trkpt>
      <trkpt lat="45.62799" lon="6.62102">
        <ele>2450</ele>
        <time>2022-07-16T10:22:33Z</time>
      </trkpt>
      <trkpt lat="45.628" lon="6.62106">
        <ele>2450</ele>
        <time>2022-07-16T10:22:35Z</time>
      </trkpt>
      <trkpt lat="45.62802" lon="6.62109">
        <ele>2450</ele>
        <time>2022-07-16T10:22:37Z</time>
      </trkpt>
      <trkpt lat="45.62803" lon="6.62112">
        <ele>2449</ele>
        <time>2022-07-16T10:22:39Z</time>
      </trkpt>
      <trkpt lat="45.62805" lon="6.62115">
        <ele>2449</ele>
        <time>2022-07-16T10:22:41Z</time>
      </trkpt>
      <trkpt lat="45.62806" lon="6.62118">
        <ele>2449</ele>
        <time>2022-07-16T10:22:43Z</time>
      </trkpt>
      <trkpt lat="45.62808" lon="6.62121">
        <ele>2449</ele>
        <time>2022-07-16T10:22:45Z</time>
      </trkpt>
      <trkpt lat="45.62808" lon="6.62124">
        <ele>2449</ele>
        <time>2022-07-16T10:22:48Z</time>
      </trkpt>
      <trkpt lat="45.6281" lon="6.62127">
        <ele>2449</ele>
        <time>2022-07-16T10:22:49Z</time>
      </trkpt>
      <trkpt lat="45.62811" lon="6.6213">
        <ele>2449</ele>
        <time>2022-07-16T10:22:51Z</time>
      </trkpt>
      <trkpt lat="45.62812" lon="6.62134">
        <ele>2449</ele>
        <time>2022-07-16T10:22:53Z</time>
      </trkpt>
      <trkpt lat="45.62813" lon="6.62137">
        <ele>2449</ele>
        <time>2022-07-16T10:22:55Z</time>
      </trkpt>
      <trkpt lat="45.62813" lon="6.62141">
        <ele>2449</ele>
        <time>2022-07-16T10:22:57Z</time>
      </trkpt>
      <trkpt lat="45.62814" lon="6.62144">
        <ele>2449</ele>
        <time>2022-07-16T10:22:59Z</time>
      </trkpt>
      <trkpt lat="45.62815" lon="6.62146">
        <ele>2448</ele>
        <time>2022-07-16T10:23:01Z</time>
      </trkpt>
      <trkpt lat="45.62818" lon="6.62147">
        <ele>2448</ele>
        <time>2022-07-16T10:23:03Z</time>
      </trkpt>
      <trkpt lat="45.6282" lon="6.62148">
        <ele>2448</ele>
        <time>2022-07-16T10:23:05Z</time>
      </trkpt>
      <trkpt lat="45.62823" lon="6.6215">
        <ele>2448</ele>
        <time>2022-07-16T10:23:08Z</time>
      </trkpt>
      <trkpt lat="45.62825" lon="6.62152">
        <ele>2447</ele>
        <time>2022-07-16T10:23:09Z</time>
      </trkpt>
      <trkpt lat="45.62827" lon="6.62155">
        <ele>2447</ele>
        <time>2022-07-16T10:23:12Z</time>
      </trkpt>
      <trkpt lat="45.62829" lon="6.62158">
        <ele>2447</ele>
        <time>2022-07-16T10:23:13Z</time>
      </trkpt>
      <trkpt lat="45.6283" lon="6.6216">
        <ele>2448</ele>
        <time>2022-07-16T10:23:15Z</time>
      </trkpt>
      <trkpt lat="45.62832" lon="6.62163">
        <ele>2448</ele>
        <time>2022-07-16T10:23:17Z</time>
      </trkpt>
      <trkpt lat="45.62833" lon="6.62166">
        <ele>2448</ele>
        <time>2022-07-16T10:23:19Z</time>
      </trkpt>
      <trkpt lat="45.62834" lon="6.62169">
        <ele>2448</ele>
        <time>2022-07-16T10:23:21Z</time>
      </trkpt>
      <trkpt lat="45.62835" lon="6.62172">
        <ele>2448</ele>
        <time>2022-07-16T10:23:24Z</time>
      </trkpt>
      <trkpt lat="45.62836" lon="6.62176">
        <ele>2448</ele>
        <time>2022-07-16T10:23:26Z</time>
      </trkpt>
      <trkpt lat="45.62837" lon="6.62179">
        <ele>2448</ele>
        <time>2022-07-16T10:23:27Z</time>
      </trkpt>
      <trkpt lat="45.62838" lon="6.62181">
        <ele>2448</ele>
        <time>2022-07-16T10:23:29Z</time>
      </trkpt>
      <trkpt lat="45.62839" lon="6.62184">
        <ele>2448</ele>
        <time>2022-07-16T10:23:31Z</time>
      </trkpt>
      <trkpt lat="45.62841" lon="6.62186">
        <ele>2448</ele>
        <time>2022-07-16T10:23:33Z</time>
      </trkpt>
      <trkpt lat="45.62842" lon="6.62189">
        <ele>2448</ele>
        <time>2022-07-16T10:23:35Z</time>
      </trkpt>
      <trkpt lat="45.62843" lon="6.62192">
        <ele>2448</ele>
        <time>2022-07-16T10:23:37Z</time>
      </trkpt>
      <trkpt lat="45.62845" lon="6.62195">
        <ele>2448</ele>
        <time>2022-07-16T10:23:39Z</time>
      </trkpt>
      <trkpt lat="45.62846" lon="6.62198">
        <ele>2448</ele>
        <time>2022-07-16T10:23:41Z</time>
      </trkpt>
      <trkpt lat="45.62847" lon="6.622">
        <ele>2448</ele>
        <time>2022-07-16T10:23:43Z</time>
      </trkpt>
      <trkpt lat="45.62848" lon="6.62203">
        <ele>2448</ele>
        <time>2022-07-16T10:23:45Z</time>
      </trkpt>
      <trkpt lat="45.6285" lon="6.62205">
        <ele>2446</ele>
        <time>2022-07-16T10:23:48Z</time>
      </trkpt>
      <trkpt lat="45.62852" lon="6.62207">
        <ele>2445</ele>
        <time>2022-07-16T10:23:50Z</time>
      </trkpt>
      <trkpt lat="45.62853" lon="6.62209">
        <ele>2445</ele>
        <time>2022-07-16T10:23:51Z</time>
      </trkpt>
      <trkpt lat="45.62855" lon="6.62211">
        <ele>2445</ele>
        <time>2022-07-16T10:23:53Z</time>
      </trkpt>
      <trkpt lat="45.62856" lon="6.62214">
        <ele>2444</ele>
        <time>2022-07-16T10:23:56Z</time>
      </trkpt>
      <trkpt lat="45.62857" lon="6.62217">
        <ele>2444</ele>
        <time>2022-07-16T10:24:00Z</time>
      </trkpt>
      <trkpt lat="45.62859" lon="6.62219">
        <ele>2443</ele>
        <time>2022-07-16T10:24:04Z</time>
      </trkpt>
      <trkpt lat="45.62861" lon="6.62221">
        <ele>2442</ele>
        <time>2022-07-16T10:24:07Z</time>
      </trkpt>
      <trkpt lat="45.62862" lon="6.62223">
        <ele>2442</ele>
        <time>2022-07-16T10:24:09Z</time>
      </trkpt>
      <trkpt lat="45.62864" lon="6.62225">
        <ele>2441</ele>
        <time>2022-07-16T10:24:12Z</time>
      </trkpt>
      <trkpt lat="45.62866" lon="6.62227">
        <ele>2441</ele>
        <time>2022-07-16T10:24:14Z</time>
      </trkpt>
      <trkpt lat="45.62868" lon="6.62229">
        <ele>2441</ele>
        <time>2022-07-16T10:24:15Z</time>
      </trkpt>
      <trkpt lat="45.6287" lon="6.62231">
        <ele>2441</ele>
        <time>2022-07-16T10:24:17Z</time>
      </trkpt>
      <trkpt lat="45.62871" lon="6.62234">
        <ele>2441</ele>
        <time>2022-07-16T10:24:19Z</time>
      </trkpt>
      <trkpt lat="45.62873" lon="6.62236">
        <ele>2441</ele>
        <time>2022-07-16T10:24:21Z</time>
      </trkpt>
      <trkpt lat="45.62874" lon="6.62239">
        <ele>2441</ele>
        <time>2022-07-16T10:24:24Z</time>
      </trkpt>
      <trkpt lat="45.62875" lon="6.62243">
        <ele>2440</ele>
        <time>2022-07-16T10:24:25Z</time>
      </trkpt>
      <trkpt lat="45.62876" lon="6.62247">
        <ele>2440</ele>
        <time>2022-07-16T10:24:27Z</time>
      </trkpt>
      <trkpt lat="45.62876" lon="6.62251">
        <ele>2440</ele>
        <time>2022-07-16T10:24:29Z</time>
      </trkpt>
      <trkpt lat="45.62877" lon="6.62255">
        <ele>2441</ele>
        <time>2022-07-16T10:24:31Z</time>
      </trkpt>
      <trkpt lat="45.62878" lon="6.62259">
        <ele>2441</ele>
        <time>2022-07-16T10:24:34Z</time>
      </trkpt>
      <trkpt lat="45.62879" lon="6.62263">
        <ele>2440</ele>
        <time>2022-07-16T10:24:36Z</time>
      </trkpt>
      <trkpt lat="45.6288" lon="6.62267">
        <ele>2441</ele>
        <time>2022-07-16T10:24:37Z</time>
      </trkpt>
      <trkpt lat="45.62881" lon="6.6227">
        <ele>2441</ele>
        <time>2022-07-16T10:24:39Z</time>
      </trkpt>
      <trkpt lat="45.62882" lon="6.62274">
        <ele>2442</ele>
        <time>2022-07-16T10:24:43Z</time>
      </trkpt>
      <trkpt lat="45.62883" lon="6.62276">
        <ele>2443</ele>
        <time>2022-07-16T10:24:45Z</time>
      </trkpt>
      <trkpt lat="45.62884" lon="6.62279">
        <ele>2443</ele>
        <time>2022-07-16T10:24:48Z</time>
      </trkpt>
      <trkpt lat="45.62885" lon="6.62282">
        <ele>2443</ele>
        <time>2022-07-16T10:24:52Z</time>
      </trkpt>
      <trkpt lat="45.62887" lon="6.62285">
        <ele>2442</ele>
        <time>2022-07-16T10:24:54Z</time>
      </trkpt>
      <trkpt lat="45.62889" lon="6.62289">
        <ele>2442</ele>
        <time>2022-07-16T10:24:55Z</time>
      </trkpt>
      <trkpt lat="45.62891" lon="6.62292">
        <ele>2441</ele>
        <time>2022-07-16T10:24:58Z</time>
      </trkpt>
      <trkpt lat="45.62892" lon="6.62295">
        <ele>2442</ele>
        <time>2022-07-16T10:24:59Z</time>
      </trkpt>
      <trkpt lat="45.62893" lon="6.62297">
        <ele>2442</ele>
        <time>2022-07-16T10:25:02Z</time>
      </trkpt>
      <trkpt lat="45.62895" lon="6.62299">
        <ele>2441</ele>
        <time>2022-07-16T10:25:04Z</time>
      </trkpt>
      <trkpt lat="45.62896" lon="6.62302">
        <ele>2441</ele>
        <time>2022-07-16T10:25:05Z</time>
      </trkpt>
      <trkpt lat="45.62897" lon="6.62305">
        <ele>2442</ele>
        <time>2022-07-16T10:25:08Z</time>
      </trkpt>
      <trkpt lat="45.62898" lon="6.62308">
        <ele>2442</ele>
        <time>2022-07-16T10:25:09Z</time>
      </trkpt>
      <trkpt lat="45.62898" lon="6.6231">
        <ele>2442</ele>
        <time>2022-07-16T10:25:11Z</time>
      </trkpt>
      <trkpt lat="45.62898" lon="6.62313">
        <ele>2443</ele>
        <time>2022-07-16T10:25:14Z</time>
      </trkpt>
      <trkpt lat="45.62899" lon="6.62315">
        <ele>2443</ele>
        <time>2022-07-16T10:25:15Z</time>
      </trkpt>
      <trkpt lat="45.62901" lon="6.62318">
        <ele>2443</ele>
        <time>2022-07-16T10:25:17Z</time>
      </trkpt>
      <trkpt lat="45.62902" lon="6.62321">
        <ele>2443</ele>
        <time>2022-07-16T10:25:20Z</time>
      </trkpt>
      <trkpt lat="45.62904" lon="6.62323">
        <ele>2444</ele>
        <time>2022-07-16T10:25:21Z</time>
      </trkpt>
      <trkpt lat="45.62904" lon="6.62327">
        <ele>2444</ele>
        <time>2022-07-16T10:25:23Z</time>
      </trkpt>
      <trkpt lat="45.62905" lon="6.6233">
        <ele>2444</ele>
        <time>2022-07-16T10:25:25Z</time>
      </trkpt>
      <trkpt lat="45.62906" lon="6.62334">
        <ele>2444</ele>
        <time>2022-07-16T10:25:27Z</time>
      </trkpt>
      <trkpt lat="45.62906" lon="6.62339">
        <ele>2444</ele>
        <time>2022-07-16T10:25:29Z</time>
      </trkpt>
      <trkpt lat="45.62906" lon="6.62342">
        <ele>2444</ele>
        <time>2022-07-16T10:25:31Z</time>
      </trkpt>
      <trkpt lat="45.62907" lon="6.62347">
        <ele>2444</ele>
        <time>2022-07-16T10:25:33Z</time>
      </trkpt>
      <trkpt lat="45.62908" lon="6.62349">
        <ele>2444</ele>
        <time>2022-07-16T10:25:34Z</time>
      </trkpt>
      <trkpt lat="45.62909" lon="6.62353">
        <ele>2444</ele>
        <time>2022-07-16T10:25:35Z</time>
      </trkpt>
      <trkpt lat="45.6291" lon="6.62358">
        <ele>2444</ele>
        <time>2022-07-16T10:25:37Z</time>
      </trkpt>
      <trkpt lat="45.6291" lon="6.62361">
        <ele>2444</ele>
        <time>2022-07-16T10:25:39Z</time>
      </trkpt>
      <trkpt lat="45.62911" lon="6.62363">
        <ele>2444</ele>
        <time>2022-07-16T10:25:40Z</time>
      </trkpt>
      <trkpt lat="45.62911" lon="6.62371">
        <ele>2444</ele>
        <time>2022-07-16T10:25:42Z</time>
      </trkpt>
      <trkpt lat="45.62911" lon="6.62375">
        <ele>2445</ele>
        <time>2022-07-16T10:25:44Z</time>
      </trkpt>
      <trkpt lat="45.6291" lon="6.62381">
        <ele>2445</ele>
        <time>2022-07-16T10:25:46Z</time>
      </trkpt>
      <trkpt lat="45.6291" lon="6.62385">
        <ele>2445</ele>
        <time>2022-07-16T10:25:48Z</time>
      </trkpt>
      <trkpt lat="45.62911" lon="6.62388">
        <ele>2445</ele>
        <time>2022-07-16T10:25:49Z</time>
      </trkpt>
      <trkpt lat="45.62911" lon="6.62391">
        <ele>2445</ele>
        <time>2022-07-16T10:25:50Z</time>
      </trkpt>
      <trkpt lat="45.6291" lon="6.62396">
        <ele>2445</ele>
        <time>2022-07-16T10:25:53Z</time>
      </trkpt>
      <trkpt lat="45.62909" lon="6.624">
        <ele>2445</ele>
        <time>2022-07-16T10:25:54Z</time>
      </trkpt>
      <trkpt lat="45.62909" lon="6.62404">
        <ele>2445</ele>
        <time>2022-07-16T10:25:56Z</time>
      </trkpt>
      <trkpt lat="45.62909" lon="6.62408">
        <ele>2446</ele>
        <time>2022-07-16T10:25:59Z</time>
      </trkpt>
      <trkpt lat="45.62909" lon="6.62412">
        <ele>2446</ele>
        <time>2022-07-16T10:26:00Z</time>
      </trkpt>
      <trkpt lat="45.62909" lon="6.62415">
        <ele>2446</ele>
        <time>2022-07-16T10:26:02Z</time>
      </trkpt>
      <trkpt lat="45.6291" lon="6.62418">
        <ele>2446</ele>
        <time>2022-07-16T10:26:04Z</time>
      </trkpt>
      <trkpt lat="45.62912" lon="6.6242">
        <ele>2446</ele>
        <time>2022-07-16T10:26:06Z</time>
      </trkpt>
      <trkpt lat="45.62913" lon="6.62422">
        <ele>2446</ele>
        <time>2022-07-16T10:26:07Z</time>
      </trkpt>
      <trkpt lat="45.62915" lon="6.62424">
        <ele>2446</ele>
        <time>2022-07-16T10:26:08Z</time>
      </trkpt>
      <trkpt lat="45.62913" lon="6.62428">
        <ele>2446</ele>
        <time>2022-07-16T10:26:10Z</time>
      </trkpt>
      <trkpt lat="45.62912" lon="6.6243">
        <ele>2446</ele>
        <time>2022-07-16T10:26:11Z</time>
      </trkpt>
      <trkpt lat="45.62909" lon="6.62434">
        <ele>2446</ele>
        <time>2022-07-16T10:26:13Z</time>
      </trkpt>
      <trkpt lat="45.62907" lon="6.62438">
        <ele>2446</ele>
        <time>2022-07-16T10:26:15Z</time>
      </trkpt>
      <trkpt lat="45.62906" lon="6.62441">
        <ele>2446</ele>
        <time>2022-07-16T10:26:17Z</time>
      </trkpt>
      <trkpt lat="45.62904" lon="6.62443">
        <ele>2446</ele>
        <time>2022-07-16T10:26:19Z</time>
      </trkpt>
      <trkpt lat="45.62903" lon="6.62446">
        <ele>2446</ele>
        <time>2022-07-16T10:26:22Z</time>
      </trkpt>
      <trkpt lat="45.62902" lon="6.62449">
        <ele>2446</ele>
        <time>2022-07-16T10:26:23Z</time>
      </trkpt>
      <trkpt lat="45.62901" lon="6.62451">
        <ele>2446</ele>
        <time>2022-07-16T10:26:25Z</time>
      </trkpt>
      <trkpt lat="45.629" lon="6.62455">
        <ele>2447</ele>
        <time>2022-07-16T10:26:27Z</time>
      </trkpt>
      <trkpt lat="45.62899" lon="6.62457">
        <ele>2448</ele>
        <time>2022-07-16T10:26:29Z</time>
      </trkpt>
      <trkpt lat="45.62898" lon="6.6246">
        <ele>2448</ele>
        <time>2022-07-16T10:26:32Z</time>
      </trkpt>
      <trkpt lat="45.62898" lon="6.62463">
        <ele>2449</ele>
        <time>2022-07-16T10:26:34Z</time>
      </trkpt>
      <trkpt lat="45.62897" lon="6.62466">
        <ele>2449</ele>
        <time>2022-07-16T10:26:36Z</time>
      </trkpt>
      <trkpt lat="45.62897" lon="6.62469">
        <ele>2450</ele>
        <time>2022-07-16T10:26:39Z</time>
      </trkpt>
      <trkpt lat="45.62897" lon="6.62473">
        <ele>2450</ele>
        <time>2022-07-16T10:26:41Z</time>
      </trkpt>
      <trkpt lat="45.62897" lon="6.62476">
        <ele>2450</ele>
        <time>2022-07-16T10:26:43Z</time>
      </trkpt>
      <trkpt lat="45.62896" lon="6.62478">
        <ele>2450</ele>
        <time>2022-07-16T10:26:46Z</time>
      </trkpt>
      <trkpt lat="45.62895" lon="6.62481">
        <ele>2450</ele>
        <time>2022-07-16T10:26:48Z</time>
      </trkpt>
      <trkpt lat="45.62893" lon="6.62483">
        <ele>2451</ele>
        <time>2022-07-16T10:26:52Z</time>
      </trkpt>
      <trkpt lat="45.62892" lon="6.62486">
        <ele>2452</ele>
        <time>2022-07-16T10:26:54Z</time>
      </trkpt>
      <trkpt lat="45.62891" lon="6.62488">
        <ele>2452</ele>
        <time>2022-07-16T10:26:56Z</time>
      </trkpt>
      <trkpt lat="45.6289" lon="6.6249">
        <ele>2452</ele>
        <time>2022-07-16T10:26:58Z</time>
      </trkpt>
      <trkpt lat="45.62889" lon="6.62493">
        <ele>2453</ele>
        <time>2022-07-16T10:27:01Z</time>
      </trkpt>
      <trkpt lat="45.62888" lon="6.62495">
        <ele>2453</ele>
        <time>2022-07-16T10:27:03Z</time>
      </trkpt>
      <trkpt lat="45.62886" lon="6.62497">
        <ele>2453</ele>
        <time>2022-07-16T10:27:05Z</time>
      </trkpt>
      <trkpt lat="45.62885" lon="6.62501">
        <ele>2453</ele>
        <time>2022-07-16T10:27:08Z</time>
      </trkpt>
      <trkpt lat="45.62884" lon="6.62503">
        <ele>2454</ele>
        <time>2022-07-16T10:27:11Z</time>
      </trkpt>
      <trkpt lat="45.62883" lon="6.62506">
        <ele>2454</ele>
        <time>2022-07-16T10:27:14Z</time>
      </trkpt>
      <trkpt lat="45.62882" lon="6.62508">
        <ele>2454</ele>
        <time>2022-07-16T10:27:16Z</time>
      </trkpt>
      <trkpt lat="45.6288" lon="6.62511">
        <ele>2456</ele>
        <time>2022-07-16T10:27:19Z</time>
      </trkpt>
      <trkpt lat="45.62878" lon="6.62513">
        <ele>2456</ele>
        <time>2022-07-16T10:27:21Z</time>
      </trkpt>
      <trkpt lat="45.62877" lon="6.62516">
        <ele>2456</ele>
        <time>2022-07-16T10:27:24Z</time>
      </trkpt>
      <trkpt lat="45.62877" lon="6.62519">
        <ele>2457</ele>
        <time>2022-07-16T10:27:28Z</time>
      </trkpt>
      <trkpt lat="45.62877" lon="6.62522">
        <ele>2458</ele>
        <time>2022-07-16T10:27:31Z</time>
      </trkpt>
      <trkpt lat="45.62879" lon="6.62524">
        <ele>2459</ele>
        <time>2022-07-16T10:27:36Z</time>
      </trkpt>
      <trkpt lat="45.6288" lon="6.62523">
        <ele>2459</ele>
        <time>2022-07-16T10:27:38Z</time>
      </trkpt>
      <trkpt lat="45.62882" lon="6.62521">
        <ele>2459</ele>
        <time>2022-07-16T10:27:41Z</time>
      </trkpt>
      <trkpt lat="45.62884" lon="6.62521">
        <ele>2459</ele>
        <time>2022-07-16T10:27:42Z</time>
      </trkpt>
      <trkpt lat="45.62886" lon="6.62521">
        <ele>2460</ele>
        <time>2022-07-16T10:27:46Z</time>
      </trkpt>
      <trkpt lat="45.62888" lon="6.62521">
        <ele>2460</ele>
        <time>2022-07-16T10:27:47Z</time>
      </trkpt>
      <trkpt lat="45.6289" lon="6.6252">
        <ele>2460</ele>
        <time>2022-07-16T10:27:49Z</time>
      </trkpt>
      <trkpt lat="45.62892" lon="6.62519">
        <ele>2461</ele>
        <time>2022-07-16T10:27:53Z</time>
      </trkpt>
      <trkpt lat="45.62893" lon="6.62518">
        <ele>2462</ele>
        <time>2022-07-16T10:27:57Z</time>
      </trkpt>
      <trkpt lat="45.62896" lon="6.62518">
        <ele>2462</ele>
        <time>2022-07-16T10:28:00Z</time>
      </trkpt>
      <trkpt lat="45.62898" lon="6.62519">
        <ele>2463</ele>
        <time>2022-07-16T10:28:04Z</time>
      </trkpt>
      <trkpt lat="45.62901" lon="6.62519">
        <ele>2463</ele>
        <time>2022-07-16T10:28:06Z</time>
      </trkpt>
      <trkpt lat="45.62903" lon="6.62519">
        <ele>2463</ele>
        <time>2022-07-16T10:28:08Z</time>
      </trkpt>
      <trkpt lat="45.62905" lon="6.62519">
        <ele>2464</ele>
        <time>2022-07-16T10:28:11Z</time>
      </trkpt>
      <trkpt lat="45.62907" lon="6.6252">
        <ele>2464</ele>
        <time>2022-07-16T10:28:15Z</time>
      </trkpt>
      <trkpt lat="45.62909" lon="6.62521">
        <ele>2465</ele>
        <time>2022-07-16T10:28:17Z</time>
      </trkpt>
      <trkpt lat="45.6291" lon="6.62523">
        <ele>2466</ele>
        <time>2022-07-16T10:28:21Z</time>
      </trkpt>
      <trkpt lat="45.62912" lon="6.62525">
        <ele>2466</ele>
        <time>2022-07-16T10:28:26Z</time>
      </trkpt>
      <trkpt lat="45.62913" lon="6.62526">
        <ele>2468</ele>
        <time>2022-07-16T10:28:31Z</time>
      </trkpt>
      <trkpt lat="45.62916" lon="6.62527">
        <ele>2468</ele>
        <time>2022-07-16T10:28:34Z</time>
      </trkpt>
      <trkpt lat="45.62918" lon="6.62528">
        <ele>2468</ele>
        <time>2022-07-16T10:28:38Z</time>
      </trkpt>
      <trkpt lat="45.6292" lon="6.62529">
        <ele>2468</ele>
        <time>2022-07-16T10:28:40Z</time>
      </trkpt>
      <trkpt lat="45.62922" lon="6.62529">
        <ele>2469</ele>
        <time>2022-07-16T10:28:43Z</time>
      </trkpt>
      <trkpt lat="45.62925" lon="6.62529">
        <ele>2469</ele>
        <time>2022-07-16T10:28:45Z</time>
      </trkpt>
      <trkpt lat="45.62927" lon="6.62528">
        <ele>2470</ele>
        <time>2022-07-16T10:28:50Z</time>
      </trkpt>
      <trkpt lat="45.62929" lon="6.62526">
        <ele>2471</ele>
        <time>2022-07-16T10:28:53Z</time>
      </trkpt>
      <trkpt lat="45.6293" lon="6.62525">
        <ele>2471</ele>
        <time>2022-07-16T10:28:55Z</time>
      </trkpt>
      <trkpt lat="45.62932" lon="6.62525">
        <ele>2471</ele>
        <time>2022-07-16T10:28:59Z</time>
      </trkpt>
      <trkpt lat="45.62934" lon="6.62524">
        <ele>2472</ele>
        <time>2022-07-16T10:29:02Z</time>
      </trkpt>
      <trkpt lat="45.62936" lon="6.62523">
        <ele>2474</ele>
        <time>2022-07-16T10:29:05Z</time>
      </trkpt>
      <trkpt lat="45.62939" lon="6.62522">
        <ele>2474</ele>
        <time>2022-07-16T10:29:09Z</time>
      </trkpt>
      <trkpt lat="45.62941" lon="6.62522">
        <ele>2475</ele>
        <time>2022-07-16T10:29:11Z</time>
      </trkpt>
      <trkpt lat="45.62943" lon="6.62522">
        <ele>2476</ele>
        <time>2022-07-16T10:29:14Z</time>
      </trkpt>
      <trkpt lat="45.62945" lon="6.62522">
        <ele>2476</ele>
        <time>2022-07-16T10:29:16Z</time>
      </trkpt>
      <trkpt lat="45.62947" lon="6.62522">
        <ele>2477</ele>
        <time>2022-07-16T10:29:20Z</time>
      </trkpt>
      <trkpt lat="45.62949" lon="6.62521">
        <ele>2478</ele>
        <time>2022-07-16T10:29:25Z</time>
      </trkpt>
      <trkpt lat="45.62951" lon="6.6252">
        <ele>2478</ele>
        <time>2022-07-16T10:29:27Z</time>
      </trkpt>
      <trkpt lat="45.62952" lon="6.62518">
        <ele>2478</ele>
        <time>2022-07-16T10:29:30Z</time>
      </trkpt>
      <trkpt lat="45.62954" lon="6.62516">
        <ele>2478</ele>
        <time>2022-07-16T10:29:33Z</time>
      </trkpt>
      <trkpt lat="45.62956" lon="6.62514">
        <ele>2478</ele>
        <time>2022-07-16T10:29:36Z</time>
      </trkpt>
      <trkpt lat="45.62957" lon="6.62512">
        <ele>2479</ele>
        <time>2022-07-16T10:29:38Z</time>
      </trkpt>
      <trkpt lat="45.62959" lon="6.6251">
        <ele>2479</ele>
        <time>2022-07-16T10:29:42Z</time>
      </trkpt>
      <trkpt lat="45.6296" lon="6.62508">
        <ele>2480</ele>
        <time>2022-07-16T10:29:45Z</time>
      </trkpt>
      <trkpt lat="45.62963" lon="6.62507">
        <ele>2480</ele>
        <time>2022-07-16T10:29:47Z</time>
      </trkpt>
      <trkpt lat="45.62964" lon="6.62508">
        <ele>2481</ele>
        <time>2022-07-16T10:29:49Z</time>
      </trkpt>
      <trkpt lat="45.62964" lon="6.62512">
        <ele>2482</ele>
        <time>2022-07-16T10:29:54Z</time>
      </trkpt>
      <trkpt lat="45.62965" lon="6.62515">
        <ele>2483</ele>
        <time>2022-07-16T10:29:57Z</time>
      </trkpt>
      <trkpt lat="45.62965" lon="6.62518">
        <ele>2484</ele>
        <time>2022-07-16T10:30:00Z</time>
      </trkpt>
      <trkpt lat="45.62967" lon="6.62518">
        <ele>2484</ele>
        <time>2022-07-16T10:30:04Z</time>
      </trkpt>
      <trkpt lat="45.6297" lon="6.62517">
        <ele>2486</ele>
        <time>2022-07-16T10:30:07Z</time>
      </trkpt>
      <trkpt lat="45.62971" lon="6.62515">
        <ele>2486</ele>
        <time>2022-07-16T10:30:11Z</time>
      </trkpt>
      <trkpt lat="45.62973" lon="6.62515">
        <ele>2488</ele>
        <time>2022-07-16T10:30:17Z</time>
      </trkpt>
      <trkpt lat="45.62975" lon="6.62516">
        <ele>2489</ele>
        <time>2022-07-16T10:30:20Z</time>
      </trkpt>
      <trkpt lat="45.62975" lon="6.62519">
        <ele>2489</ele>
        <time>2022-07-16T10:30:24Z</time>
      </trkpt>
      <trkpt lat="45.62976" lon="6.62522">
        <ele>2489</ele>
        <time>2022-07-16T10:30:29Z</time>
      </trkpt>
      <trkpt lat="45.62978" lon="6.62522">
        <ele>2490</ele>
        <time>2022-07-16T10:30:31Z</time>
      </trkpt>
      <trkpt lat="45.6298" lon="6.62523">
        <ele>2491</ele>
        <time>2022-07-16T10:30:38Z</time>
      </trkpt>
      <trkpt lat="45.62981" lon="6.6252">
        <ele>2492</ele>
        <time>2022-07-16T10:30:44Z</time>
      </trkpt>
      <trkpt lat="45.62983" lon="6.62518">
        <ele>2493</ele>
        <time>2022-07-16T10:30:48Z</time>
      </trkpt>
      <trkpt lat="45.62985" lon="6.62517">
        <ele>2493</ele>
        <time>2022-07-16T10:30:51Z</time>
      </trkpt>
      <trkpt lat="45.62986" lon="6.62519">
        <ele>2495</ele>
        <time>2022-07-16T10:30:57Z</time>
      </trkpt>
      <trkpt lat="45.62986" lon="6.62522">
        <ele>2496</ele>
        <time>2022-07-16T10:31:04Z</time>
      </trkpt>
      <trkpt lat="45.62987" lon="6.62525">
        <ele>2498</ele>
        <time>2022-07-16T10:31:10Z</time>
      </trkpt>
      <trkpt lat="45.62987" lon="6.62527">
        <ele>2498</ele>
        <time>2022-07-16T10:31:12Z</time>
      </trkpt>
      <trkpt lat="45.62988" lon="6.62529">
        <ele>2498</ele>
        <time>2022-07-16T10:31:16Z</time>
      </trkpt>
      <trkpt lat="45.6299" lon="6.62531">
        <ele>2499</ele>
        <time>2022-07-16T10:31:21Z</time>
      </trkpt>
      <trkpt lat="45.62992" lon="6.62531">
        <ele>2501</ele>
        <time>2022-07-16T10:31:23Z</time>
      </trkpt>
      <trkpt lat="45.62994" lon="6.62532">
        <ele>2502</ele>
        <time>2022-07-16T10:31:29Z</time>
      </trkpt>
      <trkpt lat="45.62995" lon="6.62533">
        <ele>2503</ele>
        <time>2022-07-16T10:31:34Z</time>
      </trkpt>
      <trkpt lat="45.62995" lon="6.62533">
        <ele>2504</ele>
        <time>2022-07-16T10:31:40Z</time>
      </trkpt>
      <trkpt lat="45.62997" lon="6.62534">
        <ele>2504</ele>
        <time>2022-07-16T10:31:41Z</time>
      </trkpt>
      <trkpt lat="45.62999" lon="6.62533">
        <ele>2506</ele>
        <time>2022-07-16T10:31:48Z</time>
      </trkpt>
      <trkpt lat="45.62999" lon="6.62533">
        <ele>2506</ele>
        <time>2022-07-16T10:31:58Z</time>
      </trkpt>
      <trkpt lat="45.63001" lon="6.62533">
        <ele>2505</ele>
        <time>2022-07-16T10:32:09Z</time>
      </trkpt>
      <trkpt lat="45.63001" lon="6.62533">
        <ele>2505</ele>
        <time>2022-07-16T10:32:15Z</time>
      </trkpt>
      <trkpt lat="45.63003" lon="6.62532">
        <ele>2505</ele>
        <time>2022-07-16T10:32:30Z</time>
      </trkpt>
      <trkpt lat="45.63003" lon="6.62532">
        <ele>2505</ele>
        <time>2022-07-16T10:32:32Z</time>
      </trkpt>
      <trkpt lat="45.63005" lon="6.62532">
        <ele>2504</ele>
        <time>2022-07-16T10:32:33Z</time>
      </trkpt>
      <trkpt lat="45.63007" lon="6.62533">
        <ele>2503</ele>
        <time>2022-07-16T10:32:35Z</time>
      </trkpt>
      <trkpt lat="45.63008" lon="6.62536">
        <ele>2502</ele>
        <time>2022-07-16T10:32:38Z</time>
      </trkpt>
      <trkpt lat="45.63009" lon="6.62534">
        <ele>2501</ele>
        <time>2022-07-16T10:32:42Z</time>
      </trkpt>
      <trkpt lat="45.63011" lon="6.62533">
        <ele>2501</ele>
        <time>2022-07-16T10:32:45Z</time>
      </trkpt>
      <trkpt lat="45.63012" lon="6.62536">
        <ele>2499</ele>
        <time>2022-07-16T10:32:49Z</time>
      </trkpt>
      <trkpt lat="45.63012" lon="6.62539">
        <ele>2499</ele>
        <time>2022-07-16T10:32:52Z</time>
      </trkpt>
      <trkpt lat="45.63013" lon="6.62539">
        <ele>2498</ele>
        <time>2022-07-16T10:32:54Z</time>
      </trkpt>
      <trkpt lat="45.63014" lon="6.62539">
        <ele>2496</ele>
        <time>2022-07-16T10:32:56Z</time>
      </trkpt>
      <trkpt lat="45.63015" lon="6.62539">
        <ele>2496</ele>
        <time>2022-07-16T10:32:57Z</time>
      </trkpt>
      <trkpt lat="45.63016" lon="6.62539">
        <ele>2495</ele>
        <time>2022-07-16T10:32:58Z</time>
      </trkpt>
      <trkpt lat="45.63017" lon="6.62538">
        <ele>2494</ele>
        <time>2022-07-16T10:33:00Z</time>
      </trkpt>
      <trkpt lat="45.63018" lon="6.62538">
        <ele>2494</ele>
        <time>2022-07-16T10:33:01Z</time>
      </trkpt>
      <trkpt lat="45.63019" lon="6.62537">
        <ele>2494</ele>
        <time>2022-07-16T10:33:03Z</time>
      </trkpt>
      <trkpt lat="45.6302" lon="6.62536">
        <ele>2494</ele>
        <time>2022-07-16T10:33:05Z</time>
      </trkpt>
      <trkpt lat="45.63021" lon="6.62536">
        <ele>2494</ele>
        <time>2022-07-16T10:33:06Z</time>
      </trkpt>
      <trkpt lat="45.63022" lon="6.62538">
        <ele>2491</ele>
        <time>2022-07-16T10:33:09Z</time>
      </trkpt>
      <trkpt lat="45.63022" lon="6.62539">
        <ele>2491</ele>
        <time>2022-07-16T10:33:10Z</time>
      </trkpt>
      <trkpt lat="45.63023" lon="6.62539">
        <ele>2491</ele>
        <time>2022-07-16T10:33:11Z</time>
      </trkpt>
      <trkpt lat="45.63023" lon="6.6254">
        <ele>2491</ele>
        <time>2022-07-16T10:33:12Z</time>
      </trkpt>
      <trkpt lat="45.63023" lon="6.62541">
        <ele>2491</ele>
        <time>2022-07-16T10:33:13Z</time>
      </trkpt>
      <trkpt lat="45.63024" lon="6.62541">
        <ele>2490</ele>
        <time>2022-07-16T10:33:14Z</time>
      </trkpt>
      <trkpt lat="45.63024" lon="6.62542">
        <ele>2490</ele>
        <time>2022-07-16T10:33:15Z</time>
      </trkpt>
      <trkpt lat="45.63025" lon="6.62543">
        <ele>2489</ele>
        <time>2022-07-16T10:33:17Z</time>
      </trkpt>
      <trkpt lat="45.63025" lon="6.62544">
        <ele>2489</ele>
        <time>2022-07-16T10:33:18Z</time>
      </trkpt>
      <trkpt lat="45.63026" lon="6.62544">
        <ele>2489</ele>
        <time>2022-07-16T10:33:19Z</time>
      </trkpt>
      <trkpt lat="45.63028" lon="6.62542">
        <ele>2489</ele>
        <time>2022-07-16T10:33:20Z</time>
      </trkpt>
      <trkpt lat="45.63029" lon="6.62539">
        <ele>2487</ele>
        <time>2022-07-16T10:33:22Z</time>
      </trkpt>
      <trkpt lat="45.6303" lon="6.62539">
        <ele>2487</ele>
        <time>2022-07-16T10:33:25Z</time>
      </trkpt>
      <trkpt lat="45.63031" lon="6.62539">
        <ele>2486</ele>
        <time>2022-07-16T10:33:26Z</time>
      </trkpt>
      <trkpt lat="45.63032" lon="6.62538">
        <ele>2486</ele>
        <time>2022-07-16T10:33:27Z</time>
      </trkpt>
      <trkpt lat="45.63033" lon="6.62538">
        <ele>2486</ele>
        <time>2022-07-16T10:33:28Z</time>
      </trkpt>
      <trkpt lat="45.63034" lon="6.62538">
        <ele>2484</ele>
        <time>2022-07-16T10:33:29Z</time>
      </trkpt>
      <trkpt lat="45.63035" lon="6.62537">
        <ele>2484</ele>
        <time>2022-07-16T10:33:31Z</time>
      </trkpt>
      <trkpt lat="45.63036" lon="6.62537">
        <ele>2484</ele>
        <time>2022-07-16T10:33:32Z</time>
      </trkpt>
      <trkpt lat="45.63037" lon="6.62537">
        <ele>2483</ele>
        <time>2022-07-16T10:33:33Z</time>
      </trkpt>
      <trkpt lat="45.63038" lon="6.62537">
        <ele>2483</ele>
        <time>2022-07-16T10:33:34Z</time>
      </trkpt>
      <trkpt lat="45.63039" lon="6.62535">
        <ele>2482</ele>
        <time>2022-07-16T10:33:35Z</time>
      </trkpt>
      <trkpt lat="45.6304" lon="6.62533">
        <ele>2482</ele>
        <time>2022-07-16T10:33:36Z</time>
      </trkpt>
      <trkpt lat="45.6304" lon="6.62532">
        <ele>2481</ele>
        <time>2022-07-16T10:33:37Z</time>
      </trkpt>
      <trkpt lat="45.63041" lon="6.6253">
        <ele>2481</ele>
        <time>2022-07-16T10:33:38Z</time>
      </trkpt>
      <trkpt lat="45.63042" lon="6.62528">
        <ele>2481</ele>
        <time>2022-07-16T10:33:39Z</time>
      </trkpt>
      <trkpt lat="45.63043" lon="6.62526">
        <ele>2481</ele>
        <time>2022-07-16T10:33:40Z</time>
      </trkpt>
      <trkpt lat="45.63053" lon="6.62521">
        <ele>2479</ele>
        <time>2022-07-16T10:33:46Z</time>
      </trkpt>
      <trkpt lat="45.63056" lon="6.62519">
        <ele>2478</ele>
        <time>2022-07-16T10:33:52Z</time>
      </trkpt>
      <trkpt lat="45.63057" lon="6.6252">
        <ele>2477</ele>
        <time>2022-07-16T10:33:54Z</time>
      </trkpt>
      <trkpt lat="45.63058" lon="6.62521">
        <ele>2476</ele>
        <time>2022-07-16T10:33:55Z</time>
      </trkpt>
      <trkpt lat="45.63059" lon="6.62522">
        <ele>2476</ele>
        <time>2022-07-16T10:33:56Z</time>
      </trkpt>
      <trkpt lat="45.63059" lon="6.62523">
        <ele>2475</ele>
        <time>2022-07-16T10:33:57Z</time>
      </trkpt>
      <trkpt lat="45.63059" lon="6.62524">
        <ele>2475</ele>
        <time>2022-07-16T10:33:58Z</time>
      </trkpt>
      <trkpt lat="45.63059" lon="6.62525">
        <ele>2474</ele>
        <time>2022-07-16T10:33:59Z</time>
      </trkpt>
      <trkpt lat="45.63058" lon="6.62527">
        <ele>2474</ele>
        <time>2022-07-16T10:34:00Z</time>
      </trkpt>
      <trkpt lat="45.63058" lon="6.62528">
        <ele>2474</ele>
        <time>2022-07-16T10:34:01Z</time>
      </trkpt>
      <trkpt lat="45.63058" lon="6.6253">
        <ele>2474</ele>
        <time>2022-07-16T10:34:02Z</time>
      </trkpt>
      <trkpt lat="45.63057" lon="6.62531">
        <ele>2474</ele>
        <time>2022-07-16T10:34:03Z</time>
      </trkpt>
      <trkpt lat="45.63057" lon="6.62532">
        <ele>2472</ele>
        <time>2022-07-16T10:34:04Z</time>
      </trkpt>
      <trkpt lat="45.63057" lon="6.62534">
        <ele>2471</ele>
        <time>2022-07-16T10:34:05Z</time>
      </trkpt>
      <trkpt lat="45.63057" lon="6.62535">
        <ele>2471</ele>
        <time>2022-07-16T10:34:06Z</time>
      </trkpt>
      <trkpt lat="45.63057" lon="6.62536">
        <ele>2471</ele>
        <time>2022-07-16T10:34:07Z</time>
      </trkpt>
      <trkpt lat="45.63057" lon="6.62537">
        <ele>2471</ele>
        <time>2022-07-16T10:34:08Z</time>
      </trkpt>
      <trkpt lat="45.63057" lon="6.62538">
        <ele>2471</ele>
        <time>2022-07-16T10:34:09Z</time>
      </trkpt>
      <trkpt lat="45.63057" lon="6.62539">
        <ele>2471</ele>
        <time>2022-07-16T10:34:10Z</time>
      </trkpt>
      <trkpt lat="45.63057" lon="6.6254">
        <ele>2469</ele>
        <time>2022-07-16T10:34:13Z</time>
      </trkpt>
      <trkpt lat="45.63057" lon="6.62541">
        <ele>2469</ele>
        <time>2022-07-16T10:34:14Z</time>
      </trkpt>
      <trkpt lat="45.63057" lon="6.62542">
        <ele>2469</ele>
        <time>2022-07-16T10:34:15Z</time>
      </trkpt>
      <trkpt lat="45.63057" lon="6.62543">
        <ele>2469</ele>
        <time>2022-07-16T10:34:16Z</time>
      </trkpt>
      <trkpt lat="45.63057" lon="6.62544">
        <ele>2469</ele>
        <time>2022-07-16T10:34:17Z</time>
      </trkpt>
      <trkpt lat="45.63057" lon="6.62545">
        <ele>2469</ele>
        <time>2022-07-16T10:34:18Z</time>
      </trkpt>
      <trkpt lat="45.63057" lon="6.62546">
        <ele>2468</ele>
        <time>2022-07-16T10:34:20Z</time>
      </trkpt>
      <trkpt lat="45.63057" lon="6.62547">
        <ele>2468</ele>
        <time>2022-07-16T10:34:21Z</time>
      </trkpt>
      <trkpt lat="45.63057" lon="6.62548">
        <ele>2467</ele>
        <time>2022-07-16T10:34:22Z</time>
      </trkpt>
      <trkpt lat="45.63057" lon="6.62549">
        <ele>2467</ele>
        <time>2022-07-16T10:34:23Z</time>
      </trkpt>
      <trkpt lat="45.63057" lon="6.6255">
        <ele>2467</ele>
        <time>2022-07-16T10:34:24Z</time>
      </trkpt>
      <trkpt lat="45.63057" lon="6.62552">
        <ele>2466</ele>
        <time>2022-07-16T10:34:25Z</time>
      </trkpt>
      <trkpt lat="45.63058" lon="6.62554">
        <ele>2466</ele>
        <time>2022-07-16T10:34:26Z</time>
      </trkpt>
      <trkpt lat="45.63058" lon="6.62556">
        <ele>2466</ele>
        <time>2022-07-16T10:34:27Z</time>
      </trkpt>
      <trkpt lat="45.63058" lon="6.62558">
        <ele>2465</ele>
        <time>2022-07-16T10:34:28Z</time>
      </trkpt>
      <trkpt lat="45.63058" lon="6.6256">
        <ele>2464</ele>
        <time>2022-07-16T10:34:29Z</time>
      </trkpt>
      <trkpt lat="45.63058" lon="6.62562">
        <ele>2464</ele>
        <time>2022-07-16T10:34:31Z</time>
      </trkpt>
      <trkpt lat="45.63058" lon="6.62564">
        <ele>2462</ele>
        <time>2022-07-16T10:34:32Z</time>
      </trkpt>
      <trkpt lat="45.63059" lon="6.62565">
        <ele>2461</ele>
        <time>2022-07-16T10:34:33Z</time>
      </trkpt>
      <trkpt lat="45.6306" lon="6.62566">
        <ele>2461</ele>
        <time>2022-07-16T10:34:34Z</time>
      </trkpt>
      <trkpt lat="45.63061" lon="6.62568">
        <ele>2461</ele>
        <time>2022-07-16T10:34:35Z</time>
      </trkpt>
      <trkpt lat="45.63062" lon="6.62569">
        <ele>2461</ele>
        <time>2022-07-16T10:34:36Z</time>
      </trkpt>
      <trkpt lat="45.63063" lon="6.6257">
        <ele>2461</ele>
        <time>2022-07-16T10:34:37Z</time>
      </trkpt>
      <trkpt lat="45.63064" lon="6.62571">
        <ele>2461</ele>
        <time>2022-07-16T10:34:38Z</time>
      </trkpt>
      <trkpt lat="45.63064" lon="6.62573">
        <ele>2461</ele>
        <time>2022-07-16T10:34:39Z</time>
      </trkpt>
      <trkpt lat="45.63065" lon="6.62574">
        <ele>2460</ele>
        <time>2022-07-16T10:34:40Z</time>
      </trkpt>
      <trkpt lat="45.63072" lon="6.62583">
        <ele>2457</ele>
        <time>2022-07-16T10:34:50Z</time>
      </trkpt>
      <trkpt lat="45.63073" lon="6.62584">
        <ele>2454</ele>
        <time>2022-07-16T10:34:51Z</time>
      </trkpt>
      <trkpt lat="45.63073" lon="6.62585">
        <ele>2453</ele>
        <time>2022-07-16T10:34:52Z</time>
      </trkpt>
      <trkpt lat="45.63074" lon="6.62586">
        <ele>2453</ele>
        <time>2022-07-16T10:34:53Z</time>
      </trkpt>
      <trkpt lat="45.63074" lon="6.62587">
        <ele>2453</ele>
        <time>2022-07-16T10:34:54Z</time>
      </trkpt>
      <trkpt lat="45.63075" lon="6.62587">
        <ele>2453</ele>
        <time>2022-07-16T10:34:55Z</time>
      </trkpt>
      <trkpt lat="45.63076" lon="6.62588">
        <ele>2453</ele>
        <time>2022-07-16T10:34:56Z</time>
      </trkpt>
      <trkpt lat="45.63076" lon="6.62589">
        <ele>2452</ele>
        <time>2022-07-16T10:34:57Z</time>
      </trkpt>
      <trkpt lat="45.63077" lon="6.6259">
        <ele>2451</ele>
        <time>2022-07-16T10:34:58Z</time>
      </trkpt>
      <trkpt lat="45.63077" lon="6.62591">
        <ele>2451</ele>
        <time>2022-07-16T10:34:59Z</time>
      </trkpt>
      <trkpt lat="45.63078" lon="6.62592">
        <ele>2450</ele>
        <time>2022-07-16T10:35:00Z</time>
      </trkpt>
      <trkpt lat="45.63079" lon="6.62594">
        <ele>2450</ele>
        <time>2022-07-16T10:35:01Z</time>
      </trkpt>
      <trkpt lat="45.63079" lon="6.62595">
        <ele>2450</ele>
        <time>2022-07-16T10:35:02Z</time>
      </trkpt>
      <trkpt lat="45.63079" lon="6.62597">
        <ele>2450</ele>
        <time>2022-07-16T10:35:03Z</time>
      </trkpt>
      <trkpt lat="45.6308" lon="6.62598">
        <ele>2449</ele>
        <time>2022-07-16T10:35:04Z</time>
      </trkpt>
      <trkpt lat="45.6308" lon="6.626">
        <ele>2449</ele>
        <time>2022-07-16T10:35:05Z</time>
      </trkpt>
      <trkpt lat="45.63081" lon="6.62601">
        <ele>2449</ele>
        <time>2022-07-16T10:35:06Z</time>
      </trkpt>
      <trkpt lat="45.63081" lon="6.62603">
        <ele>2449</ele>
        <time>2022-07-16T10:35:07Z</time>
      </trkpt>
      <trkpt lat="45.63082" lon="6.62604">
        <ele>2448</ele>
        <time>2022-07-16T10:35:08Z</time>
      </trkpt>
      <trkpt lat="45.63085" lon="6.62617">
        <ele>2445</ele>
        <time>2022-07-16T10:35:16Z</time>
      </trkpt>
      <trkpt lat="45.63089" lon="6.62631">
        <ele>2442</ele>
        <time>2022-07-16T10:35:21Z</time>
      </trkpt>
      <trkpt lat="45.6309" lon="6.62635">
        <ele>2442</ele>
        <time>2022-07-16T10:35:24Z</time>
      </trkpt>
      <trkpt lat="45.63091" lon="6.62638">
        <ele>2442</ele>
        <time>2022-07-16T10:35:25Z</time>
      </trkpt>
      <trkpt lat="45.63091" lon="6.62642">
        <ele>2442</ele>
        <time>2022-07-16T10:35:26Z</time>
      </trkpt>
      <trkpt lat="45.63092" lon="6.62645">
        <ele>2442</ele>
        <time>2022-07-16T10:35:27Z</time>
      </trkpt>
      <trkpt lat="45.63093" lon="6.62648">
        <ele>2442</ele>
        <time>2022-07-16T10:35:28Z</time>
      </trkpt>
      <trkpt lat="45.63093" lon="6.6265">
        <ele>2441</ele>
        <time>2022-07-16T10:35:29Z</time>
      </trkpt>
      <trkpt lat="45.63093" lon="6.62652">
        <ele>2440</ele>
        <time>2022-07-16T10:35:30Z</time>
      </trkpt>
      <trkpt lat="45.63094" lon="6.62654">
        <ele>2441</ele>
        <time>2022-07-16T10:35:31Z</time>
      </trkpt>
      <trkpt lat="45.63094" lon="6.62657">
        <ele>2441</ele>
        <time>2022-07-16T10:35:32Z</time>
      </trkpt>
      <trkpt lat="45.63095" lon="6.62659">
        <ele>2441</ele>
        <time>2022-07-16T10:35:33Z</time>
      </trkpt>
      <trkpt lat="45.63095" lon="6.62661">
        <ele>2441</ele>
        <time>2022-07-16T10:35:34Z</time>
      </trkpt>
      <trkpt lat="45.63096" lon="6.62663">
        <ele>2441</ele>
        <time>2022-07-16T10:35:35Z</time>
      </trkpt>
      <trkpt lat="45.63096" lon="6.62665">
        <ele>2441</ele>
        <time>2022-07-16T10:35:36Z</time>
      </trkpt>
      <trkpt lat="45.63096" lon="6.62667">
        <ele>2441</ele>
        <time>2022-07-16T10:35:37Z</time>
      </trkpt>
      <trkpt lat="45.63097" lon="6.6267">
        <ele>2441</ele>
        <time>2022-07-16T10:35:38Z</time>
      </trkpt>
      <trkpt lat="45.63097" lon="6.62672">
        <ele>2440</ele>
        <time>2022-07-16T10:35:39Z</time>
      </trkpt>
      <trkpt lat="45.63097" lon="6.62674">
        <ele>2440</ele>
        <time>2022-07-16T10:35:40Z</time>
      </trkpt>
      <trkpt lat="45.63097" lon="6.62676">
        <ele>2440</ele>
        <time>2022-07-16T10:35:41Z</time>
      </trkpt>
      <trkpt lat="45.63098" lon="6.62679">
        <ele>2439</ele>
        <time>2022-07-16T10:35:42Z</time>
      </trkpt>
      <trkpt lat="45.63098" lon="6.62681">
        <ele>2439</ele>
        <time>2022-07-16T10:35:43Z</time>
      </trkpt>
      <trkpt lat="45.63098" lon="6.62684">
        <ele>2439</ele>
        <time>2022-07-16T10:35:44Z</time>
      </trkpt>
      <trkpt lat="45.63098" lon="6.62686">
        <ele>2439</ele>
        <time>2022-07-16T10:35:45Z</time>
      </trkpt>
      <trkpt lat="45.63098" lon="6.62689">
        <ele>2439</ele>
        <time>2022-07-16T10:35:47Z</time>
      </trkpt>
      <trkpt lat="45.63098" lon="6.62692">
        <ele>2440</ele>
        <time>2022-07-16T10:35:48Z</time>
      </trkpt>
      <trkpt lat="45.63099" lon="6.62695">
        <ele>2440</ele>
        <time>2022-07-16T10:35:49Z</time>
      </trkpt>
      <trkpt lat="45.63099" lon="6.62697">
        <ele>2440</ele>
        <time>2022-07-16T10:35:50Z</time>
      </trkpt>
      <trkpt lat="45.63099" lon="6.627">
        <ele>2440</ele>
        <time>2022-07-16T10:35:51Z</time>
      </trkpt>
      <trkpt lat="45.631" lon="6.62702">
        <ele>2440</ele>
        <time>2022-07-16T10:35:52Z</time>
      </trkpt>
      <trkpt lat="45.631" lon="6.62704">
        <ele>2440</ele>
        <time>2022-07-16T10:35:53Z</time>
      </trkpt>
      <trkpt lat="45.63101" lon="6.62706">
        <ele>2440</ele>
        <time>2022-07-16T10:35:54Z</time>
      </trkpt>
      <trkpt lat="45.63101" lon="6.62708">
        <ele>2440</ele>
        <time>2022-07-16T10:35:55Z</time>
      </trkpt>
      <trkpt lat="45.63102" lon="6.6271">
        <ele>2440</ele>
        <time>2022-07-16T10:35:56Z</time>
      </trkpt>
      <trkpt lat="45.63102" lon="6.62712">
        <ele>2440</ele>
        <time>2022-07-16T10:35:57Z</time>
      </trkpt>
      <trkpt lat="45.63103" lon="6.62713">
        <ele>2440</ele>
        <time>2022-07-16T10:35:58Z</time>
      </trkpt>
      <trkpt lat="45.63103" lon="6.62715">
        <ele>2440</ele>
        <time>2022-07-16T10:35:59Z</time>
      </trkpt>
      <trkpt lat="45.63103" lon="6.62717">
        <ele>2440</ele>
        <time>2022-07-16T10:36:00Z</time>
      </trkpt>
      <trkpt lat="45.63104" lon="6.62719">
        <ele>2440</ele>
        <time>2022-07-16T10:36:01Z</time>
      </trkpt>
      <trkpt lat="45.63104" lon="6.6272">
        <ele>2440</ele>
        <time>2022-07-16T10:36:02Z</time>
      </trkpt>
      <trkpt lat="45.63104" lon="6.62722">
        <ele>2439</ele>
        <time>2022-07-16T10:36:03Z</time>
      </trkpt>
      <trkpt lat="45.63105" lon="6.62724">
        <ele>2439</ele>
        <time>2022-07-16T10:36:04Z</time>
      </trkpt>
      <trkpt lat="45.63105" lon="6.62725">
        <ele>2440</ele>
        <time>2022-07-16T10:36:05Z</time>
      </trkpt>
      <trkpt lat="45.63105" lon="6.62727">
        <ele>2440</ele>
        <time>2022-07-16T10:36:06Z</time>
      </trkpt>
      <trkpt lat="45.63106" lon="6.62729">
        <ele>2440</ele>
        <time>2022-07-16T10:36:07Z</time>
      </trkpt>
      <trkpt lat="45.63107" lon="6.6273">
        <ele>2440</ele>
        <time>2022-07-16T10:36:08Z</time>
      </trkpt>
      <trkpt lat="45.63107" lon="6.62732">
        <ele>2440</ele>
        <time>2022-07-16T10:36:09Z</time>
      </trkpt>
      <trkpt lat="45.63108" lon="6.62733">
        <ele>2440</ele>
        <time>2022-07-16T10:36:10Z</time>
      </trkpt>
      <trkpt lat="45.63109" lon="6.62735">
        <ele>2440</ele>
        <time>2022-07-16T10:36:11Z</time>
      </trkpt>
      <trkpt lat="45.63109" lon="6.62736">
        <ele>2440</ele>
        <time>2022-07-16T10:36:12Z</time>
      </trkpt>
      <trkpt lat="45.6311" lon="6.62738">
        <ele>2440</ele>
        <time>2022-07-16T10:36:13Z</time>
      </trkpt>
      <trkpt lat="45.63111" lon="6.6274">
        <ele>2440</ele>
        <time>2022-07-16T10:36:14Z</time>
      </trkpt>
      <trkpt lat="45.63111" lon="6.62742">
        <ele>2440</ele>
        <time>2022-07-16T10:36:15Z</time>
      </trkpt>
      <trkpt lat="45.63112" lon="6.62744">
        <ele>2439</ele>
        <time>2022-07-16T10:36:16Z</time>
      </trkpt>
      <trkpt lat="45.63113" lon="6.62746">
        <ele>2439</ele>
        <time>2022-07-16T10:36:17Z</time>
      </trkpt>
      <trkpt lat="45.63114" lon="6.62748">
        <ele>2439</ele>
        <time>2022-07-16T10:36:18Z</time>
      </trkpt>
      <trkpt lat="45.63114" lon="6.6275">
        <ele>2438</ele>
        <time>2022-07-16T10:36:19Z</time>
      </trkpt>
      <trkpt lat="45.63115" lon="6.62752">
        <ele>2438</ele>
        <time>2022-07-16T10:36:20Z</time>
      </trkpt>
      <trkpt lat="45.63116" lon="6.62754">
        <ele>2438</ele>
        <time>2022-07-16T10:36:21Z</time>
      </trkpt>
      <trkpt lat="45.63116" lon="6.62756">
        <ele>2438</ele>
        <time>2022-07-16T10:36:22Z</time>
      </trkpt>
      <trkpt lat="45.63117" lon="6.62759">
        <ele>2438</ele>
        <time>2022-07-16T10:36:23Z</time>
      </trkpt>
      <trkpt lat="45.63118" lon="6.62761">
        <ele>2438</ele>
        <time>2022-07-16T10:36:25Z</time>
      </trkpt>
      <trkpt lat="45.63118" lon="6.62763">
        <ele>2438</ele>
        <time>2022-07-16T10:36:26Z</time>
      </trkpt>
      <trkpt lat="45.63119" lon="6.62764">
        <ele>2438</ele>
        <time>2022-07-16T10:36:27Z</time>
      </trkpt>
      <trkpt lat="45.6312" lon="6.62766">
        <ele>2438</ele>
        <time>2022-07-16T10:36:28Z</time>
      </trkpt>
      <trkpt lat="45.6312" lon="6.62768">
        <ele>2438</ele>
        <time>2022-07-16T10:36:29Z</time>
      </trkpt>
      <trkpt lat="45.63121" lon="6.62769">
        <ele>2438</ele>
        <time>2022-07-16T10:36:30Z</time>
      </trkpt>
      <trkpt lat="45.63122" lon="6.62771">
        <ele>2438</ele>
        <time>2022-07-16T10:36:31Z</time>
      </trkpt>
      <trkpt lat="45.63122" lon="6.62772">
        <ele>2438</ele>
        <time>2022-07-16T10:36:32Z</time>
      </trkpt>
      <trkpt lat="45.63123" lon="6.62774">
        <ele>2438</ele>
        <time>2022-07-16T10:36:33Z</time>
      </trkpt>
      <trkpt lat="45.63123" lon="6.62775">
        <ele>2438</ele>
        <time>2022-07-16T10:36:34Z</time>
      </trkpt>
      <trkpt lat="45.63124" lon="6.62777">
        <ele>2438</ele>
        <time>2022-07-16T10:36:35Z</time>
      </trkpt>
      <trkpt lat="45.63124" lon="6.62779">
        <ele>2438</ele>
        <time>2022-07-16T10:36:36Z</time>
      </trkpt>
      <trkpt lat="45.63124" lon="6.6278">
        <ele>2438</ele>
        <time>2022-07-16T10:36:37Z</time>
      </trkpt>
      <trkpt lat="45.63125" lon="6.62782">
        <ele>2437</ele>
        <time>2022-07-16T10:36:38Z</time>
      </trkpt>
      <trkpt lat="45.63125" lon="6.62783">
        <ele>2438</ele>
        <time>2022-07-16T10:36:39Z</time>
      </trkpt>
      <trkpt lat="45.63125" lon="6.62785">
        <ele>2438</ele>
        <time>2022-07-16T10:36:40Z</time>
      </trkpt>
      <trkpt lat="45.63125" lon="6.62787">
        <ele>2438</ele>
        <time>2022-07-16T10:36:41Z</time>
      </trkpt>
      <trkpt lat="45.63126" lon="6.62788">
        <ele>2438</ele>
        <time>2022-07-16T10:36:42Z</time>
      </trkpt>
      <trkpt lat="45.63126" lon="6.6279">
        <ele>2438</ele>
        <time>2022-07-16T10:36:43Z</time>
      </trkpt>
      <trkpt lat="45.63127" lon="6.62792">
        <ele>2438</ele>
        <time>2022-07-16T10:36:44Z</time>
      </trkpt>
      <trkpt lat="45.63128" lon="6.62793">
        <ele>2437</ele>
        <time>2022-07-16T10:36:45Z</time>
      </trkpt>
      <trkpt lat="45.63128" lon="6.62795">
        <ele>2437</ele>
        <time>2022-07-16T10:36:46Z</time>
      </trkpt>
      <trkpt lat="45.63129" lon="6.62797">
        <ele>2437</ele>
        <time>2022-07-16T10:36:47Z</time>
      </trkpt>
      <trkpt lat="45.63131" lon="6.628">
        <ele>2437</ele>
        <time>2022-07-16T10:36:48Z</time>
      </trkpt>
      <trkpt lat="45.63132" lon="6.62803">
        <ele>2437</ele>
        <time>2022-07-16T10:36:50Z</time>
      </trkpt>
      <trkpt lat="45.63134" lon="6.62806">
        <ele>2437</ele>
        <time>2022-07-16T10:36:53Z</time>
      </trkpt>
      <trkpt lat="45.63135" lon="6.6281">
        <ele>2437</ele>
        <time>2022-07-16T10:36:54Z</time>
      </trkpt>
      <trkpt lat="45.63137" lon="6.62813">
        <ele>2437</ele>
        <time>2022-07-16T10:36:56Z</time>
      </trkpt>
      <trkpt lat="45.63138" lon="6.62817">
        <ele>2437</ele>
        <time>2022-07-16T10:36:58Z</time>
      </trkpt>
      <trkpt lat="45.6314" lon="6.6282">
        <ele>2437</ele>
        <time>2022-07-16T10:37:00Z</time>
      </trkpt>
      <trkpt lat="45.63141" lon="6.62822">
        <ele>2437</ele>
        <time>2022-07-16T10:37:02Z</time>
      </trkpt>
      <trkpt lat="45.63143" lon="6.62825">
        <ele>2437</ele>
        <time>2022-07-16T10:37:04Z</time>
      </trkpt>
      <trkpt lat="45.63143" lon="6.62828">
        <ele>2437</ele>
        <time>2022-07-16T10:37:07Z</time>
      </trkpt>
      <trkpt lat="45.63144" lon="6.62832">
        <ele>2437</ele>
        <time>2022-07-16T10:37:09Z</time>
      </trkpt>
      <trkpt lat="45.63145" lon="6.62834">
        <ele>2437</ele>
        <time>2022-07-16T10:37:11Z</time>
      </trkpt>
      <trkpt lat="45.63146" lon="6.62837">
        <ele>2437</ele>
        <time>2022-07-16T10:37:13Z</time>
      </trkpt>
      <trkpt lat="45.63148" lon="6.6284">
        <ele>2437</ele>
        <time>2022-07-16T10:37:16Z</time>
      </trkpt>
      <trkpt lat="45.63148" lon="6.62842">
        <ele>2437</ele>
        <time>2022-07-16T10:37:18Z</time>
      </trkpt>
      <trkpt lat="45.63149" lon="6.62844">
        <ele>2437</ele>
        <time>2022-07-16T10:37:21Z</time>
      </trkpt>
      <trkpt lat="45.6315" lon="6.62847">
        <ele>2437</ele>
        <time>2022-07-16T10:37:22Z</time>
      </trkpt>
      <trkpt lat="45.6315" lon="6.6285">
        <ele>2437</ele>
        <time>2022-07-16T10:37:25Z</time>
      </trkpt>
      <trkpt lat="45.6315" lon="6.62853">
        <ele>2437</ele>
        <time>2022-07-16T10:37:27Z</time>
      </trkpt>
      <trkpt lat="45.63152" lon="6.62855">
        <ele>2437</ele>
        <time>2022-07-16T10:37:29Z</time>
      </trkpt>
      <trkpt lat="45.63153" lon="6.62858">
        <ele>2437</ele>
        <time>2022-07-16T10:37:31Z</time>
      </trkpt>
      <trkpt lat="45.63152" lon="6.62861">
        <ele>2438</ele>
        <time>2022-07-16T10:37:33Z</time>
      </trkpt>
      <trkpt lat="45.63153" lon="6.62864">
        <ele>2438</ele>
        <time>2022-07-16T10:37:35Z</time>
      </trkpt>
      <trkpt lat="45.63153" lon="6.62866">
        <ele>2438</ele>
        <time>2022-07-16T10:37:37Z</time>
      </trkpt>
      <trkpt lat="45.63155" lon="6.6287">
        <ele>2438</ele>
        <time>2022-07-16T10:37:39Z</time>
      </trkpt>
      <trkpt lat="45.63156" lon="6.62873">
        <ele>2438</ele>
        <time>2022-07-16T10:37:42Z</time>
      </trkpt>
      <trkpt lat="45.63157" lon="6.62875">
        <ele>2438</ele>
        <time>2022-07-16T10:37:44Z</time>
      </trkpt>
      <trkpt lat="45.63159" lon="6.62877">
        <ele>2438</ele>
        <time>2022-07-16T10:37:45Z</time>
      </trkpt>
      <trkpt lat="45.6316" lon="6.6288">
        <ele>2438</ele>
        <time>2022-07-16T10:37:47Z</time>
      </trkpt>
      <trkpt lat="45.63162" lon="6.62882">
        <ele>2438</ele>
        <time>2022-07-16T10:37:49Z</time>
      </trkpt>
      <trkpt lat="45.63163" lon="6.62885">
        <ele>2439</ele>
        <time>2022-07-16T10:37:51Z</time>
      </trkpt>
      <trkpt lat="45.63164" lon="6.62887">
        <ele>2439</ele>
        <time>2022-07-16T10:37:54Z</time>
      </trkpt>
      <trkpt lat="45.63165" lon="6.6289">
        <ele>2439</ele>
        <time>2022-07-16T10:37:55Z</time>
      </trkpt>
      <trkpt lat="45.63167" lon="6.62892">
        <ele>2439</ele>
        <time>2022-07-16T10:37:58Z</time>
      </trkpt>
      <trkpt lat="45.63169" lon="6.62895">
        <ele>2439</ele>
        <time>2022-07-16T10:38:00Z</time>
      </trkpt>
      <trkpt lat="45.63171" lon="6.62897">
        <ele>2439</ele>
        <time>2022-07-16T10:38:02Z</time>
      </trkpt>
      <trkpt lat="45.63173" lon="6.629">
        <ele>2440</ele>
        <time>2022-07-16T10:38:03Z</time>
      </trkpt>
      <trkpt lat="45.63174" lon="6.62902">
        <ele>2440</ele>
        <time>2022-07-16T10:38:05Z</time>
      </trkpt>
      <trkpt lat="45.63175" lon="6.62903">
        <ele>2440</ele>
        <time>2022-07-16T10:38:06Z</time>
      </trkpt>
      <trkpt lat="45.63176" lon="6.62905">
        <ele>2440</ele>
        <time>2022-07-16T10:38:07Z</time>
      </trkpt>
      <trkpt lat="45.63177" lon="6.62906">
        <ele>2440</ele>
        <time>2022-07-16T10:38:08Z</time>
      </trkpt>
      <trkpt lat="45.63178" lon="6.62908">
        <ele>2440</ele>
        <time>2022-07-16T10:38:09Z</time>
      </trkpt>
      <trkpt lat="45.63179" lon="6.6291">
        <ele>2440</ele>
        <time>2022-07-16T10:38:10Z</time>
      </trkpt>
      <trkpt lat="45.63179" lon="6.62912">
        <ele>2440</ele>
        <time>2022-07-16T10:38:11Z</time>
      </trkpt>
      <trkpt lat="45.6318" lon="6.62913">
        <ele>2440</ele>
        <time>2022-07-16T10:38:12Z</time>
      </trkpt>
      <trkpt lat="45.6318" lon="6.62915">
        <ele>2440</ele>
        <time>2022-07-16T10:38:13Z</time>
      </trkpt>
      <trkpt lat="45.63181" lon="6.62921">
        <ele>2440</ele>
        <time>2022-07-16T10:38:16Z</time>
      </trkpt>
      <trkpt lat="45.63182" lon="6.62926">
        <ele>2439</ele>
        <time>2022-07-16T10:38:20Z</time>
      </trkpt>
      <trkpt lat="45.63183" lon="6.62929">
        <ele>2439</ele>
        <time>2022-07-16T10:38:22Z</time>
      </trkpt>
      <trkpt lat="45.63185" lon="6.62933">
        <ele>2439</ele>
        <time>2022-07-16T10:38:23Z</time>
      </trkpt>
      <trkpt lat="45.63186" lon="6.62937">
        <ele>2439</ele>
        <time>2022-07-16T10:38:25Z</time>
      </trkpt>
      <trkpt lat="45.63187" lon="6.62941">
        <ele>2438</ele>
        <time>2022-07-16T10:38:27Z</time>
      </trkpt>
      <trkpt lat="45.63188" lon="6.62944">
        <ele>2438</ele>
        <time>2022-07-16T10:38:29Z</time>
      </trkpt>
      <trkpt lat="45.63189" lon="6.62947">
        <ele>2438</ele>
        <time>2022-07-16T10:38:32Z</time>
      </trkpt>
      <trkpt lat="45.63189" lon="6.6295">
        <ele>2439</ele>
        <time>2022-07-16T10:38:33Z</time>
      </trkpt>
      <trkpt lat="45.6319" lon="6.62953">
        <ele>2439</ele>
        <time>2022-07-16T10:38:35Z</time>
      </trkpt>
      <trkpt lat="45.63192" lon="6.62955">
        <ele>2439</ele>
        <time>2022-07-16T10:38:38Z</time>
      </trkpt>
      <trkpt lat="45.63194" lon="6.62957">
        <ele>2439</ele>
        <time>2022-07-16T10:38:39Z</time>
      </trkpt>
      <trkpt lat="45.63196" lon="6.6296">
        <ele>2439</ele>
        <time>2022-07-16T10:38:42Z</time>
      </trkpt>
      <trkpt lat="45.63197" lon="6.62962">
        <ele>2439</ele>
        <time>2022-07-16T10:38:43Z</time>
      </trkpt>
      <trkpt lat="45.632" lon="6.62965">
        <ele>2439</ele>
        <time>2022-07-16T10:38:46Z</time>
      </trkpt>
      <trkpt lat="45.632" lon="6.62968">
        <ele>2438</ele>
        <time>2022-07-16T10:38:48Z</time>
      </trkpt>
      <trkpt lat="45.632" lon="6.62972">
        <ele>2438</ele>
        <time>2022-07-16T10:38:50Z</time>
      </trkpt>
      <trkpt lat="45.632" lon="6.62978">
        <ele>2438</ele>
        <time>2022-07-16T10:38:53Z</time>
      </trkpt>
      <trkpt lat="45.632" lon="6.62983">
        <ele>2437</ele>
        <time>2022-07-16T10:38:55Z</time>
      </trkpt>
      <trkpt lat="45.632" lon="6.62986">
        <ele>2436</ele>
        <time>2022-07-16T10:38:58Z</time>
      </trkpt>
      <trkpt lat="45.63201" lon="6.62989">
        <ele>2437</ele>
        <time>2022-07-16T10:39:00Z</time>
      </trkpt>
      <trkpt lat="45.63201" lon="6.62991">
        <ele>2437</ele>
        <time>2022-07-16T10:39:01Z</time>
      </trkpt>
      <trkpt lat="45.63202" lon="6.62992">
        <ele>2437</ele>
        <time>2022-07-16T10:39:02Z</time>
      </trkpt>
      <trkpt lat="45.63202" lon="6.62994">
        <ele>2436</ele>
        <time>2022-07-16T10:39:03Z</time>
      </trkpt>
      <trkpt lat="45.63203" lon="6.62995">
        <ele>2436</ele>
        <time>2022-07-16T10:39:04Z</time>
      </trkpt>
      <trkpt lat="45.63203" lon="6.62997">
        <ele>2436</ele>
        <time>2022-07-16T10:39:05Z</time>
      </trkpt>
      <trkpt lat="45.63204" lon="6.62998">
        <ele>2436</ele>
        <time>2022-07-16T10:39:06Z</time>
      </trkpt>
      <trkpt lat="45.63204" lon="6.63">
        <ele>2436</ele>
        <time>2022-07-16T10:39:07Z</time>
      </trkpt>
      <trkpt lat="45.63205" lon="6.63002">
        <ele>2436</ele>
        <time>2022-07-16T10:39:08Z</time>
      </trkpt>
      <trkpt lat="45.6321" lon="6.63013">
        <ele>2436</ele>
        <time>2022-07-16T10:39:16Z</time>
      </trkpt>
      <trkpt lat="45.6321" lon="6.63014">
        <ele>2436</ele>
        <time>2022-07-16T10:39:17Z</time>
      </trkpt>
      <trkpt lat="45.63211" lon="6.63015">
        <ele>2435</ele>
        <time>2022-07-16T10:39:18Z</time>
      </trkpt>
      <trkpt lat="45.63212" lon="6.63017">
        <ele>2435</ele>
        <time>2022-07-16T10:39:19Z</time>
      </trkpt>
      <trkpt lat="45.63212" lon="6.63018">
        <ele>2435</ele>
        <time>2022-07-16T10:39:20Z</time>
      </trkpt>
      <trkpt lat="45.63213" lon="6.63019">
        <ele>2435</ele>
        <time>2022-07-16T10:39:21Z</time>
      </trkpt>
      <trkpt lat="45.63213" lon="6.63021">
        <ele>2435</ele>
        <time>2022-07-16T10:39:22Z</time>
      </trkpt>
      <trkpt lat="45.63214" lon="6.63022">
        <ele>2435</ele>
        <time>2022-07-16T10:39:23Z</time>
      </trkpt>
      <trkpt lat="45.63215" lon="6.63023">
        <ele>2435</ele>
        <time>2022-07-16T10:39:24Z</time>
      </trkpt>
      <trkpt lat="45.63215" lon="6.63025">
        <ele>2435</ele>
        <time>2022-07-16T10:39:25Z</time>
      </trkpt>
      <trkpt lat="45.63216" lon="6.63026">
        <ele>2435</ele>
        <time>2022-07-16T10:39:26Z</time>
      </trkpt>
      <trkpt lat="45.63216" lon="6.63028">
        <ele>2435</ele>
        <time>2022-07-16T10:39:27Z</time>
      </trkpt>
      <trkpt lat="45.63217" lon="6.63029">
        <ele>2435</ele>
        <time>2022-07-16T10:39:28Z</time>
      </trkpt>
      <trkpt lat="45.63217" lon="6.63031">
        <ele>2435</ele>
        <time>2022-07-16T10:39:29Z</time>
      </trkpt>
      <trkpt lat="45.63217" lon="6.63032">
        <ele>2435</ele>
        <time>2022-07-16T10:39:30Z</time>
      </trkpt>
      <trkpt lat="45.63218" lon="6.63033">
        <ele>2435</ele>
        <time>2022-07-16T10:39:31Z</time>
      </trkpt>
      <trkpt lat="45.63218" lon="6.63035">
        <ele>2435</ele>
        <time>2022-07-16T10:39:32Z</time>
      </trkpt>
      <trkpt lat="45.63219" lon="6.63036">
        <ele>2435</ele>
        <time>2022-07-16T10:39:33Z</time>
      </trkpt>
      <trkpt lat="45.63219" lon="6.63038">
        <ele>2435</ele>
        <time>2022-07-16T10:39:34Z</time>
      </trkpt>
      <trkpt lat="45.6322" lon="6.63039">
        <ele>2435</ele>
        <time>2022-07-16T10:39:35Z</time>
      </trkpt>
      <trkpt lat="45.6322" lon="6.63041">
        <ele>2435</ele>
        <time>2022-07-16T10:39:36Z</time>
      </trkpt>
      <trkpt lat="45.63221" lon="6.63042">
        <ele>2435</ele>
        <time>2022-07-16T10:39:37Z</time>
      </trkpt>
      <trkpt lat="45.63222" lon="6.63044">
        <ele>2435</ele>
        <time>2022-07-16T10:39:38Z</time>
      </trkpt>
      <trkpt lat="45.63222" lon="6.63045">
        <ele>2435</ele>
        <time>2022-07-16T10:39:39Z</time>
      </trkpt>
      <trkpt lat="45.63223" lon="6.63047">
        <ele>2435</ele>
        <time>2022-07-16T10:39:40Z</time>
      </trkpt>
      <trkpt lat="45.63224" lon="6.63049">
        <ele>2435</ele>
        <time>2022-07-16T10:39:41Z</time>
      </trkpt>
      <trkpt lat="45.63225" lon="6.6305">
        <ele>2435</ele>
        <time>2022-07-16T10:39:42Z</time>
      </trkpt>
      <trkpt lat="45.63226" lon="6.63052">
        <ele>2435</ele>
        <time>2022-07-16T10:39:43Z</time>
      </trkpt>
      <trkpt lat="45.63227" lon="6.63054">
        <ele>2434</ele>
        <time>2022-07-16T10:39:44Z</time>
      </trkpt>
      <trkpt lat="45.63227" lon="6.63055">
        <ele>2434</ele>
        <time>2022-07-16T10:39:45Z</time>
      </trkpt>
      <trkpt lat="45.63228" lon="6.63057">
        <ele>2434</ele>
        <time>2022-07-16T10:39:46Z</time>
      </trkpt>
      <trkpt lat="45.63228" lon="6.63058">
        <ele>2434</ele>
        <time>2022-07-16T10:39:47Z</time>
      </trkpt>
      <trkpt lat="45.63229" lon="6.6306">
        <ele>2434</ele>
        <time>2022-07-16T10:39:48Z</time>
      </trkpt>
      <trkpt lat="45.63229" lon="6.63062">
        <ele>2434</ele>
        <time>2022-07-16T10:39:49Z</time>
      </trkpt>
      <trkpt lat="45.63229" lon="6.63063">
        <ele>2434</ele>
        <time>2022-07-16T10:39:50Z</time>
      </trkpt>
      <trkpt lat="45.6323" lon="6.63065">
        <ele>2434</ele>
        <time>2022-07-16T10:39:51Z</time>
      </trkpt>
      <trkpt lat="45.6323" lon="6.63066">
        <ele>2434</ele>
        <time>2022-07-16T10:39:52Z</time>
      </trkpt>
      <trkpt lat="45.63231" lon="6.63068">
        <ele>2434</ele>
        <time>2022-07-16T10:39:54Z</time>
      </trkpt>
      <trkpt lat="45.63231" lon="6.63069">
        <ele>2434</ele>
        <time>2022-07-16T10:39:55Z</time>
      </trkpt>
      <trkpt lat="45.63232" lon="6.6307">
        <ele>2434</ele>
        <time>2022-07-16T10:39:56Z</time>
      </trkpt>
      <trkpt lat="45.63232" lon="6.63071">
        <ele>2434</ele>
        <time>2022-07-16T10:39:57Z</time>
      </trkpt>
      <trkpt lat="45.63233" lon="6.63072">
        <ele>2433</ele>
        <time>2022-07-16T10:39:58Z</time>
      </trkpt>
      <trkpt lat="45.63233" lon="6.63074">
        <ele>2433</ele>
        <time>2022-07-16T10:39:59Z</time>
      </trkpt>
      <trkpt lat="45.63234" lon="6.63077">
        <ele>2433</ele>
        <time>2022-07-16T10:40:01Z</time>
      </trkpt>
      <trkpt lat="45.63234" lon="6.63078">
        <ele>2433</ele>
        <time>2022-07-16T10:40:02Z</time>
      </trkpt>
      <trkpt lat="45.63235" lon="6.6308">
        <ele>2433</ele>
        <time>2022-07-16T10:40:03Z</time>
      </trkpt>
      <trkpt lat="45.63235" lon="6.63082">
        <ele>2433</ele>
        <time>2022-07-16T10:40:04Z</time>
      </trkpt>
      <trkpt lat="45.63235" lon="6.63083">
        <ele>2433</ele>
        <time>2022-07-16T10:40:05Z</time>
      </trkpt>
      <trkpt lat="45.63235" lon="6.63085">
        <ele>2433</ele>
        <time>2022-07-16T10:40:06Z</time>
      </trkpt>
      <trkpt lat="45.63235" lon="6.63086">
        <ele>2433</ele>
        <time>2022-07-16T10:40:07Z</time>
      </trkpt>
      <trkpt lat="45.63236" lon="6.63088">
        <ele>2433</ele>
        <time>2022-07-16T10:40:08Z</time>
      </trkpt>
      <trkpt lat="45.63236" lon="6.6309">
        <ele>2434</ele>
        <time>2022-07-16T10:40:09Z</time>
      </trkpt>
      <trkpt lat="45.63236" lon="6.63091">
        <ele>2434</ele>
        <time>2022-07-16T10:40:10Z</time>
      </trkpt>
      <trkpt lat="45.63236" lon="6.63093">
        <ele>2434</ele>
        <time>2022-07-16T10:40:11Z</time>
      </trkpt>
      <trkpt lat="45.63236" lon="6.63095">
        <ele>2433</ele>
        <time>2022-07-16T10:40:12Z</time>
      </trkpt>
      <trkpt lat="45.63237" lon="6.63096">
        <ele>2433</ele>
        <time>2022-07-16T10:40:13Z</time>
      </trkpt>
      <trkpt lat="45.63237" lon="6.63098">
        <ele>2433</ele>
        <time>2022-07-16T10:40:14Z</time>
      </trkpt>
      <trkpt lat="45.63238" lon="6.63101">
        <ele>2433</ele>
        <time>2022-07-16T10:40:16Z</time>
      </trkpt>
      <trkpt lat="45.63239" lon="6.63103">
        <ele>2434</ele>
        <time>2022-07-16T10:40:18Z</time>
      </trkpt>
      <trkpt lat="45.63241" lon="6.63109">
        <ele>2432</ele>
        <time>2022-07-16T10:40:22Z</time>
      </trkpt>
      <trkpt lat="45.63242" lon="6.6311">
        <ele>2432</ele>
        <time>2022-07-16T10:40:23Z</time>
      </trkpt>
      <trkpt lat="45.63242" lon="6.63112">
        <ele>2432</ele>
        <time>2022-07-16T10:40:24Z</time>
      </trkpt>
      <trkpt lat="45.63243" lon="6.63113">
        <ele>2432</ele>
        <time>2022-07-16T10:40:25Z</time>
      </trkpt>
      <trkpt lat="45.63243" lon="6.63115">
        <ele>2432</ele>
        <time>2022-07-16T10:40:26Z</time>
      </trkpt>
      <trkpt lat="45.63244" lon="6.63116">
        <ele>2432</ele>
        <time>2022-07-16T10:40:27Z</time>
      </trkpt>
      <trkpt lat="45.63244" lon="6.63118">
        <ele>2432</ele>
        <time>2022-07-16T10:40:28Z</time>
      </trkpt>
      <trkpt lat="45.63245" lon="6.63119">
        <ele>2432</ele>
        <time>2022-07-16T10:40:29Z</time>
      </trkpt>
      <trkpt lat="45.63245" lon="6.63121">
        <ele>2432</ele>
        <time>2022-07-16T10:40:30Z</time>
      </trkpt>
      <trkpt lat="45.63246" lon="6.63122">
        <ele>2432</ele>
        <time>2022-07-16T10:40:31Z</time>
      </trkpt>
      <trkpt lat="45.63246" lon="6.63124">
        <ele>2432</ele>
        <time>2022-07-16T10:40:32Z</time>
      </trkpt>
      <trkpt lat="45.63247" lon="6.63125">
        <ele>2432</ele>
        <time>2022-07-16T10:40:33Z</time>
      </trkpt>
      <trkpt lat="45.63248" lon="6.63127">
        <ele>2432</ele>
        <time>2022-07-16T10:40:34Z</time>
      </trkpt>
      <trkpt lat="45.63248" lon="6.63128">
        <ele>2432</ele>
        <time>2022-07-16T10:40:35Z</time>
      </trkpt>
      <trkpt lat="45.63249" lon="6.6313">
        <ele>2432</ele>
        <time>2022-07-16T10:40:36Z</time>
      </trkpt>
      <trkpt lat="45.63249" lon="6.63131">
        <ele>2432</ele>
        <time>2022-07-16T10:40:37Z</time>
      </trkpt>
      <trkpt lat="45.63249" lon="6.63132">
        <ele>2432</ele>
        <time>2022-07-16T10:40:38Z</time>
      </trkpt>
      <trkpt lat="45.6325" lon="6.63134">
        <ele>2432</ele>
        <time>2022-07-16T10:40:39Z</time>
      </trkpt>
      <trkpt lat="45.6325" lon="6.63135">
        <ele>2432</ele>
        <time>2022-07-16T10:40:40Z</time>
      </trkpt>
      <trkpt lat="45.6325" lon="6.63136">
        <ele>2432</ele>
        <time>2022-07-16T10:40:41Z</time>
      </trkpt>
      <trkpt lat="45.6325" lon="6.63137">
        <ele>2432</ele>
        <time>2022-07-16T10:40:42Z</time>
      </trkpt>
      <trkpt lat="45.63251" lon="6.63139">
        <ele>2432</ele>
        <time>2022-07-16T10:40:43Z</time>
      </trkpt>
      <trkpt lat="45.63251" lon="6.6314">
        <ele>2432</ele>
        <time>2022-07-16T10:40:44Z</time>
      </trkpt>
      <trkpt lat="45.63251" lon="6.63141">
        <ele>2432</ele>
        <time>2022-07-16T10:40:45Z</time>
      </trkpt>
      <trkpt lat="45.63251" lon="6.63142">
        <ele>2433</ele>
        <time>2022-07-16T10:40:46Z</time>
      </trkpt>
      <trkpt lat="45.63252" lon="6.63144">
        <ele>2433</ele>
        <time>2022-07-16T10:40:47Z</time>
      </trkpt>
      <trkpt lat="45.63252" lon="6.63146">
        <ele>2432</ele>
        <time>2022-07-16T10:40:48Z</time>
      </trkpt>
      <trkpt lat="45.63253" lon="6.63148">
        <ele>2433</ele>
        <time>2022-07-16T10:40:49Z</time>
      </trkpt>
      <trkpt lat="45.63253" lon="6.6315">
        <ele>2433</ele>
        <time>2022-07-16T10:40:50Z</time>
      </trkpt>
      <trkpt lat="45.63254" lon="6.63151">
        <ele>2433</ele>
        <time>2022-07-16T10:40:51Z</time>
      </trkpt>
      <trkpt lat="45.63255" lon="6.63156">
        <ele>2433</ele>
        <time>2022-07-16T10:40:54Z</time>
      </trkpt>
      <trkpt lat="45.63256" lon="6.63159">
        <ele>2433</ele>
        <time>2022-07-16T10:40:56Z</time>
      </trkpt>
      <trkpt lat="45.63257" lon="6.6316">
        <ele>2433</ele>
        <time>2022-07-16T10:40:57Z</time>
      </trkpt>
      <trkpt lat="45.63258" lon="6.63161">
        <ele>2433</ele>
        <time>2022-07-16T10:40:58Z</time>
      </trkpt>
      <trkpt lat="45.63259" lon="6.63162">
        <ele>2433</ele>
        <time>2022-07-16T10:40:59Z</time>
      </trkpt>
      <trkpt lat="45.63259" lon="6.63163">
        <ele>2433</ele>
        <time>2022-07-16T10:41:00Z</time>
      </trkpt>
      <trkpt lat="45.6326" lon="6.63165">
        <ele>2433</ele>
        <time>2022-07-16T10:41:01Z</time>
      </trkpt>
      <trkpt lat="45.63261" lon="6.63166">
        <ele>2432</ele>
        <time>2022-07-16T10:41:02Z</time>
      </trkpt>
      <trkpt lat="45.63262" lon="6.63167">
        <ele>2432</ele>
        <time>2022-07-16T10:41:03Z</time>
      </trkpt>
      <trkpt lat="45.63263" lon="6.63168">
        <ele>2432</ele>
        <time>2022-07-16T10:41:04Z</time>
      </trkpt>
      <trkpt lat="45.63263" lon="6.63169">
        <ele>2432</ele>
        <time>2022-07-16T10:41:05Z</time>
      </trkpt>
      <trkpt lat="45.63263" lon="6.63171">
        <ele>2432</ele>
        <time>2022-07-16T10:41:06Z</time>
      </trkpt>
      <trkpt lat="45.63263" lon="6.63172">
        <ele>2432</ele>
        <time>2022-07-16T10:41:07Z</time>
      </trkpt>
      <trkpt lat="45.63264" lon="6.63173">
        <ele>2432</ele>
        <time>2022-07-16T10:41:08Z</time>
      </trkpt>
      <trkpt lat="45.63264" lon="6.63174">
        <ele>2432</ele>
        <time>2022-07-16T10:41:10Z</time>
      </trkpt>
      <trkpt lat="45.63264" lon="6.63176">
        <ele>2432</ele>
        <time>2022-07-16T10:41:11Z</time>
      </trkpt>
      <trkpt lat="45.63264" lon="6.63177">
        <ele>2432</ele>
        <time>2022-07-16T10:41:12Z</time>
      </trkpt>
      <trkpt lat="45.63265" lon="6.63178">
        <ele>2432</ele>
        <time>2022-07-16T10:41:13Z</time>
      </trkpt>
      <trkpt lat="45.63265" lon="6.63179">
        <ele>2432</ele>
        <time>2022-07-16T10:41:14Z</time>
      </trkpt>
      <trkpt lat="45.63265" lon="6.6318">
        <ele>2432</ele>
        <time>2022-07-16T10:41:15Z</time>
      </trkpt>
      <trkpt lat="45.63266" lon="6.63193">
        <ele>2432</ele>
        <time>2022-07-16T10:41:27Z</time>
      </trkpt>
      <trkpt lat="45.63266" lon="6.63195">
        <ele>2432</ele>
        <time>2022-07-16T10:41:30Z</time>
      </trkpt>
      <trkpt lat="45.63266" lon="6.63197">
        <ele>2432</ele>
        <time>2022-07-16T10:41:31Z</time>
      </trkpt>
      <trkpt lat="45.63267" lon="6.63199">
        <ele>2432</ele>
        <time>2022-07-16T10:41:32Z</time>
      </trkpt>
      <trkpt lat="45.63267" lon="6.63201">
        <ele>2432</ele>
        <time>2022-07-16T10:41:33Z</time>
      </trkpt>
      <trkpt lat="45.63268" lon="6.63206">
        <ele>2431</ele>
        <time>2022-07-16T10:41:34Z</time>
      </trkpt>
      <trkpt lat="45.63268" lon="6.63207">
        <ele>2431</ele>
        <time>2022-07-16T10:41:36Z</time>
      </trkpt>
      <trkpt lat="45.63269" lon="6.63208">
        <ele>2431</ele>
        <time>2022-07-16T10:41:37Z</time>
      </trkpt>
      <trkpt lat="45.63269" lon="6.6321">
        <ele>2431</ele>
        <time>2022-07-16T10:41:38Z</time>
      </trkpt>
      <trkpt lat="45.6327" lon="6.63215">
        <ele>2431</ele>
        <time>2022-07-16T10:41:40Z</time>
      </trkpt>
      <trkpt lat="45.63271" lon="6.63217">
        <ele>2430</ele>
        <time>2022-07-16T10:41:42Z</time>
      </trkpt>
      <trkpt lat="45.63271" lon="6.63219">
        <ele>2430</ele>
        <time>2022-07-16T10:41:43Z</time>
      </trkpt>
      <trkpt lat="45.63271" lon="6.63221">
        <ele>2430</ele>
        <time>2022-07-16T10:41:44Z</time>
      </trkpt>
      <trkpt lat="45.63272" lon="6.63225">
        <ele>2430</ele>
        <time>2022-07-16T10:41:46Z</time>
      </trkpt>
      <trkpt lat="45.63273" lon="6.6323">
        <ele>2428</ele>
        <time>2022-07-16T10:41:47Z</time>
      </trkpt>
      <trkpt lat="45.63273" lon="6.63232">
        <ele>2428</ele>
        <time>2022-07-16T10:41:49Z</time>
      </trkpt>
      <trkpt lat="45.63273" lon="6.63234">
        <ele>2430</ele>
        <time>2022-07-16T10:41:50Z</time>
      </trkpt>
      <trkpt lat="45.63274" lon="6.63236">
        <ele>2430</ele>
        <time>2022-07-16T10:41:51Z</time>
      </trkpt>
      <trkpt lat="45.63274" lon="6.63238">
        <ele>2430</ele>
        <time>2022-07-16T10:41:52Z</time>
      </trkpt>
      <trkpt lat="45.63274" lon="6.6324">
        <ele>2428</ele>
        <time>2022-07-16T10:41:53Z</time>
      </trkpt>
      <trkpt lat="45.63275" lon="6.63242">
        <ele>2428</ele>
        <time>2022-07-16T10:41:54Z</time>
      </trkpt>
      <trkpt lat="45.63275" lon="6.63244">
        <ele>2428</ele>
        <time>2022-07-16T10:41:55Z</time>
      </trkpt>
      <trkpt lat="45.63276" lon="6.63245">
        <ele>2428</ele>
        <time>2022-07-16T10:41:56Z</time>
      </trkpt>
      <trkpt lat="45.63276" lon="6.63247">
        <ele>2428</ele>
        <time>2022-07-16T10:41:57Z</time>
      </trkpt>
      <trkpt lat="45.63277" lon="6.63248">
        <ele>2428</ele>
        <time>2022-07-16T10:41:58Z</time>
      </trkpt>
      <trkpt lat="45.63278" lon="6.63249">
        <ele>2428</ele>
        <time>2022-07-16T10:41:59Z</time>
      </trkpt>
      <trkpt lat="45.63278" lon="6.63251">
        <ele>2428</ele>
        <time>2022-07-16T10:42:00Z</time>
      </trkpt>
      <trkpt lat="45.63279" lon="6.63252">
        <ele>2428</ele>
        <time>2022-07-16T10:42:01Z</time>
      </trkpt>
      <trkpt lat="45.6328" lon="6.63253">
        <ele>2427</ele>
        <time>2022-07-16T10:42:02Z</time>
      </trkpt>
      <trkpt lat="45.6328" lon="6.63254">
        <ele>2427</ele>
        <time>2022-07-16T10:42:03Z</time>
      </trkpt>
      <trkpt lat="45.63281" lon="6.63256">
        <ele>2427</ele>
        <time>2022-07-16T10:42:04Z</time>
      </trkpt>
      <trkpt lat="45.63282" lon="6.63257">
        <ele>2426</ele>
        <time>2022-07-16T10:42:05Z</time>
      </trkpt>
      <trkpt lat="45.63283" lon="6.63258">
        <ele>2426</ele>
        <time>2022-07-16T10:42:06Z</time>
      </trkpt>
      <trkpt lat="45.63284" lon="6.63259">
        <ele>2426</ele>
        <time>2022-07-16T10:42:07Z</time>
      </trkpt>
      <trkpt lat="45.63284" lon="6.6326">
        <ele>2425</ele>
        <time>2022-07-16T10:42:08Z</time>
      </trkpt>
      <trkpt lat="45.63285" lon="6.63261">
        <ele>2424</ele>
        <time>2022-07-16T10:42:09Z</time>
      </trkpt>
      <trkpt lat="45.63288" lon="6.63266">
        <ele>2423</ele>
        <time>2022-07-16T10:42:10Z</time>
      </trkpt>
      <trkpt lat="45.63289" lon="6.63268">
        <ele>2423</ele>
        <time>2022-07-16T10:42:12Z</time>
      </trkpt>
      <trkpt lat="45.6329" lon="6.6327">
        <ele>2423</ele>
        <time>2022-07-16T10:42:13Z</time>
      </trkpt>
      <trkpt lat="45.63291" lon="6.63273">
        <ele>2423</ele>
        <time>2022-07-16T10:42:14Z</time>
      </trkpt>
      <trkpt lat="45.63292" lon="6.63275">
        <ele>2422</ele>
        <time>2022-07-16T10:42:15Z</time>
      </trkpt>
      <trkpt lat="45.63293" lon="6.63277">
        <ele>2422</ele>
        <time>2022-07-16T10:42:16Z</time>
      </trkpt>
      <trkpt lat="45.63294" lon="6.63279">
        <ele>2422</ele>
        <time>2022-07-16T10:42:17Z</time>
      </trkpt>
      <trkpt lat="45.63294" lon="6.63281">
        <ele>2422</ele>
        <time>2022-07-16T10:42:18Z</time>
      </trkpt>
      <trkpt lat="45.63295" lon="6.63283">
        <ele>2422</ele>
        <time>2022-07-16T10:42:19Z</time>
      </trkpt>
      <trkpt lat="45.63296" lon="6.63285">
        <ele>2421</ele>
        <time>2022-07-16T10:42:20Z</time>
      </trkpt>
      <trkpt lat="45.63297" lon="6.63287">
        <ele>2421</ele>
        <time>2022-07-16T10:42:21Z</time>
      </trkpt>
      <trkpt lat="45.63298" lon="6.6329">
        <ele>2421</ele>
        <time>2022-07-16T10:42:22Z</time>
      </trkpt>
      <trkpt lat="45.63298" lon="6.63291">
        <ele>2421</ele>
        <time>2022-07-16T10:42:23Z</time>
      </trkpt>
      <trkpt lat="45.63299" lon="6.63292">
        <ele>2421</ele>
        <time>2022-07-16T10:42:24Z</time>
      </trkpt>
      <trkpt lat="45.633" lon="6.63293">
        <ele>2421</ele>
        <time>2022-07-16T10:42:26Z</time>
      </trkpt>
      <trkpt lat="45.63301" lon="6.63295">
        <ele>2421</ele>
        <time>2022-07-16T10:42:27Z</time>
      </trkpt>
      <trkpt lat="45.63302" lon="6.63296">
        <ele>2420</ele>
        <time>2022-07-16T10:42:28Z</time>
      </trkpt>
      <trkpt lat="45.63303" lon="6.63297">
        <ele>2419</ele>
        <time>2022-07-16T10:42:29Z</time>
      </trkpt>
      <trkpt lat="45.63303" lon="6.63299">
        <ele>2419</ele>
        <time>2022-07-16T10:42:30Z</time>
      </trkpt>
      <trkpt lat="45.63304" lon="6.633">
        <ele>2419</ele>
        <time>2022-07-16T10:42:31Z</time>
      </trkpt>
      <trkpt lat="45.63305" lon="6.63301">
        <ele>2419</ele>
        <time>2022-07-16T10:42:32Z</time>
      </trkpt>
      <trkpt lat="45.63305" lon="6.63303">
        <ele>2419</ele>
        <time>2022-07-16T10:42:33Z</time>
      </trkpt>
      <trkpt lat="45.63306" lon="6.63305">
        <ele>2419</ele>
        <time>2022-07-16T10:42:34Z</time>
      </trkpt>
      <trkpt lat="45.63307" lon="6.63306">
        <ele>2418</ele>
        <time>2022-07-16T10:42:35Z</time>
      </trkpt>
      <trkpt lat="45.63307" lon="6.63308">
        <ele>2418</ele>
        <time>2022-07-16T10:42:36Z</time>
      </trkpt>
      <trkpt lat="45.63308" lon="6.63309">
        <ele>2418</ele>
        <time>2022-07-16T10:42:37Z</time>
      </trkpt>
      <trkpt lat="45.63309" lon="6.6331">
        <ele>2418</ele>
        <time>2022-07-16T10:42:38Z</time>
      </trkpt>
      <trkpt lat="45.6331" lon="6.63312">
        <ele>2417</ele>
        <time>2022-07-16T10:42:39Z</time>
      </trkpt>
      <trkpt lat="45.63311" lon="6.63313">
        <ele>2417</ele>
        <time>2022-07-16T10:42:40Z</time>
      </trkpt>
      <trkpt lat="45.63312" lon="6.63315">
        <ele>2417</ele>
        <time>2022-07-16T10:42:41Z</time>
      </trkpt>
      <trkpt lat="45.63314" lon="6.63318">
        <ele>2417</ele>
        <time>2022-07-16T10:42:43Z</time>
      </trkpt>
      <trkpt lat="45.63314" lon="6.63319">
        <ele>2416</ele>
        <time>2022-07-16T10:42:45Z</time>
      </trkpt>
      <trkpt lat="45.63315" lon="6.63321">
        <ele>2416</ele>
        <time>2022-07-16T10:42:46Z</time>
      </trkpt>
      <trkpt lat="45.63316" lon="6.63322">
        <ele>2416</ele>
        <time>2022-07-16T10:42:47Z</time>
      </trkpt>
      <trkpt lat="45.63316" lon="6.63323">
        <ele>2415</ele>
        <time>2022-07-16T10:42:48Z</time>
      </trkpt>
      <trkpt lat="45.63317" lon="6.63325">
        <ele>2415</ele>
        <time>2022-07-16T10:42:49Z</time>
      </trkpt>
      <trkpt lat="45.63317" lon="6.63326">
        <ele>2414</ele>
        <time>2022-07-16T10:42:50Z</time>
      </trkpt>
      <trkpt lat="45.63318" lon="6.63327">
        <ele>2414</ele>
        <time>2022-07-16T10:42:51Z</time>
      </trkpt>
      <trkpt lat="45.63319" lon="6.63329">
        <ele>2414</ele>
        <time>2022-07-16T10:42:52Z</time>
      </trkpt>
      <trkpt lat="45.63319" lon="6.6333">
        <ele>2414</ele>
        <time>2022-07-16T10:42:53Z</time>
      </trkpt>
      <trkpt lat="45.6332" lon="6.63331">
        <ele>2414</ele>
        <time>2022-07-16T10:42:54Z</time>
      </trkpt>
      <trkpt lat="45.63321" lon="6.63333">
        <ele>2414</ele>
        <time>2022-07-16T10:42:55Z</time>
      </trkpt>
      <trkpt lat="45.63322" lon="6.63334">
        <ele>2414</ele>
        <time>2022-07-16T10:42:56Z</time>
      </trkpt>
      <trkpt lat="45.63322" lon="6.63336">
        <ele>2414</ele>
        <time>2022-07-16T10:42:57Z</time>
      </trkpt>
      <trkpt lat="45.63323" lon="6.63337">
        <ele>2414</ele>
        <time>2022-07-16T10:42:58Z</time>
      </trkpt>
      <trkpt lat="45.63324" lon="6.63338">
        <ele>2414</ele>
        <time>2022-07-16T10:42:59Z</time>
      </trkpt>
      <trkpt lat="45.63324" lon="6.6334">
        <ele>2414</ele>
        <time>2022-07-16T10:43:00Z</time>
      </trkpt>
      <trkpt lat="45.63325" lon="6.63341">
        <ele>2414</ele>
        <time>2022-07-16T10:43:01Z</time>
      </trkpt>
      <trkpt lat="45.63325" lon="6.63343">
        <ele>2414</ele>
        <time>2022-07-16T10:43:02Z</time>
      </trkpt>
      <trkpt lat="45.63326" lon="6.63344">
        <ele>2414</ele>
        <time>2022-07-16T10:43:03Z</time>
      </trkpt>
      <trkpt lat="45.63327" lon="6.63346">
        <ele>2414</ele>
        <time>2022-07-16T10:43:04Z</time>
      </trkpt>
      <trkpt lat="45.63327" lon="6.63347">
        <ele>2414</ele>
        <time>2022-07-16T10:43:05Z</time>
      </trkpt>
      <trkpt lat="45.63328" lon="6.63349">
        <ele>2414</ele>
        <time>2022-07-16T10:43:06Z</time>
      </trkpt>
      <trkpt lat="45.63328" lon="6.63351">
        <ele>2414</ele>
        <time>2022-07-16T10:43:07Z</time>
      </trkpt>
      <trkpt lat="45.63329" lon="6.63352">
        <ele>2414</ele>
        <time>2022-07-16T10:43:08Z</time>
      </trkpt>
      <trkpt lat="45.63329" lon="6.63353">
        <ele>2414</ele>
        <time>2022-07-16T10:43:09Z</time>
      </trkpt>
      <trkpt lat="45.6333" lon="6.63355">
        <ele>2414</ele>
        <time>2022-07-16T10:43:10Z</time>
      </trkpt>
      <trkpt lat="45.6333" lon="6.63356">
        <ele>2414</ele>
        <time>2022-07-16T10:43:11Z</time>
      </trkpt>
      <trkpt lat="45.6333" lon="6.63357">
        <ele>2414</ele>
        <time>2022-07-16T10:43:12Z</time>
      </trkpt>
      <trkpt lat="45.63331" lon="6.63358">
        <ele>2414</ele>
        <time>2022-07-16T10:43:13Z</time>
      </trkpt>
      <trkpt lat="45.63331" lon="6.63359">
        <ele>2414</ele>
        <time>2022-07-16T10:43:14Z</time>
      </trkpt>
      <trkpt lat="45.63332" lon="6.63361">
        <ele>2414</ele>
        <time>2022-07-16T10:43:15Z</time>
      </trkpt>
      <trkpt lat="45.63333" lon="6.63362">
        <ele>2414</ele>
        <time>2022-07-16T10:43:16Z</time>
      </trkpt>
      <trkpt lat="45.63333" lon="6.63363">
        <ele>2414</ele>
        <time>2022-07-16T10:43:17Z</time>
      </trkpt>
      <trkpt lat="45.63334" lon="6.63365">
        <ele>2414</ele>
        <time>2022-07-16T10:43:18Z</time>
      </trkpt>
      <trkpt lat="45.63335" lon="6.63366">
        <ele>2414</ele>
        <time>2022-07-16T10:43:19Z</time>
      </trkpt>
      <trkpt lat="45.63336" lon="6.63367">
        <ele>2414</ele>
        <time>2022-07-16T10:43:20Z</time>
      </trkpt>
      <trkpt lat="45.63337" lon="6.63368">
        <ele>2414</ele>
        <time>2022-07-16T10:43:21Z</time>
      </trkpt>
      <trkpt lat="45.63337" lon="6.6337">
        <ele>2414</ele>
        <time>2022-07-16T10:43:23Z</time>
      </trkpt>
      <trkpt lat="45.63338" lon="6.63371">
        <ele>2414</ele>
        <time>2022-07-16T10:43:24Z</time>
      </trkpt>
      <trkpt lat="45.63339" lon="6.63372">
        <ele>2414</ele>
        <time>2022-07-16T10:43:25Z</time>
      </trkpt>
      <trkpt lat="45.63339" lon="6.63374">
        <ele>2414</ele>
        <time>2022-07-16T10:43:26Z</time>
      </trkpt>
      <trkpt lat="45.6334" lon="6.63375">
        <ele>2414</ele>
        <time>2022-07-16T10:43:27Z</time>
      </trkpt>
      <trkpt lat="45.63341" lon="6.63377">
        <ele>2414</ele>
        <time>2022-07-16T10:43:28Z</time>
      </trkpt>
      <trkpt lat="45.63341" lon="6.63378">
        <ele>2414</ele>
        <time>2022-07-16T10:43:29Z</time>
      </trkpt>
      <trkpt lat="45.63342" lon="6.6338">
        <ele>2414</ele>
        <time>2022-07-16T10:43:30Z</time>
      </trkpt>
      <trkpt lat="45.63342" lon="6.63381">
        <ele>2414</ele>
        <time>2022-07-16T10:43:31Z</time>
      </trkpt>
      <trkpt lat="45.63343" lon="6.63382">
        <ele>2414</ele>
        <time>2022-07-16T10:43:32Z</time>
      </trkpt>
      <trkpt lat="45.63343" lon="6.63384">
        <ele>2414</ele>
        <time>2022-07-16T10:43:33Z</time>
      </trkpt>
      <trkpt lat="45.63344" lon="6.63386">
        <ele>2414</ele>
        <time>2022-07-16T10:43:34Z</time>
      </trkpt>
      <trkpt lat="45.63345" lon="6.63387">
        <ele>2414</ele>
        <time>2022-07-16T10:43:35Z</time>
      </trkpt>
      <trkpt lat="45.63346" lon="6.63389">
        <ele>2414</ele>
        <time>2022-07-16T10:43:36Z</time>
      </trkpt>
      <trkpt lat="45.63346" lon="6.63391">
        <ele>2414</ele>
        <time>2022-07-16T10:43:37Z</time>
      </trkpt>
      <trkpt lat="45.63347" lon="6.63392">
        <ele>2414</ele>
        <time>2022-07-16T10:43:38Z</time>
      </trkpt>
      <trkpt lat="45.63348" lon="6.63394">
        <ele>2414</ele>
        <time>2022-07-16T10:43:39Z</time>
      </trkpt>
      <trkpt lat="45.63348" lon="6.63396">
        <ele>2414</ele>
        <time>2022-07-16T10:43:40Z</time>
      </trkpt>
      <trkpt lat="45.63349" lon="6.63397">
        <ele>2414</ele>
        <time>2022-07-16T10:43:41Z</time>
      </trkpt>
      <trkpt lat="45.63349" lon="6.63399">
        <ele>2414</ele>
        <time>2022-07-16T10:43:42Z</time>
      </trkpt>
      <trkpt lat="45.6335" lon="6.634">
        <ele>2414</ele>
        <time>2022-07-16T10:43:43Z</time>
      </trkpt>
      <trkpt lat="45.6335" lon="6.63402">
        <ele>2414</ele>
        <time>2022-07-16T10:43:44Z</time>
      </trkpt>
      <trkpt lat="45.6335" lon="6.63404">
        <ele>2415</ele>
        <time>2022-07-16T10:43:45Z</time>
      </trkpt>
      <trkpt lat="45.63351" lon="6.63405">
        <ele>2415</ele>
        <time>2022-07-16T10:43:46Z</time>
      </trkpt>
      <trkpt lat="45.63351" lon="6.63407">
        <ele>2415</ele>
        <time>2022-07-16T10:43:47Z</time>
      </trkpt>
      <trkpt lat="45.63351" lon="6.63408">
        <ele>2415</ele>
        <time>2022-07-16T10:43:48Z</time>
      </trkpt>
      <trkpt lat="45.63352" lon="6.63414">
        <ele>2415</ele>
        <time>2022-07-16T10:43:50Z</time>
      </trkpt>
      <trkpt lat="45.63352" lon="6.63418">
        <ele>2415</ele>
        <time>2022-07-16T10:43:54Z</time>
      </trkpt>
      <trkpt lat="45.63352" lon="6.63419">
        <ele>2415</ele>
        <time>2022-07-16T10:43:55Z</time>
      </trkpt>
      <trkpt lat="45.63353" lon="6.63421">
        <ele>2416</ele>
        <time>2022-07-16T10:43:56Z</time>
      </trkpt>
      <trkpt lat="45.63353" lon="6.63422">
        <ele>2416</ele>
        <time>2022-07-16T10:43:57Z</time>
      </trkpt>
      <trkpt lat="45.63353" lon="6.63424">
        <ele>2416</ele>
        <time>2022-07-16T10:43:58Z</time>
      </trkpt>
      <trkpt lat="45.63354" lon="6.63425">
        <ele>2416</ele>
        <time>2022-07-16T10:43:59Z</time>
      </trkpt>
      <trkpt lat="45.63354" lon="6.63427">
        <ele>2416</ele>
        <time>2022-07-16T10:44:01Z</time>
      </trkpt>
      <trkpt lat="45.63355" lon="6.63428">
        <ele>2416</ele>
        <time>2022-07-16T10:44:02Z</time>
      </trkpt>
      <trkpt lat="45.63355" lon="6.6343">
        <ele>2416</ele>
        <time>2022-07-16T10:44:03Z</time>
      </trkpt>
      <trkpt lat="45.63356" lon="6.63433">
        <ele>2415</ele>
        <time>2022-07-16T10:44:04Z</time>
      </trkpt>
      <trkpt lat="45.63356" lon="6.63434">
        <ele>2415</ele>
        <time>2022-07-16T10:44:06Z</time>
      </trkpt>
      <trkpt lat="45.63356" lon="6.63435">
        <ele>2415</ele>
        <time>2022-07-16T10:44:07Z</time>
      </trkpt>
      <trkpt lat="45.63356" lon="6.63437">
        <ele>2415</ele>
        <time>2022-07-16T10:44:08Z</time>
      </trkpt>
      <trkpt lat="45.63356" lon="6.63438">
        <ele>2415</ele>
        <time>2022-07-16T10:44:09Z</time>
      </trkpt>
      <trkpt lat="45.63356" lon="6.63439">
        <ele>2415</ele>
        <time>2022-07-16T10:44:10Z</time>
      </trkpt>
      <trkpt lat="45.63358" lon="6.63443">
        <ele>2415</ele>
        <time>2022-07-16T10:44:11Z</time>
      </trkpt>
      <trkpt lat="45.63359" lon="6.63445">
        <ele>2415</ele>
        <time>2022-07-16T10:44:14Z</time>
      </trkpt>
      <trkpt lat="45.6336" lon="6.63447">
        <ele>2415</ele>
        <time>2022-07-16T10:44:15Z</time>
      </trkpt>
      <trkpt lat="45.63361" lon="6.63449">
        <ele>2415</ele>
        <time>2022-07-16T10:44:16Z</time>
      </trkpt>
      <trkpt lat="45.63361" lon="6.63451">
        <ele>2415</ele>
        <time>2022-07-16T10:44:17Z</time>
      </trkpt>
      <trkpt lat="45.63362" lon="6.63452">
        <ele>2414</ele>
        <time>2022-07-16T10:44:18Z</time>
      </trkpt>
      <trkpt lat="45.63363" lon="6.63454">
        <ele>2414</ele>
        <time>2022-07-16T10:44:20Z</time>
      </trkpt>
      <trkpt lat="45.63364" lon="6.63456">
        <ele>2414</ele>
        <time>2022-07-16T10:44:21Z</time>
      </trkpt>
      <trkpt lat="45.63364" lon="6.63457">
        <ele>2413</ele>
        <time>2022-07-16T10:44:22Z</time>
      </trkpt>
      <trkpt lat="45.63365" lon="6.63459">
        <ele>2413</ele>
        <time>2022-07-16T10:44:23Z</time>
      </trkpt>
      <trkpt lat="45.63365" lon="6.6346">
        <ele>2413</ele>
        <time>2022-07-16T10:44:24Z</time>
      </trkpt>
      <trkpt lat="45.63366" lon="6.63461">
        <ele>2413</ele>
        <time>2022-07-16T10:44:25Z</time>
      </trkpt>
      <trkpt lat="45.63366" lon="6.63463">
        <ele>2413</ele>
        <time>2022-07-16T10:44:26Z</time>
      </trkpt>
      <trkpt lat="45.63366" lon="6.63464">
        <ele>2413</ele>
        <time>2022-07-16T10:44:27Z</time>
      </trkpt>
      <trkpt lat="45.63367" lon="6.63465">
        <ele>2413</ele>
        <time>2022-07-16T10:44:28Z</time>
      </trkpt>
      <trkpt lat="45.63367" lon="6.63467">
        <ele>2413</ele>
        <time>2022-07-16T10:44:29Z</time>
      </trkpt>
      <trkpt lat="45.63368" lon="6.63468">
        <ele>2413</ele>
        <time>2022-07-16T10:44:30Z</time>
      </trkpt>
      <trkpt lat="45.63368" lon="6.63469">
        <ele>2414</ele>
        <time>2022-07-16T10:44:31Z</time>
      </trkpt>
      <trkpt lat="45.63368" lon="6.63471">
        <ele>2414</ele>
        <time>2022-07-16T10:44:32Z</time>
      </trkpt>
      <trkpt lat="45.63369" lon="6.63472">
        <ele>2414</ele>
        <time>2022-07-16T10:44:33Z</time>
      </trkpt>
      <trkpt lat="45.63369" lon="6.63473">
        <ele>2414</ele>
        <time>2022-07-16T10:44:34Z</time>
      </trkpt>
      <trkpt lat="45.63369" lon="6.63475">
        <ele>2414</ele>
        <time>2022-07-16T10:44:35Z</time>
      </trkpt>
      <trkpt lat="45.6337" lon="6.63476">
        <ele>2414</ele>
        <time>2022-07-16T10:44:36Z</time>
      </trkpt>
      <trkpt lat="45.6337" lon="6.63477">
        <ele>2414</ele>
        <time>2022-07-16T10:44:37Z</time>
      </trkpt>
      <trkpt lat="45.6337" lon="6.63479">
        <ele>2414</ele>
        <time>2022-07-16T10:44:38Z</time>
      </trkpt>
      <trkpt lat="45.63371" lon="6.6348">
        <ele>2414</ele>
        <time>2022-07-16T10:44:39Z</time>
      </trkpt>
      <trkpt lat="45.63371" lon="6.63482">
        <ele>2414</ele>
        <time>2022-07-16T10:44:40Z</time>
      </trkpt>
      <trkpt lat="45.63371" lon="6.63483">
        <ele>2414</ele>
        <time>2022-07-16T10:44:41Z</time>
      </trkpt>
      <trkpt lat="45.63372" lon="6.63485">
        <ele>2414</ele>
        <time>2022-07-16T10:44:42Z</time>
      </trkpt>
      <trkpt lat="45.63372" lon="6.63486">
        <ele>2414</ele>
        <time>2022-07-16T10:44:43Z</time>
      </trkpt>
      <trkpt lat="45.63373" lon="6.63488">
        <ele>2414</ele>
        <time>2022-07-16T10:44:44Z</time>
      </trkpt>
      <trkpt lat="45.63373" lon="6.6349">
        <ele>2414</ele>
        <time>2022-07-16T10:44:45Z</time>
      </trkpt>
      <trkpt lat="45.63375" lon="6.63493">
        <ele>2414</ele>
        <time>2022-07-16T10:44:47Z</time>
      </trkpt>
      <trkpt lat="45.63375" lon="6.63495">
        <ele>2414</ele>
        <time>2022-07-16T10:44:48Z</time>
      </trkpt>
      <trkpt lat="45.63375" lon="6.63496">
        <ele>2414</ele>
        <time>2022-07-16T10:44:49Z</time>
      </trkpt>
      <trkpt lat="45.63376" lon="6.63498">
        <ele>2414</ele>
        <time>2022-07-16T10:44:50Z</time>
      </trkpt>
      <trkpt lat="45.63376" lon="6.63499">
        <ele>2413</ele>
        <time>2022-07-16T10:44:51Z</time>
      </trkpt>
      <trkpt lat="45.63377" lon="6.63501">
        <ele>2413</ele>
        <time>2022-07-16T10:44:52Z</time>
      </trkpt>
      <trkpt lat="45.63377" lon="6.63502">
        <ele>2413</ele>
        <time>2022-07-16T10:44:53Z</time>
      </trkpt>
      <trkpt lat="45.63377" lon="6.63504">
        <ele>2413</ele>
        <time>2022-07-16T10:44:54Z</time>
      </trkpt>
      <trkpt lat="45.63378" lon="6.63506">
        <ele>2413</ele>
        <time>2022-07-16T10:44:55Z</time>
      </trkpt>
      <trkpt lat="45.6338" lon="6.63507">
        <ele>2413</ele>
        <time>2022-07-16T10:44:58Z</time>
      </trkpt>
      <trkpt lat="45.63382" lon="6.63511">
        <ele>2413</ele>
        <time>2022-07-16T10:45:00Z</time>
      </trkpt>
      <trkpt lat="45.63382" lon="6.63513">
        <ele>2411</ele>
        <time>2022-07-16T10:45:02Z</time>
      </trkpt>
      <trkpt lat="45.63382" lon="6.63514">
        <ele>2411</ele>
        <time>2022-07-16T10:45:03Z</time>
      </trkpt>
      <trkpt lat="45.63382" lon="6.63516">
        <ele>2411</ele>
        <time>2022-07-16T10:45:04Z</time>
      </trkpt>
      <trkpt lat="45.63383" lon="6.63518">
        <ele>2411</ele>
        <time>2022-07-16T10:45:05Z</time>
      </trkpt>
      <trkpt lat="45.63383" lon="6.6352">
        <ele>2410</ele>
        <time>2022-07-16T10:45:06Z</time>
      </trkpt>
      <trkpt lat="45.63383" lon="6.63521">
        <ele>2410</ele>
        <time>2022-07-16T10:45:07Z</time>
      </trkpt>
      <trkpt lat="45.63383" lon="6.63523">
        <ele>2410</ele>
        <time>2022-07-16T10:45:08Z</time>
      </trkpt>
      <trkpt lat="45.63384" lon="6.63525">
        <ele>2410</ele>
        <time>2022-07-16T10:45:09Z</time>
      </trkpt>
      <trkpt lat="45.63384" lon="6.63538">
        <ele>2410</ele>
        <time>2022-07-16T10:45:17Z</time>
      </trkpt>
      <trkpt lat="45.63385" lon="6.63544">
        <ele>2410</ele>
        <time>2022-07-16T10:45:20Z</time>
      </trkpt>
      <trkpt lat="45.63385" lon="6.63548">
        <ele>2410</ele>
        <time>2022-07-16T10:45:21Z</time>
      </trkpt>
      <trkpt lat="45.63386" lon="6.63553">
        <ele>2410</ele>
        <time>2022-07-16T10:45:24Z</time>
      </trkpt>
      <trkpt lat="45.63386" lon="6.63555">
        <ele>2410</ele>
        <time>2022-07-16T10:45:25Z</time>
      </trkpt>
      <trkpt lat="45.63387" lon="6.63556">
        <ele>2410</ele>
        <time>2022-07-16T10:45:26Z</time>
      </trkpt>
      <trkpt lat="45.63387" lon="6.63558">
        <ele>2410</ele>
        <time>2022-07-16T10:45:27Z</time>
      </trkpt>
      <trkpt lat="45.63387" lon="6.6356">
        <ele>2410</ele>
        <time>2022-07-16T10:45:28Z</time>
      </trkpt>
      <trkpt lat="45.63387" lon="6.63562">
        <ele>2410</ele>
        <time>2022-07-16T10:45:29Z</time>
      </trkpt>
      <trkpt lat="45.63387" lon="6.63564">
        <ele>2410</ele>
        <time>2022-07-16T10:45:30Z</time>
      </trkpt>
      <trkpt lat="45.63387" lon="6.63565">
        <ele>2410</ele>
        <time>2022-07-16T10:45:31Z</time>
      </trkpt>
      <trkpt lat="45.63388" lon="6.63567">
        <ele>2410</ele>
        <time>2022-07-16T10:45:32Z</time>
      </trkpt>
      <trkpt lat="45.63388" lon="6.63569">
        <ele>2410</ele>
        <time>2022-07-16T10:45:33Z</time>
      </trkpt>
      <trkpt lat="45.63388" lon="6.63571">
        <ele>2410</ele>
        <time>2022-07-16T10:45:34Z</time>
      </trkpt>
      <trkpt lat="45.63389" lon="6.63572">
        <ele>2410</ele>
        <time>2022-07-16T10:45:35Z</time>
      </trkpt>
      <trkpt lat="45.63389" lon="6.63574">
        <ele>2410</ele>
        <time>2022-07-16T10:45:36Z</time>
      </trkpt>
      <trkpt lat="45.63389" lon="6.63575">
        <ele>2410</ele>
        <time>2022-07-16T10:45:37Z</time>
      </trkpt>
      <trkpt lat="45.6339" lon="6.63577">
        <ele>2410</ele>
        <time>2022-07-16T10:45:38Z</time>
      </trkpt>
      <trkpt lat="45.6339" lon="6.63578">
        <ele>2410</ele>
        <time>2022-07-16T10:45:39Z</time>
      </trkpt>
      <trkpt lat="45.6339" lon="6.6358">
        <ele>2411</ele>
        <time>2022-07-16T10:45:40Z</time>
      </trkpt>
      <trkpt lat="45.63391" lon="6.63582">
        <ele>2411</ele>
        <time>2022-07-16T10:45:41Z</time>
      </trkpt>
      <trkpt lat="45.63391" lon="6.63583">
        <ele>2411</ele>
        <time>2022-07-16T10:45:42Z</time>
      </trkpt>
      <trkpt lat="45.63391" lon="6.63585">
        <ele>2411</ele>
        <time>2022-07-16T10:45:43Z</time>
      </trkpt>
      <trkpt lat="45.63391" lon="6.63586">
        <ele>2411</ele>
        <time>2022-07-16T10:45:44Z</time>
      </trkpt>
      <trkpt lat="45.63392" lon="6.63588">
        <ele>2411</ele>
        <time>2022-07-16T10:45:45Z</time>
      </trkpt>
      <trkpt lat="45.63392" lon="6.63589">
        <ele>2411</ele>
        <time>2022-07-16T10:45:46Z</time>
      </trkpt>
      <trkpt lat="45.63392" lon="6.63591">
        <ele>2411</ele>
        <time>2022-07-16T10:45:47Z</time>
      </trkpt>
      <trkpt lat="45.63392" lon="6.63592">
        <ele>2411</ele>
        <time>2022-07-16T10:45:48Z</time>
      </trkpt>
      <trkpt lat="45.63392" lon="6.63594">
        <ele>2411</ele>
        <time>2022-07-16T10:45:49Z</time>
      </trkpt>
      <trkpt lat="45.63392" lon="6.63595">
        <ele>2411</ele>
        <time>2022-07-16T10:45:50Z</time>
      </trkpt>
      <trkpt lat="45.63393" lon="6.63597">
        <ele>2412</ele>
        <time>2022-07-16T10:45:51Z</time>
      </trkpt>
      <trkpt lat="45.63393" lon="6.63598">
        <ele>2412</ele>
        <time>2022-07-16T10:45:52Z</time>
      </trkpt>
      <trkpt lat="45.63393" lon="6.63602">
        <ele>2412</ele>
        <time>2022-07-16T10:45:54Z</time>
      </trkpt>
      <trkpt lat="45.63392" lon="6.63607">
        <ele>2413</ele>
        <time>2022-07-16T10:45:56Z</time>
      </trkpt>
      <trkpt lat="45.63392" lon="6.63611">
        <ele>2413</ele>
        <time>2022-07-16T10:45:58Z</time>
      </trkpt>
      <trkpt lat="45.63392" lon="6.63612">
        <ele>2413</ele>
        <time>2022-07-16T10:46:00Z</time>
      </trkpt>
      <trkpt lat="45.63392" lon="6.63614">
        <ele>2413</ele>
        <time>2022-07-16T10:46:01Z</time>
      </trkpt>
      <trkpt lat="45.63392" lon="6.63616">
        <ele>2413</ele>
        <time>2022-07-16T10:46:02Z</time>
      </trkpt>
      <trkpt lat="45.63391" lon="6.63618">
        <ele>2414</ele>
        <time>2022-07-16T10:46:03Z</time>
      </trkpt>
      <trkpt lat="45.63391" lon="6.63619">
        <ele>2414</ele>
        <time>2022-07-16T10:46:04Z</time>
      </trkpt>
      <trkpt lat="45.63391" lon="6.63621">
        <ele>2414</ele>
        <time>2022-07-16T10:46:05Z</time>
      </trkpt>
      <trkpt lat="45.63391" lon="6.63623">
        <ele>2414</ele>
        <time>2022-07-16T10:46:06Z</time>
      </trkpt>
      <trkpt lat="45.6339" lon="6.63624">
        <ele>2414</ele>
        <time>2022-07-16T10:46:07Z</time>
      </trkpt>
      <trkpt lat="45.6339" lon="6.63628">
        <ele>2414</ele>
        <time>2022-07-16T10:46:08Z</time>
      </trkpt>
      <trkpt lat="45.63389" lon="6.6363">
        <ele>2414</ele>
        <time>2022-07-16T10:46:10Z</time>
      </trkpt>
      <trkpt lat="45.63387" lon="6.63633">
        <ele>2415</ele>
        <time>2022-07-16T10:46:12Z</time>
      </trkpt>
      <trkpt lat="45.63386" lon="6.63636">
        <ele>2415</ele>
        <time>2022-07-16T10:46:14Z</time>
      </trkpt>
      <trkpt lat="45.63385" lon="6.63639">
        <ele>2415</ele>
        <time>2022-07-16T10:46:17Z</time>
      </trkpt>
      <trkpt lat="45.63383" lon="6.63644">
        <ele>2415</ele>
        <time>2022-07-16T10:46:19Z</time>
      </trkpt>
      <trkpt lat="45.63383" lon="6.63648">
        <ele>2416</ele>
        <time>2022-07-16T10:46:22Z</time>
      </trkpt>
      <trkpt lat="45.63384" lon="6.63651">
        <ele>2416</ele>
        <time>2022-07-16T10:46:25Z</time>
      </trkpt>
      <trkpt lat="45.63384" lon="6.63653">
        <ele>2415</ele>
        <time>2022-07-16T10:46:27Z</time>
      </trkpt>
      <trkpt lat="45.63385" lon="6.63654">
        <ele>2415</ele>
        <time>2022-07-16T10:46:28Z</time>
      </trkpt>
      <trkpt lat="45.63386" lon="6.63656">
        <ele>2415</ele>
        <time>2022-07-16T10:46:29Z</time>
      </trkpt>
      <trkpt lat="45.63387" lon="6.63658">
        <ele>2414</ele>
        <time>2022-07-16T10:46:30Z</time>
      </trkpt>
      <trkpt lat="45.63387" lon="6.63659">
        <ele>2414</ele>
        <time>2022-07-16T10:46:31Z</time>
      </trkpt>
      <trkpt lat="45.63389" lon="6.63662">
        <ele>2413</ele>
        <time>2022-07-16T10:46:33Z</time>
      </trkpt>
      <trkpt lat="45.6339" lon="6.63663">
        <ele>2413</ele>
        <time>2022-07-16T10:46:34Z</time>
      </trkpt>
      <trkpt lat="45.63392" lon="6.63664">
        <ele>2412</ele>
        <time>2022-07-16T10:46:35Z</time>
      </trkpt>
      <trkpt lat="45.63393" lon="6.63666">
        <ele>2412</ele>
        <time>2022-07-16T10:46:36Z</time>
      </trkpt>
      <trkpt lat="45.63394" lon="6.63667">
        <ele>2412</ele>
        <time>2022-07-16T10:46:37Z</time>
      </trkpt>
      <trkpt lat="45.63396" lon="6.63669">
        <ele>2412</ele>
        <time>2022-07-16T10:46:38Z</time>
      </trkpt>
      <trkpt lat="45.63397" lon="6.6367">
        <ele>2411</ele>
        <time>2022-07-16T10:46:39Z</time>
      </trkpt>
      <trkpt lat="45.63398" lon="6.63672">
        <ele>2411</ele>
        <time>2022-07-16T10:46:40Z</time>
      </trkpt>
      <trkpt lat="45.634" lon="6.63673">
        <ele>2411</ele>
        <time>2022-07-16T10:46:41Z</time>
      </trkpt>
      <trkpt lat="45.634" lon="6.63676">
        <ele>2410</ele>
        <time>2022-07-16T10:46:43Z</time>
      </trkpt>
      <trkpt lat="45.63405" lon="6.63681">
        <ele>2410</ele>
        <time>2022-07-16T10:46:45Z</time>
      </trkpt>
      <trkpt lat="45.63406" lon="6.63682">
        <ele>2409</ele>
        <time>2022-07-16T10:46:47Z</time>
      </trkpt>
      <trkpt lat="45.63409" lon="6.63686">
        <ele>2409</ele>
        <time>2022-07-16T10:46:48Z</time>
      </trkpt>
      <trkpt lat="45.6341" lon="6.63688">
        <ele>2408</ele>
        <time>2022-07-16T10:46:49Z</time>
      </trkpt>
      <trkpt lat="45.63414" lon="6.63691">
        <ele>2407</ele>
        <time>2022-07-16T10:46:52Z</time>
      </trkpt>
      <trkpt lat="45.63415" lon="6.63692">
        <ele>2407</ele>
        <time>2022-07-16T10:46:53Z</time>
      </trkpt>
      <trkpt lat="45.63416" lon="6.63693">
        <ele>2407</ele>
        <time>2022-07-16T10:46:54Z</time>
      </trkpt>
      <trkpt lat="45.63418" lon="6.63693">
        <ele>2407</ele>
        <time>2022-07-16T10:46:55Z</time>
      </trkpt>
      <trkpt lat="45.63419" lon="6.63695">
        <ele>2406</ele>
        <time>2022-07-16T10:46:56Z</time>
      </trkpt>
      <trkpt lat="45.63421" lon="6.63696">
        <ele>2405</ele>
        <time>2022-07-16T10:46:57Z</time>
      </trkpt>
      <trkpt lat="45.63422" lon="6.63697">
        <ele>2405</ele>
        <time>2022-07-16T10:46:58Z</time>
      </trkpt>
      <trkpt lat="45.63423" lon="6.63698">
        <ele>2405</ele>
        <time>2022-07-16T10:46:59Z</time>
      </trkpt>
      <trkpt lat="45.63425" lon="6.637">
        <ele>2404</ele>
        <time>2022-07-16T10:47:00Z</time>
      </trkpt>
      <trkpt lat="45.63426" lon="6.63701">
        <ele>2404</ele>
        <time>2022-07-16T10:47:01Z</time>
      </trkpt>
      <trkpt lat="45.63427" lon="6.63702">
        <ele>2404</ele>
        <time>2022-07-16T10:47:02Z</time>
      </trkpt>
      <trkpt lat="45.63428" lon="6.63703">
        <ele>2404</ele>
        <time>2022-07-16T10:47:03Z</time>
      </trkpt>
      <trkpt lat="45.6343" lon="6.63705">
        <ele>2404</ele>
        <time>2022-07-16T10:47:04Z</time>
      </trkpt>
      <trkpt lat="45.63431" lon="6.63706">
        <ele>2404</ele>
        <time>2022-07-16T10:47:05Z</time>
      </trkpt>
      <trkpt lat="45.63432" lon="6.63707">
        <ele>2404</ele>
        <time>2022-07-16T10:47:06Z</time>
      </trkpt>
      <trkpt lat="45.63433" lon="6.63708">
        <ele>2404</ele>
        <time>2022-07-16T10:47:07Z</time>
      </trkpt>
      <trkpt lat="45.63434" lon="6.6371">
        <ele>2404</ele>
        <time>2022-07-16T10:47:08Z</time>
      </trkpt>
      <trkpt lat="45.63435" lon="6.63711">
        <ele>2402</ele>
        <time>2022-07-16T10:47:09Z</time>
      </trkpt>
      <trkpt lat="45.63436" lon="6.63712">
        <ele>2402</ele>
        <time>2022-07-16T10:47:10Z</time>
      </trkpt>
      <trkpt lat="45.63437" lon="6.63714">
        <ele>2402</ele>
        <time>2022-07-16T10:47:11Z</time>
      </trkpt>
      <trkpt lat="45.63438" lon="6.63715">
        <ele>2401</ele>
        <time>2022-07-16T10:47:12Z</time>
      </trkpt>
      <trkpt lat="45.63439" lon="6.63717">
        <ele>2401</ele>
        <time>2022-07-16T10:47:13Z</time>
      </trkpt>
      <trkpt lat="45.6344" lon="6.63718">
        <ele>2401</ele>
        <time>2022-07-16T10:47:14Z</time>
      </trkpt>
      <trkpt lat="45.63441" lon="6.6372">
        <ele>2400</ele>
        <time>2022-07-16T10:47:15Z</time>
      </trkpt>
      <trkpt lat="45.63442" lon="6.63721">
        <ele>2400</ele>
        <time>2022-07-16T10:47:16Z</time>
      </trkpt>
      <trkpt lat="45.63443" lon="6.63721">
        <ele>2399</ele>
        <time>2022-07-16T10:47:17Z</time>
      </trkpt>
      <trkpt lat="45.63444" lon="6.63722">
        <ele>2399</ele>
        <time>2022-07-16T10:47:18Z</time>
      </trkpt>
      <trkpt lat="45.63445" lon="6.63723">
        <ele>2399</ele>
        <time>2022-07-16T10:47:19Z</time>
      </trkpt>
      <trkpt lat="45.63446" lon="6.63724">
        <ele>2399</ele>
        <time>2022-07-16T10:47:20Z</time>
      </trkpt>
      <trkpt lat="45.63447" lon="6.63725">
        <ele>2399</ele>
        <time>2022-07-16T10:47:21Z</time>
      </trkpt>
      <trkpt lat="45.63448" lon="6.63726">
        <ele>2398</ele>
        <time>2022-07-16T10:47:22Z</time>
      </trkpt>
      <trkpt lat="45.63448" lon="6.63727">
        <ele>2398</ele>
        <time>2022-07-16T10:47:23Z</time>
      </trkpt>
      <trkpt lat="45.63457" lon="6.63732">
        <ele>2396</ele>
        <time>2022-07-16T10:47:30Z</time>
      </trkpt>
      <trkpt lat="45.63466" lon="6.6374">
        <ele>2394</ele>
        <time>2022-07-16T10:47:35Z</time>
      </trkpt>
      <trkpt lat="45.63466" lon="6.63741">
        <ele>2394</ele>
        <time>2022-07-16T10:47:38Z</time>
      </trkpt>
      <trkpt lat="45.63467" lon="6.63742">
        <ele>2393</ele>
        <time>2022-07-16T10:47:39Z</time>
      </trkpt>
      <trkpt lat="45.63468" lon="6.63742">
        <ele>2393</ele>
        <time>2022-07-16T10:47:40Z</time>
      </trkpt>
      <trkpt lat="45.63469" lon="6.63743">
        <ele>2393</ele>
        <time>2022-07-16T10:47:41Z</time>
      </trkpt>
      <trkpt lat="45.6347" lon="6.63744">
        <ele>2392</ele>
        <time>2022-07-16T10:47:42Z</time>
      </trkpt>
      <trkpt lat="45.63471" lon="6.63745">
        <ele>2392</ele>
        <time>2022-07-16T10:47:43Z</time>
      </trkpt>
      <trkpt lat="45.63472" lon="6.63746">
        <ele>2392</ele>
        <time>2022-07-16T10:47:44Z</time>
      </trkpt>
      <trkpt lat="45.63473" lon="6.63747">
        <ele>2391</ele>
        <time>2022-07-16T10:47:45Z</time>
      </trkpt>
      <trkpt lat="45.63473" lon="6.63748">
        <ele>2391</ele>
        <time>2022-07-16T10:47:46Z</time>
      </trkpt>
      <trkpt lat="45.63474" lon="6.63749">
        <ele>2390</ele>
        <time>2022-07-16T10:47:47Z</time>
      </trkpt>
      <trkpt lat="45.63474" lon="6.6375">
        <ele>2390</ele>
        <time>2022-07-16T10:47:49Z</time>
      </trkpt>
      <trkpt lat="45.63475" lon="6.63751">
        <ele>2390</ele>
        <time>2022-07-16T10:47:50Z</time>
      </trkpt>
      <trkpt lat="45.63475" lon="6.63752">
        <ele>2389</ele>
        <time>2022-07-16T10:47:52Z</time>
      </trkpt>
      <trkpt lat="45.63476" lon="6.63753">
        <ele>2389</ele>
        <time>2022-07-16T10:47:54Z</time>
      </trkpt>
      <trkpt lat="45.63476" lon="6.63754">
        <ele>2388</ele>
        <time>2022-07-16T10:47:55Z</time>
      </trkpt>
      <trkpt lat="45.6348" lon="6.63761">
        <ele>2388</ele>
        <time>2022-07-16T10:47:57Z</time>
      </trkpt>
      <trkpt lat="45.63481" lon="6.63762">
        <ele>2387</ele>
        <time>2022-07-16T10:47:58Z</time>
      </trkpt>
      <trkpt lat="45.63482" lon="6.63763">
        <ele>2387</ele>
        <time>2022-07-16T10:47:59Z</time>
      </trkpt>
      <trkpt lat="45.63483" lon="6.63763">
        <ele>2386</ele>
        <time>2022-07-16T10:48:00Z</time>
      </trkpt>
      <trkpt lat="45.63484" lon="6.63764">
        <ele>2386</ele>
        <time>2022-07-16T10:48:01Z</time>
      </trkpt>
      <trkpt lat="45.63485" lon="6.63765">
        <ele>2386</ele>
        <time>2022-07-16T10:48:02Z</time>
      </trkpt>
      <trkpt lat="45.63487" lon="6.63766">
        <ele>2386</ele>
        <time>2022-07-16T10:48:03Z</time>
      </trkpt>
      <trkpt lat="45.63488" lon="6.63767">
        <ele>2385</ele>
        <time>2022-07-16T10:48:04Z</time>
      </trkpt>
      <trkpt lat="45.63489" lon="6.63768">
        <ele>2385</ele>
        <time>2022-07-16T10:48:05Z</time>
      </trkpt>
      <trkpt lat="45.6349" lon="6.63769">
        <ele>2384</ele>
        <time>2022-07-16T10:48:06Z</time>
      </trkpt>
      <trkpt lat="45.63491" lon="6.63769">
        <ele>2384</ele>
        <time>2022-07-16T10:48:08Z</time>
      </trkpt>
      <trkpt lat="45.63492" lon="6.6377">
        <ele>2384</ele>
        <time>2022-07-16T10:48:09Z</time>
      </trkpt>
      <trkpt lat="45.63493" lon="6.63771">
        <ele>2384</ele>
        <time>2022-07-16T10:48:10Z</time>
      </trkpt>
      <trkpt lat="45.63494" lon="6.63772">
        <ele>2384</ele>
        <time>2022-07-16T10:48:11Z</time>
      </trkpt>
      <trkpt lat="45.63495" lon="6.63773">
        <ele>2384</ele>
        <time>2022-07-16T10:48:12Z</time>
      </trkpt>
      <trkpt lat="45.63496" lon="6.63774">
        <ele>2383</ele>
        <time>2022-07-16T10:48:13Z</time>
      </trkpt>
      <trkpt lat="45.63499" lon="6.63787">
        <ele>2381</ele>
        <time>2022-07-16T10:48:18Z</time>
      </trkpt>
      <trkpt lat="45.635" lon="6.63789">
        <ele>2380</ele>
        <time>2022-07-16T10:48:21Z</time>
      </trkpt>
      <trkpt lat="45.635" lon="6.63791">
        <ele>2380</ele>
        <time>2022-07-16T10:48:22Z</time>
      </trkpt>
      <trkpt lat="45.63501" lon="6.63793">
        <ele>2380</ele>
        <time>2022-07-16T10:48:23Z</time>
      </trkpt>
      <trkpt lat="45.63501" lon="6.63796">
        <ele>2379</ele>
        <time>2022-07-16T10:48:24Z</time>
      </trkpt>
      <trkpt lat="45.63502" lon="6.63798">
        <ele>2379</ele>
        <time>2022-07-16T10:48:25Z</time>
      </trkpt>
      <trkpt lat="45.63502" lon="6.638">
        <ele>2379</ele>
        <time>2022-07-16T10:48:26Z</time>
      </trkpt>
      <trkpt lat="45.63503" lon="6.63801">
        <ele>2379</ele>
        <time>2022-07-16T10:48:27Z</time>
      </trkpt>
      <trkpt lat="45.63503" lon="6.63803">
        <ele>2379</ele>
        <time>2022-07-16T10:48:28Z</time>
      </trkpt>
      <trkpt lat="45.63504" lon="6.63804">
        <ele>2378</ele>
        <time>2022-07-16T10:48:29Z</time>
      </trkpt>
      <trkpt lat="45.63505" lon="6.63806">
        <ele>2376</ele>
        <time>2022-07-16T10:48:30Z</time>
      </trkpt>
      <trkpt lat="45.63505" lon="6.63808">
        <ele>2375</ele>
        <time>2022-07-16T10:48:31Z</time>
      </trkpt>
      <trkpt lat="45.63506" lon="6.63809">
        <ele>2375</ele>
        <time>2022-07-16T10:48:32Z</time>
      </trkpt>
      <trkpt lat="45.63507" lon="6.63811">
        <ele>2375</ele>
        <time>2022-07-16T10:48:33Z</time>
      </trkpt>
      <trkpt lat="45.63507" lon="6.63812">
        <ele>2375</ele>
        <time>2022-07-16T10:48:34Z</time>
      </trkpt>
      <trkpt lat="45.63508" lon="6.63813">
        <ele>2375</ele>
        <time>2022-07-16T10:48:35Z</time>
      </trkpt>
      <trkpt lat="45.63509" lon="6.63814">
        <ele>2374</ele>
        <time>2022-07-16T10:48:36Z</time>
      </trkpt>
      <trkpt lat="45.6351" lon="6.63815">
        <ele>2374</ele>
        <time>2022-07-16T10:48:37Z</time>
      </trkpt>
      <trkpt lat="45.63511" lon="6.63816">
        <ele>2374</ele>
        <time>2022-07-16T10:48:38Z</time>
      </trkpt>
      <trkpt lat="45.63512" lon="6.63817">
        <ele>2374</ele>
        <time>2022-07-16T10:48:39Z</time>
      </trkpt>
      <trkpt lat="45.63513" lon="6.63818">
        <ele>2373</ele>
        <time>2022-07-16T10:48:40Z</time>
      </trkpt>
      <trkpt lat="45.63513" lon="6.63819">
        <ele>2373</ele>
        <time>2022-07-16T10:48:41Z</time>
      </trkpt>
      <trkpt lat="45.63514" lon="6.6382">
        <ele>2373</ele>
        <time>2022-07-16T10:48:42Z</time>
      </trkpt>
      <trkpt lat="45.63515" lon="6.63821">
        <ele>2373</ele>
        <time>2022-07-16T10:48:43Z</time>
      </trkpt>
      <trkpt lat="45.63516" lon="6.63822">
        <ele>2373</ele>
        <time>2022-07-16T10:48:44Z</time>
      </trkpt>
      <trkpt lat="45.63517" lon="6.63823">
        <ele>2373</ele>
        <time>2022-07-16T10:48:46Z</time>
      </trkpt>
      <trkpt lat="45.63517" lon="6.63824">
        <ele>2373</ele>
        <time>2022-07-16T10:48:47Z</time>
      </trkpt>
      <trkpt lat="45.63518" lon="6.63825">
        <ele>2373</ele>
        <time>2022-07-16T10:48:48Z</time>
      </trkpt>
      <trkpt lat="45.63519" lon="6.63826">
        <ele>2373</ele>
        <time>2022-07-16T10:48:49Z</time>
      </trkpt>
      <trkpt lat="45.6352" lon="6.63827">
        <ele>2373</ele>
        <time>2022-07-16T10:48:50Z</time>
      </trkpt>
      <trkpt lat="45.6352" lon="6.63828">
        <ele>2373</ele>
        <time>2022-07-16T10:48:51Z</time>
      </trkpt>
      <trkpt lat="45.63521" lon="6.63829">
        <ele>2373</ele>
        <time>2022-07-16T10:48:52Z</time>
      </trkpt>
      <trkpt lat="45.63522" lon="6.63829">
        <ele>2373</ele>
        <time>2022-07-16T10:48:53Z</time>
      </trkpt>
      <trkpt lat="45.63523" lon="6.63831">
        <ele>2373</ele>
        <time>2022-07-16T10:48:54Z</time>
      </trkpt>
      <trkpt lat="45.63523" lon="6.63833">
        <ele>2373</ele>
        <time>2022-07-16T10:48:55Z</time>
      </trkpt>
      <trkpt lat="45.63524" lon="6.63835">
        <ele>2372</ele>
        <time>2022-07-16T10:48:56Z</time>
      </trkpt>
      <trkpt lat="45.63524" lon="6.63837">
        <ele>2372</ele>
        <time>2022-07-16T10:48:57Z</time>
      </trkpt>
      <trkpt lat="45.63525" lon="6.63838">
        <ele>2372</ele>
        <time>2022-07-16T10:48:58Z</time>
      </trkpt>
      <trkpt lat="45.63525" lon="6.6384">
        <ele>2372</ele>
        <time>2022-07-16T10:48:59Z</time>
      </trkpt>
      <trkpt lat="45.63526" lon="6.63842">
        <ele>2372</ele>
        <time>2022-07-16T10:49:00Z</time>
      </trkpt>
      <trkpt lat="45.63527" lon="6.63844">
        <ele>2372</ele>
        <time>2022-07-16T10:49:01Z</time>
      </trkpt>
      <trkpt lat="45.63528" lon="6.63846">
        <ele>2372</ele>
        <time>2022-07-16T10:49:02Z</time>
      </trkpt>
      <trkpt lat="45.63529" lon="6.63848">
        <ele>2372</ele>
        <time>2022-07-16T10:49:03Z</time>
      </trkpt>
      <trkpt lat="45.6353" lon="6.6385">
        <ele>2372</ele>
        <time>2022-07-16T10:49:04Z</time>
      </trkpt>
      <trkpt lat="45.63531" lon="6.63852">
        <ele>2372</ele>
        <time>2022-07-16T10:49:05Z</time>
      </trkpt>
      <trkpt lat="45.63532" lon="6.63854">
        <ele>2372</ele>
        <time>2022-07-16T10:49:06Z</time>
      </trkpt>
      <trkpt lat="45.63533" lon="6.63855">
        <ele>2372</ele>
        <time>2022-07-16T10:49:07Z</time>
      </trkpt>
      <trkpt lat="45.63534" lon="6.63856">
        <ele>2372</ele>
        <time>2022-07-16T10:49:08Z</time>
      </trkpt>
      <trkpt lat="45.63535" lon="6.63857">
        <ele>2372</ele>
        <time>2022-07-16T10:49:09Z</time>
      </trkpt>
      <trkpt lat="45.63535" lon="6.63859">
        <ele>2371</ele>
        <time>2022-07-16T10:49:10Z</time>
      </trkpt>
      <trkpt lat="45.63536" lon="6.6386">
        <ele>2371</ele>
        <time>2022-07-16T10:49:11Z</time>
      </trkpt>
      <trkpt lat="45.63537" lon="6.63861">
        <ele>2371</ele>
        <time>2022-07-16T10:49:12Z</time>
      </trkpt>
      <trkpt lat="45.63538" lon="6.63862">
        <ele>2371</ele>
        <time>2022-07-16T10:49:13Z</time>
      </trkpt>
      <trkpt lat="45.63539" lon="6.63863">
        <ele>2370</ele>
        <time>2022-07-16T10:49:14Z</time>
      </trkpt>
      <trkpt lat="45.6354" lon="6.63865">
        <ele>2369</ele>
        <time>2022-07-16T10:49:15Z</time>
      </trkpt>
      <trkpt lat="45.63541" lon="6.63867">
        <ele>2369</ele>
        <time>2022-07-16T10:49:16Z</time>
      </trkpt>
      <trkpt lat="45.63541" lon="6.63868">
        <ele>2369</ele>
        <time>2022-07-16T10:49:17Z</time>
      </trkpt>
      <trkpt lat="45.63542" lon="6.6387">
        <ele>2369</ele>
        <time>2022-07-16T10:49:18Z</time>
      </trkpt>
      <trkpt lat="45.63543" lon="6.63872">
        <ele>2369</ele>
        <time>2022-07-16T10:49:19Z</time>
      </trkpt>
      <trkpt lat="45.63544" lon="6.63873">
        <ele>2369</ele>
        <time>2022-07-16T10:49:20Z</time>
      </trkpt>
      <trkpt lat="45.63545" lon="6.63875">
        <ele>2368</ele>
        <time>2022-07-16T10:49:21Z</time>
      </trkpt>
      <trkpt lat="45.63546" lon="6.63876">
        <ele>2368</ele>
        <time>2022-07-16T10:49:22Z</time>
      </trkpt>
      <trkpt lat="45.63547" lon="6.63878">
        <ele>2368</ele>
        <time>2022-07-16T10:49:23Z</time>
      </trkpt>
      <trkpt lat="45.63548" lon="6.63879">
        <ele>2368</ele>
        <time>2022-07-16T10:49:24Z</time>
      </trkpt>
      <trkpt lat="45.63549" lon="6.63881">
        <ele>2366</ele>
        <time>2022-07-16T10:49:25Z</time>
      </trkpt>
      <trkpt lat="45.63551" lon="6.63882">
        <ele>2365</ele>
        <time>2022-07-16T10:49:26Z</time>
      </trkpt>
      <trkpt lat="45.63552" lon="6.63884">
        <ele>2365</ele>
        <time>2022-07-16T10:49:27Z</time>
      </trkpt>
      <trkpt lat="45.63553" lon="6.63885">
        <ele>2365</ele>
        <time>2022-07-16T10:49:28Z</time>
      </trkpt>
      <trkpt lat="45.63554" lon="6.63886">
        <ele>2366</ele>
        <time>2022-07-16T10:49:29Z</time>
      </trkpt>
      <trkpt lat="45.63555" lon="6.63887">
        <ele>2366</ele>
        <time>2022-07-16T10:49:30Z</time>
      </trkpt>
      <trkpt lat="45.63556" lon="6.63888">
        <ele>2366</ele>
        <time>2022-07-16T10:49:31Z</time>
      </trkpt>
      <trkpt lat="45.63557" lon="6.63889">
        <ele>2366</ele>
        <time>2022-07-16T10:49:32Z</time>
      </trkpt>
      <trkpt lat="45.63558" lon="6.6389">
        <ele>2366</ele>
        <time>2022-07-16T10:49:33Z</time>
      </trkpt>
      <trkpt lat="45.63558" lon="6.63891">
        <ele>2366</ele>
        <time>2022-07-16T10:49:34Z</time>
      </trkpt>
      <trkpt lat="45.63559" lon="6.63892">
        <ele>2366</ele>
        <time>2022-07-16T10:49:35Z</time>
      </trkpt>
      <trkpt lat="45.63568" lon="6.63896">
        <ele>2365</ele>
        <time>2022-07-16T10:49:43Z</time>
      </trkpt>
      <trkpt lat="45.63569" lon="6.63897">
        <ele>2365</ele>
        <time>2022-07-16T10:49:44Z</time>
      </trkpt>
      <trkpt lat="45.63571" lon="6.63898">
        <ele>2364</ele>
        <time>2022-07-16T10:49:45Z</time>
      </trkpt>
      <trkpt lat="45.63572" lon="6.63898">
        <ele>2363</ele>
        <time>2022-07-16T10:49:46Z</time>
      </trkpt>
      <trkpt lat="45.63573" lon="6.63899">
        <ele>2363</ele>
        <time>2022-07-16T10:49:47Z</time>
      </trkpt>
      <trkpt lat="45.63574" lon="6.639">
        <ele>2363</ele>
        <time>2022-07-16T10:49:48Z</time>
      </trkpt>
      <trkpt lat="45.63576" lon="6.63901">
        <ele>2363</ele>
        <time>2022-07-16T10:49:49Z</time>
      </trkpt>
      <trkpt lat="45.63577" lon="6.63901">
        <ele>2363</ele>
        <time>2022-07-16T10:49:50Z</time>
      </trkpt>
      <trkpt lat="45.63578" lon="6.63902">
        <ele>2363</ele>
        <time>2022-07-16T10:49:51Z</time>
      </trkpt>
      <trkpt lat="45.6358" lon="6.63903">
        <ele>2363</ele>
        <time>2022-07-16T10:49:52Z</time>
      </trkpt>
      <trkpt lat="45.63581" lon="6.63904">
        <ele>2363</ele>
        <time>2022-07-16T10:49:53Z</time>
      </trkpt>
      <trkpt lat="45.63583" lon="6.63905">
        <ele>2363</ele>
        <time>2022-07-16T10:49:54Z</time>
      </trkpt>
      <trkpt lat="45.63584" lon="6.63906">
        <ele>2363</ele>
        <time>2022-07-16T10:49:55Z</time>
      </trkpt>
      <trkpt lat="45.63586" lon="6.63907">
        <ele>2363</ele>
        <time>2022-07-16T10:49:56Z</time>
      </trkpt>
      <trkpt lat="45.63587" lon="6.63907">
        <ele>2363</ele>
        <time>2022-07-16T10:49:57Z</time>
      </trkpt>
      <trkpt lat="45.63588" lon="6.63907">
        <ele>2362</ele>
        <time>2022-07-16T10:49:58Z</time>
      </trkpt>
      <trkpt lat="45.63589" lon="6.63908">
        <ele>2362</ele>
        <time>2022-07-16T10:49:59Z</time>
      </trkpt>
      <trkpt lat="45.6359" lon="6.63908">
        <ele>2361</ele>
        <time>2022-07-16T10:50:00Z</time>
      </trkpt>
      <trkpt lat="45.63591" lon="6.63908">
        <ele>2361</ele>
        <time>2022-07-16T10:50:01Z</time>
      </trkpt>
      <trkpt lat="45.63592" lon="6.63909">
        <ele>2361</ele>
        <time>2022-07-16T10:50:02Z</time>
      </trkpt>
      <trkpt lat="45.63593" lon="6.63909">
        <ele>2361</ele>
        <time>2022-07-16T10:50:03Z</time>
      </trkpt>
      <trkpt lat="45.63594" lon="6.63909">
        <ele>2361</ele>
        <time>2022-07-16T10:50:04Z</time>
      </trkpt>
      <trkpt lat="45.63595" lon="6.6391">
        <ele>2361</ele>
        <time>2022-07-16T10:50:05Z</time>
      </trkpt>
      <trkpt lat="45.63595" lon="6.63909">
        <ele>2361</ele>
        <time>2022-07-16T10:50:06Z</time>
      </trkpt>
      <trkpt lat="45.63596" lon="6.63909">
        <ele>2361</ele>
        <time>2022-07-16T10:50:07Z</time>
      </trkpt>
      <trkpt lat="45.63597" lon="6.63909">
        <ele>2361</ele>
        <time>2022-07-16T10:50:08Z</time>
      </trkpt>
      <trkpt lat="45.63598" lon="6.63909">
        <ele>2361</ele>
        <time>2022-07-16T10:50:10Z</time>
      </trkpt>
      <trkpt lat="45.63599" lon="6.63909">
        <ele>2361</ele>
        <time>2022-07-16T10:50:11Z</time>
      </trkpt>
      <trkpt lat="45.636" lon="6.63909">
        <ele>2361</ele>
        <time>2022-07-16T10:50:13Z</time>
      </trkpt>
      <trkpt lat="45.63601" lon="6.63909">
        <ele>2361</ele>
        <time>2022-07-16T10:50:14Z</time>
      </trkpt>
      <trkpt lat="45.63602" lon="6.63909">
        <ele>2361</ele>
        <time>2022-07-16T10:50:16Z</time>
      </trkpt>
      <trkpt lat="45.63603" lon="6.63909">
        <ele>2361</ele>
        <time>2022-07-16T10:50:17Z</time>
      </trkpt>
      <trkpt lat="45.63603" lon="6.63908">
        <ele>2361</ele>
        <time>2022-07-16T10:50:18Z</time>
      </trkpt>
      <trkpt lat="45.63604" lon="6.63908">
        <ele>2361</ele>
        <time>2022-07-16T10:50:19Z</time>
      </trkpt>
      <trkpt lat="45.63613" lon="6.63907">
        <ele>2361</ele>
        <time>2022-07-16T10:50:28Z</time>
      </trkpt>
      <trkpt lat="45.63615" lon="6.63906">
        <ele>2361</ele>
        <time>2022-07-16T10:50:31Z</time>
      </trkpt>
      <trkpt lat="45.63618" lon="6.63906">
        <ele>2361</ele>
        <time>2022-07-16T10:50:32Z</time>
      </trkpt>
      <trkpt lat="45.6362" lon="6.63905">
        <ele>2361</ele>
        <time>2022-07-16T10:50:33Z</time>
      </trkpt>
      <trkpt lat="45.63623" lon="6.63905">
        <ele>2361</ele>
        <time>2022-07-16T10:50:34Z</time>
      </trkpt>
      <trkpt lat="45.63634" lon="6.63905">
        <ele>2361</ele>
        <time>2022-07-16T10:50:38Z</time>
      </trkpt>
      <trkpt lat="45.63635" lon="6.63905">
        <ele>2361</ele>
        <time>2022-07-16T10:50:41Z</time>
      </trkpt>
      <trkpt lat="45.63637" lon="6.63905">
        <ele>2361</ele>
        <time>2022-07-16T10:50:42Z</time>
      </trkpt>
      <trkpt lat="45.63639" lon="6.63905">
        <ele>2361</ele>
        <time>2022-07-16T10:50:43Z</time>
      </trkpt>
      <trkpt lat="45.6364" lon="6.63905">
        <ele>2361</ele>
        <time>2022-07-16T10:50:44Z</time>
      </trkpt>
      <trkpt lat="45.63642" lon="6.63905">
        <ele>2361</ele>
        <time>2022-07-16T10:50:45Z</time>
      </trkpt>
      <trkpt lat="45.63644" lon="6.63905">
        <ele>2361</ele>
        <time>2022-07-16T10:50:46Z</time>
      </trkpt>
      <trkpt lat="45.63645" lon="6.63906">
        <ele>2361</ele>
        <time>2022-07-16T10:50:47Z</time>
      </trkpt>
      <trkpt lat="45.63647" lon="6.63907">
        <ele>2361</ele>
        <time>2022-07-16T10:50:48Z</time>
      </trkpt>
      <trkpt lat="45.63648" lon="6.63908">
        <ele>2361</ele>
        <time>2022-07-16T10:50:49Z</time>
      </trkpt>
      <trkpt lat="45.63649" lon="6.63909">
        <ele>2361</ele>
        <time>2022-07-16T10:50:50Z</time>
      </trkpt>
      <trkpt lat="45.63651" lon="6.6391">
        <ele>2361</ele>
        <time>2022-07-16T10:50:51Z</time>
      </trkpt>
      <trkpt lat="45.63652" lon="6.63912">
        <ele>2361</ele>
        <time>2022-07-16T10:50:52Z</time>
      </trkpt>
      <trkpt lat="45.63653" lon="6.63913">
        <ele>2361</ele>
        <time>2022-07-16T10:50:53Z</time>
      </trkpt>
      <trkpt lat="45.63654" lon="6.63914">
        <ele>2361</ele>
        <time>2022-07-16T10:50:54Z</time>
      </trkpt>
      <trkpt lat="45.63655" lon="6.63915">
        <ele>2361</ele>
        <time>2022-07-16T10:50:55Z</time>
      </trkpt>
      <trkpt lat="45.63656" lon="6.63916">
        <ele>2361</ele>
        <time>2022-07-16T10:50:56Z</time>
      </trkpt>
      <trkpt lat="45.63657" lon="6.63917">
        <ele>2361</ele>
        <time>2022-07-16T10:50:57Z</time>
      </trkpt>
      <trkpt lat="45.63659" lon="6.63918">
        <ele>2361</ele>
        <time>2022-07-16T10:50:58Z</time>
      </trkpt>
      <trkpt lat="45.6366" lon="6.63919">
        <ele>2361</ele>
        <time>2022-07-16T10:50:59Z</time>
      </trkpt>
      <trkpt lat="45.63661" lon="6.63921">
        <ele>2361</ele>
        <time>2022-07-16T10:51:00Z</time>
      </trkpt>
      <trkpt lat="45.63662" lon="6.63922">
        <ele>2361</ele>
        <time>2022-07-16T10:51:01Z</time>
      </trkpt>
      <trkpt lat="45.63663" lon="6.63924">
        <ele>2361</ele>
        <time>2022-07-16T10:51:02Z</time>
      </trkpt>
      <trkpt lat="45.63664" lon="6.63925">
        <ele>2361</ele>
        <time>2022-07-16T10:51:03Z</time>
      </trkpt>
      <trkpt lat="45.63665" lon="6.63926">
        <ele>2361</ele>
        <time>2022-07-16T10:51:04Z</time>
      </trkpt>
      <trkpt lat="45.63667" lon="6.63928">
        <ele>2361</ele>
        <time>2022-07-16T10:51:06Z</time>
      </trkpt>
      <trkpt lat="45.63669" lon="6.63929">
        <ele>2362</ele>
        <time>2022-07-16T10:51:07Z</time>
      </trkpt>
      <trkpt lat="45.6367" lon="6.6393">
        <ele>2362</ele>
        <time>2022-07-16T10:51:08Z</time>
      </trkpt>
      <trkpt lat="45.63671" lon="6.63931">
        <ele>2361</ele>
        <time>2022-07-16T10:51:09Z</time>
      </trkpt>
      <trkpt lat="45.63672" lon="6.63932">
        <ele>2361</ele>
        <time>2022-07-16T10:51:10Z</time>
      </trkpt>
      <trkpt lat="45.63673" lon="6.63933">
        <ele>2361</ele>
        <time>2022-07-16T10:51:11Z</time>
      </trkpt>
      <trkpt lat="45.63674" lon="6.63934">
        <ele>2361</ele>
        <time>2022-07-16T10:51:12Z</time>
      </trkpt>
      <trkpt lat="45.63676" lon="6.63935">
        <ele>2362</ele>
        <time>2022-07-16T10:51:13Z</time>
      </trkpt>
      <trkpt lat="45.63677" lon="6.63936">
        <ele>2362</ele>
        <time>2022-07-16T10:51:14Z</time>
      </trkpt>
      <trkpt lat="45.63678" lon="6.63937">
        <ele>2362</ele>
        <time>2022-07-16T10:51:15Z</time>
      </trkpt>
      <trkpt lat="45.63679" lon="6.63938">
        <ele>2362</ele>
        <time>2022-07-16T10:51:16Z</time>
      </trkpt>
      <trkpt lat="45.63681" lon="6.63939">
        <ele>2362</ele>
        <time>2022-07-16T10:51:18Z</time>
      </trkpt>
      <trkpt lat="45.63682" lon="6.6394">
        <ele>2362</ele>
        <time>2022-07-16T10:51:19Z</time>
      </trkpt>
      <trkpt lat="45.63683" lon="6.63941">
        <ele>2362</ele>
        <time>2022-07-16T10:51:20Z</time>
      </trkpt>
      <trkpt lat="45.63684" lon="6.63942">
        <ele>2362</ele>
        <time>2022-07-16T10:51:21Z</time>
      </trkpt>
      <trkpt lat="45.63686" lon="6.63942">
        <ele>2362</ele>
        <time>2022-07-16T10:51:22Z</time>
      </trkpt>
      <trkpt lat="45.63688" lon="6.63942">
        <ele>2362</ele>
        <time>2022-07-16T10:51:23Z</time>
      </trkpt>
      <trkpt lat="45.63689" lon="6.63942">
        <ele>2362</ele>
        <time>2022-07-16T10:51:24Z</time>
      </trkpt>
      <trkpt lat="45.63691" lon="6.63943">
        <ele>2362</ele>
        <time>2022-07-16T10:51:25Z</time>
      </trkpt>
      <trkpt lat="45.63692" lon="6.63943">
        <ele>2361</ele>
        <time>2022-07-16T10:51:26Z</time>
      </trkpt>
      <trkpt lat="45.63694" lon="6.63943">
        <ele>2361</ele>
        <time>2022-07-16T10:51:27Z</time>
      </trkpt>
      <trkpt lat="45.63704" lon="6.63941">
        <ele>2361</ele>
        <time>2022-07-16T10:51:33Z</time>
      </trkpt>
      <trkpt lat="45.63705" lon="6.63941">
        <ele>2361</ele>
        <time>2022-07-16T10:51:36Z</time>
      </trkpt>
      <trkpt lat="45.63707" lon="6.63941">
        <ele>2361</ele>
        <time>2022-07-16T10:51:37Z</time>
      </trkpt>
      <trkpt lat="45.63708" lon="6.63941">
        <ele>2361</ele>
        <time>2022-07-16T10:51:38Z</time>
      </trkpt>
      <trkpt lat="45.63709" lon="6.63941">
        <ele>2361</ele>
        <time>2022-07-16T10:51:39Z</time>
      </trkpt>
      <trkpt lat="45.63711" lon="6.63941">
        <ele>2361</ele>
        <time>2022-07-16T10:51:40Z</time>
      </trkpt>
      <trkpt lat="45.63712" lon="6.63941">
        <ele>2361</ele>
        <time>2022-07-16T10:51:41Z</time>
      </trkpt>
      <trkpt lat="45.63713" lon="6.63941">
        <ele>2361</ele>
        <time>2022-07-16T10:51:42Z</time>
      </trkpt>
      <trkpt lat="45.63714" lon="6.63941">
        <ele>2361</ele>
        <time>2022-07-16T10:51:43Z</time>
      </trkpt>
      <trkpt lat="45.63715" lon="6.63941">
        <ele>2361</ele>
        <time>2022-07-16T10:51:44Z</time>
      </trkpt>
      <trkpt lat="45.63716" lon="6.6394">
        <ele>2361</ele>
        <time>2022-07-16T10:51:45Z</time>
      </trkpt>
      <trkpt lat="45.63717" lon="6.6394">
        <ele>2361</ele>
        <time>2022-07-16T10:51:46Z</time>
      </trkpt>
      <trkpt lat="45.63718" lon="6.6394">
        <ele>2361</ele>
        <time>2022-07-16T10:51:47Z</time>
      </trkpt>
      <trkpt lat="45.63719" lon="6.6394">
        <ele>2361</ele>
        <time>2022-07-16T10:51:48Z</time>
      </trkpt>
      <trkpt lat="45.6372" lon="6.63939">
        <ele>2361</ele>
        <time>2022-07-16T10:51:49Z</time>
      </trkpt>
      <trkpt lat="45.63721" lon="6.63939">
        <ele>2361</ele>
        <time>2022-07-16T10:51:50Z</time>
      </trkpt>
      <trkpt lat="45.63722" lon="6.63939">
        <ele>2361</ele>
        <time>2022-07-16T10:51:51Z</time>
      </trkpt>
      <trkpt lat="45.63723" lon="6.63939">
        <ele>2361</ele>
        <time>2022-07-16T10:51:53Z</time>
      </trkpt>
      <trkpt lat="45.63723" lon="6.6394">
        <ele>2361</ele>
        <time>2022-07-16T10:51:54Z</time>
      </trkpt>
      <trkpt lat="45.63723" lon="6.63941">
        <ele>2361</ele>
        <time>2022-07-16T10:51:57Z</time>
      </trkpt>
      <trkpt lat="45.63724" lon="6.63941">
        <ele>2361</ele>
        <time>2022-07-16T10:51:58Z</time>
      </trkpt>
      <trkpt lat="45.63724" lon="6.63942">
        <ele>2360</ele>
        <time>2022-07-16T10:52:00Z</time>
      </trkpt>
      <trkpt lat="45.63724" lon="6.63943">
        <ele>2360</ele>
        <time>2022-07-16T10:52:02Z</time>
      </trkpt>
      <trkpt lat="45.63725" lon="6.63943">
        <ele>2360</ele>
        <time>2022-07-16T10:52:03Z</time>
      </trkpt>
      <trkpt lat="45.63725" lon="6.63944">
        <ele>2360</ele>
        <time>2022-07-16T10:52:04Z</time>
      </trkpt>
      <trkpt lat="45.63725" lon="6.63945">
        <ele>2360</ele>
        <time>2022-07-16T10:52:06Z</time>
      </trkpt>
      <trkpt lat="45.63726" lon="6.63945">
        <ele>2360</ele>
        <time>2022-07-16T10:52:07Z</time>
      </trkpt>
      <trkpt lat="45.63726" lon="6.63946">
        <ele>2360</ele>
        <time>2022-07-16T10:52:08Z</time>
      </trkpt>
      <trkpt lat="45.63726" lon="6.63947">
        <ele>2360</ele>
        <time>2022-07-16T10:52:12Z</time>
      </trkpt>
      <trkpt lat="45.63726" lon="6.63948">
        <ele>2360</ele>
        <time>2022-07-16T10:52:20Z</time>
      </trkpt>
      <trkpt lat="45.63725" lon="6.63948">
        <ele>2359</ele>
        <time>2022-07-16T10:52:25Z</time>
      </trkpt>
      <trkpt lat="45.63725" lon="6.63949">
        <ele>2359</ele>
        <time>2022-07-16T10:52:27Z</time>
      </trkpt>
      <trkpt lat="45.63725" lon="6.6395">
        <ele>2359</ele>
        <time>2022-07-16T10:52:34Z</time>
      </trkpt>
      <trkpt lat="45.63725" lon="6.63951">
        <ele>2359</ele>
        <time>2022-07-16T10:52:41Z</time>
      </trkpt>
      <trkpt lat="45.63725" lon="6.63952">
        <ele>2360</ele>
        <time>2022-07-16T10:52:47Z</time>
      </trkpt>
      <trkpt lat="45.63725" lon="6.63952">
        <ele>2362</ele>
        <time>2022-07-16T10:52:52Z</time>
      </trkpt>
      <trkpt lat="45.63725" lon="6.63953">
        <ele>2362</ele>
        <time>2022-07-16T10:52:54Z</time>
      </trkpt>
      <trkpt lat="45.63724" lon="6.63953">
        <ele>2362</ele>
        <time>2022-07-16T10:52:58Z</time>
      </trkpt>
      <trkpt lat="45.63725" lon="6.63955">
        <ele>2361</ele>
        <time>2022-07-16T10:53:00Z</time>
      </trkpt>
      <trkpt lat="45.63725" lon="6.63956">
        <ele>2361</ele>
        <time>2022-07-16T10:53:01Z</time>
      </trkpt>
      <trkpt lat="45.63725" lon="6.63957">
        <ele>2361</ele>
        <time>2022-07-16T10:53:02Z</time>
      </trkpt>
      <trkpt lat="45.63725" lon="6.63958">
        <ele>2361</ele>
        <time>2022-07-16T10:53:03Z</time>
      </trkpt>
      <trkpt lat="45.63725" lon="6.63959">
        <ele>2362</ele>
        <time>2022-07-16T10:53:04Z</time>
      </trkpt>
      <trkpt lat="45.63725" lon="6.63961">
        <ele>2362</ele>
        <time>2022-07-16T10:53:05Z</time>
      </trkpt>
      <trkpt lat="45.63725" lon="6.63962">
        <ele>2362</ele>
        <time>2022-07-16T10:53:06Z</time>
      </trkpt>
      <trkpt lat="45.63725" lon="6.63963">
        <ele>2362</ele>
        <time>2022-07-16T10:53:07Z</time>
      </trkpt>
      <trkpt lat="45.63725" lon="6.63964">
        <ele>2362</ele>
        <time>2022-07-16T10:53:08Z</time>
      </trkpt>
      <trkpt lat="45.63727" lon="6.63967">
        <ele>2362</ele>
        <time>2022-07-16T10:53:10Z</time>
      </trkpt>
      <trkpt lat="45.63728" lon="6.6397">
        <ele>2362</ele>
        <time>2022-07-16T10:53:12Z</time>
      </trkpt>
      <trkpt lat="45.63728" lon="6.63973">
        <ele>2364</ele>
        <time>2022-07-16T10:53:17Z</time>
      </trkpt>
      <trkpt lat="45.63728" lon="6.63976">
        <ele>2365</ele>
        <time>2022-07-16T10:53:20Z</time>
      </trkpt>
      <trkpt lat="45.63728" lon="6.63979">
        <ele>2365</ele>
        <time>2022-07-16T10:53:21Z</time>
      </trkpt>
      <trkpt lat="45.63727" lon="6.63982">
        <ele>2365</ele>
        <time>2022-07-16T10:53:24Z</time>
      </trkpt>
      <trkpt lat="45.63726" lon="6.63985">
        <ele>2366</ele>
        <time>2022-07-16T10:53:26Z</time>
      </trkpt>
      <trkpt lat="45.63725" lon="6.63987">
        <ele>2365</ele>
        <time>2022-07-16T10:53:29Z</time>
      </trkpt>
      <trkpt lat="45.63724" lon="6.63991">
        <ele>2366</ele>
        <time>2022-07-16T10:53:32Z</time>
      </trkpt>
      <trkpt lat="45.63723" lon="6.63993">
        <ele>2366</ele>
        <time>2022-07-16T10:53:35Z</time>
      </trkpt>
      <trkpt lat="45.63724" lon="6.63994">
        <ele>2367</ele>
        <time>2022-07-16T10:53:37Z</time>
      </trkpt>
      <trkpt lat="45.63724" lon="6.63995">
        <ele>2367</ele>
        <time>2022-07-16T10:53:38Z</time>
      </trkpt>
      <trkpt lat="45.63724" lon="6.63996">
        <ele>2367</ele>
        <time>2022-07-16T10:53:40Z</time>
      </trkpt>
      <trkpt lat="45.63724" lon="6.63997">
        <ele>2368</ele>
        <time>2022-07-16T10:53:41Z</time>
      </trkpt>
      <trkpt lat="45.63725" lon="6.63998">
        <ele>2368</ele>
        <time>2022-07-16T10:53:42Z</time>
      </trkpt>
      <trkpt lat="45.63725" lon="6.63999">
        <ele>2368</ele>
        <time>2022-07-16T10:53:44Z</time>
      </trkpt>
      <trkpt lat="45.63725" lon="6.64">
        <ele>2368</ele>
        <time>2022-07-16T10:53:45Z</time>
      </trkpt>
      <trkpt lat="45.63725" lon="6.64001">
        <ele>2369</ele>
        <time>2022-07-16T10:53:46Z</time>
      </trkpt>
      <trkpt lat="45.63726" lon="6.64001">
        <ele>2369</ele>
        <time>2022-07-16T10:53:47Z</time>
      </trkpt>
      <trkpt lat="45.63726" lon="6.64002">
        <ele>2369</ele>
        <time>2022-07-16T10:53:48Z</time>
      </trkpt>
      <trkpt lat="45.63726" lon="6.64003">
        <ele>2369</ele>
        <time>2022-07-16T10:53:49Z</time>
      </trkpt>
      <trkpt lat="45.63726" lon="6.64004">
        <ele>2369</ele>
        <time>2022-07-16T10:53:50Z</time>
      </trkpt>
      <trkpt lat="45.63727" lon="6.64009">
        <ele>2369</ele>
        <time>2022-07-16T10:53:53Z</time>
      </trkpt>
      <trkpt lat="45.63727" lon="6.6401">
        <ele>2369</ele>
        <time>2022-07-16T10:53:54Z</time>
      </trkpt>
      <trkpt lat="45.63728" lon="6.64012">
        <ele>2369</ele>
        <time>2022-07-16T10:53:55Z</time>
      </trkpt>
      <trkpt lat="45.63728" lon="6.64013">
        <ele>2369</ele>
        <time>2022-07-16T10:53:56Z</time>
      </trkpt>
      <trkpt lat="45.63728" lon="6.64015">
        <ele>2369</ele>
        <time>2022-07-16T10:53:57Z</time>
      </trkpt>
      <trkpt lat="45.63729" lon="6.64016">
        <ele>2369</ele>
        <time>2022-07-16T10:53:58Z</time>
      </trkpt>
      <trkpt lat="45.63729" lon="6.64018">
        <ele>2369</ele>
        <time>2022-07-16T10:53:59Z</time>
      </trkpt>
      <trkpt lat="45.63729" lon="6.64019">
        <ele>2369</ele>
        <time>2022-07-16T10:54:00Z</time>
      </trkpt>
      <trkpt lat="45.6373" lon="6.64021">
        <ele>2369</ele>
        <time>2022-07-16T10:54:01Z</time>
      </trkpt>
      <trkpt lat="45.6373" lon="6.64023">
        <ele>2369</ele>
        <time>2022-07-16T10:54:02Z</time>
      </trkpt>
      <trkpt lat="45.63731" lon="6.64024">
        <ele>2369</ele>
        <time>2022-07-16T10:54:03Z</time>
      </trkpt>
      <trkpt lat="45.63731" lon="6.64026">
        <ele>2369</ele>
        <time>2022-07-16T10:54:04Z</time>
      </trkpt>
      <trkpt lat="45.63732" lon="6.64027">
        <ele>2369</ele>
        <time>2022-07-16T10:54:05Z</time>
      </trkpt>
      <trkpt lat="45.63733" lon="6.64029">
        <ele>2369</ele>
        <time>2022-07-16T10:54:06Z</time>
      </trkpt>
      <trkpt lat="45.63733" lon="6.64031">
        <ele>2369</ele>
        <time>2022-07-16T10:54:07Z</time>
      </trkpt>
      <trkpt lat="45.63734" lon="6.64032">
        <ele>2369</ele>
        <time>2022-07-16T10:54:08Z</time>
      </trkpt>
      <trkpt lat="45.63735" lon="6.64034">
        <ele>2369</ele>
        <time>2022-07-16T10:54:09Z</time>
      </trkpt>
      <trkpt lat="45.63736" lon="6.64036">
        <ele>2369</ele>
        <time>2022-07-16T10:54:10Z</time>
      </trkpt>
      <trkpt lat="45.63736" lon="6.6405">
        <ele>2370</ele>
        <time>2022-07-16T10:54:16Z</time>
      </trkpt>
      <trkpt lat="45.63736" lon="6.64052">
        <ele>2369</ele>
        <time>2022-07-16T10:54:19Z</time>
      </trkpt>
      <trkpt lat="45.63737" lon="6.64054">
        <ele>2369</ele>
        <time>2022-07-16T10:54:20Z</time>
      </trkpt>
      <trkpt lat="45.63737" lon="6.64056">
        <ele>2369</ele>
        <time>2022-07-16T10:54:21Z</time>
      </trkpt>
      <trkpt lat="45.63737" lon="6.64059">
        <ele>2369</ele>
        <time>2022-07-16T10:54:22Z</time>
      </trkpt>
      <trkpt lat="45.63738" lon="6.64061">
        <ele>2369</ele>
        <time>2022-07-16T10:54:23Z</time>
      </trkpt>
      <trkpt lat="45.63738" lon="6.64063">
        <ele>2369</ele>
        <time>2022-07-16T10:54:24Z</time>
      </trkpt>
      <trkpt lat="45.63739" lon="6.64065">
        <ele>2369</ele>
        <time>2022-07-16T10:54:25Z</time>
      </trkpt>
      <trkpt lat="45.63739" lon="6.64067">
        <ele>2369</ele>
        <time>2022-07-16T10:54:26Z</time>
      </trkpt>
      <trkpt lat="45.63739" lon="6.64069">
        <ele>2369</ele>
        <time>2022-07-16T10:54:28Z</time>
      </trkpt>
      <trkpt lat="45.6374" lon="6.64072">
        <ele>2369</ele>
        <time>2022-07-16T10:54:29Z</time>
      </trkpt>
      <trkpt lat="45.6374" lon="6.64074">
        <ele>2369</ele>
        <time>2022-07-16T10:54:30Z</time>
      </trkpt>
      <trkpt lat="45.6374" lon="6.64076">
        <ele>2369</ele>
        <time>2022-07-16T10:54:31Z</time>
      </trkpt>
      <trkpt lat="45.63741" lon="6.64079">
        <ele>2369</ele>
        <time>2022-07-16T10:54:32Z</time>
      </trkpt>
      <trkpt lat="45.63742" lon="6.64082">
        <ele>2370</ele>
        <time>2022-07-16T10:54:35Z</time>
      </trkpt>
      <trkpt lat="45.63745" lon="6.64082">
        <ele>2370</ele>
        <time>2022-07-16T10:54:37Z</time>
      </trkpt>
      <trkpt lat="45.63747" lon="6.64083">
        <ele>2370</ele>
        <time>2022-07-16T10:54:39Z</time>
      </trkpt>
      <trkpt lat="45.63749" lon="6.64082">
        <ele>2371</ele>
        <time>2022-07-16T10:54:42Z</time>
      </trkpt>
      <trkpt lat="45.63751" lon="6.64082">
        <ele>2371</ele>
        <time>2022-07-16T10:54:43Z</time>
      </trkpt>
      <trkpt lat="45.63752" lon="6.64081">
        <ele>2372</ele>
        <time>2022-07-16T10:54:45Z</time>
      </trkpt>
      <trkpt lat="45.63753" lon="6.64081">
        <ele>2372</ele>
        <time>2022-07-16T10:54:47Z</time>
      </trkpt>
      <trkpt lat="45.63754" lon="6.64081">
        <ele>2372</ele>
        <time>2022-07-16T10:54:48Z</time>
      </trkpt>
      <trkpt lat="45.63755" lon="6.6408">
        <ele>2372</ele>
        <time>2022-07-16T10:54:49Z</time>
      </trkpt>
      <trkpt lat="45.63756" lon="6.6408">
        <ele>2373</ele>
        <time>2022-07-16T10:54:50Z</time>
      </trkpt>
      <trkpt lat="45.63757" lon="6.64079">
        <ele>2373</ele>
        <time>2022-07-16T10:54:52Z</time>
      </trkpt>
      <trkpt lat="45.63758" lon="6.64079">
        <ele>2374</ele>
        <time>2022-07-16T10:54:53Z</time>
      </trkpt>
      <trkpt lat="45.6376" lon="6.64078">
        <ele>2374</ele>
        <time>2022-07-16T10:54:55Z</time>
      </trkpt>
      <trkpt lat="45.63762" lon="6.6408">
        <ele>2374</ele>
        <time>2022-07-16T10:54:58Z</time>
      </trkpt>
      <trkpt lat="45.63764" lon="6.64082">
        <ele>2375</ele>
        <time>2022-07-16T10:55:01Z</time>
      </trkpt>
      <trkpt lat="45.63766" lon="6.64084">
        <ele>2375</ele>
        <time>2022-07-16T10:55:04Z</time>
      </trkpt>
      <trkpt lat="45.63767" lon="6.64087">
        <ele>2376</ele>
        <time>2022-07-16T10:55:06Z</time>
      </trkpt>
      <trkpt lat="45.63767" lon="6.64089">
        <ele>2376</ele>
        <time>2022-07-16T10:55:07Z</time>
      </trkpt>
      <trkpt lat="45.63768" lon="6.64093">
        <ele>2378</ele>
        <time>2022-07-16T10:55:11Z</time>
      </trkpt>
      <trkpt lat="45.63769" lon="6.64095">
        <ele>2378</ele>
        <time>2022-07-16T10:55:13Z</time>
      </trkpt>
      <trkpt lat="45.6377" lon="6.64098">
        <ele>2378</ele>
        <time>2022-07-16T10:55:15Z</time>
      </trkpt>
      <trkpt lat="45.63772" lon="6.64101">
        <ele>2378</ele>
        <time>2022-07-16T10:55:16Z</time>
      </trkpt>
      <trkpt lat="45.63772" lon="6.64104">
        <ele>2378</ele>
        <time>2022-07-16T10:55:18Z</time>
      </trkpt>
      <trkpt lat="45.63772" lon="6.64108">
        <ele>2378</ele>
        <time>2022-07-16T10:55:21Z</time>
      </trkpt>
      <trkpt lat="45.63772" lon="6.64111">
        <ele>2378</ele>
        <time>2022-07-16T10:55:23Z</time>
      </trkpt>
      <trkpt lat="45.63772" lon="6.64114">
        <ele>2379</ele>
        <time>2022-07-16T10:55:25Z</time>
      </trkpt>
      <trkpt lat="45.63773" lon="6.64118">
        <ele>2379</ele>
        <time>2022-07-16T10:55:26Z</time>
      </trkpt>
      <trkpt lat="45.63774" lon="6.64121">
        <ele>2380</ele>
        <time>2022-07-16T10:55:28Z</time>
      </trkpt>
      <trkpt lat="45.63774" lon="6.64124">
        <ele>2380</ele>
        <time>2022-07-16T10:55:30Z</time>
      </trkpt>
      <trkpt lat="45.63775" lon="6.64127">
        <ele>2379</ele>
        <time>2022-07-16T10:55:33Z</time>
      </trkpt>
      <trkpt lat="45.63776" lon="6.6413">
        <ele>2379</ele>
        <time>2022-07-16T10:55:34Z</time>
      </trkpt>
      <trkpt lat="45.63776" lon="6.64132">
        <ele>2380</ele>
        <time>2022-07-16T10:55:36Z</time>
      </trkpt>
      <trkpt lat="45.63777" lon="6.64133">
        <ele>2380</ele>
        <time>2022-07-16T10:55:37Z</time>
      </trkpt>
      <trkpt lat="45.63777" lon="6.64135">
        <ele>2380</ele>
        <time>2022-07-16T10:55:38Z</time>
      </trkpt>
      <trkpt lat="45.63777" lon="6.64136">
        <ele>2380</ele>
        <time>2022-07-16T10:55:39Z</time>
      </trkpt>
      <trkpt lat="45.63777" lon="6.64138">
        <ele>2380</ele>
        <time>2022-07-16T10:55:40Z</time>
      </trkpt>
      <trkpt lat="45.63778" lon="6.6414">
        <ele>2381</ele>
        <time>2022-07-16T10:55:41Z</time>
      </trkpt>
      <trkpt lat="45.63778" lon="6.64141">
        <ele>2381</ele>
        <time>2022-07-16T10:55:42Z</time>
      </trkpt>
      <trkpt lat="45.63778" lon="6.64143">
        <ele>2381</ele>
        <time>2022-07-16T10:55:43Z</time>
      </trkpt>
      <trkpt lat="45.63778" lon="6.64144">
        <ele>2381</ele>
        <time>2022-07-16T10:55:44Z</time>
      </trkpt>
      <trkpt lat="45.63778" lon="6.64146">
        <ele>2381</ele>
        <time>2022-07-16T10:55:45Z</time>
      </trkpt>
      <trkpt lat="45.63778" lon="6.64147">
        <ele>2381</ele>
        <time>2022-07-16T10:55:46Z</time>
      </trkpt>
      <trkpt lat="45.63779" lon="6.64149">
        <ele>2381</ele>
        <time>2022-07-16T10:55:47Z</time>
      </trkpt>
      <trkpt lat="45.63779" lon="6.64151">
        <ele>2381</ele>
        <time>2022-07-16T10:55:48Z</time>
      </trkpt>
      <trkpt lat="45.63779" lon="6.64152">
        <ele>2381</ele>
        <time>2022-07-16T10:55:49Z</time>
      </trkpt>
      <trkpt lat="45.63779" lon="6.64154">
        <ele>2381</ele>
        <time>2022-07-16T10:55:50Z</time>
      </trkpt>
      <trkpt lat="45.63779" lon="6.64155">
        <ele>2381</ele>
        <time>2022-07-16T10:55:51Z</time>
      </trkpt>
      <trkpt lat="45.63779" lon="6.64157">
        <ele>2381</ele>
        <time>2022-07-16T10:55:52Z</time>
      </trkpt>
      <trkpt lat="45.63779" lon="6.64158">
        <ele>2381</ele>
        <time>2022-07-16T10:55:53Z</time>
      </trkpt>
      <trkpt lat="45.63779" lon="6.6416">
        <ele>2382</ele>
        <time>2022-07-16T10:55:54Z</time>
      </trkpt>
      <trkpt lat="45.63779" lon="6.64161">
        <ele>2382</ele>
        <time>2022-07-16T10:55:55Z</time>
      </trkpt>
      <trkpt lat="45.63778" lon="6.64163">
        <ele>2382</ele>
        <time>2022-07-16T10:55:56Z</time>
      </trkpt>
      <trkpt lat="45.63778" lon="6.64164">
        <ele>2382</ele>
        <time>2022-07-16T10:55:57Z</time>
      </trkpt>
      <trkpt lat="45.63778" lon="6.64166">
        <ele>2382</ele>
        <time>2022-07-16T10:55:58Z</time>
      </trkpt>
      <trkpt lat="45.63778" lon="6.64167">
        <ele>2382</ele>
        <time>2022-07-16T10:55:59Z</time>
      </trkpt>
      <trkpt lat="45.63778" lon="6.64169">
        <ele>2383</ele>
        <time>2022-07-16T10:56:00Z</time>
      </trkpt>
      <trkpt lat="45.63778" lon="6.6417">
        <ele>2383</ele>
        <time>2022-07-16T10:56:01Z</time>
      </trkpt>
      <trkpt lat="45.63777" lon="6.64171">
        <ele>2383</ele>
        <time>2022-07-16T10:56:02Z</time>
      </trkpt>
      <trkpt lat="45.63777" lon="6.64172">
        <ele>2383</ele>
        <time>2022-07-16T10:56:03Z</time>
      </trkpt>
      <trkpt lat="45.63777" lon="6.64173">
        <ele>2384</ele>
        <time>2022-07-16T10:56:04Z</time>
      </trkpt>
      <trkpt lat="45.63777" lon="6.64174">
        <ele>2384</ele>
        <time>2022-07-16T10:56:05Z</time>
      </trkpt>
      <trkpt lat="45.63777" lon="6.64175">
        <ele>2384</ele>
        <time>2022-07-16T10:56:06Z</time>
      </trkpt>
      <trkpt lat="45.63777" lon="6.64177">
        <ele>2384</ele>
        <time>2022-07-16T10:56:07Z</time>
      </trkpt>
      <trkpt lat="45.63777" lon="6.64178">
        <ele>2384</ele>
        <time>2022-07-16T10:56:08Z</time>
      </trkpt>
      <trkpt lat="45.63777" lon="6.64179">
        <ele>2384</ele>
        <time>2022-07-16T10:56:09Z</time>
      </trkpt>
      <trkpt lat="45.63776" lon="6.6418">
        <ele>2384</ele>
        <time>2022-07-16T10:56:10Z</time>
      </trkpt>
      <trkpt lat="45.63776" lon="6.64181">
        <ele>2385</ele>
        <time>2022-07-16T10:56:11Z</time>
      </trkpt>
      <trkpt lat="45.63776" lon="6.64182">
        <ele>2385</ele>
        <time>2022-07-16T10:56:12Z</time>
      </trkpt>
      <trkpt lat="45.63776" lon="6.64183">
        <ele>2385</ele>
        <time>2022-07-16T10:56:13Z</time>
      </trkpt>
      <trkpt lat="45.63776" lon="6.64184">
        <ele>2385</ele>
        <time>2022-07-16T10:56:14Z</time>
      </trkpt>
      <trkpt lat="45.63775" lon="6.64185">
        <ele>2385</ele>
        <time>2022-07-16T10:56:15Z</time>
      </trkpt>
      <trkpt lat="45.63775" lon="6.64186">
        <ele>2385</ele>
        <time>2022-07-16T10:56:16Z</time>
      </trkpt>
      <trkpt lat="45.63775" lon="6.64187">
        <ele>2385</ele>
        <time>2022-07-16T10:56:18Z</time>
      </trkpt>
      <trkpt lat="45.63774" lon="6.64188">
        <ele>2385</ele>
        <time>2022-07-16T10:56:19Z</time>
      </trkpt>
      <trkpt lat="45.63774" lon="6.64189">
        <ele>2386</ele>
        <time>2022-07-16T10:56:20Z</time>
      </trkpt>
      <trkpt lat="45.63774" lon="6.6419">
        <ele>2386</ele>
        <time>2022-07-16T10:56:22Z</time>
      </trkpt>
      <trkpt lat="45.63773" lon="6.64191">
        <ele>2386</ele>
        <time>2022-07-16T10:56:23Z</time>
      </trkpt>
      <trkpt lat="45.63773" lon="6.64192">
        <ele>2387</ele>
        <time>2022-07-16T10:56:25Z</time>
      </trkpt>
      <trkpt lat="45.63772" lon="6.64193">
        <ele>2387</ele>
        <time>2022-07-16T10:56:26Z</time>
      </trkpt>
      <trkpt lat="45.63772" lon="6.64194">
        <ele>2388</ele>
        <time>2022-07-16T10:56:27Z</time>
      </trkpt>
      <trkpt lat="45.63772" lon="6.64195">
        <ele>2388</ele>
        <time>2022-07-16T10:56:28Z</time>
      </trkpt>
      <trkpt lat="45.63772" lon="6.64196">
        <ele>2388</ele>
        <time>2022-07-16T10:56:29Z</time>
      </trkpt>
      <trkpt lat="45.63771" lon="6.64196">
        <ele>2388</ele>
        <time>2022-07-16T10:56:30Z</time>
      </trkpt>
      <trkpt lat="45.63771" lon="6.64197">
        <ele>2389</ele>
        <time>2022-07-16T10:56:31Z</time>
      </trkpt>
      <trkpt lat="45.63771" lon="6.64198">
        <ele>2389</ele>
        <time>2022-07-16T10:56:32Z</time>
      </trkpt>
      <trkpt lat="45.63771" lon="6.64199">
        <ele>2389</ele>
        <time>2022-07-16T10:56:33Z</time>
      </trkpt>
      <trkpt lat="45.6377" lon="6.642">
        <ele>2389</ele>
        <time>2022-07-16T10:56:34Z</time>
      </trkpt>
      <trkpt lat="45.6377" lon="6.64201">
        <ele>2389</ele>
        <time>2022-07-16T10:56:35Z</time>
      </trkpt>
      <trkpt lat="45.6377" lon="6.64202">
        <ele>2389</ele>
        <time>2022-07-16T10:56:37Z</time>
      </trkpt>
      <trkpt lat="45.63769" lon="6.64203">
        <ele>2389</ele>
        <time>2022-07-16T10:56:38Z</time>
      </trkpt>
      <trkpt lat="45.63769" lon="6.64204">
        <ele>2390</ele>
        <time>2022-07-16T10:56:39Z</time>
      </trkpt>
      <trkpt lat="45.63769" lon="6.64205">
        <ele>2390</ele>
        <time>2022-07-16T10:56:41Z</time>
      </trkpt>
      <trkpt lat="45.63769" lon="6.64206">
        <ele>2390</ele>
        <time>2022-07-16T10:56:42Z</time>
      </trkpt>
      <trkpt lat="45.63768" lon="6.64207">
        <ele>2390</ele>
        <time>2022-07-16T10:56:43Z</time>
      </trkpt>
      <trkpt lat="45.63768" lon="6.64208">
        <ele>2391</ele>
        <time>2022-07-16T10:56:45Z</time>
      </trkpt>
      <trkpt lat="45.63767" lon="6.64208">
        <ele>2391</ele>
        <time>2022-07-16T10:56:46Z</time>
      </trkpt>
      <trkpt lat="45.63767" lon="6.64209">
        <ele>2391</ele>
        <time>2022-07-16T10:56:47Z</time>
      </trkpt>
      <trkpt lat="45.63766" lon="6.6421">
        <ele>2392</ele>
        <time>2022-07-16T10:56:48Z</time>
      </trkpt>
      <trkpt lat="45.63766" lon="6.64211">
        <ele>2392</ele>
        <time>2022-07-16T10:56:50Z</time>
      </trkpt>
      <trkpt lat="45.63765" lon="6.64211">
        <ele>2392</ele>
        <time>2022-07-16T10:56:51Z</time>
      </trkpt>
      <trkpt lat="45.63765" lon="6.64212">
        <ele>2393</ele>
        <time>2022-07-16T10:56:52Z</time>
      </trkpt>
      <trkpt lat="45.63765" lon="6.64213">
        <ele>2393</ele>
        <time>2022-07-16T10:56:53Z</time>
      </trkpt>
      <trkpt lat="45.63764" lon="6.64213">
        <ele>2393</ele>
        <time>2022-07-16T10:56:54Z</time>
      </trkpt>
      <trkpt lat="45.63764" lon="6.64214">
        <ele>2393</ele>
        <time>2022-07-16T10:56:55Z</time>
      </trkpt>
      <trkpt lat="45.63763" lon="6.64215">
        <ele>2394</ele>
        <time>2022-07-16T10:56:57Z</time>
      </trkpt>
      <trkpt lat="45.63763" lon="6.64216">
        <ele>2394</ele>
        <time>2022-07-16T10:56:58Z</time>
      </trkpt>
      <trkpt lat="45.63762" lon="6.64216">
        <ele>2394</ele>
        <time>2022-07-16T10:56:59Z</time>
      </trkpt>
      <trkpt lat="45.63762" lon="6.64217">
        <ele>2394</ele>
        <time>2022-07-16T10:57:00Z</time>
      </trkpt>
      <trkpt lat="45.63762" lon="6.64218">
        <ele>2394</ele>
        <time>2022-07-16T10:57:01Z</time>
      </trkpt>
      <trkpt lat="45.63762" lon="6.64219">
        <ele>2393</ele>
        <time>2022-07-16T10:57:02Z</time>
      </trkpt>
      <trkpt lat="45.63762" lon="6.6422">
        <ele>2393</ele>
        <time>2022-07-16T10:57:03Z</time>
      </trkpt>
      <trkpt lat="45.63762" lon="6.64221">
        <ele>2394</ele>
        <time>2022-07-16T10:57:04Z</time>
      </trkpt>
      <trkpt lat="45.63762" lon="6.64222">
        <ele>2394</ele>
        <time>2022-07-16T10:57:05Z</time>
      </trkpt>
      <trkpt lat="45.63762" lon="6.64223">
        <ele>2394</ele>
        <time>2022-07-16T10:57:06Z</time>
      </trkpt>
      <trkpt lat="45.63762" lon="6.64225">
        <ele>2394</ele>
        <time>2022-07-16T10:57:07Z</time>
      </trkpt>
      <trkpt lat="45.63762" lon="6.64226">
        <ele>2394</ele>
        <time>2022-07-16T10:57:08Z</time>
      </trkpt>
      <trkpt lat="45.63762" lon="6.64227">
        <ele>2394</ele>
        <time>2022-07-16T10:57:09Z</time>
      </trkpt>
      <trkpt lat="45.63762" lon="6.64228">
        <ele>2395</ele>
        <time>2022-07-16T10:57:10Z</time>
      </trkpt>
      <trkpt lat="45.63762" lon="6.64229">
        <ele>2396</ele>
        <time>2022-07-16T10:57:11Z</time>
      </trkpt>
      <trkpt lat="45.63762" lon="6.6423">
        <ele>2396</ele>
        <time>2022-07-16T10:57:12Z</time>
      </trkpt>
      <trkpt lat="45.63761" lon="6.64231">
        <ele>2396</ele>
        <time>2022-07-16T10:57:13Z</time>
      </trkpt>
      <trkpt lat="45.63761" lon="6.64232">
        <ele>2396</ele>
        <time>2022-07-16T10:57:14Z</time>
      </trkpt>
      <trkpt lat="45.6376" lon="6.64233">
        <ele>2396</ele>
        <time>2022-07-16T10:57:15Z</time>
      </trkpt>
      <trkpt lat="45.6376" lon="6.64234">
        <ele>2396</ele>
        <time>2022-07-16T10:57:17Z</time>
      </trkpt>
      <trkpt lat="45.63759" lon="6.64235">
        <ele>2396</ele>
        <time>2022-07-16T10:57:18Z</time>
      </trkpt>
      <trkpt lat="45.63759" lon="6.64236">
        <ele>2396</ele>
        <time>2022-07-16T10:57:19Z</time>
      </trkpt>
      <trkpt lat="45.63758" lon="6.64237">
        <ele>2397</ele>
        <time>2022-07-16T10:57:20Z</time>
      </trkpt>
      <trkpt lat="45.63758" lon="6.64238">
        <ele>2397</ele>
        <time>2022-07-16T10:57:21Z</time>
      </trkpt>
      <trkpt lat="45.63757" lon="6.64238">
        <ele>2397</ele>
        <time>2022-07-16T10:57:22Z</time>
      </trkpt>
      <trkpt lat="45.63757" lon="6.64239">
        <ele>2397</ele>
        <time>2022-07-16T10:57:23Z</time>
      </trkpt>
      <trkpt lat="45.63757" lon="6.6424">
        <ele>2397</ele>
        <time>2022-07-16T10:57:24Z</time>
      </trkpt>
      <trkpt lat="45.63756" lon="6.64241">
        <ele>2397</ele>
        <time>2022-07-16T10:57:25Z</time>
      </trkpt>
      <trkpt lat="45.63755" lon="6.64242">
        <ele>2397</ele>
        <time>2022-07-16T10:57:26Z</time>
      </trkpt>
      <trkpt lat="45.63755" lon="6.64243">
        <ele>2397</ele>
        <time>2022-07-16T10:57:27Z</time>
      </trkpt>
      <trkpt lat="45.63754" lon="6.64243">
        <ele>2397</ele>
        <time>2022-07-16T10:57:28Z</time>
      </trkpt>
      <trkpt lat="45.63753" lon="6.64244">
        <ele>2397</ele>
        <time>2022-07-16T10:57:29Z</time>
      </trkpt>
      <trkpt lat="45.63752" lon="6.64245">
        <ele>2398</ele>
        <time>2022-07-16T10:57:30Z</time>
      </trkpt>
      <trkpt lat="45.63752" lon="6.64246">
        <ele>2398</ele>
        <time>2022-07-16T10:57:31Z</time>
      </trkpt>
      <trkpt lat="45.63751" lon="6.64246">
        <ele>2398</ele>
        <time>2022-07-16T10:57:32Z</time>
      </trkpt>
      <trkpt lat="45.6375" lon="6.64247">
        <ele>2398</ele>
        <time>2022-07-16T10:57:33Z</time>
      </trkpt>
      <trkpt lat="45.6375" lon="6.64248">
        <ele>2398</ele>
        <time>2022-07-16T10:57:34Z</time>
      </trkpt>
      <trkpt lat="45.63749" lon="6.64249">
        <ele>2398</ele>
        <time>2022-07-16T10:57:35Z</time>
      </trkpt>
      <trkpt lat="45.63748" lon="6.6425">
        <ele>2398</ele>
        <time>2022-07-16T10:57:36Z</time>
      </trkpt>
      <trkpt lat="45.63746" lon="6.64252">
        <ele>2398</ele>
        <time>2022-07-16T10:57:38Z</time>
      </trkpt>
      <trkpt lat="45.63745" lon="6.64253">
        <ele>2398</ele>
        <time>2022-07-16T10:57:39Z</time>
      </trkpt>
      <trkpt lat="45.63744" lon="6.64255">
        <ele>2398</ele>
        <time>2022-07-16T10:57:40Z</time>
      </trkpt>
      <trkpt lat="45.63743" lon="6.64256">
        <ele>2398</ele>
        <time>2022-07-16T10:57:41Z</time>
      </trkpt>
      <trkpt lat="45.63741" lon="6.64258">
        <ele>2399</ele>
        <time>2022-07-16T10:57:42Z</time>
      </trkpt>
      <trkpt lat="45.63741" lon="6.64259">
        <ele>2400</ele>
        <time>2022-07-16T10:57:44Z</time>
      </trkpt>
      <trkpt lat="45.6374" lon="6.64259">
        <ele>2400</ele>
        <time>2022-07-16T10:57:45Z</time>
      </trkpt>
      <trkpt lat="45.63739" lon="6.6426">
        <ele>2400</ele>
        <time>2022-07-16T10:57:46Z</time>
      </trkpt>
      <trkpt lat="45.63738" lon="6.64261">
        <ele>2400</ele>
        <time>2022-07-16T10:57:47Z</time>
      </trkpt>
      <trkpt lat="45.63737" lon="6.64262">
        <ele>2400</ele>
        <time>2022-07-16T10:57:49Z</time>
      </trkpt>
      <trkpt lat="45.63736" lon="6.64262">
        <ele>2400</ele>
        <time>2022-07-16T10:57:50Z</time>
      </trkpt>
      <trkpt lat="45.63734" lon="6.64263">
        <ele>2400</ele>
        <time>2022-07-16T10:57:51Z</time>
      </trkpt>
      <trkpt lat="45.63732" lon="6.64265">
        <ele>2399</ele>
        <time>2022-07-16T10:57:56Z</time>
      </trkpt>
      <trkpt lat="45.63731" lon="6.64266">
        <ele>2399</ele>
        <time>2022-07-16T10:57:58Z</time>
      </trkpt>
      <trkpt lat="45.63729" lon="6.64268">
        <ele>2400</ele>
        <time>2022-07-16T10:58:00Z</time>
      </trkpt>
      <trkpt lat="45.63728" lon="6.6427">
        <ele>2401</ele>
        <time>2022-07-16T10:58:02Z</time>
      </trkpt>
      <trkpt lat="45.63726" lon="6.64272">
        <ele>2401</ele>
        <time>2022-07-16T10:58:03Z</time>
      </trkpt>
      <trkpt lat="45.63724" lon="6.64274">
        <ele>2402</ele>
        <time>2022-07-16T10:58:07Z</time>
      </trkpt>
      <trkpt lat="45.63724" lon="6.64277">
        <ele>2402</ele>
        <time>2022-07-16T10:58:10Z</time>
      </trkpt>
      <trkpt lat="45.63723" lon="6.6428">
        <ele>2402</ele>
        <time>2022-07-16T10:58:12Z</time>
      </trkpt>
      <trkpt lat="45.63722" lon="6.64283">
        <ele>2404</ele>
        <time>2022-07-16T10:58:16Z</time>
      </trkpt>
      <trkpt lat="45.63722" lon="6.64286">
        <ele>2404</ele>
        <time>2022-07-16T10:58:18Z</time>
      </trkpt>
      <trkpt lat="45.63722" lon="6.64289">
        <ele>2404</ele>
        <time>2022-07-16T10:58:19Z</time>
      </trkpt>
      <trkpt lat="45.63722" lon="6.64292">
        <ele>2405</ele>
        <time>2022-07-16T10:58:21Z</time>
      </trkpt>
      <trkpt lat="45.63722" lon="6.64295">
        <ele>2405</ele>
        <time>2022-07-16T10:58:24Z</time>
      </trkpt>
      <trkpt lat="45.63722" lon="6.64298">
        <ele>2405</ele>
        <time>2022-07-16T10:58:26Z</time>
      </trkpt>
      <trkpt lat="45.63723" lon="6.64302">
        <ele>2405</ele>
        <time>2022-07-16T10:58:28Z</time>
      </trkpt>
      <trkpt lat="45.63724" lon="6.64305">
        <ele>2405</ele>
        <time>2022-07-16T10:58:29Z</time>
      </trkpt>
      <trkpt lat="45.63724" lon="6.64308">
        <ele>2405</ele>
        <time>2022-07-16T10:58:31Z</time>
      </trkpt>
      <trkpt lat="45.63725" lon="6.64311">
        <ele>2405</ele>
        <time>2022-07-16T10:58:34Z</time>
      </trkpt>
      <trkpt lat="45.63727" lon="6.64314">
        <ele>2405</ele>
        <time>2022-07-16T10:58:37Z</time>
      </trkpt>
      <trkpt lat="45.63731" lon="6.64317">
        <ele>2405</ele>
        <time>2022-07-16T10:58:40Z</time>
      </trkpt>
      <trkpt lat="45.63732" lon="6.6432">
        <ele>2405</ele>
        <time>2022-07-16T10:58:42Z</time>
      </trkpt>
      <trkpt lat="45.63733" lon="6.64326">
        <ele>2406</ele>
        <time>2022-07-16T10:58:46Z</time>
      </trkpt>
      <trkpt lat="45.63732" lon="6.64329">
        <ele>2406</ele>
        <time>2022-07-16T10:58:48Z</time>
      </trkpt>
      <trkpt lat="45.63731" lon="6.64332">
        <ele>2406</ele>
        <time>2022-07-16T10:58:50Z</time>
      </trkpt>
      <trkpt lat="45.6373" lon="6.64334">
        <ele>2406</ele>
        <time>2022-07-16T10:58:53Z</time>
      </trkpt>
      <trkpt lat="45.63731" lon="6.64337">
        <ele>2407</ele>
        <time>2022-07-16T10:58:55Z</time>
      </trkpt>
      <trkpt lat="45.63731" lon="6.6434">
        <ele>2407</ele>
        <time>2022-07-16T10:58:57Z</time>
      </trkpt>
      <trkpt lat="45.63731" lon="6.64343">
        <ele>2408</ele>
        <time>2022-07-16T10:58:59Z</time>
      </trkpt>
      <trkpt lat="45.63731" lon="6.64344">
        <ele>2407</ele>
        <time>2022-07-16T10:59:00Z</time>
      </trkpt>
      <trkpt lat="45.63731" lon="6.64345">
        <ele>2407</ele>
        <time>2022-07-16T10:59:01Z</time>
      </trkpt>
      <trkpt lat="45.63731" lon="6.64346">
        <ele>2407</ele>
        <time>2022-07-16T10:59:02Z</time>
      </trkpt>
      <trkpt lat="45.63731" lon="6.64347">
        <ele>2407</ele>
        <time>2022-07-16T10:59:03Z</time>
      </trkpt>
      <trkpt lat="45.63731" lon="6.64348">
        <ele>2408</ele>
        <time>2022-07-16T10:59:04Z</time>
      </trkpt>
      <trkpt lat="45.63731" lon="6.64349">
        <ele>2408</ele>
        <time>2022-07-16T10:59:05Z</time>
      </trkpt>
      <trkpt lat="45.63731" lon="6.64351">
        <ele>2408</ele>
        <time>2022-07-16T10:59:06Z</time>
      </trkpt>
      <trkpt lat="45.63731" lon="6.64352">
        <ele>2409</ele>
        <time>2022-07-16T10:59:07Z</time>
      </trkpt>
      <trkpt lat="45.63732" lon="6.64353">
        <ele>2409</ele>
        <time>2022-07-16T10:59:08Z</time>
      </trkpt>
      <trkpt lat="45.63732" lon="6.64354">
        <ele>2409</ele>
        <time>2022-07-16T10:59:09Z</time>
      </trkpt>
      <trkpt lat="45.63732" lon="6.64355">
        <ele>2409</ele>
        <time>2022-07-16T10:59:10Z</time>
      </trkpt>
      <trkpt lat="45.63732" lon="6.64356">
        <ele>2409</ele>
        <time>2022-07-16T10:59:11Z</time>
      </trkpt>
      <trkpt lat="45.6373" lon="6.64359">
        <ele>2409</ele>
        <time>2022-07-16T10:59:14Z</time>
      </trkpt>
      <trkpt lat="45.63729" lon="6.64361">
        <ele>2409</ele>
        <time>2022-07-16T10:59:16Z</time>
      </trkpt>
      <trkpt lat="45.63727" lon="6.64363">
        <ele>2410</ele>
        <time>2022-07-16T10:59:17Z</time>
      </trkpt>
      <trkpt lat="45.63726" lon="6.64366">
        <ele>2410</ele>
        <time>2022-07-16T10:59:20Z</time>
      </trkpt>
      <trkpt lat="45.63725" lon="6.64368">
        <ele>2411</ele>
        <time>2022-07-16T10:59:23Z</time>
      </trkpt>
      <trkpt lat="45.63725" lon="6.64372">
        <ele>2411</ele>
        <time>2022-07-16T10:59:25Z</time>
      </trkpt>
      <trkpt lat="45.63724" lon="6.64374">
        <ele>2411</ele>
        <time>2022-07-16T10:59:28Z</time>
      </trkpt>
      <trkpt lat="45.63725" lon="6.64378">
        <ele>2413</ele>
        <time>2022-07-16T10:59:30Z</time>
      </trkpt>
      <trkpt lat="45.63724" lon="6.64381">
        <ele>2413</ele>
        <time>2022-07-16T10:59:33Z</time>
      </trkpt>
      <trkpt lat="45.63724" lon="6.64383">
        <ele>2413</ele>
        <time>2022-07-16T10:59:37Z</time>
      </trkpt>
      <trkpt lat="45.63724" lon="6.64387">
        <ele>2414</ele>
        <time>2022-07-16T10:59:40Z</time>
      </trkpt>
      <trkpt lat="45.63724" lon="6.6439">
        <ele>2414</ele>
        <time>2022-07-16T10:59:42Z</time>
      </trkpt>
      <trkpt lat="45.63722" lon="6.64392">
        <ele>2415</ele>
        <time>2022-07-16T10:59:46Z</time>
      </trkpt>
      <trkpt lat="45.63721" lon="6.64394">
        <ele>2415</ele>
        <time>2022-07-16T10:59:48Z</time>
      </trkpt>
      <trkpt lat="45.6372" lon="6.64396">
        <ele>2416</ele>
        <time>2022-07-16T10:59:52Z</time>
      </trkpt>
      <trkpt lat="45.63719" lon="6.64398">
        <ele>2417</ele>
        <time>2022-07-16T10:59:56Z</time>
      </trkpt>
      <trkpt lat="45.63717" lon="6.644">
        <ele>2417</ele>
        <time>2022-07-16T10:59:57Z</time>
      </trkpt>
      <trkpt lat="45.63716" lon="6.64402">
        <ele>2417</ele>
        <time>2022-07-16T11:00:00Z</time>
      </trkpt>
      <trkpt lat="45.63715" lon="6.64404">
        <ele>2418</ele>
        <time>2022-07-16T11:00:03Z</time>
      </trkpt>
      <trkpt lat="45.63716" lon="6.64408">
        <ele>2418</ele>
        <time>2022-07-16T11:00:07Z</time>
      </trkpt>
      <trkpt lat="45.63715" lon="6.64411">
        <ele>2418</ele>
        <time>2022-07-16T11:00:09Z</time>
      </trkpt>
      <trkpt lat="45.63714" lon="6.64414">
        <ele>2419</ele>
        <time>2022-07-16T11:00:12Z</time>
      </trkpt>
      <trkpt lat="45.63712" lon="6.64418">
        <ele>2421</ele>
        <time>2022-07-16T11:00:19Z</time>
      </trkpt>
      <trkpt lat="45.6371" lon="6.6442">
        <ele>2421</ele>
        <time>2022-07-16T11:00:21Z</time>
      </trkpt>
      <trkpt lat="45.6371" lon="6.64423">
        <ele>2422</ele>
        <time>2022-07-16T11:00:27Z</time>
      </trkpt>
      <trkpt lat="45.63708" lon="6.64425">
        <ele>2423</ele>
        <time>2022-07-16T11:00:31Z</time>
      </trkpt>
      <trkpt lat="45.63707" lon="6.64425">
        <ele>2423</ele>
        <time>2022-07-16T11:00:34Z</time>
      </trkpt>
      <trkpt lat="45.63705" lon="6.64426">
        <ele>2423</ele>
        <time>2022-07-16T11:00:38Z</time>
      </trkpt>
      <trkpt lat="45.63702" lon="6.64428">
        <ele>2424</ele>
        <time>2022-07-16T11:00:42Z</time>
      </trkpt>
      <trkpt lat="45.637" lon="6.64429">
        <ele>2424</ele>
        <time>2022-07-16T11:00:44Z</time>
      </trkpt>
      <trkpt lat="45.63699" lon="6.64431">
        <ele>2425</ele>
        <time>2022-07-16T11:00:49Z</time>
      </trkpt>
      <trkpt lat="45.63697" lon="6.64434">
        <ele>2427</ele>
        <time>2022-07-16T11:00:53Z</time>
      </trkpt>
      <trkpt lat="45.63695" lon="6.64435">
        <ele>2427</ele>
        <time>2022-07-16T11:00:56Z</time>
      </trkpt>
      <trkpt lat="45.63693" lon="6.64435">
        <ele>2428</ele>
        <time>2022-07-16T11:00:59Z</time>
      </trkpt>
      <trkpt lat="45.63692" lon="6.64436">
        <ele>2428</ele>
        <time>2022-07-16T11:01:02Z</time>
      </trkpt>
      <trkpt lat="45.6369" lon="6.64438">
        <ele>2430</ele>
        <time>2022-07-16T11:01:06Z</time>
      </trkpt>
      <trkpt lat="45.63688" lon="6.64439">
        <ele>2430</ele>
        <time>2022-07-16T11:01:10Z</time>
      </trkpt>
      <trkpt lat="45.63685" lon="6.6444">
        <ele>2430</ele>
        <time>2022-07-16T11:01:14Z</time>
      </trkpt>
      <trkpt lat="45.63683" lon="6.6444">
        <ele>2431</ele>
        <time>2022-07-16T11:01:16Z</time>
      </trkpt>
      <trkpt lat="45.63681" lon="6.64439">
        <ele>2432</ele>
        <time>2022-07-16T11:01:21Z</time>
      </trkpt>
      <trkpt lat="45.63679" lon="6.64439">
        <ele>2432</ele>
        <time>2022-07-16T11:01:22Z</time>
      </trkpt>
      <trkpt lat="45.63677" lon="6.64438">
        <ele>2433</ele>
        <time>2022-07-16T11:01:26Z</time>
      </trkpt>
      <trkpt lat="45.63675" lon="6.64437">
        <ele>2433</ele>
        <time>2022-07-16T11:01:29Z</time>
      </trkpt>
      <trkpt lat="45.63673" lon="6.64437">
        <ele>2434</ele>
        <time>2022-07-16T11:01:34Z</time>
      </trkpt>
      <trkpt lat="45.63671" lon="6.64437">
        <ele>2435</ele>
        <time>2022-07-16T11:01:39Z</time>
      </trkpt>
      <trkpt lat="45.63669" lon="6.64436">
        <ele>2435</ele>
        <time>2022-07-16T11:01:41Z</time>
      </trkpt>
      <trkpt lat="45.63667" lon="6.64438">
        <ele>2436</ele>
        <time>2022-07-16T11:01:50Z</time>
      </trkpt>
      <trkpt lat="45.63665" lon="6.64439">
        <ele>2436</ele>
        <time>2022-07-16T11:01:54Z</time>
      </trkpt>
      <trkpt lat="45.63663" lon="6.64439">
        <ele>2437</ele>
        <time>2022-07-16T11:01:57Z</time>
      </trkpt>
      <trkpt lat="45.63662" lon="6.64442">
        <ele>2438</ele>
        <time>2022-07-16T11:02:04Z</time>
      </trkpt>
      <trkpt lat="45.63664" lon="6.64444">
        <ele>2438</ele>
        <time>2022-07-16T11:02:07Z</time>
      </trkpt>
      <trkpt lat="45.63665" lon="6.64447">
        <ele>2439</ele>
        <time>2022-07-16T11:02:10Z</time>
      </trkpt>
      <trkpt lat="45.63665" lon="6.6445">
        <ele>2440</ele>
        <time>2022-07-16T11:02:14Z</time>
      </trkpt>
      <trkpt lat="45.63666" lon="6.64452">
        <ele>2441</ele>
        <time>2022-07-16T11:02:20Z</time>
      </trkpt>
      <trkpt lat="45.63666" lon="6.64452">
        <ele>2443</ele>
        <time>2022-07-16T11:02:25Z</time>
      </trkpt>
      <trkpt lat="45.63667" lon="6.64455">
        <ele>2443</ele>
        <time>2022-07-16T11:02:26Z</time>
      </trkpt>
      <trkpt lat="45.63669" lon="6.64456">
        <ele>2444</ele>
        <time>2022-07-16T11:02:34Z</time>
      </trkpt>
      <trkpt lat="45.63671" lon="6.64456">
        <ele>2445</ele>
        <time>2022-07-16T11:02:37Z</time>
      </trkpt>
      <trkpt lat="45.63672" lon="6.64459">
        <ele>2446</ele>
        <time>2022-07-16T11:02:42Z</time>
      </trkpt>
      <trkpt lat="45.63673" lon="6.64462">
        <ele>2446</ele>
        <time>2022-07-16T11:02:45Z</time>
      </trkpt>
      <trkpt lat="45.63674" lon="6.64465">
        <ele>2446</ele>
        <time>2022-07-16T11:02:49Z</time>
      </trkpt>
      <trkpt lat="45.63675" lon="6.64467">
        <ele>2447</ele>
        <time>2022-07-16T11:02:53Z</time>
      </trkpt>
      <trkpt lat="45.63676" lon="6.6447">
        <ele>2448</ele>
        <time>2022-07-16T11:02:57Z</time>
      </trkpt>
      <trkpt lat="45.63678" lon="6.6447">
        <ele>2448</ele>
        <time>2022-07-16T11:03:01Z</time>
      </trkpt>
      <trkpt lat="45.63681" lon="6.64471">
        <ele>2448</ele>
        <time>2022-07-16T11:03:04Z</time>
      </trkpt>
      <trkpt lat="45.63681" lon="6.64474">
        <ele>2450</ele>
        <time>2022-07-16T11:03:07Z</time>
      </trkpt>
      <trkpt lat="45.63681" lon="6.64477">
        <ele>2450</ele>
        <time>2022-07-16T11:03:12Z</time>
      </trkpt>
      <trkpt lat="45.6368" lon="6.6448">
        <ele>2451</ele>
        <time>2022-07-16T11:03:16Z</time>
      </trkpt>
      <trkpt lat="45.63681" lon="6.64483">
        <ele>2452</ele>
        <time>2022-07-16T11:03:21Z</time>
      </trkpt>
      <trkpt lat="45.6368" lon="6.64486">
        <ele>2453</ele>
        <time>2022-07-16T11:03:26Z</time>
      </trkpt>
      <trkpt lat="45.63681" lon="6.64488">
        <ele>2453</ele>
        <time>2022-07-16T11:03:30Z</time>
      </trkpt>
      <trkpt lat="45.6368" lon="6.64491">
        <ele>2454</ele>
        <time>2022-07-16T11:03:33Z</time>
      </trkpt>
      <trkpt lat="45.6368" lon="6.64495">
        <ele>2456</ele>
        <time>2022-07-16T11:03:38Z</time>
      </trkpt>
      <trkpt lat="45.63679" lon="6.64498">
        <ele>2456</ele>
        <time>2022-07-16T11:03:42Z</time>
      </trkpt>
      <trkpt lat="45.63678" lon="6.64501">
        <ele>2457</ele>
        <time>2022-07-16T11:03:45Z</time>
      </trkpt>
      <trkpt lat="45.63678" lon="6.64505">
        <ele>2459</ele>
        <time>2022-07-16T11:03:55Z</time>
      </trkpt>
      <trkpt lat="45.63679" lon="6.64507">
        <ele>2459</ele>
        <time>2022-07-16T11:03:57Z</time>
      </trkpt>
      <trkpt lat="45.6368" lon="6.6451">
        <ele>2459</ele>
        <time>2022-07-16T11:04:00Z</time>
      </trkpt>
      <trkpt lat="45.6368" lon="6.64511">
        <ele>2459</ele>
        <time>2022-07-16T11:04:02Z</time>
      </trkpt>
      <trkpt lat="45.63681" lon="6.64511">
        <ele>2459</ele>
        <time>2022-07-16T11:04:03Z</time>
      </trkpt>
      <trkpt lat="45.63681" lon="6.64512">
        <ele>2460</ele>
        <time>2022-07-16T11:04:04Z</time>
      </trkpt>
      <trkpt lat="45.63681" lon="6.64513">
        <ele>2460</ele>
        <time>2022-07-16T11:04:05Z</time>
      </trkpt>
      <trkpt lat="45.63682" lon="6.64513">
        <ele>2460</ele>
        <time>2022-07-16T11:04:06Z</time>
      </trkpt>
      <trkpt lat="45.63682" lon="6.64514">
        <ele>2460</ele>
        <time>2022-07-16T11:04:07Z</time>
      </trkpt>
      <trkpt lat="45.63682" lon="6.64515">
        <ele>2460</ele>
        <time>2022-07-16T11:04:09Z</time>
      </trkpt>
      <trkpt lat="45.63683" lon="6.64515">
        <ele>2461</ele>
        <time>2022-07-16T11:04:10Z</time>
      </trkpt>
      <trkpt lat="45.63683" lon="6.64516">
        <ele>2461</ele>
        <time>2022-07-16T11:04:11Z</time>
      </trkpt>
      <trkpt lat="45.63684" lon="6.64517">
        <ele>2461</ele>
        <time>2022-07-16T11:04:13Z</time>
      </trkpt>
      <trkpt lat="45.63684" lon="6.64518">
        <ele>2462</ele>
        <time>2022-07-16T11:04:14Z</time>
      </trkpt>
      <trkpt lat="45.63685" lon="6.64519">
        <ele>2462</ele>
        <time>2022-07-16T11:04:17Z</time>
      </trkpt>
      <trkpt lat="45.63685" lon="6.6452">
        <ele>2462</ele>
        <time>2022-07-16T11:04:19Z</time>
      </trkpt>
      <trkpt lat="45.63686" lon="6.6452">
        <ele>2462</ele>
        <time>2022-07-16T11:04:20Z</time>
      </trkpt>
      <trkpt lat="45.63686" lon="6.64521">
        <ele>2462</ele>
        <time>2022-07-16T11:04:21Z</time>
      </trkpt>
      <trkpt lat="45.63686" lon="6.64522">
        <ele>2463</ele>
        <time>2022-07-16T11:04:22Z</time>
      </trkpt>
      <trkpt lat="45.63687" lon="6.64522">
        <ele>2463</ele>
        <time>2022-07-16T11:04:23Z</time>
      </trkpt>
      <trkpt lat="45.63688" lon="6.64522">
        <ele>2463</ele>
        <time>2022-07-16T11:04:24Z</time>
      </trkpt>
      <trkpt lat="45.63689" lon="6.64523">
        <ele>2463</ele>
        <time>2022-07-16T11:04:25Z</time>
      </trkpt>
      <trkpt lat="45.6369" lon="6.64523">
        <ele>2463</ele>
        <time>2022-07-16T11:04:26Z</time>
      </trkpt>
      <trkpt lat="45.63691" lon="6.64524">
        <ele>2463</ele>
        <time>2022-07-16T11:04:27Z</time>
      </trkpt>
      <trkpt lat="45.63692" lon="6.64525">
        <ele>2465</ele>
        <time>2022-07-16T11:04:30Z</time>
      </trkpt>
      <trkpt lat="45.63693" lon="6.64526">
        <ele>2465</ele>
        <time>2022-07-16T11:04:33Z</time>
      </trkpt>
      <trkpt lat="45.63694" lon="6.64527">
        <ele>2466</ele>
        <time>2022-07-16T11:04:36Z</time>
      </trkpt>
      <trkpt lat="45.63695" lon="6.64528">
        <ele>2466</ele>
        <time>2022-07-16T11:04:39Z</time>
      </trkpt>
      <trkpt lat="45.63695" lon="6.64529">
        <ele>2467</ele>
        <time>2022-07-16T11:04:42Z</time>
      </trkpt>
      <trkpt lat="45.63696" lon="6.64529">
        <ele>2467</ele>
        <time>2022-07-16T11:04:43Z</time>
      </trkpt>
      <trkpt lat="45.63696" lon="6.6453">
        <ele>2467</ele>
        <time>2022-07-16T11:04:45Z</time>
      </trkpt>
      <trkpt lat="45.63697" lon="6.6453">
        <ele>2468</ele>
        <time>2022-07-16T11:04:46Z</time>
      </trkpt>
      <trkpt lat="45.63697" lon="6.64531">
        <ele>2468</ele>
        <time>2022-07-16T11:04:47Z</time>
      </trkpt>
      <trkpt lat="45.63698" lon="6.64531">
        <ele>2468</ele>
        <time>2022-07-16T11:04:49Z</time>
      </trkpt>
      <trkpt lat="45.63698" lon="6.64532">
        <ele>2468</ele>
        <time>2022-07-16T11:04:50Z</time>
      </trkpt>
      <trkpt lat="45.63699" lon="6.64532">
        <ele>2468</ele>
        <time>2022-07-16T11:04:52Z</time>
      </trkpt>
      <trkpt lat="45.637" lon="6.64533">
        <ele>2468</ele>
        <time>2022-07-16T11:04:54Z</time>
      </trkpt>
      <trkpt lat="45.63701" lon="6.64533">
        <ele>2468</ele>
        <time>2022-07-16T11:04:56Z</time>
      </trkpt>
      <trkpt lat="45.63702" lon="6.64534">
        <ele>2469</ele>
        <time>2022-07-16T11:04:58Z</time>
      </trkpt>
      <trkpt lat="45.63703" lon="6.64534">
        <ele>2469</ele>
        <time>2022-07-16T11:05:00Z</time>
      </trkpt>
      <trkpt lat="45.63704" lon="6.64535">
        <ele>2470</ele>
        <time>2022-07-16T11:05:02Z</time>
      </trkpt>
      <trkpt lat="45.63705" lon="6.64535">
        <ele>2470</ele>
        <time>2022-07-16T11:05:04Z</time>
      </trkpt>
      <trkpt lat="45.63705" lon="6.64536">
        <ele>2470</ele>
        <time>2022-07-16T11:05:05Z</time>
      </trkpt>
      <trkpt lat="45.63706" lon="6.64536">
        <ele>2470</ele>
        <time>2022-07-16T11:05:07Z</time>
      </trkpt>
      <trkpt lat="45.63708" lon="6.64537">
        <ele>2471</ele>
        <time>2022-07-16T11:05:13Z</time>
      </trkpt>
      <trkpt lat="45.63709" lon="6.64537">
        <ele>2471</ele>
        <time>2022-07-16T11:05:14Z</time>
      </trkpt>
      <trkpt lat="45.6371" lon="6.64537">
        <ele>2471</ele>
        <time>2022-07-16T11:05:16Z</time>
      </trkpt>
      <trkpt lat="45.63711" lon="6.64537">
        <ele>2472</ele>
        <time>2022-07-16T11:05:17Z</time>
      </trkpt>
      <trkpt lat="45.63712" lon="6.64537">
        <ele>2472</ele>
        <time>2022-07-16T11:05:19Z</time>
      </trkpt>
      <trkpt lat="45.63713" lon="6.64537">
        <ele>2472</ele>
        <time>2022-07-16T11:05:20Z</time>
      </trkpt>
      <trkpt lat="45.63714" lon="6.64537">
        <ele>2472</ele>
        <time>2022-07-16T11:05:22Z</time>
      </trkpt>
      <trkpt lat="45.63715" lon="6.64536">
        <ele>2474</ele>
        <time>2022-07-16T11:05:24Z</time>
      </trkpt>
      <trkpt lat="45.63716" lon="6.64536">
        <ele>2474</ele>
        <time>2022-07-16T11:05:25Z</time>
      </trkpt>
      <trkpt lat="45.63717" lon="6.64536">
        <ele>2475</ele>
        <time>2022-07-16T11:05:27Z</time>
      </trkpt>
      <trkpt lat="45.63718" lon="6.64536">
        <ele>2475</ele>
        <time>2022-07-16T11:05:28Z</time>
      </trkpt>
      <trkpt lat="45.63719" lon="6.64536">
        <ele>2476</ele>
        <time>2022-07-16T11:05:30Z</time>
      </trkpt>
      <trkpt lat="45.6372" lon="6.64537">
        <ele>2476</ele>
        <time>2022-07-16T11:05:31Z</time>
      </trkpt>
      <trkpt lat="45.63721" lon="6.64537">
        <ele>2476</ele>
        <time>2022-07-16T11:05:33Z</time>
      </trkpt>
      <trkpt lat="45.63722" lon="6.64538">
        <ele>2476</ele>
        <time>2022-07-16T11:05:34Z</time>
      </trkpt>
      <trkpt lat="45.63723" lon="6.64538">
        <ele>2476</ele>
        <time>2022-07-16T11:05:36Z</time>
      </trkpt>
      <trkpt lat="45.63724" lon="6.64538">
        <ele>2476</ele>
        <time>2022-07-16T11:05:37Z</time>
      </trkpt>
      <trkpt lat="45.63724" lon="6.64539">
        <ele>2477</ele>
        <time>2022-07-16T11:05:38Z</time>
      </trkpt>
      <trkpt lat="45.63725" lon="6.64539">
        <ele>2477</ele>
        <time>2022-07-16T11:05:39Z</time>
      </trkpt>
      <trkpt lat="45.63726" lon="6.64539">
        <ele>2477</ele>
        <time>2022-07-16T11:05:40Z</time>
      </trkpt>
      <trkpt lat="45.63726" lon="6.6454">
        <ele>2477</ele>
        <time>2022-07-16T11:05:41Z</time>
      </trkpt>
      <trkpt lat="45.63727" lon="6.6454">
        <ele>2477</ele>
        <time>2022-07-16T11:05:42Z</time>
      </trkpt>
      <trkpt lat="45.63728" lon="6.6454">
        <ele>2477</ele>
        <time>2022-07-16T11:05:43Z</time>
      </trkpt>
      <trkpt lat="45.6373" lon="6.64542">
        <ele>2477</ele>
        <time>2022-07-16T11:05:45Z</time>
      </trkpt>
      <trkpt lat="45.63731" lon="6.64544">
        <ele>2477</ele>
        <time>2022-07-16T11:05:48Z</time>
      </trkpt>
      <trkpt lat="45.63732" lon="6.64546">
        <ele>2477</ele>
        <time>2022-07-16T11:05:51Z</time>
      </trkpt>
      <trkpt lat="45.63735" lon="6.64548">
        <ele>2478</ele>
        <time>2022-07-16T11:06:00Z</time>
      </trkpt>
      <trkpt lat="45.63737" lon="6.64549">
        <ele>2479</ele>
        <time>2022-07-16T11:06:03Z</time>
      </trkpt>
      <trkpt lat="45.63739" lon="6.64549">
        <ele>2480</ele>
        <time>2022-07-16T11:06:06Z</time>
      </trkpt>
      <trkpt lat="45.63741" lon="6.64549">
        <ele>2481</ele>
        <time>2022-07-16T11:06:13Z</time>
      </trkpt>
      <trkpt lat="45.63743" lon="6.64547">
        <ele>2482</ele>
        <time>2022-07-16T11:06:17Z</time>
      </trkpt>
      <trkpt lat="45.63745" lon="6.64546">
        <ele>2483</ele>
        <time>2022-07-16T11:06:23Z</time>
      </trkpt>
      <trkpt lat="45.63749" lon="6.64544">
        <ele>2483</ele>
        <time>2022-07-16T11:06:27Z</time>
      </trkpt>
      <trkpt lat="45.63748" lon="6.64547">
        <ele>2484</ele>
        <time>2022-07-16T11:06:32Z</time>
      </trkpt>
      <trkpt lat="45.63749" lon="6.6455">
        <ele>2487</ele>
        <time>2022-07-16T11:06:36Z</time>
      </trkpt>
      <trkpt lat="45.6375" lon="6.64552">
        <ele>2487</ele>
        <time>2022-07-16T11:06:41Z</time>
      </trkpt>
      <trkpt lat="45.63752" lon="6.64553">
        <ele>2487</ele>
        <time>2022-07-16T11:06:44Z</time>
      </trkpt>
      <trkpt lat="45.63754" lon="6.64555">
        <ele>2488</ele>
        <time>2022-07-16T11:06:47Z</time>
      </trkpt>
      <trkpt lat="45.63756" lon="6.64557">
        <ele>2489</ele>
        <time>2022-07-16T11:06:52Z</time>
      </trkpt>
      <trkpt lat="45.63759" lon="6.64556">
        <ele>2489</ele>
        <time>2022-07-16T11:06:55Z</time>
      </trkpt>
      <trkpt lat="45.63761" lon="6.64556">
        <ele>2490</ele>
        <time>2022-07-16T11:06:58Z</time>
      </trkpt>
      <trkpt lat="45.63763" lon="6.64559">
        <ele>2491</ele>
        <time>2022-07-16T11:07:02Z</time>
      </trkpt>
      <trkpt lat="45.63765" lon="6.64561">
        <ele>2492</ele>
        <time>2022-07-16T11:07:10Z</time>
      </trkpt>
      <trkpt lat="45.63767" lon="6.64562">
        <ele>2492</ele>
        <time>2022-07-16T11:07:13Z</time>
      </trkpt>
      <trkpt lat="45.63769" lon="6.64563">
        <ele>2493</ele>
        <time>2022-07-16T11:07:17Z</time>
      </trkpt>
      <trkpt lat="45.63771" lon="6.64565">
        <ele>2493</ele>
        <time>2022-07-16T11:07:21Z</time>
      </trkpt>
      <trkpt lat="45.63772" lon="6.64568">
        <ele>2494</ele>
        <time>2022-07-16T11:07:24Z</time>
      </trkpt>
      <trkpt lat="45.63773" lon="6.6457">
        <ele>2495</ele>
        <time>2022-07-16T11:07:27Z</time>
      </trkpt>
      <trkpt lat="45.63775" lon="6.64572">
        <ele>2495</ele>
        <time>2022-07-16T11:07:31Z</time>
      </trkpt>
      <trkpt lat="45.63776" lon="6.64572">
        <ele>2496</ele>
        <time>2022-07-16T11:07:33Z</time>
      </trkpt>
      <trkpt lat="45.63777" lon="6.64572">
        <ele>2496</ele>
        <time>2022-07-16T11:07:35Z</time>
      </trkpt>
      <trkpt lat="45.63778" lon="6.64572">
        <ele>2496</ele>
        <time>2022-07-16T11:07:38Z</time>
      </trkpt>
      <trkpt lat="45.63779" lon="6.64572">
        <ele>2498</ele>
        <time>2022-07-16T11:07:40Z</time>
      </trkpt>
      <trkpt lat="45.6378" lon="6.64572">
        <ele>2498</ele>
        <time>2022-07-16T11:07:42Z</time>
      </trkpt>
      <trkpt lat="45.63781" lon="6.64572">
        <ele>2498</ele>
        <time>2022-07-16T11:07:44Z</time>
      </trkpt>
      <trkpt lat="45.63782" lon="6.64572">
        <ele>2498</ele>
        <time>2022-07-16T11:07:46Z</time>
      </trkpt>
      <trkpt lat="45.63783" lon="6.64572">
        <ele>2499</ele>
        <time>2022-07-16T11:07:48Z</time>
      </trkpt>
      <trkpt lat="45.63784" lon="6.64574">
        <ele>2500</ele>
        <time>2022-07-16T11:07:51Z</time>
      </trkpt>
      <trkpt lat="45.63783" lon="6.64577">
        <ele>2501</ele>
        <time>2022-07-16T11:07:55Z</time>
      </trkpt>
      <trkpt lat="45.63784" lon="6.6458">
        <ele>2501</ele>
        <time>2022-07-16T11:07:58Z</time>
      </trkpt>
      <trkpt lat="45.63786" lon="6.64582">
        <ele>2501</ele>
        <time>2022-07-16T11:08:00Z</time>
      </trkpt>
      <trkpt lat="45.63787" lon="6.64585">
        <ele>2502</ele>
        <time>2022-07-16T11:08:04Z</time>
      </trkpt>
      <trkpt lat="45.63788" lon="6.64588">
        <ele>2503</ele>
        <time>2022-07-16T11:08:07Z</time>
      </trkpt>
      <trkpt lat="45.63789" lon="6.6459">
        <ele>2504</ele>
        <time>2022-07-16T11:08:10Z</time>
      </trkpt>
      <trkpt lat="45.6379" lon="6.64593">
        <ele>2504</ele>
        <time>2022-07-16T11:08:14Z</time>
      </trkpt>
      <trkpt lat="45.63793" lon="6.64593">
        <ele>2505</ele>
        <time>2022-07-16T11:08:19Z</time>
      </trkpt>
      <trkpt lat="45.63795" lon="6.64594">
        <ele>2506</ele>
        <time>2022-07-16T11:08:22Z</time>
      </trkpt>
      <trkpt lat="45.63796" lon="6.64597">
        <ele>2507</ele>
        <time>2022-07-16T11:08:29Z</time>
      </trkpt>
      <trkpt lat="45.63798" lon="6.64599">
        <ele>2508</ele>
        <time>2022-07-16T11:08:36Z</time>
      </trkpt>
      <trkpt lat="45.63798" lon="6.64599">
        <ele>2508</ele>
        <time>2022-07-16T11:08:39Z</time>
      </trkpt>
      <trkpt lat="45.63799" lon="6.64601">
        <ele>2508</ele>
        <time>2022-07-16T11:08:41Z</time>
      </trkpt>
      <trkpt lat="45.638" lon="6.64603">
        <ele>2510</ele>
        <time>2022-07-16T11:08:44Z</time>
      </trkpt>
      <trkpt lat="45.63801" lon="6.64606">
        <ele>2511</ele>
        <time>2022-07-16T11:08:49Z</time>
      </trkpt>
      <trkpt lat="45.63801" lon="6.64609">
        <ele>2512</ele>
        <time>2022-07-16T11:08:53Z</time>
      </trkpt>
      <trkpt lat="45.63801" lon="6.64612">
        <ele>2512</ele>
        <time>2022-07-16T11:08:56Z</time>
      </trkpt>
      <trkpt lat="45.638" lon="6.64614">
        <ele>2513</ele>
        <time>2022-07-16T11:08:59Z</time>
      </trkpt>
      <trkpt lat="45.63798" lon="6.64616">
        <ele>2513</ele>
        <time>2022-07-16T11:09:01Z</time>
      </trkpt>
      <trkpt lat="45.63796" lon="6.64617">
        <ele>2513</ele>
        <time>2022-07-16T11:09:03Z</time>
      </trkpt>
      <trkpt lat="45.63794" lon="6.64618">
        <ele>2513</ele>
        <time>2022-07-16T11:09:05Z</time>
      </trkpt>
      <trkpt lat="45.63792" lon="6.6462">
        <ele>2514</ele>
        <time>2022-07-16T11:09:08Z</time>
      </trkpt>
      <trkpt lat="45.63791" lon="6.64622">
        <ele>2514</ele>
        <time>2022-07-16T11:09:12Z</time>
      </trkpt>
      <trkpt lat="45.63789" lon="6.64624">
        <ele>2516</ele>
        <time>2022-07-16T11:09:15Z</time>
      </trkpt>
      <trkpt lat="45.63788" lon="6.64625">
        <ele>2517</ele>
        <time>2022-07-16T11:09:21Z</time>
      </trkpt>
      <trkpt lat="45.63788" lon="6.64625">
        <ele>2518</ele>
        <time>2022-07-16T11:09:28Z</time>
      </trkpt>
      <trkpt lat="45.63788" lon="6.64629">
        <ele>2519</ele>
        <time>2022-07-16T11:09:30Z</time>
      </trkpt>
      <trkpt lat="45.63787" lon="6.64632">
        <ele>2519</ele>
        <time>2022-07-16T11:09:35Z</time>
      </trkpt>
      <trkpt lat="45.63786" lon="6.64634">
        <ele>2520</ele>
        <time>2022-07-16T11:09:38Z</time>
      </trkpt>
      <trkpt lat="45.63785" lon="6.64637">
        <ele>2522</ele>
        <time>2022-07-16T11:09:43Z</time>
      </trkpt>
      <trkpt lat="45.63784" lon="6.64639">
        <ele>2523</ele>
        <time>2022-07-16T11:09:46Z</time>
      </trkpt>
      <trkpt lat="45.63782" lon="6.64641">
        <ele>2523</ele>
        <time>2022-07-16T11:09:50Z</time>
      </trkpt>
      <trkpt lat="45.63783" lon="6.64643">
        <ele>2524</ele>
        <time>2022-07-16T11:09:58Z</time>
      </trkpt>
      <trkpt lat="45.63784" lon="6.64645">
        <ele>2524</ele>
        <time>2022-07-16T11:10:02Z</time>
      </trkpt>
      <trkpt lat="45.63786" lon="6.64646">
        <ele>2525</ele>
        <time>2022-07-16T11:10:05Z</time>
      </trkpt>
      <trkpt lat="45.63788" lon="6.64649">
        <ele>2526</ele>
        <time>2022-07-16T11:10:09Z</time>
      </trkpt>
      <trkpt lat="45.63788" lon="6.64652">
        <ele>2527</ele>
        <time>2022-07-16T11:10:13Z</time>
      </trkpt>
      <trkpt lat="45.63789" lon="6.64654">
        <ele>2528</ele>
        <time>2022-07-16T11:10:18Z</time>
      </trkpt>
      <trkpt lat="45.63791" lon="6.64656">
        <ele>2529</ele>
        <time>2022-07-16T11:10:21Z</time>
      </trkpt>
      <trkpt lat="45.63792" lon="6.64659">
        <ele>2529</ele>
        <time>2022-07-16T11:10:24Z</time>
      </trkpt>
      <trkpt lat="45.63792" lon="6.64662">
        <ele>2530</ele>
        <time>2022-07-16T11:10:28Z</time>
      </trkpt>
      <trkpt lat="45.63794" lon="6.64663">
        <ele>2530</ele>
        <time>2022-07-16T11:10:33Z</time>
      </trkpt>
      <trkpt lat="45.63796" lon="6.64664">
        <ele>2531</ele>
        <time>2022-07-16T11:10:36Z</time>
      </trkpt>
      <trkpt lat="45.63798" lon="6.64666">
        <ele>2532</ele>
        <time>2022-07-16T11:10:39Z</time>
      </trkpt>
      <trkpt lat="45.638" lon="6.64668">
        <ele>2532</ele>
        <time>2022-07-16T11:10:42Z</time>
      </trkpt>
      <trkpt lat="45.63801" lon="6.6467">
        <ele>2533</ele>
        <time>2022-07-16T11:10:46Z</time>
      </trkpt>
      <trkpt lat="45.63801" lon="6.64671">
        <ele>2533</ele>
        <time>2022-07-16T11:10:47Z</time>
      </trkpt>
      <trkpt lat="45.63802" lon="6.64671">
        <ele>2533</ele>
        <time>2022-07-16T11:10:48Z</time>
      </trkpt>
      <trkpt lat="45.63802" lon="6.64672">
        <ele>2533</ele>
        <time>2022-07-16T11:10:50Z</time>
      </trkpt>
      <trkpt lat="45.63803" lon="6.64672">
        <ele>2535</ele>
        <time>2022-07-16T11:10:51Z</time>
      </trkpt>
      <trkpt lat="45.63803" lon="6.64673">
        <ele>2535</ele>
        <time>2022-07-16T11:10:52Z</time>
      </trkpt>
      <trkpt lat="45.63804" lon="6.64673">
        <ele>2535</ele>
        <time>2022-07-16T11:10:53Z</time>
      </trkpt>
      <trkpt lat="45.63804" lon="6.64674">
        <ele>2535</ele>
        <time>2022-07-16T11:10:55Z</time>
      </trkpt>
      <trkpt lat="45.63805" lon="6.64674">
        <ele>2536</ele>
        <time>2022-07-16T11:10:56Z</time>
      </trkpt>
      <trkpt lat="45.63807" lon="6.64677">
        <ele>2535</ele>
        <time>2022-07-16T11:10:58Z</time>
      </trkpt>
      <trkpt lat="45.63808" lon="6.64679">
        <ele>2535</ele>
        <time>2022-07-16T11:11:00Z</time>
      </trkpt>
      <trkpt lat="45.6381" lon="6.64681">
        <ele>2536</ele>
        <time>2022-07-16T11:11:02Z</time>
      </trkpt>
      <trkpt lat="45.6381" lon="6.64684">
        <ele>2536</ele>
        <time>2022-07-16T11:11:05Z</time>
      </trkpt>
      <trkpt lat="45.63811" lon="6.64687">
        <ele>2537</ele>
        <time>2022-07-16T11:11:07Z</time>
      </trkpt>
      <trkpt lat="45.63812" lon="6.6469">
        <ele>2537</ele>
        <time>2022-07-16T11:11:10Z</time>
      </trkpt>
      <trkpt lat="45.63814" lon="6.64691">
        <ele>2537</ele>
        <time>2022-07-16T11:11:13Z</time>
      </trkpt>
      <trkpt lat="45.63815" lon="6.64694">
        <ele>2538</ele>
        <time>2022-07-16T11:11:16Z</time>
      </trkpt>
      <trkpt lat="45.63816" lon="6.64696">
        <ele>2538</ele>
        <time>2022-07-16T11:11:20Z</time>
      </trkpt>
      <trkpt lat="45.63817" lon="6.64699">
        <ele>2540</ele>
        <time>2022-07-16T11:11:23Z</time>
      </trkpt>
      <trkpt lat="45.63817" lon="6.64702">
        <ele>2541</ele>
        <time>2022-07-16T11:11:29Z</time>
      </trkpt>
      <trkpt lat="45.63816" lon="6.64705">
        <ele>2541</ele>
        <time>2022-07-16T11:11:34Z</time>
      </trkpt>
      <trkpt lat="45.63815" lon="6.64708">
        <ele>2542</ele>
        <time>2022-07-16T11:11:39Z</time>
      </trkpt>
      <trkpt lat="45.63816" lon="6.64711">
        <ele>2542</ele>
        <time>2022-07-16T11:11:42Z</time>
      </trkpt>
      <trkpt lat="45.63817" lon="6.64713">
        <ele>2544</ele>
        <time>2022-07-16T11:11:46Z</time>
      </trkpt>
      <trkpt lat="45.63818" lon="6.64716">
        <ele>2545</ele>
        <time>2022-07-16T11:11:50Z</time>
      </trkpt>
      <trkpt lat="45.63819" lon="6.64719">
        <ele>2547</ele>
        <time>2022-07-16T11:11:55Z</time>
      </trkpt>
      <trkpt lat="45.63821" lon="6.64721">
        <ele>2547</ele>
        <time>2022-07-16T11:12:00Z</time>
      </trkpt>
      <trkpt lat="45.63821" lon="6.64724">
        <ele>2548</ele>
        <time>2022-07-16T11:12:03Z</time>
      </trkpt>
      <trkpt lat="45.63821" lon="6.64727">
        <ele>2548</ele>
        <time>2022-07-16T11:12:07Z</time>
      </trkpt>
      <trkpt lat="45.63822" lon="6.64729">
        <ele>2549</ele>
        <time>2022-07-16T11:12:10Z</time>
      </trkpt>
      <trkpt lat="45.63823" lon="6.64732">
        <ele>2549</ele>
        <time>2022-07-16T11:12:13Z</time>
      </trkpt>
      <trkpt lat="45.63825" lon="6.64734">
        <ele>2548</ele>
        <time>2022-07-16T11:12:15Z</time>
      </trkpt>
      <trkpt lat="45.63827" lon="6.64736">
        <ele>2550</ele>
        <time>2022-07-16T11:12:18Z</time>
      </trkpt>
      <trkpt lat="45.63829" lon="6.64738">
        <ele>2550</ele>
        <time>2022-07-16T11:12:21Z</time>
      </trkpt>
      <trkpt lat="45.6383" lon="6.6474">
        <ele>2550</ele>
        <time>2022-07-16T11:12:26Z</time>
      </trkpt>
      <trkpt lat="45.63832" lon="6.64742">
        <ele>2551</ele>
        <time>2022-07-16T11:12:29Z</time>
      </trkpt>
      <trkpt lat="45.63832" lon="6.64746">
        <ele>2553</ele>
        <time>2022-07-16T11:12:34Z</time>
      </trkpt>
      <trkpt lat="45.63832" lon="6.64748">
        <ele>2554</ele>
        <time>2022-07-16T11:12:40Z</time>
      </trkpt>
      <trkpt lat="45.63834" lon="6.64749">
        <ele>2554</ele>
        <time>2022-07-16T11:12:44Z</time>
      </trkpt>
      <trkpt lat="45.63836" lon="6.64751">
        <ele>2555</ele>
        <time>2022-07-16T11:12:48Z</time>
      </trkpt>
      <trkpt lat="45.63836" lon="6.64754">
        <ele>2556</ele>
        <time>2022-07-16T11:12:53Z</time>
      </trkpt>
      <trkpt lat="45.63838" lon="6.64755">
        <ele>2557</ele>
        <time>2022-07-16T11:12:58Z</time>
      </trkpt>
      <trkpt lat="45.63839" lon="6.64758">
        <ele>2559</ele>
        <time>2022-07-16T11:13:08Z</time>
      </trkpt>
      <trkpt lat="45.63839" lon="6.64758">
        <ele>2559</ele>
        <time>2022-07-16T11:13:10Z</time>
      </trkpt>
      <trkpt lat="45.6384" lon="6.6476">
        <ele>2560</ele>
        <time>2022-07-16T11:13:12Z</time>
      </trkpt>
      <trkpt lat="45.63847" lon="6.64758">
        <ele>2561</ele>
        <time>2022-07-16T11:13:26Z</time>
      </trkpt>
      <trkpt lat="45.63847" lon="6.64758">
        <ele>2562</ele>
        <time>2022-07-16T11:13:29Z</time>
      </trkpt>
      <trkpt lat="45.63849" lon="6.64755">
        <ele>2563</ele>
        <time>2022-07-16T11:13:34Z</time>
      </trkpt>
      <trkpt lat="45.6385" lon="6.64754">
        <ele>2564</ele>
        <time>2022-07-16T11:13:38Z</time>
      </trkpt>
      <trkpt lat="45.63852" lon="6.64756">
        <ele>2565</ele>
        <time>2022-07-16T11:13:45Z</time>
      </trkpt>
      <trkpt lat="45.63854" lon="6.64758">
        <ele>2565</ele>
        <time>2022-07-16T11:13:48Z</time>
      </trkpt>
      <trkpt lat="45.63855" lon="6.6476">
        <ele>2566</ele>
        <time>2022-07-16T11:13:52Z</time>
      </trkpt>
      <trkpt lat="45.63855" lon="6.64763">
        <ele>2567</ele>
        <time>2022-07-16T11:13:55Z</time>
      </trkpt>
      <trkpt lat="45.63855" lon="6.64766">
        <ele>2567</ele>
        <time>2022-07-16T11:13:58Z</time>
      </trkpt>
      <trkpt lat="45.63856" lon="6.64769">
        <ele>2567</ele>
        <time>2022-07-16T11:14:01Z</time>
      </trkpt>
      <trkpt lat="45.63856" lon="6.64771">
        <ele>2568</ele>
        <time>2022-07-16T11:14:06Z</time>
      </trkpt>
      <trkpt lat="45.63856" lon="6.64772">
        <ele>2568</ele>
        <time>2022-07-16T11:14:07Z</time>
      </trkpt>
      <trkpt lat="45.63856" lon="6.64773">
        <ele>2568</ele>
        <time>2022-07-16T11:14:09Z</time>
      </trkpt>
      <trkpt lat="45.63856" lon="6.64774">
        <ele>2568</ele>
        <time>2022-07-16T11:14:11Z</time>
      </trkpt>
      <trkpt lat="45.63856" lon="6.64775">
        <ele>2569</ele>
        <time>2022-07-16T11:14:13Z</time>
      </trkpt>
      <trkpt lat="45.63856" lon="6.64776">
        <ele>2571</ele>
        <time>2022-07-16T11:14:16Z</time>
      </trkpt>
      <trkpt lat="45.63857" lon="6.64776">
        <ele>2571</ele>
        <time>2022-07-16T11:14:17Z</time>
      </trkpt>
      <trkpt lat="45.63857" lon="6.64777">
        <ele>2571</ele>
        <time>2022-07-16T11:14:18Z</time>
      </trkpt>
      <trkpt lat="45.63857" lon="6.64778">
        <ele>2572</ele>
        <time>2022-07-16T11:14:20Z</time>
      </trkpt>
      <trkpt lat="45.63857" lon="6.64779">
        <ele>2572</ele>
        <time>2022-07-16T11:14:22Z</time>
      </trkpt>
      <trkpt lat="45.63857" lon="6.6478">
        <ele>2572</ele>
        <time>2022-07-16T11:14:26Z</time>
      </trkpt>
      <trkpt lat="45.63857" lon="6.64781">
        <ele>2573</ele>
        <time>2022-07-16T11:14:28Z</time>
      </trkpt>
      <trkpt lat="45.63857" lon="6.64782">
        <ele>2573</ele>
        <time>2022-07-16T11:14:30Z</time>
      </trkpt>
      <trkpt lat="45.63857" lon="6.64783">
        <ele>2574</ele>
        <time>2022-07-16T11:14:33Z</time>
      </trkpt>
      <trkpt lat="45.63858" lon="6.64784">
        <ele>2574</ele>
        <time>2022-07-16T11:14:35Z</time>
      </trkpt>
      <trkpt lat="45.63858" lon="6.64785">
        <ele>2574</ele>
        <time>2022-07-16T11:14:37Z</time>
      </trkpt>
      <trkpt lat="45.63859" lon="6.64783">
        <ele>2575</ele>
        <time>2022-07-16T11:14:40Z</time>
      </trkpt>
      <trkpt lat="45.6386" lon="6.64783">
        <ele>2575</ele>
        <time>2022-07-16T11:14:42Z</time>
      </trkpt>
      <trkpt lat="45.6386" lon="6.64782">
        <ele>2575</ele>
        <time>2022-07-16T11:14:43Z</time>
      </trkpt>
      <trkpt lat="45.63861" lon="6.64781">
        <ele>2575</ele>
        <time>2022-07-16T11:14:45Z</time>
      </trkpt>
      <trkpt lat="45.63862" lon="6.6478">
        <ele>2575</ele>
        <time>2022-07-16T11:14:47Z</time>
      </trkpt>
      <trkpt lat="45.63863" lon="6.64779">
        <ele>2576</ele>
        <time>2022-07-16T11:14:50Z</time>
      </trkpt>
      <trkpt lat="45.63863" lon="6.64778">
        <ele>2576</ele>
        <time>2022-07-16T11:14:52Z</time>
      </trkpt>
      <trkpt lat="45.63864" lon="6.64778">
        <ele>2576</ele>
        <time>2022-07-16T11:14:53Z</time>
      </trkpt>
      <trkpt lat="45.63864" lon="6.64777">
        <ele>2576</ele>
        <time>2022-07-16T11:14:54Z</time>
      </trkpt>
      <trkpt lat="45.63865" lon="6.64777">
        <ele>2577</ele>
        <time>2022-07-16T11:14:55Z</time>
      </trkpt>
      <trkpt lat="45.63865" lon="6.64776">
        <ele>2577</ele>
        <time>2022-07-16T11:14:57Z</time>
      </trkpt>
      <trkpt lat="45.63866" lon="6.64776">
        <ele>2577</ele>
        <time>2022-07-16T11:14:58Z</time>
      </trkpt>
      <trkpt lat="45.63866" lon="6.64777">
        <ele>2578</ele>
        <time>2022-07-16T11:15:00Z</time>
      </trkpt>
      <trkpt lat="45.63867" lon="6.64777">
        <ele>2578</ele>
        <time>2022-07-16T11:15:01Z</time>
      </trkpt>
      <trkpt lat="45.63867" lon="6.64778">
        <ele>2578</ele>
        <time>2022-07-16T11:15:03Z</time>
      </trkpt>
      <trkpt lat="45.63868" lon="6.64778">
        <ele>2578</ele>
        <time>2022-07-16T11:15:04Z</time>
      </trkpt>
      <trkpt lat="45.63868" lon="6.64779">
        <ele>2579</ele>
        <time>2022-07-16T11:15:06Z</time>
      </trkpt>
      <trkpt lat="45.63869" lon="6.64779">
        <ele>2579</ele>
        <time>2022-07-16T11:15:07Z</time>
      </trkpt>
      <trkpt lat="45.63869" lon="6.6478">
        <ele>2579</ele>
        <time>2022-07-16T11:15:09Z</time>
      </trkpt>
      <trkpt lat="45.6387" lon="6.6478">
        <ele>2580</ele>
        <time>2022-07-16T11:15:10Z</time>
      </trkpt>
      <trkpt lat="45.6387" lon="6.64781">
        <ele>2580</ele>
        <time>2022-07-16T11:15:11Z</time>
      </trkpt>
      <trkpt lat="45.63871" lon="6.64781">
        <ele>2580</ele>
        <time>2022-07-16T11:15:13Z</time>
      </trkpt>
      <trkpt lat="45.63871" lon="6.64782">
        <ele>2580</ele>
        <time>2022-07-16T11:15:14Z</time>
      </trkpt>
      <trkpt lat="45.63872" lon="6.64782">
        <ele>2581</ele>
        <time>2022-07-16T11:15:16Z</time>
      </trkpt>
      <trkpt lat="45.63872" lon="6.64783">
        <ele>2581</ele>
        <time>2022-07-16T11:15:17Z</time>
      </trkpt>
      <trkpt lat="45.63873" lon="6.64784">
        <ele>2581</ele>
        <time>2022-07-16T11:15:19Z</time>
      </trkpt>
      <trkpt lat="45.63874" lon="6.64785">
        <ele>2583</ele>
        <time>2022-07-16T11:15:22Z</time>
      </trkpt>
      <trkpt lat="45.63875" lon="6.64785">
        <ele>2584</ele>
        <time>2022-07-16T11:15:23Z</time>
      </trkpt>
      <trkpt lat="45.63876" lon="6.64786">
        <ele>2584</ele>
        <time>2022-07-16T11:15:25Z</time>
      </trkpt>
      <trkpt lat="45.63877" lon="6.64786">
        <ele>2584</ele>
        <time>2022-07-16T11:15:27Z</time>
      </trkpt>
      <trkpt lat="45.63878" lon="6.64787">
        <ele>2585</ele>
        <time>2022-07-16T11:15:28Z</time>
      </trkpt>
      <trkpt lat="45.63879" lon="6.64787">
        <ele>2585</ele>
        <time>2022-07-16T11:15:30Z</time>
      </trkpt>
      <trkpt lat="45.63879" lon="6.64788">
        <ele>2585</ele>
        <time>2022-07-16T11:15:31Z</time>
      </trkpt>
      <trkpt lat="45.6388" lon="6.64788">
        <ele>2585</ele>
        <time>2022-07-16T11:15:32Z</time>
      </trkpt>
      <trkpt lat="45.63881" lon="6.64789">
        <ele>2585</ele>
        <time>2022-07-16T11:15:34Z</time>
      </trkpt>
      <trkpt lat="45.63882" lon="6.64789">
        <ele>2585</ele>
        <time>2022-07-16T11:15:35Z</time>
      </trkpt>
      <trkpt lat="45.63883" lon="6.6479">
        <ele>2585</ele>
        <time>2022-07-16T11:15:37Z</time>
      </trkpt>
      <trkpt lat="45.63884" lon="6.6479">
        <ele>2586</ele>
        <time>2022-07-16T11:15:39Z</time>
      </trkpt>
      <trkpt lat="45.63884" lon="6.64791">
        <ele>2586</ele>
        <time>2022-07-16T11:15:40Z</time>
      </trkpt>
      <trkpt lat="45.63885" lon="6.64791">
        <ele>2586</ele>
        <time>2022-07-16T11:15:41Z</time>
      </trkpt>
      <trkpt lat="45.63886" lon="6.64792">
        <ele>2586</ele>
        <time>2022-07-16T11:15:43Z</time>
      </trkpt>
      <trkpt lat="45.63887" lon="6.64792">
        <ele>2587</ele>
        <time>2022-07-16T11:15:45Z</time>
      </trkpt>
      <trkpt lat="45.63887" lon="6.64793">
        <ele>2587</ele>
        <time>2022-07-16T11:15:46Z</time>
      </trkpt>
      <trkpt lat="45.63888" lon="6.64793">
        <ele>2587</ele>
        <time>2022-07-16T11:15:47Z</time>
      </trkpt>
      <trkpt lat="45.63889" lon="6.64794">
        <ele>2587</ele>
        <time>2022-07-16T11:15:49Z</time>
      </trkpt>
      <trkpt lat="45.6389" lon="6.64794">
        <ele>2588</ele>
        <time>2022-07-16T11:15:51Z</time>
      </trkpt>
      <trkpt lat="45.6389" lon="6.64795">
        <ele>2588</ele>
        <time>2022-07-16T11:15:52Z</time>
      </trkpt>
      <trkpt lat="45.63891" lon="6.64795">
        <ele>2588</ele>
        <time>2022-07-16T11:15:53Z</time>
      </trkpt>
      <trkpt lat="45.63891" lon="6.64796">
        <ele>2589</ele>
        <time>2022-07-16T11:15:55Z</time>
      </trkpt>
      <trkpt lat="45.63892" lon="6.64796">
        <ele>2589</ele>
        <time>2022-07-16T11:15:56Z</time>
      </trkpt>
      <trkpt lat="45.63892" lon="6.64797">
        <ele>2589</ele>
        <time>2022-07-16T11:15:58Z</time>
      </trkpt>
      <trkpt lat="45.63893" lon="6.64797">
        <ele>2589</ele>
        <time>2022-07-16T11:16:00Z</time>
      </trkpt>
      <trkpt lat="45.63894" lon="6.64798">
        <ele>2590</ele>
        <time>2022-07-16T11:16:02Z</time>
      </trkpt>
      <trkpt lat="45.63896" lon="6.64799">
        <ele>2590</ele>
        <time>2022-07-16T11:16:05Z</time>
      </trkpt>
      <trkpt lat="45.63898" lon="6.64799">
        <ele>2590</ele>
        <time>2022-07-16T11:16:07Z</time>
      </trkpt>
      <trkpt lat="45.63899" lon="6.64801">
        <ele>2591</ele>
        <time>2022-07-16T11:16:10Z</time>
      </trkpt>
      <trkpt lat="45.63901" lon="6.64804">
        <ele>2591</ele>
        <time>2022-07-16T11:16:14Z</time>
      </trkpt>
      <trkpt lat="45.63902" lon="6.64806">
        <ele>2592</ele>
        <time>2022-07-16T11:16:18Z</time>
      </trkpt>
      <trkpt lat="45.63902" lon="6.64809">
        <ele>2593</ele>
        <time>2022-07-16T11:16:24Z</time>
      </trkpt>
      <trkpt lat="45.63904" lon="6.64811">
        <ele>2596</ele>
        <time>2022-07-16T11:16:28Z</time>
      </trkpt>
      <trkpt lat="45.63906" lon="6.64813">
        <ele>2596</ele>
        <time>2022-07-16T11:16:31Z</time>
      </trkpt>
      <trkpt lat="45.63907" lon="6.64815">
        <ele>2596</ele>
        <time>2022-07-16T11:16:35Z</time>
      </trkpt>
      <trkpt lat="45.63908" lon="6.64816">
        <ele>2596</ele>
        <time>2022-07-16T11:16:38Z</time>
      </trkpt>
      <trkpt lat="45.6391" lon="6.64819">
        <ele>2597</ele>
        <time>2022-07-16T11:16:42Z</time>
      </trkpt>
      <trkpt lat="45.63911" lon="6.6482">
        <ele>2597</ele>
        <time>2022-07-16T11:16:47Z</time>
      </trkpt>
      <trkpt lat="45.63913" lon="6.64821">
        <ele>2599</ele>
        <time>2022-07-16T11:16:53Z</time>
      </trkpt>
      <trkpt lat="45.63916" lon="6.64824">
        <ele>2600</ele>
        <time>2022-07-16T11:16:59Z</time>
      </trkpt>
      <trkpt lat="45.63916" lon="6.64824">
        <ele>2601</ele>
        <time>2022-07-16T11:17:03Z</time>
      </trkpt>
      <trkpt lat="45.63917" lon="6.64826">
        <ele>2601</ele>
        <time>2022-07-16T11:17:04Z</time>
      </trkpt>
      <trkpt lat="45.63918" lon="6.64829">
        <ele>2601</ele>
        <time>2022-07-16T11:17:07Z</time>
      </trkpt>
      <trkpt lat="45.63919" lon="6.64831">
        <ele>2601</ele>
        <time>2022-07-16T11:17:10Z</time>
      </trkpt>
      <trkpt lat="45.6392" lon="6.64834">
        <ele>2601</ele>
        <time>2022-07-16T11:17:13Z</time>
      </trkpt>
      <trkpt lat="45.63922" lon="6.64836">
        <ele>2601</ele>
        <time>2022-07-16T11:17:15Z</time>
      </trkpt>
      <trkpt lat="45.63924" lon="6.64839">
        <ele>2601</ele>
        <time>2022-07-16T11:17:18Z</time>
      </trkpt>
      <trkpt lat="45.63925" lon="6.64841">
        <ele>2601</ele>
        <time>2022-07-16T11:17:21Z</time>
      </trkpt>
      <trkpt lat="45.63925" lon="6.64844">
        <ele>2602</ele>
        <time>2022-07-16T11:17:24Z</time>
      </trkpt>
      <trkpt lat="45.63925" lon="6.64848">
        <ele>2603</ele>
        <time>2022-07-16T11:17:27Z</time>
      </trkpt>
      <trkpt lat="45.63926" lon="6.64851">
        <ele>2603</ele>
        <time>2022-07-16T11:17:31Z</time>
      </trkpt>
      <trkpt lat="45.63927" lon="6.64854">
        <ele>2602</ele>
        <time>2022-07-16T11:17:33Z</time>
      </trkpt>
      <trkpt lat="45.63928" lon="6.64857">
        <ele>2602</ele>
        <time>2022-07-16T11:17:35Z</time>
      </trkpt>
      <trkpt lat="45.6393" lon="6.64859">
        <ele>2602</ele>
        <time>2022-07-16T11:17:37Z</time>
      </trkpt>
      <trkpt lat="45.63931" lon="6.64862">
        <ele>2602</ele>
        <time>2022-07-16T11:17:39Z</time>
      </trkpt>
      <trkpt lat="45.63932" lon="6.64864">
        <ele>2602</ele>
        <time>2022-07-16T11:17:41Z</time>
      </trkpt>
      <trkpt lat="45.63933" lon="6.64866">
        <ele>2602</ele>
        <time>2022-07-16T11:17:43Z</time>
      </trkpt>
      <trkpt lat="45.63935" lon="6.64868">
        <ele>2602</ele>
        <time>2022-07-16T11:17:45Z</time>
      </trkpt>
      <trkpt lat="45.63936" lon="6.64871">
        <ele>2602</ele>
        <time>2022-07-16T11:17:47Z</time>
      </trkpt>
      <trkpt lat="45.63938" lon="6.64873">
        <ele>2602</ele>
        <time>2022-07-16T11:17:49Z</time>
      </trkpt>
      <trkpt lat="45.63939" lon="6.64876">
        <ele>2603</ele>
        <time>2022-07-16T11:17:51Z</time>
      </trkpt>
      <trkpt lat="45.63939" lon="6.64879">
        <ele>2603</ele>
        <time>2022-07-16T11:17:53Z</time>
      </trkpt>
      <trkpt lat="45.63941" lon="6.64881">
        <ele>2603</ele>
        <time>2022-07-16T11:17:56Z</time>
      </trkpt>
      <trkpt lat="45.63941" lon="6.64884">
        <ele>2604</ele>
        <time>2022-07-16T11:17:59Z</time>
      </trkpt>
      <trkpt lat="45.63942" lon="6.64888">
        <ele>2604</ele>
        <time>2022-07-16T11:18:02Z</time>
      </trkpt>
      <trkpt lat="45.63942" lon="6.64892">
        <ele>2605</ele>
        <time>2022-07-16T11:18:05Z</time>
      </trkpt>
      <trkpt lat="45.63942" lon="6.64895">
        <ele>2605</ele>
        <time>2022-07-16T11:18:07Z</time>
      </trkpt>
      <trkpt lat="45.63942" lon="6.64897">
        <ele>2607</ele>
        <time>2022-07-16T11:18:09Z</time>
      </trkpt>
      <trkpt lat="45.63943" lon="6.64901">
        <ele>2608</ele>
        <time>2022-07-16T11:18:12Z</time>
      </trkpt>
      <trkpt lat="45.63944" lon="6.64904">
        <ele>2608</ele>
        <time>2022-07-16T11:18:15Z</time>
      </trkpt>
      <trkpt lat="45.63945" lon="6.64907">
        <ele>2608</ele>
        <time>2022-07-16T11:18:18Z</time>
      </trkpt>
      <trkpt lat="45.63945" lon="6.64909">
        <ele>2608</ele>
        <time>2022-07-16T11:18:20Z</time>
      </trkpt>
      <trkpt lat="45.63946" lon="6.64913">
        <ele>2608</ele>
        <time>2022-07-16T11:18:23Z</time>
      </trkpt>
      <trkpt lat="45.63946" lon="6.64916">
        <ele>2608</ele>
        <time>2022-07-16T11:18:26Z</time>
      </trkpt>
      <trkpt lat="45.63946" lon="6.64919">
        <ele>2608</ele>
        <time>2022-07-16T11:18:28Z</time>
      </trkpt>
      <trkpt lat="45.63946" lon="6.64922">
        <ele>2609</ele>
        <time>2022-07-16T11:18:30Z</time>
      </trkpt>
      <trkpt lat="45.63946" lon="6.64925">
        <ele>2609</ele>
        <time>2022-07-16T11:18:33Z</time>
      </trkpt>
      <trkpt lat="45.63946" lon="6.64928">
        <ele>2610</ele>
        <time>2022-07-16T11:18:36Z</time>
      </trkpt>
      <trkpt lat="45.63946" lon="6.6493">
        <ele>2610</ele>
        <time>2022-07-16T11:18:39Z</time>
      </trkpt>
      <trkpt lat="45.63947" lon="6.64933">
        <ele>2611</ele>
        <time>2022-07-16T11:18:42Z</time>
      </trkpt>
      <trkpt lat="45.63947" lon="6.64936">
        <ele>2611</ele>
        <time>2022-07-16T11:18:45Z</time>
      </trkpt>
      <trkpt lat="45.63947" lon="6.64939">
        <ele>2612</ele>
        <time>2022-07-16T11:18:47Z</time>
      </trkpt>
      <trkpt lat="45.63947" lon="6.64942">
        <ele>2612</ele>
        <time>2022-07-16T11:18:50Z</time>
      </trkpt>
      <trkpt lat="45.63947" lon="6.64946">
        <ele>2612</ele>
        <time>2022-07-16T11:18:53Z</time>
      </trkpt>
      <trkpt lat="45.63947" lon="6.64949">
        <ele>2613</ele>
        <time>2022-07-16T11:18:56Z</time>
      </trkpt>
      <trkpt lat="45.63948" lon="6.64952">
        <ele>2613</ele>
        <time>2022-07-16T11:19:00Z</time>
      </trkpt>
      <trkpt lat="45.63948" lon="6.64956">
        <ele>2614</ele>
        <time>2022-07-16T11:19:03Z</time>
      </trkpt>
      <trkpt lat="45.63949" lon="6.6496">
        <ele>2615</ele>
        <time>2022-07-16T11:19:08Z</time>
      </trkpt>
      <trkpt lat="45.6395" lon="6.64962">
        <ele>2615</ele>
        <time>2022-07-16T11:19:12Z</time>
      </trkpt>
      <trkpt lat="45.63951" lon="6.64964">
        <ele>2615</ele>
        <time>2022-07-16T11:19:15Z</time>
      </trkpt>
      <trkpt lat="45.63952" lon="6.64967">
        <ele>2616</ele>
        <time>2022-07-16T11:19:18Z</time>
      </trkpt>
      <trkpt lat="45.63953" lon="6.64969">
        <ele>2616</ele>
        <time>2022-07-16T11:19:20Z</time>
      </trkpt>
      <trkpt lat="45.63954" lon="6.64972">
        <ele>2617</ele>
        <time>2022-07-16T11:19:24Z</time>
      </trkpt>
      <trkpt lat="45.63954" lon="6.64975">
        <ele>2619</ele>
        <time>2022-07-16T11:19:28Z</time>
      </trkpt>
      <trkpt lat="45.63954" lon="6.64978">
        <ele>2619</ele>
        <time>2022-07-16T11:19:31Z</time>
      </trkpt>
      <trkpt lat="45.63954" lon="6.64981">
        <ele>2619</ele>
        <time>2022-07-16T11:19:34Z</time>
      </trkpt>
      <trkpt lat="45.63954" lon="6.64984">
        <ele>2620</ele>
        <time>2022-07-16T11:19:36Z</time>
      </trkpt>
      <trkpt lat="45.63954" lon="6.64988">
        <ele>2620</ele>
        <time>2022-07-16T11:19:39Z</time>
      </trkpt>
      <trkpt lat="45.63954" lon="6.64991">
        <ele>2621</ele>
        <time>2022-07-16T11:19:42Z</time>
      </trkpt>
      <trkpt lat="45.63954" lon="6.64994">
        <ele>2621</ele>
        <time>2022-07-16T11:19:45Z</time>
      </trkpt>
      <trkpt lat="45.63953" lon="6.64997">
        <ele>2621</ele>
        <time>2022-07-16T11:19:48Z</time>
      </trkpt>
      <trkpt lat="45.63953" lon="6.65001">
        <ele>2623</ele>
        <time>2022-07-16T11:19:52Z</time>
      </trkpt>
      <trkpt lat="45.63953" lon="6.65004">
        <ele>2623</ele>
        <time>2022-07-16T11:19:55Z</time>
      </trkpt>
      <trkpt lat="45.63954" lon="6.65006">
        <ele>2623</ele>
        <time>2022-07-16T11:19:57Z</time>
      </trkpt>
      <trkpt lat="45.63955" lon="6.65009">
        <ele>2623</ele>
        <time>2022-07-16T11:20:00Z</time>
      </trkpt>
      <trkpt lat="45.63954" lon="6.65012">
        <ele>2623</ele>
        <time>2022-07-16T11:20:03Z</time>
      </trkpt>
      <trkpt lat="45.63953" lon="6.65015">
        <ele>2623</ele>
        <time>2022-07-16T11:20:05Z</time>
      </trkpt>
      <trkpt lat="45.63952" lon="6.65017">
        <ele>2623</ele>
        <time>2022-07-16T11:20:07Z</time>
      </trkpt>
      <trkpt lat="45.63951" lon="6.6502">
        <ele>2623</ele>
        <time>2022-07-16T11:20:09Z</time>
      </trkpt>
      <trkpt lat="45.6395" lon="6.65022">
        <ele>2624</ele>
        <time>2022-07-16T11:20:12Z</time>
      </trkpt>
      <trkpt lat="45.6395" lon="6.65023">
        <ele>2624</ele>
        <time>2022-07-16T11:20:13Z</time>
      </trkpt>
      <trkpt lat="45.6395" lon="6.65024">
        <ele>2624</ele>
        <time>2022-07-16T11:20:14Z</time>
      </trkpt>
      <trkpt lat="45.6395" lon="6.65025">
        <ele>2624</ele>
        <time>2022-07-16T11:20:16Z</time>
      </trkpt>
      <trkpt lat="45.6395" lon="6.65026">
        <ele>2625</ele>
        <time>2022-07-16T11:20:17Z</time>
      </trkpt>
      <trkpt lat="45.63949" lon="6.65026">
        <ele>2625</ele>
        <time>2022-07-16T11:20:18Z</time>
      </trkpt>
      <trkpt lat="45.63949" lon="6.65027">
        <ele>2625</ele>
        <time>2022-07-16T11:20:19Z</time>
      </trkpt>
      <trkpt lat="45.63949" lon="6.65028">
        <ele>2625</ele>
        <time>2022-07-16T11:20:20Z</time>
      </trkpt>
      <trkpt lat="45.63949" lon="6.65029">
        <ele>2626</ele>
        <time>2022-07-16T11:20:21Z</time>
      </trkpt>
      <trkpt lat="45.63949" lon="6.6503">
        <ele>2626</ele>
        <time>2022-07-16T11:20:23Z</time>
      </trkpt>
      <trkpt lat="45.63948" lon="6.65031">
        <ele>2626</ele>
        <time>2022-07-16T11:20:24Z</time>
      </trkpt>
      <trkpt lat="45.63948" lon="6.65033">
        <ele>2627</ele>
        <time>2022-07-16T11:20:29Z</time>
      </trkpt>
      <trkpt lat="45.63947" lon="6.65035">
        <ele>2628</ele>
        <time>2022-07-16T11:20:33Z</time>
      </trkpt>
      <trkpt lat="45.63945" lon="6.65038">
        <ele>2629</ele>
        <time>2022-07-16T11:20:39Z</time>
      </trkpt>
      <trkpt lat="45.63944" lon="6.6504">
        <ele>2631</ele>
        <time>2022-07-16T11:20:47Z</time>
      </trkpt>
      <trkpt lat="45.63944" lon="6.65043">
        <ele>2632</ele>
        <time>2022-07-16T11:20:52Z</time>
      </trkpt>
      <trkpt lat="45.63944" lon="6.65045">
        <ele>2632</ele>
        <time>2022-07-16T11:20:56Z</time>
      </trkpt>
      <trkpt lat="45.63942" lon="6.65047">
        <ele>2633</ele>
        <time>2022-07-16T11:21:00Z</time>
      </trkpt>
      <trkpt lat="45.63941" lon="6.6505">
        <ele>2634</ele>
        <time>2022-07-16T11:21:05Z</time>
      </trkpt>
      <trkpt lat="45.6394" lon="6.65052">
        <ele>2635</ele>
        <time>2022-07-16T11:21:11Z</time>
      </trkpt>
      <trkpt lat="45.6394" lon="6.65055">
        <ele>2636</ele>
        <time>2022-07-16T11:21:17Z</time>
      </trkpt>
      <trkpt lat="45.63942" lon="6.65056">
        <ele>2637</ele>
        <time>2022-07-16T11:21:22Z</time>
      </trkpt>
      <trkpt lat="45.63944" lon="6.65056">
        <ele>2638</ele>
        <time>2022-07-16T11:21:25Z</time>
      </trkpt>
      <trkpt lat="45.63946" lon="6.65055">
        <ele>2639</ele>
        <time>2022-07-16T11:21:32Z</time>
      </trkpt>
      <trkpt lat="45.63948" lon="6.65055">
        <ele>2639</ele>
        <time>2022-07-16T11:21:36Z</time>
      </trkpt>
      <trkpt lat="45.6395" lon="6.65055">
        <ele>2640</ele>
        <time>2022-07-16T11:21:40Z</time>
      </trkpt>
      <trkpt lat="45.63952" lon="6.65057">
        <ele>2640</ele>
        <time>2022-07-16T11:21:47Z</time>
      </trkpt>
      <trkpt lat="45.63952" lon="6.65059">
        <ele>2641</ele>
        <time>2022-07-16T11:21:50Z</time>
      </trkpt>
      <trkpt lat="45.63952" lon="6.65062">
        <ele>2642</ele>
        <time>2022-07-16T11:21:53Z</time>
      </trkpt>
      <trkpt lat="45.63953" lon="6.65065">
        <ele>2642</ele>
        <time>2022-07-16T11:21:57Z</time>
      </trkpt>
      <trkpt lat="45.63953" lon="6.65068">
        <ele>2644</ele>
        <time>2022-07-16T11:22:01Z</time>
      </trkpt>
      <trkpt lat="45.63952" lon="6.65071">
        <ele>2645</ele>
        <time>2022-07-16T11:22:05Z</time>
      </trkpt>
      <trkpt lat="45.63951" lon="6.65073">
        <ele>2645</ele>
        <time>2022-07-16T11:22:08Z</time>
      </trkpt>
      <trkpt lat="45.63949" lon="6.65074">
        <ele>2645</ele>
        <time>2022-07-16T11:22:12Z</time>
      </trkpt>
      <trkpt lat="45.63947" lon="6.65076">
        <ele>2646</ele>
        <time>2022-07-16T11:22:16Z</time>
      </trkpt>
      <trkpt lat="45.63946" lon="6.65079">
        <ele>2646</ele>
        <time>2022-07-16T11:22:22Z</time>
      </trkpt>
      <trkpt lat="45.63945" lon="6.65081">
        <ele>2647</ele>
        <time>2022-07-16T11:22:26Z</time>
      </trkpt>
      <trkpt lat="45.63943" lon="6.65083">
        <ele>2648</ele>
        <time>2022-07-16T11:22:30Z</time>
      </trkpt>
      <trkpt lat="45.63942" lon="6.65086">
        <ele>2648</ele>
        <time>2022-07-16T11:22:35Z</time>
      </trkpt>
      <trkpt lat="45.63942" lon="6.65088">
        <ele>2650</ele>
        <time>2022-07-16T11:22:41Z</time>
      </trkpt>
      <trkpt lat="45.6394" lon="6.65088">
        <ele>2650</ele>
        <time>2022-07-16T11:22:44Z</time>
      </trkpt>
      <trkpt lat="45.63938" lon="6.65089">
        <ele>2650</ele>
        <time>2022-07-16T11:22:46Z</time>
      </trkpt>
      <trkpt lat="45.63936" lon="6.65089">
        <ele>2650</ele>
        <time>2022-07-16T11:22:48Z</time>
      </trkpt>
      <trkpt lat="45.63934" lon="6.65089">
        <ele>2650</ele>
        <time>2022-07-16T11:22:50Z</time>
      </trkpt>
      <trkpt lat="45.63933" lon="6.65089">
        <ele>2650</ele>
        <time>2022-07-16T11:22:51Z</time>
      </trkpt>
      <trkpt lat="45.63932" lon="6.65089">
        <ele>2650</ele>
        <time>2022-07-16T11:22:52Z</time>
      </trkpt>
      <trkpt lat="45.63931" lon="6.6509">
        <ele>2650</ele>
        <time>2022-07-16T11:22:53Z</time>
      </trkpt>
      <trkpt lat="45.6393" lon="6.6509">
        <ele>2651</ele>
        <time>2022-07-16T11:22:55Z</time>
      </trkpt>
      <trkpt lat="45.63929" lon="6.6509">
        <ele>2651</ele>
        <time>2022-07-16T11:22:56Z</time>
      </trkpt>
      <trkpt lat="45.63927" lon="6.65092">
        <ele>2651</ele>
        <time>2022-07-16T11:23:00Z</time>
      </trkpt>
      <trkpt lat="45.63926" lon="6.65095">
        <ele>2652</ele>
        <time>2022-07-16T11:23:05Z</time>
      </trkpt>
      <trkpt lat="45.63924" lon="6.65096">
        <ele>2652</ele>
        <time>2022-07-16T11:23:09Z</time>
      </trkpt>
      <trkpt lat="45.63922" lon="6.65098">
        <ele>2653</ele>
        <time>2022-07-16T11:23:14Z</time>
      </trkpt>
      <trkpt lat="45.63921" lon="6.651">
        <ele>2653</ele>
        <time>2022-07-16T11:23:17Z</time>
      </trkpt>
      <trkpt lat="45.6392" lon="6.65102">
        <ele>2656</ele>
        <time>2022-07-16T11:23:24Z</time>
      </trkpt>
      <trkpt lat="45.63918" lon="6.65103">
        <ele>2656</ele>
        <time>2022-07-16T11:23:28Z</time>
      </trkpt>
      <trkpt lat="45.63916" lon="6.65105">
        <ele>2656</ele>
        <time>2022-07-16T11:23:31Z</time>
      </trkpt>
      <trkpt lat="45.63914" lon="6.65107">
        <ele>2657</ele>
        <time>2022-07-16T11:23:36Z</time>
      </trkpt>
      <trkpt lat="45.63912" lon="6.65108">
        <ele>2658</ele>
        <time>2022-07-16T11:23:40Z</time>
      </trkpt>
      <trkpt lat="45.63911" lon="6.6511">
        <ele>2658</ele>
        <time>2022-07-16T11:23:42Z</time>
      </trkpt>
      <trkpt lat="45.6391" lon="6.65112">
        <ele>2659</ele>
        <time>2022-07-16T11:23:46Z</time>
      </trkpt>
      <trkpt lat="45.63908" lon="6.65114">
        <ele>2659</ele>
        <time>2022-07-16T11:23:51Z</time>
      </trkpt>
      <trkpt lat="45.63908" lon="6.65114">
        <ele>2660</ele>
        <time>2022-07-16T11:23:59Z</time>
      </trkpt>
      <trkpt lat="45.63909" lon="6.65111">
        <ele>2661</ele>
        <time>2022-07-16T11:24:06Z</time>
      </trkpt>
      <trkpt lat="45.63912" lon="6.65111">
        <ele>2661</ele>
        <time>2022-07-16T11:24:10Z</time>
      </trkpt>
      <trkpt lat="45.63914" lon="6.65111">
        <ele>2662</ele>
        <time>2022-07-16T11:24:15Z</time>
      </trkpt>
      <trkpt lat="45.63913" lon="6.65114">
        <ele>2665</ele>
        <time>2022-07-16T11:24:26Z</time>
      </trkpt>
      <trkpt lat="45.63913" lon="6.65114">
        <ele>2665</ele>
        <time>2022-07-16T11:24:28Z</time>
      </trkpt>
      <trkpt lat="45.63912" lon="6.65117">
        <ele>2665</ele>
        <time>2022-07-16T11:24:30Z</time>
      </trkpt>
      <trkpt lat="45.63914" lon="6.65119">
        <ele>2666</ele>
        <time>2022-07-16T11:24:34Z</time>
      </trkpt>
      <trkpt lat="45.63915" lon="6.6512">
        <ele>2668</ele>
        <time>2022-07-16T11:24:38Z</time>
      </trkpt>
      <trkpt lat="45.63916" lon="6.65123">
        <ele>2671</ele>
        <time>2022-07-16T11:24:45Z</time>
      </trkpt>
      <trkpt lat="45.63916" lon="6.65123">
        <ele>2672</ele>
        <time>2022-07-16T11:24:49Z</time>
      </trkpt>
      <trkpt lat="45.63917" lon="6.65125">
        <ele>2672</ele>
        <time>2022-07-16T11:24:51Z</time>
      </trkpt>
      <trkpt lat="45.63915" lon="6.65128">
        <ele>2673</ele>
        <time>2022-07-16T11:25:02Z</time>
      </trkpt>
      <trkpt lat="45.63915" lon="6.65128">
        <ele>2673</ele>
        <time>2022-07-16T11:25:07Z</time>
      </trkpt>
      <trkpt lat="45.63915" lon="6.65128">
        <ele>2673</ele>
        <time>2022-07-16T11:25:23Z</time>
      </trkpt>
      <trkpt lat="45.63915" lon="6.65128">
        <ele>2673</ele>
        <time>2022-07-16T11:25:40Z</time>
      </trkpt>
      <trkpt lat="45.63915" lon="6.65128">
        <ele>2671</ele>
        <time>2022-07-16T11:25:56Z</time>
      </trkpt>
      <trkpt lat="45.63915" lon="6.65128">
        <ele>2672</ele>
        <time>2022-07-16T11:26:12Z</time>
      </trkpt>
      <trkpt lat="45.63915" lon="6.65128">
        <ele>2672</ele>
        <time>2022-07-16T11:26:28Z</time>
      </trkpt>
      <trkpt lat="45.63915" lon="6.65128">
        <ele>2672</ele>
        <time>2022-07-16T11:26:44Z</time>
      </trkpt>
      <trkpt lat="45.63915" lon="6.65128">
        <ele>2672</ele>
        <time>2022-07-16T11:27:00Z</time>
      </trkpt>
      <trkpt lat="45.63917" lon="6.65129">
        <ele>2672</ele>
        <time>2022-07-16T11:27:10Z</time>
      </trkpt>
      <trkpt lat="45.63917" lon="6.65129">
        <ele>2672</ele>
        <time>2022-07-16T11:27:18Z</time>
      </trkpt>
      <trkpt lat="45.63917" lon="6.65129">
        <ele>2671</ele>
        <time>2022-07-16T11:27:35Z</time>
      </trkpt>
      <trkpt lat="45.63918" lon="6.65131">
        <ele>2671</ele>
        <time>2022-07-16T11:27:38Z</time>
      </trkpt>
      <trkpt lat="45.63918" lon="6.65131">
        <ele>2670</ele>
        <time>2022-07-16T11:27:53Z</time>
      </trkpt>
      <trkpt lat="45.63917" lon="6.65134">
        <ele>2670</ele>
        <time>2022-07-16T11:27:55Z</time>
      </trkpt>
      <trkpt lat="45.63915" lon="6.65133">
        <ele>2668</ele>
        <time>2022-07-16T11:28:01Z</time>
      </trkpt>
      <trkpt lat="45.63915" lon="6.65133">
        <ele>2668</ele>
        <time>2022-07-16T11:28:11Z</time>
      </trkpt>
      <trkpt lat="45.63913" lon="6.65134">
        <ele>2668</ele>
        <time>2022-07-16T11:28:15Z</time>
      </trkpt>
      <trkpt lat="45.63913" lon="6.65134">
        <ele>2666</ele>
        <time>2022-07-16T11:28:29Z</time>
      </trkpt>
      <trkpt lat="45.63912" lon="6.65136">
        <ele>2666</ele>
        <time>2022-07-16T11:28:37Z</time>
      </trkpt>
      <trkpt lat="45.63912" lon="6.65139">
        <ele>2664</ele>
        <time>2022-07-16T11:28:44Z</time>
      </trkpt>
      <trkpt lat="45.63912" lon="6.65139">
        <ele>2664</ele>
        <time>2022-07-16T11:28:47Z</time>
      </trkpt>
      <trkpt lat="45.63911" lon="6.65141">
        <ele>2664</ele>
        <time>2022-07-16T11:28:49Z</time>
      </trkpt>
      <trkpt lat="45.6391" lon="6.65144">
        <ele>2663</ele>
        <time>2022-07-16T11:28:53Z</time>
      </trkpt>
      <trkpt lat="45.63912" lon="6.65146">
        <ele>2662</ele>
        <time>2022-07-16T11:29:00Z</time>
      </trkpt>
      <trkpt lat="45.63914" lon="6.65148">
        <ele>2661</ele>
        <time>2022-07-16T11:29:03Z</time>
      </trkpt>
      <trkpt lat="45.63916" lon="6.6515">
        <ele>2660</ele>
        <time>2022-07-16T11:29:06Z</time>
      </trkpt>
      <trkpt lat="45.63917" lon="6.65153">
        <ele>2658</ele>
        <time>2022-07-16T11:29:09Z</time>
      </trkpt>
      <trkpt lat="45.63918" lon="6.65155">
        <ele>2657</ele>
        <time>2022-07-16T11:29:12Z</time>
      </trkpt>
      <trkpt lat="45.63918" lon="6.65159">
        <ele>2656</ele>
        <time>2022-07-16T11:29:16Z</time>
      </trkpt>
      <trkpt lat="45.63921" lon="6.6516">
        <ele>2653</ele>
        <time>2022-07-16T11:29:19Z</time>
      </trkpt>
      <trkpt lat="45.63923" lon="6.65161">
        <ele>2652</ele>
        <time>2022-07-16T11:29:22Z</time>
      </trkpt>
      <trkpt lat="45.63926" lon="6.65162">
        <ele>2651</ele>
        <time>2022-07-16T11:29:26Z</time>
      </trkpt>
      <trkpt lat="45.63928" lon="6.65165">
        <ele>2650</ele>
        <time>2022-07-16T11:29:32Z</time>
      </trkpt>
      <trkpt lat="45.6393" lon="6.65168">
        <ele>2649</ele>
        <time>2022-07-16T11:29:34Z</time>
      </trkpt>
      <trkpt lat="45.63932" lon="6.6517">
        <ele>2648</ele>
        <time>2022-07-16T11:29:37Z</time>
      </trkpt>
      <trkpt lat="45.63935" lon="6.65172">
        <ele>2646</ele>
        <time>2022-07-16T11:29:39Z</time>
      </trkpt>
      <trkpt lat="45.63937" lon="6.65172">
        <ele>2646</ele>
        <time>2022-07-16T11:29:41Z</time>
      </trkpt>
      <trkpt lat="45.6394" lon="6.65174">
        <ele>2646</ele>
        <time>2022-07-16T11:29:43Z</time>
      </trkpt>
      <trkpt lat="45.63943" lon="6.65176">
        <ele>2646</ele>
        <time>2022-07-16T11:29:45Z</time>
      </trkpt>
      <trkpt lat="45.63945" lon="6.65179">
        <ele>2646</ele>
        <time>2022-07-16T11:29:47Z</time>
      </trkpt>
      <trkpt lat="45.63948" lon="6.65181">
        <ele>2645</ele>
        <time>2022-07-16T11:29:49Z</time>
      </trkpt>
      <trkpt lat="45.6395" lon="6.65182">
        <ele>2644</ele>
        <time>2022-07-16T11:29:51Z</time>
      </trkpt>
      <trkpt lat="45.63952" lon="6.65183">
        <ele>2641</ele>
        <time>2022-07-16T11:29:53Z</time>
      </trkpt>
      <trkpt lat="45.63953" lon="6.65184">
        <ele>2641</ele>
        <time>2022-07-16T11:29:55Z</time>
      </trkpt>
      <trkpt lat="45.63955" lon="6.65186">
        <ele>2640</ele>
        <time>2022-07-16T11:29:58Z</time>
      </trkpt>
      <trkpt lat="45.63956" lon="6.6519">
        <ele>2640</ele>
        <time>2022-07-16T11:30:00Z</time>
      </trkpt>
      <trkpt lat="45.63955" lon="6.65192">
        <ele>2639</ele>
        <time>2022-07-16T11:30:03Z</time>
      </trkpt>
      <trkpt lat="45.63952" lon="6.65193">
        <ele>2638</ele>
        <time>2022-07-16T11:30:05Z</time>
      </trkpt>
      <trkpt lat="45.6395" lon="6.65194">
        <ele>2637</ele>
        <time>2022-07-16T11:30:07Z</time>
      </trkpt>
      <trkpt lat="45.63949" lon="6.65197">
        <ele>2637</ele>
        <time>2022-07-16T11:30:09Z</time>
      </trkpt>
      <trkpt lat="45.63947" lon="6.65199">
        <ele>2635</ele>
        <time>2022-07-16T11:30:11Z</time>
      </trkpt>
      <trkpt lat="45.63945" lon="6.652">
        <ele>2634</ele>
        <time>2022-07-16T11:30:14Z</time>
      </trkpt>
      <trkpt lat="45.63942" lon="6.65201">
        <ele>2634</ele>
        <time>2022-07-16T11:30:17Z</time>
      </trkpt>
      <trkpt lat="45.63941" lon="6.65203">
        <ele>2633</ele>
        <time>2022-07-16T11:30:20Z</time>
      </trkpt>
      <trkpt lat="45.63938" lon="6.65205">
        <ele>2632</ele>
        <time>2022-07-16T11:30:23Z</time>
      </trkpt>
      <trkpt lat="45.63939" lon="6.65208">
        <ele>2629</ele>
        <time>2022-07-16T11:30:27Z</time>
      </trkpt>
      <trkpt lat="45.6394" lon="6.65211">
        <ele>2629</ele>
        <time>2022-07-16T11:30:29Z</time>
      </trkpt>
      <trkpt lat="45.63939" lon="6.65213">
        <ele>2628</ele>
        <time>2022-07-16T11:30:32Z</time>
      </trkpt>
      <trkpt lat="45.63937" lon="6.65216">
        <ele>2627</ele>
        <time>2022-07-16T11:30:35Z</time>
      </trkpt>
      <trkpt lat="45.63935" lon="6.65217">
        <ele>2625</ele>
        <time>2022-07-16T11:30:37Z</time>
      </trkpt>
      <trkpt lat="45.63932" lon="6.65218">
        <ele>2624</ele>
        <time>2022-07-16T11:30:40Z</time>
      </trkpt>
      <trkpt lat="45.63933" lon="6.65221">
        <ele>2623</ele>
        <time>2022-07-16T11:30:46Z</time>
      </trkpt>
      <trkpt lat="45.63934" lon="6.65222">
        <ele>2623</ele>
        <time>2022-07-16T11:30:49Z</time>
      </trkpt>
      <trkpt lat="45.63936" lon="6.65224">
        <ele>2621</ele>
        <time>2022-07-16T11:30:53Z</time>
      </trkpt>
      <trkpt lat="45.63938" lon="6.65226">
        <ele>2620</ele>
        <time>2022-07-16T11:30:58Z</time>
      </trkpt>
      <trkpt lat="45.63939" lon="6.65228">
        <ele>2619</ele>
        <time>2022-07-16T11:31:01Z</time>
      </trkpt>
      <trkpt lat="45.63941" lon="6.6523">
        <ele>2617</ele>
        <time>2022-07-16T11:31:04Z</time>
      </trkpt>
      <trkpt lat="45.63943" lon="6.65231">
        <ele>2617</ele>
        <time>2022-07-16T11:31:09Z</time>
      </trkpt>
      <trkpt lat="45.63945" lon="6.65232">
        <ele>2616</ele>
        <time>2022-07-16T11:31:11Z</time>
      </trkpt>
      <trkpt lat="45.63946" lon="6.65234">
        <ele>2616</ele>
        <time>2022-07-16T11:31:18Z</time>
      </trkpt>
      <trkpt lat="45.63948" lon="6.65235">
        <ele>2616</ele>
        <time>2022-07-16T11:31:20Z</time>
      </trkpt>
      <trkpt lat="45.6395" lon="6.65237">
        <ele>2616</ele>
        <time>2022-07-16T11:31:22Z</time>
      </trkpt>
      <trkpt lat="45.63952" lon="6.6524">
        <ele>2616</ele>
        <time>2022-07-16T11:31:24Z</time>
      </trkpt>
      <trkpt lat="45.63953" lon="6.65242">
        <ele>2616</ele>
        <time>2022-07-16T11:31:26Z</time>
      </trkpt>
      <trkpt lat="45.63955" lon="6.65246">
        <ele>2616</ele>
        <time>2022-07-16T11:31:28Z</time>
      </trkpt>
      <trkpt lat="45.63957" lon="6.65248">
        <ele>2616</ele>
        <time>2022-07-16T11:31:31Z</time>
      </trkpt>
      <trkpt lat="45.63957" lon="6.65248">
        <ele>2614</ele>
        <time>2022-07-16T11:31:46Z</time>
      </trkpt>
      <trkpt lat="45.63958" lon="6.6525">
        <ele>2614</ele>
        <time>2022-07-16T11:31:52Z</time>
      </trkpt>
      <trkpt lat="45.63959" lon="6.65252">
        <ele>2613</ele>
        <time>2022-07-16T11:31:57Z</time>
      </trkpt>
      <trkpt lat="45.63961" lon="6.65254">
        <ele>2613</ele>
        <time>2022-07-16T11:32:01Z</time>
      </trkpt>
      <trkpt lat="45.63961" lon="6.65254">
        <ele>2611</ele>
        <time>2022-07-16T11:32:14Z</time>
      </trkpt>
      <trkpt lat="45.63962" lon="6.65256">
        <ele>2611</ele>
        <time>2022-07-16T11:32:19Z</time>
      </trkpt>
      <trkpt lat="45.63964" lon="6.65258">
        <ele>2610</ele>
        <time>2022-07-16T11:32:22Z</time>
      </trkpt>
      <trkpt lat="45.63966" lon="6.65259">
        <ele>2609</ele>
        <time>2022-07-16T11:32:25Z</time>
      </trkpt>
      <trkpt lat="45.63969" lon="6.65261">
        <ele>2609</ele>
        <time>2022-07-16T11:32:27Z</time>
      </trkpt>
      <trkpt lat="45.63971" lon="6.65262">
        <ele>2607</ele>
        <time>2022-07-16T11:32:30Z</time>
      </trkpt>
      <trkpt lat="45.63971" lon="6.65262">
        <ele>2608</ele>
        <time>2022-07-16T11:32:43Z</time>
      </trkpt>
      <trkpt lat="45.63971" lon="6.65262">
        <ele>2608</ele>
        <time>2022-07-16T11:32:59Z</time>
      </trkpt>
      <trkpt lat="45.63972" lon="6.65264">
        <ele>2608</ele>
        <time>2022-07-16T11:33:05Z</time>
      </trkpt>
      <trkpt lat="45.63972" lon="6.65264">
        <ele>2607</ele>
        <time>2022-07-16T11:33:16Z</time>
      </trkpt>
      <trkpt lat="45.63971" lon="6.65261">
        <ele>2607</ele>
        <time>2022-07-16T11:33:24Z</time>
      </trkpt>
      <trkpt lat="45.63971" lon="6.65261">
        <ele>2605</ele>
        <time>2022-07-16T11:33:33Z</time>
      </trkpt>
      <trkpt lat="45.63973" lon="6.65262">
        <ele>2605</ele>
        <time>2022-07-16T11:33:38Z</time>
      </trkpt>
      <trkpt lat="45.63974" lon="6.65265">
        <ele>2603</ele>
        <time>2022-07-16T11:33:45Z</time>
      </trkpt>
      <trkpt lat="45.63974" lon="6.65267">
        <ele>2602</ele>
        <time>2022-07-16T11:33:50Z</time>
      </trkpt>
      <trkpt lat="45.63974" lon="6.65267">
        <ele>2598</ele>
        <time>2022-07-16T11:34:01Z</time>
      </trkpt>
      <trkpt lat="45.63973" lon="6.6527">
        <ele>2599</ele>
        <time>2022-07-16T11:34:02Z</time>
      </trkpt>
      <trkpt lat="45.63972" lon="6.65272">
        <ele>2598</ele>
        <time>2022-07-16T11:34:12Z</time>
      </trkpt>
      <trkpt lat="45.63972" lon="6.65272">
        <ele>2596</ele>
        <time>2022-07-16T11:34:19Z</time>
      </trkpt>
      <trkpt lat="45.63972" lon="6.65275">
        <ele>2596</ele>
        <time>2022-07-16T11:34:24Z</time>
      </trkpt>
      <trkpt lat="45.63972" lon="6.65277">
        <ele>2595</ele>
        <time>2022-07-16T11:34:36Z</time>
      </trkpt>
      <trkpt lat="45.63972" lon="6.65277">
        <ele>2595</ele>
        <time>2022-07-16T11:34:38Z</time>
      </trkpt>
      <trkpt lat="45.63972" lon="6.6528">
        <ele>2593</ele>
        <time>2022-07-16T11:34:52Z</time>
      </trkpt>
      <trkpt lat="45.63972" lon="6.6528">
        <ele>2591</ele>
        <time>2022-07-16T11:34:55Z</time>
      </trkpt>
      <trkpt lat="45.63973" lon="6.65283">
        <ele>2591</ele>
        <time>2022-07-16T11:34:57Z</time>
      </trkpt>
      <trkpt lat="45.63974" lon="6.65284">
        <ele>2590</ele>
        <time>2022-07-16T11:35:00Z</time>
      </trkpt>
      <trkpt lat="45.63976" lon="6.65286">
        <ele>2589</ele>
        <time>2022-07-16T11:35:03Z</time>
      </trkpt>
      <trkpt lat="45.63978" lon="6.65287">
        <ele>2588</ele>
        <time>2022-07-16T11:35:06Z</time>
      </trkpt>
      <trkpt lat="45.63981" lon="6.65289">
        <ele>2587</ele>
        <time>2022-07-16T11:35:09Z</time>
      </trkpt>
      <trkpt lat="45.63983" lon="6.6529">
        <ele>2586</ele>
        <time>2022-07-16T11:35:11Z</time>
      </trkpt>
      <trkpt lat="45.63985" lon="6.6529">
        <ele>2586</ele>
        <time>2022-07-16T11:35:13Z</time>
      </trkpt>
      <trkpt lat="45.63987" lon="6.65292">
        <ele>2585</ele>
        <time>2022-07-16T11:35:15Z</time>
      </trkpt>
      <trkpt lat="45.6399" lon="6.65294">
        <ele>2585</ele>
        <time>2022-07-16T11:35:17Z</time>
      </trkpt>
      <trkpt lat="45.63992" lon="6.65295">
        <ele>2584</ele>
        <time>2022-07-16T11:35:18Z</time>
      </trkpt>
      <trkpt lat="45.63994" lon="6.65296">
        <ele>2583</ele>
        <time>2022-07-16T11:35:22Z</time>
      </trkpt>
      <trkpt lat="45.63995" lon="6.65299">
        <ele>2581</ele>
        <time>2022-07-16T11:35:25Z</time>
      </trkpt>
      <trkpt lat="45.63997" lon="6.65301">
        <ele>2580</ele>
        <time>2022-07-16T11:35:28Z</time>
      </trkpt>
      <trkpt lat="45.63999" lon="6.65303">
        <ele>2578</ele>
        <time>2022-07-16T11:35:32Z</time>
      </trkpt>
      <trkpt lat="45.64" lon="6.65304">
        <ele>2578</ele>
        <time>2022-07-16T11:35:33Z</time>
      </trkpt>
      <trkpt lat="45.64003" lon="6.65304">
        <ele>2576</ele>
        <time>2022-07-16T11:35:36Z</time>
      </trkpt>
      <trkpt lat="45.64005" lon="6.65305">
        <ele>2576</ele>
        <time>2022-07-16T11:35:38Z</time>
      </trkpt>
      <trkpt lat="45.64007" lon="6.65304">
        <ele>2574</ele>
        <time>2022-07-16T11:35:41Z</time>
      </trkpt>
      <trkpt lat="45.6401" lon="6.65304">
        <ele>2574</ele>
        <time>2022-07-16T11:35:44Z</time>
      </trkpt>
      <trkpt lat="45.64012" lon="6.65304">
        <ele>2573</ele>
        <time>2022-07-16T11:35:47Z</time>
      </trkpt>
      <trkpt lat="45.64014" lon="6.65303">
        <ele>2573</ele>
        <time>2022-07-16T11:35:49Z</time>
      </trkpt>
      <trkpt lat="45.64017" lon="6.65303">
        <ele>2572</ele>
        <time>2022-07-16T11:35:51Z</time>
      </trkpt>
      <trkpt lat="45.64019" lon="6.65303">
        <ele>2572</ele>
        <time>2022-07-16T11:35:52Z</time>
      </trkpt>
      <trkpt lat="45.64022" lon="6.65304">
        <ele>2571</ele>
        <time>2022-07-16T11:35:54Z</time>
      </trkpt>
      <trkpt lat="45.64025" lon="6.65305">
        <ele>2571</ele>
        <time>2022-07-16T11:35:56Z</time>
      </trkpt>
      <trkpt lat="45.64027" lon="6.65306">
        <ele>2571</ele>
        <time>2022-07-16T11:35:58Z</time>
      </trkpt>
      <trkpt lat="45.64029" lon="6.65307">
        <ele>2569</ele>
        <time>2022-07-16T11:36:00Z</time>
      </trkpt>
      <trkpt lat="45.64031" lon="6.65308">
        <ele>2569</ele>
        <time>2022-07-16T11:36:03Z</time>
      </trkpt>
      <trkpt lat="45.64033" lon="6.65309">
        <ele>2566</ele>
        <time>2022-07-16T11:36:13Z</time>
      </trkpt>
      <trkpt lat="45.64035" lon="6.65311">
        <ele>2566</ele>
        <time>2022-07-16T11:36:15Z</time>
      </trkpt>
      <trkpt lat="45.64037" lon="6.65312">
        <ele>2564</ele>
        <time>2022-07-16T11:36:17Z</time>
      </trkpt>
      <trkpt lat="45.6404" lon="6.65314">
        <ele>2563</ele>
        <time>2022-07-16T11:36:19Z</time>
      </trkpt>
      <trkpt lat="45.64042" lon="6.65314">
        <ele>2563</ele>
        <time>2022-07-16T11:36:21Z</time>
      </trkpt>
      <trkpt lat="45.64045" lon="6.65313">
        <ele>2562</ele>
        <time>2022-07-16T11:36:23Z</time>
      </trkpt>
      <trkpt lat="45.64047" lon="6.65312">
        <ele>2562</ele>
        <time>2022-07-16T11:36:25Z</time>
      </trkpt>
      <trkpt lat="45.64049" lon="6.65311">
        <ele>2562</ele>
        <time>2022-07-16T11:36:28Z</time>
      </trkpt>
      <trkpt lat="45.64052" lon="6.65311">
        <ele>2561</ele>
        <time>2022-07-16T11:36:32Z</time>
      </trkpt>
      <trkpt lat="45.64054" lon="6.65313">
        <ele>2561</ele>
        <time>2022-07-16T11:36:34Z</time>
      </trkpt>
      <trkpt lat="45.64056" lon="6.65314">
        <ele>2559</ele>
        <time>2022-07-16T11:36:36Z</time>
      </trkpt>
      <trkpt lat="45.64059" lon="6.65315">
        <ele>2559</ele>
        <time>2022-07-16T11:36:40Z</time>
      </trkpt>
      <trkpt lat="45.64061" lon="6.65317">
        <ele>2557</ele>
        <time>2022-07-16T11:36:44Z</time>
      </trkpt>
      <trkpt lat="45.64064" lon="6.65318">
        <ele>2557</ele>
        <time>2022-07-16T11:36:46Z</time>
      </trkpt>
      <trkpt lat="45.64066" lon="6.65319">
        <ele>2556</ele>
        <time>2022-07-16T11:36:48Z</time>
      </trkpt>
      <trkpt lat="45.64068" lon="6.6532">
        <ele>2555</ele>
        <time>2022-07-16T11:36:51Z</time>
      </trkpt>
      <trkpt lat="45.6407" lon="6.6532">
        <ele>2555</ele>
        <time>2022-07-16T11:36:53Z</time>
      </trkpt>
      <trkpt lat="45.64072" lon="6.65321">
        <ele>2555</ele>
        <time>2022-07-16T11:36:55Z</time>
      </trkpt>
      <trkpt lat="45.64075" lon="6.65322">
        <ele>2554</ele>
        <time>2022-07-16T11:36:57Z</time>
      </trkpt>
      <trkpt lat="45.64077" lon="6.65324">
        <ele>2553</ele>
        <time>2022-07-16T11:36:59Z</time>
      </trkpt>
      <trkpt lat="45.64081" lon="6.65325">
        <ele>2553</ele>
        <time>2022-07-16T11:37:01Z</time>
      </trkpt>
      <trkpt lat="45.64083" lon="6.65327">
        <ele>2553</ele>
        <time>2022-07-16T11:37:03Z</time>
      </trkpt>
      <trkpt lat="45.64086" lon="6.65328">
        <ele>2553</ele>
        <time>2022-07-16T11:37:05Z</time>
      </trkpt>
      <trkpt lat="45.64088" lon="6.6533">
        <ele>2551</ele>
        <time>2022-07-16T11:37:10Z</time>
      </trkpt>
      <trkpt lat="45.6409" lon="6.65332">
        <ele>2551</ele>
        <time>2022-07-16T11:37:12Z</time>
      </trkpt>
      <trkpt lat="45.64092" lon="6.65335">
        <ele>2550</ele>
        <time>2022-07-16T11:37:14Z</time>
      </trkpt>
      <trkpt lat="45.64093" lon="6.65337">
        <ele>2550</ele>
        <time>2022-07-16T11:37:15Z</time>
      </trkpt>
      <trkpt lat="45.64095" lon="6.65338">
        <ele>2549</ele>
        <time>2022-07-16T11:37:18Z</time>
      </trkpt>
      <trkpt lat="45.64097" lon="6.6534">
        <ele>2549</ele>
        <time>2022-07-16T11:37:21Z</time>
      </trkpt>
      <trkpt lat="45.641" lon="6.65342">
        <ele>2548</ele>
        <time>2022-07-16T11:37:26Z</time>
      </trkpt>
      <trkpt lat="45.64101" lon="6.65342">
        <ele>2548</ele>
        <time>2022-07-16T11:37:27Z</time>
      </trkpt>
      <trkpt lat="45.64102" lon="6.65343">
        <ele>2548</ele>
        <time>2022-07-16T11:37:28Z</time>
      </trkpt>
      <trkpt lat="45.64103" lon="6.65344">
        <ele>2548</ele>
        <time>2022-07-16T11:37:29Z</time>
      </trkpt>
      <trkpt lat="45.64104" lon="6.65344">
        <ele>2548</ele>
        <time>2022-07-16T11:37:30Z</time>
      </trkpt>
      <trkpt lat="45.64105" lon="6.65345">
        <ele>2548</ele>
        <time>2022-07-16T11:37:31Z</time>
      </trkpt>
      <trkpt lat="45.64106" lon="6.65346">
        <ele>2548</ele>
        <time>2022-07-16T11:37:32Z</time>
      </trkpt>
      <trkpt lat="45.64107" lon="6.6535">
        <ele>2548</ele>
        <time>2022-07-16T11:37:34Z</time>
      </trkpt>
      <trkpt lat="45.64108" lon="6.65353">
        <ele>2548</ele>
        <time>2022-07-16T11:37:36Z</time>
      </trkpt>
      <trkpt lat="45.6411" lon="6.65358">
        <ele>2547</ele>
        <time>2022-07-16T11:37:38Z</time>
      </trkpt>
      <trkpt lat="45.64111" lon="6.65361">
        <ele>2547</ele>
        <time>2022-07-16T11:37:40Z</time>
      </trkpt>
      <trkpt lat="45.64113" lon="6.65364">
        <ele>2545</ele>
        <time>2022-07-16T11:37:42Z</time>
      </trkpt>
      <trkpt lat="45.64114" lon="6.65366">
        <ele>2545</ele>
        <time>2022-07-16T11:37:43Z</time>
      </trkpt>
      <trkpt lat="45.64117" lon="6.65368">
        <ele>2545</ele>
        <time>2022-07-16T11:37:45Z</time>
      </trkpt>
      <trkpt lat="45.64119" lon="6.6537">
        <ele>2545</ele>
        <time>2022-07-16T11:37:47Z</time>
      </trkpt>
      <trkpt lat="45.64121" lon="6.65372">
        <ele>2545</ele>
        <time>2022-07-16T11:37:49Z</time>
      </trkpt>
      <trkpt lat="45.64124" lon="6.65375">
        <ele>2545</ele>
        <time>2022-07-16T11:37:51Z</time>
      </trkpt>
      <trkpt lat="45.64125" lon="6.65378">
        <ele>2545</ele>
        <time>2022-07-16T11:37:53Z</time>
      </trkpt>
      <trkpt lat="45.64126" lon="6.65382">
        <ele>2545</ele>
        <time>2022-07-16T11:37:55Z</time>
      </trkpt>
      <trkpt lat="45.64128" lon="6.65385">
        <ele>2545</ele>
        <time>2022-07-16T11:37:57Z</time>
      </trkpt>
      <trkpt lat="45.6413" lon="6.65387">
        <ele>2545</ele>
        <time>2022-07-16T11:37:59Z</time>
      </trkpt>
      <trkpt lat="45.64133" lon="6.65389">
        <ele>2545</ele>
        <time>2022-07-16T11:38:01Z</time>
      </trkpt>
      <trkpt lat="45.64134" lon="6.65391">
        <ele>2545</ele>
        <time>2022-07-16T11:38:04Z</time>
      </trkpt>
      <trkpt lat="45.64135" lon="6.65393">
        <ele>2547</ele>
        <time>2022-07-16T11:38:06Z</time>
      </trkpt>
      <trkpt lat="45.64137" lon="6.65395">
        <ele>2547</ele>
        <time>2022-07-16T11:38:08Z</time>
      </trkpt>
      <trkpt lat="45.64139" lon="6.65397">
        <ele>2547</ele>
        <time>2022-07-16T11:38:09Z</time>
      </trkpt>
      <trkpt lat="45.64141" lon="6.65399">
        <ele>2547</ele>
        <time>2022-07-16T11:38:12Z</time>
      </trkpt>
      <trkpt lat="45.64142" lon="6.65402">
        <ele>2548</ele>
        <time>2022-07-16T11:38:15Z</time>
      </trkpt>
      <trkpt lat="45.64144" lon="6.65405">
        <ele>2548</ele>
        <time>2022-07-16T11:38:17Z</time>
      </trkpt>
      <trkpt lat="45.64145" lon="6.65408">
        <ele>2548</ele>
        <time>2022-07-16T11:38:19Z</time>
      </trkpt>
      <trkpt lat="45.64146" lon="6.6541">
        <ele>2547</ele>
        <time>2022-07-16T11:38:21Z</time>
      </trkpt>
      <trkpt lat="45.64147" lon="6.65414">
        <ele>2547</ele>
        <time>2022-07-16T11:38:23Z</time>
      </trkpt>
      <trkpt lat="45.64148" lon="6.65417">
        <ele>2547</ele>
        <time>2022-07-16T11:38:25Z</time>
      </trkpt>
      <trkpt lat="45.64151" lon="6.65418">
        <ele>2547</ele>
        <time>2022-07-16T11:38:27Z</time>
      </trkpt>
      <trkpt lat="45.64153" lon="6.65419">
        <ele>2547</ele>
        <time>2022-07-16T11:38:28Z</time>
      </trkpt>
      <trkpt lat="45.64155" lon="6.65422">
        <ele>2547</ele>
        <time>2022-07-16T11:38:31Z</time>
      </trkpt>
      <trkpt lat="45.64157" lon="6.65424">
        <ele>2547</ele>
        <time>2022-07-16T11:38:32Z</time>
      </trkpt>
      <trkpt lat="45.64158" lon="6.65425">
        <ele>2547</ele>
        <time>2022-07-16T11:38:33Z</time>
      </trkpt>
      <trkpt lat="45.64161" lon="6.65427">
        <ele>2547</ele>
        <time>2022-07-16T11:38:35Z</time>
      </trkpt>
      <trkpt lat="45.64162" lon="6.6543">
        <ele>2547</ele>
        <time>2022-07-16T11:38:37Z</time>
      </trkpt>
      <trkpt lat="45.64164" lon="6.65433">
        <ele>2547</ele>
        <time>2022-07-16T11:38:40Z</time>
      </trkpt>
      <trkpt lat="45.64167" lon="6.65435">
        <ele>2547</ele>
        <time>2022-07-16T11:38:42Z</time>
      </trkpt>
      <trkpt lat="45.64169" lon="6.65437">
        <ele>2547</ele>
        <time>2022-07-16T11:38:44Z</time>
      </trkpt>
      <trkpt lat="45.6417" lon="6.65439">
        <ele>2547</ele>
        <time>2022-07-16T11:38:46Z</time>
      </trkpt>
      <trkpt lat="45.64171" lon="6.65442">
        <ele>2547</ele>
        <time>2022-07-16T11:38:47Z</time>
      </trkpt>
      <trkpt lat="45.64172" lon="6.65445">
        <ele>2545</ele>
        <time>2022-07-16T11:38:49Z</time>
      </trkpt>
      <trkpt lat="45.64173" lon="6.65449">
        <ele>2545</ele>
        <time>2022-07-16T11:38:52Z</time>
      </trkpt>
      <trkpt lat="45.64172" lon="6.65453">
        <ele>2545</ele>
        <time>2022-07-16T11:38:56Z</time>
      </trkpt>
      <trkpt lat="45.64171" lon="6.65456">
        <ele>2545</ele>
        <time>2022-07-16T11:38:59Z</time>
      </trkpt>
      <trkpt lat="45.64171" lon="6.65459">
        <ele>2544</ele>
        <time>2022-07-16T11:39:02Z</time>
      </trkpt>
      <trkpt lat="45.6417" lon="6.65462">
        <ele>2544</ele>
        <time>2022-07-16T11:39:05Z</time>
      </trkpt>
      <trkpt lat="45.6417" lon="6.65465">
        <ele>2544</ele>
        <time>2022-07-16T11:39:06Z</time>
      </trkpt>
      <trkpt lat="45.6417" lon="6.65468">
        <ele>2543</ele>
        <time>2022-07-16T11:39:10Z</time>
      </trkpt>
      <trkpt lat="45.64171" lon="6.65472">
        <ele>2542</ele>
        <time>2022-07-16T11:39:13Z</time>
      </trkpt>
      <trkpt lat="45.64172" lon="6.65475">
        <ele>2542</ele>
        <time>2022-07-16T11:39:15Z</time>
      </trkpt>
      <trkpt lat="45.64173" lon="6.65477">
        <ele>2543</ele>
        <time>2022-07-16T11:39:19Z</time>
      </trkpt>
      <trkpt lat="45.64175" lon="6.65478">
        <ele>2544</ele>
        <time>2022-07-16T11:39:23Z</time>
      </trkpt>
      <trkpt lat="45.64177" lon="6.6548">
        <ele>2547</ele>
        <time>2022-07-16T11:39:27Z</time>
      </trkpt>
      <trkpt lat="45.64178" lon="6.65482">
        <ele>2548</ele>
        <time>2022-07-16T11:39:35Z</time>
      </trkpt>
      <trkpt lat="45.64178" lon="6.65484">
        <ele>2548</ele>
        <time>2022-07-16T11:39:37Z</time>
      </trkpt>
      <trkpt lat="45.64179" lon="6.65487">
        <ele>2548</ele>
        <time>2022-07-16T11:39:39Z</time>
      </trkpt>
      <trkpt lat="45.6418" lon="6.65489">
        <ele>2548</ele>
        <time>2022-07-16T11:39:40Z</time>
      </trkpt>
      <trkpt lat="45.64181" lon="6.65491">
        <ele>2547</ele>
        <time>2022-07-16T11:39:43Z</time>
      </trkpt>
      <trkpt lat="45.64183" lon="6.65493">
        <ele>2547</ele>
        <time>2022-07-16T11:39:45Z</time>
      </trkpt>
      <trkpt lat="45.64185" lon="6.65493">
        <ele>2548</ele>
        <time>2022-07-16T11:39:51Z</time>
      </trkpt>
      <trkpt lat="45.64187" lon="6.65494">
        <ele>2548</ele>
        <time>2022-07-16T11:39:55Z</time>
      </trkpt>
      <trkpt lat="45.64188" lon="6.65497">
        <ele>2548</ele>
        <time>2022-07-16T11:39:58Z</time>
      </trkpt>
      <trkpt lat="45.6419" lon="6.655">
        <ele>2548</ele>
        <time>2022-07-16T11:40:00Z</time>
      </trkpt>
      <trkpt lat="45.64191" lon="6.65503">
        <ele>2548</ele>
        <time>2022-07-16T11:40:02Z</time>
      </trkpt>
      <trkpt lat="45.64193" lon="6.65504">
        <ele>2548</ele>
        <time>2022-07-16T11:40:03Z</time>
      </trkpt>
      <trkpt lat="45.64195" lon="6.65506">
        <ele>2547</ele>
        <time>2022-07-16T11:40:06Z</time>
      </trkpt>
      <trkpt lat="45.64196" lon="6.65509">
        <ele>2548</ele>
        <time>2022-07-16T11:40:09Z</time>
      </trkpt>
      <trkpt lat="45.64197" lon="6.65512">
        <ele>2549</ele>
        <time>2022-07-16T11:40:13Z</time>
      </trkpt>
      <trkpt lat="45.64199" lon="6.65514">
        <ele>2550</ele>
        <time>2022-07-16T11:40:19Z</time>
      </trkpt>
      <trkpt lat="45.64201" lon="6.65515">
        <ele>2550</ele>
        <time>2022-07-16T11:40:23Z</time>
      </trkpt>
      <trkpt lat="45.64202" lon="6.65517">
        <ele>2549</ele>
        <time>2022-07-16T11:40:26Z</time>
      </trkpt>
      <trkpt lat="45.64204" lon="6.6552">
        <ele>2550</ele>
        <time>2022-07-16T11:40:30Z</time>
      </trkpt>
      <trkpt lat="45.64205" lon="6.65523">
        <ele>2550</ele>
        <time>2022-07-16T11:40:33Z</time>
      </trkpt>
      <trkpt lat="45.64206" lon="6.65526">
        <ele>2550</ele>
        <time>2022-07-16T11:40:36Z</time>
      </trkpt>
      <trkpt lat="45.64206" lon="6.65529">
        <ele>2551</ele>
        <time>2022-07-16T11:40:40Z</time>
      </trkpt>
      <trkpt lat="45.64206" lon="6.65532">
        <ele>2549</ele>
        <time>2022-07-16T11:40:43Z</time>
      </trkpt>
      <trkpt lat="45.64207" lon="6.65535">
        <ele>2549</ele>
        <time>2022-07-16T11:40:46Z</time>
      </trkpt>
      <trkpt lat="45.64209" lon="6.65537">
        <ele>2550</ele>
        <time>2022-07-16T11:40:50Z</time>
      </trkpt>
      <trkpt lat="45.6421" lon="6.65539">
        <ele>2550</ele>
        <time>2022-07-16T11:40:53Z</time>
      </trkpt>
      <trkpt lat="45.64211" lon="6.65543">
        <ele>2549</ele>
        <time>2022-07-16T11:40:56Z</time>
      </trkpt>
      <trkpt lat="45.64213" lon="6.65545">
        <ele>2549</ele>
        <time>2022-07-16T11:40:58Z</time>
      </trkpt>
      <trkpt lat="45.64215" lon="6.65548">
        <ele>2550</ele>
        <time>2022-07-16T11:41:00Z</time>
      </trkpt>
      <trkpt lat="45.64217" lon="6.6555">
        <ele>2550</ele>
        <time>2022-07-16T11:41:02Z</time>
      </trkpt>
      <trkpt lat="45.64219" lon="6.65552">
        <ele>2550</ele>
        <time>2022-07-16T11:41:04Z</time>
      </trkpt>
      <trkpt lat="45.6422" lon="6.65554">
        <ele>2551</ele>
        <time>2022-07-16T11:41:06Z</time>
      </trkpt>
      <trkpt lat="45.64221" lon="6.65557">
        <ele>2551</ele>
        <time>2022-07-16T11:41:09Z</time>
      </trkpt>
      <trkpt lat="45.64221" lon="6.6556">
        <ele>2552</ele>
        <time>2022-07-16T11:41:12Z</time>
      </trkpt>
      <trkpt lat="45.64221" lon="6.65563">
        <ele>2551</ele>
        <time>2022-07-16T11:41:15Z</time>
      </trkpt>
      <trkpt lat="45.64224" lon="6.65565">
        <ele>2550</ele>
        <time>2022-07-16T11:41:19Z</time>
      </trkpt>
      <trkpt lat="45.64225" lon="6.65566">
        <ele>2549</ele>
        <time>2022-07-16T11:41:21Z</time>
      </trkpt>
      <trkpt lat="45.64227" lon="6.65569">
        <ele>2548</ele>
        <time>2022-07-16T11:41:23Z</time>
      </trkpt>
      <trkpt lat="45.64229" lon="6.65573">
        <ele>2548</ele>
        <time>2022-07-16T11:41:25Z</time>
      </trkpt>
      <trkpt lat="45.6423" lon="6.65577">
        <ele>2548</ele>
        <time>2022-07-16T11:41:27Z</time>
      </trkpt>
      <trkpt lat="45.64232" lon="6.6558">
        <ele>2548</ele>
        <time>2022-07-16T11:41:29Z</time>
      </trkpt>
      <trkpt lat="45.64233" lon="6.65582">
        <ele>2547</ele>
        <time>2022-07-16T11:41:31Z</time>
      </trkpt>
      <trkpt lat="45.64234" lon="6.65586">
        <ele>2547</ele>
        <time>2022-07-16T11:41:33Z</time>
      </trkpt>
      <trkpt lat="45.64235" lon="6.65589">
        <ele>2547</ele>
        <time>2022-07-16T11:41:35Z</time>
      </trkpt>
      <trkpt lat="45.64237" lon="6.65592">
        <ele>2545</ele>
        <time>2022-07-16T11:41:37Z</time>
      </trkpt>
      <trkpt lat="45.6424" lon="6.65595">
        <ele>2545</ele>
        <time>2022-07-16T11:41:38Z</time>
      </trkpt>
      <trkpt lat="45.6424" lon="6.65597">
        <ele>2544</ele>
        <time>2022-07-16T11:41:41Z</time>
      </trkpt>
      <trkpt lat="45.64241" lon="6.65601">
        <ele>2543</ele>
        <time>2022-07-16T11:41:43Z</time>
      </trkpt>
      <trkpt lat="45.64242" lon="6.65604">
        <ele>2543</ele>
        <time>2022-07-16T11:41:45Z</time>
      </trkpt>
      <trkpt lat="45.64244" lon="6.65606">
        <ele>2543</ele>
        <time>2022-07-16T11:41:47Z</time>
      </trkpt>
      <trkpt lat="45.64245" lon="6.6561">
        <ele>2543</ele>
        <time>2022-07-16T11:41:50Z</time>
      </trkpt>
      <trkpt lat="45.64246" lon="6.65613">
        <ele>2543</ele>
        <time>2022-07-16T11:41:52Z</time>
      </trkpt>
      <trkpt lat="45.64247" lon="6.65615">
        <ele>2543</ele>
        <time>2022-07-16T11:41:54Z</time>
      </trkpt>
      <trkpt lat="45.64249" lon="6.65618">
        <ele>2543</ele>
        <time>2022-07-16T11:41:56Z</time>
      </trkpt>
      <trkpt lat="45.6425" lon="6.65619">
        <ele>2543</ele>
        <time>2022-07-16T11:41:58Z</time>
      </trkpt>
      <trkpt lat="45.64252" lon="6.65623">
        <ele>2543</ele>
        <time>2022-07-16T11:42:01Z</time>
      </trkpt>
      <trkpt lat="45.64253" lon="6.65626">
        <ele>2543</ele>
        <time>2022-07-16T11:42:03Z</time>
      </trkpt>
      <trkpt lat="45.64254" lon="6.65629">
        <ele>2544</ele>
        <time>2022-07-16T11:42:06Z</time>
      </trkpt>
      <trkpt lat="45.64255" lon="6.65631">
        <ele>2544</ele>
        <time>2022-07-16T11:42:08Z</time>
      </trkpt>
      <trkpt lat="45.64256" lon="6.65634">
        <ele>2545</ele>
        <time>2022-07-16T11:42:10Z</time>
      </trkpt>
      <trkpt lat="45.64257" lon="6.65636">
        <ele>2545</ele>
        <time>2022-07-16T11:42:13Z</time>
      </trkpt>
      <trkpt lat="45.64259" lon="6.65638">
        <ele>2545</ele>
        <time>2022-07-16T11:42:16Z</time>
      </trkpt>
      <trkpt lat="45.6426" lon="6.6564">
        <ele>2547</ele>
        <time>2022-07-16T11:42:19Z</time>
      </trkpt>
      <trkpt lat="45.64262" lon="6.65643">
        <ele>2547</ele>
        <time>2022-07-16T11:42:22Z</time>
      </trkpt>
      <trkpt lat="45.64263" lon="6.65645">
        <ele>2547</ele>
        <time>2022-07-16T11:42:24Z</time>
      </trkpt>
      <trkpt lat="45.64264" lon="6.65648">
        <ele>2549</ele>
        <time>2022-07-16T11:42:27Z</time>
      </trkpt>
      <trkpt lat="45.64265" lon="6.65652">
        <ele>2549</ele>
        <time>2022-07-16T11:42:30Z</time>
      </trkpt>
      <trkpt lat="45.64265" lon="6.65654">
        <ele>2549</ele>
        <time>2022-07-16T11:42:32Z</time>
      </trkpt>
      <trkpt lat="45.64266" lon="6.65657">
        <ele>2549</ele>
        <time>2022-07-16T11:42:35Z</time>
      </trkpt>
      <trkpt lat="45.64266" lon="6.65661">
        <ele>2549</ele>
        <time>2022-07-16T11:42:37Z</time>
      </trkpt>
      <trkpt lat="45.64265" lon="6.65664">
        <ele>2549</ele>
        <time>2022-07-16T11:42:41Z</time>
      </trkpt>
      <trkpt lat="45.64266" lon="6.65667">
        <ele>2549</ele>
        <time>2022-07-16T11:42:44Z</time>
      </trkpt>
      <trkpt lat="45.64268" lon="6.6567">
        <ele>2550</ele>
        <time>2022-07-16T11:42:47Z</time>
      </trkpt>
      <trkpt lat="45.64271" lon="6.65672">
        <ele>2551</ele>
        <time>2022-07-16T11:42:50Z</time>
      </trkpt>
      <trkpt lat="45.64272" lon="6.65673">
        <ele>2551</ele>
        <time>2022-07-16T11:42:52Z</time>
      </trkpt>
      <trkpt lat="45.64272" lon="6.65676">
        <ele>2551</ele>
        <time>2022-07-16T11:42:54Z</time>
      </trkpt>
      <trkpt lat="45.64273" lon="6.6568">
        <ele>2551</ele>
        <time>2022-07-16T11:42:56Z</time>
      </trkpt>
      <trkpt lat="45.64273" lon="6.65683">
        <ele>2551</ele>
        <time>2022-07-16T11:42:58Z</time>
      </trkpt>
      <trkpt lat="45.64273" lon="6.65686">
        <ele>2551</ele>
        <time>2022-07-16T11:43:01Z</time>
      </trkpt>
      <trkpt lat="45.64273" lon="6.6569">
        <ele>2551</ele>
        <time>2022-07-16T11:43:04Z</time>
      </trkpt>
      <trkpt lat="45.64274" lon="6.65694">
        <ele>2552</ele>
        <time>2022-07-16T11:43:07Z</time>
      </trkpt>
      <trkpt lat="45.64274" lon="6.65697">
        <ele>2552</ele>
        <time>2022-07-16T11:43:09Z</time>
      </trkpt>
      <trkpt lat="45.64274" lon="6.657">
        <ele>2552</ele>
        <time>2022-07-16T11:43:11Z</time>
      </trkpt>
      <trkpt lat="45.64273" lon="6.65704">
        <ele>2552</ele>
        <time>2022-07-16T11:43:13Z</time>
      </trkpt>
      <trkpt lat="45.64273" lon="6.65706">
        <ele>2552</ele>
        <time>2022-07-16T11:43:14Z</time>
      </trkpt>
      <trkpt lat="45.64273" lon="6.6571">
        <ele>2552</ele>
        <time>2022-07-16T11:43:17Z</time>
      </trkpt>
      <trkpt lat="45.64273" lon="6.65714">
        <ele>2552</ele>
        <time>2022-07-16T11:43:19Z</time>
      </trkpt>
      <trkpt lat="45.64274" lon="6.65717">
        <ele>2552</ele>
        <time>2022-07-16T11:43:21Z</time>
      </trkpt>
      <trkpt lat="45.64275" lon="6.6572">
        <ele>2552</ele>
        <time>2022-07-16T11:43:23Z</time>
      </trkpt>
      <trkpt lat="45.64275" lon="6.65723">
        <ele>2553</ele>
        <time>2022-07-16T11:43:25Z</time>
      </trkpt>
      <trkpt lat="45.64276" lon="6.65725">
        <ele>2553</ele>
        <time>2022-07-16T11:43:27Z</time>
      </trkpt>
      <trkpt lat="45.64278" lon="6.65727">
        <ele>2553</ele>
        <time>2022-07-16T11:43:29Z</time>
      </trkpt>
      <trkpt lat="45.64281" lon="6.65728">
        <ele>2553</ele>
        <time>2022-07-16T11:43:30Z</time>
      </trkpt>
      <trkpt lat="45.64284" lon="6.65729">
        <ele>2553</ele>
        <time>2022-07-16T11:43:33Z</time>
      </trkpt>
      <trkpt lat="45.64286" lon="6.6573">
        <ele>2553</ele>
        <time>2022-07-16T11:43:35Z</time>
      </trkpt>
      <trkpt lat="45.64288" lon="6.65731">
        <ele>2553</ele>
        <time>2022-07-16T11:43:37Z</time>
      </trkpt>
      <trkpt lat="45.64291" lon="6.65732">
        <ele>2553</ele>
        <time>2022-07-16T11:43:39Z</time>
      </trkpt>
      <trkpt lat="45.64293" lon="6.65732">
        <ele>2553</ele>
        <time>2022-07-16T11:43:41Z</time>
      </trkpt>
      <trkpt lat="45.64296" lon="6.65732">
        <ele>2553</ele>
        <time>2022-07-16T11:43:43Z</time>
      </trkpt>
      <trkpt lat="45.64298" lon="6.65732">
        <ele>2553</ele>
        <time>2022-07-16T11:43:45Z</time>
      </trkpt>
      <trkpt lat="45.64301" lon="6.65733">
        <ele>2553</ele>
        <time>2022-07-16T11:43:47Z</time>
      </trkpt>
      <trkpt lat="45.64304" lon="6.65732">
        <ele>2553</ele>
        <time>2022-07-16T11:43:49Z</time>
      </trkpt>
      <trkpt lat="45.64306" lon="6.6573">
        <ele>2553</ele>
        <time>2022-07-16T11:43:51Z</time>
      </trkpt>
      <trkpt lat="45.64308" lon="6.65728">
        <ele>2553</ele>
        <time>2022-07-16T11:43:53Z</time>
      </trkpt>
      <trkpt lat="45.64311" lon="6.65727">
        <ele>2553</ele>
        <time>2022-07-16T11:43:54Z</time>
      </trkpt>
      <trkpt lat="45.64314" lon="6.65725">
        <ele>2552</ele>
        <time>2022-07-16T11:43:57Z</time>
      </trkpt>
      <trkpt lat="45.64317" lon="6.65724">
        <ele>2552</ele>
        <time>2022-07-16T11:43:59Z</time>
      </trkpt>
      <trkpt lat="45.64319" lon="6.65723">
        <ele>2552</ele>
        <time>2022-07-16T11:44:01Z</time>
      </trkpt>
      <trkpt lat="45.64321" lon="6.65721">
        <ele>2552</ele>
        <time>2022-07-16T11:44:03Z</time>
      </trkpt>
      <trkpt lat="45.64323" lon="6.65719">
        <ele>2552</ele>
        <time>2022-07-16T11:44:05Z</time>
      </trkpt>
      <trkpt lat="45.64325" lon="6.65719">
        <ele>2551</ele>
        <time>2022-07-16T11:44:07Z</time>
      </trkpt>
      <trkpt lat="45.64328" lon="6.65718">
        <ele>2550</ele>
        <time>2022-07-16T11:44:09Z</time>
      </trkpt>
      <trkpt lat="45.6433" lon="6.65717">
        <ele>2550</ele>
        <time>2022-07-16T11:44:10Z</time>
      </trkpt>
      <trkpt lat="45.64334" lon="6.65718">
        <ele>2550</ele>
        <time>2022-07-16T11:44:13Z</time>
      </trkpt>
      <trkpt lat="45.64336" lon="6.65719">
        <ele>2550</ele>
        <time>2022-07-16T11:44:14Z</time>
      </trkpt>
      <trkpt lat="45.64338" lon="6.65719">
        <ele>2549</ele>
        <time>2022-07-16T11:44:15Z</time>
      </trkpt>
      <trkpt lat="45.64341" lon="6.65718">
        <ele>2549</ele>
        <time>2022-07-16T11:44:17Z</time>
      </trkpt>
      <trkpt lat="45.64344" lon="6.65718">
        <ele>2549</ele>
        <time>2022-07-16T11:44:19Z</time>
      </trkpt>
      <trkpt lat="45.64347" lon="6.65717">
        <ele>2548</ele>
        <time>2022-07-16T11:44:21Z</time>
      </trkpt>
      <trkpt lat="45.64349" lon="6.65716">
        <ele>2548</ele>
        <time>2022-07-16T11:44:23Z</time>
      </trkpt>
      <trkpt lat="45.64351" lon="6.65716">
        <ele>2548</ele>
        <time>2022-07-16T11:44:25Z</time>
      </trkpt>
      <trkpt lat="45.64354" lon="6.65715">
        <ele>2548</ele>
        <time>2022-07-16T11:44:27Z</time>
      </trkpt>
      <trkpt lat="45.64356" lon="6.65715">
        <ele>2548</ele>
        <time>2022-07-16T11:44:29Z</time>
      </trkpt>
      <trkpt lat="45.64358" lon="6.65716">
        <ele>2548</ele>
        <time>2022-07-16T11:44:30Z</time>
      </trkpt>
      <trkpt lat="45.6436" lon="6.65717">
        <ele>2548</ele>
        <time>2022-07-16T11:44:33Z</time>
      </trkpt>
      <trkpt lat="45.64362" lon="6.65717">
        <ele>2547</ele>
        <time>2022-07-16T11:44:36Z</time>
      </trkpt>
      <trkpt lat="45.64365" lon="6.65718">
        <ele>2545</ele>
        <time>2022-07-16T11:44:38Z</time>
      </trkpt>
      <trkpt lat="45.64367" lon="6.65717">
        <ele>2545</ele>
        <time>2022-07-16T11:44:40Z</time>
      </trkpt>
      <trkpt lat="45.64368" lon="6.65716">
        <ele>2547</ele>
        <time>2022-07-16T11:44:42Z</time>
      </trkpt>
      <trkpt lat="45.6437" lon="6.65714">
        <ele>2548</ele>
        <time>2022-07-16T11:44:45Z</time>
      </trkpt>
      <trkpt lat="45.64372" lon="6.65715">
        <ele>2548</ele>
        <time>2022-07-16T11:44:47Z</time>
      </trkpt>
      <trkpt lat="45.64375" lon="6.65717">
        <ele>2548</ele>
        <time>2022-07-16T11:44:49Z</time>
      </trkpt>
      <trkpt lat="45.64377" lon="6.65718">
        <ele>2547</ele>
        <time>2022-07-16T11:44:51Z</time>
      </trkpt>
      <trkpt lat="45.64379" lon="6.65719">
        <ele>2548</ele>
        <time>2022-07-16T11:44:53Z</time>
      </trkpt>
      <trkpt lat="45.64381" lon="6.65718">
        <ele>2548</ele>
        <time>2022-07-16T11:44:56Z</time>
      </trkpt>
      <trkpt lat="45.64383" lon="6.65716">
        <ele>2549</ele>
        <time>2022-07-16T11:44:59Z</time>
      </trkpt>
      <trkpt lat="45.64385" lon="6.65715">
        <ele>2549</ele>
        <time>2022-07-16T11:45:01Z</time>
      </trkpt>
      <trkpt lat="45.64388" lon="6.65715">
        <ele>2550</ele>
        <time>2022-07-16T11:45:05Z</time>
      </trkpt>
      <trkpt lat="45.64389" lon="6.65716">
        <ele>2550</ele>
        <time>2022-07-16T11:45:07Z</time>
      </trkpt>
      <trkpt lat="45.64392" lon="6.65716">
        <ele>2550</ele>
        <time>2022-07-16T11:45:10Z</time>
      </trkpt>
      <trkpt lat="45.64394" lon="6.65715">
        <ele>2551</ele>
        <time>2022-07-16T11:45:12Z</time>
      </trkpt>
      <trkpt lat="45.64396" lon="6.65714">
        <ele>2551</ele>
        <time>2022-07-16T11:45:15Z</time>
      </trkpt>
      <trkpt lat="45.64399" lon="6.65713">
        <ele>2552</ele>
        <time>2022-07-16T11:45:17Z</time>
      </trkpt>
      <trkpt lat="45.64401" lon="6.65714">
        <ele>2552</ele>
        <time>2022-07-16T11:45:19Z</time>
      </trkpt>
      <trkpt lat="45.64403" lon="6.65715">
        <ele>2552</ele>
        <time>2022-07-16T11:45:21Z</time>
      </trkpt>
      <trkpt lat="45.64405" lon="6.65715">
        <ele>2552</ele>
        <time>2022-07-16T11:45:23Z</time>
      </trkpt>
      <trkpt lat="45.64407" lon="6.65716">
        <ele>2552</ele>
        <time>2022-07-16T11:45:25Z</time>
      </trkpt>
      <trkpt lat="45.64409" lon="6.65716">
        <ele>2552</ele>
        <time>2022-07-16T11:45:27Z</time>
      </trkpt>
      <trkpt lat="45.64411" lon="6.65716">
        <ele>2552</ele>
        <time>2022-07-16T11:45:29Z</time>
      </trkpt>
      <trkpt lat="45.64413" lon="6.65716">
        <ele>2552</ele>
        <time>2022-07-16T11:45:32Z</time>
      </trkpt>
      <trkpt lat="45.64415" lon="6.65715">
        <ele>2553</ele>
        <time>2022-07-16T11:45:34Z</time>
      </trkpt>
      <trkpt lat="45.64417" lon="6.65715">
        <ele>2553</ele>
        <time>2022-07-16T11:45:36Z</time>
      </trkpt>
      <trkpt lat="45.6442" lon="6.65715">
        <ele>2554</ele>
        <time>2022-07-16T11:45:39Z</time>
      </trkpt>
      <trkpt lat="45.64423" lon="6.65714">
        <ele>2554</ele>
        <time>2022-07-16T11:45:42Z</time>
      </trkpt>
      <trkpt lat="45.64425" lon="6.65714">
        <ele>2554</ele>
        <time>2022-07-16T11:45:44Z</time>
      </trkpt>
      <trkpt lat="45.64426" lon="6.65713">
        <ele>2555</ele>
        <time>2022-07-16T11:45:45Z</time>
      </trkpt>
      <trkpt lat="45.64429" lon="6.65713">
        <ele>2555</ele>
        <time>2022-07-16T11:45:49Z</time>
      </trkpt>
      <trkpt lat="45.64431" lon="6.65713">
        <ele>2555</ele>
        <time>2022-07-16T11:45:53Z</time>
      </trkpt>
      <trkpt lat="45.64433" lon="6.65713">
        <ele>2556</ele>
        <time>2022-07-16T11:45:57Z</time>
      </trkpt>
      <trkpt lat="45.64435" lon="6.65713">
        <ele>2559</ele>
        <time>2022-07-16T11:46:01Z</time>
      </trkpt>
      <trkpt lat="45.64437" lon="6.65711">
        <ele>2559</ele>
        <time>2022-07-16T11:46:06Z</time>
      </trkpt>
      <trkpt lat="45.64439" lon="6.65712">
        <ele>2559</ele>
        <time>2022-07-16T11:46:09Z</time>
      </trkpt>
      <trkpt lat="45.64442" lon="6.65713">
        <ele>2559</ele>
        <time>2022-07-16T11:46:11Z</time>
      </trkpt>
      <trkpt lat="45.64444" lon="6.65713">
        <ele>2559</ele>
        <time>2022-07-16T11:46:13Z</time>
      </trkpt>
      <trkpt lat="45.64446" lon="6.65714">
        <ele>2559</ele>
        <time>2022-07-16T11:46:16Z</time>
      </trkpt>
      <trkpt lat="45.64449" lon="6.65715">
        <ele>2559</ele>
        <time>2022-07-16T11:46:18Z</time>
      </trkpt>
      <trkpt lat="45.6445" lon="6.65716">
        <ele>2561</ele>
        <time>2022-07-16T11:46:21Z</time>
      </trkpt>
      <trkpt lat="45.64453" lon="6.65715">
        <ele>2561</ele>
        <time>2022-07-16T11:46:24Z</time>
      </trkpt>
      <trkpt lat="45.64455" lon="6.65716">
        <ele>2562</ele>
        <time>2022-07-16T11:46:27Z</time>
      </trkpt>
      <trkpt lat="45.64457" lon="6.65717">
        <ele>2562</ele>
        <time>2022-07-16T11:46:28Z</time>
      </trkpt>
      <trkpt lat="45.64458" lon="6.65719">
        <ele>2563</ele>
        <time>2022-07-16T11:46:32Z</time>
      </trkpt>
      <trkpt lat="45.6446" lon="6.65719">
        <ele>2563</ele>
        <time>2022-07-16T11:46:34Z</time>
      </trkpt>
      <trkpt lat="45.64462" lon="6.6572">
        <ele>2563</ele>
        <time>2022-07-16T11:46:36Z</time>
      </trkpt>
      <trkpt lat="45.64464" lon="6.65721">
        <ele>2563</ele>
        <time>2022-07-16T11:46:40Z</time>
      </trkpt>
      <trkpt lat="45.64466" lon="6.65721">
        <ele>2564</ele>
        <time>2022-07-16T11:46:42Z</time>
      </trkpt>
      <trkpt lat="45.64468" lon="6.6572">
        <ele>2564</ele>
        <time>2022-07-16T11:46:45Z</time>
      </trkpt>
      <trkpt lat="45.64469" lon="6.65718">
        <ele>2565</ele>
        <time>2022-07-16T11:46:48Z</time>
      </trkpt>
      <trkpt lat="45.64472" lon="6.65718">
        <ele>2566</ele>
        <time>2022-07-16T11:46:51Z</time>
      </trkpt>
      <trkpt lat="45.64474" lon="6.65717">
        <ele>2566</ele>
        <time>2022-07-16T11:46:54Z</time>
      </trkpt>
      <trkpt lat="45.64476" lon="6.65717">
        <ele>2566</ele>
        <time>2022-07-16T11:46:57Z</time>
      </trkpt>
      <trkpt lat="45.64478" lon="6.65716">
        <ele>2566</ele>
        <time>2022-07-16T11:47:01Z</time>
      </trkpt>
      <trkpt lat="45.6448" lon="6.65714">
        <ele>2567</ele>
        <time>2022-07-16T11:47:04Z</time>
      </trkpt>
      <trkpt lat="45.64482" lon="6.65712">
        <ele>2568</ele>
        <time>2022-07-16T11:47:08Z</time>
      </trkpt>
      <trkpt lat="45.64483" lon="6.6571">
        <ele>2569</ele>
        <time>2022-07-16T11:47:13Z</time>
      </trkpt>
      <trkpt lat="45.64484" lon="6.65707">
        <ele>2571</ele>
        <time>2022-07-16T11:47:17Z</time>
      </trkpt>
      <trkpt lat="45.64485" lon="6.65705">
        <ele>2571</ele>
        <time>2022-07-16T11:47:21Z</time>
      </trkpt>
      <trkpt lat="45.64487" lon="6.65704">
        <ele>2571</ele>
        <time>2022-07-16T11:47:24Z</time>
      </trkpt>
      <trkpt lat="45.64489" lon="6.65703">
        <ele>2572</ele>
        <time>2022-07-16T11:47:27Z</time>
      </trkpt>
      <trkpt lat="45.64491" lon="6.657">
        <ele>2573</ele>
        <time>2022-07-16T11:47:31Z</time>
      </trkpt>
      <trkpt lat="45.64492" lon="6.65698">
        <ele>2573</ele>
        <time>2022-07-16T11:47:35Z</time>
      </trkpt>
      <trkpt lat="45.64493" lon="6.65695">
        <ele>2574</ele>
        <time>2022-07-16T11:47:39Z</time>
      </trkpt>
      <trkpt lat="45.64494" lon="6.65693">
        <ele>2575</ele>
        <time>2022-07-16T11:47:43Z</time>
      </trkpt>
      <trkpt lat="45.64495" lon="6.65691">
        <ele>2576</ele>
        <time>2022-07-16T11:47:46Z</time>
      </trkpt>
      <trkpt lat="45.64498" lon="6.65691">
        <ele>2576</ele>
        <time>2022-07-16T11:47:49Z</time>
      </trkpt>
      <trkpt lat="45.645" lon="6.65692">
        <ele>2577</ele>
        <time>2022-07-16T11:47:52Z</time>
      </trkpt>
      <trkpt lat="45.64502" lon="6.65693">
        <ele>2577</ele>
        <time>2022-07-16T11:47:54Z</time>
      </trkpt>
      <trkpt lat="45.64504" lon="6.65694">
        <ele>2578</ele>
        <time>2022-07-16T11:47:56Z</time>
      </trkpt>
      <trkpt lat="45.64506" lon="6.65694">
        <ele>2577</ele>
        <time>2022-07-16T11:47:58Z</time>
      </trkpt>
      <trkpt lat="45.64509" lon="6.65694">
        <ele>2579</ele>
        <time>2022-07-16T11:48:02Z</time>
      </trkpt>
      <trkpt lat="45.64511" lon="6.65696">
        <ele>2579</ele>
        <time>2022-07-16T11:48:05Z</time>
      </trkpt>
      <trkpt lat="45.64512" lon="6.65699">
        <ele>2579</ele>
        <time>2022-07-16T11:48:07Z</time>
      </trkpt>
      <trkpt lat="45.64513" lon="6.65701">
        <ele>2579</ele>
        <time>2022-07-16T11:48:10Z</time>
      </trkpt>
      <trkpt lat="45.64514" lon="6.65704">
        <ele>2577</ele>
        <time>2022-07-16T11:48:14Z</time>
      </trkpt>
      <trkpt lat="45.64515" lon="6.65707">
        <ele>2577</ele>
        <time>2022-07-16T11:48:16Z</time>
      </trkpt>
      <trkpt lat="45.64517" lon="6.65709">
        <ele>2577</ele>
        <time>2022-07-16T11:48:17Z</time>
      </trkpt>
      <trkpt lat="45.64518" lon="6.65711">
        <ele>2576</ele>
        <time>2022-07-16T11:48:21Z</time>
      </trkpt>
      <trkpt lat="45.64519" lon="6.65715">
        <ele>2575</ele>
        <time>2022-07-16T11:48:24Z</time>
      </trkpt>
      <trkpt lat="45.6452" lon="6.65719">
        <ele>2575</ele>
        <time>2022-07-16T11:48:26Z</time>
      </trkpt>
      <trkpt lat="45.64521" lon="6.65722">
        <ele>2575</ele>
        <time>2022-07-16T11:48:28Z</time>
      </trkpt>
      <trkpt lat="45.64523" lon="6.65726">
        <ele>2575</ele>
        <time>2022-07-16T11:48:29Z</time>
      </trkpt>
      <trkpt lat="45.64525" lon="6.65731">
        <ele>2575</ele>
        <time>2022-07-16T11:48:32Z</time>
      </trkpt>
      <trkpt lat="45.64526" lon="6.65734">
        <ele>2575</ele>
        <time>2022-07-16T11:48:34Z</time>
      </trkpt>
      <trkpt lat="45.64528" lon="6.65737">
        <ele>2574</ele>
        <time>2022-07-16T11:48:36Z</time>
      </trkpt>
      <trkpt lat="45.6453" lon="6.6574">
        <ele>2574</ele>
        <time>2022-07-16T11:48:38Z</time>
      </trkpt>
      <trkpt lat="45.64531" lon="6.65742">
        <ele>2574</ele>
        <time>2022-07-16T11:48:40Z</time>
      </trkpt>
      <trkpt lat="45.64534" lon="6.65744">
        <ele>2573</ele>
        <time>2022-07-16T11:48:43Z</time>
      </trkpt>
      <trkpt lat="45.64536" lon="6.65746">
        <ele>2573</ele>
        <time>2022-07-16T11:48:45Z</time>
      </trkpt>
      <trkpt lat="45.64538" lon="6.65748">
        <ele>2573</ele>
        <time>2022-07-16T11:48:47Z</time>
      </trkpt>
      <trkpt lat="45.6454" lon="6.65749">
        <ele>2573</ele>
        <time>2022-07-16T11:48:49Z</time>
      </trkpt>
      <trkpt lat="45.64542" lon="6.65751">
        <ele>2573</ele>
        <time>2022-07-16T11:48:51Z</time>
      </trkpt>
      <trkpt lat="45.64543" lon="6.65753">
        <ele>2573</ele>
        <time>2022-07-16T11:48:53Z</time>
      </trkpt>
      <trkpt lat="45.64545" lon="6.65755">
        <ele>2573</ele>
        <time>2022-07-16T11:48:56Z</time>
      </trkpt>
      <trkpt lat="45.64547" lon="6.65755">
        <ele>2573</ele>
        <time>2022-07-16T11:48:59Z</time>
      </trkpt>
      <trkpt lat="45.6455" lon="6.65756">
        <ele>2573</ele>
        <time>2022-07-16T11:49:02Z</time>
      </trkpt>
      <trkpt lat="45.64551" lon="6.65756">
        <ele>2572</ele>
        <time>2022-07-16T11:49:06Z</time>
      </trkpt>
      <trkpt lat="45.64553" lon="6.65757">
        <ele>2573</ele>
        <time>2022-07-16T11:49:12Z</time>
      </trkpt>
      <trkpt lat="45.64555" lon="6.65758">
        <ele>2572</ele>
        <time>2022-07-16T11:49:16Z</time>
      </trkpt>
      <trkpt lat="45.64556" lon="6.65761">
        <ele>2571</ele>
        <time>2022-07-16T11:49:23Z</time>
      </trkpt>
      <trkpt lat="45.64559" lon="6.65763">
        <ele>2569</ele>
        <time>2022-07-16T11:49:25Z</time>
      </trkpt>
      <trkpt lat="45.64561" lon="6.65765">
        <ele>2569</ele>
        <time>2022-07-16T11:49:27Z</time>
      </trkpt>
      <trkpt lat="45.64563" lon="6.65767">
        <ele>2569</ele>
        <time>2022-07-16T11:49:29Z</time>
      </trkpt>
      <trkpt lat="45.64565" lon="6.65768">
        <ele>2569</ele>
        <time>2022-07-16T11:49:31Z</time>
      </trkpt>
      <trkpt lat="45.64567" lon="6.6577">
        <ele>2569</ele>
        <time>2022-07-16T11:49:33Z</time>
      </trkpt>
      <trkpt lat="45.64569" lon="6.65772">
        <ele>2568</ele>
        <time>2022-07-16T11:49:35Z</time>
      </trkpt>
      <trkpt lat="45.64571" lon="6.65773">
        <ele>2568</ele>
        <time>2022-07-16T11:49:37Z</time>
      </trkpt>
      <trkpt lat="45.64573" lon="6.65775">
        <ele>2568</ele>
        <time>2022-07-16T11:49:38Z</time>
      </trkpt>
      <trkpt lat="45.64575" lon="6.65777">
        <ele>2568</ele>
        <time>2022-07-16T11:49:40Z</time>
      </trkpt>
      <trkpt lat="45.64577" lon="6.6578">
        <ele>2568</ele>
        <time>2022-07-16T11:49:42Z</time>
      </trkpt>
      <trkpt lat="45.64578" lon="6.65784">
        <ele>2568</ele>
        <time>2022-07-16T11:49:44Z</time>
      </trkpt>
      <trkpt lat="45.6458" lon="6.65787">
        <ele>2568</ele>
        <time>2022-07-16T11:49:46Z</time>
      </trkpt>
      <trkpt lat="45.64583" lon="6.65793">
        <ele>2568</ele>
        <time>2022-07-16T11:49:48Z</time>
      </trkpt>
      <trkpt lat="45.64585" lon="6.65796">
        <ele>2567</ele>
        <time>2022-07-16T11:49:51Z</time>
      </trkpt>
      <trkpt lat="45.64586" lon="6.65801">
        <ele>2567</ele>
        <time>2022-07-16T11:49:52Z</time>
      </trkpt>
      <trkpt lat="45.64587" lon="6.65803">
        <ele>2567</ele>
        <time>2022-07-16T11:49:54Z</time>
      </trkpt>
      <trkpt lat="45.64589" lon="6.65807">
        <ele>2567</ele>
        <time>2022-07-16T11:49:56Z</time>
      </trkpt>
      <trkpt lat="45.6459" lon="6.65811">
        <ele>2566</ele>
        <time>2022-07-16T11:49:58Z</time>
      </trkpt>
      <trkpt lat="45.64591" lon="6.65813">
        <ele>2565</ele>
        <time>2022-07-16T11:50:00Z</time>
      </trkpt>
      <trkpt lat="45.64592" lon="6.65818">
        <ele>2564</ele>
        <time>2022-07-16T11:50:02Z</time>
      </trkpt>
      <trkpt lat="45.64593" lon="6.65821">
        <ele>2564</ele>
        <time>2022-07-16T11:50:04Z</time>
      </trkpt>
      <trkpt lat="45.64594" lon="6.65824">
        <ele>2564</ele>
        <time>2022-07-16T11:50:06Z</time>
      </trkpt>
      <trkpt lat="45.64595" lon="6.65828">
        <ele>2563</ele>
        <time>2022-07-16T11:50:08Z</time>
      </trkpt>
      <trkpt lat="45.64595" lon="6.65831">
        <ele>2562</ele>
        <time>2022-07-16T11:50:10Z</time>
      </trkpt>
      <trkpt lat="45.64598" lon="6.65834">
        <ele>2562</ele>
        <time>2022-07-16T11:50:12Z</time>
      </trkpt>
      <trkpt lat="45.64599" lon="6.65836">
        <ele>2562</ele>
        <time>2022-07-16T11:50:13Z</time>
      </trkpt>
      <trkpt lat="45.646" lon="6.65838">
        <ele>2561</ele>
        <time>2022-07-16T11:50:14Z</time>
      </trkpt>
      <trkpt lat="45.64602" lon="6.65841">
        <ele>2561</ele>
        <time>2022-07-16T11:50:16Z</time>
      </trkpt>
      <trkpt lat="45.64605" lon="6.65844">
        <ele>2561</ele>
        <time>2022-07-16T11:50:18Z</time>
      </trkpt>
      <trkpt lat="45.64608" lon="6.65847">
        <ele>2561</ele>
        <time>2022-07-16T11:50:20Z</time>
      </trkpt>
      <trkpt lat="45.64611" lon="6.65847">
        <ele>2561</ele>
        <time>2022-07-16T11:50:22Z</time>
      </trkpt>
      <trkpt lat="45.64614" lon="6.65849">
        <ele>2561</ele>
        <time>2022-07-16T11:50:24Z</time>
      </trkpt>
      <trkpt lat="45.64616" lon="6.6585">
        <ele>2561</ele>
        <time>2022-07-16T11:50:25Z</time>
      </trkpt>
      <trkpt lat="45.64617" lon="6.65851">
        <ele>2561</ele>
        <time>2022-07-16T11:50:26Z</time>
      </trkpt>
      <trkpt lat="45.6462" lon="6.65854">
        <ele>2561</ele>
        <time>2022-07-16T11:50:28Z</time>
      </trkpt>
      <trkpt lat="45.64621" lon="6.65856">
        <ele>2561</ele>
        <time>2022-07-16T11:50:29Z</time>
      </trkpt>
      <trkpt lat="45.64622" lon="6.65858">
        <ele>2561</ele>
        <time>2022-07-16T11:50:30Z</time>
      </trkpt>
      <trkpt lat="45.64623" lon="6.65861">
        <ele>2561</ele>
        <time>2022-07-16T11:50:31Z</time>
      </trkpt>
      <trkpt lat="45.64624" lon="6.65864">
        <ele>2561</ele>
        <time>2022-07-16T11:50:33Z</time>
      </trkpt>
      <trkpt lat="45.64626" lon="6.65868">
        <ele>2561</ele>
        <time>2022-07-16T11:50:35Z</time>
      </trkpt>
      <trkpt lat="45.64627" lon="6.6587">
        <ele>2561</ele>
        <time>2022-07-16T11:50:36Z</time>
      </trkpt>
      <trkpt lat="45.64629" lon="6.65874">
        <ele>2560</ele>
        <time>2022-07-16T11:50:38Z</time>
      </trkpt>
      <trkpt lat="45.6463" lon="6.65877">
        <ele>2560</ele>
        <time>2022-07-16T11:50:40Z</time>
      </trkpt>
      <trkpt lat="45.64632" lon="6.6588">
        <ele>2562</ele>
        <time>2022-07-16T11:50:43Z</time>
      </trkpt>
      <trkpt lat="45.64634" lon="6.65883">
        <ele>2562</ele>
        <time>2022-07-16T11:50:45Z</time>
      </trkpt>
      <trkpt lat="45.64636" lon="6.65887">
        <ele>2562</ele>
        <time>2022-07-16T11:50:47Z</time>
      </trkpt>
      <trkpt lat="45.64638" lon="6.6589">
        <ele>2562</ele>
        <time>2022-07-16T11:50:49Z</time>
      </trkpt>
      <trkpt lat="45.64639" lon="6.65893">
        <ele>2562</ele>
        <time>2022-07-16T11:50:51Z</time>
      </trkpt>
      <trkpt lat="45.6464" lon="6.65896">
        <ele>2562</ele>
        <time>2022-07-16T11:50:52Z</time>
      </trkpt>
      <trkpt lat="45.64641" lon="6.65897">
        <ele>2562</ele>
        <time>2022-07-16T11:50:53Z</time>
      </trkpt>
      <trkpt lat="45.64643" lon="6.65902">
        <ele>2561</ele>
        <time>2022-07-16T11:50:55Z</time>
      </trkpt>
      <trkpt lat="45.64645" lon="6.65905">
        <ele>2559</ele>
        <time>2022-07-16T11:50:57Z</time>
      </trkpt>
      <trkpt lat="45.64645" lon="6.65909">
        <ele>2559</ele>
        <time>2022-07-16T11:50:59Z</time>
      </trkpt>
      <trkpt lat="45.64645" lon="6.65912">
        <ele>2557</ele>
        <time>2022-07-16T11:51:00Z</time>
      </trkpt>
      <trkpt lat="45.64647" lon="6.65916">
        <ele>2557</ele>
        <time>2022-07-16T11:51:02Z</time>
      </trkpt>
      <trkpt lat="45.64648" lon="6.65919">
        <ele>2557</ele>
        <time>2022-07-16T11:51:03Z</time>
      </trkpt>
      <trkpt lat="45.64649" lon="6.65921">
        <ele>2557</ele>
        <time>2022-07-16T11:51:04Z</time>
      </trkpt>
      <trkpt lat="45.64651" lon="6.65925">
        <ele>2557</ele>
        <time>2022-07-16T11:51:06Z</time>
      </trkpt>
      <trkpt lat="45.64652" lon="6.65927">
        <ele>2556</ele>
        <time>2022-07-16T11:51:07Z</time>
      </trkpt>
      <trkpt lat="45.64653" lon="6.6593">
        <ele>2556</ele>
        <time>2022-07-16T11:51:08Z</time>
      </trkpt>
      <trkpt lat="45.64653" lon="6.65932">
        <ele>2556</ele>
        <time>2022-07-16T11:51:09Z</time>
      </trkpt>
      <trkpt lat="45.64654" lon="6.65935">
        <ele>2556</ele>
        <time>2022-07-16T11:51:10Z</time>
      </trkpt>
      <trkpt lat="45.64654" lon="6.65937">
        <ele>2555</ele>
        <time>2022-07-16T11:51:11Z</time>
      </trkpt>
      <trkpt lat="45.64655" lon="6.65941">
        <ele>2555</ele>
        <time>2022-07-16T11:51:13Z</time>
      </trkpt>
      <trkpt lat="45.64655" lon="6.65946">
        <ele>2555</ele>
        <time>2022-07-16T11:51:15Z</time>
      </trkpt>
      <trkpt lat="45.64657" lon="6.6595">
        <ele>2555</ele>
        <time>2022-07-16T11:51:17Z</time>
      </trkpt>
      <trkpt lat="45.64659" lon="6.65954">
        <ele>2554</ele>
        <time>2022-07-16T11:51:19Z</time>
      </trkpt>
      <trkpt lat="45.64661" lon="6.65957">
        <ele>2555</ele>
        <time>2022-07-16T11:51:21Z</time>
      </trkpt>
      <trkpt lat="45.64662" lon="6.6596">
        <ele>2555</ele>
        <time>2022-07-16T11:51:23Z</time>
      </trkpt>
      <trkpt lat="45.64663" lon="6.65963">
        <ele>2555</ele>
        <time>2022-07-16T11:51:25Z</time>
      </trkpt>
      <trkpt lat="45.64664" lon="6.65967">
        <ele>2555</ele>
        <time>2022-07-16T11:51:27Z</time>
      </trkpt>
      <trkpt lat="45.64665" lon="6.65969">
        <ele>2555</ele>
        <time>2022-07-16T11:51:28Z</time>
      </trkpt>
      <trkpt lat="45.64667" lon="6.65972">
        <ele>2556</ele>
        <time>2022-07-16T11:51:30Z</time>
      </trkpt>
      <trkpt lat="45.64669" lon="6.65975">
        <ele>2556</ele>
        <time>2022-07-16T11:51:32Z</time>
      </trkpt>
      <trkpt lat="45.64671" lon="6.65978">
        <ele>2556</ele>
        <time>2022-07-16T11:51:34Z</time>
      </trkpt>
      <trkpt lat="45.64672" lon="6.6598">
        <ele>2556</ele>
        <time>2022-07-16T11:51:35Z</time>
      </trkpt>
      <trkpt lat="45.64673" lon="6.65982">
        <ele>2555</ele>
        <time>2022-07-16T11:51:36Z</time>
      </trkpt>
      <trkpt lat="45.64675" lon="6.65984">
        <ele>2555</ele>
        <time>2022-07-16T11:51:38Z</time>
      </trkpt>
      <trkpt lat="45.64677" lon="6.65988">
        <ele>2556</ele>
        <time>2022-07-16T11:51:40Z</time>
      </trkpt>
      <trkpt lat="45.64677" lon="6.65991">
        <ele>2556</ele>
        <time>2022-07-16T11:51:41Z</time>
      </trkpt>
      <trkpt lat="45.64679" lon="6.65994">
        <ele>2555</ele>
        <time>2022-07-16T11:51:43Z</time>
      </trkpt>
      <trkpt lat="45.64679" lon="6.65997">
        <ele>2555</ele>
        <time>2022-07-16T11:51:45Z</time>
      </trkpt>
      <trkpt lat="45.6468" lon="6.66">
        <ele>2555</ele>
        <time>2022-07-16T11:51:48Z</time>
      </trkpt>
      <trkpt lat="45.64681" lon="6.66003">
        <ele>2555</ele>
        <time>2022-07-16T11:51:51Z</time>
      </trkpt>
      <trkpt lat="45.64682" lon="6.66007">
        <ele>2555</ele>
        <time>2022-07-16T11:51:53Z</time>
      </trkpt>
      <trkpt lat="45.64684" lon="6.6601">
        <ele>2555</ele>
        <time>2022-07-16T11:51:55Z</time>
      </trkpt>
      <trkpt lat="45.64686" lon="6.66015">
        <ele>2555</ele>
        <time>2022-07-16T11:51:57Z</time>
      </trkpt>
      <trkpt lat="45.64687" lon="6.66019">
        <ele>2555</ele>
        <time>2022-07-16T11:51:59Z</time>
      </trkpt>
      <trkpt lat="45.64687" lon="6.66022">
        <ele>2554</ele>
        <time>2022-07-16T11:52:00Z</time>
      </trkpt>
      <trkpt lat="45.64688" lon="6.66024">
        <ele>2554</ele>
        <time>2022-07-16T11:52:01Z</time>
      </trkpt>
      <trkpt lat="45.6469" lon="6.66027">
        <ele>2554</ele>
        <time>2022-07-16T11:52:03Z</time>
      </trkpt>
      <trkpt lat="45.64693" lon="6.6603">
        <ele>2554</ele>
        <time>2022-07-16T11:52:05Z</time>
      </trkpt>
      <trkpt lat="45.64693" lon="6.66032">
        <ele>2554</ele>
        <time>2022-07-16T11:52:06Z</time>
      </trkpt>
      <trkpt lat="45.64695" lon="6.66035">
        <ele>2554</ele>
        <time>2022-07-16T11:52:09Z</time>
      </trkpt>
      <trkpt lat="45.64697" lon="6.66037">
        <ele>2554</ele>
        <time>2022-07-16T11:52:11Z</time>
      </trkpt>
      <trkpt lat="45.64699" lon="6.6604">
        <ele>2554</ele>
        <time>2022-07-16T11:52:13Z</time>
      </trkpt>
      <trkpt lat="45.647" lon="6.66042">
        <ele>2555</ele>
        <time>2022-07-16T11:52:15Z</time>
      </trkpt>
      <trkpt lat="45.64702" lon="6.66043">
        <ele>2556</ele>
        <time>2022-07-16T11:52:17Z</time>
      </trkpt>
      <trkpt lat="45.64704" lon="6.66046">
        <ele>2556</ele>
        <time>2022-07-16T11:52:20Z</time>
      </trkpt>
      <trkpt lat="45.64705" lon="6.66048">
        <ele>2556</ele>
        <time>2022-07-16T11:52:22Z</time>
      </trkpt>
      <trkpt lat="45.64707" lon="6.6605">
        <ele>2556</ele>
        <time>2022-07-16T11:52:24Z</time>
      </trkpt>
      <trkpt lat="45.64708" lon="6.66052">
        <ele>2556</ele>
        <time>2022-07-16T11:52:26Z</time>
      </trkpt>
      <trkpt lat="45.6471" lon="6.66054">
        <ele>2556</ele>
        <time>2022-07-16T11:52:28Z</time>
      </trkpt>
      <trkpt lat="45.64712" lon="6.66055">
        <ele>2556</ele>
        <time>2022-07-16T11:52:30Z</time>
      </trkpt>
      <trkpt lat="45.64714" lon="6.66057">
        <ele>2556</ele>
        <time>2022-07-16T11:52:32Z</time>
      </trkpt>
      <trkpt lat="45.64716" lon="6.66059">
        <ele>2556</ele>
        <time>2022-07-16T11:52:34Z</time>
      </trkpt>
      <trkpt lat="45.64717" lon="6.66061">
        <ele>2556</ele>
        <time>2022-07-16T11:52:36Z</time>
      </trkpt>
      <trkpt lat="45.64719" lon="6.66064">
        <ele>2556</ele>
        <time>2022-07-16T11:52:38Z</time>
      </trkpt>
      <trkpt lat="45.64721" lon="6.66065">
        <ele>2557</ele>
        <time>2022-07-16T11:52:40Z</time>
      </trkpt>
      <trkpt lat="45.64723" lon="6.66067">
        <ele>2557</ele>
        <time>2022-07-16T11:52:42Z</time>
      </trkpt>
      <trkpt lat="45.64725" lon="6.66068">
        <ele>2557</ele>
        <time>2022-07-16T11:52:44Z</time>
      </trkpt>
      <trkpt lat="45.64727" lon="6.66069">
        <ele>2557</ele>
        <time>2022-07-16T11:52:46Z</time>
      </trkpt>
      <trkpt lat="45.64729" lon="6.66071">
        <ele>2557</ele>
        <time>2022-07-16T11:52:48Z</time>
      </trkpt>
      <trkpt lat="45.64731" lon="6.66072">
        <ele>2557</ele>
        <time>2022-07-16T11:52:50Z</time>
      </trkpt>
      <trkpt lat="45.64733" lon="6.66073">
        <ele>2559</ele>
        <time>2022-07-16T11:52:52Z</time>
      </trkpt>
      <trkpt lat="45.64735" lon="6.66076">
        <ele>2559</ele>
        <time>2022-07-16T11:52:54Z</time>
      </trkpt>
      <trkpt lat="45.64737" lon="6.66078">
        <ele>2559</ele>
        <time>2022-07-16T11:52:56Z</time>
      </trkpt>
      <trkpt lat="45.64739" lon="6.6608">
        <ele>2559</ele>
        <time>2022-07-16T11:52:58Z</time>
      </trkpt>
      <trkpt lat="45.6474" lon="6.66082">
        <ele>2560</ele>
        <time>2022-07-16T11:53:01Z</time>
      </trkpt>
      <trkpt lat="45.64742" lon="6.66084">
        <ele>2560</ele>
        <time>2022-07-16T11:53:04Z</time>
      </trkpt>
      <trkpt lat="45.64745" lon="6.66086">
        <ele>2561</ele>
        <time>2022-07-16T11:53:07Z</time>
      </trkpt>
      <trkpt lat="45.64746" lon="6.66087">
        <ele>2561</ele>
        <time>2022-07-16T11:53:10Z</time>
      </trkpt>
      <trkpt lat="45.64748" lon="6.66089">
        <ele>2561</ele>
        <time>2022-07-16T11:53:12Z</time>
      </trkpt>
      <trkpt lat="45.6475" lon="6.66091">
        <ele>2561</ele>
        <time>2022-07-16T11:53:15Z</time>
      </trkpt>
      <trkpt lat="45.64752" lon="6.66092">
        <ele>2562</ele>
        <time>2022-07-16T11:53:18Z</time>
      </trkpt>
      <trkpt lat="45.64754" lon="6.66094">
        <ele>2564</ele>
        <time>2022-07-16T11:53:24Z</time>
      </trkpt>
      <trkpt lat="45.64755" lon="6.66095">
        <ele>2565</ele>
        <time>2022-07-16T11:53:29Z</time>
      </trkpt>
      <trkpt lat="45.64757" lon="6.66097">
        <ele>2566</ele>
        <time>2022-07-16T11:53:34Z</time>
      </trkpt>
      <trkpt lat="45.64759" lon="6.66098">
        <ele>2567</ele>
        <time>2022-07-16T11:53:38Z</time>
      </trkpt>
      <trkpt lat="45.6476" lon="6.661">
        <ele>2567</ele>
        <time>2022-07-16T11:53:43Z</time>
      </trkpt>
      <trkpt lat="45.64762" lon="6.66102">
        <ele>2568</ele>
        <time>2022-07-16T11:53:47Z</time>
      </trkpt>
      <trkpt lat="45.64763" lon="6.66105">
        <ele>2568</ele>
        <time>2022-07-16T11:53:49Z</time>
      </trkpt>
      <trkpt lat="45.64764" lon="6.66107">
        <ele>2569</ele>
        <time>2022-07-16T11:53:51Z</time>
      </trkpt>
      <trkpt lat="45.64765" lon="6.66109">
        <ele>2569</ele>
        <time>2022-07-16T11:53:53Z</time>
      </trkpt>
      <trkpt lat="45.64765" lon="6.66112">
        <ele>2569</ele>
        <time>2022-07-16T11:53:55Z</time>
      </trkpt>
      <trkpt lat="45.64766" lon="6.66115">
        <ele>2569</ele>
        <time>2022-07-16T11:53:57Z</time>
      </trkpt>
      <trkpt lat="45.64767" lon="6.66118">
        <ele>2569</ele>
        <time>2022-07-16T11:54:00Z</time>
      </trkpt>
      <trkpt lat="45.64768" lon="6.66121">
        <ele>2571</ele>
        <time>2022-07-16T11:54:03Z</time>
      </trkpt>
      <trkpt lat="45.64768" lon="6.66124">
        <ele>2571</ele>
        <time>2022-07-16T11:54:06Z</time>
      </trkpt>
      <trkpt lat="45.6477" lon="6.66127">
        <ele>2572</ele>
        <time>2022-07-16T11:54:09Z</time>
      </trkpt>
      <trkpt lat="45.64772" lon="6.6613">
        <ele>2572</ele>
        <time>2022-07-16T11:54:11Z</time>
      </trkpt>
      <trkpt lat="45.64774" lon="6.66131">
        <ele>2572</ele>
        <time>2022-07-16T11:54:13Z</time>
      </trkpt>
      <trkpt lat="45.64776" lon="6.66131">
        <ele>2572</ele>
        <time>2022-07-16T11:54:15Z</time>
      </trkpt>
      <trkpt lat="45.64778" lon="6.66132">
        <ele>2572</ele>
        <time>2022-07-16T11:54:17Z</time>
      </trkpt>
      <trkpt lat="45.64781" lon="6.66132">
        <ele>2572</ele>
        <time>2022-07-16T11:54:19Z</time>
      </trkpt>
      <trkpt lat="45.64783" lon="6.66134">
        <ele>2571</ele>
        <time>2022-07-16T11:54:21Z</time>
      </trkpt>
      <trkpt lat="45.64785" lon="6.66135">
        <ele>2571</ele>
        <time>2022-07-16T11:54:23Z</time>
      </trkpt>
      <trkpt lat="45.64787" lon="6.66135">
        <ele>2571</ele>
        <time>2022-07-16T11:54:26Z</time>
      </trkpt>
      <trkpt lat="45.6479" lon="6.66135">
        <ele>2571</ele>
        <time>2022-07-16T11:54:29Z</time>
      </trkpt>
      <trkpt lat="45.64791" lon="6.66137">
        <ele>2571</ele>
        <time>2022-07-16T11:54:32Z</time>
      </trkpt>
      <trkpt lat="45.64793" lon="6.66138">
        <ele>2571</ele>
        <time>2022-07-16T11:54:35Z</time>
      </trkpt>
      <trkpt lat="45.64794" lon="6.66141">
        <ele>2571</ele>
        <time>2022-07-16T11:54:38Z</time>
      </trkpt>
      <trkpt lat="45.64796" lon="6.66143">
        <ele>2569</ele>
        <time>2022-07-16T11:54:42Z</time>
      </trkpt>
      <trkpt lat="45.64798" lon="6.66145">
        <ele>2569</ele>
        <time>2022-07-16T11:54:46Z</time>
      </trkpt>
      <trkpt lat="45.648" lon="6.66144">
        <ele>2569</ele>
        <time>2022-07-16T11:54:50Z</time>
      </trkpt>
      <trkpt lat="45.64802" lon="6.66141">
        <ele>2572</ele>
        <time>2022-07-16T11:54:53Z</time>
      </trkpt>
      <trkpt lat="45.64804" lon="6.66141">
        <ele>2572</ele>
        <time>2022-07-16T11:54:58Z</time>
      </trkpt>
      <trkpt lat="45.64805" lon="6.66144">
        <ele>2571</ele>
        <time>2022-07-16T11:55:02Z</time>
      </trkpt>
      <trkpt lat="45.64807" lon="6.66145">
        <ele>2572</ele>
        <time>2022-07-16T11:55:07Z</time>
      </trkpt>
      <trkpt lat="45.64809" lon="6.66147">
        <ele>2573</ele>
        <time>2022-07-16T11:55:11Z</time>
      </trkpt>
      <trkpt lat="45.6481" lon="6.66149">
        <ele>2572</ele>
        <time>2022-07-16T11:55:15Z</time>
      </trkpt>
      <trkpt lat="45.64812" lon="6.6615">
        <ele>2572</ele>
        <time>2022-07-16T11:55:19Z</time>
      </trkpt>
      <trkpt lat="45.64814" lon="6.66152">
        <ele>2573</ele>
        <time>2022-07-16T11:55:25Z</time>
      </trkpt>
      <trkpt lat="45.64816" lon="6.66154">
        <ele>2574</ele>
        <time>2022-07-16T11:55:28Z</time>
      </trkpt>
      <trkpt lat="45.64817" lon="6.66157">
        <ele>2574</ele>
        <time>2022-07-16T11:55:32Z</time>
      </trkpt>
      <trkpt lat="45.64817" lon="6.6616">
        <ele>2574</ele>
        <time>2022-07-16T11:55:35Z</time>
      </trkpt>
      <trkpt lat="45.64819" lon="6.66163">
        <ele>2574</ele>
        <time>2022-07-16T11:55:38Z</time>
      </trkpt>
      <trkpt lat="45.6482" lon="6.66164">
        <ele>2574</ele>
        <time>2022-07-16T11:55:43Z</time>
      </trkpt>
      <trkpt lat="45.64822" lon="6.66166">
        <ele>2576</ele>
        <time>2022-07-16T11:55:49Z</time>
      </trkpt>
      <trkpt lat="45.64823" lon="6.66167">
        <ele>2576</ele>
        <time>2022-07-16T11:55:53Z</time>
      </trkpt>
      <trkpt lat="45.64826" lon="6.66168">
        <ele>2577</ele>
        <time>2022-07-16T11:55:58Z</time>
      </trkpt>
      <trkpt lat="45.64828" lon="6.66168">
        <ele>2577</ele>
        <time>2022-07-16T11:56:02Z</time>
      </trkpt>
      <trkpt lat="45.64829" lon="6.66169">
        <ele>2578</ele>
        <time>2022-07-16T11:56:06Z</time>
      </trkpt>
      <trkpt lat="45.64832" lon="6.6617">
        <ele>2579</ele>
        <time>2022-07-16T11:56:11Z</time>
      </trkpt>
      <trkpt lat="45.64834" lon="6.66172">
        <ele>2579</ele>
        <time>2022-07-16T11:56:16Z</time>
      </trkpt>
      <trkpt lat="45.64835" lon="6.66173">
        <ele>2580</ele>
        <time>2022-07-16T11:56:21Z</time>
      </trkpt>
      <trkpt lat="45.64836" lon="6.66175">
        <ele>2580</ele>
        <time>2022-07-16T11:56:24Z</time>
      </trkpt>
      <trkpt lat="45.64838" lon="6.66178">
        <ele>2583</ele>
        <time>2022-07-16T11:56:27Z</time>
      </trkpt>
      <trkpt lat="45.64839" lon="6.6618">
        <ele>2583</ele>
        <time>2022-07-16T11:56:29Z</time>
      </trkpt>
      <trkpt lat="45.6484" lon="6.66183">
        <ele>2583</ele>
        <time>2022-07-16T11:56:31Z</time>
      </trkpt>
      <trkpt lat="45.64841" lon="6.66186">
        <ele>2584</ele>
        <time>2022-07-16T11:56:33Z</time>
      </trkpt>
      <trkpt lat="45.64841" lon="6.66188">
        <ele>2584</ele>
        <time>2022-07-16T11:56:35Z</time>
      </trkpt>
      <trkpt lat="45.64842" lon="6.66192">
        <ele>2583</ele>
        <time>2022-07-16T11:56:38Z</time>
      </trkpt>
      <trkpt lat="45.64844" lon="6.66194">
        <ele>2584</ele>
        <time>2022-07-16T11:56:40Z</time>
      </trkpt>
      <trkpt lat="45.64845" lon="6.66196">
        <ele>2584</ele>
        <time>2022-07-16T11:56:42Z</time>
      </trkpt>
      <trkpt lat="45.64846" lon="6.66198">
        <ele>2584</ele>
        <time>2022-07-16T11:56:44Z</time>
      </trkpt>
      <trkpt lat="45.64847" lon="6.662">
        <ele>2584</ele>
        <time>2022-07-16T11:56:46Z</time>
      </trkpt>
      <trkpt lat="45.64849" lon="6.66204">
        <ele>2584</ele>
        <time>2022-07-16T11:56:49Z</time>
      </trkpt>
      <trkpt lat="45.6485" lon="6.66206">
        <ele>2585</ele>
        <time>2022-07-16T11:56:50Z</time>
      </trkpt>
      <trkpt lat="45.6485" lon="6.66209">
        <ele>2585</ele>
        <time>2022-07-16T11:56:53Z</time>
      </trkpt>
      <trkpt lat="45.6485" lon="6.66211">
        <ele>2586</ele>
        <time>2022-07-16T11:56:55Z</time>
      </trkpt>
      <trkpt lat="45.6485" lon="6.66215">
        <ele>2586</ele>
        <time>2022-07-16T11:56:58Z</time>
      </trkpt>
      <trkpt lat="45.6485" lon="6.66218">
        <ele>2586</ele>
        <time>2022-07-16T11:57:01Z</time>
      </trkpt>
      <trkpt lat="45.6485" lon="6.6622">
        <ele>2587</ele>
        <time>2022-07-16T11:57:03Z</time>
      </trkpt>
      <trkpt lat="45.64851" lon="6.66223">
        <ele>2587</ele>
        <time>2022-07-16T11:57:05Z</time>
      </trkpt>
      <trkpt lat="45.64852" lon="6.66226">
        <ele>2587</ele>
        <time>2022-07-16T11:57:07Z</time>
      </trkpt>
      <trkpt lat="45.64853" lon="6.66229">
        <ele>2587</ele>
        <time>2022-07-16T11:57:09Z</time>
      </trkpt>
      <trkpt lat="45.64854" lon="6.66232">
        <ele>2587</ele>
        <time>2022-07-16T11:57:11Z</time>
      </trkpt>
      <trkpt lat="45.64855" lon="6.66235">
        <ele>2588</ele>
        <time>2022-07-16T11:57:14Z</time>
      </trkpt>
      <trkpt lat="45.64856" lon="6.66238">
        <ele>2588</ele>
        <time>2022-07-16T11:57:17Z</time>
      </trkpt>
      <trkpt lat="45.64855" lon="6.66242">
        <ele>2589</ele>
        <time>2022-07-16T11:57:21Z</time>
      </trkpt>
      <trkpt lat="45.64856" lon="6.66245">
        <ele>2589</ele>
        <time>2022-07-16T11:57:25Z</time>
      </trkpt>
      <trkpt lat="45.64856" lon="6.66248">
        <ele>2590</ele>
        <time>2022-07-16T11:57:28Z</time>
      </trkpt>
      <trkpt lat="45.64856" lon="6.66251">
        <ele>2591</ele>
        <time>2022-07-16T11:57:32Z</time>
      </trkpt>
      <trkpt lat="45.64857" lon="6.66254">
        <ele>2592</ele>
        <time>2022-07-16T11:57:36Z</time>
      </trkpt>
      <trkpt lat="45.64857" lon="6.66256">
        <ele>2592</ele>
        <time>2022-07-16T11:57:41Z</time>
      </trkpt>
      <trkpt lat="45.64855" lon="6.66258">
        <ele>2592</ele>
        <time>2022-07-16T11:57:43Z</time>
      </trkpt>
      <trkpt lat="45.64853" lon="6.6626">
        <ele>2592</ele>
        <time>2022-07-16T11:57:45Z</time>
      </trkpt>
      <trkpt lat="45.64852" lon="6.66262">
        <ele>2592</ele>
        <time>2022-07-16T11:57:47Z</time>
      </trkpt>
      <trkpt lat="45.64851" lon="6.66265">
        <ele>2592</ele>
        <time>2022-07-16T11:57:50Z</time>
      </trkpt>
      <trkpt lat="45.64851" lon="6.66268">
        <ele>2593</ele>
        <time>2022-07-16T11:57:54Z</time>
      </trkpt>
      <trkpt lat="45.64851" lon="6.66271">
        <ele>2595</ele>
        <time>2022-07-16T11:57:58Z</time>
      </trkpt>
      <trkpt lat="45.64851" lon="6.66274">
        <ele>2595</ele>
        <time>2022-07-16T11:58:01Z</time>
      </trkpt>
      <trkpt lat="45.6485" lon="6.66276">
        <ele>2596</ele>
        <time>2022-07-16T11:58:04Z</time>
      </trkpt>
      <trkpt lat="45.64849" lon="6.66279">
        <ele>2596</ele>
        <time>2022-07-16T11:58:07Z</time>
      </trkpt>
      <trkpt lat="45.64848" lon="6.66281">
        <ele>2596</ele>
        <time>2022-07-16T11:58:09Z</time>
      </trkpt>
      <trkpt lat="45.64846" lon="6.66283">
        <ele>2596</ele>
        <time>2022-07-16T11:58:11Z</time>
      </trkpt>
      <trkpt lat="45.64845" lon="6.66285">
        <ele>2596</ele>
        <time>2022-07-16T11:58:13Z</time>
      </trkpt>
      <trkpt lat="45.64844" lon="6.66288">
        <ele>2596</ele>
        <time>2022-07-16T11:58:15Z</time>
      </trkpt>
      <trkpt lat="45.64843" lon="6.66291">
        <ele>2596</ele>
        <time>2022-07-16T11:58:19Z</time>
      </trkpt>
      <trkpt lat="45.64843" lon="6.66294">
        <ele>2596</ele>
        <time>2022-07-16T11:58:22Z</time>
      </trkpt>
      <trkpt lat="45.64843" lon="6.66297">
        <ele>2597</ele>
        <time>2022-07-16T11:58:25Z</time>
      </trkpt>
      <trkpt lat="45.64843" lon="6.663">
        <ele>2598</ele>
        <time>2022-07-16T11:58:28Z</time>
      </trkpt>
      <trkpt lat="45.64842" lon="6.66302">
        <ele>2598</ele>
        <time>2022-07-16T11:58:31Z</time>
      </trkpt>
      <trkpt lat="45.64842" lon="6.66305">
        <ele>2599</ele>
        <time>2022-07-16T11:58:35Z</time>
      </trkpt>
      <trkpt lat="45.64841" lon="6.66308">
        <ele>2599</ele>
        <time>2022-07-16T11:58:39Z</time>
      </trkpt>
      <trkpt lat="45.6484" lon="6.6631">
        <ele>2600</ele>
        <time>2022-07-16T11:58:43Z</time>
      </trkpt>
      <trkpt lat="45.64839" lon="6.66313">
        <ele>2601</ele>
        <time>2022-07-16T11:58:46Z</time>
      </trkpt>
      <trkpt lat="45.64839" lon="6.66316">
        <ele>2601</ele>
        <time>2022-07-16T11:58:50Z</time>
      </trkpt>
      <trkpt lat="45.64838" lon="6.66319">
        <ele>2601</ele>
        <time>2022-07-16T11:58:54Z</time>
      </trkpt>
      <trkpt lat="45.64838" lon="6.66323">
        <ele>2603</ele>
        <time>2022-07-16T11:58:58Z</time>
      </trkpt>
      <trkpt lat="45.64838" lon="6.66325">
        <ele>2603</ele>
        <time>2022-07-16T11:59:01Z</time>
      </trkpt>
      <trkpt lat="45.64837" lon="6.66328">
        <ele>2603</ele>
        <time>2022-07-16T11:59:04Z</time>
      </trkpt>
      <trkpt lat="45.64837" lon="6.66331">
        <ele>2604</ele>
        <time>2022-07-16T11:59:07Z</time>
      </trkpt>
      <trkpt lat="45.64838" lon="6.66334">
        <ele>2604</ele>
        <time>2022-07-16T11:59:11Z</time>
      </trkpt>
      <trkpt lat="45.64837" lon="6.66338">
        <ele>2607</ele>
        <time>2022-07-16T11:59:17Z</time>
      </trkpt>
      <trkpt lat="45.64837" lon="6.66341">
        <ele>2607</ele>
        <time>2022-07-16T11:59:20Z</time>
      </trkpt>
      <trkpt lat="45.64837" lon="6.66344">
        <ele>2608</ele>
        <time>2022-07-16T11:59:23Z</time>
      </trkpt>
      <trkpt lat="45.64838" lon="6.66347">
        <ele>2608</ele>
        <time>2022-07-16T11:59:28Z</time>
      </trkpt>
      <trkpt lat="45.64839" lon="6.66349">
        <ele>2608</ele>
        <time>2022-07-16T11:59:31Z</time>
      </trkpt>
      <trkpt lat="45.64838" lon="6.66351">
        <ele>2610</ele>
        <time>2022-07-16T11:59:34Z</time>
      </trkpt>
      <trkpt lat="45.64836" lon="6.66353">
        <ele>2610</ele>
        <time>2022-07-16T11:59:37Z</time>
      </trkpt>
      <trkpt lat="45.64835" lon="6.66355">
        <ele>2610</ele>
        <time>2022-07-16T11:59:41Z</time>
      </trkpt>
      <trkpt lat="45.64836" lon="6.66358">
        <ele>2611</ele>
        <time>2022-07-16T11:59:45Z</time>
      </trkpt>
      <trkpt lat="45.64836" lon="6.66361">
        <ele>2612</ele>
        <time>2022-07-16T11:59:49Z</time>
      </trkpt>
      <trkpt lat="45.64836" lon="6.66364">
        <ele>2613</ele>
        <time>2022-07-16T11:59:52Z</time>
      </trkpt>
      <trkpt lat="45.64835" lon="6.66366">
        <ele>2613</ele>
        <time>2022-07-16T11:59:55Z</time>
      </trkpt>
      <trkpt lat="45.64833" lon="6.66368">
        <ele>2613</ele>
        <time>2022-07-16T11:59:58Z</time>
      </trkpt>
      <trkpt lat="45.64831" lon="6.66369">
        <ele>2613</ele>
        <time>2022-07-16T12:00:01Z</time>
      </trkpt>
      <trkpt lat="45.64829" lon="6.6637">
        <ele>2614</ele>
        <time>2022-07-16T12:00:04Z</time>
      </trkpt>
      <trkpt lat="45.64828" lon="6.66372">
        <ele>2614</ele>
        <time>2022-07-16T12:00:08Z</time>
      </trkpt>
      <trkpt lat="45.6483" lon="6.66374">
        <ele>2615</ele>
        <time>2022-07-16T12:00:11Z</time>
      </trkpt>
      <trkpt lat="45.64831" lon="6.66375">
        <ele>2615</ele>
        <time>2022-07-16T12:00:13Z</time>
      </trkpt>
      <trkpt lat="45.64833" lon="6.66376">
        <ele>2616</ele>
        <time>2022-07-16T12:00:17Z</time>
      </trkpt>
      <trkpt lat="45.64832" lon="6.66378">
        <ele>2617</ele>
        <time>2022-07-16T12:00:25Z</time>
      </trkpt>
      <trkpt lat="45.64831" lon="6.66378">
        <ele>2617</ele>
        <time>2022-07-16T12:00:26Z</time>
      </trkpt>
      <trkpt lat="45.64831" lon="6.66377">
        <ele>2617</ele>
        <time>2022-07-16T12:00:27Z</time>
      </trkpt>
      <trkpt lat="45.6483" lon="6.66377">
        <ele>2617</ele>
        <time>2022-07-16T12:00:29Z</time>
      </trkpt>
      <trkpt lat="45.64829" lon="6.66377">
        <ele>2617</ele>
        <time>2022-07-16T12:00:31Z</time>
      </trkpt>
      <trkpt lat="45.64828" lon="6.66377">
        <ele>2617</ele>
        <time>2022-07-16T12:00:33Z</time>
      </trkpt>
      <trkpt lat="45.64827" lon="6.66377">
        <ele>2617</ele>
        <time>2022-07-16T12:00:35Z</time>
      </trkpt>
      <trkpt lat="45.64827" lon="6.66376">
        <ele>2617</ele>
        <time>2022-07-16T12:00:36Z</time>
      </trkpt>
      <trkpt lat="45.64826" lon="6.66376">
        <ele>2617</ele>
        <time>2022-07-16T12:00:37Z</time>
      </trkpt>
      <trkpt lat="45.64824" lon="6.66378">
        <ele>2617</ele>
        <time>2022-07-16T12:00:44Z</time>
      </trkpt>
      <trkpt lat="45.64824" lon="6.66378">
        <ele>2619</ele>
        <time>2022-07-16T12:00:54Z</time>
      </trkpt>
      <trkpt lat="45.64824" lon="6.6638">
        <ele>2619</ele>
        <time>2022-07-16T12:01:02Z</time>
      </trkpt>
      <trkpt lat="45.64824" lon="6.6638">
        <ele>2619</ele>
        <time>2022-07-16T12:01:11Z</time>
      </trkpt>
      <trkpt lat="45.64824" lon="6.6638">
        <ele>2617</ele>
        <time>2022-07-16T12:01:27Z</time>
      </trkpt>
      <trkpt lat="45.64824" lon="6.6638">
        <ele>2617</ele>
        <time>2022-07-16T12:01:43Z</time>
      </trkpt>
      <trkpt lat="45.64825" lon="6.66379">
        <ele>2617</ele>
        <time>2022-07-16T12:01:52Z</time>
      </trkpt>
      <trkpt lat="45.64825" lon="6.66379">
        <ele>2617</ele>
        <time>2022-07-16T12:02:00Z</time>
      </trkpt>
      <trkpt lat="45.64825" lon="6.66379">
        <ele>2617</ele>
        <time>2022-07-16T12:02:16Z</time>
      </trkpt>
      <trkpt lat="45.64825" lon="6.66379">
        <ele>2617</ele>
        <time>2022-07-16T12:02:33Z</time>
      </trkpt>
      <trkpt lat="45.64825" lon="6.66379">
        <ele>2617</ele>
        <time>2022-07-16T12:02:49Z</time>
      </trkpt>
      <trkpt lat="45.64825" lon="6.66379">
        <ele>2617</ele>
        <time>2022-07-16T12:03:05Z</time>
      </trkpt>
      <trkpt lat="45.64825" lon="6.66379">
        <ele>2617</ele>
        <time>2022-07-16T12:03:21Z</time>
      </trkpt>
      <trkpt lat="45.64825" lon="6.66379">
        <ele>2617</ele>
        <time>2022-07-16T12:03:37Z</time>
      </trkpt>
      <trkpt lat="45.64825" lon="6.66379">
        <ele>2616</ele>
        <time>2022-07-16T12:03:53Z</time>
      </trkpt>
      <trkpt lat="45.64824" lon="6.66377">
        <ele>2616</ele>
        <time>2022-07-16T12:04:06Z</time>
      </trkpt>
      <trkpt lat="45.64824" lon="6.66377">
        <ele>2616</ele>
        <time>2022-07-16T12:04:10Z</time>
      </trkpt>
      <trkpt lat="45.64824" lon="6.66377">
        <ele>2617</ele>
        <time>2022-07-16T12:04:26Z</time>
      </trkpt>
      <trkpt lat="45.64824" lon="6.66377">
        <ele>2617</ele>
        <time>2022-07-16T12:04:42Z</time>
      </trkpt>
      <trkpt lat="45.64824" lon="6.66377">
        <ele>2617</ele>
        <time>2022-07-16T12:04:58Z</time>
      </trkpt>
      <trkpt lat="45.64824" lon="6.66377">
        <ele>2617</ele>
        <time>2022-07-16T12:05:14Z</time>
      </trkpt>
      <trkpt lat="45.64824" lon="6.66377">
        <ele>2617</ele>
        <time>2022-07-16T12:05:30Z</time>
      </trkpt>
      <trkpt lat="45.64824" lon="6.66379">
        <ele>2617</ele>
        <time>2022-07-16T12:05:32Z</time>
      </trkpt>
      <trkpt lat="45.64824" lon="6.66379">
        <ele>2617</ele>
        <time>2022-07-16T12:05:47Z</time>
      </trkpt>
      <trkpt lat="45.64824" lon="6.66379">
        <ele>2617</ele>
        <time>2022-07-16T12:06:03Z</time>
      </trkpt>
      <trkpt lat="45.64824" lon="6.66379">
        <ele>2617</ele>
        <time>2022-07-16T12:06:19Z</time>
      </trkpt>
      <trkpt lat="45.64822" lon="6.6638">
        <ele>2617</ele>
        <time>2022-07-16T12:06:32Z</time>
      </trkpt>
      <trkpt lat="45.64822" lon="6.6638">
        <ele>2617</ele>
        <time>2022-07-16T12:06:36Z</time>
      </trkpt>
      <trkpt lat="45.64823" lon="6.66378">
        <ele>2617</ele>
        <time>2022-07-16T12:06:42Z</time>
      </trkpt>
      <trkpt lat="45.64823" lon="6.66378">
        <ele>2617</ele>
        <time>2022-07-16T12:06:53Z</time>
      </trkpt>
      <trkpt lat="45.64823" lon="6.66378">
        <ele>2617</ele>
        <time>2022-07-16T12:07:09Z</time>
      </trkpt>
      <trkpt lat="45.64824" lon="6.66375">
        <ele>2617</ele>
        <time>2022-07-16T12:07:12Z</time>
      </trkpt>
      <trkpt lat="45.64824" lon="6.66378">
        <ele>2617</ele>
        <time>2022-07-16T12:07:17Z</time>
      </trkpt>
      <trkpt lat="45.64824" lon="6.66378">
        <ele>2619</ele>
        <time>2022-07-16T12:07:27Z</time>
      </trkpt>
      <trkpt lat="45.64824" lon="6.66378">
        <ele>2617</ele>
        <time>2022-07-16T12:07:43Z</time>
      </trkpt>
      <trkpt lat="45.64824" lon="6.66375">
        <ele>2617</ele>
        <time>2022-07-16T12:07:49Z</time>
      </trkpt>
      <trkpt lat="45.64824" lon="6.66375">
        <ele>2617</ele>
        <time>2022-07-16T12:08:00Z</time>
      </trkpt>
      <trkpt lat="45.64824" lon="6.66375">
        <ele>2617</ele>
        <time>2022-07-16T12:08:16Z</time>
      </trkpt>
      <trkpt lat="45.64824" lon="6.66375">
        <ele>2619</ele>
        <time>2022-07-16T12:08:32Z</time>
      </trkpt>
      <trkpt lat="45.64824" lon="6.66375">
        <ele>2619</ele>
        <time>2022-07-16T12:08:49Z</time>
      </trkpt>
      <trkpt lat="45.64824" lon="6.66378">
        <ele>2619</ele>
        <time>2022-07-16T12:09:04Z</time>
      </trkpt>
      <trkpt lat="45.64824" lon="6.66378">
        <ele>2619</ele>
        <time>2022-07-16T12:09:06Z</time>
      </trkpt>
      <trkpt lat="45.64824" lon="6.66378">
        <ele>2619</ele>
        <time>2022-07-16T12:09:22Z</time>
      </trkpt>
      <trkpt lat="45.64824" lon="6.66378">
        <ele>2617</ele>
        <time>2022-07-16T12:09:38Z</time>
      </trkpt>
      <trkpt lat="45.64826" lon="6.66379">
        <ele>2617</ele>
        <time>2022-07-16T12:09:49Z</time>
      </trkpt>
      <trkpt lat="45.64826" lon="6.66379">
        <ele>2619</ele>
        <time>2022-07-16T12:09:55Z</time>
      </trkpt>
      <trkpt lat="45.64826" lon="6.66379">
        <ele>2617</ele>
        <time>2022-07-16T12:10:11Z</time>
      </trkpt>
      <trkpt lat="45.64826" lon="6.66379">
        <ele>2619</ele>
        <time>2022-07-16T12:10:27Z</time>
      </trkpt>
      <trkpt lat="45.64825" lon="6.66376">
        <ele>2617</ele>
        <time>2022-07-16T12:10:31Z</time>
      </trkpt>
      <trkpt lat="45.64825" lon="6.66376">
        <ele>2617</ele>
        <time>2022-07-16T12:10:44Z</time>
      </trkpt>
      <trkpt lat="45.64824" lon="6.66379">
        <ele>2617</ele>
        <time>2022-07-16T12:10:46Z</time>
      </trkpt>
      <trkpt lat="45.64824" lon="6.66379">
        <ele>2617</ele>
        <time>2022-07-16T12:11:01Z</time>
      </trkpt>
      <trkpt lat="45.64824" lon="6.66379">
        <ele>2617</ele>
        <time>2022-07-16T12:11:18Z</time>
      </trkpt>
      <trkpt lat="45.64824" lon="6.66382">
        <ele>2617</ele>
        <time>2022-07-16T12:11:20Z</time>
      </trkpt>
      <trkpt lat="45.64823" lon="6.66385">
        <ele>2617</ele>
        <time>2022-07-16T12:11:23Z</time>
      </trkpt>
      <trkpt lat="45.64821" lon="6.66387">
        <ele>2617</ele>
        <time>2022-07-16T12:11:26Z</time>
      </trkpt>
      <trkpt lat="45.64821" lon="6.6639">
        <ele>2617</ele>
        <time>2022-07-16T12:11:31Z</time>
      </trkpt>
      <trkpt lat="45.64821" lon="6.6639">
        <ele>2617</ele>
        <time>2022-07-16T12:11:39Z</time>
      </trkpt>
      <trkpt lat="45.64821" lon="6.66392">
        <ele>2617</ele>
        <time>2022-07-16T12:11:42Z</time>
      </trkpt>
      <trkpt lat="45.64823" lon="6.66394">
        <ele>2616</ele>
        <time>2022-07-16T12:11:46Z</time>
      </trkpt>
      <trkpt lat="45.64825" lon="6.66395">
        <ele>2616</ele>
        <time>2022-07-16T12:11:49Z</time>
      </trkpt>
      <trkpt lat="45.64825" lon="6.66398">
        <ele>2616</ele>
        <time>2022-07-16T12:11:54Z</time>
      </trkpt>
      <trkpt lat="45.64825" lon="6.66398">
        <ele>2615</ele>
        <time>2022-07-16T12:12:03Z</time>
      </trkpt>
      <trkpt lat="45.64825" lon="6.66398">
        <ele>2614</ele>
        <time>2022-07-16T12:12:19Z</time>
      </trkpt>
      <trkpt lat="45.64825" lon="6.66398">
        <ele>2614</ele>
        <time>2022-07-16T12:12:35Z</time>
      </trkpt>
      <trkpt lat="45.64825" lon="6.66394">
        <ele>2615</ele>
        <time>2022-07-16T12:12:48Z</time>
      </trkpt>
      <trkpt lat="45.64825" lon="6.66391">
        <ele>2615</ele>
        <time>2022-07-16T12:12:51Z</time>
      </trkpt>
      <trkpt lat="45.64823" lon="6.66393">
        <ele>2615</ele>
        <time>2022-07-16T12:13:02Z</time>
      </trkpt>
      <trkpt lat="45.64823" lon="6.66393">
        <ele>2615</ele>
        <time>2022-07-16T12:13:07Z</time>
      </trkpt>
      <trkpt lat="45.64821" lon="6.66394">
        <ele>2615</ele>
        <time>2022-07-16T12:13:16Z</time>
      </trkpt>
      <trkpt lat="45.64821" lon="6.66395">
        <ele>2613</ele>
        <time>2022-07-16T12:13:21Z</time>
      </trkpt>
      <trkpt lat="45.64822" lon="6.66395">
        <ele>2614</ele>
        <time>2022-07-16T12:13:31Z</time>
      </trkpt>
      <trkpt lat="45.64822" lon="6.66395">
        <ele>2615</ele>
        <time>2022-07-16T12:13:35Z</time>
      </trkpt>
      <trkpt lat="45.64822" lon="6.66396">
        <ele>2614</ele>
        <time>2022-07-16T12:13:42Z</time>
      </trkpt>
      <trkpt lat="45.64822" lon="6.66396">
        <ele>2614</ele>
        <time>2022-07-16T12:13:52Z</time>
      </trkpt>
      <trkpt lat="45.64823" lon="6.66396">
        <ele>2614</ele>
        <time>2022-07-16T12:13:53Z</time>
      </trkpt>
      <trkpt lat="45.64823" lon="6.66397">
        <ele>2614</ele>
        <time>2022-07-16T12:14:03Z</time>
      </trkpt>
      <trkpt lat="45.64823" lon="6.66397">
        <ele>2614</ele>
        <time>2022-07-16T12:14:10Z</time>
      </trkpt>
      <trkpt lat="45.64824" lon="6.66397">
        <ele>2614</ele>
        <time>2022-07-16T12:14:14Z</time>
      </trkpt>
      <trkpt lat="45.64824" lon="6.66398">
        <ele>2614</ele>
        <time>2022-07-16T12:14:24Z</time>
      </trkpt>
      <trkpt lat="45.64824" lon="6.66398">
        <ele>2614</ele>
        <time>2022-07-16T12:14:28Z</time>
      </trkpt>
      <trkpt lat="45.64825" lon="6.66398">
        <ele>2614</ele>
        <time>2022-07-16T12:14:36Z</time>
      </trkpt>
      <trkpt lat="45.64825" lon="6.66399">
        <ele>2614</ele>
        <time>2022-07-16T12:14:45Z</time>
      </trkpt>
      <trkpt lat="45.64825" lon="6.66399">
        <ele>2614</ele>
        <time>2022-07-16T12:14:46Z</time>
      </trkpt>
      <trkpt lat="45.64823" lon="6.66397">
        <ele>2614</ele>
        <time>2022-07-16T12:14:58Z</time>
      </trkpt>
      <trkpt lat="45.64823" lon="6.66397">
        <ele>2614</ele>
        <time>2022-07-16T12:15:04Z</time>
      </trkpt>
      <trkpt lat="45.64821" lon="6.66392">
        <ele>2614</ele>
        <time>2022-07-16T12:15:08Z</time>
      </trkpt>
      <trkpt lat="45.64821" lon="6.66392">
        <ele>2614</ele>
        <time>2022-07-16T12:15:22Z</time>
      </trkpt>
      <trkpt lat="45.64821" lon="6.66392">
        <ele>2614</ele>
        <time>2022-07-16T12:15:39Z</time>
      </trkpt>
      <trkpt lat="45.64822" lon="6.6639">
        <ele>2614</ele>
        <time>2022-07-16T12:15:43Z</time>
      </trkpt>
      <trkpt lat="45.6482" lon="6.66392">
        <ele>2614</ele>
        <time>2022-07-16T12:15:47Z</time>
      </trkpt>
      <trkpt lat="45.6482" lon="6.66392">
        <ele>2614</ele>
        <time>2022-07-16T12:15:57Z</time>
      </trkpt>
      <trkpt lat="45.64822" lon="6.66393">
        <ele>2614</ele>
        <time>2022-07-16T12:16:01Z</time>
      </trkpt>
      <trkpt lat="45.6482" lon="6.66393">
        <ele>2614</ele>
        <time>2022-07-16T12:16:11Z</time>
      </trkpt>
      <trkpt lat="45.6482" lon="6.66393">
        <ele>2614</ele>
        <time>2022-07-16T12:16:16Z</time>
      </trkpt>
      <trkpt lat="45.64822" lon="6.66395">
        <ele>2614</ele>
        <time>2022-07-16T12:16:29Z</time>
      </trkpt>
      <trkpt lat="45.64824" lon="6.66397">
        <ele>2614</ele>
        <time>2022-07-16T12:16:32Z</time>
      </trkpt>
      <trkpt lat="45.64826" lon="6.66398">
        <ele>2614</ele>
        <time>2022-07-16T12:16:35Z</time>
      </trkpt>
      <trkpt lat="45.64828" lon="6.664">
        <ele>2614</ele>
        <time>2022-07-16T12:16:38Z</time>
      </trkpt>
      <trkpt lat="45.6483" lon="6.66401">
        <ele>2614</ele>
        <time>2022-07-16T12:16:41Z</time>
      </trkpt>
      <trkpt lat="45.64832" lon="6.66403">
        <ele>2614</ele>
        <time>2022-07-16T12:16:44Z</time>
      </trkpt>
      <trkpt lat="45.64834" lon="6.66405">
        <ele>2614</ele>
        <time>2022-07-16T12:16:47Z</time>
      </trkpt>
      <trkpt lat="45.64836" lon="6.66406">
        <ele>2614</ele>
        <time>2022-07-16T12:16:49Z</time>
      </trkpt>
      <trkpt lat="45.64838" lon="6.66407">
        <ele>2614</ele>
        <time>2022-07-16T12:16:51Z</time>
      </trkpt>
      <trkpt lat="45.6484" lon="6.66409">
        <ele>2614</ele>
        <time>2022-07-16T12:16:54Z</time>
      </trkpt>
      <trkpt lat="45.64842" lon="6.66411">
        <ele>2614</ele>
        <time>2022-07-16T12:16:56Z</time>
      </trkpt>
      <trkpt lat="45.64843" lon="6.66414">
        <ele>2614</ele>
        <time>2022-07-16T12:16:58Z</time>
      </trkpt>
      <trkpt lat="45.64845" lon="6.66417">
        <ele>2614</ele>
        <time>2022-07-16T12:17:01Z</time>
      </trkpt>
      <trkpt lat="45.64847" lon="6.66419">
        <ele>2614</ele>
        <time>2022-07-16T12:17:04Z</time>
      </trkpt>
      <trkpt lat="45.64848" lon="6.66419">
        <ele>2614</ele>
        <time>2022-07-16T12:17:06Z</time>
      </trkpt>
      <trkpt lat="45.64851" lon="6.66419">
        <ele>2609</ele>
        <time>2022-07-16T12:17:08Z</time>
      </trkpt>
      <trkpt lat="45.64853" lon="6.66419">
        <ele>2609</ele>
        <time>2022-07-16T12:17:10Z</time>
      </trkpt>
      <trkpt lat="45.64855" lon="6.6642">
        <ele>2609</ele>
        <time>2022-07-16T12:17:14Z</time>
      </trkpt>
      <trkpt lat="45.64857" lon="6.66421">
        <ele>2609</ele>
        <time>2022-07-16T12:17:16Z</time>
      </trkpt>
      <trkpt lat="45.64858" lon="6.66423">
        <ele>2608</ele>
        <time>2022-07-16T12:17:18Z</time>
      </trkpt>
      <trkpt lat="45.64858" lon="6.66426">
        <ele>2608</ele>
        <time>2022-07-16T12:17:20Z</time>
      </trkpt>
      <trkpt lat="45.64859" lon="6.66429">
        <ele>2608</ele>
        <time>2022-07-16T12:17:22Z</time>
      </trkpt>
      <trkpt lat="45.6486" lon="6.66432">
        <ele>2608</ele>
        <time>2022-07-16T12:17:25Z</time>
      </trkpt>
      <trkpt lat="45.64861" lon="6.66434">
        <ele>2608</ele>
        <time>2022-07-16T12:17:27Z</time>
      </trkpt>
      <trkpt lat="45.64862" lon="6.66436">
        <ele>2607</ele>
        <time>2022-07-16T12:17:29Z</time>
      </trkpt>
      <trkpt lat="45.64863" lon="6.66439">
        <ele>2607</ele>
        <time>2022-07-16T12:17:31Z</time>
      </trkpt>
      <trkpt lat="45.64863" lon="6.66443">
        <ele>2607</ele>
        <time>2022-07-16T12:17:34Z</time>
      </trkpt>
      <trkpt lat="45.64862" lon="6.66445">
        <ele>2607</ele>
        <time>2022-07-16T12:17:38Z</time>
      </trkpt>
      <trkpt lat="45.64862" lon="6.66445">
        <ele>2605</ele>
        <time>2022-07-16T12:17:48Z</time>
      </trkpt>
      <trkpt lat="45.64862" lon="6.66445">
        <ele>2605</ele>
        <time>2022-07-16T12:18:05Z</time>
      </trkpt>
      <trkpt lat="45.64862" lon="6.66449">
        <ele>2605</ele>
        <time>2022-07-16T12:18:14Z</time>
      </trkpt>
      <trkpt lat="45.64863" lon="6.66452">
        <ele>2605</ele>
        <time>2022-07-16T12:18:16Z</time>
      </trkpt>
      <trkpt lat="45.64864" lon="6.66455">
        <ele>2605</ele>
        <time>2022-07-16T12:18:18Z</time>
      </trkpt>
      <trkpt lat="45.64864" lon="6.66458">
        <ele>2607</ele>
        <time>2022-07-16T12:18:21Z</time>
      </trkpt>
      <trkpt lat="45.64865" lon="6.66461">
        <ele>2607</ele>
        <time>2022-07-16T12:18:26Z</time>
      </trkpt>
      <trkpt lat="45.64866" lon="6.66465">
        <ele>2607</ele>
        <time>2022-07-16T12:18:29Z</time>
      </trkpt>
      <trkpt lat="45.64866" lon="6.66468">
        <ele>2608</ele>
        <time>2022-07-16T12:18:32Z</time>
      </trkpt>
      <trkpt lat="45.64867" lon="6.6647">
        <ele>2609</ele>
        <time>2022-07-16T12:18:35Z</time>
      </trkpt>
      <trkpt lat="45.64868" lon="6.66473">
        <ele>2609</ele>
        <time>2022-07-16T12:18:37Z</time>
      </trkpt>
      <trkpt lat="45.64869" lon="6.66475">
        <ele>2609</ele>
        <time>2022-07-16T12:18:39Z</time>
      </trkpt>
      <trkpt lat="45.64871" lon="6.66477">
        <ele>2609</ele>
        <time>2022-07-16T12:18:41Z</time>
      </trkpt>
      <trkpt lat="45.64872" lon="6.6648">
        <ele>2609</ele>
        <time>2022-07-16T12:18:43Z</time>
      </trkpt>
      <trkpt lat="45.64873" lon="6.66483">
        <ele>2609</ele>
        <time>2022-07-16T12:18:45Z</time>
      </trkpt>
      <trkpt lat="45.64875" lon="6.66485">
        <ele>2609</ele>
        <time>2022-07-16T12:18:47Z</time>
      </trkpt>
      <trkpt lat="45.64876" lon="6.66488">
        <ele>2609</ele>
        <time>2022-07-16T12:18:49Z</time>
      </trkpt>
      <trkpt lat="45.64877" lon="6.66491">
        <ele>2609</ele>
        <time>2022-07-16T12:18:51Z</time>
      </trkpt>
      <trkpt lat="45.64877" lon="6.66495">
        <ele>2609</ele>
        <time>2022-07-16T12:18:53Z</time>
      </trkpt>
      <trkpt lat="45.64876" lon="6.66498">
        <ele>2609</ele>
        <time>2022-07-16T12:18:55Z</time>
      </trkpt>
      <trkpt lat="45.64877" lon="6.66501">
        <ele>2609</ele>
        <time>2022-07-16T12:18:57Z</time>
      </trkpt>
      <trkpt lat="45.64877" lon="6.66504">
        <ele>2609</ele>
        <time>2022-07-16T12:19:00Z</time>
      </trkpt>
      <trkpt lat="45.64878" lon="6.66507">
        <ele>2609</ele>
        <time>2022-07-16T12:19:03Z</time>
      </trkpt>
      <trkpt lat="45.64878" lon="6.66511">
        <ele>2609</ele>
        <time>2022-07-16T12:19:06Z</time>
      </trkpt>
      <trkpt lat="45.64877" lon="6.66513">
        <ele>2610</ele>
        <time>2022-07-16T12:19:08Z</time>
      </trkpt>
      <trkpt lat="45.64876" lon="6.66517">
        <ele>2610</ele>
        <time>2022-07-16T12:19:11Z</time>
      </trkpt>
      <trkpt lat="45.64876" lon="6.6652">
        <ele>2610</ele>
        <time>2022-07-16T12:19:14Z</time>
      </trkpt>
      <trkpt lat="45.64877" lon="6.66523">
        <ele>2610</ele>
        <time>2022-07-16T12:19:17Z</time>
      </trkpt>
      <trkpt lat="45.64878" lon="6.66525">
        <ele>2610</ele>
        <time>2022-07-16T12:19:19Z</time>
      </trkpt>
      <trkpt lat="45.6488" lon="6.66527">
        <ele>2611</ele>
        <time>2022-07-16T12:19:23Z</time>
      </trkpt>
      <trkpt lat="45.64882" lon="6.66529">
        <ele>2612</ele>
        <time>2022-07-16T12:19:26Z</time>
      </trkpt>
      <trkpt lat="45.64884" lon="6.6653">
        <ele>2612</ele>
        <time>2022-07-16T12:19:28Z</time>
      </trkpt>
      <trkpt lat="45.64886" lon="6.66532">
        <ele>2612</ele>
        <time>2022-07-16T12:19:31Z</time>
      </trkpt>
      <trkpt lat="45.64887" lon="6.66534">
        <ele>2613</ele>
        <time>2022-07-16T12:19:34Z</time>
      </trkpt>
      <trkpt lat="45.64889" lon="6.66537">
        <ele>2614</ele>
        <time>2022-07-16T12:19:37Z</time>
      </trkpt>
      <trkpt lat="45.6489" lon="6.66538">
        <ele>2614</ele>
        <time>2022-07-16T12:19:40Z</time>
      </trkpt>
      <trkpt lat="45.64891" lon="6.66541">
        <ele>2615</ele>
        <time>2022-07-16T12:19:44Z</time>
      </trkpt>
      <trkpt lat="45.64892" lon="6.66542">
        <ele>2615</ele>
        <time>2022-07-16T12:19:47Z</time>
      </trkpt>
      <trkpt lat="45.64894" lon="6.66545">
        <ele>2616</ele>
        <time>2022-07-16T12:19:50Z</time>
      </trkpt>
      <trkpt lat="45.64896" lon="6.66548">
        <ele>2616</ele>
        <time>2022-07-16T12:19:53Z</time>
      </trkpt>
      <trkpt lat="45.64898" lon="6.66551">
        <ele>2616</ele>
        <time>2022-07-16T12:19:56Z</time>
      </trkpt>
      <trkpt lat="45.649" lon="6.66554">
        <ele>2616</ele>
        <time>2022-07-16T12:19:59Z</time>
      </trkpt>
      <trkpt lat="45.64901" lon="6.66555">
        <ele>2617</ele>
        <time>2022-07-16T12:20:01Z</time>
      </trkpt>
      <trkpt lat="45.64903" lon="6.66558">
        <ele>2617</ele>
        <time>2022-07-16T12:20:03Z</time>
      </trkpt>
      <trkpt lat="45.64903" lon="6.66561">
        <ele>2617</ele>
        <time>2022-07-16T12:20:05Z</time>
      </trkpt>
      <trkpt lat="45.64905" lon="6.66563">
        <ele>2619</ele>
        <time>2022-07-16T12:20:07Z</time>
      </trkpt>
      <trkpt lat="45.64906" lon="6.66566">
        <ele>2620</ele>
        <time>2022-07-16T12:20:10Z</time>
      </trkpt>
      <trkpt lat="45.64908" lon="6.66568">
        <ele>2619</ele>
        <time>2022-07-16T12:20:12Z</time>
      </trkpt>
      <trkpt lat="45.6491" lon="6.6657">
        <ele>2620</ele>
        <time>2022-07-16T12:20:15Z</time>
      </trkpt>
      <trkpt lat="45.64912" lon="6.66571">
        <ele>2621</ele>
        <time>2022-07-16T12:20:18Z</time>
      </trkpt>
      <trkpt lat="45.64914" lon="6.66573">
        <ele>2622</ele>
        <time>2022-07-16T12:20:21Z</time>
      </trkpt>
      <trkpt lat="45.64915" lon="6.66576">
        <ele>2622</ele>
        <time>2022-07-16T12:20:24Z</time>
      </trkpt>
      <trkpt lat="45.64916" lon="6.66578">
        <ele>2622</ele>
        <time>2022-07-16T12:20:26Z</time>
      </trkpt>
      <trkpt lat="45.64917" lon="6.66581">
        <ele>2623</ele>
        <time>2022-07-16T12:20:29Z</time>
      </trkpt>
      <trkpt lat="45.64919" lon="6.66582">
        <ele>2623</ele>
        <time>2022-07-16T12:20:31Z</time>
      </trkpt>
      <trkpt lat="45.64921" lon="6.66584">
        <ele>2624</ele>
        <time>2022-07-16T12:20:33Z</time>
      </trkpt>
      <trkpt lat="45.64922" lon="6.66586">
        <ele>2624</ele>
        <time>2022-07-16T12:20:35Z</time>
      </trkpt>
      <trkpt lat="45.64924" lon="6.66589">
        <ele>2624</ele>
        <time>2022-07-16T12:20:37Z</time>
      </trkpt>
      <trkpt lat="45.64925" lon="6.66591">
        <ele>2624</ele>
        <time>2022-07-16T12:20:39Z</time>
      </trkpt>
      <trkpt lat="45.64927" lon="6.66593">
        <ele>2623</ele>
        <time>2022-07-16T12:20:42Z</time>
      </trkpt>
      <trkpt lat="45.64929" lon="6.66595">
        <ele>2623</ele>
        <time>2022-07-16T12:20:44Z</time>
      </trkpt>
      <trkpt lat="45.6493" lon="6.66598">
        <ele>2623</ele>
        <time>2022-07-16T12:20:46Z</time>
      </trkpt>
      <trkpt lat="45.64931" lon="6.666">
        <ele>2623</ele>
        <time>2022-07-16T12:20:48Z</time>
      </trkpt>
      <trkpt lat="45.64933" lon="6.66603">
        <ele>2623</ele>
        <time>2022-07-16T12:20:51Z</time>
      </trkpt>
      <trkpt lat="45.64936" lon="6.66605">
        <ele>2623</ele>
        <time>2022-07-16T12:20:53Z</time>
      </trkpt>
      <trkpt lat="45.64938" lon="6.66606">
        <ele>2623</ele>
        <time>2022-07-16T12:20:56Z</time>
      </trkpt>
      <trkpt lat="45.6494" lon="6.66607">
        <ele>2623</ele>
        <time>2022-07-16T12:20:58Z</time>
      </trkpt>
      <trkpt lat="45.64942" lon="6.66608">
        <ele>2623</ele>
        <time>2022-07-16T12:21:00Z</time>
      </trkpt>
      <trkpt lat="45.64944" lon="6.6661">
        <ele>2623</ele>
        <time>2022-07-16T12:21:02Z</time>
      </trkpt>
      <trkpt lat="45.64945" lon="6.66612">
        <ele>2623</ele>
        <time>2022-07-16T12:21:04Z</time>
      </trkpt>
      <trkpt lat="45.64947" lon="6.66614">
        <ele>2623</ele>
        <time>2022-07-16T12:21:06Z</time>
      </trkpt>
      <trkpt lat="45.64948" lon="6.66616">
        <ele>2623</ele>
        <time>2022-07-16T12:21:08Z</time>
      </trkpt>
      <trkpt lat="45.64949" lon="6.66619">
        <ele>2623</ele>
        <time>2022-07-16T12:21:10Z</time>
      </trkpt>
      <trkpt lat="45.6495" lon="6.66621">
        <ele>2623</ele>
        <time>2022-07-16T12:21:12Z</time>
      </trkpt>
      <trkpt lat="45.64952" lon="6.66623">
        <ele>2623</ele>
        <time>2022-07-16T12:21:13Z</time>
      </trkpt>
      <trkpt lat="45.64953" lon="6.66626">
        <ele>2623</ele>
        <time>2022-07-16T12:21:16Z</time>
      </trkpt>
      <trkpt lat="45.64955" lon="6.66628">
        <ele>2623</ele>
        <time>2022-07-16T12:21:18Z</time>
      </trkpt>
      <trkpt lat="45.64956" lon="6.6663">
        <ele>2623</ele>
        <time>2022-07-16T12:21:20Z</time>
      </trkpt>
      <trkpt lat="45.64957" lon="6.66632">
        <ele>2623</ele>
        <time>2022-07-16T12:21:22Z</time>
      </trkpt>
      <trkpt lat="45.64959" lon="6.66633">
        <ele>2623</ele>
        <time>2022-07-16T12:21:24Z</time>
      </trkpt>
      <trkpt lat="45.64961" lon="6.66635">
        <ele>2623</ele>
        <time>2022-07-16T12:21:27Z</time>
      </trkpt>
      <trkpt lat="45.64963" lon="6.66636">
        <ele>2624</ele>
        <time>2022-07-16T12:21:29Z</time>
      </trkpt>
      <trkpt lat="45.64966" lon="6.66638">
        <ele>2625</ele>
        <time>2022-07-16T12:21:32Z</time>
      </trkpt>
      <trkpt lat="45.64967" lon="6.66639">
        <ele>2625</ele>
        <time>2022-07-16T12:21:34Z</time>
      </trkpt>
      <trkpt lat="45.6497" lon="6.6664">
        <ele>2626</ele>
        <time>2022-07-16T12:21:37Z</time>
      </trkpt>
      <trkpt lat="45.64972" lon="6.66639">
        <ele>2626</ele>
        <time>2022-07-16T12:21:39Z</time>
      </trkpt>
      <trkpt lat="45.64975" lon="6.6664">
        <ele>2626</ele>
        <time>2022-07-16T12:21:42Z</time>
      </trkpt>
      <trkpt lat="45.64976" lon="6.66639">
        <ele>2627</ele>
        <time>2022-07-16T12:21:44Z</time>
      </trkpt>
      <trkpt lat="45.64978" lon="6.66639">
        <ele>2627</ele>
        <time>2022-07-16T12:21:46Z</time>
      </trkpt>
      <trkpt lat="45.6498" lon="6.6664">
        <ele>2627</ele>
        <time>2022-07-16T12:21:49Z</time>
      </trkpt>
      <trkpt lat="45.64983" lon="6.6664">
        <ele>2628</ele>
        <time>2022-07-16T12:21:53Z</time>
      </trkpt>
      <trkpt lat="45.64985" lon="6.66639">
        <ele>2628</ele>
        <time>2022-07-16T12:21:56Z</time>
      </trkpt>
      <trkpt lat="45.64987" lon="6.66638">
        <ele>2628</ele>
        <time>2022-07-16T12:21:58Z</time>
      </trkpt>
      <trkpt lat="45.6499" lon="6.66639">
        <ele>2629</ele>
        <time>2022-07-16T12:22:01Z</time>
      </trkpt>
      <trkpt lat="45.64992" lon="6.66639">
        <ele>2629</ele>
        <time>2022-07-16T12:22:04Z</time>
      </trkpt>
      <trkpt lat="45.64995" lon="6.66641">
        <ele>2629</ele>
        <time>2022-07-16T12:22:07Z</time>
      </trkpt>
      <trkpt lat="45.64996" lon="6.66642">
        <ele>2631</ele>
        <time>2022-07-16T12:22:09Z</time>
      </trkpt>
      <trkpt lat="45.64999" lon="6.66642">
        <ele>2631</ele>
        <time>2022-07-16T12:22:10Z</time>
      </trkpt>
      <trkpt lat="45.65" lon="6.66643">
        <ele>2632</ele>
        <time>2022-07-16T12:22:13Z</time>
      </trkpt>
      <trkpt lat="45.65003" lon="6.66645">
        <ele>2632</ele>
        <time>2022-07-16T12:22:16Z</time>
      </trkpt>
      <trkpt lat="45.65005" lon="6.66645">
        <ele>2632</ele>
        <time>2022-07-16T12:22:19Z</time>
      </trkpt>
      <trkpt lat="45.65007" lon="6.66645">
        <ele>2633</ele>
        <time>2022-07-16T12:22:22Z</time>
      </trkpt>
      <trkpt lat="45.65009" lon="6.66644">
        <ele>2633</ele>
        <time>2022-07-16T12:22:25Z</time>
      </trkpt>
      <trkpt lat="45.65011" lon="6.66643">
        <ele>2633</ele>
        <time>2022-07-16T12:22:27Z</time>
      </trkpt>
      <trkpt lat="45.65013" lon="6.66642">
        <ele>2633</ele>
        <time>2022-07-16T12:22:30Z</time>
      </trkpt>
      <trkpt lat="45.65015" lon="6.66641">
        <ele>2634</ele>
        <time>2022-07-16T12:22:33Z</time>
      </trkpt>
      <trkpt lat="45.65018" lon="6.66639">
        <ele>2634</ele>
        <time>2022-07-16T12:22:36Z</time>
      </trkpt>
      <trkpt lat="45.6502" lon="6.66638">
        <ele>2634</ele>
        <time>2022-07-16T12:22:39Z</time>
      </trkpt>
      <trkpt lat="45.65022" lon="6.66636">
        <ele>2635</ele>
        <time>2022-07-16T12:22:42Z</time>
      </trkpt>
      <trkpt lat="45.65025" lon="6.66635">
        <ele>2635</ele>
        <time>2022-07-16T12:22:45Z</time>
      </trkpt>
      <trkpt lat="45.65027" lon="6.66635">
        <ele>2636</ele>
        <time>2022-07-16T12:22:48Z</time>
      </trkpt>
      <trkpt lat="45.65029" lon="6.66634">
        <ele>2635</ele>
        <time>2022-07-16T12:22:51Z</time>
      </trkpt>
      <trkpt lat="45.65031" lon="6.66632">
        <ele>2636</ele>
        <time>2022-07-16T12:22:53Z</time>
      </trkpt>
      <trkpt lat="45.65033" lon="6.6663">
        <ele>2637</ele>
        <time>2022-07-16T12:22:56Z</time>
      </trkpt>
      <trkpt lat="45.65035" lon="6.66629">
        <ele>2637</ele>
        <time>2022-07-16T12:22:59Z</time>
      </trkpt>
      <trkpt lat="45.65037" lon="6.66628">
        <ele>2637</ele>
        <time>2022-07-16T12:23:02Z</time>
      </trkpt>
      <trkpt lat="45.65039" lon="6.66627">
        <ele>2638</ele>
        <time>2022-07-16T12:23:10Z</time>
      </trkpt>
      <trkpt lat="45.65041" lon="6.66626">
        <ele>2638</ele>
        <time>2022-07-16T12:23:13Z</time>
      </trkpt>
      <trkpt lat="45.65043" lon="6.66625">
        <ele>2639</ele>
        <time>2022-07-16T12:23:16Z</time>
      </trkpt>
      <trkpt lat="45.65045" lon="6.66624">
        <ele>2639</ele>
        <time>2022-07-16T12:23:19Z</time>
      </trkpt>
      <trkpt lat="45.65047" lon="6.66623">
        <ele>2640</ele>
        <time>2022-07-16T12:23:22Z</time>
      </trkpt>
      <trkpt lat="45.65049" lon="6.6662">
        <ele>2640</ele>
        <time>2022-07-16T12:23:26Z</time>
      </trkpt>
      <trkpt lat="45.6505" lon="6.66617">
        <ele>2641</ele>
        <time>2022-07-16T12:23:29Z</time>
      </trkpt>
      <trkpt lat="45.65051" lon="6.66615">
        <ele>2642</ele>
        <time>2022-07-16T12:23:32Z</time>
      </trkpt>
      <trkpt lat="45.65053" lon="6.66614">
        <ele>2644</ele>
        <time>2022-07-16T12:23:35Z</time>
      </trkpt>
      <trkpt lat="45.65055" lon="6.66613">
        <ele>2645</ele>
        <time>2022-07-16T12:23:42Z</time>
      </trkpt>
      <trkpt lat="45.65057" lon="6.66613">
        <ele>2645</ele>
        <time>2022-07-16T12:23:45Z</time>
      </trkpt>
      <trkpt lat="45.65059" lon="6.66612">
        <ele>2645</ele>
        <time>2022-07-16T12:23:48Z</time>
      </trkpt>
      <trkpt lat="45.65061" lon="6.66611">
        <ele>2646</ele>
        <time>2022-07-16T12:23:51Z</time>
      </trkpt>
      <trkpt lat="45.65063" lon="6.66612">
        <ele>2646</ele>
        <time>2022-07-16T12:23:54Z</time>
      </trkpt>
      <trkpt lat="45.65065" lon="6.66611">
        <ele>2647</ele>
        <time>2022-07-16T12:23:57Z</time>
      </trkpt>
      <trkpt lat="45.65067" lon="6.66611">
        <ele>2648</ele>
        <time>2022-07-16T12:24:02Z</time>
      </trkpt>
      <trkpt lat="45.6507" lon="6.6661">
        <ele>2648</ele>
        <time>2022-07-16T12:24:04Z</time>
      </trkpt>
      <trkpt lat="45.65072" lon="6.6661">
        <ele>2649</ele>
        <time>2022-07-16T12:24:08Z</time>
      </trkpt>
      <trkpt lat="45.65074" lon="6.6661">
        <ele>2649</ele>
        <time>2022-07-16T12:24:11Z</time>
      </trkpt>
      <trkpt lat="45.65076" lon="6.66611">
        <ele>2650</ele>
        <time>2022-07-16T12:24:14Z</time>
      </trkpt>
      <trkpt lat="45.65078" lon="6.66612">
        <ele>2649</ele>
        <time>2022-07-16T12:24:17Z</time>
      </trkpt>
      <trkpt lat="45.6508" lon="6.66612">
        <ele>2649</ele>
        <time>2022-07-16T12:24:20Z</time>
      </trkpt>
      <trkpt lat="45.65082" lon="6.66614">
        <ele>2650</ele>
        <time>2022-07-16T12:24:23Z</time>
      </trkpt>
      <trkpt lat="45.65083" lon="6.66616">
        <ele>2651</ele>
        <time>2022-07-16T12:24:25Z</time>
      </trkpt>
      <trkpt lat="45.65085" lon="6.66618">
        <ele>2651</ele>
        <time>2022-07-16T12:24:28Z</time>
      </trkpt>
      <trkpt lat="45.65087" lon="6.66619">
        <ele>2651</ele>
        <time>2022-07-16T12:24:31Z</time>
      </trkpt>
      <trkpt lat="45.65089" lon="6.66621">
        <ele>2651</ele>
        <time>2022-07-16T12:24:34Z</time>
      </trkpt>
      <trkpt lat="45.6509" lon="6.66623">
        <ele>2652</ele>
        <time>2022-07-16T12:24:37Z</time>
      </trkpt>
      <trkpt lat="45.65092" lon="6.66624">
        <ele>2653</ele>
        <time>2022-07-16T12:24:42Z</time>
      </trkpt>
      <trkpt lat="45.65093" lon="6.66627">
        <ele>2653</ele>
        <time>2022-07-16T12:24:45Z</time>
      </trkpt>
      <trkpt lat="45.65094" lon="6.66629">
        <ele>2654</ele>
        <time>2022-07-16T12:24:49Z</time>
      </trkpt>
      <trkpt lat="45.65096" lon="6.66632">
        <ele>2654</ele>
        <time>2022-07-16T12:24:53Z</time>
      </trkpt>
      <trkpt lat="45.65097" lon="6.66634">
        <ele>2656</ele>
        <time>2022-07-16T12:24:56Z</time>
      </trkpt>
      <trkpt lat="45.651" lon="6.66635">
        <ele>2656</ele>
        <time>2022-07-16T12:25:00Z</time>
      </trkpt>
      <trkpt lat="45.65102" lon="6.66636">
        <ele>2656</ele>
        <time>2022-07-16T12:25:03Z</time>
      </trkpt>
      <trkpt lat="45.65103" lon="6.66638">
        <ele>2657</ele>
        <time>2022-07-16T12:25:07Z</time>
      </trkpt>
      <trkpt lat="45.65104" lon="6.66641">
        <ele>2658</ele>
        <time>2022-07-16T12:25:11Z</time>
      </trkpt>
      <trkpt lat="45.65105" lon="6.66644">
        <ele>2659</ele>
        <time>2022-07-16T12:25:15Z</time>
      </trkpt>
      <trkpt lat="45.65106" lon="6.66647">
        <ele>2659</ele>
        <time>2022-07-16T12:25:19Z</time>
      </trkpt>
      <trkpt lat="45.65106" lon="6.66647">
        <ele>2660</ele>
        <time>2022-07-16T12:25:27Z</time>
      </trkpt>
      <trkpt lat="45.65106" lon="6.66647">
        <ele>2659</ele>
        <time>2022-07-16T12:25:43Z</time>
      </trkpt>
      <trkpt lat="45.65106" lon="6.66647">
        <ele>2659</ele>
        <time>2022-07-16T12:25:59Z</time>
      </trkpt>
      <trkpt lat="45.65106" lon="6.66647">
        <ele>2659</ele>
        <time>2022-07-16T12:26:15Z</time>
      </trkpt>
      <trkpt lat="45.65106" lon="6.66647">
        <ele>2659</ele>
        <time>2022-07-16T12:26:31Z</time>
      </trkpt>
      <trkpt lat="45.65108" lon="6.66646">
        <ele>2659</ele>
        <time>2022-07-16T12:26:39Z</time>
      </trkpt>
      <trkpt lat="45.6511" lon="6.66644">
        <ele>2660</ele>
        <time>2022-07-16T12:26:43Z</time>
      </trkpt>
      <trkpt lat="45.65112" lon="6.66644">
        <ele>2661</ele>
        <time>2022-07-16T12:26:48Z</time>
      </trkpt>
      <trkpt lat="45.65114" lon="6.66642">
        <ele>2662</ele>
        <time>2022-07-16T12:26:51Z</time>
      </trkpt>
      <trkpt lat="45.65115" lon="6.66641">
        <ele>2662</ele>
        <time>2022-07-16T12:26:53Z</time>
      </trkpt>
      <trkpt lat="45.65117" lon="6.6664">
        <ele>2662</ele>
        <time>2022-07-16T12:26:55Z</time>
      </trkpt>
      <trkpt lat="45.65119" lon="6.66638">
        <ele>2662</ele>
        <time>2022-07-16T12:26:57Z</time>
      </trkpt>
      <trkpt lat="45.6512" lon="6.66635">
        <ele>2662</ele>
        <time>2022-07-16T12:26:59Z</time>
      </trkpt>
      <trkpt lat="45.65121" lon="6.66634">
        <ele>2662</ele>
        <time>2022-07-16T12:27:01Z</time>
      </trkpt>
      <trkpt lat="45.65123" lon="6.66633">
        <ele>2663</ele>
        <time>2022-07-16T12:27:03Z</time>
      </trkpt>
      <trkpt lat="45.65125" lon="6.66632">
        <ele>2663</ele>
        <time>2022-07-16T12:27:05Z</time>
      </trkpt>
      <trkpt lat="45.65128" lon="6.66633">
        <ele>2663</ele>
        <time>2022-07-16T12:27:07Z</time>
      </trkpt>
      <trkpt lat="45.65129" lon="6.66634">
        <ele>2664</ele>
        <time>2022-07-16T12:27:09Z</time>
      </trkpt>
      <trkpt lat="45.65131" lon="6.66636">
        <ele>2664</ele>
        <time>2022-07-16T12:27:12Z</time>
      </trkpt>
      <trkpt lat="45.65132" lon="6.66638">
        <ele>2664</ele>
        <time>2022-07-16T12:27:14Z</time>
      </trkpt>
      <trkpt lat="45.65134" lon="6.66639">
        <ele>2665</ele>
        <time>2022-07-16T12:27:16Z</time>
      </trkpt>
      <trkpt lat="45.65136" lon="6.66639">
        <ele>2665</ele>
        <time>2022-07-16T12:27:18Z</time>
      </trkpt>
      <trkpt lat="45.65138" lon="6.66638">
        <ele>2665</ele>
        <time>2022-07-16T12:27:21Z</time>
      </trkpt>
      <trkpt lat="45.6514" lon="6.66637">
        <ele>2666</ele>
        <time>2022-07-16T12:27:23Z</time>
      </trkpt>
      <trkpt lat="45.65143" lon="6.66637">
        <ele>2666</ele>
        <time>2022-07-16T12:27:26Z</time>
      </trkpt>
      <trkpt lat="45.65145" lon="6.66637">
        <ele>2668</ele>
        <time>2022-07-16T12:27:29Z</time>
      </trkpt>
      <trkpt lat="45.65147" lon="6.66638">
        <ele>2668</ele>
        <time>2022-07-16T12:27:32Z</time>
      </trkpt>
      <trkpt lat="45.65148" lon="6.66639">
        <ele>2669</ele>
        <time>2022-07-16T12:27:35Z</time>
      </trkpt>
      <trkpt lat="45.65151" lon="6.6664">
        <ele>2669</ele>
        <time>2022-07-16T12:27:38Z</time>
      </trkpt>
      <trkpt lat="45.65153" lon="6.6664">
        <ele>2669</ele>
        <time>2022-07-16T12:27:40Z</time>
      </trkpt>
      <trkpt lat="45.65155" lon="6.66641">
        <ele>2670</ele>
        <time>2022-07-16T12:27:43Z</time>
      </trkpt>
      <trkpt lat="45.65157" lon="6.6664">
        <ele>2671</ele>
        <time>2022-07-16T12:27:47Z</time>
      </trkpt>
      <trkpt lat="45.65159" lon="6.66638">
        <ele>2670</ele>
        <time>2022-07-16T12:27:49Z</time>
      </trkpt>
      <trkpt lat="45.6516" lon="6.66637">
        <ele>2671</ele>
        <time>2022-07-16T12:27:51Z</time>
      </trkpt>
      <trkpt lat="45.65162" lon="6.66637">
        <ele>2671</ele>
        <time>2022-07-16T12:27:54Z</time>
      </trkpt>
      <trkpt lat="45.65164" lon="6.66636">
        <ele>2671</ele>
        <time>2022-07-16T12:27:56Z</time>
      </trkpt>
      <trkpt lat="45.65166" lon="6.66636">
        <ele>2671</ele>
        <time>2022-07-16T12:27:58Z</time>
      </trkpt>
      <trkpt lat="45.65168" lon="6.66636">
        <ele>2672</ele>
        <time>2022-07-16T12:28:01Z</time>
      </trkpt>
      <trkpt lat="45.6517" lon="6.66636">
        <ele>2673</ele>
        <time>2022-07-16T12:28:06Z</time>
      </trkpt>
      <trkpt lat="45.65172" lon="6.66637">
        <ele>2674</ele>
        <time>2022-07-16T12:28:09Z</time>
      </trkpt>
      <trkpt lat="45.65174" lon="6.66636">
        <ele>2674</ele>
        <time>2022-07-16T12:28:11Z</time>
      </trkpt>
      <trkpt lat="45.65176" lon="6.66635">
        <ele>2674</ele>
        <time>2022-07-16T12:28:15Z</time>
      </trkpt>
      <trkpt lat="45.65177" lon="6.66638">
        <ele>2675</ele>
        <time>2022-07-16T12:28:18Z</time>
      </trkpt>
      <trkpt lat="45.65178" lon="6.66639">
        <ele>2675</ele>
        <time>2022-07-16T12:28:24Z</time>
      </trkpt>
      <trkpt lat="45.6518" lon="6.6664">
        <ele>2675</ele>
        <time>2022-07-16T12:28:26Z</time>
      </trkpt>
      <trkpt lat="45.65182" lon="6.66639">
        <ele>2676</ele>
        <time>2022-07-16T12:28:29Z</time>
      </trkpt>
      <trkpt lat="45.65184" lon="6.66638">
        <ele>2676</ele>
        <time>2022-07-16T12:28:31Z</time>
      </trkpt>
      <trkpt lat="45.65186" lon="6.66639">
        <ele>2677</ele>
        <time>2022-07-16T12:28:34Z</time>
      </trkpt>
      <trkpt lat="45.65186" lon="6.66642">
        <ele>2677</ele>
        <time>2022-07-16T12:28:37Z</time>
      </trkpt>
      <trkpt lat="45.65187" lon="6.66645">
        <ele>2677</ele>
        <time>2022-07-16T12:28:41Z</time>
      </trkpt>
      <trkpt lat="45.6519" lon="6.66645">
        <ele>2678</ele>
        <time>2022-07-16T12:28:46Z</time>
      </trkpt>
      <trkpt lat="45.65192" lon="6.66647">
        <ele>2680</ele>
        <time>2022-07-16T12:28:49Z</time>
      </trkpt>
      <trkpt lat="45.65193" lon="6.66649">
        <ele>2680</ele>
        <time>2022-07-16T12:28:51Z</time>
      </trkpt>
      <trkpt lat="45.65196" lon="6.66651">
        <ele>2681</ele>
        <time>2022-07-16T12:28:54Z</time>
      </trkpt>
      <trkpt lat="45.65198" lon="6.66652">
        <ele>2681</ele>
        <time>2022-07-16T12:28:57Z</time>
      </trkpt>
      <trkpt lat="45.652" lon="6.66652">
        <ele>2682</ele>
        <time>2022-07-16T12:28:59Z</time>
      </trkpt>
      <trkpt lat="45.65202" lon="6.66653">
        <ele>2683</ele>
        <time>2022-07-16T12:29:02Z</time>
      </trkpt>
      <trkpt lat="45.65203" lon="6.66655">
        <ele>2683</ele>
        <time>2022-07-16T12:29:05Z</time>
      </trkpt>
      <trkpt lat="45.65205" lon="6.66656">
        <ele>2683</ele>
        <time>2022-07-16T12:29:10Z</time>
      </trkpt>
      <trkpt lat="45.65207" lon="6.66656">
        <ele>2683</ele>
        <time>2022-07-16T12:29:13Z</time>
      </trkpt>
      <trkpt lat="45.6521" lon="6.66657">
        <ele>2684</ele>
        <time>2022-07-16T12:29:17Z</time>
      </trkpt>
      <trkpt lat="45.65212" lon="6.66658">
        <ele>2685</ele>
        <time>2022-07-16T12:29:22Z</time>
      </trkpt>
      <trkpt lat="45.65214" lon="6.66657">
        <ele>2685</ele>
        <time>2022-07-16T12:29:25Z</time>
      </trkpt>
      <trkpt lat="45.65216" lon="6.66657">
        <ele>2685</ele>
        <time>2022-07-16T12:29:28Z</time>
      </trkpt>
      <trkpt lat="45.65219" lon="6.66656">
        <ele>2686</ele>
        <time>2022-07-16T12:29:31Z</time>
      </trkpt>
      <trkpt lat="45.65221" lon="6.66655">
        <ele>2687</ele>
        <time>2022-07-16T12:29:33Z</time>
      </trkpt>
      <trkpt lat="45.65223" lon="6.66656">
        <ele>2687</ele>
        <time>2022-07-16T12:29:36Z</time>
      </trkpt>
      <trkpt lat="45.65225" lon="6.66656">
        <ele>2687</ele>
        <time>2022-07-16T12:29:40Z</time>
      </trkpt>
      <trkpt lat="45.65227" lon="6.66656">
        <ele>2687</ele>
        <time>2022-07-16T12:29:43Z</time>
      </trkpt>
      <trkpt lat="45.65229" lon="6.66656">
        <ele>2688</ele>
        <time>2022-07-16T12:29:47Z</time>
      </trkpt>
      <trkpt lat="45.65231" lon="6.66655">
        <ele>2688</ele>
        <time>2022-07-16T12:29:51Z</time>
      </trkpt>
      <trkpt lat="45.65233" lon="6.66654">
        <ele>2689</ele>
        <time>2022-07-16T12:29:54Z</time>
      </trkpt>
      <trkpt lat="45.65235" lon="6.66655">
        <ele>2689</ele>
        <time>2022-07-16T12:29:58Z</time>
      </trkpt>
      <trkpt lat="45.65237" lon="6.66655">
        <ele>2692</ele>
        <time>2022-07-16T12:30:02Z</time>
      </trkpt>
      <trkpt lat="45.65239" lon="6.66654">
        <ele>2692</ele>
        <time>2022-07-16T12:30:09Z</time>
      </trkpt>
      <trkpt lat="45.65241" lon="6.66653">
        <ele>2692</ele>
        <time>2022-07-16T12:30:12Z</time>
      </trkpt>
      <trkpt lat="45.65244" lon="6.66653">
        <ele>2692</ele>
        <time>2022-07-16T12:30:15Z</time>
      </trkpt>
      <trkpt lat="45.65246" lon="6.66653">
        <ele>2692</ele>
        <time>2022-07-16T12:30:17Z</time>
      </trkpt>
      <trkpt lat="45.65247" lon="6.66653">
        <ele>2692</ele>
        <time>2022-07-16T12:30:19Z</time>
      </trkpt>
      <trkpt lat="45.6525" lon="6.66651">
        <ele>2692</ele>
        <time>2022-07-16T12:30:22Z</time>
      </trkpt>
      <trkpt lat="45.65252" lon="6.66651">
        <ele>2692</ele>
        <time>2022-07-16T12:30:24Z</time>
      </trkpt>
      <trkpt lat="45.65254" lon="6.66651">
        <ele>2692</ele>
        <time>2022-07-16T12:30:28Z</time>
      </trkpt>
      <trkpt lat="45.65256" lon="6.66651">
        <ele>2692</ele>
        <time>2022-07-16T12:30:31Z</time>
      </trkpt>
      <trkpt lat="45.65258" lon="6.66651">
        <ele>2692</ele>
        <time>2022-07-16T12:30:34Z</time>
      </trkpt>
      <trkpt lat="45.65261" lon="6.66651">
        <ele>2692</ele>
        <time>2022-07-16T12:30:38Z</time>
      </trkpt>
      <trkpt lat="45.65262" lon="6.66651">
        <ele>2692</ele>
        <time>2022-07-16T12:30:40Z</time>
      </trkpt>
      <trkpt lat="45.65265" lon="6.6665">
        <ele>2692</ele>
        <time>2022-07-16T12:30:43Z</time>
      </trkpt>
      <trkpt lat="45.65267" lon="6.6665">
        <ele>2692</ele>
        <time>2022-07-16T12:30:46Z</time>
      </trkpt>
      <trkpt lat="45.65269" lon="6.6665">
        <ele>2690</ele>
        <time>2022-07-16T12:30:49Z</time>
      </trkpt>
      <trkpt lat="45.65271" lon="6.6665">
        <ele>2692</ele>
        <time>2022-07-16T12:30:53Z</time>
      </trkpt>
      <trkpt lat="45.65273" lon="6.6665">
        <ele>2690</ele>
        <time>2022-07-16T12:30:57Z</time>
      </trkpt>
      <trkpt lat="45.65276" lon="6.6665">
        <ele>2692</ele>
        <time>2022-07-16T12:31:01Z</time>
      </trkpt>
      <trkpt lat="45.65277" lon="6.6665">
        <ele>2693</ele>
        <time>2022-07-16T12:31:06Z</time>
      </trkpt>
      <trkpt lat="45.6528" lon="6.66649">
        <ele>2693</ele>
        <time>2022-07-16T12:31:09Z</time>
      </trkpt>
      <trkpt lat="45.65282" lon="6.66648">
        <ele>2694</ele>
        <time>2022-07-16T12:31:11Z</time>
      </trkpt>
      <trkpt lat="45.65284" lon="6.66648">
        <ele>2695</ele>
        <time>2022-07-16T12:31:14Z</time>
      </trkpt>
      <trkpt lat="45.65286" lon="6.66648">
        <ele>2695</ele>
        <time>2022-07-16T12:31:18Z</time>
      </trkpt>
      <trkpt lat="45.65288" lon="6.66648">
        <ele>2695</ele>
        <time>2022-07-16T12:31:22Z</time>
      </trkpt>
      <trkpt lat="45.6529" lon="6.66647">
        <ele>2696</ele>
        <time>2022-07-16T12:31:26Z</time>
      </trkpt>
      <trkpt lat="45.65292" lon="6.66646">
        <ele>2696</ele>
        <time>2022-07-16T12:31:30Z</time>
      </trkpt>
      <trkpt lat="45.65294" lon="6.66645">
        <ele>2696</ele>
        <time>2022-07-16T12:31:33Z</time>
      </trkpt>
      <trkpt lat="45.65296" lon="6.66644">
        <ele>2697</ele>
        <time>2022-07-16T12:31:37Z</time>
      </trkpt>
      <trkpt lat="45.65298" lon="6.66643">
        <ele>2697</ele>
        <time>2022-07-16T12:31:39Z</time>
      </trkpt>
      <trkpt lat="45.653" lon="6.66643">
        <ele>2697</ele>
        <time>2022-07-16T12:31:42Z</time>
      </trkpt>
      <trkpt lat="45.65302" lon="6.6664">
        <ele>2698</ele>
        <time>2022-07-16T12:31:46Z</time>
      </trkpt>
      <trkpt lat="45.65303" lon="6.66639">
        <ele>2699</ele>
        <time>2022-07-16T12:31:50Z</time>
      </trkpt>
      <trkpt lat="45.65305" lon="6.66638">
        <ele>2699</ele>
        <time>2022-07-16T12:31:55Z</time>
      </trkpt>
      <trkpt lat="45.65307" lon="6.66638">
        <ele>2699</ele>
        <time>2022-07-16T12:31:58Z</time>
      </trkpt>
      <trkpt lat="45.6531" lon="6.66638">
        <ele>2699</ele>
        <time>2022-07-16T12:32:04Z</time>
      </trkpt>
      <trkpt lat="45.65311" lon="6.66636">
        <ele>2699</ele>
        <time>2022-07-16T12:32:10Z</time>
      </trkpt>
      <trkpt lat="45.65313" lon="6.66634">
        <ele>2700</ele>
        <time>2022-07-16T12:32:13Z</time>
      </trkpt>
      <trkpt lat="45.65315" lon="6.66634">
        <ele>2700</ele>
        <time>2022-07-16T12:32:17Z</time>
      </trkpt>
      <trkpt lat="45.65317" lon="6.66634">
        <ele>2701</ele>
        <time>2022-07-16T12:32:22Z</time>
      </trkpt>
      <trkpt lat="45.65318" lon="6.66631">
        <ele>2702</ele>
        <time>2022-07-16T12:32:29Z</time>
      </trkpt>
      <trkpt lat="45.65319" lon="6.66629">
        <ele>2704</ele>
        <time>2022-07-16T12:32:34Z</time>
      </trkpt>
      <trkpt lat="45.65321" lon="6.66627">
        <ele>2705</ele>
        <time>2022-07-16T12:32:39Z</time>
      </trkpt>
      <trkpt lat="45.65323" lon="6.66626">
        <ele>2705</ele>
        <time>2022-07-16T12:32:43Z</time>
      </trkpt>
      <trkpt lat="45.65325" lon="6.66625">
        <ele>2707</ele>
        <time>2022-07-16T12:32:47Z</time>
      </trkpt>
      <trkpt lat="45.65327" lon="6.66626">
        <ele>2707</ele>
        <time>2022-07-16T12:32:51Z</time>
      </trkpt>
      <trkpt lat="45.65329" lon="6.66627">
        <ele>2708</ele>
        <time>2022-07-16T12:32:55Z</time>
      </trkpt>
      <trkpt lat="45.65331" lon="6.66629">
        <ele>2709</ele>
        <time>2022-07-16T12:32:59Z</time>
      </trkpt>
      <trkpt lat="45.65332" lon="6.66631">
        <ele>2709</ele>
        <time>2022-07-16T12:33:04Z</time>
      </trkpt>
      <trkpt lat="45.65333" lon="6.66634">
        <ele>2710</ele>
        <time>2022-07-16T12:33:07Z</time>
      </trkpt>
      <trkpt lat="45.65335" lon="6.66636">
        <ele>2711</ele>
        <time>2022-07-16T12:33:11Z</time>
      </trkpt>
      <trkpt lat="45.65336" lon="6.66638">
        <ele>2711</ele>
        <time>2022-07-16T12:33:16Z</time>
      </trkpt>
      <trkpt lat="45.65338" lon="6.6664">
        <ele>2712</ele>
        <time>2022-07-16T12:33:21Z</time>
      </trkpt>
      <trkpt lat="45.65339" lon="6.66642">
        <ele>2712</ele>
        <time>2022-07-16T12:33:25Z</time>
      </trkpt>
      <trkpt lat="45.65341" lon="6.66642">
        <ele>2713</ele>
        <time>2022-07-16T12:33:30Z</time>
      </trkpt>
      <trkpt lat="45.65341" lon="6.6664">
        <ele>2714</ele>
        <time>2022-07-16T12:33:38Z</time>
      </trkpt>
      <trkpt lat="45.65342" lon="6.66637">
        <ele>2716</ele>
        <time>2022-07-16T12:33:43Z</time>
      </trkpt>
      <trkpt lat="45.65343" lon="6.66635">
        <ele>2717</ele>
        <time>2022-07-16T12:33:48Z</time>
      </trkpt>
      <trkpt lat="45.65344" lon="6.66632">
        <ele>2718</ele>
        <time>2022-07-16T12:33:51Z</time>
      </trkpt>
      <trkpt lat="45.65346" lon="6.66634">
        <ele>2718</ele>
        <time>2022-07-16T12:33:55Z</time>
      </trkpt>
      <trkpt lat="45.65347" lon="6.66637">
        <ele>2719</ele>
        <time>2022-07-16T12:33:59Z</time>
      </trkpt>
      <trkpt lat="45.65349" lon="6.66639">
        <ele>2719</ele>
        <time>2022-07-16T12:34:02Z</time>
      </trkpt>
      <trkpt lat="45.65349" lon="6.66642">
        <ele>2721</ele>
        <time>2022-07-16T12:34:06Z</time>
      </trkpt>
      <trkpt lat="45.6535" lon="6.66644">
        <ele>2721</ele>
        <time>2022-07-16T12:34:10Z</time>
      </trkpt>
      <trkpt lat="45.65352" lon="6.66644">
        <ele>2721</ele>
        <time>2022-07-16T12:34:19Z</time>
      </trkpt>
      <trkpt lat="45.65354" lon="6.66647">
        <ele>2723</ele>
        <time>2022-07-16T12:34:23Z</time>
      </trkpt>
      <trkpt lat="45.65355" lon="6.66649">
        <ele>2723</ele>
        <time>2022-07-16T12:34:28Z</time>
      </trkpt>
      <trkpt lat="45.65357" lon="6.6665">
        <ele>2724</ele>
        <time>2022-07-16T12:34:31Z</time>
      </trkpt>
      <trkpt lat="45.65358" lon="6.66652">
        <ele>2725</ele>
        <time>2022-07-16T12:34:37Z</time>
      </trkpt>
      <trkpt lat="45.65359" lon="6.66654">
        <ele>2726</ele>
        <time>2022-07-16T12:34:43Z</time>
      </trkpt>
      <trkpt lat="45.6536" lon="6.66651">
        <ele>2728</ele>
        <time>2022-07-16T12:34:52Z</time>
      </trkpt>
      <trkpt lat="45.6536" lon="6.66651">
        <ele>2728</ele>
        <time>2022-07-16T12:34:55Z</time>
      </trkpt>
      <trkpt lat="45.65361" lon="6.66648">
        <ele>2728</ele>
        <time>2022-07-16T12:34:56Z</time>
      </trkpt>
      <trkpt lat="45.65362" lon="6.66645">
        <ele>2729</ele>
        <time>2022-07-16T12:35:00Z</time>
      </trkpt>
      <trkpt lat="45.65363" lon="6.66643">
        <ele>2729</ele>
        <time>2022-07-16T12:35:04Z</time>
      </trkpt>
      <trkpt lat="45.65363" lon="6.6664">
        <ele>2732</ele>
        <time>2022-07-16T12:35:09Z</time>
      </trkpt>
      <trkpt lat="45.65363" lon="6.66636">
        <ele>2732</ele>
        <time>2022-07-16T12:35:13Z</time>
      </trkpt>
      <trkpt lat="45.65363" lon="6.66634">
        <ele>2731</ele>
        <time>2022-07-16T12:35:18Z</time>
      </trkpt>
      <trkpt lat="45.65365" lon="6.66635">
        <ele>2732</ele>
        <time>2022-07-16T12:35:23Z</time>
      </trkpt>
      <trkpt lat="45.65366" lon="6.66637">
        <ele>2733</ele>
        <time>2022-07-16T12:35:29Z</time>
      </trkpt>
      <trkpt lat="45.65368" lon="6.66639">
        <ele>2734</ele>
        <time>2022-07-16T12:35:34Z</time>
      </trkpt>
      <trkpt lat="45.6537" lon="6.6664">
        <ele>2734</ele>
        <time>2022-07-16T12:35:39Z</time>
      </trkpt>
      <trkpt lat="45.65371" lon="6.66642">
        <ele>2736</ele>
        <time>2022-07-16T12:35:43Z</time>
      </trkpt>
      <trkpt lat="45.65372" lon="6.66645">
        <ele>2736</ele>
        <time>2022-07-16T12:35:46Z</time>
      </trkpt>
      <trkpt lat="45.65373" lon="6.66647">
        <ele>2737</ele>
        <time>2022-07-16T12:35:49Z</time>
      </trkpt>
      <trkpt lat="45.65373" lon="6.6665">
        <ele>2737</ele>
        <time>2022-07-16T12:35:52Z</time>
      </trkpt>
      <trkpt lat="45.65373" lon="6.66653">
        <ele>2737</ele>
        <time>2022-07-16T12:35:57Z</time>
      </trkpt>
      <trkpt lat="45.65375" lon="6.66655">
        <ele>2738</ele>
        <time>2022-07-16T12:36:01Z</time>
      </trkpt>
      <trkpt lat="45.65376" lon="6.66657">
        <ele>2740</ele>
        <time>2022-07-16T12:36:05Z</time>
      </trkpt>
      <trkpt lat="45.65378" lon="6.66659">
        <ele>2738</ele>
        <time>2022-07-16T12:36:08Z</time>
      </trkpt>
      <trkpt lat="45.65379" lon="6.66662">
        <ele>2740</ele>
        <time>2022-07-16T12:36:12Z</time>
      </trkpt>
      <trkpt lat="45.65381" lon="6.66663">
        <ele>2741</ele>
        <time>2022-07-16T12:36:15Z</time>
      </trkpt>
      <trkpt lat="45.65382" lon="6.66666">
        <ele>2742</ele>
        <time>2022-07-16T12:36:18Z</time>
      </trkpt>
      <trkpt lat="45.65382" lon="6.66669">
        <ele>2743</ele>
        <time>2022-07-16T12:36:24Z</time>
      </trkpt>
      <trkpt lat="45.65383" lon="6.66672">
        <ele>2743</ele>
        <time>2022-07-16T12:36:29Z</time>
      </trkpt>
      <trkpt lat="45.65384" lon="6.66674">
        <ele>2744</ele>
        <time>2022-07-16T12:36:34Z</time>
      </trkpt>
      <trkpt lat="45.65386" lon="6.66675">
        <ele>2744</ele>
        <time>2022-07-16T12:36:38Z</time>
      </trkpt>
      <trkpt lat="45.65386" lon="6.66678">
        <ele>2745</ele>
        <time>2022-07-16T12:36:41Z</time>
      </trkpt>
      <trkpt lat="45.65387" lon="6.6668">
        <ele>2746</ele>
        <time>2022-07-16T12:36:47Z</time>
      </trkpt>
      <trkpt lat="45.65387" lon="6.66683">
        <ele>2746</ele>
        <time>2022-07-16T12:36:50Z</time>
      </trkpt>
      <trkpt lat="45.65388" lon="6.66686">
        <ele>2748</ele>
        <time>2022-07-16T12:36:54Z</time>
      </trkpt>
      <trkpt lat="45.65389" lon="6.66686">
        <ele>2748</ele>
        <time>2022-07-16T12:37:02Z</time>
      </trkpt>
      <trkpt lat="45.65391" lon="6.66685">
        <ele>2748</ele>
        <time>2022-07-16T12:37:05Z</time>
      </trkpt>
      <trkpt lat="45.65392" lon="6.66683">
        <ele>2750</ele>
        <time>2022-07-16T12:37:09Z</time>
      </trkpt>
      <trkpt lat="45.65393" lon="6.66681">
        <ele>2751</ele>
        <time>2022-07-16T12:37:14Z</time>
      </trkpt>
      <trkpt lat="45.65394" lon="6.66678">
        <ele>2753</ele>
        <time>2022-07-16T12:37:19Z</time>
      </trkpt>
      <trkpt lat="45.65395" lon="6.66676">
        <ele>2753</ele>
        <time>2022-07-16T12:37:24Z</time>
      </trkpt>
      <trkpt lat="45.65397" lon="6.66674">
        <ele>2754</ele>
        <time>2022-07-16T12:37:28Z</time>
      </trkpt>
      <trkpt lat="45.65399" lon="6.66675">
        <ele>2755</ele>
        <time>2022-07-16T12:37:32Z</time>
      </trkpt>
      <trkpt lat="45.654" lon="6.66678">
        <ele>2755</ele>
        <time>2022-07-16T12:37:36Z</time>
      </trkpt>
      <trkpt lat="45.654" lon="6.66681">
        <ele>2756</ele>
        <time>2022-07-16T12:37:40Z</time>
      </trkpt>
      <trkpt lat="45.65401" lon="6.66684">
        <ele>2757</ele>
        <time>2022-07-16T12:37:47Z</time>
      </trkpt>
      <trkpt lat="45.65403" lon="6.66686">
        <ele>2758</ele>
        <time>2022-07-16T12:37:53Z</time>
      </trkpt>
      <trkpt lat="45.65404" lon="6.66687">
        <ele>2759</ele>
        <time>2022-07-16T12:37:58Z</time>
      </trkpt>
      <trkpt lat="45.65406" lon="6.6669">
        <ele>2760</ele>
        <time>2022-07-16T12:38:02Z</time>
      </trkpt>
      <trkpt lat="45.65408" lon="6.66692">
        <ele>2760</ele>
        <time>2022-07-16T12:38:09Z</time>
      </trkpt>
      <trkpt lat="45.65408" lon="6.66692">
        <ele>2761</ele>
        <time>2022-07-16T12:38:13Z</time>
      </trkpt>
      <trkpt lat="45.65409" lon="6.66694">
        <ele>2761</ele>
        <time>2022-07-16T12:38:15Z</time>
      </trkpt>
      <trkpt lat="45.65411" lon="6.66692">
        <ele>2762</ele>
        <time>2022-07-16T12:38:22Z</time>
      </trkpt>
      <trkpt lat="45.65413" lon="6.66691">
        <ele>2763</ele>
        <time>2022-07-16T12:38:27Z</time>
      </trkpt>
      <trkpt lat="45.65414" lon="6.66694">
        <ele>2765</ele>
        <time>2022-07-16T12:38:31Z</time>
      </trkpt>
      <trkpt lat="45.65415" lon="6.66696">
        <ele>2765</ele>
        <time>2022-07-16T12:38:35Z</time>
      </trkpt>
      <trkpt lat="45.65415" lon="6.66696">
        <ele>2766</ele>
        <time>2022-07-16T12:38:42Z</time>
      </trkpt>
      <trkpt lat="45.65417" lon="6.66696">
        <ele>2767</ele>
        <time>2022-07-16T12:38:45Z</time>
      </trkpt>
      <trkpt lat="45.65419" lon="6.66696">
        <ele>2767</ele>
        <time>2022-07-16T12:38:51Z</time>
      </trkpt>
      <trkpt lat="45.65421" lon="6.66698">
        <ele>2768</ele>
        <time>2022-07-16T12:38:55Z</time>
      </trkpt>
      <trkpt lat="45.65423" lon="6.66696">
        <ele>2769</ele>
        <time>2022-07-16T12:39:00Z</time>
      </trkpt>
      <trkpt lat="45.65425" lon="6.66694">
        <ele>2769</ele>
        <time>2022-07-16T12:39:03Z</time>
      </trkpt>
      <trkpt lat="45.65427" lon="6.66694">
        <ele>2769</ele>
        <time>2022-07-16T12:39:05Z</time>
      </trkpt>
      <trkpt lat="45.65429" lon="6.66693">
        <ele>2769</ele>
        <time>2022-07-16T12:39:07Z</time>
      </trkpt>
      <trkpt lat="45.65432" lon="6.66693">
        <ele>2768</ele>
        <time>2022-07-16T12:39:09Z</time>
      </trkpt>
      <trkpt lat="45.65434" lon="6.66692">
        <ele>2767</ele>
        <time>2022-07-16T12:39:11Z</time>
      </trkpt>
      <trkpt lat="45.65437" lon="6.66692">
        <ele>2767</ele>
        <time>2022-07-16T12:39:13Z</time>
      </trkpt>
      <trkpt lat="45.6544" lon="6.66692">
        <ele>2766</ele>
        <time>2022-07-16T12:39:15Z</time>
      </trkpt>
      <trkpt lat="45.65442" lon="6.66689">
        <ele>2765</ele>
        <time>2022-07-16T12:39:16Z</time>
      </trkpt>
      <trkpt lat="45.65443" lon="6.66687">
        <ele>2765</ele>
        <time>2022-07-16T12:39:18Z</time>
      </trkpt>
      <trkpt lat="45.65445" lon="6.66685">
        <ele>2763</ele>
        <time>2022-07-16T12:39:19Z</time>
      </trkpt>
      <trkpt lat="45.65447" lon="6.66685">
        <ele>2763</ele>
        <time>2022-07-16T12:39:21Z</time>
      </trkpt>
      <trkpt lat="45.65449" lon="6.66686">
        <ele>2762</ele>
        <time>2022-07-16T12:39:23Z</time>
      </trkpt>
      <trkpt lat="45.65451" lon="6.66687">
        <ele>2761</ele>
        <time>2022-07-16T12:39:25Z</time>
      </trkpt>
      <trkpt lat="45.65453" lon="6.66692">
        <ele>2760</ele>
        <time>2022-07-16T12:39:27Z</time>
      </trkpt>
      <trkpt lat="45.65455" lon="6.66693">
        <ele>2759</ele>
        <time>2022-07-16T12:39:29Z</time>
      </trkpt>
      <trkpt lat="45.65457" lon="6.66694">
        <ele>2759</ele>
        <time>2022-07-16T12:39:31Z</time>
      </trkpt>
      <trkpt lat="45.65458" lon="6.66699">
        <ele>2757</ele>
        <time>2022-07-16T12:39:33Z</time>
      </trkpt>
      <trkpt lat="45.6546" lon="6.66701">
        <ele>2757</ele>
        <time>2022-07-16T12:39:35Z</time>
      </trkpt>
      <trkpt lat="45.65462" lon="6.66703">
        <ele>2756</ele>
        <time>2022-07-16T12:39:37Z</time>
      </trkpt>
      <trkpt lat="45.65462" lon="6.66707">
        <ele>2754</ele>
        <time>2022-07-16T12:39:39Z</time>
      </trkpt>
      <trkpt lat="45.65466" lon="6.66708">
        <ele>2754</ele>
        <time>2022-07-16T12:39:42Z</time>
      </trkpt>
      <trkpt lat="45.65467" lon="6.66711">
        <ele>2753</ele>
        <time>2022-07-16T12:39:44Z</time>
      </trkpt>
      <trkpt lat="45.65467" lon="6.66715">
        <ele>2751</ele>
        <time>2022-07-16T12:39:46Z</time>
      </trkpt>
      <trkpt lat="45.65468" lon="6.66711">
        <ele>2749</ele>
        <time>2022-07-16T12:39:50Z</time>
      </trkpt>
      <trkpt lat="45.6547" lon="6.66711">
        <ele>2749</ele>
        <time>2022-07-16T12:39:52Z</time>
      </trkpt>
      <trkpt lat="45.65471" lon="6.66713">
        <ele>2748</ele>
        <time>2022-07-16T12:39:54Z</time>
      </trkpt>
      <trkpt lat="45.65473" lon="6.66711">
        <ele>2746</ele>
        <time>2022-07-16T12:39:58Z</time>
      </trkpt>
      <trkpt lat="45.65476" lon="6.66708">
        <ele>2746</ele>
        <time>2022-07-16T12:40:00Z</time>
      </trkpt>
      <trkpt lat="45.65477" lon="6.66706">
        <ele>2746</ele>
        <time>2022-07-16T12:40:02Z</time>
      </trkpt>
      <trkpt lat="45.65478" lon="6.66703">
        <ele>2746</ele>
        <time>2022-07-16T12:40:05Z</time>
      </trkpt>
      <trkpt lat="45.6548" lon="6.66702">
        <ele>2746</ele>
        <time>2022-07-16T12:40:07Z</time>
      </trkpt>
      <trkpt lat="45.65482" lon="6.667">
        <ele>2745</ele>
        <time>2022-07-16T12:40:10Z</time>
      </trkpt>
      <trkpt lat="45.65484" lon="6.66697">
        <ele>2745</ele>
        <time>2022-07-16T12:40:12Z</time>
      </trkpt>
      <trkpt lat="45.65485" lon="6.66694">
        <ele>2745</ele>
        <time>2022-07-16T12:40:15Z</time>
      </trkpt>
      <trkpt lat="45.65486" lon="6.66691">
        <ele>2745</ele>
        <time>2022-07-16T12:40:19Z</time>
      </trkpt>
      <trkpt lat="45.65487" lon="6.66689">
        <ele>2746</ele>
        <time>2022-07-16T12:40:22Z</time>
      </trkpt>
      <trkpt lat="45.65489" lon="6.66688">
        <ele>2746</ele>
        <time>2022-07-16T12:40:25Z</time>
      </trkpt>
      <trkpt lat="45.65491" lon="6.66687">
        <ele>2746</ele>
        <time>2022-07-16T12:40:29Z</time>
      </trkpt>
      <trkpt lat="45.65493" lon="6.66687">
        <ele>2746</ele>
        <time>2022-07-16T12:40:32Z</time>
      </trkpt>
      <trkpt lat="45.65495" lon="6.66687">
        <ele>2745</ele>
        <time>2022-07-16T12:40:34Z</time>
      </trkpt>
      <trkpt lat="45.65497" lon="6.66686">
        <ele>2745</ele>
        <time>2022-07-16T12:40:36Z</time>
      </trkpt>
      <trkpt lat="45.65499" lon="6.66688">
        <ele>2745</ele>
        <time>2022-07-16T12:40:40Z</time>
      </trkpt>
      <trkpt lat="45.65501" lon="6.66688">
        <ele>2745</ele>
        <time>2022-07-16T12:40:43Z</time>
      </trkpt>
      <trkpt lat="45.65504" lon="6.66689">
        <ele>2744</ele>
        <time>2022-07-16T12:40:47Z</time>
      </trkpt>
      <trkpt lat="45.65506" lon="6.66689">
        <ele>2744</ele>
        <time>2022-07-16T12:40:50Z</time>
      </trkpt>
      <trkpt lat="45.65508" lon="6.66689">
        <ele>2744</ele>
        <time>2022-07-16T12:40:52Z</time>
      </trkpt>
      <trkpt lat="45.6551" lon="6.66689">
        <ele>2744</ele>
        <time>2022-07-16T12:40:55Z</time>
      </trkpt>
      <trkpt lat="45.65513" lon="6.66688">
        <ele>2744</ele>
        <time>2022-07-16T12:40:57Z</time>
      </trkpt>
      <trkpt lat="45.65515" lon="6.66689">
        <ele>2744</ele>
        <time>2022-07-16T12:41:00Z</time>
      </trkpt>
      <trkpt lat="45.65517" lon="6.6669">
        <ele>2744</ele>
        <time>2022-07-16T12:41:01Z</time>
      </trkpt>
      <trkpt lat="45.65519" lon="6.66691">
        <ele>2743</ele>
        <time>2022-07-16T12:41:03Z</time>
      </trkpt>
      <trkpt lat="45.65521" lon="6.66692">
        <ele>2742</ele>
        <time>2022-07-16T12:41:05Z</time>
      </trkpt>
      <trkpt lat="45.65522" lon="6.66694">
        <ele>2742</ele>
        <time>2022-07-16T12:41:07Z</time>
      </trkpt>
      <trkpt lat="45.65524" lon="6.66696">
        <ele>2741</ele>
        <time>2022-07-16T12:41:09Z</time>
      </trkpt>
      <trkpt lat="45.65525" lon="6.66699">
        <ele>2741</ele>
        <time>2022-07-16T12:41:12Z</time>
      </trkpt>
      <trkpt lat="45.65528" lon="6.667">
        <ele>2740</ele>
        <time>2022-07-16T12:41:15Z</time>
      </trkpt>
      <trkpt lat="45.6553" lon="6.66702">
        <ele>2738</ele>
        <time>2022-07-16T12:41:17Z</time>
      </trkpt>
      <trkpt lat="45.65532" lon="6.66703">
        <ele>2738</ele>
        <time>2022-07-16T12:41:20Z</time>
      </trkpt>
      <trkpt lat="45.65534" lon="6.66705">
        <ele>2737</ele>
        <time>2022-07-16T12:41:22Z</time>
      </trkpt>
      <trkpt lat="45.65535" lon="6.66707">
        <ele>2737</ele>
        <time>2022-07-16T12:41:24Z</time>
      </trkpt>
      <trkpt lat="45.65537" lon="6.66708">
        <ele>2736</ele>
        <time>2022-07-16T12:41:27Z</time>
      </trkpt>
      <trkpt lat="45.65539" lon="6.66709">
        <ele>2736</ele>
        <time>2022-07-16T12:41:29Z</time>
      </trkpt>
      <trkpt lat="45.65541" lon="6.66711">
        <ele>2735</ele>
        <time>2022-07-16T12:41:32Z</time>
      </trkpt>
      <trkpt lat="45.65543" lon="6.66713">
        <ele>2735</ele>
        <time>2022-07-16T12:41:35Z</time>
      </trkpt>
      <trkpt lat="45.65543" lon="6.66715">
        <ele>2734</ele>
        <time>2022-07-16T12:41:37Z</time>
      </trkpt>
      <trkpt lat="45.65545" lon="6.66717">
        <ele>2733</ele>
        <time>2022-07-16T12:41:39Z</time>
      </trkpt>
      <trkpt lat="45.65546" lon="6.6672">
        <ele>2732</ele>
        <time>2022-07-16T12:41:41Z</time>
      </trkpt>
      <trkpt lat="45.65548" lon="6.66722">
        <ele>2731</ele>
        <time>2022-07-16T12:41:44Z</time>
      </trkpt>
      <trkpt lat="45.65551" lon="6.66723">
        <ele>2731</ele>
        <time>2022-07-16T12:41:47Z</time>
      </trkpt>
      <trkpt lat="45.65552" lon="6.66725">
        <ele>2729</ele>
        <time>2022-07-16T12:41:50Z</time>
      </trkpt>
      <trkpt lat="45.65552" lon="6.66728">
        <ele>2729</ele>
        <time>2022-07-16T12:41:52Z</time>
      </trkpt>
      <trkpt lat="45.65553" lon="6.66731">
        <ele>2729</ele>
        <time>2022-07-16T12:41:55Z</time>
      </trkpt>
      <trkpt lat="45.65553" lon="6.66734">
        <ele>2728</ele>
        <time>2022-07-16T12:41:57Z</time>
      </trkpt>
      <trkpt lat="45.65553" lon="6.66737">
        <ele>2726</ele>
        <time>2022-07-16T12:41:59Z</time>
      </trkpt>
      <trkpt lat="45.65551" lon="6.66739">
        <ele>2726</ele>
        <time>2022-07-16T12:42:02Z</time>
      </trkpt>
      <trkpt lat="45.65552" lon="6.66741">
        <ele>2724</ele>
        <time>2022-07-16T12:42:05Z</time>
      </trkpt>
      <trkpt lat="45.65554" lon="6.66742">
        <ele>2724</ele>
        <time>2022-07-16T12:42:07Z</time>
      </trkpt>
      <trkpt lat="45.65556" lon="6.66743">
        <ele>2723</ele>
        <time>2022-07-16T12:42:09Z</time>
      </trkpt>
      <trkpt lat="45.65557" lon="6.66745">
        <ele>2723</ele>
        <time>2022-07-16T12:42:11Z</time>
      </trkpt>
      <trkpt lat="45.65559" lon="6.66747">
        <ele>2722</ele>
        <time>2022-07-16T12:42:13Z</time>
      </trkpt>
      <trkpt lat="45.6556" lon="6.66749">
        <ele>2722</ele>
        <time>2022-07-16T12:42:15Z</time>
      </trkpt>
      <trkpt lat="45.65562" lon="6.6675">
        <ele>2721</ele>
        <time>2022-07-16T12:42:17Z</time>
      </trkpt>
      <trkpt lat="45.65564" lon="6.66751">
        <ele>2721</ele>
        <time>2022-07-16T12:42:19Z</time>
      </trkpt>
      <trkpt lat="45.65567" lon="6.66752">
        <ele>2720</ele>
        <time>2022-07-16T12:42:21Z</time>
      </trkpt>
      <trkpt lat="45.65569" lon="6.66753">
        <ele>2718</ele>
        <time>2022-07-16T12:42:23Z</time>
      </trkpt>
      <trkpt lat="45.65571" lon="6.66756">
        <ele>2718</ele>
        <time>2022-07-16T12:42:26Z</time>
      </trkpt>
      <trkpt lat="45.65573" lon="6.66758">
        <ele>2717</ele>
        <time>2022-07-16T12:42:28Z</time>
      </trkpt>
      <trkpt lat="45.65575" lon="6.6676">
        <ele>2716</ele>
        <time>2022-07-16T12:42:31Z</time>
      </trkpt>
      <trkpt lat="45.65577" lon="6.66762">
        <ele>2716</ele>
        <time>2022-07-16T12:42:33Z</time>
      </trkpt>
      <trkpt lat="45.65578" lon="6.66763">
        <ele>2714</ele>
        <time>2022-07-16T12:42:35Z</time>
      </trkpt>
      <trkpt lat="45.65581" lon="6.66764">
        <ele>2714</ele>
        <time>2022-07-16T12:42:37Z</time>
      </trkpt>
      <trkpt lat="45.65583" lon="6.66765">
        <ele>2713</ele>
        <time>2022-07-16T12:42:40Z</time>
      </trkpt>
      <trkpt lat="45.65585" lon="6.66766">
        <ele>2712</ele>
        <time>2022-07-16T12:42:42Z</time>
      </trkpt>
      <trkpt lat="45.65587" lon="6.66769">
        <ele>2711</ele>
        <time>2022-07-16T12:42:46Z</time>
      </trkpt>
      <trkpt lat="45.65586" lon="6.66773">
        <ele>2710</ele>
        <time>2022-07-16T12:42:48Z</time>
      </trkpt>
      <trkpt lat="45.65587" lon="6.66776">
        <ele>2709</ele>
        <time>2022-07-16T12:42:52Z</time>
      </trkpt>
      <trkpt lat="45.65589" lon="6.66777">
        <ele>2708</ele>
        <time>2022-07-16T12:42:54Z</time>
      </trkpt>
      <trkpt lat="45.65591" lon="6.66779">
        <ele>2707</ele>
        <time>2022-07-16T12:42:57Z</time>
      </trkpt>
      <trkpt lat="45.65593" lon="6.6678">
        <ele>2706</ele>
        <time>2022-07-16T12:43:00Z</time>
      </trkpt>
      <trkpt lat="45.65594" lon="6.66783">
        <ele>2705</ele>
        <time>2022-07-16T12:43:03Z</time>
      </trkpt>
      <trkpt lat="45.65596" lon="6.66784">
        <ele>2705</ele>
        <time>2022-07-16T12:43:05Z</time>
      </trkpt>
      <trkpt lat="45.65597" lon="6.66785">
        <ele>2704</ele>
        <time>2022-07-16T12:43:07Z</time>
      </trkpt>
      <trkpt lat="45.65599" lon="6.66786">
        <ele>2702</ele>
        <time>2022-07-16T12:43:09Z</time>
      </trkpt>
      <trkpt lat="45.65601" lon="6.66787">
        <ele>2701</ele>
        <time>2022-07-16T12:43:11Z</time>
      </trkpt>
      <trkpt lat="45.65603" lon="6.6679">
        <ele>2701</ele>
        <time>2022-07-16T12:43:13Z</time>
      </trkpt>
      <trkpt lat="45.65604" lon="6.66793">
        <ele>2700</ele>
        <time>2022-07-16T12:43:15Z</time>
      </trkpt>
      <trkpt lat="45.65606" lon="6.66796">
        <ele>2700</ele>
        <time>2022-07-16T12:43:18Z</time>
      </trkpt>
      <trkpt lat="45.65607" lon="6.66798">
        <ele>2699</ele>
        <time>2022-07-16T12:43:20Z</time>
      </trkpt>
      <trkpt lat="45.65609" lon="6.668">
        <ele>2698</ele>
        <time>2022-07-16T12:43:23Z</time>
      </trkpt>
      <trkpt lat="45.65611" lon="6.66802">
        <ele>2698</ele>
        <time>2022-07-16T12:43:25Z</time>
      </trkpt>
      <trkpt lat="45.65613" lon="6.66803">
        <ele>2698</ele>
        <time>2022-07-16T12:43:27Z</time>
      </trkpt>
      <trkpt lat="45.65614" lon="6.66805">
        <ele>2697</ele>
        <time>2022-07-16T12:43:29Z</time>
      </trkpt>
      <trkpt lat="45.65616" lon="6.66807">
        <ele>2697</ele>
        <time>2022-07-16T12:43:31Z</time>
      </trkpt>
      <trkpt lat="45.65618" lon="6.66809">
        <ele>2696</ele>
        <time>2022-07-16T12:43:33Z</time>
      </trkpt>
      <trkpt lat="45.6562" lon="6.66811">
        <ele>2696</ele>
        <time>2022-07-16T12:43:35Z</time>
      </trkpt>
      <trkpt lat="45.65622" lon="6.66813">
        <ele>2695</ele>
        <time>2022-07-16T12:43:37Z</time>
      </trkpt>
      <trkpt lat="45.65624" lon="6.66815">
        <ele>2695</ele>
        <time>2022-07-16T12:43:40Z</time>
      </trkpt>
      <trkpt lat="45.65626" lon="6.66817">
        <ele>2694</ele>
        <time>2022-07-16T12:43:43Z</time>
      </trkpt>
      <trkpt lat="45.65627" lon="6.6682">
        <ele>2693</ele>
        <time>2022-07-16T12:43:46Z</time>
      </trkpt>
      <trkpt lat="45.65629" lon="6.6682">
        <ele>2693</ele>
        <time>2022-07-16T12:43:49Z</time>
      </trkpt>
      <trkpt lat="45.65631" lon="6.66822">
        <ele>2692</ele>
        <time>2022-07-16T12:43:53Z</time>
      </trkpt>
      <trkpt lat="45.65633" lon="6.66825">
        <ele>2692</ele>
        <time>2022-07-16T12:43:55Z</time>
      </trkpt>
      <trkpt lat="45.65634" lon="6.66827">
        <ele>2690</ele>
        <time>2022-07-16T12:43:57Z</time>
      </trkpt>
      <trkpt lat="45.65635" lon="6.66829">
        <ele>2690</ele>
        <time>2022-07-16T12:43:59Z</time>
      </trkpt>
      <trkpt lat="45.65636" lon="6.66831">
        <ele>2689</ele>
        <time>2022-07-16T12:44:01Z</time>
      </trkpt>
      <trkpt lat="45.65637" lon="6.66833">
        <ele>2688</ele>
        <time>2022-07-16T12:44:04Z</time>
      </trkpt>
      <trkpt lat="45.65638" lon="6.66836">
        <ele>2688</ele>
        <time>2022-07-16T12:44:07Z</time>
      </trkpt>
      <trkpt lat="45.65639" lon="6.66838">
        <ele>2687</ele>
        <time>2022-07-16T12:44:10Z</time>
      </trkpt>
      <trkpt lat="45.65641" lon="6.66841">
        <ele>2686</ele>
        <time>2022-07-16T12:44:13Z</time>
      </trkpt>
      <trkpt lat="45.65642" lon="6.66843">
        <ele>2685</ele>
        <time>2022-07-16T12:44:15Z</time>
      </trkpt>
      <trkpt lat="45.65644" lon="6.66845">
        <ele>2685</ele>
        <time>2022-07-16T12:44:18Z</time>
      </trkpt>
      <trkpt lat="45.65646" lon="6.66846">
        <ele>2684</ele>
        <time>2022-07-16T12:44:20Z</time>
      </trkpt>
      <trkpt lat="45.65648" lon="6.66847">
        <ele>2684</ele>
        <time>2022-07-16T12:44:22Z</time>
      </trkpt>
      <trkpt lat="45.65649" lon="6.66849">
        <ele>2683</ele>
        <time>2022-07-16T12:44:24Z</time>
      </trkpt>
      <trkpt lat="45.6565" lon="6.66852">
        <ele>2683</ele>
        <time>2022-07-16T12:44:26Z</time>
      </trkpt>
      <trkpt lat="45.65651" lon="6.66855">
        <ele>2682</ele>
        <time>2022-07-16T12:44:28Z</time>
      </trkpt>
      <trkpt lat="45.65652" lon="6.66857">
        <ele>2682</ele>
        <time>2022-07-16T12:44:30Z</time>
      </trkpt>
      <trkpt lat="45.65654" lon="6.66859">
        <ele>2681</ele>
        <time>2022-07-16T12:44:32Z</time>
      </trkpt>
      <trkpt lat="45.65656" lon="6.6686">
        <ele>2681</ele>
        <time>2022-07-16T12:44:35Z</time>
      </trkpt>
      <trkpt lat="45.65657" lon="6.66863">
        <ele>2680</ele>
        <time>2022-07-16T12:44:37Z</time>
      </trkpt>
      <trkpt lat="45.65659" lon="6.66866">
        <ele>2678</ele>
        <time>2022-07-16T12:44:41Z</time>
      </trkpt>
      <trkpt lat="45.65661" lon="6.66868">
        <ele>2677</ele>
        <time>2022-07-16T12:44:44Z</time>
      </trkpt>
      <trkpt lat="45.65663" lon="6.66869">
        <ele>2676</ele>
        <time>2022-07-16T12:44:47Z</time>
      </trkpt>
      <trkpt lat="45.65665" lon="6.66872">
        <ele>2675</ele>
        <time>2022-07-16T12:44:50Z</time>
      </trkpt>
      <trkpt lat="45.65666" lon="6.66874">
        <ele>2674</ele>
        <time>2022-07-16T12:44:52Z</time>
      </trkpt>
      <trkpt lat="45.65668" lon="6.66876">
        <ele>2673</ele>
        <time>2022-07-16T12:44:56Z</time>
      </trkpt>
      <trkpt lat="45.65669" lon="6.66878">
        <ele>2673</ele>
        <time>2022-07-16T12:44:59Z</time>
      </trkpt>
      <trkpt lat="45.65669" lon="6.66881">
        <ele>2671</ele>
        <time>2022-07-16T12:45:04Z</time>
      </trkpt>
      <trkpt lat="45.65669" lon="6.66884">
        <ele>2670</ele>
        <time>2022-07-16T12:45:08Z</time>
      </trkpt>
      <trkpt lat="45.65671" lon="6.66887">
        <ele>2669</ele>
        <time>2022-07-16T12:45:12Z</time>
      </trkpt>
      <trkpt lat="45.65672" lon="6.66889">
        <ele>2668</ele>
        <time>2022-07-16T12:45:16Z</time>
      </trkpt>
      <trkpt lat="45.65674" lon="6.66889">
        <ele>2668</ele>
        <time>2022-07-16T12:45:19Z</time>
      </trkpt>
      <trkpt lat="45.65676" lon="6.6689">
        <ele>2668</ele>
        <time>2022-07-16T12:45:22Z</time>
      </trkpt>
      <trkpt lat="45.65678" lon="6.66891">
        <ele>2668</ele>
        <time>2022-07-16T12:45:25Z</time>
      </trkpt>
      <trkpt lat="45.6568" lon="6.66893">
        <ele>2666</ele>
        <time>2022-07-16T12:45:28Z</time>
      </trkpt>
      <trkpt lat="45.65681" lon="6.66894">
        <ele>2666</ele>
        <time>2022-07-16T12:45:30Z</time>
      </trkpt>
      <trkpt lat="45.65682" lon="6.66897">
        <ele>2666</ele>
        <time>2022-07-16T12:45:32Z</time>
      </trkpt>
      <trkpt lat="45.65683" lon="6.66899">
        <ele>2666</ele>
        <time>2022-07-16T12:45:35Z</time>
      </trkpt>
      <trkpt lat="45.65685" lon="6.66902">
        <ele>2666</ele>
        <time>2022-07-16T12:45:36Z</time>
      </trkpt>
      <trkpt lat="45.65686" lon="6.66904">
        <ele>2666</ele>
        <time>2022-07-16T12:45:39Z</time>
      </trkpt>
      <trkpt lat="45.65688" lon="6.66906">
        <ele>2666</ele>
        <time>2022-07-16T12:45:41Z</time>
      </trkpt>
      <trkpt lat="45.65689" lon="6.66907">
        <ele>2665</ele>
        <time>2022-07-16T12:45:43Z</time>
      </trkpt>
      <trkpt lat="45.6569" lon="6.6691">
        <ele>2664</ele>
        <time>2022-07-16T12:45:46Z</time>
      </trkpt>
      <trkpt lat="45.6569" lon="6.66913">
        <ele>2664</ele>
        <time>2022-07-16T12:45:48Z</time>
      </trkpt>
      <trkpt lat="45.65691" lon="6.66915">
        <ele>2664</ele>
        <time>2022-07-16T12:45:50Z</time>
      </trkpt>
      <trkpt lat="45.65693" lon="6.66916">
        <ele>2663</ele>
        <time>2022-07-16T12:45:52Z</time>
      </trkpt>
      <trkpt lat="45.65695" lon="6.66917">
        <ele>2663</ele>
        <time>2022-07-16T12:45:54Z</time>
      </trkpt>
      <trkpt lat="45.65697" lon="6.66919">
        <ele>2663</ele>
        <time>2022-07-16T12:45:56Z</time>
      </trkpt>
      <trkpt lat="45.65699" lon="6.66921">
        <ele>2661</ele>
        <time>2022-07-16T12:45:58Z</time>
      </trkpt>
      <trkpt lat="45.65701" lon="6.66922">
        <ele>2661</ele>
        <time>2022-07-16T12:46:00Z</time>
      </trkpt>
      <trkpt lat="45.65703" lon="6.66922">
        <ele>2660</ele>
        <time>2022-07-16T12:46:02Z</time>
      </trkpt>
      <trkpt lat="45.65705" lon="6.66921">
        <ele>2660</ele>
        <time>2022-07-16T12:46:04Z</time>
      </trkpt>
      <trkpt lat="45.65707" lon="6.66921">
        <ele>2660</ele>
        <time>2022-07-16T12:46:06Z</time>
      </trkpt>
      <trkpt lat="45.65709" lon="6.66921">
        <ele>2659</ele>
        <time>2022-07-16T12:46:08Z</time>
      </trkpt>
      <trkpt lat="45.65712" lon="6.66922">
        <ele>2658</ele>
        <time>2022-07-16T12:46:10Z</time>
      </trkpt>
      <trkpt lat="45.65715" lon="6.66922">
        <ele>2657</ele>
        <time>2022-07-16T12:46:12Z</time>
      </trkpt>
      <trkpt lat="45.65717" lon="6.6692">
        <ele>2657</ele>
        <time>2022-07-16T12:46:14Z</time>
      </trkpt>
      <trkpt lat="45.65719" lon="6.66922">
        <ele>2656</ele>
        <time>2022-07-16T12:46:18Z</time>
      </trkpt>
      <trkpt lat="45.65721" lon="6.66921">
        <ele>2656</ele>
        <time>2022-07-16T12:46:20Z</time>
      </trkpt>
      <trkpt lat="45.65724" lon="6.66921">
        <ele>2656</ele>
        <time>2022-07-16T12:46:22Z</time>
      </trkpt>
      <trkpt lat="45.65726" lon="6.6692">
        <ele>2656</ele>
        <time>2022-07-16T12:46:24Z</time>
      </trkpt>
      <trkpt lat="45.65728" lon="6.66921">
        <ele>2654</ele>
        <time>2022-07-16T12:46:28Z</time>
      </trkpt>
      <trkpt lat="45.6573" lon="6.66922">
        <ele>2654</ele>
        <time>2022-07-16T12:46:32Z</time>
      </trkpt>
      <trkpt lat="45.65732" lon="6.66923">
        <ele>2653</ele>
        <time>2022-07-16T12:46:39Z</time>
      </trkpt>
      <trkpt lat="45.65734" lon="6.66923">
        <ele>2653</ele>
        <time>2022-07-16T12:46:42Z</time>
      </trkpt>
      <trkpt lat="45.65736" lon="6.66923">
        <ele>2653</ele>
        <time>2022-07-16T12:46:45Z</time>
      </trkpt>
      <trkpt lat="45.65738" lon="6.66924">
        <ele>2652</ele>
        <time>2022-07-16T12:46:49Z</time>
      </trkpt>
      <trkpt lat="45.6574" lon="6.66924">
        <ele>2651</ele>
        <time>2022-07-16T12:46:52Z</time>
      </trkpt>
      <trkpt lat="45.65742" lon="6.66924">
        <ele>2651</ele>
        <time>2022-07-16T12:46:55Z</time>
      </trkpt>
      <trkpt lat="45.65744" lon="6.66923">
        <ele>2650</ele>
        <time>2022-07-16T12:46:58Z</time>
      </trkpt>
      <trkpt lat="45.65746" lon="6.66923">
        <ele>2649</ele>
        <time>2022-07-16T12:47:02Z</time>
      </trkpt>
      <trkpt lat="45.65748" lon="6.66923">
        <ele>2649</ele>
        <time>2022-07-16T12:47:07Z</time>
      </trkpt>
      <trkpt lat="45.65751" lon="6.66924">
        <ele>2649</ele>
        <time>2022-07-16T12:47:11Z</time>
      </trkpt>
      <trkpt lat="45.65753" lon="6.66924">
        <ele>2649</ele>
        <time>2022-07-16T12:47:18Z</time>
      </trkpt>
      <trkpt lat="45.65755" lon="6.66923">
        <ele>2648</ele>
        <time>2022-07-16T12:47:21Z</time>
      </trkpt>
      <trkpt lat="45.65756" lon="6.66924">
        <ele>2648</ele>
        <time>2022-07-16T12:47:24Z</time>
      </trkpt>
      <trkpt lat="45.65758" lon="6.66925">
        <ele>2647</ele>
        <time>2022-07-16T12:47:29Z</time>
      </trkpt>
      <trkpt lat="45.6576" lon="6.66925">
        <ele>2647</ele>
        <time>2022-07-16T12:47:34Z</time>
      </trkpt>
      <trkpt lat="45.65763" lon="6.66925">
        <ele>2647</ele>
        <time>2022-07-16T12:47:37Z</time>
      </trkpt>
      <trkpt lat="45.65765" lon="6.66925">
        <ele>2646</ele>
        <time>2022-07-16T12:47:39Z</time>
      </trkpt>
      <trkpt lat="45.65768" lon="6.66926">
        <ele>2646</ele>
        <time>2022-07-16T12:47:41Z</time>
      </trkpt>
      <trkpt lat="45.6577" lon="6.66926">
        <ele>2646</ele>
        <time>2022-07-16T12:47:43Z</time>
      </trkpt>
      <trkpt lat="45.65772" lon="6.66928">
        <ele>2645</ele>
        <time>2022-07-16T12:47:45Z</time>
      </trkpt>
      <trkpt lat="45.65774" lon="6.66928">
        <ele>2645</ele>
        <time>2022-07-16T12:47:47Z</time>
      </trkpt>
      <trkpt lat="45.65777" lon="6.66929">
        <ele>2645</ele>
        <time>2022-07-16T12:47:49Z</time>
      </trkpt>
      <trkpt lat="45.65779" lon="6.6693">
        <ele>2644</ele>
        <time>2022-07-16T12:47:51Z</time>
      </trkpt>
      <trkpt lat="45.65781" lon="6.66931">
        <ele>2644</ele>
        <time>2022-07-16T12:47:53Z</time>
      </trkpt>
      <trkpt lat="45.65783" lon="6.66932">
        <ele>2642</ele>
        <time>2022-07-16T12:47:55Z</time>
      </trkpt>
      <trkpt lat="45.65785" lon="6.66934">
        <ele>2642</ele>
        <time>2022-07-16T12:47:57Z</time>
      </trkpt>
      <trkpt lat="45.65787" lon="6.66936">
        <ele>2641</ele>
        <time>2022-07-16T12:47:59Z</time>
      </trkpt>
      <trkpt lat="45.65789" lon="6.66938">
        <ele>2641</ele>
        <time>2022-07-16T12:48:01Z</time>
      </trkpt>
      <trkpt lat="45.65791" lon="6.6694">
        <ele>2641</ele>
        <time>2022-07-16T12:48:03Z</time>
      </trkpt>
      <trkpt lat="45.65793" lon="6.6694">
        <ele>2640</ele>
        <time>2022-07-16T12:48:06Z</time>
      </trkpt>
      <trkpt lat="45.65795" lon="6.6694">
        <ele>2640</ele>
        <time>2022-07-16T12:48:08Z</time>
      </trkpt>
      <trkpt lat="45.65797" lon="6.66943">
        <ele>2639</ele>
        <time>2022-07-16T12:48:11Z</time>
      </trkpt>
      <trkpt lat="45.65799" lon="6.66943">
        <ele>2639</ele>
        <time>2022-07-16T12:48:13Z</time>
      </trkpt>
      <trkpt lat="45.65801" lon="6.66945">
        <ele>2639</ele>
        <time>2022-07-16T12:48:15Z</time>
      </trkpt>
      <trkpt lat="45.65803" lon="6.66947">
        <ele>2638</ele>
        <time>2022-07-16T12:48:17Z</time>
      </trkpt>
      <trkpt lat="45.65804" lon="6.6695">
        <ele>2638</ele>
        <time>2022-07-16T12:48:19Z</time>
      </trkpt>
      <trkpt lat="45.65806" lon="6.66951">
        <ele>2637</ele>
        <time>2022-07-16T12:48:21Z</time>
      </trkpt>
      <trkpt lat="45.65807" lon="6.66954">
        <ele>2636</ele>
        <time>2022-07-16T12:48:23Z</time>
      </trkpt>
      <trkpt lat="45.65808" lon="6.66958">
        <ele>2636</ele>
        <time>2022-07-16T12:48:25Z</time>
      </trkpt>
      <trkpt lat="45.65809" lon="6.6696">
        <ele>2636</ele>
        <time>2022-07-16T12:48:26Z</time>
      </trkpt>
      <trkpt lat="45.65809" lon="6.66963">
        <ele>2636</ele>
        <time>2022-07-16T12:48:27Z</time>
      </trkpt>
      <trkpt lat="45.6581" lon="6.66965">
        <ele>2635</ele>
        <time>2022-07-16T12:48:28Z</time>
      </trkpt>
      <trkpt lat="45.65809" lon="6.66969">
        <ele>2635</ele>
        <time>2022-07-16T12:48:30Z</time>
      </trkpt>
      <trkpt lat="45.65809" lon="6.66974">
        <ele>2633</ele>
        <time>2022-07-16T12:48:32Z</time>
      </trkpt>
      <trkpt lat="45.6581" lon="6.66979">
        <ele>2633</ele>
        <time>2022-07-16T12:48:34Z</time>
      </trkpt>
      <trkpt lat="45.65813" lon="6.6698">
        <ele>2632</ele>
        <time>2022-07-16T12:48:36Z</time>
      </trkpt>
      <trkpt lat="45.65815" lon="6.66984">
        <ele>2631</ele>
        <time>2022-07-16T12:48:38Z</time>
      </trkpt>
      <trkpt lat="45.65817" lon="6.66988">
        <ele>2631</ele>
        <time>2022-07-16T12:48:40Z</time>
      </trkpt>
      <trkpt lat="45.6582" lon="6.66991">
        <ele>2629</ele>
        <time>2022-07-16T12:48:42Z</time>
      </trkpt>
      <trkpt lat="45.65822" lon="6.66993">
        <ele>2629</ele>
        <time>2022-07-16T12:48:44Z</time>
      </trkpt>
      <trkpt lat="45.65824" lon="6.66995">
        <ele>2629</ele>
        <time>2022-07-16T12:48:46Z</time>
      </trkpt>
      <trkpt lat="45.65827" lon="6.66998">
        <ele>2629</ele>
        <time>2022-07-16T12:48:48Z</time>
      </trkpt>
      <trkpt lat="45.65829" lon="6.67001">
        <ele>2629</ele>
        <time>2022-07-16T12:48:50Z</time>
      </trkpt>
      <trkpt lat="45.65831" lon="6.67003">
        <ele>2628</ele>
        <time>2022-07-16T12:48:52Z</time>
      </trkpt>
      <trkpt lat="45.65833" lon="6.67005">
        <ele>2628</ele>
        <time>2022-07-16T12:48:54Z</time>
      </trkpt>
      <trkpt lat="45.65835" lon="6.67007">
        <ele>2627</ele>
        <time>2022-07-16T12:48:56Z</time>
      </trkpt>
      <trkpt lat="45.65838" lon="6.67008">
        <ele>2627</ele>
        <time>2022-07-16T12:48:58Z</time>
      </trkpt>
      <trkpt lat="45.6584" lon="6.6701">
        <ele>2627</ele>
        <time>2022-07-16T12:49:00Z</time>
      </trkpt>
      <trkpt lat="45.65842" lon="6.67012">
        <ele>2627</ele>
        <time>2022-07-16T12:49:02Z</time>
      </trkpt>
      <trkpt lat="45.65844" lon="6.67013">
        <ele>2626</ele>
        <time>2022-07-16T12:49:04Z</time>
      </trkpt>
      <trkpt lat="45.65846" lon="6.67015">
        <ele>2626</ele>
        <time>2022-07-16T12:49:05Z</time>
      </trkpt>
      <trkpt lat="45.65847" lon="6.67018">
        <ele>2625</ele>
        <time>2022-07-16T12:49:08Z</time>
      </trkpt>
      <trkpt lat="45.65849" lon="6.6702">
        <ele>2625</ele>
        <time>2022-07-16T12:49:10Z</time>
      </trkpt>
      <trkpt lat="45.65851" lon="6.67022">
        <ele>2625</ele>
        <time>2022-07-16T12:49:12Z</time>
      </trkpt>
      <trkpt lat="45.65853" lon="6.67025">
        <ele>2626</ele>
        <time>2022-07-16T12:49:14Z</time>
      </trkpt>
      <trkpt lat="45.65856" lon="6.67027">
        <ele>2626</ele>
        <time>2022-07-16T12:49:16Z</time>
      </trkpt>
      <trkpt lat="45.65857" lon="6.67031">
        <ele>2625</ele>
        <time>2022-07-16T12:49:18Z</time>
      </trkpt>
      <trkpt lat="45.65858" lon="6.67034">
        <ele>2625</ele>
        <time>2022-07-16T12:49:20Z</time>
      </trkpt>
      <trkpt lat="45.65858" lon="6.67038">
        <ele>2626</ele>
        <time>2022-07-16T12:49:22Z</time>
      </trkpt>
      <trkpt lat="45.6586" lon="6.67041">
        <ele>2625</ele>
        <time>2022-07-16T12:49:24Z</time>
      </trkpt>
      <trkpt lat="45.6586" lon="6.67044">
        <ele>2625</ele>
        <time>2022-07-16T12:49:26Z</time>
      </trkpt>
      <trkpt lat="45.65861" lon="6.67047">
        <ele>2624</ele>
        <time>2022-07-16T12:49:28Z</time>
      </trkpt>
      <trkpt lat="45.65863" lon="6.6705">
        <ele>2622</ele>
        <time>2022-07-16T12:49:30Z</time>
      </trkpt>
      <trkpt lat="45.65865" lon="6.6705">
        <ele>2622</ele>
        <time>2022-07-16T12:49:32Z</time>
      </trkpt>
      <trkpt lat="45.65867" lon="6.67048">
        <ele>2621</ele>
        <time>2022-07-16T12:49:35Z</time>
      </trkpt>
      <trkpt lat="45.65869" lon="6.6705">
        <ele>2621</ele>
        <time>2022-07-16T12:49:37Z</time>
      </trkpt>
      <trkpt lat="45.65871" lon="6.6705">
        <ele>2619</ele>
        <time>2022-07-16T12:49:39Z</time>
      </trkpt>
      <trkpt lat="45.65872" lon="6.67053">
        <ele>2619</ele>
        <time>2022-07-16T12:49:41Z</time>
      </trkpt>
      <trkpt lat="45.65873" lon="6.67055">
        <ele>2619</ele>
        <time>2022-07-16T12:49:43Z</time>
      </trkpt>
      <trkpt lat="45.65876" lon="6.67054">
        <ele>2617</ele>
        <time>2022-07-16T12:49:45Z</time>
      </trkpt>
      <trkpt lat="45.65878" lon="6.67057">
        <ele>2616</ele>
        <time>2022-07-16T12:49:49Z</time>
      </trkpt>
      <trkpt lat="45.65878" lon="6.67059">
        <ele>2615</ele>
        <time>2022-07-16T12:49:51Z</time>
      </trkpt>
      <trkpt lat="45.65879" lon="6.67062">
        <ele>2613</ele>
        <time>2022-07-16T12:49:53Z</time>
      </trkpt>
      <trkpt lat="45.65878" lon="6.67065">
        <ele>2613</ele>
        <time>2022-07-16T12:49:55Z</time>
      </trkpt>
      <trkpt lat="45.65879" lon="6.67068">
        <ele>2612</ele>
        <time>2022-07-16T12:49:57Z</time>
      </trkpt>
      <trkpt lat="45.6588" lon="6.6707">
        <ele>2611</ele>
        <time>2022-07-16T12:49:59Z</time>
      </trkpt>
      <trkpt lat="45.65882" lon="6.67074">
        <ele>2610</ele>
        <time>2022-07-16T12:50:01Z</time>
      </trkpt>
      <trkpt lat="45.65883" lon="6.67078">
        <ele>2610</ele>
        <time>2022-07-16T12:50:02Z</time>
      </trkpt>
      <trkpt lat="45.65884" lon="6.67081">
        <ele>2609</ele>
        <time>2022-07-16T12:50:05Z</time>
      </trkpt>
      <trkpt lat="45.65886" lon="6.67084">
        <ele>2608</ele>
        <time>2022-07-16T12:50:07Z</time>
      </trkpt>
      <trkpt lat="45.65888" lon="6.67086">
        <ele>2607</ele>
        <time>2022-07-16T12:50:09Z</time>
      </trkpt>
      <trkpt lat="45.6589" lon="6.67089">
        <ele>2605</ele>
        <time>2022-07-16T12:50:11Z</time>
      </trkpt>
      <trkpt lat="45.65891" lon="6.67092">
        <ele>2604</ele>
        <time>2022-07-16T12:50:13Z</time>
      </trkpt>
      <trkpt lat="45.65893" lon="6.67094">
        <ele>2604</ele>
        <time>2022-07-16T12:50:15Z</time>
      </trkpt>
      <trkpt lat="45.65895" lon="6.67097">
        <ele>2604</ele>
        <time>2022-07-16T12:50:17Z</time>
      </trkpt>
      <trkpt lat="45.65896" lon="6.671">
        <ele>2603</ele>
        <time>2022-07-16T12:50:19Z</time>
      </trkpt>
      <trkpt lat="45.65897" lon="6.67104">
        <ele>2602</ele>
        <time>2022-07-16T12:50:21Z</time>
      </trkpt>
      <trkpt lat="45.65898" lon="6.67107">
        <ele>2601</ele>
        <time>2022-07-16T12:50:23Z</time>
      </trkpt>
      <trkpt lat="45.65899" lon="6.6711">
        <ele>2600</ele>
        <time>2022-07-16T12:50:25Z</time>
      </trkpt>
      <trkpt lat="45.659" lon="6.67112">
        <ele>2599</ele>
        <time>2022-07-16T12:50:27Z</time>
      </trkpt>
      <trkpt lat="45.65901" lon="6.67116">
        <ele>2599</ele>
        <time>2022-07-16T12:50:29Z</time>
      </trkpt>
      <trkpt lat="45.65902" lon="6.67119">
        <ele>2598</ele>
        <time>2022-07-16T12:50:31Z</time>
      </trkpt>
      <trkpt lat="45.65902" lon="6.67122">
        <ele>2597</ele>
        <time>2022-07-16T12:50:33Z</time>
      </trkpt>
      <trkpt lat="45.65902" lon="6.67125">
        <ele>2596</ele>
        <time>2022-07-16T12:50:35Z</time>
      </trkpt>
      <trkpt lat="45.65902" lon="6.67127">
        <ele>2595</ele>
        <time>2022-07-16T12:50:37Z</time>
      </trkpt>
      <trkpt lat="45.65902" lon="6.6713">
        <ele>2593</ele>
        <time>2022-07-16T12:50:39Z</time>
      </trkpt>
      <trkpt lat="45.65902" lon="6.67134">
        <ele>2593</ele>
        <time>2022-07-16T12:50:42Z</time>
      </trkpt>
      <trkpt lat="45.65903" lon="6.67138">
        <ele>2591</ele>
        <time>2022-07-16T12:50:45Z</time>
      </trkpt>
      <trkpt lat="45.65903" lon="6.67141">
        <ele>2592</ele>
        <time>2022-07-16T12:50:48Z</time>
      </trkpt>
      <trkpt lat="45.65905" lon="6.67143">
        <ele>2591</ele>
        <time>2022-07-16T12:50:50Z</time>
      </trkpt>
      <trkpt lat="45.65907" lon="6.67145">
        <ele>2590</ele>
        <time>2022-07-16T12:50:52Z</time>
      </trkpt>
      <trkpt lat="45.6591" lon="6.67148">
        <ele>2590</ele>
        <time>2022-07-16T12:50:54Z</time>
      </trkpt>
      <trkpt lat="45.65911" lon="6.67151">
        <ele>2589</ele>
        <time>2022-07-16T12:50:56Z</time>
      </trkpt>
      <trkpt lat="45.65912" lon="6.67154">
        <ele>2589</ele>
        <time>2022-07-16T12:50:58Z</time>
      </trkpt>
      <trkpt lat="45.65913" lon="6.67158">
        <ele>2589</ele>
        <time>2022-07-16T12:51:00Z</time>
      </trkpt>
      <trkpt lat="45.65915" lon="6.67161">
        <ele>2588</ele>
        <time>2022-07-16T12:51:02Z</time>
      </trkpt>
      <trkpt lat="45.65917" lon="6.67162">
        <ele>2588</ele>
        <time>2022-07-16T12:51:04Z</time>
      </trkpt>
      <trkpt lat="45.65918" lon="6.67165">
        <ele>2588</ele>
        <time>2022-07-16T12:51:06Z</time>
      </trkpt>
      <trkpt lat="45.65918" lon="6.67169">
        <ele>2587</ele>
        <time>2022-07-16T12:51:08Z</time>
      </trkpt>
      <trkpt lat="45.65919" lon="6.67172">
        <ele>2587</ele>
        <time>2022-07-16T12:51:10Z</time>
      </trkpt>
      <trkpt lat="45.65921" lon="6.67175">
        <ele>2587</ele>
        <time>2022-07-16T12:51:12Z</time>
      </trkpt>
      <trkpt lat="45.65922" lon="6.67178">
        <ele>2587</ele>
        <time>2022-07-16T12:51:13Z</time>
      </trkpt>
      <trkpt lat="45.65923" lon="6.67181">
        <ele>2587</ele>
        <time>2022-07-16T12:51:15Z</time>
      </trkpt>
      <trkpt lat="45.65924" lon="6.67185">
        <ele>2586</ele>
        <time>2022-07-16T12:51:17Z</time>
      </trkpt>
      <trkpt lat="45.65924" lon="6.67189">
        <ele>2586</ele>
        <time>2022-07-16T12:51:20Z</time>
      </trkpt>
      <trkpt lat="45.65923" lon="6.67192">
        <ele>2586</ele>
        <time>2022-07-16T12:51:22Z</time>
      </trkpt>
      <trkpt lat="45.65924" lon="6.67196">
        <ele>2586</ele>
        <time>2022-07-16T12:51:25Z</time>
      </trkpt>
      <trkpt lat="45.65925" lon="6.67199">
        <ele>2585</ele>
        <time>2022-07-16T12:51:27Z</time>
      </trkpt>
      <trkpt lat="45.65925" lon="6.67203">
        <ele>2585</ele>
        <time>2022-07-16T12:51:29Z</time>
      </trkpt>
      <trkpt lat="45.65926" lon="6.67205">
        <ele>2585</ele>
        <time>2022-07-16T12:51:31Z</time>
      </trkpt>
      <trkpt lat="45.65927" lon="6.67208">
        <ele>2586</ele>
        <time>2022-07-16T12:51:33Z</time>
      </trkpt>
      <trkpt lat="45.65928" lon="6.67213">
        <ele>2585</ele>
        <time>2022-07-16T12:51:35Z</time>
      </trkpt>
      <trkpt lat="45.65928" lon="6.67218">
        <ele>2585</ele>
        <time>2022-07-16T12:51:37Z</time>
      </trkpt>
      <trkpt lat="45.65929" lon="6.67222">
        <ele>2585</ele>
        <time>2022-07-16T12:51:39Z</time>
      </trkpt>
      <trkpt lat="45.6593" lon="6.67225">
        <ele>2584</ele>
        <time>2022-07-16T12:51:41Z</time>
      </trkpt>
      <trkpt lat="45.6593" lon="6.67228">
        <ele>2584</ele>
        <time>2022-07-16T12:51:42Z</time>
      </trkpt>
      <trkpt lat="45.6593" lon="6.67231">
        <ele>2584</ele>
        <time>2022-07-16T12:51:43Z</time>
      </trkpt>
      <trkpt lat="45.6593" lon="6.67234">
        <ele>2584</ele>
        <time>2022-07-16T12:51:44Z</time>
      </trkpt>
      <trkpt lat="45.65929" lon="6.67239">
        <ele>2584</ele>
        <time>2022-07-16T12:51:46Z</time>
      </trkpt>
      <trkpt lat="45.65929" lon="6.67244">
        <ele>2583</ele>
        <time>2022-07-16T12:51:48Z</time>
      </trkpt>
      <trkpt lat="45.65929" lon="6.67248">
        <ele>2581</ele>
        <time>2022-07-16T12:51:50Z</time>
      </trkpt>
      <trkpt lat="45.65928" lon="6.67251">
        <ele>2580</ele>
        <time>2022-07-16T12:51:52Z</time>
      </trkpt>
      <trkpt lat="45.65928" lon="6.67255">
        <ele>2580</ele>
        <time>2022-07-16T12:51:54Z</time>
      </trkpt>
      <trkpt lat="45.65928" lon="6.67259">
        <ele>2580</ele>
        <time>2022-07-16T12:51:56Z</time>
      </trkpt>
      <trkpt lat="45.65929" lon="6.67262">
        <ele>2580</ele>
        <time>2022-07-16T12:51:59Z</time>
      </trkpt>
      <trkpt lat="45.65928" lon="6.67266">
        <ele>2579</ele>
        <time>2022-07-16T12:52:01Z</time>
      </trkpt>
      <trkpt lat="45.65928" lon="6.67272">
        <ele>2578</ele>
        <time>2022-07-16T12:52:03Z</time>
      </trkpt>
      <trkpt lat="45.65927" lon="6.67276">
        <ele>2577</ele>
        <time>2022-07-16T12:52:05Z</time>
      </trkpt>
      <trkpt lat="45.65925" lon="6.67281">
        <ele>2577</ele>
        <time>2022-07-16T12:52:07Z</time>
      </trkpt>
      <trkpt lat="45.65924" lon="6.67285">
        <ele>2577</ele>
        <time>2022-07-16T12:52:09Z</time>
      </trkpt>
      <trkpt lat="45.65925" lon="6.67289">
        <ele>2577</ele>
        <time>2022-07-16T12:52:11Z</time>
      </trkpt>
      <trkpt lat="45.65925" lon="6.67293">
        <ele>2577</ele>
        <time>2022-07-16T12:52:13Z</time>
      </trkpt>
      <trkpt lat="45.65927" lon="6.67295">
        <ele>2576</ele>
        <time>2022-07-16T12:52:16Z</time>
      </trkpt>
      <trkpt lat="45.65928" lon="6.67296">
        <ele>2576</ele>
        <time>2022-07-16T12:52:19Z</time>
      </trkpt>
      <trkpt lat="45.6593" lon="6.67298">
        <ele>2576</ele>
        <time>2022-07-16T12:52:21Z</time>
      </trkpt>
      <trkpt lat="45.6593" lon="6.67301">
        <ele>2574</ele>
        <time>2022-07-16T12:52:23Z</time>
      </trkpt>
      <trkpt lat="45.6593" lon="6.67304">
        <ele>2574</ele>
        <time>2022-07-16T12:52:25Z</time>
      </trkpt>
      <trkpt lat="45.65931" lon="6.67308">
        <ele>2573</ele>
        <time>2022-07-16T12:52:27Z</time>
      </trkpt>
      <trkpt lat="45.65931" lon="6.67311">
        <ele>2573</ele>
        <time>2022-07-16T12:52:29Z</time>
      </trkpt>
      <trkpt lat="45.65931" lon="6.67315">
        <ele>2572</ele>
        <time>2022-07-16T12:52:31Z</time>
      </trkpt>
      <trkpt lat="45.65932" lon="6.67318">
        <ele>2572</ele>
        <time>2022-07-16T12:52:33Z</time>
      </trkpt>
      <trkpt lat="45.65932" lon="6.67321">
        <ele>2572</ele>
        <time>2022-07-16T12:52:34Z</time>
      </trkpt>
      <trkpt lat="45.65933" lon="6.67324">
        <ele>2571</ele>
        <time>2022-07-16T12:52:37Z</time>
      </trkpt>
      <trkpt lat="45.65935" lon="6.67327">
        <ele>2569</ele>
        <time>2022-07-16T12:52:39Z</time>
      </trkpt>
      <trkpt lat="45.65935" lon="6.67331">
        <ele>2568</ele>
        <time>2022-07-16T12:52:42Z</time>
      </trkpt>
      <trkpt lat="45.65933" lon="6.67332">
        <ele>2567</ele>
        <time>2022-07-16T12:52:45Z</time>
      </trkpt>
      <trkpt lat="45.65931" lon="6.67333">
        <ele>2566</ele>
        <time>2022-07-16T12:52:48Z</time>
      </trkpt>
      <trkpt lat="45.6593" lon="6.67335">
        <ele>2566</ele>
        <time>2022-07-16T12:52:52Z</time>
      </trkpt>
      <trkpt lat="45.6593" lon="6.67338">
        <ele>2564</ele>
        <time>2022-07-16T12:52:55Z</time>
      </trkpt>
      <trkpt lat="45.65931" lon="6.67341">
        <ele>2564</ele>
        <time>2022-07-16T12:52:58Z</time>
      </trkpt>
      <trkpt lat="45.6593" lon="6.67344">
        <ele>2563</ele>
        <time>2022-07-16T12:53:00Z</time>
      </trkpt>
      <trkpt lat="45.65931" lon="6.67347">
        <ele>2563</ele>
        <time>2022-07-16T12:53:02Z</time>
      </trkpt>
      <trkpt lat="45.65932" lon="6.6735">
        <ele>2562</ele>
        <time>2022-07-16T12:53:04Z</time>
      </trkpt>
      <trkpt lat="45.65932" lon="6.67353">
        <ele>2561</ele>
        <time>2022-07-16T12:53:06Z</time>
      </trkpt>
      <trkpt lat="45.65934" lon="6.67356">
        <ele>2560</ele>
        <time>2022-07-16T12:53:08Z</time>
      </trkpt>
      <trkpt lat="45.65936" lon="6.67359">
        <ele>2560</ele>
        <time>2022-07-16T12:53:10Z</time>
      </trkpt>
      <trkpt lat="45.65936" lon="6.67363">
        <ele>2560</ele>
        <time>2022-07-16T12:53:11Z</time>
      </trkpt>
      <trkpt lat="45.65935" lon="6.67367">
        <ele>2560</ele>
        <time>2022-07-16T12:53:14Z</time>
      </trkpt>
      <trkpt lat="45.65936" lon="6.6737">
        <ele>2560</ele>
        <time>2022-07-16T12:53:16Z</time>
      </trkpt>
      <trkpt lat="45.65938" lon="6.67373">
        <ele>2559</ele>
        <time>2022-07-16T12:53:21Z</time>
      </trkpt>
      <trkpt lat="45.65939" lon="6.67376">
        <ele>2559</ele>
        <time>2022-07-16T12:53:23Z</time>
      </trkpt>
      <trkpt lat="45.65941" lon="6.67379">
        <ele>2559</ele>
        <time>2022-07-16T12:53:26Z</time>
      </trkpt>
      <trkpt lat="45.6594" lon="6.67383">
        <ele>2557</ele>
        <time>2022-07-16T12:53:29Z</time>
      </trkpt>
      <trkpt lat="45.6594" lon="6.67387">
        <ele>2557</ele>
        <time>2022-07-16T12:53:31Z</time>
      </trkpt>
      <trkpt lat="45.65939" lon="6.67391">
        <ele>2557</ele>
        <time>2022-07-16T12:53:33Z</time>
      </trkpt>
      <trkpt lat="45.65938" lon="6.67395">
        <ele>2556</ele>
        <time>2022-07-16T12:53:35Z</time>
      </trkpt>
      <trkpt lat="45.65938" lon="6.67399">
        <ele>2555</ele>
        <time>2022-07-16T12:53:37Z</time>
      </trkpt>
      <trkpt lat="45.65937" lon="6.67403">
        <ele>2554</ele>
        <time>2022-07-16T12:53:39Z</time>
      </trkpt>
      <trkpt lat="45.65937" lon="6.67407">
        <ele>2553</ele>
        <time>2022-07-16T12:53:41Z</time>
      </trkpt>
      <trkpt lat="45.65937" lon="6.6741">
        <ele>2552</ele>
        <time>2022-07-16T12:53:43Z</time>
      </trkpt>
      <trkpt lat="45.65936" lon="6.67414">
        <ele>2552</ele>
        <time>2022-07-16T12:53:45Z</time>
      </trkpt>
      <trkpt lat="45.65935" lon="6.67418">
        <ele>2551</ele>
        <time>2022-07-16T12:53:47Z</time>
      </trkpt>
      <trkpt lat="45.65934" lon="6.67422">
        <ele>2551</ele>
        <time>2022-07-16T12:53:49Z</time>
      </trkpt>
      <trkpt lat="45.65934" lon="6.67425">
        <ele>2551</ele>
        <time>2022-07-16T12:53:50Z</time>
      </trkpt>
      <trkpt lat="45.65934" lon="6.67427">
        <ele>2551</ele>
        <time>2022-07-16T12:53:51Z</time>
      </trkpt>
      <trkpt lat="45.65934" lon="6.67433">
        <ele>2550</ele>
        <time>2022-07-16T12:53:53Z</time>
      </trkpt>
      <trkpt lat="45.65934" lon="6.67436">
        <ele>2549</ele>
        <time>2022-07-16T12:53:54Z</time>
      </trkpt>
      <trkpt lat="45.65936" lon="6.6744">
        <ele>2549</ele>
        <time>2022-07-16T12:53:56Z</time>
      </trkpt>
      <trkpt lat="45.65937" lon="6.67444">
        <ele>2549</ele>
        <time>2022-07-16T12:53:58Z</time>
      </trkpt>
      <trkpt lat="45.65939" lon="6.67449">
        <ele>2549</ele>
        <time>2022-07-16T12:54:00Z</time>
      </trkpt>
      <trkpt lat="45.65939" lon="6.67453">
        <ele>2549</ele>
        <time>2022-07-16T12:54:02Z</time>
      </trkpt>
      <trkpt lat="45.65938" lon="6.67457">
        <ele>2549</ele>
        <time>2022-07-16T12:54:04Z</time>
      </trkpt>
      <trkpt lat="45.65937" lon="6.67461">
        <ele>2550</ele>
        <time>2022-07-16T12:54:07Z</time>
      </trkpt>
      <trkpt lat="45.65937" lon="6.67464">
        <ele>2550</ele>
        <time>2022-07-16T12:54:09Z</time>
      </trkpt>
      <trkpt lat="45.65935" lon="6.67469">
        <ele>2550</ele>
        <time>2022-07-16T12:54:11Z</time>
      </trkpt>
      <trkpt lat="45.65935" lon="6.67472">
        <ele>2550</ele>
        <time>2022-07-16T12:54:12Z</time>
      </trkpt>
      <trkpt lat="45.65934" lon="6.67476">
        <ele>2549</ele>
        <time>2022-07-16T12:54:14Z</time>
      </trkpt>
      <trkpt lat="45.65933" lon="6.67481">
        <ele>2549</ele>
        <time>2022-07-16T12:54:16Z</time>
      </trkpt>
      <trkpt lat="45.65932" lon="6.67485">
        <ele>2548</ele>
        <time>2022-07-16T12:54:18Z</time>
      </trkpt>
      <trkpt lat="45.65931" lon="6.6749">
        <ele>2548</ele>
        <time>2022-07-16T12:54:20Z</time>
      </trkpt>
      <trkpt lat="45.65931" lon="6.67492">
        <ele>2547</ele>
        <time>2022-07-16T12:54:22Z</time>
      </trkpt>
      <trkpt lat="45.6593" lon="6.67496">
        <ele>2545</ele>
        <time>2022-07-16T12:54:24Z</time>
      </trkpt>
      <trkpt lat="45.65929" lon="6.67501">
        <ele>2544</ele>
        <time>2022-07-16T12:54:26Z</time>
      </trkpt>
      <trkpt lat="45.65929" lon="6.67505">
        <ele>2544</ele>
        <time>2022-07-16T12:54:28Z</time>
      </trkpt>
      <trkpt lat="45.6593" lon="6.67509">
        <ele>2544</ele>
        <time>2022-07-16T12:54:30Z</time>
      </trkpt>
      <trkpt lat="45.65931" lon="6.67513">
        <ele>2544</ele>
        <time>2022-07-16T12:54:32Z</time>
      </trkpt>
      <trkpt lat="45.65931" lon="6.67518">
        <ele>2543</ele>
        <time>2022-07-16T12:54:34Z</time>
      </trkpt>
      <trkpt lat="45.65931" lon="6.67521">
        <ele>2543</ele>
        <time>2022-07-16T12:54:36Z</time>
      </trkpt>
      <trkpt lat="45.65934" lon="6.67524">
        <ele>2543</ele>
        <time>2022-07-16T12:54:39Z</time>
      </trkpt>
      <trkpt lat="45.65936" lon="6.67528">
        <ele>2543</ele>
        <time>2022-07-16T12:54:41Z</time>
      </trkpt>
      <trkpt lat="45.65936" lon="6.67533">
        <ele>2542</ele>
        <time>2022-07-16T12:54:43Z</time>
      </trkpt>
      <trkpt lat="45.65937" lon="6.67535">
        <ele>2541</ele>
        <time>2022-07-16T12:54:44Z</time>
      </trkpt>
      <trkpt lat="45.65937" lon="6.6754">
        <ele>2541</ele>
        <time>2022-07-16T12:54:46Z</time>
      </trkpt>
      <trkpt lat="45.65938" lon="6.67544">
        <ele>2541</ele>
        <time>2022-07-16T12:54:47Z</time>
      </trkpt>
      <trkpt lat="45.65938" lon="6.67548">
        <ele>2541</ele>
        <time>2022-07-16T12:54:50Z</time>
      </trkpt>
      <trkpt lat="45.65938" lon="6.67551">
        <ele>2541</ele>
        <time>2022-07-16T12:54:52Z</time>
      </trkpt>
      <trkpt lat="45.65939" lon="6.67554">
        <ele>2541</ele>
        <time>2022-07-16T12:54:54Z</time>
      </trkpt>
      <trkpt lat="45.6594" lon="6.67556">
        <ele>2541</ele>
        <time>2022-07-16T12:54:56Z</time>
      </trkpt>
      <trkpt lat="45.6594" lon="6.67559">
        <ele>2540</ele>
        <time>2022-07-16T12:54:58Z</time>
      </trkpt>
      <trkpt lat="45.6594" lon="6.67563">
        <ele>2540</ele>
        <time>2022-07-16T12:55:00Z</time>
      </trkpt>
      <trkpt lat="45.65941" lon="6.67567">
        <ele>2540</ele>
        <time>2022-07-16T12:55:02Z</time>
      </trkpt>
      <trkpt lat="45.65942" lon="6.6757">
        <ele>2540</ele>
        <time>2022-07-16T12:55:03Z</time>
      </trkpt>
      <trkpt lat="45.65942" lon="6.67573">
        <ele>2540</ele>
        <time>2022-07-16T12:55:05Z</time>
      </trkpt>
      <trkpt lat="45.6594" lon="6.67577">
        <ele>2540</ele>
        <time>2022-07-16T12:55:06Z</time>
      </trkpt>
      <trkpt lat="45.65939" lon="6.6758">
        <ele>2538</ele>
        <time>2022-07-16T12:55:09Z</time>
      </trkpt>
      <trkpt lat="45.65938" lon="6.67584">
        <ele>2538</ele>
        <time>2022-07-16T12:55:11Z</time>
      </trkpt>
      <trkpt lat="45.65938" lon="6.67587">
        <ele>2537</ele>
        <time>2022-07-16T12:55:13Z</time>
      </trkpt>
      <trkpt lat="45.65935" lon="6.6759">
        <ele>2538</ele>
        <time>2022-07-16T12:55:15Z</time>
      </trkpt>
      <trkpt lat="45.65933" lon="6.67592">
        <ele>2538</ele>
        <time>2022-07-16T12:55:16Z</time>
      </trkpt>
      <trkpt lat="45.65932" lon="6.67594">
        <ele>2539</ele>
        <time>2022-07-16T12:55:18Z</time>
      </trkpt>
      <trkpt lat="45.6593" lon="6.67598">
        <ele>2540</ele>
        <time>2022-07-16T12:55:20Z</time>
      </trkpt>
      <trkpt lat="45.65928" lon="6.67601">
        <ele>2539</ele>
        <time>2022-07-16T12:55:22Z</time>
      </trkpt>
      <trkpt lat="45.65926" lon="6.67604">
        <ele>2539</ele>
        <time>2022-07-16T12:55:24Z</time>
      </trkpt>
      <trkpt lat="45.65925" lon="6.67607">
        <ele>2540</ele>
        <time>2022-07-16T12:55:26Z</time>
      </trkpt>
      <trkpt lat="45.65924" lon="6.67612">
        <ele>2540</ele>
        <time>2022-07-16T12:55:28Z</time>
      </trkpt>
      <trkpt lat="45.65924" lon="6.67615">
        <ele>2539</ele>
        <time>2022-07-16T12:55:29Z</time>
      </trkpt>
      <trkpt lat="45.65924" lon="6.67618">
        <ele>2539</ele>
        <time>2022-07-16T12:55:30Z</time>
      </trkpt>
      <trkpt lat="45.65924" lon="6.67621">
        <ele>2538</ele>
        <time>2022-07-16T12:55:31Z</time>
      </trkpt>
      <trkpt lat="45.65923" lon="6.67624">
        <ele>2538</ele>
        <time>2022-07-16T12:55:32Z</time>
      </trkpt>
      <trkpt lat="45.65922" lon="6.67626">
        <ele>2538</ele>
        <time>2022-07-16T12:55:33Z</time>
      </trkpt>
      <trkpt lat="45.6592" lon="6.67629">
        <ele>2538</ele>
        <time>2022-07-16T12:55:35Z</time>
      </trkpt>
      <trkpt lat="45.65918" lon="6.67632">
        <ele>2538</ele>
        <time>2022-07-16T12:55:37Z</time>
      </trkpt>
      <trkpt lat="45.65916" lon="6.67634">
        <ele>2539</ele>
        <time>2022-07-16T12:55:39Z</time>
      </trkpt>
      <trkpt lat="45.65915" lon="6.67637">
        <ele>2539</ele>
        <time>2022-07-16T12:55:41Z</time>
      </trkpt>
      <trkpt lat="45.65913" lon="6.67641">
        <ele>2539</ele>
        <time>2022-07-16T12:55:43Z</time>
      </trkpt>
      <trkpt lat="45.65912" lon="6.67645">
        <ele>2539</ele>
        <time>2022-07-16T12:55:44Z</time>
      </trkpt>
      <trkpt lat="45.65911" lon="6.67648">
        <ele>2539</ele>
        <time>2022-07-16T12:55:46Z</time>
      </trkpt>
      <trkpt lat="45.6591" lon="6.6765">
        <ele>2539</ele>
        <time>2022-07-16T12:55:47Z</time>
      </trkpt>
      <trkpt lat="45.65909" lon="6.67653">
        <ele>2539</ele>
        <time>2022-07-16T12:55:48Z</time>
      </trkpt>
      <trkpt lat="45.65908" lon="6.67656">
        <ele>2539</ele>
        <time>2022-07-16T12:55:49Z</time>
      </trkpt>
      <trkpt lat="45.65907" lon="6.67658">
        <ele>2538</ele>
        <time>2022-07-16T12:55:50Z</time>
      </trkpt>
      <trkpt lat="45.65906" lon="6.6766">
        <ele>2538</ele>
        <time>2022-07-16T12:55:51Z</time>
      </trkpt>
      <trkpt lat="45.65905" lon="6.67663">
        <ele>2538</ele>
        <time>2022-07-16T12:55:52Z</time>
      </trkpt>
      <trkpt lat="45.65905" lon="6.67666">
        <ele>2538</ele>
        <time>2022-07-16T12:55:53Z</time>
      </trkpt>
      <trkpt lat="45.65904" lon="6.6767">
        <ele>2538</ele>
        <time>2022-07-16T12:55:55Z</time>
      </trkpt>
      <trkpt lat="45.65903" lon="6.67675">
        <ele>2538</ele>
        <time>2022-07-16T12:55:57Z</time>
      </trkpt>
      <trkpt lat="45.65903" lon="6.67679">
        <ele>2539</ele>
        <time>2022-07-16T12:55:59Z</time>
      </trkpt>
      <trkpt lat="45.65903" lon="6.67684">
        <ele>2539</ele>
        <time>2022-07-16T12:56:01Z</time>
      </trkpt>
      <trkpt lat="45.65902" lon="6.67687">
        <ele>2539</ele>
        <time>2022-07-16T12:56:02Z</time>
      </trkpt>
      <trkpt lat="45.65902" lon="6.67692">
        <ele>2539</ele>
        <time>2022-07-16T12:56:04Z</time>
      </trkpt>
      <trkpt lat="45.65901" lon="6.67695">
        <ele>2539</ele>
        <time>2022-07-16T12:56:05Z</time>
      </trkpt>
      <trkpt lat="45.659" lon="6.677">
        <ele>2539</ele>
        <time>2022-07-16T12:56:07Z</time>
      </trkpt>
      <trkpt lat="45.65899" lon="6.67702">
        <ele>2539</ele>
        <time>2022-07-16T12:56:08Z</time>
      </trkpt>
      <trkpt lat="45.65899" lon="6.67707">
        <ele>2539</ele>
        <time>2022-07-16T12:56:10Z</time>
      </trkpt>
      <trkpt lat="45.65899" lon="6.67712">
        <ele>2539</ele>
        <time>2022-07-16T12:56:12Z</time>
      </trkpt>
      <trkpt lat="45.659" lon="6.67716">
        <ele>2539</ele>
        <time>2022-07-16T12:56:14Z</time>
      </trkpt>
      <trkpt lat="45.659" lon="6.67719">
        <ele>2538</ele>
        <time>2022-07-16T12:56:15Z</time>
      </trkpt>
      <trkpt lat="45.65901" lon="6.67722">
        <ele>2538</ele>
        <time>2022-07-16T12:56:16Z</time>
      </trkpt>
      <trkpt lat="45.65903" lon="6.67726">
        <ele>2539</ele>
        <time>2022-07-16T12:56:18Z</time>
      </trkpt>
      <trkpt lat="45.65905" lon="6.6773">
        <ele>2539</ele>
        <time>2022-07-16T12:56:20Z</time>
      </trkpt>
      <trkpt lat="45.65906" lon="6.67732">
        <ele>2539</ele>
        <time>2022-07-16T12:56:21Z</time>
      </trkpt>
      <trkpt lat="45.65907" lon="6.67736">
        <ele>2539</ele>
        <time>2022-07-16T12:56:22Z</time>
      </trkpt>
      <trkpt lat="45.65908" lon="6.6774">
        <ele>2539</ele>
        <time>2022-07-16T12:56:25Z</time>
      </trkpt>
      <trkpt lat="45.6591" lon="6.67743">
        <ele>2539</ele>
        <time>2022-07-16T12:56:27Z</time>
      </trkpt>
      <trkpt lat="45.65913" lon="6.67746">
        <ele>2537</ele>
        <time>2022-07-16T12:56:29Z</time>
      </trkpt>
      <trkpt lat="45.65915" lon="6.6775">
        <ele>2537</ele>
        <time>2022-07-16T12:56:31Z</time>
      </trkpt>
      <trkpt lat="45.65916" lon="6.67752">
        <ele>2537</ele>
        <time>2022-07-16T12:56:32Z</time>
      </trkpt>
      <trkpt lat="45.65918" lon="6.67754">
        <ele>2537</ele>
        <time>2022-07-16T12:56:33Z</time>
      </trkpt>
      <trkpt lat="45.65919" lon="6.67755">
        <ele>2537</ele>
        <time>2022-07-16T12:56:34Z</time>
      </trkpt>
      <trkpt lat="45.65921" lon="6.67757">
        <ele>2537</ele>
        <time>2022-07-16T12:56:35Z</time>
      </trkpt>
      <trkpt lat="45.65922" lon="6.67759">
        <ele>2536</ele>
        <time>2022-07-16T12:56:36Z</time>
      </trkpt>
      <trkpt lat="45.65924" lon="6.67761">
        <ele>2536</ele>
        <time>2022-07-16T12:56:37Z</time>
      </trkpt>
      <trkpt lat="45.65926" lon="6.67765">
        <ele>2536</ele>
        <time>2022-07-16T12:56:39Z</time>
      </trkpt>
      <trkpt lat="45.65927" lon="6.67768">
        <ele>2536</ele>
        <time>2022-07-16T12:56:40Z</time>
      </trkpt>
      <trkpt lat="45.65928" lon="6.67772">
        <ele>2536</ele>
        <time>2022-07-16T12:56:42Z</time>
      </trkpt>
      <trkpt lat="45.6593" lon="6.67776">
        <ele>2535</ele>
        <time>2022-07-16T12:56:44Z</time>
      </trkpt>
      <trkpt lat="45.65932" lon="6.67779">
        <ele>2535</ele>
        <time>2022-07-16T12:56:46Z</time>
      </trkpt>
      <trkpt lat="45.65934" lon="6.67784">
        <ele>2535</ele>
        <time>2022-07-16T12:56:48Z</time>
      </trkpt>
      <trkpt lat="45.65935" lon="6.67787">
        <ele>2533</ele>
        <time>2022-07-16T12:56:50Z</time>
      </trkpt>
      <trkpt lat="45.65937" lon="6.67789">
        <ele>2533</ele>
        <time>2022-07-16T12:56:51Z</time>
      </trkpt>
      <trkpt lat="45.65938" lon="6.67793">
        <ele>2533</ele>
        <time>2022-07-16T12:56:53Z</time>
      </trkpt>
      <trkpt lat="45.65939" lon="6.67798">
        <ele>2532</ele>
        <time>2022-07-16T12:56:55Z</time>
      </trkpt>
      <trkpt lat="45.65939" lon="6.678">
        <ele>2532</ele>
        <time>2022-07-16T12:56:56Z</time>
      </trkpt>
      <trkpt lat="45.65941" lon="6.67805">
        <ele>2532</ele>
        <time>2022-07-16T12:56:58Z</time>
      </trkpt>
      <trkpt lat="45.65943" lon="6.67809">
        <ele>2531</ele>
        <time>2022-07-16T12:57:00Z</time>
      </trkpt>
      <trkpt lat="45.65944" lon="6.67813">
        <ele>2531</ele>
        <time>2022-07-16T12:57:02Z</time>
      </trkpt>
      <trkpt lat="45.65945" lon="6.67817">
        <ele>2531</ele>
        <time>2022-07-16T12:57:04Z</time>
      </trkpt>
      <trkpt lat="45.65947" lon="6.67821">
        <ele>2530</ele>
        <time>2022-07-16T12:57:06Z</time>
      </trkpt>
      <trkpt lat="45.65949" lon="6.67823">
        <ele>2530</ele>
        <time>2022-07-16T12:57:07Z</time>
      </trkpt>
      <trkpt lat="45.65951" lon="6.67827">
        <ele>2530</ele>
        <time>2022-07-16T12:57:09Z</time>
      </trkpt>
      <trkpt lat="45.65953" lon="6.6783">
        <ele>2529</ele>
        <time>2022-07-16T12:57:11Z</time>
      </trkpt>
      <trkpt lat="45.65954" lon="6.67834">
        <ele>2529</ele>
        <time>2022-07-16T12:57:13Z</time>
      </trkpt>
      <trkpt lat="45.65956" lon="6.67838">
        <ele>2528</ele>
        <time>2022-07-16T12:57:15Z</time>
      </trkpt>
      <trkpt lat="45.65958" lon="6.67842">
        <ele>2527</ele>
        <time>2022-07-16T12:57:17Z</time>
      </trkpt>
      <trkpt lat="45.65959" lon="6.67845">
        <ele>2527</ele>
        <time>2022-07-16T12:57:19Z</time>
      </trkpt>
      <trkpt lat="45.6596" lon="6.67848">
        <ele>2526</ele>
        <time>2022-07-16T12:57:21Z</time>
      </trkpt>
      <trkpt lat="45.65962" lon="6.67851">
        <ele>2526</ele>
        <time>2022-07-16T12:57:23Z</time>
      </trkpt>
      <trkpt lat="45.65965" lon="6.67853">
        <ele>2526</ele>
        <time>2022-07-16T12:57:25Z</time>
      </trkpt>
      <trkpt lat="45.65966" lon="6.67857">
        <ele>2525</ele>
        <time>2022-07-16T12:57:27Z</time>
      </trkpt>
      <trkpt lat="45.65966" lon="6.6786">
        <ele>2523</ele>
        <time>2022-07-16T12:57:29Z</time>
      </trkpt>
      <trkpt lat="45.65967" lon="6.67862">
        <ele>2523</ele>
        <time>2022-07-16T12:57:31Z</time>
      </trkpt>
      <trkpt lat="45.65968" lon="6.67865">
        <ele>2522</ele>
        <time>2022-07-16T12:57:33Z</time>
      </trkpt>
      <trkpt lat="45.65969" lon="6.67866">
        <ele>2520</ele>
        <time>2022-07-16T12:57:35Z</time>
      </trkpt>
      <trkpt lat="45.65971" lon="6.67869">
        <ele>2520</ele>
        <time>2022-07-16T12:57:37Z</time>
      </trkpt>
      <trkpt lat="45.65972" lon="6.67872">
        <ele>2520</ele>
        <time>2022-07-16T12:57:38Z</time>
      </trkpt>
      <trkpt lat="45.65974" lon="6.67873">
        <ele>2518</ele>
        <time>2022-07-16T12:57:41Z</time>
      </trkpt>
      <trkpt lat="45.65976" lon="6.67874">
        <ele>2518</ele>
        <time>2022-07-16T12:57:42Z</time>
      </trkpt>
      <trkpt lat="45.65978" lon="6.67875">
        <ele>2518</ele>
        <time>2022-07-16T12:57:44Z</time>
      </trkpt>
      <trkpt lat="45.65979" lon="6.67878">
        <ele>2518</ele>
        <time>2022-07-16T12:57:46Z</time>
      </trkpt>
      <trkpt lat="45.65981" lon="6.67881">
        <ele>2518</ele>
        <time>2022-07-16T12:57:48Z</time>
      </trkpt>
      <trkpt lat="45.65982" lon="6.67884">
        <ele>2519</ele>
        <time>2022-07-16T12:57:50Z</time>
      </trkpt>
      <trkpt lat="45.65984" lon="6.67886">
        <ele>2519</ele>
        <time>2022-07-16T12:57:51Z</time>
      </trkpt>
      <trkpt lat="45.65985" lon="6.67888">
        <ele>2518</ele>
        <time>2022-07-16T12:57:53Z</time>
      </trkpt>
      <trkpt lat="45.65987" lon="6.67889">
        <ele>2517</ele>
        <time>2022-07-16T12:57:56Z</time>
      </trkpt>
      <trkpt lat="45.65988" lon="6.67892">
        <ele>2517</ele>
        <time>2022-07-16T12:57:58Z</time>
      </trkpt>
      <trkpt lat="45.65988" lon="6.67896">
        <ele>2515</ele>
        <time>2022-07-16T12:58:00Z</time>
      </trkpt>
      <trkpt lat="45.65989" lon="6.67899">
        <ele>2515</ele>
        <time>2022-07-16T12:58:02Z</time>
      </trkpt>
      <trkpt lat="45.6599" lon="6.67902">
        <ele>2515</ele>
        <time>2022-07-16T12:58:04Z</time>
      </trkpt>
      <trkpt lat="45.65991" lon="6.67904">
        <ele>2515</ele>
        <time>2022-07-16T12:58:06Z</time>
      </trkpt>
      <trkpt lat="45.65992" lon="6.67906">
        <ele>2513</ele>
        <time>2022-07-16T12:58:08Z</time>
      </trkpt>
      <trkpt lat="45.65994" lon="6.6791">
        <ele>2513</ele>
        <time>2022-07-16T12:58:10Z</time>
      </trkpt>
      <trkpt lat="45.65996" lon="6.67914">
        <ele>2512</ele>
        <time>2022-07-16T12:58:12Z</time>
      </trkpt>
      <trkpt lat="45.65998" lon="6.67918">
        <ele>2512</ele>
        <time>2022-07-16T12:58:14Z</time>
      </trkpt>
      <trkpt lat="45.66001" lon="6.67919">
        <ele>2512</ele>
        <time>2022-07-16T12:58:16Z</time>
      </trkpt>
      <trkpt lat="45.66004" lon="6.67922">
        <ele>2512</ele>
        <time>2022-07-16T12:58:18Z</time>
      </trkpt>
      <trkpt lat="45.66005" lon="6.67926">
        <ele>2511</ele>
        <time>2022-07-16T12:58:20Z</time>
      </trkpt>
      <trkpt lat="45.66006" lon="6.67927">
        <ele>2511</ele>
        <time>2022-07-16T12:58:21Z</time>
      </trkpt>
      <trkpt lat="45.66007" lon="6.67928">
        <ele>2511</ele>
        <time>2022-07-16T12:58:22Z</time>
      </trkpt>
      <trkpt lat="45.66008" lon="6.67929">
        <ele>2510</ele>
        <time>2022-07-16T12:58:23Z</time>
      </trkpt>
      <trkpt lat="45.6601" lon="6.6793">
        <ele>2510</ele>
        <time>2022-07-16T12:58:24Z</time>
      </trkpt>
      <trkpt lat="45.66013" lon="6.67933">
        <ele>2510</ele>
        <time>2022-07-16T12:58:26Z</time>
      </trkpt>
      <trkpt lat="45.66015" lon="6.67934">
        <ele>2510</ele>
        <time>2022-07-16T12:58:27Z</time>
      </trkpt>
      <trkpt lat="45.66016" lon="6.67936">
        <ele>2510</ele>
        <time>2022-07-16T12:58:29Z</time>
      </trkpt>
      <trkpt lat="45.66018" lon="6.67938">
        <ele>2508</ele>
        <time>2022-07-16T12:58:31Z</time>
      </trkpt>
      <trkpt lat="45.66021" lon="6.6794">
        <ele>2507</ele>
        <time>2022-07-16T12:58:33Z</time>
      </trkpt>
      <trkpt lat="45.66023" lon="6.67941">
        <ele>2507</ele>
        <time>2022-07-16T12:58:34Z</time>
      </trkpt>
      <trkpt lat="45.66024" lon="6.67943">
        <ele>2507</ele>
        <time>2022-07-16T12:58:35Z</time>
      </trkpt>
      <trkpt lat="45.66027" lon="6.67946">
        <ele>2507</ele>
        <time>2022-07-16T12:58:37Z</time>
      </trkpt>
      <trkpt lat="45.66028" lon="6.67947">
        <ele>2506</ele>
        <time>2022-07-16T12:58:38Z</time>
      </trkpt>
      <trkpt lat="45.66029" lon="6.67949">
        <ele>2506</ele>
        <time>2022-07-16T12:58:39Z</time>
      </trkpt>
      <trkpt lat="45.6603" lon="6.6795">
        <ele>2505</ele>
        <time>2022-07-16T12:58:40Z</time>
      </trkpt>
      <trkpt lat="45.66032" lon="6.67953">
        <ele>2505</ele>
        <time>2022-07-16T12:58:42Z</time>
      </trkpt>
      <trkpt lat="45.66033" lon="6.67957">
        <ele>2504</ele>
        <time>2022-07-16T12:58:44Z</time>
      </trkpt>
      <trkpt lat="45.66035" lon="6.67959">
        <ele>2503</ele>
        <time>2022-07-16T12:58:46Z</time>
      </trkpt>
      <trkpt lat="45.66036" lon="6.6796">
        <ele>2503</ele>
        <time>2022-07-16T12:58:49Z</time>
      </trkpt>
      <trkpt lat="45.66039" lon="6.67962">
        <ele>2502</ele>
        <time>2022-07-16T12:58:53Z</time>
      </trkpt>
      <trkpt lat="45.66041" lon="6.67963">
        <ele>2502</ele>
        <time>2022-07-16T12:58:55Z</time>
      </trkpt>
      <trkpt lat="45.66042" lon="6.67966">
        <ele>2500</ele>
        <time>2022-07-16T12:58:57Z</time>
      </trkpt>
      <trkpt lat="45.66044" lon="6.67968">
        <ele>2500</ele>
        <time>2022-07-16T12:58:59Z</time>
      </trkpt>
      <trkpt lat="45.66047" lon="6.67968">
        <ele>2500</ele>
        <time>2022-07-16T12:59:02Z</time>
      </trkpt>
      <trkpt lat="45.66049" lon="6.67969">
        <ele>2499</ele>
        <time>2022-07-16T12:59:04Z</time>
      </trkpt>
      <trkpt lat="45.66051" lon="6.67971">
        <ele>2499</ele>
        <time>2022-07-16T12:59:06Z</time>
      </trkpt>
      <trkpt lat="45.66054" lon="6.67972">
        <ele>2499</ele>
        <time>2022-07-16T12:59:08Z</time>
      </trkpt>
      <trkpt lat="45.66055" lon="6.67973">
        <ele>2499</ele>
        <time>2022-07-16T12:59:10Z</time>
      </trkpt>
      <trkpt lat="45.66057" lon="6.67976">
        <ele>2499</ele>
        <time>2022-07-16T12:59:12Z</time>
      </trkpt>
      <trkpt lat="45.66059" lon="6.67978">
        <ele>2499</ele>
        <time>2022-07-16T12:59:13Z</time>
      </trkpt>
      <trkpt lat="45.6606" lon="6.67981">
        <ele>2499</ele>
        <time>2022-07-16T12:59:16Z</time>
      </trkpt>
      <trkpt lat="45.66063" lon="6.67983">
        <ele>2498</ele>
        <time>2022-07-16T12:59:18Z</time>
      </trkpt>
      <trkpt lat="45.66064" lon="6.67985">
        <ele>2496</ele>
        <time>2022-07-16T12:59:19Z</time>
      </trkpt>
      <trkpt lat="45.66066" lon="6.67986">
        <ele>2495</ele>
        <time>2022-07-16T12:59:20Z</time>
      </trkpt>
      <trkpt lat="45.66069" lon="6.67988">
        <ele>2495</ele>
        <time>2022-07-16T12:59:22Z</time>
      </trkpt>
      <trkpt lat="45.66071" lon="6.67989">
        <ele>2494</ele>
        <time>2022-07-16T12:59:23Z</time>
      </trkpt>
      <trkpt lat="45.66074" lon="6.6799">
        <ele>2494</ele>
        <time>2022-07-16T12:59:25Z</time>
      </trkpt>
      <trkpt lat="45.66075" lon="6.67991">
        <ele>2494</ele>
        <time>2022-07-16T12:59:26Z</time>
      </trkpt>
      <trkpt lat="45.66078" lon="6.67995">
        <ele>2493</ele>
        <time>2022-07-16T12:59:28Z</time>
      </trkpt>
      <trkpt lat="45.66079" lon="6.67998">
        <ele>2493</ele>
        <time>2022-07-16T12:59:30Z</time>
      </trkpt>
      <trkpt lat="45.6608" lon="6.68002">
        <ele>2492</ele>
        <time>2022-07-16T12:59:32Z</time>
      </trkpt>
      <trkpt lat="45.66081" lon="6.68004">
        <ele>2492</ele>
        <time>2022-07-16T12:59:33Z</time>
      </trkpt>
      <trkpt lat="45.66083" lon="6.68006">
        <ele>2491</ele>
        <time>2022-07-16T12:59:34Z</time>
      </trkpt>
      <trkpt lat="45.66084" lon="6.68007">
        <ele>2491</ele>
        <time>2022-07-16T12:59:35Z</time>
      </trkpt>
      <trkpt lat="45.66086" lon="6.68009">
        <ele>2491</ele>
        <time>2022-07-16T12:59:36Z</time>
      </trkpt>
      <trkpt lat="45.66087" lon="6.68011">
        <ele>2491</ele>
        <time>2022-07-16T12:59:37Z</time>
      </trkpt>
      <trkpt lat="45.66087" lon="6.68014">
        <ele>2491</ele>
        <time>2022-07-16T12:59:39Z</time>
      </trkpt>
      <trkpt lat="45.6609" lon="6.68017">
        <ele>2492</ele>
        <time>2022-07-16T12:59:43Z</time>
      </trkpt>
      <trkpt lat="45.66092" lon="6.68018">
        <ele>2492</ele>
        <time>2022-07-16T12:59:45Z</time>
      </trkpt>
      <trkpt lat="45.66094" lon="6.68019">
        <ele>2492</ele>
        <time>2022-07-16T12:59:48Z</time>
      </trkpt>
      <trkpt lat="45.66095" lon="6.68022">
        <ele>2492</ele>
        <time>2022-07-16T12:59:51Z</time>
      </trkpt>
      <trkpt lat="45.66097" lon="6.68025">
        <ele>2491</ele>
        <time>2022-07-16T12:59:53Z</time>
      </trkpt>
      <trkpt lat="45.66099" lon="6.68027">
        <ele>2490</ele>
        <time>2022-07-16T12:59:55Z</time>
      </trkpt>
      <trkpt lat="45.661" lon="6.68029">
        <ele>2490</ele>
        <time>2022-07-16T12:59:57Z</time>
      </trkpt>
      <trkpt lat="45.66102" lon="6.68033">
        <ele>2489</ele>
        <time>2022-07-16T12:59:59Z</time>
      </trkpt>
      <trkpt lat="45.66104" lon="6.68037">
        <ele>2489</ele>
        <time>2022-07-16T13:00:00Z</time>
      </trkpt>
      <trkpt lat="45.66105" lon="6.68041">
        <ele>2489</ele>
        <time>2022-07-16T13:00:03Z</time>
      </trkpt>
      <trkpt lat="45.66108" lon="6.68042">
        <ele>2488</ele>
        <time>2022-07-16T13:00:05Z</time>
      </trkpt>
      <trkpt lat="45.6611" lon="6.68045">
        <ele>2488</ele>
        <time>2022-07-16T13:00:07Z</time>
      </trkpt>
      <trkpt lat="45.66113" lon="6.68046">
        <ele>2488</ele>
        <time>2022-07-16T13:00:08Z</time>
      </trkpt>
      <trkpt lat="45.66114" lon="6.68047">
        <ele>2487</ele>
        <time>2022-07-16T13:00:09Z</time>
      </trkpt>
      <trkpt lat="45.66116" lon="6.68048">
        <ele>2487</ele>
        <time>2022-07-16T13:00:10Z</time>
      </trkpt>
      <trkpt lat="45.66119" lon="6.68049">
        <ele>2487</ele>
        <time>2022-07-16T13:00:12Z</time>
      </trkpt>
      <trkpt lat="45.66122" lon="6.6805">
        <ele>2487</ele>
        <time>2022-07-16T13:00:13Z</time>
      </trkpt>
      <trkpt lat="45.66124" lon="6.68051">
        <ele>2487</ele>
        <time>2022-07-16T13:00:14Z</time>
      </trkpt>
      <trkpt lat="45.66125" lon="6.68052">
        <ele>2487</ele>
        <time>2022-07-16T13:00:15Z</time>
      </trkpt>
      <trkpt lat="45.66126" lon="6.68053">
        <ele>2487</ele>
        <time>2022-07-16T13:00:16Z</time>
      </trkpt>
      <trkpt lat="45.66126" lon="6.68054">
        <ele>2487</ele>
        <time>2022-07-16T13:00:17Z</time>
      </trkpt>
      <trkpt lat="45.66127" lon="6.68055">
        <ele>2487</ele>
        <time>2022-07-16T13:00:18Z</time>
      </trkpt>
      <trkpt lat="45.66128" lon="6.68056">
        <ele>2487</ele>
        <time>2022-07-16T13:00:19Z</time>
      </trkpt>
      <trkpt lat="45.66133" lon="6.68061">
        <ele>2486</ele>
        <time>2022-07-16T13:00:20Z</time>
      </trkpt>
      <trkpt lat="45.66136" lon="6.68064">
        <ele>2486</ele>
        <time>2022-07-16T13:00:21Z</time>
      </trkpt>
      <trkpt lat="45.66137" lon="6.68066">
        <ele>2486</ele>
        <time>2022-07-16T13:00:22Z</time>
      </trkpt>
      <trkpt lat="45.66138" lon="6.68068">
        <ele>2486</ele>
        <time>2022-07-16T13:00:23Z</time>
      </trkpt>
      <trkpt lat="45.66142" lon="6.6807">
        <ele>2486</ele>
        <time>2022-07-16T13:00:25Z</time>
      </trkpt>
      <trkpt lat="45.66144" lon="6.68072">
        <ele>2486</ele>
        <time>2022-07-16T13:00:27Z</time>
      </trkpt>
      <trkpt lat="45.66147" lon="6.68073">
        <ele>2484</ele>
        <time>2022-07-16T13:00:29Z</time>
      </trkpt>
      <trkpt lat="45.66149" lon="6.68075">
        <ele>2484</ele>
        <time>2022-07-16T13:00:31Z</time>
      </trkpt>
      <trkpt lat="45.66152" lon="6.68078">
        <ele>2483</ele>
        <time>2022-07-16T13:00:33Z</time>
      </trkpt>
      <trkpt lat="45.66154" lon="6.6808">
        <ele>2483</ele>
        <time>2022-07-16T13:00:35Z</time>
      </trkpt>
      <trkpt lat="45.66154" lon="6.68084">
        <ele>2482</ele>
        <time>2022-07-16T13:00:37Z</time>
      </trkpt>
      <trkpt lat="45.66153" lon="6.68088">
        <ele>2482</ele>
        <time>2022-07-16T13:00:39Z</time>
      </trkpt>
      <trkpt lat="45.66153" lon="6.68091">
        <ele>2482</ele>
        <time>2022-07-16T13:00:41Z</time>
      </trkpt>
      <trkpt lat="45.66154" lon="6.68095">
        <ele>2482</ele>
        <time>2022-07-16T13:00:43Z</time>
      </trkpt>
      <trkpt lat="45.66156" lon="6.68099">
        <ele>2482</ele>
        <time>2022-07-16T13:00:45Z</time>
      </trkpt>
      <trkpt lat="45.66158" lon="6.68103">
        <ele>2482</ele>
        <time>2022-07-16T13:00:47Z</time>
      </trkpt>
      <trkpt lat="45.6616" lon="6.68106">
        <ele>2482</ele>
        <time>2022-07-16T13:00:48Z</time>
      </trkpt>
      <trkpt lat="45.66162" lon="6.68109">
        <ele>2480</ele>
        <time>2022-07-16T13:00:51Z</time>
      </trkpt>
      <trkpt lat="45.66164" lon="6.68111">
        <ele>2479</ele>
        <time>2022-07-16T13:00:53Z</time>
      </trkpt>
      <trkpt lat="45.66166" lon="6.68115">
        <ele>2477</ele>
        <time>2022-07-16T13:00:55Z</time>
      </trkpt>
      <trkpt lat="45.66167" lon="6.68118">
        <ele>2477</ele>
        <time>2022-07-16T13:00:56Z</time>
      </trkpt>
      <trkpt lat="45.6617" lon="6.68121">
        <ele>2477</ele>
        <time>2022-07-16T13:00:58Z</time>
      </trkpt>
      <trkpt lat="45.66173" lon="6.68124">
        <ele>2476</ele>
        <time>2022-07-16T13:01:00Z</time>
      </trkpt>
      <trkpt lat="45.66174" lon="6.68125">
        <ele>2476</ele>
        <time>2022-07-16T13:01:01Z</time>
      </trkpt>
      <trkpt lat="45.66178" lon="6.68126">
        <ele>2476</ele>
        <time>2022-07-16T13:01:04Z</time>
      </trkpt>
      <trkpt lat="45.6618" lon="6.68126">
        <ele>2476</ele>
        <time>2022-07-16T13:01:06Z</time>
      </trkpt>
      <trkpt lat="45.66183" lon="6.68127">
        <ele>2476</ele>
        <time>2022-07-16T13:01:08Z</time>
      </trkpt>
      <trkpt lat="45.66184" lon="6.6813">
        <ele>2476</ele>
        <time>2022-07-16T13:01:10Z</time>
      </trkpt>
      <trkpt lat="45.66187" lon="6.68132">
        <ele>2476</ele>
        <time>2022-07-16T13:01:12Z</time>
      </trkpt>
      <trkpt lat="45.66189" lon="6.68134">
        <ele>2475</ele>
        <time>2022-07-16T13:01:13Z</time>
      </trkpt>
      <trkpt lat="45.6619" lon="6.68138">
        <ele>2474</ele>
        <time>2022-07-16T13:01:15Z</time>
      </trkpt>
      <trkpt lat="45.66192" lon="6.68143">
        <ele>2474</ele>
        <time>2022-07-16T13:01:17Z</time>
      </trkpt>
      <trkpt lat="45.66193" lon="6.68147">
        <ele>2472</ele>
        <time>2022-07-16T13:01:19Z</time>
      </trkpt>
      <trkpt lat="45.66194" lon="6.68152">
        <ele>2472</ele>
        <time>2022-07-16T13:01:21Z</time>
      </trkpt>
      <trkpt lat="45.66193" lon="6.68157">
        <ele>2471</ele>
        <time>2022-07-16T13:01:23Z</time>
      </trkpt>
      <trkpt lat="45.66194" lon="6.6816">
        <ele>2471</ele>
        <time>2022-07-16T13:01:24Z</time>
      </trkpt>
      <trkpt lat="45.66194" lon="6.68165">
        <ele>2471</ele>
        <time>2022-07-16T13:01:26Z</time>
      </trkpt>
      <trkpt lat="45.66196" lon="6.68169">
        <ele>2471</ele>
        <time>2022-07-16T13:01:28Z</time>
      </trkpt>
      <trkpt lat="45.66196" lon="6.68174">
        <ele>2471</ele>
        <time>2022-07-16T13:01:30Z</time>
      </trkpt>
      <trkpt lat="45.66197" lon="6.68176">
        <ele>2470</ele>
        <time>2022-07-16T13:01:31Z</time>
      </trkpt>
      <trkpt lat="45.66198" lon="6.68178">
        <ele>2470</ele>
        <time>2022-07-16T13:01:32Z</time>
      </trkpt>
      <trkpt lat="45.66198" lon="6.68181">
        <ele>2470</ele>
        <time>2022-07-16T13:01:33Z</time>
      </trkpt>
      <trkpt lat="45.66199" lon="6.68183">
        <ele>2470</ele>
        <time>2022-07-16T13:01:34Z</time>
      </trkpt>
      <trkpt lat="45.66199" lon="6.68185">
        <ele>2469</ele>
        <time>2022-07-16T13:01:35Z</time>
      </trkpt>
      <trkpt lat="45.66201" lon="6.68187">
        <ele>2469</ele>
        <time>2022-07-16T13:01:36Z</time>
      </trkpt>
      <trkpt lat="45.66202" lon="6.6819">
        <ele>2469</ele>
        <time>2022-07-16T13:01:37Z</time>
      </trkpt>
      <trkpt lat="45.66204" lon="6.68193">
        <ele>2469</ele>
        <time>2022-07-16T13:01:38Z</time>
      </trkpt>
      <trkpt lat="45.66205" lon="6.68195">
        <ele>2469</ele>
        <time>2022-07-16T13:01:39Z</time>
      </trkpt>
      <trkpt lat="45.66207" lon="6.68196">
        <ele>2468</ele>
        <time>2022-07-16T13:01:40Z</time>
      </trkpt>
      <trkpt lat="45.6621" lon="6.682">
        <ele>2468</ele>
        <time>2022-07-16T13:01:42Z</time>
      </trkpt>
      <trkpt lat="45.66211" lon="6.68203">
        <ele>2468</ele>
        <time>2022-07-16T13:01:43Z</time>
      </trkpt>
      <trkpt lat="45.66213" lon="6.68205">
        <ele>2468</ele>
        <time>2022-07-16T13:01:44Z</time>
      </trkpt>
      <trkpt lat="45.66215" lon="6.6821">
        <ele>2468</ele>
        <time>2022-07-16T13:01:45Z</time>
      </trkpt>
      <trkpt lat="45.66216" lon="6.68213">
        <ele>2468</ele>
        <time>2022-07-16T13:01:47Z</time>
      </trkpt>
      <trkpt lat="45.66217" lon="6.68215">
        <ele>2468</ele>
        <time>2022-07-16T13:01:48Z</time>
      </trkpt>
      <trkpt lat="45.66218" lon="6.68218">
        <ele>2468</ele>
        <time>2022-07-16T13:01:49Z</time>
      </trkpt>
      <trkpt lat="45.66219" lon="6.68221">
        <ele>2467</ele>
        <time>2022-07-16T13:01:50Z</time>
      </trkpt>
      <trkpt lat="45.6622" lon="6.68223">
        <ele>2467</ele>
        <time>2022-07-16T13:01:51Z</time>
      </trkpt>
      <trkpt lat="45.66221" lon="6.68225">
        <ele>2467</ele>
        <time>2022-07-16T13:01:52Z</time>
      </trkpt>
      <trkpt lat="45.66222" lon="6.68228">
        <ele>2467</ele>
        <time>2022-07-16T13:01:53Z</time>
      </trkpt>
      <trkpt lat="45.66223" lon="6.6823">
        <ele>2467</ele>
        <time>2022-07-16T13:01:54Z</time>
      </trkpt>
      <trkpt lat="45.66224" lon="6.68232">
        <ele>2467</ele>
        <time>2022-07-16T13:01:55Z</time>
      </trkpt>
      <trkpt lat="45.66226" lon="6.68236">
        <ele>2467</ele>
        <time>2022-07-16T13:01:57Z</time>
      </trkpt>
      <trkpt lat="45.66228" lon="6.68239">
        <ele>2467</ele>
        <time>2022-07-16T13:01:59Z</time>
      </trkpt>
      <trkpt lat="45.66231" lon="6.68243">
        <ele>2467</ele>
        <time>2022-07-16T13:02:01Z</time>
      </trkpt>
      <trkpt lat="45.66232" lon="6.68245">
        <ele>2466</ele>
        <time>2022-07-16T13:02:02Z</time>
      </trkpt>
      <trkpt lat="45.66233" lon="6.68247">
        <ele>2465</ele>
        <time>2022-07-16T13:02:03Z</time>
      </trkpt>
      <trkpt lat="45.66234" lon="6.68249">
        <ele>2465</ele>
        <time>2022-07-16T13:02:04Z</time>
      </trkpt>
      <trkpt lat="45.66235" lon="6.68251">
        <ele>2465</ele>
        <time>2022-07-16T13:02:05Z</time>
      </trkpt>
      <trkpt lat="45.66237" lon="6.68254">
        <ele>2465</ele>
        <time>2022-07-16T13:02:06Z</time>
      </trkpt>
      <trkpt lat="45.66238" lon="6.68256">
        <ele>2465</ele>
        <time>2022-07-16T13:02:07Z</time>
      </trkpt>
      <trkpt lat="45.6624" lon="6.68258">
        <ele>2465</ele>
        <time>2022-07-16T13:02:08Z</time>
      </trkpt>
      <trkpt lat="45.66241" lon="6.68259">
        <ele>2465</ele>
        <time>2022-07-16T13:02:09Z</time>
      </trkpt>
      <trkpt lat="45.66243" lon="6.68261">
        <ele>2464</ele>
        <time>2022-07-16T13:02:10Z</time>
      </trkpt>
      <trkpt lat="45.66244" lon="6.68264">
        <ele>2463</ele>
        <time>2022-07-16T13:02:11Z</time>
      </trkpt>
      <trkpt lat="45.66244" lon="6.68266">
        <ele>2464</ele>
        <time>2022-07-16T13:02:12Z</time>
      </trkpt>
      <trkpt lat="45.66245" lon="6.68268">
        <ele>2464</ele>
        <time>2022-07-16T13:02:13Z</time>
      </trkpt>
      <trkpt lat="45.66246" lon="6.6827">
        <ele>2463</ele>
        <time>2022-07-16T13:02:14Z</time>
      </trkpt>
      <trkpt lat="45.66247" lon="6.68273">
        <ele>2462</ele>
        <time>2022-07-16T13:02:15Z</time>
      </trkpt>
      <trkpt lat="45.66248" lon="6.68275">
        <ele>2462</ele>
        <time>2022-07-16T13:02:16Z</time>
      </trkpt>
      <trkpt lat="45.66248" lon="6.68278">
        <ele>2462</ele>
        <time>2022-07-16T13:02:17Z</time>
      </trkpt>
      <trkpt lat="45.66248" lon="6.6828">
        <ele>2461</ele>
        <time>2022-07-16T13:02:18Z</time>
      </trkpt>
      <trkpt lat="45.66248" lon="6.68283">
        <ele>2461</ele>
        <time>2022-07-16T13:02:19Z</time>
      </trkpt>
      <trkpt lat="45.66248" lon="6.68286">
        <ele>2460</ele>
        <time>2022-07-16T13:02:20Z</time>
      </trkpt>
      <trkpt lat="45.66248" lon="6.68288">
        <ele>2460</ele>
        <time>2022-07-16T13:02:21Z</time>
      </trkpt>
      <trkpt lat="45.66247" lon="6.6829">
        <ele>2459</ele>
        <time>2022-07-16T13:02:22Z</time>
      </trkpt>
      <trkpt lat="45.66245" lon="6.68294">
        <ele>2459</ele>
        <time>2022-07-16T13:02:23Z</time>
      </trkpt>
      <trkpt lat="45.66246" lon="6.68297">
        <ele>2459</ele>
        <time>2022-07-16T13:02:26Z</time>
      </trkpt>
      <trkpt lat="45.66247" lon="6.68299">
        <ele>2459</ele>
        <time>2022-07-16T13:02:27Z</time>
      </trkpt>
      <trkpt lat="45.66249" lon="6.68302">
        <ele>2457</ele>
        <time>2022-07-16T13:02:29Z</time>
      </trkpt>
      <trkpt lat="45.6625" lon="6.68306">
        <ele>2456</ele>
        <time>2022-07-16T13:02:32Z</time>
      </trkpt>
      <trkpt lat="45.66251" lon="6.6831">
        <ele>2456</ele>
        <time>2022-07-16T13:02:34Z</time>
      </trkpt>
      <trkpt lat="45.66252" lon="6.68313">
        <ele>2456</ele>
        <time>2022-07-16T13:02:36Z</time>
      </trkpt>
      <trkpt lat="45.66253" lon="6.68316">
        <ele>2453</ele>
        <time>2022-07-16T13:02:38Z</time>
      </trkpt>
      <trkpt lat="45.66252" lon="6.68321">
        <ele>2451</ele>
        <time>2022-07-16T13:02:40Z</time>
      </trkpt>
      <trkpt lat="45.66252" lon="6.68324">
        <ele>2451</ele>
        <time>2022-07-16T13:02:42Z</time>
      </trkpt>
      <trkpt lat="45.66252" lon="6.68328">
        <ele>2451</ele>
        <time>2022-07-16T13:02:44Z</time>
      </trkpt>
      <trkpt lat="45.66252" lon="6.68332">
        <ele>2450</ele>
        <time>2022-07-16T13:02:47Z</time>
      </trkpt>
      <trkpt lat="45.66252" lon="6.68333">
        <ele>2449</ele>
        <time>2022-07-16T13:02:48Z</time>
      </trkpt>
      <trkpt lat="45.66252" lon="6.68335">
        <ele>2448</ele>
        <time>2022-07-16T13:02:49Z</time>
      </trkpt>
      <trkpt lat="45.66252" lon="6.68336">
        <ele>2448</ele>
        <time>2022-07-16T13:02:50Z</time>
      </trkpt>
      <trkpt lat="45.66253" lon="6.68338">
        <ele>2447</ele>
        <time>2022-07-16T13:02:51Z</time>
      </trkpt>
      <trkpt lat="45.66253" lon="6.68339">
        <ele>2447</ele>
        <time>2022-07-16T13:02:52Z</time>
      </trkpt>
      <trkpt lat="45.66253" lon="6.6834">
        <ele>2447</ele>
        <time>2022-07-16T13:02:53Z</time>
      </trkpt>
      <trkpt lat="45.66252" lon="6.68352">
        <ele>2447</ele>
        <time>2022-07-16T13:02:54Z</time>
      </trkpt>
      <trkpt lat="45.66251" lon="6.68354">
        <ele>2447</ele>
        <time>2022-07-16T13:02:55Z</time>
      </trkpt>
      <trkpt lat="45.6625" lon="6.68359">
        <ele>2447</ele>
        <time>2022-07-16T13:02:57Z</time>
      </trkpt>
      <trkpt lat="45.6625" lon="6.68362">
        <ele>2446</ele>
        <time>2022-07-16T13:02:59Z</time>
      </trkpt>
      <trkpt lat="45.66249" lon="6.68364">
        <ele>2447</ele>
        <time>2022-07-16T13:03:01Z</time>
      </trkpt>
      <trkpt lat="45.66247" lon="6.68368">
        <ele>2447</ele>
        <time>2022-07-16T13:03:04Z</time>
      </trkpt>
      <trkpt lat="45.66246" lon="6.68371">
        <ele>2448</ele>
        <time>2022-07-16T13:03:06Z</time>
      </trkpt>
      <trkpt lat="45.66249" lon="6.68374">
        <ele>2449</ele>
        <time>2022-07-16T13:03:09Z</time>
      </trkpt>
      <trkpt lat="45.66249" lon="6.68376">
        <ele>2449</ele>
        <time>2022-07-16T13:03:11Z</time>
      </trkpt>
      <trkpt lat="45.66251" lon="6.68379">
        <ele>2450</ele>
        <time>2022-07-16T13:03:13Z</time>
      </trkpt>
      <trkpt lat="45.66252" lon="6.68384">
        <ele>2451</ele>
        <time>2022-07-16T13:03:15Z</time>
      </trkpt>
      <trkpt lat="45.66254" lon="6.68388">
        <ele>2451</ele>
        <time>2022-07-16T13:03:17Z</time>
      </trkpt>
      <trkpt lat="45.66255" lon="6.6839">
        <ele>2451</ele>
        <time>2022-07-16T13:03:18Z</time>
      </trkpt>
      <trkpt lat="45.66257" lon="6.68392">
        <ele>2451</ele>
        <time>2022-07-16T13:03:19Z</time>
      </trkpt>
      <trkpt lat="45.6626" lon="6.68395">
        <ele>2450</ele>
        <time>2022-07-16T13:03:20Z</time>
      </trkpt>
      <trkpt lat="45.66263" lon="6.68398">
        <ele>2451</ele>
        <time>2022-07-16T13:03:23Z</time>
      </trkpt>
      <trkpt lat="45.66264" lon="6.684">
        <ele>2451</ele>
        <time>2022-07-16T13:03:24Z</time>
      </trkpt>
      <trkpt lat="45.66267" lon="6.68401">
        <ele>2451</ele>
        <time>2022-07-16T13:03:25Z</time>
      </trkpt>
      <trkpt lat="45.6627" lon="6.68401">
        <ele>2450</ele>
        <time>2022-07-16T13:03:26Z</time>
      </trkpt>
      <trkpt lat="45.66272" lon="6.68401">
        <ele>2449</ele>
        <time>2022-07-16T13:03:27Z</time>
      </trkpt>
      <trkpt lat="45.66276" lon="6.68401">
        <ele>2448</ele>
        <time>2022-07-16T13:03:29Z</time>
      </trkpt>
      <trkpt lat="45.66278" lon="6.68403">
        <ele>2447</ele>
        <time>2022-07-16T13:03:30Z</time>
      </trkpt>
      <trkpt lat="45.66279" lon="6.68405">
        <ele>2447</ele>
        <time>2022-07-16T13:03:31Z</time>
      </trkpt>
      <trkpt lat="45.6628" lon="6.68407">
        <ele>2447</ele>
        <time>2022-07-16T13:03:32Z</time>
      </trkpt>
      <trkpt lat="45.66281" lon="6.6841">
        <ele>2447</ele>
        <time>2022-07-16T13:03:33Z</time>
      </trkpt>
      <trkpt lat="45.66282" lon="6.68412">
        <ele>2446</ele>
        <time>2022-07-16T13:03:34Z</time>
      </trkpt>
      <trkpt lat="45.66285" lon="6.68415">
        <ele>2446</ele>
        <time>2022-07-16T13:03:36Z</time>
      </trkpt>
      <trkpt lat="45.66286" lon="6.68417">
        <ele>2446</ele>
        <time>2022-07-16T13:03:37Z</time>
      </trkpt>
      <trkpt lat="45.66288" lon="6.68419">
        <ele>2447</ele>
        <time>2022-07-16T13:03:38Z</time>
      </trkpt>
      <trkpt lat="45.66289" lon="6.6842">
        <ele>2447</ele>
        <time>2022-07-16T13:03:39Z</time>
      </trkpt>
      <trkpt lat="45.66291" lon="6.68421">
        <ele>2447</ele>
        <time>2022-07-16T13:03:40Z</time>
      </trkpt>
      <trkpt lat="45.66293" lon="6.68422">
        <ele>2447</ele>
        <time>2022-07-16T13:03:41Z</time>
      </trkpt>
      <trkpt lat="45.66295" lon="6.68426">
        <ele>2447</ele>
        <time>2022-07-16T13:03:43Z</time>
      </trkpt>
      <trkpt lat="45.66296" lon="6.68428">
        <ele>2446</ele>
        <time>2022-07-16T13:03:44Z</time>
      </trkpt>
      <trkpt lat="45.66297" lon="6.6843">
        <ele>2446</ele>
        <time>2022-07-16T13:03:45Z</time>
      </trkpt>
      <trkpt lat="45.66298" lon="6.68432">
        <ele>2445</ele>
        <time>2022-07-16T13:03:46Z</time>
      </trkpt>
      <trkpt lat="45.66299" lon="6.68434">
        <ele>2445</ele>
        <time>2022-07-16T13:03:47Z</time>
      </trkpt>
      <trkpt lat="45.663" lon="6.68436">
        <ele>2445</ele>
        <time>2022-07-16T13:03:48Z</time>
      </trkpt>
      <trkpt lat="45.66303" lon="6.68439">
        <ele>2445</ele>
        <time>2022-07-16T13:03:50Z</time>
      </trkpt>
      <trkpt lat="45.66304" lon="6.6844">
        <ele>2445</ele>
        <time>2022-07-16T13:03:51Z</time>
      </trkpt>
      <trkpt lat="45.66306" lon="6.68442">
        <ele>2445</ele>
        <time>2022-07-16T13:03:52Z</time>
      </trkpt>
      <trkpt lat="45.66307" lon="6.68445">
        <ele>2444</ele>
        <time>2022-07-16T13:03:54Z</time>
      </trkpt>
      <trkpt lat="45.6631" lon="6.68448">
        <ele>2444</ele>
        <time>2022-07-16T13:03:56Z</time>
      </trkpt>
      <trkpt lat="45.66313" lon="6.68454">
        <ele>2443</ele>
        <time>2022-07-16T13:03:58Z</time>
      </trkpt>
      <trkpt lat="45.66316" lon="6.68457">
        <ele>2443</ele>
        <time>2022-07-16T13:04:01Z</time>
      </trkpt>
      <trkpt lat="45.66318" lon="6.68461">
        <ele>2443</ele>
        <time>2022-07-16T13:04:03Z</time>
      </trkpt>
      <trkpt lat="45.6632" lon="6.68464">
        <ele>2442</ele>
        <time>2022-07-16T13:04:05Z</time>
      </trkpt>
      <trkpt lat="45.66324" lon="6.68467">
        <ele>2443</ele>
        <time>2022-07-16T13:04:07Z</time>
      </trkpt>
      <trkpt lat="45.66325" lon="6.68469">
        <ele>2442</ele>
        <time>2022-07-16T13:04:08Z</time>
      </trkpt>
      <trkpt lat="45.66328" lon="6.68472">
        <ele>2442</ele>
        <time>2022-07-16T13:04:10Z</time>
      </trkpt>
      <trkpt lat="45.6633" lon="6.68476">
        <ele>2442</ele>
        <time>2022-07-16T13:04:11Z</time>
      </trkpt>
      <trkpt lat="45.66332" lon="6.6848">
        <ele>2441</ele>
        <time>2022-07-16T13:04:14Z</time>
      </trkpt>
      <trkpt lat="45.66333" lon="6.68484">
        <ele>2440</ele>
        <time>2022-07-16T13:04:16Z</time>
      </trkpt>
      <trkpt lat="45.66335" lon="6.68489">
        <ele>2439</ele>
        <time>2022-07-16T13:04:17Z</time>
      </trkpt>
      <trkpt lat="45.66337" lon="6.68491">
        <ele>2439</ele>
        <time>2022-07-16T13:04:19Z</time>
      </trkpt>
      <trkpt lat="45.66338" lon="6.68493">
        <ele>2439</ele>
        <time>2022-07-16T13:04:20Z</time>
      </trkpt>
      <trkpt lat="45.66339" lon="6.68495">
        <ele>2439</ele>
        <time>2022-07-16T13:04:21Z</time>
      </trkpt>
      <trkpt lat="45.66341" lon="6.68496">
        <ele>2440</ele>
        <time>2022-07-16T13:04:22Z</time>
      </trkpt>
      <trkpt lat="45.66343" lon="6.68497">
        <ele>2440</ele>
        <time>2022-07-16T13:04:23Z</time>
      </trkpt>
      <trkpt lat="45.66345" lon="6.68498">
        <ele>2439</ele>
        <time>2022-07-16T13:04:24Z</time>
      </trkpt>
      <trkpt lat="45.66347" lon="6.68499">
        <ele>2438</ele>
        <time>2022-07-16T13:04:25Z</time>
      </trkpt>
      <trkpt lat="45.66348" lon="6.68501">
        <ele>2438</ele>
        <time>2022-07-16T13:04:26Z</time>
      </trkpt>
      <trkpt lat="45.6635" lon="6.68503">
        <ele>2437</ele>
        <time>2022-07-16T13:04:27Z</time>
      </trkpt>
      <trkpt lat="45.66352" lon="6.68506">
        <ele>2437</ele>
        <time>2022-07-16T13:04:29Z</time>
      </trkpt>
      <trkpt lat="45.66354" lon="6.68508">
        <ele>2437</ele>
        <time>2022-07-16T13:04:30Z</time>
      </trkpt>
      <trkpt lat="45.66355" lon="6.6851">
        <ele>2437</ele>
        <time>2022-07-16T13:04:31Z</time>
      </trkpt>
      <trkpt lat="45.66356" lon="6.68512">
        <ele>2437</ele>
        <time>2022-07-16T13:04:32Z</time>
      </trkpt>
      <trkpt lat="45.66358" lon="6.68514">
        <ele>2436</ele>
        <time>2022-07-16T13:04:33Z</time>
      </trkpt>
      <trkpt lat="45.66359" lon="6.68515">
        <ele>2436</ele>
        <time>2022-07-16T13:04:34Z</time>
      </trkpt>
      <trkpt lat="45.66361" lon="6.68517">
        <ele>2436</ele>
        <time>2022-07-16T13:04:35Z</time>
      </trkpt>
      <trkpt lat="45.66362" lon="6.68521">
        <ele>2436</ele>
        <time>2022-07-16T13:04:36Z</time>
      </trkpt>
      <trkpt lat="45.66363" lon="6.68522">
        <ele>2436</ele>
        <time>2022-07-16T13:04:37Z</time>
      </trkpt>
      <trkpt lat="45.66363" lon="6.68525">
        <ele>2436</ele>
        <time>2022-07-16T13:04:38Z</time>
      </trkpt>
      <trkpt lat="45.66364" lon="6.68528">
        <ele>2436</ele>
        <time>2022-07-16T13:04:39Z</time>
      </trkpt>
      <trkpt lat="45.66365" lon="6.68532">
        <ele>2436</ele>
        <time>2022-07-16T13:04:41Z</time>
      </trkpt>
      <trkpt lat="45.66366" lon="6.68535">
        <ele>2436</ele>
        <time>2022-07-16T13:04:42Z</time>
      </trkpt>
      <trkpt lat="45.66369" lon="6.68538">
        <ele>2434</ele>
        <time>2022-07-16T13:04:44Z</time>
      </trkpt>
      <trkpt lat="45.6637" lon="6.6854">
        <ele>2433</ele>
        <time>2022-07-16T13:04:45Z</time>
      </trkpt>
      <trkpt lat="45.66372" lon="6.68544">
        <ele>2434</ele>
        <time>2022-07-16T13:04:47Z</time>
      </trkpt>
      <trkpt lat="45.66373" lon="6.68546">
        <ele>2434</ele>
        <time>2022-07-16T13:04:48Z</time>
      </trkpt>
      <trkpt lat="45.66374" lon="6.68549">
        <ele>2433</ele>
        <time>2022-07-16T13:04:49Z</time>
      </trkpt>
      <trkpt lat="45.66376" lon="6.68553">
        <ele>2433</ele>
        <time>2022-07-16T13:04:51Z</time>
      </trkpt>
      <trkpt lat="45.66377" lon="6.68556">
        <ele>2432</ele>
        <time>2022-07-16T13:04:52Z</time>
      </trkpt>
      <trkpt lat="45.66378" lon="6.68557">
        <ele>2432</ele>
        <time>2022-07-16T13:04:53Z</time>
      </trkpt>
      <trkpt lat="45.66379" lon="6.6856">
        <ele>2432</ele>
        <time>2022-07-16T13:04:54Z</time>
      </trkpt>
      <trkpt lat="45.66381" lon="6.68562">
        <ele>2432</ele>
        <time>2022-07-16T13:04:55Z</time>
      </trkpt>
      <trkpt lat="45.66382" lon="6.68563">
        <ele>2432</ele>
        <time>2022-07-16T13:04:56Z</time>
      </trkpt>
      <trkpt lat="45.66385" lon="6.68567">
        <ele>2432</ele>
        <time>2022-07-16T13:04:58Z</time>
      </trkpt>
      <trkpt lat="45.66388" lon="6.6857">
        <ele>2431</ele>
        <time>2022-07-16T13:05:00Z</time>
      </trkpt>
      <trkpt lat="45.6639" lon="6.6857">
        <ele>2431</ele>
        <time>2022-07-16T13:05:01Z</time>
      </trkpt>
      <trkpt lat="45.66392" lon="6.68571">
        <ele>2431</ele>
        <time>2022-07-16T13:05:02Z</time>
      </trkpt>
      <trkpt lat="45.66394" lon="6.68573">
        <ele>2430</ele>
        <time>2022-07-16T13:05:03Z</time>
      </trkpt>
      <trkpt lat="45.66397" lon="6.68576">
        <ele>2430</ele>
        <time>2022-07-16T13:05:05Z</time>
      </trkpt>
      <trkpt lat="45.66398" lon="6.68578">
        <ele>2430</ele>
        <time>2022-07-16T13:05:06Z</time>
      </trkpt>
      <trkpt lat="45.66399" lon="6.6858">
        <ele>2428</ele>
        <time>2022-07-16T13:05:07Z</time>
      </trkpt>
      <trkpt lat="45.66401" lon="6.68582">
        <ele>2428</ele>
        <time>2022-07-16T13:05:08Z</time>
      </trkpt>
      <trkpt lat="45.66402" lon="6.68584">
        <ele>2428</ele>
        <time>2022-07-16T13:05:09Z</time>
      </trkpt>
      <trkpt lat="45.66403" lon="6.68587">
        <ele>2428</ele>
        <time>2022-07-16T13:05:10Z</time>
      </trkpt>
      <trkpt lat="45.66404" lon="6.68589">
        <ele>2428</ele>
        <time>2022-07-16T13:05:11Z</time>
      </trkpt>
      <trkpt lat="45.66406" lon="6.68591">
        <ele>2428</ele>
        <time>2022-07-16T13:05:12Z</time>
      </trkpt>
      <trkpt lat="45.66408" lon="6.68592">
        <ele>2428</ele>
        <time>2022-07-16T13:05:13Z</time>
      </trkpt>
      <trkpt lat="45.66409" lon="6.68594">
        <ele>2428</ele>
        <time>2022-07-16T13:05:14Z</time>
      </trkpt>
      <trkpt lat="45.66411" lon="6.68598">
        <ele>2428</ele>
        <time>2022-07-16T13:05:16Z</time>
      </trkpt>
      <trkpt lat="45.66413" lon="6.68603">
        <ele>2426</ele>
        <time>2022-07-16T13:05:18Z</time>
      </trkpt>
      <trkpt lat="45.66414" lon="6.68605">
        <ele>2427</ele>
        <time>2022-07-16T13:05:19Z</time>
      </trkpt>
      <trkpt lat="45.66416" lon="6.68607">
        <ele>2427</ele>
        <time>2022-07-16T13:05:20Z</time>
      </trkpt>
      <trkpt lat="45.66417" lon="6.68609">
        <ele>2427</ele>
        <time>2022-07-16T13:05:21Z</time>
      </trkpt>
      <trkpt lat="45.66418" lon="6.68611">
        <ele>2427</ele>
        <time>2022-07-16T13:05:22Z</time>
      </trkpt>
      <trkpt lat="45.6642" lon="6.68616">
        <ele>2427</ele>
        <time>2022-07-16T13:05:24Z</time>
      </trkpt>
      <trkpt lat="45.66421" lon="6.68618">
        <ele>2426</ele>
        <time>2022-07-16T13:05:25Z</time>
      </trkpt>
      <trkpt lat="45.66423" lon="6.6862">
        <ele>2426</ele>
        <time>2022-07-16T13:05:26Z</time>
      </trkpt>
      <trkpt lat="45.66423" lon="6.68622">
        <ele>2426</ele>
        <time>2022-07-16T13:05:27Z</time>
      </trkpt>
      <trkpt lat="45.66424" lon="6.68624">
        <ele>2426</ele>
        <time>2022-07-16T13:05:28Z</time>
      </trkpt>
      <trkpt lat="45.66425" lon="6.68627">
        <ele>2425</ele>
        <time>2022-07-16T13:05:29Z</time>
      </trkpt>
      <trkpt lat="45.66426" lon="6.68629">
        <ele>2425</ele>
        <time>2022-07-16T13:05:30Z</time>
      </trkpt>
      <trkpt lat="45.66426" lon="6.68632">
        <ele>2425</ele>
        <time>2022-07-16T13:05:31Z</time>
      </trkpt>
      <trkpt lat="45.66427" lon="6.68634">
        <ele>2425</ele>
        <time>2022-07-16T13:05:32Z</time>
      </trkpt>
      <trkpt lat="45.66429" lon="6.68638">
        <ele>2425</ele>
        <time>2022-07-16T13:05:34Z</time>
      </trkpt>
      <trkpt lat="45.6643" lon="6.6864">
        <ele>2425</ele>
        <time>2022-07-16T13:05:35Z</time>
      </trkpt>
      <trkpt lat="45.66432" lon="6.68642">
        <ele>2425</ele>
        <time>2022-07-16T13:05:36Z</time>
      </trkpt>
      <trkpt lat="45.66433" lon="6.68644">
        <ele>2424</ele>
        <time>2022-07-16T13:05:37Z</time>
      </trkpt>
      <trkpt lat="45.66434" lon="6.68646">
        <ele>2424</ele>
        <time>2022-07-16T13:05:38Z</time>
      </trkpt>
      <trkpt lat="45.66436" lon="6.68649">
        <ele>2423</ele>
        <time>2022-07-16T13:05:39Z</time>
      </trkpt>
      <trkpt lat="45.66437" lon="6.68651">
        <ele>2422</ele>
        <time>2022-07-16T13:05:40Z</time>
      </trkpt>
      <trkpt lat="45.66438" lon="6.68653">
        <ele>2422</ele>
        <time>2022-07-16T13:05:41Z</time>
      </trkpt>
      <trkpt lat="45.66439" lon="6.68655">
        <ele>2422</ele>
        <time>2022-07-16T13:05:42Z</time>
      </trkpt>
      <trkpt lat="45.6644" lon="6.68657">
        <ele>2422</ele>
        <time>2022-07-16T13:05:43Z</time>
      </trkpt>
      <trkpt lat="45.66442" lon="6.68662">
        <ele>2423</ele>
        <time>2022-07-16T13:05:45Z</time>
      </trkpt>
      <trkpt lat="45.66443" lon="6.68664">
        <ele>2423</ele>
        <time>2022-07-16T13:05:46Z</time>
      </trkpt>
      <trkpt lat="45.66444" lon="6.68667">
        <ele>2422</ele>
        <time>2022-07-16T13:05:48Z</time>
      </trkpt>
      <trkpt lat="45.66445" lon="6.68671">
        <ele>2422</ele>
        <time>2022-07-16T13:05:50Z</time>
      </trkpt>
      <trkpt lat="45.66446" lon="6.68675">
        <ele>2422</ele>
        <time>2022-07-16T13:05:51Z</time>
      </trkpt>
      <trkpt lat="45.66448" lon="6.68677">
        <ele>2422</ele>
        <time>2022-07-16T13:05:52Z</time>
      </trkpt>
      <trkpt lat="45.66448" lon="6.6868">
        <ele>2421</ele>
        <time>2022-07-16T13:05:54Z</time>
      </trkpt>
      <trkpt lat="45.66449" lon="6.68683">
        <ele>2421</ele>
        <time>2022-07-16T13:05:55Z</time>
      </trkpt>
      <trkpt lat="45.66449" lon="6.68688">
        <ele>2420</ele>
        <time>2022-07-16T13:05:57Z</time>
      </trkpt>
      <trkpt lat="45.6645" lon="6.68692">
        <ele>2419</ele>
        <time>2022-07-16T13:05:59Z</time>
      </trkpt>
      <trkpt lat="45.66451" lon="6.68696">
        <ele>2419</ele>
        <time>2022-07-16T13:06:01Z</time>
      </trkpt>
      <trkpt lat="45.66453" lon="6.68701">
        <ele>2419</ele>
        <time>2022-07-16T13:06:03Z</time>
      </trkpt>
      <trkpt lat="45.66453" lon="6.68706">
        <ele>2419</ele>
        <time>2022-07-16T13:06:05Z</time>
      </trkpt>
      <trkpt lat="45.66454" lon="6.68708">
        <ele>2419</ele>
        <time>2022-07-16T13:06:06Z</time>
      </trkpt>
      <trkpt lat="45.66455" lon="6.68711">
        <ele>2419</ele>
        <time>2022-07-16T13:06:07Z</time>
      </trkpt>
      <trkpt lat="45.66457" lon="6.68716">
        <ele>2418</ele>
        <time>2022-07-16T13:06:09Z</time>
      </trkpt>
      <trkpt lat="45.66458" lon="6.68717">
        <ele>2419</ele>
        <time>2022-07-16T13:06:10Z</time>
      </trkpt>
      <trkpt lat="45.6646" lon="6.6872">
        <ele>2419</ele>
        <time>2022-07-16T13:06:11Z</time>
      </trkpt>
      <trkpt lat="45.66461" lon="6.68721">
        <ele>2419</ele>
        <time>2022-07-16T13:06:12Z</time>
      </trkpt>
      <trkpt lat="45.66463" lon="6.68723">
        <ele>2417</ele>
        <time>2022-07-16T13:06:13Z</time>
      </trkpt>
      <trkpt lat="45.66465" lon="6.68726">
        <ele>2417</ele>
        <time>2022-07-16T13:06:15Z</time>
      </trkpt>
      <trkpt lat="45.66468" lon="6.68728">
        <ele>2417</ele>
        <time>2022-07-16T13:06:17Z</time>
      </trkpt>
      <trkpt lat="45.6647" lon="6.68729">
        <ele>2417</ele>
        <time>2022-07-16T13:06:18Z</time>
      </trkpt>
      <trkpt lat="45.66471" lon="6.68731">
        <ele>2417</ele>
        <time>2022-07-16T13:06:19Z</time>
      </trkpt>
      <trkpt lat="45.66472" lon="6.68734">
        <ele>2417</ele>
        <time>2022-07-16T13:06:20Z</time>
      </trkpt>
      <trkpt lat="45.66473" lon="6.68736">
        <ele>2417</ele>
        <time>2022-07-16T13:06:21Z</time>
      </trkpt>
      <trkpt lat="45.66475" lon="6.68737">
        <ele>2417</ele>
        <time>2022-07-16T13:06:22Z</time>
      </trkpt>
      <trkpt lat="45.66477" lon="6.68738">
        <ele>2417</ele>
        <time>2022-07-16T13:06:23Z</time>
      </trkpt>
      <trkpt lat="45.66479" lon="6.68742">
        <ele>2415</ele>
        <time>2022-07-16T13:06:25Z</time>
      </trkpt>
      <trkpt lat="45.6648" lon="6.68744">
        <ele>2415</ele>
        <time>2022-07-16T13:06:26Z</time>
      </trkpt>
      <trkpt lat="45.66481" lon="6.68747">
        <ele>2415</ele>
        <time>2022-07-16T13:06:27Z</time>
      </trkpt>
      <trkpt lat="45.66481" lon="6.68749">
        <ele>2415</ele>
        <time>2022-07-16T13:06:28Z</time>
      </trkpt>
      <trkpt lat="45.66484" lon="6.68752">
        <ele>2414</ele>
        <time>2022-07-16T13:06:30Z</time>
      </trkpt>
      <trkpt lat="45.66487" lon="6.68753">
        <ele>2413</ele>
        <time>2022-07-16T13:06:32Z</time>
      </trkpt>
      <trkpt lat="45.66489" lon="6.68754">
        <ele>2412</ele>
        <time>2022-07-16T13:06:33Z</time>
      </trkpt>
      <trkpt lat="45.66491" lon="6.68757">
        <ele>2412</ele>
        <time>2022-07-16T13:06:34Z</time>
      </trkpt>
      <trkpt lat="45.66492" lon="6.68759">
        <ele>2412</ele>
        <time>2022-07-16T13:06:35Z</time>
      </trkpt>
      <trkpt lat="45.66493" lon="6.68764">
        <ele>2412</ele>
        <time>2022-07-16T13:06:37Z</time>
      </trkpt>
      <trkpt lat="45.66492" lon="6.68767">
        <ele>2412</ele>
        <time>2022-07-16T13:06:38Z</time>
      </trkpt>
      <trkpt lat="45.66493" lon="6.68769">
        <ele>2412</ele>
        <time>2022-07-16T13:06:39Z</time>
      </trkpt>
      <trkpt lat="45.66493" lon="6.68772">
        <ele>2412</ele>
        <time>2022-07-16T13:06:40Z</time>
      </trkpt>
      <trkpt lat="45.66493" lon="6.68775">
        <ele>2412</ele>
        <time>2022-07-16T13:06:41Z</time>
      </trkpt>
      <trkpt lat="45.66494" lon="6.68777">
        <ele>2412</ele>
        <time>2022-07-16T13:06:42Z</time>
      </trkpt>
      <trkpt lat="45.66494" lon="6.6878">
        <ele>2412</ele>
        <time>2022-07-16T13:06:43Z</time>
      </trkpt>
      <trkpt lat="45.66495" lon="6.68783">
        <ele>2412</ele>
        <time>2022-07-16T13:06:44Z</time>
      </trkpt>
      <trkpt lat="45.66496" lon="6.68785">
        <ele>2412</ele>
        <time>2022-07-16T13:06:45Z</time>
      </trkpt>
      <trkpt lat="45.66499" lon="6.68788">
        <ele>2411</ele>
        <time>2022-07-16T13:06:47Z</time>
      </trkpt>
      <trkpt lat="45.66501" lon="6.68789">
        <ele>2410</ele>
        <time>2022-07-16T13:06:48Z</time>
      </trkpt>
      <trkpt lat="45.66502" lon="6.6879">
        <ele>2410</ele>
        <time>2022-07-16T13:06:49Z</time>
      </trkpt>
      <trkpt lat="45.66504" lon="6.68791">
        <ele>2410</ele>
        <time>2022-07-16T13:06:50Z</time>
      </trkpt>
      <trkpt lat="45.66506" lon="6.68792">
        <ele>2410</ele>
        <time>2022-07-16T13:06:51Z</time>
      </trkpt>
      <trkpt lat="45.66507" lon="6.68794">
        <ele>2410</ele>
        <time>2022-07-16T13:06:52Z</time>
      </trkpt>
      <trkpt lat="45.66509" lon="6.68795">
        <ele>2410</ele>
        <time>2022-07-16T13:06:53Z</time>
      </trkpt>
      <trkpt lat="45.66511" lon="6.68795">
        <ele>2410</ele>
        <time>2022-07-16T13:06:54Z</time>
      </trkpt>
      <trkpt lat="45.66514" lon="6.68795">
        <ele>2410</ele>
        <time>2022-07-16T13:06:55Z</time>
      </trkpt>
      <trkpt lat="45.66517" lon="6.68796">
        <ele>2410</ele>
        <time>2022-07-16T13:06:57Z</time>
      </trkpt>
      <trkpt lat="45.66519" lon="6.68797">
        <ele>2410</ele>
        <time>2022-07-16T13:06:58Z</time>
      </trkpt>
      <trkpt lat="45.66521" lon="6.68798">
        <ele>2410</ele>
        <time>2022-07-16T13:06:59Z</time>
      </trkpt>
      <trkpt lat="45.66524" lon="6.68801">
        <ele>2410</ele>
        <time>2022-07-16T13:07:01Z</time>
      </trkpt>
      <trkpt lat="45.66525" lon="6.68803">
        <ele>2410</ele>
        <time>2022-07-16T13:07:02Z</time>
      </trkpt>
      <trkpt lat="45.66528" lon="6.68805">
        <ele>2409</ele>
        <time>2022-07-16T13:07:04Z</time>
      </trkpt>
      <trkpt lat="45.66529" lon="6.68807">
        <ele>2409</ele>
        <time>2022-07-16T13:07:06Z</time>
      </trkpt>
      <trkpt lat="45.6653" lon="6.68809">
        <ele>2409</ele>
        <time>2022-07-16T13:07:08Z</time>
      </trkpt>
      <trkpt lat="45.66533" lon="6.6881">
        <ele>2409</ele>
        <time>2022-07-16T13:07:10Z</time>
      </trkpt>
      <trkpt lat="45.66536" lon="6.68811">
        <ele>2409</ele>
        <time>2022-07-16T13:07:12Z</time>
      </trkpt>
      <trkpt lat="45.66538" lon="6.68812">
        <ele>2408</ele>
        <time>2022-07-16T13:07:13Z</time>
      </trkpt>
      <trkpt lat="45.6654" lon="6.68814">
        <ele>2408</ele>
        <time>2022-07-16T13:07:14Z</time>
      </trkpt>
      <trkpt lat="45.66542" lon="6.68815">
        <ele>2407</ele>
        <time>2022-07-16T13:07:15Z</time>
      </trkpt>
      <trkpt lat="45.66544" lon="6.68816">
        <ele>2407</ele>
        <time>2022-07-16T13:07:16Z</time>
      </trkpt>
      <trkpt lat="45.66546" lon="6.68818">
        <ele>2407</ele>
        <time>2022-07-16T13:07:17Z</time>
      </trkpt>
      <trkpt lat="45.66547" lon="6.6882">
        <ele>2406</ele>
        <time>2022-07-16T13:07:18Z</time>
      </trkpt>
      <trkpt lat="45.66549" lon="6.68821">
        <ele>2406</ele>
        <time>2022-07-16T13:07:19Z</time>
      </trkpt>
      <trkpt lat="45.66551" lon="6.68822">
        <ele>2406</ele>
        <time>2022-07-16T13:07:20Z</time>
      </trkpt>
      <trkpt lat="45.66553" lon="6.68823">
        <ele>2405</ele>
        <time>2022-07-16T13:07:21Z</time>
      </trkpt>
      <trkpt lat="45.66556" lon="6.68826">
        <ele>2405</ele>
        <time>2022-07-16T13:07:22Z</time>
      </trkpt>
      <trkpt lat="45.66557" lon="6.68827">
        <ele>2405</ele>
        <time>2022-07-16T13:07:23Z</time>
      </trkpt>
      <trkpt lat="45.66558" lon="6.68829">
        <ele>2405</ele>
        <time>2022-07-16T13:07:24Z</time>
      </trkpt>
      <trkpt lat="45.6656" lon="6.68831">
        <ele>2405</ele>
        <time>2022-07-16T13:07:25Z</time>
      </trkpt>
      <trkpt lat="45.66562" lon="6.68833">
        <ele>2404</ele>
        <time>2022-07-16T13:07:26Z</time>
      </trkpt>
      <trkpt lat="45.66564" lon="6.68834">
        <ele>2404</ele>
        <time>2022-07-16T13:07:27Z</time>
      </trkpt>
      <trkpt lat="45.66566" lon="6.68835">
        <ele>2404</ele>
        <time>2022-07-16T13:07:28Z</time>
      </trkpt>
      <trkpt lat="45.66568" lon="6.68835">
        <ele>2404</ele>
        <time>2022-07-16T13:07:29Z</time>
      </trkpt>
      <trkpt lat="45.66573" lon="6.68835">
        <ele>2402</ele>
        <time>2022-07-16T13:07:30Z</time>
      </trkpt>
      <trkpt lat="45.66575" lon="6.68835">
        <ele>2402</ele>
        <time>2022-07-16T13:07:32Z</time>
      </trkpt>
      <trkpt lat="45.66577" lon="6.68836">
        <ele>2402</ele>
        <time>2022-07-16T13:07:33Z</time>
      </trkpt>
      <trkpt lat="45.6658" lon="6.68837">
        <ele>2402</ele>
        <time>2022-07-16T13:07:35Z</time>
      </trkpt>
      <trkpt lat="45.66582" lon="6.68839">
        <ele>2402</ele>
        <time>2022-07-16T13:07:37Z</time>
      </trkpt>
      <trkpt lat="45.66586" lon="6.68841">
        <ele>2401</ele>
        <time>2022-07-16T13:07:39Z</time>
      </trkpt>
      <trkpt lat="45.66589" lon="6.68843">
        <ele>2400</ele>
        <time>2022-07-16T13:07:41Z</time>
      </trkpt>
      <trkpt lat="45.66591" lon="6.68843">
        <ele>2400</ele>
        <time>2022-07-16T13:07:43Z</time>
      </trkpt>
      <trkpt lat="45.66594" lon="6.68843">
        <ele>2400</ele>
        <time>2022-07-16T13:07:46Z</time>
      </trkpt>
      <trkpt lat="45.66597" lon="6.68843">
        <ele>2399</ele>
        <time>2022-07-16T13:07:48Z</time>
      </trkpt>
      <trkpt lat="45.666" lon="6.68842">
        <ele>2399</ele>
        <time>2022-07-16T13:07:50Z</time>
      </trkpt>
      <trkpt lat="45.66603" lon="6.68843">
        <ele>2399</ele>
        <time>2022-07-16T13:07:52Z</time>
      </trkpt>
      <trkpt lat="45.66605" lon="6.68845">
        <ele>2397</ele>
        <time>2022-07-16T13:07:54Z</time>
      </trkpt>
      <trkpt lat="45.66607" lon="6.68847">
        <ele>2396</ele>
        <time>2022-07-16T13:07:56Z</time>
      </trkpt>
      <trkpt lat="45.6661" lon="6.6885">
        <ele>2396</ele>
        <time>2022-07-16T13:07:58Z</time>
      </trkpt>
      <trkpt lat="45.66613" lon="6.68853">
        <ele>2395</ele>
        <time>2022-07-16T13:08:00Z</time>
      </trkpt>
      <trkpt lat="45.66614" lon="6.68854">
        <ele>2395</ele>
        <time>2022-07-16T13:08:01Z</time>
      </trkpt>
      <trkpt lat="45.66616" lon="6.68856">
        <ele>2394</ele>
        <time>2022-07-16T13:08:02Z</time>
      </trkpt>
      <trkpt lat="45.66618" lon="6.68857">
        <ele>2393</ele>
        <time>2022-07-16T13:08:03Z</time>
      </trkpt>
      <trkpt lat="45.6662" lon="6.68858">
        <ele>2393</ele>
        <time>2022-07-16T13:08:04Z</time>
      </trkpt>
      <trkpt lat="45.66623" lon="6.68861">
        <ele>2392</ele>
        <time>2022-07-16T13:08:05Z</time>
      </trkpt>
      <trkpt lat="45.66625" lon="6.68862">
        <ele>2392</ele>
        <time>2022-07-16T13:08:07Z</time>
      </trkpt>
      <trkpt lat="45.66628" lon="6.68865">
        <ele>2391</ele>
        <time>2022-07-16T13:08:09Z</time>
      </trkpt>
      <trkpt lat="45.6663" lon="6.68866">
        <ele>2391</ele>
        <time>2022-07-16T13:08:10Z</time>
      </trkpt>
      <trkpt lat="45.66632" lon="6.68867">
        <ele>2391</ele>
        <time>2022-07-16T13:08:11Z</time>
      </trkpt>
      <trkpt lat="45.66634" lon="6.68868">
        <ele>2390</ele>
        <time>2022-07-16T13:08:12Z</time>
      </trkpt>
      <trkpt lat="45.66636" lon="6.68869">
        <ele>2389</ele>
        <time>2022-07-16T13:08:13Z</time>
      </trkpt>
      <trkpt lat="45.66638" lon="6.6887">
        <ele>2389</ele>
        <time>2022-07-16T13:08:14Z</time>
      </trkpt>
      <trkpt lat="45.6664" lon="6.6887">
        <ele>2389</ele>
        <time>2022-07-16T13:08:15Z</time>
      </trkpt>
      <trkpt lat="45.66642" lon="6.6887">
        <ele>2389</ele>
        <time>2022-07-16T13:08:16Z</time>
      </trkpt>
      <trkpt lat="45.66645" lon="6.6887">
        <ele>2389</ele>
        <time>2022-07-16T13:08:17Z</time>
      </trkpt>
      <trkpt lat="45.66647" lon="6.6887">
        <ele>2389</ele>
        <time>2022-07-16T13:08:18Z</time>
      </trkpt>
      <trkpt lat="45.66649" lon="6.6887">
        <ele>2389</ele>
        <time>2022-07-16T13:08:19Z</time>
      </trkpt>
      <trkpt lat="45.66652" lon="6.6887">
        <ele>2389</ele>
        <time>2022-07-16T13:08:20Z</time>
      </trkpt>
      <trkpt lat="45.66654" lon="6.68871">
        <ele>2388</ele>
        <time>2022-07-16T13:08:21Z</time>
      </trkpt>
      <trkpt lat="45.66656" lon="6.68873">
        <ele>2388</ele>
        <time>2022-07-16T13:08:22Z</time>
      </trkpt>
      <trkpt lat="45.66657" lon="6.68875">
        <ele>2388</ele>
        <time>2022-07-16T13:08:23Z</time>
      </trkpt>
      <trkpt lat="45.66658" lon="6.68877">
        <ele>2388</ele>
        <time>2022-07-16T13:08:24Z</time>
      </trkpt>
      <trkpt lat="45.66659" lon="6.68879">
        <ele>2388</ele>
        <time>2022-07-16T13:08:25Z</time>
      </trkpt>
      <trkpt lat="45.66661" lon="6.68883">
        <ele>2387</ele>
        <time>2022-07-16T13:08:27Z</time>
      </trkpt>
      <trkpt lat="45.66662" lon="6.68884">
        <ele>2387</ele>
        <time>2022-07-16T13:08:28Z</time>
      </trkpt>
      <trkpt lat="45.66663" lon="6.68885">
        <ele>2387</ele>
        <time>2022-07-16T13:08:29Z</time>
      </trkpt>
      <trkpt lat="45.66664" lon="6.68886">
        <ele>2387</ele>
        <time>2022-07-16T13:08:30Z</time>
      </trkpt>
      <trkpt lat="45.66665" lon="6.68887">
        <ele>2387</ele>
        <time>2022-07-16T13:08:31Z</time>
      </trkpt>
      <trkpt lat="45.66667" lon="6.68887">
        <ele>2387</ele>
        <time>2022-07-16T13:08:32Z</time>
      </trkpt>
      <trkpt lat="45.66669" lon="6.68888">
        <ele>2386</ele>
        <time>2022-07-16T13:08:34Z</time>
      </trkpt>
      <trkpt lat="45.66672" lon="6.68891">
        <ele>2385</ele>
        <time>2022-07-16T13:08:36Z</time>
      </trkpt>
      <trkpt lat="45.66674" lon="6.68892">
        <ele>2384</ele>
        <time>2022-07-16T13:08:37Z</time>
      </trkpt>
      <trkpt lat="45.66676" lon="6.68893">
        <ele>2384</ele>
        <time>2022-07-16T13:08:38Z</time>
      </trkpt>
      <trkpt lat="45.66678" lon="6.68894">
        <ele>2384</ele>
        <time>2022-07-16T13:08:39Z</time>
      </trkpt>
      <trkpt lat="45.66681" lon="6.68896">
        <ele>2383</ele>
        <time>2022-07-16T13:08:41Z</time>
      </trkpt>
      <trkpt lat="45.66684" lon="6.68898">
        <ele>2383</ele>
        <time>2022-07-16T13:08:44Z</time>
      </trkpt>
      <trkpt lat="45.66685" lon="6.68898">
        <ele>2383</ele>
        <time>2022-07-16T13:08:45Z</time>
      </trkpt>
      <trkpt lat="45.66686" lon="6.68898">
        <ele>2383</ele>
        <time>2022-07-16T13:08:46Z</time>
      </trkpt>
      <trkpt lat="45.66687" lon="6.68898">
        <ele>2383</ele>
        <time>2022-07-16T13:08:47Z</time>
      </trkpt>
      <trkpt lat="45.66688" lon="6.68898">
        <ele>2382</ele>
        <time>2022-07-16T13:08:48Z</time>
      </trkpt>
      <trkpt lat="45.66689" lon="6.68898">
        <ele>2382</ele>
        <time>2022-07-16T13:08:50Z</time>
      </trkpt>
      <trkpt lat="45.6669" lon="6.68898">
        <ele>2382</ele>
        <time>2022-07-16T13:08:51Z</time>
      </trkpt>
      <trkpt lat="45.66691" lon="6.68898">
        <ele>2382</ele>
        <time>2022-07-16T13:08:53Z</time>
      </trkpt>
      <trkpt lat="45.66691" lon="6.68897">
        <ele>2382</ele>
        <time>2022-07-16T13:08:54Z</time>
      </trkpt>
      <trkpt lat="45.66692" lon="6.68897">
        <ele>2382</ele>
        <time>2022-07-16T13:08:56Z</time>
      </trkpt>
      <trkpt lat="45.66693" lon="6.68897">
        <ele>2382</ele>
        <time>2022-07-16T13:08:59Z</time>
      </trkpt>
      <trkpt lat="45.66694" lon="6.68897">
        <ele>2382</ele>
        <time>2022-07-16T13:09:03Z</time>
      </trkpt>
      <trkpt lat="45.66696" lon="6.68898">
        <ele>2380</ele>
        <time>2022-07-16T13:09:07Z</time>
      </trkpt>
      <trkpt lat="45.66698" lon="6.68899">
        <ele>2380</ele>
        <time>2022-07-16T13:09:08Z</time>
      </trkpt>
      <trkpt lat="45.66701" lon="6.689">
        <ele>2380</ele>
        <time>2022-07-16T13:09:09Z</time>
      </trkpt>
      <trkpt lat="45.66703" lon="6.68901">
        <ele>2380</ele>
        <time>2022-07-16T13:09:10Z</time>
      </trkpt>
      <trkpt lat="45.66706" lon="6.68902">
        <ele>2380</ele>
        <time>2022-07-16T13:09:11Z</time>
      </trkpt>
      <trkpt lat="45.66708" lon="6.68904">
        <ele>2379</ele>
        <time>2022-07-16T13:09:12Z</time>
      </trkpt>
      <trkpt lat="45.6671" lon="6.68906">
        <ele>2379</ele>
        <time>2022-07-16T13:09:13Z</time>
      </trkpt>
      <trkpt lat="45.66712" lon="6.68908">
        <ele>2378</ele>
        <time>2022-07-16T13:09:14Z</time>
      </trkpt>
      <trkpt lat="45.66713" lon="6.6891">
        <ele>2376</ele>
        <time>2022-07-16T13:09:15Z</time>
      </trkpt>
      <trkpt lat="45.66715" lon="6.68912">
        <ele>2376</ele>
        <time>2022-07-16T13:09:16Z</time>
      </trkpt>
      <trkpt lat="45.66717" lon="6.68915">
        <ele>2376</ele>
        <time>2022-07-16T13:09:17Z</time>
      </trkpt>
      <trkpt lat="45.66718" lon="6.68916">
        <ele>2376</ele>
        <time>2022-07-16T13:09:18Z</time>
      </trkpt>
      <trkpt lat="45.6672" lon="6.68917">
        <ele>2375</ele>
        <time>2022-07-16T13:09:19Z</time>
      </trkpt>
      <trkpt lat="45.66721" lon="6.68918">
        <ele>2374</ele>
        <time>2022-07-16T13:09:20Z</time>
      </trkpt>
      <trkpt lat="45.66723" lon="6.68919">
        <ele>2374</ele>
        <time>2022-07-16T13:09:21Z</time>
      </trkpt>
      <trkpt lat="45.66724" lon="6.68921">
        <ele>2374</ele>
        <time>2022-07-16T13:09:22Z</time>
      </trkpt>
      <trkpt lat="45.66725" lon="6.68922">
        <ele>2373</ele>
        <time>2022-07-16T13:09:23Z</time>
      </trkpt>
      <trkpt lat="45.66727" lon="6.68925">
        <ele>2372</ele>
        <time>2022-07-16T13:09:25Z</time>
      </trkpt>
      <trkpt lat="45.66729" lon="6.68928">
        <ele>2372</ele>
        <time>2022-07-16T13:09:27Z</time>
      </trkpt>
      <trkpt lat="45.66731" lon="6.68927">
        <ele>2371</ele>
        <time>2022-07-16T13:09:29Z</time>
      </trkpt>
      <trkpt lat="45.66734" lon="6.68925">
        <ele>2371</ele>
        <time>2022-07-16T13:09:31Z</time>
      </trkpt>
      <trkpt lat="45.66737" lon="6.68926">
        <ele>2369</ele>
        <time>2022-07-16T13:09:33Z</time>
      </trkpt>
      <trkpt lat="45.66739" lon="6.68926">
        <ele>2369</ele>
        <time>2022-07-16T13:09:34Z</time>
      </trkpt>
      <trkpt lat="45.66741" lon="6.68927">
        <ele>2368</ele>
        <time>2022-07-16T13:09:35Z</time>
      </trkpt>
      <trkpt lat="45.66743" lon="6.68928">
        <ele>2368</ele>
        <time>2022-07-16T13:09:36Z</time>
      </trkpt>
      <trkpt lat="45.66745" lon="6.6893">
        <ele>2368</ele>
        <time>2022-07-16T13:09:37Z</time>
      </trkpt>
      <trkpt lat="45.66747" lon="6.68931">
        <ele>2368</ele>
        <time>2022-07-16T13:09:38Z</time>
      </trkpt>
      <trkpt lat="45.66748" lon="6.68933">
        <ele>2368</ele>
        <time>2022-07-16T13:09:39Z</time>
      </trkpt>
      <trkpt lat="45.6675" lon="6.68938">
        <ele>2367</ele>
        <time>2022-07-16T13:09:40Z</time>
      </trkpt>
      <trkpt lat="45.66751" lon="6.68941">
        <ele>2366</ele>
        <time>2022-07-16T13:09:42Z</time>
      </trkpt>
      <trkpt lat="45.66752" lon="6.68943">
        <ele>2365</ele>
        <time>2022-07-16T13:09:43Z</time>
      </trkpt>
      <trkpt lat="45.66753" lon="6.68946">
        <ele>2365</ele>
        <time>2022-07-16T13:09:44Z</time>
      </trkpt>
      <trkpt lat="45.66754" lon="6.68949">
        <ele>2365</ele>
        <time>2022-07-16T13:09:45Z</time>
      </trkpt>
      <trkpt lat="45.66755" lon="6.68952">
        <ele>2364</ele>
        <time>2022-07-16T13:09:46Z</time>
      </trkpt>
      <trkpt lat="45.66756" lon="6.68954">
        <ele>2364</ele>
        <time>2022-07-16T13:09:47Z</time>
      </trkpt>
      <trkpt lat="45.66759" lon="6.68958">
        <ele>2364</ele>
        <time>2022-07-16T13:09:49Z</time>
      </trkpt>
      <trkpt lat="45.6676" lon="6.6896">
        <ele>2364</ele>
        <time>2022-07-16T13:09:50Z</time>
      </trkpt>
      <trkpt lat="45.66761" lon="6.68962">
        <ele>2364</ele>
        <time>2022-07-16T13:09:51Z</time>
      </trkpt>
      <trkpt lat="45.66762" lon="6.68964">
        <ele>2363</ele>
        <time>2022-07-16T13:09:52Z</time>
      </trkpt>
      <trkpt lat="45.66764" lon="6.68965">
        <ele>2363</ele>
        <time>2022-07-16T13:09:53Z</time>
      </trkpt>
      <trkpt lat="45.66765" lon="6.68967">
        <ele>2363</ele>
        <time>2022-07-16T13:09:54Z</time>
      </trkpt>
      <trkpt lat="45.66766" lon="6.68968">
        <ele>2362</ele>
        <time>2022-07-16T13:09:55Z</time>
      </trkpt>
      <trkpt lat="45.66769" lon="6.68971">
        <ele>2362</ele>
        <time>2022-07-16T13:09:57Z</time>
      </trkpt>
      <trkpt lat="45.6677" lon="6.68974">
        <ele>2362</ele>
        <time>2022-07-16T13:09:58Z</time>
      </trkpt>
      <trkpt lat="45.66772" lon="6.68978">
        <ele>2361</ele>
        <time>2022-07-16T13:10:00Z</time>
      </trkpt>
      <trkpt lat="45.66773" lon="6.68979">
        <ele>2359</ele>
        <time>2022-07-16T13:10:01Z</time>
      </trkpt>
      <trkpt lat="45.66773" lon="6.68981">
        <ele>2358</ele>
        <time>2022-07-16T13:10:02Z</time>
      </trkpt>
      <trkpt lat="45.66774" lon="6.68983">
        <ele>2358</ele>
        <time>2022-07-16T13:10:03Z</time>
      </trkpt>
      <trkpt lat="45.66775" lon="6.68985">
        <ele>2358</ele>
        <time>2022-07-16T13:10:04Z</time>
      </trkpt>
      <trkpt lat="45.66777" lon="6.68987">
        <ele>2358</ele>
        <time>2022-07-16T13:10:05Z</time>
      </trkpt>
      <trkpt lat="45.66778" lon="6.68989">
        <ele>2358</ele>
        <time>2022-07-16T13:10:06Z</time>
      </trkpt>
      <trkpt lat="45.6678" lon="6.68993">
        <ele>2357</ele>
        <time>2022-07-16T13:10:08Z</time>
      </trkpt>
      <trkpt lat="45.66782" lon="6.68996">
        <ele>2356</ele>
        <time>2022-07-16T13:10:10Z</time>
      </trkpt>
      <trkpt lat="45.66784" lon="6.68999">
        <ele>2356</ele>
        <time>2022-07-16T13:10:12Z</time>
      </trkpt>
      <trkpt lat="45.66784" lon="6.69001">
        <ele>2356</ele>
        <time>2022-07-16T13:10:13Z</time>
      </trkpt>
      <trkpt lat="45.66785" lon="6.69003">
        <ele>2355</ele>
        <time>2022-07-16T13:10:14Z</time>
      </trkpt>
      <trkpt lat="45.66786" lon="6.69005">
        <ele>2355</ele>
        <time>2022-07-16T13:10:15Z</time>
      </trkpt>
      <trkpt lat="45.66787" lon="6.69006">
        <ele>2355</ele>
        <time>2022-07-16T13:10:16Z</time>
      </trkpt>
      <trkpt lat="45.66788" lon="6.69007">
        <ele>2355</ele>
        <time>2022-07-16T13:10:17Z</time>
      </trkpt>
      <trkpt lat="45.66789" lon="6.69009">
        <ele>2354</ele>
        <time>2022-07-16T13:10:18Z</time>
      </trkpt>
      <trkpt lat="45.66791" lon="6.6901">
        <ele>2354</ele>
        <time>2022-07-16T13:10:19Z</time>
      </trkpt>
      <trkpt lat="45.66792" lon="6.69012">
        <ele>2354</ele>
        <time>2022-07-16T13:10:20Z</time>
      </trkpt>
      <trkpt lat="45.66794" lon="6.69015">
        <ele>2352</ele>
        <time>2022-07-16T13:10:22Z</time>
      </trkpt>
      <trkpt lat="45.66796" lon="6.69018">
        <ele>2352</ele>
        <time>2022-07-16T13:10:24Z</time>
      </trkpt>
      <trkpt lat="45.66798" lon="6.69019">
        <ele>2350</ele>
        <time>2022-07-16T13:10:25Z</time>
      </trkpt>
      <trkpt lat="45.66799" lon="6.69021">
        <ele>2350</ele>
        <time>2022-07-16T13:10:26Z</time>
      </trkpt>
      <trkpt lat="45.66801" lon="6.69022">
        <ele>2350</ele>
        <time>2022-07-16T13:10:27Z</time>
      </trkpt>
      <trkpt lat="45.66803" lon="6.69023">
        <ele>2349</ele>
        <time>2022-07-16T13:10:28Z</time>
      </trkpt>
      <trkpt lat="45.66804" lon="6.69025">
        <ele>2349</ele>
        <time>2022-07-16T13:10:29Z</time>
      </trkpt>
      <trkpt lat="45.66807" lon="6.69028">
        <ele>2348</ele>
        <time>2022-07-16T13:10:31Z</time>
      </trkpt>
      <trkpt lat="45.66809" lon="6.69031">
        <ele>2347</ele>
        <time>2022-07-16T13:10:33Z</time>
      </trkpt>
      <trkpt lat="45.66811" lon="6.69033">
        <ele>2347</ele>
        <time>2022-07-16T13:10:34Z</time>
      </trkpt>
      <trkpt lat="45.66812" lon="6.69035">
        <ele>2347</ele>
        <time>2022-07-16T13:10:35Z</time>
      </trkpt>
      <trkpt lat="45.66812" lon="6.69038">
        <ele>2347</ele>
        <time>2022-07-16T13:10:36Z</time>
      </trkpt>
      <trkpt lat="45.66813" lon="6.6904">
        <ele>2347</ele>
        <time>2022-07-16T13:10:37Z</time>
      </trkpt>
      <trkpt lat="45.66815" lon="6.69044">
        <ele>2346</ele>
        <time>2022-07-16T13:10:39Z</time>
      </trkpt>
      <trkpt lat="45.66817" lon="6.69048">
        <ele>2345</ele>
        <time>2022-07-16T13:10:41Z</time>
      </trkpt>
      <trkpt lat="45.66818" lon="6.69051">
        <ele>2344</ele>
        <time>2022-07-16T13:10:42Z</time>
      </trkpt>
      <trkpt lat="45.66819" lon="6.69053">
        <ele>2344</ele>
        <time>2022-07-16T13:10:43Z</time>
      </trkpt>
      <trkpt lat="45.66819" lon="6.69056">
        <ele>2344</ele>
        <time>2022-07-16T13:10:44Z</time>
      </trkpt>
      <trkpt lat="45.6682" lon="6.69059">
        <ele>2343</ele>
        <time>2022-07-16T13:10:45Z</time>
      </trkpt>
      <trkpt lat="45.6682" lon="6.69061">
        <ele>2342</ele>
        <time>2022-07-16T13:10:46Z</time>
      </trkpt>
      <trkpt lat="45.66821" lon="6.69063">
        <ele>2342</ele>
        <time>2022-07-16T13:10:47Z</time>
      </trkpt>
      <trkpt lat="45.66822" lon="6.69065">
        <ele>2342</ele>
        <time>2022-07-16T13:10:48Z</time>
      </trkpt>
      <trkpt lat="45.66823" lon="6.69067">
        <ele>2341</ele>
        <time>2022-07-16T13:10:49Z</time>
      </trkpt>
      <trkpt lat="45.66824" lon="6.69069">
        <ele>2341</ele>
        <time>2022-07-16T13:10:50Z</time>
      </trkpt>
      <trkpt lat="45.66825" lon="6.69071">
        <ele>2341</ele>
        <time>2022-07-16T13:10:51Z</time>
      </trkpt>
      <trkpt lat="45.66826" lon="6.69073">
        <ele>2340</ele>
        <time>2022-07-16T13:10:52Z</time>
      </trkpt>
      <trkpt lat="45.66828" lon="6.69077">
        <ele>2340</ele>
        <time>2022-07-16T13:10:54Z</time>
      </trkpt>
      <trkpt lat="45.66831" lon="6.69079">
        <ele>2339</ele>
        <time>2022-07-16T13:10:56Z</time>
      </trkpt>
      <trkpt lat="45.66833" lon="6.69083">
        <ele>2337</ele>
        <time>2022-07-16T13:10:58Z</time>
      </trkpt>
      <trkpt lat="45.66835" lon="6.69086">
        <ele>2335</ele>
        <time>2022-07-16T13:11:00Z</time>
      </trkpt>
      <trkpt lat="45.66836" lon="6.69087">
        <ele>2335</ele>
        <time>2022-07-16T13:11:01Z</time>
      </trkpt>
      <trkpt lat="45.66837" lon="6.69089">
        <ele>2334</ele>
        <time>2022-07-16T13:11:02Z</time>
      </trkpt>
      <trkpt lat="45.66839" lon="6.6909">
        <ele>2334</ele>
        <time>2022-07-16T13:11:03Z</time>
      </trkpt>
      <trkpt lat="45.66841" lon="6.69093">
        <ele>2333</ele>
        <time>2022-07-16T13:11:05Z</time>
      </trkpt>
      <trkpt lat="45.66843" lon="6.69094">
        <ele>2333</ele>
        <time>2022-07-16T13:11:06Z</time>
      </trkpt>
      <trkpt lat="45.66844" lon="6.69095">
        <ele>2333</ele>
        <time>2022-07-16T13:11:07Z</time>
      </trkpt>
      <trkpt lat="45.66846" lon="6.69096">
        <ele>2332</ele>
        <time>2022-07-16T13:11:08Z</time>
      </trkpt>
      <trkpt lat="45.66847" lon="6.69096">
        <ele>2332</ele>
        <time>2022-07-16T13:11:09Z</time>
      </trkpt>
      <trkpt lat="45.66849" lon="6.69097">
        <ele>2332</ele>
        <time>2022-07-16T13:11:10Z</time>
      </trkpt>
      <trkpt lat="45.6685" lon="6.69098">
        <ele>2332</ele>
        <time>2022-07-16T13:11:11Z</time>
      </trkpt>
      <trkpt lat="45.66852" lon="6.69099">
        <ele>2331</ele>
        <time>2022-07-16T13:11:12Z</time>
      </trkpt>
      <trkpt lat="45.66853" lon="6.691">
        <ele>2331</ele>
        <time>2022-07-16T13:11:13Z</time>
      </trkpt>
      <trkpt lat="45.66855" lon="6.69101">
        <ele>2330</ele>
        <time>2022-07-16T13:11:14Z</time>
      </trkpt>
      <trkpt lat="45.66857" lon="6.69102">
        <ele>2330</ele>
        <time>2022-07-16T13:11:15Z</time>
      </trkpt>
      <trkpt lat="45.66859" lon="6.69104">
        <ele>2330</ele>
        <time>2022-07-16T13:11:16Z</time>
      </trkpt>
      <trkpt lat="45.6686" lon="6.69106">
        <ele>2328</ele>
        <time>2022-07-16T13:11:17Z</time>
      </trkpt>
      <trkpt lat="45.66861" lon="6.69108">
        <ele>2327</ele>
        <time>2022-07-16T13:11:18Z</time>
      </trkpt>
      <trkpt lat="45.66864" lon="6.69111">
        <ele>2327</ele>
        <time>2022-07-16T13:11:20Z</time>
      </trkpt>
      <trkpt lat="45.66866" lon="6.69115">
        <ele>2327</ele>
        <time>2022-07-16T13:11:22Z</time>
      </trkpt>
      <trkpt lat="45.66868" lon="6.69118">
        <ele>2326</ele>
        <time>2022-07-16T13:11:24Z</time>
      </trkpt>
      <trkpt lat="45.66869" lon="6.69122">
        <ele>2326</ele>
        <time>2022-07-16T13:11:26Z</time>
      </trkpt>
      <trkpt lat="45.6687" lon="6.69126">
        <ele>2324</ele>
        <time>2022-07-16T13:11:28Z</time>
      </trkpt>
      <trkpt lat="45.66871" lon="6.69129">
        <ele>2323</ele>
        <time>2022-07-16T13:11:30Z</time>
      </trkpt>
      <trkpt lat="45.66872" lon="6.69133">
        <ele>2322</ele>
        <time>2022-07-16T13:11:32Z</time>
      </trkpt>
      <trkpt lat="45.66873" lon="6.69137">
        <ele>2322</ele>
        <time>2022-07-16T13:11:34Z</time>
      </trkpt>
      <trkpt lat="45.66875" lon="6.69141">
        <ele>2321</ele>
        <time>2022-07-16T13:11:37Z</time>
      </trkpt>
      <trkpt lat="45.66878" lon="6.69141">
        <ele>2321</ele>
        <time>2022-07-16T13:11:39Z</time>
      </trkpt>
      <trkpt lat="45.6688" lon="6.69144">
        <ele>2321</ele>
        <time>2022-07-16T13:11:41Z</time>
      </trkpt>
      <trkpt lat="45.66882" lon="6.69145">
        <ele>2321</ele>
        <time>2022-07-16T13:11:42Z</time>
      </trkpt>
      <trkpt lat="45.66884" lon="6.69146">
        <ele>2321</ele>
        <time>2022-07-16T13:11:43Z</time>
      </trkpt>
      <trkpt lat="45.66885" lon="6.69148">
        <ele>2321</ele>
        <time>2022-07-16T13:11:44Z</time>
      </trkpt>
      <trkpt lat="45.66887" lon="6.69149">
        <ele>2320</ele>
        <time>2022-07-16T13:11:45Z</time>
      </trkpt>
      <trkpt lat="45.66889" lon="6.69151">
        <ele>2320</ele>
        <time>2022-07-16T13:11:46Z</time>
      </trkpt>
      <trkpt lat="45.66891" lon="6.69153">
        <ele>2319</ele>
        <time>2022-07-16T13:11:47Z</time>
      </trkpt>
      <trkpt lat="45.66893" lon="6.69155">
        <ele>2319</ele>
        <time>2022-07-16T13:11:48Z</time>
      </trkpt>
      <trkpt lat="45.66894" lon="6.69158">
        <ele>2319</ele>
        <time>2022-07-16T13:11:49Z</time>
      </trkpt>
      <trkpt lat="45.66896" lon="6.6916">
        <ele>2319</ele>
        <time>2022-07-16T13:11:50Z</time>
      </trkpt>
      <trkpt lat="45.66897" lon="6.69163">
        <ele>2319</ele>
        <time>2022-07-16T13:11:51Z</time>
      </trkpt>
      <trkpt lat="45.66899" lon="6.69165">
        <ele>2319</ele>
        <time>2022-07-16T13:11:52Z</time>
      </trkpt>
      <trkpt lat="45.669" lon="6.69168">
        <ele>2319</ele>
        <time>2022-07-16T13:11:53Z</time>
      </trkpt>
      <trkpt lat="45.66901" lon="6.69171">
        <ele>2319</ele>
        <time>2022-07-16T13:11:54Z</time>
      </trkpt>
      <trkpt lat="45.66902" lon="6.69173">
        <ele>2319</ele>
        <time>2022-07-16T13:11:55Z</time>
      </trkpt>
      <trkpt lat="45.66903" lon="6.69178">
        <ele>2319</ele>
        <time>2022-07-16T13:11:57Z</time>
      </trkpt>
      <trkpt lat="45.66903" lon="6.69183">
        <ele>2319</ele>
        <time>2022-07-16T13:11:59Z</time>
      </trkpt>
      <trkpt lat="45.66904" lon="6.69185">
        <ele>2317</ele>
        <time>2022-07-16T13:12:01Z</time>
      </trkpt>
      <trkpt lat="45.66906" lon="6.69189">
        <ele>2316</ele>
        <time>2022-07-16T13:12:03Z</time>
      </trkpt>
      <trkpt lat="45.66906" lon="6.69194">
        <ele>2317</ele>
        <time>2022-07-16T13:12:05Z</time>
      </trkpt>
      <trkpt lat="45.66906" lon="6.69199">
        <ele>2316</ele>
        <time>2022-07-16T13:12:07Z</time>
      </trkpt>
      <trkpt lat="45.66906" lon="6.692">
        <ele>2316</ele>
        <time>2022-07-16T13:12:08Z</time>
      </trkpt>
      <trkpt lat="45.66906" lon="6.69202">
        <ele>2316</ele>
        <time>2022-07-16T13:12:09Z</time>
      </trkpt>
      <trkpt lat="45.66907" lon="6.69204">
        <ele>2316</ele>
        <time>2022-07-16T13:12:10Z</time>
      </trkpt>
      <trkpt lat="45.66907" lon="6.69206">
        <ele>2316</ele>
        <time>2022-07-16T13:12:11Z</time>
      </trkpt>
      <trkpt lat="45.66908" lon="6.69208">
        <ele>2315</ele>
        <time>2022-07-16T13:12:12Z</time>
      </trkpt>
      <trkpt lat="45.6691" lon="6.69212">
        <ele>2313</ele>
        <time>2022-07-16T13:12:15Z</time>
      </trkpt>
      <trkpt lat="45.6691" lon="6.69215">
        <ele>2312</ele>
        <time>2022-07-16T13:12:17Z</time>
      </trkpt>
      <trkpt lat="45.66912" lon="6.69217">
        <ele>2311</ele>
        <time>2022-07-16T13:12:19Z</time>
      </trkpt>
      <trkpt lat="45.66915" lon="6.69219">
        <ele>2310</ele>
        <time>2022-07-16T13:12:21Z</time>
      </trkpt>
      <trkpt lat="45.66916" lon="6.69222">
        <ele>2309</ele>
        <time>2022-07-16T13:12:23Z</time>
      </trkpt>
      <trkpt lat="45.66918" lon="6.69225">
        <ele>2308</ele>
        <time>2022-07-16T13:12:25Z</time>
      </trkpt>
      <trkpt lat="45.66921" lon="6.69229">
        <ele>2307</ele>
        <time>2022-07-16T13:12:28Z</time>
      </trkpt>
      <trkpt lat="45.66922" lon="6.6923">
        <ele>2307</ele>
        <time>2022-07-16T13:12:30Z</time>
      </trkpt>
      <trkpt lat="45.66924" lon="6.69232">
        <ele>2306</ele>
        <time>2022-07-16T13:12:31Z</time>
      </trkpt>
      <trkpt lat="45.66926" lon="6.69234">
        <ele>2305</ele>
        <time>2022-07-16T13:12:34Z</time>
      </trkpt>
      <trkpt lat="45.66928" lon="6.69237">
        <ele>2305</ele>
        <time>2022-07-16T13:12:36Z</time>
      </trkpt>
      <trkpt lat="45.66931" lon="6.6924">
        <ele>2306</ele>
        <time>2022-07-16T13:12:39Z</time>
      </trkpt>
      <trkpt lat="45.66934" lon="6.69242">
        <ele>2305</ele>
        <time>2022-07-16T13:12:42Z</time>
      </trkpt>
      <trkpt lat="45.66935" lon="6.69243">
        <ele>2305</ele>
        <time>2022-07-16T13:12:43Z</time>
      </trkpt>
      <trkpt lat="45.66936" lon="6.69244">
        <ele>2305</ele>
        <time>2022-07-16T13:12:44Z</time>
      </trkpt>
      <trkpt lat="45.66937" lon="6.69245">
        <ele>2305</ele>
        <time>2022-07-16T13:12:46Z</time>
      </trkpt>
      <trkpt lat="45.66938" lon="6.69246">
        <ele>2304</ele>
        <time>2022-07-16T13:12:47Z</time>
      </trkpt>
      <trkpt lat="45.66941" lon="6.69249">
        <ele>2303</ele>
        <time>2022-07-16T13:12:49Z</time>
      </trkpt>
      <trkpt lat="45.66943" lon="6.6925">
        <ele>2302</ele>
        <time>2022-07-16T13:12:50Z</time>
      </trkpt>
      <trkpt lat="45.66946" lon="6.69253">
        <ele>2302</ele>
        <time>2022-07-16T13:12:52Z</time>
      </trkpt>
      <trkpt lat="45.66947" lon="6.69255">
        <ele>2302</ele>
        <time>2022-07-16T13:12:53Z</time>
      </trkpt>
      <trkpt lat="45.66949" lon="6.69257">
        <ele>2301</ele>
        <time>2022-07-16T13:12:54Z</time>
      </trkpt>
      <trkpt lat="45.6695" lon="6.69259">
        <ele>2301</ele>
        <time>2022-07-16T13:12:55Z</time>
      </trkpt>
      <trkpt lat="45.66953" lon="6.69262">
        <ele>2301</ele>
        <time>2022-07-16T13:12:57Z</time>
      </trkpt>
      <trkpt lat="45.66955" lon="6.69264">
        <ele>2301</ele>
        <time>2022-07-16T13:12:59Z</time>
      </trkpt>
      <trkpt lat="45.66957" lon="6.69267">
        <ele>2300</ele>
        <time>2022-07-16T13:13:01Z</time>
      </trkpt>
      <trkpt lat="45.66958" lon="6.69272">
        <ele>2298</ele>
        <time>2022-07-16T13:13:11Z</time>
      </trkpt>
      <trkpt lat="45.66958" lon="6.69272">
        <ele>2300</ele>
        <time>2022-07-16T13:13:17Z</time>
      </trkpt>
      <trkpt lat="45.66958" lon="6.69275">
        <ele>2298</ele>
        <time>2022-07-16T13:13:27Z</time>
      </trkpt>
      <trkpt lat="45.6696" lon="6.69277">
        <ele>2298</ele>
        <time>2022-07-16T13:13:31Z</time>
      </trkpt>
      <trkpt lat="45.66963" lon="6.69278">
        <ele>2298</ele>
        <time>2022-07-16T13:13:33Z</time>
      </trkpt>
      <trkpt lat="45.66965" lon="6.69277">
        <ele>2298</ele>
        <time>2022-07-16T13:13:34Z</time>
      </trkpt>
      <trkpt lat="45.66967" lon="6.69277">
        <ele>2298</ele>
        <time>2022-07-16T13:13:35Z</time>
      </trkpt>
      <trkpt lat="45.6697" lon="6.69277">
        <ele>2298</ele>
        <time>2022-07-16T13:13:36Z</time>
      </trkpt>
      <trkpt lat="45.66972" lon="6.69278">
        <ele>2298</ele>
        <time>2022-07-16T13:13:37Z</time>
      </trkpt>
      <trkpt lat="45.66974" lon="6.69278">
        <ele>2298</ele>
        <time>2022-07-16T13:13:38Z</time>
      </trkpt>
      <trkpt lat="45.66976" lon="6.69278">
        <ele>2298</ele>
        <time>2022-07-16T13:13:39Z</time>
      </trkpt>
      <trkpt lat="45.66978" lon="6.69278">
        <ele>2298</ele>
        <time>2022-07-16T13:13:40Z</time>
      </trkpt>
      <trkpt lat="45.6698" lon="6.69277">
        <ele>2298</ele>
        <time>2022-07-16T13:13:41Z</time>
      </trkpt>
      <trkpt lat="45.66982" lon="6.69277">
        <ele>2298</ele>
        <time>2022-07-16T13:13:42Z</time>
      </trkpt>
      <trkpt lat="45.66985" lon="6.69276">
        <ele>2298</ele>
        <time>2022-07-16T13:13:44Z</time>
      </trkpt>
      <trkpt lat="45.66988" lon="6.69276">
        <ele>2298</ele>
        <time>2022-07-16T13:13:46Z</time>
      </trkpt>
      <trkpt lat="45.6699" lon="6.69277">
        <ele>2298</ele>
        <time>2022-07-16T13:13:47Z</time>
      </trkpt>
      <trkpt lat="45.66993" lon="6.69277">
        <ele>2298</ele>
        <time>2022-07-16T13:13:50Z</time>
      </trkpt>
      <trkpt lat="45.66996" lon="6.69277">
        <ele>2297</ele>
        <time>2022-07-16T13:13:52Z</time>
      </trkpt>
      <trkpt lat="45.66998" lon="6.69277">
        <ele>2297</ele>
        <time>2022-07-16T13:13:53Z</time>
      </trkpt>
      <trkpt lat="45.67" lon="6.69277">
        <ele>2296</ele>
        <time>2022-07-16T13:13:54Z</time>
      </trkpt>
      <trkpt lat="45.67002" lon="6.69277">
        <ele>2296</ele>
        <time>2022-07-16T13:13:55Z</time>
      </trkpt>
      <trkpt lat="45.67004" lon="6.69277">
        <ele>2296</ele>
        <time>2022-07-16T13:13:56Z</time>
      </trkpt>
      <trkpt lat="45.67007" lon="6.69277">
        <ele>2296</ele>
        <time>2022-07-16T13:13:58Z</time>
      </trkpt>
      <trkpt lat="45.67009" lon="6.69279">
        <ele>2295</ele>
        <time>2022-07-16T13:14:00Z</time>
      </trkpt>
      <trkpt lat="45.67012" lon="6.69281">
        <ele>2295</ele>
        <time>2022-07-16T13:14:02Z</time>
      </trkpt>
      <trkpt lat="45.67014" lon="6.69283">
        <ele>2295</ele>
        <time>2022-07-16T13:14:04Z</time>
      </trkpt>
      <trkpt lat="45.67016" lon="6.69285">
        <ele>2295</ele>
        <time>2022-07-16T13:14:06Z</time>
      </trkpt>
      <trkpt lat="45.67018" lon="6.69287">
        <ele>2293</ele>
        <time>2022-07-16T13:14:08Z</time>
      </trkpt>
      <trkpt lat="45.67021" lon="6.69289">
        <ele>2292</ele>
        <time>2022-07-16T13:14:10Z</time>
      </trkpt>
      <trkpt lat="45.67024" lon="6.69292">
        <ele>2292</ele>
        <time>2022-07-16T13:14:12Z</time>
      </trkpt>
      <trkpt lat="45.67025" lon="6.69293">
        <ele>2292</ele>
        <time>2022-07-16T13:14:13Z</time>
      </trkpt>
      <trkpt lat="45.67027" lon="6.69294">
        <ele>2292</ele>
        <time>2022-07-16T13:14:14Z</time>
      </trkpt>
      <trkpt lat="45.67029" lon="6.69296">
        <ele>2292</ele>
        <time>2022-07-16T13:14:15Z</time>
      </trkpt>
      <trkpt lat="45.67031" lon="6.69297">
        <ele>2291</ele>
        <time>2022-07-16T13:14:16Z</time>
      </trkpt>
      <trkpt lat="45.67033" lon="6.69298">
        <ele>2291</ele>
        <time>2022-07-16T13:14:17Z</time>
      </trkpt>
      <trkpt lat="45.67035" lon="6.69298">
        <ele>2291</ele>
        <time>2022-07-16T13:14:18Z</time>
      </trkpt>
      <trkpt lat="45.67037" lon="6.69298">
        <ele>2291</ele>
        <time>2022-07-16T13:14:19Z</time>
      </trkpt>
      <trkpt lat="45.67039" lon="6.69299">
        <ele>2291</ele>
        <time>2022-07-16T13:14:20Z</time>
      </trkpt>
      <trkpt lat="45.67042" lon="6.693">
        <ele>2291</ele>
        <time>2022-07-16T13:14:22Z</time>
      </trkpt>
      <trkpt lat="45.67046" lon="6.69302">
        <ele>2291</ele>
        <time>2022-07-16T13:14:24Z</time>
      </trkpt>
      <trkpt lat="45.67049" lon="6.69303">
        <ele>2291</ele>
        <time>2022-07-16T13:14:26Z</time>
      </trkpt>
      <trkpt lat="45.67052" lon="6.69305">
        <ele>2291</ele>
        <time>2022-07-16T13:14:28Z</time>
      </trkpt>
      <trkpt lat="45.67054" lon="6.69306">
        <ele>2290</ele>
        <time>2022-07-16T13:14:29Z</time>
      </trkpt>
      <trkpt lat="45.67058" lon="6.69307">
        <ele>2290</ele>
        <time>2022-07-16T13:14:31Z</time>
      </trkpt>
      <trkpt lat="45.6706" lon="6.69309">
        <ele>2290</ele>
        <time>2022-07-16T13:14:33Z</time>
      </trkpt>
      <trkpt lat="45.67064" lon="6.69309">
        <ele>2291</ele>
        <time>2022-07-16T13:14:35Z</time>
      </trkpt>
      <trkpt lat="45.67067" lon="6.6931">
        <ele>2290</ele>
        <time>2022-07-16T13:14:37Z</time>
      </trkpt>
      <trkpt lat="45.67068" lon="6.69311">
        <ele>2290</ele>
        <time>2022-07-16T13:14:38Z</time>
      </trkpt>
      <trkpt lat="45.67069" lon="6.69311">
        <ele>2289</ele>
        <time>2022-07-16T13:14:39Z</time>
      </trkpt>
      <trkpt lat="45.67071" lon="6.69312">
        <ele>2289</ele>
        <time>2022-07-16T13:14:40Z</time>
      </trkpt>
      <trkpt lat="45.67074" lon="6.69313">
        <ele>2288</ele>
        <time>2022-07-16T13:14:42Z</time>
      </trkpt>
      <trkpt lat="45.67076" lon="6.69316">
        <ele>2288</ele>
        <time>2022-07-16T13:14:44Z</time>
      </trkpt>
      <trkpt lat="45.67077" lon="6.69317">
        <ele>2288</ele>
        <time>2022-07-16T13:14:45Z</time>
      </trkpt>
      <trkpt lat="45.67079" lon="6.69318">
        <ele>2288</ele>
        <time>2022-07-16T13:14:46Z</time>
      </trkpt>
      <trkpt lat="45.6708" lon="6.69319">
        <ele>2287</ele>
        <time>2022-07-16T13:14:47Z</time>
      </trkpt>
      <trkpt lat="45.67082" lon="6.6932">
        <ele>2287</ele>
        <time>2022-07-16T13:14:49Z</time>
      </trkpt>
      <trkpt lat="45.67085" lon="6.69322">
        <ele>2287</ele>
        <time>2022-07-16T13:14:51Z</time>
      </trkpt>
      <trkpt lat="45.67087" lon="6.69323">
        <ele>2287</ele>
        <time>2022-07-16T13:14:52Z</time>
      </trkpt>
      <trkpt lat="45.67089" lon="6.69323">
        <ele>2287</ele>
        <time>2022-07-16T13:14:53Z</time>
      </trkpt>
      <trkpt lat="45.67091" lon="6.69324">
        <ele>2287</ele>
        <time>2022-07-16T13:14:54Z</time>
      </trkpt>
      <trkpt lat="45.67094" lon="6.69324">
        <ele>2286</ele>
        <time>2022-07-16T13:14:56Z</time>
      </trkpt>
      <trkpt lat="45.67097" lon="6.69326">
        <ele>2286</ele>
        <time>2022-07-16T13:14:58Z</time>
      </trkpt>
      <trkpt lat="45.671" lon="6.69328">
        <ele>2286</ele>
        <time>2022-07-16T13:15:00Z</time>
      </trkpt>
      <trkpt lat="45.67102" lon="6.69329">
        <ele>2286</ele>
        <time>2022-07-16T13:15:01Z</time>
      </trkpt>
      <trkpt lat="45.67103" lon="6.69331">
        <ele>2286</ele>
        <time>2022-07-16T13:15:02Z</time>
      </trkpt>
      <trkpt lat="45.67105" lon="6.69332">
        <ele>2286</ele>
        <time>2022-07-16T13:15:03Z</time>
      </trkpt>
      <trkpt lat="45.67108" lon="6.69334">
        <ele>2285</ele>
        <time>2022-07-16T13:15:05Z</time>
      </trkpt>
      <trkpt lat="45.67109" lon="6.69336">
        <ele>2284</ele>
        <time>2022-07-16T13:15:06Z</time>
      </trkpt>
      <trkpt lat="45.67111" lon="6.69337">
        <ele>2284</ele>
        <time>2022-07-16T13:15:07Z</time>
      </trkpt>
      <trkpt lat="45.67114" lon="6.69339">
        <ele>2284</ele>
        <time>2022-07-16T13:15:09Z</time>
      </trkpt>
      <trkpt lat="45.67116" lon="6.6934">
        <ele>2284</ele>
        <time>2022-07-16T13:15:10Z</time>
      </trkpt>
      <trkpt lat="45.67117" lon="6.69341">
        <ele>2284</ele>
        <time>2022-07-16T13:15:11Z</time>
      </trkpt>
      <trkpt lat="45.6712" lon="6.69344">
        <ele>2284</ele>
        <time>2022-07-16T13:15:13Z</time>
      </trkpt>
      <trkpt lat="45.67122" lon="6.69345">
        <ele>2284</ele>
        <time>2022-07-16T13:15:14Z</time>
      </trkpt>
      <trkpt lat="45.67123" lon="6.69347">
        <ele>2283</ele>
        <time>2022-07-16T13:15:15Z</time>
      </trkpt>
      <trkpt lat="45.67124" lon="6.69349">
        <ele>2283</ele>
        <time>2022-07-16T13:15:16Z</time>
      </trkpt>
      <trkpt lat="45.67127" lon="6.69352">
        <ele>2283</ele>
        <time>2022-07-16T13:15:21Z</time>
      </trkpt>
      <trkpt lat="45.67129" lon="6.69354">
        <ele>2283</ele>
        <time>2022-07-16T13:15:22Z</time>
      </trkpt>
      <trkpt lat="45.67131" lon="6.69357">
        <ele>2282</ele>
        <time>2022-07-16T13:15:25Z</time>
      </trkpt>
      <trkpt lat="45.67133" lon="6.69357">
        <ele>2282</ele>
        <time>2022-07-16T13:15:27Z</time>
      </trkpt>
      <trkpt lat="45.67135" lon="6.69359">
        <ele>2282</ele>
        <time>2022-07-16T13:15:29Z</time>
      </trkpt>
      <trkpt lat="45.67137" lon="6.69362">
        <ele>2282</ele>
        <time>2022-07-16T13:15:31Z</time>
      </trkpt>
      <trkpt lat="45.6714" lon="6.69363">
        <ele>2281</ele>
        <time>2022-07-16T13:15:33Z</time>
      </trkpt>
      <trkpt lat="45.67142" lon="6.69365">
        <ele>2281</ele>
        <time>2022-07-16T13:15:35Z</time>
      </trkpt>
      <trkpt lat="45.67144" lon="6.69366">
        <ele>2281</ele>
        <time>2022-07-16T13:15:38Z</time>
      </trkpt>
      <trkpt lat="45.67146" lon="6.69366">
        <ele>2281</ele>
        <time>2022-07-16T13:15:40Z</time>
      </trkpt>
      <trkpt lat="45.67148" lon="6.69368">
        <ele>2281</ele>
        <time>2022-07-16T13:15:41Z</time>
      </trkpt>
      <trkpt lat="45.6715" lon="6.6937">
        <ele>2281</ele>
        <time>2022-07-16T13:15:44Z</time>
      </trkpt>
      <trkpt lat="45.67152" lon="6.6937">
        <ele>2281</ele>
        <time>2022-07-16T13:15:46Z</time>
      </trkpt>
      <trkpt lat="45.67155" lon="6.6937">
        <ele>2280</ele>
        <time>2022-07-16T13:15:48Z</time>
      </trkpt>
      <trkpt lat="45.67158" lon="6.69372">
        <ele>2280</ele>
        <time>2022-07-16T13:15:50Z</time>
      </trkpt>
      <trkpt lat="45.67159" lon="6.69376">
        <ele>2280</ele>
        <time>2022-07-16T13:15:52Z</time>
      </trkpt>
      <trkpt lat="45.67161" lon="6.6938">
        <ele>2280</ele>
        <time>2022-07-16T13:15:54Z</time>
      </trkpt>
      <trkpt lat="45.67163" lon="6.69382">
        <ele>2280</ele>
        <time>2022-07-16T13:15:56Z</time>
      </trkpt>
      <trkpt lat="45.67164" lon="6.69384">
        <ele>2280</ele>
        <time>2022-07-16T13:15:57Z</time>
      </trkpt>
      <trkpt lat="45.67166" lon="6.69386">
        <ele>2280</ele>
        <time>2022-07-16T13:15:59Z</time>
      </trkpt>
      <trkpt lat="45.67167" lon="6.69388">
        <ele>2279</ele>
        <time>2022-07-16T13:16:02Z</time>
      </trkpt>
      <trkpt lat="45.67169" lon="6.69389">
        <ele>2279</ele>
        <time>2022-07-16T13:16:04Z</time>
      </trkpt>
      <trkpt lat="45.67171" lon="6.6939">
        <ele>2279</ele>
        <time>2022-07-16T13:16:06Z</time>
      </trkpt>
      <trkpt lat="45.67173" lon="6.69392">
        <ele>2279</ele>
        <time>2022-07-16T13:16:08Z</time>
      </trkpt>
      <trkpt lat="45.67175" lon="6.69394">
        <ele>2279</ele>
        <time>2022-07-16T13:16:10Z</time>
      </trkpt>
      <trkpt lat="45.67177" lon="6.69397">
        <ele>2279</ele>
        <time>2022-07-16T13:16:12Z</time>
      </trkpt>
      <trkpt lat="45.67179" lon="6.694">
        <ele>2279</ele>
        <time>2022-07-16T13:16:14Z</time>
      </trkpt>
      <trkpt lat="45.6718" lon="6.69403">
        <ele>2279</ele>
        <time>2022-07-16T13:16:16Z</time>
      </trkpt>
      <trkpt lat="45.67182" lon="6.69405">
        <ele>2279</ele>
        <time>2022-07-16T13:16:17Z</time>
      </trkpt>
      <trkpt lat="45.67183" lon="6.69407">
        <ele>2279</ele>
        <time>2022-07-16T13:16:18Z</time>
      </trkpt>
      <trkpt lat="45.67187" lon="6.69409">
        <ele>2279</ele>
        <time>2022-07-16T13:16:19Z</time>
      </trkpt>
      <trkpt lat="45.67189" lon="6.6941">
        <ele>2279</ele>
        <time>2022-07-16T13:16:21Z</time>
      </trkpt>
      <trkpt lat="45.67191" lon="6.69411">
        <ele>2279</ele>
        <time>2022-07-16T13:16:22Z</time>
      </trkpt>
      <trkpt lat="45.67194" lon="6.69413">
        <ele>2279</ele>
        <time>2022-07-16T13:16:24Z</time>
      </trkpt>
      <trkpt lat="45.67196" lon="6.69413">
        <ele>2279</ele>
        <time>2022-07-16T13:16:25Z</time>
      </trkpt>
      <trkpt lat="45.67197" lon="6.69415">
        <ele>2279</ele>
        <time>2022-07-16T13:16:26Z</time>
      </trkpt>
      <trkpt lat="45.672" lon="6.69417">
        <ele>2279</ele>
        <time>2022-07-16T13:16:28Z</time>
      </trkpt>
      <trkpt lat="45.67202" lon="6.69419">
        <ele>2278</ele>
        <time>2022-07-16T13:16:32Z</time>
      </trkpt>
      <trkpt lat="45.67205" lon="6.69421">
        <ele>2278</ele>
        <time>2022-07-16T13:16:34Z</time>
      </trkpt>
      <trkpt lat="45.67206" lon="6.69424">
        <ele>2278</ele>
        <time>2022-07-16T13:16:36Z</time>
      </trkpt>
      <trkpt lat="45.67208" lon="6.69426">
        <ele>2278</ele>
        <time>2022-07-16T13:16:38Z</time>
      </trkpt>
      <trkpt lat="45.67211" lon="6.6943">
        <ele>2278</ele>
        <time>2022-07-16T13:16:40Z</time>
      </trkpt>
      <trkpt lat="45.67212" lon="6.69432">
        <ele>2278</ele>
        <time>2022-07-16T13:16:41Z</time>
      </trkpt>
      <trkpt lat="45.67213" lon="6.69434">
        <ele>2278</ele>
        <time>2022-07-16T13:16:42Z</time>
      </trkpt>
      <trkpt lat="45.67216" lon="6.69437">
        <ele>2278</ele>
        <time>2022-07-16T13:16:43Z</time>
      </trkpt>
      <trkpt lat="45.67218" lon="6.69439">
        <ele>2278</ele>
        <time>2022-07-16T13:16:45Z</time>
      </trkpt>
      <trkpt lat="45.67219" lon="6.69441">
        <ele>2278</ele>
        <time>2022-07-16T13:16:46Z</time>
      </trkpt>
      <trkpt lat="45.6722" lon="6.69443">
        <ele>2278</ele>
        <time>2022-07-16T13:16:47Z</time>
      </trkpt>
      <trkpt lat="45.67221" lon="6.69446">
        <ele>2278</ele>
        <time>2022-07-16T13:16:48Z</time>
      </trkpt>
      <trkpt lat="45.67223" lon="6.6945">
        <ele>2278</ele>
        <time>2022-07-16T13:16:50Z</time>
      </trkpt>
      <trkpt lat="45.67226" lon="6.69453">
        <ele>2277</ele>
        <time>2022-07-16T13:16:52Z</time>
      </trkpt>
      <trkpt lat="45.67229" lon="6.69455">
        <ele>2277</ele>
        <time>2022-07-16T13:16:54Z</time>
      </trkpt>
      <trkpt lat="45.67232" lon="6.69458">
        <ele>2277</ele>
        <time>2022-07-16T13:16:56Z</time>
      </trkpt>
      <trkpt lat="45.67233" lon="6.69459">
        <ele>2277</ele>
        <time>2022-07-16T13:16:57Z</time>
      </trkpt>
      <trkpt lat="45.67236" lon="6.69461">
        <ele>2277</ele>
        <time>2022-07-16T13:16:59Z</time>
      </trkpt>
      <trkpt lat="45.67238" lon="6.69463">
        <ele>2275</ele>
        <time>2022-07-16T13:17:00Z</time>
      </trkpt>
      <trkpt lat="45.67239" lon="6.69465">
        <ele>2275</ele>
        <time>2022-07-16T13:17:01Z</time>
      </trkpt>
      <trkpt lat="45.67241" lon="6.69466">
        <ele>2276</ele>
        <time>2022-07-16T13:17:02Z</time>
      </trkpt>
      <trkpt lat="45.67242" lon="6.69468">
        <ele>2276</ele>
        <time>2022-07-16T13:17:03Z</time>
      </trkpt>
      <trkpt lat="45.67244" lon="6.69469">
        <ele>2276</ele>
        <time>2022-07-16T13:17:04Z</time>
      </trkpt>
      <trkpt lat="45.67246" lon="6.69471">
        <ele>2276</ele>
        <time>2022-07-16T13:17:05Z</time>
      </trkpt>
      <trkpt lat="45.67248" lon="6.69473">
        <ele>2276</ele>
        <time>2022-07-16T13:17:06Z</time>
      </trkpt>
      <trkpt lat="45.6725" lon="6.69474">
        <ele>2275</ele>
        <time>2022-07-16T13:17:07Z</time>
      </trkpt>
      <trkpt lat="45.67252" lon="6.69475">
        <ele>2275</ele>
        <time>2022-07-16T13:17:08Z</time>
      </trkpt>
      <trkpt lat="45.67254" lon="6.69477">
        <ele>2275</ele>
        <time>2022-07-16T13:17:09Z</time>
      </trkpt>
      <trkpt lat="45.67256" lon="6.69479">
        <ele>2275</ele>
        <time>2022-07-16T13:17:10Z</time>
      </trkpt>
      <trkpt lat="45.67257" lon="6.69481">
        <ele>2275</ele>
        <time>2022-07-16T13:17:11Z</time>
      </trkpt>
      <trkpt lat="45.67259" lon="6.69483">
        <ele>2275</ele>
        <time>2022-07-16T13:17:12Z</time>
      </trkpt>
      <trkpt lat="45.67261" lon="6.69484">
        <ele>2275</ele>
        <time>2022-07-16T13:17:13Z</time>
      </trkpt>
      <trkpt lat="45.67263" lon="6.69485">
        <ele>2275</ele>
        <time>2022-07-16T13:17:14Z</time>
      </trkpt>
      <trkpt lat="45.67265" lon="6.69487">
        <ele>2275</ele>
        <time>2022-07-16T13:17:15Z</time>
      </trkpt>
      <trkpt lat="45.67269" lon="6.69489">
        <ele>2275</ele>
        <time>2022-07-16T13:17:16Z</time>
      </trkpt>
      <trkpt lat="45.67271" lon="6.6949">
        <ele>2275</ele>
        <time>2022-07-16T13:17:18Z</time>
      </trkpt>
      <trkpt lat="45.67273" lon="6.69492">
        <ele>2274</ele>
        <time>2022-07-16T13:17:19Z</time>
      </trkpt>
      <trkpt lat="45.67274" lon="6.69493">
        <ele>2274</ele>
        <time>2022-07-16T13:17:20Z</time>
      </trkpt>
      <trkpt lat="45.67276" lon="6.69495">
        <ele>2274</ele>
        <time>2022-07-16T13:17:21Z</time>
      </trkpt>
      <trkpt lat="45.67278" lon="6.69497">
        <ele>2274</ele>
        <time>2022-07-16T13:17:22Z</time>
      </trkpt>
      <trkpt lat="45.67279" lon="6.69499">
        <ele>2274</ele>
        <time>2022-07-16T13:17:23Z</time>
      </trkpt>
      <trkpt lat="45.67281" lon="6.695">
        <ele>2274</ele>
        <time>2022-07-16T13:17:24Z</time>
      </trkpt>
      <trkpt lat="45.67282" lon="6.69501">
        <ele>2274</ele>
        <time>2022-07-16T13:17:25Z</time>
      </trkpt>
      <trkpt lat="45.67285" lon="6.69504">
        <ele>2272</ele>
        <time>2022-07-16T13:17:27Z</time>
      </trkpt>
      <trkpt lat="45.67287" lon="6.69505">
        <ele>2272</ele>
        <time>2022-07-16T13:17:28Z</time>
      </trkpt>
      <trkpt lat="45.67289" lon="6.69507">
        <ele>2271</ele>
        <time>2022-07-16T13:17:30Z</time>
      </trkpt>
      <trkpt lat="45.67292" lon="6.69509">
        <ele>2271</ele>
        <time>2022-07-16T13:17:32Z</time>
      </trkpt>
      <trkpt lat="45.67294" lon="6.69512">
        <ele>2270</ele>
        <time>2022-07-16T13:17:34Z</time>
      </trkpt>
      <trkpt lat="45.67295" lon="6.69515">
        <ele>2270</ele>
        <time>2022-07-16T13:17:36Z</time>
      </trkpt>
      <trkpt lat="45.67297" lon="6.69517">
        <ele>2269</ele>
        <time>2022-07-16T13:17:38Z</time>
      </trkpt>
      <trkpt lat="45.67299" lon="6.6952">
        <ele>2268</ele>
        <time>2022-07-16T13:17:40Z</time>
      </trkpt>
      <trkpt lat="45.673" lon="6.69522">
        <ele>2267</ele>
        <time>2022-07-16T13:17:41Z</time>
      </trkpt>
      <trkpt lat="45.67301" lon="6.69524">
        <ele>2267</ele>
        <time>2022-07-16T13:17:42Z</time>
      </trkpt>
      <trkpt lat="45.67303" lon="6.69527">
        <ele>2266</ele>
        <time>2022-07-16T13:17:44Z</time>
      </trkpt>
      <trkpt lat="45.67305" lon="6.6953">
        <ele>2265</ele>
        <time>2022-07-16T13:17:46Z</time>
      </trkpt>
      <trkpt lat="45.67308" lon="6.69533">
        <ele>2264</ele>
        <time>2022-07-16T13:17:48Z</time>
      </trkpt>
      <trkpt lat="45.6731" lon="6.69535">
        <ele>2264</ele>
        <time>2022-07-16T13:17:49Z</time>
      </trkpt>
      <trkpt lat="45.67312" lon="6.69536">
        <ele>2263</ele>
        <time>2022-07-16T13:17:50Z</time>
      </trkpt>
      <trkpt lat="45.67313" lon="6.69538">
        <ele>2263</ele>
        <time>2022-07-16T13:17:51Z</time>
      </trkpt>
      <trkpt lat="45.67315" lon="6.69539">
        <ele>2263</ele>
        <time>2022-07-16T13:17:52Z</time>
      </trkpt>
      <trkpt lat="45.67317" lon="6.6954">
        <ele>2263</ele>
        <time>2022-07-16T13:17:53Z</time>
      </trkpt>
      <trkpt lat="45.6732" lon="6.69541">
        <ele>2263</ele>
        <time>2022-07-16T13:17:55Z</time>
      </trkpt>
      <trkpt lat="45.67323" lon="6.69543">
        <ele>2262</ele>
        <time>2022-07-16T13:17:57Z</time>
      </trkpt>
      <trkpt lat="45.67324" lon="6.69545">
        <ele>2260</ele>
        <time>2022-07-16T13:18:00Z</time>
      </trkpt>
      <trkpt lat="45.67327" lon="6.69548">
        <ele>2260</ele>
        <time>2022-07-16T13:18:02Z</time>
      </trkpt>
      <trkpt lat="45.67329" lon="6.69548">
        <ele>2259</ele>
        <time>2022-07-16T13:18:03Z</time>
      </trkpt>
      <trkpt lat="45.67331" lon="6.6955">
        <ele>2259</ele>
        <time>2022-07-16T13:18:04Z</time>
      </trkpt>
      <trkpt lat="45.67331" lon="6.69552">
        <ele>2259</ele>
        <time>2022-07-16T13:18:06Z</time>
      </trkpt>
      <trkpt lat="45.67333" lon="6.69553">
        <ele>2259</ele>
        <time>2022-07-16T13:18:08Z</time>
      </trkpt>
      <trkpt lat="45.67335" lon="6.69555">
        <ele>2257</ele>
        <time>2022-07-16T13:18:10Z</time>
      </trkpt>
      <trkpt lat="45.67337" lon="6.69556">
        <ele>2257</ele>
        <time>2022-07-16T13:18:12Z</time>
      </trkpt>
      <trkpt lat="45.6734" lon="6.69557">
        <ele>2256</ele>
        <time>2022-07-16T13:18:14Z</time>
      </trkpt>
      <trkpt lat="45.67342" lon="6.69557">
        <ele>2256</ele>
        <time>2022-07-16T13:18:15Z</time>
      </trkpt>
      <trkpt lat="45.67345" lon="6.69558">
        <ele>2255</ele>
        <time>2022-07-16T13:18:17Z</time>
      </trkpt>
      <trkpt lat="45.67346" lon="6.69559">
        <ele>2254</ele>
        <time>2022-07-16T13:18:19Z</time>
      </trkpt>
      <trkpt lat="45.67348" lon="6.69561">
        <ele>2254</ele>
        <time>2022-07-16T13:18:21Z</time>
      </trkpt>
      <trkpt lat="45.6735" lon="6.69562">
        <ele>2253</ele>
        <time>2022-07-16T13:18:23Z</time>
      </trkpt>
      <trkpt lat="45.67353" lon="6.69562">
        <ele>2253</ele>
        <time>2022-07-16T13:18:25Z</time>
      </trkpt>
      <trkpt lat="45.67355" lon="6.69562">
        <ele>2253</ele>
        <time>2022-07-16T13:18:26Z</time>
      </trkpt>
      <trkpt lat="45.67358" lon="6.69561">
        <ele>2251</ele>
        <time>2022-07-16T13:18:28Z</time>
      </trkpt>
      <trkpt lat="45.67361" lon="6.69564">
        <ele>2251</ele>
        <time>2022-07-16T13:18:30Z</time>
      </trkpt>
      <trkpt lat="45.67364" lon="6.69566">
        <ele>2250</ele>
        <time>2022-07-16T13:18:32Z</time>
      </trkpt>
      <trkpt lat="45.67365" lon="6.69569">
        <ele>2249</ele>
        <time>2022-07-16T13:18:34Z</time>
      </trkpt>
      <trkpt lat="45.67367" lon="6.69571">
        <ele>2249</ele>
        <time>2022-07-16T13:18:37Z</time>
      </trkpt>
      <trkpt lat="45.67369" lon="6.69568">
        <ele>2249</ele>
        <time>2022-07-16T13:18:39Z</time>
      </trkpt>
      <trkpt lat="45.67371" lon="6.69567">
        <ele>2248</ele>
        <time>2022-07-16T13:18:41Z</time>
      </trkpt>
      <trkpt lat="45.67373" lon="6.69566">
        <ele>2245</ele>
        <time>2022-07-16T13:18:43Z</time>
      </trkpt>
      <trkpt lat="45.67375" lon="6.69564">
        <ele>2244</ele>
        <time>2022-07-16T13:18:45Z</time>
      </trkpt>
      <trkpt lat="45.67377" lon="6.69562">
        <ele>2243</ele>
        <time>2022-07-16T13:18:47Z</time>
      </trkpt>
      <trkpt lat="45.6738" lon="6.69563">
        <ele>2242</ele>
        <time>2022-07-16T13:18:49Z</time>
      </trkpt>
      <trkpt lat="45.67381" lon="6.69563">
        <ele>2242</ele>
        <time>2022-07-16T13:18:50Z</time>
      </trkpt>
      <trkpt lat="45.67383" lon="6.69564">
        <ele>2242</ele>
        <time>2022-07-16T13:18:51Z</time>
      </trkpt>
      <trkpt lat="45.67384" lon="6.69564">
        <ele>2241</ele>
        <time>2022-07-16T13:18:52Z</time>
      </trkpt>
      <trkpt lat="45.67386" lon="6.69567">
        <ele>2240</ele>
        <time>2022-07-16T13:18:54Z</time>
      </trkpt>
      <trkpt lat="45.67388" lon="6.69569">
        <ele>2240</ele>
        <time>2022-07-16T13:18:56Z</time>
      </trkpt>
      <trkpt lat="45.6739" lon="6.69573">
        <ele>2239</ele>
        <time>2022-07-16T13:18:58Z</time>
      </trkpt>
      <trkpt lat="45.6739" lon="6.69576">
        <ele>2238</ele>
        <time>2022-07-16T13:18:59Z</time>
      </trkpt>
      <trkpt lat="45.6739" lon="6.6958">
        <ele>2238</ele>
        <time>2022-07-16T13:19:01Z</time>
      </trkpt>
      <trkpt lat="45.67391" lon="6.69584">
        <ele>2238</ele>
        <time>2022-07-16T13:19:04Z</time>
      </trkpt>
      <trkpt lat="45.67392" lon="6.69586">
        <ele>2238</ele>
        <time>2022-07-16T13:19:07Z</time>
      </trkpt>
      <trkpt lat="45.67394" lon="6.69589">
        <ele>2236</ele>
        <time>2022-07-16T13:19:09Z</time>
      </trkpt>
      <trkpt lat="45.67396" lon="6.69591">
        <ele>2236</ele>
        <time>2022-07-16T13:19:11Z</time>
      </trkpt>
      <trkpt lat="45.67399" lon="6.69593">
        <ele>2235</ele>
        <time>2022-07-16T13:19:13Z</time>
      </trkpt>
      <trkpt lat="45.67399" lon="6.69594">
        <ele>2234</ele>
        <time>2022-07-16T13:19:14Z</time>
      </trkpt>
      <trkpt lat="45.674" lon="6.69595">
        <ele>2234</ele>
        <time>2022-07-16T13:19:15Z</time>
      </trkpt>
      <trkpt lat="45.67401" lon="6.69597">
        <ele>2234</ele>
        <time>2022-07-16T13:19:16Z</time>
      </trkpt>
      <trkpt lat="45.67402" lon="6.69598">
        <ele>2234</ele>
        <time>2022-07-16T13:19:17Z</time>
      </trkpt>
      <trkpt lat="45.67403" lon="6.69599">
        <ele>2234</ele>
        <time>2022-07-16T13:19:18Z</time>
      </trkpt>
      <trkpt lat="45.67404" lon="6.696">
        <ele>2234</ele>
        <time>2022-07-16T13:19:19Z</time>
      </trkpt>
      <trkpt lat="45.67404" lon="6.69601">
        <ele>2233</ele>
        <time>2022-07-16T13:19:20Z</time>
      </trkpt>
      <trkpt lat="45.67406" lon="6.69604">
        <ele>2232</ele>
        <time>2022-07-16T13:19:22Z</time>
      </trkpt>
      <trkpt lat="45.67407" lon="6.69608">
        <ele>2231</ele>
        <time>2022-07-16T13:19:24Z</time>
      </trkpt>
      <trkpt lat="45.67407" lon="6.69611">
        <ele>2231</ele>
        <time>2022-07-16T13:19:26Z</time>
      </trkpt>
      <trkpt lat="45.67408" lon="6.69613">
        <ele>2231</ele>
        <time>2022-07-16T13:19:27Z</time>
      </trkpt>
      <trkpt lat="45.67408" lon="6.69614">
        <ele>2231</ele>
        <time>2022-07-16T13:19:28Z</time>
      </trkpt>
      <trkpt lat="45.67409" lon="6.69616">
        <ele>2231</ele>
        <time>2022-07-16T13:19:29Z</time>
      </trkpt>
      <trkpt lat="45.67409" lon="6.69617">
        <ele>2231</ele>
        <time>2022-07-16T13:19:30Z</time>
      </trkpt>
      <trkpt lat="45.6741" lon="6.69621">
        <ele>2230</ele>
        <time>2022-07-16T13:19:32Z</time>
      </trkpt>
      <trkpt lat="45.67413" lon="6.69624">
        <ele>2229</ele>
        <time>2022-07-16T13:19:34Z</time>
      </trkpt>
      <trkpt lat="45.67414" lon="6.69626">
        <ele>2229</ele>
        <time>2022-07-16T13:19:35Z</time>
      </trkpt>
      <trkpt lat="45.67416" lon="6.69629">
        <ele>2228</ele>
        <time>2022-07-16T13:19:37Z</time>
      </trkpt>
      <trkpt lat="45.67418" lon="6.69632">
        <ele>2227</ele>
        <time>2022-07-16T13:19:39Z</time>
      </trkpt>
      <trkpt lat="45.67419" lon="6.69636">
        <ele>2227</ele>
        <time>2022-07-16T13:19:41Z</time>
      </trkpt>
      <trkpt lat="45.67421" lon="6.6964">
        <ele>2226</ele>
        <time>2022-07-16T13:19:44Z</time>
      </trkpt>
      <trkpt lat="45.67422" lon="6.69644">
        <ele>2226</ele>
        <time>2022-07-16T13:19:46Z</time>
      </trkpt>
      <trkpt lat="45.67424" lon="6.69647">
        <ele>2226</ele>
        <time>2022-07-16T13:19:48Z</time>
      </trkpt>
      <trkpt lat="45.67427" lon="6.69649">
        <ele>2225</ele>
        <time>2022-07-16T13:19:50Z</time>
      </trkpt>
      <trkpt lat="45.67428" lon="6.69651">
        <ele>2224</ele>
        <time>2022-07-16T13:19:51Z</time>
      </trkpt>
      <trkpt lat="45.67431" lon="6.69654">
        <ele>2224</ele>
        <time>2022-07-16T13:19:53Z</time>
      </trkpt>
      <trkpt lat="45.67433" lon="6.69655">
        <ele>2224</ele>
        <time>2022-07-16T13:19:54Z</time>
      </trkpt>
      <trkpt lat="45.67434" lon="6.69657">
        <ele>2223</ele>
        <time>2022-07-16T13:19:55Z</time>
      </trkpt>
      <trkpt lat="45.67436" lon="6.69659">
        <ele>2222</ele>
        <time>2022-07-16T13:19:56Z</time>
      </trkpt>
      <trkpt lat="45.67439" lon="6.69661">
        <ele>2222</ele>
        <time>2022-07-16T13:19:58Z</time>
      </trkpt>
      <trkpt lat="45.6744" lon="6.69662">
        <ele>2222</ele>
        <time>2022-07-16T13:19:59Z</time>
      </trkpt>
      <trkpt lat="45.67442" lon="6.69663">
        <ele>2220</ele>
        <time>2022-07-16T13:20:00Z</time>
      </trkpt>
      <trkpt lat="45.67444" lon="6.69664">
        <ele>2220</ele>
        <time>2022-07-16T13:20:01Z</time>
      </trkpt>
      <trkpt lat="45.67445" lon="6.69666">
        <ele>2220</ele>
        <time>2022-07-16T13:20:02Z</time>
      </trkpt>
      <trkpt lat="45.67448" lon="6.69668">
        <ele>2219</ele>
        <time>2022-07-16T13:20:04Z</time>
      </trkpt>
      <trkpt lat="45.67451" lon="6.6967">
        <ele>2218</ele>
        <time>2022-07-16T13:20:06Z</time>
      </trkpt>
      <trkpt lat="45.67455" lon="6.69672">
        <ele>2218</ele>
        <time>2022-07-16T13:20:08Z</time>
      </trkpt>
      <trkpt lat="45.67457" lon="6.69676">
        <ele>2214</ele>
        <time>2022-07-16T13:20:10Z</time>
      </trkpt>
      <trkpt lat="45.67459" lon="6.69678">
        <ele>2214</ele>
        <time>2022-07-16T13:20:12Z</time>
      </trkpt>
      <trkpt lat="45.67462" lon="6.69681">
        <ele>2214</ele>
        <time>2022-07-16T13:20:14Z</time>
      </trkpt>
      <trkpt lat="45.67463" lon="6.69684">
        <ele>2213</ele>
        <time>2022-07-16T13:20:16Z</time>
      </trkpt>
      <trkpt lat="45.67465" lon="6.69686">
        <ele>2213</ele>
        <time>2022-07-16T13:20:17Z</time>
      </trkpt>
      <trkpt lat="45.67468" lon="6.69687">
        <ele>2211</ele>
        <time>2022-07-16T13:20:20Z</time>
      </trkpt>
      <trkpt lat="45.6747" lon="6.69689">
        <ele>2210</ele>
        <time>2022-07-16T13:20:22Z</time>
      </trkpt>
      <trkpt lat="45.67473" lon="6.69691">
        <ele>2210</ele>
        <time>2022-07-16T13:20:24Z</time>
      </trkpt>
      <trkpt lat="45.67474" lon="6.69693">
        <ele>2208</ele>
        <time>2022-07-16T13:20:26Z</time>
      </trkpt>
      <trkpt lat="45.67476" lon="6.69695">
        <ele>2208</ele>
        <time>2022-07-16T13:20:28Z</time>
      </trkpt>
      <trkpt lat="45.67478" lon="6.69697">
        <ele>2207</ele>
        <time>2022-07-16T13:20:31Z</time>
      </trkpt>
      <trkpt lat="45.6748" lon="6.69701">
        <ele>2205</ele>
        <time>2022-07-16T13:20:33Z</time>
      </trkpt>
      <trkpt lat="45.67482" lon="6.69702">
        <ele>2204</ele>
        <time>2022-07-16T13:20:34Z</time>
      </trkpt>
      <trkpt lat="45.67484" lon="6.69703">
        <ele>2204</ele>
        <time>2022-07-16T13:20:35Z</time>
      </trkpt>
      <trkpt lat="45.67486" lon="6.69703">
        <ele>2204</ele>
        <time>2022-07-16T13:20:36Z</time>
      </trkpt>
      <trkpt lat="45.67488" lon="6.69704">
        <ele>2204</ele>
        <time>2022-07-16T13:20:37Z</time>
      </trkpt>
      <trkpt lat="45.6749" lon="6.69705">
        <ele>2204</ele>
        <time>2022-07-16T13:20:38Z</time>
      </trkpt>
      <trkpt lat="45.67492" lon="6.69706">
        <ele>2204</ele>
        <time>2022-07-16T13:20:39Z</time>
      </trkpt>
      <trkpt lat="45.67495" lon="6.69708">
        <ele>2204</ele>
        <time>2022-07-16T13:20:40Z</time>
      </trkpt>
      <trkpt lat="45.67496" lon="6.69709">
        <ele>2203</ele>
        <time>2022-07-16T13:20:41Z</time>
      </trkpt>
      <trkpt lat="45.67497" lon="6.69711">
        <ele>2203</ele>
        <time>2022-07-16T13:20:42Z</time>
      </trkpt>
      <trkpt lat="45.67499" lon="6.69713">
        <ele>2203</ele>
        <time>2022-07-16T13:20:43Z</time>
      </trkpt>
      <trkpt lat="45.67501" lon="6.69715">
        <ele>2203</ele>
        <time>2022-07-16T13:20:44Z</time>
      </trkpt>
      <trkpt lat="45.67503" lon="6.69716">
        <ele>2203</ele>
        <time>2022-07-16T13:20:45Z</time>
      </trkpt>
      <trkpt lat="45.67506" lon="6.69719">
        <ele>2202</ele>
        <time>2022-07-16T13:20:47Z</time>
      </trkpt>
      <trkpt lat="45.67508" lon="6.69721">
        <ele>2201</ele>
        <time>2022-07-16T13:20:48Z</time>
      </trkpt>
      <trkpt lat="45.67509" lon="6.69723">
        <ele>2201</ele>
        <time>2022-07-16T13:20:49Z</time>
      </trkpt>
      <trkpt lat="45.67511" lon="6.69725">
        <ele>2201</ele>
        <time>2022-07-16T13:20:50Z</time>
      </trkpt>
      <trkpt lat="45.67513" lon="6.69726">
        <ele>2201</ele>
        <time>2022-07-16T13:20:51Z</time>
      </trkpt>
      <trkpt lat="45.67515" lon="6.69728">
        <ele>2201</ele>
        <time>2022-07-16T13:20:52Z</time>
      </trkpt>
      <trkpt lat="45.67516" lon="6.69729">
        <ele>2201</ele>
        <time>2022-07-16T13:20:53Z</time>
      </trkpt>
      <trkpt lat="45.67518" lon="6.69731">
        <ele>2201</ele>
        <time>2022-07-16T13:20:54Z</time>
      </trkpt>
      <trkpt lat="45.6752" lon="6.69733">
        <ele>2201</ele>
        <time>2022-07-16T13:20:55Z</time>
      </trkpt>
      <trkpt lat="45.67521" lon="6.69735">
        <ele>2200</ele>
        <time>2022-07-16T13:20:56Z</time>
      </trkpt>
      <trkpt lat="45.67524" lon="6.69738">
        <ele>2199</ele>
        <time>2022-07-16T13:20:58Z</time>
      </trkpt>
      <trkpt lat="45.67525" lon="6.6974">
        <ele>2199</ele>
        <time>2022-07-16T13:20:59Z</time>
      </trkpt>
      <trkpt lat="45.67528" lon="6.69744">
        <ele>2198</ele>
        <time>2022-07-16T13:21:01Z</time>
      </trkpt>
      <trkpt lat="45.6753" lon="6.69747">
        <ele>2197</ele>
        <time>2022-07-16T13:21:03Z</time>
      </trkpt>
      <trkpt lat="45.67532" lon="6.69748">
        <ele>2197</ele>
        <time>2022-07-16T13:21:04Z</time>
      </trkpt>
      <trkpt lat="45.67534" lon="6.69749">
        <ele>2197</ele>
        <time>2022-07-16T13:21:05Z</time>
      </trkpt>
      <trkpt lat="45.67536" lon="6.6975">
        <ele>2197</ele>
        <time>2022-07-16T13:21:06Z</time>
      </trkpt>
      <trkpt lat="45.67538" lon="6.69752">
        <ele>2196</ele>
        <time>2022-07-16T13:21:07Z</time>
      </trkpt>
      <trkpt lat="45.67539" lon="6.69754">
        <ele>2196</ele>
        <time>2022-07-16T13:21:08Z</time>
      </trkpt>
      <trkpt lat="45.67541" lon="6.69756">
        <ele>2196</ele>
        <time>2022-07-16T13:21:09Z</time>
      </trkpt>
      <trkpt lat="45.67542" lon="6.69758">
        <ele>2196</ele>
        <time>2022-07-16T13:21:10Z</time>
      </trkpt>
      <trkpt lat="45.67544" lon="6.69761">
        <ele>2194</ele>
        <time>2022-07-16T13:21:12Z</time>
      </trkpt>
      <trkpt lat="45.67545" lon="6.69763">
        <ele>2193</ele>
        <time>2022-07-16T13:21:13Z</time>
      </trkpt>
      <trkpt lat="45.67545" lon="6.69765">
        <ele>2193</ele>
        <time>2022-07-16T13:21:14Z</time>
      </trkpt>
      <trkpt lat="45.67546" lon="6.69766">
        <ele>2193</ele>
        <time>2022-07-16T13:21:15Z</time>
      </trkpt>
      <trkpt lat="45.67546" lon="6.69768">
        <ele>2193</ele>
        <time>2022-07-16T13:21:16Z</time>
      </trkpt>
      <trkpt lat="45.67548" lon="6.69771">
        <ele>2192</ele>
        <time>2022-07-16T13:21:18Z</time>
      </trkpt>
      <trkpt lat="45.6755" lon="6.69773">
        <ele>2191</ele>
        <time>2022-07-16T13:21:20Z</time>
      </trkpt>
      <trkpt lat="45.67552" lon="6.69776">
        <ele>2190</ele>
        <time>2022-07-16T13:21:22Z</time>
      </trkpt>
      <trkpt lat="45.67555" lon="6.69778">
        <ele>2190</ele>
        <time>2022-07-16T13:21:25Z</time>
      </trkpt>
      <trkpt lat="45.67557" lon="6.69777">
        <ele>2189</ele>
        <time>2022-07-16T13:21:27Z</time>
      </trkpt>
      <trkpt lat="45.67559" lon="6.69778">
        <ele>2187</ele>
        <time>2022-07-16T13:21:29Z</time>
      </trkpt>
      <trkpt lat="45.67562" lon="6.69781">
        <ele>2188</ele>
        <time>2022-07-16T13:21:31Z</time>
      </trkpt>
      <trkpt lat="45.67563" lon="6.69783">
        <ele>2187</ele>
        <time>2022-07-16T13:21:32Z</time>
      </trkpt>
      <trkpt lat="45.67563" lon="6.69786">
        <ele>2186</ele>
        <time>2022-07-16T13:21:33Z</time>
      </trkpt>
      <trkpt lat="45.67563" lon="6.69789">
        <ele>2186</ele>
        <time>2022-07-16T13:21:34Z</time>
      </trkpt>
      <trkpt lat="45.67563" lon="6.69792">
        <ele>2185</ele>
        <time>2022-07-16T13:21:35Z</time>
      </trkpt>
      <trkpt lat="45.67563" lon="6.69796">
        <ele>2184</ele>
        <time>2022-07-16T13:21:37Z</time>
      </trkpt>
      <trkpt lat="45.67562" lon="6.69801">
        <ele>2183</ele>
        <time>2022-07-16T13:21:39Z</time>
      </trkpt>
      <trkpt lat="45.67562" lon="6.69805">
        <ele>2182</ele>
        <time>2022-07-16T13:21:41Z</time>
      </trkpt>
      <trkpt lat="45.67563" lon="6.69807">
        <ele>2182</ele>
        <time>2022-07-16T13:21:43Z</time>
      </trkpt>
      <trkpt lat="45.67565" lon="6.69809">
        <ele>2183</ele>
        <time>2022-07-16T13:21:45Z</time>
      </trkpt>
      <trkpt lat="45.67568" lon="6.69811">
        <ele>2183</ele>
        <time>2022-07-16T13:21:47Z</time>
      </trkpt>
      <trkpt lat="45.6757" lon="6.69813">
        <ele>2182</ele>
        <time>2022-07-16T13:21:48Z</time>
      </trkpt>
      <trkpt lat="45.67572" lon="6.69814">
        <ele>2181</ele>
        <time>2022-07-16T13:21:49Z</time>
      </trkpt>
      <trkpt lat="45.67573" lon="6.69815">
        <ele>2181</ele>
        <time>2022-07-16T13:21:50Z</time>
      </trkpt>
      <trkpt lat="45.67575" lon="6.69817">
        <ele>2181</ele>
        <time>2022-07-16T13:21:51Z</time>
      </trkpt>
      <trkpt lat="45.67577" lon="6.69818">
        <ele>2180</ele>
        <time>2022-07-16T13:21:52Z</time>
      </trkpt>
      <trkpt lat="45.67578" lon="6.69819">
        <ele>2180</ele>
        <time>2022-07-16T13:21:53Z</time>
      </trkpt>
      <trkpt lat="45.6758" lon="6.69822">
        <ele>2180</ele>
        <time>2022-07-16T13:21:54Z</time>
      </trkpt>
      <trkpt lat="45.67581" lon="6.69824">
        <ele>2179</ele>
        <time>2022-07-16T13:21:55Z</time>
      </trkpt>
      <trkpt lat="45.67582" lon="6.69827">
        <ele>2179</ele>
        <time>2022-07-16T13:21:56Z</time>
      </trkpt>
      <trkpt lat="45.67584" lon="6.69828">
        <ele>2179</ele>
        <time>2022-07-16T13:21:57Z</time>
      </trkpt>
      <trkpt lat="45.67585" lon="6.6983">
        <ele>2179</ele>
        <time>2022-07-16T13:21:58Z</time>
      </trkpt>
      <trkpt lat="45.67587" lon="6.69832">
        <ele>2179</ele>
        <time>2022-07-16T13:21:59Z</time>
      </trkpt>
      <trkpt lat="45.67589" lon="6.69835">
        <ele>2178</ele>
        <time>2022-07-16T13:22:01Z</time>
      </trkpt>
      <trkpt lat="45.67591" lon="6.69839">
        <ele>2178</ele>
        <time>2022-07-16T13:22:03Z</time>
      </trkpt>
      <trkpt lat="45.67592" lon="6.69842">
        <ele>2177</ele>
        <time>2022-07-16T13:22:05Z</time>
      </trkpt>
      <trkpt lat="45.67593" lon="6.69846">
        <ele>2177</ele>
        <time>2022-07-16T13:22:07Z</time>
      </trkpt>
      <trkpt lat="45.67595" lon="6.69848">
        <ele>2178</ele>
        <time>2022-07-16T13:22:09Z</time>
      </trkpt>
      <trkpt lat="45.67597" lon="6.69851">
        <ele>2178</ele>
        <time>2022-07-16T13:22:11Z</time>
      </trkpt>
      <trkpt lat="45.67598" lon="6.69855">
        <ele>2177</ele>
        <time>2022-07-16T13:22:13Z</time>
      </trkpt>
      <trkpt lat="45.676" lon="6.6986">
        <ele>2176</ele>
        <time>2022-07-16T13:22:15Z</time>
      </trkpt>
      <trkpt lat="45.67601" lon="6.69861">
        <ele>2177</ele>
        <time>2022-07-16T13:22:16Z</time>
      </trkpt>
      <trkpt lat="45.67602" lon="6.69862">
        <ele>2177</ele>
        <time>2022-07-16T13:22:17Z</time>
      </trkpt>
      <trkpt lat="45.67603" lon="6.69863">
        <ele>2177</ele>
        <time>2022-07-16T13:22:18Z</time>
      </trkpt>
      <trkpt lat="45.67605" lon="6.69864">
        <ele>2176</ele>
        <time>2022-07-16T13:22:19Z</time>
      </trkpt>
      <trkpt lat="45.67606" lon="6.69865">
        <ele>2175</ele>
        <time>2022-07-16T13:22:20Z</time>
      </trkpt>
      <trkpt lat="45.67608" lon="6.69868">
        <ele>2175</ele>
        <time>2022-07-16T13:22:22Z</time>
      </trkpt>
      <trkpt lat="45.67611" lon="6.69871">
        <ele>2174</ele>
        <time>2022-07-16T13:22:24Z</time>
      </trkpt>
      <trkpt lat="45.67613" lon="6.69874">
        <ele>2173</ele>
        <time>2022-07-16T13:22:27Z</time>
      </trkpt>
      <trkpt lat="45.67616" lon="6.69876">
        <ele>2173</ele>
        <time>2022-07-16T13:22:30Z</time>
      </trkpt>
      <trkpt lat="45.67618" lon="6.69878">
        <ele>2172</ele>
        <time>2022-07-16T13:22:32Z</time>
      </trkpt>
      <trkpt lat="45.6762" lon="6.69881">
        <ele>2172</ele>
        <time>2022-07-16T13:22:34Z</time>
      </trkpt>
      <trkpt lat="45.67622" lon="6.69885">
        <ele>2172</ele>
        <time>2022-07-16T13:22:36Z</time>
      </trkpt>
      <trkpt lat="45.67624" lon="6.69888">
        <ele>2172</ele>
        <time>2022-07-16T13:22:38Z</time>
      </trkpt>
      <trkpt lat="45.67626" lon="6.6989">
        <ele>2172</ele>
        <time>2022-07-16T13:22:40Z</time>
      </trkpt>
      <trkpt lat="45.67627" lon="6.69893">
        <ele>2171</ele>
        <time>2022-07-16T13:22:42Z</time>
      </trkpt>
      <trkpt lat="45.67629" lon="6.69896">
        <ele>2171</ele>
        <time>2022-07-16T13:22:44Z</time>
      </trkpt>
      <trkpt lat="45.67631" lon="6.69899">
        <ele>2170</ele>
        <time>2022-07-16T13:22:46Z</time>
      </trkpt>
      <trkpt lat="45.67633" lon="6.69898">
        <ele>2170</ele>
        <time>2022-07-16T13:22:48Z</time>
      </trkpt>
      <trkpt lat="45.67636" lon="6.69899">
        <ele>2170</ele>
        <time>2022-07-16T13:22:50Z</time>
      </trkpt>
      <trkpt lat="45.67637" lon="6.69903">
        <ele>2168</ele>
        <time>2022-07-16T13:22:53Z</time>
      </trkpt>
      <trkpt lat="45.67636" lon="6.69907">
        <ele>2168</ele>
        <time>2022-07-16T13:22:55Z</time>
      </trkpt>
      <trkpt lat="45.67636" lon="6.6991">
        <ele>2170</ele>
        <time>2022-07-16T13:22:57Z</time>
      </trkpt>
      <trkpt lat="45.67637" lon="6.69913">
        <ele>2170</ele>
        <time>2022-07-16T13:22:58Z</time>
      </trkpt>
      <trkpt lat="45.67638" lon="6.69916">
        <ele>2170</ele>
        <time>2022-07-16T13:23:01Z</time>
      </trkpt>
      <trkpt lat="45.6764" lon="6.69918">
        <ele>2170</ele>
        <time>2022-07-16T13:23:03Z</time>
      </trkpt>
      <trkpt lat="45.67642" lon="6.6992">
        <ele>2170</ele>
        <time>2022-07-16T13:23:05Z</time>
      </trkpt>
      <trkpt lat="45.67643" lon="6.69921">
        <ele>2170</ele>
        <time>2022-07-16T13:23:07Z</time>
      </trkpt>
      <trkpt lat="45.67644" lon="6.69925">
        <ele>2170</ele>
        <time>2022-07-16T13:23:11Z</time>
      </trkpt>
      <trkpt lat="45.67646" lon="6.69926">
        <ele>2170</ele>
        <time>2022-07-16T13:23:13Z</time>
      </trkpt>
      <trkpt lat="45.67648" lon="6.69928">
        <ele>2170</ele>
        <time>2022-07-16T13:23:15Z</time>
      </trkpt>
      <trkpt lat="45.6765" lon="6.69929">
        <ele>2170</ele>
        <time>2022-07-16T13:23:18Z</time>
      </trkpt>
      <trkpt lat="45.67652" lon="6.6993">
        <ele>2170</ele>
        <time>2022-07-16T13:23:20Z</time>
      </trkpt>
      <trkpt lat="45.67654" lon="6.69931">
        <ele>2170</ele>
        <time>2022-07-16T13:23:22Z</time>
      </trkpt>
      <trkpt lat="45.67657" lon="6.69934">
        <ele>2170</ele>
        <time>2022-07-16T13:23:24Z</time>
      </trkpt>
      <trkpt lat="45.67659" lon="6.69938">
        <ele>2170</ele>
        <time>2022-07-16T13:23:26Z</time>
      </trkpt>
      <trkpt lat="45.6766" lon="6.69941">
        <ele>2168</ele>
        <time>2022-07-16T13:23:28Z</time>
      </trkpt>
      <trkpt lat="45.67661" lon="6.69944">
        <ele>2170</ele>
        <time>2022-07-16T13:23:30Z</time>
      </trkpt>
      <trkpt lat="45.67663" lon="6.69944">
        <ele>2170</ele>
        <time>2022-07-16T13:23:32Z</time>
      </trkpt>
      <trkpt lat="45.67665" lon="6.69945">
        <ele>2170</ele>
        <time>2022-07-16T13:23:34Z</time>
      </trkpt>
      <trkpt lat="45.67667" lon="6.69946">
        <ele>2168</ele>
        <time>2022-07-16T13:23:36Z</time>
      </trkpt>
      <trkpt lat="45.67669" lon="6.69948">
        <ele>2168</ele>
        <time>2022-07-16T13:23:38Z</time>
      </trkpt>
      <trkpt lat="45.67671" lon="6.6995">
        <ele>2167</ele>
        <time>2022-07-16T13:23:41Z</time>
      </trkpt>
      <trkpt lat="45.67673" lon="6.69952">
        <ele>2167</ele>
        <time>2022-07-16T13:23:43Z</time>
      </trkpt>
      <trkpt lat="45.67675" lon="6.69953">
        <ele>2167</ele>
        <time>2022-07-16T13:23:45Z</time>
      </trkpt>
      <trkpt lat="45.67677" lon="6.69954">
        <ele>2168</ele>
        <time>2022-07-16T13:23:47Z</time>
      </trkpt>
      <trkpt lat="45.67678" lon="6.69955">
        <ele>2167</ele>
        <time>2022-07-16T13:23:49Z</time>
      </trkpt>
      <trkpt lat="45.6768" lon="6.69957">
        <ele>2167</ele>
        <time>2022-07-16T13:23:51Z</time>
      </trkpt>
      <trkpt lat="45.67681" lon="6.69959">
        <ele>2167</ele>
        <time>2022-07-16T13:23:55Z</time>
      </trkpt>
      <trkpt lat="45.67683" lon="6.6996">
        <ele>2167</ele>
        <time>2022-07-16T13:23:58Z</time>
      </trkpt>
      <trkpt lat="45.67685" lon="6.69961">
        <ele>2166</ele>
        <time>2022-07-16T13:24:01Z</time>
      </trkpt>
      <trkpt lat="45.67688" lon="6.69962">
        <ele>2166</ele>
        <time>2022-07-16T13:24:03Z</time>
      </trkpt>
      <trkpt lat="45.6769" lon="6.69965">
        <ele>2166</ele>
        <time>2022-07-16T13:24:05Z</time>
      </trkpt>
      <trkpt lat="45.67691" lon="6.69969">
        <ele>2166</ele>
        <time>2022-07-16T13:24:07Z</time>
      </trkpt>
      <trkpt lat="45.67691" lon="6.69971">
        <ele>2166</ele>
        <time>2022-07-16T13:24:09Z</time>
      </trkpt>
      <trkpt lat="45.67691" lon="6.69974">
        <ele>2166</ele>
        <time>2022-07-16T13:24:11Z</time>
      </trkpt>
      <trkpt lat="45.67691" lon="6.69977">
        <ele>2166</ele>
        <time>2022-07-16T13:24:13Z</time>
      </trkpt>
      <trkpt lat="45.67692" lon="6.6998">
        <ele>2166</ele>
        <time>2022-07-16T13:24:16Z</time>
      </trkpt>
      <trkpt lat="45.67694" lon="6.6998">
        <ele>2167</ele>
        <time>2022-07-16T13:24:19Z</time>
      </trkpt>
      <trkpt lat="45.67696" lon="6.69981">
        <ele>2167</ele>
        <time>2022-07-16T13:24:21Z</time>
      </trkpt>
      <trkpt lat="45.67698" lon="6.69983">
        <ele>2167</ele>
        <time>2022-07-16T13:24:23Z</time>
      </trkpt>
      <trkpt lat="45.677" lon="6.69985">
        <ele>2167</ele>
        <time>2022-07-16T13:24:25Z</time>
      </trkpt>
      <trkpt lat="45.67702" lon="6.69987">
        <ele>2166</ele>
        <time>2022-07-16T13:24:27Z</time>
      </trkpt>
      <trkpt lat="45.67704" lon="6.69984">
        <ele>2166</ele>
        <time>2022-07-16T13:24:30Z</time>
      </trkpt>
      <trkpt lat="45.67706" lon="6.69983">
        <ele>2165</ele>
        <time>2022-07-16T13:24:33Z</time>
      </trkpt>
      <trkpt lat="45.67708" lon="6.69982">
        <ele>2165</ele>
        <time>2022-07-16T13:24:35Z</time>
      </trkpt>
      <trkpt lat="45.67711" lon="6.69982">
        <ele>2165</ele>
        <time>2022-07-16T13:24:37Z</time>
      </trkpt>
      <trkpt lat="45.67714" lon="6.69984">
        <ele>2165</ele>
        <time>2022-07-16T13:24:39Z</time>
      </trkpt>
      <trkpt lat="45.67717" lon="6.69988">
        <ele>2165</ele>
        <time>2022-07-16T13:24:41Z</time>
      </trkpt>
      <trkpt lat="45.67718" lon="6.6999">
        <ele>2165</ele>
        <time>2022-07-16T13:24:42Z</time>
      </trkpt>
      <trkpt lat="45.6772" lon="6.69992">
        <ele>2165</ele>
        <time>2022-07-16T13:24:43Z</time>
      </trkpt>
      <trkpt lat="45.67721" lon="6.69994">
        <ele>2165</ele>
        <time>2022-07-16T13:24:44Z</time>
      </trkpt>
      <trkpt lat="45.67723" lon="6.69996">
        <ele>2164</ele>
        <time>2022-07-16T13:24:45Z</time>
      </trkpt>
      <trkpt lat="45.67724" lon="6.69997">
        <ele>2164</ele>
        <time>2022-07-16T13:24:46Z</time>
      </trkpt>
      <trkpt lat="45.67727" lon="6.7">
        <ele>2164</ele>
        <time>2022-07-16T13:24:48Z</time>
      </trkpt>
      <trkpt lat="45.67731" lon="6.70002">
        <ele>2164</ele>
        <time>2022-07-16T13:24:50Z</time>
      </trkpt>
      <trkpt lat="45.67733" lon="6.70003">
        <ele>2164</ele>
        <time>2022-07-16T13:24:51Z</time>
      </trkpt>
      <trkpt lat="45.67734" lon="6.70005">
        <ele>2164</ele>
        <time>2022-07-16T13:24:52Z</time>
      </trkpt>
      <trkpt lat="45.67736" lon="6.70007">
        <ele>2164</ele>
        <time>2022-07-16T13:24:53Z</time>
      </trkpt>
      <trkpt lat="45.67739" lon="6.70011">
        <ele>2164</ele>
        <time>2022-07-16T13:24:54Z</time>
      </trkpt>
      <trkpt lat="45.6774" lon="6.70012">
        <ele>2163</ele>
        <time>2022-07-16T13:24:55Z</time>
      </trkpt>
      <trkpt lat="45.67741" lon="6.70014">
        <ele>2163</ele>
        <time>2022-07-16T13:24:56Z</time>
      </trkpt>
      <trkpt lat="45.67743" lon="6.70015">
        <ele>2163</ele>
        <time>2022-07-16T13:24:57Z</time>
      </trkpt>
      <trkpt lat="45.67744" lon="6.70016">
        <ele>2163</ele>
        <time>2022-07-16T13:24:58Z</time>
      </trkpt>
      <trkpt lat="45.67746" lon="6.70016">
        <ele>2163</ele>
        <time>2022-07-16T13:24:59Z</time>
      </trkpt>
      <trkpt lat="45.6775" lon="6.70017">
        <ele>2161</ele>
        <time>2022-07-16T13:25:01Z</time>
      </trkpt>
      <trkpt lat="45.67753" lon="6.70019">
        <ele>2161</ele>
        <time>2022-07-16T13:25:03Z</time>
      </trkpt>
      <trkpt lat="45.67756" lon="6.70021">
        <ele>2161</ele>
        <time>2022-07-16T13:25:05Z</time>
      </trkpt>
      <trkpt lat="45.67758" lon="6.70023">
        <ele>2161</ele>
        <time>2022-07-16T13:25:07Z</time>
      </trkpt>
      <trkpt lat="45.67759" lon="6.70023">
        <ele>2161</ele>
        <time>2022-07-16T13:25:08Z</time>
      </trkpt>
      <trkpt lat="45.6776" lon="6.70024">
        <ele>2161</ele>
        <time>2022-07-16T13:25:09Z</time>
      </trkpt>
      <trkpt lat="45.67761" lon="6.70025">
        <ele>2160</ele>
        <time>2022-07-16T13:25:10Z</time>
      </trkpt>
      <trkpt lat="45.67761" lon="6.70026">
        <ele>2160</ele>
        <time>2022-07-16T13:25:11Z</time>
      </trkpt>
      <trkpt lat="45.67762" lon="6.70026">
        <ele>2160</ele>
        <time>2022-07-16T13:25:12Z</time>
      </trkpt>
      <trkpt lat="45.67764" lon="6.70028">
        <ele>2160</ele>
        <time>2022-07-16T13:25:13Z</time>
      </trkpt>
      <trkpt lat="45.67765" lon="6.7003">
        <ele>2160</ele>
        <time>2022-07-16T13:25:14Z</time>
      </trkpt>
      <trkpt lat="45.67767" lon="6.70032">
        <ele>2160</ele>
        <time>2022-07-16T13:25:15Z</time>
      </trkpt>
      <trkpt lat="45.67769" lon="6.70034">
        <ele>2161</ele>
        <time>2022-07-16T13:25:16Z</time>
      </trkpt>
      <trkpt lat="45.6777" lon="6.70036">
        <ele>2161</ele>
        <time>2022-07-16T13:25:17Z</time>
      </trkpt>
      <trkpt lat="45.67772" lon="6.70038">
        <ele>2161</ele>
        <time>2022-07-16T13:25:18Z</time>
      </trkpt>
      <trkpt lat="45.67774" lon="6.70039">
        <ele>2160</ele>
        <time>2022-07-16T13:25:19Z</time>
      </trkpt>
      <trkpt lat="45.67776" lon="6.7004">
        <ele>2160</ele>
        <time>2022-07-16T13:25:20Z</time>
      </trkpt>
      <trkpt lat="45.67778" lon="6.70041">
        <ele>2160</ele>
        <time>2022-07-16T13:25:21Z</time>
      </trkpt>
      <trkpt lat="45.6778" lon="6.70043">
        <ele>2159</ele>
        <time>2022-07-16T13:25:22Z</time>
      </trkpt>
      <trkpt lat="45.67782" lon="6.70045">
        <ele>2159</ele>
        <time>2022-07-16T13:25:23Z</time>
      </trkpt>
      <trkpt lat="45.67783" lon="6.70046">
        <ele>2159</ele>
        <time>2022-07-16T13:25:24Z</time>
      </trkpt>
      <trkpt lat="45.67785" lon="6.70048">
        <ele>2159</ele>
        <time>2022-07-16T13:25:25Z</time>
      </trkpt>
      <trkpt lat="45.67787" lon="6.70049">
        <ele>2159</ele>
        <time>2022-07-16T13:25:26Z</time>
      </trkpt>
      <trkpt lat="45.67789" lon="6.7005">
        <ele>2159</ele>
        <time>2022-07-16T13:25:27Z</time>
      </trkpt>
      <trkpt lat="45.67791" lon="6.70052">
        <ele>2159</ele>
        <time>2022-07-16T13:25:28Z</time>
      </trkpt>
      <trkpt lat="45.67793" lon="6.70054">
        <ele>2158</ele>
        <time>2022-07-16T13:25:29Z</time>
      </trkpt>
      <trkpt lat="45.67796" lon="6.70056">
        <ele>2159</ele>
        <time>2022-07-16T13:25:31Z</time>
      </trkpt>
      <trkpt lat="45.67797" lon="6.70058">
        <ele>2159</ele>
        <time>2022-07-16T13:25:32Z</time>
      </trkpt>
      <trkpt lat="45.67799" lon="6.7006">
        <ele>2158</ele>
        <time>2022-07-16T13:25:33Z</time>
      </trkpt>
      <trkpt lat="45.67801" lon="6.70061">
        <ele>2157</ele>
        <time>2022-07-16T13:25:34Z</time>
      </trkpt>
      <trkpt lat="45.67802" lon="6.70063">
        <ele>2157</ele>
        <time>2022-07-16T13:25:35Z</time>
      </trkpt>
      <trkpt lat="45.67804" lon="6.70064">
        <ele>2157</ele>
        <time>2022-07-16T13:25:36Z</time>
      </trkpt>
      <trkpt lat="45.67806" lon="6.70065">
        <ele>2157</ele>
        <time>2022-07-16T13:25:37Z</time>
      </trkpt>
      <trkpt lat="45.67809" lon="6.70068">
        <ele>2157</ele>
        <time>2022-07-16T13:25:39Z</time>
      </trkpt>
      <trkpt lat="45.6781" lon="6.70069">
        <ele>2157</ele>
        <time>2022-07-16T13:25:40Z</time>
      </trkpt>
      <trkpt lat="45.67813" lon="6.7007">
        <ele>2156</ele>
        <time>2022-07-16T13:25:42Z</time>
      </trkpt>
      <trkpt lat="45.67817" lon="6.70071">
        <ele>2156</ele>
        <time>2022-07-16T13:25:44Z</time>
      </trkpt>
      <trkpt lat="45.67819" lon="6.70072">
        <ele>2155</ele>
        <time>2022-07-16T13:25:46Z</time>
      </trkpt>
      <trkpt lat="45.67822" lon="6.70072">
        <ele>2155</ele>
        <time>2022-07-16T13:25:48Z</time>
      </trkpt>
      <trkpt lat="45.67825" lon="6.70073">
        <ele>2155</ele>
        <time>2022-07-16T13:25:50Z</time>
      </trkpt>
      <trkpt lat="45.67828" lon="6.70076">
        <ele>2153</ele>
        <time>2022-07-16T13:25:52Z</time>
      </trkpt>
      <trkpt lat="45.6783" lon="6.7008">
        <ele>2153</ele>
        <time>2022-07-16T13:25:54Z</time>
      </trkpt>
      <trkpt lat="45.67832" lon="6.70082">
        <ele>2152</ele>
        <time>2022-07-16T13:25:56Z</time>
      </trkpt>
      <trkpt lat="45.67835" lon="6.70083">
        <ele>2152</ele>
        <time>2022-07-16T13:25:58Z</time>
      </trkpt>
      <trkpt lat="45.67837" lon="6.70084">
        <ele>2151</ele>
        <time>2022-07-16T13:26:00Z</time>
      </trkpt>
      <trkpt lat="45.67839" lon="6.70084">
        <ele>2150</ele>
        <time>2022-07-16T13:26:02Z</time>
      </trkpt>
      <trkpt lat="45.67842" lon="6.70085">
        <ele>2150</ele>
        <time>2022-07-16T13:26:04Z</time>
      </trkpt>
      <trkpt lat="45.67844" lon="6.70085">
        <ele>2150</ele>
        <time>2022-07-16T13:26:06Z</time>
      </trkpt>
      <trkpt lat="45.67847" lon="6.70086">
        <ele>2151</ele>
        <time>2022-07-16T13:26:08Z</time>
      </trkpt>
      <trkpt lat="45.6785" lon="6.7009">
        <ele>2151</ele>
        <time>2022-07-16T13:26:10Z</time>
      </trkpt>
      <trkpt lat="45.67853" lon="6.70092">
        <ele>2150</ele>
        <time>2022-07-16T13:26:12Z</time>
      </trkpt>
      <trkpt lat="45.67855" lon="6.70094">
        <ele>2150</ele>
        <time>2022-07-16T13:26:13Z</time>
      </trkpt>
      <trkpt lat="45.67856" lon="6.70096">
        <ele>2149</ele>
        <time>2022-07-16T13:26:14Z</time>
      </trkpt>
      <trkpt lat="45.67858" lon="6.70097">
        <ele>2149</ele>
        <time>2022-07-16T13:26:15Z</time>
      </trkpt>
      <trkpt lat="45.67861" lon="6.701">
        <ele>2149</ele>
        <time>2022-07-16T13:26:17Z</time>
      </trkpt>
      <trkpt lat="45.67863" lon="6.70102">
        <ele>2148</ele>
        <time>2022-07-16T13:26:18Z</time>
      </trkpt>
      <trkpt lat="45.67864" lon="6.70105">
        <ele>2147</ele>
        <time>2022-07-16T13:26:19Z</time>
      </trkpt>
      <trkpt lat="45.67865" lon="6.70108">
        <ele>2147</ele>
        <time>2022-07-16T13:26:20Z</time>
      </trkpt>
      <trkpt lat="45.67866" lon="6.7011">
        <ele>2146</ele>
        <time>2022-07-16T13:26:21Z</time>
      </trkpt>
      <trkpt lat="45.67867" lon="6.70112">
        <ele>2146</ele>
        <time>2022-07-16T13:26:22Z</time>
      </trkpt>
      <trkpt lat="45.67868" lon="6.70114">
        <ele>2146</ele>
        <time>2022-07-16T13:26:23Z</time>
      </trkpt>
      <trkpt lat="45.67869" lon="6.70117">
        <ele>2146</ele>
        <time>2022-07-16T13:26:24Z</time>
      </trkpt>
      <trkpt lat="45.67872" lon="6.70119">
        <ele>2145</ele>
        <time>2022-07-16T13:26:26Z</time>
      </trkpt>
      <trkpt lat="45.67874" lon="6.70122">
        <ele>2145</ele>
        <time>2022-07-16T13:26:27Z</time>
      </trkpt>
      <trkpt lat="45.67876" lon="6.70125">
        <ele>2144</ele>
        <time>2022-07-16T13:26:30Z</time>
      </trkpt>
      <trkpt lat="45.67877" lon="6.70126">
        <ele>2144</ele>
        <time>2022-07-16T13:26:31Z</time>
      </trkpt>
      <trkpt lat="45.67879" lon="6.70127">
        <ele>2144</ele>
        <time>2022-07-16T13:26:32Z</time>
      </trkpt>
      <trkpt lat="45.6788" lon="6.70128">
        <ele>2142</ele>
        <time>2022-07-16T13:26:33Z</time>
      </trkpt>
      <trkpt lat="45.67883" lon="6.70132">
        <ele>2142</ele>
        <time>2022-07-16T13:26:35Z</time>
      </trkpt>
      <trkpt lat="45.67885" lon="6.70134">
        <ele>2141</ele>
        <time>2022-07-16T13:26:37Z</time>
      </trkpt>
      <trkpt lat="45.67886" lon="6.70136">
        <ele>2140</ele>
        <time>2022-07-16T13:26:38Z</time>
      </trkpt>
      <trkpt lat="45.67888" lon="6.70137">
        <ele>2140</ele>
        <time>2022-07-16T13:26:39Z</time>
      </trkpt>
      <trkpt lat="45.6789" lon="6.70139">
        <ele>2140</ele>
        <time>2022-07-16T13:26:40Z</time>
      </trkpt>
      <trkpt lat="45.67892" lon="6.70141">
        <ele>2140</ele>
        <time>2022-07-16T13:26:41Z</time>
      </trkpt>
      <trkpt lat="45.67894" lon="6.70142">
        <ele>2140</ele>
        <time>2022-07-16T13:26:42Z</time>
      </trkpt>
      <trkpt lat="45.67895" lon="6.70144">
        <ele>2140</ele>
        <time>2022-07-16T13:26:43Z</time>
      </trkpt>
      <trkpt lat="45.67896" lon="6.70146">
        <ele>2140</ele>
        <time>2022-07-16T13:26:44Z</time>
      </trkpt>
      <trkpt lat="45.67899" lon="6.70149">
        <ele>2139</ele>
        <time>2022-07-16T13:26:46Z</time>
      </trkpt>
      <trkpt lat="45.679" lon="6.70151">
        <ele>2139</ele>
        <time>2022-07-16T13:26:47Z</time>
      </trkpt>
      <trkpt lat="45.67901" lon="6.70153">
        <ele>2139</ele>
        <time>2022-07-16T13:26:48Z</time>
      </trkpt>
      <trkpt lat="45.67903" lon="6.70156">
        <ele>2139</ele>
        <time>2022-07-16T13:26:49Z</time>
      </trkpt>
      <trkpt lat="45.67904" lon="6.70158">
        <ele>2138</ele>
        <time>2022-07-16T13:26:50Z</time>
      </trkpt>
      <trkpt lat="45.67905" lon="6.7016">
        <ele>2138</ele>
        <time>2022-07-16T13:26:51Z</time>
      </trkpt>
      <trkpt lat="45.67906" lon="6.70163">
        <ele>2138</ele>
        <time>2022-07-16T13:26:52Z</time>
      </trkpt>
      <trkpt lat="45.67907" lon="6.70166">
        <ele>2138</ele>
        <time>2022-07-16T13:26:54Z</time>
      </trkpt>
      <trkpt lat="45.67907" lon="6.70168">
        <ele>2138</ele>
        <time>2022-07-16T13:26:56Z</time>
      </trkpt>
      <trkpt lat="45.67909" lon="6.70169">
        <ele>2136</ele>
        <time>2022-07-16T13:27:01Z</time>
      </trkpt>
      <trkpt lat="45.67911" lon="6.70172">
        <ele>2136</ele>
        <time>2022-07-16T13:27:04Z</time>
      </trkpt>
      <trkpt lat="45.67913" lon="6.70173">
        <ele>2135</ele>
        <time>2022-07-16T13:27:07Z</time>
      </trkpt>
      <trkpt lat="45.67915" lon="6.70175">
        <ele>2133</ele>
        <time>2022-07-16T13:27:09Z</time>
      </trkpt>
      <trkpt lat="45.67917" lon="6.70179">
        <ele>2134</ele>
        <time>2022-07-16T13:27:11Z</time>
      </trkpt>
      <trkpt lat="45.67918" lon="6.70181">
        <ele>2134</ele>
        <time>2022-07-16T13:27:12Z</time>
      </trkpt>
      <trkpt lat="45.6792" lon="6.70183">
        <ele>2133</ele>
        <time>2022-07-16T13:27:13Z</time>
      </trkpt>
      <trkpt lat="45.67922" lon="6.70185">
        <ele>2131</ele>
        <time>2022-07-16T13:27:15Z</time>
      </trkpt>
      <trkpt lat="45.67924" lon="6.70187">
        <ele>2133</ele>
        <time>2022-07-16T13:27:18Z</time>
      </trkpt>
      <trkpt lat="45.67926" lon="6.70189">
        <ele>2133</ele>
        <time>2022-07-16T13:27:20Z</time>
      </trkpt>
      <trkpt lat="45.67928" lon="6.70192">
        <ele>2133</ele>
        <time>2022-07-16T13:27:22Z</time>
      </trkpt>
      <trkpt lat="45.67929" lon="6.70195">
        <ele>2131</ele>
        <time>2022-07-16T13:27:24Z</time>
      </trkpt>
      <trkpt lat="45.67931" lon="6.70196">
        <ele>2131</ele>
        <time>2022-07-16T13:27:25Z</time>
      </trkpt>
      <trkpt lat="45.67932" lon="6.70197">
        <ele>2131</ele>
        <time>2022-07-16T13:27:26Z</time>
      </trkpt>
      <trkpt lat="45.67933" lon="6.70198">
        <ele>2131</ele>
        <time>2022-07-16T13:27:27Z</time>
      </trkpt>
      <trkpt lat="45.67934" lon="6.702">
        <ele>2130</ele>
        <time>2022-07-16T13:27:28Z</time>
      </trkpt>
      <trkpt lat="45.67936" lon="6.70199">
        <ele>2130</ele>
        <time>2022-07-16T13:27:29Z</time>
      </trkpt>
      <trkpt lat="45.6794" lon="6.70201">
        <ele>2129</ele>
        <time>2022-07-16T13:27:31Z</time>
      </trkpt>
      <trkpt lat="45.67941" lon="6.70202">
        <ele>2128</ele>
        <time>2022-07-16T13:27:32Z</time>
      </trkpt>
      <trkpt lat="45.67942" lon="6.70203">
        <ele>2128</ele>
        <time>2022-07-16T13:27:33Z</time>
      </trkpt>
      <trkpt lat="45.67943" lon="6.70204">
        <ele>2128</ele>
        <time>2022-07-16T13:27:34Z</time>
      </trkpt>
      <trkpt lat="45.67944" lon="6.70205">
        <ele>2128</ele>
        <time>2022-07-16T13:27:35Z</time>
      </trkpt>
      <trkpt lat="45.67945" lon="6.70207">
        <ele>2128</ele>
        <time>2022-07-16T13:27:36Z</time>
      </trkpt>
      <trkpt lat="45.67947" lon="6.70208">
        <ele>2127</ele>
        <time>2022-07-16T13:27:37Z</time>
      </trkpt>
      <trkpt lat="45.67948" lon="6.70209">
        <ele>2127</ele>
        <time>2022-07-16T13:27:38Z</time>
      </trkpt>
      <trkpt lat="45.67948" lon="6.7021">
        <ele>2126</ele>
        <time>2022-07-16T13:27:39Z</time>
      </trkpt>
      <trkpt lat="45.67949" lon="6.70211">
        <ele>2125</ele>
        <time>2022-07-16T13:27:40Z</time>
      </trkpt>
      <trkpt lat="45.67949" lon="6.70212">
        <ele>2125</ele>
        <time>2022-07-16T13:27:41Z</time>
      </trkpt>
      <trkpt lat="45.6795" lon="6.70213">
        <ele>2125</ele>
        <time>2022-07-16T13:27:42Z</time>
      </trkpt>
      <trkpt lat="45.67951" lon="6.70214">
        <ele>2126</ele>
        <time>2022-07-16T13:27:43Z</time>
      </trkpt>
      <trkpt lat="45.67952" lon="6.70216">
        <ele>2126</ele>
        <time>2022-07-16T13:27:45Z</time>
      </trkpt>
      <trkpt lat="45.67954" lon="6.70217">
        <ele>2125</ele>
        <time>2022-07-16T13:27:49Z</time>
      </trkpt>
      <trkpt lat="45.67957" lon="6.70219">
        <ele>2124</ele>
        <time>2022-07-16T13:27:52Z</time>
      </trkpt>
      <trkpt lat="45.67957" lon="6.70218">
        <ele>2124</ele>
        <time>2022-07-16T13:27:54Z</time>
      </trkpt>
      <trkpt lat="45.67957" lon="6.70217">
        <ele>2124</ele>
        <time>2022-07-16T13:27:56Z</time>
      </trkpt>
      <trkpt lat="45.67957" lon="6.70216">
        <ele>2123</ele>
        <time>2022-07-16T13:27:57Z</time>
      </trkpt>
      <trkpt lat="45.67958" lon="6.70215">
        <ele>2123</ele>
        <time>2022-07-16T13:27:59Z</time>
      </trkpt>
      <trkpt lat="45.67958" lon="6.70214">
        <ele>2123</ele>
        <time>2022-07-16T13:28:01Z</time>
      </trkpt>
      <trkpt lat="45.67958" lon="6.70213">
        <ele>2123</ele>
        <time>2022-07-16T13:28:02Z</time>
      </trkpt>
      <trkpt lat="45.6796" lon="6.7021">
        <ele>2124</ele>
        <time>2022-07-16T13:28:07Z</time>
      </trkpt>
      <trkpt lat="45.67961" lon="6.70206">
        <ele>2124</ele>
        <time>2022-07-16T13:28:09Z</time>
      </trkpt>
      <trkpt lat="45.67963" lon="6.70203">
        <ele>2125</ele>
        <time>2022-07-16T13:28:11Z</time>
      </trkpt>
      <trkpt lat="45.67965" lon="6.702">
        <ele>2125</ele>
        <time>2022-07-16T13:28:13Z</time>
      </trkpt>
      <trkpt lat="45.67968" lon="6.70198">
        <ele>2125</ele>
        <time>2022-07-16T13:28:15Z</time>
      </trkpt>
      <trkpt lat="45.67971" lon="6.70196">
        <ele>2125</ele>
        <time>2022-07-16T13:28:17Z</time>
      </trkpt>
      <trkpt lat="45.67973" lon="6.70196">
        <ele>2125</ele>
        <time>2022-07-16T13:28:18Z</time>
      </trkpt>
      <trkpt lat="45.67975" lon="6.70195">
        <ele>2125</ele>
        <time>2022-07-16T13:28:19Z</time>
      </trkpt>
      <trkpt lat="45.67976" lon="6.70194">
        <ele>2125</ele>
        <time>2022-07-16T13:28:20Z</time>
      </trkpt>
      <trkpt lat="45.67978" lon="6.70194">
        <ele>2125</ele>
        <time>2022-07-16T13:28:21Z</time>
      </trkpt>
      <trkpt lat="45.6798" lon="6.70193">
        <ele>2125</ele>
        <time>2022-07-16T13:28:22Z</time>
      </trkpt>
      <trkpt lat="45.67982" lon="6.70193">
        <ele>2125</ele>
        <time>2022-07-16T13:28:23Z</time>
      </trkpt>
      <trkpt lat="45.67985" lon="6.70192">
        <ele>2125</ele>
        <time>2022-07-16T13:28:24Z</time>
      </trkpt>
      <trkpt lat="45.67987" lon="6.70192">
        <ele>2125</ele>
        <time>2022-07-16T13:28:25Z</time>
      </trkpt>
      <trkpt lat="45.67989" lon="6.70192">
        <ele>2125</ele>
        <time>2022-07-16T13:28:26Z</time>
      </trkpt>
      <trkpt lat="45.67992" lon="6.70191">
        <ele>2125</ele>
        <time>2022-07-16T13:28:27Z</time>
      </trkpt>
      <trkpt lat="45.67994" lon="6.70191">
        <ele>2125</ele>
        <time>2022-07-16T13:28:28Z</time>
      </trkpt>
      <trkpt lat="45.67996" lon="6.70191">
        <ele>2125</ele>
        <time>2022-07-16T13:28:29Z</time>
      </trkpt>
      <trkpt lat="45.67999" lon="6.7019">
        <ele>2125</ele>
        <time>2022-07-16T13:28:30Z</time>
      </trkpt>
      <trkpt lat="45.68001" lon="6.70189">
        <ele>2125</ele>
        <time>2022-07-16T13:28:31Z</time>
      </trkpt>
      <trkpt lat="45.68003" lon="6.70189">
        <ele>2125</ele>
        <time>2022-07-16T13:28:32Z</time>
      </trkpt>
      <trkpt lat="45.68005" lon="6.70188">
        <ele>2125</ele>
        <time>2022-07-16T13:28:33Z</time>
      </trkpt>
      <trkpt lat="45.68008" lon="6.70187">
        <ele>2125</ele>
        <time>2022-07-16T13:28:34Z</time>
      </trkpt>
      <trkpt lat="45.6801" lon="6.70187">
        <ele>2125</ele>
        <time>2022-07-16T13:28:35Z</time>
      </trkpt>
      <trkpt lat="45.68012" lon="6.70187">
        <ele>2125</ele>
        <time>2022-07-16T13:28:36Z</time>
      </trkpt>
      <trkpt lat="45.68015" lon="6.70187">
        <ele>2125</ele>
        <time>2022-07-16T13:28:37Z</time>
      </trkpt>
      <trkpt lat="45.68024" lon="6.70184">
        <ele>2124</ele>
        <time>2022-07-16T13:28:41Z</time>
      </trkpt>
      <trkpt lat="45.68026" lon="6.70184">
        <ele>2124</ele>
        <time>2022-07-16T13:28:42Z</time>
      </trkpt>
      <trkpt lat="45.68028" lon="6.70184">
        <ele>2125</ele>
        <time>2022-07-16T13:28:43Z</time>
      </trkpt>
      <trkpt lat="45.6803" lon="6.70184">
        <ele>2125</ele>
        <time>2022-07-16T13:28:44Z</time>
      </trkpt>
      <trkpt lat="45.68032" lon="6.70184">
        <ele>2124</ele>
        <time>2022-07-16T13:28:45Z</time>
      </trkpt>
      <trkpt lat="45.68034" lon="6.70184">
        <ele>2124</ele>
        <time>2022-07-16T13:28:46Z</time>
      </trkpt>
      <trkpt lat="45.68036" lon="6.70185">
        <ele>2124</ele>
        <time>2022-07-16T13:28:47Z</time>
      </trkpt>
      <trkpt lat="45.68039" lon="6.70186">
        <ele>2124</ele>
        <time>2022-07-16T13:28:48Z</time>
      </trkpt>
      <trkpt lat="45.68041" lon="6.70187">
        <ele>2124</ele>
        <time>2022-07-16T13:28:49Z</time>
      </trkpt>
      <trkpt lat="45.68043" lon="6.70188">
        <ele>2124</ele>
        <time>2022-07-16T13:28:50Z</time>
      </trkpt>
      <trkpt lat="45.68046" lon="6.70188">
        <ele>2124</ele>
        <time>2022-07-16T13:28:51Z</time>
      </trkpt>
      <trkpt lat="45.68048" lon="6.70188">
        <ele>2124</ele>
        <time>2022-07-16T13:28:52Z</time>
      </trkpt>
      <trkpt lat="45.6805" lon="6.70189">
        <ele>2124</ele>
        <time>2022-07-16T13:28:53Z</time>
      </trkpt>
      <trkpt lat="45.68052" lon="6.70189">
        <ele>2124</ele>
        <time>2022-07-16T13:28:54Z</time>
      </trkpt>
      <trkpt lat="45.68054" lon="6.7019">
        <ele>2123</ele>
        <time>2022-07-16T13:28:55Z</time>
      </trkpt>
      <trkpt lat="45.68056" lon="6.70191">
        <ele>2124</ele>
        <time>2022-07-16T13:28:56Z</time>
      </trkpt>
      <trkpt lat="45.68058" lon="6.70192">
        <ele>2124</ele>
        <time>2022-07-16T13:28:57Z</time>
      </trkpt>
      <trkpt lat="45.6806" lon="6.70193">
        <ele>2124</ele>
        <time>2022-07-16T13:28:58Z</time>
      </trkpt>
      <trkpt lat="45.68061" lon="6.70194">
        <ele>2124</ele>
        <time>2022-07-16T13:28:59Z</time>
      </trkpt>
      <trkpt lat="45.68062" lon="6.70194">
        <ele>2124</ele>
        <time>2022-07-16T13:29:00Z</time>
      </trkpt>
      <trkpt lat="45.68063" lon="6.70195">
        <ele>2124</ele>
        <time>2022-07-16T13:29:01Z</time>
      </trkpt>
      <trkpt lat="45.68064" lon="6.70196">
        <ele>2124</ele>
        <time>2022-07-16T13:29:02Z</time>
      </trkpt>
      <trkpt lat="45.68065" lon="6.70196">
        <ele>2124</ele>
        <time>2022-07-16T13:29:03Z</time>
      </trkpt>
      <trkpt lat="45.68066" lon="6.70197">
        <ele>2124</ele>
        <time>2022-07-16T13:29:04Z</time>
      </trkpt>
      <trkpt lat="45.68073" lon="6.70202">
        <ele>2124</ele>
        <time>2022-07-16T13:29:05Z</time>
      </trkpt>
      <trkpt lat="45.68075" lon="6.70203">
        <ele>2124</ele>
        <time>2022-07-16T13:29:06Z</time>
      </trkpt>
      <trkpt lat="45.68076" lon="6.70204">
        <ele>2123</ele>
        <time>2022-07-16T13:29:07Z</time>
      </trkpt>
      <trkpt lat="45.68078" lon="6.70205">
        <ele>2123</ele>
        <time>2022-07-16T13:29:08Z</time>
      </trkpt>
      <trkpt lat="45.6808" lon="6.70206">
        <ele>2123</ele>
        <time>2022-07-16T13:29:09Z</time>
      </trkpt>
      <trkpt lat="45.68082" lon="6.70208">
        <ele>2124</ele>
        <time>2022-07-16T13:29:10Z</time>
      </trkpt>
      <trkpt lat="45.68084" lon="6.70209">
        <ele>2124</ele>
        <time>2022-07-16T13:29:11Z</time>
      </trkpt>
      <trkpt lat="45.68086" lon="6.7021">
        <ele>2124</ele>
        <time>2022-07-16T13:29:12Z</time>
      </trkpt>
      <trkpt lat="45.68089" lon="6.70212">
        <ele>2124</ele>
        <time>2022-07-16T13:29:13Z</time>
      </trkpt>
      <trkpt lat="45.68091" lon="6.70213">
        <ele>2124</ele>
        <time>2022-07-16T13:29:14Z</time>
      </trkpt>
      <trkpt lat="45.68093" lon="6.70214">
        <ele>2124</ele>
        <time>2022-07-16T13:29:15Z</time>
      </trkpt>
      <trkpt lat="45.68095" lon="6.70215">
        <ele>2124</ele>
        <time>2022-07-16T13:29:16Z</time>
      </trkpt>
      <trkpt lat="45.68097" lon="6.70217">
        <ele>2124</ele>
        <time>2022-07-16T13:29:17Z</time>
      </trkpt>
      <trkpt lat="45.681" lon="6.7022">
        <ele>2124</ele>
        <time>2022-07-16T13:29:18Z</time>
      </trkpt>
      <trkpt lat="45.68102" lon="6.70222">
        <ele>2123</ele>
        <time>2022-07-16T13:29:20Z</time>
      </trkpt>
      <trkpt lat="45.68104" lon="6.70224">
        <ele>2123</ele>
        <time>2022-07-16T13:29:21Z</time>
      </trkpt>
      <trkpt lat="45.68106" lon="6.70226">
        <ele>2123</ele>
        <time>2022-07-16T13:29:22Z</time>
      </trkpt>
      <trkpt lat="45.68108" lon="6.70227">
        <ele>2123</ele>
        <time>2022-07-16T13:29:23Z</time>
      </trkpt>
      <trkpt lat="45.6811" lon="6.70228">
        <ele>2123</ele>
        <time>2022-07-16T13:29:24Z</time>
      </trkpt>
      <trkpt lat="45.68115" lon="6.7023">
        <ele>2123</ele>
        <time>2022-07-16T13:29:25Z</time>
      </trkpt>
      <trkpt lat="45.68116" lon="6.70232">
        <ele>2123</ele>
        <time>2022-07-16T13:29:27Z</time>
      </trkpt>
      <trkpt lat="45.68118" lon="6.70234">
        <ele>2123</ele>
        <time>2022-07-16T13:29:28Z</time>
      </trkpt>
      <trkpt lat="45.6812" lon="6.70235">
        <ele>2122</ele>
        <time>2022-07-16T13:29:29Z</time>
      </trkpt>
      <trkpt lat="45.68122" lon="6.70236">
        <ele>2122</ele>
        <time>2022-07-16T13:29:30Z</time>
      </trkpt>
      <trkpt lat="45.68125" lon="6.70238">
        <ele>2122</ele>
        <time>2022-07-16T13:29:31Z</time>
      </trkpt>
      <trkpt lat="45.68127" lon="6.70239">
        <ele>2122</ele>
        <time>2022-07-16T13:29:32Z</time>
      </trkpt>
      <trkpt lat="45.68129" lon="6.7024">
        <ele>2123</ele>
        <time>2022-07-16T13:29:33Z</time>
      </trkpt>
      <trkpt lat="45.68131" lon="6.70242">
        <ele>2123</ele>
        <time>2022-07-16T13:29:34Z</time>
      </trkpt>
      <trkpt lat="45.68133" lon="6.70244">
        <ele>2123</ele>
        <time>2022-07-16T13:29:35Z</time>
      </trkpt>
      <trkpt lat="45.68135" lon="6.70245">
        <ele>2123</ele>
        <time>2022-07-16T13:29:36Z</time>
      </trkpt>
      <trkpt lat="45.68137" lon="6.70247">
        <ele>2123</ele>
        <time>2022-07-16T13:29:37Z</time>
      </trkpt>
      <trkpt lat="45.68139" lon="6.70248">
        <ele>2123</ele>
        <time>2022-07-16T13:29:38Z</time>
      </trkpt>
      <trkpt lat="45.68142" lon="6.70249">
        <ele>2123</ele>
        <time>2022-07-16T13:29:39Z</time>
      </trkpt>
      <trkpt lat="45.68144" lon="6.70251">
        <ele>2123</ele>
        <time>2022-07-16T13:29:40Z</time>
      </trkpt>
      <trkpt lat="45.68145" lon="6.70253">
        <ele>2123</ele>
        <time>2022-07-16T13:29:41Z</time>
      </trkpt>
      <trkpt lat="45.68147" lon="6.70254">
        <ele>2122</ele>
        <time>2022-07-16T13:29:42Z</time>
      </trkpt>
      <trkpt lat="45.68149" lon="6.70256">
        <ele>2122</ele>
        <time>2022-07-16T13:29:43Z</time>
      </trkpt>
      <trkpt lat="45.68151" lon="6.70258">
        <ele>2122</ele>
        <time>2022-07-16T13:29:44Z</time>
      </trkpt>
      <trkpt lat="45.68153" lon="6.70259">
        <ele>2122</ele>
        <time>2022-07-16T13:29:45Z</time>
      </trkpt>
      <trkpt lat="45.68155" lon="6.7026">
        <ele>2121</ele>
        <time>2022-07-16T13:29:46Z</time>
      </trkpt>
      <trkpt lat="45.68157" lon="6.70262">
        <ele>2122</ele>
        <time>2022-07-16T13:29:47Z</time>
      </trkpt>
      <trkpt lat="45.68159" lon="6.70263">
        <ele>2122</ele>
        <time>2022-07-16T13:29:48Z</time>
      </trkpt>
      <trkpt lat="45.6816" lon="6.70265">
        <ele>2123</ele>
        <time>2022-07-16T13:29:49Z</time>
      </trkpt>
      <trkpt lat="45.68162" lon="6.70267">
        <ele>2123</ele>
        <time>2022-07-16T13:29:50Z</time>
      </trkpt>
      <trkpt lat="45.68164" lon="6.70269">
        <ele>2123</ele>
        <time>2022-07-16T13:29:51Z</time>
      </trkpt>
      <trkpt lat="45.68165" lon="6.70271">
        <ele>2122</ele>
        <time>2022-07-16T13:29:52Z</time>
      </trkpt>
      <trkpt lat="45.68167" lon="6.70273">
        <ele>2122</ele>
        <time>2022-07-16T13:29:53Z</time>
      </trkpt>
      <trkpt lat="45.68169" lon="6.70275">
        <ele>2122</ele>
        <time>2022-07-16T13:29:54Z</time>
      </trkpt>
      <trkpt lat="45.68171" lon="6.70276">
        <ele>2122</ele>
        <time>2022-07-16T13:29:55Z</time>
      </trkpt>
      <trkpt lat="45.68173" lon="6.70278">
        <ele>2122</ele>
        <time>2022-07-16T13:29:56Z</time>
      </trkpt>
      <trkpt lat="45.68175" lon="6.70279">
        <ele>2122</ele>
        <time>2022-07-16T13:29:57Z</time>
      </trkpt>
      <trkpt lat="45.68177" lon="6.70281">
        <ele>2122</ele>
        <time>2022-07-16T13:29:58Z</time>
      </trkpt>
      <trkpt lat="45.68178" lon="6.70282">
        <ele>2121</ele>
        <time>2022-07-16T13:29:59Z</time>
      </trkpt>
      <trkpt lat="45.6818" lon="6.70283">
        <ele>2121</ele>
        <time>2022-07-16T13:30:00Z</time>
      </trkpt>
      <trkpt lat="45.68182" lon="6.70283">
        <ele>2121</ele>
        <time>2022-07-16T13:30:01Z</time>
      </trkpt>
      <trkpt lat="45.68185" lon="6.70284">
        <ele>2121</ele>
        <time>2022-07-16T13:30:02Z</time>
      </trkpt>
      <trkpt lat="45.68188" lon="6.70285">
        <ele>2121</ele>
        <time>2022-07-16T13:30:03Z</time>
      </trkpt>
      <trkpt lat="45.6819" lon="6.70286">
        <ele>2121</ele>
        <time>2022-07-16T13:30:04Z</time>
      </trkpt>
      <trkpt lat="45.68191" lon="6.70288">
        <ele>2121</ele>
        <time>2022-07-16T13:30:05Z</time>
      </trkpt>
      <trkpt lat="45.68194" lon="6.70288">
        <ele>2122</ele>
        <time>2022-07-16T13:30:06Z</time>
      </trkpt>
      <trkpt lat="45.68196" lon="6.7029">
        <ele>2122</ele>
        <time>2022-07-16T13:30:07Z</time>
      </trkpt>
      <trkpt lat="45.68197" lon="6.70291">
        <ele>2122</ele>
        <time>2022-07-16T13:30:08Z</time>
      </trkpt>
      <trkpt lat="45.68199" lon="6.70293">
        <ele>2121</ele>
        <time>2022-07-16T13:30:09Z</time>
      </trkpt>
      <trkpt lat="45.68201" lon="6.70294">
        <ele>2121</ele>
        <time>2022-07-16T13:30:10Z</time>
      </trkpt>
      <trkpt lat="45.68203" lon="6.70296">
        <ele>2121</ele>
        <time>2022-07-16T13:30:11Z</time>
      </trkpt>
      <trkpt lat="45.68205" lon="6.70297">
        <ele>2121</ele>
        <time>2022-07-16T13:30:12Z</time>
      </trkpt>
      <trkpt lat="45.68207" lon="6.70299">
        <ele>2121</ele>
        <time>2022-07-16T13:30:13Z</time>
      </trkpt>
      <trkpt lat="45.68209" lon="6.70301">
        <ele>2121</ele>
        <time>2022-07-16T13:30:14Z</time>
      </trkpt>
      <trkpt lat="45.68212" lon="6.70305">
        <ele>2121</ele>
        <time>2022-07-16T13:30:15Z</time>
      </trkpt>
      <trkpt lat="45.68214" lon="6.70307">
        <ele>2121</ele>
        <time>2022-07-16T13:30:17Z</time>
      </trkpt>
      <trkpt lat="45.68216" lon="6.70309">
        <ele>2121</ele>
        <time>2022-07-16T13:30:18Z</time>
      </trkpt>
      <trkpt lat="45.68217" lon="6.70311">
        <ele>2121</ele>
        <time>2022-07-16T13:30:19Z</time>
      </trkpt>
      <trkpt lat="45.68219" lon="6.70313">
        <ele>2121</ele>
        <time>2022-07-16T13:30:20Z</time>
      </trkpt>
      <trkpt lat="45.68221" lon="6.70315">
        <ele>2121</ele>
        <time>2022-07-16T13:30:21Z</time>
      </trkpt>
      <trkpt lat="45.68223" lon="6.70317">
        <ele>2121</ele>
        <time>2022-07-16T13:30:22Z</time>
      </trkpt>
      <trkpt lat="45.68225" lon="6.70318">
        <ele>2120</ele>
        <time>2022-07-16T13:30:23Z</time>
      </trkpt>
      <trkpt lat="45.68227" lon="6.7032">
        <ele>2120</ele>
        <time>2022-07-16T13:30:24Z</time>
      </trkpt>
      <trkpt lat="45.68229" lon="6.70322">
        <ele>2120</ele>
        <time>2022-07-16T13:30:25Z</time>
      </trkpt>
      <trkpt lat="45.68231" lon="6.70323">
        <ele>2120</ele>
        <time>2022-07-16T13:30:26Z</time>
      </trkpt>
      <trkpt lat="45.68233" lon="6.70325">
        <ele>2120</ele>
        <time>2022-07-16T13:30:27Z</time>
      </trkpt>
      <trkpt lat="45.68235" lon="6.70327">
        <ele>2120</ele>
        <time>2022-07-16T13:30:28Z</time>
      </trkpt>
      <trkpt lat="45.68237" lon="6.70329">
        <ele>2120</ele>
        <time>2022-07-16T13:30:29Z</time>
      </trkpt>
      <trkpt lat="45.68239" lon="6.7033">
        <ele>2120</ele>
        <time>2022-07-16T13:30:30Z</time>
      </trkpt>
      <trkpt lat="45.68241" lon="6.70332">
        <ele>2120</ele>
        <time>2022-07-16T13:30:31Z</time>
      </trkpt>
      <trkpt lat="45.68243" lon="6.70334">
        <ele>2120</ele>
        <time>2022-07-16T13:30:32Z</time>
      </trkpt>
      <trkpt lat="45.68245" lon="6.70335">
        <ele>2119</ele>
        <time>2022-07-16T13:30:33Z</time>
      </trkpt>
      <trkpt lat="45.68248" lon="6.70337">
        <ele>2119</ele>
        <time>2022-07-16T13:30:34Z</time>
      </trkpt>
      <trkpt lat="45.68249" lon="6.70338">
        <ele>2119</ele>
        <time>2022-07-16T13:30:35Z</time>
      </trkpt>
      <trkpt lat="45.68251" lon="6.70339">
        <ele>2119</ele>
        <time>2022-07-16T13:30:36Z</time>
      </trkpt>
      <trkpt lat="45.68253" lon="6.7034">
        <ele>2120</ele>
        <time>2022-07-16T13:30:37Z</time>
      </trkpt>
      <trkpt lat="45.68256" lon="6.70342">
        <ele>2120</ele>
        <time>2022-07-16T13:30:38Z</time>
      </trkpt>
      <trkpt lat="45.68257" lon="6.70343">
        <ele>2120</ele>
        <time>2022-07-16T13:30:39Z</time>
      </trkpt>
      <trkpt lat="45.68259" lon="6.70344">
        <ele>2119</ele>
        <time>2022-07-16T13:30:40Z</time>
      </trkpt>
      <trkpt lat="45.68262" lon="6.70345">
        <ele>2119</ele>
        <time>2022-07-16T13:30:41Z</time>
      </trkpt>
      <trkpt lat="45.68264" lon="6.70347">
        <ele>2119</ele>
        <time>2022-07-16T13:30:42Z</time>
      </trkpt>
      <trkpt lat="45.68266" lon="6.70348">
        <ele>2119</ele>
        <time>2022-07-16T13:30:43Z</time>
      </trkpt>
      <trkpt lat="45.68268" lon="6.70348">
        <ele>2119</ele>
        <time>2022-07-16T13:30:44Z</time>
      </trkpt>
      <trkpt lat="45.6827" lon="6.70349">
        <ele>2119</ele>
        <time>2022-07-16T13:30:45Z</time>
      </trkpt>
      <trkpt lat="45.68273" lon="6.7035">
        <ele>2119</ele>
        <time>2022-07-16T13:30:46Z</time>
      </trkpt>
      <trkpt lat="45.68275" lon="6.7035">
        <ele>2119</ele>
        <time>2022-07-16T13:30:47Z</time>
      </trkpt>
      <trkpt lat="45.68277" lon="6.70351">
        <ele>2119</ele>
        <time>2022-07-16T13:30:48Z</time>
      </trkpt>
      <trkpt lat="45.68278" lon="6.70353">
        <ele>2119</ele>
        <time>2022-07-16T13:30:49Z</time>
      </trkpt>
      <trkpt lat="45.6828" lon="6.70354">
        <ele>2119</ele>
        <time>2022-07-16T13:30:50Z</time>
      </trkpt>
      <trkpt lat="45.68282" lon="6.70355">
        <ele>2120</ele>
        <time>2022-07-16T13:30:51Z</time>
      </trkpt>
      <trkpt lat="45.68284" lon="6.70356">
        <ele>2120</ele>
        <time>2022-07-16T13:30:52Z</time>
      </trkpt>
      <trkpt lat="45.68287" lon="6.70358">
        <ele>2120</ele>
        <time>2022-07-16T13:30:53Z</time>
      </trkpt>
      <trkpt lat="45.68288" lon="6.70359">
        <ele>2120</ele>
        <time>2022-07-16T13:30:54Z</time>
      </trkpt>
      <trkpt lat="45.6829" lon="6.70361">
        <ele>2120</ele>
        <time>2022-07-16T13:30:55Z</time>
      </trkpt>
      <trkpt lat="45.68292" lon="6.70363">
        <ele>2119</ele>
        <time>2022-07-16T13:30:56Z</time>
      </trkpt>
      <trkpt lat="45.68294" lon="6.70364">
        <ele>2119</ele>
        <time>2022-07-16T13:30:57Z</time>
      </trkpt>
      <trkpt lat="45.68297" lon="6.70368">
        <ele>2119</ele>
        <time>2022-07-16T13:30:58Z</time>
      </trkpt>
      <trkpt lat="45.683" lon="6.7037">
        <ele>2119</ele>
        <time>2022-07-16T13:31:00Z</time>
      </trkpt>
      <trkpt lat="45.68302" lon="6.70371">
        <ele>2119</ele>
        <time>2022-07-16T13:31:01Z</time>
      </trkpt>
      <trkpt lat="45.68304" lon="6.70373">
        <ele>2119</ele>
        <time>2022-07-16T13:31:02Z</time>
      </trkpt>
      <trkpt lat="45.68306" lon="6.70374">
        <ele>2119</ele>
        <time>2022-07-16T13:31:03Z</time>
      </trkpt>
      <trkpt lat="45.68308" lon="6.70376">
        <ele>2119</ele>
        <time>2022-07-16T13:31:04Z</time>
      </trkpt>
      <trkpt lat="45.6831" lon="6.70377">
        <ele>2119</ele>
        <time>2022-07-16T13:31:05Z</time>
      </trkpt>
      <trkpt lat="45.68312" lon="6.70378">
        <ele>2119</ele>
        <time>2022-07-16T13:31:06Z</time>
      </trkpt>
      <trkpt lat="45.68314" lon="6.70379">
        <ele>2119</ele>
        <time>2022-07-16T13:31:07Z</time>
      </trkpt>
      <trkpt lat="45.68316" lon="6.70379">
        <ele>2119</ele>
        <time>2022-07-16T13:31:08Z</time>
      </trkpt>
      <trkpt lat="45.68319" lon="6.7038">
        <ele>2119</ele>
        <time>2022-07-16T13:31:09Z</time>
      </trkpt>
      <trkpt lat="45.68321" lon="6.7038">
        <ele>2119</ele>
        <time>2022-07-16T13:31:10Z</time>
      </trkpt>
      <trkpt lat="45.68323" lon="6.70381">
        <ele>2119</ele>
        <time>2022-07-16T13:31:11Z</time>
      </trkpt>
      <trkpt lat="45.68326" lon="6.70382">
        <ele>2119</ele>
        <time>2022-07-16T13:31:12Z</time>
      </trkpt>
      <trkpt lat="45.68328" lon="6.70383">
        <ele>2119</ele>
        <time>2022-07-16T13:31:13Z</time>
      </trkpt>
      <trkpt lat="45.68331" lon="6.70384">
        <ele>2118</ele>
        <time>2022-07-16T13:31:14Z</time>
      </trkpt>
      <trkpt lat="45.68333" lon="6.70384">
        <ele>2118</ele>
        <time>2022-07-16T13:31:15Z</time>
      </trkpt>
      <trkpt lat="45.68335" lon="6.70385">
        <ele>2118</ele>
        <time>2022-07-16T13:31:16Z</time>
      </trkpt>
      <trkpt lat="45.68338" lon="6.70385">
        <ele>2119</ele>
        <time>2022-07-16T13:31:17Z</time>
      </trkpt>
      <trkpt lat="45.6834" lon="6.70385">
        <ele>2119</ele>
        <time>2022-07-16T13:31:18Z</time>
      </trkpt>
      <trkpt lat="45.68343" lon="6.70385">
        <ele>2119</ele>
        <time>2022-07-16T13:31:19Z</time>
      </trkpt>
      <trkpt lat="45.68345" lon="6.70384">
        <ele>2119</ele>
        <time>2022-07-16T13:31:20Z</time>
      </trkpt>
      <trkpt lat="45.68348" lon="6.70384">
        <ele>2119</ele>
        <time>2022-07-16T13:31:21Z</time>
      </trkpt>
      <trkpt lat="45.6835" lon="6.70384">
        <ele>2119</ele>
        <time>2022-07-16T13:31:22Z</time>
      </trkpt>
      <trkpt lat="45.68352" lon="6.70384">
        <ele>2118</ele>
        <time>2022-07-16T13:31:23Z</time>
      </trkpt>
      <trkpt lat="45.68354" lon="6.70384">
        <ele>2118</ele>
        <time>2022-07-16T13:31:24Z</time>
      </trkpt>
      <trkpt lat="45.68357" lon="6.70384">
        <ele>2118</ele>
        <time>2022-07-16T13:31:25Z</time>
      </trkpt>
      <trkpt lat="45.68359" lon="6.70384">
        <ele>2119</ele>
        <time>2022-07-16T13:31:26Z</time>
      </trkpt>
      <trkpt lat="45.68361" lon="6.70384">
        <ele>2119</ele>
        <time>2022-07-16T13:31:27Z</time>
      </trkpt>
      <trkpt lat="45.68363" lon="6.70384">
        <ele>2119</ele>
        <time>2022-07-16T13:31:28Z</time>
      </trkpt>
      <trkpt lat="45.68366" lon="6.70384">
        <ele>2119</ele>
        <time>2022-07-16T13:31:29Z</time>
      </trkpt>
      <trkpt lat="45.68368" lon="6.70384">
        <ele>2119</ele>
        <time>2022-07-16T13:31:30Z</time>
      </trkpt>
      <trkpt lat="45.6837" lon="6.70385">
        <ele>2119</ele>
        <time>2022-07-16T13:31:31Z</time>
      </trkpt>
      <trkpt lat="45.68372" lon="6.70385">
        <ele>2119</ele>
        <time>2022-07-16T13:31:32Z</time>
      </trkpt>
      <trkpt lat="45.68375" lon="6.70384">
        <ele>2118</ele>
        <time>2022-07-16T13:31:33Z</time>
      </trkpt>
      <trkpt lat="45.68377" lon="6.70384">
        <ele>2118</ele>
        <time>2022-07-16T13:31:34Z</time>
      </trkpt>
      <trkpt lat="45.68379" lon="6.70384">
        <ele>2118</ele>
        <time>2022-07-16T13:31:35Z</time>
      </trkpt>
      <trkpt lat="45.68381" lon="6.70384">
        <ele>2116</ele>
        <time>2022-07-16T13:31:36Z</time>
      </trkpt>
      <trkpt lat="45.68384" lon="6.70384">
        <ele>2116</ele>
        <time>2022-07-16T13:31:37Z</time>
      </trkpt>
      <trkpt lat="45.68386" lon="6.70384">
        <ele>2116</ele>
        <time>2022-07-16T13:31:38Z</time>
      </trkpt>
      <trkpt lat="45.68388" lon="6.70384">
        <ele>2116</ele>
        <time>2022-07-16T13:31:39Z</time>
      </trkpt>
      <trkpt lat="45.68391" lon="6.70385">
        <ele>2116</ele>
        <time>2022-07-16T13:31:40Z</time>
      </trkpt>
      <trkpt lat="45.68392" lon="6.70385">
        <ele>2116</ele>
        <time>2022-07-16T13:31:41Z</time>
      </trkpt>
      <trkpt lat="45.68395" lon="6.70386">
        <ele>2116</ele>
        <time>2022-07-16T13:31:42Z</time>
      </trkpt>
      <trkpt lat="45.68397" lon="6.70387">
        <ele>2116</ele>
        <time>2022-07-16T13:31:43Z</time>
      </trkpt>
      <trkpt lat="45.68398" lon="6.70387">
        <ele>2116</ele>
        <time>2022-07-16T13:31:44Z</time>
      </trkpt>
      <trkpt lat="45.68401" lon="6.70388">
        <ele>2116</ele>
        <time>2022-07-16T13:31:45Z</time>
      </trkpt>
      <trkpt lat="45.68403" lon="6.70388">
        <ele>2116</ele>
        <time>2022-07-16T13:31:46Z</time>
      </trkpt>
      <trkpt lat="45.68405" lon="6.70389">
        <ele>2116</ele>
        <time>2022-07-16T13:31:47Z</time>
      </trkpt>
      <trkpt lat="45.68407" lon="6.70389">
        <ele>2116</ele>
        <time>2022-07-16T13:31:48Z</time>
      </trkpt>
      <trkpt lat="45.6841" lon="6.7039">
        <ele>2116</ele>
        <time>2022-07-16T13:31:49Z</time>
      </trkpt>
      <trkpt lat="45.68413" lon="6.70391">
        <ele>2116</ele>
        <time>2022-07-16T13:31:50Z</time>
      </trkpt>
      <trkpt lat="45.68414" lon="6.70392">
        <ele>2116</ele>
        <time>2022-07-16T13:31:51Z</time>
      </trkpt>
      <trkpt lat="45.68416" lon="6.70392">
        <ele>2116</ele>
        <time>2022-07-16T13:31:52Z</time>
      </trkpt>
      <trkpt lat="45.68418" lon="6.70392">
        <ele>2116</ele>
        <time>2022-07-16T13:31:53Z</time>
      </trkpt>
      <trkpt lat="45.68421" lon="6.70391">
        <ele>2116</ele>
        <time>2022-07-16T13:31:54Z</time>
      </trkpt>
      <trkpt lat="45.68423" lon="6.70391">
        <ele>2116</ele>
        <time>2022-07-16T13:31:55Z</time>
      </trkpt>
      <trkpt lat="45.68426" lon="6.7039">
        <ele>2118</ele>
        <time>2022-07-16T13:31:56Z</time>
      </trkpt>
      <trkpt lat="45.68428" lon="6.70389">
        <ele>2118</ele>
        <time>2022-07-16T13:31:57Z</time>
      </trkpt>
      <trkpt lat="45.6843" lon="6.70388">
        <ele>2118</ele>
        <time>2022-07-16T13:31:58Z</time>
      </trkpt>
      <trkpt lat="45.68433" lon="6.70387">
        <ele>2118</ele>
        <time>2022-07-16T13:31:59Z</time>
      </trkpt>
      <trkpt lat="45.68435" lon="6.70386">
        <ele>2118</ele>
        <time>2022-07-16T13:32:00Z</time>
      </trkpt>
      <trkpt lat="45.68437" lon="6.70385">
        <ele>2118</ele>
        <time>2022-07-16T13:32:01Z</time>
      </trkpt>
      <trkpt lat="45.68441" lon="6.70384">
        <ele>2118</ele>
        <time>2022-07-16T13:32:02Z</time>
      </trkpt>
      <trkpt lat="45.68442" lon="6.70383">
        <ele>2118</ele>
        <time>2022-07-16T13:32:03Z</time>
      </trkpt>
      <trkpt lat="45.68445" lon="6.70383">
        <ele>2116</ele>
        <time>2022-07-16T13:32:04Z</time>
      </trkpt>
      <trkpt lat="45.68447" lon="6.70382">
        <ele>2116</ele>
        <time>2022-07-16T13:32:05Z</time>
      </trkpt>
      <trkpt lat="45.6845" lon="6.70381">
        <ele>2116</ele>
        <time>2022-07-16T13:32:06Z</time>
      </trkpt>
      <trkpt lat="45.68452" lon="6.70381">
        <ele>2116</ele>
        <time>2022-07-16T13:32:07Z</time>
      </trkpt>
      <trkpt lat="45.68454" lon="6.7038">
        <ele>2116</ele>
        <time>2022-07-16T13:32:08Z</time>
      </trkpt>
      <trkpt lat="45.68459" lon="6.70379">
        <ele>2115</ele>
        <time>2022-07-16T13:32:09Z</time>
      </trkpt>
      <trkpt lat="45.68462" lon="6.70378">
        <ele>2115</ele>
        <time>2022-07-16T13:32:11Z</time>
      </trkpt>
      <trkpt lat="45.68464" lon="6.70378">
        <ele>2115</ele>
        <time>2022-07-16T13:32:12Z</time>
      </trkpt>
      <trkpt lat="45.68466" lon="6.70378">
        <ele>2115</ele>
        <time>2022-07-16T13:32:13Z</time>
      </trkpt>
      <trkpt lat="45.68469" lon="6.70377">
        <ele>2115</ele>
        <time>2022-07-16T13:32:14Z</time>
      </trkpt>
      <trkpt lat="45.68471" lon="6.70377">
        <ele>2115</ele>
        <time>2022-07-16T13:32:15Z</time>
      </trkpt>
      <trkpt lat="45.68474" lon="6.70376">
        <ele>2115</ele>
        <time>2022-07-16T13:32:16Z</time>
      </trkpt>
      <trkpt lat="45.68476" lon="6.70376">
        <ele>2115</ele>
        <time>2022-07-16T13:32:17Z</time>
      </trkpt>
      <trkpt lat="45.68479" lon="6.70377">
        <ele>2115</ele>
        <time>2022-07-16T13:32:18Z</time>
      </trkpt>
      <trkpt lat="45.68481" lon="6.70377">
        <ele>2115</ele>
        <time>2022-07-16T13:32:19Z</time>
      </trkpt>
      <trkpt lat="45.68483" lon="6.70376">
        <ele>2115</ele>
        <time>2022-07-16T13:32:20Z</time>
      </trkpt>
      <trkpt lat="45.68485" lon="6.70376">
        <ele>2115</ele>
        <time>2022-07-16T13:32:21Z</time>
      </trkpt>
      <trkpt lat="45.68489" lon="6.70375">
        <ele>2115</ele>
        <time>2022-07-16T13:32:22Z</time>
      </trkpt>
      <trkpt lat="45.68491" lon="6.70375">
        <ele>2115</ele>
        <time>2022-07-16T13:32:24Z</time>
      </trkpt>
      <trkpt lat="45.68493" lon="6.70375">
        <ele>2115</ele>
        <time>2022-07-16T13:32:25Z</time>
      </trkpt>
      <trkpt lat="45.68495" lon="6.70374">
        <ele>2114</ele>
        <time>2022-07-16T13:32:26Z</time>
      </trkpt>
      <trkpt lat="45.68498" lon="6.70374">
        <ele>2114</ele>
        <time>2022-07-16T13:32:27Z</time>
      </trkpt>
      <trkpt lat="45.68502" lon="6.70373">
        <ele>2114</ele>
        <time>2022-07-16T13:32:28Z</time>
      </trkpt>
      <trkpt lat="45.68504" lon="6.70372">
        <ele>2114</ele>
        <time>2022-07-16T13:32:30Z</time>
      </trkpt>
      <trkpt lat="45.68507" lon="6.70372">
        <ele>2114</ele>
        <time>2022-07-16T13:32:31Z</time>
      </trkpt>
      <trkpt lat="45.68509" lon="6.70373">
        <ele>2115</ele>
        <time>2022-07-16T13:32:32Z</time>
      </trkpt>
      <trkpt lat="45.68511" lon="6.70373">
        <ele>2115</ele>
        <time>2022-07-16T13:32:33Z</time>
      </trkpt>
      <trkpt lat="45.68513" lon="6.70374">
        <ele>2115</ele>
        <time>2022-07-16T13:32:34Z</time>
      </trkpt>
      <trkpt lat="45.68516" lon="6.70374">
        <ele>2115</ele>
        <time>2022-07-16T13:32:35Z</time>
      </trkpt>
      <trkpt lat="45.68518" lon="6.70374">
        <ele>2114</ele>
        <time>2022-07-16T13:32:36Z</time>
      </trkpt>
      <trkpt lat="45.6852" lon="6.70373">
        <ele>2114</ele>
        <time>2022-07-16T13:32:37Z</time>
      </trkpt>
      <trkpt lat="45.68522" lon="6.70373">
        <ele>2114</ele>
        <time>2022-07-16T13:32:38Z</time>
      </trkpt>
      <trkpt lat="45.68524" lon="6.70372">
        <ele>2114</ele>
        <time>2022-07-16T13:32:39Z</time>
      </trkpt>
      <trkpt lat="45.68526" lon="6.70372">
        <ele>2114</ele>
        <time>2022-07-16T13:32:40Z</time>
      </trkpt>
      <trkpt lat="45.68528" lon="6.70371">
        <ele>2114</ele>
        <time>2022-07-16T13:32:41Z</time>
      </trkpt>
      <trkpt lat="45.6853" lon="6.70371">
        <ele>2114</ele>
        <time>2022-07-16T13:32:42Z</time>
      </trkpt>
      <trkpt lat="45.68532" lon="6.7037">
        <ele>2114</ele>
        <time>2022-07-16T13:32:43Z</time>
      </trkpt>
      <trkpt lat="45.68534" lon="6.70369">
        <ele>2114</ele>
        <time>2022-07-16T13:32:44Z</time>
      </trkpt>
      <trkpt lat="45.68536" lon="6.70368">
        <ele>2114</ele>
        <time>2022-07-16T13:32:45Z</time>
      </trkpt>
      <trkpt lat="45.68539" lon="6.70366">
        <ele>2114</ele>
        <time>2022-07-16T13:32:46Z</time>
      </trkpt>
      <trkpt lat="45.6854" lon="6.70366">
        <ele>2114</ele>
        <time>2022-07-16T13:32:47Z</time>
      </trkpt>
      <trkpt lat="45.68543" lon="6.70365">
        <ele>2114</ele>
        <time>2022-07-16T13:32:48Z</time>
      </trkpt>
      <trkpt lat="45.68545" lon="6.70364">
        <ele>2114</ele>
        <time>2022-07-16T13:32:49Z</time>
      </trkpt>
      <trkpt lat="45.68547" lon="6.70363">
        <ele>2114</ele>
        <time>2022-07-16T13:32:50Z</time>
      </trkpt>
      <trkpt lat="45.68549" lon="6.70362">
        <ele>2114</ele>
        <time>2022-07-16T13:32:51Z</time>
      </trkpt>
      <trkpt lat="45.68551" lon="6.70361">
        <ele>2114</ele>
        <time>2022-07-16T13:32:52Z</time>
      </trkpt>
      <trkpt lat="45.68553" lon="6.7036">
        <ele>2114</ele>
        <time>2022-07-16T13:32:53Z</time>
      </trkpt>
      <trkpt lat="45.68556" lon="6.70359">
        <ele>2114</ele>
        <time>2022-07-16T13:32:54Z</time>
      </trkpt>
      <trkpt lat="45.68558" lon="6.70358">
        <ele>2114</ele>
        <time>2022-07-16T13:32:55Z</time>
      </trkpt>
      <trkpt lat="45.68561" lon="6.70357">
        <ele>2114</ele>
        <time>2022-07-16T13:32:56Z</time>
      </trkpt>
      <trkpt lat="45.68563" lon="6.70356">
        <ele>2114</ele>
        <time>2022-07-16T13:32:57Z</time>
      </trkpt>
      <trkpt lat="45.68565" lon="6.70356">
        <ele>2114</ele>
        <time>2022-07-16T13:32:58Z</time>
      </trkpt>
      <trkpt lat="45.68568" lon="6.70355">
        <ele>2113</ele>
        <time>2022-07-16T13:32:59Z</time>
      </trkpt>
      <trkpt lat="45.6857" lon="6.70354">
        <ele>2113</ele>
        <time>2022-07-16T13:33:00Z</time>
      </trkpt>
      <trkpt lat="45.68573" lon="6.70354">
        <ele>2113</ele>
        <time>2022-07-16T13:33:01Z</time>
      </trkpt>
      <trkpt lat="45.68575" lon="6.70353">
        <ele>2113</ele>
        <time>2022-07-16T13:33:02Z</time>
      </trkpt>
      <trkpt lat="45.68578" lon="6.70352">
        <ele>2113</ele>
        <time>2022-07-16T13:33:03Z</time>
      </trkpt>
      <trkpt lat="45.6858" lon="6.70352">
        <ele>2114</ele>
        <time>2022-07-16T13:33:04Z</time>
      </trkpt>
      <trkpt lat="45.68583" lon="6.70351">
        <ele>2114</ele>
        <time>2022-07-16T13:33:05Z</time>
      </trkpt>
      <trkpt lat="45.68585" lon="6.70351">
        <ele>2114</ele>
        <time>2022-07-16T13:33:06Z</time>
      </trkpt>
      <trkpt lat="45.68587" lon="6.7035">
        <ele>2114</ele>
        <time>2022-07-16T13:33:07Z</time>
      </trkpt>
      <trkpt lat="45.68589" lon="6.70349">
        <ele>2115</ele>
        <time>2022-07-16T13:33:08Z</time>
      </trkpt>
      <trkpt lat="45.68591" lon="6.70348">
        <ele>2115</ele>
        <time>2022-07-16T13:33:09Z</time>
      </trkpt>
      <trkpt lat="45.68593" lon="6.70348">
        <ele>2113</ele>
        <time>2022-07-16T13:33:11Z</time>
      </trkpt>
      <trkpt lat="45.68595" lon="6.70347">
        <ele>2113</ele>
        <time>2022-07-16T13:33:13Z</time>
      </trkpt>
      <trkpt lat="45.68598" lon="6.70346">
        <ele>2113</ele>
        <time>2022-07-16T13:33:15Z</time>
      </trkpt>
      <trkpt lat="45.686" lon="6.70346">
        <ele>2113</ele>
        <time>2022-07-16T13:33:17Z</time>
      </trkpt>
      <trkpt lat="45.68602" lon="6.70347">
        <ele>2113</ele>
        <time>2022-07-16T13:33:19Z</time>
      </trkpt>
      <trkpt lat="45.68605" lon="6.70347">
        <ele>2113</ele>
        <time>2022-07-16T13:33:21Z</time>
      </trkpt>
      <trkpt lat="45.68608" lon="6.70347">
        <ele>2113</ele>
        <time>2022-07-16T13:33:23Z</time>
      </trkpt>
      <trkpt lat="45.6861" lon="6.70347">
        <ele>2112</ele>
        <time>2022-07-16T13:33:25Z</time>
      </trkpt>
      <trkpt lat="45.68613" lon="6.70348">
        <ele>2112</ele>
        <time>2022-07-16T13:33:27Z</time>
      </trkpt>
      <trkpt lat="45.68616" lon="6.7035">
        <ele>2112</ele>
        <time>2022-07-16T13:33:29Z</time>
      </trkpt>
      <trkpt lat="45.68618" lon="6.70351">
        <ele>2112</ele>
        <time>2022-07-16T13:33:31Z</time>
      </trkpt>
      <trkpt lat="45.68622" lon="6.70352">
        <ele>2112</ele>
        <time>2022-07-16T13:33:33Z</time>
      </trkpt>
      <trkpt lat="45.68625" lon="6.70354">
        <ele>2112</ele>
        <time>2022-07-16T13:33:35Z</time>
      </trkpt>
      <trkpt lat="45.68628" lon="6.70357">
        <ele>2113</ele>
        <time>2022-07-16T13:33:37Z</time>
      </trkpt>
      <trkpt lat="45.6863" lon="6.7036">
        <ele>2113</ele>
        <time>2022-07-16T13:33:39Z</time>
      </trkpt>
      <trkpt lat="45.68633" lon="6.70363">
        <ele>2113</ele>
        <time>2022-07-16T13:33:41Z</time>
      </trkpt>
      <trkpt lat="45.68635" lon="6.70365">
        <ele>2113</ele>
        <time>2022-07-16T13:33:43Z</time>
      </trkpt>
      <trkpt lat="45.68638" lon="6.70367">
        <ele>2113</ele>
        <time>2022-07-16T13:33:45Z</time>
      </trkpt>
      <trkpt lat="45.6864" lon="6.70369">
        <ele>2113</ele>
        <time>2022-07-16T13:33:47Z</time>
      </trkpt>
      <trkpt lat="45.68643" lon="6.70371">
        <ele>2113</ele>
        <time>2022-07-16T13:33:49Z</time>
      </trkpt>
      <trkpt lat="45.68646" lon="6.70373">
        <ele>2113</ele>
        <time>2022-07-16T13:33:51Z</time>
      </trkpt>
      <trkpt lat="45.6865" lon="6.70373">
        <ele>2112</ele>
        <time>2022-07-16T13:33:53Z</time>
      </trkpt>
      <trkpt lat="45.68653" lon="6.70374">
        <ele>2112</ele>
        <time>2022-07-16T13:33:55Z</time>
      </trkpt>
      <trkpt lat="45.68656" lon="6.70374">
        <ele>2112</ele>
        <time>2022-07-16T13:33:57Z</time>
      </trkpt>
      <trkpt lat="45.68659" lon="6.70374">
        <ele>2112</ele>
        <time>2022-07-16T13:33:59Z</time>
      </trkpt>
      <trkpt lat="45.68662" lon="6.70373">
        <ele>2112</ele>
        <time>2022-07-16T13:34:01Z</time>
      </trkpt>
      <trkpt lat="45.68665" lon="6.70372">
        <ele>2112</ele>
        <time>2022-07-16T13:34:03Z</time>
      </trkpt>
      <trkpt lat="45.68668" lon="6.70372">
        <ele>2112</ele>
        <time>2022-07-16T13:34:05Z</time>
      </trkpt>
      <trkpt lat="45.6867" lon="6.70371">
        <ele>2112</ele>
        <time>2022-07-16T13:34:07Z</time>
      </trkpt>
      <trkpt lat="45.68674" lon="6.7037">
        <ele>2112</ele>
        <time>2022-07-16T13:34:09Z</time>
      </trkpt>
      <trkpt lat="45.68677" lon="6.7037">
        <ele>2111</ele>
        <time>2022-07-16T13:34:11Z</time>
      </trkpt>
      <trkpt lat="45.6868" lon="6.7037">
        <ele>2111</ele>
        <time>2022-07-16T13:34:12Z</time>
      </trkpt>
      <trkpt lat="45.68683" lon="6.70371">
        <ele>2111</ele>
        <time>2022-07-16T13:34:15Z</time>
      </trkpt>
      <trkpt lat="45.68686" lon="6.70371">
        <ele>2111</ele>
        <time>2022-07-16T13:34:17Z</time>
      </trkpt>
      <trkpt lat="45.68688" lon="6.70371">
        <ele>2112</ele>
        <time>2022-07-16T13:34:19Z</time>
      </trkpt>
      <trkpt lat="45.68691" lon="6.7037">
        <ele>2111</ele>
        <time>2022-07-16T13:34:21Z</time>
      </trkpt>
      <trkpt lat="45.68694" lon="6.7037">
        <ele>2111</ele>
        <time>2022-07-16T13:34:23Z</time>
      </trkpt>
      <trkpt lat="45.68697" lon="6.7037">
        <ele>2111</ele>
        <time>2022-07-16T13:34:25Z</time>
      </trkpt>
      <trkpt lat="45.687" lon="6.70369">
        <ele>2111</ele>
        <time>2022-07-16T13:34:27Z</time>
      </trkpt>
      <trkpt lat="45.68702" lon="6.70368">
        <ele>2111</ele>
        <time>2022-07-16T13:34:29Z</time>
      </trkpt>
      <trkpt lat="45.68705" lon="6.70365">
        <ele>2111</ele>
        <time>2022-07-16T13:34:31Z</time>
      </trkpt>
      <trkpt lat="45.68708" lon="6.70362">
        <ele>2111</ele>
        <time>2022-07-16T13:34:33Z</time>
      </trkpt>
      <trkpt lat="45.6871" lon="6.70359">
        <ele>2111</ele>
        <time>2022-07-16T13:34:35Z</time>
      </trkpt>
      <trkpt lat="45.68712" lon="6.70356">
        <ele>2112</ele>
        <time>2022-07-16T13:34:37Z</time>
      </trkpt>
      <trkpt lat="45.68714" lon="6.70353">
        <ele>2111</ele>
        <time>2022-07-16T13:34:39Z</time>
      </trkpt>
      <trkpt lat="45.68716" lon="6.70349">
        <ele>2111</ele>
        <time>2022-07-16T13:34:41Z</time>
      </trkpt>
      <trkpt lat="45.68717" lon="6.70346">
        <ele>2110</ele>
        <time>2022-07-16T13:34:43Z</time>
      </trkpt>
      <trkpt lat="45.68719" lon="6.70342">
        <ele>2111</ele>
        <time>2022-07-16T13:34:45Z</time>
      </trkpt>
      <trkpt lat="45.6872" lon="6.70339">
        <ele>2111</ele>
        <time>2022-07-16T13:34:47Z</time>
      </trkpt>
      <trkpt lat="45.68721" lon="6.70335">
        <ele>2111</ele>
        <time>2022-07-16T13:34:49Z</time>
      </trkpt>
      <trkpt lat="45.68722" lon="6.70331">
        <ele>2111</ele>
        <time>2022-07-16T13:34:51Z</time>
      </trkpt>
      <trkpt lat="45.68724" lon="6.70327">
        <ele>2111</ele>
        <time>2022-07-16T13:34:53Z</time>
      </trkpt>
      <trkpt lat="45.68725" lon="6.70325">
        <ele>2111</ele>
        <time>2022-07-16T13:34:54Z</time>
      </trkpt>
      <trkpt lat="45.68726" lon="6.70323">
        <ele>2111</ele>
        <time>2022-07-16T13:34:55Z</time>
      </trkpt>
      <trkpt lat="45.68729" lon="6.7032">
        <ele>2111</ele>
        <time>2022-07-16T13:34:57Z</time>
      </trkpt>
      <trkpt lat="45.68731" lon="6.70317">
        <ele>2110</ele>
        <time>2022-07-16T13:34:59Z</time>
      </trkpt>
      <trkpt lat="45.68734" lon="6.70315">
        <ele>2110</ele>
        <time>2022-07-16T13:35:01Z</time>
      </trkpt>
      <trkpt lat="45.68737" lon="6.70312">
        <ele>2110</ele>
        <time>2022-07-16T13:35:03Z</time>
      </trkpt>
      <trkpt lat="45.6874" lon="6.7031">
        <ele>2110</ele>
        <time>2022-07-16T13:35:05Z</time>
      </trkpt>
      <trkpt lat="45.68742" lon="6.70309">
        <ele>2110</ele>
        <time>2022-07-16T13:35:07Z</time>
      </trkpt>
      <trkpt lat="45.68744" lon="6.70307">
        <ele>2111</ele>
        <time>2022-07-16T13:35:09Z</time>
      </trkpt>
      <trkpt lat="45.68747" lon="6.70306">
        <ele>2111</ele>
        <time>2022-07-16T13:35:11Z</time>
      </trkpt>
      <trkpt lat="45.6875" lon="6.70305">
        <ele>2111</ele>
        <time>2022-07-16T13:35:13Z</time>
      </trkpt>
      <trkpt lat="45.68753" lon="6.70304">
        <ele>2111</ele>
        <time>2022-07-16T13:35:15Z</time>
      </trkpt>
      <trkpt lat="45.68756" lon="6.70303">
        <ele>2111</ele>
        <time>2022-07-16T13:35:17Z</time>
      </trkpt>
      <trkpt lat="45.68757" lon="6.70302">
        <ele>2111</ele>
        <time>2022-07-16T13:35:18Z</time>
      </trkpt>
      <trkpt lat="45.68759" lon="6.70302">
        <ele>2111</ele>
        <time>2022-07-16T13:35:19Z</time>
      </trkpt>
      <trkpt lat="45.68761" lon="6.70301">
        <ele>2110</ele>
        <time>2022-07-16T13:35:20Z</time>
      </trkpt>
      <trkpt lat="45.68763" lon="6.70301">
        <ele>2110</ele>
        <time>2022-07-16T13:35:21Z</time>
      </trkpt>
      <trkpt lat="45.68765" lon="6.703">
        <ele>2110</ele>
        <time>2022-07-16T13:35:22Z</time>
      </trkpt>
      <trkpt lat="45.68767" lon="6.70299">
        <ele>2110</ele>
        <time>2022-07-16T13:35:23Z</time>
      </trkpt>
      <trkpt lat="45.68769" lon="6.70297">
        <ele>2110</ele>
        <time>2022-07-16T13:35:24Z</time>
      </trkpt>
      <trkpt lat="45.68771" lon="6.70295">
        <ele>2109</ele>
        <time>2022-07-16T13:35:25Z</time>
      </trkpt>
      <trkpt lat="45.68773" lon="6.70292">
        <ele>2109</ele>
        <time>2022-07-16T13:35:26Z</time>
      </trkpt>
      <trkpt lat="45.68774" lon="6.70289">
        <ele>2109</ele>
        <time>2022-07-16T13:35:27Z</time>
      </trkpt>
      <trkpt lat="45.68775" lon="6.70286">
        <ele>2110</ele>
        <time>2022-07-16T13:35:28Z</time>
      </trkpt>
      <trkpt lat="45.68776" lon="6.70283">
        <ele>2110</ele>
        <time>2022-07-16T13:35:29Z</time>
      </trkpt>
      <trkpt lat="45.68777" lon="6.7028">
        <ele>2110</ele>
        <time>2022-07-16T13:35:30Z</time>
      </trkpt>
      <trkpt lat="45.68778" lon="6.70277">
        <ele>2110</ele>
        <time>2022-07-16T13:35:31Z</time>
      </trkpt>
      <trkpt lat="45.68779" lon="6.70274">
        <ele>2110</ele>
        <time>2022-07-16T13:35:32Z</time>
      </trkpt>
      <trkpt lat="45.6878" lon="6.70271">
        <ele>2110</ele>
        <time>2022-07-16T13:35:33Z</time>
      </trkpt>
      <trkpt lat="45.68781" lon="6.70268">
        <ele>2110</ele>
        <time>2022-07-16T13:35:34Z</time>
      </trkpt>
      <trkpt lat="45.68782" lon="6.70265">
        <ele>2110</ele>
        <time>2022-07-16T13:35:35Z</time>
      </trkpt>
      <trkpt lat="45.68783" lon="6.70263">
        <ele>2111</ele>
        <time>2022-07-16T13:35:36Z</time>
      </trkpt>
      <trkpt lat="45.68784" lon="6.7026">
        <ele>2110</ele>
        <time>2022-07-16T13:35:37Z</time>
      </trkpt>
      <trkpt lat="45.68785" lon="6.70257">
        <ele>2109</ele>
        <time>2022-07-16T13:35:38Z</time>
      </trkpt>
      <trkpt lat="45.68785" lon="6.70254">
        <ele>2109</ele>
        <time>2022-07-16T13:35:39Z</time>
      </trkpt>
      <trkpt lat="45.68785" lon="6.7025">
        <ele>2109</ele>
        <time>2022-07-16T13:35:40Z</time>
      </trkpt>
      <trkpt lat="45.68785" lon="6.70248">
        <ele>2109</ele>
        <time>2022-07-16T13:35:41Z</time>
      </trkpt>
      <trkpt lat="45.68785" lon="6.70245">
        <ele>2109</ele>
        <time>2022-07-16T13:35:42Z</time>
      </trkpt>
      <trkpt lat="45.68786" lon="6.70241">
        <ele>2109</ele>
        <time>2022-07-16T13:35:43Z</time>
      </trkpt>
      <trkpt lat="45.68786" lon="6.70238">
        <ele>2109</ele>
        <time>2022-07-16T13:35:44Z</time>
      </trkpt>
      <trkpt lat="45.68786" lon="6.70234">
        <ele>2109</ele>
        <time>2022-07-16T13:35:45Z</time>
      </trkpt>
      <trkpt lat="45.68786" lon="6.70231">
        <ele>2109</ele>
        <time>2022-07-16T13:35:46Z</time>
      </trkpt>
      <trkpt lat="45.68786" lon="6.70228">
        <ele>2109</ele>
        <time>2022-07-16T13:35:47Z</time>
      </trkpt>
      <trkpt lat="45.68786" lon="6.70224">
        <ele>2109</ele>
        <time>2022-07-16T13:35:48Z</time>
      </trkpt>
      <trkpt lat="45.68786" lon="6.70221">
        <ele>2109</ele>
        <time>2022-07-16T13:35:49Z</time>
      </trkpt>
      <trkpt lat="45.68785" lon="6.70217">
        <ele>2108</ele>
        <time>2022-07-16T13:35:50Z</time>
      </trkpt>
      <trkpt lat="45.68785" lon="6.70214">
        <ele>2108</ele>
        <time>2022-07-16T13:35:51Z</time>
      </trkpt>
      <trkpt lat="45.68785" lon="6.70211">
        <ele>2108</ele>
        <time>2022-07-16T13:35:52Z</time>
      </trkpt>
      <trkpt lat="45.68785" lon="6.70208">
        <ele>2109</ele>
        <time>2022-07-16T13:35:53Z</time>
      </trkpt>
      <trkpt lat="45.68786" lon="6.70204">
        <ele>2109</ele>
        <time>2022-07-16T13:35:54Z</time>
      </trkpt>
      <trkpt lat="45.68786" lon="6.70201">
        <ele>2109</ele>
        <time>2022-07-16T13:35:55Z</time>
      </trkpt>
      <trkpt lat="45.68786" lon="6.70198">
        <ele>2109</ele>
        <time>2022-07-16T13:35:56Z</time>
      </trkpt>
      <trkpt lat="45.68788" lon="6.70192">
        <ele>2109</ele>
        <time>2022-07-16T13:35:57Z</time>
      </trkpt>
      <trkpt lat="45.68789" lon="6.7019">
        <ele>2109</ele>
        <time>2022-07-16T13:35:59Z</time>
      </trkpt>
      <trkpt lat="45.68791" lon="6.70188">
        <ele>2108</ele>
        <time>2022-07-16T13:36:00Z</time>
      </trkpt>
      <trkpt lat="45.68792" lon="6.70185">
        <ele>2108</ele>
        <time>2022-07-16T13:36:01Z</time>
      </trkpt>
      <trkpt lat="45.68794" lon="6.70183">
        <ele>2109</ele>
        <time>2022-07-16T13:36:02Z</time>
      </trkpt>
      <trkpt lat="45.68795" lon="6.70181">
        <ele>2109</ele>
        <time>2022-07-16T13:36:03Z</time>
      </trkpt>
      <trkpt lat="45.68797" lon="6.70179">
        <ele>2109</ele>
        <time>2022-07-16T13:36:04Z</time>
      </trkpt>
      <trkpt lat="45.68799" lon="6.70177">
        <ele>2108</ele>
        <time>2022-07-16T13:36:05Z</time>
      </trkpt>
      <trkpt lat="45.688" lon="6.70175">
        <ele>2108</ele>
        <time>2022-07-16T13:36:06Z</time>
      </trkpt>
      <trkpt lat="45.68802" lon="6.70173">
        <ele>2108</ele>
        <time>2022-07-16T13:36:07Z</time>
      </trkpt>
      <trkpt lat="45.68804" lon="6.70171">
        <ele>2108</ele>
        <time>2022-07-16T13:36:08Z</time>
      </trkpt>
      <trkpt lat="45.68805" lon="6.70169">
        <ele>2108</ele>
        <time>2022-07-16T13:36:09Z</time>
      </trkpt>
      <trkpt lat="45.68807" lon="6.70167">
        <ele>2108</ele>
        <time>2022-07-16T13:36:10Z</time>
      </trkpt>
      <trkpt lat="45.68808" lon="6.70165">
        <ele>2108</ele>
        <time>2022-07-16T13:36:11Z</time>
      </trkpt>
      <trkpt lat="45.6881" lon="6.70164">
        <ele>2107</ele>
        <time>2022-07-16T13:36:12Z</time>
      </trkpt>
      <trkpt lat="45.68811" lon="6.70162">
        <ele>2107</ele>
        <time>2022-07-16T13:36:13Z</time>
      </trkpt>
      <trkpt lat="45.68813" lon="6.70161">
        <ele>2107</ele>
        <time>2022-07-16T13:36:14Z</time>
      </trkpt>
      <trkpt lat="45.68816" lon="6.7016">
        <ele>2107</ele>
        <time>2022-07-16T13:36:15Z</time>
      </trkpt>
      <trkpt lat="45.68818" lon="6.7016">
        <ele>2107</ele>
        <time>2022-07-16T13:36:16Z</time>
      </trkpt>
      <trkpt lat="45.6882" lon="6.70161">
        <ele>2108</ele>
        <time>2022-07-16T13:36:17Z</time>
      </trkpt>
      <trkpt lat="45.68822" lon="6.70161">
        <ele>2108</ele>
        <time>2022-07-16T13:36:18Z</time>
      </trkpt>
      <trkpt lat="45.68824" lon="6.70162">
        <ele>2108</ele>
        <time>2022-07-16T13:36:19Z</time>
      </trkpt>
      <trkpt lat="45.68826" lon="6.70164">
        <ele>2108</ele>
        <time>2022-07-16T13:36:20Z</time>
      </trkpt>
      <trkpt lat="45.68827" lon="6.70165">
        <ele>2108</ele>
        <time>2022-07-16T13:36:21Z</time>
      </trkpt>
      <trkpt lat="45.68829" lon="6.70167">
        <ele>2108</ele>
        <time>2022-07-16T13:36:22Z</time>
      </trkpt>
      <trkpt lat="45.68831" lon="6.70168">
        <ele>2108</ele>
        <time>2022-07-16T13:36:23Z</time>
      </trkpt>
      <trkpt lat="45.68833" lon="6.7017">
        <ele>2108</ele>
        <time>2022-07-16T13:36:24Z</time>
      </trkpt>
      <trkpt lat="45.68835" lon="6.70171">
        <ele>2108</ele>
        <time>2022-07-16T13:36:25Z</time>
      </trkpt>
      <trkpt lat="45.68836" lon="6.70172">
        <ele>2108</ele>
        <time>2022-07-16T13:36:26Z</time>
      </trkpt>
      <trkpt lat="45.68838" lon="6.70174">
        <ele>2108</ele>
        <time>2022-07-16T13:36:27Z</time>
      </trkpt>
      <trkpt lat="45.6884" lon="6.70175">
        <ele>2108</ele>
        <time>2022-07-16T13:36:28Z</time>
      </trkpt>
      <trkpt lat="45.68842" lon="6.70176">
        <ele>2108</ele>
        <time>2022-07-16T13:36:29Z</time>
      </trkpt>
      <trkpt lat="45.68844" lon="6.70176">
        <ele>2108</ele>
        <time>2022-07-16T13:36:30Z</time>
      </trkpt>
      <trkpt lat="45.68845" lon="6.70176">
        <ele>2108</ele>
        <time>2022-07-16T13:36:31Z</time>
      </trkpt>
      <trkpt lat="45.68848" lon="6.70177">
        <ele>2108</ele>
        <time>2022-07-16T13:36:32Z</time>
      </trkpt>
      <trkpt lat="45.6885" lon="6.70177">
        <ele>2107</ele>
        <time>2022-07-16T13:36:33Z</time>
      </trkpt>
      <trkpt lat="45.68852" lon="6.70177">
        <ele>2107</ele>
        <time>2022-07-16T13:36:34Z</time>
      </trkpt>
      <trkpt lat="45.68857" lon="6.70177">
        <ele>2108</ele>
        <time>2022-07-16T13:36:35Z</time>
      </trkpt>
      <trkpt lat="45.68859" lon="6.70177">
        <ele>2108</ele>
        <time>2022-07-16T13:36:37Z</time>
      </trkpt>
      <trkpt lat="45.68861" lon="6.70177">
        <ele>2108</ele>
        <time>2022-07-16T13:36:38Z</time>
      </trkpt>
      <trkpt lat="45.68863" lon="6.70176">
        <ele>2108</ele>
        <time>2022-07-16T13:36:39Z</time>
      </trkpt>
      <trkpt lat="45.68865" lon="6.70176">
        <ele>2108</ele>
        <time>2022-07-16T13:36:40Z</time>
      </trkpt>
      <trkpt lat="45.68867" lon="6.70175">
        <ele>2108</ele>
        <time>2022-07-16T13:36:41Z</time>
      </trkpt>
      <trkpt lat="45.68869" lon="6.70175">
        <ele>2108</ele>
        <time>2022-07-16T13:36:42Z</time>
      </trkpt>
      <trkpt lat="45.68872" lon="6.70175">
        <ele>2107</ele>
        <time>2022-07-16T13:36:43Z</time>
      </trkpt>
      <trkpt lat="45.68874" lon="6.70174">
        <ele>2107</ele>
        <time>2022-07-16T13:36:44Z</time>
      </trkpt>
      <trkpt lat="45.68876" lon="6.70174">
        <ele>2107</ele>
        <time>2022-07-16T13:36:45Z</time>
      </trkpt>
      <trkpt lat="45.68878" lon="6.70173">
        <ele>2107</ele>
        <time>2022-07-16T13:36:46Z</time>
      </trkpt>
      <trkpt lat="45.6888" lon="6.70173">
        <ele>2107</ele>
        <time>2022-07-16T13:36:47Z</time>
      </trkpt>
      <trkpt lat="45.68882" lon="6.70172">
        <ele>2107</ele>
        <time>2022-07-16T13:36:48Z</time>
      </trkpt>
      <trkpt lat="45.68884" lon="6.70172">
        <ele>2107</ele>
        <time>2022-07-16T13:36:49Z</time>
      </trkpt>
      <trkpt lat="45.68886" lon="6.70171">
        <ele>2107</ele>
        <time>2022-07-16T13:36:50Z</time>
      </trkpt>
      <trkpt lat="45.68888" lon="6.70171">
        <ele>2107</ele>
        <time>2022-07-16T13:36:51Z</time>
      </trkpt>
      <trkpt lat="45.68891" lon="6.7017">
        <ele>2107</ele>
        <time>2022-07-16T13:36:52Z</time>
      </trkpt>
      <trkpt lat="45.68893" lon="6.7017">
        <ele>2107</ele>
        <time>2022-07-16T13:36:53Z</time>
      </trkpt>
      <trkpt lat="45.68897" lon="6.70169">
        <ele>2107</ele>
        <time>2022-07-16T13:36:54Z</time>
      </trkpt>
      <trkpt lat="45.68899" lon="6.70168">
        <ele>2107</ele>
        <time>2022-07-16T13:36:56Z</time>
      </trkpt>
      <trkpt lat="45.68901" lon="6.70167">
        <ele>2107</ele>
        <time>2022-07-16T13:36:57Z</time>
      </trkpt>
      <trkpt lat="45.68904" lon="6.70166">
        <ele>2107</ele>
        <time>2022-07-16T13:36:58Z</time>
      </trkpt>
      <trkpt lat="45.68906" lon="6.70165">
        <ele>2107</ele>
        <time>2022-07-16T13:36:59Z</time>
      </trkpt>
      <trkpt lat="45.68909" lon="6.70164">
        <ele>2106</ele>
        <time>2022-07-16T13:37:00Z</time>
      </trkpt>
      <trkpt lat="45.68911" lon="6.70164">
        <ele>2106</ele>
        <time>2022-07-16T13:37:01Z</time>
      </trkpt>
      <trkpt lat="45.68913" lon="6.70163">
        <ele>2106</ele>
        <time>2022-07-16T13:37:02Z</time>
      </trkpt>
      <trkpt lat="45.68916" lon="6.70162">
        <ele>2106</ele>
        <time>2022-07-16T13:37:03Z</time>
      </trkpt>
      <trkpt lat="45.68918" lon="6.70162">
        <ele>2106</ele>
        <time>2022-07-16T13:37:04Z</time>
      </trkpt>
      <trkpt lat="45.68921" lon="6.70161">
        <ele>2106</ele>
        <time>2022-07-16T13:37:05Z</time>
      </trkpt>
      <trkpt lat="45.68923" lon="6.7016">
        <ele>2106</ele>
        <time>2022-07-16T13:37:06Z</time>
      </trkpt>
      <trkpt lat="45.68925" lon="6.70159">
        <ele>2106</ele>
        <time>2022-07-16T13:37:07Z</time>
      </trkpt>
      <trkpt lat="45.68927" lon="6.70159">
        <ele>2106</ele>
        <time>2022-07-16T13:37:08Z</time>
      </trkpt>
      <trkpt lat="45.68929" lon="6.70159">
        <ele>2106</ele>
        <time>2022-07-16T13:37:09Z</time>
      </trkpt>
      <trkpt lat="45.68931" lon="6.7016">
        <ele>2106</ele>
        <time>2022-07-16T13:37:10Z</time>
      </trkpt>
      <trkpt lat="45.68933" lon="6.70161">
        <ele>2106</ele>
        <time>2022-07-16T13:37:11Z</time>
      </trkpt>
      <trkpt lat="45.68935" lon="6.70161">
        <ele>2106</ele>
        <time>2022-07-16T13:37:12Z</time>
      </trkpt>
      <trkpt lat="45.68939" lon="6.70162">
        <ele>2106</ele>
        <time>2022-07-16T13:37:13Z</time>
      </trkpt>
      <trkpt lat="45.6894" lon="6.70162">
        <ele>2106</ele>
        <time>2022-07-16T13:37:14Z</time>
      </trkpt>
      <trkpt lat="45.68942" lon="6.70162">
        <ele>2106</ele>
        <time>2022-07-16T13:37:15Z</time>
      </trkpt>
      <trkpt lat="45.68945" lon="6.70163">
        <ele>2105</ele>
        <time>2022-07-16T13:37:17Z</time>
      </trkpt>
      <trkpt lat="45.68948" lon="6.70163">
        <ele>2105</ele>
        <time>2022-07-16T13:37:19Z</time>
      </trkpt>
      <trkpt lat="45.68951" lon="6.70163">
        <ele>2104</ele>
        <time>2022-07-16T13:37:21Z</time>
      </trkpt>
      <trkpt lat="45.68954" lon="6.70164">
        <ele>2104</ele>
        <time>2022-07-16T13:37:23Z</time>
      </trkpt>
      <trkpt lat="45.68957" lon="6.70165">
        <ele>2104</ele>
        <time>2022-07-16T13:37:25Z</time>
      </trkpt>
      <trkpt lat="45.6896" lon="6.70166">
        <ele>2104</ele>
        <time>2022-07-16T13:37:27Z</time>
      </trkpt>
      <trkpt lat="45.68963" lon="6.70167">
        <ele>2104</ele>
        <time>2022-07-16T13:37:29Z</time>
      </trkpt>
      <trkpt lat="45.68966" lon="6.70168">
        <ele>2104</ele>
        <time>2022-07-16T13:37:31Z</time>
      </trkpt>
      <trkpt lat="45.68968" lon="6.70167">
        <ele>2104</ele>
        <time>2022-07-16T13:37:33Z</time>
      </trkpt>
      <trkpt lat="45.68971" lon="6.70166">
        <ele>2104</ele>
        <time>2022-07-16T13:37:35Z</time>
      </trkpt>
      <trkpt lat="45.68974" lon="6.70165">
        <ele>2103</ele>
        <time>2022-07-16T13:37:37Z</time>
      </trkpt>
      <trkpt lat="45.68976" lon="6.70162">
        <ele>2103</ele>
        <time>2022-07-16T13:37:39Z</time>
      </trkpt>
      <trkpt lat="45.68978" lon="6.70159">
        <ele>2104</ele>
        <time>2022-07-16T13:37:41Z</time>
      </trkpt>
      <trkpt lat="45.68979" lon="6.70155">
        <ele>2104</ele>
        <time>2022-07-16T13:37:43Z</time>
      </trkpt>
      <trkpt lat="45.6898" lon="6.70152">
        <ele>2104</ele>
        <time>2022-07-16T13:37:45Z</time>
      </trkpt>
      <trkpt lat="45.68981" lon="6.70148">
        <ele>2104</ele>
        <time>2022-07-16T13:37:47Z</time>
      </trkpt>
      <trkpt lat="45.68982" lon="6.70144">
        <ele>2102</ele>
        <time>2022-07-16T13:37:49Z</time>
      </trkpt>
      <trkpt lat="45.68982" lon="6.70139">
        <ele>2100</ele>
        <time>2022-07-16T13:37:51Z</time>
      </trkpt>
      <trkpt lat="45.68982" lon="6.70135">
        <ele>2100</ele>
        <time>2022-07-16T13:37:53Z</time>
      </trkpt>
      <trkpt lat="45.68981" lon="6.70132">
        <ele>2099</ele>
        <time>2022-07-16T13:37:55Z</time>
      </trkpt>
      <trkpt lat="45.68981" lon="6.70127">
        <ele>2099</ele>
        <time>2022-07-16T13:37:57Z</time>
      </trkpt>
      <trkpt lat="45.68981" lon="6.70123">
        <ele>2099</ele>
        <time>2022-07-16T13:37:59Z</time>
      </trkpt>
      <trkpt lat="45.68982" lon="6.70119">
        <ele>2098</ele>
        <time>2022-07-16T13:38:01Z</time>
      </trkpt>
      <trkpt lat="45.68982" lon="6.70115">
        <ele>2098</ele>
        <time>2022-07-16T13:38:03Z</time>
      </trkpt>
      <trkpt lat="45.68982" lon="6.70111">
        <ele>2098</ele>
        <time>2022-07-16T13:38:05Z</time>
      </trkpt>
      <trkpt lat="45.68982" lon="6.70107">
        <ele>2098</ele>
        <time>2022-07-16T13:38:07Z</time>
      </trkpt>
      <trkpt lat="45.68982" lon="6.70104">
        <ele>2098</ele>
        <time>2022-07-16T13:38:09Z</time>
      </trkpt>
      <trkpt lat="45.68982" lon="6.701">
        <ele>2098</ele>
        <time>2022-07-16T13:38:11Z</time>
      </trkpt>
      <trkpt lat="45.68982" lon="6.70095">
        <ele>2098</ele>
        <time>2022-07-16T13:38:13Z</time>
      </trkpt>
      <trkpt lat="45.68982" lon="6.7009">
        <ele>2098</ele>
        <time>2022-07-16T13:38:15Z</time>
      </trkpt>
      <trkpt lat="45.68982" lon="6.70086">
        <ele>2098</ele>
        <time>2022-07-16T13:38:17Z</time>
      </trkpt>
      <trkpt lat="45.68982" lon="6.70081">
        <ele>2098</ele>
        <time>2022-07-16T13:38:19Z</time>
      </trkpt>
      <trkpt lat="45.68983" lon="6.70077">
        <ele>2098</ele>
        <time>2022-07-16T13:38:21Z</time>
      </trkpt>
      <trkpt lat="45.68983" lon="6.70072">
        <ele>2098</ele>
        <time>2022-07-16T13:38:23Z</time>
      </trkpt>
      <trkpt lat="45.68983" lon="6.70067">
        <ele>2098</ele>
        <time>2022-07-16T13:38:25Z</time>
      </trkpt>
      <trkpt lat="45.68984" lon="6.70063">
        <ele>2098</ele>
        <time>2022-07-16T13:38:27Z</time>
      </trkpt>
      <trkpt lat="45.68984" lon="6.70059">
        <ele>2098</ele>
        <time>2022-07-16T13:38:29Z</time>
      </trkpt>
      <trkpt lat="45.68982" lon="6.70055">
        <ele>2098</ele>
        <time>2022-07-16T13:38:31Z</time>
      </trkpt>
      <trkpt lat="45.68981" lon="6.7005">
        <ele>2098</ele>
        <time>2022-07-16T13:38:33Z</time>
      </trkpt>
      <trkpt lat="45.6898" lon="6.70046">
        <ele>2098</ele>
        <time>2022-07-16T13:38:35Z</time>
      </trkpt>
      <trkpt lat="45.68981" lon="6.70042">
        <ele>2098</ele>
        <time>2022-07-16T13:38:37Z</time>
      </trkpt>
      <trkpt lat="45.68982" lon="6.70038">
        <ele>2098</ele>
        <time>2022-07-16T13:38:39Z</time>
      </trkpt>
      <trkpt lat="45.68982" lon="6.70034">
        <ele>2097</ele>
        <time>2022-07-16T13:38:41Z</time>
      </trkpt>
      <trkpt lat="45.68982" lon="6.70029">
        <ele>2097</ele>
        <time>2022-07-16T13:38:43Z</time>
      </trkpt>
      <trkpt lat="45.68982" lon="6.70025">
        <ele>2096</ele>
        <time>2022-07-16T13:38:45Z</time>
      </trkpt>
      <trkpt lat="45.68981" lon="6.70021">
        <ele>2097</ele>
        <time>2022-07-16T13:38:47Z</time>
      </trkpt>
      <trkpt lat="45.68981" lon="6.70018">
        <ele>2097</ele>
        <time>2022-07-16T13:38:48Z</time>
      </trkpt>
      <trkpt lat="45.68981" lon="6.70014">
        <ele>2096</ele>
        <time>2022-07-16T13:38:51Z</time>
      </trkpt>
      <trkpt lat="45.68981" lon="6.7001">
        <ele>2097</ele>
        <time>2022-07-16T13:38:53Z</time>
      </trkpt>
      <trkpt lat="45.6898" lon="6.70006">
        <ele>2097</ele>
        <time>2022-07-16T13:38:55Z</time>
      </trkpt>
      <trkpt lat="45.6898" lon="6.70001">
        <ele>2097</ele>
        <time>2022-07-16T13:38:57Z</time>
      </trkpt>
      <trkpt lat="45.68979" lon="6.69997">
        <ele>2096</ele>
        <time>2022-07-16T13:38:59Z</time>
      </trkpt>
      <trkpt lat="45.68978" lon="6.69993">
        <ele>2097</ele>
        <time>2022-07-16T13:39:01Z</time>
      </trkpt>
      <trkpt lat="45.68978" lon="6.69989">
        <ele>2097</ele>
        <time>2022-07-16T13:39:03Z</time>
      </trkpt>
      <trkpt lat="45.68977" lon="6.69984">
        <ele>2097</ele>
        <time>2022-07-16T13:39:05Z</time>
      </trkpt>
      <trkpt lat="45.68977" lon="6.69979">
        <ele>2098</ele>
        <time>2022-07-16T13:39:07Z</time>
      </trkpt>
      <trkpt lat="45.68975" lon="6.69975">
        <ele>2098</ele>
        <time>2022-07-16T13:39:09Z</time>
      </trkpt>
      <trkpt lat="45.68974" lon="6.69972">
        <ele>2098</ele>
        <time>2022-07-16T13:39:10Z</time>
      </trkpt>
      <trkpt lat="45.68973" lon="6.69968">
        <ele>2098</ele>
        <time>2022-07-16T13:39:12Z</time>
      </trkpt>
      <trkpt lat="45.68972" lon="6.69964">
        <ele>2098</ele>
        <time>2022-07-16T13:39:14Z</time>
      </trkpt>
      <trkpt lat="45.68971" lon="6.69959">
        <ele>2097</ele>
        <time>2022-07-16T13:39:16Z</time>
      </trkpt>
      <trkpt lat="45.68971" lon="6.69955">
        <ele>2097</ele>
        <time>2022-07-16T13:39:18Z</time>
      </trkpt>
      <trkpt lat="45.68971" lon="6.69951">
        <ele>2097</ele>
        <time>2022-07-16T13:39:20Z</time>
      </trkpt>
      <trkpt lat="45.68971" lon="6.69946">
        <ele>2097</ele>
        <time>2022-07-16T13:39:22Z</time>
      </trkpt>
      <trkpt lat="45.68971" lon="6.69942">
        <ele>2097</ele>
        <time>2022-07-16T13:39:23Z</time>
      </trkpt>
      <trkpt lat="45.68971" lon="6.69938">
        <ele>2098</ele>
        <time>2022-07-16T13:39:26Z</time>
      </trkpt>
      <trkpt lat="45.68971" lon="6.69934">
        <ele>2098</ele>
        <time>2022-07-16T13:39:28Z</time>
      </trkpt>
      <trkpt lat="45.6897" lon="6.69929">
        <ele>2097</ele>
        <time>2022-07-16T13:39:30Z</time>
      </trkpt>
      <trkpt lat="45.6897" lon="6.69925">
        <ele>2097</ele>
        <time>2022-07-16T13:39:32Z</time>
      </trkpt>
      <trkpt lat="45.6897" lon="6.6992">
        <ele>2097</ele>
        <time>2022-07-16T13:39:34Z</time>
      </trkpt>
      <trkpt lat="45.6897" lon="6.69916">
        <ele>2097</ele>
        <time>2022-07-16T13:39:36Z</time>
      </trkpt>
      <trkpt lat="45.68969" lon="6.69911">
        <ele>2097</ele>
        <time>2022-07-16T13:39:38Z</time>
      </trkpt>
      <trkpt lat="45.68968" lon="6.69907">
        <ele>2097</ele>
        <time>2022-07-16T13:39:40Z</time>
      </trkpt>
      <trkpt lat="45.68967" lon="6.69903">
        <ele>2097</ele>
        <time>2022-07-16T13:39:42Z</time>
      </trkpt>
      <trkpt lat="45.68967" lon="6.69899">
        <ele>2097</ele>
        <time>2022-07-16T13:39:44Z</time>
      </trkpt>
      <trkpt lat="45.68966" lon="6.69895">
        <ele>2097</ele>
        <time>2022-07-16T13:39:46Z</time>
      </trkpt>
      <trkpt lat="45.68966" lon="6.69891">
        <ele>2097</ele>
        <time>2022-07-16T13:39:48Z</time>
      </trkpt>
      <trkpt lat="45.68966" lon="6.69887">
        <ele>2096</ele>
        <time>2022-07-16T13:39:50Z</time>
      </trkpt>
      <trkpt lat="45.68965" lon="6.69883">
        <ele>2097</ele>
        <time>2022-07-16T13:39:52Z</time>
      </trkpt>
      <trkpt lat="45.68965" lon="6.69879">
        <ele>2097</ele>
        <time>2022-07-16T13:39:54Z</time>
      </trkpt>
      <trkpt lat="45.68965" lon="6.69874">
        <ele>2097</ele>
        <time>2022-07-16T13:39:56Z</time>
      </trkpt>
      <trkpt lat="45.68965" lon="6.6987">
        <ele>2097</ele>
        <time>2022-07-16T13:39:58Z</time>
      </trkpt>
      <trkpt lat="45.68965" lon="6.69865">
        <ele>2097</ele>
        <time>2022-07-16T13:40:00Z</time>
      </trkpt>
      <trkpt lat="45.68965" lon="6.69861">
        <ele>2097</ele>
        <time>2022-07-16T13:40:02Z</time>
      </trkpt>
      <trkpt lat="45.68965" lon="6.69856">
        <ele>2097</ele>
        <time>2022-07-16T13:40:04Z</time>
      </trkpt>
      <trkpt lat="45.68965" lon="6.69852">
        <ele>2097</ele>
        <time>2022-07-16T13:40:06Z</time>
      </trkpt>
      <trkpt lat="45.68966" lon="6.69848">
        <ele>2097</ele>
        <time>2022-07-16T13:40:08Z</time>
      </trkpt>
      <trkpt lat="45.68967" lon="6.69844">
        <ele>2097</ele>
        <time>2022-07-16T13:40:10Z</time>
      </trkpt>
      <trkpt lat="45.68968" lon="6.6984">
        <ele>2097</ele>
        <time>2022-07-16T13:40:12Z</time>
      </trkpt>
      <trkpt lat="45.68968" lon="6.69835">
        <ele>2097</ele>
        <time>2022-07-16T13:40:14Z</time>
      </trkpt>
      <trkpt lat="45.68969" lon="6.69831">
        <ele>2097</ele>
        <time>2022-07-16T13:40:16Z</time>
      </trkpt>
      <trkpt lat="45.6897" lon="6.69826">
        <ele>2097</ele>
        <time>2022-07-16T13:40:18Z</time>
      </trkpt>
      <trkpt lat="45.6897" lon="6.69822">
        <ele>2097</ele>
        <time>2022-07-16T13:40:20Z</time>
      </trkpt>
      <trkpt lat="45.68971" lon="6.69818">
        <ele>2097</ele>
        <time>2022-07-16T13:40:22Z</time>
      </trkpt>
      <trkpt lat="45.68973" lon="6.69814">
        <ele>2097</ele>
        <time>2022-07-16T13:40:23Z</time>
      </trkpt>
      <trkpt lat="45.68974" lon="6.6981">
        <ele>2097</ele>
        <time>2022-07-16T13:40:26Z</time>
      </trkpt>
      <trkpt lat="45.68974" lon="6.69805">
        <ele>2097</ele>
        <time>2022-07-16T13:40:28Z</time>
      </trkpt>
      <trkpt lat="45.68975" lon="6.69801">
        <ele>2097</ele>
        <time>2022-07-16T13:40:30Z</time>
      </trkpt>
      <trkpt lat="45.68976" lon="6.69797">
        <ele>2097</ele>
        <time>2022-07-16T13:40:32Z</time>
      </trkpt>
      <trkpt lat="45.68977" lon="6.69792">
        <ele>2097</ele>
        <time>2022-07-16T13:40:34Z</time>
      </trkpt>
      <trkpt lat="45.68978" lon="6.69788">
        <ele>2097</ele>
        <time>2022-07-16T13:40:36Z</time>
      </trkpt>
      <trkpt lat="45.68978" lon="6.69783">
        <ele>2097</ele>
        <time>2022-07-16T13:40:38Z</time>
      </trkpt>
      <trkpt lat="45.68979" lon="6.69779">
        <ele>2097</ele>
        <time>2022-07-16T13:40:40Z</time>
      </trkpt>
      <trkpt lat="45.6898" lon="6.69775">
        <ele>2097</ele>
        <time>2022-07-16T13:40:42Z</time>
      </trkpt>
      <trkpt lat="45.68982" lon="6.69771">
        <ele>2097</ele>
        <time>2022-07-16T13:40:44Z</time>
      </trkpt>
      <trkpt lat="45.68983" lon="6.69767">
        <ele>2097</ele>
        <time>2022-07-16T13:40:46Z</time>
      </trkpt>
      <trkpt lat="45.68984" lon="6.69763">
        <ele>2097</ele>
        <time>2022-07-16T13:40:48Z</time>
      </trkpt>
      <trkpt lat="45.68986" lon="6.69759">
        <ele>2097</ele>
        <time>2022-07-16T13:40:50Z</time>
      </trkpt>
      <trkpt lat="45.68987" lon="6.69755">
        <ele>2097</ele>
        <time>2022-07-16T13:40:52Z</time>
      </trkpt>
      <trkpt lat="45.68988" lon="6.69751">
        <ele>2097</ele>
        <time>2022-07-16T13:40:54Z</time>
      </trkpt>
      <trkpt lat="45.6899" lon="6.69747">
        <ele>2097</ele>
        <time>2022-07-16T13:40:56Z</time>
      </trkpt>
      <trkpt lat="45.6899" lon="6.69743">
        <ele>2097</ele>
        <time>2022-07-16T13:40:58Z</time>
      </trkpt>
      <trkpt lat="45.68992" lon="6.69739">
        <ele>2097</ele>
        <time>2022-07-16T13:41:00Z</time>
      </trkpt>
      <trkpt lat="45.68994" lon="6.69735">
        <ele>2097</ele>
        <time>2022-07-16T13:41:02Z</time>
      </trkpt>
      <trkpt lat="45.68995" lon="6.69731">
        <ele>2097</ele>
        <time>2022-07-16T13:41:04Z</time>
      </trkpt>
      <trkpt lat="45.68997" lon="6.69727">
        <ele>2097</ele>
        <time>2022-07-16T13:41:06Z</time>
      </trkpt>
      <trkpt lat="45.68999" lon="6.69724">
        <ele>2097</ele>
        <time>2022-07-16T13:41:08Z</time>
      </trkpt>
      <trkpt lat="45.69001" lon="6.6972">
        <ele>2097</ele>
        <time>2022-07-16T13:41:10Z</time>
      </trkpt>
      <trkpt lat="45.69003" lon="6.69717">
        <ele>2097</ele>
        <time>2022-07-16T13:41:12Z</time>
      </trkpt>
      <trkpt lat="45.69004" lon="6.69713">
        <ele>2097</ele>
        <time>2022-07-16T13:41:14Z</time>
      </trkpt>
      <trkpt lat="45.69004" lon="6.69709">
        <ele>2097</ele>
        <time>2022-07-16T13:41:15Z</time>
      </trkpt>
      <trkpt lat="45.69005" lon="6.69705">
        <ele>2097</ele>
        <time>2022-07-16T13:41:18Z</time>
      </trkpt>
      <trkpt lat="45.69006" lon="6.697">
        <ele>2097</ele>
        <time>2022-07-16T13:41:20Z</time>
      </trkpt>
      <trkpt lat="45.69006" lon="6.69696">
        <ele>2097</ele>
        <time>2022-07-16T13:41:22Z</time>
      </trkpt>
      <trkpt lat="45.69006" lon="6.69691">
        <ele>2097</ele>
        <time>2022-07-16T13:41:24Z</time>
      </trkpt>
      <trkpt lat="45.69006" lon="6.69686">
        <ele>2097</ele>
        <time>2022-07-16T13:41:26Z</time>
      </trkpt>
      <trkpt lat="45.69006" lon="6.69683">
        <ele>2097</ele>
        <time>2022-07-16T13:41:27Z</time>
      </trkpt>
      <trkpt lat="45.69005" lon="6.69678">
        <ele>2097</ele>
        <time>2022-07-16T13:41:29Z</time>
      </trkpt>
      <trkpt lat="45.69006" lon="6.69673">
        <ele>2097</ele>
        <time>2022-07-16T13:41:31Z</time>
      </trkpt>
      <trkpt lat="45.69006" lon="6.69669">
        <ele>2097</ele>
        <time>2022-07-16T13:41:33Z</time>
      </trkpt>
      <trkpt lat="45.69007" lon="6.69665">
        <ele>2097</ele>
        <time>2022-07-16T13:41:35Z</time>
      </trkpt>
      <trkpt lat="45.69008" lon="6.6966">
        <ele>2097</ele>
        <time>2022-07-16T13:41:37Z</time>
      </trkpt>
      <trkpt lat="45.69009" lon="6.69656">
        <ele>2098</ele>
        <time>2022-07-16T13:41:39Z</time>
      </trkpt>
      <trkpt lat="45.69009" lon="6.69651">
        <ele>2098</ele>
        <time>2022-07-16T13:41:41Z</time>
      </trkpt>
      <trkpt lat="45.6901" lon="6.69647">
        <ele>2098</ele>
        <time>2022-07-16T13:41:43Z</time>
      </trkpt>
      <trkpt lat="45.69011" lon="6.69643">
        <ele>2098</ele>
        <time>2022-07-16T13:41:45Z</time>
      </trkpt>
      <trkpt lat="45.69012" lon="6.69639">
        <ele>2098</ele>
        <time>2022-07-16T13:41:47Z</time>
      </trkpt>
      <trkpt lat="45.69013" lon="6.69634">
        <ele>2098</ele>
        <time>2022-07-16T13:41:49Z</time>
      </trkpt>
      <trkpt lat="45.69014" lon="6.6963">
        <ele>2098</ele>
        <time>2022-07-16T13:41:51Z</time>
      </trkpt>
      <trkpt lat="45.69015" lon="6.69626">
        <ele>2098</ele>
        <time>2022-07-16T13:41:53Z</time>
      </trkpt>
      <trkpt lat="45.69016" lon="6.69622">
        <ele>2098</ele>
        <time>2022-07-16T13:41:55Z</time>
      </trkpt>
      <trkpt lat="45.69017" lon="6.69618">
        <ele>2098</ele>
        <time>2022-07-16T13:41:57Z</time>
      </trkpt>
      <trkpt lat="45.69018" lon="6.69613">
        <ele>2098</ele>
        <time>2022-07-16T13:41:59Z</time>
      </trkpt>
      <trkpt lat="45.69019" lon="6.69609">
        <ele>2097</ele>
        <time>2022-07-16T13:42:01Z</time>
      </trkpt>
      <trkpt lat="45.6902" lon="6.69605">
        <ele>2097</ele>
        <time>2022-07-16T13:42:03Z</time>
      </trkpt>
      <trkpt lat="45.69021" lon="6.696">
        <ele>2098</ele>
        <time>2022-07-16T13:42:05Z</time>
      </trkpt>
      <trkpt lat="45.69022" lon="6.69596">
        <ele>2098</ele>
        <time>2022-07-16T13:42:07Z</time>
      </trkpt>
      <trkpt lat="45.69022" lon="6.69591">
        <ele>2098</ele>
        <time>2022-07-16T13:42:09Z</time>
      </trkpt>
      <trkpt lat="45.69023" lon="6.69587">
        <ele>2098</ele>
        <time>2022-07-16T13:42:11Z</time>
      </trkpt>
      <trkpt lat="45.69023" lon="6.69583">
        <ele>2098</ele>
        <time>2022-07-16T13:42:13Z</time>
      </trkpt>
      <trkpt lat="45.69024" lon="6.69578">
        <ele>2098</ele>
        <time>2022-07-16T13:42:15Z</time>
      </trkpt>
      <trkpt lat="45.69023" lon="6.69574">
        <ele>2098</ele>
        <time>2022-07-16T13:42:17Z</time>
      </trkpt>
      <trkpt lat="45.69023" lon="6.6957">
        <ele>2098</ele>
        <time>2022-07-16T13:42:19Z</time>
      </trkpt>
      <trkpt lat="45.69023" lon="6.69566">
        <ele>2099</ele>
        <time>2022-07-16T13:42:21Z</time>
      </trkpt>
      <trkpt lat="45.69023" lon="6.69562">
        <ele>2099</ele>
        <time>2022-07-16T13:42:23Z</time>
      </trkpt>
      <trkpt lat="45.69023" lon="6.69557">
        <ele>2099</ele>
        <time>2022-07-16T13:42:25Z</time>
      </trkpt>
      <trkpt lat="45.69023" lon="6.69553">
        <ele>2099</ele>
        <time>2022-07-16T13:42:27Z</time>
      </trkpt>
      <trkpt lat="45.69022" lon="6.69549">
        <ele>2098</ele>
        <time>2022-07-16T13:42:29Z</time>
      </trkpt>
      <trkpt lat="45.69022" lon="6.69544">
        <ele>2098</ele>
        <time>2022-07-16T13:42:31Z</time>
      </trkpt>
      <trkpt lat="45.69022" lon="6.69539">
        <ele>2097</ele>
        <time>2022-07-16T13:42:33Z</time>
      </trkpt>
      <trkpt lat="45.69022" lon="6.69535">
        <ele>2098</ele>
        <time>2022-07-16T13:42:35Z</time>
      </trkpt>
      <trkpt lat="45.69021" lon="6.6953">
        <ele>2098</ele>
        <time>2022-07-16T13:42:37Z</time>
      </trkpt>
      <trkpt lat="45.6902" lon="6.69526">
        <ele>2098</ele>
        <time>2022-07-16T13:42:39Z</time>
      </trkpt>
      <trkpt lat="45.6902" lon="6.69522">
        <ele>2098</ele>
        <time>2022-07-16T13:42:41Z</time>
      </trkpt>
      <trkpt lat="45.6902" lon="6.69517">
        <ele>2098</ele>
        <time>2022-07-16T13:42:43Z</time>
      </trkpt>
      <trkpt lat="45.69019" lon="6.69513">
        <ele>2098</ele>
        <time>2022-07-16T13:42:45Z</time>
      </trkpt>
      <trkpt lat="45.69019" lon="6.69508">
        <ele>2098</ele>
        <time>2022-07-16T13:42:47Z</time>
      </trkpt>
      <trkpt lat="45.69019" lon="6.69504">
        <ele>2098</ele>
        <time>2022-07-16T13:42:49Z</time>
      </trkpt>
      <trkpt lat="45.69019" lon="6.695">
        <ele>2098</ele>
        <time>2022-07-16T13:42:51Z</time>
      </trkpt>
      <trkpt lat="45.69019" lon="6.69496">
        <ele>2097</ele>
        <time>2022-07-16T13:42:53Z</time>
      </trkpt>
      <trkpt lat="45.69018" lon="6.69491">
        <ele>2097</ele>
        <time>2022-07-16T13:42:55Z</time>
      </trkpt>
      <trkpt lat="45.69018" lon="6.69487">
        <ele>2098</ele>
        <time>2022-07-16T13:42:57Z</time>
      </trkpt>
      <trkpt lat="45.69018" lon="6.69482">
        <ele>2098</ele>
        <time>2022-07-16T13:42:59Z</time>
      </trkpt>
      <trkpt lat="45.69017" lon="6.69478">
        <ele>2098</ele>
        <time>2022-07-16T13:43:01Z</time>
      </trkpt>
      <trkpt lat="45.69017" lon="6.69474">
        <ele>2098</ele>
        <time>2022-07-16T13:43:03Z</time>
      </trkpt>
      <trkpt lat="45.69017" lon="6.6947">
        <ele>2098</ele>
        <time>2022-07-16T13:43:05Z</time>
      </trkpt>
      <trkpt lat="45.69017" lon="6.69465">
        <ele>2098</ele>
        <time>2022-07-16T13:43:07Z</time>
      </trkpt>
      <trkpt lat="45.69017" lon="6.69461">
        <ele>2098</ele>
        <time>2022-07-16T13:43:09Z</time>
      </trkpt>
      <trkpt lat="45.69016" lon="6.69457">
        <ele>2098</ele>
        <time>2022-07-16T13:43:11Z</time>
      </trkpt>
      <trkpt lat="45.69016" lon="6.69452">
        <ele>2098</ele>
        <time>2022-07-16T13:43:13Z</time>
      </trkpt>
      <trkpt lat="45.69015" lon="6.69448">
        <ele>2098</ele>
        <time>2022-07-16T13:43:15Z</time>
      </trkpt>
      <trkpt lat="45.69015" lon="6.69444">
        <ele>2098</ele>
        <time>2022-07-16T13:43:17Z</time>
      </trkpt>
      <trkpt lat="45.69015" lon="6.69439">
        <ele>2098</ele>
        <time>2022-07-16T13:43:19Z</time>
      </trkpt>
      <trkpt lat="45.69015" lon="6.69435">
        <ele>2098</ele>
        <time>2022-07-16T13:43:21Z</time>
      </trkpt>
      <trkpt lat="45.69014" lon="6.69431">
        <ele>2099</ele>
        <time>2022-07-16T13:43:23Z</time>
      </trkpt>
      <trkpt lat="45.69013" lon="6.69427">
        <ele>2099</ele>
        <time>2022-07-16T13:43:25Z</time>
      </trkpt>
      <trkpt lat="45.69012" lon="6.69423">
        <ele>2099</ele>
        <time>2022-07-16T13:43:27Z</time>
      </trkpt>
      <trkpt lat="45.69011" lon="6.69419">
        <ele>2099</ele>
        <time>2022-07-16T13:43:29Z</time>
      </trkpt>
      <trkpt lat="45.6901" lon="6.69416">
        <ele>2099</ele>
        <time>2022-07-16T13:43:31Z</time>
      </trkpt>
      <trkpt lat="45.69008" lon="6.69412">
        <ele>2099</ele>
        <time>2022-07-16T13:43:33Z</time>
      </trkpt>
      <trkpt lat="45.69006" lon="6.69409">
        <ele>2099</ele>
        <time>2022-07-16T13:43:35Z</time>
      </trkpt>
      <trkpt lat="45.69004" lon="6.69406">
        <ele>2099</ele>
        <time>2022-07-16T13:43:37Z</time>
      </trkpt>
      <trkpt lat="45.69002" lon="6.69403">
        <ele>2099</ele>
        <time>2022-07-16T13:43:39Z</time>
      </trkpt>
      <trkpt lat="45.69" lon="6.694">
        <ele>2099</ele>
        <time>2022-07-16T13:43:41Z</time>
      </trkpt>
      <trkpt lat="45.68998" lon="6.69397">
        <ele>2099</ele>
        <time>2022-07-16T13:43:43Z</time>
      </trkpt>
      <trkpt lat="45.68996" lon="6.69394">
        <ele>2099</ele>
        <time>2022-07-16T13:43:45Z</time>
      </trkpt>
      <trkpt lat="45.68994" lon="6.6939">
        <ele>2099</ele>
        <time>2022-07-16T13:43:47Z</time>
      </trkpt>
      <trkpt lat="45.68993" lon="6.69387">
        <ele>2099</ele>
        <time>2022-07-16T13:43:49Z</time>
      </trkpt>
      <trkpt lat="45.68991" lon="6.69383">
        <ele>2100</ele>
        <time>2022-07-16T13:43:51Z</time>
      </trkpt>
      <trkpt lat="45.68989" lon="6.69379">
        <ele>2100</ele>
        <time>2022-07-16T13:43:53Z</time>
      </trkpt>
      <trkpt lat="45.68988" lon="6.69375">
        <ele>2099</ele>
        <time>2022-07-16T13:43:55Z</time>
      </trkpt>
      <trkpt lat="45.68987" lon="6.69372">
        <ele>2098</ele>
        <time>2022-07-16T13:43:56Z</time>
      </trkpt>
      <trkpt lat="45.68987" lon="6.69368">
        <ele>2098</ele>
        <time>2022-07-16T13:43:58Z</time>
      </trkpt>
      <trkpt lat="45.68986" lon="6.69363">
        <ele>2098</ele>
        <time>2022-07-16T13:44:00Z</time>
      </trkpt>
      <trkpt lat="45.68986" lon="6.69359">
        <ele>2098</ele>
        <time>2022-07-16T13:44:02Z</time>
      </trkpt>
      <trkpt lat="45.68986" lon="6.69354">
        <ele>2098</ele>
        <time>2022-07-16T13:44:04Z</time>
      </trkpt>
      <trkpt lat="45.68987" lon="6.6935">
        <ele>2098</ele>
        <time>2022-07-16T13:44:06Z</time>
      </trkpt>
      <trkpt lat="45.68987" lon="6.69345">
        <ele>2098</ele>
        <time>2022-07-16T13:44:08Z</time>
      </trkpt>
      <trkpt lat="45.68988" lon="6.69341">
        <ele>2098</ele>
        <time>2022-07-16T13:44:10Z</time>
      </trkpt>
      <trkpt lat="45.6899" lon="6.69338">
        <ele>2098</ele>
        <time>2022-07-16T13:44:12Z</time>
      </trkpt>
      <trkpt lat="45.68992" lon="6.69334">
        <ele>2098</ele>
        <time>2022-07-16T13:44:14Z</time>
      </trkpt>
      <trkpt lat="45.68992" lon="6.6933">
        <ele>2098</ele>
        <time>2022-07-16T13:44:16Z</time>
      </trkpt>
      <trkpt lat="45.68993" lon="6.69326">
        <ele>2098</ele>
        <time>2022-07-16T13:44:18Z</time>
      </trkpt>
      <trkpt lat="45.68994" lon="6.69323">
        <ele>2098</ele>
        <time>2022-07-16T13:44:20Z</time>
      </trkpt>
      <trkpt lat="45.68996" lon="6.69319">
        <ele>2098</ele>
        <time>2022-07-16T13:44:22Z</time>
      </trkpt>
      <trkpt lat="45.68997" lon="6.69315">
        <ele>2098</ele>
        <time>2022-07-16T13:44:24Z</time>
      </trkpt>
      <trkpt lat="45.68998" lon="6.69311">
        <ele>2098</ele>
        <time>2022-07-16T13:44:26Z</time>
      </trkpt>
      <trkpt lat="45.68999" lon="6.69308">
        <ele>2099</ele>
        <time>2022-07-16T13:44:28Z</time>
      </trkpt>
      <trkpt lat="45.69" lon="6.69304">
        <ele>2099</ele>
        <time>2022-07-16T13:44:30Z</time>
      </trkpt>
      <trkpt lat="45.69001" lon="6.69301">
        <ele>2099</ele>
        <time>2022-07-16T13:44:32Z</time>
      </trkpt>
      <trkpt lat="45.69002" lon="6.69297">
        <ele>2100</ele>
        <time>2022-07-16T13:44:34Z</time>
      </trkpt>
      <trkpt lat="45.69004" lon="6.69293">
        <ele>2101</ele>
        <time>2022-07-16T13:44:36Z</time>
      </trkpt>
      <trkpt lat="45.69005" lon="6.6929">
        <ele>2101</ele>
        <time>2022-07-16T13:44:38Z</time>
      </trkpt>
      <trkpt lat="45.69006" lon="6.69287">
        <ele>2102</ele>
        <time>2022-07-16T13:44:40Z</time>
      </trkpt>
      <trkpt lat="45.69007" lon="6.69283">
        <ele>2102</ele>
        <time>2022-07-16T13:44:42Z</time>
      </trkpt>
      <trkpt lat="45.69009" lon="6.6928">
        <ele>2102</ele>
        <time>2022-07-16T13:44:44Z</time>
      </trkpt>
      <trkpt lat="45.6901" lon="6.69276">
        <ele>2102</ele>
        <time>2022-07-16T13:44:46Z</time>
      </trkpt>
      <trkpt lat="45.69012" lon="6.69272">
        <ele>2102</ele>
        <time>2022-07-16T13:44:48Z</time>
      </trkpt>
      <trkpt lat="45.69013" lon="6.69269">
        <ele>2103</ele>
        <time>2022-07-16T13:44:50Z</time>
      </trkpt>
      <trkpt lat="45.69015" lon="6.69266">
        <ele>2103</ele>
        <time>2022-07-16T13:44:52Z</time>
      </trkpt>
      <trkpt lat="45.69016" lon="6.69262">
        <ele>2103</ele>
        <time>2022-07-16T13:44:54Z</time>
      </trkpt>
      <trkpt lat="45.69017" lon="6.69259">
        <ele>2103</ele>
        <time>2022-07-16T13:44:56Z</time>
      </trkpt>
      <trkpt lat="45.69019" lon="6.69256">
        <ele>2103</ele>
        <time>2022-07-16T13:44:58Z</time>
      </trkpt>
      <trkpt lat="45.69021" lon="6.69253">
        <ele>2103</ele>
        <time>2022-07-16T13:45:00Z</time>
      </trkpt>
      <trkpt lat="45.69023" lon="6.6925">
        <ele>2103</ele>
        <time>2022-07-16T13:45:02Z</time>
      </trkpt>
      <trkpt lat="45.69024" lon="6.69247">
        <ele>2103</ele>
        <time>2022-07-16T13:45:04Z</time>
      </trkpt>
      <trkpt lat="45.69026" lon="6.69244">
        <ele>2104</ele>
        <time>2022-07-16T13:45:06Z</time>
      </trkpt>
      <trkpt lat="45.69027" lon="6.6924">
        <ele>2103</ele>
        <time>2022-07-16T13:45:08Z</time>
      </trkpt>
      <trkpt lat="45.69028" lon="6.69236">
        <ele>2103</ele>
        <time>2022-07-16T13:45:10Z</time>
      </trkpt>
      <trkpt lat="45.69029" lon="6.69233">
        <ele>2103</ele>
        <time>2022-07-16T13:45:12Z</time>
      </trkpt>
      <trkpt lat="45.69029" lon="6.69229">
        <ele>2104</ele>
        <time>2022-07-16T13:45:14Z</time>
      </trkpt>
      <trkpt lat="45.69029" lon="6.69224">
        <ele>2104</ele>
        <time>2022-07-16T13:45:16Z</time>
      </trkpt>
      <trkpt lat="45.69029" lon="6.6922">
        <ele>2104</ele>
        <time>2022-07-16T13:45:18Z</time>
      </trkpt>
      <trkpt lat="45.69029" lon="6.69217">
        <ele>2105</ele>
        <time>2022-07-16T13:45:20Z</time>
      </trkpt>
      <trkpt lat="45.69028" lon="6.69213">
        <ele>2105</ele>
        <time>2022-07-16T13:45:22Z</time>
      </trkpt>
      <trkpt lat="45.69027" lon="6.69209">
        <ele>2105</ele>
        <time>2022-07-16T13:45:24Z</time>
      </trkpt>
      <trkpt lat="45.69026" lon="6.69206">
        <ele>2105</ele>
        <time>2022-07-16T13:45:26Z</time>
      </trkpt>
      <trkpt lat="45.69025" lon="6.69202">
        <ele>2105</ele>
        <time>2022-07-16T13:45:28Z</time>
      </trkpt>
      <trkpt lat="45.69023" lon="6.69199">
        <ele>2105</ele>
        <time>2022-07-16T13:45:30Z</time>
      </trkpt>
      <trkpt lat="45.69022" lon="6.69195">
        <ele>2106</ele>
        <time>2022-07-16T13:45:32Z</time>
      </trkpt>
      <trkpt lat="45.69022" lon="6.69191">
        <ele>2106</ele>
        <time>2022-07-16T13:45:34Z</time>
      </trkpt>
      <trkpt lat="45.69022" lon="6.69188">
        <ele>2105</ele>
        <time>2022-07-16T13:45:36Z</time>
      </trkpt>
      <trkpt lat="45.69021" lon="6.69183">
        <ele>2105</ele>
        <time>2022-07-16T13:45:38Z</time>
      </trkpt>
      <trkpt lat="45.6902" lon="6.6918">
        <ele>2105</ele>
        <time>2022-07-16T13:45:39Z</time>
      </trkpt>
      <trkpt lat="45.6902" lon="6.69178">
        <ele>2105</ele>
        <time>2022-07-16T13:45:40Z</time>
      </trkpt>
      <trkpt lat="45.69019" lon="6.69175">
        <ele>2106</ele>
        <time>2022-07-16T13:45:41Z</time>
      </trkpt>
      <trkpt lat="45.69019" lon="6.69172">
        <ele>2106</ele>
        <time>2022-07-16T13:45:42Z</time>
      </trkpt>
      <trkpt lat="45.69019" lon="6.69169">
        <ele>2106</ele>
        <time>2022-07-16T13:45:43Z</time>
      </trkpt>
      <trkpt lat="45.69019" lon="6.69166">
        <ele>2106</ele>
        <time>2022-07-16T13:45:44Z</time>
      </trkpt>
      <trkpt lat="45.69019" lon="6.69163">
        <ele>2106</ele>
        <time>2022-07-16T13:45:45Z</time>
      </trkpt>
      <trkpt lat="45.6902" lon="6.69157">
        <ele>2105</ele>
        <time>2022-07-16T13:45:46Z</time>
      </trkpt>
      <trkpt lat="45.6902" lon="6.69157">
        <ele>2104</ele>
        <time>2022-07-16T13:46:02Z</time>
      </trkpt>
      <trkpt lat="45.69022" lon="6.69155">
        <ele>2104</ele>
        <time>2022-07-16T13:46:07Z</time>
      </trkpt>
      <trkpt lat="45.69022" lon="6.69152">
        <ele>2104</ele>
        <time>2022-07-16T13:46:10Z</time>
      </trkpt>
      <trkpt lat="45.69023" lon="6.69148">
        <ele>2103</ele>
        <time>2022-07-16T13:46:12Z</time>
      </trkpt>
      <trkpt lat="45.69024" lon="6.69145">
        <ele>2103</ele>
        <time>2022-07-16T13:46:14Z</time>
      </trkpt>
      <trkpt lat="45.69025" lon="6.69142">
        <ele>2103</ele>
        <time>2022-07-16T13:46:16Z</time>
      </trkpt>
      <trkpt lat="45.69026" lon="6.69139">
        <ele>2103</ele>
        <time>2022-07-16T13:46:18Z</time>
      </trkpt>
      <trkpt lat="45.69028" lon="6.69136">
        <ele>2103</ele>
        <time>2022-07-16T13:46:20Z</time>
      </trkpt>
      <trkpt lat="45.69029" lon="6.69133">
        <ele>2103</ele>
        <time>2022-07-16T13:46:22Z</time>
      </trkpt>
      <trkpt lat="45.69029" lon="6.69129">
        <ele>2102</ele>
        <time>2022-07-16T13:46:24Z</time>
      </trkpt>
      <trkpt lat="45.6903" lon="6.69125">
        <ele>2101</ele>
        <time>2022-07-16T13:46:26Z</time>
      </trkpt>
      <trkpt lat="45.69031" lon="6.69121">
        <ele>2100</ele>
        <time>2022-07-16T13:46:28Z</time>
      </trkpt>
      <trkpt lat="45.69032" lon="6.69117">
        <ele>2100</ele>
        <time>2022-07-16T13:46:30Z</time>
      </trkpt>
      <trkpt lat="45.69033" lon="6.69113">
        <ele>2100</ele>
        <time>2022-07-16T13:46:32Z</time>
      </trkpt>
      <trkpt lat="45.69034" lon="6.69109">
        <ele>2100</ele>
        <time>2022-07-16T13:46:34Z</time>
      </trkpt>
      <trkpt lat="45.69035" lon="6.69106">
        <ele>2100</ele>
        <time>2022-07-16T13:46:36Z</time>
      </trkpt>
      <trkpt lat="45.69036" lon="6.69102">
        <ele>2100</ele>
        <time>2022-07-16T13:46:38Z</time>
      </trkpt>
      <trkpt lat="45.69037" lon="6.69099">
        <ele>2100</ele>
        <time>2022-07-16T13:46:40Z</time>
      </trkpt>
      <trkpt lat="45.69038" lon="6.69095">
        <ele>2099</ele>
        <time>2022-07-16T13:46:42Z</time>
      </trkpt>
      <trkpt lat="45.69039" lon="6.69092">
        <ele>2099</ele>
        <time>2022-07-16T13:46:44Z</time>
      </trkpt>
      <trkpt lat="45.69041" lon="6.69088">
        <ele>2098</ele>
        <time>2022-07-16T13:46:46Z</time>
      </trkpt>
      <trkpt lat="45.69042" lon="6.69085">
        <ele>2098</ele>
        <time>2022-07-16T13:46:48Z</time>
      </trkpt>
      <trkpt lat="45.69043" lon="6.69081">
        <ele>2097</ele>
        <time>2022-07-16T13:46:50Z</time>
      </trkpt>
      <trkpt lat="45.69043" lon="6.69077">
        <ele>2097</ele>
        <time>2022-07-16T13:46:52Z</time>
      </trkpt>
      <trkpt lat="45.69044" lon="6.69074">
        <ele>2097</ele>
        <time>2022-07-16T13:46:54Z</time>
      </trkpt>
      <trkpt lat="45.69045" lon="6.6907">
        <ele>2097</ele>
        <time>2022-07-16T13:46:55Z</time>
      </trkpt>
      <trkpt lat="45.69046" lon="6.69067">
        <ele>2097</ele>
        <time>2022-07-16T13:46:58Z</time>
      </trkpt>
      <trkpt lat="45.69046" lon="6.69064">
        <ele>2096</ele>
        <time>2022-07-16T13:47:00Z</time>
      </trkpt>
      <trkpt lat="45.69047" lon="6.6906">
        <ele>2096</ele>
        <time>2022-07-16T13:47:02Z</time>
      </trkpt>
      <trkpt lat="45.69048" lon="6.69056">
        <ele>2096</ele>
        <time>2022-07-16T13:47:04Z</time>
      </trkpt>
      <trkpt lat="45.69048" lon="6.69053">
        <ele>2095</ele>
        <time>2022-07-16T13:47:06Z</time>
      </trkpt>
      <trkpt lat="45.69049" lon="6.6905">
        <ele>2095</ele>
        <time>2022-07-16T13:47:08Z</time>
      </trkpt>
      <trkpt lat="45.69051" lon="6.69047">
        <ele>2095</ele>
        <time>2022-07-16T13:47:10Z</time>
      </trkpt>
      <trkpt lat="45.69052" lon="6.69044">
        <ele>2095</ele>
        <time>2022-07-16T13:47:12Z</time>
      </trkpt>
      <trkpt lat="45.69054" lon="6.69041">
        <ele>2094</ele>
        <time>2022-07-16T13:47:14Z</time>
      </trkpt>
      <trkpt lat="45.69056" lon="6.6904">
        <ele>2094</ele>
        <time>2022-07-16T13:47:16Z</time>
      </trkpt>
      <trkpt lat="45.69058" lon="6.69039">
        <ele>2094</ele>
        <time>2022-07-16T13:47:18Z</time>
      </trkpt>
      <trkpt lat="45.69061" lon="6.69038">
        <ele>2093</ele>
        <time>2022-07-16T13:47:20Z</time>
      </trkpt>
      <trkpt lat="45.69063" lon="6.69037">
        <ele>2093</ele>
        <time>2022-07-16T13:47:22Z</time>
      </trkpt>
      <trkpt lat="45.69065" lon="6.69037">
        <ele>2093</ele>
        <time>2022-07-16T13:47:24Z</time>
      </trkpt>
      <trkpt lat="45.69068" lon="6.69038">
        <ele>2093</ele>
        <time>2022-07-16T13:47:26Z</time>
      </trkpt>
      <trkpt lat="45.6907" lon="6.69039">
        <ele>2093</ele>
        <time>2022-07-16T13:47:28Z</time>
      </trkpt>
      <trkpt lat="45.69072" lon="6.69039">
        <ele>2092</ele>
        <time>2022-07-16T13:47:30Z</time>
      </trkpt>
      <trkpt lat="45.69073" lon="6.69038">
        <ele>2090</ele>
        <time>2022-07-16T13:47:32Z</time>
      </trkpt>
      <trkpt lat="45.69074" lon="6.69034">
        <ele>2090</ele>
        <time>2022-07-16T13:47:37Z</time>
      </trkpt>
      <trkpt lat="45.69075" lon="6.69031">
        <ele>2089</ele>
        <time>2022-07-16T13:47:39Z</time>
      </trkpt>
      <trkpt lat="45.69076" lon="6.69028">
        <ele>2088</ele>
        <time>2022-07-16T13:47:40Z</time>
      </trkpt>
      <trkpt lat="45.69077" lon="6.69025">
        <ele>2088</ele>
        <time>2022-07-16T13:47:41Z</time>
      </trkpt>
      <trkpt lat="45.69078" lon="6.69022">
        <ele>2087</ele>
        <time>2022-07-16T13:47:42Z</time>
      </trkpt>
      <trkpt lat="45.69079" lon="6.69019">
        <ele>2086</ele>
        <time>2022-07-16T13:47:43Z</time>
      </trkpt>
      <trkpt lat="45.6908" lon="6.69015">
        <ele>2086</ele>
        <time>2022-07-16T13:47:44Z</time>
      </trkpt>
      <trkpt lat="45.69081" lon="6.69013">
        <ele>2086</ele>
        <time>2022-07-16T13:47:45Z</time>
      </trkpt>
      <trkpt lat="45.69082" lon="6.69011">
        <ele>2086</ele>
        <time>2022-07-16T13:47:46Z</time>
      </trkpt>
      <trkpt lat="45.69084" lon="6.69007">
        <ele>2085</ele>
        <time>2022-07-16T13:47:48Z</time>
      </trkpt>
      <trkpt lat="45.69087" lon="6.69005">
        <ele>2084</ele>
        <time>2022-07-16T13:47:50Z</time>
      </trkpt>
      <trkpt lat="45.69089" lon="6.69003">
        <ele>2084</ele>
        <time>2022-07-16T13:47:51Z</time>
      </trkpt>
      <trkpt lat="45.69091" lon="6.69002">
        <ele>2083</ele>
        <time>2022-07-16T13:47:52Z</time>
      </trkpt>
      <trkpt lat="45.69093" lon="6.69">
        <ele>2082</ele>
        <time>2022-07-16T13:47:54Z</time>
      </trkpt>
      <trkpt lat="45.69096" lon="6.69">
        <ele>2083</ele>
        <time>2022-07-16T13:47:57Z</time>
      </trkpt>
      <trkpt lat="45.69097" lon="6.68999">
        <ele>2083</ele>
        <time>2022-07-16T13:48:02Z</time>
      </trkpt>
      <trkpt lat="45.69097" lon="6.68999">
        <ele>2083</ele>
        <time>2022-07-16T13:48:11Z</time>
      </trkpt>
      <trkpt lat="45.69097" lon="6.68999">
        <ele>2083</ele>
        <time>2022-07-16T13:48:27Z</time>
      </trkpt>
      <trkpt lat="45.69098" lon="6.69002">
        <ele>2083</ele>
        <time>2022-07-16T13:48:35Z</time>
      </trkpt>
      <trkpt lat="45.691" lon="6.69004">
        <ele>2083</ele>
        <time>2022-07-16T13:48:39Z</time>
      </trkpt>
      <trkpt lat="45.69101" lon="6.69006">
        <ele>2084</ele>
        <time>2022-07-16T13:48:43Z</time>
      </trkpt>
      <trkpt lat="45.69103" lon="6.69008">
        <ele>2084</ele>
        <time>2022-07-16T13:48:49Z</time>
      </trkpt>
      <trkpt lat="45.69103" lon="6.69008">
        <ele>2084</ele>
        <time>2022-07-16T13:48:56Z</time>
      </trkpt>
      <trkpt lat="45.69103" lon="6.69008">
        <ele>2083</ele>
        <time>2022-07-16T13:49:12Z</time>
      </trkpt>
      <trkpt lat="45.69103" lon="6.69008">
        <ele>2083</ele>
        <time>2022-07-16T13:49:28Z</time>
      </trkpt>
      <trkpt lat="45.69103" lon="6.69008">
        <ele>2083</ele>
        <time>2022-07-16T13:49:44Z</time>
      </trkpt>
      <trkpt lat="45.69104" lon="6.69009">
        <ele>2083</ele>
        <time>2022-07-16T13:49:55Z</time>
      </trkpt>
      <trkpt lat="45.69104" lon="6.69009">
        <ele>2083</ele>
        <time>2022-07-16T13:50:01Z</time>
      </trkpt>
      <trkpt lat="45.69106" lon="6.69012">
        <ele>2083</ele>
        <time>2022-07-16T13:50:02Z</time>
      </trkpt>
      <trkpt lat="45.69107" lon="6.69014">
        <ele>2084</ele>
        <time>2022-07-16T13:50:05Z</time>
      </trkpt>
      <trkpt lat="45.69107" lon="6.69017">
        <ele>2084</ele>
        <time>2022-07-16T13:50:14Z</time>
      </trkpt>
      <trkpt lat="45.69108" lon="6.6902">
        <ele>2083</ele>
        <time>2022-07-16T13:50:18Z</time>
      </trkpt>
      <trkpt lat="45.69107" lon="6.69017">
        <ele>2083</ele>
        <time>2022-07-16T13:50:27Z</time>
      </trkpt>
      <trkpt lat="45.69107" lon="6.69017">
        <ele>2083</ele>
        <time>2022-07-16T13:50:30Z</time>
      </trkpt>
      <trkpt lat="45.69106" lon="6.69016">
        <ele>2083</ele>
        <time>2022-07-16T13:50:37Z</time>
      </trkpt>
      <trkpt lat="45.69106" lon="6.69016">
        <ele>2083</ele>
        <time>2022-07-16T13:50:47Z</time>
      </trkpt>
      <trkpt lat="45.69106" lon="6.69016">
        <ele>2083</ele>
        <time>2022-07-16T13:51:03Z</time>
      </trkpt>
      <trkpt lat="45.69106" lon="6.69016">
        <ele>2083</ele>
        <time>2022-07-16T13:51:20Z</time>
      </trkpt>
      <trkpt lat="45.69106" lon="6.69016">
        <ele>2084</ele>
        <time>2022-07-16T13:51:36Z</time>
      </trkpt>
      <trkpt lat="45.69106" lon="6.69016">
        <ele>2083</ele>
        <time>2022-07-16T13:51:52Z</time>
      </trkpt>
      <trkpt lat="45.69106" lon="6.69016">
        <ele>2083</ele>
        <time>2022-07-16T13:52:08Z</time>
      </trkpt>
      <trkpt lat="45.69107" lon="6.69018">
        <ele>2083</ele>
        <time>2022-07-16T13:52:12Z</time>
      </trkpt>
      <trkpt lat="45.69107" lon="6.69021">
        <ele>2083</ele>
        <time>2022-07-16T13:52:20Z</time>
      </trkpt>
      <trkpt lat="45.69107" lon="6.69024">
        <ele>2083</ele>
        <time>2022-07-16T13:52:23Z</time>
      </trkpt>
      <trkpt lat="45.69107" lon="6.69027">
        <ele>2083</ele>
        <time>2022-07-16T13:52:26Z</time>
      </trkpt>
      <trkpt lat="45.69106" lon="6.69029">
        <ele>2083</ele>
        <time>2022-07-16T13:52:29Z</time>
      </trkpt>
      <trkpt lat="45.69106" lon="6.69029">
        <ele>2084</ele>
        <time>2022-07-16T13:52:41Z</time>
      </trkpt>
      <trkpt lat="45.69106" lon="6.69029">
        <ele>2083</ele>
        <time>2022-07-16T13:52:57Z</time>
      </trkpt>
      <trkpt lat="45.69105" lon="6.69027">
        <ele>2083</ele>
        <time>2022-07-16T13:53:07Z</time>
      </trkpt>
      <trkpt lat="45.69105" lon="6.69027">
        <ele>2083</ele>
        <time>2022-07-16T13:53:14Z</time>
      </trkpt>
      <trkpt lat="45.69105" lon="6.69027">
        <ele>2083</ele>
        <time>2022-07-16T13:53:30Z</time>
      </trkpt>
      <trkpt lat="45.69105" lon="6.69027">
        <ele>2084</ele>
        <time>2022-07-16T13:53:46Z</time>
      </trkpt>
      <trkpt lat="45.69105" lon="6.69027">
        <ele>2084</ele>
        <time>2022-07-16T13:54:02Z</time>
      </trkpt>
      <trkpt lat="45.69105" lon="6.69027">
        <ele>2084</ele>
        <time>2022-07-16T13:54:18Z</time>
      </trkpt>
      <trkpt lat="45.69105" lon="6.69027">
        <ele>2083</ele>
        <time>2022-07-16T13:54:34Z</time>
      </trkpt>
      <trkpt lat="45.69105" lon="6.69027">
        <ele>2083</ele>
        <time>2022-07-16T13:54:51Z</time>
      </trkpt>
      <trkpt lat="45.69105" lon="6.69027">
        <ele>2084</ele>
        <time>2022-07-16T13:55:07Z</time>
      </trkpt>
      <trkpt lat="45.69105" lon="6.69027">
        <ele>2085</ele>
        <time>2022-07-16T13:55:24Z</time>
      </trkpt>
      <trkpt lat="45.69105" lon="6.69027">
        <ele>2084</ele>
        <time>2022-07-16T13:55:41Z</time>
      </trkpt>
      <trkpt lat="45.69105" lon="6.69027">
        <ele>2084</ele>
        <time>2022-07-16T13:55:57Z</time>
      </trkpt>
      <trkpt lat="45.69105" lon="6.69027">
        <ele>2083</ele>
        <time>2022-07-16T13:56:13Z</time>
      </trkpt>
      <trkpt lat="45.69105" lon="6.69027">
        <ele>2084</ele>
        <time>2022-07-16T13:56:29Z</time>
      </trkpt>
      <trkpt lat="45.69105" lon="6.69027">
        <ele>2085</ele>
        <time>2022-07-16T13:56:45Z</time>
      </trkpt>
      <trkpt lat="45.69105" lon="6.69027">
        <ele>2083</ele>
        <time>2022-07-16T13:57:01Z</time>
      </trkpt>
      <trkpt lat="45.69105" lon="6.69027">
        <ele>2084</ele>
        <time>2022-07-16T13:57:17Z</time>
      </trkpt>
      <trkpt lat="45.69105" lon="6.69027">
        <ele>2083</ele>
        <time>2022-07-16T13:57:33Z</time>
      </trkpt>
      <trkpt lat="45.69105" lon="6.69027">
        <ele>2083</ele>
        <time>2022-07-16T13:57:49Z</time>
      </trkpt>
      <trkpt lat="45.69105" lon="6.69027">
        <ele>2084</ele>
        <time>2022-07-16T13:58:05Z</time>
      </trkpt>
      <trkpt lat="45.69105" lon="6.69027">
        <ele>2084</ele>
        <time>2022-07-16T13:58:21Z</time>
      </trkpt>
      <trkpt lat="45.69105" lon="6.69027">
        <ele>2084</ele>
        <time>2022-07-16T13:58:37Z</time>
      </trkpt>
      <trkpt lat="45.69105" lon="6.69027">
        <ele>2084</ele>
        <time>2022-07-16T13:58:54Z</time>
      </trkpt>
      <trkpt lat="45.69103" lon="6.69028">
        <ele>2084</ele>
        <time>2022-07-16T13:59:00Z</time>
      </trkpt>
      <trkpt lat="45.69103" lon="6.69028">
        <ele>2083</ele>
        <time>2022-07-16T13:59:12Z</time>
      </trkpt>
      <trkpt lat="45.69103" lon="6.69028">
        <ele>2084</ele>
        <time>2022-07-16T13:59:29Z</time>
      </trkpt>
      <trkpt lat="45.69103" lon="6.69028">
        <ele>2084</ele>
        <time>2022-07-16T13:59:45Z</time>
      </trkpt>
      <trkpt lat="45.69103" lon="6.69028">
        <ele>2084</ele>
        <time>2022-07-16T14:00:01Z</time>
      </trkpt>
      <trkpt lat="45.69103" lon="6.69028">
        <ele>2084</ele>
        <time>2022-07-16T14:00:17Z</time>
      </trkpt>
      <trkpt lat="45.69103" lon="6.69028">
        <ele>2084</ele>
        <time>2022-07-16T14:00:33Z</time>
      </trkpt>
      <trkpt lat="45.69103" lon="6.69028">
        <ele>2084</ele>
        <time>2022-07-16T14:00:49Z</time>
      </trkpt>
      <trkpt lat="45.69103" lon="6.69028">
        <ele>2084</ele>
        <time>2022-07-16T14:01:05Z</time>
      </trkpt>
      <trkpt lat="45.69103" lon="6.69028">
        <ele>2084</ele>
        <time>2022-07-16T14:01:21Z</time>
      </trkpt>
      <trkpt lat="45.69103" lon="6.69028">
        <ele>2084</ele>
        <time>2022-07-16T14:01:37Z</time>
      </trkpt>
      <trkpt lat="45.69103" lon="6.69028">
        <ele>2084</ele>
        <time>2022-07-16T14:01:53Z</time>
      </trkpt>
      <trkpt lat="45.69103" lon="6.69028">
        <ele>2084</ele>
        <time>2022-07-16T14:02:09Z</time>
      </trkpt>
      <trkpt lat="45.69103" lon="6.69028">
        <ele>2084</ele>
        <time>2022-07-16T14:02:26Z</time>
      </trkpt>
      <trkpt lat="45.69103" lon="6.69028">
        <ele>2084</ele>
        <time>2022-07-16T14:02:42Z</time>
      </trkpt>
      <trkpt lat="45.69103" lon="6.69028">
        <ele>2084</ele>
        <time>2022-07-16T14:02:58Z</time>
      </trkpt>
      <trkpt lat="45.69103" lon="6.69028">
        <ele>2084</ele>
        <time>2022-07-16T14:03:14Z</time>
      </trkpt>
      <trkpt lat="45.69103" lon="6.69028">
        <ele>2084</ele>
        <time>2022-07-16T14:03:30Z</time>
      </trkpt>
      <trkpt lat="45.69103" lon="6.69028">
        <ele>2084</ele>
        <time>2022-07-16T14:03:46Z</time>
      </trkpt>
      <trkpt lat="45.69103" lon="6.69028">
        <ele>2084</ele>
        <time>2022-07-16T14:04:02Z</time>
      </trkpt>
      <trkpt lat="45.69103" lon="6.69028">
        <ele>2084</ele>
        <time>2022-07-16T14:04:19Z</time>
      </trkpt>
      <trkpt lat="45.69103" lon="6.69028">
        <ele>2084</ele>
        <time>2022-07-16T14:04:36Z</time>
      </trkpt>
      <trkpt lat="45.69103" lon="6.69028">
        <ele>2084</ele>
        <time>2022-07-16T14:04:52Z</time>
      </trkpt>
      <trkpt lat="45.69103" lon="6.69028">
        <ele>2084</ele>
        <time>2022-07-16T14:05:08Z</time>
      </trkpt>
      <trkpt lat="45.69103" lon="6.69028">
        <ele>2084</ele>
        <time>2022-07-16T14:05:24Z</time>
      </trkpt>
      <trkpt lat="45.69103" lon="6.69028">
        <ele>2084</ele>
        <time>2022-07-16T14:05:40Z</time>
      </trkpt>
      <trkpt lat="45.69103" lon="6.69028">
        <ele>2084</ele>
        <time>2022-07-16T14:05:56Z</time>
      </trkpt>
      <trkpt lat="45.69103" lon="6.69028">
        <ele>2084</ele>
        <time>2022-07-16T14:06:12Z</time>
      </trkpt>
      <trkpt lat="45.69103" lon="6.69028">
        <ele>2084</ele>
        <time>2022-07-16T14:06:28Z</time>
      </trkpt>
      <trkpt lat="45.69103" lon="6.69028">
        <ele>2084</ele>
        <time>2022-07-16T14:06:44Z</time>
      </trkpt>
      <trkpt lat="45.69103" lon="6.69028">
        <ele>2084</ele>
        <time>2022-07-16T14:07:00Z</time>
      </trkpt>
      <trkpt lat="45.69103" lon="6.69028">
        <ele>2084</ele>
        <time>2022-07-16T14:07:16Z</time>
      </trkpt>
      <trkpt lat="45.69103" lon="6.69028">
        <ele>2084</ele>
        <time>2022-07-16T14:07:32Z</time>
      </trkpt>
      <trkpt lat="45.69103" lon="6.69028">
        <ele>2084</ele>
        <time>2022-07-16T14:07:48Z</time>
      </trkpt>
      <trkpt lat="45.69103" lon="6.69028">
        <ele>2084</ele>
        <time>2022-07-16T14:08:05Z</time>
      </trkpt>
      <trkpt lat="45.69103" lon="6.69028">
        <ele>2084</ele>
        <time>2022-07-16T14:08:21Z</time>
      </trkpt>
      <trkpt lat="45.69105" lon="6.69029">
        <ele>2084</ele>
        <time>2022-07-16T14:08:26Z</time>
      </trkpt>
      <trkpt lat="45.69105" lon="6.69029">
        <ele>2084</ele>
        <time>2022-07-16T14:08:39Z</time>
      </trkpt>
      <trkpt lat="45.69105" lon="6.69029">
        <ele>2084</ele>
        <time>2022-07-16T14:08:55Z</time>
      </trkpt>
      <trkpt lat="45.69105" lon="6.69029">
        <ele>2084</ele>
        <time>2022-07-16T14:09:11Z</time>
      </trkpt>
      <trkpt lat="45.69105" lon="6.69029">
        <ele>2084</ele>
        <time>2022-07-16T14:09:27Z</time>
      </trkpt>
      <trkpt lat="45.69105" lon="6.69029">
        <ele>2084</ele>
        <time>2022-07-16T14:09:43Z</time>
      </trkpt>
      <trkpt lat="45.69105" lon="6.69029">
        <ele>2084</ele>
        <time>2022-07-16T14:09:59Z</time>
      </trkpt>
      <trkpt lat="45.69105" lon="6.69029">
        <ele>2084</ele>
        <time>2022-07-16T14:10:16Z</time>
      </trkpt>
      <trkpt lat="45.69105" lon="6.69029">
        <ele>2084</ele>
        <time>2022-07-16T14:10:33Z</time>
      </trkpt>
      <trkpt lat="45.69105" lon="6.69029">
        <ele>2084</ele>
        <time>2022-07-16T14:10:49Z</time>
      </trkpt>
      <trkpt lat="45.69105" lon="6.69029">
        <ele>2084</ele>
        <time>2022-07-16T14:11:05Z</time>
      </trkpt>
      <trkpt lat="45.69105" lon="6.69029">
        <ele>2084</ele>
        <time>2022-07-16T14:11:22Z</time>
      </trkpt>
      <trkpt lat="45.69105" lon="6.69029">
        <ele>2084</ele>
        <time>2022-07-16T14:11:38Z</time>
      </trkpt>
      <trkpt lat="45.69105" lon="6.69029">
        <ele>2084</ele>
        <time>2022-07-16T14:11:55Z</time>
      </trkpt>
      <trkpt lat="45.69105" lon="6.69029">
        <ele>2084</ele>
        <time>2022-07-16T14:12:12Z</time>
      </trkpt>
      <trkpt lat="45.69105" lon="6.69029">
        <ele>2084</ele>
        <time>2022-07-16T14:12:29Z</time>
      </trkpt>
      <trkpt lat="45.69105" lon="6.69029">
        <ele>2084</ele>
        <time>2022-07-16T14:12:46Z</time>
      </trkpt>
      <trkpt lat="45.69105" lon="6.69029">
        <ele>2084</ele>
        <time>2022-07-16T14:13:02Z</time>
      </trkpt>
      <trkpt lat="45.69105" lon="6.69029">
        <ele>2084</ele>
        <time>2022-07-16T14:13:18Z</time>
      </trkpt>
      <trkpt lat="45.69105" lon="6.69029">
        <ele>2084</ele>
        <time>2022-07-16T14:13:34Z</time>
      </trkpt>
      <trkpt lat="45.69105" lon="6.69029">
        <ele>2084</ele>
        <time>2022-07-16T14:13:51Z</time>
      </trkpt>
      <trkpt lat="45.69105" lon="6.69029">
        <ele>2084</ele>
        <time>2022-07-16T14:14:07Z</time>
      </trkpt>
      <trkpt lat="45.69105" lon="6.69029">
        <ele>2084</ele>
        <time>2022-07-16T14:14:23Z</time>
      </trkpt>
      <trkpt lat="45.69105" lon="6.69029">
        <ele>2084</ele>
        <time>2022-07-16T14:14:39Z</time>
      </trkpt>
      <trkpt lat="45.69105" lon="6.69029">
        <ele>2084</ele>
        <time>2022-07-16T14:14:55Z</time>
      </trkpt>
      <trkpt lat="45.69105" lon="6.69029">
        <ele>2084</ele>
        <time>2022-07-16T14:15:11Z</time>
      </trkpt>
      <trkpt lat="45.69105" lon="6.69029">
        <ele>2084</ele>
        <time>2022-07-16T14:15:27Z</time>
      </trkpt>
      <trkpt lat="45.69105" lon="6.69029">
        <ele>2084</ele>
        <time>2022-07-16T14:15:43Z</time>
      </trkpt>
      <trkpt lat="45.69105" lon="6.69029">
        <ele>2084</ele>
        <time>2022-07-16T14:15:59Z</time>
      </trkpt>
      <trkpt lat="45.69105" lon="6.69029">
        <ele>2084</ele>
        <time>2022-07-16T14:16:16Z</time>
      </trkpt>
      <trkpt lat="45.69105" lon="6.69029">
        <ele>2084</ele>
        <time>2022-07-16T14:16:32Z</time>
      </trkpt>
      <trkpt lat="45.69105" lon="6.69029">
        <ele>2084</ele>
        <time>2022-07-16T14:16:48Z</time>
      </trkpt>
      <trkpt lat="45.69105" lon="6.69029">
        <ele>2084</ele>
        <time>2022-07-16T14:17:04Z</time>
      </trkpt>
      <trkpt lat="45.69105" lon="6.69029">
        <ele>2084</ele>
        <time>2022-07-16T14:17:20Z</time>
      </trkpt>
      <trkpt lat="45.69105" lon="6.69029">
        <ele>2084</ele>
        <time>2022-07-16T14:17:37Z</time>
      </trkpt>
      <trkpt lat="45.69105" lon="6.69029">
        <ele>2084</ele>
        <time>2022-07-16T14:17:54Z</time>
      </trkpt>
      <trkpt lat="45.69105" lon="6.69029">
        <ele>2084</ele>
        <time>2022-07-16T14:18:10Z</time>
      </trkpt>
      <trkpt lat="45.69105" lon="6.69029">
        <ele>2084</ele>
        <time>2022-07-16T14:18:26Z</time>
      </trkpt>
      <trkpt lat="45.69105" lon="6.69029">
        <ele>2084</ele>
        <time>2022-07-16T14:18:42Z</time>
      </trkpt>
      <trkpt lat="45.69105" lon="6.69029">
        <ele>2084</ele>
        <time>2022-07-16T14:18:58Z</time>
      </trkpt>
      <trkpt lat="45.69105" lon="6.69029">
        <ele>2084</ele>
        <time>2022-07-16T14:19:15Z</time>
      </trkpt>
      <trkpt lat="45.69105" lon="6.69029">
        <ele>2084</ele>
        <time>2022-07-16T14:19:32Z</time>
      </trkpt>
      <trkpt lat="45.69105" lon="6.69029">
        <ele>2084</ele>
        <time>2022-07-16T14:19:49Z</time>
      </trkpt>
      <trkpt lat="45.69105" lon="6.69029">
        <ele>2084</ele>
        <time>2022-07-16T14:20:06Z</time>
      </trkpt>
      <trkpt lat="45.69106" lon="6.69027">
        <ele>2084</ele>
        <time>2022-07-16T14:20:09Z</time>
      </trkpt>
      <trkpt lat="45.69107" lon="6.69025">
        <ele>2084</ele>
        <time>2022-07-16T14:20:14Z</time>
      </trkpt>
      <trkpt lat="45.69106" lon="6.69022">
        <ele>2084</ele>
        <time>2022-07-16T14:20:21Z</time>
      </trkpt>
      <trkpt lat="45.69106" lon="6.69022">
        <ele>2084</ele>
        <time>2022-07-16T14:20:26Z</time>
      </trkpt>
      <trkpt lat="45.69105" lon="6.6902">
        <ele>2084</ele>
        <time>2022-07-16T14:20:32Z</time>
      </trkpt>
      <trkpt lat="45.69106" lon="6.69017">
        <ele>2084</ele>
        <time>2022-07-16T14:20:36Z</time>
      </trkpt>
      <trkpt lat="45.69105" lon="6.69014">
        <ele>2084</ele>
        <time>2022-07-16T14:20:40Z</time>
      </trkpt>
      <trkpt lat="45.69104" lon="6.69012">
        <ele>2084</ele>
        <time>2022-07-16T14:20:49Z</time>
      </trkpt>
      <trkpt lat="45.69104" lon="6.69012">
        <ele>2084</ele>
        <time>2022-07-16T14:20:54Z</time>
      </trkpt>
      <trkpt lat="45.69102" lon="6.69009">
        <ele>2084</ele>
        <time>2022-07-16T14:20:55Z</time>
      </trkpt>
      <trkpt lat="45.69101" lon="6.69007">
        <ele>2084</ele>
        <time>2022-07-16T14:21:07Z</time>
      </trkpt>
      <trkpt lat="45.69101" lon="6.69007">
        <ele>2084</ele>
        <time>2022-07-16T14:21:12Z</time>
      </trkpt>
      <trkpt lat="45.69101" lon="6.69007">
        <ele>2084</ele>
        <time>2022-07-16T14:21:29Z</time>
      </trkpt>
      <trkpt lat="45.69101" lon="6.69007">
        <ele>2084</ele>
        <time>2022-07-16T14:21:46Z</time>
      </trkpt>
      <trkpt lat="45.69101" lon="6.69007">
        <ele>2084</ele>
        <time>2022-07-16T14:22:03Z</time>
      </trkpt>
      <trkpt lat="45.69101" lon="6.69007">
        <ele>2084</ele>
        <time>2022-07-16T14:22:19Z</time>
      </trkpt>
      <trkpt lat="45.69101" lon="6.69007">
        <ele>2084</ele>
        <time>2022-07-16T14:22:35Z</time>
      </trkpt>
      <trkpt lat="45.69101" lon="6.69007">
        <ele>2084</ele>
        <time>2022-07-16T14:22:52Z</time>
      </trkpt>
      <trkpt lat="45.69101" lon="6.69007">
        <ele>2084</ele>
        <time>2022-07-16T14:23:09Z</time>
      </trkpt>
      <trkpt lat="45.69102" lon="6.6901">
        <ele>2084</ele>
        <time>2022-07-16T14:23:12Z</time>
      </trkpt>
      <trkpt lat="45.69102" lon="6.6901">
        <ele>2084</ele>
        <time>2022-07-16T14:23:26Z</time>
      </trkpt>
      <trkpt lat="45.69103" lon="6.69009">
        <ele>2084</ele>
        <time>2022-07-16T14:23:39Z</time>
      </trkpt>
      <trkpt lat="45.69104" lon="6.69012">
        <ele>2084</ele>
        <time>2022-07-16T14:23:42Z</time>
      </trkpt>
      <trkpt lat="45.69104" lon="6.69012">
        <ele>2084</ele>
        <time>2022-07-16T14:23:56Z</time>
      </trkpt>
      <trkpt lat="45.69104" lon="6.69012">
        <ele>2084</ele>
        <time>2022-07-16T14:24:12Z</time>
      </trkpt>
      <trkpt lat="45.69104" lon="6.69012">
        <ele>2084</ele>
        <time>2022-07-16T14:24:28Z</time>
      </trkpt>
      <trkpt lat="45.69105" lon="6.69014">
        <ele>2084</ele>
        <time>2022-07-16T14:24:33Z</time>
      </trkpt>
      <trkpt lat="45.69107" lon="6.69017">
        <ele>2084</ele>
        <time>2022-07-16T14:24:36Z</time>
      </trkpt>
      <trkpt lat="45.69107" lon="6.69017">
        <ele>2084</ele>
        <time>2022-07-16T14:24:50Z</time>
      </trkpt>
      <trkpt lat="45.69107" lon="6.69017">
        <ele>2084</ele>
        <time>2022-07-16T14:25:06Z</time>
      </trkpt>
      <trkpt lat="45.69107" lon="6.69017">
        <ele>2084</ele>
        <time>2022-07-16T14:25:22Z</time>
      </trkpt>
      <trkpt lat="45.69108" lon="6.69019">
        <ele>2084</ele>
        <time>2022-07-16T14:25:27Z</time>
      </trkpt>
      <trkpt lat="45.69108" lon="6.69019">
        <ele>2084</ele>
        <time>2022-07-16T14:25:39Z</time>
      </trkpt>
      <trkpt lat="45.69108" lon="6.69019">
        <ele>2084</ele>
        <time>2022-07-16T14:25:56Z</time>
      </trkpt>
      <trkpt lat="45.69107" lon="6.69021">
        <ele>2084</ele>
        <time>2022-07-16T14:25:58Z</time>
      </trkpt>
      <trkpt lat="45.69108" lon="6.69023">
        <ele>2084</ele>
        <time>2022-07-16T14:26:13Z</time>
      </trkpt>
      <trkpt lat="45.69108" lon="6.69023">
        <ele>2084</ele>
        <time>2022-07-16T14:26:14Z</time>
      </trkpt>
      <trkpt lat="45.69108" lon="6.69026">
        <ele>2084</ele>
        <time>2022-07-16T14:26:15Z</time>
      </trkpt>
      <trkpt lat="45.69106" lon="6.69028">
        <ele>2084</ele>
        <time>2022-07-16T14:26:18Z</time>
      </trkpt>
      <trkpt lat="45.69106" lon="6.69028">
        <ele>2084</ele>
        <time>2022-07-16T14:26:32Z</time>
      </trkpt>
      <trkpt lat="45.69108" lon="6.69027">
        <ele>2084</ele>
        <time>2022-07-16T14:26:39Z</time>
      </trkpt>
      <trkpt lat="45.69107" lon="6.69023">
        <ele>2084</ele>
        <time>2022-07-16T14:26:44Z</time>
      </trkpt>
      <trkpt lat="45.69105" lon="6.6902">
        <ele>2084</ele>
        <time>2022-07-16T14:26:48Z</time>
      </trkpt>
      <trkpt lat="45.69106" lon="6.69018">
        <ele>2084</ele>
        <time>2022-07-16T14:26:52Z</time>
      </trkpt>
      <trkpt lat="45.69105" lon="6.69015">
        <ele>2084</ele>
        <time>2022-07-16T14:26:55Z</time>
      </trkpt>
      <trkpt lat="45.69104" lon="6.69012">
        <ele>2084</ele>
        <time>2022-07-16T14:26:58Z</time>
      </trkpt>
      <trkpt lat="45.69103" lon="6.6901">
        <ele>2084</ele>
        <time>2022-07-16T14:27:00Z</time>
      </trkpt>
      <trkpt lat="45.69101" lon="6.69008">
        <ele>2084</ele>
        <time>2022-07-16T14:27:03Z</time>
      </trkpt>
      <trkpt lat="45.69101" lon="6.69008">
        <ele>2084</ele>
        <time>2022-07-16T14:27:15Z</time>
      </trkpt>
      <trkpt lat="45.69101" lon="6.69008">
        <ele>2084</ele>
        <time>2022-07-16T14:27:31Z</time>
      </trkpt>
      <trkpt lat="45.691" lon="6.69007">
        <ele>2084</ele>
        <time>2022-07-16T14:27:37Z</time>
      </trkpt>
      <trkpt lat="45.691" lon="6.69007">
        <ele>2084</ele>
        <time>2022-07-16T14:27:48Z</time>
      </trkpt>
      <trkpt lat="45.691" lon="6.69007">
        <ele>2084</ele>
        <time>2022-07-16T14:28:05Z</time>
      </trkpt>
      <trkpt lat="45.691" lon="6.69007">
        <ele>2084</ele>
        <time>2022-07-16T14:28:21Z</time>
      </trkpt>
      <trkpt lat="45.691" lon="6.69007">
        <ele>2084</ele>
        <time>2022-07-16T14:28:37Z</time>
      </trkpt>
      <trkpt lat="45.69099" lon="6.69004">
        <ele>2084</ele>
        <time>2022-07-16T14:28:45Z</time>
      </trkpt>
      <trkpt lat="45.69099" lon="6.69004">
        <ele>2084</ele>
        <time>2022-07-16T14:28:54Z</time>
      </trkpt>
      <trkpt lat="45.69099" lon="6.69004">
        <ele>2084</ele>
        <time>2022-07-16T14:29:10Z</time>
      </trkpt>
      <trkpt lat="45.69099" lon="6.69004">
        <ele>2084</ele>
        <time>2022-07-16T14:29:26Z</time>
      </trkpt>
      <trkpt lat="45.69101" lon="6.69003">
        <ele>2084</ele>
        <time>2022-07-16T14:29:34Z</time>
      </trkpt>
      <trkpt lat="45.69102" lon="6.69001">
        <ele>2084</ele>
        <time>2022-07-16T14:29:36Z</time>
      </trkpt>
      <trkpt lat="45.69104" lon="6.68999">
        <ele>2084</ele>
        <time>2022-07-16T14:29:38Z</time>
      </trkpt>
      <trkpt lat="45.69104" lon="6.68996">
        <ele>2084</ele>
        <time>2022-07-16T14:29:41Z</time>
      </trkpt>
      <trkpt lat="45.69104" lon="6.68993">
        <ele>2084</ele>
        <time>2022-07-16T14:29:47Z</time>
      </trkpt>
      <trkpt lat="45.69104" lon="6.68993">
        <ele>2084</ele>
        <time>2022-07-16T14:29:54Z</time>
      </trkpt>
      <trkpt lat="45.69104" lon="6.68996">
        <ele>2084</ele>
        <time>2022-07-16T14:29:56Z</time>
      </trkpt>
      <trkpt lat="45.69104" lon="6.68996">
        <ele>2084</ele>
        <time>2022-07-16T14:30:11Z</time>
      </trkpt>
      <trkpt lat="45.69104" lon="6.68999">
        <ele>2084</ele>
        <time>2022-07-16T14:30:19Z</time>
      </trkpt>
      <trkpt lat="45.69104" lon="6.69001">
        <ele>2084</ele>
        <time>2022-07-16T14:30:27Z</time>
      </trkpt>
      <trkpt lat="45.69104" lon="6.69001">
        <ele>2084</ele>
        <time>2022-07-16T14:30:29Z</time>
      </trkpt>
      <trkpt lat="45.69103" lon="6.69003">
        <ele>2084</ele>
        <time>2022-07-16T14:30:31Z</time>
      </trkpt>
      <trkpt lat="45.69101" lon="6.69005">
        <ele>2084</ele>
        <time>2022-07-16T14:30:33Z</time>
      </trkpt>
      <trkpt lat="45.69102" lon="6.69008">
        <ele>2084</ele>
        <time>2022-07-16T14:30:39Z</time>
      </trkpt>
      <trkpt lat="45.69103" lon="6.6901">
        <ele>2084</ele>
        <time>2022-07-16T14:30:41Z</time>
      </trkpt>
      <trkpt lat="45.69104" lon="6.69013">
        <ele>2084</ele>
        <time>2022-07-16T14:30:43Z</time>
      </trkpt>
      <trkpt lat="45.69105" lon="6.69015">
        <ele>2084</ele>
        <time>2022-07-16T14:30:45Z</time>
      </trkpt>
      <trkpt lat="45.69106" lon="6.69018">
        <ele>2084</ele>
        <time>2022-07-16T14:30:47Z</time>
      </trkpt>
      <trkpt lat="45.69106" lon="6.6902">
        <ele>2084</ele>
        <time>2022-07-16T14:30:51Z</time>
      </trkpt>
      <trkpt lat="45.69107" lon="6.69024">
        <ele>2084</ele>
        <time>2022-07-16T14:30:54Z</time>
      </trkpt>
      <trkpt lat="45.69107" lon="6.69027">
        <ele>2084</ele>
        <time>2022-07-16T14:30:56Z</time>
      </trkpt>
      <trkpt lat="45.69107" lon="6.69027">
        <ele>2084</ele>
        <time>2022-07-16T14:31:12Z</time>
      </trkpt>
      <trkpt lat="45.69107" lon="6.69027">
        <ele>2084</ele>
        <time>2022-07-16T14:31:28Z</time>
      </trkpt>
      <trkpt lat="45.69106" lon="6.69029">
        <ele>2084</ele>
        <time>2022-07-16T14:31:33Z</time>
      </trkpt>
      <trkpt lat="45.69106" lon="6.69029">
        <ele>2084</ele>
        <time>2022-07-16T14:31:45Z</time>
      </trkpt>
      <trkpt lat="45.69108" lon="6.69028">
        <ele>2084</ele>
        <time>2022-07-16T14:31:55Z</time>
      </trkpt>
      <trkpt lat="45.69106" lon="6.69028">
        <ele>2084</ele>
        <time>2022-07-16T14:31:59Z</time>
      </trkpt>
      <trkpt lat="45.69106" lon="6.69028">
        <ele>2084</ele>
        <time>2022-07-16T14:32:11Z</time>
      </trkpt>
      <trkpt lat="45.69106" lon="6.69028">
        <ele>2084</ele>
        <time>2022-07-16T14:32:27Z</time>
      </trkpt>
      <trkpt lat="45.69106" lon="6.69028">
        <ele>2084</ele>
        <time>2022-07-16T14:32:44Z</time>
      </trkpt>
      <trkpt lat="45.69106" lon="6.69028">
        <ele>2084</ele>
        <time>2022-07-16T14:33:00Z</time>
      </trkpt>
      <trkpt lat="45.69106" lon="6.69028">
        <ele>2084</ele>
        <time>2022-07-16T14:33:16Z</time>
      </trkpt>
      <trkpt lat="45.69106" lon="6.69028">
        <ele>2084</ele>
        <time>2022-07-16T14:33:32Z</time>
      </trkpt>
      <trkpt lat="45.69106" lon="6.69028">
        <ele>2084</ele>
        <time>2022-07-16T14:33:48Z</time>
      </trkpt>
      <trkpt lat="45.69106" lon="6.69028">
        <ele>2084</ele>
        <time>2022-07-16T14:34:04Z</time>
      </trkpt>
      <trkpt lat="45.69106" lon="6.69028">
        <ele>2084</ele>
        <time>2022-07-16T14:34:20Z</time>
      </trkpt>
      <trkpt lat="45.69106" lon="6.69028">
        <ele>2084</ele>
        <time>2022-07-16T14:34:36Z</time>
      </trkpt>
      <trkpt lat="45.69106" lon="6.69028">
        <ele>2084</ele>
        <time>2022-07-16T14:34:52Z</time>
      </trkpt>
      <trkpt lat="45.69106" lon="6.69028">
        <ele>2084</ele>
        <time>2022-07-16T14:35:08Z</time>
      </trkpt>
      <trkpt lat="45.69109" lon="6.69029">
        <ele>2084</ele>
        <time>2022-07-16T14:35:09Z</time>
      </trkpt>
      <trkpt lat="45.6911" lon="6.69031">
        <ele>2084</ele>
        <time>2022-07-16T14:35:11Z</time>
      </trkpt>
      <trkpt lat="45.69112" lon="6.69034">
        <ele>2084</ele>
        <time>2022-07-16T14:35:13Z</time>
      </trkpt>
      <trkpt lat="45.69113" lon="6.69036">
        <ele>2084</ele>
        <time>2022-07-16T14:35:26Z</time>
      </trkpt>
      <trkpt lat="45.69115" lon="6.69038">
        <ele>2084</ele>
        <time>2022-07-16T14:35:28Z</time>
      </trkpt>
      <trkpt lat="45.69116" lon="6.6904">
        <ele>2084</ele>
        <time>2022-07-16T14:35:30Z</time>
      </trkpt>
      <trkpt lat="45.69117" lon="6.69042">
        <ele>2084</ele>
        <time>2022-07-16T14:35:32Z</time>
      </trkpt>
      <trkpt lat="45.69118" lon="6.69045">
        <ele>2084</ele>
        <time>2022-07-16T14:35:34Z</time>
      </trkpt>
      <trkpt lat="45.69118" lon="6.69047">
        <ele>2084</ele>
        <time>2022-07-16T14:35:36Z</time>
      </trkpt>
      <trkpt lat="45.69118" lon="6.6905">
        <ele>2084</ele>
        <time>2022-07-16T14:35:38Z</time>
      </trkpt>
      <trkpt lat="45.6912" lon="6.69053">
        <ele>2084</ele>
        <time>2022-07-16T14:35:40Z</time>
      </trkpt>
      <trkpt lat="45.69122" lon="6.69055">
        <ele>2084</ele>
        <time>2022-07-16T14:35:42Z</time>
      </trkpt>
      <trkpt lat="45.69124" lon="6.69058">
        <ele>2084</ele>
        <time>2022-07-16T14:35:44Z</time>
      </trkpt>
      <trkpt lat="45.69125" lon="6.69061">
        <ele>2084</ele>
        <time>2022-07-16T14:35:46Z</time>
      </trkpt>
      <trkpt lat="45.69127" lon="6.69062">
        <ele>2084</ele>
        <time>2022-07-16T14:35:48Z</time>
      </trkpt>
      <trkpt lat="45.69129" lon="6.69064">
        <ele>2084</ele>
        <time>2022-07-16T14:35:50Z</time>
      </trkpt>
      <trkpt lat="45.69131" lon="6.69065">
        <ele>2084</ele>
        <time>2022-07-16T14:35:52Z</time>
      </trkpt>
      <trkpt lat="45.69132" lon="6.69067">
        <ele>2084</ele>
        <time>2022-07-16T14:35:54Z</time>
      </trkpt>
      <trkpt lat="45.69135" lon="6.69069">
        <ele>2084</ele>
        <time>2022-07-16T14:35:56Z</time>
      </trkpt>
      <trkpt lat="45.69137" lon="6.69071">
        <ele>2084</ele>
        <time>2022-07-16T14:35:58Z</time>
      </trkpt>
      <trkpt lat="45.6914" lon="6.69072">
        <ele>2084</ele>
        <time>2022-07-16T14:36:00Z</time>
      </trkpt>
      <trkpt lat="45.69142" lon="6.69074">
        <ele>2084</ele>
        <time>2022-07-16T14:36:02Z</time>
      </trkpt>
      <trkpt lat="45.69144" lon="6.69075">
        <ele>2084</ele>
        <time>2022-07-16T14:36:04Z</time>
      </trkpt>
      <trkpt lat="45.69147" lon="6.69076">
        <ele>2084</ele>
        <time>2022-07-16T14:36:06Z</time>
      </trkpt>
      <trkpt lat="45.69148" lon="6.69078">
        <ele>2084</ele>
        <time>2022-07-16T14:36:08Z</time>
      </trkpt>
      <trkpt lat="45.6915" lon="6.6908">
        <ele>2084</ele>
        <time>2022-07-16T14:36:10Z</time>
      </trkpt>
      <trkpt lat="45.69152" lon="6.69083">
        <ele>2084</ele>
        <time>2022-07-16T14:36:12Z</time>
      </trkpt>
      <trkpt lat="45.69154" lon="6.69085">
        <ele>2084</ele>
        <time>2022-07-16T14:36:18Z</time>
      </trkpt>
      <trkpt lat="45.69155" lon="6.69088">
        <ele>2084</ele>
        <time>2022-07-16T14:36:20Z</time>
      </trkpt>
      <trkpt lat="45.69157" lon="6.69091">
        <ele>2084</ele>
        <time>2022-07-16T14:36:22Z</time>
      </trkpt>
      <trkpt lat="45.69158" lon="6.69093">
        <ele>2084</ele>
        <time>2022-07-16T14:36:24Z</time>
      </trkpt>
      <trkpt lat="45.6916" lon="6.69096">
        <ele>2081</ele>
        <time>2022-07-16T14:36:26Z</time>
      </trkpt>
      <trkpt lat="45.69161" lon="6.69099">
        <ele>2081</ele>
        <time>2022-07-16T14:36:28Z</time>
      </trkpt>
      <trkpt lat="45.69163" lon="6.69102">
        <ele>2081</ele>
        <time>2022-07-16T14:36:30Z</time>
      </trkpt>
      <trkpt lat="45.69165" lon="6.69104">
        <ele>2081</ele>
        <time>2022-07-16T14:36:32Z</time>
      </trkpt>
      <trkpt lat="45.69166" lon="6.69107">
        <ele>2081</ele>
        <time>2022-07-16T14:36:34Z</time>
      </trkpt>
      <trkpt lat="45.69168" lon="6.6911">
        <ele>2081</ele>
        <time>2022-07-16T14:36:36Z</time>
      </trkpt>
      <trkpt lat="45.6917" lon="6.69113">
        <ele>2081</ele>
        <time>2022-07-16T14:36:38Z</time>
      </trkpt>
      <trkpt lat="45.69172" lon="6.69115">
        <ele>2081</ele>
        <time>2022-07-16T14:36:40Z</time>
      </trkpt>
      <trkpt lat="45.69173" lon="6.69118">
        <ele>2081</ele>
        <time>2022-07-16T14:36:42Z</time>
      </trkpt>
      <trkpt lat="45.69175" lon="6.69121">
        <ele>2081</ele>
        <time>2022-07-16T14:36:44Z</time>
      </trkpt>
      <trkpt lat="45.69177" lon="6.69124">
        <ele>2081</ele>
        <time>2022-07-16T14:36:46Z</time>
      </trkpt>
      <trkpt lat="45.69179" lon="6.69127">
        <ele>2080</ele>
        <time>2022-07-16T14:36:48Z</time>
      </trkpt>
      <trkpt lat="45.69181" lon="6.6913">
        <ele>2080</ele>
        <time>2022-07-16T14:36:50Z</time>
      </trkpt>
      <trkpt lat="45.69183" lon="6.69133">
        <ele>2080</ele>
        <time>2022-07-16T14:36:52Z</time>
      </trkpt>
      <trkpt lat="45.69185" lon="6.69135">
        <ele>2080</ele>
        <time>2022-07-16T14:36:54Z</time>
      </trkpt>
      <trkpt lat="45.69187" lon="6.69137">
        <ele>2080</ele>
        <time>2022-07-16T14:36:56Z</time>
      </trkpt>
      <trkpt lat="45.69189" lon="6.69139">
        <ele>2080</ele>
        <time>2022-07-16T14:36:58Z</time>
      </trkpt>
      <trkpt lat="45.69191" lon="6.69142">
        <ele>2080</ele>
        <time>2022-07-16T14:37:00Z</time>
      </trkpt>
      <trkpt lat="45.69193" lon="6.69144">
        <ele>2080</ele>
        <time>2022-07-16T14:37:02Z</time>
      </trkpt>
      <trkpt lat="45.69195" lon="6.69147">
        <ele>2080</ele>
        <time>2022-07-16T14:37:04Z</time>
      </trkpt>
      <trkpt lat="45.69198" lon="6.6915">
        <ele>2080</ele>
        <time>2022-07-16T14:37:06Z</time>
      </trkpt>
      <trkpt lat="45.692" lon="6.69153">
        <ele>2080</ele>
        <time>2022-07-16T14:37:08Z</time>
      </trkpt>
      <trkpt lat="45.69202" lon="6.69155">
        <ele>2080</ele>
        <time>2022-07-16T14:37:10Z</time>
      </trkpt>
      <trkpt lat="45.69203" lon="6.69157">
        <ele>2080</ele>
        <time>2022-07-16T14:37:12Z</time>
      </trkpt>
      <trkpt lat="45.69206" lon="6.6916">
        <ele>2081</ele>
        <time>2022-07-16T14:37:14Z</time>
      </trkpt>
      <trkpt lat="45.69208" lon="6.69161">
        <ele>2081</ele>
        <time>2022-07-16T14:37:16Z</time>
      </trkpt>
      <trkpt lat="45.69211" lon="6.69162">
        <ele>2081</ele>
        <time>2022-07-16T14:37:18Z</time>
      </trkpt>
      <trkpt lat="45.69214" lon="6.69163">
        <ele>2081</ele>
        <time>2022-07-16T14:37:20Z</time>
      </trkpt>
      <trkpt lat="45.69217" lon="6.69165">
        <ele>2081</ele>
        <time>2022-07-16T14:37:22Z</time>
      </trkpt>
      <trkpt lat="45.6922" lon="6.69166">
        <ele>2081</ele>
        <time>2022-07-16T14:37:23Z</time>
      </trkpt>
      <trkpt lat="45.69223" lon="6.69166">
        <ele>2081</ele>
        <time>2022-07-16T14:37:26Z</time>
      </trkpt>
      <trkpt lat="45.69225" lon="6.69167">
        <ele>2081</ele>
        <time>2022-07-16T14:37:28Z</time>
      </trkpt>
      <trkpt lat="45.69228" lon="6.69169">
        <ele>2081</ele>
        <time>2022-07-16T14:37:30Z</time>
      </trkpt>
      <trkpt lat="45.6923" lon="6.69171">
        <ele>2081</ele>
        <time>2022-07-16T14:37:32Z</time>
      </trkpt>
      <trkpt lat="45.69233" lon="6.69172">
        <ele>2081</ele>
        <time>2022-07-16T14:37:34Z</time>
      </trkpt>
      <trkpt lat="45.69236" lon="6.69173">
        <ele>2082</ele>
        <time>2022-07-16T14:37:36Z</time>
      </trkpt>
      <trkpt lat="45.69239" lon="6.69173">
        <ele>2082</ele>
        <time>2022-07-16T14:37:38Z</time>
      </trkpt>
      <trkpt lat="45.69241" lon="6.69174">
        <ele>2082</ele>
        <time>2022-07-16T14:37:40Z</time>
      </trkpt>
      <trkpt lat="45.69244" lon="6.69174">
        <ele>2082</ele>
        <time>2022-07-16T14:37:42Z</time>
      </trkpt>
      <trkpt lat="45.69246" lon="6.69175">
        <ele>2082</ele>
        <time>2022-07-16T14:37:44Z</time>
      </trkpt>
      <trkpt lat="45.69249" lon="6.69175">
        <ele>2082</ele>
        <time>2022-07-16T14:37:46Z</time>
      </trkpt>
      <trkpt lat="45.69252" lon="6.69176">
        <ele>2081</ele>
        <time>2022-07-16T14:37:48Z</time>
      </trkpt>
      <trkpt lat="45.69255" lon="6.69176">
        <ele>2082</ele>
        <time>2022-07-16T14:37:50Z</time>
      </trkpt>
      <trkpt lat="45.69258" lon="6.69177">
        <ele>2082</ele>
        <time>2022-07-16T14:37:52Z</time>
      </trkpt>
      <trkpt lat="45.6926" lon="6.69177">
        <ele>2082</ele>
        <time>2022-07-16T14:37:54Z</time>
      </trkpt>
      <trkpt lat="45.69263" lon="6.69177">
        <ele>2082</ele>
        <time>2022-07-16T14:37:56Z</time>
      </trkpt>
      <trkpt lat="45.69266" lon="6.69178">
        <ele>2082</ele>
        <time>2022-07-16T14:37:58Z</time>
      </trkpt>
      <trkpt lat="45.69268" lon="6.69177">
        <ele>2083</ele>
        <time>2022-07-16T14:38:00Z</time>
      </trkpt>
      <trkpt lat="45.69271" lon="6.69178">
        <ele>2083</ele>
        <time>2022-07-16T14:38:02Z</time>
      </trkpt>
      <trkpt lat="45.69274" lon="6.69177">
        <ele>2083</ele>
        <time>2022-07-16T14:38:04Z</time>
      </trkpt>
      <trkpt lat="45.69277" lon="6.69177">
        <ele>2083</ele>
        <time>2022-07-16T14:38:06Z</time>
      </trkpt>
      <trkpt lat="45.6928" lon="6.69178">
        <ele>2083</ele>
        <time>2022-07-16T14:38:08Z</time>
      </trkpt>
      <trkpt lat="45.69283" lon="6.69178">
        <ele>2084</ele>
        <time>2022-07-16T14:38:10Z</time>
      </trkpt>
      <trkpt lat="45.69285" lon="6.69178">
        <ele>2084</ele>
        <time>2022-07-16T14:38:12Z</time>
      </trkpt>
      <trkpt lat="45.69288" lon="6.69178">
        <ele>2084</ele>
        <time>2022-07-16T14:38:14Z</time>
      </trkpt>
      <trkpt lat="45.69292" lon="6.69178">
        <ele>2084</ele>
        <time>2022-07-16T14:38:16Z</time>
      </trkpt>
      <trkpt lat="45.69294" lon="6.69178">
        <ele>2084</ele>
        <time>2022-07-16T14:38:18Z</time>
      </trkpt>
      <trkpt lat="45.69297" lon="6.69178">
        <ele>2084</ele>
        <time>2022-07-16T14:38:20Z</time>
      </trkpt>
      <trkpt lat="45.693" lon="6.69177">
        <ele>2084</ele>
        <time>2022-07-16T14:38:22Z</time>
      </trkpt>
      <trkpt lat="45.69303" lon="6.69176">
        <ele>2085</ele>
        <time>2022-07-16T14:38:24Z</time>
      </trkpt>
      <trkpt lat="45.69306" lon="6.69176">
        <ele>2085</ele>
        <time>2022-07-16T14:38:26Z</time>
      </trkpt>
      <trkpt lat="45.69309" lon="6.69176">
        <ele>2085</ele>
        <time>2022-07-16T14:38:28Z</time>
      </trkpt>
      <trkpt lat="45.69312" lon="6.69175">
        <ele>2085</ele>
        <time>2022-07-16T14:38:30Z</time>
      </trkpt>
      <trkpt lat="45.69314" lon="6.69175">
        <ele>2085</ele>
        <time>2022-07-16T14:38:32Z</time>
      </trkpt>
      <trkpt lat="45.69317" lon="6.69175">
        <ele>2085</ele>
        <time>2022-07-16T14:38:34Z</time>
      </trkpt>
      <trkpt lat="45.6932" lon="6.69175">
        <ele>2085</ele>
        <time>2022-07-16T14:38:36Z</time>
      </trkpt>
      <trkpt lat="45.69322" lon="6.69175">
        <ele>2085</ele>
        <time>2022-07-16T14:38:38Z</time>
      </trkpt>
      <trkpt lat="45.69326" lon="6.69175">
        <ele>2085</ele>
        <time>2022-07-16T14:38:40Z</time>
      </trkpt>
      <trkpt lat="45.69328" lon="6.69176">
        <ele>2085</ele>
        <time>2022-07-16T14:38:42Z</time>
      </trkpt>
      <trkpt lat="45.69331" lon="6.69176">
        <ele>2085</ele>
        <time>2022-07-16T14:38:44Z</time>
      </trkpt>
      <trkpt lat="45.69334" lon="6.69177">
        <ele>2085</ele>
        <time>2022-07-16T14:38:46Z</time>
      </trkpt>
      <trkpt lat="45.69337" lon="6.69178">
        <ele>2085</ele>
        <time>2022-07-16T14:38:48Z</time>
      </trkpt>
      <trkpt lat="45.6934" lon="6.69179">
        <ele>2085</ele>
        <time>2022-07-16T14:38:50Z</time>
      </trkpt>
      <trkpt lat="45.69342" lon="6.6918">
        <ele>2085</ele>
        <time>2022-07-16T14:38:52Z</time>
      </trkpt>
      <trkpt lat="45.69345" lon="6.69182">
        <ele>2085</ele>
        <time>2022-07-16T14:38:54Z</time>
      </trkpt>
      <trkpt lat="45.69348" lon="6.69184">
        <ele>2085</ele>
        <time>2022-07-16T14:38:56Z</time>
      </trkpt>
      <trkpt lat="45.69351" lon="6.69185">
        <ele>2086</ele>
        <time>2022-07-16T14:38:58Z</time>
      </trkpt>
      <trkpt lat="45.69353" lon="6.69187">
        <ele>2086</ele>
        <time>2022-07-16T14:39:00Z</time>
      </trkpt>
      <trkpt lat="45.69356" lon="6.69188">
        <ele>2086</ele>
        <time>2022-07-16T14:39:02Z</time>
      </trkpt>
      <trkpt lat="45.69358" lon="6.6919">
        <ele>2086</ele>
        <time>2022-07-16T14:39:04Z</time>
      </trkpt>
      <trkpt lat="45.69361" lon="6.69193">
        <ele>2086</ele>
        <time>2022-07-16T14:39:06Z</time>
      </trkpt>
      <trkpt lat="45.69363" lon="6.69195">
        <ele>2086</ele>
        <time>2022-07-16T14:39:08Z</time>
      </trkpt>
      <trkpt lat="45.69365" lon="6.69199">
        <ele>2087</ele>
        <time>2022-07-16T14:39:10Z</time>
      </trkpt>
      <trkpt lat="45.69367" lon="6.69202">
        <ele>2087</ele>
        <time>2022-07-16T14:39:12Z</time>
      </trkpt>
      <trkpt lat="45.69369" lon="6.69205">
        <ele>2087</ele>
        <time>2022-07-16T14:39:14Z</time>
      </trkpt>
      <trkpt lat="45.69371" lon="6.69208">
        <ele>2087</ele>
        <time>2022-07-16T14:39:16Z</time>
      </trkpt>
      <trkpt lat="45.69373" lon="6.69211">
        <ele>2087</ele>
        <time>2022-07-16T14:39:17Z</time>
      </trkpt>
      <trkpt lat="45.69375" lon="6.69214">
        <ele>2087</ele>
        <time>2022-07-16T14:39:20Z</time>
      </trkpt>
      <trkpt lat="45.69377" lon="6.69217">
        <ele>2087</ele>
        <time>2022-07-16T14:39:22Z</time>
      </trkpt>
      <trkpt lat="45.69379" lon="6.6922">
        <ele>2087</ele>
        <time>2022-07-16T14:39:24Z</time>
      </trkpt>
      <trkpt lat="45.69381" lon="6.69223">
        <ele>2087</ele>
        <time>2022-07-16T14:39:26Z</time>
      </trkpt>
      <trkpt lat="45.69383" lon="6.69225">
        <ele>2087</ele>
        <time>2022-07-16T14:39:28Z</time>
      </trkpt>
      <trkpt lat="45.69385" lon="6.69228">
        <ele>2087</ele>
        <time>2022-07-16T14:39:30Z</time>
      </trkpt>
      <trkpt lat="45.69387" lon="6.69231">
        <ele>2087</ele>
        <time>2022-07-16T14:39:32Z</time>
      </trkpt>
      <trkpt lat="45.69389" lon="6.69233">
        <ele>2088</ele>
        <time>2022-07-16T14:39:34Z</time>
      </trkpt>
      <trkpt lat="45.69391" lon="6.69236">
        <ele>2088</ele>
        <time>2022-07-16T14:39:36Z</time>
      </trkpt>
      <trkpt lat="45.69393" lon="6.69238">
        <ele>2088</ele>
        <time>2022-07-16T14:39:38Z</time>
      </trkpt>
      <trkpt lat="45.69395" lon="6.6924">
        <ele>2088</ele>
        <time>2022-07-16T14:39:39Z</time>
      </trkpt>
      <trkpt lat="45.69397" lon="6.69242">
        <ele>2088</ele>
        <time>2022-07-16T14:39:41Z</time>
      </trkpt>
      <trkpt lat="45.69399" lon="6.69244">
        <ele>2089</ele>
        <time>2022-07-16T14:39:43Z</time>
      </trkpt>
      <trkpt lat="45.69401" lon="6.69246">
        <ele>2089</ele>
        <time>2022-07-16T14:39:45Z</time>
      </trkpt>
      <trkpt lat="45.69403" lon="6.69249">
        <ele>2089</ele>
        <time>2022-07-16T14:39:47Z</time>
      </trkpt>
      <trkpt lat="45.69405" lon="6.69251">
        <ele>2089</ele>
        <time>2022-07-16T14:39:49Z</time>
      </trkpt>
      <trkpt lat="45.69407" lon="6.69254">
        <ele>2089</ele>
        <time>2022-07-16T14:39:51Z</time>
      </trkpt>
      <trkpt lat="45.6941" lon="6.69256">
        <ele>2089</ele>
        <time>2022-07-16T14:39:53Z</time>
      </trkpt>
      <trkpt lat="45.69412" lon="6.69259">
        <ele>2089</ele>
        <time>2022-07-16T14:39:55Z</time>
      </trkpt>
      <trkpt lat="45.69414" lon="6.69262">
        <ele>2090</ele>
        <time>2022-07-16T14:39:57Z</time>
      </trkpt>
      <trkpt lat="45.69417" lon="6.69265">
        <ele>2090</ele>
        <time>2022-07-16T14:39:59Z</time>
      </trkpt>
      <trkpt lat="45.69419" lon="6.69268">
        <ele>2090</ele>
        <time>2022-07-16T14:40:01Z</time>
      </trkpt>
      <trkpt lat="45.69421" lon="6.69271">
        <ele>2090</ele>
        <time>2022-07-16T14:40:03Z</time>
      </trkpt>
      <trkpt lat="45.69423" lon="6.69274">
        <ele>2090</ele>
        <time>2022-07-16T14:40:05Z</time>
      </trkpt>
      <trkpt lat="45.69425" lon="6.69276">
        <ele>2092</ele>
        <time>2022-07-16T14:40:07Z</time>
      </trkpt>
      <trkpt lat="45.69428" lon="6.69279">
        <ele>2092</ele>
        <time>2022-07-16T14:40:09Z</time>
      </trkpt>
      <trkpt lat="45.6943" lon="6.69281">
        <ele>2092</ele>
        <time>2022-07-16T14:40:11Z</time>
      </trkpt>
      <trkpt lat="45.69432" lon="6.69283">
        <ele>2092</ele>
        <time>2022-07-16T14:40:13Z</time>
      </trkpt>
      <trkpt lat="45.69434" lon="6.69287">
        <ele>2092</ele>
        <time>2022-07-16T14:40:15Z</time>
      </trkpt>
      <trkpt lat="45.69436" lon="6.69289">
        <ele>2092</ele>
        <time>2022-07-16T14:40:17Z</time>
      </trkpt>
      <trkpt lat="45.69438" lon="6.69292">
        <ele>2092</ele>
        <time>2022-07-16T14:40:19Z</time>
      </trkpt>
      <trkpt lat="45.69441" lon="6.69294">
        <ele>2092</ele>
        <time>2022-07-16T14:40:21Z</time>
      </trkpt>
      <trkpt lat="45.69443" lon="6.69297">
        <ele>2092</ele>
        <time>2022-07-16T14:40:23Z</time>
      </trkpt>
      <trkpt lat="45.69445" lon="6.69299">
        <ele>2093</ele>
        <time>2022-07-16T14:40:25Z</time>
      </trkpt>
      <trkpt lat="45.69447" lon="6.69302">
        <ele>2093</ele>
        <time>2022-07-16T14:40:27Z</time>
      </trkpt>
      <trkpt lat="45.69448" lon="6.69305">
        <ele>2093</ele>
        <time>2022-07-16T14:40:29Z</time>
      </trkpt>
      <trkpt lat="45.6945" lon="6.69308">
        <ele>2093</ele>
        <time>2022-07-16T14:40:31Z</time>
      </trkpt>
      <trkpt lat="45.69452" lon="6.69311">
        <ele>2094</ele>
        <time>2022-07-16T14:40:33Z</time>
      </trkpt>
      <trkpt lat="45.69455" lon="6.69314">
        <ele>2094</ele>
        <time>2022-07-16T14:40:35Z</time>
      </trkpt>
      <trkpt lat="45.69457" lon="6.69317">
        <ele>2095</ele>
        <time>2022-07-16T14:40:37Z</time>
      </trkpt>
      <trkpt lat="45.69458" lon="6.69321">
        <ele>2095</ele>
        <time>2022-07-16T14:40:39Z</time>
      </trkpt>
      <trkpt lat="45.6946" lon="6.69324">
        <ele>2095</ele>
        <time>2022-07-16T14:40:41Z</time>
      </trkpt>
      <trkpt lat="45.69462" lon="6.69327">
        <ele>2095</ele>
        <time>2022-07-16T14:40:43Z</time>
      </trkpt>
      <trkpt lat="45.69464" lon="6.6933">
        <ele>2095</ele>
        <time>2022-07-16T14:40:45Z</time>
      </trkpt>
      <trkpt lat="45.69466" lon="6.69333">
        <ele>2095</ele>
        <time>2022-07-16T14:40:47Z</time>
      </trkpt>
      <trkpt lat="45.69467" lon="6.69337">
        <ele>2096</ele>
        <time>2022-07-16T14:40:49Z</time>
      </trkpt>
      <trkpt lat="45.69469" lon="6.6934">
        <ele>2096</ele>
        <time>2022-07-16T14:40:51Z</time>
      </trkpt>
      <trkpt lat="45.6947" lon="6.69344">
        <ele>2096</ele>
        <time>2022-07-16T14:40:53Z</time>
      </trkpt>
      <trkpt lat="45.69472" lon="6.69347">
        <ele>2096</ele>
        <time>2022-07-16T14:40:55Z</time>
      </trkpt>
      <trkpt lat="45.69474" lon="6.6935">
        <ele>2096</ele>
        <time>2022-07-16T14:40:57Z</time>
      </trkpt>
      <trkpt lat="45.69476" lon="6.69353">
        <ele>2097</ele>
        <time>2022-07-16T14:40:59Z</time>
      </trkpt>
      <trkpt lat="45.69478" lon="6.69356">
        <ele>2097</ele>
        <time>2022-07-16T14:41:00Z</time>
      </trkpt>
      <trkpt lat="45.6948" lon="6.69359">
        <ele>2097</ele>
        <time>2022-07-16T14:41:03Z</time>
      </trkpt>
      <trkpt lat="45.69482" lon="6.69362">
        <ele>2097</ele>
        <time>2022-07-16T14:41:05Z</time>
      </trkpt>
      <trkpt lat="45.69485" lon="6.69364">
        <ele>2097</ele>
        <time>2022-07-16T14:41:07Z</time>
      </trkpt>
      <trkpt lat="45.69488" lon="6.69367">
        <ele>2097</ele>
        <time>2022-07-16T14:41:09Z</time>
      </trkpt>
      <trkpt lat="45.6949" lon="6.69369">
        <ele>2097</ele>
        <time>2022-07-16T14:41:11Z</time>
      </trkpt>
      <trkpt lat="45.69493" lon="6.69372">
        <ele>2097</ele>
        <time>2022-07-16T14:41:13Z</time>
      </trkpt>
      <trkpt lat="45.69496" lon="6.69373">
        <ele>2098</ele>
        <time>2022-07-16T14:41:15Z</time>
      </trkpt>
      <trkpt lat="45.69499" lon="6.69375">
        <ele>2098</ele>
        <time>2022-07-16T14:41:17Z</time>
      </trkpt>
      <trkpt lat="45.69502" lon="6.69376">
        <ele>2097</ele>
        <time>2022-07-16T14:41:19Z</time>
      </trkpt>
      <trkpt lat="45.69504" lon="6.69377">
        <ele>2098</ele>
        <time>2022-07-16T14:41:21Z</time>
      </trkpt>
      <trkpt lat="45.69507" lon="6.69379">
        <ele>2098</ele>
        <time>2022-07-16T14:41:23Z</time>
      </trkpt>
      <trkpt lat="45.6951" lon="6.6938">
        <ele>2098</ele>
        <time>2022-07-16T14:41:25Z</time>
      </trkpt>
      <trkpt lat="45.69513" lon="6.6938">
        <ele>2098</ele>
        <time>2022-07-16T14:41:27Z</time>
      </trkpt>
      <trkpt lat="45.69516" lon="6.69381">
        <ele>2098</ele>
        <time>2022-07-16T14:41:29Z</time>
      </trkpt>
      <trkpt lat="45.69519" lon="6.69381">
        <ele>2098</ele>
        <time>2022-07-16T14:41:30Z</time>
      </trkpt>
      <trkpt lat="45.69522" lon="6.69382">
        <ele>2098</ele>
        <time>2022-07-16T14:41:33Z</time>
      </trkpt>
      <trkpt lat="45.69526" lon="6.69382">
        <ele>2098</ele>
        <time>2022-07-16T14:41:35Z</time>
      </trkpt>
      <trkpt lat="45.69529" lon="6.69382">
        <ele>2098</ele>
        <time>2022-07-16T14:41:37Z</time>
      </trkpt>
      <trkpt lat="45.69531" lon="6.69382">
        <ele>2099</ele>
        <time>2022-07-16T14:41:39Z</time>
      </trkpt>
      <trkpt lat="45.69534" lon="6.69381">
        <ele>2099</ele>
        <time>2022-07-16T14:41:41Z</time>
      </trkpt>
      <trkpt lat="45.69537" lon="6.6938">
        <ele>2099</ele>
        <time>2022-07-16T14:41:43Z</time>
      </trkpt>
      <trkpt lat="45.6954" lon="6.69379">
        <ele>2099</ele>
        <time>2022-07-16T14:41:45Z</time>
      </trkpt>
      <trkpt lat="45.69543" lon="6.69378">
        <ele>2099</ele>
        <time>2022-07-16T14:41:47Z</time>
      </trkpt>
      <trkpt lat="45.69546" lon="6.69376">
        <ele>2100</ele>
        <time>2022-07-16T14:41:49Z</time>
      </trkpt>
      <trkpt lat="45.69549" lon="6.69375">
        <ele>2100</ele>
        <time>2022-07-16T14:41:51Z</time>
      </trkpt>
      <trkpt lat="45.69552" lon="6.69373">
        <ele>2100</ele>
        <time>2022-07-16T14:41:53Z</time>
      </trkpt>
      <trkpt lat="45.69555" lon="6.69372">
        <ele>2100</ele>
        <time>2022-07-16T14:41:55Z</time>
      </trkpt>
      <trkpt lat="45.69558" lon="6.6937">
        <ele>2099</ele>
        <time>2022-07-16T14:41:57Z</time>
      </trkpt>
      <trkpt lat="45.69561" lon="6.69369">
        <ele>2099</ele>
        <time>2022-07-16T14:41:59Z</time>
      </trkpt>
      <trkpt lat="45.69563" lon="6.69368">
        <ele>2099</ele>
        <time>2022-07-16T14:42:01Z</time>
      </trkpt>
      <trkpt lat="45.69566" lon="6.69366">
        <ele>2099</ele>
        <time>2022-07-16T14:42:03Z</time>
      </trkpt>
      <trkpt lat="45.69569" lon="6.69365">
        <ele>2099</ele>
        <time>2022-07-16T14:42:05Z</time>
      </trkpt>
      <trkpt lat="45.69572" lon="6.69364">
        <ele>2099</ele>
        <time>2022-07-16T14:42:07Z</time>
      </trkpt>
      <trkpt lat="45.69575" lon="6.69362">
        <ele>2100</ele>
        <time>2022-07-16T14:42:09Z</time>
      </trkpt>
      <trkpt lat="45.69578" lon="6.6936">
        <ele>2098</ele>
        <time>2022-07-16T14:42:11Z</time>
      </trkpt>
      <trkpt lat="45.6958" lon="6.69358">
        <ele>2099</ele>
        <time>2022-07-16T14:42:13Z</time>
      </trkpt>
      <trkpt lat="45.69583" lon="6.69355">
        <ele>2099</ele>
        <time>2022-07-16T14:42:15Z</time>
      </trkpt>
      <trkpt lat="45.69586" lon="6.69353">
        <ele>2099</ele>
        <time>2022-07-16T14:42:17Z</time>
      </trkpt>
      <trkpt lat="45.69588" lon="6.69351">
        <ele>2099</ele>
        <time>2022-07-16T14:42:19Z</time>
      </trkpt>
      <trkpt lat="45.69591" lon="6.69349">
        <ele>2100</ele>
        <time>2022-07-16T14:42:21Z</time>
      </trkpt>
      <trkpt lat="45.69593" lon="6.69347">
        <ele>2100</ele>
        <time>2022-07-16T14:42:23Z</time>
      </trkpt>
      <trkpt lat="45.69596" lon="6.69346">
        <ele>2099</ele>
        <time>2022-07-16T14:42:25Z</time>
      </trkpt>
      <trkpt lat="45.69598" lon="6.69344">
        <ele>2100</ele>
        <time>2022-07-16T14:42:27Z</time>
      </trkpt>
      <trkpt lat="45.69601" lon="6.69343">
        <ele>2100</ele>
        <time>2022-07-16T14:42:29Z</time>
      </trkpt>
      <trkpt lat="45.69604" lon="6.69342">
        <ele>2100</ele>
        <time>2022-07-16T14:42:31Z</time>
      </trkpt>
      <trkpt lat="45.69606" lon="6.6934">
        <ele>2101</ele>
        <time>2022-07-16T14:42:33Z</time>
      </trkpt>
      <trkpt lat="45.69609" lon="6.69339">
        <ele>2101</ele>
        <time>2022-07-16T14:42:35Z</time>
      </trkpt>
      <trkpt lat="45.69612" lon="6.69338">
        <ele>2101</ele>
        <time>2022-07-16T14:42:37Z</time>
      </trkpt>
      <trkpt lat="45.69614" lon="6.69338">
        <ele>2101</ele>
        <time>2022-07-16T14:42:39Z</time>
      </trkpt>
      <trkpt lat="45.69617" lon="6.69337">
        <ele>2102</ele>
        <time>2022-07-16T14:42:41Z</time>
      </trkpt>
      <trkpt lat="45.6962" lon="6.69337">
        <ele>2102</ele>
        <time>2022-07-16T14:42:43Z</time>
      </trkpt>
      <trkpt lat="45.69623" lon="6.69337">
        <ele>2101</ele>
        <time>2022-07-16T14:42:45Z</time>
      </trkpt>
      <trkpt lat="45.69626" lon="6.69338">
        <ele>2101</ele>
        <time>2022-07-16T14:42:47Z</time>
      </trkpt>
      <trkpt lat="45.69628" lon="6.69339">
        <ele>2101</ele>
        <time>2022-07-16T14:42:49Z</time>
      </trkpt>
      <trkpt lat="45.69631" lon="6.69341">
        <ele>2101</ele>
        <time>2022-07-16T14:42:51Z</time>
      </trkpt>
      <trkpt lat="45.69634" lon="6.69342">
        <ele>2101</ele>
        <time>2022-07-16T14:42:52Z</time>
      </trkpt>
      <trkpt lat="45.69637" lon="6.69344">
        <ele>2101</ele>
        <time>2022-07-16T14:42:55Z</time>
      </trkpt>
      <trkpt lat="45.6964" lon="6.69346">
        <ele>2101</ele>
        <time>2022-07-16T14:42:57Z</time>
      </trkpt>
      <trkpt lat="45.69642" lon="6.69347">
        <ele>2101</ele>
        <time>2022-07-16T14:42:59Z</time>
      </trkpt>
      <trkpt lat="45.69645" lon="6.69348">
        <ele>2102</ele>
        <time>2022-07-16T14:43:01Z</time>
      </trkpt>
      <trkpt lat="45.69648" lon="6.69349">
        <ele>2102</ele>
        <time>2022-07-16T14:43:03Z</time>
      </trkpt>
      <trkpt lat="45.69651" lon="6.69349">
        <ele>2102</ele>
        <time>2022-07-16T14:43:05Z</time>
      </trkpt>
      <trkpt lat="45.69654" lon="6.69349">
        <ele>2102</ele>
        <time>2022-07-16T14:43:07Z</time>
      </trkpt>
      <trkpt lat="45.69657" lon="6.69348">
        <ele>2101</ele>
        <time>2022-07-16T14:43:09Z</time>
      </trkpt>
      <trkpt lat="45.6966" lon="6.69348">
        <ele>2101</ele>
        <time>2022-07-16T14:43:11Z</time>
      </trkpt>
      <trkpt lat="45.69662" lon="6.69348">
        <ele>2101</ele>
        <time>2022-07-16T14:43:13Z</time>
      </trkpt>
      <trkpt lat="45.69665" lon="6.69348">
        <ele>2101</ele>
        <time>2022-07-16T14:43:15Z</time>
      </trkpt>
      <trkpt lat="45.69668" lon="6.69348">
        <ele>2102</ele>
        <time>2022-07-16T14:43:17Z</time>
      </trkpt>
      <trkpt lat="45.69671" lon="6.69348">
        <ele>2102</ele>
        <time>2022-07-16T14:43:19Z</time>
      </trkpt>
      <trkpt lat="45.69674" lon="6.69349">
        <ele>2103</ele>
        <time>2022-07-16T14:43:21Z</time>
      </trkpt>
      <trkpt lat="45.69677" lon="6.69349">
        <ele>2102</ele>
        <time>2022-07-16T14:43:23Z</time>
      </trkpt>
      <trkpt lat="45.6968" lon="6.6935">
        <ele>2102</ele>
        <time>2022-07-16T14:43:24Z</time>
      </trkpt>
      <trkpt lat="45.69682" lon="6.69352">
        <ele>2102</ele>
        <time>2022-07-16T14:43:27Z</time>
      </trkpt>
      <trkpt lat="45.69685" lon="6.69352">
        <ele>2102</ele>
        <time>2022-07-16T14:43:29Z</time>
      </trkpt>
      <trkpt lat="45.69688" lon="6.69353">
        <ele>2102</ele>
        <time>2022-07-16T14:43:31Z</time>
      </trkpt>
      <trkpt lat="45.69691" lon="6.69354">
        <ele>2103</ele>
        <time>2022-07-16T14:43:33Z</time>
      </trkpt>
      <trkpt lat="45.69694" lon="6.69356">
        <ele>2103</ele>
        <time>2022-07-16T14:43:35Z</time>
      </trkpt>
      <trkpt lat="45.69697" lon="6.69357">
        <ele>2103</ele>
        <time>2022-07-16T14:43:37Z</time>
      </trkpt>
      <trkpt lat="45.697" lon="6.69358">
        <ele>2103</ele>
        <time>2022-07-16T14:43:39Z</time>
      </trkpt>
      <trkpt lat="45.69703" lon="6.69359">
        <ele>2104</ele>
        <time>2022-07-16T14:43:41Z</time>
      </trkpt>
      <trkpt lat="45.69706" lon="6.6936">
        <ele>2104</ele>
        <time>2022-07-16T14:43:43Z</time>
      </trkpt>
      <trkpt lat="45.69709" lon="6.69361">
        <ele>2104</ele>
        <time>2022-07-16T14:43:45Z</time>
      </trkpt>
      <trkpt lat="45.69712" lon="6.69361">
        <ele>2104</ele>
        <time>2022-07-16T14:43:47Z</time>
      </trkpt>
      <trkpt lat="45.69715" lon="6.69362">
        <ele>2104</ele>
        <time>2022-07-16T14:43:49Z</time>
      </trkpt>
      <trkpt lat="45.69718" lon="6.69362">
        <ele>2104</ele>
        <time>2022-07-16T14:43:51Z</time>
      </trkpt>
      <trkpt lat="45.69721" lon="6.69362">
        <ele>2104</ele>
        <time>2022-07-16T14:43:53Z</time>
      </trkpt>
      <trkpt lat="45.69724" lon="6.69363">
        <ele>2104</ele>
        <time>2022-07-16T14:43:55Z</time>
      </trkpt>
      <trkpt lat="45.69726" lon="6.69364">
        <ele>2104</ele>
        <time>2022-07-16T14:43:56Z</time>
      </trkpt>
      <trkpt lat="45.69728" lon="6.69364">
        <ele>2104</ele>
        <time>2022-07-16T14:43:57Z</time>
      </trkpt>
      <trkpt lat="45.6973" lon="6.69365">
        <ele>2103</ele>
        <time>2022-07-16T14:43:58Z</time>
      </trkpt>
      <trkpt lat="45.69732" lon="6.69366">
        <ele>2103</ele>
        <time>2022-07-16T14:43:59Z</time>
      </trkpt>
      <trkpt lat="45.69734" lon="6.69367">
        <ele>2103</ele>
        <time>2022-07-16T14:44:00Z</time>
      </trkpt>
      <trkpt lat="45.69736" lon="6.69368">
        <ele>2103</ele>
        <time>2022-07-16T14:44:01Z</time>
      </trkpt>
      <trkpt lat="45.69739" lon="6.69369">
        <ele>2103</ele>
        <time>2022-07-16T14:44:02Z</time>
      </trkpt>
      <trkpt lat="45.69741" lon="6.69371">
        <ele>2103</ele>
        <time>2022-07-16T14:44:03Z</time>
      </trkpt>
      <trkpt lat="45.69743" lon="6.69372">
        <ele>2103</ele>
        <time>2022-07-16T14:44:04Z</time>
      </trkpt>
      <trkpt lat="45.69745" lon="6.69374">
        <ele>2103</ele>
        <time>2022-07-16T14:44:05Z</time>
      </trkpt>
      <trkpt lat="45.69747" lon="6.69375">
        <ele>2102</ele>
        <time>2022-07-16T14:44:06Z</time>
      </trkpt>
      <trkpt lat="45.69749" lon="6.69377">
        <ele>2103</ele>
        <time>2022-07-16T14:44:07Z</time>
      </trkpt>
      <trkpt lat="45.69751" lon="6.69378">
        <ele>2103</ele>
        <time>2022-07-16T14:44:08Z</time>
      </trkpt>
      <trkpt lat="45.69754" lon="6.69381">
        <ele>2103</ele>
        <time>2022-07-16T14:44:10Z</time>
      </trkpt>
      <trkpt lat="45.69757" lon="6.69383">
        <ele>2103</ele>
        <time>2022-07-16T14:44:12Z</time>
      </trkpt>
      <trkpt lat="45.69759" lon="6.69385">
        <ele>2103</ele>
        <time>2022-07-16T14:44:14Z</time>
      </trkpt>
      <trkpt lat="45.69762" lon="6.69388">
        <ele>2103</ele>
        <time>2022-07-16T14:44:16Z</time>
      </trkpt>
      <trkpt lat="45.69765" lon="6.6939">
        <ele>2103</ele>
        <time>2022-07-16T14:44:18Z</time>
      </trkpt>
      <trkpt lat="45.69767" lon="6.69392">
        <ele>2104</ele>
        <time>2022-07-16T14:44:20Z</time>
      </trkpt>
      <trkpt lat="45.69769" lon="6.69395">
        <ele>2104</ele>
        <time>2022-07-16T14:44:22Z</time>
      </trkpt>
      <trkpt lat="45.69772" lon="6.69397">
        <ele>2104</ele>
        <time>2022-07-16T14:44:24Z</time>
      </trkpt>
      <trkpt lat="45.69774" lon="6.69399">
        <ele>2105</ele>
        <time>2022-07-16T14:44:26Z</time>
      </trkpt>
      <trkpt lat="45.69776" lon="6.69401">
        <ele>2105</ele>
        <time>2022-07-16T14:44:28Z</time>
      </trkpt>
      <trkpt lat="45.69778" lon="6.69403">
        <ele>2105</ele>
        <time>2022-07-16T14:44:30Z</time>
      </trkpt>
      <trkpt lat="45.69781" lon="6.69406">
        <ele>2105</ele>
        <time>2022-07-16T14:44:32Z</time>
      </trkpt>
      <trkpt lat="45.69783" lon="6.69408">
        <ele>2105</ele>
        <time>2022-07-16T14:44:34Z</time>
      </trkpt>
      <trkpt lat="45.69785" lon="6.6941">
        <ele>2105</ele>
        <time>2022-07-16T14:44:36Z</time>
      </trkpt>
      <trkpt lat="45.69787" lon="6.69412">
        <ele>2106</ele>
        <time>2022-07-16T14:44:38Z</time>
      </trkpt>
      <trkpt lat="45.69789" lon="6.69414">
        <ele>2107</ele>
        <time>2022-07-16T14:44:40Z</time>
      </trkpt>
      <trkpt lat="45.69791" lon="6.69416">
        <ele>2107</ele>
        <time>2022-07-16T14:44:41Z</time>
      </trkpt>
      <trkpt lat="45.69793" lon="6.69419">
        <ele>2107</ele>
        <time>2022-07-16T14:44:44Z</time>
      </trkpt>
      <trkpt lat="45.69795" lon="6.69421">
        <ele>2107</ele>
        <time>2022-07-16T14:44:46Z</time>
      </trkpt>
      <trkpt lat="45.69796" lon="6.69424">
        <ele>2107</ele>
        <time>2022-07-16T14:44:48Z</time>
      </trkpt>
      <trkpt lat="45.69798" lon="6.69426">
        <ele>2107</ele>
        <time>2022-07-16T14:44:50Z</time>
      </trkpt>
      <trkpt lat="45.69801" lon="6.69428">
        <ele>2108</ele>
        <time>2022-07-16T14:44:52Z</time>
      </trkpt>
      <trkpt lat="45.69803" lon="6.6943">
        <ele>2108</ele>
        <time>2022-07-16T14:44:54Z</time>
      </trkpt>
      <trkpt lat="45.69805" lon="6.69432">
        <ele>2108</ele>
        <time>2022-07-16T14:44:56Z</time>
      </trkpt>
      <trkpt lat="45.69808" lon="6.69434">
        <ele>2108</ele>
        <time>2022-07-16T14:44:58Z</time>
      </trkpt>
      <trkpt lat="45.6981" lon="6.69436">
        <ele>2108</ele>
        <time>2022-07-16T14:45:00Z</time>
      </trkpt>
      <trkpt lat="45.69812" lon="6.69437">
        <ele>2109</ele>
        <time>2022-07-16T14:45:01Z</time>
      </trkpt>
      <trkpt lat="45.69815" lon="6.69438">
        <ele>2110</ele>
        <time>2022-07-16T14:45:04Z</time>
      </trkpt>
      <trkpt lat="45.69817" lon="6.69439">
        <ele>2110</ele>
        <time>2022-07-16T14:45:06Z</time>
      </trkpt>
      <trkpt lat="45.6982" lon="6.69438">
        <ele>2110</ele>
        <time>2022-07-16T14:45:08Z</time>
      </trkpt>
      <trkpt lat="45.69822" lon="6.69438">
        <ele>2110</ele>
        <time>2022-07-16T14:45:10Z</time>
      </trkpt>
      <trkpt lat="45.69825" lon="6.69438">
        <ele>2109</ele>
        <time>2022-07-16T14:45:12Z</time>
      </trkpt>
      <trkpt lat="45.69827" lon="6.69438">
        <ele>2108</ele>
        <time>2022-07-16T14:45:13Z</time>
      </trkpt>
      <trkpt lat="45.69829" lon="6.69437">
        <ele>2108</ele>
        <time>2022-07-16T14:45:14Z</time>
      </trkpt>
      <trkpt lat="45.69831" lon="6.69436">
        <ele>2108</ele>
        <time>2022-07-16T14:45:15Z</time>
      </trkpt>
      <trkpt lat="45.69833" lon="6.69435">
        <ele>2108</ele>
        <time>2022-07-16T14:45:16Z</time>
      </trkpt>
      <trkpt lat="45.69835" lon="6.69434">
        <ele>2108</ele>
        <time>2022-07-16T14:45:17Z</time>
      </trkpt>
      <trkpt lat="45.69837" lon="6.69432">
        <ele>2107</ele>
        <time>2022-07-16T14:45:18Z</time>
      </trkpt>
      <trkpt lat="45.69838" lon="6.6943">
        <ele>2107</ele>
        <time>2022-07-16T14:45:19Z</time>
      </trkpt>
      <trkpt lat="45.6984" lon="6.69428">
        <ele>2107</ele>
        <time>2022-07-16T14:45:20Z</time>
      </trkpt>
      <trkpt lat="45.69841" lon="6.69426">
        <ele>2106</ele>
        <time>2022-07-16T14:45:21Z</time>
      </trkpt>
      <trkpt lat="45.69843" lon="6.69424">
        <ele>2106</ele>
        <time>2022-07-16T14:45:22Z</time>
      </trkpt>
      <trkpt lat="45.69844" lon="6.69421">
        <ele>2106</ele>
        <time>2022-07-16T14:45:23Z</time>
      </trkpt>
      <trkpt lat="45.69844" lon="6.69418">
        <ele>2105</ele>
        <time>2022-07-16T14:45:24Z</time>
      </trkpt>
      <trkpt lat="45.69844" lon="6.69415">
        <ele>2105</ele>
        <time>2022-07-16T14:45:25Z</time>
      </trkpt>
      <trkpt lat="45.69843" lon="6.69412">
        <ele>2105</ele>
        <time>2022-07-16T14:45:26Z</time>
      </trkpt>
      <trkpt lat="45.69843" lon="6.69409">
        <ele>2105</ele>
        <time>2022-07-16T14:45:27Z</time>
      </trkpt>
      <trkpt lat="45.69842" lon="6.69406">
        <ele>2105</ele>
        <time>2022-07-16T14:45:28Z</time>
      </trkpt>
      <trkpt lat="45.69842" lon="6.69403">
        <ele>2105</ele>
        <time>2022-07-16T14:45:29Z</time>
      </trkpt>
      <trkpt lat="45.69841" lon="6.694">
        <ele>2105</ele>
        <time>2022-07-16T14:45:30Z</time>
      </trkpt>
      <trkpt lat="45.69841" lon="6.69397">
        <ele>2105</ele>
        <time>2022-07-16T14:45:31Z</time>
      </trkpt>
      <trkpt lat="45.6984" lon="6.69392">
        <ele>2105</ele>
        <time>2022-07-16T14:45:32Z</time>
      </trkpt>
      <trkpt lat="45.6984" lon="6.69391">
        <ele>2105</ele>
        <time>2022-07-16T14:45:33Z</time>
      </trkpt>
      <trkpt lat="45.6984" lon="6.69388">
        <ele>2106</ele>
        <time>2022-07-16T14:45:34Z</time>
      </trkpt>
      <trkpt lat="45.6984" lon="6.69385">
        <ele>2106</ele>
        <time>2022-07-16T14:45:35Z</time>
      </trkpt>
      <trkpt lat="45.6984" lon="6.6938">
        <ele>2106</ele>
        <time>2022-07-16T14:45:37Z</time>
      </trkpt>
      <trkpt lat="45.69841" lon="6.69376">
        <ele>2106</ele>
        <time>2022-07-16T14:45:39Z</time>
      </trkpt>
      <trkpt lat="45.69841" lon="6.69371">
        <ele>2107</ele>
        <time>2022-07-16T14:45:41Z</time>
      </trkpt>
      <trkpt lat="45.6984" lon="6.69367">
        <ele>2107</ele>
        <time>2022-07-16T14:45:43Z</time>
      </trkpt>
      <trkpt lat="45.69838" lon="6.69362">
        <ele>2107</ele>
        <time>2022-07-16T14:45:45Z</time>
      </trkpt>
      <trkpt lat="45.69837" lon="6.69357">
        <ele>2107</ele>
        <time>2022-07-16T14:45:47Z</time>
      </trkpt>
      <trkpt lat="45.69836" lon="6.69352">
        <ele>2107</ele>
        <time>2022-07-16T14:45:49Z</time>
      </trkpt>
      <trkpt lat="45.69836" lon="6.69348">
        <ele>2107</ele>
        <time>2022-07-16T14:45:51Z</time>
      </trkpt>
      <trkpt lat="45.69835" lon="6.69343">
        <ele>2106</ele>
        <time>2022-07-16T14:45:53Z</time>
      </trkpt>
      <trkpt lat="45.69834" lon="6.69339">
        <ele>2106</ele>
        <time>2022-07-16T14:45:55Z</time>
      </trkpt>
      <trkpt lat="45.69834" lon="6.69335">
        <ele>2106</ele>
        <time>2022-07-16T14:45:56Z</time>
      </trkpt>
      <trkpt lat="45.69833" lon="6.69331">
        <ele>2106</ele>
        <time>2022-07-16T14:45:59Z</time>
      </trkpt>
      <trkpt lat="45.69832" lon="6.69327">
        <ele>2106</ele>
        <time>2022-07-16T14:46:01Z</time>
      </trkpt>
      <trkpt lat="45.69831" lon="6.69323">
        <ele>2106</ele>
        <time>2022-07-16T14:46:03Z</time>
      </trkpt>
      <trkpt lat="45.6983" lon="6.6932">
        <ele>2106</ele>
        <time>2022-07-16T14:46:05Z</time>
      </trkpt>
      <trkpt lat="45.69829" lon="6.69317">
        <ele>2107</ele>
        <time>2022-07-16T14:46:07Z</time>
      </trkpt>
      <trkpt lat="45.69829" lon="6.69314">
        <ele>2108</ele>
        <time>2022-07-16T14:46:09Z</time>
      </trkpt>
      <trkpt lat="45.69828" lon="6.69311">
        <ele>2108</ele>
        <time>2022-07-16T14:46:11Z</time>
      </trkpt>
      <trkpt lat="45.69828" lon="6.69308">
        <ele>2108</ele>
        <time>2022-07-16T14:46:13Z</time>
      </trkpt>
      <trkpt lat="45.69828" lon="6.69305">
        <ele>2108</ele>
        <time>2022-07-16T14:46:15Z</time>
      </trkpt>
      <trkpt lat="45.69827" lon="6.69302">
        <ele>2108</ele>
        <time>2022-07-16T14:46:17Z</time>
      </trkpt>
      <trkpt lat="45.69827" lon="6.69299">
        <ele>2109</ele>
        <time>2022-07-16T14:46:19Z</time>
      </trkpt>
      <trkpt lat="45.69827" lon="6.69295">
        <ele>2109</ele>
        <time>2022-07-16T14:46:21Z</time>
      </trkpt>
      <trkpt lat="45.69827" lon="6.6929">
        <ele>2109</ele>
        <time>2022-07-16T14:46:23Z</time>
      </trkpt>
      <trkpt lat="45.69827" lon="6.69286">
        <ele>2109</ele>
        <time>2022-07-16T14:46:25Z</time>
      </trkpt>
      <trkpt lat="45.69827" lon="6.69282">
        <ele>2109</ele>
        <time>2022-07-16T14:46:27Z</time>
      </trkpt>
      <trkpt lat="45.69828" lon="6.69278">
        <ele>2109</ele>
        <time>2022-07-16T14:46:29Z</time>
      </trkpt>
      <trkpt lat="45.69828" lon="6.69274">
        <ele>2110</ele>
        <time>2022-07-16T14:46:31Z</time>
      </trkpt>
      <trkpt lat="45.69828" lon="6.69271">
        <ele>2109</ele>
        <time>2022-07-16T14:46:33Z</time>
      </trkpt>
      <trkpt lat="45.69829" lon="6.69268">
        <ele>2109</ele>
        <time>2022-07-16T14:46:34Z</time>
      </trkpt>
      <trkpt lat="45.6983" lon="6.69264">
        <ele>2110</ele>
        <time>2022-07-16T14:46:37Z</time>
      </trkpt>
      <trkpt lat="45.69831" lon="6.69261">
        <ele>2111</ele>
        <time>2022-07-16T14:46:39Z</time>
      </trkpt>
      <trkpt lat="45.69832" lon="6.69258">
        <ele>2111</ele>
        <time>2022-07-16T14:46:41Z</time>
      </trkpt>
      <trkpt lat="45.69833" lon="6.69256">
        <ele>2111</ele>
        <time>2022-07-16T14:46:43Z</time>
      </trkpt>
      <trkpt lat="45.69834" lon="6.69254">
        <ele>2111</ele>
        <time>2022-07-16T14:46:45Z</time>
      </trkpt>
      <trkpt lat="45.69836" lon="6.69252">
        <ele>2112</ele>
        <time>2022-07-16T14:46:47Z</time>
      </trkpt>
      <trkpt lat="45.69839" lon="6.69253">
        <ele>2112</ele>
        <time>2022-07-16T14:46:49Z</time>
      </trkpt>
      <trkpt lat="45.69842" lon="6.69253">
        <ele>2112</ele>
        <time>2022-07-16T14:46:51Z</time>
      </trkpt>
      <trkpt lat="45.69845" lon="6.69254">
        <ele>2112</ele>
        <time>2022-07-16T14:46:53Z</time>
      </trkpt>
      <trkpt lat="45.69848" lon="6.69255">
        <ele>2112</ele>
        <time>2022-07-16T14:46:55Z</time>
      </trkpt>
      <trkpt lat="45.69851" lon="6.69256">
        <ele>2113</ele>
        <time>2022-07-16T14:46:57Z</time>
      </trkpt>
      <trkpt lat="45.69854" lon="6.69256">
        <ele>2112</ele>
        <time>2022-07-16T14:46:59Z</time>
      </trkpt>
      <trkpt lat="45.69856" lon="6.69255">
        <ele>2111</ele>
        <time>2022-07-16T14:47:00Z</time>
      </trkpt>
      <trkpt lat="45.69857" lon="6.69253">
        <ele>2111</ele>
        <time>2022-07-16T14:47:01Z</time>
      </trkpt>
      <trkpt lat="45.69859" lon="6.6925">
        <ele>2112</ele>
        <time>2022-07-16T14:47:03Z</time>
      </trkpt>
      <trkpt lat="45.69861" lon="6.69248">
        <ele>2112</ele>
        <time>2022-07-16T14:47:05Z</time>
      </trkpt>
      <trkpt lat="45.69863" lon="6.69246">
        <ele>2113</ele>
        <time>2022-07-16T14:47:07Z</time>
      </trkpt>
      <trkpt lat="45.69865" lon="6.69243">
        <ele>2113</ele>
        <time>2022-07-16T14:47:09Z</time>
      </trkpt>
      <trkpt lat="45.69867" lon="6.69241">
        <ele>2113</ele>
        <time>2022-07-16T14:47:11Z</time>
      </trkpt>
      <trkpt lat="45.6987" lon="6.69238">
        <ele>2113</ele>
        <time>2022-07-16T14:47:12Z</time>
      </trkpt>
      <trkpt lat="45.69872" lon="6.69235">
        <ele>2112</ele>
        <time>2022-07-16T14:47:15Z</time>
      </trkpt>
      <trkpt lat="45.69874" lon="6.69232">
        <ele>2112</ele>
        <time>2022-07-16T14:47:17Z</time>
      </trkpt>
      <trkpt lat="45.69875" lon="6.69229">
        <ele>2112</ele>
        <time>2022-07-16T14:47:19Z</time>
      </trkpt>
      <trkpt lat="45.69877" lon="6.69225">
        <ele>2112</ele>
        <time>2022-07-16T14:47:21Z</time>
      </trkpt>
      <trkpt lat="45.69879" lon="6.69222">
        <ele>2112</ele>
        <time>2022-07-16T14:47:23Z</time>
      </trkpt>
      <trkpt lat="45.6988" lon="6.69219">
        <ele>2112</ele>
        <time>2022-07-16T14:47:25Z</time>
      </trkpt>
      <trkpt lat="45.69882" lon="6.69217">
        <ele>2113</ele>
        <time>2022-07-16T14:47:27Z</time>
      </trkpt>
      <trkpt lat="45.69885" lon="6.69215">
        <ele>2113</ele>
        <time>2022-07-16T14:47:29Z</time>
      </trkpt>
      <trkpt lat="45.69886" lon="6.69212">
        <ele>2113</ele>
        <time>2022-07-16T14:47:31Z</time>
      </trkpt>
      <trkpt lat="45.69888" lon="6.69208">
        <ele>2112</ele>
        <time>2022-07-16T14:47:33Z</time>
      </trkpt>
      <trkpt lat="45.6989" lon="6.69205">
        <ele>2111</ele>
        <time>2022-07-16T14:47:35Z</time>
      </trkpt>
      <trkpt lat="45.69891" lon="6.69203">
        <ele>2110</ele>
        <time>2022-07-16T14:47:37Z</time>
      </trkpt>
      <trkpt lat="45.69892" lon="6.692">
        <ele>2110</ele>
        <time>2022-07-16T14:47:39Z</time>
      </trkpt>
      <trkpt lat="45.69893" lon="6.69197">
        <ele>2109</ele>
        <time>2022-07-16T14:47:41Z</time>
      </trkpt>
      <trkpt lat="45.69894" lon="6.69194">
        <ele>2108</ele>
        <time>2022-07-16T14:47:43Z</time>
      </trkpt>
      <trkpt lat="45.69895" lon="6.69191">
        <ele>2107</ele>
        <time>2022-07-16T14:47:45Z</time>
      </trkpt>
      <trkpt lat="45.69895" lon="6.69188">
        <ele>2107</ele>
        <time>2022-07-16T14:47:47Z</time>
      </trkpt>
      <trkpt lat="45.69896" lon="6.69184">
        <ele>2107</ele>
        <time>2022-07-16T14:47:49Z</time>
      </trkpt>
      <trkpt lat="45.69896" lon="6.69181">
        <ele>2107</ele>
        <time>2022-07-16T14:47:51Z</time>
      </trkpt>
      <trkpt lat="45.69897" lon="6.69178">
        <ele>2107</ele>
        <time>2022-07-16T14:47:53Z</time>
      </trkpt>
      <trkpt lat="45.69898" lon="6.69174">
        <ele>2107</ele>
        <time>2022-07-16T14:47:55Z</time>
      </trkpt>
      <trkpt lat="45.69899" lon="6.69171">
        <ele>2107</ele>
        <time>2022-07-16T14:47:57Z</time>
      </trkpt>
      <trkpt lat="45.69899" lon="6.69167">
        <ele>2107</ele>
        <time>2022-07-16T14:47:59Z</time>
      </trkpt>
      <trkpt lat="45.69901" lon="6.69165">
        <ele>2106</ele>
        <time>2022-07-16T14:48:01Z</time>
      </trkpt>
      <trkpt lat="45.69903" lon="6.69162">
        <ele>2106</ele>
        <time>2022-07-16T14:48:03Z</time>
      </trkpt>
      <trkpt lat="45.69905" lon="6.69162">
        <ele>2105</ele>
        <time>2022-07-16T14:48:05Z</time>
      </trkpt>
      <trkpt lat="45.69909" lon="6.69163">
        <ele>2104</ele>
        <time>2022-07-16T14:48:07Z</time>
      </trkpt>
      <trkpt lat="45.69911" lon="6.69164">
        <ele>2104</ele>
        <time>2022-07-16T14:48:08Z</time>
      </trkpt>
      <trkpt lat="45.69913" lon="6.69165">
        <ele>2103</ele>
        <time>2022-07-16T14:48:09Z</time>
      </trkpt>
      <trkpt lat="45.69915" lon="6.69165">
        <ele>2103</ele>
        <time>2022-07-16T14:48:10Z</time>
      </trkpt>
      <trkpt lat="45.69917" lon="6.69166">
        <ele>2102</ele>
        <time>2022-07-16T14:48:11Z</time>
      </trkpt>
      <trkpt lat="45.69919" lon="6.69167">
        <ele>2101</ele>
        <time>2022-07-16T14:48:12Z</time>
      </trkpt>
      <trkpt lat="45.69922" lon="6.69169">
        <ele>2101</ele>
        <time>2022-07-16T14:48:13Z</time>
      </trkpt>
      <trkpt lat="45.69924" lon="6.6917">
        <ele>2100</ele>
        <time>2022-07-16T14:48:14Z</time>
      </trkpt>
      <trkpt lat="45.69926" lon="6.69171">
        <ele>2099</ele>
        <time>2022-07-16T14:48:15Z</time>
      </trkpt>
      <trkpt lat="45.69928" lon="6.69172">
        <ele>2099</ele>
        <time>2022-07-16T14:48:16Z</time>
      </trkpt>
      <trkpt lat="45.6993" lon="6.69173">
        <ele>2098</ele>
        <time>2022-07-16T14:48:17Z</time>
      </trkpt>
      <trkpt lat="45.69932" lon="6.69173">
        <ele>2098</ele>
        <time>2022-07-16T14:48:18Z</time>
      </trkpt>
      <trkpt lat="45.69935" lon="6.69172">
        <ele>2098</ele>
        <time>2022-07-16T14:48:20Z</time>
      </trkpt>
      <trkpt lat="45.69938" lon="6.69169">
        <ele>2098</ele>
        <time>2022-07-16T14:48:22Z</time>
      </trkpt>
      <trkpt lat="45.69939" lon="6.69165">
        <ele>2097</ele>
        <time>2022-07-16T14:48:24Z</time>
      </trkpt>
      <trkpt lat="45.69939" lon="6.69161">
        <ele>2097</ele>
        <time>2022-07-16T14:48:26Z</time>
      </trkpt>
      <trkpt lat="45.69941" lon="6.6916">
        <ele>2097</ele>
        <time>2022-07-16T14:48:29Z</time>
      </trkpt>
      <trkpt lat="45.69941" lon="6.69157">
        <ele>2095</ele>
        <time>2022-07-16T14:48:32Z</time>
      </trkpt>
      <trkpt lat="45.69942" lon="6.69153">
        <ele>2095</ele>
        <time>2022-07-16T14:48:34Z</time>
      </trkpt>
      <trkpt lat="45.69943" lon="6.6915">
        <ele>2094</ele>
        <time>2022-07-16T14:48:36Z</time>
      </trkpt>
      <trkpt lat="45.69944" lon="6.69147">
        <ele>2094</ele>
        <time>2022-07-16T14:48:38Z</time>
      </trkpt>
      <trkpt lat="45.69944" lon="6.69144">
        <ele>2094</ele>
        <time>2022-07-16T14:48:40Z</time>
      </trkpt>
      <trkpt lat="45.69943" lon="6.69141">
        <ele>2094</ele>
        <time>2022-07-16T14:48:43Z</time>
      </trkpt>
      <trkpt lat="45.69942" lon="6.69138">
        <ele>2092</ele>
        <time>2022-07-16T14:48:46Z</time>
      </trkpt>
      <trkpt lat="45.69942" lon="6.69134">
        <ele>2090</ele>
        <time>2022-07-16T14:48:48Z</time>
      </trkpt>
      <trkpt lat="45.69942" lon="6.69131">
        <ele>2090</ele>
        <time>2022-07-16T14:48:50Z</time>
      </trkpt>
      <trkpt lat="45.69942" lon="6.69127">
        <ele>2090</ele>
        <time>2022-07-16T14:48:52Z</time>
      </trkpt>
      <trkpt lat="45.69943" lon="6.69124">
        <ele>2088</ele>
        <time>2022-07-16T14:48:54Z</time>
      </trkpt>
      <trkpt lat="45.69944" lon="6.69121">
        <ele>2088</ele>
        <time>2022-07-16T14:48:56Z</time>
      </trkpt>
      <trkpt lat="45.69945" lon="6.69119">
        <ele>2088</ele>
        <time>2022-07-16T14:48:58Z</time>
      </trkpt>
      <trkpt lat="45.69945" lon="6.69116">
        <ele>2088</ele>
        <time>2022-07-16T14:49:00Z</time>
      </trkpt>
      <trkpt lat="45.69946" lon="6.69113">
        <ele>2086</ele>
        <time>2022-07-16T14:49:02Z</time>
      </trkpt>
      <trkpt lat="45.69947" lon="6.69109">
        <ele>2086</ele>
        <time>2022-07-16T14:49:04Z</time>
      </trkpt>
      <trkpt lat="45.69947" lon="6.69106">
        <ele>2086</ele>
        <time>2022-07-16T14:49:06Z</time>
      </trkpt>
      <trkpt lat="45.69948" lon="6.69104">
        <ele>2084</ele>
        <time>2022-07-16T14:49:08Z</time>
      </trkpt>
      <trkpt lat="45.69949" lon="6.69101">
        <ele>2083</ele>
        <time>2022-07-16T14:49:09Z</time>
      </trkpt>
      <trkpt lat="45.69949" lon="6.69099">
        <ele>2083</ele>
        <time>2022-07-16T14:49:10Z</time>
      </trkpt>
      <trkpt lat="45.6995" lon="6.69097">
        <ele>2083</ele>
        <time>2022-07-16T14:49:11Z</time>
      </trkpt>
      <trkpt lat="45.6995" lon="6.69092">
        <ele>2083</ele>
        <time>2022-07-16T14:49:13Z</time>
      </trkpt>
      <trkpt lat="45.69949" lon="6.69088">
        <ele>2083</ele>
        <time>2022-07-16T14:49:15Z</time>
      </trkpt>
      <trkpt lat="45.69948" lon="6.69083">
        <ele>2081</ele>
        <time>2022-07-16T14:49:17Z</time>
      </trkpt>
      <trkpt lat="45.69947" lon="6.6908">
        <ele>2081</ele>
        <time>2022-07-16T14:49:18Z</time>
      </trkpt>
      <trkpt lat="45.69946" lon="6.69078">
        <ele>2081</ele>
        <time>2022-07-16T14:49:19Z</time>
      </trkpt>
      <trkpt lat="45.69945" lon="6.69075">
        <ele>2081</ele>
        <time>2022-07-16T14:49:20Z</time>
      </trkpt>
      <trkpt lat="45.69945" lon="6.69072">
        <ele>2081</ele>
        <time>2022-07-16T14:49:21Z</time>
      </trkpt>
      <trkpt lat="45.69945" lon="6.69069">
        <ele>2081</ele>
        <time>2022-07-16T14:49:22Z</time>
      </trkpt>
      <trkpt lat="45.69944" lon="6.69067">
        <ele>2081</ele>
        <time>2022-07-16T14:49:23Z</time>
      </trkpt>
      <trkpt lat="45.69944" lon="6.69062">
        <ele>2080</ele>
        <time>2022-07-16T14:49:25Z</time>
      </trkpt>
      <trkpt lat="45.69945" lon="6.69058">
        <ele>2080</ele>
        <time>2022-07-16T14:49:27Z</time>
      </trkpt>
      <trkpt lat="45.69945" lon="6.69054">
        <ele>2079</ele>
        <time>2022-07-16T14:49:29Z</time>
      </trkpt>
      <trkpt lat="45.69945" lon="6.69051">
        <ele>2079</ele>
        <time>2022-07-16T14:49:30Z</time>
      </trkpt>
      <trkpt lat="45.69945" lon="6.69048">
        <ele>2079</ele>
        <time>2022-07-16T14:49:31Z</time>
      </trkpt>
      <trkpt lat="45.69945" lon="6.69046">
        <ele>2078</ele>
        <time>2022-07-16T14:49:32Z</time>
      </trkpt>
      <trkpt lat="45.69945" lon="6.69041">
        <ele>2078</ele>
        <time>2022-07-16T14:49:34Z</time>
      </trkpt>
      <trkpt lat="45.69946" lon="6.69038">
        <ele>2077</ele>
        <time>2022-07-16T14:49:35Z</time>
      </trkpt>
      <trkpt lat="45.69946" lon="6.69033">
        <ele>2078</ele>
        <time>2022-07-16T14:49:37Z</time>
      </trkpt>
      <trkpt lat="45.69946" lon="6.69031">
        <ele>2077</ele>
        <time>2022-07-16T14:49:38Z</time>
      </trkpt>
      <trkpt lat="45.69945" lon="6.69028">
        <ele>2077</ele>
        <time>2022-07-16T14:49:39Z</time>
      </trkpt>
      <trkpt lat="45.69944" lon="6.69024">
        <ele>2077</ele>
        <time>2022-07-16T14:49:41Z</time>
      </trkpt>
      <trkpt lat="45.69941" lon="6.6902">
        <ele>2077</ele>
        <time>2022-07-16T14:49:43Z</time>
      </trkpt>
      <trkpt lat="45.6994" lon="6.69018">
        <ele>2077</ele>
        <time>2022-07-16T14:49:44Z</time>
      </trkpt>
      <trkpt lat="45.69939" lon="6.69015">
        <ele>2077</ele>
        <time>2022-07-16T14:49:45Z</time>
      </trkpt>
      <trkpt lat="45.69937" lon="6.69013">
        <ele>2077</ele>
        <time>2022-07-16T14:49:46Z</time>
      </trkpt>
      <trkpt lat="45.69936" lon="6.69011">
        <ele>2077</ele>
        <time>2022-07-16T14:49:47Z</time>
      </trkpt>
      <trkpt lat="45.69935" lon="6.69008">
        <ele>2077</ele>
        <time>2022-07-16T14:49:48Z</time>
      </trkpt>
      <trkpt lat="45.69933" lon="6.69006">
        <ele>2077</ele>
        <time>2022-07-16T14:49:49Z</time>
      </trkpt>
      <trkpt lat="45.69932" lon="6.69004">
        <ele>2077</ele>
        <time>2022-07-16T14:49:50Z</time>
      </trkpt>
      <trkpt lat="45.6993" lon="6.69">
        <ele>2077</ele>
        <time>2022-07-16T14:49:52Z</time>
      </trkpt>
      <trkpt lat="45.69928" lon="6.68996">
        <ele>2077</ele>
        <time>2022-07-16T14:49:54Z</time>
      </trkpt>
      <trkpt lat="45.69926" lon="6.68994">
        <ele>2077</ele>
        <time>2022-07-16T14:49:55Z</time>
      </trkpt>
      <trkpt lat="45.69925" lon="6.68991">
        <ele>2077</ele>
        <time>2022-07-16T14:49:56Z</time>
      </trkpt>
      <trkpt lat="45.69924" lon="6.68989">
        <ele>2077</ele>
        <time>2022-07-16T14:49:57Z</time>
      </trkpt>
      <trkpt lat="45.69923" lon="6.68986">
        <ele>2077</ele>
        <time>2022-07-16T14:49:58Z</time>
      </trkpt>
      <trkpt lat="45.69922" lon="6.68984">
        <ele>2077</ele>
        <time>2022-07-16T14:49:59Z</time>
      </trkpt>
      <trkpt lat="45.6992" lon="6.68982">
        <ele>2077</ele>
        <time>2022-07-16T14:50:00Z</time>
      </trkpt>
      <trkpt lat="45.69918" lon="6.68979">
        <ele>2077</ele>
        <time>2022-07-16T14:50:02Z</time>
      </trkpt>
      <trkpt lat="45.69917" lon="6.68974">
        <ele>2076</ele>
        <time>2022-07-16T14:50:04Z</time>
      </trkpt>
      <trkpt lat="45.69917" lon="6.68971">
        <ele>2075</ele>
        <time>2022-07-16T14:50:06Z</time>
      </trkpt>
      <trkpt lat="45.69917" lon="6.68967">
        <ele>2075</ele>
        <time>2022-07-16T14:50:08Z</time>
      </trkpt>
      <trkpt lat="45.69916" lon="6.68963">
        <ele>2074</ele>
        <time>2022-07-16T14:50:10Z</time>
      </trkpt>
      <trkpt lat="45.69916" lon="6.6896">
        <ele>2075</ele>
        <time>2022-07-16T14:50:12Z</time>
      </trkpt>
      <trkpt lat="45.69915" lon="6.68956">
        <ele>2074</ele>
        <time>2022-07-16T14:50:14Z</time>
      </trkpt>
      <trkpt lat="45.69915" lon="6.68952">
        <ele>2074</ele>
        <time>2022-07-16T14:50:15Z</time>
      </trkpt>
      <trkpt lat="45.69915" lon="6.68948">
        <ele>2072</ele>
        <time>2022-07-16T14:50:18Z</time>
      </trkpt>
      <trkpt lat="45.69915" lon="6.68945">
        <ele>2072</ele>
        <time>2022-07-16T14:50:20Z</time>
      </trkpt>
      <trkpt lat="45.69915" lon="6.68941">
        <ele>2072</ele>
        <time>2022-07-16T14:50:22Z</time>
      </trkpt>
      <trkpt lat="45.69915" lon="6.68936">
        <ele>2071</ele>
        <time>2022-07-16T14:50:24Z</time>
      </trkpt>
      <trkpt lat="45.69913" lon="6.68932">
        <ele>2070</ele>
        <time>2022-07-16T14:50:26Z</time>
      </trkpt>
      <trkpt lat="45.69911" lon="6.6893">
        <ele>2070</ele>
        <time>2022-07-16T14:50:27Z</time>
      </trkpt>
      <trkpt lat="45.69908" lon="6.68928">
        <ele>2070</ele>
        <time>2022-07-16T14:50:29Z</time>
      </trkpt>
      <trkpt lat="45.69906" lon="6.68925">
        <ele>2070</ele>
        <time>2022-07-16T14:50:31Z</time>
      </trkpt>
      <trkpt lat="45.69904" lon="6.68922">
        <ele>2070</ele>
        <time>2022-07-16T14:50:33Z</time>
      </trkpt>
      <trkpt lat="45.69902" lon="6.6892">
        <ele>2070</ele>
        <time>2022-07-16T14:50:37Z</time>
      </trkpt>
      <trkpt lat="45.699" lon="6.68918">
        <ele>2070</ele>
        <time>2022-07-16T14:50:39Z</time>
      </trkpt>
      <trkpt lat="45.69898" lon="6.68917">
        <ele>2070</ele>
        <time>2022-07-16T14:50:40Z</time>
      </trkpt>
      <trkpt lat="45.69896" lon="6.68916">
        <ele>2070</ele>
        <time>2022-07-16T14:50:41Z</time>
      </trkpt>
      <trkpt lat="45.69894" lon="6.68914">
        <ele>2070</ele>
        <time>2022-07-16T14:50:42Z</time>
      </trkpt>
      <trkpt lat="45.69893" lon="6.68913">
        <ele>2070</ele>
        <time>2022-07-16T14:50:43Z</time>
      </trkpt>
      <trkpt lat="45.6989" lon="6.68911">
        <ele>2070</ele>
        <time>2022-07-16T14:50:45Z</time>
      </trkpt>
      <trkpt lat="45.69887" lon="6.68909">
        <ele>2070</ele>
        <time>2022-07-16T14:50:47Z</time>
      </trkpt>
      <trkpt lat="45.69886" lon="6.68906">
        <ele>2070</ele>
        <time>2022-07-16T14:50:49Z</time>
      </trkpt>
      <trkpt lat="45.69886" lon="6.68902">
        <ele>2069</ele>
        <time>2022-07-16T14:50:51Z</time>
      </trkpt>
      <trkpt lat="45.69885" lon="6.68899">
        <ele>2068</ele>
        <time>2022-07-16T14:50:53Z</time>
      </trkpt>
      <trkpt lat="45.69885" lon="6.68895">
        <ele>2067</ele>
        <time>2022-07-16T14:50:55Z</time>
      </trkpt>
      <trkpt lat="45.69884" lon="6.68892">
        <ele>2067</ele>
        <time>2022-07-16T14:50:57Z</time>
      </trkpt>
      <trkpt lat="45.69885" lon="6.68889">
        <ele>2067</ele>
        <time>2022-07-16T14:50:59Z</time>
      </trkpt>
      <trkpt lat="45.69885" lon="6.68886">
        <ele>2067</ele>
        <time>2022-07-16T14:51:02Z</time>
      </trkpt>
      <trkpt lat="45.69885" lon="6.68883">
        <ele>2064</ele>
        <time>2022-07-16T14:51:04Z</time>
      </trkpt>
      <trkpt lat="45.69883" lon="6.6888">
        <ele>2064</ele>
        <time>2022-07-16T14:51:06Z</time>
      </trkpt>
      <trkpt lat="45.69882" lon="6.68876">
        <ele>2062</ele>
        <time>2022-07-16T14:51:08Z</time>
      </trkpt>
      <trkpt lat="45.69881" lon="6.68872">
        <ele>2061</ele>
        <time>2022-07-16T14:51:10Z</time>
      </trkpt>
      <trkpt lat="45.6988" lon="6.68869">
        <ele>2060</ele>
        <time>2022-07-16T14:51:12Z</time>
      </trkpt>
      <trkpt lat="45.69878" lon="6.68865">
        <ele>2060</ele>
        <time>2022-07-16T14:51:14Z</time>
      </trkpt>
      <trkpt lat="45.69876" lon="6.68862">
        <ele>2060</ele>
        <time>2022-07-16T14:51:16Z</time>
      </trkpt>
      <trkpt lat="45.69876" lon="6.68859">
        <ele>2060</ele>
        <time>2022-07-16T14:51:17Z</time>
      </trkpt>
      <trkpt lat="45.69874" lon="6.68855">
        <ele>2060</ele>
        <time>2022-07-16T14:51:19Z</time>
      </trkpt>
      <trkpt lat="45.69872" lon="6.68852">
        <ele>2060</ele>
        <time>2022-07-16T14:51:21Z</time>
      </trkpt>
      <trkpt lat="45.69869" lon="6.68849">
        <ele>2060</ele>
        <time>2022-07-16T14:51:23Z</time>
      </trkpt>
      <trkpt lat="45.69867" lon="6.68845">
        <ele>2060</ele>
        <time>2022-07-16T14:51:25Z</time>
      </trkpt>
      <trkpt lat="45.69866" lon="6.68842">
        <ele>2059</ele>
        <time>2022-07-16T14:51:27Z</time>
      </trkpt>
      <trkpt lat="45.69864" lon="6.68838">
        <ele>2059</ele>
        <time>2022-07-16T14:51:29Z</time>
      </trkpt>
      <trkpt lat="45.69863" lon="6.68836">
        <ele>2058</ele>
        <time>2022-07-16T14:51:31Z</time>
      </trkpt>
      <trkpt lat="45.69861" lon="6.68833">
        <ele>2058</ele>
        <time>2022-07-16T14:51:33Z</time>
      </trkpt>
      <trkpt lat="45.6986" lon="6.68831">
        <ele>2058</ele>
        <time>2022-07-16T14:51:35Z</time>
      </trkpt>
      <trkpt lat="45.6986" lon="6.68827">
        <ele>2057</ele>
        <time>2022-07-16T14:51:37Z</time>
      </trkpt>
      <trkpt lat="45.6986" lon="6.68824">
        <ele>2056</ele>
        <time>2022-07-16T14:51:39Z</time>
      </trkpt>
      <trkpt lat="45.6986" lon="6.6882">
        <ele>2056</ele>
        <time>2022-07-16T14:51:41Z</time>
      </trkpt>
      <trkpt lat="45.6986" lon="6.68816">
        <ele>2056</ele>
        <time>2022-07-16T14:51:43Z</time>
      </trkpt>
      <trkpt lat="45.6986" lon="6.68811">
        <ele>2055</ele>
        <time>2022-07-16T14:51:45Z</time>
      </trkpt>
      <trkpt lat="45.69859" lon="6.68807">
        <ele>2055</ele>
        <time>2022-07-16T14:51:47Z</time>
      </trkpt>
      <trkpt lat="45.69859" lon="6.68803">
        <ele>2055</ele>
        <time>2022-07-16T14:51:49Z</time>
      </trkpt>
      <trkpt lat="45.6986" lon="6.68799">
        <ele>2055</ele>
        <time>2022-07-16T14:51:51Z</time>
      </trkpt>
      <trkpt lat="45.69861" lon="6.68796">
        <ele>2054</ele>
        <time>2022-07-16T14:51:53Z</time>
      </trkpt>
      <trkpt lat="45.69862" lon="6.68792">
        <ele>2053</ele>
        <time>2022-07-16T14:51:55Z</time>
      </trkpt>
      <trkpt lat="45.69863" lon="6.68788">
        <ele>2053</ele>
        <time>2022-07-16T14:51:57Z</time>
      </trkpt>
      <trkpt lat="45.69863" lon="6.68785">
        <ele>2051</ele>
        <time>2022-07-16T14:51:59Z</time>
      </trkpt>
      <trkpt lat="45.69865" lon="6.68782">
        <ele>2050</ele>
        <time>2022-07-16T14:52:02Z</time>
      </trkpt>
      <trkpt lat="45.69866" lon="6.68778">
        <ele>2050</ele>
        <time>2022-07-16T14:52:04Z</time>
      </trkpt>
      <trkpt lat="45.69866" lon="6.68774">
        <ele>2049</ele>
        <time>2022-07-16T14:52:06Z</time>
      </trkpt>
      <trkpt lat="45.69866" lon="6.68771">
        <ele>2049</ele>
        <time>2022-07-16T14:52:07Z</time>
      </trkpt>
      <trkpt lat="45.69866" lon="6.68768">
        <ele>2048</ele>
        <time>2022-07-16T14:52:08Z</time>
      </trkpt>
      <trkpt lat="45.69865" lon="6.68763">
        <ele>2047</ele>
        <time>2022-07-16T14:52:10Z</time>
      </trkpt>
      <trkpt lat="45.69864" lon="6.68761">
        <ele>2046</ele>
        <time>2022-07-16T14:52:11Z</time>
      </trkpt>
      <trkpt lat="45.69862" lon="6.68757">
        <ele>2046</ele>
        <time>2022-07-16T14:52:13Z</time>
      </trkpt>
      <trkpt lat="45.69862" lon="6.68753">
        <ele>2046</ele>
        <time>2022-07-16T14:52:15Z</time>
      </trkpt>
      <trkpt lat="45.69862" lon="6.68748">
        <ele>2046</ele>
        <time>2022-07-16T14:52:16Z</time>
      </trkpt>
      <trkpt lat="45.69862" lon="6.68743">
        <ele>2044</ele>
        <time>2022-07-16T14:52:19Z</time>
      </trkpt>
      <trkpt lat="45.69862" lon="6.68739">
        <ele>2043</ele>
        <time>2022-07-16T14:52:21Z</time>
      </trkpt>
      <trkpt lat="45.69863" lon="6.68735">
        <ele>2043</ele>
        <time>2022-07-16T14:52:23Z</time>
      </trkpt>
      <trkpt lat="45.69864" lon="6.68732">
        <ele>2042</ele>
        <time>2022-07-16T14:52:25Z</time>
      </trkpt>
      <trkpt lat="45.69865" lon="6.68729">
        <ele>2041</ele>
        <time>2022-07-16T14:52:27Z</time>
      </trkpt>
      <trkpt lat="45.69865" lon="6.68724">
        <ele>2040</ele>
        <time>2022-07-16T14:52:29Z</time>
      </trkpt>
      <trkpt lat="45.69864" lon="6.68719">
        <ele>2040</ele>
        <time>2022-07-16T14:52:31Z</time>
      </trkpt>
      <trkpt lat="45.69863" lon="6.68715">
        <ele>2037</ele>
        <time>2022-07-16T14:52:33Z</time>
      </trkpt>
      <trkpt lat="45.69861" lon="6.6871">
        <ele>2036</ele>
        <time>2022-07-16T14:52:35Z</time>
      </trkpt>
      <trkpt lat="45.69861" lon="6.68706">
        <ele>2036</ele>
        <time>2022-07-16T14:52:37Z</time>
      </trkpt>
      <trkpt lat="45.6986" lon="6.68702">
        <ele>2036</ele>
        <time>2022-07-16T14:52:39Z</time>
      </trkpt>
      <trkpt lat="45.6986" lon="6.68698">
        <ele>2035</ele>
        <time>2022-07-16T14:52:41Z</time>
      </trkpt>
      <trkpt lat="45.69859" lon="6.68694">
        <ele>2035</ele>
        <time>2022-07-16T14:52:43Z</time>
      </trkpt>
      <trkpt lat="45.69857" lon="6.6869">
        <ele>2033</ele>
        <time>2022-07-16T14:52:45Z</time>
      </trkpt>
      <trkpt lat="45.69856" lon="6.68686">
        <ele>2033</ele>
        <time>2022-07-16T14:52:47Z</time>
      </trkpt>
      <trkpt lat="45.69855" lon="6.68682">
        <ele>2032</ele>
        <time>2022-07-16T14:52:49Z</time>
      </trkpt>
      <trkpt lat="45.69854" lon="6.68677">
        <ele>2032</ele>
        <time>2022-07-16T14:52:51Z</time>
      </trkpt>
      <trkpt lat="45.69853" lon="6.68673">
        <ele>2030</ele>
        <time>2022-07-16T14:52:53Z</time>
      </trkpt>
      <trkpt lat="45.69852" lon="6.6867">
        <ele>2030</ele>
        <time>2022-07-16T14:52:54Z</time>
      </trkpt>
      <trkpt lat="45.69852" lon="6.68668">
        <ele>2030</ele>
        <time>2022-07-16T14:52:55Z</time>
      </trkpt>
      <trkpt lat="45.69852" lon="6.68663">
        <ele>2028</ele>
        <time>2022-07-16T14:52:57Z</time>
      </trkpt>
      <trkpt lat="45.69852" lon="6.6866">
        <ele>2028</ele>
        <time>2022-07-16T14:52:58Z</time>
      </trkpt>
      <trkpt lat="45.69852" lon="6.68658">
        <ele>2028</ele>
        <time>2022-07-16T14:52:59Z</time>
      </trkpt>
      <trkpt lat="45.69852" lon="6.68655">
        <ele>2028</ele>
        <time>2022-07-16T14:53:00Z</time>
      </trkpt>
      <trkpt lat="45.69851" lon="6.68652">
        <ele>2028</ele>
        <time>2022-07-16T14:53:01Z</time>
      </trkpt>
      <trkpt lat="45.69851" lon="6.68649">
        <ele>2028</ele>
        <time>2022-07-16T14:53:02Z</time>
      </trkpt>
      <trkpt lat="45.69851" lon="6.68646">
        <ele>2028</ele>
        <time>2022-07-16T14:53:03Z</time>
      </trkpt>
      <trkpt lat="45.69851" lon="6.68643">
        <ele>2027</ele>
        <time>2022-07-16T14:53:04Z</time>
      </trkpt>
      <trkpt lat="45.69852" lon="6.68639">
        <ele>2027</ele>
        <time>2022-07-16T14:53:06Z</time>
      </trkpt>
      <trkpt lat="45.69853" lon="6.68635">
        <ele>2027</ele>
        <time>2022-07-16T14:53:08Z</time>
      </trkpt>
      <trkpt lat="45.69854" lon="6.6863">
        <ele>2026</ele>
        <time>2022-07-16T14:53:10Z</time>
      </trkpt>
      <trkpt lat="45.69854" lon="6.68627">
        <ele>2026</ele>
        <time>2022-07-16T14:53:11Z</time>
      </trkpt>
      <trkpt lat="45.69853" lon="6.68624">
        <ele>2025</ele>
        <time>2022-07-16T14:53:12Z</time>
      </trkpt>
      <trkpt lat="45.69853" lon="6.68622">
        <ele>2025</ele>
        <time>2022-07-16T14:53:13Z</time>
      </trkpt>
      <trkpt lat="45.69852" lon="6.68619">
        <ele>2025</ele>
        <time>2022-07-16T14:53:14Z</time>
      </trkpt>
      <trkpt lat="45.69852" lon="6.68616">
        <ele>2024</ele>
        <time>2022-07-16T14:53:15Z</time>
      </trkpt>
      <trkpt lat="45.69851" lon="6.68614">
        <ele>2024</ele>
        <time>2022-07-16T14:53:16Z</time>
      </trkpt>
      <trkpt lat="45.69851" lon="6.68611">
        <ele>2023</ele>
        <time>2022-07-16T14:53:17Z</time>
      </trkpt>
      <trkpt lat="45.6985" lon="6.68608">
        <ele>2022</ele>
        <time>2022-07-16T14:53:18Z</time>
      </trkpt>
      <trkpt lat="45.69849" lon="6.68605">
        <ele>2022</ele>
        <time>2022-07-16T14:53:19Z</time>
      </trkpt>
      <trkpt lat="45.69849" lon="6.68602">
        <ele>2022</ele>
        <time>2022-07-16T14:53:20Z</time>
      </trkpt>
      <trkpt lat="45.69848" lon="6.68599">
        <ele>2022</ele>
        <time>2022-07-16T14:53:21Z</time>
      </trkpt>
      <trkpt lat="45.69847" lon="6.68595">
        <ele>2022</ele>
        <time>2022-07-16T14:53:22Z</time>
      </trkpt>
      <trkpt lat="45.69847" lon="6.68592">
        <ele>2022</ele>
        <time>2022-07-16T14:53:23Z</time>
      </trkpt>
      <trkpt lat="45.69846" lon="6.68589">
        <ele>2022</ele>
        <time>2022-07-16T14:53:24Z</time>
      </trkpt>
      <trkpt lat="45.69845" lon="6.68584">
        <ele>2022</ele>
        <time>2022-07-16T14:53:26Z</time>
      </trkpt>
      <trkpt lat="45.69844" lon="6.6858">
        <ele>2022</ele>
        <time>2022-07-16T14:53:27Z</time>
      </trkpt>
      <trkpt lat="45.69844" lon="6.68579">
        <ele>2021</ele>
        <time>2022-07-16T14:53:28Z</time>
      </trkpt>
      <trkpt lat="45.69846" lon="6.68576">
        <ele>2020</ele>
        <time>2022-07-16T14:53:30Z</time>
      </trkpt>
      <trkpt lat="45.69848" lon="6.68574">
        <ele>2021</ele>
        <time>2022-07-16T14:53:31Z</time>
      </trkpt>
      <trkpt lat="45.69849" lon="6.68573">
        <ele>2021</ele>
        <time>2022-07-16T14:53:32Z</time>
      </trkpt>
      <trkpt lat="45.69853" lon="6.68571">
        <ele>2020</ele>
        <time>2022-07-16T14:53:34Z</time>
      </trkpt>
      <trkpt lat="45.69855" lon="6.68571">
        <ele>2019</ele>
        <time>2022-07-16T14:53:35Z</time>
      </trkpt>
      <trkpt lat="45.69857" lon="6.68571">
        <ele>2019</ele>
        <time>2022-07-16T14:53:36Z</time>
      </trkpt>
      <trkpt lat="45.69859" lon="6.68571">
        <ele>2019</ele>
        <time>2022-07-16T14:53:37Z</time>
      </trkpt>
      <trkpt lat="45.69861" lon="6.68572">
        <ele>2019</ele>
        <time>2022-07-16T14:53:38Z</time>
      </trkpt>
      <trkpt lat="45.69863" lon="6.68573">
        <ele>2019</ele>
        <time>2022-07-16T14:53:39Z</time>
      </trkpt>
      <trkpt lat="45.69865" lon="6.68575">
        <ele>2019</ele>
        <time>2022-07-16T14:53:40Z</time>
      </trkpt>
      <trkpt lat="45.69867" lon="6.68577">
        <ele>2019</ele>
        <time>2022-07-16T14:53:41Z</time>
      </trkpt>
      <trkpt lat="45.69869" lon="6.68578">
        <ele>2019</ele>
        <time>2022-07-16T14:53:42Z</time>
      </trkpt>
      <trkpt lat="45.69871" lon="6.6858">
        <ele>2018</ele>
        <time>2022-07-16T14:53:43Z</time>
      </trkpt>
      <trkpt lat="45.69873" lon="6.68582">
        <ele>2018</ele>
        <time>2022-07-16T14:53:44Z</time>
      </trkpt>
      <trkpt lat="45.69874" lon="6.68584">
        <ele>2018</ele>
        <time>2022-07-16T14:53:45Z</time>
      </trkpt>
      <trkpt lat="45.69877" lon="6.68587">
        <ele>2018</ele>
        <time>2022-07-16T14:53:47Z</time>
      </trkpt>
      <trkpt lat="45.6988" lon="6.6859">
        <ele>2018</ele>
        <time>2022-07-16T14:53:49Z</time>
      </trkpt>
      <trkpt lat="45.69884" lon="6.68594">
        <ele>2018</ele>
        <time>2022-07-16T14:53:51Z</time>
      </trkpt>
      <trkpt lat="45.69886" lon="6.68594">
        <ele>2017</ele>
        <time>2022-07-16T14:53:53Z</time>
      </trkpt>
      <trkpt lat="45.69888" lon="6.68593">
        <ele>2016</ele>
        <time>2022-07-16T14:53:54Z</time>
      </trkpt>
      <trkpt lat="45.6989" lon="6.68592">
        <ele>2016</ele>
        <time>2022-07-16T14:53:55Z</time>
      </trkpt>
      <trkpt lat="45.69891" lon="6.6859">
        <ele>2017</ele>
        <time>2022-07-16T14:53:56Z</time>
      </trkpt>
      <trkpt lat="45.69893" lon="6.68588">
        <ele>2017</ele>
        <time>2022-07-16T14:53:57Z</time>
      </trkpt>
      <trkpt lat="45.69894" lon="6.68586">
        <ele>2017</ele>
        <time>2022-07-16T14:53:58Z</time>
      </trkpt>
      <trkpt lat="45.69895" lon="6.68584">
        <ele>2017</ele>
        <time>2022-07-16T14:53:59Z</time>
      </trkpt>
      <trkpt lat="45.69895" lon="6.68581">
        <ele>2017</ele>
        <time>2022-07-16T14:54:00Z</time>
      </trkpt>
      <trkpt lat="45.69896" lon="6.68578">
        <ele>2016</ele>
        <time>2022-07-16T14:54:01Z</time>
      </trkpt>
      <trkpt lat="45.69897" lon="6.68576">
        <ele>2016</ele>
        <time>2022-07-16T14:54:02Z</time>
      </trkpt>
      <trkpt lat="45.69897" lon="6.68573">
        <ele>2016</ele>
        <time>2022-07-16T14:54:03Z</time>
      </trkpt>
      <trkpt lat="45.69898" lon="6.68568">
        <ele>2015</ele>
        <time>2022-07-16T14:54:05Z</time>
      </trkpt>
      <trkpt lat="45.69898" lon="6.68565">
        <ele>2014</ele>
        <time>2022-07-16T14:54:06Z</time>
      </trkpt>
      <trkpt lat="45.69899" lon="6.68563">
        <ele>2014</ele>
        <time>2022-07-16T14:54:07Z</time>
      </trkpt>
      <trkpt lat="45.69899" lon="6.6856">
        <ele>2014</ele>
        <time>2022-07-16T14:54:08Z</time>
      </trkpt>
      <trkpt lat="45.699" lon="6.68557">
        <ele>2015</ele>
        <time>2022-07-16T14:54:09Z</time>
      </trkpt>
      <trkpt lat="45.699" lon="6.68553">
        <ele>2016</ele>
        <time>2022-07-16T14:54:10Z</time>
      </trkpt>
      <trkpt lat="45.69901" lon="6.6855">
        <ele>2016</ele>
        <time>2022-07-16T14:54:11Z</time>
      </trkpt>
      <trkpt lat="45.69901" lon="6.68547">
        <ele>2016</ele>
        <time>2022-07-16T14:54:12Z</time>
      </trkpt>
      <trkpt lat="45.69902" lon="6.68545">
        <ele>2016</ele>
        <time>2022-07-16T14:54:13Z</time>
      </trkpt>
      <trkpt lat="45.69902" lon="6.68542">
        <ele>2016</ele>
        <time>2022-07-16T14:54:14Z</time>
      </trkpt>
      <trkpt lat="45.69902" lon="6.68539">
        <ele>2016</ele>
        <time>2022-07-16T14:54:15Z</time>
      </trkpt>
      <trkpt lat="45.69903" lon="6.68536">
        <ele>2016</ele>
        <time>2022-07-16T14:54:16Z</time>
      </trkpt>
      <trkpt lat="45.69903" lon="6.68532">
        <ele>2016</ele>
        <time>2022-07-16T14:54:18Z</time>
      </trkpt>
      <trkpt lat="45.69904" lon="6.68527">
        <ele>2016</ele>
        <time>2022-07-16T14:54:20Z</time>
      </trkpt>
      <trkpt lat="45.69904" lon="6.68523">
        <ele>2017</ele>
        <time>2022-07-16T14:54:22Z</time>
      </trkpt>
      <trkpt lat="45.69904" lon="6.68518">
        <ele>2017</ele>
        <time>2022-07-16T14:54:24Z</time>
      </trkpt>
      <trkpt lat="45.69905" lon="6.68514">
        <ele>2017</ele>
        <time>2022-07-16T14:54:26Z</time>
      </trkpt>
      <trkpt lat="45.69905" lon="6.6851">
        <ele>2017</ele>
        <time>2022-07-16T14:54:28Z</time>
      </trkpt>
      <trkpt lat="45.69906" lon="6.68506">
        <ele>2017</ele>
        <time>2022-07-16T14:54:29Z</time>
      </trkpt>
      <trkpt lat="45.69907" lon="6.68502">
        <ele>2017</ele>
        <time>2022-07-16T14:54:32Z</time>
      </trkpt>
      <trkpt lat="45.69907" lon="6.68498">
        <ele>2017</ele>
        <time>2022-07-16T14:54:34Z</time>
      </trkpt>
      <trkpt lat="45.69908" lon="6.68495">
        <ele>2018</ele>
        <time>2022-07-16T14:54:36Z</time>
      </trkpt>
      <trkpt lat="45.6991" lon="6.68492">
        <ele>2018</ele>
        <time>2022-07-16T14:54:38Z</time>
      </trkpt>
      <trkpt lat="45.6991" lon="6.68488">
        <ele>2018</ele>
        <time>2022-07-16T14:54:40Z</time>
      </trkpt>
      <trkpt lat="45.69912" lon="6.68484">
        <ele>2018</ele>
        <time>2022-07-16T14:54:42Z</time>
      </trkpt>
      <trkpt lat="45.69912" lon="6.6848">
        <ele>2018</ele>
        <time>2022-07-16T14:54:44Z</time>
      </trkpt>
      <trkpt lat="45.69913" lon="6.68477">
        <ele>2018</ele>
        <time>2022-07-16T14:54:46Z</time>
      </trkpt>
      <trkpt lat="45.69914" lon="6.68473">
        <ele>2018</ele>
        <time>2022-07-16T14:54:48Z</time>
      </trkpt>
      <trkpt lat="45.69915" lon="6.68469">
        <ele>2018</ele>
        <time>2022-07-16T14:54:50Z</time>
      </trkpt>
      <trkpt lat="45.69915" lon="6.68466">
        <ele>2019</ele>
        <time>2022-07-16T14:54:52Z</time>
      </trkpt>
      <trkpt lat="45.69916" lon="6.68462">
        <ele>2019</ele>
        <time>2022-07-16T14:54:54Z</time>
      </trkpt>
      <trkpt lat="45.69916" lon="6.68458">
        <ele>2019</ele>
        <time>2022-07-16T14:54:56Z</time>
      </trkpt>
      <trkpt lat="45.69917" lon="6.68454">
        <ele>2019</ele>
        <time>2022-07-16T14:54:58Z</time>
      </trkpt>
      <trkpt lat="45.69918" lon="6.6845">
        <ele>2019</ele>
        <time>2022-07-16T14:55:00Z</time>
      </trkpt>
      <trkpt lat="45.69918" lon="6.68446">
        <ele>2019</ele>
        <time>2022-07-16T14:55:02Z</time>
      </trkpt>
      <trkpt lat="45.69919" lon="6.68442">
        <ele>2019</ele>
        <time>2022-07-16T14:55:04Z</time>
      </trkpt>
      <trkpt lat="45.69919" lon="6.68438">
        <ele>2019</ele>
        <time>2022-07-16T14:55:06Z</time>
      </trkpt>
      <trkpt lat="45.69919" lon="6.68434">
        <ele>2019</ele>
        <time>2022-07-16T14:55:08Z</time>
      </trkpt>
      <trkpt lat="45.69919" lon="6.6843">
        <ele>2019</ele>
        <time>2022-07-16T14:55:10Z</time>
      </trkpt>
      <trkpt lat="45.69919" lon="6.68426">
        <ele>2019</ele>
        <time>2022-07-16T14:55:12Z</time>
      </trkpt>
      <trkpt lat="45.69919" lon="6.68421">
        <ele>2019</ele>
        <time>2022-07-16T14:55:14Z</time>
      </trkpt>
      <trkpt lat="45.69919" lon="6.68417">
        <ele>2020</ele>
        <time>2022-07-16T14:55:16Z</time>
      </trkpt>
      <trkpt lat="45.69919" lon="6.68412">
        <ele>2020</ele>
        <time>2022-07-16T14:55:18Z</time>
      </trkpt>
      <trkpt lat="45.69919" lon="6.68408">
        <ele>2020</ele>
        <time>2022-07-16T14:55:20Z</time>
      </trkpt>
      <trkpt lat="45.69918" lon="6.68404">
        <ele>2020</ele>
        <time>2022-07-16T14:55:22Z</time>
      </trkpt>
      <trkpt lat="45.69918" lon="6.684">
        <ele>2021</ele>
        <time>2022-07-16T14:55:24Z</time>
      </trkpt>
      <trkpt lat="45.69917" lon="6.68396">
        <ele>2021</ele>
        <time>2022-07-16T14:55:26Z</time>
      </trkpt>
      <trkpt lat="45.69916" lon="6.68392">
        <ele>2021</ele>
        <time>2022-07-16T14:55:28Z</time>
      </trkpt>
      <trkpt lat="45.69916" lon="6.68388">
        <ele>2021</ele>
        <time>2022-07-16T14:55:30Z</time>
      </trkpt>
      <trkpt lat="45.69916" lon="6.68384">
        <ele>2021</ele>
        <time>2022-07-16T14:55:32Z</time>
      </trkpt>
      <trkpt lat="45.69915" lon="6.6838">
        <ele>2022</ele>
        <time>2022-07-16T14:55:34Z</time>
      </trkpt>
      <trkpt lat="45.69915" lon="6.68376">
        <ele>2022</ele>
        <time>2022-07-16T14:55:36Z</time>
      </trkpt>
      <trkpt lat="45.69914" lon="6.68372">
        <ele>2022</ele>
        <time>2022-07-16T14:55:38Z</time>
      </trkpt>
      <trkpt lat="45.69913" lon="6.68368">
        <ele>2023</ele>
        <time>2022-07-16T14:55:40Z</time>
      </trkpt>
      <trkpt lat="45.69912" lon="6.68364">
        <ele>2023</ele>
        <time>2022-07-16T14:55:42Z</time>
      </trkpt>
      <trkpt lat="45.69912" lon="6.6836">
        <ele>2023</ele>
        <time>2022-07-16T14:55:44Z</time>
      </trkpt>
      <trkpt lat="45.69911" lon="6.68356">
        <ele>2023</ele>
        <time>2022-07-16T14:55:46Z</time>
      </trkpt>
      <trkpt lat="45.6991" lon="6.68353">
        <ele>2024</ele>
        <time>2022-07-16T14:55:48Z</time>
      </trkpt>
      <trkpt lat="45.69909" lon="6.68348">
        <ele>2024</ele>
        <time>2022-07-16T14:55:50Z</time>
      </trkpt>
      <trkpt lat="45.69909" lon="6.68346">
        <ele>2025</ele>
        <time>2022-07-16T14:55:51Z</time>
      </trkpt>
      <trkpt lat="45.69908" lon="6.68342">
        <ele>2025</ele>
        <time>2022-07-16T14:55:53Z</time>
      </trkpt>
      <trkpt lat="45.69908" lon="6.68339">
        <ele>2025</ele>
        <time>2022-07-16T14:55:55Z</time>
      </trkpt>
      <trkpt lat="45.69908" lon="6.68335">
        <ele>2025</ele>
        <time>2022-07-16T14:55:57Z</time>
      </trkpt>
      <trkpt lat="45.69909" lon="6.68331">
        <ele>2025</ele>
        <time>2022-07-16T14:55:59Z</time>
      </trkpt>
      <trkpt lat="45.69909" lon="6.68327">
        <ele>2025</ele>
        <time>2022-07-16T14:56:01Z</time>
      </trkpt>
      <trkpt lat="45.69908" lon="6.68323">
        <ele>2025</ele>
        <time>2022-07-16T14:56:03Z</time>
      </trkpt>
      <trkpt lat="45.69908" lon="6.68319">
        <ele>2025</ele>
        <time>2022-07-16T14:56:04Z</time>
      </trkpt>
      <trkpt lat="45.69908" lon="6.68315">
        <ele>2025</ele>
        <time>2022-07-16T14:56:07Z</time>
      </trkpt>
      <trkpt lat="45.69908" lon="6.68312">
        <ele>2026</ele>
        <time>2022-07-16T14:56:09Z</time>
      </trkpt>
      <trkpt lat="45.69908" lon="6.68308">
        <ele>2026</ele>
        <time>2022-07-16T14:56:11Z</time>
      </trkpt>
      <trkpt lat="45.69908" lon="6.68304">
        <ele>2027</ele>
        <time>2022-07-16T14:56:13Z</time>
      </trkpt>
      <trkpt lat="45.69907" lon="6.68299">
        <ele>2027</ele>
        <time>2022-07-16T14:56:15Z</time>
      </trkpt>
      <trkpt lat="45.69907" lon="6.68295">
        <ele>2026</ele>
        <time>2022-07-16T14:56:17Z</time>
      </trkpt>
      <trkpt lat="45.69907" lon="6.68291">
        <ele>2026</ele>
        <time>2022-07-16T14:56:19Z</time>
      </trkpt>
      <trkpt lat="45.69906" lon="6.68287">
        <ele>2026</ele>
        <time>2022-07-16T14:56:21Z</time>
      </trkpt>
      <trkpt lat="45.69905" lon="6.68283">
        <ele>2026</ele>
        <time>2022-07-16T14:56:23Z</time>
      </trkpt>
      <trkpt lat="45.69905" lon="6.68279">
        <ele>2027</ele>
        <time>2022-07-16T14:56:25Z</time>
      </trkpt>
      <trkpt lat="45.69904" lon="6.68275">
        <ele>2028</ele>
        <time>2022-07-16T14:56:27Z</time>
      </trkpt>
      <trkpt lat="45.69903" lon="6.68271">
        <ele>2028</ele>
        <time>2022-07-16T14:56:29Z</time>
      </trkpt>
      <trkpt lat="45.69903" lon="6.68267">
        <ele>2029</ele>
        <time>2022-07-16T14:56:31Z</time>
      </trkpt>
      <trkpt lat="45.69902" lon="6.68262">
        <ele>2029</ele>
        <time>2022-07-16T14:56:33Z</time>
      </trkpt>
      <trkpt lat="45.69901" lon="6.68258">
        <ele>2029</ele>
        <time>2022-07-16T14:56:35Z</time>
      </trkpt>
      <trkpt lat="45.699" lon="6.68255">
        <ele>2029</ele>
        <time>2022-07-16T14:56:37Z</time>
      </trkpt>
      <trkpt lat="45.69899" lon="6.68251">
        <ele>2029</ele>
        <time>2022-07-16T14:56:39Z</time>
      </trkpt>
      <trkpt lat="45.69898" lon="6.68246">
        <ele>2029</ele>
        <time>2022-07-16T14:56:41Z</time>
      </trkpt>
      <trkpt lat="45.69898" lon="6.68243">
        <ele>2029</ele>
        <time>2022-07-16T14:56:43Z</time>
      </trkpt>
      <trkpt lat="45.69898" lon="6.68239">
        <ele>2030</ele>
        <time>2022-07-16T14:56:45Z</time>
      </trkpt>
      <trkpt lat="45.69898" lon="6.68235">
        <ele>2030</ele>
        <time>2022-07-16T14:56:47Z</time>
      </trkpt>
      <trkpt lat="45.69897" lon="6.68231">
        <ele>2031</ele>
        <time>2022-07-16T14:56:49Z</time>
      </trkpt>
      <trkpt lat="45.69897" lon="6.68227">
        <ele>2031</ele>
        <time>2022-07-16T14:56:51Z</time>
      </trkpt>
      <trkpt lat="45.69897" lon="6.68223">
        <ele>2030</ele>
        <time>2022-07-16T14:56:53Z</time>
      </trkpt>
      <trkpt lat="45.69896" lon="6.68219">
        <ele>2031</ele>
        <time>2022-07-16T14:56:55Z</time>
      </trkpt>
      <trkpt lat="45.69896" lon="6.68216">
        <ele>2031</ele>
        <time>2022-07-16T14:56:57Z</time>
      </trkpt>
      <trkpt lat="45.69895" lon="6.68212">
        <ele>2031</ele>
        <time>2022-07-16T14:56:59Z</time>
      </trkpt>
      <trkpt lat="45.69894" lon="6.68208">
        <ele>2031</ele>
        <time>2022-07-16T14:57:01Z</time>
      </trkpt>
      <trkpt lat="45.69894" lon="6.68204">
        <ele>2031</ele>
        <time>2022-07-16T14:57:03Z</time>
      </trkpt>
      <trkpt lat="45.69893" lon="6.68201">
        <ele>2032</ele>
        <time>2022-07-16T14:57:05Z</time>
      </trkpt>
      <trkpt lat="45.69893" lon="6.68197">
        <ele>2032</ele>
        <time>2022-07-16T14:57:07Z</time>
      </trkpt>
      <trkpt lat="45.69892" lon="6.68193">
        <ele>2032</ele>
        <time>2022-07-16T14:57:09Z</time>
      </trkpt>
      <trkpt lat="45.69891" lon="6.68189">
        <ele>2033</ele>
        <time>2022-07-16T14:57:11Z</time>
      </trkpt>
      <trkpt lat="45.69891" lon="6.68186">
        <ele>2033</ele>
        <time>2022-07-16T14:57:13Z</time>
      </trkpt>
      <trkpt lat="45.69891" lon="6.68182">
        <ele>2033</ele>
        <time>2022-07-16T14:57:15Z</time>
      </trkpt>
      <trkpt lat="45.6989" lon="6.68178">
        <ele>2034</ele>
        <time>2022-07-16T14:57:17Z</time>
      </trkpt>
      <trkpt lat="45.6989" lon="6.68175">
        <ele>2034</ele>
        <time>2022-07-16T14:57:19Z</time>
      </trkpt>
      <trkpt lat="45.69888" lon="6.68171">
        <ele>2034</ele>
        <time>2022-07-16T14:57:21Z</time>
      </trkpt>
      <trkpt lat="45.69888" lon="6.68168">
        <ele>2034</ele>
        <time>2022-07-16T14:57:23Z</time>
      </trkpt>
      <trkpt lat="45.69887" lon="6.68165">
        <ele>2034</ele>
        <time>2022-07-16T14:57:25Z</time>
      </trkpt>
      <trkpt lat="45.69887" lon="6.68161">
        <ele>2034</ele>
        <time>2022-07-16T14:57:27Z</time>
      </trkpt>
      <trkpt lat="45.69887" lon="6.68158">
        <ele>2035</ele>
        <time>2022-07-16T14:57:29Z</time>
      </trkpt>
      <trkpt lat="45.69887" lon="6.68154">
        <ele>2035</ele>
        <time>2022-07-16T14:57:31Z</time>
      </trkpt>
      <trkpt lat="45.69886" lon="6.68151">
        <ele>2035</ele>
        <time>2022-07-16T14:57:33Z</time>
      </trkpt>
      <trkpt lat="45.69886" lon="6.68147">
        <ele>2035</ele>
        <time>2022-07-16T14:57:35Z</time>
      </trkpt>
      <trkpt lat="45.69887" lon="6.68143">
        <ele>2035</ele>
        <time>2022-07-16T14:57:37Z</time>
      </trkpt>
      <trkpt lat="45.69887" lon="6.6814">
        <ele>2036</ele>
        <time>2022-07-16T14:57:39Z</time>
      </trkpt>
      <trkpt lat="45.69889" lon="6.68136">
        <ele>2037</ele>
        <time>2022-07-16T14:57:41Z</time>
      </trkpt>
      <trkpt lat="45.69891" lon="6.68134">
        <ele>2037</ele>
        <time>2022-07-16T14:57:43Z</time>
      </trkpt>
      <trkpt lat="45.69894" lon="6.68131">
        <ele>2037</ele>
        <time>2022-07-16T14:57:45Z</time>
      </trkpt>
      <trkpt lat="45.69896" lon="6.68129">
        <ele>2037</ele>
        <time>2022-07-16T14:57:47Z</time>
      </trkpt>
      <trkpt lat="45.69898" lon="6.68127">
        <ele>2038</ele>
        <time>2022-07-16T14:57:49Z</time>
      </trkpt>
      <trkpt lat="45.699" lon="6.68126">
        <ele>2038</ele>
        <time>2022-07-16T14:57:51Z</time>
      </trkpt>
      <trkpt lat="45.69903" lon="6.68124">
        <ele>2038</ele>
        <time>2022-07-16T14:57:53Z</time>
      </trkpt>
      <trkpt lat="45.69906" lon="6.68123">
        <ele>2038</ele>
        <time>2022-07-16T14:57:55Z</time>
      </trkpt>
      <trkpt lat="45.69908" lon="6.68121">
        <ele>2038</ele>
        <time>2022-07-16T14:57:57Z</time>
      </trkpt>
      <trkpt lat="45.69911" lon="6.68119">
        <ele>2038</ele>
        <time>2022-07-16T14:57:59Z</time>
      </trkpt>
      <trkpt lat="45.69913" lon="6.68117">
        <ele>2040</ele>
        <time>2022-07-16T14:58:01Z</time>
      </trkpt>
      <trkpt lat="45.69916" lon="6.68115">
        <ele>2040</ele>
        <time>2022-07-16T14:58:03Z</time>
      </trkpt>
      <trkpt lat="45.69918" lon="6.68113">
        <ele>2038</ele>
        <time>2022-07-16T14:58:05Z</time>
      </trkpt>
      <trkpt lat="45.6992" lon="6.68111">
        <ele>2038</ele>
        <time>2022-07-16T14:58:07Z</time>
      </trkpt>
      <trkpt lat="45.69922" lon="6.6811">
        <ele>2040</ele>
        <time>2022-07-16T14:58:09Z</time>
      </trkpt>
      <trkpt lat="45.69924" lon="6.68108">
        <ele>2040</ele>
        <time>2022-07-16T14:58:11Z</time>
      </trkpt>
      <trkpt lat="45.69926" lon="6.68106">
        <ele>2040</ele>
        <time>2022-07-16T14:58:13Z</time>
      </trkpt>
      <trkpt lat="45.69929" lon="6.68104">
        <ele>2040</ele>
        <time>2022-07-16T14:58:15Z</time>
      </trkpt>
      <trkpt lat="45.69931" lon="6.68102">
        <ele>2040</ele>
        <time>2022-07-16T14:58:17Z</time>
      </trkpt>
      <trkpt lat="45.69933" lon="6.681">
        <ele>2040</ele>
        <time>2022-07-16T14:58:19Z</time>
      </trkpt>
      <trkpt lat="45.69935" lon="6.68098">
        <ele>2041</ele>
        <time>2022-07-16T14:58:21Z</time>
      </trkpt>
      <trkpt lat="45.69938" lon="6.68096">
        <ele>2041</ele>
        <time>2022-07-16T14:58:23Z</time>
      </trkpt>
      <trkpt lat="45.6994" lon="6.68094">
        <ele>2041</ele>
        <time>2022-07-16T14:58:25Z</time>
      </trkpt>
      <trkpt lat="45.69942" lon="6.68092">
        <ele>2041</ele>
        <time>2022-07-16T14:58:27Z</time>
      </trkpt>
      <trkpt lat="45.69944" lon="6.6809">
        <ele>2041</ele>
        <time>2022-07-16T14:58:29Z</time>
      </trkpt>
      <trkpt lat="45.69946" lon="6.68088">
        <ele>2041</ele>
        <time>2022-07-16T14:58:31Z</time>
      </trkpt>
      <trkpt lat="45.69948" lon="6.68085">
        <ele>2042</ele>
        <time>2022-07-16T14:58:33Z</time>
      </trkpt>
      <trkpt lat="45.69951" lon="6.68083">
        <ele>2042</ele>
        <time>2022-07-16T14:58:35Z</time>
      </trkpt>
      <trkpt lat="45.69952" lon="6.68081">
        <ele>2042</ele>
        <time>2022-07-16T14:58:37Z</time>
      </trkpt>
      <trkpt lat="45.69954" lon="6.68078">
        <ele>2042</ele>
        <time>2022-07-16T14:58:39Z</time>
      </trkpt>
      <trkpt lat="45.69956" lon="6.68076">
        <ele>2042</ele>
        <time>2022-07-16T14:58:41Z</time>
      </trkpt>
      <trkpt lat="45.69957" lon="6.68074">
        <ele>2043</ele>
        <time>2022-07-16T14:58:43Z</time>
      </trkpt>
      <trkpt lat="45.69959" lon="6.68073">
        <ele>2043</ele>
        <time>2022-07-16T14:58:45Z</time>
      </trkpt>
      <trkpt lat="45.69961" lon="6.68072">
        <ele>2044</ele>
        <time>2022-07-16T14:58:47Z</time>
      </trkpt>
      <trkpt lat="45.69962" lon="6.6807">
        <ele>2044</ele>
        <time>2022-07-16T14:58:49Z</time>
      </trkpt>
      <trkpt lat="45.69964" lon="6.68068">
        <ele>2045</ele>
        <time>2022-07-16T14:58:51Z</time>
      </trkpt>
      <trkpt lat="45.69965" lon="6.68066">
        <ele>2045</ele>
        <time>2022-07-16T14:58:53Z</time>
      </trkpt>
      <trkpt lat="45.69967" lon="6.68064">
        <ele>2045</ele>
        <time>2022-07-16T14:58:55Z</time>
      </trkpt>
      <trkpt lat="45.69969" lon="6.68063">
        <ele>2046</ele>
        <time>2022-07-16T14:58:57Z</time>
      </trkpt>
      <trkpt lat="45.69972" lon="6.68061">
        <ele>2046</ele>
        <time>2022-07-16T14:58:59Z</time>
      </trkpt>
      <trkpt lat="45.69973" lon="6.68059">
        <ele>2046</ele>
        <time>2022-07-16T14:59:01Z</time>
      </trkpt>
      <trkpt lat="45.69975" lon="6.68057">
        <ele>2047</ele>
        <time>2022-07-16T14:59:03Z</time>
      </trkpt>
      <trkpt lat="45.69976" lon="6.68055">
        <ele>2048</ele>
        <time>2022-07-16T14:59:05Z</time>
      </trkpt>
      <trkpt lat="45.69977" lon="6.68052">
        <ele>2048</ele>
        <time>2022-07-16T14:59:07Z</time>
      </trkpt>
      <trkpt lat="45.69979" lon="6.68051">
        <ele>2048</ele>
        <time>2022-07-16T14:59:09Z</time>
      </trkpt>
      <trkpt lat="45.69981" lon="6.68049">
        <ele>2048</ele>
        <time>2022-07-16T14:59:11Z</time>
      </trkpt>
      <trkpt lat="45.69983" lon="6.68047">
        <ele>2048</ele>
        <time>2022-07-16T14:59:13Z</time>
      </trkpt>
      <trkpt lat="45.69985" lon="6.68045">
        <ele>2048</ele>
        <time>2022-07-16T14:59:16Z</time>
      </trkpt>
      <trkpt lat="45.69987" lon="6.68042">
        <ele>2050</ele>
        <time>2022-07-16T14:59:19Z</time>
      </trkpt>
      <trkpt lat="45.69988" lon="6.6804">
        <ele>2050</ele>
        <time>2022-07-16T14:59:21Z</time>
      </trkpt>
      <trkpt lat="45.69989" lon="6.68038">
        <ele>2050</ele>
        <time>2022-07-16T14:59:23Z</time>
      </trkpt>
      <trkpt lat="45.6999" lon="6.68035">
        <ele>2050</ele>
        <time>2022-07-16T14:59:25Z</time>
      </trkpt>
      <trkpt lat="45.69991" lon="6.68032">
        <ele>2050</ele>
        <time>2022-07-16T14:59:27Z</time>
      </trkpt>
      <trkpt lat="45.69992" lon="6.68028">
        <ele>2051</ele>
        <time>2022-07-16T14:59:29Z</time>
      </trkpt>
      <trkpt lat="45.69993" lon="6.68025">
        <ele>2051</ele>
        <time>2022-07-16T14:59:31Z</time>
      </trkpt>
      <trkpt lat="45.69993" lon="6.68022">
        <ele>2051</ele>
        <time>2022-07-16T14:59:33Z</time>
      </trkpt>
      <trkpt lat="45.69994" lon="6.68019">
        <ele>2051</ele>
        <time>2022-07-16T14:59:35Z</time>
      </trkpt>
      <trkpt lat="45.69994" lon="6.68016">
        <ele>2052</ele>
        <time>2022-07-16T14:59:37Z</time>
      </trkpt>
      <trkpt lat="45.69995" lon="6.68013">
        <ele>2052</ele>
        <time>2022-07-16T14:59:39Z</time>
      </trkpt>
      <trkpt lat="45.69995" lon="6.6801">
        <ele>2052</ele>
        <time>2022-07-16T14:59:41Z</time>
      </trkpt>
      <trkpt lat="45.69997" lon="6.68007">
        <ele>2053</ele>
        <time>2022-07-16T14:59:44Z</time>
      </trkpt>
      <trkpt lat="45.7" lon="6.68007">
        <ele>2053</ele>
        <time>2022-07-16T14:59:47Z</time>
      </trkpt>
      <trkpt lat="45.70002" lon="6.6801">
        <ele>2053</ele>
        <time>2022-07-16T14:59:49Z</time>
      </trkpt>
      <trkpt lat="45.70003" lon="6.68012">
        <ele>2053</ele>
        <time>2022-07-16T14:59:51Z</time>
      </trkpt>
      <trkpt lat="45.70004" lon="6.68015">
        <ele>2054</ele>
        <time>2022-07-16T14:59:52Z</time>
      </trkpt>
      <trkpt lat="45.70006" lon="6.68017">
        <ele>2055</ele>
        <time>2022-07-16T14:59:55Z</time>
      </trkpt>
      <trkpt lat="45.70007" lon="6.68019">
        <ele>2055</ele>
        <time>2022-07-16T14:59:57Z</time>
      </trkpt>
      <trkpt lat="45.70009" lon="6.68021">
        <ele>2055</ele>
        <time>2022-07-16T14:59:59Z</time>
      </trkpt>
      <trkpt lat="45.70009" lon="6.68025">
        <ele>2055</ele>
        <time>2022-07-16T15:00:01Z</time>
      </trkpt>
      <trkpt lat="45.7001" lon="6.68028">
        <ele>2056</ele>
        <time>2022-07-16T15:00:04Z</time>
      </trkpt>
      <trkpt lat="45.7001" lon="6.68031">
        <ele>2056</ele>
        <time>2022-07-16T15:00:06Z</time>
      </trkpt>
      <trkpt lat="45.70011" lon="6.68033">
        <ele>2056</ele>
        <time>2022-07-16T15:00:08Z</time>
      </trkpt>
      <trkpt lat="45.70012" lon="6.68036">
        <ele>2057</ele>
        <time>2022-07-16T15:00:11Z</time>
      </trkpt>
      <trkpt lat="45.70013" lon="6.68039">
        <ele>2057</ele>
        <time>2022-07-16T15:00:13Z</time>
      </trkpt>
      <trkpt lat="45.70014" lon="6.68042">
        <ele>2058</ele>
        <time>2022-07-16T15:00:16Z</time>
      </trkpt>
      <trkpt lat="45.70015" lon="6.68045">
        <ele>2058</ele>
        <time>2022-07-16T15:00:18Z</time>
      </trkpt>
      <trkpt lat="45.70017" lon="6.68047">
        <ele>2059</ele>
        <time>2022-07-16T15:00:21Z</time>
      </trkpt>
      <trkpt lat="45.70018" lon="6.68048">
        <ele>2060</ele>
        <time>2022-07-16T15:00:23Z</time>
      </trkpt>
      <trkpt lat="45.70021" lon="6.68049">
        <ele>2060</ele>
        <time>2022-07-16T15:00:26Z</time>
      </trkpt>
      <trkpt lat="45.70023" lon="6.6805">
        <ele>2060</ele>
        <time>2022-07-16T15:00:29Z</time>
      </trkpt>
      <trkpt lat="45.70024" lon="6.68052">
        <ele>2060</ele>
        <time>2022-07-16T15:00:32Z</time>
      </trkpt>
      <trkpt lat="45.70026" lon="6.68054">
        <ele>2062</ele>
        <time>2022-07-16T15:00:35Z</time>
      </trkpt>
      <trkpt lat="45.70028" lon="6.68054">
        <ele>2062</ele>
        <time>2022-07-16T15:00:38Z</time>
      </trkpt>
      <trkpt lat="45.70029" lon="6.68056">
        <ele>2063</ele>
        <time>2022-07-16T15:00:41Z</time>
      </trkpt>
      <trkpt lat="45.7003" lon="6.68058">
        <ele>2063</ele>
        <time>2022-07-16T15:00:43Z</time>
      </trkpt>
      <trkpt lat="45.70032" lon="6.68062">
        <ele>2063</ele>
        <time>2022-07-16T15:00:45Z</time>
      </trkpt>
      <trkpt lat="45.70035" lon="6.68062">
        <ele>2063</ele>
        <time>2022-07-16T15:00:49Z</time>
      </trkpt>
      <trkpt lat="45.70037" lon="6.68063">
        <ele>2066</ele>
        <time>2022-07-16T15:00:52Z</time>
      </trkpt>
      <trkpt lat="45.70038" lon="6.68066">
        <ele>2066</ele>
        <time>2022-07-16T15:00:56Z</time>
      </trkpt>
      <trkpt lat="45.70039" lon="6.68068">
        <ele>2068</ele>
        <time>2022-07-16T15:00:58Z</time>
      </trkpt>
      <trkpt lat="45.70041" lon="6.6807">
        <ele>2068</ele>
        <time>2022-07-16T15:01:00Z</time>
      </trkpt>
      <trkpt lat="45.70043" lon="6.68072">
        <ele>2068</ele>
        <time>2022-07-16T15:01:03Z</time>
      </trkpt>
      <trkpt lat="45.70044" lon="6.68074">
        <ele>2069</ele>
        <time>2022-07-16T15:01:07Z</time>
      </trkpt>
      <trkpt lat="45.70046" lon="6.68074">
        <ele>2069</ele>
        <time>2022-07-16T15:01:09Z</time>
      </trkpt>
      <trkpt lat="45.70048" lon="6.68075">
        <ele>2069</ele>
        <time>2022-07-16T15:01:12Z</time>
      </trkpt>
      <trkpt lat="45.7005" lon="6.68075">
        <ele>2071</ele>
        <time>2022-07-16T15:01:17Z</time>
      </trkpt>
      <trkpt lat="45.70052" lon="6.68078">
        <ele>2072</ele>
        <time>2022-07-16T15:01:24Z</time>
      </trkpt>
      <trkpt lat="45.70054" lon="6.6808">
        <ele>2073</ele>
        <time>2022-07-16T15:01:27Z</time>
      </trkpt>
      <trkpt lat="45.70056" lon="6.68081">
        <ele>2075</ele>
        <time>2022-07-16T15:01:31Z</time>
      </trkpt>
      <trkpt lat="45.70058" lon="6.68084">
        <ele>2076</ele>
        <time>2022-07-16T15:01:37Z</time>
      </trkpt>
      <trkpt lat="45.7006" lon="6.68086">
        <ele>2076</ele>
        <time>2022-07-16T15:01:39Z</time>
      </trkpt>
      <trkpt lat="45.70061" lon="6.68088">
        <ele>2076</ele>
        <time>2022-07-16T15:01:41Z</time>
      </trkpt>
      <trkpt lat="45.7006" lon="6.68089">
        <ele>2077</ele>
        <time>2022-07-16T15:01:45Z</time>
      </trkpt>
      <trkpt lat="45.70057" lon="6.6809">
        <ele>2078</ele>
        <time>2022-07-16T15:01:48Z</time>
      </trkpt>
      <trkpt lat="45.70055" lon="6.68091">
        <ele>2079</ele>
        <time>2022-07-16T15:01:52Z</time>
      </trkpt>
      <trkpt lat="45.70053" lon="6.68093">
        <ele>2079</ele>
        <time>2022-07-16T15:01:56Z</time>
      </trkpt>
      <trkpt lat="45.70051" lon="6.68095">
        <ele>2081</ele>
        <time>2022-07-16T15:01:59Z</time>
      </trkpt>
      <trkpt lat="45.70051" lon="6.68098">
        <ele>2081</ele>
        <time>2022-07-16T15:02:02Z</time>
      </trkpt>
      <trkpt lat="45.70052" lon="6.68102">
        <ele>2081</ele>
        <time>2022-07-16T15:02:04Z</time>
      </trkpt>
      <trkpt lat="45.70052" lon="6.68104">
        <ele>2081</ele>
        <time>2022-07-16T15:02:05Z</time>
      </trkpt>
      <trkpt lat="45.70051" lon="6.68107">
        <ele>2081</ele>
        <time>2022-07-16T15:02:08Z</time>
      </trkpt>
      <trkpt lat="45.70053" lon="6.6811">
        <ele>2081</ele>
        <time>2022-07-16T15:02:11Z</time>
      </trkpt>
      <trkpt lat="45.70055" lon="6.68111">
        <ele>2081</ele>
        <time>2022-07-16T15:02:14Z</time>
      </trkpt>
      <trkpt lat="45.70057" lon="6.68108">
        <ele>2081</ele>
        <time>2022-07-16T15:02:17Z</time>
      </trkpt>
      <trkpt lat="45.70059" lon="6.68107">
        <ele>2083</ele>
        <time>2022-07-16T15:02:20Z</time>
      </trkpt>
      <trkpt lat="45.7006" lon="6.68108">
        <ele>2084</ele>
        <time>2022-07-16T15:02:23Z</time>
      </trkpt>
      <trkpt lat="45.70062" lon="6.6811">
        <ele>2085</ele>
        <time>2022-07-16T15:02:28Z</time>
      </trkpt>
      <trkpt lat="45.70063" lon="6.68112">
        <ele>2086</ele>
        <time>2022-07-16T15:02:31Z</time>
      </trkpt>
      <trkpt lat="45.70065" lon="6.68114">
        <ele>2087</ele>
        <time>2022-07-16T15:02:36Z</time>
      </trkpt>
      <trkpt lat="45.70066" lon="6.68116">
        <ele>2088</ele>
        <time>2022-07-16T15:02:39Z</time>
      </trkpt>
      <trkpt lat="45.70067" lon="6.68119">
        <ele>2089</ele>
        <time>2022-07-16T15:02:42Z</time>
      </trkpt>
      <trkpt lat="45.70068" lon="6.68121">
        <ele>2090</ele>
        <time>2022-07-16T15:02:45Z</time>
      </trkpt>
      <trkpt lat="45.7007" lon="6.68123">
        <ele>2090</ele>
        <time>2022-07-16T15:02:48Z</time>
      </trkpt>
      <trkpt lat="45.70072" lon="6.68124">
        <ele>2092</ele>
        <time>2022-07-16T15:02:51Z</time>
      </trkpt>
      <trkpt lat="45.70074" lon="6.68125">
        <ele>2092</ele>
        <time>2022-07-16T15:02:54Z</time>
      </trkpt>
      <trkpt lat="45.70075" lon="6.68127">
        <ele>2093</ele>
        <time>2022-07-16T15:02:57Z</time>
      </trkpt>
      <trkpt lat="45.70077" lon="6.68129">
        <ele>2094</ele>
        <time>2022-07-16T15:03:00Z</time>
      </trkpt>
      <trkpt lat="45.70079" lon="6.68131">
        <ele>2094</ele>
        <time>2022-07-16T15:03:03Z</time>
      </trkpt>
      <trkpt lat="45.7008" lon="6.68133">
        <ele>2095</ele>
        <time>2022-07-16T15:03:05Z</time>
      </trkpt>
      <trkpt lat="45.70081" lon="6.68135">
        <ele>2095</ele>
        <time>2022-07-16T15:03:07Z</time>
      </trkpt>
      <trkpt lat="45.70082" lon="6.68137">
        <ele>2096</ele>
        <time>2022-07-16T15:03:09Z</time>
      </trkpt>
      <trkpt lat="45.70084" lon="6.68139">
        <ele>2096</ele>
        <time>2022-07-16T15:03:11Z</time>
      </trkpt>
      <trkpt lat="45.70086" lon="6.68141">
        <ele>2097</ele>
        <time>2022-07-16T15:03:14Z</time>
      </trkpt>
      <trkpt lat="45.70087" lon="6.68142">
        <ele>2097</ele>
        <time>2022-07-16T15:03:16Z</time>
      </trkpt>
      <trkpt lat="45.70089" lon="6.68145">
        <ele>2097</ele>
        <time>2022-07-16T15:03:18Z</time>
      </trkpt>
      <trkpt lat="45.70091" lon="6.68148">
        <ele>2097</ele>
        <time>2022-07-16T15:03:20Z</time>
      </trkpt>
      <trkpt lat="45.70092" lon="6.6815">
        <ele>2097</ele>
        <time>2022-07-16T15:03:21Z</time>
      </trkpt>
      <trkpt lat="45.70094" lon="6.68152">
        <ele>2097</ele>
        <time>2022-07-16T15:03:24Z</time>
      </trkpt>
      <trkpt lat="45.70096" lon="6.68153">
        <ele>2097</ele>
        <time>2022-07-16T15:03:26Z</time>
      </trkpt>
      <trkpt lat="45.70099" lon="6.68154">
        <ele>2097</ele>
        <time>2022-07-16T15:03:28Z</time>
      </trkpt>
      <trkpt lat="45.701" lon="6.68156">
        <ele>2097</ele>
        <time>2022-07-16T15:03:30Z</time>
      </trkpt>
      <trkpt lat="45.70103" lon="6.68157">
        <ele>2098</ele>
        <time>2022-07-16T15:03:33Z</time>
      </trkpt>
      <trkpt lat="45.70105" lon="6.68156">
        <ele>2099</ele>
        <time>2022-07-16T15:03:36Z</time>
      </trkpt>
      <trkpt lat="45.70107" lon="6.68155">
        <ele>2099</ele>
        <time>2022-07-16T15:03:38Z</time>
      </trkpt>
      <trkpt lat="45.70109" lon="6.68154">
        <ele>2098</ele>
        <time>2022-07-16T15:03:40Z</time>
      </trkpt>
      <trkpt lat="45.70111" lon="6.68153">
        <ele>2098</ele>
        <time>2022-07-16T15:03:42Z</time>
      </trkpt>
      <trkpt lat="45.70112" lon="6.68151">
        <ele>2099</ele>
        <time>2022-07-16T15:03:44Z</time>
      </trkpt>
      <trkpt lat="45.70114" lon="6.68149">
        <ele>2099</ele>
        <time>2022-07-16T15:03:46Z</time>
      </trkpt>
      <trkpt lat="45.70116" lon="6.68148">
        <ele>2100</ele>
        <time>2022-07-16T15:03:48Z</time>
      </trkpt>
      <trkpt lat="45.70118" lon="6.68147">
        <ele>2099</ele>
        <time>2022-07-16T15:03:50Z</time>
      </trkpt>
      <trkpt lat="45.70121" lon="6.68147">
        <ele>2101</ele>
        <time>2022-07-16T15:03:53Z</time>
      </trkpt>
      <trkpt lat="45.70123" lon="6.68149">
        <ele>2101</ele>
        <time>2022-07-16T15:03:55Z</time>
      </trkpt>
      <trkpt lat="45.70125" lon="6.6815">
        <ele>2101</ele>
        <time>2022-07-16T15:03:57Z</time>
      </trkpt>
      <trkpt lat="45.70126" lon="6.68153">
        <ele>2101</ele>
        <time>2022-07-16T15:04:00Z</time>
      </trkpt>
      <trkpt lat="45.70128" lon="6.68156">
        <ele>2102</ele>
        <time>2022-07-16T15:04:03Z</time>
      </trkpt>
      <trkpt lat="45.7013" lon="6.68158">
        <ele>2103</ele>
        <time>2022-07-16T15:04:06Z</time>
      </trkpt>
      <trkpt lat="45.70131" lon="6.6816">
        <ele>2104</ele>
        <time>2022-07-16T15:04:09Z</time>
      </trkpt>
      <trkpt lat="45.70132" lon="6.68162">
        <ele>2105</ele>
        <time>2022-07-16T15:04:12Z</time>
      </trkpt>
      <trkpt lat="45.70134" lon="6.68164">
        <ele>2105</ele>
        <time>2022-07-16T15:04:15Z</time>
      </trkpt>
      <trkpt lat="45.70136" lon="6.68166">
        <ele>2105</ele>
        <time>2022-07-16T15:04:17Z</time>
      </trkpt>
      <trkpt lat="45.70137" lon="6.6817">
        <ele>2105</ele>
        <time>2022-07-16T15:04:20Z</time>
      </trkpt>
      <trkpt lat="45.70138" lon="6.68172">
        <ele>2106</ele>
        <time>2022-07-16T15:04:22Z</time>
      </trkpt>
      <trkpt lat="45.70139" lon="6.68175">
        <ele>2106</ele>
        <time>2022-07-16T15:04:25Z</time>
      </trkpt>
      <trkpt lat="45.70141" lon="6.68175">
        <ele>2107</ele>
        <time>2022-07-16T15:04:28Z</time>
      </trkpt>
      <trkpt lat="45.70143" lon="6.68176">
        <ele>2107</ele>
        <time>2022-07-16T15:04:31Z</time>
      </trkpt>
      <trkpt lat="45.70146" lon="6.68177">
        <ele>2107</ele>
        <time>2022-07-16T15:04:35Z</time>
      </trkpt>
      <trkpt lat="45.70147" lon="6.6818">
        <ele>2107</ele>
        <time>2022-07-16T15:04:37Z</time>
      </trkpt>
      <trkpt lat="45.70148" lon="6.68183">
        <ele>2108</ele>
        <time>2022-07-16T15:04:39Z</time>
      </trkpt>
      <trkpt lat="45.70149" lon="6.68186">
        <ele>2109</ele>
        <time>2022-07-16T15:04:41Z</time>
      </trkpt>
      <trkpt lat="45.7015" lon="6.68188">
        <ele>2109</ele>
        <time>2022-07-16T15:04:43Z</time>
      </trkpt>
      <trkpt lat="45.7015" lon="6.68191">
        <ele>2109</ele>
        <time>2022-07-16T15:04:45Z</time>
      </trkpt>
      <trkpt lat="45.70152" lon="6.68192">
        <ele>2110</ele>
        <time>2022-07-16T15:04:48Z</time>
      </trkpt>
      <trkpt lat="45.70154" lon="6.68193">
        <ele>2111</ele>
        <time>2022-07-16T15:04:50Z</time>
      </trkpt>
      <trkpt lat="45.70156" lon="6.68194">
        <ele>2112</ele>
        <time>2022-07-16T15:04:52Z</time>
      </trkpt>
      <trkpt lat="45.70158" lon="6.68195">
        <ele>2112</ele>
        <time>2022-07-16T15:04:55Z</time>
      </trkpt>
      <trkpt lat="45.70159" lon="6.68198">
        <ele>2112</ele>
        <time>2022-07-16T15:04:58Z</time>
      </trkpt>
      <trkpt lat="45.70159" lon="6.68199">
        <ele>2113</ele>
        <time>2022-07-16T15:05:00Z</time>
      </trkpt>
      <trkpt lat="45.70159" lon="6.682">
        <ele>2114</ele>
        <time>2022-07-16T15:05:01Z</time>
      </trkpt>
      <trkpt lat="45.70159" lon="6.68201">
        <ele>2114</ele>
        <time>2022-07-16T15:05:02Z</time>
      </trkpt>
      <trkpt lat="45.70159" lon="6.68202">
        <ele>2114</ele>
        <time>2022-07-16T15:05:03Z</time>
      </trkpt>
      <trkpt lat="45.70159" lon="6.68203">
        <ele>2114</ele>
        <time>2022-07-16T15:05:04Z</time>
      </trkpt>
      <trkpt lat="45.70159" lon="6.68204">
        <ele>2114</ele>
        <time>2022-07-16T15:05:05Z</time>
      </trkpt>
      <trkpt lat="45.70158" lon="6.68207">
        <ele>2114</ele>
        <time>2022-07-16T15:05:07Z</time>
      </trkpt>
      <trkpt lat="45.70157" lon="6.6821">
        <ele>2115</ele>
        <time>2022-07-16T15:05:09Z</time>
      </trkpt>
      <trkpt lat="45.70156" lon="6.68212">
        <ele>2115</ele>
        <time>2022-07-16T15:05:11Z</time>
      </trkpt>
      <trkpt lat="45.70156" lon="6.68216">
        <ele>2115</ele>
        <time>2022-07-16T15:05:13Z</time>
      </trkpt>
      <trkpt lat="45.70155" lon="6.68218">
        <ele>2115</ele>
        <time>2022-07-16T15:05:15Z</time>
      </trkpt>
      <trkpt lat="45.70153" lon="6.6822">
        <ele>2115</ele>
        <time>2022-07-16T15:05:17Z</time>
      </trkpt>
      <trkpt lat="45.70152" lon="6.68222">
        <ele>2116</ele>
        <time>2022-07-16T15:05:19Z</time>
      </trkpt>
      <trkpt lat="45.7015" lon="6.68225">
        <ele>2118</ele>
        <time>2022-07-16T15:05:21Z</time>
      </trkpt>
      <trkpt lat="45.70149" lon="6.68227">
        <ele>2118</ele>
        <time>2022-07-16T15:05:23Z</time>
      </trkpt>
      <trkpt lat="45.70148" lon="6.68229">
        <ele>2118</ele>
        <time>2022-07-16T15:05:25Z</time>
      </trkpt>
      <trkpt lat="45.70147" lon="6.68232">
        <ele>2119</ele>
        <time>2022-07-16T15:05:28Z</time>
      </trkpt>
      <trkpt lat="45.70146" lon="6.68235">
        <ele>2119</ele>
        <time>2022-07-16T15:05:30Z</time>
      </trkpt>
      <trkpt lat="45.70144" lon="6.68238">
        <ele>2119</ele>
        <time>2022-07-16T15:05:32Z</time>
      </trkpt>
      <trkpt lat="45.70142" lon="6.6824">
        <ele>2119</ele>
        <time>2022-07-16T15:05:34Z</time>
      </trkpt>
      <trkpt lat="45.7014" lon="6.68242">
        <ele>2121</ele>
        <time>2022-07-16T15:05:36Z</time>
      </trkpt>
      <trkpt lat="45.70138" lon="6.68245">
        <ele>2121</ele>
        <time>2022-07-16T15:05:38Z</time>
      </trkpt>
      <trkpt lat="45.70137" lon="6.68248">
        <ele>2121</ele>
        <time>2022-07-16T15:05:40Z</time>
      </trkpt>
      <trkpt lat="45.70136" lon="6.68251">
        <ele>2121</ele>
        <time>2022-07-16T15:05:42Z</time>
      </trkpt>
      <trkpt lat="45.70135" lon="6.68254">
        <ele>2121</ele>
        <time>2022-07-16T15:05:44Z</time>
      </trkpt>
      <trkpt lat="45.70134" lon="6.68258">
        <ele>2121</ele>
        <time>2022-07-16T15:05:46Z</time>
      </trkpt>
      <trkpt lat="45.70133" lon="6.68261">
        <ele>2121</ele>
        <time>2022-07-16T15:05:48Z</time>
      </trkpt>
      <trkpt lat="45.70132" lon="6.68264">
        <ele>2121</ele>
        <time>2022-07-16T15:05:50Z</time>
      </trkpt>
      <trkpt lat="45.70132" lon="6.68267">
        <ele>2122</ele>
        <time>2022-07-16T15:05:52Z</time>
      </trkpt>
      <trkpt lat="45.70133" lon="6.68271">
        <ele>2122</ele>
        <time>2022-07-16T15:05:54Z</time>
      </trkpt>
      <trkpt lat="45.70133" lon="6.68274">
        <ele>2122</ele>
        <time>2022-07-16T15:05:56Z</time>
      </trkpt>
      <trkpt lat="45.70135" lon="6.68276">
        <ele>2122</ele>
        <time>2022-07-16T15:05:58Z</time>
      </trkpt>
      <trkpt lat="45.70136" lon="6.68278">
        <ele>2123</ele>
        <time>2022-07-16T15:06:00Z</time>
      </trkpt>
      <trkpt lat="45.70137" lon="6.68281">
        <ele>2123</ele>
        <time>2022-07-16T15:06:02Z</time>
      </trkpt>
      <trkpt lat="45.70138" lon="6.68284">
        <ele>2123</ele>
        <time>2022-07-16T15:06:04Z</time>
      </trkpt>
      <trkpt lat="45.7014" lon="6.68286">
        <ele>2122</ele>
        <time>2022-07-16T15:06:06Z</time>
      </trkpt>
      <trkpt lat="45.70142" lon="6.68287">
        <ele>2123</ele>
        <time>2022-07-16T15:06:10Z</time>
      </trkpt>
      <trkpt lat="45.70144" lon="6.68286">
        <ele>2123</ele>
        <time>2022-07-16T15:06:14Z</time>
      </trkpt>
      <trkpt lat="45.70146" lon="6.68285">
        <ele>2125</ele>
        <time>2022-07-16T15:06:18Z</time>
      </trkpt>
      <trkpt lat="45.70148" lon="6.68284">
        <ele>2126</ele>
        <time>2022-07-16T15:06:21Z</time>
      </trkpt>
      <trkpt lat="45.7015" lon="6.68282">
        <ele>2127</ele>
        <time>2022-07-16T15:06:25Z</time>
      </trkpt>
      <trkpt lat="45.70151" lon="6.6828">
        <ele>2127</ele>
        <time>2022-07-16T15:06:28Z</time>
      </trkpt>
      <trkpt lat="45.70151" lon="6.68277">
        <ele>2127</ele>
        <time>2022-07-16T15:06:30Z</time>
      </trkpt>
      <trkpt lat="45.70153" lon="6.68274">
        <ele>2127</ele>
        <time>2022-07-16T15:06:33Z</time>
      </trkpt>
      <trkpt lat="45.70153" lon="6.6827">
        <ele>2128</ele>
        <time>2022-07-16T15:06:36Z</time>
      </trkpt>
      <trkpt lat="45.70154" lon="6.68267">
        <ele>2129</ele>
        <time>2022-07-16T15:06:39Z</time>
      </trkpt>
      <trkpt lat="45.70154" lon="6.68264">
        <ele>2129</ele>
        <time>2022-07-16T15:06:42Z</time>
      </trkpt>
      <trkpt lat="45.70155" lon="6.68262">
        <ele>2130</ele>
        <time>2022-07-16T15:06:44Z</time>
      </trkpt>
      <trkpt lat="45.70156" lon="6.68259">
        <ele>2130</ele>
        <time>2022-07-16T15:06:46Z</time>
      </trkpt>
      <trkpt lat="45.70157" lon="6.68256">
        <ele>2130</ele>
        <time>2022-07-16T15:06:48Z</time>
      </trkpt>
      <trkpt lat="45.70158" lon="6.68253">
        <ele>2131</ele>
        <time>2022-07-16T15:06:50Z</time>
      </trkpt>
      <trkpt lat="45.70159" lon="6.6825">
        <ele>2133</ele>
        <time>2022-07-16T15:06:53Z</time>
      </trkpt>
      <trkpt lat="45.7016" lon="6.68248">
        <ele>2134</ele>
        <time>2022-07-16T15:06:55Z</time>
      </trkpt>
      <trkpt lat="45.70162" lon="6.68245">
        <ele>2134</ele>
        <time>2022-07-16T15:06:58Z</time>
      </trkpt>
      <trkpt lat="45.70164" lon="6.68244">
        <ele>2134</ele>
        <time>2022-07-16T15:07:01Z</time>
      </trkpt>
      <trkpt lat="45.70167" lon="6.68243">
        <ele>2134</ele>
        <time>2022-07-16T15:07:05Z</time>
      </trkpt>
      <trkpt lat="45.70169" lon="6.68243">
        <ele>2135</ele>
        <time>2022-07-16T15:07:08Z</time>
      </trkpt>
      <trkpt lat="45.70172" lon="6.68244">
        <ele>2136</ele>
        <time>2022-07-16T15:07:12Z</time>
      </trkpt>
      <trkpt lat="45.70173" lon="6.68245">
        <ele>2136</ele>
        <time>2022-07-16T15:07:14Z</time>
      </trkpt>
      <trkpt lat="45.70176" lon="6.68245">
        <ele>2136</ele>
        <time>2022-07-16T15:07:17Z</time>
      </trkpt>
      <trkpt lat="45.70179" lon="6.68247">
        <ele>2136</ele>
        <time>2022-07-16T15:07:20Z</time>
      </trkpt>
      <trkpt lat="45.70181" lon="6.68247">
        <ele>2137</ele>
        <time>2022-07-16T15:07:25Z</time>
      </trkpt>
      <trkpt lat="45.70184" lon="6.68247">
        <ele>2138</ele>
        <time>2022-07-16T15:07:28Z</time>
      </trkpt>
      <trkpt lat="45.70185" lon="6.68248">
        <ele>2139</ele>
        <time>2022-07-16T15:07:30Z</time>
      </trkpt>
      <trkpt lat="45.70187" lon="6.6825">
        <ele>2140</ele>
        <time>2022-07-16T15:07:33Z</time>
      </trkpt>
      <trkpt lat="45.70189" lon="6.68251">
        <ele>2140</ele>
        <time>2022-07-16T15:07:36Z</time>
      </trkpt>
      <trkpt lat="45.70191" lon="6.68252">
        <ele>2141</ele>
        <time>2022-07-16T15:07:39Z</time>
      </trkpt>
      <trkpt lat="45.70193" lon="6.68254">
        <ele>2142</ele>
        <time>2022-07-16T15:07:43Z</time>
      </trkpt>
      <trkpt lat="45.70194" lon="6.68256">
        <ele>2144</ele>
        <time>2022-07-16T15:07:46Z</time>
      </trkpt>
      <trkpt lat="45.70196" lon="6.68258">
        <ele>2144</ele>
        <time>2022-07-16T15:07:49Z</time>
      </trkpt>
      <trkpt lat="45.70197" lon="6.6826">
        <ele>2145</ele>
        <time>2022-07-16T15:07:53Z</time>
      </trkpt>
      <trkpt lat="45.702" lon="6.68262">
        <ele>2145</ele>
        <time>2022-07-16T15:07:56Z</time>
      </trkpt>
      <trkpt lat="45.70201" lon="6.68263">
        <ele>2145</ele>
        <time>2022-07-16T15:07:59Z</time>
      </trkpt>
      <trkpt lat="45.70203" lon="6.68266">
        <ele>2145</ele>
        <time>2022-07-16T15:08:02Z</time>
      </trkpt>
      <trkpt lat="45.70203" lon="6.68268">
        <ele>2146</ele>
        <time>2022-07-16T15:08:05Z</time>
      </trkpt>
      <trkpt lat="45.70204" lon="6.68271">
        <ele>2147</ele>
        <time>2022-07-16T15:08:08Z</time>
      </trkpt>
      <trkpt lat="45.70204" lon="6.68274">
        <ele>2147</ele>
        <time>2022-07-16T15:08:11Z</time>
      </trkpt>
      <trkpt lat="45.70205" lon="6.68276">
        <ele>2148</ele>
        <time>2022-07-16T15:08:14Z</time>
      </trkpt>
      <trkpt lat="45.70206" lon="6.68279">
        <ele>2149</ele>
        <time>2022-07-16T15:08:18Z</time>
      </trkpt>
      <trkpt lat="45.70207" lon="6.68282">
        <ele>2150</ele>
        <time>2022-07-16T15:08:22Z</time>
      </trkpt>
      <trkpt lat="45.70208" lon="6.68285">
        <ele>2150</ele>
        <time>2022-07-16T15:08:25Z</time>
      </trkpt>
      <trkpt lat="45.70208" lon="6.68289">
        <ele>2151</ele>
        <time>2022-07-16T15:08:28Z</time>
      </trkpt>
      <trkpt lat="45.7021" lon="6.68291">
        <ele>2152</ele>
        <time>2022-07-16T15:08:31Z</time>
      </trkpt>
      <trkpt lat="45.70212" lon="6.68293">
        <ele>2152</ele>
        <time>2022-07-16T15:08:34Z</time>
      </trkpt>
      <trkpt lat="45.70213" lon="6.68294">
        <ele>2153</ele>
        <time>2022-07-16T15:08:37Z</time>
      </trkpt>
      <trkpt lat="45.70216" lon="6.68294">
        <ele>2154</ele>
        <time>2022-07-16T15:08:40Z</time>
      </trkpt>
      <trkpt lat="45.70218" lon="6.68292">
        <ele>2154</ele>
        <time>2022-07-16T15:08:43Z</time>
      </trkpt>
      <trkpt lat="45.70219" lon="6.68291">
        <ele>2154</ele>
        <time>2022-07-16T15:08:45Z</time>
      </trkpt>
      <trkpt lat="45.70221" lon="6.6829">
        <ele>2155</ele>
        <time>2022-07-16T15:08:47Z</time>
      </trkpt>
      <trkpt lat="45.70223" lon="6.68289">
        <ele>2156</ele>
        <time>2022-07-16T15:08:49Z</time>
      </trkpt>
      <trkpt lat="45.70225" lon="6.6829">
        <ele>2156</ele>
        <time>2022-07-16T15:08:52Z</time>
      </trkpt>
      <trkpt lat="45.70228" lon="6.6829">
        <ele>2157</ele>
        <time>2022-07-16T15:08:55Z</time>
      </trkpt>
      <trkpt lat="45.7023" lon="6.68289">
        <ele>2157</ele>
        <time>2022-07-16T15:08:57Z</time>
      </trkpt>
      <trkpt lat="45.70232" lon="6.68289">
        <ele>2157</ele>
        <time>2022-07-16T15:08:59Z</time>
      </trkpt>
      <trkpt lat="45.70234" lon="6.68289">
        <ele>2158</ele>
        <time>2022-07-16T15:09:01Z</time>
      </trkpt>
      <trkpt lat="45.70236" lon="6.68289">
        <ele>2158</ele>
        <time>2022-07-16T15:09:03Z</time>
      </trkpt>
      <trkpt lat="45.70238" lon="6.68288">
        <ele>2158</ele>
        <time>2022-07-16T15:09:06Z</time>
      </trkpt>
      <trkpt lat="45.7024" lon="6.68288">
        <ele>2158</ele>
        <time>2022-07-16T15:09:08Z</time>
      </trkpt>
      <trkpt lat="45.70242" lon="6.68287">
        <ele>2159</ele>
        <time>2022-07-16T15:09:12Z</time>
      </trkpt>
      <trkpt lat="45.70245" lon="6.68286">
        <ele>2160</ele>
        <time>2022-07-16T15:09:15Z</time>
      </trkpt>
      <trkpt lat="45.70247" lon="6.68284">
        <ele>2161</ele>
        <time>2022-07-16T15:09:18Z</time>
      </trkpt>
      <trkpt lat="45.70249" lon="6.68284">
        <ele>2161</ele>
        <time>2022-07-16T15:09:21Z</time>
      </trkpt>
      <trkpt lat="45.70251" lon="6.68283">
        <ele>2161</ele>
        <time>2022-07-16T15:09:23Z</time>
      </trkpt>
      <trkpt lat="45.70253" lon="6.68283">
        <ele>2162</ele>
        <time>2022-07-16T15:09:26Z</time>
      </trkpt>
      <trkpt lat="45.70255" lon="6.68281">
        <ele>2162</ele>
        <time>2022-07-16T15:09:29Z</time>
      </trkpt>
      <trkpt lat="45.70257" lon="6.6828">
        <ele>2162</ele>
        <time>2022-07-16T15:09:32Z</time>
      </trkpt>
      <trkpt lat="45.70259" lon="6.6828">
        <ele>2164</ele>
        <time>2022-07-16T15:09:36Z</time>
      </trkpt>
      <trkpt lat="45.70261" lon="6.68282">
        <ele>2164</ele>
        <time>2022-07-16T15:09:38Z</time>
      </trkpt>
      <trkpt lat="45.70262" lon="6.68284">
        <ele>2164</ele>
        <time>2022-07-16T15:09:41Z</time>
      </trkpt>
      <trkpt lat="45.70264" lon="6.68284">
        <ele>2165</ele>
        <time>2022-07-16T15:09:45Z</time>
      </trkpt>
      <trkpt lat="45.70266" lon="6.68283">
        <ele>2166</ele>
        <time>2022-07-16T15:09:49Z</time>
      </trkpt>
      <trkpt lat="45.70269" lon="6.68284">
        <ele>2166</ele>
        <time>2022-07-16T15:09:53Z</time>
      </trkpt>
      <trkpt lat="45.70271" lon="6.68285">
        <ele>2168</ele>
        <time>2022-07-16T15:09:57Z</time>
      </trkpt>
      <trkpt lat="45.70273" lon="6.68285">
        <ele>2168</ele>
        <time>2022-07-16T15:10:01Z</time>
      </trkpt>
      <trkpt lat="45.70275" lon="6.68285">
        <ele>2170</ele>
        <time>2022-07-16T15:10:04Z</time>
      </trkpt>
      <trkpt lat="45.70277" lon="6.68285">
        <ele>2170</ele>
        <time>2022-07-16T15:10:08Z</time>
      </trkpt>
      <trkpt lat="45.70279" lon="6.68285">
        <ele>2172</ele>
        <time>2022-07-16T15:10:12Z</time>
      </trkpt>
      <trkpt lat="45.70281" lon="6.68285">
        <ele>2172</ele>
        <time>2022-07-16T15:10:17Z</time>
      </trkpt>
      <trkpt lat="45.70283" lon="6.68283">
        <ele>2173</ele>
        <time>2022-07-16T15:10:22Z</time>
      </trkpt>
      <trkpt lat="45.70285" lon="6.68282">
        <ele>2175</ele>
        <time>2022-07-16T15:10:26Z</time>
      </trkpt>
      <trkpt lat="45.70286" lon="6.68285">
        <ele>2175</ele>
        <time>2022-07-16T15:10:28Z</time>
      </trkpt>
      <trkpt lat="45.70287" lon="6.68287">
        <ele>2174</ele>
        <time>2022-07-16T15:10:30Z</time>
      </trkpt>
      <trkpt lat="45.70287" lon="6.6829">
        <ele>2175</ele>
        <time>2022-07-16T15:10:32Z</time>
      </trkpt>
      <trkpt lat="45.70288" lon="6.68292">
        <ele>2175</ele>
        <time>2022-07-16T15:10:34Z</time>
      </trkpt>
      <trkpt lat="45.70289" lon="6.68295">
        <ele>2175</ele>
        <time>2022-07-16T15:10:36Z</time>
      </trkpt>
      <trkpt lat="45.7029" lon="6.68298">
        <ele>2176</ele>
        <time>2022-07-16T15:10:38Z</time>
      </trkpt>
      <trkpt lat="45.70291" lon="6.683">
        <ele>2176</ele>
        <time>2022-07-16T15:10:40Z</time>
      </trkpt>
      <trkpt lat="45.70292" lon="6.68303">
        <ele>2177</ele>
        <time>2022-07-16T15:10:42Z</time>
      </trkpt>
      <trkpt lat="45.70293" lon="6.68306">
        <ele>2177</ele>
        <time>2022-07-16T15:10:44Z</time>
      </trkpt>
      <trkpt lat="45.70294" lon="6.68308">
        <ele>2177</ele>
        <time>2022-07-16T15:10:46Z</time>
      </trkpt>
      <trkpt lat="45.70295" lon="6.6831">
        <ele>2178</ele>
        <time>2022-07-16T15:10:48Z</time>
      </trkpt>
      <trkpt lat="45.70296" lon="6.68313">
        <ele>2178</ele>
        <time>2022-07-16T15:10:50Z</time>
      </trkpt>
      <trkpt lat="45.70297" lon="6.68315">
        <ele>2178</ele>
        <time>2022-07-16T15:10:52Z</time>
      </trkpt>
      <trkpt lat="45.70299" lon="6.68313">
        <ele>2179</ele>
        <time>2022-07-16T15:10:57Z</time>
      </trkpt>
      <trkpt lat="45.703" lon="6.6831">
        <ele>2180</ele>
        <time>2022-07-16T15:11:00Z</time>
      </trkpt>
      <trkpt lat="45.703" lon="6.68308">
        <ele>2180</ele>
        <time>2022-07-16T15:11:03Z</time>
      </trkpt>
      <trkpt lat="45.70301" lon="6.68305">
        <ele>2181</ele>
        <time>2022-07-16T15:11:06Z</time>
      </trkpt>
      <trkpt lat="45.70301" lon="6.68302">
        <ele>2183</ele>
        <time>2022-07-16T15:11:14Z</time>
      </trkpt>
      <trkpt lat="45.70303" lon="6.683">
        <ele>2183</ele>
        <time>2022-07-16T15:11:17Z</time>
      </trkpt>
      <trkpt lat="45.70304" lon="6.68298">
        <ele>2184</ele>
        <time>2022-07-16T15:11:20Z</time>
      </trkpt>
      <trkpt lat="45.70305" lon="6.68296">
        <ele>2184</ele>
        <time>2022-07-16T15:11:24Z</time>
      </trkpt>
      <trkpt lat="45.70306" lon="6.68292">
        <ele>2184</ele>
        <time>2022-07-16T15:11:28Z</time>
      </trkpt>
      <trkpt lat="45.70308" lon="6.6829">
        <ele>2186</ele>
        <time>2022-07-16T15:11:31Z</time>
      </trkpt>
      <trkpt lat="45.7031" lon="6.6829">
        <ele>2186</ele>
        <time>2022-07-16T15:11:34Z</time>
      </trkpt>
      <trkpt lat="45.70312" lon="6.68289">
        <ele>2187</ele>
        <time>2022-07-16T15:11:37Z</time>
      </trkpt>
      <trkpt lat="45.70314" lon="6.68289">
        <ele>2187</ele>
        <time>2022-07-16T15:11:39Z</time>
      </trkpt>
      <trkpt lat="45.70316" lon="6.68291">
        <ele>2187</ele>
        <time>2022-07-16T15:11:42Z</time>
      </trkpt>
      <trkpt lat="45.70317" lon="6.68294">
        <ele>2188</ele>
        <time>2022-07-16T15:11:45Z</time>
      </trkpt>
      <trkpt lat="45.70317" lon="6.68297">
        <ele>2189</ele>
        <time>2022-07-16T15:11:48Z</time>
      </trkpt>
      <trkpt lat="45.70317" lon="6.68301">
        <ele>2190</ele>
        <time>2022-07-16T15:11:51Z</time>
      </trkpt>
      <trkpt lat="45.70318" lon="6.68304">
        <ele>2190</ele>
        <time>2022-07-16T15:11:54Z</time>
      </trkpt>
      <trkpt lat="45.70318" lon="6.68307">
        <ele>2190</ele>
        <time>2022-07-16T15:11:56Z</time>
      </trkpt>
      <trkpt lat="45.70319" lon="6.68309">
        <ele>2190</ele>
        <time>2022-07-16T15:11:58Z</time>
      </trkpt>
      <trkpt lat="45.70321" lon="6.68311">
        <ele>2190</ele>
        <time>2022-07-16T15:12:00Z</time>
      </trkpt>
      <trkpt lat="45.70322" lon="6.68314">
        <ele>2191</ele>
        <time>2022-07-16T15:12:02Z</time>
      </trkpt>
      <trkpt lat="45.70322" lon="6.68316">
        <ele>2191</ele>
        <time>2022-07-16T15:12:04Z</time>
      </trkpt>
      <trkpt lat="45.70324" lon="6.68319">
        <ele>2191</ele>
        <time>2022-07-16T15:12:07Z</time>
      </trkpt>
      <trkpt lat="45.70325" lon="6.68322">
        <ele>2192</ele>
        <time>2022-07-16T15:12:10Z</time>
      </trkpt>
      <trkpt lat="45.70326" lon="6.68325">
        <ele>2193</ele>
        <time>2022-07-16T15:12:13Z</time>
      </trkpt>
      <trkpt lat="45.70328" lon="6.68326">
        <ele>2194</ele>
        <time>2022-07-16T15:12:15Z</time>
      </trkpt>
      <trkpt lat="45.70329" lon="6.68328">
        <ele>2193</ele>
        <time>2022-07-16T15:12:17Z</time>
      </trkpt>
      <trkpt lat="45.70331" lon="6.6833">
        <ele>2194</ele>
        <time>2022-07-16T15:12:21Z</time>
      </trkpt>
      <trkpt lat="45.70332" lon="6.68333">
        <ele>2196</ele>
        <time>2022-07-16T15:12:25Z</time>
      </trkpt>
      <trkpt lat="45.70334" lon="6.68335">
        <ele>2196</ele>
        <time>2022-07-16T15:12:28Z</time>
      </trkpt>
      <trkpt lat="45.70335" lon="6.68334">
        <ele>2197</ele>
        <time>2022-07-16T15:12:31Z</time>
      </trkpt>
      <trkpt lat="45.70336" lon="6.6833">
        <ele>2197</ele>
        <time>2022-07-16T15:12:34Z</time>
      </trkpt>
      <trkpt lat="45.70335" lon="6.68327">
        <ele>2197</ele>
        <time>2022-07-16T15:12:37Z</time>
      </trkpt>
      <trkpt lat="45.70335" lon="6.68324">
        <ele>2199</ele>
        <time>2022-07-16T15:12:42Z</time>
      </trkpt>
      <trkpt lat="45.70335" lon="6.6832">
        <ele>2201</ele>
        <time>2022-07-16T15:12:45Z</time>
      </trkpt>
      <trkpt lat="45.70336" lon="6.68318">
        <ele>2200</ele>
        <time>2022-07-16T15:12:47Z</time>
      </trkpt>
      <trkpt lat="45.70337" lon="6.68315">
        <ele>2200</ele>
        <time>2022-07-16T15:12:49Z</time>
      </trkpt>
      <trkpt lat="45.70338" lon="6.68312">
        <ele>2201</ele>
        <time>2022-07-16T15:12:51Z</time>
      </trkpt>
      <trkpt lat="45.70339" lon="6.68309">
        <ele>2201</ele>
        <time>2022-07-16T15:12:54Z</time>
      </trkpt>
      <trkpt lat="45.70341" lon="6.68306">
        <ele>2201</ele>
        <time>2022-07-16T15:12:57Z</time>
      </trkpt>
      <trkpt lat="45.70342" lon="6.68304">
        <ele>2202</ele>
        <time>2022-07-16T15:13:00Z</time>
      </trkpt>
      <trkpt lat="45.70342" lon="6.68301">
        <ele>2203</ele>
        <time>2022-07-16T15:13:03Z</time>
      </trkpt>
      <trkpt lat="45.70344" lon="6.68299">
        <ele>2204</ele>
        <time>2022-07-16T15:13:06Z</time>
      </trkpt>
      <trkpt lat="45.70346" lon="6.68298">
        <ele>2204</ele>
        <time>2022-07-16T15:13:09Z</time>
      </trkpt>
      <trkpt lat="45.70348" lon="6.68298">
        <ele>2205</ele>
        <time>2022-07-16T15:13:12Z</time>
      </trkpt>
      <trkpt lat="45.70349" lon="6.68301">
        <ele>2206</ele>
        <time>2022-07-16T15:13:16Z</time>
      </trkpt>
      <trkpt lat="45.7035" lon="6.68304">
        <ele>2206</ele>
        <time>2022-07-16T15:13:19Z</time>
      </trkpt>
      <trkpt lat="45.70351" lon="6.68306">
        <ele>2207</ele>
        <time>2022-07-16T15:13:21Z</time>
      </trkpt>
      <trkpt lat="45.70352" lon="6.6831">
        <ele>2207</ele>
        <time>2022-07-16T15:13:24Z</time>
      </trkpt>
      <trkpt lat="45.70353" lon="6.68312">
        <ele>2207</ele>
        <time>2022-07-16T15:13:26Z</time>
      </trkpt>
      <trkpt lat="45.70355" lon="6.68315">
        <ele>2208</ele>
        <time>2022-07-16T15:13:29Z</time>
      </trkpt>
      <trkpt lat="45.70355" lon="6.68317">
        <ele>2208</ele>
        <time>2022-07-16T15:13:31Z</time>
      </trkpt>
      <trkpt lat="45.70356" lon="6.68319">
        <ele>2209</ele>
        <time>2022-07-16T15:13:34Z</time>
      </trkpt>
      <trkpt lat="45.70358" lon="6.68322">
        <ele>2209</ele>
        <time>2022-07-16T15:13:37Z</time>
      </trkpt>
      <trkpt lat="45.70359" lon="6.68326">
        <ele>2210</ele>
        <time>2022-07-16T15:13:40Z</time>
      </trkpt>
      <trkpt lat="45.70361" lon="6.68328">
        <ele>2210</ele>
        <time>2022-07-16T15:13:43Z</time>
      </trkpt>
      <trkpt lat="45.70362" lon="6.68331">
        <ele>2210</ele>
        <time>2022-07-16T15:13:46Z</time>
      </trkpt>
      <trkpt lat="45.70364" lon="6.68332">
        <ele>2210</ele>
        <time>2022-07-16T15:13:48Z</time>
      </trkpt>
      <trkpt lat="45.70366" lon="6.68333">
        <ele>2211</ele>
        <time>2022-07-16T15:13:53Z</time>
      </trkpt>
      <trkpt lat="45.70368" lon="6.68332">
        <ele>2212</ele>
        <time>2022-07-16T15:13:58Z</time>
      </trkpt>
      <trkpt lat="45.7037" lon="6.68332">
        <ele>2214</ele>
        <time>2022-07-16T15:14:03Z</time>
      </trkpt>
      <trkpt lat="45.70372" lon="6.68334">
        <ele>2215</ele>
        <time>2022-07-16T15:14:07Z</time>
      </trkpt>
      <trkpt lat="45.70373" lon="6.68336">
        <ele>2216</ele>
        <time>2022-07-16T15:14:10Z</time>
      </trkpt>
      <trkpt lat="45.70375" lon="6.68338">
        <ele>2216</ele>
        <time>2022-07-16T15:14:13Z</time>
      </trkpt>
      <trkpt lat="45.70377" lon="6.68339">
        <ele>2217</ele>
        <time>2022-07-16T15:14:17Z</time>
      </trkpt>
      <trkpt lat="45.70379" lon="6.6834">
        <ele>2217</ele>
        <time>2022-07-16T15:14:20Z</time>
      </trkpt>
      <trkpt lat="45.70381" lon="6.6834">
        <ele>2219</ele>
        <time>2022-07-16T15:14:23Z</time>
      </trkpt>
      <trkpt lat="45.70383" lon="6.6834">
        <ele>2219</ele>
        <time>2022-07-16T15:14:26Z</time>
      </trkpt>
      <trkpt lat="45.70385" lon="6.6834">
        <ele>2219</ele>
        <time>2022-07-16T15:14:29Z</time>
      </trkpt>
      <trkpt lat="45.70387" lon="6.68343">
        <ele>2220</ele>
        <time>2022-07-16T15:14:32Z</time>
      </trkpt>
      <trkpt lat="45.70389" lon="6.68344">
        <ele>2220</ele>
        <time>2022-07-16T15:14:35Z</time>
      </trkpt>
      <trkpt lat="45.70391" lon="6.68346">
        <ele>2222</ele>
        <time>2022-07-16T15:14:38Z</time>
      </trkpt>
      <trkpt lat="45.70393" lon="6.68346">
        <ele>2222</ele>
        <time>2022-07-16T15:14:41Z</time>
      </trkpt>
      <trkpt lat="45.70395" lon="6.68344">
        <ele>2223</ele>
        <time>2022-07-16T15:14:44Z</time>
      </trkpt>
      <trkpt lat="45.70396" lon="6.68342">
        <ele>2223</ele>
        <time>2022-07-16T15:14:47Z</time>
      </trkpt>
      <trkpt lat="45.70396" lon="6.68339">
        <ele>2225</ele>
        <time>2022-07-16T15:14:51Z</time>
      </trkpt>
      <trkpt lat="45.70396" lon="6.68336">
        <ele>2225</ele>
        <time>2022-07-16T15:14:54Z</time>
      </trkpt>
      <trkpt lat="45.70396" lon="6.68333">
        <ele>2225</ele>
        <time>2022-07-16T15:14:57Z</time>
      </trkpt>
      <trkpt lat="45.70396" lon="6.68329">
        <ele>2227</ele>
        <time>2022-07-16T15:15:00Z</time>
      </trkpt>
      <trkpt lat="45.70399" lon="6.68328">
        <ele>2227</ele>
        <time>2022-07-16T15:15:03Z</time>
      </trkpt>
      <trkpt lat="45.70401" lon="6.68328">
        <ele>2227</ele>
        <time>2022-07-16T15:15:06Z</time>
      </trkpt>
      <trkpt lat="45.70403" lon="6.68329">
        <ele>2227</ele>
        <time>2022-07-16T15:15:08Z</time>
      </trkpt>
      <trkpt lat="45.70404" lon="6.68331">
        <ele>2227</ele>
        <time>2022-07-16T15:15:10Z</time>
      </trkpt>
      <trkpt lat="45.70406" lon="6.68334">
        <ele>2228</ele>
        <time>2022-07-16T15:15:13Z</time>
      </trkpt>
      <trkpt lat="45.70407" lon="6.68336">
        <ele>2228</ele>
        <time>2022-07-16T15:15:15Z</time>
      </trkpt>
      <trkpt lat="45.70408" lon="6.68338">
        <ele>2228</ele>
        <time>2022-07-16T15:15:17Z</time>
      </trkpt>
      <trkpt lat="45.7041" lon="6.6834">
        <ele>2229</ele>
        <time>2022-07-16T15:15:20Z</time>
      </trkpt>
      <trkpt lat="45.70412" lon="6.6834">
        <ele>2229</ele>
        <time>2022-07-16T15:15:23Z</time>
      </trkpt>
      <trkpt lat="45.70412" lon="6.68337">
        <ele>2230</ele>
        <time>2022-07-16T15:15:28Z</time>
      </trkpt>
      <trkpt lat="45.70411" lon="6.68335">
        <ele>2230</ele>
        <time>2022-07-16T15:15:31Z</time>
      </trkpt>
      <trkpt lat="45.70411" lon="6.68332">
        <ele>2231</ele>
        <time>2022-07-16T15:15:34Z</time>
      </trkpt>
      <trkpt lat="45.70411" lon="6.68329">
        <ele>2232</ele>
        <time>2022-07-16T15:15:37Z</time>
      </trkpt>
      <trkpt lat="45.70412" lon="6.68326">
        <ele>2233</ele>
        <time>2022-07-16T15:15:41Z</time>
      </trkpt>
      <trkpt lat="45.70413" lon="6.68323">
        <ele>2233</ele>
        <time>2022-07-16T15:15:45Z</time>
      </trkpt>
      <trkpt lat="45.70414" lon="6.68321">
        <ele>2234</ele>
        <time>2022-07-16T15:15:48Z</time>
      </trkpt>
      <trkpt lat="45.70416" lon="6.68322">
        <ele>2234</ele>
        <time>2022-07-16T15:15:51Z</time>
      </trkpt>
      <trkpt lat="45.70418" lon="6.68325">
        <ele>2235</ele>
        <time>2022-07-16T15:15:54Z</time>
      </trkpt>
      <trkpt lat="45.70419" lon="6.68326">
        <ele>2235</ele>
        <time>2022-07-16T15:15:57Z</time>
      </trkpt>
      <trkpt lat="45.70422" lon="6.68328">
        <ele>2236</ele>
        <time>2022-07-16T15:16:00Z</time>
      </trkpt>
      <trkpt lat="45.70424" lon="6.68329">
        <ele>2237</ele>
        <time>2022-07-16T15:16:05Z</time>
      </trkpt>
      <trkpt lat="45.70425" lon="6.68331">
        <ele>2237</ele>
        <time>2022-07-16T15:16:08Z</time>
      </trkpt>
      <trkpt lat="45.70427" lon="6.68332">
        <ele>2238</ele>
        <time>2022-07-16T15:16:11Z</time>
      </trkpt>
      <trkpt lat="45.70428" lon="6.6833">
        <ele>2239</ele>
        <time>2022-07-16T15:16:16Z</time>
      </trkpt>
      <trkpt lat="45.70427" lon="6.68328">
        <ele>2238</ele>
        <time>2022-07-16T15:16:18Z</time>
      </trkpt>
      <trkpt lat="45.70426" lon="6.68324">
        <ele>2238</ele>
        <time>2022-07-16T15:16:21Z</time>
      </trkpt>
      <trkpt lat="45.70425" lon="6.68323">
        <ele>2238</ele>
        <time>2022-07-16T15:16:23Z</time>
      </trkpt>
      <trkpt lat="45.70424" lon="6.6832">
        <ele>2239</ele>
        <time>2022-07-16T15:16:26Z</time>
      </trkpt>
      <trkpt lat="45.70424" lon="6.68317">
        <ele>2240</ele>
        <time>2022-07-16T15:16:29Z</time>
      </trkpt>
      <trkpt lat="45.70425" lon="6.68314">
        <ele>2241</ele>
        <time>2022-07-16T15:16:32Z</time>
      </trkpt>
      <trkpt lat="45.70426" lon="6.68311">
        <ele>2242</ele>
        <time>2022-07-16T15:16:35Z</time>
      </trkpt>
      <trkpt lat="45.70428" lon="6.68311">
        <ele>2242</ele>
        <time>2022-07-16T15:16:38Z</time>
      </trkpt>
      <trkpt lat="45.70431" lon="6.68312">
        <ele>2242</ele>
        <time>2022-07-16T15:16:41Z</time>
      </trkpt>
      <trkpt lat="45.70433" lon="6.68315">
        <ele>2243</ele>
        <time>2022-07-16T15:16:44Z</time>
      </trkpt>
      <trkpt lat="45.70434" lon="6.68317">
        <ele>2243</ele>
        <time>2022-07-16T15:16:47Z</time>
      </trkpt>
      <trkpt lat="45.70437" lon="6.68317">
        <ele>2243</ele>
        <time>2022-07-16T15:16:50Z</time>
      </trkpt>
      <trkpt lat="45.70439" lon="6.68316">
        <ele>2244</ele>
        <time>2022-07-16T15:16:53Z</time>
      </trkpt>
      <trkpt lat="45.70439" lon="6.68313">
        <ele>2244</ele>
        <time>2022-07-16T15:16:57Z</time>
      </trkpt>
      <trkpt lat="45.70439" lon="6.6831">
        <ele>2244</ele>
        <time>2022-07-16T15:16:59Z</time>
      </trkpt>
      <trkpt lat="45.70439" lon="6.68308">
        <ele>2244</ele>
        <time>2022-07-16T15:17:01Z</time>
      </trkpt>
      <trkpt lat="45.70439" lon="6.68304">
        <ele>2245</ele>
        <time>2022-07-16T15:17:04Z</time>
      </trkpt>
      <trkpt lat="45.70439" lon="6.68301">
        <ele>2245</ele>
        <time>2022-07-16T15:17:07Z</time>
      </trkpt>
      <trkpt lat="45.70439" lon="6.68298">
        <ele>2246</ele>
        <time>2022-07-16T15:17:11Z</time>
      </trkpt>
      <trkpt lat="45.7044" lon="6.68295">
        <ele>2248</ele>
        <time>2022-07-16T15:17:14Z</time>
      </trkpt>
      <trkpt lat="45.70441" lon="6.68293">
        <ele>2249</ele>
        <time>2022-07-16T15:17:17Z</time>
      </trkpt>
      <trkpt lat="45.70442" lon="6.68296">
        <ele>2250</ele>
        <time>2022-07-16T15:17:22Z</time>
      </trkpt>
      <trkpt lat="45.70444" lon="6.68298">
        <ele>2249</ele>
        <time>2022-07-16T15:17:27Z</time>
      </trkpt>
      <trkpt lat="45.70445" lon="6.68301">
        <ele>2249</ele>
        <time>2022-07-16T15:17:30Z</time>
      </trkpt>
      <trkpt lat="45.70446" lon="6.68303">
        <ele>2250</ele>
        <time>2022-07-16T15:17:33Z</time>
      </trkpt>
      <trkpt lat="45.70448" lon="6.683">
        <ele>2250</ele>
        <time>2022-07-16T15:17:38Z</time>
      </trkpt>
      <trkpt lat="45.70449" lon="6.68298">
        <ele>2252</ele>
        <time>2022-07-16T15:17:43Z</time>
      </trkpt>
      <trkpt lat="45.7045" lon="6.68296">
        <ele>2252</ele>
        <time>2022-07-16T15:17:49Z</time>
      </trkpt>
      <trkpt lat="45.70451" lon="6.68293">
        <ele>2253</ele>
        <time>2022-07-16T15:17:56Z</time>
      </trkpt>
      <trkpt lat="45.70452" lon="6.68291">
        <ele>2253</ele>
        <time>2022-07-16T15:17:59Z</time>
      </trkpt>
      <trkpt lat="45.70453" lon="6.68289">
        <ele>2255</ele>
        <time>2022-07-16T15:18:02Z</time>
      </trkpt>
      <trkpt lat="45.70455" lon="6.68286">
        <ele>2255</ele>
        <time>2022-07-16T15:18:06Z</time>
      </trkpt>
      <trkpt lat="45.70456" lon="6.68283">
        <ele>2255</ele>
        <time>2022-07-16T15:18:08Z</time>
      </trkpt>
      <trkpt lat="45.70457" lon="6.68281">
        <ele>2255</ele>
        <time>2022-07-16T15:18:10Z</time>
      </trkpt>
      <trkpt lat="45.70458" lon="6.68278">
        <ele>2255</ele>
        <time>2022-07-16T15:18:12Z</time>
      </trkpt>
      <trkpt lat="45.70459" lon="6.68274">
        <ele>2255</ele>
        <time>2022-07-16T15:18:14Z</time>
      </trkpt>
      <trkpt lat="45.70459" lon="6.6827">
        <ele>2255</ele>
        <time>2022-07-16T15:18:16Z</time>
      </trkpt>
      <trkpt lat="45.7046" lon="6.68266">
        <ele>2254</ele>
        <time>2022-07-16T15:18:18Z</time>
      </trkpt>
      <trkpt lat="45.7046" lon="6.68262">
        <ele>2254</ele>
        <time>2022-07-16T15:18:20Z</time>
      </trkpt>
      <trkpt lat="45.70461" lon="6.68258">
        <ele>2255</ele>
        <time>2022-07-16T15:18:22Z</time>
      </trkpt>
      <trkpt lat="45.70462" lon="6.68255">
        <ele>2255</ele>
        <time>2022-07-16T15:18:24Z</time>
      </trkpt>
      <trkpt lat="45.70463" lon="6.68251">
        <ele>2255</ele>
        <time>2022-07-16T15:18:26Z</time>
      </trkpt>
      <trkpt lat="45.70463" lon="6.68247">
        <ele>2254</ele>
        <time>2022-07-16T15:18:28Z</time>
      </trkpt>
      <trkpt lat="45.70462" lon="6.68244">
        <ele>2254</ele>
        <time>2022-07-16T15:18:30Z</time>
      </trkpt>
      <trkpt lat="45.70462" lon="6.6824">
        <ele>2254</ele>
        <time>2022-07-16T15:18:32Z</time>
      </trkpt>
      <trkpt lat="45.70462" lon="6.68235">
        <ele>2254</ele>
        <time>2022-07-16T15:18:34Z</time>
      </trkpt>
      <trkpt lat="45.70461" lon="6.6823">
        <ele>2253</ele>
        <time>2022-07-16T15:18:36Z</time>
      </trkpt>
      <trkpt lat="45.70461" lon="6.68227">
        <ele>2253</ele>
        <time>2022-07-16T15:18:37Z</time>
      </trkpt>
      <trkpt lat="45.70461" lon="6.68224">
        <ele>2253</ele>
        <time>2022-07-16T15:18:38Z</time>
      </trkpt>
      <trkpt lat="45.70462" lon="6.68221">
        <ele>2253</ele>
        <time>2022-07-16T15:18:39Z</time>
      </trkpt>
      <trkpt lat="45.70462" lon="6.68219">
        <ele>2253</ele>
        <time>2022-07-16T15:18:40Z</time>
      </trkpt>
      <trkpt lat="45.70462" lon="6.68215">
        <ele>2253</ele>
        <time>2022-07-16T15:18:41Z</time>
      </trkpt>
      <trkpt lat="45.70462" lon="6.68212">
        <ele>2253</ele>
        <time>2022-07-16T15:18:42Z</time>
      </trkpt>
      <trkpt lat="45.70462" lon="6.68209">
        <ele>2253</ele>
        <time>2022-07-16T15:18:43Z</time>
      </trkpt>
      <trkpt lat="45.70462" lon="6.68206">
        <ele>2254</ele>
        <time>2022-07-16T15:18:44Z</time>
      </trkpt>
      <trkpt lat="45.70463" lon="6.68203">
        <ele>2254</ele>
        <time>2022-07-16T15:18:45Z</time>
      </trkpt>
      <trkpt lat="45.70463" lon="6.682">
        <ele>2253</ele>
        <time>2022-07-16T15:18:46Z</time>
      </trkpt>
      <trkpt lat="45.70464" lon="6.68196">
        <ele>2253</ele>
        <time>2022-07-16T15:18:47Z</time>
      </trkpt>
      <trkpt lat="45.70464" lon="6.68193">
        <ele>2253</ele>
        <time>2022-07-16T15:18:48Z</time>
      </trkpt>
      <trkpt lat="45.70464" lon="6.6819">
        <ele>2253</ele>
        <time>2022-07-16T15:18:49Z</time>
      </trkpt>
      <trkpt lat="45.70465" lon="6.68187">
        <ele>2253</ele>
        <time>2022-07-16T15:18:50Z</time>
      </trkpt>
      <trkpt lat="45.70465" lon="6.68184">
        <ele>2252</ele>
        <time>2022-07-16T15:18:51Z</time>
      </trkpt>
      <trkpt lat="45.70466" lon="6.68177">
        <ele>2252</ele>
        <time>2022-07-16T15:18:52Z</time>
      </trkpt>
      <trkpt lat="45.70466" lon="6.68174">
        <ele>2252</ele>
        <time>2022-07-16T15:18:54Z</time>
      </trkpt>
      <trkpt lat="45.70466" lon="6.68171">
        <ele>2252</ele>
        <time>2022-07-16T15:18:55Z</time>
      </trkpt>
      <trkpt lat="45.70467" lon="6.68168">
        <ele>2252</ele>
        <time>2022-07-16T15:18:56Z</time>
      </trkpt>
      <trkpt lat="45.70467" lon="6.68165">
        <ele>2251</ele>
        <time>2022-07-16T15:18:57Z</time>
      </trkpt>
      <trkpt lat="45.70467" lon="6.68163">
        <ele>2251</ele>
        <time>2022-07-16T15:18:58Z</time>
      </trkpt>
      <trkpt lat="45.70468" lon="6.6816">
        <ele>2251</ele>
        <time>2022-07-16T15:18:59Z</time>
      </trkpt>
      <trkpt lat="45.70468" lon="6.68157">
        <ele>2251</ele>
        <time>2022-07-16T15:19:00Z</time>
      </trkpt>
      <trkpt lat="45.70468" lon="6.68154">
        <ele>2252</ele>
        <time>2022-07-16T15:19:01Z</time>
      </trkpt>
      <trkpt lat="45.70468" lon="6.68151">
        <ele>2252</ele>
        <time>2022-07-16T15:19:02Z</time>
      </trkpt>
      <trkpt lat="45.70468" lon="6.68145">
        <ele>2252</ele>
        <time>2022-07-16T15:19:03Z</time>
      </trkpt>
      <trkpt lat="45.70468" lon="6.68142">
        <ele>2251</ele>
        <time>2022-07-16T15:19:05Z</time>
      </trkpt>
      <trkpt lat="45.70468" lon="6.68138">
        <ele>2251</ele>
        <time>2022-07-16T15:19:06Z</time>
      </trkpt>
      <trkpt lat="45.70469" lon="6.68135">
        <ele>2251</ele>
        <time>2022-07-16T15:19:07Z</time>
      </trkpt>
      <trkpt lat="45.70469" lon="6.68132">
        <ele>2250</ele>
        <time>2022-07-16T15:19:08Z</time>
      </trkpt>
      <trkpt lat="45.70469" lon="6.68129">
        <ele>2250</ele>
        <time>2022-07-16T15:19:09Z</time>
      </trkpt>
      <trkpt lat="45.70469" lon="6.68127">
        <ele>2250</ele>
        <time>2022-07-16T15:19:10Z</time>
      </trkpt>
      <trkpt lat="45.70469" lon="6.68124">
        <ele>2250</ele>
        <time>2022-07-16T15:19:11Z</time>
      </trkpt>
      <trkpt lat="45.70469" lon="6.68121">
        <ele>2250</ele>
        <time>2022-07-16T15:19:12Z</time>
      </trkpt>
      <trkpt lat="45.70468" lon="6.68118">
        <ele>2249</ele>
        <time>2022-07-16T15:19:13Z</time>
      </trkpt>
      <trkpt lat="45.70468" lon="6.68115">
        <ele>2250</ele>
        <time>2022-07-16T15:19:14Z</time>
      </trkpt>
      <trkpt lat="45.70468" lon="6.68112">
        <ele>2250</ele>
        <time>2022-07-16T15:19:15Z</time>
      </trkpt>
      <trkpt lat="45.70469" lon="6.68108">
        <ele>2250</ele>
        <time>2022-07-16T15:19:16Z</time>
      </trkpt>
      <trkpt lat="45.70469" lon="6.68105">
        <ele>2250</ele>
        <time>2022-07-16T15:19:17Z</time>
      </trkpt>
      <trkpt lat="45.7047" lon="6.68103">
        <ele>2249</ele>
        <time>2022-07-16T15:19:18Z</time>
      </trkpt>
      <trkpt lat="45.70471" lon="6.681">
        <ele>2249</ele>
        <time>2022-07-16T15:19:19Z</time>
      </trkpt>
      <trkpt lat="45.70472" lon="6.68098">
        <ele>2249</ele>
        <time>2022-07-16T15:19:20Z</time>
      </trkpt>
      <trkpt lat="45.70474" lon="6.68094">
        <ele>2249</ele>
        <time>2022-07-16T15:19:22Z</time>
      </trkpt>
      <trkpt lat="45.70475" lon="6.6809">
        <ele>2249</ele>
        <time>2022-07-16T15:19:24Z</time>
      </trkpt>
      <trkpt lat="45.70476" lon="6.68086">
        <ele>2249</ele>
        <time>2022-07-16T15:19:26Z</time>
      </trkpt>
      <trkpt lat="45.70477" lon="6.68084">
        <ele>2249</ele>
        <time>2022-07-16T15:19:28Z</time>
      </trkpt>
      <trkpt lat="45.7048" lon="6.68083">
        <ele>2249</ele>
        <time>2022-07-16T15:19:30Z</time>
      </trkpt>
      <trkpt lat="45.70481" lon="6.68082">
        <ele>2249</ele>
        <time>2022-07-16T15:19:33Z</time>
      </trkpt>
      <trkpt lat="45.7048" lon="6.6808">
        <ele>2249</ele>
        <time>2022-07-16T15:19:38Z</time>
      </trkpt>
      <trkpt lat="45.70478" lon="6.68078">
        <ele>2250</ele>
        <time>2022-07-16T15:19:40Z</time>
      </trkpt>
      <trkpt lat="45.70476" lon="6.68075">
        <ele>2250</ele>
        <time>2022-07-16T15:19:42Z</time>
      </trkpt>
      <trkpt lat="45.70475" lon="6.68072">
        <ele>2250</ele>
        <time>2022-07-16T15:19:44Z</time>
      </trkpt>
      <trkpt lat="45.70474" lon="6.68069">
        <ele>2250</ele>
        <time>2022-07-16T15:19:46Z</time>
      </trkpt>
      <trkpt lat="45.70473" lon="6.68066">
        <ele>2250</ele>
        <time>2022-07-16T15:19:48Z</time>
      </trkpt>
      <trkpt lat="45.70473" lon="6.68062">
        <ele>2250</ele>
        <time>2022-07-16T15:19:50Z</time>
      </trkpt>
      <trkpt lat="45.70473" lon="6.68059">
        <ele>2250</ele>
        <time>2022-07-16T15:19:52Z</time>
      </trkpt>
      <trkpt lat="45.70473" lon="6.68055">
        <ele>2251</ele>
        <time>2022-07-16T15:19:54Z</time>
      </trkpt>
      <trkpt lat="45.70473" lon="6.68051">
        <ele>2251</ele>
        <time>2022-07-16T15:19:56Z</time>
      </trkpt>
      <trkpt lat="45.70474" lon="6.68047">
        <ele>2251</ele>
        <time>2022-07-16T15:19:58Z</time>
      </trkpt>
      <trkpt lat="45.70475" lon="6.68043">
        <ele>2251</ele>
        <time>2022-07-16T15:20:00Z</time>
      </trkpt>
      <trkpt lat="45.70476" lon="6.68039">
        <ele>2251</ele>
        <time>2022-07-16T15:20:02Z</time>
      </trkpt>
      <trkpt lat="45.70476" lon="6.68035">
        <ele>2251</ele>
        <time>2022-07-16T15:20:04Z</time>
      </trkpt>
      <trkpt lat="45.70476" lon="6.68031">
        <ele>2252</ele>
        <time>2022-07-16T15:20:06Z</time>
      </trkpt>
      <trkpt lat="45.70476" lon="6.68028">
        <ele>2252</ele>
        <time>2022-07-16T15:20:08Z</time>
      </trkpt>
      <trkpt lat="45.70476" lon="6.68024">
        <ele>2252</ele>
        <time>2022-07-16T15:20:10Z</time>
      </trkpt>
      <trkpt lat="45.70476" lon="6.68021">
        <ele>2253</ele>
        <time>2022-07-16T15:20:12Z</time>
      </trkpt>
      <trkpt lat="45.70475" lon="6.68018">
        <ele>2253</ele>
        <time>2022-07-16T15:20:14Z</time>
      </trkpt>
      <trkpt lat="45.70475" lon="6.68015">
        <ele>2253</ele>
        <time>2022-07-16T15:20:16Z</time>
      </trkpt>
      <trkpt lat="45.70475" lon="6.68011">
        <ele>2253</ele>
        <time>2022-07-16T15:20:18Z</time>
      </trkpt>
      <trkpt lat="45.70475" lon="6.68008">
        <ele>2253</ele>
        <time>2022-07-16T15:20:20Z</time>
      </trkpt>
      <trkpt lat="45.70476" lon="6.68004">
        <ele>2253</ele>
        <time>2022-07-16T15:20:22Z</time>
      </trkpt>
      <trkpt lat="45.70476" lon="6.68">
        <ele>2253</ele>
        <time>2022-07-16T15:20:24Z</time>
      </trkpt>
      <trkpt lat="45.70477" lon="6.67997">
        <ele>2253</ele>
        <time>2022-07-16T15:20:26Z</time>
      </trkpt>
      <trkpt lat="45.70478" lon="6.67993">
        <ele>2253</ele>
        <time>2022-07-16T15:20:28Z</time>
      </trkpt>
      <trkpt lat="45.70479" lon="6.67989">
        <ele>2255</ele>
        <time>2022-07-16T15:20:30Z</time>
      </trkpt>
      <trkpt lat="45.7048" lon="6.67985">
        <ele>2254</ele>
        <time>2022-07-16T15:20:32Z</time>
      </trkpt>
      <trkpt lat="45.70481" lon="6.67982">
        <ele>2254</ele>
        <time>2022-07-16T15:20:34Z</time>
      </trkpt>
      <trkpt lat="45.70482" lon="6.67978">
        <ele>2254</ele>
        <time>2022-07-16T15:20:36Z</time>
      </trkpt>
      <trkpt lat="45.70483" lon="6.67974">
        <ele>2254</ele>
        <time>2022-07-16T15:20:38Z</time>
      </trkpt>
      <trkpt lat="45.70484" lon="6.67971">
        <ele>2255</ele>
        <time>2022-07-16T15:20:40Z</time>
      </trkpt>
      <trkpt lat="45.70484" lon="6.67967">
        <ele>2255</ele>
        <time>2022-07-16T15:20:42Z</time>
      </trkpt>
      <trkpt lat="45.70484" lon="6.67963">
        <ele>2255</ele>
        <time>2022-07-16T15:20:44Z</time>
      </trkpt>
      <trkpt lat="45.70484" lon="6.6796">
        <ele>2255</ele>
        <time>2022-07-16T15:20:46Z</time>
      </trkpt>
      <trkpt lat="45.70483" lon="6.67956">
        <ele>2255</ele>
        <time>2022-07-16T15:20:48Z</time>
      </trkpt>
      <trkpt lat="45.70483" lon="6.67953">
        <ele>2256</ele>
        <time>2022-07-16T15:20:50Z</time>
      </trkpt>
      <trkpt lat="45.70482" lon="6.6795">
        <ele>2256</ele>
        <time>2022-07-16T15:20:52Z</time>
      </trkpt>
      <trkpt lat="45.70481" lon="6.67947">
        <ele>2256</ele>
        <time>2022-07-16T15:20:54Z</time>
      </trkpt>
      <trkpt lat="45.70479" lon="6.67945">
        <ele>2256</ele>
        <time>2022-07-16T15:20:56Z</time>
      </trkpt>
      <trkpt lat="45.70478" lon="6.67942">
        <ele>2256</ele>
        <time>2022-07-16T15:20:58Z</time>
      </trkpt>
      <trkpt lat="45.70476" lon="6.67941">
        <ele>2256</ele>
        <time>2022-07-16T15:21:00Z</time>
      </trkpt>
      <trkpt lat="45.70474" lon="6.67938">
        <ele>2256</ele>
        <time>2022-07-16T15:21:02Z</time>
      </trkpt>
      <trkpt lat="45.70472" lon="6.67936">
        <ele>2257</ele>
        <time>2022-07-16T15:21:04Z</time>
      </trkpt>
      <trkpt lat="45.70469" lon="6.67933">
        <ele>2257</ele>
        <time>2022-07-16T15:21:06Z</time>
      </trkpt>
      <trkpt lat="45.70467" lon="6.67931">
        <ele>2257</ele>
        <time>2022-07-16T15:21:08Z</time>
      </trkpt>
      <trkpt lat="45.70466" lon="6.67928">
        <ele>2257</ele>
        <time>2022-07-16T15:21:10Z</time>
      </trkpt>
      <trkpt lat="45.70464" lon="6.67925">
        <ele>2257</ele>
        <time>2022-07-16T15:21:12Z</time>
      </trkpt>
      <trkpt lat="45.70463" lon="6.67922">
        <ele>2257</ele>
        <time>2022-07-16T15:21:14Z</time>
      </trkpt>
      <trkpt lat="45.70461" lon="6.67918">
        <ele>2257</ele>
        <time>2022-07-16T15:21:16Z</time>
      </trkpt>
      <trkpt lat="45.70459" lon="6.67915">
        <ele>2257</ele>
        <time>2022-07-16T15:21:18Z</time>
      </trkpt>
      <trkpt lat="45.70458" lon="6.67911">
        <ele>2258</ele>
        <time>2022-07-16T15:21:20Z</time>
      </trkpt>
      <trkpt lat="45.70456" lon="6.67907">
        <ele>2258</ele>
        <time>2022-07-16T15:21:22Z</time>
      </trkpt>
      <trkpt lat="45.70455" lon="6.67904">
        <ele>2258</ele>
        <time>2022-07-16T15:21:24Z</time>
      </trkpt>
      <trkpt lat="45.70455" lon="6.679">
        <ele>2258</ele>
        <time>2022-07-16T15:21:26Z</time>
      </trkpt>
      <trkpt lat="45.70454" lon="6.67897">
        <ele>2258</ele>
        <time>2022-07-16T15:21:28Z</time>
      </trkpt>
      <trkpt lat="45.70454" lon="6.67893">
        <ele>2258</ele>
        <time>2022-07-16T15:21:30Z</time>
      </trkpt>
      <trkpt lat="45.70453" lon="6.6789">
        <ele>2258</ele>
        <time>2022-07-16T15:21:32Z</time>
      </trkpt>
      <trkpt lat="45.70453" lon="6.67886">
        <ele>2259</ele>
        <time>2022-07-16T15:21:34Z</time>
      </trkpt>
      <trkpt lat="45.70452" lon="6.67883">
        <ele>2259</ele>
        <time>2022-07-16T15:21:36Z</time>
      </trkpt>
      <trkpt lat="45.70452" lon="6.6788">
        <ele>2260</ele>
        <time>2022-07-16T15:21:38Z</time>
      </trkpt>
      <trkpt lat="45.70452" lon="6.67876">
        <ele>2260</ele>
        <time>2022-07-16T15:21:40Z</time>
      </trkpt>
      <trkpt lat="45.70451" lon="6.67872">
        <ele>2260</ele>
        <time>2022-07-16T15:21:42Z</time>
      </trkpt>
      <trkpt lat="45.7045" lon="6.67868">
        <ele>2260</ele>
        <time>2022-07-16T15:21:44Z</time>
      </trkpt>
      <trkpt lat="45.7045" lon="6.67864">
        <ele>2261</ele>
        <time>2022-07-16T15:21:46Z</time>
      </trkpt>
      <trkpt lat="45.7045" lon="6.6786">
        <ele>2261</ele>
        <time>2022-07-16T15:21:48Z</time>
      </trkpt>
      <trkpt lat="45.7045" lon="6.67857">
        <ele>2262</ele>
        <time>2022-07-16T15:21:50Z</time>
      </trkpt>
      <trkpt lat="45.70451" lon="6.67853">
        <ele>2262</ele>
        <time>2022-07-16T15:21:52Z</time>
      </trkpt>
      <trkpt lat="45.70452" lon="6.67849">
        <ele>2262</ele>
        <time>2022-07-16T15:21:54Z</time>
      </trkpt>
      <trkpt lat="45.70453" lon="6.67845">
        <ele>2262</ele>
        <time>2022-07-16T15:21:56Z</time>
      </trkpt>
      <trkpt lat="45.70454" lon="6.67842">
        <ele>2262</ele>
        <time>2022-07-16T15:21:58Z</time>
      </trkpt>
      <trkpt lat="45.70455" lon="6.67838">
        <ele>2263</ele>
        <time>2022-07-16T15:22:00Z</time>
      </trkpt>
      <trkpt lat="45.70456" lon="6.67834">
        <ele>2263</ele>
        <time>2022-07-16T15:22:02Z</time>
      </trkpt>
      <trkpt lat="45.70456" lon="6.67831">
        <ele>2261</ele>
        <time>2022-07-16T15:22:04Z</time>
      </trkpt>
      <trkpt lat="45.70455" lon="6.67827">
        <ele>2260</ele>
        <time>2022-07-16T15:22:06Z</time>
      </trkpt>
      <trkpt lat="45.70454" lon="6.67824">
        <ele>2261</ele>
        <time>2022-07-16T15:22:08Z</time>
      </trkpt>
      <trkpt lat="45.70454" lon="6.67821">
        <ele>2261</ele>
        <time>2022-07-16T15:22:10Z</time>
      </trkpt>
      <trkpt lat="45.70453" lon="6.67818">
        <ele>2261</ele>
        <time>2022-07-16T15:22:12Z</time>
      </trkpt>
      <trkpt lat="45.70453" lon="6.67815">
        <ele>2261</ele>
        <time>2022-07-16T15:22:14Z</time>
      </trkpt>
      <trkpt lat="45.70452" lon="6.67812">
        <ele>2262</ele>
        <time>2022-07-16T15:22:16Z</time>
      </trkpt>
      <trkpt lat="45.70451" lon="6.67808">
        <ele>2262</ele>
        <time>2022-07-16T15:22:18Z</time>
      </trkpt>
      <trkpt lat="45.70451" lon="6.67804">
        <ele>2262</ele>
        <time>2022-07-16T15:22:20Z</time>
      </trkpt>
      <trkpt lat="45.7045" lon="6.67801">
        <ele>2263</ele>
        <time>2022-07-16T15:22:21Z</time>
      </trkpt>
      <trkpt lat="45.7045" lon="6.67798">
        <ele>2263</ele>
        <time>2022-07-16T15:22:24Z</time>
      </trkpt>
      <trkpt lat="45.70449" lon="6.67795">
        <ele>2263</ele>
        <time>2022-07-16T15:22:26Z</time>
      </trkpt>
      <trkpt lat="45.70448" lon="6.67792">
        <ele>2263</ele>
        <time>2022-07-16T15:22:28Z</time>
      </trkpt>
      <trkpt lat="45.70447" lon="6.67789">
        <ele>2264</ele>
        <time>2022-07-16T15:22:30Z</time>
      </trkpt>
      <trkpt lat="45.70446" lon="6.67785">
        <ele>2264</ele>
        <time>2022-07-16T15:22:32Z</time>
      </trkpt>
      <trkpt lat="45.70445" lon="6.67782">
        <ele>2264</ele>
        <time>2022-07-16T15:22:34Z</time>
      </trkpt>
      <trkpt lat="45.70444" lon="6.67779">
        <ele>2264</ele>
        <time>2022-07-16T15:22:36Z</time>
      </trkpt>
      <trkpt lat="45.70443" lon="6.67776">
        <ele>2265</ele>
        <time>2022-07-16T15:22:38Z</time>
      </trkpt>
      <trkpt lat="45.70442" lon="6.67773">
        <ele>2265</ele>
        <time>2022-07-16T15:22:40Z</time>
      </trkpt>
      <trkpt lat="45.70441" lon="6.6777">
        <ele>2265</ele>
        <time>2022-07-16T15:22:42Z</time>
      </trkpt>
      <trkpt lat="45.70441" lon="6.67767">
        <ele>2265</ele>
        <time>2022-07-16T15:22:44Z</time>
      </trkpt>
      <trkpt lat="45.7044" lon="6.67763">
        <ele>2265</ele>
        <time>2022-07-16T15:22:46Z</time>
      </trkpt>
      <trkpt lat="45.7044" lon="6.67759">
        <ele>2266</ele>
        <time>2022-07-16T15:22:48Z</time>
      </trkpt>
      <trkpt lat="45.7044" lon="6.67755">
        <ele>2266</ele>
        <time>2022-07-16T15:22:50Z</time>
      </trkpt>
      <trkpt lat="45.7044" lon="6.67751">
        <ele>2266</ele>
        <time>2022-07-16T15:22:52Z</time>
      </trkpt>
      <trkpt lat="45.7044" lon="6.67747">
        <ele>2266</ele>
        <time>2022-07-16T15:22:54Z</time>
      </trkpt>
      <trkpt lat="45.7044" lon="6.67743">
        <ele>2267</ele>
        <time>2022-07-16T15:22:56Z</time>
      </trkpt>
      <trkpt lat="45.70441" lon="6.67739">
        <ele>2266</ele>
        <time>2022-07-16T15:22:58Z</time>
      </trkpt>
      <trkpt lat="45.70442" lon="6.67736">
        <ele>2266</ele>
        <time>2022-07-16T15:23:00Z</time>
      </trkpt>
      <trkpt lat="45.70442" lon="6.67732">
        <ele>2267</ele>
        <time>2022-07-16T15:23:02Z</time>
      </trkpt>
      <trkpt lat="45.70443" lon="6.67729">
        <ele>2267</ele>
        <time>2022-07-16T15:23:04Z</time>
      </trkpt>
      <trkpt lat="45.70444" lon="6.67725">
        <ele>2268</ele>
        <time>2022-07-16T15:23:06Z</time>
      </trkpt>
      <trkpt lat="45.70445" lon="6.67722">
        <ele>2268</ele>
        <time>2022-07-16T15:23:08Z</time>
      </trkpt>
      <trkpt lat="45.70445" lon="6.67718">
        <ele>2268</ele>
        <time>2022-07-16T15:23:10Z</time>
      </trkpt>
      <trkpt lat="45.70446" lon="6.67715">
        <ele>2268</ele>
        <time>2022-07-16T15:23:12Z</time>
      </trkpt>
      <trkpt lat="45.70445" lon="6.67712">
        <ele>2268</ele>
        <time>2022-07-16T15:23:14Z</time>
      </trkpt>
      <trkpt lat="45.70445" lon="6.67708">
        <ele>2269</ele>
        <time>2022-07-16T15:23:16Z</time>
      </trkpt>
      <trkpt lat="45.70444" lon="6.67705">
        <ele>2269</ele>
        <time>2022-07-16T15:23:18Z</time>
      </trkpt>
      <trkpt lat="45.70444" lon="6.67702">
        <ele>2269</ele>
        <time>2022-07-16T15:23:20Z</time>
      </trkpt>
      <trkpt lat="45.70443" lon="6.67698">
        <ele>2269</ele>
        <time>2022-07-16T15:23:22Z</time>
      </trkpt>
      <trkpt lat="45.70442" lon="6.67695">
        <ele>2269</ele>
        <time>2022-07-16T15:23:24Z</time>
      </trkpt>
      <trkpt lat="45.70441" lon="6.67692">
        <ele>2269</ele>
        <time>2022-07-16T15:23:26Z</time>
      </trkpt>
      <trkpt lat="45.70441" lon="6.67689">
        <ele>2270</ele>
        <time>2022-07-16T15:23:28Z</time>
      </trkpt>
      <trkpt lat="45.7044" lon="6.67686">
        <ele>2270</ele>
        <time>2022-07-16T15:23:30Z</time>
      </trkpt>
      <trkpt lat="45.70439" lon="6.67682">
        <ele>2269</ele>
        <time>2022-07-16T15:23:32Z</time>
      </trkpt>
      <trkpt lat="45.70438" lon="6.67679">
        <ele>2269</ele>
        <time>2022-07-16T15:23:34Z</time>
      </trkpt>
      <trkpt lat="45.70438" lon="6.67676">
        <ele>2270</ele>
        <time>2022-07-16T15:23:36Z</time>
      </trkpt>
      <trkpt lat="45.70437" lon="6.67673">
        <ele>2271</ele>
        <time>2022-07-16T15:23:38Z</time>
      </trkpt>
      <trkpt lat="45.70437" lon="6.67669">
        <ele>2271</ele>
        <time>2022-07-16T15:23:40Z</time>
      </trkpt>
      <trkpt lat="45.70437" lon="6.67665">
        <ele>2271</ele>
        <time>2022-07-16T15:23:42Z</time>
      </trkpt>
      <trkpt lat="45.70436" lon="6.67662">
        <ele>2271</ele>
        <time>2022-07-16T15:23:44Z</time>
      </trkpt>
      <trkpt lat="45.70436" lon="6.67659">
        <ele>2271</ele>
        <time>2022-07-16T15:23:46Z</time>
      </trkpt>
      <trkpt lat="45.70436" lon="6.67655">
        <ele>2271</ele>
        <time>2022-07-16T15:23:48Z</time>
      </trkpt>
      <trkpt lat="45.70435" lon="6.67651">
        <ele>2272</ele>
        <time>2022-07-16T15:23:50Z</time>
      </trkpt>
      <trkpt lat="45.70435" lon="6.67648">
        <ele>2272</ele>
        <time>2022-07-16T15:23:52Z</time>
      </trkpt>
      <trkpt lat="45.70434" lon="6.67645">
        <ele>2272</ele>
        <time>2022-07-16T15:23:54Z</time>
      </trkpt>
      <trkpt lat="45.70434" lon="6.67641">
        <ele>2272</ele>
        <time>2022-07-16T15:23:56Z</time>
      </trkpt>
      <trkpt lat="45.70434" lon="6.67638">
        <ele>2272</ele>
        <time>2022-07-16T15:23:58Z</time>
      </trkpt>
      <trkpt lat="45.70434" lon="6.67634">
        <ele>2274</ele>
        <time>2022-07-16T15:24:00Z</time>
      </trkpt>
      <trkpt lat="45.70434" lon="6.6763">
        <ele>2274</ele>
        <time>2022-07-16T15:24:02Z</time>
      </trkpt>
      <trkpt lat="45.70434" lon="6.67626">
        <ele>2274</ele>
        <time>2022-07-16T15:24:04Z</time>
      </trkpt>
      <trkpt lat="45.70434" lon="6.67621">
        <ele>2274</ele>
        <time>2022-07-16T15:24:06Z</time>
      </trkpt>
      <trkpt lat="45.70434" lon="6.67618">
        <ele>2274</ele>
        <time>2022-07-16T15:24:08Z</time>
      </trkpt>
      <trkpt lat="45.70435" lon="6.67614">
        <ele>2274</ele>
        <time>2022-07-16T15:24:10Z</time>
      </trkpt>
      <trkpt lat="45.70435" lon="6.6761">
        <ele>2274</ele>
        <time>2022-07-16T15:24:12Z</time>
      </trkpt>
      <trkpt lat="45.70435" lon="6.67606">
        <ele>2274</ele>
        <time>2022-07-16T15:24:14Z</time>
      </trkpt>
      <trkpt lat="45.70435" lon="6.67602">
        <ele>2274</ele>
        <time>2022-07-16T15:24:15Z</time>
      </trkpt>
      <trkpt lat="45.70435" lon="6.67598">
        <ele>2274</ele>
        <time>2022-07-16T15:24:18Z</time>
      </trkpt>
      <trkpt lat="45.70435" lon="6.67594">
        <ele>2274</ele>
        <time>2022-07-16T15:24:20Z</time>
      </trkpt>
      <trkpt lat="45.70435" lon="6.6759">
        <ele>2274</ele>
        <time>2022-07-16T15:24:22Z</time>
      </trkpt>
      <trkpt lat="45.70436" lon="6.67586">
        <ele>2274</ele>
        <time>2022-07-16T15:24:24Z</time>
      </trkpt>
      <trkpt lat="45.70436" lon="6.67583">
        <ele>2274</ele>
        <time>2022-07-16T15:24:26Z</time>
      </trkpt>
      <trkpt lat="45.70436" lon="6.67579">
        <ele>2274</ele>
        <time>2022-07-16T15:24:28Z</time>
      </trkpt>
      <trkpt lat="45.70435" lon="6.67575">
        <ele>2274</ele>
        <time>2022-07-16T15:24:30Z</time>
      </trkpt>
      <trkpt lat="45.70435" lon="6.6757">
        <ele>2274</ele>
        <time>2022-07-16T15:24:32Z</time>
      </trkpt>
      <trkpt lat="45.70435" lon="6.67566">
        <ele>2274</ele>
        <time>2022-07-16T15:24:34Z</time>
      </trkpt>
      <trkpt lat="45.70435" lon="6.67562">
        <ele>2274</ele>
        <time>2022-07-16T15:24:36Z</time>
      </trkpt>
      <trkpt lat="45.70435" lon="6.67558">
        <ele>2274</ele>
        <time>2022-07-16T15:24:38Z</time>
      </trkpt>
      <trkpt lat="45.70435" lon="6.67555">
        <ele>2274</ele>
        <time>2022-07-16T15:24:40Z</time>
      </trkpt>
      <trkpt lat="45.70435" lon="6.67551">
        <ele>2272</ele>
        <time>2022-07-16T15:24:42Z</time>
      </trkpt>
      <trkpt lat="45.70436" lon="6.67547">
        <ele>2274</ele>
        <time>2022-07-16T15:24:44Z</time>
      </trkpt>
      <trkpt lat="45.70436" lon="6.67543">
        <ele>2274</ele>
        <time>2022-07-16T15:24:46Z</time>
      </trkpt>
      <trkpt lat="45.70436" lon="6.67539">
        <ele>2272</ele>
        <time>2022-07-16T15:24:48Z</time>
      </trkpt>
      <trkpt lat="45.70436" lon="6.67534">
        <ele>2272</ele>
        <time>2022-07-16T15:24:50Z</time>
      </trkpt>
      <trkpt lat="45.70435" lon="6.6753">
        <ele>2272</ele>
        <time>2022-07-16T15:24:52Z</time>
      </trkpt>
      <trkpt lat="45.70434" lon="6.67526">
        <ele>2271</ele>
        <time>2022-07-16T15:24:53Z</time>
      </trkpt>
      <trkpt lat="45.70433" lon="6.67523">
        <ele>2271</ele>
        <time>2022-07-16T15:24:56Z</time>
      </trkpt>
      <trkpt lat="45.70432" lon="6.6752">
        <ele>2271</ele>
        <time>2022-07-16T15:24:58Z</time>
      </trkpt>
      <trkpt lat="45.70431" lon="6.67516">
        <ele>2271</ele>
        <time>2022-07-16T15:25:00Z</time>
      </trkpt>
      <trkpt lat="45.70431" lon="6.67513">
        <ele>2271</ele>
        <time>2022-07-16T15:25:02Z</time>
      </trkpt>
      <trkpt lat="45.70431" lon="6.6751">
        <ele>2271</ele>
        <time>2022-07-16T15:25:04Z</time>
      </trkpt>
      <trkpt lat="45.70431" lon="6.67507">
        <ele>2272</ele>
        <time>2022-07-16T15:25:07Z</time>
      </trkpt>
      <trkpt lat="45.70429" lon="6.67503">
        <ele>2274</ele>
        <time>2022-07-16T15:25:10Z</time>
      </trkpt>
      <trkpt lat="45.70428" lon="6.67501">
        <ele>2274</ele>
        <time>2022-07-16T15:25:12Z</time>
      </trkpt>
      <trkpt lat="45.70426" lon="6.67498">
        <ele>2274</ele>
        <time>2022-07-16T15:25:15Z</time>
      </trkpt>
      <trkpt lat="45.70426" lon="6.67496">
        <ele>2274</ele>
        <time>2022-07-16T15:25:17Z</time>
      </trkpt>
      <trkpt lat="45.70425" lon="6.67492">
        <ele>2275</ele>
        <time>2022-07-16T15:25:20Z</time>
      </trkpt>
      <trkpt lat="45.70425" lon="6.67489">
        <ele>2275</ele>
        <time>2022-07-16T15:25:23Z</time>
      </trkpt>
      <trkpt lat="45.70425" lon="6.67486">
        <ele>2275</ele>
        <time>2022-07-16T15:25:25Z</time>
      </trkpt>
      <trkpt lat="45.70424" lon="6.67483">
        <ele>2277</ele>
        <time>2022-07-16T15:25:28Z</time>
      </trkpt>
      <trkpt lat="45.70423" lon="6.6748">
        <ele>2277</ele>
        <time>2022-07-16T15:25:31Z</time>
      </trkpt>
      <trkpt lat="45.70422" lon="6.67479">
        <ele>2277</ele>
        <time>2022-07-16T15:25:33Z</time>
      </trkpt>
      <trkpt lat="45.70421" lon="6.67476">
        <ele>2277</ele>
        <time>2022-07-16T15:25:35Z</time>
      </trkpt>
      <trkpt lat="45.70419" lon="6.67475">
        <ele>2277</ele>
        <time>2022-07-16T15:25:37Z</time>
      </trkpt>
      <trkpt lat="45.70418" lon="6.67472">
        <ele>2278</ele>
        <time>2022-07-16T15:25:40Z</time>
      </trkpt>
      <trkpt lat="45.70417" lon="6.67469">
        <ele>2278</ele>
        <time>2022-07-16T15:25:43Z</time>
      </trkpt>
      <trkpt lat="45.70415" lon="6.67467">
        <ele>2278</ele>
        <time>2022-07-16T15:25:45Z</time>
      </trkpt>
      <trkpt lat="45.70414" lon="6.67464">
        <ele>2278</ele>
        <time>2022-07-16T15:25:47Z</time>
      </trkpt>
      <trkpt lat="45.70413" lon="6.67461">
        <ele>2278</ele>
        <time>2022-07-16T15:25:49Z</time>
      </trkpt>
      <trkpt lat="45.70412" lon="6.67458">
        <ele>2279</ele>
        <time>2022-07-16T15:25:52Z</time>
      </trkpt>
      <trkpt lat="45.70412" lon="6.67455">
        <ele>2279</ele>
        <time>2022-07-16T15:25:54Z</time>
      </trkpt>
      <trkpt lat="45.70412" lon="6.67453">
        <ele>2279</ele>
        <time>2022-07-16T15:25:56Z</time>
      </trkpt>
      <trkpt lat="45.70412" lon="6.6745">
        <ele>2279</ele>
        <time>2022-07-16T15:25:58Z</time>
      </trkpt>
      <trkpt lat="45.70412" lon="6.67447">
        <ele>2279</ele>
        <time>2022-07-16T15:26:01Z</time>
      </trkpt>
      <trkpt lat="45.70409" lon="6.67446">
        <ele>2279</ele>
        <time>2022-07-16T15:26:04Z</time>
      </trkpt>
      <trkpt lat="45.70407" lon="6.67444">
        <ele>2279</ele>
        <time>2022-07-16T15:26:06Z</time>
      </trkpt>
      <trkpt lat="45.70405" lon="6.67442">
        <ele>2280</ele>
        <time>2022-07-16T15:26:08Z</time>
      </trkpt>
      <trkpt lat="45.70405" lon="6.67439">
        <ele>2280</ele>
        <time>2022-07-16T15:26:10Z</time>
      </trkpt>
      <trkpt lat="45.70404" lon="6.67436">
        <ele>2279</ele>
        <time>2022-07-16T15:26:12Z</time>
      </trkpt>
      <trkpt lat="45.70404" lon="6.67433">
        <ele>2279</ele>
        <time>2022-07-16T15:26:14Z</time>
      </trkpt>
      <trkpt lat="45.70403" lon="6.67429">
        <ele>2279</ele>
        <time>2022-07-16T15:26:16Z</time>
      </trkpt>
      <trkpt lat="45.70403" lon="6.67426">
        <ele>2279</ele>
        <time>2022-07-16T15:26:18Z</time>
      </trkpt>
      <trkpt lat="45.70403" lon="6.67423">
        <ele>2279</ele>
        <time>2022-07-16T15:26:20Z</time>
      </trkpt>
      <trkpt lat="45.70403" lon="6.6742">
        <ele>2280</ele>
        <time>2022-07-16T15:26:22Z</time>
      </trkpt>
      <trkpt lat="45.70402" lon="6.67417">
        <ele>2280</ele>
        <time>2022-07-16T15:26:24Z</time>
      </trkpt>
      <trkpt lat="45.70401" lon="6.67414">
        <ele>2281</ele>
        <time>2022-07-16T15:26:27Z</time>
      </trkpt>
      <trkpt lat="45.70401" lon="6.67411">
        <ele>2281</ele>
        <time>2022-07-16T15:26:30Z</time>
      </trkpt>
      <trkpt lat="45.704" lon="6.67409">
        <ele>2281</ele>
        <time>2022-07-16T15:26:34Z</time>
      </trkpt>
      <trkpt lat="45.704" lon="6.67405">
        <ele>2283</ele>
        <time>2022-07-16T15:26:38Z</time>
      </trkpt>
      <trkpt lat="45.704" lon="6.67402">
        <ele>2284</ele>
        <time>2022-07-16T15:26:41Z</time>
      </trkpt>
      <trkpt lat="45.70399" lon="6.67399">
        <ele>2284</ele>
        <time>2022-07-16T15:26:45Z</time>
      </trkpt>
      <trkpt lat="45.70399" lon="6.67396">
        <ele>2284</ele>
        <time>2022-07-16T15:26:48Z</time>
      </trkpt>
      <trkpt lat="45.70398" lon="6.67393">
        <ele>2284</ele>
        <time>2022-07-16T15:26:50Z</time>
      </trkpt>
      <trkpt lat="45.70397" lon="6.6739">
        <ele>2285</ele>
        <time>2022-07-16T15:26:53Z</time>
      </trkpt>
      <trkpt lat="45.70397" lon="6.67387">
        <ele>2286</ele>
        <time>2022-07-16T15:26:55Z</time>
      </trkpt>
      <trkpt lat="45.70397" lon="6.67384">
        <ele>2287</ele>
        <time>2022-07-16T15:26:57Z</time>
      </trkpt>
      <trkpt lat="45.70397" lon="6.67381">
        <ele>2287</ele>
        <time>2022-07-16T15:26:59Z</time>
      </trkpt>
      <trkpt lat="45.70397" lon="6.67378">
        <ele>2288</ele>
        <time>2022-07-16T15:27:01Z</time>
      </trkpt>
      <trkpt lat="45.70396" lon="6.67374">
        <ele>2288</ele>
        <time>2022-07-16T15:27:03Z</time>
      </trkpt>
      <trkpt lat="45.70396" lon="6.67371">
        <ele>2288</ele>
        <time>2022-07-16T15:27:05Z</time>
      </trkpt>
      <trkpt lat="45.70395" lon="6.67368">
        <ele>2288</ele>
        <time>2022-07-16T15:27:07Z</time>
      </trkpt>
      <trkpt lat="45.70395" lon="6.67365">
        <ele>2288</ele>
        <time>2022-07-16T15:27:09Z</time>
      </trkpt>
      <trkpt lat="45.70395" lon="6.67362">
        <ele>2288</ele>
        <time>2022-07-16T15:27:11Z</time>
      </trkpt>
      <trkpt lat="45.70395" lon="6.67359">
        <ele>2288</ele>
        <time>2022-07-16T15:27:13Z</time>
      </trkpt>
      <trkpt lat="45.70395" lon="6.67356">
        <ele>2289</ele>
        <time>2022-07-16T15:27:16Z</time>
      </trkpt>
      <trkpt lat="45.70396" lon="6.67353">
        <ele>2289</ele>
        <time>2022-07-16T15:27:18Z</time>
      </trkpt>
      <trkpt lat="45.70396" lon="6.67351">
        <ele>2289</ele>
        <time>2022-07-16T15:27:20Z</time>
      </trkpt>
      <trkpt lat="45.70396" lon="6.67347">
        <ele>2289</ele>
        <time>2022-07-16T15:27:22Z</time>
      </trkpt>
      <trkpt lat="45.70396" lon="6.67344">
        <ele>2289</ele>
        <time>2022-07-16T15:27:24Z</time>
      </trkpt>
      <trkpt lat="45.70395" lon="6.6734">
        <ele>2289</ele>
        <time>2022-07-16T15:27:26Z</time>
      </trkpt>
      <trkpt lat="45.70395" lon="6.67337">
        <ele>2289</ele>
        <time>2022-07-16T15:27:28Z</time>
      </trkpt>
      <trkpt lat="45.70394" lon="6.67334">
        <ele>2289</ele>
        <time>2022-07-16T15:27:30Z</time>
      </trkpt>
      <trkpt lat="45.70393" lon="6.67331">
        <ele>2289</ele>
        <time>2022-07-16T15:27:32Z</time>
      </trkpt>
      <trkpt lat="45.70393" lon="6.67327">
        <ele>2289</ele>
        <time>2022-07-16T15:27:34Z</time>
      </trkpt>
      <trkpt lat="45.70392" lon="6.67324">
        <ele>2289</ele>
        <time>2022-07-16T15:27:36Z</time>
      </trkpt>
      <trkpt lat="45.70391" lon="6.6732">
        <ele>2289</ele>
        <time>2022-07-16T15:27:38Z</time>
      </trkpt>
      <trkpt lat="45.7039" lon="6.67317">
        <ele>2288</ele>
        <time>2022-07-16T15:27:40Z</time>
      </trkpt>
      <trkpt lat="45.70389" lon="6.67315">
        <ele>2288</ele>
        <time>2022-07-16T15:27:42Z</time>
      </trkpt>
      <trkpt lat="45.70387" lon="6.67313">
        <ele>2288</ele>
        <time>2022-07-16T15:27:44Z</time>
      </trkpt>
      <trkpt lat="45.70386" lon="6.67311">
        <ele>2288</ele>
        <time>2022-07-16T15:27:45Z</time>
      </trkpt>
      <trkpt lat="45.70384" lon="6.67309">
        <ele>2288</ele>
        <time>2022-07-16T15:27:48Z</time>
      </trkpt>
      <trkpt lat="45.70383" lon="6.67306">
        <ele>2289</ele>
        <time>2022-07-16T15:27:50Z</time>
      </trkpt>
      <trkpt lat="45.70382" lon="6.67303">
        <ele>2290</ele>
        <time>2022-07-16T15:27:52Z</time>
      </trkpt>
      <trkpt lat="45.70381" lon="6.67301">
        <ele>2291</ele>
        <time>2022-07-16T15:27:54Z</time>
      </trkpt>
      <trkpt lat="45.7038" lon="6.67298">
        <ele>2290</ele>
        <time>2022-07-16T15:27:56Z</time>
      </trkpt>
      <trkpt lat="45.7038" lon="6.67295">
        <ele>2291</ele>
        <time>2022-07-16T15:27:58Z</time>
      </trkpt>
      <trkpt lat="45.70379" lon="6.67291">
        <ele>2291</ele>
        <time>2022-07-16T15:28:00Z</time>
      </trkpt>
      <trkpt lat="45.7038" lon="6.67287">
        <ele>2291</ele>
        <time>2022-07-16T15:28:02Z</time>
      </trkpt>
      <trkpt lat="45.7038" lon="6.67284">
        <ele>2290</ele>
        <time>2022-07-16T15:28:04Z</time>
      </trkpt>
      <trkpt lat="45.7038" lon="6.6728">
        <ele>2290</ele>
        <time>2022-07-16T15:28:06Z</time>
      </trkpt>
      <trkpt lat="45.7038" lon="6.67276">
        <ele>2290</ele>
        <time>2022-07-16T15:28:08Z</time>
      </trkpt>
      <trkpt lat="45.7038" lon="6.67273">
        <ele>2290</ele>
        <time>2022-07-16T15:28:10Z</time>
      </trkpt>
      <trkpt lat="45.70379" lon="6.67269">
        <ele>2291</ele>
        <time>2022-07-16T15:28:13Z</time>
      </trkpt>
      <trkpt lat="45.70377" lon="6.67267">
        <ele>2292</ele>
        <time>2022-07-16T15:28:15Z</time>
      </trkpt>
      <trkpt lat="45.70375" lon="6.67267">
        <ele>2292</ele>
        <time>2022-07-16T15:28:17Z</time>
      </trkpt>
      <trkpt lat="45.70373" lon="6.67266">
        <ele>2292</ele>
        <time>2022-07-16T15:28:19Z</time>
      </trkpt>
      <trkpt lat="45.70371" lon="6.67266">
        <ele>2292</ele>
        <time>2022-07-16T15:28:21Z</time>
      </trkpt>
      <trkpt lat="45.70369" lon="6.67265">
        <ele>2292</ele>
        <time>2022-07-16T15:28:23Z</time>
      </trkpt>
      <trkpt lat="45.70367" lon="6.67263">
        <ele>2292</ele>
        <time>2022-07-16T15:28:25Z</time>
      </trkpt>
      <trkpt lat="45.70366" lon="6.6726">
        <ele>2292</ele>
        <time>2022-07-16T15:28:27Z</time>
      </trkpt>
      <trkpt lat="45.70364" lon="6.67258">
        <ele>2292</ele>
        <time>2022-07-16T15:28:29Z</time>
      </trkpt>
      <trkpt lat="45.70363" lon="6.67255">
        <ele>2292</ele>
        <time>2022-07-16T15:28:31Z</time>
      </trkpt>
      <trkpt lat="45.70362" lon="6.67252">
        <ele>2292</ele>
        <time>2022-07-16T15:28:33Z</time>
      </trkpt>
      <trkpt lat="45.70361" lon="6.67249">
        <ele>2293</ele>
        <time>2022-07-16T15:28:35Z</time>
      </trkpt>
      <trkpt lat="45.70359" lon="6.67246">
        <ele>2293</ele>
        <time>2022-07-16T15:28:37Z</time>
      </trkpt>
      <trkpt lat="45.70358" lon="6.67244">
        <ele>2293</ele>
        <time>2022-07-16T15:28:39Z</time>
      </trkpt>
      <trkpt lat="45.70356" lon="6.67242">
        <ele>2293</ele>
        <time>2022-07-16T15:28:41Z</time>
      </trkpt>
      <trkpt lat="45.70354" lon="6.6724">
        <ele>2293</ele>
        <time>2022-07-16T15:28:43Z</time>
      </trkpt>
      <trkpt lat="45.70352" lon="6.67237">
        <ele>2293</ele>
        <time>2022-07-16T15:28:45Z</time>
      </trkpt>
      <trkpt lat="45.70351" lon="6.67234">
        <ele>2294</ele>
        <time>2022-07-16T15:28:47Z</time>
      </trkpt>
      <trkpt lat="45.7035" lon="6.67232">
        <ele>2294</ele>
        <time>2022-07-16T15:28:49Z</time>
      </trkpt>
      <trkpt lat="45.70348" lon="6.67229">
        <ele>2294</ele>
        <time>2022-07-16T15:28:51Z</time>
      </trkpt>
      <trkpt lat="45.70346" lon="6.67227">
        <ele>2294</ele>
        <time>2022-07-16T15:28:53Z</time>
      </trkpt>
      <trkpt lat="45.70344" lon="6.67224">
        <ele>2294</ele>
        <time>2022-07-16T15:28:55Z</time>
      </trkpt>
      <trkpt lat="45.70343" lon="6.67223">
        <ele>2294</ele>
        <time>2022-07-16T15:28:57Z</time>
      </trkpt>
      <trkpt lat="45.70341" lon="6.6722">
        <ele>2294</ele>
        <time>2022-07-16T15:28:59Z</time>
      </trkpt>
      <trkpt lat="45.70339" lon="6.67218">
        <ele>2293</ele>
        <time>2022-07-16T15:29:01Z</time>
      </trkpt>
      <trkpt lat="45.70337" lon="6.67217">
        <ele>2294</ele>
        <time>2022-07-16T15:29:03Z</time>
      </trkpt>
      <trkpt lat="45.70335" lon="6.67215">
        <ele>2294</ele>
        <time>2022-07-16T15:29:05Z</time>
      </trkpt>
      <trkpt lat="45.70332" lon="6.67213">
        <ele>2294</ele>
        <time>2022-07-16T15:29:07Z</time>
      </trkpt>
      <trkpt lat="45.7033" lon="6.6721">
        <ele>2293</ele>
        <time>2022-07-16T15:29:09Z</time>
      </trkpt>
      <trkpt lat="45.70328" lon="6.67208">
        <ele>2293</ele>
        <time>2022-07-16T15:29:11Z</time>
      </trkpt>
      <trkpt lat="45.70327" lon="6.67204">
        <ele>2294</ele>
        <time>2022-07-16T15:29:13Z</time>
      </trkpt>
      <trkpt lat="45.70325" lon="6.67202">
        <ele>2294</ele>
        <time>2022-07-16T15:29:15Z</time>
      </trkpt>
      <trkpt lat="45.70324" lon="6.67199">
        <ele>2294</ele>
        <time>2022-07-16T15:29:17Z</time>
      </trkpt>
      <trkpt lat="45.70322" lon="6.67196">
        <ele>2293</ele>
        <time>2022-07-16T15:29:19Z</time>
      </trkpt>
      <trkpt lat="45.7032" lon="6.67194">
        <ele>2293</ele>
        <time>2022-07-16T15:29:21Z</time>
      </trkpt>
      <trkpt lat="45.70319" lon="6.67191">
        <ele>2293</ele>
        <time>2022-07-16T15:29:23Z</time>
      </trkpt>
      <trkpt lat="45.70318" lon="6.67188">
        <ele>2293</ele>
        <time>2022-07-16T15:29:25Z</time>
      </trkpt>
      <trkpt lat="45.70317" lon="6.67184">
        <ele>2293</ele>
        <time>2022-07-16T15:29:27Z</time>
      </trkpt>
      <trkpt lat="45.70315" lon="6.67182">
        <ele>2293</ele>
        <time>2022-07-16T15:29:29Z</time>
      </trkpt>
      <trkpt lat="45.70313" lon="6.6718">
        <ele>2293</ele>
        <time>2022-07-16T15:29:31Z</time>
      </trkpt>
      <trkpt lat="45.70311" lon="6.67177">
        <ele>2293</ele>
        <time>2022-07-16T15:29:33Z</time>
      </trkpt>
      <trkpt lat="45.70309" lon="6.67175">
        <ele>2293</ele>
        <time>2022-07-16T15:29:35Z</time>
      </trkpt>
      <trkpt lat="45.70308" lon="6.67171">
        <ele>2293</ele>
        <time>2022-07-16T15:29:37Z</time>
      </trkpt>
      <trkpt lat="45.70307" lon="6.67168">
        <ele>2293</ele>
        <time>2022-07-16T15:29:39Z</time>
      </trkpt>
      <trkpt lat="45.70306" lon="6.67166">
        <ele>2294</ele>
        <time>2022-07-16T15:29:41Z</time>
      </trkpt>
      <trkpt lat="45.70306" lon="6.67162">
        <ele>2295</ele>
        <time>2022-07-16T15:29:44Z</time>
      </trkpt>
      <trkpt lat="45.70306" lon="6.67159">
        <ele>2296</ele>
        <time>2022-07-16T15:29:47Z</time>
      </trkpt>
      <trkpt lat="45.70305" lon="6.67156">
        <ele>2296</ele>
        <time>2022-07-16T15:29:50Z</time>
      </trkpt>
      <trkpt lat="45.70304" lon="6.67153">
        <ele>2297</ele>
        <time>2022-07-16T15:29:52Z</time>
      </trkpt>
      <trkpt lat="45.70303" lon="6.6715">
        <ele>2297</ele>
        <time>2022-07-16T15:29:54Z</time>
      </trkpt>
      <trkpt lat="45.70302" lon="6.67147">
        <ele>2297</ele>
        <time>2022-07-16T15:29:56Z</time>
      </trkpt>
      <trkpt lat="45.703" lon="6.67144">
        <ele>2297</ele>
        <time>2022-07-16T15:29:58Z</time>
      </trkpt>
      <trkpt lat="45.70299" lon="6.67142">
        <ele>2296</ele>
        <time>2022-07-16T15:30:00Z</time>
      </trkpt>
      <trkpt lat="45.70298" lon="6.6714">
        <ele>2296</ele>
        <time>2022-07-16T15:30:01Z</time>
      </trkpt>
      <trkpt lat="45.70297" lon="6.67137">
        <ele>2296</ele>
        <time>2022-07-16T15:30:04Z</time>
      </trkpt>
      <trkpt lat="45.70296" lon="6.67134">
        <ele>2296</ele>
        <time>2022-07-16T15:30:06Z</time>
      </trkpt>
      <trkpt lat="45.70295" lon="6.67131">
        <ele>2295</ele>
        <time>2022-07-16T15:30:08Z</time>
      </trkpt>
      <trkpt lat="45.70294" lon="6.67129">
        <ele>2295</ele>
        <time>2022-07-16T15:30:10Z</time>
      </trkpt>
      <trkpt lat="45.70292" lon="6.67127">
        <ele>2295</ele>
        <time>2022-07-16T15:30:12Z</time>
      </trkpt>
      <trkpt lat="45.7029" lon="6.67125">
        <ele>2295</ele>
        <time>2022-07-16T15:30:14Z</time>
      </trkpt>
      <trkpt lat="45.70289" lon="6.67123">
        <ele>2295</ele>
        <time>2022-07-16T15:30:16Z</time>
      </trkpt>
      <trkpt lat="45.70287" lon="6.67122">
        <ele>2295</ele>
        <time>2022-07-16T15:30:18Z</time>
      </trkpt>
      <trkpt lat="45.70285" lon="6.6712">
        <ele>2296</ele>
        <time>2022-07-16T15:30:20Z</time>
      </trkpt>
      <trkpt lat="45.70282" lon="6.67117">
        <ele>2296</ele>
        <time>2022-07-16T15:30:22Z</time>
      </trkpt>
      <trkpt lat="45.7028" lon="6.67115">
        <ele>2296</ele>
        <time>2022-07-16T15:30:24Z</time>
      </trkpt>
      <trkpt lat="45.70278" lon="6.67113">
        <ele>2296</ele>
        <time>2022-07-16T15:30:26Z</time>
      </trkpt>
      <trkpt lat="45.70276" lon="6.6711">
        <ele>2296</ele>
        <time>2022-07-16T15:30:28Z</time>
      </trkpt>
      <trkpt lat="45.70274" lon="6.67108">
        <ele>2296</ele>
        <time>2022-07-16T15:30:30Z</time>
      </trkpt>
      <trkpt lat="45.70273" lon="6.67106">
        <ele>2297</ele>
        <time>2022-07-16T15:30:32Z</time>
      </trkpt>
      <trkpt lat="45.70271" lon="6.67103">
        <ele>2297</ele>
        <time>2022-07-16T15:30:34Z</time>
      </trkpt>
      <trkpt lat="45.70269" lon="6.671">
        <ele>2297</ele>
        <time>2022-07-16T15:30:36Z</time>
      </trkpt>
      <trkpt lat="45.70267" lon="6.67097">
        <ele>2297</ele>
        <time>2022-07-16T15:30:38Z</time>
      </trkpt>
      <trkpt lat="45.70266" lon="6.67094">
        <ele>2297</ele>
        <time>2022-07-16T15:30:40Z</time>
      </trkpt>
      <trkpt lat="45.70265" lon="6.67091">
        <ele>2297</ele>
        <time>2022-07-16T15:30:42Z</time>
      </trkpt>
      <trkpt lat="45.70263" lon="6.67089">
        <ele>2297</ele>
        <time>2022-07-16T15:30:44Z</time>
      </trkpt>
      <trkpt lat="45.70261" lon="6.67086">
        <ele>2297</ele>
        <time>2022-07-16T15:30:46Z</time>
      </trkpt>
      <trkpt lat="45.7026" lon="6.67083">
        <ele>2297</ele>
        <time>2022-07-16T15:30:48Z</time>
      </trkpt>
      <trkpt lat="45.70259" lon="6.67081">
        <ele>2297</ele>
        <time>2022-07-16T15:30:50Z</time>
      </trkpt>
      <trkpt lat="45.70258" lon="6.67079">
        <ele>2298</ele>
        <time>2022-07-16T15:30:52Z</time>
      </trkpt>
      <trkpt lat="45.70256" lon="6.67076">
        <ele>2298</ele>
        <time>2022-07-16T15:30:54Z</time>
      </trkpt>
      <trkpt lat="45.70255" lon="6.67073">
        <ele>2298</ele>
        <time>2022-07-16T15:30:56Z</time>
      </trkpt>
      <trkpt lat="45.70254" lon="6.6707">
        <ele>2298</ele>
        <time>2022-07-16T15:30:58Z</time>
      </trkpt>
      <trkpt lat="45.70253" lon="6.67067">
        <ele>2301</ele>
        <time>2022-07-16T15:31:00Z</time>
      </trkpt>
      <trkpt lat="45.70252" lon="6.67064">
        <ele>2301</ele>
        <time>2022-07-16T15:31:04Z</time>
      </trkpt>
      <trkpt lat="45.70251" lon="6.67062">
        <ele>2301</ele>
        <time>2022-07-16T15:31:06Z</time>
      </trkpt>
      <trkpt lat="45.7025" lon="6.67059">
        <ele>2302</ele>
        <time>2022-07-16T15:31:09Z</time>
      </trkpt>
      <trkpt lat="45.70249" lon="6.67057">
        <ele>2302</ele>
        <time>2022-07-16T15:31:11Z</time>
      </trkpt>
      <trkpt lat="45.70246" lon="6.67055">
        <ele>2302</ele>
        <time>2022-07-16T15:31:13Z</time>
      </trkpt>
      <trkpt lat="45.70244" lon="6.67053">
        <ele>2302</ele>
        <time>2022-07-16T15:31:15Z</time>
      </trkpt>
      <trkpt lat="45.70243" lon="6.67051">
        <ele>2302</ele>
        <time>2022-07-16T15:31:17Z</time>
      </trkpt>
      <trkpt lat="45.7024" lon="6.67049">
        <ele>2302</ele>
        <time>2022-07-16T15:31:19Z</time>
      </trkpt>
      <trkpt lat="45.70238" lon="6.67047">
        <ele>2302</ele>
        <time>2022-07-16T15:31:21Z</time>
      </trkpt>
      <trkpt lat="45.70237" lon="6.67044">
        <ele>2302</ele>
        <time>2022-07-16T15:31:23Z</time>
      </trkpt>
      <trkpt lat="45.70235" lon="6.67041">
        <ele>2303</ele>
        <time>2022-07-16T15:31:25Z</time>
      </trkpt>
      <trkpt lat="45.70233" lon="6.67039">
        <ele>2303</ele>
        <time>2022-07-16T15:31:27Z</time>
      </trkpt>
      <trkpt lat="45.70232" lon="6.67036">
        <ele>2303</ele>
        <time>2022-07-16T15:31:29Z</time>
      </trkpt>
      <trkpt lat="45.7023" lon="6.67035">
        <ele>2304</ele>
        <time>2022-07-16T15:31:31Z</time>
      </trkpt>
      <trkpt lat="45.70229" lon="6.67033">
        <ele>2304</ele>
        <time>2022-07-16T15:31:32Z</time>
      </trkpt>
      <trkpt lat="45.70228" lon="6.6703">
        <ele>2305</ele>
        <time>2022-07-16T15:31:36Z</time>
      </trkpt>
      <trkpt lat="45.70226" lon="6.67027">
        <ele>2305</ele>
        <time>2022-07-16T15:31:39Z</time>
      </trkpt>
      <trkpt lat="45.70225" lon="6.67024">
        <ele>2305</ele>
        <time>2022-07-16T15:31:41Z</time>
      </trkpt>
      <trkpt lat="45.70224" lon="6.67022">
        <ele>2305</ele>
        <time>2022-07-16T15:31:43Z</time>
      </trkpt>
      <trkpt lat="45.70223" lon="6.67019">
        <ele>2306</ele>
        <time>2022-07-16T15:31:45Z</time>
      </trkpt>
      <trkpt lat="45.70223" lon="6.67016">
        <ele>2306</ele>
        <time>2022-07-16T15:31:47Z</time>
      </trkpt>
      <trkpt lat="45.70222" lon="6.67013">
        <ele>2306</ele>
        <time>2022-07-16T15:31:49Z</time>
      </trkpt>
      <trkpt lat="45.70222" lon="6.6701">
        <ele>2305</ele>
        <time>2022-07-16T15:31:51Z</time>
      </trkpt>
      <trkpt lat="45.70221" lon="6.67008">
        <ele>2304</ele>
        <time>2022-07-16T15:31:53Z</time>
      </trkpt>
      <trkpt lat="45.70221" lon="6.67005">
        <ele>2305</ele>
        <time>2022-07-16T15:31:55Z</time>
      </trkpt>
      <trkpt lat="45.70221" lon="6.67001">
        <ele>2306</ele>
        <time>2022-07-16T15:31:57Z</time>
      </trkpt>
      <trkpt lat="45.70221" lon="6.66998">
        <ele>2307</ele>
        <time>2022-07-16T15:31:59Z</time>
      </trkpt>
      <trkpt lat="45.70221" lon="6.66995">
        <ele>2307</ele>
        <time>2022-07-16T15:32:01Z</time>
      </trkpt>
      <trkpt lat="45.70221" lon="6.66992">
        <ele>2307</ele>
        <time>2022-07-16T15:32:03Z</time>
      </trkpt>
      <trkpt lat="45.70221" lon="6.66989">
        <ele>2307</ele>
        <time>2022-07-16T15:32:05Z</time>
      </trkpt>
      <trkpt lat="45.7022" lon="6.66985">
        <ele>2307</ele>
        <time>2022-07-16T15:32:08Z</time>
      </trkpt>
      <trkpt lat="45.7022" lon="6.66982">
        <ele>2306</ele>
        <time>2022-07-16T15:32:10Z</time>
      </trkpt>
      <trkpt lat="45.70219" lon="6.66979">
        <ele>2308</ele>
        <time>2022-07-16T15:32:12Z</time>
      </trkpt>
      <trkpt lat="45.70218" lon="6.66977">
        <ele>2308</ele>
        <time>2022-07-16T15:32:26Z</time>
      </trkpt>
      <trkpt lat="45.70218" lon="6.66977">
        <ele>2308</ele>
        <time>2022-07-16T15:32:27Z</time>
      </trkpt>
      <trkpt lat="45.70219" lon="6.66974">
        <ele>2307</ele>
        <time>2022-07-16T15:32:29Z</time>
      </trkpt>
      <trkpt lat="45.70219" lon="6.66971">
        <ele>2307</ele>
        <time>2022-07-16T15:32:32Z</time>
      </trkpt>
      <trkpt lat="45.70219" lon="6.66968">
        <ele>2307</ele>
        <time>2022-07-16T15:32:34Z</time>
      </trkpt>
      <trkpt lat="45.7022" lon="6.66964">
        <ele>2308</ele>
        <time>2022-07-16T15:32:36Z</time>
      </trkpt>
      <trkpt lat="45.70221" lon="6.6696">
        <ele>2308</ele>
        <time>2022-07-16T15:32:38Z</time>
      </trkpt>
      <trkpt lat="45.70222" lon="6.66957">
        <ele>2308</ele>
        <time>2022-07-16T15:32:40Z</time>
      </trkpt>
      <trkpt lat="45.70223" lon="6.66955">
        <ele>2308</ele>
        <time>2022-07-16T15:32:42Z</time>
      </trkpt>
      <trkpt lat="45.70225" lon="6.66953">
        <ele>2308</ele>
        <time>2022-07-16T15:32:44Z</time>
      </trkpt>
      <trkpt lat="45.70226" lon="6.66951">
        <ele>2308</ele>
        <time>2022-07-16T15:32:47Z</time>
      </trkpt>
      <trkpt lat="45.70226" lon="6.66951">
        <ele>2309</ele>
        <time>2022-07-16T15:33:00Z</time>
      </trkpt>
      <trkpt lat="45.70226" lon="6.66951">
        <ele>2308</ele>
        <time>2022-07-16T15:33:16Z</time>
      </trkpt>
      <trkpt lat="45.70226" lon="6.66951">
        <ele>2309</ele>
        <time>2022-07-16T15:33:33Z</time>
      </trkpt>
      <trkpt lat="45.70226" lon="6.66951">
        <ele>2310</ele>
        <time>2022-07-16T15:33:49Z</time>
      </trkpt>
      <trkpt lat="45.70226" lon="6.66951">
        <ele>2309</ele>
        <time>2022-07-16T15:34:06Z</time>
      </trkpt>
      <trkpt lat="45.70226" lon="6.66951">
        <ele>2309</ele>
        <time>2022-07-16T15:34:22Z</time>
      </trkpt>
      <trkpt lat="45.70226" lon="6.66951">
        <ele>2310</ele>
        <time>2022-07-16T15:34:39Z</time>
      </trkpt>
      <trkpt lat="45.70226" lon="6.66951">
        <ele>2310</ele>
        <time>2022-07-16T15:34:55Z</time>
      </trkpt>
      <trkpt lat="45.70226" lon="6.66951">
        <ele>2309</ele>
        <time>2022-07-16T15:35:11Z</time>
      </trkpt>
      <trkpt lat="45.70273" lon="6.66746">
        <ele>2309</ele>
        <time>2022-07-16T15:35:23Z</time>
      </trkpt>
      <trkpt lat="45.70275" lon="6.66747">
        <ele>2309</ele>
        <time>2022-07-16T15:35:25Z</time>
      </trkpt>
      <trkpt lat="45.70277" lon="6.66748">
        <ele>2308</ele>
        <time>2022-07-16T15:35:26Z</time>
      </trkpt>
      <trkpt lat="45.70279" lon="6.66749">
        <ele>2309</ele>
        <time>2022-07-16T15:35:27Z</time>
      </trkpt>
      <trkpt lat="45.70281" lon="6.6675">
        <ele>2309</ele>
        <time>2022-07-16T15:35:28Z</time>
      </trkpt>
      <trkpt lat="45.70283" lon="6.66751">
        <ele>2309</ele>
        <time>2022-07-16T15:35:29Z</time>
      </trkpt>
      <trkpt lat="45.70285" lon="6.66753">
        <ele>2309</ele>
        <time>2022-07-16T15:35:30Z</time>
      </trkpt>
      <trkpt lat="45.70286" lon="6.66754">
        <ele>2309</ele>
        <time>2022-07-16T15:35:31Z</time>
      </trkpt>
      <trkpt lat="45.70288" lon="6.66755">
        <ele>2310</ele>
        <time>2022-07-16T15:35:32Z</time>
      </trkpt>
      <trkpt lat="45.70289" lon="6.66756">
        <ele>2310</ele>
        <time>2022-07-16T15:35:33Z</time>
      </trkpt>
      <trkpt lat="45.7029" lon="6.66754">
        <ele>2311</ele>
        <time>2022-07-16T15:35:34Z</time>
      </trkpt>
      <trkpt lat="45.7029" lon="6.66752">
        <ele>2311</ele>
        <time>2022-07-16T15:35:35Z</time>
      </trkpt>
      <trkpt lat="45.7029" lon="6.66751">
        <ele>2311</ele>
        <time>2022-07-16T15:35:36Z</time>
      </trkpt>
      <trkpt lat="45.70291" lon="6.66749">
        <ele>2311</ele>
        <time>2022-07-16T15:35:37Z</time>
      </trkpt>
      <trkpt lat="45.70291" lon="6.66747">
        <ele>2311</ele>
        <time>2022-07-16T15:35:38Z</time>
      </trkpt>
      <trkpt lat="45.70292" lon="6.66745">
        <ele>2311</ele>
        <time>2022-07-16T15:35:39Z</time>
      </trkpt>
      <trkpt lat="45.70292" lon="6.66743">
        <ele>2311</ele>
        <time>2022-07-16T15:35:40Z</time>
      </trkpt>
      <trkpt lat="45.70293" lon="6.66741">
        <ele>2311</ele>
        <time>2022-07-16T15:35:41Z</time>
      </trkpt>
      <trkpt lat="45.70293" lon="6.6674">
        <ele>2311</ele>
        <time>2022-07-16T15:35:42Z</time>
      </trkpt>
      <trkpt lat="45.70294" lon="6.66739">
        <ele>2311</ele>
        <time>2022-07-16T15:35:43Z</time>
      </trkpt>
      <trkpt lat="45.70294" lon="6.66737">
        <ele>2311</ele>
        <time>2022-07-16T15:35:44Z</time>
      </trkpt>
      <trkpt lat="45.70295" lon="6.66736">
        <ele>2311</ele>
        <time>2022-07-16T15:35:45Z</time>
      </trkpt>
      <trkpt lat="45.70296" lon="6.66735">
        <ele>2311</ele>
        <time>2022-07-16T15:35:46Z</time>
      </trkpt>
      <trkpt lat="45.70296" lon="6.66733">
        <ele>2312</ele>
        <time>2022-07-16T15:35:47Z</time>
      </trkpt>
      <trkpt lat="45.70297" lon="6.66732">
        <ele>2312</ele>
        <time>2022-07-16T15:35:48Z</time>
      </trkpt>
      <trkpt lat="45.70297" lon="6.66731">
        <ele>2312</ele>
        <time>2022-07-16T15:35:49Z</time>
      </trkpt>
      <trkpt lat="45.70297" lon="6.66729">
        <ele>2312</ele>
        <time>2022-07-16T15:35:50Z</time>
      </trkpt>
      <trkpt lat="45.70298" lon="6.66728">
        <ele>2312</ele>
        <time>2022-07-16T15:35:51Z</time>
      </trkpt>
      <trkpt lat="45.70298" lon="6.66727">
        <ele>2312</ele>
        <time>2022-07-16T15:35:52Z</time>
      </trkpt>
      <trkpt lat="45.70298" lon="6.66726">
        <ele>2312</ele>
        <time>2022-07-16T15:35:53Z</time>
      </trkpt>
      <trkpt lat="45.70298" lon="6.66724">
        <ele>2312</ele>
        <time>2022-07-16T15:35:54Z</time>
      </trkpt>
      <trkpt lat="45.70298" lon="6.66723">
        <ele>2312</ele>
        <time>2022-07-16T15:35:55Z</time>
      </trkpt>
      <trkpt lat="45.70299" lon="6.66722">
        <ele>2312</ele>
        <time>2022-07-16T15:35:56Z</time>
      </trkpt>
      <trkpt lat="45.70299" lon="6.66721">
        <ele>2312</ele>
        <time>2022-07-16T15:35:57Z</time>
      </trkpt>
      <trkpt lat="45.70299" lon="6.66719">
        <ele>2312</ele>
        <time>2022-07-16T15:35:58Z</time>
      </trkpt>
      <trkpt lat="45.70299" lon="6.66718">
        <ele>2312</ele>
        <time>2022-07-16T15:35:59Z</time>
      </trkpt>
      <trkpt lat="45.703" lon="6.66716">
        <ele>2311</ele>
        <time>2022-07-16T15:36:00Z</time>
      </trkpt>
      <trkpt lat="45.703" lon="6.66714">
        <ele>2311</ele>
        <time>2022-07-16T15:36:01Z</time>
      </trkpt>
      <trkpt lat="45.70301" lon="6.66713">
        <ele>2311</ele>
        <time>2022-07-16T15:36:02Z</time>
      </trkpt>
      <trkpt lat="45.70301" lon="6.66711">
        <ele>2311</ele>
        <time>2022-07-16T15:36:03Z</time>
      </trkpt>
      <trkpt lat="45.70302" lon="6.66709">
        <ele>2311</ele>
        <time>2022-07-16T15:36:04Z</time>
      </trkpt>
      <trkpt lat="45.70302" lon="6.66707">
        <ele>2311</ele>
        <time>2022-07-16T15:36:05Z</time>
      </trkpt>
      <trkpt lat="45.70303" lon="6.66706">
        <ele>2311</ele>
        <time>2022-07-16T15:36:06Z</time>
      </trkpt>
      <trkpt lat="45.70303" lon="6.66704">
        <ele>2311</ele>
        <time>2022-07-16T15:36:07Z</time>
      </trkpt>
      <trkpt lat="45.70303" lon="6.66703">
        <ele>2310</ele>
        <time>2022-07-16T15:36:08Z</time>
      </trkpt>
      <trkpt lat="45.70303" lon="6.66702">
        <ele>2310</ele>
        <time>2022-07-16T15:36:09Z</time>
      </trkpt>
      <trkpt lat="45.70303" lon="6.667">
        <ele>2310</ele>
        <time>2022-07-16T15:36:10Z</time>
      </trkpt>
      <trkpt lat="45.70303" lon="6.66699">
        <ele>2310</ele>
        <time>2022-07-16T15:36:11Z</time>
      </trkpt>
      <trkpt lat="45.70304" lon="6.66697">
        <ele>2309</ele>
        <time>2022-07-16T15:36:12Z</time>
      </trkpt>
      <trkpt lat="45.70304" lon="6.66696">
        <ele>2308</ele>
        <time>2022-07-16T15:36:13Z</time>
      </trkpt>
      <trkpt lat="45.70304" lon="6.66695">
        <ele>2308</ele>
        <time>2022-07-16T15:36:14Z</time>
      </trkpt>
      <trkpt lat="45.70304" lon="6.66693">
        <ele>2308</ele>
        <time>2022-07-16T15:36:15Z</time>
      </trkpt>
      <trkpt lat="45.70304" lon="6.66692">
        <ele>2308</ele>
        <time>2022-07-16T15:36:16Z</time>
      </trkpt>
      <trkpt lat="45.70304" lon="6.6669">
        <ele>2308</ele>
        <time>2022-07-16T15:36:18Z</time>
      </trkpt>
      <trkpt lat="45.70305" lon="6.66687">
        <ele>2308</ele>
        <time>2022-07-16T15:36:19Z</time>
      </trkpt>
      <trkpt lat="45.70305" lon="6.66685">
        <ele>2307</ele>
        <time>2022-07-16T15:36:20Z</time>
      </trkpt>
      <trkpt lat="45.70305" lon="6.66683">
        <ele>2307</ele>
        <time>2022-07-16T15:36:21Z</time>
      </trkpt>
      <trkpt lat="45.70305" lon="6.66681">
        <ele>2307</ele>
        <time>2022-07-16T15:36:22Z</time>
      </trkpt>
      <trkpt lat="45.70305" lon="6.66679">
        <ele>2307</ele>
        <time>2022-07-16T15:36:23Z</time>
      </trkpt>
      <trkpt lat="45.70306" lon="6.66676">
        <ele>2307</ele>
        <time>2022-07-16T15:36:25Z</time>
      </trkpt>
      <trkpt lat="45.70307" lon="6.66672">
        <ele>2306</ele>
        <time>2022-07-16T15:36:28Z</time>
      </trkpt>
      <trkpt lat="45.70308" lon="6.66669">
        <ele>2306</ele>
        <time>2022-07-16T15:36:30Z</time>
      </trkpt>
      <trkpt lat="45.70308" lon="6.66666">
        <ele>2306</ele>
        <time>2022-07-16T15:36:32Z</time>
      </trkpt>
      <trkpt lat="45.70307" lon="6.66664">
        <ele>2305</ele>
        <time>2022-07-16T15:36:33Z</time>
      </trkpt>
      <trkpt lat="45.70307" lon="6.66662">
        <ele>2305</ele>
        <time>2022-07-16T15:36:34Z</time>
      </trkpt>
      <trkpt lat="45.70307" lon="6.6666">
        <ele>2305</ele>
        <time>2022-07-16T15:36:35Z</time>
      </trkpt>
      <trkpt lat="45.70306" lon="6.66658">
        <ele>2305</ele>
        <time>2022-07-16T15:36:36Z</time>
      </trkpt>
      <trkpt lat="45.70306" lon="6.66656">
        <ele>2305</ele>
        <time>2022-07-16T15:36:37Z</time>
      </trkpt>
      <trkpt lat="45.70306" lon="6.66654">
        <ele>2305</ele>
        <time>2022-07-16T15:36:38Z</time>
      </trkpt>
      <trkpt lat="45.70306" lon="6.66652">
        <ele>2305</ele>
        <time>2022-07-16T15:36:39Z</time>
      </trkpt>
      <trkpt lat="45.70305" lon="6.66648">
        <ele>2305</ele>
        <time>2022-07-16T15:36:41Z</time>
      </trkpt>
      <trkpt lat="45.70305" lon="6.66646">
        <ele>2305</ele>
        <time>2022-07-16T15:36:43Z</time>
      </trkpt>
      <trkpt lat="45.70305" lon="6.66643">
        <ele>2306</ele>
        <time>2022-07-16T15:36:45Z</time>
      </trkpt>
      <trkpt lat="45.70305" lon="6.66638">
        <ele>2307</ele>
        <time>2022-07-16T15:36:49Z</time>
      </trkpt>
      <trkpt lat="45.70305" lon="6.66637">
        <ele>2307</ele>
        <time>2022-07-16T15:36:50Z</time>
      </trkpt>
      <trkpt lat="45.70305" lon="6.66636">
        <ele>2307</ele>
        <time>2022-07-16T15:36:51Z</time>
      </trkpt>
      <trkpt lat="45.70305" lon="6.66635">
        <ele>2307</ele>
        <time>2022-07-16T15:36:52Z</time>
      </trkpt>
      <trkpt lat="45.70306" lon="6.66634">
        <ele>2307</ele>
        <time>2022-07-16T15:36:53Z</time>
      </trkpt>
      <trkpt lat="45.70306" lon="6.66633">
        <ele>2307</ele>
        <time>2022-07-16T15:36:54Z</time>
      </trkpt>
      <trkpt lat="45.70306" lon="6.66632">
        <ele>2308</ele>
        <time>2022-07-16T15:36:55Z</time>
      </trkpt>
      <trkpt lat="45.70306" lon="6.66631">
        <ele>2308</ele>
        <time>2022-07-16T15:36:56Z</time>
      </trkpt>
      <trkpt lat="45.70309" lon="6.6663">
        <ele>2309</ele>
        <time>2022-07-16T15:37:01Z</time>
      </trkpt>
      <trkpt lat="45.70311" lon="6.66628">
        <ele>2310</ele>
        <time>2022-07-16T15:37:05Z</time>
      </trkpt>
      <trkpt lat="45.7031" lon="6.66625">
        <ele>2311</ele>
        <time>2022-07-16T15:37:09Z</time>
      </trkpt>
      <trkpt lat="45.70308" lon="6.66623">
        <ele>2313</ele>
        <time>2022-07-16T15:37:12Z</time>
      </trkpt>
      <trkpt lat="45.70308" lon="6.66623">
        <ele>2313</ele>
        <time>2022-07-16T15:37:21Z</time>
      </trkpt>
      <trkpt lat="45.70306" lon="6.66623">
        <ele>2313</ele>
        <time>2022-07-16T15:37:27Z</time>
      </trkpt>
      <trkpt lat="45.70305" lon="6.66622">
        <ele>2313</ele>
        <time>2022-07-16T15:37:33Z</time>
      </trkpt>
      <trkpt lat="45.70305" lon="6.66622">
        <ele>2313</ele>
        <time>2022-07-16T15:37:39Z</time>
      </trkpt>
      <trkpt lat="45.70305" lon="6.66622">
        <ele>2313</ele>
        <time>2022-07-16T15:37:55Z</time>
      </trkpt>
      <trkpt lat="45.70305" lon="6.66622">
        <ele>2313</ele>
        <time>2022-07-16T15:38:11Z</time>
      </trkpt>
      <trkpt lat="45.70305" lon="6.66619">
        <ele>2313</ele>
        <time>2022-07-16T15:38:14Z</time>
      </trkpt>
      <trkpt lat="45.70307" lon="6.66617">
        <ele>2314</ele>
        <time>2022-07-16T15:38:17Z</time>
      </trkpt>
      <trkpt lat="45.70309" lon="6.66618">
        <ele>2314</ele>
        <time>2022-07-16T15:38:25Z</time>
      </trkpt>
      <trkpt lat="45.70309" lon="6.66618">
        <ele>2314</ele>
        <time>2022-07-16T15:38:30Z</time>
      </trkpt>
      <trkpt lat="45.70311" lon="6.66617">
        <ele>2314</ele>
        <time>2022-07-16T15:38:32Z</time>
      </trkpt>
      <trkpt lat="45.70313" lon="6.66617">
        <ele>2313</ele>
        <time>2022-07-16T15:38:34Z</time>
      </trkpt>
      <trkpt lat="45.70315" lon="6.66616">
        <ele>2314</ele>
        <time>2022-07-16T15:38:36Z</time>
      </trkpt>
      <trkpt lat="45.70317" lon="6.66615">
        <ele>2314</ele>
        <time>2022-07-16T15:38:38Z</time>
      </trkpt>
      <trkpt lat="45.70319" lon="6.66614">
        <ele>2314</ele>
        <time>2022-07-16T15:38:40Z</time>
      </trkpt>
      <trkpt lat="45.70322" lon="6.66615">
        <ele>2313</ele>
        <time>2022-07-16T15:38:42Z</time>
      </trkpt>
      <trkpt lat="45.70324" lon="6.66615">
        <ele>2313</ele>
        <time>2022-07-16T15:38:44Z</time>
      </trkpt>
      <trkpt lat="45.70326" lon="6.66615">
        <ele>2313</ele>
        <time>2022-07-16T15:38:46Z</time>
      </trkpt>
      <trkpt lat="45.70328" lon="6.66613">
        <ele>2313</ele>
        <time>2022-07-16T15:38:50Z</time>
      </trkpt>
      <trkpt lat="45.70331" lon="6.66612">
        <ele>2313</ele>
        <time>2022-07-16T15:38:52Z</time>
      </trkpt>
      <trkpt lat="45.70333" lon="6.66611">
        <ele>2313</ele>
        <time>2022-07-16T15:38:54Z</time>
      </trkpt>
      <trkpt lat="45.70335" lon="6.66611">
        <ele>2313</ele>
        <time>2022-07-16T15:38:56Z</time>
      </trkpt>
      <trkpt lat="45.70338" lon="6.66611">
        <ele>2313</ele>
        <time>2022-07-16T15:38:58Z</time>
      </trkpt>
      <trkpt lat="45.7034" lon="6.66613">
        <ele>2313</ele>
        <time>2022-07-16T15:39:01Z</time>
      </trkpt>
      <trkpt lat="45.70342" lon="6.66614">
        <ele>2313</ele>
        <time>2022-07-16T15:39:04Z</time>
      </trkpt>
      <trkpt lat="45.70344" lon="6.66614">
        <ele>2313</ele>
        <time>2022-07-16T15:39:06Z</time>
      </trkpt>
      <trkpt lat="45.70347" lon="6.66613">
        <ele>2313</ele>
        <time>2022-07-16T15:39:08Z</time>
      </trkpt>
      <trkpt lat="45.70349" lon="6.66612">
        <ele>2313</ele>
        <time>2022-07-16T15:39:10Z</time>
      </trkpt>
      <trkpt lat="45.70352" lon="6.66612">
        <ele>2313</ele>
        <time>2022-07-16T15:39:12Z</time>
      </trkpt>
      <trkpt lat="45.70354" lon="6.66611">
        <ele>2312</ele>
        <time>2022-07-16T15:39:14Z</time>
      </trkpt>
      <trkpt lat="45.70357" lon="6.66611">
        <ele>2312</ele>
        <time>2022-07-16T15:39:16Z</time>
      </trkpt>
      <trkpt lat="45.70358" lon="6.66611">
        <ele>2312</ele>
        <time>2022-07-16T15:39:17Z</time>
      </trkpt>
      <trkpt lat="45.70359" lon="6.66611">
        <ele>2312</ele>
        <time>2022-07-16T15:39:18Z</time>
      </trkpt>
      <trkpt lat="45.7036" lon="6.6661">
        <ele>2312</ele>
        <time>2022-07-16T15:39:19Z</time>
      </trkpt>
      <trkpt lat="45.70361" lon="6.6661">
        <ele>2312</ele>
        <time>2022-07-16T15:39:20Z</time>
      </trkpt>
      <trkpt lat="45.70362" lon="6.6661">
        <ele>2313</ele>
        <time>2022-07-16T15:39:21Z</time>
      </trkpt>
      <trkpt lat="45.70363" lon="6.66609">
        <ele>2313</ele>
        <time>2022-07-16T15:39:22Z</time>
      </trkpt>
      <trkpt lat="45.70365" lon="6.66609">
        <ele>2313</ele>
        <time>2022-07-16T15:39:23Z</time>
      </trkpt>
      <trkpt lat="45.70366" lon="6.66609">
        <ele>2313</ele>
        <time>2022-07-16T15:39:24Z</time>
      </trkpt>
      <trkpt lat="45.70367" lon="6.66608">
        <ele>2313</ele>
        <time>2022-07-16T15:39:26Z</time>
      </trkpt>
      <trkpt lat="45.70368" lon="6.66608">
        <ele>2313</ele>
        <time>2022-07-16T15:39:28Z</time>
      </trkpt>
      <trkpt lat="45.70368" lon="6.66607">
        <ele>2313</ele>
        <time>2022-07-16T15:39:29Z</time>
      </trkpt>
      <trkpt lat="45.70369" lon="6.66607">
        <ele>2314</ele>
        <time>2022-07-16T15:39:30Z</time>
      </trkpt>
      <trkpt lat="45.7037" lon="6.66607">
        <ele>2314</ele>
        <time>2022-07-16T15:39:32Z</time>
      </trkpt>
      <trkpt lat="45.7037" lon="6.66606">
        <ele>2314</ele>
        <time>2022-07-16T15:39:33Z</time>
      </trkpt>
      <trkpt lat="45.70376" lon="6.66603">
        <ele>2314</ele>
        <time>2022-07-16T15:39:34Z</time>
      </trkpt>
      <trkpt lat="45.70377" lon="6.66602">
        <ele>2314</ele>
        <time>2022-07-16T15:39:35Z</time>
      </trkpt>
      <trkpt lat="45.70378" lon="6.66602">
        <ele>2314</ele>
        <time>2022-07-16T15:39:36Z</time>
      </trkpt>
      <trkpt lat="45.70379" lon="6.66601">
        <ele>2315</ele>
        <time>2022-07-16T15:39:37Z</time>
      </trkpt>
      <trkpt lat="45.7038" lon="6.666">
        <ele>2315</ele>
        <time>2022-07-16T15:39:38Z</time>
      </trkpt>
      <trkpt lat="45.70381" lon="6.66599">
        <ele>2315</ele>
        <time>2022-07-16T15:39:39Z</time>
      </trkpt>
      <trkpt lat="45.70382" lon="6.66598">
        <ele>2315</ele>
        <time>2022-07-16T15:39:40Z</time>
      </trkpt>
      <trkpt lat="45.70383" lon="6.66597">
        <ele>2315</ele>
        <time>2022-07-16T15:39:41Z</time>
      </trkpt>
      <trkpt lat="45.70386" lon="6.66597">
        <ele>2315</ele>
        <time>2022-07-16T15:39:44Z</time>
      </trkpt>
      <trkpt lat="45.70388" lon="6.66596">
        <ele>2316</ele>
        <time>2022-07-16T15:39:47Z</time>
      </trkpt>
      <trkpt lat="45.70391" lon="6.66595">
        <ele>2316</ele>
        <time>2022-07-16T15:39:50Z</time>
      </trkpt>
      <trkpt lat="45.70394" lon="6.66594">
        <ele>2316</ele>
        <time>2022-07-16T15:39:52Z</time>
      </trkpt>
      <trkpt lat="45.70396" lon="6.66592">
        <ele>2316</ele>
        <time>2022-07-16T15:39:54Z</time>
      </trkpt>
      <trkpt lat="45.70398" lon="6.66591">
        <ele>2316</ele>
        <time>2022-07-16T15:39:56Z</time>
      </trkpt>
      <trkpt lat="45.704" lon="6.66591">
        <ele>2316</ele>
        <time>2022-07-16T15:39:58Z</time>
      </trkpt>
      <trkpt lat="45.70409" lon="6.66586">
        <ele>2316</ele>
        <time>2022-07-16T15:40:06Z</time>
      </trkpt>
      <trkpt lat="45.7041" lon="6.66585">
        <ele>2316</ele>
        <time>2022-07-16T15:40:07Z</time>
      </trkpt>
      <trkpt lat="45.70411" lon="6.66585">
        <ele>2316</ele>
        <time>2022-07-16T15:40:08Z</time>
      </trkpt>
      <trkpt lat="45.70412" lon="6.66584">
        <ele>2316</ele>
        <time>2022-07-16T15:40:09Z</time>
      </trkpt>
      <trkpt lat="45.70413" lon="6.66584">
        <ele>2316</ele>
        <time>2022-07-16T15:40:10Z</time>
      </trkpt>
      <trkpt lat="45.70414" lon="6.66583">
        <ele>2316</ele>
        <time>2022-07-16T15:40:11Z</time>
      </trkpt>
      <trkpt lat="45.70415" lon="6.66582">
        <ele>2316</ele>
        <time>2022-07-16T15:40:12Z</time>
      </trkpt>
      <trkpt lat="45.70416" lon="6.66582">
        <ele>2316</ele>
        <time>2022-07-16T15:40:13Z</time>
      </trkpt>
      <trkpt lat="45.70417" lon="6.66581">
        <ele>2316</ele>
        <time>2022-07-16T15:40:14Z</time>
      </trkpt>
      <trkpt lat="45.70418" lon="6.66581">
        <ele>2316</ele>
        <time>2022-07-16T15:40:15Z</time>
      </trkpt>
      <trkpt lat="45.70418" lon="6.6658">
        <ele>2316</ele>
        <time>2022-07-16T15:40:16Z</time>
      </trkpt>
      <trkpt lat="45.70419" lon="6.6658">
        <ele>2316</ele>
        <time>2022-07-16T15:40:17Z</time>
      </trkpt>
      <trkpt lat="45.7042" lon="6.66579">
        <ele>2317</ele>
        <time>2022-07-16T15:40:18Z</time>
      </trkpt>
      <trkpt lat="45.70421" lon="6.66579">
        <ele>2317</ele>
        <time>2022-07-16T15:40:19Z</time>
      </trkpt>
      <trkpt lat="45.70422" lon="6.66578">
        <ele>2317</ele>
        <time>2022-07-16T15:40:20Z</time>
      </trkpt>
      <trkpt lat="45.70423" lon="6.66577">
        <ele>2317</ele>
        <time>2022-07-16T15:40:21Z</time>
      </trkpt>
      <trkpt lat="45.70425" lon="6.66575">
        <ele>2317</ele>
        <time>2022-07-16T15:40:23Z</time>
      </trkpt>
      <trkpt lat="45.70427" lon="6.66573">
        <ele>2317</ele>
        <time>2022-07-16T15:40:24Z</time>
      </trkpt>
      <trkpt lat="45.70429" lon="6.66571">
        <ele>2317</ele>
        <time>2022-07-16T15:40:27Z</time>
      </trkpt>
      <trkpt lat="45.70431" lon="6.66569">
        <ele>2318</ele>
        <time>2022-07-16T15:40:29Z</time>
      </trkpt>
      <trkpt lat="45.70433" lon="6.66567">
        <ele>2318</ele>
        <time>2022-07-16T15:40:31Z</time>
      </trkpt>
      <trkpt lat="45.70434" lon="6.66564">
        <ele>2318</ele>
        <time>2022-07-16T15:40:33Z</time>
      </trkpt>
      <trkpt lat="45.70436" lon="6.66563">
        <ele>2318</ele>
        <time>2022-07-16T15:40:35Z</time>
      </trkpt>
      <trkpt lat="45.70439" lon="6.66566">
        <ele>2318</ele>
        <time>2022-07-16T15:40:38Z</time>
      </trkpt>
      <trkpt lat="45.70441" lon="6.66568">
        <ele>2318</ele>
        <time>2022-07-16T15:40:40Z</time>
      </trkpt>
      <trkpt lat="45.70442" lon="6.6657">
        <ele>2318</ele>
        <time>2022-07-16T15:40:42Z</time>
      </trkpt>
      <trkpt lat="45.70445" lon="6.66571">
        <ele>2318</ele>
        <time>2022-07-16T15:40:44Z</time>
      </trkpt>
      <trkpt lat="45.70446" lon="6.66573">
        <ele>2318</ele>
        <time>2022-07-16T15:40:46Z</time>
      </trkpt>
      <trkpt lat="45.70449" lon="6.66573">
        <ele>2319</ele>
        <time>2022-07-16T15:40:48Z</time>
      </trkpt>
      <trkpt lat="45.70451" lon="6.66574">
        <ele>2319</ele>
        <time>2022-07-16T15:40:50Z</time>
      </trkpt>
      <trkpt lat="45.70453" lon="6.66576">
        <ele>2318</ele>
        <time>2022-07-16T15:40:53Z</time>
      </trkpt>
      <trkpt lat="45.70454" lon="6.66579">
        <ele>2319</ele>
        <time>2022-07-16T15:40:56Z</time>
      </trkpt>
      <trkpt lat="45.70454" lon="6.66582">
        <ele>2319</ele>
        <time>2022-07-16T15:40:58Z</time>
      </trkpt>
      <trkpt lat="45.70454" lon="6.66584">
        <ele>2318</ele>
        <time>2022-07-16T15:41:00Z</time>
      </trkpt>
      <trkpt lat="45.70454" lon="6.66587">
        <ele>2318</ele>
        <time>2022-07-16T15:41:02Z</time>
      </trkpt>
      <trkpt lat="45.70456" lon="6.66589">
        <ele>2318</ele>
        <time>2022-07-16T15:41:04Z</time>
      </trkpt>
      <trkpt lat="45.70456" lon="6.66593">
        <ele>2318</ele>
        <time>2022-07-16T15:41:06Z</time>
      </trkpt>
      <trkpt lat="45.70456" lon="6.66594">
        <ele>2318</ele>
        <time>2022-07-16T15:41:07Z</time>
      </trkpt>
      <trkpt lat="45.70456" lon="6.66595">
        <ele>2318</ele>
        <time>2022-07-16T15:41:08Z</time>
      </trkpt>
      <trkpt lat="45.70456" lon="6.66596">
        <ele>2318</ele>
        <time>2022-07-16T15:41:09Z</time>
      </trkpt>
      <trkpt lat="45.70456" lon="6.66597">
        <ele>2318</ele>
        <time>2022-07-16T15:41:10Z</time>
      </trkpt>
      <trkpt lat="45.70456" lon="6.66598">
        <ele>2318</ele>
        <time>2022-07-16T15:41:11Z</time>
      </trkpt>
      <trkpt lat="45.70456" lon="6.666">
        <ele>2318</ele>
        <time>2022-07-16T15:41:12Z</time>
      </trkpt>
      <trkpt lat="45.70456" lon="6.66601">
        <ele>2318</ele>
        <time>2022-07-16T15:41:13Z</time>
      </trkpt>
      <trkpt lat="45.70456" lon="6.66602">
        <ele>2318</ele>
        <time>2022-07-16T15:41:14Z</time>
      </trkpt>
      <trkpt lat="45.70456" lon="6.66603">
        <ele>2318</ele>
        <time>2022-07-16T15:41:15Z</time>
      </trkpt>
      <trkpt lat="45.70456" lon="6.66604">
        <ele>2318</ele>
        <time>2022-07-16T15:41:16Z</time>
      </trkpt>
      <trkpt lat="45.70456" lon="6.66605">
        <ele>2318</ele>
        <time>2022-07-16T15:41:17Z</time>
      </trkpt>
      <trkpt lat="45.70456" lon="6.66607">
        <ele>2318</ele>
        <time>2022-07-16T15:41:18Z</time>
      </trkpt>
      <trkpt lat="45.70457" lon="6.66608">
        <ele>2318</ele>
        <time>2022-07-16T15:41:19Z</time>
      </trkpt>
      <trkpt lat="45.70457" lon="6.6661">
        <ele>2318</ele>
        <time>2022-07-16T15:41:20Z</time>
      </trkpt>
      <trkpt lat="45.70457" lon="6.66612">
        <ele>2319</ele>
        <time>2022-07-16T15:41:21Z</time>
      </trkpt>
      <trkpt lat="45.70457" lon="6.66613">
        <ele>2319</ele>
        <time>2022-07-16T15:41:22Z</time>
      </trkpt>
      <trkpt lat="45.70457" lon="6.66615">
        <ele>2319</ele>
        <time>2022-07-16T15:41:23Z</time>
      </trkpt>
      <trkpt lat="45.70458" lon="6.66617">
        <ele>2319</ele>
        <time>2022-07-16T15:41:24Z</time>
      </trkpt>
      <trkpt lat="45.70458" lon="6.66618">
        <ele>2319</ele>
        <time>2022-07-16T15:41:25Z</time>
      </trkpt>
      <trkpt lat="45.70458" lon="6.6662">
        <ele>2319</ele>
        <time>2022-07-16T15:41:26Z</time>
      </trkpt>
      <trkpt lat="45.70458" lon="6.66621">
        <ele>2319</ele>
        <time>2022-07-16T15:41:27Z</time>
      </trkpt>
      <trkpt lat="45.70458" lon="6.66623">
        <ele>2319</ele>
        <time>2022-07-16T15:41:28Z</time>
      </trkpt>
      <trkpt lat="45.70459" lon="6.66625">
        <ele>2319</ele>
        <time>2022-07-16T15:41:29Z</time>
      </trkpt>
      <trkpt lat="45.70459" lon="6.66626">
        <ele>2319</ele>
        <time>2022-07-16T15:41:30Z</time>
      </trkpt>
      <trkpt lat="45.70459" lon="6.66628">
        <ele>2319</ele>
        <time>2022-07-16T15:41:31Z</time>
      </trkpt>
      <trkpt lat="45.70459" lon="6.66629">
        <ele>2319</ele>
        <time>2022-07-16T15:41:32Z</time>
      </trkpt>
      <trkpt lat="45.70459" lon="6.66631">
        <ele>2319</ele>
        <time>2022-07-16T15:41:33Z</time>
      </trkpt>
      <trkpt lat="45.7046" lon="6.66632">
        <ele>2319</ele>
        <time>2022-07-16T15:41:34Z</time>
      </trkpt>
      <trkpt lat="45.7046" lon="6.66634">
        <ele>2319</ele>
        <time>2022-07-16T15:41:35Z</time>
      </trkpt>
      <trkpt lat="45.70461" lon="6.66636">
        <ele>2319</ele>
        <time>2022-07-16T15:41:36Z</time>
      </trkpt>
      <trkpt lat="45.70462" lon="6.66637">
        <ele>2319</ele>
        <time>2022-07-16T15:41:37Z</time>
      </trkpt>
      <trkpt lat="45.70463" lon="6.66639">
        <ele>2318</ele>
        <time>2022-07-16T15:41:38Z</time>
      </trkpt>
      <trkpt lat="45.70464" lon="6.6664">
        <ele>2318</ele>
        <time>2022-07-16T15:41:39Z</time>
      </trkpt>
      <trkpt lat="45.70465" lon="6.66642">
        <ele>2319</ele>
        <time>2022-07-16T15:41:41Z</time>
      </trkpt>
      <trkpt lat="45.70467" lon="6.66643">
        <ele>2319</ele>
        <time>2022-07-16T15:41:42Z</time>
      </trkpt>
      <trkpt lat="45.70467" lon="6.66645">
        <ele>2319</ele>
        <time>2022-07-16T15:41:43Z</time>
      </trkpt>
      <trkpt lat="45.70468" lon="6.66647">
        <ele>2319</ele>
        <time>2022-07-16T15:41:44Z</time>
      </trkpt>
      <trkpt lat="45.70468" lon="6.66648">
        <ele>2319</ele>
        <time>2022-07-16T15:41:45Z</time>
      </trkpt>
      <trkpt lat="45.70469" lon="6.6665">
        <ele>2319</ele>
        <time>2022-07-16T15:41:46Z</time>
      </trkpt>
      <trkpt lat="45.7047" lon="6.66651">
        <ele>2319</ele>
        <time>2022-07-16T15:41:47Z</time>
      </trkpt>
      <trkpt lat="45.7047" lon="6.66653">
        <ele>2319</ele>
        <time>2022-07-16T15:41:48Z</time>
      </trkpt>
      <trkpt lat="45.70471" lon="6.66654">
        <ele>2319</ele>
        <time>2022-07-16T15:41:49Z</time>
      </trkpt>
      <trkpt lat="45.70471" lon="6.66656">
        <ele>2318</ele>
        <time>2022-07-16T15:41:50Z</time>
      </trkpt>
      <trkpt lat="45.70472" lon="6.66656">
        <ele>2319</ele>
        <time>2022-07-16T15:41:51Z</time>
      </trkpt>
      <trkpt lat="45.70473" lon="6.66657">
        <ele>2319</ele>
        <time>2022-07-16T15:41:52Z</time>
      </trkpt>
      <trkpt lat="45.70473" lon="6.66658">
        <ele>2319</ele>
        <time>2022-07-16T15:41:53Z</time>
      </trkpt>
      <trkpt lat="45.70474" lon="6.66658">
        <ele>2319</ele>
        <time>2022-07-16T15:41:54Z</time>
      </trkpt>
      <trkpt lat="45.70475" lon="6.66659">
        <ele>2319</ele>
        <time>2022-07-16T15:41:55Z</time>
      </trkpt>
      <trkpt lat="45.70476" lon="6.6666">
        <ele>2319</ele>
        <time>2022-07-16T15:41:57Z</time>
      </trkpt>
      <trkpt lat="45.70476" lon="6.66661">
        <ele>2319</ele>
        <time>2022-07-16T15:41:58Z</time>
      </trkpt>
      <trkpt lat="45.70477" lon="6.66661">
        <ele>2319</ele>
        <time>2022-07-16T15:41:59Z</time>
      </trkpt>
      <trkpt lat="45.70478" lon="6.66662">
        <ele>2319</ele>
        <time>2022-07-16T15:42:00Z</time>
      </trkpt>
      <trkpt lat="45.7048" lon="6.66663">
        <ele>2320</ele>
        <time>2022-07-16T15:42:02Z</time>
      </trkpt>
      <trkpt lat="45.70481" lon="6.66664">
        <ele>2320</ele>
        <time>2022-07-16T15:42:03Z</time>
      </trkpt>
      <trkpt lat="45.70482" lon="6.66665">
        <ele>2320</ele>
        <time>2022-07-16T15:42:04Z</time>
      </trkpt>
      <trkpt lat="45.70483" lon="6.66665">
        <ele>2320</ele>
        <time>2022-07-16T15:42:05Z</time>
      </trkpt>
      <trkpt lat="45.70484" lon="6.66666">
        <ele>2320</ele>
        <time>2022-07-16T15:42:06Z</time>
      </trkpt>
      <trkpt lat="45.70485" lon="6.66667">
        <ele>2320</ele>
        <time>2022-07-16T15:42:07Z</time>
      </trkpt>
      <trkpt lat="45.70486" lon="6.66668">
        <ele>2320</ele>
        <time>2022-07-16T15:42:08Z</time>
      </trkpt>
      <trkpt lat="45.70487" lon="6.66668">
        <ele>2320</ele>
        <time>2022-07-16T15:42:09Z</time>
      </trkpt>
      <trkpt lat="45.70488" lon="6.66672">
        <ele>2320</ele>
        <time>2022-07-16T15:42:11Z</time>
      </trkpt>
      <trkpt lat="45.70489" lon="6.66675">
        <ele>2320</ele>
        <time>2022-07-16T15:42:13Z</time>
      </trkpt>
      <trkpt lat="45.7049" lon="6.66678">
        <ele>2319</ele>
        <time>2022-07-16T15:42:15Z</time>
      </trkpt>
      <trkpt lat="45.70491" lon="6.6668">
        <ele>2319</ele>
        <time>2022-07-16T15:42:16Z</time>
      </trkpt>
      <trkpt lat="45.70492" lon="6.66681">
        <ele>2320</ele>
        <time>2022-07-16T15:42:17Z</time>
      </trkpt>
      <trkpt lat="45.70493" lon="6.66682">
        <ele>2320</ele>
        <time>2022-07-16T15:42:19Z</time>
      </trkpt>
      <trkpt lat="45.70494" lon="6.66683">
        <ele>2320</ele>
        <time>2022-07-16T15:42:20Z</time>
      </trkpt>
      <trkpt lat="45.70495" lon="6.66685">
        <ele>2320</ele>
        <time>2022-07-16T15:42:21Z</time>
      </trkpt>
      <trkpt lat="45.70495" lon="6.66686">
        <ele>2320</ele>
        <time>2022-07-16T15:42:22Z</time>
      </trkpt>
      <trkpt lat="45.70496" lon="6.66687">
        <ele>2320</ele>
        <time>2022-07-16T15:42:23Z</time>
      </trkpt>
      <trkpt lat="45.70497" lon="6.66688">
        <ele>2320</ele>
        <time>2022-07-16T15:42:24Z</time>
      </trkpt>
      <trkpt lat="45.70498" lon="6.6669">
        <ele>2320</ele>
        <time>2022-07-16T15:42:25Z</time>
      </trkpt>
      <trkpt lat="45.70499" lon="6.66691">
        <ele>2320</ele>
        <time>2022-07-16T15:42:26Z</time>
      </trkpt>
      <trkpt lat="45.70499" lon="6.66693">
        <ele>2321</ele>
        <time>2022-07-16T15:42:27Z</time>
      </trkpt>
      <trkpt lat="45.705" lon="6.66694">
        <ele>2321</ele>
        <time>2022-07-16T15:42:28Z</time>
      </trkpt>
      <trkpt lat="45.70501" lon="6.66696">
        <ele>2321</ele>
        <time>2022-07-16T15:42:29Z</time>
      </trkpt>
      <trkpt lat="45.70501" lon="6.66697">
        <ele>2321</ele>
        <time>2022-07-16T15:42:30Z</time>
      </trkpt>
      <trkpt lat="45.70502" lon="6.66699">
        <ele>2321</ele>
        <time>2022-07-16T15:42:31Z</time>
      </trkpt>
      <trkpt lat="45.70503" lon="6.667">
        <ele>2320</ele>
        <time>2022-07-16T15:42:32Z</time>
      </trkpt>
      <trkpt lat="45.70504" lon="6.66702">
        <ele>2320</ele>
        <time>2022-07-16T15:42:33Z</time>
      </trkpt>
      <trkpt lat="45.70505" lon="6.66704">
        <ele>2320</ele>
        <time>2022-07-16T15:42:34Z</time>
      </trkpt>
      <trkpt lat="45.70506" lon="6.66706">
        <ele>2320</ele>
        <time>2022-07-16T15:42:35Z</time>
      </trkpt>
      <trkpt lat="45.70507" lon="6.66708">
        <ele>2321</ele>
        <time>2022-07-16T15:42:36Z</time>
      </trkpt>
      <trkpt lat="45.70508" lon="6.6671">
        <ele>2321</ele>
        <time>2022-07-16T15:42:38Z</time>
      </trkpt>
      <trkpt lat="45.70509" lon="6.66712">
        <ele>2321</ele>
        <time>2022-07-16T15:42:39Z</time>
      </trkpt>
      <trkpt lat="45.70509" lon="6.66713">
        <ele>2320</ele>
        <time>2022-07-16T15:42:40Z</time>
      </trkpt>
      <trkpt lat="45.7051" lon="6.66714">
        <ele>2320</ele>
        <time>2022-07-16T15:42:41Z</time>
      </trkpt>
      <trkpt lat="45.70511" lon="6.66715">
        <ele>2320</ele>
        <time>2022-07-16T15:42:42Z</time>
      </trkpt>
      <trkpt lat="45.70511" lon="6.66717">
        <ele>2320</ele>
        <time>2022-07-16T15:42:43Z</time>
      </trkpt>
      <trkpt lat="45.70512" lon="6.66718">
        <ele>2321</ele>
        <time>2022-07-16T15:42:44Z</time>
      </trkpt>
      <trkpt lat="45.70513" lon="6.66719">
        <ele>2321</ele>
        <time>2022-07-16T15:42:45Z</time>
      </trkpt>
      <trkpt lat="45.70514" lon="6.6672">
        <ele>2321</ele>
        <time>2022-07-16T15:42:46Z</time>
      </trkpt>
      <trkpt lat="45.70514" lon="6.66722">
        <ele>2321</ele>
        <time>2022-07-16T15:42:47Z</time>
      </trkpt>
      <trkpt lat="45.70516" lon="6.66723">
        <ele>2321</ele>
        <time>2022-07-16T15:42:49Z</time>
      </trkpt>
      <trkpt lat="45.70519" lon="6.66727">
        <ele>2323</ele>
        <time>2022-07-16T15:42:52Z</time>
      </trkpt>
      <trkpt lat="45.7052" lon="6.66728">
        <ele>2323</ele>
        <time>2022-07-16T15:42:53Z</time>
      </trkpt>
      <trkpt lat="45.70521" lon="6.66729">
        <ele>2323</ele>
        <time>2022-07-16T15:42:54Z</time>
      </trkpt>
      <trkpt lat="45.70521" lon="6.6673">
        <ele>2323</ele>
        <time>2022-07-16T15:42:55Z</time>
      </trkpt>
      <trkpt lat="45.70522" lon="6.66731">
        <ele>2322</ele>
        <time>2022-07-16T15:42:56Z</time>
      </trkpt>
      <trkpt lat="45.70523" lon="6.66735">
        <ele>2322</ele>
        <time>2022-07-16T15:42:58Z</time>
      </trkpt>
      <trkpt lat="45.70523" lon="6.66738">
        <ele>2322</ele>
        <time>2022-07-16T15:43:00Z</time>
      </trkpt>
      <trkpt lat="45.70523" lon="6.6674">
        <ele>2322</ele>
        <time>2022-07-16T15:43:01Z</time>
      </trkpt>
      <trkpt lat="45.70523" lon="6.66742">
        <ele>2322</ele>
        <time>2022-07-16T15:43:02Z</time>
      </trkpt>
      <trkpt lat="45.70523" lon="6.66744">
        <ele>2322</ele>
        <time>2022-07-16T15:43:03Z</time>
      </trkpt>
      <trkpt lat="45.70523" lon="6.66746">
        <ele>2322</ele>
        <time>2022-07-16T15:43:04Z</time>
      </trkpt>
      <trkpt lat="45.70523" lon="6.66748">
        <ele>2322</ele>
        <time>2022-07-16T15:43:05Z</time>
      </trkpt>
      <trkpt lat="45.70523" lon="6.66749">
        <ele>2322</ele>
        <time>2022-07-16T15:43:06Z</time>
      </trkpt>
      <trkpt lat="45.70523" lon="6.6675">
        <ele>2322</ele>
        <time>2022-07-16T15:43:07Z</time>
      </trkpt>
      <trkpt lat="45.70523" lon="6.66751">
        <ele>2322</ele>
        <time>2022-07-16T15:43:08Z</time>
      </trkpt>
      <trkpt lat="45.70523" lon="6.66753">
        <ele>2323</ele>
        <time>2022-07-16T15:43:09Z</time>
      </trkpt>
      <trkpt lat="45.70523" lon="6.66754">
        <ele>2323</ele>
        <time>2022-07-16T15:43:10Z</time>
      </trkpt>
      <trkpt lat="45.70523" lon="6.66755">
        <ele>2323</ele>
        <time>2022-07-16T15:43:11Z</time>
      </trkpt>
      <trkpt lat="45.70523" lon="6.66756">
        <ele>2322</ele>
        <time>2022-07-16T15:43:12Z</time>
      </trkpt>
      <trkpt lat="45.70523" lon="6.66757">
        <ele>2322</ele>
        <time>2022-07-16T15:43:13Z</time>
      </trkpt>
      <trkpt lat="45.70523" lon="6.66759">
        <ele>2322</ele>
        <time>2022-07-16T15:43:14Z</time>
      </trkpt>
      <trkpt lat="45.70523" lon="6.6676">
        <ele>2322</ele>
        <time>2022-07-16T15:43:15Z</time>
      </trkpt>
      <trkpt lat="45.70523" lon="6.66761">
        <ele>2322</ele>
        <time>2022-07-16T15:43:16Z</time>
      </trkpt>
      <trkpt lat="45.70523" lon="6.66763">
        <ele>2322</ele>
        <time>2022-07-16T15:43:17Z</time>
      </trkpt>
      <trkpt lat="45.70523" lon="6.66764">
        <ele>2321</ele>
        <time>2022-07-16T15:43:18Z</time>
      </trkpt>
      <trkpt lat="45.70523" lon="6.66766">
        <ele>2322</ele>
        <time>2022-07-16T15:43:19Z</time>
      </trkpt>
      <trkpt lat="45.70523" lon="6.66768">
        <ele>2322</ele>
        <time>2022-07-16T15:43:20Z</time>
      </trkpt>
      <trkpt lat="45.70523" lon="6.66769">
        <ele>2322</ele>
        <time>2022-07-16T15:43:21Z</time>
      </trkpt>
      <trkpt lat="45.70523" lon="6.66771">
        <ele>2322</ele>
        <time>2022-07-16T15:43:22Z</time>
      </trkpt>
      <trkpt lat="45.70523" lon="6.66773">
        <ele>2322</ele>
        <time>2022-07-16T15:43:23Z</time>
      </trkpt>
      <trkpt lat="45.70523" lon="6.66774">
        <ele>2322</ele>
        <time>2022-07-16T15:43:24Z</time>
      </trkpt>
      <trkpt lat="45.70523" lon="6.66776">
        <ele>2322</ele>
        <time>2022-07-16T15:43:25Z</time>
      </trkpt>
      <trkpt lat="45.70523" lon="6.66777">
        <ele>2323</ele>
        <time>2022-07-16T15:43:26Z</time>
      </trkpt>
      <trkpt lat="45.70523" lon="6.66779">
        <ele>2323</ele>
        <time>2022-07-16T15:43:27Z</time>
      </trkpt>
      <trkpt lat="45.70523" lon="6.6678">
        <ele>2323</ele>
        <time>2022-07-16T15:43:28Z</time>
      </trkpt>
      <trkpt lat="45.70523" lon="6.66782">
        <ele>2323</ele>
        <time>2022-07-16T15:43:29Z</time>
      </trkpt>
      <trkpt lat="45.70523" lon="6.66783">
        <ele>2322</ele>
        <time>2022-07-16T15:43:30Z</time>
      </trkpt>
      <trkpt lat="45.70523" lon="6.66785">
        <ele>2322</ele>
        <time>2022-07-16T15:43:31Z</time>
      </trkpt>
      <trkpt lat="45.70523" lon="6.66786">
        <ele>2322</ele>
        <time>2022-07-16T15:43:32Z</time>
      </trkpt>
      <trkpt lat="45.70523" lon="6.66788">
        <ele>2322</ele>
        <time>2022-07-16T15:43:33Z</time>
      </trkpt>
      <trkpt lat="45.70524" lon="6.6679">
        <ele>2322</ele>
        <time>2022-07-16T15:43:35Z</time>
      </trkpt>
      <trkpt lat="45.70524" lon="6.66792">
        <ele>2322</ele>
        <time>2022-07-16T15:43:36Z</time>
      </trkpt>
      <trkpt lat="45.70524" lon="6.66794">
        <ele>2322</ele>
        <time>2022-07-16T15:43:37Z</time>
      </trkpt>
      <trkpt lat="45.70525" lon="6.66795">
        <ele>2322</ele>
        <time>2022-07-16T15:43:38Z</time>
      </trkpt>
      <trkpt lat="45.70525" lon="6.66797">
        <ele>2322</ele>
        <time>2022-07-16T15:43:39Z</time>
      </trkpt>
      <trkpt lat="45.70525" lon="6.66799">
        <ele>2322</ele>
        <time>2022-07-16T15:43:40Z</time>
      </trkpt>
      <trkpt lat="45.70526" lon="6.66801">
        <ele>2322</ele>
        <time>2022-07-16T15:43:41Z</time>
      </trkpt>
      <trkpt lat="45.70526" lon="6.66803">
        <ele>2323</ele>
        <time>2022-07-16T15:43:42Z</time>
      </trkpt>
      <trkpt lat="45.70527" lon="6.66804">
        <ele>2323</ele>
        <time>2022-07-16T15:43:43Z</time>
      </trkpt>
      <trkpt lat="45.70528" lon="6.66806">
        <ele>2323</ele>
        <time>2022-07-16T15:43:44Z</time>
      </trkpt>
      <trkpt lat="45.70529" lon="6.66807">
        <ele>2323</ele>
        <time>2022-07-16T15:43:45Z</time>
      </trkpt>
      <trkpt lat="45.7053" lon="6.66809">
        <ele>2323</ele>
        <time>2022-07-16T15:43:46Z</time>
      </trkpt>
      <trkpt lat="45.70531" lon="6.6681">
        <ele>2323</ele>
        <time>2022-07-16T15:43:47Z</time>
      </trkpt>
      <trkpt lat="45.70531" lon="6.66812">
        <ele>2323</ele>
        <time>2022-07-16T15:43:48Z</time>
      </trkpt>
      <trkpt lat="45.70532" lon="6.66813">
        <ele>2323</ele>
        <time>2022-07-16T15:43:49Z</time>
      </trkpt>
      <trkpt lat="45.70533" lon="6.66815">
        <ele>2323</ele>
        <time>2022-07-16T15:43:50Z</time>
      </trkpt>
      <trkpt lat="45.70534" lon="6.66817">
        <ele>2323</ele>
        <time>2022-07-16T15:43:51Z</time>
      </trkpt>
      <trkpt lat="45.70534" lon="6.66819">
        <ele>2323</ele>
        <time>2022-07-16T15:43:52Z</time>
      </trkpt>
      <trkpt lat="45.70535" lon="6.6682">
        <ele>2323</ele>
        <time>2022-07-16T15:43:54Z</time>
      </trkpt>
      <trkpt lat="45.70536" lon="6.66822">
        <ele>2323</ele>
        <time>2022-07-16T15:43:55Z</time>
      </trkpt>
      <trkpt lat="45.70536" lon="6.66824">
        <ele>2324</ele>
        <time>2022-07-16T15:43:56Z</time>
      </trkpt>
      <trkpt lat="45.70537" lon="6.66826">
        <ele>2324</ele>
        <time>2022-07-16T15:43:57Z</time>
      </trkpt>
      <trkpt lat="45.70538" lon="6.66828">
        <ele>2324</ele>
        <time>2022-07-16T15:43:58Z</time>
      </trkpt>
      <trkpt lat="45.70538" lon="6.6683">
        <ele>2323</ele>
        <time>2022-07-16T15:43:59Z</time>
      </trkpt>
      <trkpt lat="45.70539" lon="6.66832">
        <ele>2323</ele>
        <time>2022-07-16T15:44:00Z</time>
      </trkpt>
      <trkpt lat="45.70539" lon="6.66834">
        <ele>2323</ele>
        <time>2022-07-16T15:44:01Z</time>
      </trkpt>
      <trkpt lat="45.7054" lon="6.66836">
        <ele>2323</ele>
        <time>2022-07-16T15:44:02Z</time>
      </trkpt>
      <trkpt lat="45.7054" lon="6.66838">
        <ele>2323</ele>
        <time>2022-07-16T15:44:03Z</time>
      </trkpt>
      <trkpt lat="45.70541" lon="6.66839">
        <ele>2323</ele>
        <time>2022-07-16T15:44:04Z</time>
      </trkpt>
      <trkpt lat="45.70541" lon="6.66841">
        <ele>2323</ele>
        <time>2022-07-16T15:44:05Z</time>
      </trkpt>
      <trkpt lat="45.70542" lon="6.66843">
        <ele>2323</ele>
        <time>2022-07-16T15:44:06Z</time>
      </trkpt>
      <trkpt lat="45.70542" lon="6.66845">
        <ele>2323</ele>
        <time>2022-07-16T15:44:07Z</time>
      </trkpt>
      <trkpt lat="45.70542" lon="6.66847">
        <ele>2322</ele>
        <time>2022-07-16T15:44:08Z</time>
      </trkpt>
      <trkpt lat="45.70543" lon="6.66848">
        <ele>2322</ele>
        <time>2022-07-16T15:44:09Z</time>
      </trkpt>
      <trkpt lat="45.70543" lon="6.6685">
        <ele>2322</ele>
        <time>2022-07-16T15:44:10Z</time>
      </trkpt>
      <trkpt lat="45.70544" lon="6.66851">
        <ele>2322</ele>
        <time>2022-07-16T15:44:11Z</time>
      </trkpt>
      <trkpt lat="45.70545" lon="6.66852">
        <ele>2322</ele>
        <time>2022-07-16T15:44:12Z</time>
      </trkpt>
      <trkpt lat="45.70545" lon="6.66853">
        <ele>2322</ele>
        <time>2022-07-16T15:44:13Z</time>
      </trkpt>
      <trkpt lat="45.70546" lon="6.66854">
        <ele>2323</ele>
        <time>2022-07-16T15:44:14Z</time>
      </trkpt>
      <trkpt lat="45.70546" lon="6.66855">
        <ele>2323</ele>
        <time>2022-07-16T15:44:15Z</time>
      </trkpt>
      <trkpt lat="45.70547" lon="6.66856">
        <ele>2323</ele>
        <time>2022-07-16T15:44:16Z</time>
      </trkpt>
      <trkpt lat="45.70547" lon="6.66857">
        <ele>2324</ele>
        <time>2022-07-16T15:44:17Z</time>
      </trkpt>
      <trkpt lat="45.70548" lon="6.66858">
        <ele>2324</ele>
        <time>2022-07-16T15:44:18Z</time>
      </trkpt>
      <trkpt lat="45.70549" lon="6.6686">
        <ele>2324</ele>
        <time>2022-07-16T15:44:19Z</time>
      </trkpt>
      <trkpt lat="45.70551" lon="6.66862">
        <ele>2324</ele>
        <time>2022-07-16T15:44:21Z</time>
      </trkpt>
      <trkpt lat="45.70553" lon="6.66864">
        <ele>2323</ele>
        <time>2022-07-16T15:44:23Z</time>
      </trkpt>
      <trkpt lat="45.70554" lon="6.66865">
        <ele>2324</ele>
        <time>2022-07-16T15:44:24Z</time>
      </trkpt>
      <trkpt lat="45.70554" lon="6.66867">
        <ele>2324</ele>
        <time>2022-07-16T15:44:25Z</time>
      </trkpt>
      <trkpt lat="45.70555" lon="6.66868">
        <ele>2324</ele>
        <time>2022-07-16T15:44:26Z</time>
      </trkpt>
      <trkpt lat="45.70555" lon="6.6687">
        <ele>2324</ele>
        <time>2022-07-16T15:44:27Z</time>
      </trkpt>
      <trkpt lat="45.70555" lon="6.66871">
        <ele>2324</ele>
        <time>2022-07-16T15:44:28Z</time>
      </trkpt>
      <trkpt lat="45.70556" lon="6.66872">
        <ele>2324</ele>
        <time>2022-07-16T15:44:29Z</time>
      </trkpt>
      <trkpt lat="45.70556" lon="6.66874">
        <ele>2324</ele>
        <time>2022-07-16T15:44:30Z</time>
      </trkpt>
      <trkpt lat="45.70557" lon="6.66875">
        <ele>2324</ele>
        <time>2022-07-16T15:44:31Z</time>
      </trkpt>
      <trkpt lat="45.70557" lon="6.66877">
        <ele>2324</ele>
        <time>2022-07-16T15:44:32Z</time>
      </trkpt>
      <trkpt lat="45.70558" lon="6.66878">
        <ele>2324</ele>
        <time>2022-07-16T15:44:33Z</time>
      </trkpt>
      <trkpt lat="45.70558" lon="6.6688">
        <ele>2324</ele>
        <time>2022-07-16T15:44:34Z</time>
      </trkpt>
      <trkpt lat="45.70559" lon="6.66881">
        <ele>2324</ele>
        <time>2022-07-16T15:44:35Z</time>
      </trkpt>
      <trkpt lat="45.7056" lon="6.66883">
        <ele>2324</ele>
        <time>2022-07-16T15:44:36Z</time>
      </trkpt>
      <trkpt lat="45.7056" lon="6.66884">
        <ele>2324</ele>
        <time>2022-07-16T15:44:37Z</time>
      </trkpt>
      <trkpt lat="45.70561" lon="6.66886">
        <ele>2324</ele>
        <time>2022-07-16T15:44:38Z</time>
      </trkpt>
      <trkpt lat="45.70562" lon="6.66887">
        <ele>2324</ele>
        <time>2022-07-16T15:44:39Z</time>
      </trkpt>
      <trkpt lat="45.70562" lon="6.66889">
        <ele>2324</ele>
        <time>2022-07-16T15:44:40Z</time>
      </trkpt>
      <trkpt lat="45.70563" lon="6.6689">
        <ele>2324</ele>
        <time>2022-07-16T15:44:41Z</time>
      </trkpt>
      <trkpt lat="45.70563" lon="6.66892">
        <ele>2323</ele>
        <time>2022-07-16T15:44:42Z</time>
      </trkpt>
      <trkpt lat="45.70564" lon="6.66894">
        <ele>2323</ele>
        <time>2022-07-16T15:44:43Z</time>
      </trkpt>
      <trkpt lat="45.70564" lon="6.66896">
        <ele>2323</ele>
        <time>2022-07-16T15:44:44Z</time>
      </trkpt>
      <trkpt lat="45.70564" lon="6.66898">
        <ele>2323</ele>
        <time>2022-07-16T15:44:45Z</time>
      </trkpt>
      <trkpt lat="45.70565" lon="6.669">
        <ele>2323</ele>
        <time>2022-07-16T15:44:46Z</time>
      </trkpt>
      <trkpt lat="45.70565" lon="6.66902">
        <ele>2323</ele>
        <time>2022-07-16T15:44:47Z</time>
      </trkpt>
      <trkpt lat="45.70566" lon="6.66903">
        <ele>2323</ele>
        <time>2022-07-16T15:44:48Z</time>
      </trkpt>
      <trkpt lat="45.70567" lon="6.66904">
        <ele>2323</ele>
        <time>2022-07-16T15:44:49Z</time>
      </trkpt>
      <trkpt lat="45.70567" lon="6.66906">
        <ele>2324</ele>
        <time>2022-07-16T15:44:50Z</time>
      </trkpt>
      <trkpt lat="45.70568" lon="6.66907">
        <ele>2324</ele>
        <time>2022-07-16T15:44:51Z</time>
      </trkpt>
      <trkpt lat="45.70569" lon="6.66908">
        <ele>2324</ele>
        <time>2022-07-16T15:44:52Z</time>
      </trkpt>
      <trkpt lat="45.70569" lon="6.6691">
        <ele>2324</ele>
        <time>2022-07-16T15:44:53Z</time>
      </trkpt>
      <trkpt lat="45.7057" lon="6.66911">
        <ele>2324</ele>
        <time>2022-07-16T15:44:54Z</time>
      </trkpt>
      <trkpt lat="45.70571" lon="6.66912">
        <ele>2324</ele>
        <time>2022-07-16T15:44:55Z</time>
      </trkpt>
      <trkpt lat="45.70571" lon="6.66914">
        <ele>2324</ele>
        <time>2022-07-16T15:44:56Z</time>
      </trkpt>
      <trkpt lat="45.70572" lon="6.66915">
        <ele>2324</ele>
        <time>2022-07-16T15:44:57Z</time>
      </trkpt>
      <trkpt lat="45.70573" lon="6.66917">
        <ele>2324</ele>
        <time>2022-07-16T15:44:58Z</time>
      </trkpt>
      <trkpt lat="45.70574" lon="6.66919">
        <ele>2324</ele>
        <time>2022-07-16T15:44:59Z</time>
      </trkpt>
      <trkpt lat="45.70575" lon="6.6692">
        <ele>2324</ele>
        <time>2022-07-16T15:45:00Z</time>
      </trkpt>
      <trkpt lat="45.70575" lon="6.66922">
        <ele>2323</ele>
        <time>2022-07-16T15:45:01Z</time>
      </trkpt>
      <trkpt lat="45.70576" lon="6.66923">
        <ele>2323</ele>
        <time>2022-07-16T15:45:02Z</time>
      </trkpt>
      <trkpt lat="45.70577" lon="6.66925">
        <ele>2323</ele>
        <time>2022-07-16T15:45:03Z</time>
      </trkpt>
      <trkpt lat="45.70577" lon="6.66926">
        <ele>2323</ele>
        <time>2022-07-16T15:45:04Z</time>
      </trkpt>
      <trkpt lat="45.70578" lon="6.66928">
        <ele>2323</ele>
        <time>2022-07-16T15:45:05Z</time>
      </trkpt>
      <trkpt lat="45.70578" lon="6.6693">
        <ele>2323</ele>
        <time>2022-07-16T15:45:06Z</time>
      </trkpt>
      <trkpt lat="45.70579" lon="6.66931">
        <ele>2323</ele>
        <time>2022-07-16T15:45:07Z</time>
      </trkpt>
      <trkpt lat="45.7058" lon="6.66933">
        <ele>2323</ele>
        <time>2022-07-16T15:45:08Z</time>
      </trkpt>
      <trkpt lat="45.7058" lon="6.66934">
        <ele>2324</ele>
        <time>2022-07-16T15:45:09Z</time>
      </trkpt>
      <trkpt lat="45.70581" lon="6.66936">
        <ele>2324</ele>
        <time>2022-07-16T15:45:10Z</time>
      </trkpt>
      <trkpt lat="45.70581" lon="6.66937">
        <ele>2324</ele>
        <time>2022-07-16T15:45:11Z</time>
      </trkpt>
      <trkpt lat="45.70582" lon="6.66939">
        <ele>2324</ele>
        <time>2022-07-16T15:45:12Z</time>
      </trkpt>
      <trkpt lat="45.70582" lon="6.6694">
        <ele>2324</ele>
        <time>2022-07-16T15:45:13Z</time>
      </trkpt>
      <trkpt lat="45.70582" lon="6.66942">
        <ele>2324</ele>
        <time>2022-07-16T15:45:14Z</time>
      </trkpt>
      <trkpt lat="45.70583" lon="6.66943">
        <ele>2324</ele>
        <time>2022-07-16T15:45:15Z</time>
      </trkpt>
      <trkpt lat="45.70583" lon="6.66945">
        <ele>2324</ele>
        <time>2022-07-16T15:45:16Z</time>
      </trkpt>
      <trkpt lat="45.70584" lon="6.66946">
        <ele>2324</ele>
        <time>2022-07-16T15:45:17Z</time>
      </trkpt>
      <trkpt lat="45.70584" lon="6.66948">
        <ele>2324</ele>
        <time>2022-07-16T15:45:18Z</time>
      </trkpt>
      <trkpt lat="45.70584" lon="6.66949">
        <ele>2324</ele>
        <time>2022-07-16T15:45:19Z</time>
      </trkpt>
      <trkpt lat="45.70585" lon="6.66954">
        <ele>2326</ele>
        <time>2022-07-16T15:45:22Z</time>
      </trkpt>
      <trkpt lat="45.70586" lon="6.66955">
        <ele>2326</ele>
        <time>2022-07-16T15:45:23Z</time>
      </trkpt>
      <trkpt lat="45.70587" lon="6.66956">
        <ele>2324</ele>
        <time>2022-07-16T15:45:24Z</time>
      </trkpt>
      <trkpt lat="45.70588" lon="6.66958">
        <ele>2324</ele>
        <time>2022-07-16T15:45:25Z</time>
      </trkpt>
      <trkpt lat="45.70588" lon="6.66959">
        <ele>2324</ele>
        <time>2022-07-16T15:45:26Z</time>
      </trkpt>
      <trkpt lat="45.70589" lon="6.66961">
        <ele>2324</ele>
        <time>2022-07-16T15:45:27Z</time>
      </trkpt>
      <trkpt lat="45.7059" lon="6.66962">
        <ele>2324</ele>
        <time>2022-07-16T15:45:28Z</time>
      </trkpt>
      <trkpt lat="45.7059" lon="6.66963">
        <ele>2324</ele>
        <time>2022-07-16T15:45:29Z</time>
      </trkpt>
      <trkpt lat="45.70591" lon="6.66965">
        <ele>2324</ele>
        <time>2022-07-16T15:45:30Z</time>
      </trkpt>
      <trkpt lat="45.70592" lon="6.66966">
        <ele>2323</ele>
        <time>2022-07-16T15:45:31Z</time>
      </trkpt>
      <trkpt lat="45.70594" lon="6.66967">
        <ele>2323</ele>
        <time>2022-07-16T15:45:32Z</time>
      </trkpt>
      <trkpt lat="45.70595" lon="6.66969">
        <ele>2323</ele>
        <time>2022-07-16T15:45:33Z</time>
      </trkpt>
      <trkpt lat="45.70596" lon="6.6697">
        <ele>2323</ele>
        <time>2022-07-16T15:45:34Z</time>
      </trkpt>
      <trkpt lat="45.70597" lon="6.66971">
        <ele>2323</ele>
        <time>2022-07-16T15:45:35Z</time>
      </trkpt>
      <trkpt lat="45.70599" lon="6.66973">
        <ele>2322</ele>
        <time>2022-07-16T15:45:36Z</time>
      </trkpt>
      <trkpt lat="45.70599" lon="6.66974">
        <ele>2322</ele>
        <time>2022-07-16T15:45:37Z</time>
      </trkpt>
      <trkpt lat="45.706" lon="6.66975">
        <ele>2322</ele>
        <time>2022-07-16T15:45:38Z</time>
      </trkpt>
      <trkpt lat="45.70601" lon="6.66977">
        <ele>2322</ele>
        <time>2022-07-16T15:45:39Z</time>
      </trkpt>
      <trkpt lat="45.70602" lon="6.66978">
        <ele>2322</ele>
        <time>2022-07-16T15:45:40Z</time>
      </trkpt>
      <trkpt lat="45.70603" lon="6.6698">
        <ele>2322</ele>
        <time>2022-07-16T15:45:41Z</time>
      </trkpt>
      <trkpt lat="45.70605" lon="6.66982">
        <ele>2322</ele>
        <time>2022-07-16T15:45:43Z</time>
      </trkpt>
      <trkpt lat="45.70607" lon="6.66985">
        <ele>2322</ele>
        <time>2022-07-16T15:45:45Z</time>
      </trkpt>
      <trkpt lat="45.70608" lon="6.66989">
        <ele>2322</ele>
        <time>2022-07-16T15:45:47Z</time>
      </trkpt>
      <trkpt lat="45.70609" lon="6.66993">
        <ele>2323</ele>
        <time>2022-07-16T15:45:51Z</time>
      </trkpt>
      <trkpt lat="45.70609" lon="6.66995">
        <ele>2323</ele>
        <time>2022-07-16T15:45:52Z</time>
      </trkpt>
      <trkpt lat="45.7061" lon="6.66996">
        <ele>2323</ele>
        <time>2022-07-16T15:45:53Z</time>
      </trkpt>
      <trkpt lat="45.7061" lon="6.66997">
        <ele>2323</ele>
        <time>2022-07-16T15:45:54Z</time>
      </trkpt>
      <trkpt lat="45.7061" lon="6.66999">
        <ele>2323</ele>
        <time>2022-07-16T15:45:55Z</time>
      </trkpt>
      <trkpt lat="45.7061" lon="6.67">
        <ele>2323</ele>
        <time>2022-07-16T15:45:56Z</time>
      </trkpt>
      <trkpt lat="45.7061" lon="6.67001">
        <ele>2323</ele>
        <time>2022-07-16T15:45:57Z</time>
      </trkpt>
      <trkpt lat="45.70611" lon="6.67002">
        <ele>2323</ele>
        <time>2022-07-16T15:45:58Z</time>
      </trkpt>
      <trkpt lat="45.70611" lon="6.67004">
        <ele>2323</ele>
        <time>2022-07-16T15:45:59Z</time>
      </trkpt>
      <trkpt lat="45.70611" lon="6.67005">
        <ele>2323</ele>
        <time>2022-07-16T15:46:00Z</time>
      </trkpt>
      <trkpt lat="45.70612" lon="6.67008">
        <ele>2324</ele>
        <time>2022-07-16T15:46:03Z</time>
      </trkpt>
      <trkpt lat="45.70614" lon="6.67011">
        <ele>2324</ele>
        <time>2022-07-16T15:46:06Z</time>
      </trkpt>
      <trkpt lat="45.70614" lon="6.67013">
        <ele>2324</ele>
        <time>2022-07-16T15:46:07Z</time>
      </trkpt>
      <trkpt lat="45.70615" lon="6.67014">
        <ele>2324</ele>
        <time>2022-07-16T15:46:08Z</time>
      </trkpt>
      <trkpt lat="45.70616" lon="6.67016">
        <ele>2324</ele>
        <time>2022-07-16T15:46:09Z</time>
      </trkpt>
      <trkpt lat="45.70616" lon="6.67017">
        <ele>2324</ele>
        <time>2022-07-16T15:46:10Z</time>
      </trkpt>
      <trkpt lat="45.70617" lon="6.67018">
        <ele>2324</ele>
        <time>2022-07-16T15:46:11Z</time>
      </trkpt>
      <trkpt lat="45.70617" lon="6.6702">
        <ele>2326</ele>
        <time>2022-07-16T15:46:12Z</time>
      </trkpt>
      <trkpt lat="45.70618" lon="6.67021">
        <ele>2326</ele>
        <time>2022-07-16T15:46:13Z</time>
      </trkpt>
      <trkpt lat="45.70619" lon="6.67023">
        <ele>2326</ele>
        <time>2022-07-16T15:46:14Z</time>
      </trkpt>
      <trkpt lat="45.7062" lon="6.67023">
        <ele>2326</ele>
        <time>2022-07-16T15:46:15Z</time>
      </trkpt>
      <trkpt lat="45.70621" lon="6.67024">
        <ele>2326</ele>
        <time>2022-07-16T15:46:16Z</time>
      </trkpt>
      <trkpt lat="45.70622" lon="6.67025">
        <ele>2327</ele>
        <time>2022-07-16T15:46:17Z</time>
      </trkpt>
      <trkpt lat="45.70623" lon="6.67025">
        <ele>2327</ele>
        <time>2022-07-16T15:46:18Z</time>
      </trkpt>
      <trkpt lat="45.70625" lon="6.67026">
        <ele>2327</ele>
        <time>2022-07-16T15:46:19Z</time>
      </trkpt>
      <trkpt lat="45.70626" lon="6.67027">
        <ele>2327</ele>
        <time>2022-07-16T15:46:20Z</time>
      </trkpt>
      <trkpt lat="45.70627" lon="6.67027">
        <ele>2327</ele>
        <time>2022-07-16T15:46:21Z</time>
      </trkpt>
      <trkpt lat="45.70628" lon="6.67028">
        <ele>2327</ele>
        <time>2022-07-16T15:46:22Z</time>
      </trkpt>
      <trkpt lat="45.70631" lon="6.6703">
        <ele>2327</ele>
        <time>2022-07-16T15:46:24Z</time>
      </trkpt>
      <trkpt lat="45.70632" lon="6.67033">
        <ele>2327</ele>
        <time>2022-07-16T15:46:26Z</time>
      </trkpt>
      <trkpt lat="45.70634" lon="6.67037">
        <ele>2327</ele>
        <time>2022-07-16T15:46:28Z</time>
      </trkpt>
      <trkpt lat="45.70636" lon="6.67041">
        <ele>2327</ele>
        <time>2022-07-16T15:46:31Z</time>
      </trkpt>
      <trkpt lat="45.70638" lon="6.67043">
        <ele>2327</ele>
        <time>2022-07-16T15:46:33Z</time>
      </trkpt>
      <trkpt lat="45.7064" lon="6.67045">
        <ele>2327</ele>
        <time>2022-07-16T15:46:35Z</time>
      </trkpt>
      <trkpt lat="45.70643" lon="6.67046">
        <ele>2327</ele>
        <time>2022-07-16T15:46:37Z</time>
      </trkpt>
      <trkpt lat="45.70646" lon="6.67047">
        <ele>2327</ele>
        <time>2022-07-16T15:46:39Z</time>
      </trkpt>
      <trkpt lat="45.70648" lon="6.67048">
        <ele>2327</ele>
        <time>2022-07-16T15:46:41Z</time>
      </trkpt>
      <trkpt lat="45.7065" lon="6.6705">
        <ele>2327</ele>
        <time>2022-07-16T15:46:44Z</time>
      </trkpt>
      <trkpt lat="45.70652" lon="6.67052">
        <ele>2327</ele>
        <time>2022-07-16T15:46:46Z</time>
      </trkpt>
      <trkpt lat="45.70653" lon="6.67055">
        <ele>2327</ele>
        <time>2022-07-16T15:46:48Z</time>
      </trkpt>
      <trkpt lat="45.70654" lon="6.67056">
        <ele>2327</ele>
        <time>2022-07-16T15:46:49Z</time>
      </trkpt>
      <trkpt lat="45.70656" lon="6.67056">
        <ele>2327</ele>
        <time>2022-07-16T15:46:50Z</time>
      </trkpt>
      <trkpt lat="45.70657" lon="6.67056">
        <ele>2327</ele>
        <time>2022-07-16T15:46:51Z</time>
      </trkpt>
      <trkpt lat="45.70658" lon="6.67057">
        <ele>2328</ele>
        <time>2022-07-16T15:46:52Z</time>
      </trkpt>
      <trkpt lat="45.70659" lon="6.67057">
        <ele>2328</ele>
        <time>2022-07-16T15:46:53Z</time>
      </trkpt>
      <trkpt lat="45.70661" lon="6.67058">
        <ele>2328</ele>
        <time>2022-07-16T15:46:54Z</time>
      </trkpt>
      <trkpt lat="45.70662" lon="6.67058">
        <ele>2328</ele>
        <time>2022-07-16T15:46:55Z</time>
      </trkpt>
      <trkpt lat="45.70663" lon="6.67058">
        <ele>2328</ele>
        <time>2022-07-16T15:46:56Z</time>
      </trkpt>
      <trkpt lat="45.70664" lon="6.67057">
        <ele>2327</ele>
        <time>2022-07-16T15:46:57Z</time>
      </trkpt>
      <trkpt lat="45.70666" lon="6.67056">
        <ele>2327</ele>
        <time>2022-07-16T15:46:58Z</time>
      </trkpt>
      <trkpt lat="45.70667" lon="6.67055">
        <ele>2327</ele>
        <time>2022-07-16T15:46:59Z</time>
      </trkpt>
      <trkpt lat="45.70668" lon="6.67054">
        <ele>2327</ele>
        <time>2022-07-16T15:47:00Z</time>
      </trkpt>
      <trkpt lat="45.70669" lon="6.67053">
        <ele>2327</ele>
        <time>2022-07-16T15:47:01Z</time>
      </trkpt>
      <trkpt lat="45.7067" lon="6.67054">
        <ele>2327</ele>
        <time>2022-07-16T15:47:02Z</time>
      </trkpt>
      <trkpt lat="45.70671" lon="6.67054">
        <ele>2328</ele>
        <time>2022-07-16T15:47:04Z</time>
      </trkpt>
      <trkpt lat="45.70672" lon="6.67054">
        <ele>2329</ele>
        <time>2022-07-16T15:47:05Z</time>
      </trkpt>
      <trkpt lat="45.70673" lon="6.67054">
        <ele>2329</ele>
        <time>2022-07-16T15:47:06Z</time>
      </trkpt>
      <trkpt lat="45.70674" lon="6.67054">
        <ele>2329</ele>
        <time>2022-07-16T15:47:07Z</time>
      </trkpt>
      <trkpt lat="45.70675" lon="6.67054">
        <ele>2329</ele>
        <time>2022-07-16T15:47:08Z</time>
      </trkpt>
      <trkpt lat="45.70676" lon="6.67055">
        <ele>2329</ele>
        <time>2022-07-16T15:47:09Z</time>
      </trkpt>
      <trkpt lat="45.70677" lon="6.67055">
        <ele>2329</ele>
        <time>2022-07-16T15:47:10Z</time>
      </trkpt>
      <trkpt lat="45.70681" lon="6.67056">
        <ele>2329</ele>
        <time>2022-07-16T15:47:13Z</time>
      </trkpt>
      <trkpt lat="45.70683" lon="6.67058">
        <ele>2329</ele>
        <time>2022-07-16T15:47:15Z</time>
      </trkpt>
      <trkpt lat="45.70685" lon="6.6706">
        <ele>2329</ele>
        <time>2022-07-16T15:47:17Z</time>
      </trkpt>
      <trkpt lat="45.70686" lon="6.67063">
        <ele>2329</ele>
        <time>2022-07-16T15:47:19Z</time>
      </trkpt>
      <trkpt lat="45.70687" lon="6.67066">
        <ele>2328</ele>
        <time>2022-07-16T15:47:21Z</time>
      </trkpt>
      <trkpt lat="45.70688" lon="6.67067">
        <ele>2328</ele>
        <time>2022-07-16T15:47:23Z</time>
      </trkpt>
      <trkpt lat="45.70688" lon="6.67069">
        <ele>2327</ele>
        <time>2022-07-16T15:47:24Z</time>
      </trkpt>
      <trkpt lat="45.70689" lon="6.6707">
        <ele>2327</ele>
        <time>2022-07-16T15:47:25Z</time>
      </trkpt>
      <trkpt lat="45.70689" lon="6.67072">
        <ele>2327</ele>
        <time>2022-07-16T15:47:26Z</time>
      </trkpt>
      <trkpt lat="45.7069" lon="6.67073">
        <ele>2327</ele>
        <time>2022-07-16T15:47:27Z</time>
      </trkpt>
      <trkpt lat="45.70691" lon="6.67075">
        <ele>2327</ele>
        <time>2022-07-16T15:47:28Z</time>
      </trkpt>
      <trkpt lat="45.70691" lon="6.67076">
        <ele>2327</ele>
        <time>2022-07-16T15:47:29Z</time>
      </trkpt>
      <trkpt lat="45.70692" lon="6.67077">
        <ele>2327</ele>
        <time>2022-07-16T15:47:30Z</time>
      </trkpt>
      <trkpt lat="45.70693" lon="6.67079">
        <ele>2327</ele>
        <time>2022-07-16T15:47:31Z</time>
      </trkpt>
      <trkpt lat="45.70693" lon="6.6708">
        <ele>2327</ele>
        <time>2022-07-16T15:47:32Z</time>
      </trkpt>
      <trkpt lat="45.70694" lon="6.67081">
        <ele>2327</ele>
        <time>2022-07-16T15:47:33Z</time>
      </trkpt>
      <trkpt lat="45.70695" lon="6.67083">
        <ele>2327</ele>
        <time>2022-07-16T15:47:34Z</time>
      </trkpt>
      <trkpt lat="45.70696" lon="6.67084">
        <ele>2327</ele>
        <time>2022-07-16T15:47:35Z</time>
      </trkpt>
      <trkpt lat="45.70696" lon="6.67085">
        <ele>2327</ele>
        <time>2022-07-16T15:47:36Z</time>
      </trkpt>
      <trkpt lat="45.70697" lon="6.67086">
        <ele>2327</ele>
        <time>2022-07-16T15:47:37Z</time>
      </trkpt>
      <trkpt lat="45.70698" lon="6.67088">
        <ele>2327</ele>
        <time>2022-07-16T15:47:38Z</time>
      </trkpt>
      <trkpt lat="45.70699" lon="6.67089">
        <ele>2327</ele>
        <time>2022-07-16T15:47:39Z</time>
      </trkpt>
      <trkpt lat="45.707" lon="6.6709">
        <ele>2327</ele>
        <time>2022-07-16T15:47:40Z</time>
      </trkpt>
      <trkpt lat="45.70701" lon="6.67091">
        <ele>2327</ele>
        <time>2022-07-16T15:47:42Z</time>
      </trkpt>
      <trkpt lat="45.70702" lon="6.67093">
        <ele>2327</ele>
        <time>2022-07-16T15:47:43Z</time>
      </trkpt>
      <trkpt lat="45.70703" lon="6.67094">
        <ele>2327</ele>
        <time>2022-07-16T15:47:44Z</time>
      </trkpt>
      <trkpt lat="45.70704" lon="6.67095">
        <ele>2328</ele>
        <time>2022-07-16T15:47:45Z</time>
      </trkpt>
      <trkpt lat="45.70705" lon="6.67096">
        <ele>2328</ele>
        <time>2022-07-16T15:47:46Z</time>
      </trkpt>
      <trkpt lat="45.70705" lon="6.67097">
        <ele>2328</ele>
        <time>2022-07-16T15:47:47Z</time>
      </trkpt>
      <trkpt lat="45.70706" lon="6.67098">
        <ele>2328</ele>
        <time>2022-07-16T15:47:48Z</time>
      </trkpt>
      <trkpt lat="45.70707" lon="6.67099">
        <ele>2328</ele>
        <time>2022-07-16T15:47:49Z</time>
      </trkpt>
      <trkpt lat="45.70708" lon="6.671">
        <ele>2328</ele>
        <time>2022-07-16T15:47:50Z</time>
      </trkpt>
      <trkpt lat="45.70709" lon="6.67101">
        <ele>2329</ele>
        <time>2022-07-16T15:47:51Z</time>
      </trkpt>
      <trkpt lat="45.7071" lon="6.67102">
        <ele>2329</ele>
        <time>2022-07-16T15:47:52Z</time>
      </trkpt>
      <trkpt lat="45.70711" lon="6.67103">
        <ele>2329</ele>
        <time>2022-07-16T15:47:53Z</time>
      </trkpt>
      <trkpt lat="45.70718" lon="6.67113">
        <ele>2327</ele>
        <time>2022-07-16T15:48:01Z</time>
      </trkpt>
      <trkpt lat="45.70719" lon="6.67113">
        <ele>2327</ele>
        <time>2022-07-16T15:48:02Z</time>
      </trkpt>
      <trkpt lat="45.7072" lon="6.67114">
        <ele>2326</ele>
        <time>2022-07-16T15:48:03Z</time>
      </trkpt>
      <trkpt lat="45.7072" lon="6.67115">
        <ele>2326</ele>
        <time>2022-07-16T15:48:04Z</time>
      </trkpt>
      <trkpt lat="45.70721" lon="6.67116">
        <ele>2326</ele>
        <time>2022-07-16T15:48:05Z</time>
      </trkpt>
      <trkpt lat="45.70721" lon="6.67117">
        <ele>2326</ele>
        <time>2022-07-16T15:48:06Z</time>
      </trkpt>
      <trkpt lat="45.70722" lon="6.67118">
        <ele>2324</ele>
        <time>2022-07-16T15:48:07Z</time>
      </trkpt>
      <trkpt lat="45.70723" lon="6.67119">
        <ele>2324</ele>
        <time>2022-07-16T15:48:08Z</time>
      </trkpt>
      <trkpt lat="45.70723" lon="6.6712">
        <ele>2324</ele>
        <time>2022-07-16T15:48:09Z</time>
      </trkpt>
      <trkpt lat="45.70724" lon="6.67121">
        <ele>2323</ele>
        <time>2022-07-16T15:48:10Z</time>
      </trkpt>
      <trkpt lat="45.70724" lon="6.67122">
        <ele>2323</ele>
        <time>2022-07-16T15:48:11Z</time>
      </trkpt>
      <trkpt lat="45.70725" lon="6.67123">
        <ele>2322</ele>
        <time>2022-07-16T15:48:12Z</time>
      </trkpt>
      <trkpt lat="45.70731" lon="6.67134">
        <ele>2322</ele>
        <time>2022-07-16T15:48:20Z</time>
      </trkpt>
      <trkpt lat="45.70731" lon="6.67136">
        <ele>2322</ele>
        <time>2022-07-16T15:48:21Z</time>
      </trkpt>
      <trkpt lat="45.70731" lon="6.67138">
        <ele>2323</ele>
        <time>2022-07-16T15:48:22Z</time>
      </trkpt>
      <trkpt lat="45.70731" lon="6.6714">
        <ele>2323</ele>
        <time>2022-07-16T15:48:23Z</time>
      </trkpt>
      <trkpt lat="45.70731" lon="6.67142">
        <ele>2324</ele>
        <time>2022-07-16T15:48:24Z</time>
      </trkpt>
      <trkpt lat="45.70731" lon="6.67144">
        <ele>2324</ele>
        <time>2022-07-16T15:48:25Z</time>
      </trkpt>
      <trkpt lat="45.70731" lon="6.67146">
        <ele>2324</ele>
        <time>2022-07-16T15:48:26Z</time>
      </trkpt>
      <trkpt lat="45.70731" lon="6.67148">
        <ele>2324</ele>
        <time>2022-07-16T15:48:27Z</time>
      </trkpt>
      <trkpt lat="45.70732" lon="6.67149">
        <ele>2326</ele>
        <time>2022-07-16T15:48:28Z</time>
      </trkpt>
      <trkpt lat="45.70732" lon="6.6715">
        <ele>2326</ele>
        <time>2022-07-16T15:48:29Z</time>
      </trkpt>
      <trkpt lat="45.70733" lon="6.67151">
        <ele>2326</ele>
        <time>2022-07-16T15:48:30Z</time>
      </trkpt>
      <trkpt lat="45.70734" lon="6.67152">
        <ele>2326</ele>
        <time>2022-07-16T15:48:31Z</time>
      </trkpt>
      <trkpt lat="45.70734" lon="6.67153">
        <ele>2326</ele>
        <time>2022-07-16T15:48:32Z</time>
      </trkpt>
      <trkpt lat="45.70735" lon="6.67154">
        <ele>2326</ele>
        <time>2022-07-16T15:48:33Z</time>
      </trkpt>
      <trkpt lat="45.70735" lon="6.67155">
        <ele>2327</ele>
        <time>2022-07-16T15:48:34Z</time>
      </trkpt>
      <trkpt lat="45.70736" lon="6.67156">
        <ele>2327</ele>
        <time>2022-07-16T15:48:35Z</time>
      </trkpt>
      <trkpt lat="45.70737" lon="6.67157">
        <ele>2327</ele>
        <time>2022-07-16T15:48:36Z</time>
      </trkpt>
      <trkpt lat="45.70738" lon="6.67158">
        <ele>2327</ele>
        <time>2022-07-16T15:48:38Z</time>
      </trkpt>
      <trkpt lat="45.70739" lon="6.6716">
        <ele>2327</ele>
        <time>2022-07-16T15:48:39Z</time>
      </trkpt>
      <trkpt lat="45.70739" lon="6.67162">
        <ele>2327</ele>
        <time>2022-07-16T15:48:40Z</time>
      </trkpt>
      <trkpt lat="45.7074" lon="6.67163">
        <ele>2328</ele>
        <time>2022-07-16T15:48:41Z</time>
      </trkpt>
      <trkpt lat="45.70741" lon="6.67165">
        <ele>2328</ele>
        <time>2022-07-16T15:48:42Z</time>
      </trkpt>
      <trkpt lat="45.70741" lon="6.67167">
        <ele>2328</ele>
        <time>2022-07-16T15:48:43Z</time>
      </trkpt>
      <trkpt lat="45.70742" lon="6.67169">
        <ele>2328</ele>
        <time>2022-07-16T15:48:44Z</time>
      </trkpt>
      <trkpt lat="45.70743" lon="6.6717">
        <ele>2328</ele>
        <time>2022-07-16T15:48:45Z</time>
      </trkpt>
      <trkpt lat="45.70743" lon="6.67171">
        <ele>2328</ele>
        <time>2022-07-16T15:48:46Z</time>
      </trkpt>
      <trkpt lat="45.70744" lon="6.67171">
        <ele>2328</ele>
        <time>2022-07-16T15:48:47Z</time>
      </trkpt>
      <trkpt lat="45.70745" lon="6.67172">
        <ele>2328</ele>
        <time>2022-07-16T15:48:48Z</time>
      </trkpt>
      <trkpt lat="45.70746" lon="6.67172">
        <ele>2328</ele>
        <time>2022-07-16T15:48:50Z</time>
      </trkpt>
      <trkpt lat="45.70746" lon="6.67173">
        <ele>2328</ele>
        <time>2022-07-16T15:48:51Z</time>
      </trkpt>
      <trkpt lat="45.70747" lon="6.67173">
        <ele>2328</ele>
        <time>2022-07-16T15:48:52Z</time>
      </trkpt>
      <trkpt lat="45.70747" lon="6.67174">
        <ele>2328</ele>
        <time>2022-07-16T15:48:53Z</time>
      </trkpt>
      <trkpt lat="45.70753" lon="6.67178">
        <ele>2329</ele>
        <time>2022-07-16T15:48:54Z</time>
      </trkpt>
      <trkpt lat="45.70754" lon="6.67179">
        <ele>2329</ele>
        <time>2022-07-16T15:48:55Z</time>
      </trkpt>
      <trkpt lat="45.70755" lon="6.6718">
        <ele>2329</ele>
        <time>2022-07-16T15:48:56Z</time>
      </trkpt>
      <trkpt lat="45.70756" lon="6.67181">
        <ele>2329</ele>
        <time>2022-07-16T15:48:57Z</time>
      </trkpt>
      <trkpt lat="45.70756" lon="6.67182">
        <ele>2329</ele>
        <time>2022-07-16T15:48:58Z</time>
      </trkpt>
      <trkpt lat="45.70757" lon="6.67183">
        <ele>2329</ele>
        <time>2022-07-16T15:48:59Z</time>
      </trkpt>
      <trkpt lat="45.70758" lon="6.67183">
        <ele>2329</ele>
        <time>2022-07-16T15:49:00Z</time>
      </trkpt>
      <trkpt lat="45.70759" lon="6.67184">
        <ele>2329</ele>
        <time>2022-07-16T15:49:01Z</time>
      </trkpt>
      <trkpt lat="45.7076" lon="6.67185">
        <ele>2329</ele>
        <time>2022-07-16T15:49:02Z</time>
      </trkpt>
      <trkpt lat="45.70761" lon="6.67186">
        <ele>2329</ele>
        <time>2022-07-16T15:49:03Z</time>
      </trkpt>
      <trkpt lat="45.70762" lon="6.67186">
        <ele>2329</ele>
        <time>2022-07-16T15:49:04Z</time>
      </trkpt>
      <trkpt lat="45.70764" lon="6.67187">
        <ele>2330</ele>
        <time>2022-07-16T15:49:05Z</time>
      </trkpt>
      <trkpt lat="45.70765" lon="6.67187">
        <ele>2331</ele>
        <time>2022-07-16T15:49:06Z</time>
      </trkpt>
      <trkpt lat="45.70766" lon="6.67188">
        <ele>2331</ele>
        <time>2022-07-16T15:49:07Z</time>
      </trkpt>
      <trkpt lat="45.70767" lon="6.67189">
        <ele>2331</ele>
        <time>2022-07-16T15:49:08Z</time>
      </trkpt>
      <trkpt lat="45.70768" lon="6.67189">
        <ele>2331</ele>
        <time>2022-07-16T15:49:09Z</time>
      </trkpt>
      <trkpt lat="45.7077" lon="6.6719">
        <ele>2331</ele>
        <time>2022-07-16T15:49:10Z</time>
      </trkpt>
      <trkpt lat="45.70771" lon="6.6719">
        <ele>2331</ele>
        <time>2022-07-16T15:49:11Z</time>
      </trkpt>
      <trkpt lat="45.70772" lon="6.67189">
        <ele>2331</ele>
        <time>2022-07-16T15:49:12Z</time>
      </trkpt>
      <trkpt lat="45.70774" lon="6.67189">
        <ele>2330</ele>
        <time>2022-07-16T15:49:13Z</time>
      </trkpt>
      <trkpt lat="45.70775" lon="6.67189">
        <ele>2330</ele>
        <time>2022-07-16T15:49:14Z</time>
      </trkpt>
      <trkpt lat="45.70777" lon="6.67189">
        <ele>2330</ele>
        <time>2022-07-16T15:49:15Z</time>
      </trkpt>
      <trkpt lat="45.70778" lon="6.67188">
        <ele>2331</ele>
        <time>2022-07-16T15:49:17Z</time>
      </trkpt>
      <trkpt lat="45.70779" lon="6.67188">
        <ele>2331</ele>
        <time>2022-07-16T15:49:18Z</time>
      </trkpt>
      <trkpt lat="45.70781" lon="6.67189">
        <ele>2331</ele>
        <time>2022-07-16T15:49:19Z</time>
      </trkpt>
      <trkpt lat="45.70782" lon="6.67189">
        <ele>2331</ele>
        <time>2022-07-16T15:49:20Z</time>
      </trkpt>
      <trkpt lat="45.70783" lon="6.6719">
        <ele>2331</ele>
        <time>2022-07-16T15:49:21Z</time>
      </trkpt>
      <trkpt lat="45.70785" lon="6.6719">
        <ele>2331</ele>
        <time>2022-07-16T15:49:22Z</time>
      </trkpt>
      <trkpt lat="45.70786" lon="6.67191">
        <ele>2331</ele>
        <time>2022-07-16T15:49:23Z</time>
      </trkpt>
      <trkpt lat="45.70787" lon="6.67191">
        <ele>2331</ele>
        <time>2022-07-16T15:49:24Z</time>
      </trkpt>
      <trkpt lat="45.70789" lon="6.67192">
        <ele>2331</ele>
        <time>2022-07-16T15:49:25Z</time>
      </trkpt>
      <trkpt lat="45.7079" lon="6.67193">
        <ele>2331</ele>
        <time>2022-07-16T15:49:27Z</time>
      </trkpt>
      <trkpt lat="45.70791" lon="6.67193">
        <ele>2331</ele>
        <time>2022-07-16T15:49:28Z</time>
      </trkpt>
      <trkpt lat="45.70792" lon="6.67193">
        <ele>2331</ele>
        <time>2022-07-16T15:49:29Z</time>
      </trkpt>
      <trkpt lat="45.70793" lon="6.67193">
        <ele>2331</ele>
        <time>2022-07-16T15:49:30Z</time>
      </trkpt>
      <trkpt lat="45.70794" lon="6.67194">
        <ele>2331</ele>
        <time>2022-07-16T15:49:31Z</time>
      </trkpt>
      <trkpt lat="45.70795" lon="6.67194">
        <ele>2332</ele>
        <time>2022-07-16T15:49:32Z</time>
      </trkpt>
      <trkpt lat="45.70796" lon="6.67194">
        <ele>2332</ele>
        <time>2022-07-16T15:49:33Z</time>
      </trkpt>
      <trkpt lat="45.70797" lon="6.67194">
        <ele>2332</ele>
        <time>2022-07-16T15:49:34Z</time>
      </trkpt>
      <trkpt lat="45.70799" lon="6.67196">
        <ele>2331</ele>
        <time>2022-07-16T15:49:35Z</time>
      </trkpt>
      <trkpt lat="45.708" lon="6.67195">
        <ele>2331</ele>
        <time>2022-07-16T15:49:36Z</time>
      </trkpt>
      <trkpt lat="45.70802" lon="6.67195">
        <ele>2331</ele>
        <time>2022-07-16T15:49:37Z</time>
      </trkpt>
      <trkpt lat="45.70803" lon="6.67195">
        <ele>2330</ele>
        <time>2022-07-16T15:49:38Z</time>
      </trkpt>
      <trkpt lat="45.70804" lon="6.67195">
        <ele>2330</ele>
        <time>2022-07-16T15:49:39Z</time>
      </trkpt>
      <trkpt lat="45.70806" lon="6.67195">
        <ele>2330</ele>
        <time>2022-07-16T15:49:40Z</time>
      </trkpt>
      <trkpt lat="45.70807" lon="6.67195">
        <ele>2330</ele>
        <time>2022-07-16T15:49:41Z</time>
      </trkpt>
      <trkpt lat="45.70809" lon="6.67194">
        <ele>2330</ele>
        <time>2022-07-16T15:49:43Z</time>
      </trkpt>
      <trkpt lat="45.7081" lon="6.67195">
        <ele>2330</ele>
        <time>2022-07-16T15:49:44Z</time>
      </trkpt>
      <trkpt lat="45.70811" lon="6.67195">
        <ele>2330</ele>
        <time>2022-07-16T15:49:45Z</time>
      </trkpt>
      <trkpt lat="45.70812" lon="6.67195">
        <ele>2331</ele>
        <time>2022-07-16T15:49:46Z</time>
      </trkpt>
      <trkpt lat="45.70813" lon="6.67195">
        <ele>2331</ele>
        <time>2022-07-16T15:49:47Z</time>
      </trkpt>
      <trkpt lat="45.70814" lon="6.67195">
        <ele>2331</ele>
        <time>2022-07-16T15:49:48Z</time>
      </trkpt>
      <trkpt lat="45.70815" lon="6.67195">
        <ele>2331</ele>
        <time>2022-07-16T15:49:49Z</time>
      </trkpt>
      <trkpt lat="45.70816" lon="6.67195">
        <ele>2331</ele>
        <time>2022-07-16T15:49:50Z</time>
      </trkpt>
      <trkpt lat="45.70817" lon="6.67195">
        <ele>2331</ele>
        <time>2022-07-16T15:49:51Z</time>
      </trkpt>
      <trkpt lat="45.70818" lon="6.67195">
        <ele>2331</ele>
        <time>2022-07-16T15:49:52Z</time>
      </trkpt>
      <trkpt lat="45.7082" lon="6.67194">
        <ele>2331</ele>
        <time>2022-07-16T15:49:53Z</time>
      </trkpt>
      <trkpt lat="45.70821" lon="6.67193">
        <ele>2331</ele>
        <time>2022-07-16T15:49:55Z</time>
      </trkpt>
      <trkpt lat="45.70822" lon="6.67192">
        <ele>2331</ele>
        <time>2022-07-16T15:49:56Z</time>
      </trkpt>
      <trkpt lat="45.70824" lon="6.67191">
        <ele>2331</ele>
        <time>2022-07-16T15:49:57Z</time>
      </trkpt>
      <trkpt lat="45.70825" lon="6.6719">
        <ele>2331</ele>
        <time>2022-07-16T15:49:58Z</time>
      </trkpt>
      <trkpt lat="45.70826" lon="6.67189">
        <ele>2332</ele>
        <time>2022-07-16T15:49:59Z</time>
      </trkpt>
      <trkpt lat="45.70829" lon="6.67185">
        <ele>2331</ele>
        <time>2022-07-16T15:50:02Z</time>
      </trkpt>
      <trkpt lat="45.70831" lon="6.67185">
        <ele>2331</ele>
        <time>2022-07-16T15:50:04Z</time>
      </trkpt>
      <trkpt lat="45.70833" lon="6.67186">
        <ele>2331</ele>
        <time>2022-07-16T15:50:05Z</time>
      </trkpt>
      <trkpt lat="45.70835" lon="6.67186">
        <ele>2331</ele>
        <time>2022-07-16T15:50:06Z</time>
      </trkpt>
      <trkpt lat="45.70837" lon="6.67187">
        <ele>2331</ele>
        <time>2022-07-16T15:50:07Z</time>
      </trkpt>
      <trkpt lat="45.70838" lon="6.67189">
        <ele>2331</ele>
        <time>2022-07-16T15:50:09Z</time>
      </trkpt>
      <trkpt lat="45.7084" lon="6.6719">
        <ele>2331</ele>
        <time>2022-07-16T15:50:11Z</time>
      </trkpt>
      <trkpt lat="45.70842" lon="6.67192">
        <ele>2331</ele>
        <time>2022-07-16T15:50:13Z</time>
      </trkpt>
      <trkpt lat="45.70843" lon="6.67195">
        <ele>2331</ele>
        <time>2022-07-16T15:50:15Z</time>
      </trkpt>
      <trkpt lat="45.70845" lon="6.67196">
        <ele>2330</ele>
        <time>2022-07-16T15:50:17Z</time>
      </trkpt>
      <trkpt lat="45.70847" lon="6.67197">
        <ele>2330</ele>
        <time>2022-07-16T15:50:19Z</time>
      </trkpt>
      <trkpt lat="45.70849" lon="6.67198">
        <ele>2331</ele>
        <time>2022-07-16T15:50:21Z</time>
      </trkpt>
      <trkpt lat="45.7085" lon="6.672">
        <ele>2331</ele>
        <time>2022-07-16T15:50:23Z</time>
      </trkpt>
      <trkpt lat="45.70851" lon="6.67203">
        <ele>2332</ele>
        <time>2022-07-16T15:50:26Z</time>
      </trkpt>
      <trkpt lat="45.70852" lon="6.67205">
        <ele>2333</ele>
        <time>2022-07-16T15:50:28Z</time>
      </trkpt>
      <trkpt lat="45.70853" lon="6.67206">
        <ele>2333</ele>
        <time>2022-07-16T15:50:29Z</time>
      </trkpt>
      <trkpt lat="45.70853" lon="6.67207">
        <ele>2333</ele>
        <time>2022-07-16T15:50:30Z</time>
      </trkpt>
      <trkpt lat="45.70854" lon="6.67208">
        <ele>2333</ele>
        <time>2022-07-16T15:50:31Z</time>
      </trkpt>
      <trkpt lat="45.70855" lon="6.67209">
        <ele>2333</ele>
        <time>2022-07-16T15:50:33Z</time>
      </trkpt>
      <trkpt lat="45.70857" lon="6.6721">
        <ele>2333</ele>
        <time>2022-07-16T15:50:35Z</time>
      </trkpt>
      <trkpt lat="45.70858" lon="6.6721">
        <ele>2333</ele>
        <time>2022-07-16T15:50:36Z</time>
      </trkpt>
      <trkpt lat="45.70859" lon="6.6721">
        <ele>2332</ele>
        <time>2022-07-16T15:50:37Z</time>
      </trkpt>
      <trkpt lat="45.7086" lon="6.67211">
        <ele>2332</ele>
        <time>2022-07-16T15:50:38Z</time>
      </trkpt>
      <trkpt lat="45.70861" lon="6.67211">
        <ele>2332</ele>
        <time>2022-07-16T15:50:39Z</time>
      </trkpt>
      <trkpt lat="45.70862" lon="6.67211">
        <ele>2332</ele>
        <time>2022-07-16T15:50:40Z</time>
      </trkpt>
      <trkpt lat="45.70863" lon="6.67211">
        <ele>2333</ele>
        <time>2022-07-16T15:50:41Z</time>
      </trkpt>
      <trkpt lat="45.70864" lon="6.67211">
        <ele>2334</ele>
        <time>2022-07-16T15:50:42Z</time>
      </trkpt>
      <trkpt lat="45.70865" lon="6.67211">
        <ele>2334</ele>
        <time>2022-07-16T15:50:43Z</time>
      </trkpt>
      <trkpt lat="45.70866" lon="6.67211">
        <ele>2334</ele>
        <time>2022-07-16T15:50:44Z</time>
      </trkpt>
      <trkpt lat="45.70867" lon="6.67212">
        <ele>2334</ele>
        <time>2022-07-16T15:50:45Z</time>
      </trkpt>
      <trkpt lat="45.70869" lon="6.67211">
        <ele>2334</ele>
        <time>2022-07-16T15:50:47Z</time>
      </trkpt>
      <trkpt lat="45.7087" lon="6.67211">
        <ele>2334</ele>
        <time>2022-07-16T15:50:48Z</time>
      </trkpt>
      <trkpt lat="45.70871" lon="6.6721">
        <ele>2334</ele>
        <time>2022-07-16T15:50:49Z</time>
      </trkpt>
      <trkpt lat="45.70872" lon="6.6721">
        <ele>2334</ele>
        <time>2022-07-16T15:50:50Z</time>
      </trkpt>
      <trkpt lat="45.70873" lon="6.6721">
        <ele>2334</ele>
        <time>2022-07-16T15:50:51Z</time>
      </trkpt>
      <trkpt lat="45.70874" lon="6.67209">
        <ele>2334</ele>
        <time>2022-07-16T15:50:52Z</time>
      </trkpt>
      <trkpt lat="45.70875" lon="6.67211">
        <ele>2334</ele>
        <time>2022-07-16T15:50:53Z</time>
      </trkpt>
      <trkpt lat="45.70878" lon="6.67211">
        <ele>2333</ele>
        <time>2022-07-16T15:50:57Z</time>
      </trkpt>
      <trkpt lat="45.70879" lon="6.67213">
        <ele>2332</ele>
        <time>2022-07-16T15:50:59Z</time>
      </trkpt>
      <trkpt lat="45.70881" lon="6.67215">
        <ele>2332</ele>
        <time>2022-07-16T15:51:01Z</time>
      </trkpt>
      <trkpt lat="45.70883" lon="6.67217">
        <ele>2332</ele>
        <time>2022-07-16T15:51:03Z</time>
      </trkpt>
      <trkpt lat="45.70884" lon="6.67219">
        <ele>2332</ele>
        <time>2022-07-16T15:51:05Z</time>
      </trkpt>
      <trkpt lat="45.70886" lon="6.6722">
        <ele>2332</ele>
        <time>2022-07-16T15:51:07Z</time>
      </trkpt>
      <trkpt lat="45.70888" lon="6.67222">
        <ele>2332</ele>
        <time>2022-07-16T15:51:09Z</time>
      </trkpt>
      <trkpt lat="45.70891" lon="6.67224">
        <ele>2332</ele>
        <time>2022-07-16T15:51:11Z</time>
      </trkpt>
      <trkpt lat="45.70892" lon="6.67225">
        <ele>2332</ele>
        <time>2022-07-16T15:51:12Z</time>
      </trkpt>
      <trkpt lat="45.70892" lon="6.67226">
        <ele>2333</ele>
        <time>2022-07-16T15:51:13Z</time>
      </trkpt>
      <trkpt lat="45.70893" lon="6.67227">
        <ele>2333</ele>
        <time>2022-07-16T15:51:14Z</time>
      </trkpt>
      <trkpt lat="45.70894" lon="6.67228">
        <ele>2332</ele>
        <time>2022-07-16T15:51:15Z</time>
      </trkpt>
      <trkpt lat="45.70895" lon="6.67228">
        <ele>2332</ele>
        <time>2022-07-16T15:51:16Z</time>
      </trkpt>
      <trkpt lat="45.70896" lon="6.67229">
        <ele>2332</ele>
        <time>2022-07-16T15:51:17Z</time>
      </trkpt>
      <trkpt lat="45.70897" lon="6.6723">
        <ele>2332</ele>
        <time>2022-07-16T15:51:18Z</time>
      </trkpt>
      <trkpt lat="45.70897" lon="6.67231">
        <ele>2333</ele>
        <time>2022-07-16T15:51:19Z</time>
      </trkpt>
      <trkpt lat="45.70901" lon="6.67244">
        <ele>2333</ele>
        <time>2022-07-16T15:51:30Z</time>
      </trkpt>
      <trkpt lat="45.70901" lon="6.67245">
        <ele>2332</ele>
        <time>2022-07-16T15:51:31Z</time>
      </trkpt>
      <trkpt lat="45.70902" lon="6.67247">
        <ele>2331</ele>
        <time>2022-07-16T15:51:32Z</time>
      </trkpt>
      <trkpt lat="45.70902" lon="6.67249">
        <ele>2331</ele>
        <time>2022-07-16T15:51:33Z</time>
      </trkpt>
      <trkpt lat="45.70903" lon="6.6725">
        <ele>2331</ele>
        <time>2022-07-16T15:51:34Z</time>
      </trkpt>
      <trkpt lat="45.70903" lon="6.67252">
        <ele>2331</ele>
        <time>2022-07-16T15:51:35Z</time>
      </trkpt>
      <trkpt lat="45.70904" lon="6.67254">
        <ele>2331</ele>
        <time>2022-07-16T15:51:36Z</time>
      </trkpt>
      <trkpt lat="45.70904" lon="6.67256">
        <ele>2331</ele>
        <time>2022-07-16T15:51:37Z</time>
      </trkpt>
      <trkpt lat="45.70904" lon="6.67258">
        <ele>2331</ele>
        <time>2022-07-16T15:51:38Z</time>
      </trkpt>
      <trkpt lat="45.70905" lon="6.67259">
        <ele>2331</ele>
        <time>2022-07-16T15:51:39Z</time>
      </trkpt>
      <trkpt lat="45.70905" lon="6.67261">
        <ele>2331</ele>
        <time>2022-07-16T15:51:40Z</time>
      </trkpt>
      <trkpt lat="45.70906" lon="6.67263">
        <ele>2331</ele>
        <time>2022-07-16T15:51:41Z</time>
      </trkpt>
      <trkpt lat="45.70906" lon="6.67265">
        <ele>2331</ele>
        <time>2022-07-16T15:51:42Z</time>
      </trkpt>
      <trkpt lat="45.70906" lon="6.67268">
        <ele>2331</ele>
        <time>2022-07-16T15:51:44Z</time>
      </trkpt>
      <trkpt lat="45.70907" lon="6.6727">
        <ele>2331</ele>
        <time>2022-07-16T15:51:46Z</time>
      </trkpt>
      <trkpt lat="45.70908" lon="6.67274">
        <ele>2331</ele>
        <time>2022-07-16T15:51:48Z</time>
      </trkpt>
      <trkpt lat="45.70908" lon="6.67278">
        <ele>2331</ele>
        <time>2022-07-16T15:51:50Z</time>
      </trkpt>
      <trkpt lat="45.70908" lon="6.67282">
        <ele>2331</ele>
        <time>2022-07-16T15:51:52Z</time>
      </trkpt>
      <trkpt lat="45.70907" lon="6.67285">
        <ele>2331</ele>
        <time>2022-07-16T15:51:54Z</time>
      </trkpt>
      <trkpt lat="45.70908" lon="6.67289">
        <ele>2332</ele>
        <time>2022-07-16T15:51:56Z</time>
      </trkpt>
      <trkpt lat="45.70908" lon="6.67293">
        <ele>2332</ele>
        <time>2022-07-16T15:51:58Z</time>
      </trkpt>
      <trkpt lat="45.70907" lon="6.67296">
        <ele>2332</ele>
        <time>2022-07-16T15:52:00Z</time>
      </trkpt>
      <trkpt lat="45.70908" lon="6.67299">
        <ele>2332</ele>
        <time>2022-07-16T15:52:02Z</time>
      </trkpt>
      <trkpt lat="45.70908" lon="6.67302">
        <ele>2332</ele>
        <time>2022-07-16T15:52:04Z</time>
      </trkpt>
      <trkpt lat="45.70908" lon="6.67305">
        <ele>2332</ele>
        <time>2022-07-16T15:52:07Z</time>
      </trkpt>
      <trkpt lat="45.70908" lon="6.67308">
        <ele>2332</ele>
        <time>2022-07-16T15:52:09Z</time>
      </trkpt>
      <trkpt lat="45.70908" lon="6.67311">
        <ele>2333</ele>
        <time>2022-07-16T15:52:11Z</time>
      </trkpt>
      <trkpt lat="45.70909" lon="6.67313">
        <ele>2333</ele>
        <time>2022-07-16T15:52:13Z</time>
      </trkpt>
      <trkpt lat="45.70908" lon="6.67316">
        <ele>2333</ele>
        <time>2022-07-16T15:52:15Z</time>
      </trkpt>
      <trkpt lat="45.70909" lon="6.67319">
        <ele>2333</ele>
        <time>2022-07-16T15:52:17Z</time>
      </trkpt>
      <trkpt lat="45.70909" lon="6.67323">
        <ele>2333</ele>
        <time>2022-07-16T15:52:19Z</time>
      </trkpt>
      <trkpt lat="45.7091" lon="6.67327">
        <ele>2332</ele>
        <time>2022-07-16T15:52:21Z</time>
      </trkpt>
      <trkpt lat="45.7091" lon="6.6733">
        <ele>2333</ele>
        <time>2022-07-16T15:52:23Z</time>
      </trkpt>
      <trkpt lat="45.7091" lon="6.67333">
        <ele>2333</ele>
        <time>2022-07-16T15:52:26Z</time>
      </trkpt>
      <trkpt lat="45.70911" lon="6.67336">
        <ele>2333</ele>
        <time>2022-07-16T15:52:28Z</time>
      </trkpt>
      <trkpt lat="45.70911" lon="6.67339">
        <ele>2333</ele>
        <time>2022-07-16T15:52:30Z</time>
      </trkpt>
      <trkpt lat="45.70911" lon="6.67343">
        <ele>2333</ele>
        <time>2022-07-16T15:52:32Z</time>
      </trkpt>
      <trkpt lat="45.70912" lon="6.67347">
        <ele>2334</ele>
        <time>2022-07-16T15:52:34Z</time>
      </trkpt>
      <trkpt lat="45.70913" lon="6.6735">
        <ele>2334</ele>
        <time>2022-07-16T15:52:36Z</time>
      </trkpt>
      <trkpt lat="45.70914" lon="6.67353">
        <ele>2334</ele>
        <time>2022-07-16T15:52:38Z</time>
      </trkpt>
      <trkpt lat="45.70914" lon="6.67356">
        <ele>2333</ele>
        <time>2022-07-16T15:52:40Z</time>
      </trkpt>
      <trkpt lat="45.70915" lon="6.6736">
        <ele>2333</ele>
        <time>2022-07-16T15:52:42Z</time>
      </trkpt>
      <trkpt lat="45.70915" lon="6.67363">
        <ele>2334</ele>
        <time>2022-07-16T15:52:44Z</time>
      </trkpt>
      <trkpt lat="45.70916" lon="6.67366">
        <ele>2334</ele>
        <time>2022-07-16T15:52:46Z</time>
      </trkpt>
      <trkpt lat="45.70918" lon="6.6737">
        <ele>2334</ele>
        <time>2022-07-16T15:52:48Z</time>
      </trkpt>
      <trkpt lat="45.70919" lon="6.67373">
        <ele>2333</ele>
        <time>2022-07-16T15:52:50Z</time>
      </trkpt>
      <trkpt lat="45.7092" lon="6.67377">
        <ele>2333</ele>
        <time>2022-07-16T15:52:52Z</time>
      </trkpt>
      <trkpt lat="45.7092" lon="6.6738">
        <ele>2334</ele>
        <time>2022-07-16T15:52:54Z</time>
      </trkpt>
      <trkpt lat="45.70922" lon="6.67382">
        <ele>2334</ele>
        <time>2022-07-16T15:52:56Z</time>
      </trkpt>
      <trkpt lat="45.70923" lon="6.67386">
        <ele>2334</ele>
        <time>2022-07-16T15:52:58Z</time>
      </trkpt>
      <trkpt lat="45.70924" lon="6.67389">
        <ele>2334</ele>
        <time>2022-07-16T15:53:00Z</time>
      </trkpt>
      <trkpt lat="45.70926" lon="6.67392">
        <ele>2334</ele>
        <time>2022-07-16T15:53:02Z</time>
      </trkpt>
      <trkpt lat="45.70926" lon="6.67396">
        <ele>2334</ele>
        <time>2022-07-16T15:53:04Z</time>
      </trkpt>
      <trkpt lat="45.70928" lon="6.67399">
        <ele>2334</ele>
        <time>2022-07-16T15:53:06Z</time>
      </trkpt>
      <trkpt lat="45.70929" lon="6.67403">
        <ele>2335</ele>
        <time>2022-07-16T15:53:08Z</time>
      </trkpt>
      <trkpt lat="45.7093" lon="6.67406">
        <ele>2335</ele>
        <time>2022-07-16T15:53:10Z</time>
      </trkpt>
      <trkpt lat="45.7093" lon="6.67409">
        <ele>2335</ele>
        <time>2022-07-16T15:53:12Z</time>
      </trkpt>
      <trkpt lat="45.7093" lon="6.67412">
        <ele>2335</ele>
        <time>2022-07-16T15:53:14Z</time>
      </trkpt>
      <trkpt lat="45.7093" lon="6.67415">
        <ele>2336</ele>
        <time>2022-07-16T15:53:16Z</time>
      </trkpt>
      <trkpt lat="45.70931" lon="6.67418">
        <ele>2336</ele>
        <time>2022-07-16T15:53:18Z</time>
      </trkpt>
      <trkpt lat="45.7093" lon="6.67421">
        <ele>2336</ele>
        <time>2022-07-16T15:53:21Z</time>
      </trkpt>
      <trkpt lat="45.70928" lon="6.67423">
        <ele>2336</ele>
        <time>2022-07-16T15:53:24Z</time>
      </trkpt>
      <trkpt lat="45.70928" lon="6.67426">
        <ele>2336</ele>
        <time>2022-07-16T15:53:27Z</time>
      </trkpt>
      <trkpt lat="45.70929" lon="6.67428">
        <ele>2337</ele>
        <time>2022-07-16T15:53:29Z</time>
      </trkpt>
      <trkpt lat="45.70929" lon="6.67432">
        <ele>2337</ele>
        <time>2022-07-16T15:53:31Z</time>
      </trkpt>
      <trkpt lat="45.70927" lon="6.67434">
        <ele>2338</ele>
        <time>2022-07-16T15:53:34Z</time>
      </trkpt>
      <trkpt lat="45.70926" lon="6.67434">
        <ele>2338</ele>
        <time>2022-07-16T15:53:37Z</time>
      </trkpt>
      <trkpt lat="45.70924" lon="6.67433">
        <ele>2340</ele>
        <time>2022-07-16T15:53:41Z</time>
      </trkpt>
      <trkpt lat="45.70922" lon="6.67431">
        <ele>2341</ele>
        <time>2022-07-16T15:53:45Z</time>
      </trkpt>
      <trkpt lat="45.7092" lon="6.67428">
        <ele>2341</ele>
        <time>2022-07-16T15:53:48Z</time>
      </trkpt>
      <trkpt lat="45.7092" lon="6.67425">
        <ele>2341</ele>
        <time>2022-07-16T15:53:50Z</time>
      </trkpt>
      <trkpt lat="45.70918" lon="6.67422">
        <ele>2340</ele>
        <time>2022-07-16T15:53:53Z</time>
      </trkpt>
      <trkpt lat="45.70917" lon="6.6742">
        <ele>2340</ele>
        <time>2022-07-16T15:53:55Z</time>
      </trkpt>
      <trkpt lat="45.70915" lon="6.67418">
        <ele>2341</ele>
        <time>2022-07-16T15:53:58Z</time>
      </trkpt>
      <trkpt lat="45.70913" lon="6.67417">
        <ele>2342</ele>
        <time>2022-07-16T15:54:02Z</time>
      </trkpt>
      <trkpt lat="45.70912" lon="6.67415">
        <ele>2343</ele>
        <time>2022-07-16T15:54:06Z</time>
      </trkpt>
      <trkpt lat="45.70909" lon="6.67414">
        <ele>2344</ele>
        <time>2022-07-16T15:54:10Z</time>
      </trkpt>
      <trkpt lat="45.70907" lon="6.67413">
        <ele>2346</ele>
        <time>2022-07-16T15:54:14Z</time>
      </trkpt>
      <trkpt lat="45.70906" lon="6.6741">
        <ele>2347</ele>
        <time>2022-07-16T15:54:17Z</time>
      </trkpt>
      <trkpt lat="45.70904" lon="6.6741">
        <ele>2347</ele>
        <time>2022-07-16T15:54:21Z</time>
      </trkpt>
      <trkpt lat="45.70902" lon="6.67408">
        <ele>2347</ele>
        <time>2022-07-16T15:54:24Z</time>
      </trkpt>
      <trkpt lat="45.70901" lon="6.67406">
        <ele>2348</ele>
        <time>2022-07-16T15:54:26Z</time>
      </trkpt>
      <trkpt lat="45.70899" lon="6.67404">
        <ele>2348</ele>
        <time>2022-07-16T15:54:28Z</time>
      </trkpt>
      <trkpt lat="45.70898" lon="6.67402">
        <ele>2348</ele>
        <time>2022-07-16T15:54:30Z</time>
      </trkpt>
      <trkpt lat="45.70897" lon="6.674">
        <ele>2349</ele>
        <time>2022-07-16T15:54:32Z</time>
      </trkpt>
      <trkpt lat="45.70895" lon="6.67397">
        <ele>2349</ele>
        <time>2022-07-16T15:54:34Z</time>
      </trkpt>
      <trkpt lat="45.70894" lon="6.67395">
        <ele>2349</ele>
        <time>2022-07-16T15:54:36Z</time>
      </trkpt>
      <trkpt lat="45.70893" lon="6.67393">
        <ele>2350</ele>
        <time>2022-07-16T15:54:39Z</time>
      </trkpt>
      <trkpt lat="45.70892" lon="6.6739">
        <ele>2350</ele>
        <time>2022-07-16T15:54:42Z</time>
      </trkpt>
      <trkpt lat="45.70891" lon="6.67388">
        <ele>2352</ele>
        <time>2022-07-16T15:54:45Z</time>
      </trkpt>
      <trkpt lat="45.70889" lon="6.67386">
        <ele>2352</ele>
        <time>2022-07-16T15:54:48Z</time>
      </trkpt>
      <trkpt lat="45.70887" lon="6.67387">
        <ele>2353</ele>
        <time>2022-07-16T15:54:51Z</time>
      </trkpt>
      <trkpt lat="45.70885" lon="6.67389">
        <ele>2353</ele>
        <time>2022-07-16T15:54:54Z</time>
      </trkpt>
      <trkpt lat="45.70885" lon="6.67392">
        <ele>2353</ele>
        <time>2022-07-16T15:54:57Z</time>
      </trkpt>
      <trkpt lat="45.70884" lon="6.67393">
        <ele>2353</ele>
        <time>2022-07-16T15:54:59Z</time>
      </trkpt>
      <trkpt lat="45.70884" lon="6.67395">
        <ele>2354</ele>
        <time>2022-07-16T15:55:00Z</time>
      </trkpt>
      <trkpt lat="45.70884" lon="6.67396">
        <ele>2354</ele>
        <time>2022-07-16T15:55:01Z</time>
      </trkpt>
      <trkpt lat="45.70883" lon="6.67398">
        <ele>2355</ele>
        <time>2022-07-16T15:55:02Z</time>
      </trkpt>
      <trkpt lat="45.70883" lon="6.67399">
        <ele>2355</ele>
        <time>2022-07-16T15:55:03Z</time>
      </trkpt>
      <trkpt lat="45.70882" lon="6.67401">
        <ele>2355</ele>
        <time>2022-07-16T15:55:04Z</time>
      </trkpt>
      <trkpt lat="45.70882" lon="6.67402">
        <ele>2355</ele>
        <time>2022-07-16T15:55:05Z</time>
      </trkpt>
      <trkpt lat="45.70882" lon="6.67404">
        <ele>2355</ele>
        <time>2022-07-16T15:55:06Z</time>
      </trkpt>
      <trkpt lat="45.70881" lon="6.67405">
        <ele>2355</ele>
        <time>2022-07-16T15:55:07Z</time>
      </trkpt>
      <trkpt lat="45.70882" lon="6.67407">
        <ele>2355</ele>
        <time>2022-07-16T15:55:08Z</time>
      </trkpt>
      <trkpt lat="45.70882" lon="6.67408">
        <ele>2355</ele>
        <time>2022-07-16T15:55:09Z</time>
      </trkpt>
      <trkpt lat="45.70882" lon="6.67409">
        <ele>2356</ele>
        <time>2022-07-16T15:55:10Z</time>
      </trkpt>
      <trkpt lat="45.70882" lon="6.6741">
        <ele>2357</ele>
        <time>2022-07-16T15:55:11Z</time>
      </trkpt>
      <trkpt lat="45.70882" lon="6.67411">
        <ele>2357</ele>
        <time>2022-07-16T15:55:12Z</time>
      </trkpt>
      <trkpt lat="45.70883" lon="6.67412">
        <ele>2357</ele>
        <time>2022-07-16T15:55:13Z</time>
      </trkpt>
      <trkpt lat="45.70883" lon="6.67414">
        <ele>2357</ele>
        <time>2022-07-16T15:55:14Z</time>
      </trkpt>
      <trkpt lat="45.70883" lon="6.67415">
        <ele>2356</ele>
        <time>2022-07-16T15:55:15Z</time>
      </trkpt>
      <trkpt lat="45.70883" lon="6.67419">
        <ele>2357</ele>
        <time>2022-07-16T15:55:20Z</time>
      </trkpt>
      <trkpt lat="45.70884" lon="6.67421">
        <ele>2357</ele>
        <time>2022-07-16T15:55:23Z</time>
      </trkpt>
      <trkpt lat="45.70884" lon="6.67422">
        <ele>2358</ele>
        <time>2022-07-16T15:55:24Z</time>
      </trkpt>
      <trkpt lat="45.70884" lon="6.67423">
        <ele>2359</ele>
        <time>2022-07-16T15:55:25Z</time>
      </trkpt>
      <trkpt lat="45.70884" lon="6.67424">
        <ele>2359</ele>
        <time>2022-07-16T15:55:26Z</time>
      </trkpt>
      <trkpt lat="45.70884" lon="6.67425">
        <ele>2359</ele>
        <time>2022-07-16T15:55:27Z</time>
      </trkpt>
      <trkpt lat="45.70884" lon="6.67426">
        <ele>2359</ele>
        <time>2022-07-16T15:55:28Z</time>
      </trkpt>
      <trkpt lat="45.70884" lon="6.67427">
        <ele>2359</ele>
        <time>2022-07-16T15:55:29Z</time>
      </trkpt>
      <trkpt lat="45.70884" lon="6.67428">
        <ele>2359</ele>
        <time>2022-07-16T15:55:30Z</time>
      </trkpt>
      <trkpt lat="45.70884" lon="6.67429">
        <ele>2359</ele>
        <time>2022-07-16T15:55:31Z</time>
      </trkpt>
      <trkpt lat="45.70884" lon="6.6743">
        <ele>2359</ele>
        <time>2022-07-16T15:55:32Z</time>
      </trkpt>
      <trkpt lat="45.70884" lon="6.67431">
        <ele>2359</ele>
        <time>2022-07-16T15:55:33Z</time>
      </trkpt>
      <trkpt lat="45.70884" lon="6.67432">
        <ele>2359</ele>
        <time>2022-07-16T15:55:35Z</time>
      </trkpt>
      <trkpt lat="45.70884" lon="6.67433">
        <ele>2359</ele>
        <time>2022-07-16T15:55:36Z</time>
      </trkpt>
      <trkpt lat="45.70884" lon="6.67434">
        <ele>2359</ele>
        <time>2022-07-16T15:55:37Z</time>
      </trkpt>
      <trkpt lat="45.70884" lon="6.67438">
        <ele>2360</ele>
        <time>2022-07-16T15:55:41Z</time>
      </trkpt>
      <trkpt lat="45.70884" lon="6.67439">
        <ele>2360</ele>
        <time>2022-07-16T15:55:42Z</time>
      </trkpt>
      <trkpt lat="45.70883" lon="6.6744">
        <ele>2361</ele>
        <time>2022-07-16T15:55:43Z</time>
      </trkpt>
      <trkpt lat="45.70883" lon="6.67441">
        <ele>2361</ele>
        <time>2022-07-16T15:55:44Z</time>
      </trkpt>
      <trkpt lat="45.70883" lon="6.67442">
        <ele>2361</ele>
        <time>2022-07-16T15:55:45Z</time>
      </trkpt>
      <trkpt lat="45.70883" lon="6.67443">
        <ele>2361</ele>
        <time>2022-07-16T15:55:46Z</time>
      </trkpt>
      <trkpt lat="45.70883" lon="6.67444">
        <ele>2361</ele>
        <time>2022-07-16T15:55:47Z</time>
      </trkpt>
      <trkpt lat="45.70882" lon="6.67445">
        <ele>2361</ele>
        <time>2022-07-16T15:55:48Z</time>
      </trkpt>
      <trkpt lat="45.70882" lon="6.67446">
        <ele>2361</ele>
        <time>2022-07-16T15:55:49Z</time>
      </trkpt>
      <trkpt lat="45.70882" lon="6.67447">
        <ele>2362</ele>
        <time>2022-07-16T15:55:50Z</time>
      </trkpt>
      <trkpt lat="45.70882" lon="6.67448">
        <ele>2362</ele>
        <time>2022-07-16T15:55:51Z</time>
      </trkpt>
      <trkpt lat="45.70882" lon="6.67449">
        <ele>2362</ele>
        <time>2022-07-16T15:55:52Z</time>
      </trkpt>
      <trkpt lat="45.70881" lon="6.6745">
        <ele>2362</ele>
        <time>2022-07-16T15:55:53Z</time>
      </trkpt>
      <trkpt lat="45.70881" lon="6.67451">
        <ele>2363</ele>
        <time>2022-07-16T15:55:54Z</time>
      </trkpt>
      <trkpt lat="45.70881" lon="6.67452">
        <ele>2363</ele>
        <time>2022-07-16T15:55:55Z</time>
      </trkpt>
      <trkpt lat="45.70881" lon="6.67453">
        <ele>2363</ele>
        <time>2022-07-16T15:55:56Z</time>
      </trkpt>
      <trkpt lat="45.70881" lon="6.67454">
        <ele>2364</ele>
        <time>2022-07-16T15:55:57Z</time>
      </trkpt>
      <trkpt lat="45.7088" lon="6.67455">
        <ele>2364</ele>
        <time>2022-07-16T15:55:58Z</time>
      </trkpt>
      <trkpt lat="45.7088" lon="6.67456">
        <ele>2364</ele>
        <time>2022-07-16T15:55:59Z</time>
      </trkpt>
      <trkpt lat="45.7088" lon="6.67457">
        <ele>2364</ele>
        <time>2022-07-16T15:56:00Z</time>
      </trkpt>
      <trkpt lat="45.70879" lon="6.67458">
        <ele>2364</ele>
        <time>2022-07-16T15:56:01Z</time>
      </trkpt>
      <trkpt lat="45.70879" lon="6.67459">
        <ele>2364</ele>
        <time>2022-07-16T15:56:02Z</time>
      </trkpt>
      <trkpt lat="45.70879" lon="6.6746">
        <ele>2364</ele>
        <time>2022-07-16T15:56:03Z</time>
      </trkpt>
      <trkpt lat="45.70878" lon="6.67461">
        <ele>2365</ele>
        <time>2022-07-16T15:56:04Z</time>
      </trkpt>
      <trkpt lat="45.70878" lon="6.67463">
        <ele>2365</ele>
        <time>2022-07-16T15:56:05Z</time>
      </trkpt>
      <trkpt lat="45.70878" lon="6.67464">
        <ele>2365</ele>
        <time>2022-07-16T15:56:06Z</time>
      </trkpt>
      <trkpt lat="45.70878" lon="6.67465">
        <ele>2365</ele>
        <time>2022-07-16T15:56:07Z</time>
      </trkpt>
      <trkpt lat="45.70877" lon="6.67466">
        <ele>2365</ele>
        <time>2022-07-16T15:56:09Z</time>
      </trkpt>
      <trkpt lat="45.70877" lon="6.67467">
        <ele>2366</ele>
        <time>2022-07-16T15:56:10Z</time>
      </trkpt>
      <trkpt lat="45.70877" lon="6.67468">
        <ele>2366</ele>
        <time>2022-07-16T15:56:11Z</time>
      </trkpt>
      <trkpt lat="45.70877" lon="6.67469">
        <ele>2367</ele>
        <time>2022-07-16T15:56:12Z</time>
      </trkpt>
      <trkpt lat="45.70877" lon="6.6747">
        <ele>2367</ele>
        <time>2022-07-16T15:56:13Z</time>
      </trkpt>
      <trkpt lat="45.70877" lon="6.67471">
        <ele>2367</ele>
        <time>2022-07-16T15:56:15Z</time>
      </trkpt>
      <trkpt lat="45.70876" lon="6.67471">
        <ele>2367</ele>
        <time>2022-07-16T15:56:16Z</time>
      </trkpt>
      <trkpt lat="45.70876" lon="6.67472">
        <ele>2367</ele>
        <time>2022-07-16T15:56:17Z</time>
      </trkpt>
      <trkpt lat="45.70876" lon="6.67473">
        <ele>2367</ele>
        <time>2022-07-16T15:56:18Z</time>
      </trkpt>
      <trkpt lat="45.70876" lon="6.67474">
        <ele>2368</ele>
        <time>2022-07-16T15:56:19Z</time>
      </trkpt>
      <trkpt lat="45.70876" lon="6.67475">
        <ele>2368</ele>
        <time>2022-07-16T15:56:20Z</time>
      </trkpt>
      <trkpt lat="45.70876" lon="6.67476">
        <ele>2368</ele>
        <time>2022-07-16T15:56:21Z</time>
      </trkpt>
      <trkpt lat="45.70876" lon="6.67477">
        <ele>2368</ele>
        <time>2022-07-16T15:56:22Z</time>
      </trkpt>
      <trkpt lat="45.70876" lon="6.67478">
        <ele>2368</ele>
        <time>2022-07-16T15:56:23Z</time>
      </trkpt>
      <trkpt lat="45.70876" lon="6.67479">
        <ele>2368</ele>
        <time>2022-07-16T15:56:24Z</time>
      </trkpt>
      <trkpt lat="45.70876" lon="6.6748">
        <ele>2368</ele>
        <time>2022-07-16T15:56:26Z</time>
      </trkpt>
      <trkpt lat="45.70876" lon="6.67481">
        <ele>2368</ele>
        <time>2022-07-16T15:56:27Z</time>
      </trkpt>
      <trkpt lat="45.70876" lon="6.67482">
        <ele>2368</ele>
        <time>2022-07-16T15:56:28Z</time>
      </trkpt>
      <trkpt lat="45.70877" lon="6.67483">
        <ele>2369</ele>
        <time>2022-07-16T15:56:29Z</time>
      </trkpt>
      <trkpt lat="45.70877" lon="6.67484">
        <ele>2369</ele>
        <time>2022-07-16T15:56:30Z</time>
      </trkpt>
      <trkpt lat="45.70877" lon="6.67485">
        <ele>2369</ele>
        <time>2022-07-16T15:56:31Z</time>
      </trkpt>
      <trkpt lat="45.70877" lon="6.67486">
        <ele>2369</ele>
        <time>2022-07-16T15:56:32Z</time>
      </trkpt>
      <trkpt lat="45.70878" lon="6.67489">
        <ele>2369</ele>
        <time>2022-07-16T15:56:35Z</time>
      </trkpt>
      <trkpt lat="45.70878" lon="6.67492">
        <ele>2370</ele>
        <time>2022-07-16T15:56:37Z</time>
      </trkpt>
      <trkpt lat="45.70877" lon="6.67495">
        <ele>2371</ele>
        <time>2022-07-16T15:56:40Z</time>
      </trkpt>
      <trkpt lat="45.70876" lon="6.67498">
        <ele>2371</ele>
        <time>2022-07-16T15:56:43Z</time>
      </trkpt>
      <trkpt lat="45.70875" lon="6.675">
        <ele>2372</ele>
        <time>2022-07-16T15:56:48Z</time>
      </trkpt>
      <trkpt lat="45.70875" lon="6.67501">
        <ele>2372</ele>
        <time>2022-07-16T15:56:49Z</time>
      </trkpt>
      <trkpt lat="45.70875" lon="6.67502">
        <ele>2372</ele>
        <time>2022-07-16T15:56:50Z</time>
      </trkpt>
      <trkpt lat="45.70875" lon="6.67503">
        <ele>2372</ele>
        <time>2022-07-16T15:56:51Z</time>
      </trkpt>
      <trkpt lat="45.70875" lon="6.67504">
        <ele>2372</ele>
        <time>2022-07-16T15:56:53Z</time>
      </trkpt>
      <trkpt lat="45.70875" lon="6.67505">
        <ele>2373</ele>
        <time>2022-07-16T15:56:54Z</time>
      </trkpt>
      <trkpt lat="45.70875" lon="6.67506">
        <ele>2373</ele>
        <time>2022-07-16T15:56:55Z</time>
      </trkpt>
      <trkpt lat="45.70875" lon="6.67508">
        <ele>2373</ele>
        <time>2022-07-16T15:56:56Z</time>
      </trkpt>
      <trkpt lat="45.70875" lon="6.67509">
        <ele>2373</ele>
        <time>2022-07-16T15:56:58Z</time>
      </trkpt>
      <trkpt lat="45.70875" lon="6.6751">
        <ele>2373</ele>
        <time>2022-07-16T15:56:59Z</time>
      </trkpt>
      <trkpt lat="45.70875" lon="6.67511">
        <ele>2374</ele>
        <time>2022-07-16T15:57:00Z</time>
      </trkpt>
      <trkpt lat="45.70875" lon="6.67512">
        <ele>2374</ele>
        <time>2022-07-16T15:57:01Z</time>
      </trkpt>
      <trkpt lat="45.70874" lon="6.67513">
        <ele>2374</ele>
        <time>2022-07-16T15:57:02Z</time>
      </trkpt>
      <trkpt lat="45.70874" lon="6.67514">
        <ele>2374</ele>
        <time>2022-07-16T15:57:03Z</time>
      </trkpt>
      <trkpt lat="45.70874" lon="6.67515">
        <ele>2374</ele>
        <time>2022-07-16T15:57:04Z</time>
      </trkpt>
      <trkpt lat="45.70874" lon="6.67516">
        <ele>2375</ele>
        <time>2022-07-16T15:57:05Z</time>
      </trkpt>
      <trkpt lat="45.70873" lon="6.67517">
        <ele>2375</ele>
        <time>2022-07-16T15:57:07Z</time>
      </trkpt>
      <trkpt lat="45.70873" lon="6.67518">
        <ele>2376</ele>
        <time>2022-07-16T15:57:08Z</time>
      </trkpt>
      <trkpt lat="45.70873" lon="6.67519">
        <ele>2376</ele>
        <time>2022-07-16T15:57:09Z</time>
      </trkpt>
      <trkpt lat="45.70873" lon="6.6752">
        <ele>2376</ele>
        <time>2022-07-16T15:57:10Z</time>
      </trkpt>
      <trkpt lat="45.70872" lon="6.67523">
        <ele>2378</ele>
        <time>2022-07-16T15:57:14Z</time>
      </trkpt>
      <trkpt lat="45.70872" lon="6.67526">
        <ele>2378</ele>
        <time>2022-07-16T15:57:18Z</time>
      </trkpt>
      <trkpt lat="45.70872" lon="6.67527">
        <ele>2378</ele>
        <time>2022-07-16T15:57:19Z</time>
      </trkpt>
      <trkpt lat="45.70872" lon="6.67528">
        <ele>2379</ele>
        <time>2022-07-16T15:57:21Z</time>
      </trkpt>
      <trkpt lat="45.70872" lon="6.67529">
        <ele>2379</ele>
        <time>2022-07-16T15:57:22Z</time>
      </trkpt>
      <trkpt lat="45.70872" lon="6.6753">
        <ele>2379</ele>
        <time>2022-07-16T15:57:23Z</time>
      </trkpt>
      <trkpt lat="45.70871" lon="6.67531">
        <ele>2379</ele>
        <time>2022-07-16T15:57:24Z</time>
      </trkpt>
      <trkpt lat="45.70871" lon="6.67532">
        <ele>2379</ele>
        <time>2022-07-16T15:57:25Z</time>
      </trkpt>
      <trkpt lat="45.70871" lon="6.67533">
        <ele>2380</ele>
        <time>2022-07-16T15:57:26Z</time>
      </trkpt>
      <trkpt lat="45.70871" lon="6.67536">
        <ele>2380</ele>
        <time>2022-07-16T15:57:30Z</time>
      </trkpt>
      <trkpt lat="45.70872" lon="6.67539">
        <ele>2381</ele>
        <time>2022-07-16T15:57:33Z</time>
      </trkpt>
      <trkpt lat="45.70872" lon="6.67543">
        <ele>2382</ele>
        <time>2022-07-16T15:57:38Z</time>
      </trkpt>
      <trkpt lat="45.70872" lon="6.67544">
        <ele>2382</ele>
        <time>2022-07-16T15:57:39Z</time>
      </trkpt>
      <trkpt lat="45.70872" lon="6.67545">
        <ele>2382</ele>
        <time>2022-07-16T15:57:40Z</time>
      </trkpt>
      <trkpt lat="45.70871" lon="6.67546">
        <ele>2383</ele>
        <time>2022-07-16T15:57:41Z</time>
      </trkpt>
      <trkpt lat="45.70871" lon="6.67547">
        <ele>2383</ele>
        <time>2022-07-16T15:57:42Z</time>
      </trkpt>
      <trkpt lat="45.70871" lon="6.67548">
        <ele>2383</ele>
        <time>2022-07-16T15:57:43Z</time>
      </trkpt>
      <trkpt lat="45.70871" lon="6.67549">
        <ele>2384</ele>
        <time>2022-07-16T15:57:44Z</time>
      </trkpt>
      <trkpt lat="45.7087" lon="6.6755">
        <ele>2384</ele>
        <time>2022-07-16T15:57:45Z</time>
      </trkpt>
      <trkpt lat="45.7087" lon="6.67551">
        <ele>2384</ele>
        <time>2022-07-16T15:57:47Z</time>
      </trkpt>
      <trkpt lat="45.7087" lon="6.67552">
        <ele>2384</ele>
        <time>2022-07-16T15:57:48Z</time>
      </trkpt>
      <trkpt lat="45.70869" lon="6.67553">
        <ele>2384</ele>
        <time>2022-07-16T15:57:50Z</time>
      </trkpt>
      <trkpt lat="45.70869" lon="6.67554">
        <ele>2384</ele>
        <time>2022-07-16T15:57:51Z</time>
      </trkpt>
      <trkpt lat="45.70868" lon="6.67555">
        <ele>2385</ele>
        <time>2022-07-16T15:57:53Z</time>
      </trkpt>
      <trkpt lat="45.70867" lon="6.67556">
        <ele>2385</ele>
        <time>2022-07-16T15:57:56Z</time>
      </trkpt>
      <trkpt lat="45.70867" lon="6.67557">
        <ele>2385</ele>
        <time>2022-07-16T15:57:58Z</time>
      </trkpt>
      <trkpt lat="45.70866" lon="6.67557">
        <ele>2385</ele>
        <time>2022-07-16T15:57:59Z</time>
      </trkpt>
      <trkpt lat="45.70865" lon="6.67555">
        <ele>2387</ele>
        <time>2022-07-16T15:58:03Z</time>
      </trkpt>
      <trkpt lat="45.70864" lon="6.67552">
        <ele>2388</ele>
        <time>2022-07-16T15:58:07Z</time>
      </trkpt>
      <trkpt lat="45.70863" lon="6.6755">
        <ele>2389</ele>
        <time>2022-07-16T15:58:11Z</time>
      </trkpt>
      <trkpt lat="45.70862" lon="6.67547">
        <ele>2389</ele>
        <time>2022-07-16T15:58:14Z</time>
      </trkpt>
      <trkpt lat="45.70861" lon="6.67544">
        <ele>2390</ele>
        <time>2022-07-16T15:58:17Z</time>
      </trkpt>
      <trkpt lat="45.70859" lon="6.67543">
        <ele>2390</ele>
        <time>2022-07-16T15:58:21Z</time>
      </trkpt>
      <trkpt lat="45.70858" lon="6.67541">
        <ele>2391</ele>
        <time>2022-07-16T15:58:27Z</time>
      </trkpt>
      <trkpt lat="45.70856" lon="6.67539">
        <ele>2394</ele>
        <time>2022-07-16T15:58:34Z</time>
      </trkpt>
      <trkpt lat="45.70854" lon="6.67538">
        <ele>2395</ele>
        <time>2022-07-16T15:58:38Z</time>
      </trkpt>
      <trkpt lat="45.70853" lon="6.67536">
        <ele>2395</ele>
        <time>2022-07-16T15:58:42Z</time>
      </trkpt>
      <trkpt lat="45.70851" lon="6.67534">
        <ele>2396</ele>
        <time>2022-07-16T15:58:46Z</time>
      </trkpt>
      <trkpt lat="45.70849" lon="6.67534">
        <ele>2396</ele>
        <time>2022-07-16T15:58:51Z</time>
      </trkpt>
      <trkpt lat="45.70847" lon="6.67532">
        <ele>2397</ele>
        <time>2022-07-16T15:58:54Z</time>
      </trkpt>
      <trkpt lat="45.70846" lon="6.6753">
        <ele>2398</ele>
        <time>2022-07-16T15:58:57Z</time>
      </trkpt>
      <trkpt lat="45.70844" lon="6.67528">
        <ele>2398</ele>
        <time>2022-07-16T15:59:01Z</time>
      </trkpt>
      <trkpt lat="45.70843" lon="6.67526">
        <ele>2398</ele>
        <time>2022-07-16T15:59:05Z</time>
      </trkpt>
      <trkpt lat="45.7084" lon="6.67525">
        <ele>2399</ele>
        <time>2022-07-16T15:59:10Z</time>
      </trkpt>
      <trkpt lat="45.70839" lon="6.67522">
        <ele>2399</ele>
        <time>2022-07-16T15:59:14Z</time>
      </trkpt>
      <trkpt lat="45.70839" lon="6.67519">
        <ele>2401</ele>
        <time>2022-07-16T15:59:16Z</time>
      </trkpt>
      <trkpt lat="45.70837" lon="6.67516">
        <ele>2401</ele>
        <time>2022-07-16T15:59:19Z</time>
      </trkpt>
      <trkpt lat="45.70836" lon="6.67514">
        <ele>2401</ele>
        <time>2022-07-16T15:59:22Z</time>
      </trkpt>
      <trkpt lat="45.70835" lon="6.67512">
        <ele>2402</ele>
        <time>2022-07-16T15:59:26Z</time>
      </trkpt>
      <trkpt lat="45.70833" lon="6.67511">
        <ele>2404</ele>
        <time>2022-07-16T15:59:30Z</time>
      </trkpt>
      <trkpt lat="45.70831" lon="6.67511">
        <ele>2405</ele>
        <time>2022-07-16T15:59:35Z</time>
      </trkpt>
      <trkpt lat="45.7083" lon="6.67513">
        <ele>2406</ele>
        <time>2022-07-16T15:59:38Z</time>
      </trkpt>
      <trkpt lat="45.70829" lon="6.67516">
        <ele>2407</ele>
        <time>2022-07-16T15:59:42Z</time>
      </trkpt>
      <trkpt lat="45.70828" lon="6.67518">
        <ele>2408</ele>
        <time>2022-07-16T15:59:45Z</time>
      </trkpt>
      <trkpt lat="45.70826" lon="6.67521">
        <ele>2408</ele>
        <time>2022-07-16T15:59:50Z</time>
      </trkpt>
      <trkpt lat="45.70825" lon="6.67525">
        <ele>2409</ele>
        <time>2022-07-16T15:59:56Z</time>
      </trkpt>
      <trkpt lat="45.70825" lon="6.67529">
        <ele>2410</ele>
        <time>2022-07-16T16:00:01Z</time>
      </trkpt>
      <trkpt lat="45.70823" lon="6.67528">
        <ele>2411</ele>
        <time>2022-07-16T16:00:05Z</time>
      </trkpt>
      <trkpt lat="45.70821" lon="6.67526">
        <ele>2413</ele>
        <time>2022-07-16T16:00:10Z</time>
      </trkpt>
      <trkpt lat="45.7082" lon="6.67524">
        <ele>2414</ele>
        <time>2022-07-16T16:00:13Z</time>
      </trkpt>
      <trkpt lat="45.70818" lon="6.67522">
        <ele>2415</ele>
        <time>2022-07-16T16:00:17Z</time>
      </trkpt>
      <trkpt lat="45.70817" lon="6.67519">
        <ele>2416</ele>
        <time>2022-07-16T16:00:22Z</time>
      </trkpt>
      <trkpt lat="45.70815" lon="6.6752">
        <ele>2417</ele>
        <time>2022-07-16T16:00:30Z</time>
      </trkpt>
      <trkpt lat="45.70815" lon="6.6752">
        <ele>2418</ele>
        <time>2022-07-16T16:00:33Z</time>
      </trkpt>
      <trkpt lat="45.70814" lon="6.67523">
        <ele>2419</ele>
        <time>2022-07-16T16:00:40Z</time>
      </trkpt>
      <trkpt lat="45.70813" lon="6.67526">
        <ele>2420</ele>
        <time>2022-07-16T16:00:46Z</time>
      </trkpt>
      <trkpt lat="45.70812" lon="6.67529">
        <ele>2420</ele>
        <time>2022-07-16T16:00:49Z</time>
      </trkpt>
      <trkpt lat="45.70813" lon="6.67532">
        <ele>2421</ele>
        <time>2022-07-16T16:00:53Z</time>
      </trkpt>
      <trkpt lat="45.70813" lon="6.67536">
        <ele>2422</ele>
        <time>2022-07-16T16:00:58Z</time>
      </trkpt>
      <trkpt lat="45.70811" lon="6.67539">
        <ele>2423</ele>
        <time>2022-07-16T16:01:03Z</time>
      </trkpt>
      <trkpt lat="45.7081" lon="6.67542">
        <ele>2424</ele>
        <time>2022-07-16T16:01:06Z</time>
      </trkpt>
      <trkpt lat="45.70808" lon="6.67544">
        <ele>2425</ele>
        <time>2022-07-16T16:01:09Z</time>
      </trkpt>
      <trkpt lat="45.70808" lon="6.67547">
        <ele>2425</ele>
        <time>2022-07-16T16:01:19Z</time>
      </trkpt>
      <trkpt lat="45.70806" lon="6.67549">
        <ele>2428</ele>
        <time>2022-07-16T16:01:23Z</time>
      </trkpt>
      <trkpt lat="45.70805" lon="6.67551">
        <ele>2428</ele>
        <time>2022-07-16T16:01:28Z</time>
      </trkpt>
      <trkpt lat="45.70803" lon="6.67549">
        <ele>2430</ele>
        <time>2022-07-16T16:01:31Z</time>
      </trkpt>
      <trkpt lat="45.70802" lon="6.67547">
        <ele>2431</ele>
        <time>2022-07-16T16:01:35Z</time>
      </trkpt>
      <trkpt lat="45.70802" lon="6.67549">
        <ele>2432</ele>
        <time>2022-07-16T16:01:44Z</time>
      </trkpt>
      <trkpt lat="45.70803" lon="6.67552">
        <ele>2432</ele>
        <time>2022-07-16T16:01:46Z</time>
      </trkpt>
      <trkpt lat="45.70803" lon="6.67554">
        <ele>2432</ele>
        <time>2022-07-16T16:01:48Z</time>
      </trkpt>
      <trkpt lat="45.70804" lon="6.67557">
        <ele>2432</ele>
        <time>2022-07-16T16:01:50Z</time>
      </trkpt>
      <trkpt lat="45.70805" lon="6.6756">
        <ele>2432</ele>
        <time>2022-07-16T16:01:52Z</time>
      </trkpt>
      <trkpt lat="45.70806" lon="6.67563">
        <ele>2433</ele>
        <time>2022-07-16T16:01:54Z</time>
      </trkpt>
      <trkpt lat="45.70806" lon="6.67566">
        <ele>2433</ele>
        <time>2022-07-16T16:01:56Z</time>
      </trkpt>
      <trkpt lat="45.70807" lon="6.67568">
        <ele>2433</ele>
        <time>2022-07-16T16:01:58Z</time>
      </trkpt>
      <trkpt lat="45.70808" lon="6.67571">
        <ele>2434</ele>
        <time>2022-07-16T16:02:00Z</time>
      </trkpt>
      <trkpt lat="45.70809" lon="6.67573">
        <ele>2433</ele>
        <time>2022-07-16T16:02:02Z</time>
      </trkpt>
      <trkpt lat="45.70809" lon="6.67576">
        <ele>2434</ele>
        <time>2022-07-16T16:02:04Z</time>
      </trkpt>
      <trkpt lat="45.7081" lon="6.67579">
        <ele>2433</ele>
        <time>2022-07-16T16:02:06Z</time>
      </trkpt>
      <trkpt lat="45.70811" lon="6.67582">
        <ele>2434</ele>
        <time>2022-07-16T16:02:08Z</time>
      </trkpt>
      <trkpt lat="45.70811" lon="6.67585">
        <ele>2434</ele>
        <time>2022-07-16T16:02:11Z</time>
      </trkpt>
      <trkpt lat="45.70812" lon="6.67588">
        <ele>2434</ele>
        <time>2022-07-16T16:02:14Z</time>
      </trkpt>
      <trkpt lat="45.70813" lon="6.6759">
        <ele>2434</ele>
        <time>2022-07-16T16:02:16Z</time>
      </trkpt>
      <trkpt lat="45.70814" lon="6.67593">
        <ele>2435</ele>
        <time>2022-07-16T16:02:18Z</time>
      </trkpt>
      <trkpt lat="45.70815" lon="6.67596">
        <ele>2437</ele>
        <time>2022-07-16T16:02:21Z</time>
      </trkpt>
      <trkpt lat="45.70816" lon="6.676">
        <ele>2438</ele>
        <time>2022-07-16T16:02:24Z</time>
      </trkpt>
      <trkpt lat="45.70816" lon="6.67602">
        <ele>2438</ele>
        <time>2022-07-16T16:02:27Z</time>
      </trkpt>
      <trkpt lat="45.70814" lon="6.67603">
        <ele>2438</ele>
        <time>2022-07-16T16:02:30Z</time>
      </trkpt>
      <trkpt lat="45.70815" lon="6.67606">
        <ele>2439</ele>
        <time>2022-07-16T16:02:34Z</time>
      </trkpt>
      <trkpt lat="45.70815" lon="6.67608">
        <ele>2439</ele>
        <time>2022-07-16T16:02:36Z</time>
      </trkpt>
      <trkpt lat="45.70816" lon="6.67612">
        <ele>2439</ele>
        <time>2022-07-16T16:02:39Z</time>
      </trkpt>
      <trkpt lat="45.70817" lon="6.67615">
        <ele>2440</ele>
        <time>2022-07-16T16:02:41Z</time>
      </trkpt>
      <trkpt lat="45.70818" lon="6.67618">
        <ele>2440</ele>
        <time>2022-07-16T16:02:44Z</time>
      </trkpt>
      <trkpt lat="45.70819" lon="6.67621">
        <ele>2440</ele>
        <time>2022-07-16T16:02:48Z</time>
      </trkpt>
      <trkpt lat="45.70819" lon="6.67624">
        <ele>2441</ele>
        <time>2022-07-16T16:02:51Z</time>
      </trkpt>
      <trkpt lat="45.70819" lon="6.67627">
        <ele>2441</ele>
        <time>2022-07-16T16:02:53Z</time>
      </trkpt>
      <trkpt lat="45.7082" lon="6.6763">
        <ele>2442</ele>
        <time>2022-07-16T16:02:56Z</time>
      </trkpt>
      <trkpt lat="45.70821" lon="6.67632">
        <ele>2444</ele>
        <time>2022-07-16T16:03:01Z</time>
      </trkpt>
      <trkpt lat="45.70822" lon="6.67636">
        <ele>2444</ele>
        <time>2022-07-16T16:03:05Z</time>
      </trkpt>
      <trkpt lat="45.70823" lon="6.67639">
        <ele>2445</ele>
        <time>2022-07-16T16:03:08Z</time>
      </trkpt>
      <trkpt lat="45.70824" lon="6.67641">
        <ele>2445</ele>
        <time>2022-07-16T16:03:11Z</time>
      </trkpt>
      <trkpt lat="45.70823" lon="6.67643">
        <ele>2447</ele>
        <time>2022-07-16T16:03:21Z</time>
      </trkpt>
      <trkpt lat="45.70824" lon="6.67646">
        <ele>2448</ele>
        <time>2022-07-16T16:03:24Z</time>
      </trkpt>
      <trkpt lat="45.70824" lon="6.67649">
        <ele>2448</ele>
        <time>2022-07-16T16:03:27Z</time>
      </trkpt>
      <trkpt lat="45.70825" lon="6.67651">
        <ele>2449</ele>
        <time>2022-07-16T16:03:31Z</time>
      </trkpt>
      <trkpt lat="45.70826" lon="6.67654">
        <ele>2449</ele>
        <time>2022-07-16T16:03:34Z</time>
      </trkpt>
      <trkpt lat="45.70827" lon="6.67657">
        <ele>2450</ele>
        <time>2022-07-16T16:03:37Z</time>
      </trkpt>
      <trkpt lat="45.70828" lon="6.6766">
        <ele>2450</ele>
        <time>2022-07-16T16:03:40Z</time>
      </trkpt>
      <trkpt lat="45.70829" lon="6.67663">
        <ele>2451</ele>
        <time>2022-07-16T16:03:43Z</time>
      </trkpt>
      <trkpt lat="45.7083" lon="6.67666">
        <ele>2451</ele>
        <time>2022-07-16T16:03:46Z</time>
      </trkpt>
      <trkpt lat="45.70832" lon="6.67668">
        <ele>2451</ele>
        <time>2022-07-16T16:03:49Z</time>
      </trkpt>
      <trkpt lat="45.70833" lon="6.67671">
        <ele>2452</ele>
        <time>2022-07-16T16:03:52Z</time>
      </trkpt>
      <trkpt lat="45.70834" lon="6.67675">
        <ele>2452</ele>
        <time>2022-07-16T16:03:55Z</time>
      </trkpt>
      <trkpt lat="45.70834" lon="6.67678">
        <ele>2452</ele>
        <time>2022-07-16T16:03:58Z</time>
      </trkpt>
      <trkpt lat="45.70833" lon="6.6768">
        <ele>2452</ele>
        <time>2022-07-16T16:04:01Z</time>
      </trkpt>
      <trkpt lat="45.70833" lon="6.67684">
        <ele>2453</ele>
        <time>2022-07-16T16:04:04Z</time>
      </trkpt>
      <trkpt lat="45.70833" lon="6.67688">
        <ele>2453</ele>
        <time>2022-07-16T16:04:06Z</time>
      </trkpt>
      <trkpt lat="45.70834" lon="6.67691">
        <ele>2454</ele>
        <time>2022-07-16T16:04:08Z</time>
      </trkpt>
      <trkpt lat="45.70834" lon="6.67695">
        <ele>2454</ele>
        <time>2022-07-16T16:04:11Z</time>
      </trkpt>
      <trkpt lat="45.70835" lon="6.67698">
        <ele>2454</ele>
        <time>2022-07-16T16:04:13Z</time>
      </trkpt>
      <trkpt lat="45.70835" lon="6.67701">
        <ele>2454</ele>
        <time>2022-07-16T16:04:16Z</time>
      </trkpt>
      <trkpt lat="45.70835" lon="6.67703">
        <ele>2454</ele>
        <time>2022-07-16T16:04:18Z</time>
      </trkpt>
      <trkpt lat="45.70836" lon="6.67706">
        <ele>2454</ele>
        <time>2022-07-16T16:04:20Z</time>
      </trkpt>
      <trkpt lat="45.70836" lon="6.67709">
        <ele>2454</ele>
        <time>2022-07-16T16:04:22Z</time>
      </trkpt>
      <trkpt lat="45.70837" lon="6.67712">
        <ele>2454</ele>
        <time>2022-07-16T16:04:24Z</time>
      </trkpt>
      <trkpt lat="45.70838" lon="6.67715">
        <ele>2454</ele>
        <time>2022-07-16T16:04:26Z</time>
      </trkpt>
      <trkpt lat="45.70839" lon="6.67717">
        <ele>2454</ele>
        <time>2022-07-16T16:04:28Z</time>
      </trkpt>
      <trkpt lat="45.70839" lon="6.6772">
        <ele>2454</ele>
        <time>2022-07-16T16:04:30Z</time>
      </trkpt>
      <trkpt lat="45.7084" lon="6.67723">
        <ele>2454</ele>
        <time>2022-07-16T16:04:32Z</time>
      </trkpt>
      <trkpt lat="45.70841" lon="6.67726">
        <ele>2456</ele>
        <time>2022-07-16T16:04:34Z</time>
      </trkpt>
      <trkpt lat="45.70841" lon="6.67729">
        <ele>2456</ele>
        <time>2022-07-16T16:04:36Z</time>
      </trkpt>
      <trkpt lat="45.70842" lon="6.67731">
        <ele>2456</ele>
        <time>2022-07-16T16:04:38Z</time>
      </trkpt>
      <trkpt lat="45.70842" lon="6.67735">
        <ele>2456</ele>
        <time>2022-07-16T16:04:41Z</time>
      </trkpt>
      <trkpt lat="45.70843" lon="6.67738">
        <ele>2454</ele>
        <time>2022-07-16T16:04:43Z</time>
      </trkpt>
      <trkpt lat="45.70844" lon="6.67741">
        <ele>2454</ele>
        <time>2022-07-16T16:04:45Z</time>
      </trkpt>
      <trkpt lat="45.70845" lon="6.67744">
        <ele>2453</ele>
        <time>2022-07-16T16:04:47Z</time>
      </trkpt>
      <trkpt lat="45.70846" lon="6.67747">
        <ele>2454</ele>
        <time>2022-07-16T16:04:49Z</time>
      </trkpt>
      <trkpt lat="45.70846" lon="6.6775">
        <ele>2454</ele>
        <time>2022-07-16T16:04:51Z</time>
      </trkpt>
      <trkpt lat="45.70847" lon="6.67753">
        <ele>2454</ele>
        <time>2022-07-16T16:04:54Z</time>
      </trkpt>
      <trkpt lat="45.70848" lon="6.67755">
        <ele>2454</ele>
        <time>2022-07-16T16:04:56Z</time>
      </trkpt>
      <trkpt lat="45.70849" lon="6.67757">
        <ele>2454</ele>
        <time>2022-07-16T16:04:58Z</time>
      </trkpt>
      <trkpt lat="45.7085" lon="6.6776">
        <ele>2454</ele>
        <time>2022-07-16T16:05:00Z</time>
      </trkpt>
      <trkpt lat="45.70852" lon="6.67763">
        <ele>2454</ele>
        <time>2022-07-16T16:05:02Z</time>
      </trkpt>
      <trkpt lat="45.70853" lon="6.67766">
        <ele>2454</ele>
        <time>2022-07-16T16:05:04Z</time>
      </trkpt>
      <trkpt lat="45.70854" lon="6.67769">
        <ele>2454</ele>
        <time>2022-07-16T16:05:06Z</time>
      </trkpt>
      <trkpt lat="45.70855" lon="6.67772">
        <ele>2454</ele>
        <time>2022-07-16T16:05:08Z</time>
      </trkpt>
      <trkpt lat="45.70856" lon="6.67774">
        <ele>2454</ele>
        <time>2022-07-16T16:05:10Z</time>
      </trkpt>
      <trkpt lat="45.70857" lon="6.67777">
        <ele>2454</ele>
        <time>2022-07-16T16:05:12Z</time>
      </trkpt>
      <trkpt lat="45.70859" lon="6.6778">
        <ele>2454</ele>
        <time>2022-07-16T16:05:14Z</time>
      </trkpt>
      <trkpt lat="45.7086" lon="6.67782">
        <ele>2454</ele>
        <time>2022-07-16T16:05:16Z</time>
      </trkpt>
      <trkpt lat="45.70861" lon="6.67785">
        <ele>2454</ele>
        <time>2022-07-16T16:05:18Z</time>
      </trkpt>
      <trkpt lat="45.70862" lon="6.67787">
        <ele>2454</ele>
        <time>2022-07-16T16:05:20Z</time>
      </trkpt>
      <trkpt lat="45.70863" lon="6.67791">
        <ele>2454</ele>
        <time>2022-07-16T16:05:22Z</time>
      </trkpt>
      <trkpt lat="45.70864" lon="6.67794">
        <ele>2454</ele>
        <time>2022-07-16T16:05:24Z</time>
      </trkpt>
      <trkpt lat="45.70865" lon="6.67797">
        <ele>2454</ele>
        <time>2022-07-16T16:05:26Z</time>
      </trkpt>
      <trkpt lat="45.70867" lon="6.678">
        <ele>2454</ele>
        <time>2022-07-16T16:05:28Z</time>
      </trkpt>
      <trkpt lat="45.70868" lon="6.67803">
        <ele>2454</ele>
        <time>2022-07-16T16:05:30Z</time>
      </trkpt>
      <trkpt lat="45.70869" lon="6.67806">
        <ele>2454</ele>
        <time>2022-07-16T16:05:32Z</time>
      </trkpt>
      <trkpt lat="45.7087" lon="6.67808">
        <ele>2454</ele>
        <time>2022-07-16T16:05:34Z</time>
      </trkpt>
      <trkpt lat="45.7087" lon="6.67811">
        <ele>2454</ele>
        <time>2022-07-16T16:05:36Z</time>
      </trkpt>
      <trkpt lat="45.70871" lon="6.67814">
        <ele>2453</ele>
        <time>2022-07-16T16:05:38Z</time>
      </trkpt>
      <trkpt lat="45.70872" lon="6.67816">
        <ele>2452</ele>
        <time>2022-07-16T16:05:41Z</time>
      </trkpt>
      <trkpt lat="45.70872" lon="6.6782">
        <ele>2451</ele>
        <time>2022-07-16T16:05:44Z</time>
      </trkpt>
      <trkpt lat="45.70871" lon="6.67822">
        <ele>2450</ele>
        <time>2022-07-16T16:05:46Z</time>
      </trkpt>
      <trkpt lat="45.70871" lon="6.67825">
        <ele>2449</ele>
        <time>2022-07-16T16:05:48Z</time>
      </trkpt>
      <trkpt lat="45.70871" lon="6.67828">
        <ele>2449</ele>
        <time>2022-07-16T16:05:50Z</time>
      </trkpt>
      <trkpt lat="45.70872" lon="6.67833">
        <ele>2448</ele>
        <time>2022-07-16T16:05:52Z</time>
      </trkpt>
      <trkpt lat="45.70873" lon="6.67837">
        <ele>2447</ele>
        <time>2022-07-16T16:05:54Z</time>
      </trkpt>
      <trkpt lat="45.70874" lon="6.67842">
        <ele>2447</ele>
        <time>2022-07-16T16:05:56Z</time>
      </trkpt>
      <trkpt lat="45.70875" lon="6.67846">
        <ele>2447</ele>
        <time>2022-07-16T16:05:58Z</time>
      </trkpt>
      <trkpt lat="45.70876" lon="6.67849">
        <ele>2447</ele>
        <time>2022-07-16T16:05:59Z</time>
      </trkpt>
      <trkpt lat="45.70877" lon="6.67852">
        <ele>2446</ele>
        <time>2022-07-16T16:06:00Z</time>
      </trkpt>
      <trkpt lat="45.70877" lon="6.67855">
        <ele>2445</ele>
        <time>2022-07-16T16:06:01Z</time>
      </trkpt>
      <trkpt lat="45.70878" lon="6.67857">
        <ele>2445</ele>
        <time>2022-07-16T16:06:02Z</time>
      </trkpt>
      <trkpt lat="45.70879" lon="6.6786">
        <ele>2445</ele>
        <time>2022-07-16T16:06:03Z</time>
      </trkpt>
      <trkpt lat="45.7088" lon="6.67863">
        <ele>2445</ele>
        <time>2022-07-16T16:06:04Z</time>
      </trkpt>
      <trkpt lat="45.70881" lon="6.67865">
        <ele>2445</ele>
        <time>2022-07-16T16:06:05Z</time>
      </trkpt>
      <trkpt lat="45.70882" lon="6.67868">
        <ele>2445</ele>
        <time>2022-07-16T16:06:06Z</time>
      </trkpt>
      <trkpt lat="45.70883" lon="6.6787">
        <ele>2445</ele>
        <time>2022-07-16T16:06:07Z</time>
      </trkpt>
      <trkpt lat="45.70884" lon="6.67875">
        <ele>2446</ele>
        <time>2022-07-16T16:06:09Z</time>
      </trkpt>
      <trkpt lat="45.70885" lon="6.67879">
        <ele>2446</ele>
        <time>2022-07-16T16:06:11Z</time>
      </trkpt>
      <trkpt lat="45.70886" lon="6.67882">
        <ele>2446</ele>
        <time>2022-07-16T16:06:13Z</time>
      </trkpt>
      <trkpt lat="45.70886" lon="6.67886">
        <ele>2446</ele>
        <time>2022-07-16T16:06:15Z</time>
      </trkpt>
      <trkpt lat="45.70886" lon="6.67889">
        <ele>2445</ele>
        <time>2022-07-16T16:06:17Z</time>
      </trkpt>
      <trkpt lat="45.70887" lon="6.67893">
        <ele>2445</ele>
        <time>2022-07-16T16:06:19Z</time>
      </trkpt>
      <trkpt lat="45.70888" lon="6.67897">
        <ele>2445</ele>
        <time>2022-07-16T16:06:21Z</time>
      </trkpt>
      <trkpt lat="45.70888" lon="6.679">
        <ele>2445</ele>
        <time>2022-07-16T16:06:23Z</time>
      </trkpt>
      <trkpt lat="45.70889" lon="6.67904">
        <ele>2444</ele>
        <time>2022-07-16T16:06:25Z</time>
      </trkpt>
      <trkpt lat="45.70889" lon="6.67907">
        <ele>2444</ele>
        <time>2022-07-16T16:06:27Z</time>
      </trkpt>
      <trkpt lat="45.7089" lon="6.6791">
        <ele>2443</ele>
        <time>2022-07-16T16:06:29Z</time>
      </trkpt>
      <trkpt lat="45.70892" lon="6.67913">
        <ele>2443</ele>
        <time>2022-07-16T16:06:31Z</time>
      </trkpt>
      <trkpt lat="45.70893" lon="6.67916">
        <ele>2444</ele>
        <time>2022-07-16T16:06:33Z</time>
      </trkpt>
      <trkpt lat="45.70893" lon="6.67919">
        <ele>2444</ele>
        <time>2022-07-16T16:06:35Z</time>
      </trkpt>
      <trkpt lat="45.70894" lon="6.67921">
        <ele>2445</ele>
        <time>2022-07-16T16:06:37Z</time>
      </trkpt>
      <trkpt lat="45.70895" lon="6.67924">
        <ele>2446</ele>
        <time>2022-07-16T16:06:40Z</time>
      </trkpt>
      <trkpt lat="45.70897" lon="6.67926">
        <ele>2446</ele>
        <time>2022-07-16T16:06:43Z</time>
      </trkpt>
      <trkpt lat="45.70898" lon="6.67929">
        <ele>2446</ele>
        <time>2022-07-16T16:06:46Z</time>
      </trkpt>
      <trkpt lat="45.70899" lon="6.67933">
        <ele>2446</ele>
        <time>2022-07-16T16:06:48Z</time>
      </trkpt>
      <trkpt lat="45.709" lon="6.67935">
        <ele>2446</ele>
        <time>2022-07-16T16:06:50Z</time>
      </trkpt>
      <trkpt lat="45.709" lon="6.67939">
        <ele>2448</ele>
        <time>2022-07-16T16:06:53Z</time>
      </trkpt>
      <trkpt lat="45.70901" lon="6.67942">
        <ele>2448</ele>
        <time>2022-07-16T16:06:56Z</time>
      </trkpt>
      <trkpt lat="45.70901" lon="6.67945">
        <ele>2448</ele>
        <time>2022-07-16T16:06:58Z</time>
      </trkpt>
      <trkpt lat="45.70902" lon="6.67947">
        <ele>2448</ele>
        <time>2022-07-16T16:07:00Z</time>
      </trkpt>
      <trkpt lat="45.70903" lon="6.67951">
        <ele>2448</ele>
        <time>2022-07-16T16:07:03Z</time>
      </trkpt>
      <trkpt lat="45.70903" lon="6.67954">
        <ele>2449</ele>
        <time>2022-07-16T16:07:05Z</time>
      </trkpt>
      <trkpt lat="45.70903" lon="6.67957">
        <ele>2449</ele>
        <time>2022-07-16T16:07:07Z</time>
      </trkpt>
      <trkpt lat="45.70903" lon="6.67961">
        <ele>2449</ele>
        <time>2022-07-16T16:07:09Z</time>
      </trkpt>
      <trkpt lat="45.70903" lon="6.67964">
        <ele>2449</ele>
        <time>2022-07-16T16:07:11Z</time>
      </trkpt>
      <trkpt lat="45.70903" lon="6.67967">
        <ele>2449</ele>
        <time>2022-07-16T16:07:13Z</time>
      </trkpt>
      <trkpt lat="45.70902" lon="6.6797">
        <ele>2449</ele>
        <time>2022-07-16T16:07:15Z</time>
      </trkpt>
      <trkpt lat="45.70902" lon="6.67973">
        <ele>2450</ele>
        <time>2022-07-16T16:07:18Z</time>
      </trkpt>
      <trkpt lat="45.70902" lon="6.67976">
        <ele>2450</ele>
        <time>2022-07-16T16:07:20Z</time>
      </trkpt>
      <trkpt lat="45.70902" lon="6.67979">
        <ele>2451</ele>
        <time>2022-07-16T16:07:22Z</time>
      </trkpt>
      <trkpt lat="45.70902" lon="6.67981">
        <ele>2451</ele>
        <time>2022-07-16T16:07:24Z</time>
      </trkpt>
      <trkpt lat="45.70902" lon="6.67984">
        <ele>2452</ele>
        <time>2022-07-16T16:07:26Z</time>
      </trkpt>
      <trkpt lat="45.70902" lon="6.67987">
        <ele>2452</ele>
        <time>2022-07-16T16:07:28Z</time>
      </trkpt>
      <trkpt lat="45.70902" lon="6.67989">
        <ele>2453</ele>
        <time>2022-07-16T16:07:30Z</time>
      </trkpt>
      <trkpt lat="45.70903" lon="6.67993">
        <ele>2454</ele>
        <time>2022-07-16T16:07:33Z</time>
      </trkpt>
      <trkpt lat="45.70904" lon="6.67995">
        <ele>2454</ele>
        <time>2022-07-16T16:07:35Z</time>
      </trkpt>
      <trkpt lat="45.70906" lon="6.67995">
        <ele>2454</ele>
        <time>2022-07-16T16:07:37Z</time>
      </trkpt>
      <trkpt lat="45.70908" lon="6.67995">
        <ele>2454</ele>
        <time>2022-07-16T16:07:39Z</time>
      </trkpt>
      <trkpt lat="45.70911" lon="6.67997">
        <ele>2456</ele>
        <time>2022-07-16T16:07:42Z</time>
      </trkpt>
      <trkpt lat="45.70913" lon="6.67998">
        <ele>2456</ele>
        <time>2022-07-16T16:07:44Z</time>
      </trkpt>
      <trkpt lat="45.70915" lon="6.67999">
        <ele>2456</ele>
        <time>2022-07-16T16:07:46Z</time>
      </trkpt>
      <trkpt lat="45.70917" lon="6.68001">
        <ele>2456</ele>
        <time>2022-07-16T16:07:48Z</time>
      </trkpt>
      <trkpt lat="45.70919" lon="6.68002">
        <ele>2456</ele>
        <time>2022-07-16T16:07:50Z</time>
      </trkpt>
      <trkpt lat="45.70921" lon="6.68003">
        <ele>2457</ele>
        <time>2022-07-16T16:07:52Z</time>
      </trkpt>
      <trkpt lat="45.70923" lon="6.68004">
        <ele>2457</ele>
        <time>2022-07-16T16:07:54Z</time>
      </trkpt>
      <trkpt lat="45.70925" lon="6.68005">
        <ele>2459</ele>
        <time>2022-07-16T16:07:58Z</time>
      </trkpt>
      <trkpt lat="45.70927" lon="6.68006">
        <ele>2460</ele>
        <time>2022-07-16T16:08:00Z</time>
      </trkpt>
      <trkpt lat="45.70929" lon="6.68007">
        <ele>2460</ele>
        <time>2022-07-16T16:08:02Z</time>
      </trkpt>
      <trkpt lat="45.70931" lon="6.68008">
        <ele>2460</ele>
        <time>2022-07-16T16:08:04Z</time>
      </trkpt>
      <trkpt lat="45.70933" lon="6.68008">
        <ele>2460</ele>
        <time>2022-07-16T16:08:06Z</time>
      </trkpt>
      <trkpt lat="45.70935" lon="6.68009">
        <ele>2460</ele>
        <time>2022-07-16T16:08:08Z</time>
      </trkpt>
      <trkpt lat="45.70937" lon="6.68011">
        <ele>2460</ele>
        <time>2022-07-16T16:08:10Z</time>
      </trkpt>
      <trkpt lat="45.70939" lon="6.68013">
        <ele>2459</ele>
        <time>2022-07-16T16:08:12Z</time>
      </trkpt>
      <trkpt lat="45.7094" lon="6.68015">
        <ele>2459</ele>
        <time>2022-07-16T16:08:14Z</time>
      </trkpt>
      <trkpt lat="45.70943" lon="6.68017">
        <ele>2460</ele>
        <time>2022-07-16T16:08:16Z</time>
      </trkpt>
      <trkpt lat="45.70945" lon="6.68018">
        <ele>2460</ele>
        <time>2022-07-16T16:08:18Z</time>
      </trkpt>
      <trkpt lat="45.70947" lon="6.6802">
        <ele>2460</ele>
        <time>2022-07-16T16:08:20Z</time>
      </trkpt>
      <trkpt lat="45.7095" lon="6.68021">
        <ele>2460</ele>
        <time>2022-07-16T16:08:22Z</time>
      </trkpt>
      <trkpt lat="45.70952" lon="6.68023">
        <ele>2460</ele>
        <time>2022-07-16T16:08:24Z</time>
      </trkpt>
      <trkpt lat="45.70954" lon="6.68025">
        <ele>2460</ele>
        <time>2022-07-16T16:08:26Z</time>
      </trkpt>
      <trkpt lat="45.70956" lon="6.68027">
        <ele>2460</ele>
        <time>2022-07-16T16:08:28Z</time>
      </trkpt>
      <trkpt lat="45.70958" lon="6.68029">
        <ele>2460</ele>
        <time>2022-07-16T16:08:30Z</time>
      </trkpt>
      <trkpt lat="45.7096" lon="6.68031">
        <ele>2460</ele>
        <time>2022-07-16T16:08:32Z</time>
      </trkpt>
      <trkpt lat="45.70961" lon="6.68033">
        <ele>2460</ele>
        <time>2022-07-16T16:08:34Z</time>
      </trkpt>
      <trkpt lat="45.70963" lon="6.68035">
        <ele>2460</ele>
        <time>2022-07-16T16:08:36Z</time>
      </trkpt>
      <trkpt lat="45.70965" lon="6.68036">
        <ele>2460</ele>
        <time>2022-07-16T16:08:38Z</time>
      </trkpt>
      <trkpt lat="45.70967" lon="6.68038">
        <ele>2460</ele>
        <time>2022-07-16T16:08:40Z</time>
      </trkpt>
      <trkpt lat="45.70969" lon="6.68041">
        <ele>2460</ele>
        <time>2022-07-16T16:08:42Z</time>
      </trkpt>
      <trkpt lat="45.70971" lon="6.68043">
        <ele>2460</ele>
        <time>2022-07-16T16:08:44Z</time>
      </trkpt>
      <trkpt lat="45.70973" lon="6.68044">
        <ele>2460</ele>
        <time>2022-07-16T16:08:46Z</time>
      </trkpt>
      <trkpt lat="45.70975" lon="6.68046">
        <ele>2460</ele>
        <time>2022-07-16T16:08:48Z</time>
      </trkpt>
      <trkpt lat="45.70977" lon="6.68047">
        <ele>2460</ele>
        <time>2022-07-16T16:08:50Z</time>
      </trkpt>
      <trkpt lat="45.70979" lon="6.68049">
        <ele>2460</ele>
        <time>2022-07-16T16:08:52Z</time>
      </trkpt>
      <trkpt lat="45.70981" lon="6.68051">
        <ele>2460</ele>
        <time>2022-07-16T16:08:54Z</time>
      </trkpt>
      <trkpt lat="45.70983" lon="6.68053">
        <ele>2460</ele>
        <time>2022-07-16T16:08:56Z</time>
      </trkpt>
      <trkpt lat="45.70985" lon="6.68056">
        <ele>2460</ele>
        <time>2022-07-16T16:08:58Z</time>
      </trkpt>
      <trkpt lat="45.70987" lon="6.68058">
        <ele>2460</ele>
        <time>2022-07-16T16:09:00Z</time>
      </trkpt>
      <trkpt lat="45.70989" lon="6.6806">
        <ele>2460</ele>
        <time>2022-07-16T16:09:02Z</time>
      </trkpt>
      <trkpt lat="45.70991" lon="6.68062">
        <ele>2460</ele>
        <time>2022-07-16T16:09:04Z</time>
      </trkpt>
      <trkpt lat="45.70993" lon="6.68064">
        <ele>2459</ele>
        <time>2022-07-16T16:09:06Z</time>
      </trkpt>
      <trkpt lat="45.70995" lon="6.68066">
        <ele>2459</ele>
        <time>2022-07-16T16:09:08Z</time>
      </trkpt>
      <trkpt lat="45.70996" lon="6.68068">
        <ele>2459</ele>
        <time>2022-07-16T16:09:10Z</time>
      </trkpt>
      <trkpt lat="45.70998" lon="6.68069">
        <ele>2460</ele>
        <time>2022-07-16T16:09:12Z</time>
      </trkpt>
      <trkpt lat="45.70999" lon="6.68071">
        <ele>2461</ele>
        <time>2022-07-16T16:09:14Z</time>
      </trkpt>
      <trkpt lat="45.71001" lon="6.68074">
        <ele>2461</ele>
        <time>2022-07-16T16:09:16Z</time>
      </trkpt>
      <trkpt lat="45.71002" lon="6.68076">
        <ele>2461</ele>
        <time>2022-07-16T16:09:18Z</time>
      </trkpt>
      <trkpt lat="45.71003" lon="6.68078">
        <ele>2461</ele>
        <time>2022-07-16T16:09:20Z</time>
      </trkpt>
      <trkpt lat="45.71004" lon="6.6808">
        <ele>2461</ele>
        <time>2022-07-16T16:09:22Z</time>
      </trkpt>
      <trkpt lat="45.71006" lon="6.68083">
        <ele>2461</ele>
        <time>2022-07-16T16:09:24Z</time>
      </trkpt>
      <trkpt lat="45.71007" lon="6.68084">
        <ele>2461</ele>
        <time>2022-07-16T16:09:26Z</time>
      </trkpt>
      <trkpt lat="45.71009" lon="6.68087">
        <ele>2461</ele>
        <time>2022-07-16T16:09:29Z</time>
      </trkpt>
      <trkpt lat="45.7101" lon="6.6809">
        <ele>2461</ele>
        <time>2022-07-16T16:09:32Z</time>
      </trkpt>
      <trkpt lat="45.71012" lon="6.68093">
        <ele>2462</ele>
        <time>2022-07-16T16:09:35Z</time>
      </trkpt>
      <trkpt lat="45.71013" lon="6.68094">
        <ele>2462</ele>
        <time>2022-07-16T16:09:37Z</time>
      </trkpt>
      <trkpt lat="45.71014" lon="6.68098">
        <ele>2462</ele>
        <time>2022-07-16T16:09:39Z</time>
      </trkpt>
      <trkpt lat="45.71016" lon="6.68101">
        <ele>2462</ele>
        <time>2022-07-16T16:09:41Z</time>
      </trkpt>
      <trkpt lat="45.71017" lon="6.68103">
        <ele>2462</ele>
        <time>2022-07-16T16:09:43Z</time>
      </trkpt>
      <trkpt lat="45.71019" lon="6.68106">
        <ele>2462</ele>
        <time>2022-07-16T16:09:45Z</time>
      </trkpt>
      <trkpt lat="45.7102" lon="6.68108">
        <ele>2462</ele>
        <time>2022-07-16T16:09:47Z</time>
      </trkpt>
      <trkpt lat="45.71021" lon="6.6811">
        <ele>2462</ele>
        <time>2022-07-16T16:09:49Z</time>
      </trkpt>
      <trkpt lat="45.71022" lon="6.68113">
        <ele>2462</ele>
        <time>2022-07-16T16:09:51Z</time>
      </trkpt>
      <trkpt lat="45.71024" lon="6.68116">
        <ele>2462</ele>
        <time>2022-07-16T16:09:53Z</time>
      </trkpt>
      <trkpt lat="45.71025" lon="6.68119">
        <ele>2462</ele>
        <time>2022-07-16T16:09:55Z</time>
      </trkpt>
      <trkpt lat="45.71026" lon="6.68122">
        <ele>2462</ele>
        <time>2022-07-16T16:09:57Z</time>
      </trkpt>
      <trkpt lat="45.71028" lon="6.68125">
        <ele>2461</ele>
        <time>2022-07-16T16:09:59Z</time>
      </trkpt>
      <trkpt lat="45.71029" lon="6.68127">
        <ele>2461</ele>
        <time>2022-07-16T16:10:01Z</time>
      </trkpt>
      <trkpt lat="45.71031" lon="6.68129">
        <ele>2461</ele>
        <time>2022-07-16T16:10:03Z</time>
      </trkpt>
      <trkpt lat="45.71033" lon="6.68131">
        <ele>2461</ele>
        <time>2022-07-16T16:10:05Z</time>
      </trkpt>
      <trkpt lat="45.71034" lon="6.68133">
        <ele>2461</ele>
        <time>2022-07-16T16:10:07Z</time>
      </trkpt>
      <trkpt lat="45.71035" lon="6.68136">
        <ele>2462</ele>
        <time>2022-07-16T16:10:09Z</time>
      </trkpt>
      <trkpt lat="45.71035" lon="6.6814">
        <ele>2463</ele>
        <time>2022-07-16T16:10:11Z</time>
      </trkpt>
      <trkpt lat="45.71036" lon="6.68143">
        <ele>2463</ele>
        <time>2022-07-16T16:10:13Z</time>
      </trkpt>
      <trkpt lat="45.71038" lon="6.68146">
        <ele>2464</ele>
        <time>2022-07-16T16:10:15Z</time>
      </trkpt>
      <trkpt lat="45.71038" lon="6.68148">
        <ele>2464</ele>
        <time>2022-07-16T16:10:17Z</time>
      </trkpt>
      <trkpt lat="45.71039" lon="6.68151">
        <ele>2464</ele>
        <time>2022-07-16T16:10:19Z</time>
      </trkpt>
      <trkpt lat="45.7104" lon="6.68154">
        <ele>2464</ele>
        <time>2022-07-16T16:10:21Z</time>
      </trkpt>
      <trkpt lat="45.71041" lon="6.68156">
        <ele>2464</ele>
        <time>2022-07-16T16:10:23Z</time>
      </trkpt>
      <trkpt lat="45.71042" lon="6.6816">
        <ele>2464</ele>
        <time>2022-07-16T16:10:26Z</time>
      </trkpt>
      <trkpt lat="45.71043" lon="6.68163">
        <ele>2464</ele>
        <time>2022-07-16T16:10:29Z</time>
      </trkpt>
      <trkpt lat="45.71044" lon="6.68165">
        <ele>2464</ele>
        <time>2022-07-16T16:10:31Z</time>
      </trkpt>
      <trkpt lat="45.71046" lon="6.68168">
        <ele>2464</ele>
        <time>2022-07-16T16:10:34Z</time>
      </trkpt>
      <trkpt lat="45.71047" lon="6.68171">
        <ele>2466</ele>
        <time>2022-07-16T16:10:37Z</time>
      </trkpt>
      <trkpt lat="45.71048" lon="6.68173">
        <ele>2466</ele>
        <time>2022-07-16T16:10:40Z</time>
      </trkpt>
      <trkpt lat="45.7105" lon="6.68176">
        <ele>2466</ele>
        <time>2022-07-16T16:10:43Z</time>
      </trkpt>
      <trkpt lat="45.71051" lon="6.68178">
        <ele>2466</ele>
        <time>2022-07-16T16:10:46Z</time>
      </trkpt>
      <trkpt lat="45.71053" lon="6.68181">
        <ele>2466</ele>
        <time>2022-07-16T16:10:49Z</time>
      </trkpt>
      <trkpt lat="45.71054" lon="6.68184">
        <ele>2468</ele>
        <time>2022-07-16T16:10:52Z</time>
      </trkpt>
      <trkpt lat="45.71055" lon="6.68186">
        <ele>2468</ele>
        <time>2022-07-16T16:10:55Z</time>
      </trkpt>
      <trkpt lat="45.71056" lon="6.68188">
        <ele>2468</ele>
        <time>2022-07-16T16:10:58Z</time>
      </trkpt>
      <trkpt lat="45.71058" lon="6.6819">
        <ele>2469</ele>
        <time>2022-07-16T16:11:01Z</time>
      </trkpt>
      <trkpt lat="45.71059" lon="6.68192">
        <ele>2470</ele>
        <time>2022-07-16T16:11:04Z</time>
      </trkpt>
      <trkpt lat="45.7106" lon="6.68194">
        <ele>2470</ele>
        <time>2022-07-16T16:11:06Z</time>
      </trkpt>
      <trkpt lat="45.71062" lon="6.68196">
        <ele>2470</ele>
        <time>2022-07-16T16:11:09Z</time>
      </trkpt>
      <trkpt lat="45.71063" lon="6.682">
        <ele>2470</ele>
        <time>2022-07-16T16:11:12Z</time>
      </trkpt>
      <trkpt lat="45.71064" lon="6.68203">
        <ele>2471</ele>
        <time>2022-07-16T16:11:15Z</time>
      </trkpt>
      <trkpt lat="45.71065" lon="6.68205">
        <ele>2471</ele>
        <time>2022-07-16T16:11:17Z</time>
      </trkpt>
      <trkpt lat="45.71066" lon="6.68208">
        <ele>2471</ele>
        <time>2022-07-16T16:11:20Z</time>
      </trkpt>
      <trkpt lat="45.71067" lon="6.68211">
        <ele>2471</ele>
        <time>2022-07-16T16:11:22Z</time>
      </trkpt>
      <trkpt lat="45.71068" lon="6.68213">
        <ele>2472</ele>
        <time>2022-07-16T16:11:25Z</time>
      </trkpt>
      <trkpt lat="45.71069" lon="6.68216">
        <ele>2474</ele>
        <time>2022-07-16T16:11:29Z</time>
      </trkpt>
      <trkpt lat="45.7107" lon="6.68219">
        <ele>2475</ele>
        <time>2022-07-16T16:11:31Z</time>
      </trkpt>
      <trkpt lat="45.71071" lon="6.68222">
        <ele>2475</ele>
        <time>2022-07-16T16:11:33Z</time>
      </trkpt>
      <trkpt lat="45.71072" lon="6.68225">
        <ele>2475</ele>
        <time>2022-07-16T16:11:36Z</time>
      </trkpt>
      <trkpt lat="45.71073" lon="6.68228">
        <ele>2476</ele>
        <time>2022-07-16T16:11:40Z</time>
      </trkpt>
      <trkpt lat="45.71074" lon="6.68231">
        <ele>2476</ele>
        <time>2022-07-16T16:11:43Z</time>
      </trkpt>
      <trkpt lat="45.71075" lon="6.68234">
        <ele>2476</ele>
        <time>2022-07-16T16:11:46Z</time>
      </trkpt>
      <trkpt lat="45.71077" lon="6.68236">
        <ele>2476</ele>
        <time>2022-07-16T16:11:48Z</time>
      </trkpt>
      <trkpt lat="45.71078" lon="6.68238">
        <ele>2477</ele>
        <time>2022-07-16T16:11:52Z</time>
      </trkpt>
      <trkpt lat="45.71079" lon="6.68241">
        <ele>2478</ele>
        <time>2022-07-16T16:11:56Z</time>
      </trkpt>
      <trkpt lat="45.71081" lon="6.68244">
        <ele>2479</ele>
        <time>2022-07-16T16:11:59Z</time>
      </trkpt>
      <trkpt lat="45.71082" lon="6.68247">
        <ele>2479</ele>
        <time>2022-07-16T16:12:03Z</time>
      </trkpt>
      <trkpt lat="45.71083" lon="6.68249">
        <ele>2479</ele>
        <time>2022-07-16T16:12:06Z</time>
      </trkpt>
      <trkpt lat="45.71085" lon="6.68252">
        <ele>2480</ele>
        <time>2022-07-16T16:12:09Z</time>
      </trkpt>
      <trkpt lat="45.71086" lon="6.68254">
        <ele>2481</ele>
        <time>2022-07-16T16:12:12Z</time>
      </trkpt>
      <trkpt lat="45.71087" lon="6.68257">
        <ele>2481</ele>
        <time>2022-07-16T16:12:15Z</time>
      </trkpt>
      <trkpt lat="45.71088" lon="6.6826">
        <ele>2482</ele>
        <time>2022-07-16T16:12:18Z</time>
      </trkpt>
      <trkpt lat="45.71089" lon="6.68263">
        <ele>2482</ele>
        <time>2022-07-16T16:12:21Z</time>
      </trkpt>
      <trkpt lat="45.7109" lon="6.68266">
        <ele>2483</ele>
        <time>2022-07-16T16:12:24Z</time>
      </trkpt>
      <trkpt lat="45.71092" lon="6.68267">
        <ele>2483</ele>
        <time>2022-07-16T16:12:27Z</time>
      </trkpt>
      <trkpt lat="45.71093" lon="6.68269">
        <ele>2483</ele>
        <time>2022-07-16T16:12:30Z</time>
      </trkpt>
      <trkpt lat="45.71095" lon="6.68272">
        <ele>2484</ele>
        <time>2022-07-16T16:12:34Z</time>
      </trkpt>
      <trkpt lat="45.71096" lon="6.68275">
        <ele>2484</ele>
        <time>2022-07-16T16:12:37Z</time>
      </trkpt>
      <trkpt lat="45.71097" lon="6.68277">
        <ele>2487</ele>
        <time>2022-07-16T16:12:41Z</time>
      </trkpt>
      <trkpt lat="45.71098" lon="6.68279">
        <ele>2487</ele>
        <time>2022-07-16T16:12:44Z</time>
      </trkpt>
      <trkpt lat="45.71099" lon="6.68282">
        <ele>2487</ele>
        <time>2022-07-16T16:12:46Z</time>
      </trkpt>
      <trkpt lat="45.711" lon="6.68284">
        <ele>2488</ele>
        <time>2022-07-16T16:12:49Z</time>
      </trkpt>
      <trkpt lat="45.71101" lon="6.68287">
        <ele>2488</ele>
        <time>2022-07-16T16:12:52Z</time>
      </trkpt>
      <trkpt lat="45.71101" lon="6.6829">
        <ele>2489</ele>
        <time>2022-07-16T16:12:55Z</time>
      </trkpt>
      <trkpt lat="45.71102" lon="6.68293">
        <ele>2489</ele>
        <time>2022-07-16T16:12:58Z</time>
      </trkpt>
      <trkpt lat="45.71103" lon="6.68295">
        <ele>2489</ele>
        <time>2022-07-16T16:13:02Z</time>
      </trkpt>
      <trkpt lat="45.71104" lon="6.68298">
        <ele>2490</ele>
        <time>2022-07-16T16:13:05Z</time>
      </trkpt>
      <trkpt lat="45.71105" lon="6.683">
        <ele>2490</ele>
        <time>2022-07-16T16:13:07Z</time>
      </trkpt>
      <trkpt lat="45.71106" lon="6.68303">
        <ele>2490</ele>
        <time>2022-07-16T16:13:10Z</time>
      </trkpt>
      <trkpt lat="45.71108" lon="6.68305">
        <ele>2490</ele>
        <time>2022-07-16T16:13:13Z</time>
      </trkpt>
      <trkpt lat="45.71109" lon="6.68307">
        <ele>2491</ele>
        <time>2022-07-16T16:13:16Z</time>
      </trkpt>
      <trkpt lat="45.7111" lon="6.68311">
        <ele>2492</ele>
        <time>2022-07-16T16:13:19Z</time>
      </trkpt>
      <trkpt lat="45.7111" lon="6.68314">
        <ele>2492</ele>
        <time>2022-07-16T16:13:22Z</time>
      </trkpt>
      <trkpt lat="45.71111" lon="6.68316">
        <ele>2493</ele>
        <time>2022-07-16T16:13:25Z</time>
      </trkpt>
      <trkpt lat="45.71112" lon="6.68319">
        <ele>2493</ele>
        <time>2022-07-16T16:13:28Z</time>
      </trkpt>
      <trkpt lat="45.71113" lon="6.68323">
        <ele>2493</ele>
        <time>2022-07-16T16:13:31Z</time>
      </trkpt>
      <trkpt lat="45.71112" lon="6.68326">
        <ele>2494</ele>
        <time>2022-07-16T16:13:34Z</time>
      </trkpt>
      <trkpt lat="45.71112" lon="6.68328">
        <ele>2495</ele>
        <time>2022-07-16T16:13:37Z</time>
      </trkpt>
      <trkpt lat="45.71113" lon="6.68331">
        <ele>2495</ele>
        <time>2022-07-16T16:13:40Z</time>
      </trkpt>
      <trkpt lat="45.71113" lon="6.68334">
        <ele>2495</ele>
        <time>2022-07-16T16:13:43Z</time>
      </trkpt>
      <trkpt lat="45.71114" lon="6.68336">
        <ele>2495</ele>
        <time>2022-07-16T16:13:45Z</time>
      </trkpt>
      <trkpt lat="45.71114" lon="6.68339">
        <ele>2495</ele>
        <time>2022-07-16T16:13:47Z</time>
      </trkpt>
      <trkpt lat="45.71115" lon="6.68343">
        <ele>2495</ele>
        <time>2022-07-16T16:13:50Z</time>
      </trkpt>
      <trkpt lat="45.71116" lon="6.68345">
        <ele>2495</ele>
        <time>2022-07-16T16:13:51Z</time>
      </trkpt>
      <trkpt lat="45.71116" lon="6.68346">
        <ele>2495</ele>
        <time>2022-07-16T16:13:52Z</time>
      </trkpt>
      <trkpt lat="45.71116" lon="6.68347">
        <ele>2496</ele>
        <time>2022-07-16T16:13:53Z</time>
      </trkpt>
      <trkpt lat="45.71117" lon="6.68349">
        <ele>2496</ele>
        <time>2022-07-16T16:13:54Z</time>
      </trkpt>
      <trkpt lat="45.71117" lon="6.6835">
        <ele>2496</ele>
        <time>2022-07-16T16:13:55Z</time>
      </trkpt>
      <trkpt lat="45.71118" lon="6.68351">
        <ele>2496</ele>
        <time>2022-07-16T16:13:56Z</time>
      </trkpt>
      <trkpt lat="45.71119" lon="6.68354">
        <ele>2496</ele>
        <time>2022-07-16T16:13:58Z</time>
      </trkpt>
      <trkpt lat="45.7112" lon="6.68358">
        <ele>2498</ele>
        <time>2022-07-16T16:14:01Z</time>
      </trkpt>
      <trkpt lat="45.7112" lon="6.68361">
        <ele>2498</ele>
        <time>2022-07-16T16:14:04Z</time>
      </trkpt>
      <trkpt lat="45.7112" lon="6.68364">
        <ele>2498</ele>
        <time>2022-07-16T16:14:07Z</time>
      </trkpt>
      <trkpt lat="45.71122" lon="6.68367">
        <ele>2498</ele>
        <time>2022-07-16T16:14:10Z</time>
      </trkpt>
      <trkpt lat="45.71122" lon="6.68369">
        <ele>2498</ele>
        <time>2022-07-16T16:14:12Z</time>
      </trkpt>
      <trkpt lat="45.71122" lon="6.68373">
        <ele>2499</ele>
        <time>2022-07-16T16:14:16Z</time>
      </trkpt>
      <trkpt lat="45.71122" lon="6.68377">
        <ele>2499</ele>
        <time>2022-07-16T16:14:19Z</time>
      </trkpt>
      <trkpt lat="45.71122" lon="6.6838">
        <ele>2500</ele>
        <time>2022-07-16T16:14:22Z</time>
      </trkpt>
      <trkpt lat="45.71121" lon="6.68383">
        <ele>2500</ele>
        <time>2022-07-16T16:14:26Z</time>
      </trkpt>
      <trkpt lat="45.7112" lon="6.68385">
        <ele>2502</ele>
        <time>2022-07-16T16:14:31Z</time>
      </trkpt>
      <trkpt lat="45.71121" lon="6.68388">
        <ele>2503</ele>
        <time>2022-07-16T16:14:38Z</time>
      </trkpt>
      <trkpt lat="45.71122" lon="6.6839">
        <ele>2504</ele>
        <time>2022-07-16T16:14:42Z</time>
      </trkpt>
      <trkpt lat="45.71122" lon="6.68393">
        <ele>2505</ele>
        <time>2022-07-16T16:14:46Z</time>
      </trkpt>
      <trkpt lat="45.71121" lon="6.68395">
        <ele>2506</ele>
        <time>2022-07-16T16:14:52Z</time>
      </trkpt>
      <trkpt lat="45.7112" lon="6.68398">
        <ele>2506</ele>
        <time>2022-07-16T16:14:55Z</time>
      </trkpt>
      <trkpt lat="45.71119" lon="6.68401">
        <ele>2510</ele>
        <time>2022-07-16T16:15:04Z</time>
      </trkpt>
      <trkpt lat="45.71117" lon="6.68401">
        <ele>2510</ele>
        <time>2022-07-16T16:15:07Z</time>
      </trkpt>
      <trkpt lat="45.71115" lon="6.68402">
        <ele>2511</ele>
        <time>2022-07-16T16:15:11Z</time>
      </trkpt>
      <trkpt lat="45.71116" lon="6.68405">
        <ele>2512</ele>
        <time>2022-07-16T16:15:19Z</time>
      </trkpt>
      <trkpt lat="45.71116" lon="6.68409">
        <ele>2513</ele>
        <time>2022-07-16T16:15:22Z</time>
      </trkpt>
      <trkpt lat="45.71116" lon="6.68411">
        <ele>2513</ele>
        <time>2022-07-16T16:15:25Z</time>
      </trkpt>
      <trkpt lat="45.71116" lon="6.68414">
        <ele>2513</ele>
        <time>2022-07-16T16:15:27Z</time>
      </trkpt>
      <trkpt lat="45.71117" lon="6.68416">
        <ele>2514</ele>
        <time>2022-07-16T16:15:29Z</time>
      </trkpt>
      <trkpt lat="45.71117" lon="6.68419">
        <ele>2515</ele>
        <time>2022-07-16T16:15:32Z</time>
      </trkpt>
      <trkpt lat="45.71118" lon="6.68422">
        <ele>2515</ele>
        <time>2022-07-16T16:15:34Z</time>
      </trkpt>
      <trkpt lat="45.71119" lon="6.68425">
        <ele>2516</ele>
        <time>2022-07-16T16:15:36Z</time>
      </trkpt>
      <trkpt lat="45.7112" lon="6.68428">
        <ele>2515</ele>
        <time>2022-07-16T16:15:38Z</time>
      </trkpt>
      <trkpt lat="45.71121" lon="6.68431">
        <ele>2515</ele>
        <time>2022-07-16T16:15:40Z</time>
      </trkpt>
      <trkpt lat="45.71122" lon="6.68434">
        <ele>2515</ele>
        <time>2022-07-16T16:15:42Z</time>
      </trkpt>
      <trkpt lat="45.71123" lon="6.68437">
        <ele>2515</ele>
        <time>2022-07-16T16:15:45Z</time>
      </trkpt>
      <trkpt lat="45.71125" lon="6.68439">
        <ele>2515</ele>
        <time>2022-07-16T16:15:47Z</time>
      </trkpt>
      <trkpt lat="45.71127" lon="6.68442">
        <ele>2515</ele>
        <time>2022-07-16T16:15:49Z</time>
      </trkpt>
      <trkpt lat="45.71128" lon="6.68445">
        <ele>2514</ele>
        <time>2022-07-16T16:15:51Z</time>
      </trkpt>
      <trkpt lat="45.71129" lon="6.68448">
        <ele>2514</ele>
        <time>2022-07-16T16:15:53Z</time>
      </trkpt>
      <trkpt lat="45.7113" lon="6.68451">
        <ele>2514</ele>
        <time>2022-07-16T16:15:55Z</time>
      </trkpt>
      <trkpt lat="45.71131" lon="6.68453">
        <ele>2514</ele>
        <time>2022-07-16T16:15:57Z</time>
      </trkpt>
      <trkpt lat="45.71133" lon="6.68455">
        <ele>2515</ele>
        <time>2022-07-16T16:15:59Z</time>
      </trkpt>
      <trkpt lat="45.71134" lon="6.68458">
        <ele>2515</ele>
        <time>2022-07-16T16:16:02Z</time>
      </trkpt>
      <trkpt lat="45.71135" lon="6.6846">
        <ele>2516</ele>
        <time>2022-07-16T16:16:04Z</time>
      </trkpt>
      <trkpt lat="45.71137" lon="6.68462">
        <ele>2516</ele>
        <time>2022-07-16T16:16:06Z</time>
      </trkpt>
      <trkpt lat="45.71138" lon="6.68463">
        <ele>2516</ele>
        <time>2022-07-16T16:16:08Z</time>
      </trkpt>
      <trkpt lat="45.7114" lon="6.68466">
        <ele>2516</ele>
        <time>2022-07-16T16:16:10Z</time>
      </trkpt>
      <trkpt lat="45.71142" lon="6.68468">
        <ele>2516</ele>
        <time>2022-07-16T16:16:12Z</time>
      </trkpt>
      <trkpt lat="45.71143" lon="6.6847">
        <ele>2516</ele>
        <time>2022-07-16T16:16:14Z</time>
      </trkpt>
      <trkpt lat="45.71144" lon="6.68473">
        <ele>2516</ele>
        <time>2022-07-16T16:16:16Z</time>
      </trkpt>
      <trkpt lat="45.71145" lon="6.68476">
        <ele>2516</ele>
        <time>2022-07-16T16:16:18Z</time>
      </trkpt>
      <trkpt lat="45.71146" lon="6.68479">
        <ele>2518</ele>
        <time>2022-07-16T16:16:21Z</time>
      </trkpt>
      <trkpt lat="45.71147" lon="6.68481">
        <ele>2519</ele>
        <time>2022-07-16T16:16:24Z</time>
      </trkpt>
      <trkpt lat="45.71148" lon="6.68484">
        <ele>2519</ele>
        <time>2022-07-16T16:16:27Z</time>
      </trkpt>
      <trkpt lat="45.71149" lon="6.68487">
        <ele>2519</ele>
        <time>2022-07-16T16:16:30Z</time>
      </trkpt>
      <trkpt lat="45.7115" lon="6.6849">
        <ele>2520</ele>
        <time>2022-07-16T16:16:33Z</time>
      </trkpt>
      <trkpt lat="45.71151" lon="6.68493">
        <ele>2520</ele>
        <time>2022-07-16T16:16:36Z</time>
      </trkpt>
      <trkpt lat="45.71153" lon="6.68495">
        <ele>2520</ele>
        <time>2022-07-16T16:16:38Z</time>
      </trkpt>
      <trkpt lat="45.71154" lon="6.68498">
        <ele>2522</ele>
        <time>2022-07-16T16:16:41Z</time>
      </trkpt>
      <trkpt lat="45.71154" lon="6.68501">
        <ele>2522</ele>
        <time>2022-07-16T16:16:44Z</time>
      </trkpt>
      <trkpt lat="45.71155" lon="6.68503">
        <ele>2522</ele>
        <time>2022-07-16T16:16:48Z</time>
      </trkpt>
      <trkpt lat="45.71155" lon="6.68507">
        <ele>2523</ele>
        <time>2022-07-16T16:16:52Z</time>
      </trkpt>
      <trkpt lat="45.71156" lon="6.68511">
        <ele>2523</ele>
        <time>2022-07-16T16:16:55Z</time>
      </trkpt>
      <trkpt lat="45.71157" lon="6.68514">
        <ele>2523</ele>
        <time>2022-07-16T16:16:57Z</time>
      </trkpt>
      <trkpt lat="45.71157" lon="6.68517">
        <ele>2524</ele>
        <time>2022-07-16T16:17:00Z</time>
      </trkpt>
      <trkpt lat="45.71158" lon="6.6852">
        <ele>2525</ele>
        <time>2022-07-16T16:17:03Z</time>
      </trkpt>
      <trkpt lat="45.71158" lon="6.68523">
        <ele>2525</ele>
        <time>2022-07-16T16:17:06Z</time>
      </trkpt>
      <trkpt lat="45.71159" lon="6.68527">
        <ele>2525</ele>
        <time>2022-07-16T16:17:09Z</time>
      </trkpt>
      <trkpt lat="45.71158" lon="6.68529">
        <ele>2526</ele>
        <time>2022-07-16T16:17:12Z</time>
      </trkpt>
      <trkpt lat="45.71159" lon="6.68533">
        <ele>2527</ele>
        <time>2022-07-16T16:17:15Z</time>
      </trkpt>
      <trkpt lat="45.7116" lon="6.68535">
        <ele>2526</ele>
        <time>2022-07-16T16:17:17Z</time>
      </trkpt>
      <trkpt lat="45.71161" lon="6.68537">
        <ele>2526</ele>
        <time>2022-07-16T16:17:19Z</time>
      </trkpt>
      <trkpt lat="45.71163" lon="6.68539">
        <ele>2526</ele>
        <time>2022-07-16T16:17:21Z</time>
      </trkpt>
      <trkpt lat="45.71164" lon="6.68541">
        <ele>2527</ele>
        <time>2022-07-16T16:17:23Z</time>
      </trkpt>
      <trkpt lat="45.71165" lon="6.68543">
        <ele>2527</ele>
        <time>2022-07-16T16:17:25Z</time>
      </trkpt>
      <trkpt lat="45.71166" lon="6.68546">
        <ele>2527</ele>
        <time>2022-07-16T16:17:27Z</time>
      </trkpt>
      <trkpt lat="45.71167" lon="6.68548">
        <ele>2527</ele>
        <time>2022-07-16T16:17:29Z</time>
      </trkpt>
      <trkpt lat="45.71169" lon="6.68551">
        <ele>2527</ele>
        <time>2022-07-16T16:17:31Z</time>
      </trkpt>
      <trkpt lat="45.7117" lon="6.68554">
        <ele>2526</ele>
        <time>2022-07-16T16:17:33Z</time>
      </trkpt>
      <trkpt lat="45.71171" lon="6.68557">
        <ele>2526</ele>
        <time>2022-07-16T16:17:35Z</time>
      </trkpt>
      <trkpt lat="45.71172" lon="6.68559">
        <ele>2526</ele>
        <time>2022-07-16T16:17:37Z</time>
      </trkpt>
      <trkpt lat="45.71172" lon="6.68559">
        <ele>2525</ele>
        <time>2022-07-16T16:17:52Z</time>
      </trkpt>
      <trkpt lat="45.71172" lon="6.68559">
        <ele>2524</ele>
        <time>2022-07-16T16:18:08Z</time>
      </trkpt>
      <trkpt lat="45.71172" lon="6.68559">
        <ele>2525</ele>
        <time>2022-07-16T16:18:24Z</time>
      </trkpt>
      <trkpt lat="45.71172" lon="6.68559">
        <ele>2525</ele>
        <time>2022-07-16T16:18:40Z</time>
      </trkpt>
      <trkpt lat="45.71172" lon="6.68559">
        <ele>2524</ele>
        <time>2022-07-16T16:18:56Z</time>
      </trkpt>
      <trkpt lat="45.71172" lon="6.68559">
        <ele>2525</ele>
        <time>2022-07-16T16:19:12Z</time>
      </trkpt>
      <trkpt lat="45.71172" lon="6.68559">
        <ele>2525</ele>
        <time>2022-07-16T16:19:29Z</time>
      </trkpt>
      <trkpt lat="45.71172" lon="6.68559">
        <ele>2525</ele>
        <time>2022-07-16T16:19:46Z</time>
      </trkpt>
      <trkpt lat="45.71172" lon="6.68562">
        <ele>2526</ele>
        <time>2022-07-16T16:19:49Z</time>
      </trkpt>
      <trkpt lat="45.71173" lon="6.68565">
        <ele>2526</ele>
        <time>2022-07-16T16:19:51Z</time>
      </trkpt>
      <trkpt lat="45.71174" lon="6.68567">
        <ele>2525</ele>
        <time>2022-07-16T16:19:53Z</time>
      </trkpt>
      <trkpt lat="45.71176" lon="6.6857">
        <ele>2524</ele>
        <time>2022-07-16T16:19:55Z</time>
      </trkpt>
      <trkpt lat="45.71178" lon="6.68571">
        <ele>2523</ele>
        <time>2022-07-16T16:19:57Z</time>
      </trkpt>
      <trkpt lat="45.71179" lon="6.68574">
        <ele>2523</ele>
        <time>2022-07-16T16:19:59Z</time>
      </trkpt>
      <trkpt lat="45.71181" lon="6.68576">
        <ele>2520</ele>
        <time>2022-07-16T16:20:01Z</time>
      </trkpt>
      <trkpt lat="45.71182" lon="6.68579">
        <ele>2520</ele>
        <time>2022-07-16T16:20:03Z</time>
      </trkpt>
      <trkpt lat="45.71184" lon="6.68583">
        <ele>2520</ele>
        <time>2022-07-16T16:20:05Z</time>
      </trkpt>
      <trkpt lat="45.71186" lon="6.68587">
        <ele>2520</ele>
        <time>2022-07-16T16:20:07Z</time>
      </trkpt>
      <trkpt lat="45.71188" lon="6.6859">
        <ele>2519</ele>
        <time>2022-07-16T16:20:09Z</time>
      </trkpt>
      <trkpt lat="45.7119" lon="6.68594">
        <ele>2519</ele>
        <time>2022-07-16T16:20:11Z</time>
      </trkpt>
      <trkpt lat="45.71192" lon="6.68597">
        <ele>2519</ele>
        <time>2022-07-16T16:20:13Z</time>
      </trkpt>
      <trkpt lat="45.71193" lon="6.686">
        <ele>2519</ele>
        <time>2022-07-16T16:20:15Z</time>
      </trkpt>
      <trkpt lat="45.71195" lon="6.68603">
        <ele>2519</ele>
        <time>2022-07-16T16:20:17Z</time>
      </trkpt>
      <trkpt lat="45.71196" lon="6.68607">
        <ele>2519</ele>
        <time>2022-07-16T16:20:19Z</time>
      </trkpt>
      <trkpt lat="45.71196" lon="6.68611">
        <ele>2517</ele>
        <time>2022-07-16T16:20:21Z</time>
      </trkpt>
      <trkpt lat="45.71197" lon="6.68615">
        <ele>2517</ele>
        <time>2022-07-16T16:20:23Z</time>
      </trkpt>
      <trkpt lat="45.71199" lon="6.68618">
        <ele>2517</ele>
        <time>2022-07-16T16:20:25Z</time>
      </trkpt>
      <trkpt lat="45.712" lon="6.68622">
        <ele>2517</ele>
        <time>2022-07-16T16:20:27Z</time>
      </trkpt>
      <trkpt lat="45.71201" lon="6.68626">
        <ele>2518</ele>
        <time>2022-07-16T16:20:29Z</time>
      </trkpt>
      <trkpt lat="45.71202" lon="6.68629">
        <ele>2516</ele>
        <time>2022-07-16T16:20:31Z</time>
      </trkpt>
      <trkpt lat="45.71203" lon="6.68633">
        <ele>2516</ele>
        <time>2022-07-16T16:20:33Z</time>
      </trkpt>
      <trkpt lat="45.71205" lon="6.68637">
        <ele>2515</ele>
        <time>2022-07-16T16:20:35Z</time>
      </trkpt>
      <trkpt lat="45.71206" lon="6.6864">
        <ele>2515</ele>
        <time>2022-07-16T16:20:37Z</time>
      </trkpt>
      <trkpt lat="45.71207" lon="6.68644">
        <ele>2515</ele>
        <time>2022-07-16T16:20:39Z</time>
      </trkpt>
      <trkpt lat="45.71208" lon="6.68647">
        <ele>2514</ele>
        <time>2022-07-16T16:20:41Z</time>
      </trkpt>
      <trkpt lat="45.7121" lon="6.6865">
        <ele>2514</ele>
        <time>2022-07-16T16:20:43Z</time>
      </trkpt>
      <trkpt lat="45.71211" lon="6.68654">
        <ele>2514</ele>
        <time>2022-07-16T16:20:45Z</time>
      </trkpt>
      <trkpt lat="45.71212" lon="6.68657">
        <ele>2514</ele>
        <time>2022-07-16T16:20:47Z</time>
      </trkpt>
      <trkpt lat="45.71213" lon="6.6866">
        <ele>2514</ele>
        <time>2022-07-16T16:20:49Z</time>
      </trkpt>
      <trkpt lat="45.71212" lon="6.68663">
        <ele>2514</ele>
        <time>2022-07-16T16:20:52Z</time>
      </trkpt>
      <trkpt lat="45.71211" lon="6.68668">
        <ele>2512</ele>
        <time>2022-07-16T16:20:54Z</time>
      </trkpt>
      <trkpt lat="45.71211" lon="6.68672">
        <ele>2512</ele>
        <time>2022-07-16T16:20:56Z</time>
      </trkpt>
      <trkpt lat="45.71212" lon="6.68676">
        <ele>2512</ele>
        <time>2022-07-16T16:20:58Z</time>
      </trkpt>
      <trkpt lat="45.71214" lon="6.68679">
        <ele>2512</ele>
        <time>2022-07-16T16:21:00Z</time>
      </trkpt>
      <trkpt lat="45.71215" lon="6.68682">
        <ele>2512</ele>
        <time>2022-07-16T16:21:02Z</time>
      </trkpt>
      <trkpt lat="45.71216" lon="6.68686">
        <ele>2513</ele>
        <time>2022-07-16T16:21:04Z</time>
      </trkpt>
      <trkpt lat="45.71217" lon="6.68689">
        <ele>2513</ele>
        <time>2022-07-16T16:21:06Z</time>
      </trkpt>
      <trkpt lat="45.71218" lon="6.68693">
        <ele>2512</ele>
        <time>2022-07-16T16:21:08Z</time>
      </trkpt>
      <trkpt lat="45.71219" lon="6.68697">
        <ele>2511</ele>
        <time>2022-07-16T16:21:10Z</time>
      </trkpt>
      <trkpt lat="45.7122" lon="6.687">
        <ele>2511</ele>
        <time>2022-07-16T16:21:12Z</time>
      </trkpt>
      <trkpt lat="45.71221" lon="6.68703">
        <ele>2511</ele>
        <time>2022-07-16T16:21:14Z</time>
      </trkpt>
      <trkpt lat="45.71222" lon="6.68707">
        <ele>2511</ele>
        <time>2022-07-16T16:21:16Z</time>
      </trkpt>
      <trkpt lat="45.71223" lon="6.68711">
        <ele>2510</ele>
        <time>2022-07-16T16:21:18Z</time>
      </trkpt>
      <trkpt lat="45.71224" lon="6.68715">
        <ele>2511</ele>
        <time>2022-07-16T16:21:20Z</time>
      </trkpt>
      <trkpt lat="45.71225" lon="6.68719">
        <ele>2511</ele>
        <time>2022-07-16T16:21:22Z</time>
      </trkpt>
      <trkpt lat="45.71226" lon="6.68722">
        <ele>2511</ele>
        <time>2022-07-16T16:21:24Z</time>
      </trkpt>
      <trkpt lat="45.71228" lon="6.68725">
        <ele>2512</ele>
        <time>2022-07-16T16:21:26Z</time>
      </trkpt>
      <trkpt lat="45.71229" lon="6.68728">
        <ele>2511</ele>
        <time>2022-07-16T16:21:28Z</time>
      </trkpt>
      <trkpt lat="45.71231" lon="6.6873">
        <ele>2512</ele>
        <time>2022-07-16T16:21:30Z</time>
      </trkpt>
      <trkpt lat="45.71233" lon="6.68734">
        <ele>2512</ele>
        <time>2022-07-16T16:21:32Z</time>
      </trkpt>
      <trkpt lat="45.71234" lon="6.68737">
        <ele>2512</ele>
        <time>2022-07-16T16:21:34Z</time>
      </trkpt>
      <trkpt lat="45.71235" lon="6.6874">
        <ele>2512</ele>
        <time>2022-07-16T16:21:36Z</time>
      </trkpt>
      <trkpt lat="45.71236" lon="6.68743">
        <ele>2512</ele>
        <time>2022-07-16T16:21:38Z</time>
      </trkpt>
      <trkpt lat="45.71237" lon="6.68747">
        <ele>2512</ele>
        <time>2022-07-16T16:21:40Z</time>
      </trkpt>
      <trkpt lat="45.71239" lon="6.6875">
        <ele>2513</ele>
        <time>2022-07-16T16:21:42Z</time>
      </trkpt>
      <trkpt lat="45.71239" lon="6.68753">
        <ele>2514</ele>
        <time>2022-07-16T16:21:44Z</time>
      </trkpt>
      <trkpt lat="45.7124" lon="6.68757">
        <ele>2514</ele>
        <time>2022-07-16T16:21:46Z</time>
      </trkpt>
      <trkpt lat="45.71241" lon="6.6876">
        <ele>2514</ele>
        <time>2022-07-16T16:21:48Z</time>
      </trkpt>
      <trkpt lat="45.71242" lon="6.68763">
        <ele>2513</ele>
        <time>2022-07-16T16:21:50Z</time>
      </trkpt>
      <trkpt lat="45.71244" lon="6.68767">
        <ele>2512</ele>
        <time>2022-07-16T16:21:52Z</time>
      </trkpt>
      <trkpt lat="45.71245" lon="6.68771">
        <ele>2512</ele>
        <time>2022-07-16T16:21:54Z</time>
      </trkpt>
      <trkpt lat="45.71246" lon="6.68775">
        <ele>2513</ele>
        <time>2022-07-16T16:21:56Z</time>
      </trkpt>
      <trkpt lat="45.71247" lon="6.68778">
        <ele>2513</ele>
        <time>2022-07-16T16:21:58Z</time>
      </trkpt>
      <trkpt lat="45.71248" lon="6.68782">
        <ele>2512</ele>
        <time>2022-07-16T16:22:00Z</time>
      </trkpt>
      <trkpt lat="45.71248" lon="6.68785">
        <ele>2512</ele>
        <time>2022-07-16T16:22:02Z</time>
      </trkpt>
      <trkpt lat="45.71249" lon="6.68788">
        <ele>2513</ele>
        <time>2022-07-16T16:22:04Z</time>
      </trkpt>
      <trkpt lat="45.7125" lon="6.68791">
        <ele>2512</ele>
        <time>2022-07-16T16:22:06Z</time>
      </trkpt>
      <trkpt lat="45.71251" lon="6.68794">
        <ele>2512</ele>
        <time>2022-07-16T16:22:08Z</time>
      </trkpt>
      <trkpt lat="45.71252" lon="6.68796">
        <ele>2512</ele>
        <time>2022-07-16T16:22:10Z</time>
      </trkpt>
      <trkpt lat="45.71253" lon="6.68799">
        <ele>2511</ele>
        <time>2022-07-16T16:22:12Z</time>
      </trkpt>
      <trkpt lat="45.71254" lon="6.68802">
        <ele>2510</ele>
        <time>2022-07-16T16:22:14Z</time>
      </trkpt>
      <trkpt lat="45.71255" lon="6.68805">
        <ele>2508</ele>
        <time>2022-07-16T16:22:16Z</time>
      </trkpt>
      <trkpt lat="45.71256" lon="6.68808">
        <ele>2508</ele>
        <time>2022-07-16T16:22:18Z</time>
      </trkpt>
      <trkpt lat="45.71257" lon="6.68811">
        <ele>2508</ele>
        <time>2022-07-16T16:22:20Z</time>
      </trkpt>
      <trkpt lat="45.71258" lon="6.68814">
        <ele>2508</ele>
        <time>2022-07-16T16:22:22Z</time>
      </trkpt>
      <trkpt lat="45.71258" lon="6.68818">
        <ele>2508</ele>
        <time>2022-07-16T16:22:24Z</time>
      </trkpt>
      <trkpt lat="45.71258" lon="6.68821">
        <ele>2507</ele>
        <time>2022-07-16T16:22:27Z</time>
      </trkpt>
      <trkpt lat="45.71257" lon="6.68825">
        <ele>2506</ele>
        <time>2022-07-16T16:22:29Z</time>
      </trkpt>
      <trkpt lat="45.71257" lon="6.68828">
        <ele>2505</ele>
        <time>2022-07-16T16:22:31Z</time>
      </trkpt>
      <trkpt lat="45.71256" lon="6.68831">
        <ele>2505</ele>
        <time>2022-07-16T16:22:33Z</time>
      </trkpt>
      <trkpt lat="45.71255" lon="6.68834">
        <ele>2504</ele>
        <time>2022-07-16T16:22:35Z</time>
      </trkpt>
      <trkpt lat="45.71255" lon="6.68837">
        <ele>2504</ele>
        <time>2022-07-16T16:22:37Z</time>
      </trkpt>
      <trkpt lat="45.71255" lon="6.6884">
        <ele>2503</ele>
        <time>2022-07-16T16:22:39Z</time>
      </trkpt>
      <trkpt lat="45.71255" lon="6.68844">
        <ele>2503</ele>
        <time>2022-07-16T16:22:41Z</time>
      </trkpt>
      <trkpt lat="45.71256" lon="6.68847">
        <ele>2503</ele>
        <time>2022-07-16T16:22:43Z</time>
      </trkpt>
      <trkpt lat="45.71255" lon="6.6885">
        <ele>2503</ele>
        <time>2022-07-16T16:22:45Z</time>
      </trkpt>
      <trkpt lat="45.71255" lon="6.68853">
        <ele>2502</ele>
        <time>2022-07-16T16:22:47Z</time>
      </trkpt>
      <trkpt lat="45.71254" lon="6.68856">
        <ele>2501</ele>
        <time>2022-07-16T16:22:49Z</time>
      </trkpt>
      <trkpt lat="45.71253" lon="6.68859">
        <ele>2501</ele>
        <time>2022-07-16T16:22:51Z</time>
      </trkpt>
      <trkpt lat="45.71253" lon="6.68863">
        <ele>2500</ele>
        <time>2022-07-16T16:22:53Z</time>
      </trkpt>
      <trkpt lat="45.71252" lon="6.68866">
        <ele>2500</ele>
        <time>2022-07-16T16:22:55Z</time>
      </trkpt>
      <trkpt lat="45.7125" lon="6.68869">
        <ele>2500</ele>
        <time>2022-07-16T16:22:57Z</time>
      </trkpt>
      <trkpt lat="45.71248" lon="6.68872">
        <ele>2499</ele>
        <time>2022-07-16T16:22:59Z</time>
      </trkpt>
      <trkpt lat="45.71246" lon="6.68874">
        <ele>2498</ele>
        <time>2022-07-16T16:23:01Z</time>
      </trkpt>
      <trkpt lat="45.71245" lon="6.68877">
        <ele>2496</ele>
        <time>2022-07-16T16:23:04Z</time>
      </trkpt>
      <trkpt lat="45.71245" lon="6.6888">
        <ele>2495</ele>
        <time>2022-07-16T16:23:07Z</time>
      </trkpt>
      <trkpt lat="45.71247" lon="6.68881">
        <ele>2495</ele>
        <time>2022-07-16T16:23:09Z</time>
      </trkpt>
      <trkpt lat="45.71248" lon="6.68884">
        <ele>2492</ele>
        <time>2022-07-16T16:23:12Z</time>
      </trkpt>
      <trkpt lat="45.71247" lon="6.68887">
        <ele>2492</ele>
        <time>2022-07-16T16:23:14Z</time>
      </trkpt>
      <trkpt lat="45.71246" lon="6.68889">
        <ele>2492</ele>
        <time>2022-07-16T16:23:16Z</time>
      </trkpt>
      <trkpt lat="45.71244" lon="6.68891">
        <ele>2491</ele>
        <time>2022-07-16T16:23:18Z</time>
      </trkpt>
      <trkpt lat="45.71242" lon="6.68893">
        <ele>2491</ele>
        <time>2022-07-16T16:23:21Z</time>
      </trkpt>
      <trkpt lat="45.71241" lon="6.68896">
        <ele>2489</ele>
        <time>2022-07-16T16:23:23Z</time>
      </trkpt>
      <trkpt lat="45.71239" lon="6.68898">
        <ele>2488</ele>
        <time>2022-07-16T16:23:25Z</time>
      </trkpt>
      <trkpt lat="45.71238" lon="6.689">
        <ele>2488</ele>
        <time>2022-07-16T16:23:27Z</time>
      </trkpt>
      <trkpt lat="45.71236" lon="6.68902">
        <ele>2488</ele>
        <time>2022-07-16T16:23:29Z</time>
      </trkpt>
      <trkpt lat="45.71235" lon="6.68905">
        <ele>2487</ele>
        <time>2022-07-16T16:23:31Z</time>
      </trkpt>
      <trkpt lat="45.71233" lon="6.68907">
        <ele>2487</ele>
        <time>2022-07-16T16:23:33Z</time>
      </trkpt>
      <trkpt lat="45.71232" lon="6.6891">
        <ele>2486</ele>
        <time>2022-07-16T16:23:35Z</time>
      </trkpt>
      <trkpt lat="45.71231" lon="6.68913">
        <ele>2486</ele>
        <time>2022-07-16T16:23:37Z</time>
      </trkpt>
      <trkpt lat="45.7123" lon="6.68916">
        <ele>2486</ele>
        <time>2022-07-16T16:23:39Z</time>
      </trkpt>
      <trkpt lat="45.71229" lon="6.68919">
        <ele>2484</ele>
        <time>2022-07-16T16:23:41Z</time>
      </trkpt>
      <trkpt lat="45.71227" lon="6.68921">
        <ele>2484</ele>
        <time>2022-07-16T16:23:43Z</time>
      </trkpt>
      <trkpt lat="45.71224" lon="6.68923">
        <ele>2484</ele>
        <time>2022-07-16T16:23:45Z</time>
      </trkpt>
      <trkpt lat="45.71222" lon="6.68925">
        <ele>2484</ele>
        <time>2022-07-16T16:23:47Z</time>
      </trkpt>
      <trkpt lat="45.71219" lon="6.68927">
        <ele>2483</ele>
        <time>2022-07-16T16:23:49Z</time>
      </trkpt>
      <trkpt lat="45.71216" lon="6.6893">
        <ele>2482</ele>
        <time>2022-07-16T16:23:51Z</time>
      </trkpt>
      <trkpt lat="45.71215" lon="6.68932">
        <ele>2482</ele>
        <time>2022-07-16T16:23:52Z</time>
      </trkpt>
      <trkpt lat="45.71214" lon="6.68934">
        <ele>2482</ele>
        <time>2022-07-16T16:23:53Z</time>
      </trkpt>
      <trkpt lat="45.71213" lon="6.68937">
        <ele>2481</ele>
        <time>2022-07-16T16:23:54Z</time>
      </trkpt>
      <trkpt lat="45.71212" lon="6.68939">
        <ele>2481</ele>
        <time>2022-07-16T16:23:55Z</time>
      </trkpt>
      <trkpt lat="45.71211" lon="6.68941">
        <ele>2481</ele>
        <time>2022-07-16T16:23:56Z</time>
      </trkpt>
      <trkpt lat="45.7121" lon="6.68944">
        <ele>2480</ele>
        <time>2022-07-16T16:23:57Z</time>
      </trkpt>
      <trkpt lat="45.71209" lon="6.68946">
        <ele>2480</ele>
        <time>2022-07-16T16:23:58Z</time>
      </trkpt>
      <trkpt lat="45.71209" lon="6.68949">
        <ele>2480</ele>
        <time>2022-07-16T16:23:59Z</time>
      </trkpt>
      <trkpt lat="45.71208" lon="6.68951">
        <ele>2480</ele>
        <time>2022-07-16T16:24:00Z</time>
      </trkpt>
      <trkpt lat="45.71206" lon="6.68955">
        <ele>2479</ele>
        <time>2022-07-16T16:24:02Z</time>
      </trkpt>
      <trkpt lat="45.71205" lon="6.68959">
        <ele>2479</ele>
        <time>2022-07-16T16:24:04Z</time>
      </trkpt>
      <trkpt lat="45.71204" lon="6.68963">
        <ele>2479</ele>
        <time>2022-07-16T16:24:06Z</time>
      </trkpt>
      <trkpt lat="45.71203" lon="6.68967">
        <ele>2478</ele>
        <time>2022-07-16T16:24:08Z</time>
      </trkpt>
      <trkpt lat="45.71202" lon="6.68969">
        <ele>2477</ele>
        <time>2022-07-16T16:24:09Z</time>
      </trkpt>
      <trkpt lat="45.71201" lon="6.68974">
        <ele>2476</ele>
        <time>2022-07-16T16:24:11Z</time>
      </trkpt>
      <trkpt lat="45.712" lon="6.68978">
        <ele>2476</ele>
        <time>2022-07-16T16:24:13Z</time>
      </trkpt>
      <trkpt lat="45.712" lon="6.68982">
        <ele>2476</ele>
        <time>2022-07-16T16:24:15Z</time>
      </trkpt>
      <trkpt lat="45.71199" lon="6.68986">
        <ele>2476</ele>
        <time>2022-07-16T16:24:17Z</time>
      </trkpt>
      <trkpt lat="45.71199" lon="6.68991">
        <ele>2476</ele>
        <time>2022-07-16T16:24:19Z</time>
      </trkpt>
      <trkpt lat="45.71198" lon="6.68995">
        <ele>2475</ele>
        <time>2022-07-16T16:24:21Z</time>
      </trkpt>
      <trkpt lat="45.71197" lon="6.68998">
        <ele>2475</ele>
        <time>2022-07-16T16:24:22Z</time>
      </trkpt>
      <trkpt lat="45.71196" lon="6.69001">
        <ele>2474</ele>
        <time>2022-07-16T16:24:23Z</time>
      </trkpt>
      <trkpt lat="45.71195" lon="6.69004">
        <ele>2472</ele>
        <time>2022-07-16T16:24:24Z</time>
      </trkpt>
      <trkpt lat="45.71194" lon="6.69007">
        <ele>2472</ele>
        <time>2022-07-16T16:24:25Z</time>
      </trkpt>
      <trkpt lat="45.71193" lon="6.69009">
        <ele>2472</ele>
        <time>2022-07-16T16:24:26Z</time>
      </trkpt>
      <trkpt lat="45.71192" lon="6.69011">
        <ele>2472</ele>
        <time>2022-07-16T16:24:27Z</time>
      </trkpt>
      <trkpt lat="45.71191" lon="6.69014">
        <ele>2472</ele>
        <time>2022-07-16T16:24:28Z</time>
      </trkpt>
      <trkpt lat="45.7119" lon="6.69018">
        <ele>2472</ele>
        <time>2022-07-16T16:24:30Z</time>
      </trkpt>
      <trkpt lat="45.7119" lon="6.69023">
        <ele>2471</ele>
        <time>2022-07-16T16:24:32Z</time>
      </trkpt>
      <trkpt lat="45.7119" lon="6.69028">
        <ele>2471</ele>
        <time>2022-07-16T16:24:34Z</time>
      </trkpt>
      <trkpt lat="45.71189" lon="6.69032">
        <ele>2471</ele>
        <time>2022-07-16T16:24:36Z</time>
      </trkpt>
      <trkpt lat="45.71189" lon="6.69036">
        <ele>2471</ele>
        <time>2022-07-16T16:24:38Z</time>
      </trkpt>
      <trkpt lat="45.71189" lon="6.69041">
        <ele>2470</ele>
        <time>2022-07-16T16:24:40Z</time>
      </trkpt>
      <trkpt lat="45.71189" lon="6.69045">
        <ele>2471</ele>
        <time>2022-07-16T16:24:42Z</time>
      </trkpt>
      <trkpt lat="45.71189" lon="6.69048">
        <ele>2471</ele>
        <time>2022-07-16T16:24:44Z</time>
      </trkpt>
      <trkpt lat="45.7119" lon="6.69053">
        <ele>2470</ele>
        <time>2022-07-16T16:24:46Z</time>
      </trkpt>
      <trkpt lat="45.7119" lon="6.69055">
        <ele>2470</ele>
        <time>2022-07-16T16:24:47Z</time>
      </trkpt>
      <trkpt lat="45.71191" lon="6.69058">
        <ele>2470</ele>
        <time>2022-07-16T16:24:48Z</time>
      </trkpt>
      <trkpt lat="45.71192" lon="6.6906">
        <ele>2470</ele>
        <time>2022-07-16T16:24:49Z</time>
      </trkpt>
      <trkpt lat="45.71194" lon="6.69062">
        <ele>2470</ele>
        <time>2022-07-16T16:24:50Z</time>
      </trkpt>
      <trkpt lat="45.71197" lon="6.69065">
        <ele>2470</ele>
        <time>2022-07-16T16:24:52Z</time>
      </trkpt>
      <trkpt lat="45.71198" lon="6.69066">
        <ele>2470</ele>
        <time>2022-07-16T16:24:53Z</time>
      </trkpt>
      <trkpt lat="45.71201" lon="6.69069">
        <ele>2470</ele>
        <time>2022-07-16T16:24:55Z</time>
      </trkpt>
      <trkpt lat="45.71204" lon="6.69072">
        <ele>2470</ele>
        <time>2022-07-16T16:24:57Z</time>
      </trkpt>
      <trkpt lat="45.71206" lon="6.69074">
        <ele>2470</ele>
        <time>2022-07-16T16:24:58Z</time>
      </trkpt>
      <trkpt lat="45.71208" lon="6.69077">
        <ele>2470</ele>
        <time>2022-07-16T16:25:00Z</time>
      </trkpt>
      <trkpt lat="45.7121" lon="6.69079">
        <ele>2470</ele>
        <time>2022-07-16T16:25:01Z</time>
      </trkpt>
      <trkpt lat="45.71211" lon="6.6908">
        <ele>2470</ele>
        <time>2022-07-16T16:25:02Z</time>
      </trkpt>
      <trkpt lat="45.71212" lon="6.69082">
        <ele>2470</ele>
        <time>2022-07-16T16:25:03Z</time>
      </trkpt>
      <trkpt lat="45.71214" lon="6.69084">
        <ele>2470</ele>
        <time>2022-07-16T16:25:04Z</time>
      </trkpt>
      <trkpt lat="45.71216" lon="6.69087">
        <ele>2469</ele>
        <time>2022-07-16T16:25:06Z</time>
      </trkpt>
      <trkpt lat="45.71218" lon="6.6909">
        <ele>2470</ele>
        <time>2022-07-16T16:25:08Z</time>
      </trkpt>
      <trkpt lat="45.7122" lon="6.69092">
        <ele>2470</ele>
        <time>2022-07-16T16:25:10Z</time>
      </trkpt>
      <trkpt lat="45.71222" lon="6.69095">
        <ele>2470</ele>
        <time>2022-07-16T16:25:12Z</time>
      </trkpt>
      <trkpt lat="45.71224" lon="6.69098">
        <ele>2471</ele>
        <time>2022-07-16T16:25:14Z</time>
      </trkpt>
      <trkpt lat="45.71226" lon="6.69101">
        <ele>2470</ele>
        <time>2022-07-16T16:25:16Z</time>
      </trkpt>
      <trkpt lat="45.71227" lon="6.69105">
        <ele>2469</ele>
        <time>2022-07-16T16:25:18Z</time>
      </trkpt>
      <trkpt lat="45.71227" lon="6.6911">
        <ele>2468</ele>
        <time>2022-07-16T16:25:20Z</time>
      </trkpt>
      <trkpt lat="45.71228" lon="6.69114">
        <ele>2468</ele>
        <time>2022-07-16T16:25:22Z</time>
      </trkpt>
      <trkpt lat="45.71229" lon="6.69119">
        <ele>2467</ele>
        <time>2022-07-16T16:25:24Z</time>
      </trkpt>
      <trkpt lat="45.71231" lon="6.69122">
        <ele>2466</ele>
        <time>2022-07-16T16:25:26Z</time>
      </trkpt>
      <trkpt lat="45.71232" lon="6.69126">
        <ele>2466</ele>
        <time>2022-07-16T16:25:28Z</time>
      </trkpt>
      <trkpt lat="45.71233" lon="6.69129">
        <ele>2467</ele>
        <time>2022-07-16T16:25:30Z</time>
      </trkpt>
      <trkpt lat="45.71233" lon="6.69133">
        <ele>2467</ele>
        <time>2022-07-16T16:25:32Z</time>
      </trkpt>
      <trkpt lat="45.71233" lon="6.69137">
        <ele>2467</ele>
        <time>2022-07-16T16:25:34Z</time>
      </trkpt>
      <trkpt lat="45.71233" lon="6.69141">
        <ele>2466</ele>
        <time>2022-07-16T16:25:36Z</time>
      </trkpt>
      <trkpt lat="45.71234" lon="6.69144">
        <ele>2465</ele>
        <time>2022-07-16T16:25:38Z</time>
      </trkpt>
      <trkpt lat="45.71233" lon="6.69149">
        <ele>2465</ele>
        <time>2022-07-16T16:25:40Z</time>
      </trkpt>
      <trkpt lat="45.71231" lon="6.69151">
        <ele>2464</ele>
        <time>2022-07-16T16:25:42Z</time>
      </trkpt>
      <trkpt lat="45.71229" lon="6.69153">
        <ele>2463</ele>
        <time>2022-07-16T16:25:44Z</time>
      </trkpt>
      <trkpt lat="45.71227" lon="6.69154">
        <ele>2463</ele>
        <time>2022-07-16T16:25:45Z</time>
      </trkpt>
      <trkpt lat="45.71225" lon="6.69157">
        <ele>2463</ele>
        <time>2022-07-16T16:25:47Z</time>
      </trkpt>
      <trkpt lat="45.71223" lon="6.69159">
        <ele>2464</ele>
        <time>2022-07-16T16:25:49Z</time>
      </trkpt>
      <trkpt lat="45.71222" lon="6.69163">
        <ele>2464</ele>
        <time>2022-07-16T16:25:51Z</time>
      </trkpt>
      <trkpt lat="45.71221" lon="6.69166">
        <ele>2465</ele>
        <time>2022-07-16T16:25:53Z</time>
      </trkpt>
      <trkpt lat="45.7122" lon="6.69168">
        <ele>2465</ele>
        <time>2022-07-16T16:25:55Z</time>
      </trkpt>
      <trkpt lat="45.71219" lon="6.69171">
        <ele>2465</ele>
        <time>2022-07-16T16:25:57Z</time>
      </trkpt>
      <trkpt lat="45.71218" lon="6.69174">
        <ele>2464</ele>
        <time>2022-07-16T16:25:59Z</time>
      </trkpt>
      <trkpt lat="45.71218" lon="6.69177">
        <ele>2463</ele>
        <time>2022-07-16T16:26:01Z</time>
      </trkpt>
      <trkpt lat="45.71219" lon="6.69181">
        <ele>2463</ele>
        <time>2022-07-16T16:26:04Z</time>
      </trkpt>
      <trkpt lat="45.71221" lon="6.69184">
        <ele>2461</ele>
        <time>2022-07-16T16:26:06Z</time>
      </trkpt>
      <trkpt lat="45.71221" lon="6.69188">
        <ele>2461</ele>
        <time>2022-07-16T16:26:08Z</time>
      </trkpt>
      <trkpt lat="45.7122" lon="6.69192">
        <ele>2461</ele>
        <time>2022-07-16T16:26:10Z</time>
      </trkpt>
      <trkpt lat="45.71219" lon="6.69195">
        <ele>2461</ele>
        <time>2022-07-16T16:26:12Z</time>
      </trkpt>
      <trkpt lat="45.71218" lon="6.69199">
        <ele>2461</ele>
        <time>2022-07-16T16:26:14Z</time>
      </trkpt>
      <trkpt lat="45.71218" lon="6.69203">
        <ele>2461</ele>
        <time>2022-07-16T16:26:16Z</time>
      </trkpt>
      <trkpt lat="45.71217" lon="6.69206">
        <ele>2460</ele>
        <time>2022-07-16T16:26:18Z</time>
      </trkpt>
      <trkpt lat="45.71216" lon="6.69209">
        <ele>2459</ele>
        <time>2022-07-16T16:26:20Z</time>
      </trkpt>
      <trkpt lat="45.71216" lon="6.69212">
        <ele>2459</ele>
        <time>2022-07-16T16:26:22Z</time>
      </trkpt>
      <trkpt lat="45.71215" lon="6.69215">
        <ele>2458</ele>
        <time>2022-07-16T16:26:24Z</time>
      </trkpt>
      <trkpt lat="45.71216" lon="6.69219">
        <ele>2458</ele>
        <time>2022-07-16T16:26:26Z</time>
      </trkpt>
      <trkpt lat="45.71216" lon="6.69222">
        <ele>2458</ele>
        <time>2022-07-16T16:26:28Z</time>
      </trkpt>
      <trkpt lat="45.71217" lon="6.69224">
        <ele>2458</ele>
        <time>2022-07-16T16:26:30Z</time>
      </trkpt>
      <trkpt lat="45.71218" lon="6.69228">
        <ele>2458</ele>
        <time>2022-07-16T16:26:33Z</time>
      </trkpt>
      <trkpt lat="45.71219" lon="6.69231">
        <ele>2458</ele>
        <time>2022-07-16T16:26:36Z</time>
      </trkpt>
      <trkpt lat="45.7122" lon="6.69234">
        <ele>2458</ele>
        <time>2022-07-16T16:26:38Z</time>
      </trkpt>
      <trkpt lat="45.7122" lon="6.69237">
        <ele>2456</ele>
        <time>2022-07-16T16:26:40Z</time>
      </trkpt>
      <trkpt lat="45.7122" lon="6.6924">
        <ele>2454</ele>
        <time>2022-07-16T16:26:43Z</time>
      </trkpt>
      <trkpt lat="45.7122" lon="6.69243">
        <ele>2454</ele>
        <time>2022-07-16T16:26:45Z</time>
      </trkpt>
      <trkpt lat="45.71219" lon="6.69247">
        <ele>2454</ele>
        <time>2022-07-16T16:26:47Z</time>
      </trkpt>
      <trkpt lat="45.71218" lon="6.6925">
        <ele>2453</ele>
        <time>2022-07-16T16:26:49Z</time>
      </trkpt>
      <trkpt lat="45.71217" lon="6.69254">
        <ele>2452</ele>
        <time>2022-07-16T16:26:51Z</time>
      </trkpt>
      <trkpt lat="45.71216" lon="6.69257">
        <ele>2453</ele>
        <time>2022-07-16T16:26:53Z</time>
      </trkpt>
      <trkpt lat="45.71215" lon="6.6926">
        <ele>2453</ele>
        <time>2022-07-16T16:26:55Z</time>
      </trkpt>
      <trkpt lat="45.71214" lon="6.69263">
        <ele>2452</ele>
        <time>2022-07-16T16:26:57Z</time>
      </trkpt>
      <trkpt lat="45.71214" lon="6.69266">
        <ele>2451</ele>
        <time>2022-07-16T16:26:59Z</time>
      </trkpt>
      <trkpt lat="45.71214" lon="6.69269">
        <ele>2451</ele>
        <time>2022-07-16T16:27:01Z</time>
      </trkpt>
      <trkpt lat="45.71213" lon="6.69271">
        <ele>2451</ele>
        <time>2022-07-16T16:27:03Z</time>
      </trkpt>
      <trkpt lat="45.71213" lon="6.69274">
        <ele>2449</ele>
        <time>2022-07-16T16:27:05Z</time>
      </trkpt>
      <trkpt lat="45.71212" lon="6.69277">
        <ele>2449</ele>
        <time>2022-07-16T16:27:07Z</time>
      </trkpt>
      <trkpt lat="45.71211" lon="6.6928">
        <ele>2448</ele>
        <time>2022-07-16T16:27:10Z</time>
      </trkpt>
      <trkpt lat="45.71211" lon="6.69283">
        <ele>2447</ele>
        <time>2022-07-16T16:27:12Z</time>
      </trkpt>
      <trkpt lat="45.7121" lon="6.69286">
        <ele>2446</ele>
        <time>2022-07-16T16:27:14Z</time>
      </trkpt>
      <trkpt lat="45.71209" lon="6.69289">
        <ele>2446</ele>
        <time>2022-07-16T16:27:16Z</time>
      </trkpt>
      <trkpt lat="45.71208" lon="6.69291">
        <ele>2444</ele>
        <time>2022-07-16T16:27:18Z</time>
      </trkpt>
      <trkpt lat="45.71207" lon="6.69294">
        <ele>2443</ele>
        <time>2022-07-16T16:27:20Z</time>
      </trkpt>
      <trkpt lat="45.71206" lon="6.69297">
        <ele>2443</ele>
        <time>2022-07-16T16:27:23Z</time>
      </trkpt>
      <trkpt lat="45.71205" lon="6.69301">
        <ele>2442</ele>
        <time>2022-07-16T16:27:26Z</time>
      </trkpt>
      <trkpt lat="45.71205" lon="6.69303">
        <ele>2441</ele>
        <time>2022-07-16T16:27:28Z</time>
      </trkpt>
      <trkpt lat="45.71205" lon="6.69307">
        <ele>2440</ele>
        <time>2022-07-16T16:27:31Z</time>
      </trkpt>
      <trkpt lat="45.71205" lon="6.69311">
        <ele>2439</ele>
        <time>2022-07-16T16:27:33Z</time>
      </trkpt>
      <trkpt lat="45.71205" lon="6.69314">
        <ele>2438</ele>
        <time>2022-07-16T16:27:35Z</time>
      </trkpt>
      <trkpt lat="45.71206" lon="6.69317">
        <ele>2438</ele>
        <time>2022-07-16T16:27:37Z</time>
      </trkpt>
      <trkpt lat="45.71207" lon="6.6932">
        <ele>2438</ele>
        <time>2022-07-16T16:27:39Z</time>
      </trkpt>
      <trkpt lat="45.71207" lon="6.69323">
        <ele>2437</ele>
        <time>2022-07-16T16:27:41Z</time>
      </trkpt>
      <trkpt lat="45.71208" lon="6.69328">
        <ele>2436</ele>
        <time>2022-07-16T16:27:44Z</time>
      </trkpt>
      <trkpt lat="45.71209" lon="6.69331">
        <ele>2436</ele>
        <time>2022-07-16T16:27:46Z</time>
      </trkpt>
      <trkpt lat="45.71209" lon="6.69334">
        <ele>2435</ele>
        <time>2022-07-16T16:27:48Z</time>
      </trkpt>
      <trkpt lat="45.71209" lon="6.69337">
        <ele>2434</ele>
        <time>2022-07-16T16:27:50Z</time>
      </trkpt>
      <trkpt lat="45.7121" lon="6.6934">
        <ele>2434</ele>
        <time>2022-07-16T16:27:52Z</time>
      </trkpt>
      <trkpt lat="45.71211" lon="6.69344">
        <ele>2434</ele>
        <time>2022-07-16T16:27:54Z</time>
      </trkpt>
      <trkpt lat="45.71212" lon="6.69347">
        <ele>2433</ele>
        <time>2022-07-16T16:27:56Z</time>
      </trkpt>
      <trkpt lat="45.71213" lon="6.6935">
        <ele>2432</ele>
        <time>2022-07-16T16:27:58Z</time>
      </trkpt>
      <trkpt lat="45.71214" lon="6.69353">
        <ele>2432</ele>
        <time>2022-07-16T16:28:00Z</time>
      </trkpt>
      <trkpt lat="45.71214" lon="6.69357">
        <ele>2431</ele>
        <time>2022-07-16T16:28:02Z</time>
      </trkpt>
      <trkpt lat="45.71214" lon="6.6936">
        <ele>2431</ele>
        <time>2022-07-16T16:28:04Z</time>
      </trkpt>
      <trkpt lat="45.71214" lon="6.69364">
        <ele>2430</ele>
        <time>2022-07-16T16:28:06Z</time>
      </trkpt>
      <trkpt lat="45.71215" lon="6.69367">
        <ele>2430</ele>
        <time>2022-07-16T16:28:08Z</time>
      </trkpt>
      <trkpt lat="45.71215" lon="6.6937">
        <ele>2430</ele>
        <time>2022-07-16T16:28:10Z</time>
      </trkpt>
      <trkpt lat="45.71215" lon="6.69373">
        <ele>2428</ele>
        <time>2022-07-16T16:28:12Z</time>
      </trkpt>
      <trkpt lat="45.71214" lon="6.69376">
        <ele>2428</ele>
        <time>2022-07-16T16:28:14Z</time>
      </trkpt>
      <trkpt lat="45.71214" lon="6.6938">
        <ele>2426</ele>
        <time>2022-07-16T16:28:16Z</time>
      </trkpt>
      <trkpt lat="45.71214" lon="6.69383">
        <ele>2426</ele>
        <time>2022-07-16T16:28:18Z</time>
      </trkpt>
      <trkpt lat="45.71214" lon="6.69387">
        <ele>2426</ele>
        <time>2022-07-16T16:28:20Z</time>
      </trkpt>
      <trkpt lat="45.71214" lon="6.6939">
        <ele>2426</ele>
        <time>2022-07-16T16:28:22Z</time>
      </trkpt>
      <trkpt lat="45.71213" lon="6.69394">
        <ele>2425</ele>
        <time>2022-07-16T16:28:24Z</time>
      </trkpt>
      <trkpt lat="45.71211" lon="6.69396">
        <ele>2424</ele>
        <time>2022-07-16T16:28:26Z</time>
      </trkpt>
      <trkpt lat="45.71209" lon="6.69397">
        <ele>2423</ele>
        <time>2022-07-16T16:28:28Z</time>
      </trkpt>
      <trkpt lat="45.71207" lon="6.69399">
        <ele>2423</ele>
        <time>2022-07-16T16:28:30Z</time>
      </trkpt>
      <trkpt lat="45.71205" lon="6.694">
        <ele>2422</ele>
        <time>2022-07-16T16:28:32Z</time>
      </trkpt>
      <trkpt lat="45.71203" lon="6.69402">
        <ele>2419</ele>
        <time>2022-07-16T16:28:35Z</time>
      </trkpt>
      <trkpt lat="45.71202" lon="6.69405">
        <ele>2419</ele>
        <time>2022-07-16T16:28:38Z</time>
      </trkpt>
      <trkpt lat="45.71201" lon="6.69407">
        <ele>2419</ele>
        <time>2022-07-16T16:28:40Z</time>
      </trkpt>
      <trkpt lat="45.71199" lon="6.6941">
        <ele>2417</ele>
        <time>2022-07-16T16:28:42Z</time>
      </trkpt>
      <trkpt lat="45.71199" lon="6.69412">
        <ele>2416</ele>
        <time>2022-07-16T16:28:44Z</time>
      </trkpt>
      <trkpt lat="45.71198" lon="6.69415">
        <ele>2415</ele>
        <time>2022-07-16T16:28:46Z</time>
      </trkpt>
      <trkpt lat="45.71198" lon="6.69418">
        <ele>2415</ele>
        <time>2022-07-16T16:28:49Z</time>
      </trkpt>
      <trkpt lat="45.71197" lon="6.69421">
        <ele>2414</ele>
        <time>2022-07-16T16:28:51Z</time>
      </trkpt>
      <trkpt lat="45.71197" lon="6.69423">
        <ele>2412</ele>
        <time>2022-07-16T16:28:53Z</time>
      </trkpt>
      <trkpt lat="45.71195" lon="6.69426">
        <ele>2412</ele>
        <time>2022-07-16T16:28:55Z</time>
      </trkpt>
      <trkpt lat="45.71193" lon="6.69427">
        <ele>2411</ele>
        <time>2022-07-16T16:28:57Z</time>
      </trkpt>
      <trkpt lat="45.7119" lon="6.69429">
        <ele>2410</ele>
        <time>2022-07-16T16:28:59Z</time>
      </trkpt>
      <trkpt lat="45.71188" lon="6.69431">
        <ele>2410</ele>
        <time>2022-07-16T16:29:01Z</time>
      </trkpt>
      <trkpt lat="45.71185" lon="6.69432">
        <ele>2410</ele>
        <time>2022-07-16T16:29:03Z</time>
      </trkpt>
      <trkpt lat="45.71183" lon="6.69433">
        <ele>2410</ele>
        <time>2022-07-16T16:29:05Z</time>
      </trkpt>
      <trkpt lat="45.7118" lon="6.69433">
        <ele>2410</ele>
        <time>2022-07-16T16:29:07Z</time>
      </trkpt>
      <trkpt lat="45.71178" lon="6.69434">
        <ele>2411</ele>
        <time>2022-07-16T16:29:09Z</time>
      </trkpt>
      <trkpt lat="45.71177" lon="6.69435">
        <ele>2411</ele>
        <time>2022-07-16T16:29:11Z</time>
      </trkpt>
      <trkpt lat="45.71174" lon="6.69436">
        <ele>2411</ele>
        <time>2022-07-16T16:29:14Z</time>
      </trkpt>
      <trkpt lat="45.71173" lon="6.69438">
        <ele>2411</ele>
        <time>2022-07-16T16:29:17Z</time>
      </trkpt>
      <trkpt lat="45.71171" lon="6.69439">
        <ele>2411</ele>
        <time>2022-07-16T16:29:19Z</time>
      </trkpt>
      <trkpt lat="45.71169" lon="6.69441">
        <ele>2411</ele>
        <time>2022-07-16T16:29:21Z</time>
      </trkpt>
      <trkpt lat="45.71167" lon="6.69443">
        <ele>2411</ele>
        <time>2022-07-16T16:29:23Z</time>
      </trkpt>
      <trkpt lat="45.71165" lon="6.69444">
        <ele>2411</ele>
        <time>2022-07-16T16:29:25Z</time>
      </trkpt>
      <trkpt lat="45.71163" lon="6.69446">
        <ele>2411</ele>
        <time>2022-07-16T16:29:27Z</time>
      </trkpt>
      <trkpt lat="45.7116" lon="6.69447">
        <ele>2411</ele>
        <time>2022-07-16T16:29:29Z</time>
      </trkpt>
      <trkpt lat="45.71158" lon="6.69448">
        <ele>2411</ele>
        <time>2022-07-16T16:29:31Z</time>
      </trkpt>
      <trkpt lat="45.71155" lon="6.69448">
        <ele>2411</ele>
        <time>2022-07-16T16:29:33Z</time>
      </trkpt>
      <trkpt lat="45.71153" lon="6.69449">
        <ele>2411</ele>
        <time>2022-07-16T16:29:35Z</time>
      </trkpt>
      <trkpt lat="45.71151" lon="6.69451">
        <ele>2411</ele>
        <time>2022-07-16T16:29:37Z</time>
      </trkpt>
      <trkpt lat="45.7115" lon="6.69454">
        <ele>2411</ele>
        <time>2022-07-16T16:29:39Z</time>
      </trkpt>
      <trkpt lat="45.71148" lon="6.69457">
        <ele>2411</ele>
        <time>2022-07-16T16:29:41Z</time>
      </trkpt>
      <trkpt lat="45.71147" lon="6.6946">
        <ele>2410</ele>
        <time>2022-07-16T16:29:43Z</time>
      </trkpt>
      <trkpt lat="45.71145" lon="6.69462">
        <ele>2411</ele>
        <time>2022-07-16T16:29:45Z</time>
      </trkpt>
      <trkpt lat="45.71143" lon="6.69464">
        <ele>2412</ele>
        <time>2022-07-16T16:29:47Z</time>
      </trkpt>
      <trkpt lat="45.71141" lon="6.69467">
        <ele>2412</ele>
        <time>2022-07-16T16:29:49Z</time>
      </trkpt>
      <trkpt lat="45.71138" lon="6.69469">
        <ele>2412</ele>
        <time>2022-07-16T16:29:51Z</time>
      </trkpt>
      <trkpt lat="45.71136" lon="6.69471">
        <ele>2412</ele>
        <time>2022-07-16T16:29:53Z</time>
      </trkpt>
      <trkpt lat="45.71134" lon="6.69473">
        <ele>2412</ele>
        <time>2022-07-16T16:29:55Z</time>
      </trkpt>
      <trkpt lat="45.71132" lon="6.69474">
        <ele>2412</ele>
        <time>2022-07-16T16:29:57Z</time>
      </trkpt>
      <trkpt lat="45.7113" lon="6.69476">
        <ele>2412</ele>
        <time>2022-07-16T16:29:59Z</time>
      </trkpt>
      <trkpt lat="45.71128" lon="6.69478">
        <ele>2412</ele>
        <time>2022-07-16T16:30:01Z</time>
      </trkpt>
      <trkpt lat="45.71126" lon="6.69481">
        <ele>2412</ele>
        <time>2022-07-16T16:30:03Z</time>
      </trkpt>
      <trkpt lat="45.71125" lon="6.69483">
        <ele>2412</ele>
        <time>2022-07-16T16:30:05Z</time>
      </trkpt>
      <trkpt lat="45.71123" lon="6.69485">
        <ele>2413</ele>
        <time>2022-07-16T16:30:07Z</time>
      </trkpt>
      <trkpt lat="45.71121" lon="6.69486">
        <ele>2414</ele>
        <time>2022-07-16T16:30:09Z</time>
      </trkpt>
      <trkpt lat="45.71119" lon="6.69489">
        <ele>2414</ele>
        <time>2022-07-16T16:30:12Z</time>
      </trkpt>
      <trkpt lat="45.71118" lon="6.69491">
        <ele>2415</ele>
        <time>2022-07-16T16:30:14Z</time>
      </trkpt>
      <trkpt lat="45.71116" lon="6.69493">
        <ele>2415</ele>
        <time>2022-07-16T16:30:16Z</time>
      </trkpt>
      <trkpt lat="45.71115" lon="6.69495">
        <ele>2415</ele>
        <time>2022-07-16T16:30:18Z</time>
      </trkpt>
      <trkpt lat="45.71114" lon="6.69497">
        <ele>2415</ele>
        <time>2022-07-16T16:30:20Z</time>
      </trkpt>
      <trkpt lat="45.71112" lon="6.69499">
        <ele>2415</ele>
        <time>2022-07-16T16:30:22Z</time>
      </trkpt>
      <trkpt lat="45.71109" lon="6.69499">
        <ele>2416</ele>
        <time>2022-07-16T16:30:25Z</time>
      </trkpt>
      <trkpt lat="45.71108" lon="6.695">
        <ele>2416</ele>
        <time>2022-07-16T16:30:27Z</time>
      </trkpt>
      <trkpt lat="45.71105" lon="6.695">
        <ele>2418</ele>
        <time>2022-07-16T16:30:30Z</time>
      </trkpt>
      <trkpt lat="45.71103" lon="6.69501">
        <ele>2417</ele>
        <time>2022-07-16T16:30:33Z</time>
      </trkpt>
      <trkpt lat="45.71101" lon="6.69503">
        <ele>2417</ele>
        <time>2022-07-16T16:30:35Z</time>
      </trkpt>
      <trkpt lat="45.711" lon="6.69506">
        <ele>2417</ele>
        <time>2022-07-16T16:30:37Z</time>
      </trkpt>
      <trkpt lat="45.71099" lon="6.69509">
        <ele>2418</ele>
        <time>2022-07-16T16:30:39Z</time>
      </trkpt>
      <trkpt lat="45.71097" lon="6.69511">
        <ele>2418</ele>
        <time>2022-07-16T16:30:41Z</time>
      </trkpt>
      <trkpt lat="45.71095" lon="6.69512">
        <ele>2419</ele>
        <time>2022-07-16T16:30:43Z</time>
      </trkpt>
      <trkpt lat="45.71093" lon="6.69513">
        <ele>2420</ele>
        <time>2022-07-16T16:30:45Z</time>
      </trkpt>
      <trkpt lat="45.71091" lon="6.69513">
        <ele>2420</ele>
        <time>2022-07-16T16:30:47Z</time>
      </trkpt>
      <trkpt lat="45.71089" lon="6.69513">
        <ele>2420</ele>
        <time>2022-07-16T16:30:49Z</time>
      </trkpt>
      <trkpt lat="45.71087" lon="6.69512">
        <ele>2420</ele>
        <time>2022-07-16T16:30:51Z</time>
      </trkpt>
      <trkpt lat="45.71085" lon="6.69512">
        <ele>2420</ele>
        <time>2022-07-16T16:30:53Z</time>
      </trkpt>
      <trkpt lat="45.71082" lon="6.69512">
        <ele>2420</ele>
        <time>2022-07-16T16:30:55Z</time>
      </trkpt>
      <trkpt lat="45.7108" lon="6.69512">
        <ele>2420</ele>
        <time>2022-07-16T16:30:57Z</time>
      </trkpt>
      <trkpt lat="45.71078" lon="6.69511">
        <ele>2421</ele>
        <time>2022-07-16T16:31:00Z</time>
      </trkpt>
      <trkpt lat="45.71075" lon="6.69512">
        <ele>2421</ele>
        <time>2022-07-16T16:31:02Z</time>
      </trkpt>
      <trkpt lat="45.71073" lon="6.69512">
        <ele>2421</ele>
        <time>2022-07-16T16:31:04Z</time>
      </trkpt>
      <trkpt lat="45.7107" lon="6.69513">
        <ele>2421</ele>
        <time>2022-07-16T16:31:06Z</time>
      </trkpt>
      <trkpt lat="45.71068" lon="6.69514">
        <ele>2421</ele>
        <time>2022-07-16T16:31:08Z</time>
      </trkpt>
      <trkpt lat="45.71065" lon="6.69514">
        <ele>2422</ele>
        <time>2022-07-16T16:31:10Z</time>
      </trkpt>
      <trkpt lat="45.71063" lon="6.69515">
        <ele>2422</ele>
        <time>2022-07-16T16:31:12Z</time>
      </trkpt>
      <trkpt lat="45.71061" lon="6.69516">
        <ele>2422</ele>
        <time>2022-07-16T16:31:14Z</time>
      </trkpt>
      <trkpt lat="45.71058" lon="6.69517">
        <ele>2422</ele>
        <time>2022-07-16T16:31:16Z</time>
      </trkpt>
      <trkpt lat="45.71056" lon="6.69518">
        <ele>2422</ele>
        <time>2022-07-16T16:31:18Z</time>
      </trkpt>
      <trkpt lat="45.71054" lon="6.69518">
        <ele>2422</ele>
        <time>2022-07-16T16:31:20Z</time>
      </trkpt>
      <trkpt lat="45.71052" lon="6.69518">
        <ele>2422</ele>
        <time>2022-07-16T16:31:22Z</time>
      </trkpt>
      <trkpt lat="45.7105" lon="6.69517">
        <ele>2423</ele>
        <time>2022-07-16T16:31:24Z</time>
      </trkpt>
      <trkpt lat="45.71048" lon="6.69518">
        <ele>2424</ele>
        <time>2022-07-16T16:31:26Z</time>
      </trkpt>
      <trkpt lat="45.71045" lon="6.69518">
        <ele>2424</ele>
        <time>2022-07-16T16:31:29Z</time>
      </trkpt>
      <trkpt lat="45.71043" lon="6.69517">
        <ele>2425</ele>
        <time>2022-07-16T16:31:32Z</time>
      </trkpt>
      <trkpt lat="45.71041" lon="6.69517">
        <ele>2426</ele>
        <time>2022-07-16T16:31:35Z</time>
      </trkpt>
      <trkpt lat="45.71039" lon="6.69517">
        <ele>2426</ele>
        <time>2022-07-16T16:31:38Z</time>
      </trkpt>
      <trkpt lat="45.71036" lon="6.69518">
        <ele>2426</ele>
        <time>2022-07-16T16:31:41Z</time>
      </trkpt>
      <trkpt lat="45.71034" lon="6.69518">
        <ele>2426</ele>
        <time>2022-07-16T16:31:43Z</time>
      </trkpt>
      <trkpt lat="45.71032" lon="6.69519">
        <ele>2425</ele>
        <time>2022-07-16T16:31:45Z</time>
      </trkpt>
      <trkpt lat="45.7103" lon="6.69519">
        <ele>2427</ele>
        <time>2022-07-16T16:31:47Z</time>
      </trkpt>
      <trkpt lat="45.71028" lon="6.69521">
        <ele>2428</ele>
        <time>2022-07-16T16:31:50Z</time>
      </trkpt>
      <trkpt lat="45.71026" lon="6.69522">
        <ele>2428</ele>
        <time>2022-07-16T16:31:52Z</time>
      </trkpt>
      <trkpt lat="45.71024" lon="6.69524">
        <ele>2428</ele>
        <time>2022-07-16T16:31:55Z</time>
      </trkpt>
      <trkpt lat="45.71023" lon="6.69526">
        <ele>2428</ele>
        <time>2022-07-16T16:31:58Z</time>
      </trkpt>
      <trkpt lat="45.71021" lon="6.69529">
        <ele>2428</ele>
        <time>2022-07-16T16:32:00Z</time>
      </trkpt>
      <trkpt lat="45.71019" lon="6.69532">
        <ele>2431</ele>
        <time>2022-07-16T16:32:03Z</time>
      </trkpt>
      <trkpt lat="45.71018" lon="6.69534">
        <ele>2430</ele>
        <time>2022-07-16T16:32:06Z</time>
      </trkpt>
      <trkpt lat="45.71017" lon="6.69537">
        <ele>2431</ele>
        <time>2022-07-16T16:32:08Z</time>
      </trkpt>
      <trkpt lat="45.71016" lon="6.69539">
        <ele>2431</ele>
        <time>2022-07-16T16:32:10Z</time>
      </trkpt>
      <trkpt lat="45.71016" lon="6.69542">
        <ele>2431</ele>
        <time>2022-07-16T16:32:12Z</time>
      </trkpt>
      <trkpt lat="45.71015" lon="6.69545">
        <ele>2431</ele>
        <time>2022-07-16T16:32:14Z</time>
      </trkpt>
      <trkpt lat="45.71015" lon="6.69548">
        <ele>2431</ele>
        <time>2022-07-16T16:32:16Z</time>
      </trkpt>
      <trkpt lat="45.71014" lon="6.69552">
        <ele>2430</ele>
        <time>2022-07-16T16:32:18Z</time>
      </trkpt>
      <trkpt lat="45.71013" lon="6.69556">
        <ele>2430</ele>
        <time>2022-07-16T16:32:20Z</time>
      </trkpt>
      <trkpt lat="45.71011" lon="6.69559">
        <ele>2430</ele>
        <time>2022-07-16T16:32:22Z</time>
      </trkpt>
      <trkpt lat="45.7101" lon="6.69562">
        <ele>2431</ele>
        <time>2022-07-16T16:32:24Z</time>
      </trkpt>
      <trkpt lat="45.71009" lon="6.69564">
        <ele>2431</ele>
        <time>2022-07-16T16:32:26Z</time>
      </trkpt>
      <trkpt lat="45.71007" lon="6.69567">
        <ele>2431</ele>
        <time>2022-07-16T16:32:29Z</time>
      </trkpt>
      <trkpt lat="45.71005" lon="6.6957">
        <ele>2431</ele>
        <time>2022-07-16T16:32:32Z</time>
      </trkpt>
      <trkpt lat="45.71004" lon="6.69573">
        <ele>2432</ele>
        <time>2022-07-16T16:32:35Z</time>
      </trkpt>
      <trkpt lat="45.71003" lon="6.69575">
        <ele>2432</ele>
        <time>2022-07-16T16:32:38Z</time>
      </trkpt>
      <trkpt lat="45.71001" lon="6.69578">
        <ele>2433</ele>
        <time>2022-07-16T16:32:41Z</time>
      </trkpt>
      <trkpt lat="45.70999" lon="6.69577">
        <ele>2433</ele>
        <time>2022-07-16T16:32:44Z</time>
      </trkpt>
      <trkpt lat="45.70997" lon="6.69578">
        <ele>2435</ele>
        <time>2022-07-16T16:32:50Z</time>
      </trkpt>
      <trkpt lat="45.70996" lon="6.6958">
        <ele>2436</ele>
        <time>2022-07-16T16:32:54Z</time>
      </trkpt>
      <trkpt lat="45.70994" lon="6.69581">
        <ele>2437</ele>
        <time>2022-07-16T16:32:58Z</time>
      </trkpt>
      <trkpt lat="45.70992" lon="6.6958">
        <ele>2438</ele>
        <time>2022-07-16T16:33:03Z</time>
      </trkpt>
      <trkpt lat="45.7099" lon="6.6958">
        <ele>2438</ele>
        <time>2022-07-16T16:33:08Z</time>
      </trkpt>
      <trkpt lat="45.70988" lon="6.69578">
        <ele>2439</ele>
        <time>2022-07-16T16:33:12Z</time>
      </trkpt>
      <trkpt lat="45.70986" lon="6.69577">
        <ele>2439</ele>
        <time>2022-07-16T16:33:17Z</time>
      </trkpt>
      <trkpt lat="45.70985" lon="6.69577">
        <ele>2441</ele>
        <time>2022-07-16T16:33:23Z</time>
      </trkpt>
      <trkpt lat="45.70983" lon="6.69577">
        <ele>2442</ele>
        <time>2022-07-16T16:33:27Z</time>
      </trkpt>
      <trkpt lat="45.70981" lon="6.69577">
        <ele>2443</ele>
        <time>2022-07-16T16:33:35Z</time>
      </trkpt>
      <trkpt lat="45.70979" lon="6.69579">
        <ele>2444</ele>
        <time>2022-07-16T16:33:39Z</time>
      </trkpt>
      <trkpt lat="45.70978" lon="6.69577">
        <ele>2444</ele>
        <time>2022-07-16T16:33:42Z</time>
      </trkpt>
      <trkpt lat="45.70976" lon="6.69576">
        <ele>2445</ele>
        <time>2022-07-16T16:33:46Z</time>
      </trkpt>
      <trkpt lat="45.70974" lon="6.69576">
        <ele>2445</ele>
        <time>2022-07-16T16:33:49Z</time>
      </trkpt>
      <trkpt lat="45.70971" lon="6.69575">
        <ele>2446</ele>
        <time>2022-07-16T16:33:52Z</time>
      </trkpt>
      <trkpt lat="45.70969" lon="6.69575">
        <ele>2447</ele>
        <time>2022-07-16T16:33:55Z</time>
      </trkpt>
      <trkpt lat="45.70967" lon="6.69575">
        <ele>2447</ele>
        <time>2022-07-16T16:33:59Z</time>
      </trkpt>
      <trkpt lat="45.70968" lon="6.69577">
        <ele>2447</ele>
        <time>2022-07-16T16:34:06Z</time>
      </trkpt>
      <trkpt lat="45.70969" lon="6.6958">
        <ele>2448</ele>
        <time>2022-07-16T16:34:10Z</time>
      </trkpt>
      <trkpt lat="45.70971" lon="6.69582">
        <ele>2449</ele>
        <time>2022-07-16T16:34:14Z</time>
      </trkpt>
      <trkpt lat="45.70973" lon="6.69584">
        <ele>2450</ele>
        <time>2022-07-16T16:34:17Z</time>
      </trkpt>
      <trkpt lat="45.70974" lon="6.69586">
        <ele>2450</ele>
        <time>2022-07-16T16:34:20Z</time>
      </trkpt>
      <trkpt lat="45.70975" lon="6.69588">
        <ele>2450</ele>
        <time>2022-07-16T16:34:23Z</time>
      </trkpt>
      <trkpt lat="45.70973" lon="6.6959">
        <ele>2451</ele>
        <time>2022-07-16T16:34:27Z</time>
      </trkpt>
      <trkpt lat="45.70971" lon="6.69589">
        <ele>2452</ele>
        <time>2022-07-16T16:34:31Z</time>
      </trkpt>
      <trkpt lat="45.70971" lon="6.69589">
        <ele>2453</ele>
        <time>2022-07-16T16:34:38Z</time>
      </trkpt>
      <trkpt lat="45.7097" lon="6.69592">
        <ele>2453</ele>
        <time>2022-07-16T16:34:42Z</time>
      </trkpt>
      <trkpt lat="45.70971" lon="6.69595">
        <ele>2454</ele>
        <time>2022-07-16T16:34:46Z</time>
      </trkpt>
      <trkpt lat="45.7097" lon="6.69597">
        <ele>2456</ele>
        <time>2022-07-16T16:34:50Z</time>
      </trkpt>
      <trkpt lat="45.70971" lon="6.69601">
        <ele>2456</ele>
        <time>2022-07-16T16:34:55Z</time>
      </trkpt>
      <trkpt lat="45.7097" lon="6.69604">
        <ele>2457</ele>
        <time>2022-07-16T16:35:01Z</time>
      </trkpt>
      <trkpt lat="45.70968" lon="6.69603">
        <ele>2459</ele>
        <time>2022-07-16T16:35:06Z</time>
      </trkpt>
      <trkpt lat="45.70966" lon="6.69602">
        <ele>2459</ele>
        <time>2022-07-16T16:35:11Z</time>
      </trkpt>
      <trkpt lat="45.70966" lon="6.69602">
        <ele>2461</ele>
        <time>2022-07-16T16:35:18Z</time>
      </trkpt>
      <trkpt lat="45.70966" lon="6.69606">
        <ele>2461</ele>
        <time>2022-07-16T16:35:20Z</time>
      </trkpt>
      <trkpt lat="45.70964" lon="6.69606">
        <ele>2462</ele>
        <time>2022-07-16T16:35:23Z</time>
      </trkpt>
      <trkpt lat="45.70962" lon="6.69605">
        <ele>2463</ele>
        <time>2022-07-16T16:35:27Z</time>
      </trkpt>
      <trkpt lat="45.7096" lon="6.69604">
        <ele>2464</ele>
        <time>2022-07-16T16:35:32Z</time>
      </trkpt>
      <trkpt lat="45.70959" lon="6.69606">
        <ele>2464</ele>
        <time>2022-07-16T16:35:38Z</time>
      </trkpt>
      <trkpt lat="45.70957" lon="6.69607">
        <ele>2465</ele>
        <time>2022-07-16T16:35:42Z</time>
      </trkpt>
      <trkpt lat="45.70955" lon="6.69607">
        <ele>2465</ele>
        <time>2022-07-16T16:35:46Z</time>
      </trkpt>
      <trkpt lat="45.70955" lon="6.6961">
        <ele>2465</ele>
        <time>2022-07-16T16:35:51Z</time>
      </trkpt>
      <trkpt lat="45.70954" lon="6.69611">
        <ele>2466</ele>
        <time>2022-07-16T16:35:54Z</time>
      </trkpt>
      <trkpt lat="45.70951" lon="6.69611">
        <ele>2467</ele>
        <time>2022-07-16T16:35:58Z</time>
      </trkpt>
      <trkpt lat="45.7095" lon="6.69612">
        <ele>2468</ele>
        <time>2022-07-16T16:36:05Z</time>
      </trkpt>
      <trkpt lat="45.7095" lon="6.69612">
        <ele>2469</ele>
        <time>2022-07-16T16:36:10Z</time>
      </trkpt>
      <trkpt lat="45.70949" lon="6.69615">
        <ele>2470</ele>
        <time>2022-07-16T16:36:19Z</time>
      </trkpt>
      <trkpt lat="45.70948" lon="6.69616">
        <ele>2470</ele>
        <time>2022-07-16T16:36:23Z</time>
      </trkpt>
      <trkpt lat="45.70946" lon="6.69616">
        <ele>2471</ele>
        <time>2022-07-16T16:36:28Z</time>
      </trkpt>
      <trkpt lat="45.70946" lon="6.69619">
        <ele>2471</ele>
        <time>2022-07-16T16:36:35Z</time>
      </trkpt>
      <trkpt lat="45.70947" lon="6.69621">
        <ele>2472</ele>
        <time>2022-07-16T16:36:38Z</time>
      </trkpt>
      <trkpt lat="45.70948" lon="6.69624">
        <ele>2474</ele>
        <time>2022-07-16T16:36:41Z</time>
      </trkpt>
      <trkpt lat="45.70948" lon="6.69627">
        <ele>2475</ele>
        <time>2022-07-16T16:36:44Z</time>
      </trkpt>
      <trkpt lat="45.70948" lon="6.6963">
        <ele>2475</ele>
        <time>2022-07-16T16:36:46Z</time>
      </trkpt>
      <trkpt lat="45.70947" lon="6.69633">
        <ele>2475</ele>
        <time>2022-07-16T16:36:48Z</time>
      </trkpt>
      <trkpt lat="45.70947" lon="6.69637">
        <ele>2475</ele>
        <time>2022-07-16T16:36:51Z</time>
      </trkpt>
      <trkpt lat="45.70947" lon="6.69639">
        <ele>2476</ele>
        <time>2022-07-16T16:36:53Z</time>
      </trkpt>
      <trkpt lat="45.70947" lon="6.69642">
        <ele>2476</ele>
        <time>2022-07-16T16:36:55Z</time>
      </trkpt>
      <trkpt lat="45.70948" lon="6.69645">
        <ele>2476</ele>
        <time>2022-07-16T16:36:57Z</time>
      </trkpt>
      <trkpt lat="45.70948" lon="6.69649">
        <ele>2476</ele>
        <time>2022-07-16T16:36:59Z</time>
      </trkpt>
      <trkpt lat="45.70948" lon="6.69652">
        <ele>2476</ele>
        <time>2022-07-16T16:37:01Z</time>
      </trkpt>
      <trkpt lat="45.70948" lon="6.69655">
        <ele>2476</ele>
        <time>2022-07-16T16:37:03Z</time>
      </trkpt>
      <trkpt lat="45.70947" lon="6.69658">
        <ele>2476</ele>
        <time>2022-07-16T16:37:05Z</time>
      </trkpt>
      <trkpt lat="45.70948" lon="6.69661">
        <ele>2476</ele>
        <time>2022-07-16T16:37:07Z</time>
      </trkpt>
      <trkpt lat="45.70948" lon="6.69664">
        <ele>2476</ele>
        <time>2022-07-16T16:37:09Z</time>
      </trkpt>
      <trkpt lat="45.70949" lon="6.69668">
        <ele>2476</ele>
        <time>2022-07-16T16:37:11Z</time>
      </trkpt>
      <trkpt lat="45.70949" lon="6.69671">
        <ele>2476</ele>
        <time>2022-07-16T16:37:13Z</time>
      </trkpt>
      <trkpt lat="45.7095" lon="6.69675">
        <ele>2476</ele>
        <time>2022-07-16T16:37:15Z</time>
      </trkpt>
      <trkpt lat="45.7095" lon="6.69679">
        <ele>2476</ele>
        <time>2022-07-16T16:37:17Z</time>
      </trkpt>
      <trkpt lat="45.7095" lon="6.69681">
        <ele>2476</ele>
        <time>2022-07-16T16:37:19Z</time>
      </trkpt>
      <trkpt lat="45.70951" lon="6.69684">
        <ele>2476</ele>
        <time>2022-07-16T16:37:21Z</time>
      </trkpt>
      <trkpt lat="45.7095" lon="6.69687">
        <ele>2476</ele>
        <time>2022-07-16T16:37:23Z</time>
      </trkpt>
      <trkpt lat="45.7095" lon="6.69691">
        <ele>2476</ele>
        <time>2022-07-16T16:37:26Z</time>
      </trkpt>
      <trkpt lat="45.7095" lon="6.69694">
        <ele>2475</ele>
        <time>2022-07-16T16:37:28Z</time>
      </trkpt>
      <trkpt lat="45.70951" lon="6.69697">
        <ele>2474</ele>
        <time>2022-07-16T16:37:30Z</time>
      </trkpt>
      <trkpt lat="45.70952" lon="6.69701">
        <ele>2474</ele>
        <time>2022-07-16T16:37:33Z</time>
      </trkpt>
      <trkpt lat="45.70952" lon="6.69704">
        <ele>2472</ele>
        <time>2022-07-16T16:37:36Z</time>
      </trkpt>
      <trkpt lat="45.70952" lon="6.69707">
        <ele>2471</ele>
        <time>2022-07-16T16:37:38Z</time>
      </trkpt>
      <trkpt lat="45.70953" lon="6.69711">
        <ele>2471</ele>
        <time>2022-07-16T16:37:40Z</time>
      </trkpt>
      <trkpt lat="45.70954" lon="6.69715">
        <ele>2470</ele>
        <time>2022-07-16T16:37:42Z</time>
      </trkpt>
      <trkpt lat="45.70955" lon="6.69719">
        <ele>2470</ele>
        <time>2022-07-16T16:37:44Z</time>
      </trkpt>
      <trkpt lat="45.70955" lon="6.69722">
        <ele>2469</ele>
        <time>2022-07-16T16:37:46Z</time>
      </trkpt>
      <trkpt lat="45.70955" lon="6.69725">
        <ele>2469</ele>
        <time>2022-07-16T16:37:48Z</time>
      </trkpt>
      <trkpt lat="45.70955" lon="6.69728">
        <ele>2470</ele>
        <time>2022-07-16T16:37:50Z</time>
      </trkpt>
      <trkpt lat="45.70955" lon="6.69732">
        <ele>2470</ele>
        <time>2022-07-16T16:37:52Z</time>
      </trkpt>
      <trkpt lat="45.70954" lon="6.69734">
        <ele>2470</ele>
        <time>2022-07-16T16:37:54Z</time>
      </trkpt>
      <trkpt lat="45.70953" lon="6.69737">
        <ele>2471</ele>
        <time>2022-07-16T16:37:57Z</time>
      </trkpt>
      <trkpt lat="45.70953" lon="6.69741">
        <ele>2471</ele>
        <time>2022-07-16T16:38:00Z</time>
      </trkpt>
      <trkpt lat="45.70953" lon="6.69744">
        <ele>2472</ele>
        <time>2022-07-16T16:38:03Z</time>
      </trkpt>
      <trkpt lat="45.70952" lon="6.69747">
        <ele>2474</ele>
        <time>2022-07-16T16:38:06Z</time>
      </trkpt>
      <trkpt lat="45.70951" lon="6.69749">
        <ele>2476</ele>
        <time>2022-07-16T16:38:10Z</time>
      </trkpt>
      <trkpt lat="45.7095" lon="6.69751">
        <ele>2476</ele>
        <time>2022-07-16T16:38:15Z</time>
      </trkpt>
      <trkpt lat="45.70949" lon="6.69754">
        <ele>2477</ele>
        <time>2022-07-16T16:38:20Z</time>
      </trkpt>
      <trkpt lat="45.70948" lon="6.69756">
        <ele>2477</ele>
        <time>2022-07-16T16:38:24Z</time>
      </trkpt>
      <trkpt lat="45.70946" lon="6.69758">
        <ele>2480</ele>
        <time>2022-07-16T16:38:31Z</time>
      </trkpt>
      <trkpt lat="45.70945" lon="6.6976">
        <ele>2480</ele>
        <time>2022-07-16T16:38:34Z</time>
      </trkpt>
      <trkpt lat="45.70945" lon="6.69762">
        <ele>2480</ele>
        <time>2022-07-16T16:38:38Z</time>
      </trkpt>
      <trkpt lat="45.70946" lon="6.69763">
        <ele>2480</ele>
        <time>2022-07-16T16:38:42Z</time>
      </trkpt>
      <trkpt lat="45.70948" lon="6.69765">
        <ele>2480</ele>
        <time>2022-07-16T16:38:45Z</time>
      </trkpt>
      <trkpt lat="45.70947" lon="6.69768">
        <ele>2482</ele>
        <time>2022-07-16T16:38:48Z</time>
      </trkpt>
      <trkpt lat="45.70947" lon="6.6977">
        <ele>2482</ele>
        <time>2022-07-16T16:38:53Z</time>
      </trkpt>
      <trkpt lat="45.70946" lon="6.69773">
        <ele>2483</ele>
        <time>2022-07-16T16:38:57Z</time>
      </trkpt>
      <trkpt lat="45.70945" lon="6.69776">
        <ele>2483</ele>
        <time>2022-07-16T16:39:01Z</time>
      </trkpt>
      <trkpt lat="45.70945" lon="6.69779">
        <ele>2483</ele>
        <time>2022-07-16T16:39:04Z</time>
      </trkpt>
      <trkpt lat="45.70944" lon="6.69782">
        <ele>2484</ele>
        <time>2022-07-16T16:39:08Z</time>
      </trkpt>
      <trkpt lat="45.70944" lon="6.69784">
        <ele>2486</ele>
        <time>2022-07-16T16:39:11Z</time>
      </trkpt>
      <trkpt lat="45.70944" lon="6.69787">
        <ele>2486</ele>
        <time>2022-07-16T16:39:14Z</time>
      </trkpt>
      <trkpt lat="45.70944" lon="6.69791">
        <ele>2487</ele>
        <time>2022-07-16T16:39:18Z</time>
      </trkpt>
      <trkpt lat="45.70945" lon="6.69794">
        <ele>2487</ele>
        <time>2022-07-16T16:39:21Z</time>
      </trkpt>
      <trkpt lat="45.70944" lon="6.69796">
        <ele>2487</ele>
        <time>2022-07-16T16:39:24Z</time>
      </trkpt>
      <trkpt lat="45.70943" lon="6.69799">
        <ele>2489</ele>
        <time>2022-07-16T16:39:28Z</time>
      </trkpt>
      <trkpt lat="45.70944" lon="6.69802">
        <ele>2490</ele>
        <time>2022-07-16T16:39:32Z</time>
      </trkpt>
      <trkpt lat="45.70944" lon="6.69805">
        <ele>2490</ele>
        <time>2022-07-16T16:39:35Z</time>
      </trkpt>
      <trkpt lat="45.70945" lon="6.69808">
        <ele>2490</ele>
        <time>2022-07-16T16:39:38Z</time>
      </trkpt>
      <trkpt lat="45.70945" lon="6.69811">
        <ele>2491</ele>
        <time>2022-07-16T16:39:41Z</time>
      </trkpt>
      <trkpt lat="45.70945" lon="6.69814">
        <ele>2491</ele>
        <time>2022-07-16T16:39:44Z</time>
      </trkpt>
      <trkpt lat="45.70944" lon="6.69817">
        <ele>2491</ele>
        <time>2022-07-16T16:39:48Z</time>
      </trkpt>
      <trkpt lat="45.70945" lon="6.6982">
        <ele>2492</ele>
        <time>2022-07-16T16:39:52Z</time>
      </trkpt>
      <trkpt lat="45.70946" lon="6.69822">
        <ele>2492</ele>
        <time>2022-07-16T16:39:56Z</time>
      </trkpt>
      <trkpt lat="45.70947" lon="6.69825">
        <ele>2493</ele>
        <time>2022-07-16T16:39:59Z</time>
      </trkpt>
      <trkpt lat="45.70947" lon="6.69828">
        <ele>2493</ele>
        <time>2022-07-16T16:40:02Z</time>
      </trkpt>
      <trkpt lat="45.70946" lon="6.69831">
        <ele>2494</ele>
        <time>2022-07-16T16:40:05Z</time>
      </trkpt>
      <trkpt lat="45.70945" lon="6.69833">
        <ele>2496</ele>
        <time>2022-07-16T16:40:10Z</time>
      </trkpt>
      <trkpt lat="45.70945" lon="6.69836">
        <ele>2496</ele>
        <time>2022-07-16T16:40:14Z</time>
      </trkpt>
      <trkpt lat="45.70947" lon="6.69837">
        <ele>2498</ele>
        <time>2022-07-16T16:40:21Z</time>
      </trkpt>
      <trkpt lat="45.70948" lon="6.69839">
        <ele>2498</ele>
        <time>2022-07-16T16:40:26Z</time>
      </trkpt>
      <trkpt lat="45.70948" lon="6.69842">
        <ele>2500</ele>
        <time>2022-07-16T16:40:29Z</time>
      </trkpt>
      <trkpt lat="45.70948" lon="6.69846">
        <ele>2500</ele>
        <time>2022-07-16T16:40:33Z</time>
      </trkpt>
      <trkpt lat="45.70947" lon="6.69849">
        <ele>2501</ele>
        <time>2022-07-16T16:40:36Z</time>
      </trkpt>
      <trkpt lat="45.70947" lon="6.69852">
        <ele>2502</ele>
        <time>2022-07-16T16:40:39Z</time>
      </trkpt>
      <trkpt lat="45.70945" lon="6.69854">
        <ele>2503</ele>
        <time>2022-07-16T16:40:42Z</time>
      </trkpt>
      <trkpt lat="45.70944" lon="6.69856">
        <ele>2503</ele>
        <time>2022-07-16T16:40:47Z</time>
      </trkpt>
      <trkpt lat="45.70943" lon="6.69859">
        <ele>2503</ele>
        <time>2022-07-16T16:40:50Z</time>
      </trkpt>
      <trkpt lat="45.70943" lon="6.69862">
        <ele>2503</ele>
        <time>2022-07-16T16:40:53Z</time>
      </trkpt>
      <trkpt lat="45.70943" lon="6.69865">
        <ele>2504</ele>
        <time>2022-07-16T16:40:56Z</time>
      </trkpt>
      <trkpt lat="45.70942" lon="6.69868">
        <ele>2505</ele>
        <time>2022-07-16T16:40:59Z</time>
      </trkpt>
      <trkpt lat="45.70941" lon="6.6987">
        <ele>2505</ele>
        <time>2022-07-16T16:41:02Z</time>
      </trkpt>
      <trkpt lat="45.7094" lon="6.69873">
        <ele>2505</ele>
        <time>2022-07-16T16:41:05Z</time>
      </trkpt>
      <trkpt lat="45.7094" lon="6.69876">
        <ele>2506</ele>
        <time>2022-07-16T16:41:08Z</time>
      </trkpt>
      <trkpt lat="45.70939" lon="6.69879">
        <ele>2507</ele>
        <time>2022-07-16T16:41:11Z</time>
      </trkpt>
      <trkpt lat="45.70938" lon="6.69882">
        <ele>2508</ele>
        <time>2022-07-16T16:41:15Z</time>
      </trkpt>
      <trkpt lat="45.70938" lon="6.69885">
        <ele>2510</ele>
        <time>2022-07-16T16:41:18Z</time>
      </trkpt>
      <trkpt lat="45.70938" lon="6.69888">
        <ele>2510</ele>
        <time>2022-07-16T16:41:22Z</time>
      </trkpt>
      <trkpt lat="45.70937" lon="6.69891">
        <ele>2510</ele>
        <time>2022-07-16T16:41:26Z</time>
      </trkpt>
      <trkpt lat="45.70936" lon="6.69894">
        <ele>2510</ele>
        <time>2022-07-16T16:41:29Z</time>
      </trkpt>
      <trkpt lat="45.70936" lon="6.69897">
        <ele>2511</ele>
        <time>2022-07-16T16:41:33Z</time>
      </trkpt>
      <trkpt lat="45.70935" lon="6.699">
        <ele>2512</ele>
        <time>2022-07-16T16:41:37Z</time>
      </trkpt>
      <trkpt lat="45.70935" lon="6.69903">
        <ele>2512</ele>
        <time>2022-07-16T16:41:40Z</time>
      </trkpt>
      <trkpt lat="45.70935" lon="6.69906">
        <ele>2514</ele>
        <time>2022-07-16T16:41:45Z</time>
      </trkpt>
      <trkpt lat="45.70934" lon="6.69908">
        <ele>2514</ele>
        <time>2022-07-16T16:41:49Z</time>
      </trkpt>
      <trkpt lat="45.70934" lon="6.69912">
        <ele>2514</ele>
        <time>2022-07-16T16:41:54Z</time>
      </trkpt>
      <trkpt lat="45.70933" lon="6.69915">
        <ele>2515</ele>
        <time>2022-07-16T16:41:58Z</time>
      </trkpt>
      <trkpt lat="45.70933" lon="6.69918">
        <ele>2516</ele>
        <time>2022-07-16T16:42:03Z</time>
      </trkpt>
      <trkpt lat="45.70932" lon="6.6992">
        <ele>2517</ele>
        <time>2022-07-16T16:42:07Z</time>
      </trkpt>
      <trkpt lat="45.70932" lon="6.69923">
        <ele>2518</ele>
        <time>2022-07-16T16:42:13Z</time>
      </trkpt>
      <trkpt lat="45.70931" lon="6.69926">
        <ele>2519</ele>
        <time>2022-07-16T16:42:18Z</time>
      </trkpt>
      <trkpt lat="45.70931" lon="6.69929">
        <ele>2520</ele>
        <time>2022-07-16T16:42:23Z</time>
      </trkpt>
      <trkpt lat="45.70931" lon="6.69932">
        <ele>2522</ele>
        <time>2022-07-16T16:42:28Z</time>
      </trkpt>
      <trkpt lat="45.7093" lon="6.69934">
        <ele>2523</ele>
        <time>2022-07-16T16:42:32Z</time>
      </trkpt>
      <trkpt lat="45.70929" lon="6.69937">
        <ele>2523</ele>
        <time>2022-07-16T16:42:37Z</time>
      </trkpt>
      <trkpt lat="45.70929" lon="6.69939">
        <ele>2524</ele>
        <time>2022-07-16T16:42:41Z</time>
      </trkpt>
      <trkpt lat="45.7093" lon="6.69942">
        <ele>2525</ele>
        <time>2022-07-16T16:42:45Z</time>
      </trkpt>
      <trkpt lat="45.70931" lon="6.69944">
        <ele>2525</ele>
        <time>2022-07-16T16:42:48Z</time>
      </trkpt>
      <trkpt lat="45.70932" lon="6.69947">
        <ele>2525</ele>
        <time>2022-07-16T16:42:57Z</time>
      </trkpt>
      <trkpt lat="45.70932" lon="6.69949">
        <ele>2524</ele>
        <time>2022-07-16T16:43:00Z</time>
      </trkpt>
      <trkpt lat="45.70933" lon="6.69952">
        <ele>2523</ele>
        <time>2022-07-16T16:43:03Z</time>
      </trkpt>
      <trkpt lat="45.70934" lon="6.69956">
        <ele>2520</ele>
        <time>2022-07-16T16:43:06Z</time>
      </trkpt>
      <trkpt lat="45.70934" lon="6.69959">
        <ele>2520</ele>
        <time>2022-07-16T16:43:09Z</time>
      </trkpt>
      <trkpt lat="45.70934" lon="6.69962">
        <ele>2520</ele>
        <time>2022-07-16T16:43:12Z</time>
      </trkpt>
      <trkpt lat="45.70935" lon="6.69965">
        <ele>2519</ele>
        <time>2022-07-16T16:43:15Z</time>
      </trkpt>
      <trkpt lat="45.70935" lon="6.69968">
        <ele>2518</ele>
        <time>2022-07-16T16:43:18Z</time>
      </trkpt>
      <trkpt lat="45.70935" lon="6.69971">
        <ele>2518</ele>
        <time>2022-07-16T16:43:20Z</time>
      </trkpt>
      <trkpt lat="45.70936" lon="6.69973">
        <ele>2518</ele>
        <time>2022-07-16T16:43:22Z</time>
      </trkpt>
      <trkpt lat="45.70936" lon="6.69977">
        <ele>2517</ele>
        <time>2022-07-16T16:43:25Z</time>
      </trkpt>
      <trkpt lat="45.70936" lon="6.6998">
        <ele>2514</ele>
        <time>2022-07-16T16:43:28Z</time>
      </trkpt>
      <trkpt lat="45.70935" lon="6.69984">
        <ele>2515</ele>
        <time>2022-07-16T16:43:31Z</time>
      </trkpt>
      <trkpt lat="45.70937" lon="6.69987">
        <ele>2515</ele>
        <time>2022-07-16T16:43:33Z</time>
      </trkpt>
      <trkpt lat="45.70938" lon="6.6999">
        <ele>2516</ele>
        <time>2022-07-16T16:43:35Z</time>
      </trkpt>
      <trkpt lat="45.7094" lon="6.69993">
        <ele>2516</ele>
        <time>2022-07-16T16:43:37Z</time>
      </trkpt>
      <trkpt lat="45.70941" lon="6.69997">
        <ele>2516</ele>
        <time>2022-07-16T16:43:39Z</time>
      </trkpt>
      <trkpt lat="45.70942" lon="6.7">
        <ele>2515</ele>
        <time>2022-07-16T16:43:41Z</time>
      </trkpt>
      <trkpt lat="45.70943" lon="6.70004">
        <ele>2515</ele>
        <time>2022-07-16T16:43:43Z</time>
      </trkpt>
      <trkpt lat="45.70944" lon="6.70007">
        <ele>2515</ele>
        <time>2022-07-16T16:43:45Z</time>
      </trkpt>
      <trkpt lat="45.70945" lon="6.70011">
        <ele>2514</ele>
        <time>2022-07-16T16:43:47Z</time>
      </trkpt>
      <trkpt lat="45.70946" lon="6.70015">
        <ele>2514</ele>
        <time>2022-07-16T16:43:49Z</time>
      </trkpt>
      <trkpt lat="45.70947" lon="6.70019">
        <ele>2514</ele>
        <time>2022-07-16T16:43:51Z</time>
      </trkpt>
      <trkpt lat="45.70948" lon="6.70022">
        <ele>2514</ele>
        <time>2022-07-16T16:43:53Z</time>
      </trkpt>
      <trkpt lat="45.70949" lon="6.70025">
        <ele>2514</ele>
        <time>2022-07-16T16:43:55Z</time>
      </trkpt>
      <trkpt lat="45.7095" lon="6.70029">
        <ele>2514</ele>
        <time>2022-07-16T16:43:57Z</time>
      </trkpt>
      <trkpt lat="45.70951" lon="6.70033">
        <ele>2514</ele>
        <time>2022-07-16T16:43:59Z</time>
      </trkpt>
      <trkpt lat="45.70952" lon="6.70037">
        <ele>2513</ele>
        <time>2022-07-16T16:44:01Z</time>
      </trkpt>
      <trkpt lat="45.70953" lon="6.7004">
        <ele>2513</ele>
        <time>2022-07-16T16:44:03Z</time>
      </trkpt>
      <trkpt lat="45.70954" lon="6.70044">
        <ele>2513</ele>
        <time>2022-07-16T16:44:05Z</time>
      </trkpt>
      <trkpt lat="45.70955" lon="6.70047">
        <ele>2513</ele>
        <time>2022-07-16T16:44:07Z</time>
      </trkpt>
      <trkpt lat="45.70956" lon="6.7005">
        <ele>2513</ele>
        <time>2022-07-16T16:44:09Z</time>
      </trkpt>
      <trkpt lat="45.70957" lon="6.70054">
        <ele>2515</ele>
        <time>2022-07-16T16:44:11Z</time>
      </trkpt>
      <trkpt lat="45.70959" lon="6.70057">
        <ele>2514</ele>
        <time>2022-07-16T16:44:13Z</time>
      </trkpt>
      <trkpt lat="45.7096" lon="6.7006">
        <ele>2514</ele>
        <time>2022-07-16T16:44:15Z</time>
      </trkpt>
      <trkpt lat="45.7096" lon="6.70064">
        <ele>2514</ele>
        <time>2022-07-16T16:44:17Z</time>
      </trkpt>
      <trkpt lat="45.70961" lon="6.70067">
        <ele>2513</ele>
        <time>2022-07-16T16:44:19Z</time>
      </trkpt>
      <trkpt lat="45.70963" lon="6.70071">
        <ele>2514</ele>
        <time>2022-07-16T16:44:21Z</time>
      </trkpt>
      <trkpt lat="45.70964" lon="6.70074">
        <ele>2514</ele>
        <time>2022-07-16T16:44:23Z</time>
      </trkpt>
      <trkpt lat="45.70964" lon="6.70078">
        <ele>2514</ele>
        <time>2022-07-16T16:44:25Z</time>
      </trkpt>
      <trkpt lat="45.70965" lon="6.70081">
        <ele>2514</ele>
        <time>2022-07-16T16:44:27Z</time>
      </trkpt>
      <trkpt lat="45.70966" lon="6.70085">
        <ele>2514</ele>
        <time>2022-07-16T16:44:29Z</time>
      </trkpt>
      <trkpt lat="45.70967" lon="6.70088">
        <ele>2513</ele>
        <time>2022-07-16T16:44:31Z</time>
      </trkpt>
      <trkpt lat="45.70968" lon="6.70092">
        <ele>2514</ele>
        <time>2022-07-16T16:44:33Z</time>
      </trkpt>
      <trkpt lat="45.70968" lon="6.70095">
        <ele>2514</ele>
        <time>2022-07-16T16:44:35Z</time>
      </trkpt>
      <trkpt lat="45.70969" lon="6.70099">
        <ele>2514</ele>
        <time>2022-07-16T16:44:37Z</time>
      </trkpt>
      <trkpt lat="45.70969" lon="6.70102">
        <ele>2513</ele>
        <time>2022-07-16T16:44:39Z</time>
      </trkpt>
      <trkpt lat="45.7097" lon="6.70106">
        <ele>2513</ele>
        <time>2022-07-16T16:44:41Z</time>
      </trkpt>
      <trkpt lat="45.70971" lon="6.70109">
        <ele>2513</ele>
        <time>2022-07-16T16:44:43Z</time>
      </trkpt>
      <trkpt lat="45.70972" lon="6.70113">
        <ele>2512</ele>
        <time>2022-07-16T16:44:45Z</time>
      </trkpt>
      <trkpt lat="45.70972" lon="6.70116">
        <ele>2513</ele>
        <time>2022-07-16T16:44:47Z</time>
      </trkpt>
      <trkpt lat="45.70973" lon="6.7012">
        <ele>2512</ele>
        <time>2022-07-16T16:44:49Z</time>
      </trkpt>
      <trkpt lat="45.70973" lon="6.70124">
        <ele>2512</ele>
        <time>2022-07-16T16:44:51Z</time>
      </trkpt>
      <trkpt lat="45.70974" lon="6.70127">
        <ele>2512</ele>
        <time>2022-07-16T16:44:53Z</time>
      </trkpt>
      <trkpt lat="45.70975" lon="6.70131">
        <ele>2512</ele>
        <time>2022-07-16T16:44:55Z</time>
      </trkpt>
      <trkpt lat="45.70975" lon="6.70134">
        <ele>2512</ele>
        <time>2022-07-16T16:44:57Z</time>
      </trkpt>
      <trkpt lat="45.70976" lon="6.70138">
        <ele>2512</ele>
        <time>2022-07-16T16:44:59Z</time>
      </trkpt>
      <trkpt lat="45.70977" lon="6.70141">
        <ele>2512</ele>
        <time>2022-07-16T16:45:01Z</time>
      </trkpt>
      <trkpt lat="45.70978" lon="6.70145">
        <ele>2511</ele>
        <time>2022-07-16T16:45:03Z</time>
      </trkpt>
      <trkpt lat="45.70979" lon="6.70148">
        <ele>2512</ele>
        <time>2022-07-16T16:45:05Z</time>
      </trkpt>
      <trkpt lat="45.7098" lon="6.70151">
        <ele>2512</ele>
        <time>2022-07-16T16:45:07Z</time>
      </trkpt>
      <trkpt lat="45.70981" lon="6.70153">
        <ele>2513</ele>
        <time>2022-07-16T16:45:09Z</time>
      </trkpt>
      <trkpt lat="45.70982" lon="6.70157">
        <ele>2514</ele>
        <time>2022-07-16T16:45:11Z</time>
      </trkpt>
      <trkpt lat="45.70982" lon="6.7016">
        <ele>2514</ele>
        <time>2022-07-16T16:45:13Z</time>
      </trkpt>
      <trkpt lat="45.70983" lon="6.70163">
        <ele>2514</ele>
        <time>2022-07-16T16:45:15Z</time>
      </trkpt>
      <trkpt lat="45.70984" lon="6.70166">
        <ele>2514</ele>
        <time>2022-07-16T16:45:17Z</time>
      </trkpt>
      <trkpt lat="45.70985" lon="6.70168">
        <ele>2514</ele>
        <time>2022-07-16T16:45:19Z</time>
      </trkpt>
      <trkpt lat="45.70986" lon="6.70171">
        <ele>2514</ele>
        <time>2022-07-16T16:45:21Z</time>
      </trkpt>
      <trkpt lat="45.70987" lon="6.70174">
        <ele>2515</ele>
        <time>2022-07-16T16:45:23Z</time>
      </trkpt>
      <trkpt lat="45.70988" lon="6.70176">
        <ele>2515</ele>
        <time>2022-07-16T16:45:25Z</time>
      </trkpt>
      <trkpt lat="45.70989" lon="6.70179">
        <ele>2515</ele>
        <time>2022-07-16T16:45:28Z</time>
      </trkpt>
      <trkpt lat="45.7099" lon="6.70183">
        <ele>2515</ele>
        <time>2022-07-16T16:45:31Z</time>
      </trkpt>
      <trkpt lat="45.70991" lon="6.70186">
        <ele>2516</ele>
        <time>2022-07-16T16:45:34Z</time>
      </trkpt>
      <trkpt lat="45.70991" lon="6.70189">
        <ele>2516</ele>
        <time>2022-07-16T16:45:37Z</time>
      </trkpt>
      <trkpt lat="45.70993" lon="6.70193">
        <ele>2517</ele>
        <time>2022-07-16T16:45:40Z</time>
      </trkpt>
      <trkpt lat="45.70993" lon="6.70196">
        <ele>2518</ele>
        <time>2022-07-16T16:45:43Z</time>
      </trkpt>
      <trkpt lat="45.70994" lon="6.70198">
        <ele>2518</ele>
        <time>2022-07-16T16:45:46Z</time>
      </trkpt>
      <trkpt lat="45.70994" lon="6.70201">
        <ele>2518</ele>
        <time>2022-07-16T16:45:49Z</time>
      </trkpt>
      <trkpt lat="45.70995" lon="6.70204">
        <ele>2519</ele>
        <time>2022-07-16T16:45:52Z</time>
      </trkpt>
      <trkpt lat="45.70996" lon="6.70208">
        <ele>2519</ele>
        <time>2022-07-16T16:45:55Z</time>
      </trkpt>
      <trkpt lat="45.70996" lon="6.70211">
        <ele>2519</ele>
        <time>2022-07-16T16:45:58Z</time>
      </trkpt>
      <trkpt lat="45.70997" lon="6.70213">
        <ele>2519</ele>
        <time>2022-07-16T16:46:00Z</time>
      </trkpt>
      <trkpt lat="45.70998" lon="6.70216">
        <ele>2519</ele>
        <time>2022-07-16T16:46:02Z</time>
      </trkpt>
      <trkpt lat="45.70999" lon="6.70218">
        <ele>2519</ele>
        <time>2022-07-16T16:46:05Z</time>
      </trkpt>
      <trkpt lat="45.71" lon="6.70221">
        <ele>2520</ele>
        <time>2022-07-16T16:46:08Z</time>
      </trkpt>
      <trkpt lat="45.71" lon="6.70225">
        <ele>2520</ele>
        <time>2022-07-16T16:46:11Z</time>
      </trkpt>
      <trkpt lat="45.71" lon="6.70228">
        <ele>2523</ele>
        <time>2022-07-16T16:46:14Z</time>
      </trkpt>
      <trkpt lat="45.71" lon="6.70231">
        <ele>2523</ele>
        <time>2022-07-16T16:46:17Z</time>
      </trkpt>
      <trkpt lat="45.70999" lon="6.70235">
        <ele>2523</ele>
        <time>2022-07-16T16:46:20Z</time>
      </trkpt>
      <trkpt lat="45.70999" lon="6.70239">
        <ele>2523</ele>
        <time>2022-07-16T16:46:23Z</time>
      </trkpt>
      <trkpt lat="45.71" lon="6.70241">
        <ele>2523</ele>
        <time>2022-07-16T16:46:25Z</time>
      </trkpt>
      <trkpt lat="45.71" lon="6.70244">
        <ele>2523</ele>
        <time>2022-07-16T16:46:27Z</time>
      </trkpt>
      <trkpt lat="45.71001" lon="6.70247">
        <ele>2523</ele>
        <time>2022-07-16T16:46:30Z</time>
      </trkpt>
      <trkpt lat="45.71002" lon="6.70251">
        <ele>2524</ele>
        <time>2022-07-16T16:46:34Z</time>
      </trkpt>
      <trkpt lat="45.71003" lon="6.70254">
        <ele>2525</ele>
        <time>2022-07-16T16:46:38Z</time>
      </trkpt>
      <trkpt lat="45.71005" lon="6.70255">
        <ele>2525</ele>
        <time>2022-07-16T16:46:42Z</time>
      </trkpt>
      <trkpt lat="45.71006" lon="6.70254">
        <ele>2526</ele>
        <time>2022-07-16T16:46:46Z</time>
      </trkpt>
      <trkpt lat="45.71007" lon="6.70251">
        <ele>2527</ele>
        <time>2022-07-16T16:46:49Z</time>
      </trkpt>
      <trkpt lat="45.71007" lon="6.70249">
        <ele>2527</ele>
        <time>2022-07-16T16:46:51Z</time>
      </trkpt>
      <trkpt lat="45.71008" lon="6.70246">
        <ele>2527</ele>
        <time>2022-07-16T16:46:53Z</time>
      </trkpt>
      <trkpt lat="45.71008" lon="6.70243">
        <ele>2527</ele>
        <time>2022-07-16T16:46:55Z</time>
      </trkpt>
      <trkpt lat="45.71008" lon="6.7024">
        <ele>2528</ele>
        <time>2022-07-16T16:46:57Z</time>
      </trkpt>
      <trkpt lat="45.71009" lon="6.70237">
        <ele>2528</ele>
        <time>2022-07-16T16:47:00Z</time>
      </trkpt>
      <trkpt lat="45.7101" lon="6.70239">
        <ele>2529</ele>
        <time>2022-07-16T16:47:04Z</time>
      </trkpt>
      <trkpt lat="45.7101" lon="6.70242">
        <ele>2529</ele>
        <time>2022-07-16T16:47:07Z</time>
      </trkpt>
      <trkpt lat="45.7101" lon="6.70245">
        <ele>2530</ele>
        <time>2022-07-16T16:47:10Z</time>
      </trkpt>
      <trkpt lat="45.71011" lon="6.70247">
        <ele>2530</ele>
        <time>2022-07-16T16:47:13Z</time>
      </trkpt>
      <trkpt lat="45.71011" lon="6.7025">
        <ele>2531</ele>
        <time>2022-07-16T16:47:16Z</time>
      </trkpt>
      <trkpt lat="45.71012" lon="6.70253">
        <ele>2532</ele>
        <time>2022-07-16T16:47:20Z</time>
      </trkpt>
      <trkpt lat="45.71013" lon="6.70256">
        <ele>2533</ele>
        <time>2022-07-16T16:47:24Z</time>
      </trkpt>
      <trkpt lat="45.71013" lon="6.70259">
        <ele>2535</ele>
        <time>2022-07-16T16:47:27Z</time>
      </trkpt>
      <trkpt lat="45.71014" lon="6.70262">
        <ele>2535</ele>
        <time>2022-07-16T16:47:31Z</time>
      </trkpt>
      <trkpt lat="45.71015" lon="6.70264">
        <ele>2536</ele>
        <time>2022-07-16T16:47:34Z</time>
      </trkpt>
      <trkpt lat="45.71016" lon="6.70267">
        <ele>2536</ele>
        <time>2022-07-16T16:47:37Z</time>
      </trkpt>
      <trkpt lat="45.71017" lon="6.70269">
        <ele>2536</ele>
        <time>2022-07-16T16:47:40Z</time>
      </trkpt>
      <trkpt lat="45.71017" lon="6.70272">
        <ele>2537</ele>
        <time>2022-07-16T16:47:44Z</time>
      </trkpt>
      <trkpt lat="45.71018" lon="6.70275">
        <ele>2539</ele>
        <time>2022-07-16T16:47:48Z</time>
      </trkpt>
      <trkpt lat="45.71019" lon="6.70278">
        <ele>2539</ele>
        <time>2022-07-16T16:47:51Z</time>
      </trkpt>
      <trkpt lat="45.71019" lon="6.70282">
        <ele>2539</ele>
        <time>2022-07-16T16:47:56Z</time>
      </trkpt>
      <trkpt lat="45.7102" lon="6.70285">
        <ele>2539</ele>
        <time>2022-07-16T16:47:59Z</time>
      </trkpt>
      <trkpt lat="45.71022" lon="6.70288">
        <ele>2539</ele>
        <time>2022-07-16T16:48:02Z</time>
      </trkpt>
      <trkpt lat="45.71023" lon="6.7029">
        <ele>2540</ele>
        <time>2022-07-16T16:48:05Z</time>
      </trkpt>
      <trkpt lat="45.71024" lon="6.70293">
        <ele>2540</ele>
        <time>2022-07-16T16:48:08Z</time>
      </trkpt>
      <trkpt lat="45.71025" lon="6.70296">
        <ele>2540</ele>
        <time>2022-07-16T16:48:11Z</time>
      </trkpt>
      <trkpt lat="45.71025" lon="6.70299">
        <ele>2540</ele>
        <time>2022-07-16T16:48:14Z</time>
      </trkpt>
      <trkpt lat="45.71026" lon="6.70302">
        <ele>2541</ele>
        <time>2022-07-16T16:48:17Z</time>
      </trkpt>
      <trkpt lat="45.71026" lon="6.70305">
        <ele>2540</ele>
        <time>2022-07-16T16:48:20Z</time>
      </trkpt>
      <trkpt lat="45.71027" lon="6.70309">
        <ele>2541</ele>
        <time>2022-07-16T16:48:23Z</time>
      </trkpt>
      <trkpt lat="45.71028" lon="6.70312">
        <ele>2541</ele>
        <time>2022-07-16T16:48:26Z</time>
      </trkpt>
      <trkpt lat="45.7103" lon="6.70315">
        <ele>2542</ele>
        <time>2022-07-16T16:48:29Z</time>
      </trkpt>
      <trkpt lat="45.7103" lon="6.70318">
        <ele>2542</ele>
        <time>2022-07-16T16:48:31Z</time>
      </trkpt>
      <trkpt lat="45.71031" lon="6.70321">
        <ele>2543</ele>
        <time>2022-07-16T16:48:34Z</time>
      </trkpt>
      <trkpt lat="45.71032" lon="6.70323">
        <ele>2544</ele>
        <time>2022-07-16T16:48:37Z</time>
      </trkpt>
      <trkpt lat="45.71033" lon="6.70326">
        <ele>2544</ele>
        <time>2022-07-16T16:48:40Z</time>
      </trkpt>
      <trkpt lat="45.71034" lon="6.7033">
        <ele>2545</ele>
        <time>2022-07-16T16:48:43Z</time>
      </trkpt>
      <trkpt lat="45.71036" lon="6.70333">
        <ele>2544</ele>
        <time>2022-07-16T16:48:46Z</time>
      </trkpt>
      <trkpt lat="45.71036" lon="6.70335">
        <ele>2544</ele>
        <time>2022-07-16T16:48:48Z</time>
      </trkpt>
      <trkpt lat="45.71037" lon="6.70338">
        <ele>2545</ele>
        <time>2022-07-16T16:48:51Z</time>
      </trkpt>
      <trkpt lat="45.71038" lon="6.70341">
        <ele>2545</ele>
        <time>2022-07-16T16:48:54Z</time>
      </trkpt>
      <trkpt lat="45.71039" lon="6.70344">
        <ele>2547</ele>
        <time>2022-07-16T16:48:57Z</time>
      </trkpt>
      <trkpt lat="45.7104" lon="6.70347">
        <ele>2548</ele>
        <time>2022-07-16T16:49:00Z</time>
      </trkpt>
      <trkpt lat="45.7104" lon="6.7035">
        <ele>2549</ele>
        <time>2022-07-16T16:49:04Z</time>
      </trkpt>
      <trkpt lat="45.71041" lon="6.70352">
        <ele>2549</ele>
        <time>2022-07-16T16:49:07Z</time>
      </trkpt>
      <trkpt lat="45.71042" lon="6.70355">
        <ele>2549</ele>
        <time>2022-07-16T16:49:09Z</time>
      </trkpt>
      <trkpt lat="45.71043" lon="6.70357">
        <ele>2550</ele>
        <time>2022-07-16T16:49:12Z</time>
      </trkpt>
      <trkpt lat="45.71044" lon="6.7036">
        <ele>2550</ele>
        <time>2022-07-16T16:49:15Z</time>
      </trkpt>
      <trkpt lat="45.71045" lon="6.70363">
        <ele>2551</ele>
        <time>2022-07-16T16:49:18Z</time>
      </trkpt>
      <trkpt lat="45.71046" lon="6.70366">
        <ele>2551</ele>
        <time>2022-07-16T16:49:21Z</time>
      </trkpt>
      <trkpt lat="45.71047" lon="6.70369">
        <ele>2552</ele>
        <time>2022-07-16T16:49:24Z</time>
      </trkpt>
      <trkpt lat="45.71047" lon="6.70373">
        <ele>2552</ele>
        <time>2022-07-16T16:49:27Z</time>
      </trkpt>
      <trkpt lat="45.71048" lon="6.70376">
        <ele>2553</ele>
        <time>2022-07-16T16:49:30Z</time>
      </trkpt>
      <trkpt lat="45.7105" lon="6.70379">
        <ele>2553</ele>
        <time>2022-07-16T16:49:33Z</time>
      </trkpt>
      <trkpt lat="45.71051" lon="6.70381">
        <ele>2554</ele>
        <time>2022-07-16T16:49:36Z</time>
      </trkpt>
      <trkpt lat="45.71052" lon="6.70384">
        <ele>2554</ele>
        <time>2022-07-16T16:49:39Z</time>
      </trkpt>
      <trkpt lat="45.71052" lon="6.70387">
        <ele>2555</ele>
        <time>2022-07-16T16:49:42Z</time>
      </trkpt>
      <trkpt lat="45.71053" lon="6.7039">
        <ele>2555</ele>
        <time>2022-07-16T16:49:45Z</time>
      </trkpt>
      <trkpt lat="45.71054" lon="6.70393">
        <ele>2556</ele>
        <time>2022-07-16T16:49:48Z</time>
      </trkpt>
      <trkpt lat="45.71054" lon="6.70396">
        <ele>2556</ele>
        <time>2022-07-16T16:49:51Z</time>
      </trkpt>
      <trkpt lat="45.71055" lon="6.70399">
        <ele>2556</ele>
        <time>2022-07-16T16:49:53Z</time>
      </trkpt>
      <trkpt lat="45.71055" lon="6.70402">
        <ele>2556</ele>
        <time>2022-07-16T16:49:56Z</time>
      </trkpt>
      <trkpt lat="45.71056" lon="6.70405">
        <ele>2559</ele>
        <time>2022-07-16T16:50:01Z</time>
      </trkpt>
      <trkpt lat="45.71057" lon="6.70408">
        <ele>2559</ele>
        <time>2022-07-16T16:50:05Z</time>
      </trkpt>
      <trkpt lat="45.71058" lon="6.70411">
        <ele>2560</ele>
        <time>2022-07-16T16:50:07Z</time>
      </trkpt>
      <trkpt lat="45.71059" lon="6.70414">
        <ele>2560</ele>
        <time>2022-07-16T16:50:10Z</time>
      </trkpt>
      <trkpt lat="45.7106" lon="6.70416">
        <ele>2561</ele>
        <time>2022-07-16T16:50:13Z</time>
      </trkpt>
      <trkpt lat="45.71061" lon="6.70419">
        <ele>2561</ele>
        <time>2022-07-16T16:50:16Z</time>
      </trkpt>
      <trkpt lat="45.71062" lon="6.70422">
        <ele>2562</ele>
        <time>2022-07-16T16:50:19Z</time>
      </trkpt>
      <trkpt lat="45.71064" lon="6.70425">
        <ele>2562</ele>
        <time>2022-07-16T16:50:22Z</time>
      </trkpt>
      <trkpt lat="45.71065" lon="6.70427">
        <ele>2563</ele>
        <time>2022-07-16T16:50:25Z</time>
      </trkpt>
      <trkpt lat="45.71067" lon="6.70431">
        <ele>2563</ele>
        <time>2022-07-16T16:50:28Z</time>
      </trkpt>
      <trkpt lat="45.71067" lon="6.70433">
        <ele>2563</ele>
        <time>2022-07-16T16:50:30Z</time>
      </trkpt>
      <trkpt lat="45.71068" lon="6.70436">
        <ele>2563</ele>
        <time>2022-07-16T16:50:32Z</time>
      </trkpt>
      <trkpt lat="45.71068" lon="6.70439">
        <ele>2564</ele>
        <time>2022-07-16T16:50:35Z</time>
      </trkpt>
      <trkpt lat="45.71069" lon="6.70442">
        <ele>2564</ele>
        <time>2022-07-16T16:50:38Z</time>
      </trkpt>
      <trkpt lat="45.71071" lon="6.70445">
        <ele>2565</ele>
        <time>2022-07-16T16:50:41Z</time>
      </trkpt>
      <trkpt lat="45.71072" lon="6.70448">
        <ele>2565</ele>
        <time>2022-07-16T16:50:44Z</time>
      </trkpt>
      <trkpt lat="45.71074" lon="6.70451">
        <ele>2565</ele>
        <time>2022-07-16T16:50:47Z</time>
      </trkpt>
      <trkpt lat="45.71075" lon="6.70454">
        <ele>2565</ele>
        <time>2022-07-16T16:50:49Z</time>
      </trkpt>
      <trkpt lat="45.71076" lon="6.70456">
        <ele>2566</ele>
        <time>2022-07-16T16:50:51Z</time>
      </trkpt>
      <trkpt lat="45.71078" lon="6.70459">
        <ele>2566</ele>
        <time>2022-07-16T16:50:54Z</time>
      </trkpt>
      <trkpt lat="45.71079" lon="6.70461">
        <ele>2567</ele>
        <time>2022-07-16T16:50:57Z</time>
      </trkpt>
      <trkpt lat="45.71081" lon="6.70464">
        <ele>2568</ele>
        <time>2022-07-16T16:51:00Z</time>
      </trkpt>
      <trkpt lat="45.71083" lon="6.70467">
        <ele>2568</ele>
        <time>2022-07-16T16:51:03Z</time>
      </trkpt>
      <trkpt lat="45.71085" lon="6.70469">
        <ele>2568</ele>
        <time>2022-07-16T16:51:06Z</time>
      </trkpt>
      <trkpt lat="45.71086" lon="6.70472">
        <ele>2569</ele>
        <time>2022-07-16T16:51:09Z</time>
      </trkpt>
      <trkpt lat="45.71088" lon="6.70475">
        <ele>2569</ele>
        <time>2022-07-16T16:51:12Z</time>
      </trkpt>
      <trkpt lat="45.71089" lon="6.70478">
        <ele>2569</ele>
        <time>2022-07-16T16:51:15Z</time>
      </trkpt>
      <trkpt lat="45.7109" lon="6.7048">
        <ele>2569</ele>
        <time>2022-07-16T16:51:17Z</time>
      </trkpt>
      <trkpt lat="45.71091" lon="6.70483">
        <ele>2571</ele>
        <time>2022-07-16T16:51:20Z</time>
      </trkpt>
      <trkpt lat="45.71092" lon="6.70486">
        <ele>2571</ele>
        <time>2022-07-16T16:51:23Z</time>
      </trkpt>
      <trkpt lat="45.71093" lon="6.70488">
        <ele>2571</ele>
        <time>2022-07-16T16:51:25Z</time>
      </trkpt>
      <trkpt lat="45.71094" lon="6.7049">
        <ele>2571</ele>
        <time>2022-07-16T16:51:27Z</time>
      </trkpt>
      <trkpt lat="45.71095" lon="6.70493">
        <ele>2571</ele>
        <time>2022-07-16T16:51:29Z</time>
      </trkpt>
      <trkpt lat="45.71096" lon="6.70497">
        <ele>2572</ele>
        <time>2022-07-16T16:51:32Z</time>
      </trkpt>
      <trkpt lat="45.71097" lon="6.705">
        <ele>2572</ele>
        <time>2022-07-16T16:51:35Z</time>
      </trkpt>
      <trkpt lat="45.71098" lon="6.70503">
        <ele>2573</ele>
        <time>2022-07-16T16:51:37Z</time>
      </trkpt>
      <trkpt lat="45.71099" lon="6.70505">
        <ele>2573</ele>
        <time>2022-07-16T16:51:41Z</time>
      </trkpt>
      <trkpt lat="45.711" lon="6.70508">
        <ele>2574</ele>
        <time>2022-07-16T16:51:44Z</time>
      </trkpt>
      <trkpt lat="45.71102" lon="6.70511">
        <ele>2574</ele>
        <time>2022-07-16T16:51:47Z</time>
      </trkpt>
      <trkpt lat="45.71103" lon="6.70513">
        <ele>2575</ele>
        <time>2022-07-16T16:51:49Z</time>
      </trkpt>
      <trkpt lat="45.71105" lon="6.70516">
        <ele>2575</ele>
        <time>2022-07-16T16:51:52Z</time>
      </trkpt>
      <trkpt lat="45.71106" lon="6.70518">
        <ele>2576</ele>
        <time>2022-07-16T16:51:55Z</time>
      </trkpt>
      <trkpt lat="45.71107" lon="6.70521">
        <ele>2577</ele>
        <time>2022-07-16T16:51:59Z</time>
      </trkpt>
      <trkpt lat="45.71108" lon="6.70524">
        <ele>2577</ele>
        <time>2022-07-16T16:52:04Z</time>
      </trkpt>
      <trkpt lat="45.71109" lon="6.70526">
        <ele>2578</ele>
        <time>2022-07-16T16:52:06Z</time>
      </trkpt>
      <trkpt lat="45.7111" lon="6.70529">
        <ele>2578</ele>
        <time>2022-07-16T16:52:09Z</time>
      </trkpt>
      <trkpt lat="45.71112" lon="6.70532">
        <ele>2579</ele>
        <time>2022-07-16T16:52:12Z</time>
      </trkpt>
      <trkpt lat="45.71112" lon="6.70535">
        <ele>2579</ele>
        <time>2022-07-16T16:52:14Z</time>
      </trkpt>
      <trkpt lat="45.71113" lon="6.70537">
        <ele>2579</ele>
        <time>2022-07-16T16:52:16Z</time>
      </trkpt>
      <trkpt lat="45.71114" lon="6.7054">
        <ele>2579</ele>
        <time>2022-07-16T16:52:18Z</time>
      </trkpt>
      <trkpt lat="45.71115" lon="6.70542">
        <ele>2580</ele>
        <time>2022-07-16T16:52:20Z</time>
      </trkpt>
      <trkpt lat="45.71116" lon="6.70545">
        <ele>2580</ele>
        <time>2022-07-16T16:52:23Z</time>
      </trkpt>
      <trkpt lat="45.71118" lon="6.70547">
        <ele>2581</ele>
        <time>2022-07-16T16:52:26Z</time>
      </trkpt>
      <trkpt lat="45.71119" lon="6.7055">
        <ele>2583</ele>
        <time>2022-07-16T16:52:29Z</time>
      </trkpt>
      <trkpt lat="45.7112" lon="6.70552">
        <ele>2583</ele>
        <time>2022-07-16T16:52:31Z</time>
      </trkpt>
      <trkpt lat="45.71122" lon="6.70555">
        <ele>2583</ele>
        <time>2022-07-16T16:52:34Z</time>
      </trkpt>
      <trkpt lat="45.71123" lon="6.70559">
        <ele>2583</ele>
        <time>2022-07-16T16:52:37Z</time>
      </trkpt>
      <trkpt lat="45.71124" lon="6.70561">
        <ele>2583</ele>
        <time>2022-07-16T16:52:39Z</time>
      </trkpt>
      <trkpt lat="45.71125" lon="6.70564">
        <ele>2583</ele>
        <time>2022-07-16T16:52:41Z</time>
      </trkpt>
      <trkpt lat="45.71125" lon="6.70567">
        <ele>2583</ele>
        <time>2022-07-16T16:52:43Z</time>
      </trkpt>
      <trkpt lat="45.71126" lon="6.70569">
        <ele>2584</ele>
        <time>2022-07-16T16:52:45Z</time>
      </trkpt>
      <trkpt lat="45.71127" lon="6.70571">
        <ele>2584</ele>
        <time>2022-07-16T16:52:47Z</time>
      </trkpt>
      <trkpt lat="45.71128" lon="6.70574">
        <ele>2585</ele>
        <time>2022-07-16T16:52:49Z</time>
      </trkpt>
      <trkpt lat="45.71129" lon="6.70577">
        <ele>2585</ele>
        <time>2022-07-16T16:52:51Z</time>
      </trkpt>
      <trkpt lat="45.7113" lon="6.7058">
        <ele>2585</ele>
        <time>2022-07-16T16:52:53Z</time>
      </trkpt>
      <trkpt lat="45.71131" lon="6.70582">
        <ele>2584</ele>
        <time>2022-07-16T16:52:56Z</time>
      </trkpt>
      <trkpt lat="45.71132" lon="6.70586">
        <ele>2585</ele>
        <time>2022-07-16T16:52:57Z</time>
      </trkpt>
      <trkpt lat="45.71133" lon="6.70588">
        <ele>2585</ele>
        <time>2022-07-16T16:52:59Z</time>
      </trkpt>
      <trkpt lat="45.71134" lon="6.70591">
        <ele>2585</ele>
        <time>2022-07-16T16:53:01Z</time>
      </trkpt>
      <trkpt lat="45.71135" lon="6.70595">
        <ele>2585</ele>
        <time>2022-07-16T16:53:04Z</time>
      </trkpt>
      <trkpt lat="45.71136" lon="6.70598">
        <ele>2585</ele>
        <time>2022-07-16T16:53:07Z</time>
      </trkpt>
      <trkpt lat="45.71137" lon="6.70601">
        <ele>2585</ele>
        <time>2022-07-16T16:53:09Z</time>
      </trkpt>
      <trkpt lat="45.71138" lon="6.70604">
        <ele>2586</ele>
        <time>2022-07-16T16:53:11Z</time>
      </trkpt>
      <trkpt lat="45.71139" lon="6.70607">
        <ele>2586</ele>
        <time>2022-07-16T16:53:13Z</time>
      </trkpt>
      <trkpt lat="45.71139" lon="6.7061">
        <ele>2586</ele>
        <time>2022-07-16T16:53:15Z</time>
      </trkpt>
      <trkpt lat="45.7114" lon="6.70613">
        <ele>2586</ele>
        <time>2022-07-16T16:53:17Z</time>
      </trkpt>
      <trkpt lat="45.71141" lon="6.70616">
        <ele>2586</ele>
        <time>2022-07-16T16:53:19Z</time>
      </trkpt>
      <trkpt lat="45.71141" lon="6.70619">
        <ele>2586</ele>
        <time>2022-07-16T16:53:21Z</time>
      </trkpt>
      <trkpt lat="45.71142" lon="6.70622">
        <ele>2586</ele>
        <time>2022-07-16T16:53:23Z</time>
      </trkpt>
      <trkpt lat="45.71143" lon="6.70624">
        <ele>2586</ele>
        <time>2022-07-16T16:53:25Z</time>
      </trkpt>
      <trkpt lat="45.71143" lon="6.70627">
        <ele>2587</ele>
        <time>2022-07-16T16:53:27Z</time>
      </trkpt>
      <trkpt lat="45.71144" lon="6.7063">
        <ele>2587</ele>
        <time>2022-07-16T16:53:29Z</time>
      </trkpt>
      <trkpt lat="45.71145" lon="6.70633">
        <ele>2588</ele>
        <time>2022-07-16T16:53:31Z</time>
      </trkpt>
      <trkpt lat="45.71146" lon="6.70636">
        <ele>2588</ele>
        <time>2022-07-16T16:53:33Z</time>
      </trkpt>
      <trkpt lat="45.71148" lon="6.70639">
        <ele>2588</ele>
        <time>2022-07-16T16:53:35Z</time>
      </trkpt>
      <trkpt lat="45.71149" lon="6.70641">
        <ele>2589</ele>
        <time>2022-07-16T16:53:37Z</time>
      </trkpt>
      <trkpt lat="45.71151" lon="6.70644">
        <ele>2589</ele>
        <time>2022-07-16T16:53:39Z</time>
      </trkpt>
      <trkpt lat="45.71151" lon="6.70646">
        <ele>2589</ele>
        <time>2022-07-16T16:53:41Z</time>
      </trkpt>
      <trkpt lat="45.71153" lon="6.70649">
        <ele>2590</ele>
        <time>2022-07-16T16:53:43Z</time>
      </trkpt>
      <trkpt lat="45.71153" lon="6.70652">
        <ele>2590</ele>
        <time>2022-07-16T16:53:45Z</time>
      </trkpt>
      <trkpt lat="45.71154" lon="6.70654">
        <ele>2589</ele>
        <time>2022-07-16T16:53:47Z</time>
      </trkpt>
      <trkpt lat="45.71155" lon="6.70657">
        <ele>2589</ele>
        <time>2022-07-16T16:53:49Z</time>
      </trkpt>
      <trkpt lat="45.71156" lon="6.70659">
        <ele>2590</ele>
        <time>2022-07-16T16:53:51Z</time>
      </trkpt>
      <trkpt lat="45.71157" lon="6.70662">
        <ele>2590</ele>
        <time>2022-07-16T16:53:53Z</time>
      </trkpt>
      <trkpt lat="45.71157" lon="6.70664">
        <ele>2590</ele>
        <time>2022-07-16T16:53:55Z</time>
      </trkpt>
      <trkpt lat="45.71158" lon="6.70667">
        <ele>2590</ele>
        <time>2022-07-16T16:53:57Z</time>
      </trkpt>
      <trkpt lat="45.71159" lon="6.7067">
        <ele>2590</ele>
        <time>2022-07-16T16:53:59Z</time>
      </trkpt>
      <trkpt lat="45.7116" lon="6.70672">
        <ele>2590</ele>
        <time>2022-07-16T16:54:01Z</time>
      </trkpt>
      <trkpt lat="45.71162" lon="6.70675">
        <ele>2590</ele>
        <time>2022-07-16T16:54:04Z</time>
      </trkpt>
      <trkpt lat="45.71163" lon="6.70677">
        <ele>2591</ele>
        <time>2022-07-16T16:54:07Z</time>
      </trkpt>
      <trkpt lat="45.71164" lon="6.7068">
        <ele>2591</ele>
        <time>2022-07-16T16:54:09Z</time>
      </trkpt>
      <trkpt lat="45.71165" lon="6.70683">
        <ele>2592</ele>
        <time>2022-07-16T16:54:12Z</time>
      </trkpt>
      <trkpt lat="45.71166" lon="6.70685">
        <ele>2592</ele>
        <time>2022-07-16T16:54:15Z</time>
      </trkpt>
      <trkpt lat="45.71168" lon="6.70688">
        <ele>2593</ele>
        <time>2022-07-16T16:54:18Z</time>
      </trkpt>
      <trkpt lat="45.71169" lon="6.7069">
        <ele>2593</ele>
        <time>2022-07-16T16:54:21Z</time>
      </trkpt>
      <trkpt lat="45.7117" lon="6.70693">
        <ele>2595</ele>
        <time>2022-07-16T16:54:24Z</time>
      </trkpt>
      <trkpt lat="45.71172" lon="6.70696">
        <ele>2595</ele>
        <time>2022-07-16T16:54:27Z</time>
      </trkpt>
      <trkpt lat="45.71173" lon="6.70699">
        <ele>2595</ele>
        <time>2022-07-16T16:54:30Z</time>
      </trkpt>
      <trkpt lat="45.71174" lon="6.70701">
        <ele>2595</ele>
        <time>2022-07-16T16:54:32Z</time>
      </trkpt>
      <trkpt lat="45.71175" lon="6.70703">
        <ele>2596</ele>
        <time>2022-07-16T16:54:34Z</time>
      </trkpt>
      <trkpt lat="45.71176" lon="6.70706">
        <ele>2596</ele>
        <time>2022-07-16T16:54:36Z</time>
      </trkpt>
      <trkpt lat="45.71177" lon="6.70708">
        <ele>2596</ele>
        <time>2022-07-16T16:54:38Z</time>
      </trkpt>
      <trkpt lat="45.71179" lon="6.70711">
        <ele>2596</ele>
        <time>2022-07-16T16:54:41Z</time>
      </trkpt>
      <trkpt lat="45.7118" lon="6.70714">
        <ele>2597</ele>
        <time>2022-07-16T16:54:44Z</time>
      </trkpt>
      <trkpt lat="45.7118" lon="6.70716">
        <ele>2598</ele>
        <time>2022-07-16T16:54:46Z</time>
      </trkpt>
      <trkpt lat="45.71182" lon="6.70719">
        <ele>2598</ele>
        <time>2022-07-16T16:54:49Z</time>
      </trkpt>
      <trkpt lat="45.71184" lon="6.70721">
        <ele>2599</ele>
        <time>2022-07-16T16:54:54Z</time>
      </trkpt>
      <trkpt lat="45.71186" lon="6.70724">
        <ele>2599</ele>
        <time>2022-07-16T16:54:57Z</time>
      </trkpt>
      <trkpt lat="45.71188" lon="6.70727">
        <ele>2599</ele>
        <time>2022-07-16T16:55:00Z</time>
      </trkpt>
      <trkpt lat="45.71189" lon="6.70729">
        <ele>2600</ele>
        <time>2022-07-16T16:55:03Z</time>
      </trkpt>
      <trkpt lat="45.71191" lon="6.70732">
        <ele>2600</ele>
        <time>2022-07-16T16:55:06Z</time>
      </trkpt>
      <trkpt lat="45.71193" lon="6.70734">
        <ele>2601</ele>
        <time>2022-07-16T16:55:09Z</time>
      </trkpt>
      <trkpt lat="45.71194" lon="6.70736">
        <ele>2601</ele>
        <time>2022-07-16T16:55:12Z</time>
      </trkpt>
      <trkpt lat="45.71196" lon="6.70738">
        <ele>2602</ele>
        <time>2022-07-16T16:55:15Z</time>
      </trkpt>
      <trkpt lat="45.71198" lon="6.7074">
        <ele>2602</ele>
        <time>2022-07-16T16:55:18Z</time>
      </trkpt>
      <trkpt lat="45.712" lon="6.70742">
        <ele>2602</ele>
        <time>2022-07-16T16:55:21Z</time>
      </trkpt>
      <trkpt lat="45.71201" lon="6.70745">
        <ele>2603</ele>
        <time>2022-07-16T16:55:24Z</time>
      </trkpt>
      <trkpt lat="45.71203" lon="6.70747">
        <ele>2603</ele>
        <time>2022-07-16T16:55:27Z</time>
      </trkpt>
      <trkpt lat="45.71204" lon="6.7075">
        <ele>2603</ele>
        <time>2022-07-16T16:55:29Z</time>
      </trkpt>
      <trkpt lat="45.71206" lon="6.70752">
        <ele>2603</ele>
        <time>2022-07-16T16:55:32Z</time>
      </trkpt>
      <trkpt lat="45.71208" lon="6.70755">
        <ele>2603</ele>
        <time>2022-07-16T16:55:35Z</time>
      </trkpt>
      <trkpt lat="45.7121" lon="6.70757">
        <ele>2604</ele>
        <time>2022-07-16T16:55:37Z</time>
      </trkpt>
      <trkpt lat="45.71212" lon="6.70759">
        <ele>2604</ele>
        <time>2022-07-16T16:55:40Z</time>
      </trkpt>
      <trkpt lat="45.71214" lon="6.70761">
        <ele>2604</ele>
        <time>2022-07-16T16:55:43Z</time>
      </trkpt>
      <trkpt lat="45.71216" lon="6.70763">
        <ele>2605</ele>
        <time>2022-07-16T16:55:45Z</time>
      </trkpt>
      <trkpt lat="45.71217" lon="6.70765">
        <ele>2605</ele>
        <time>2022-07-16T16:55:47Z</time>
      </trkpt>
      <trkpt lat="45.7122" lon="6.70766">
        <ele>2605</ele>
        <time>2022-07-16T16:55:50Z</time>
      </trkpt>
      <trkpt lat="45.71221" lon="6.70768">
        <ele>2605</ele>
        <time>2022-07-16T16:55:52Z</time>
      </trkpt>
      <trkpt lat="45.71223" lon="6.7077">
        <ele>2605</ele>
        <time>2022-07-16T16:55:54Z</time>
      </trkpt>
      <trkpt lat="45.71225" lon="6.70773">
        <ele>2605</ele>
        <time>2022-07-16T16:55:56Z</time>
      </trkpt>
      <trkpt lat="45.71226" lon="6.70776">
        <ele>2607</ele>
        <time>2022-07-16T16:55:58Z</time>
      </trkpt>
      <trkpt lat="45.71227" lon="6.70778">
        <ele>2607</ele>
        <time>2022-07-16T16:56:00Z</time>
      </trkpt>
      <trkpt lat="45.71228" lon="6.70781">
        <ele>2607</ele>
        <time>2022-07-16T16:56:02Z</time>
      </trkpt>
      <trkpt lat="45.71229" lon="6.70785">
        <ele>2607</ele>
        <time>2022-07-16T16:56:05Z</time>
      </trkpt>
      <trkpt lat="45.7123" lon="6.70787">
        <ele>2608</ele>
        <time>2022-07-16T16:56:07Z</time>
      </trkpt>
      <trkpt lat="45.71231" lon="6.70791">
        <ele>2609</ele>
        <time>2022-07-16T16:56:10Z</time>
      </trkpt>
      <trkpt lat="45.71232" lon="6.70794">
        <ele>2609</ele>
        <time>2022-07-16T16:56:13Z</time>
      </trkpt>
      <trkpt lat="45.71233" lon="6.70797">
        <ele>2609</ele>
        <time>2022-07-16T16:56:15Z</time>
      </trkpt>
      <trkpt lat="45.71234" lon="6.708">
        <ele>2609</ele>
        <time>2022-07-16T16:56:18Z</time>
      </trkpt>
      <trkpt lat="45.71235" lon="6.70802">
        <ele>2609</ele>
        <time>2022-07-16T16:56:20Z</time>
      </trkpt>
      <trkpt lat="45.71236" lon="6.70805">
        <ele>2609</ele>
        <time>2022-07-16T16:56:22Z</time>
      </trkpt>
      <trkpt lat="45.71237" lon="6.70808">
        <ele>2609</ele>
        <time>2022-07-16T16:56:24Z</time>
      </trkpt>
      <trkpt lat="45.71238" lon="6.7081">
        <ele>2610</ele>
        <time>2022-07-16T16:56:26Z</time>
      </trkpt>
      <trkpt lat="45.71239" lon="6.70814">
        <ele>2610</ele>
        <time>2022-07-16T16:56:29Z</time>
      </trkpt>
      <trkpt lat="45.71239" lon="6.70816">
        <ele>2610</ele>
        <time>2022-07-16T16:56:31Z</time>
      </trkpt>
      <trkpt lat="45.7124" lon="6.7082">
        <ele>2611</ele>
        <time>2022-07-16T16:56:34Z</time>
      </trkpt>
      <trkpt lat="45.7124" lon="6.70823">
        <ele>2612</ele>
        <time>2022-07-16T16:56:37Z</time>
      </trkpt>
      <trkpt lat="45.71241" lon="6.70826">
        <ele>2612</ele>
        <time>2022-07-16T16:56:40Z</time>
      </trkpt>
      <trkpt lat="45.71242" lon="6.70829">
        <ele>2613</ele>
        <time>2022-07-16T16:56:43Z</time>
      </trkpt>
      <trkpt lat="45.71243" lon="6.70833">
        <ele>2613</ele>
        <time>2022-07-16T16:56:46Z</time>
      </trkpt>
      <trkpt lat="45.71243" lon="6.70836">
        <ele>2614</ele>
        <time>2022-07-16T16:56:49Z</time>
      </trkpt>
      <trkpt lat="45.71244" lon="6.70839">
        <ele>2614</ele>
        <time>2022-07-16T16:56:51Z</time>
      </trkpt>
      <trkpt lat="45.71245" lon="6.70841">
        <ele>2614</ele>
        <time>2022-07-16T16:56:53Z</time>
      </trkpt>
      <trkpt lat="45.71246" lon="6.70844">
        <ele>2614</ele>
        <time>2022-07-16T16:56:55Z</time>
      </trkpt>
      <trkpt lat="45.71246" lon="6.70847">
        <ele>2614</ele>
        <time>2022-07-16T16:56:57Z</time>
      </trkpt>
      <trkpt lat="45.71247" lon="6.70849">
        <ele>2614</ele>
        <time>2022-07-16T16:56:59Z</time>
      </trkpt>
      <trkpt lat="45.71249" lon="6.70852">
        <ele>2614</ele>
        <time>2022-07-16T16:57:01Z</time>
      </trkpt>
      <trkpt lat="45.7125" lon="6.70855">
        <ele>2615</ele>
        <time>2022-07-16T16:57:03Z</time>
      </trkpt>
      <trkpt lat="45.71251" lon="6.70857">
        <ele>2615</ele>
        <time>2022-07-16T16:57:05Z</time>
      </trkpt>
      <trkpt lat="45.71252" lon="6.7086">
        <ele>2615</ele>
        <time>2022-07-16T16:57:07Z</time>
      </trkpt>
      <trkpt lat="45.71253" lon="6.70863">
        <ele>2615</ele>
        <time>2022-07-16T16:57:09Z</time>
      </trkpt>
      <trkpt lat="45.71254" lon="6.70865">
        <ele>2616</ele>
        <time>2022-07-16T16:57:11Z</time>
      </trkpt>
      <trkpt lat="45.71255" lon="6.70868">
        <ele>2617</ele>
        <time>2022-07-16T16:57:13Z</time>
      </trkpt>
      <trkpt lat="45.71256" lon="6.70871">
        <ele>2617</ele>
        <time>2022-07-16T16:57:15Z</time>
      </trkpt>
      <trkpt lat="45.71257" lon="6.70873">
        <ele>2617</ele>
        <time>2022-07-16T16:57:17Z</time>
      </trkpt>
      <trkpt lat="45.71259" lon="6.70876">
        <ele>2617</ele>
        <time>2022-07-16T16:57:19Z</time>
      </trkpt>
      <trkpt lat="45.7126" lon="6.70878">
        <ele>2617</ele>
        <time>2022-07-16T16:57:21Z</time>
      </trkpt>
      <trkpt lat="45.71261" lon="6.70881">
        <ele>2617</ele>
        <time>2022-07-16T16:57:23Z</time>
      </trkpt>
      <trkpt lat="45.71263" lon="6.70884">
        <ele>2620</ele>
        <time>2022-07-16T16:57:26Z</time>
      </trkpt>
      <trkpt lat="45.71264" lon="6.70886">
        <ele>2620</ele>
        <time>2022-07-16T16:57:28Z</time>
      </trkpt>
      <trkpt lat="45.71266" lon="6.70887">
        <ele>2619</ele>
        <time>2022-07-16T16:57:30Z</time>
      </trkpt>
      <trkpt lat="45.71268" lon="6.70889">
        <ele>2619</ele>
        <time>2022-07-16T16:57:32Z</time>
      </trkpt>
      <trkpt lat="45.7127" lon="6.7089">
        <ele>2619</ele>
        <time>2022-07-16T16:57:34Z</time>
      </trkpt>
      <trkpt lat="45.71272" lon="6.70892">
        <ele>2617</ele>
        <time>2022-07-16T16:57:36Z</time>
      </trkpt>
      <trkpt lat="45.71274" lon="6.70894">
        <ele>2617</ele>
        <time>2022-07-16T16:57:38Z</time>
      </trkpt>
      <trkpt lat="45.71276" lon="6.70896">
        <ele>2619</ele>
        <time>2022-07-16T16:57:40Z</time>
      </trkpt>
      <trkpt lat="45.71278" lon="6.70898">
        <ele>2621</ele>
        <time>2022-07-16T16:57:42Z</time>
      </trkpt>
      <trkpt lat="45.71281" lon="6.70899">
        <ele>2620</ele>
        <time>2022-07-16T16:57:44Z</time>
      </trkpt>
      <trkpt lat="45.71283" lon="6.709">
        <ele>2620</ele>
        <time>2022-07-16T16:57:46Z</time>
      </trkpt>
      <trkpt lat="45.71286" lon="6.70901">
        <ele>2620</ele>
        <time>2022-07-16T16:57:48Z</time>
      </trkpt>
      <trkpt lat="45.71288" lon="6.70902">
        <ele>2620</ele>
        <time>2022-07-16T16:57:50Z</time>
      </trkpt>
      <trkpt lat="45.7129" lon="6.70903">
        <ele>2619</ele>
        <time>2022-07-16T16:57:52Z</time>
      </trkpt>
      <trkpt lat="45.71293" lon="6.70905">
        <ele>2619</ele>
        <time>2022-07-16T16:57:54Z</time>
      </trkpt>
      <trkpt lat="45.71296" lon="6.70906">
        <ele>2619</ele>
        <time>2022-07-16T16:57:56Z</time>
      </trkpt>
      <trkpt lat="45.71298" lon="6.70907">
        <ele>2617</ele>
        <time>2022-07-16T16:57:58Z</time>
      </trkpt>
      <trkpt lat="45.713" lon="6.70909">
        <ele>2617</ele>
        <time>2022-07-16T16:58:00Z</time>
      </trkpt>
      <trkpt lat="45.71303" lon="6.70911">
        <ele>2617</ele>
        <time>2022-07-16T16:58:02Z</time>
      </trkpt>
      <trkpt lat="45.71305" lon="6.70912">
        <ele>2617</ele>
        <time>2022-07-16T16:58:04Z</time>
      </trkpt>
      <trkpt lat="45.71307" lon="6.70914">
        <ele>2617</ele>
        <time>2022-07-16T16:58:06Z</time>
      </trkpt>
      <trkpt lat="45.71309" lon="6.70915">
        <ele>2617</ele>
        <time>2022-07-16T16:58:08Z</time>
      </trkpt>
      <trkpt lat="45.71312" lon="6.70917">
        <ele>2616</ele>
        <time>2022-07-16T16:58:10Z</time>
      </trkpt>
      <trkpt lat="45.71314" lon="6.70918">
        <ele>2616</ele>
        <time>2022-07-16T16:58:12Z</time>
      </trkpt>
      <trkpt lat="45.71317" lon="6.7092">
        <ele>2616</ele>
        <time>2022-07-16T16:58:14Z</time>
      </trkpt>
      <trkpt lat="45.71319" lon="6.70921">
        <ele>2615</ele>
        <time>2022-07-16T16:58:16Z</time>
      </trkpt>
      <trkpt lat="45.71322" lon="6.70923">
        <ele>2616</ele>
        <time>2022-07-16T16:58:18Z</time>
      </trkpt>
      <trkpt lat="45.71324" lon="6.70924">
        <ele>2616</ele>
        <time>2022-07-16T16:58:20Z</time>
      </trkpt>
      <trkpt lat="45.71326" lon="6.70926">
        <ele>2616</ele>
        <time>2022-07-16T16:58:22Z</time>
      </trkpt>
      <trkpt lat="45.71329" lon="6.70927">
        <ele>2616</ele>
        <time>2022-07-16T16:58:24Z</time>
      </trkpt>
      <trkpt lat="45.71331" lon="6.70928">
        <ele>2616</ele>
        <time>2022-07-16T16:58:26Z</time>
      </trkpt>
      <trkpt lat="45.71333" lon="6.7093">
        <ele>2617</ele>
        <time>2022-07-16T16:58:28Z</time>
      </trkpt>
      <trkpt lat="45.71335" lon="6.70931">
        <ele>2617</ele>
        <time>2022-07-16T16:58:30Z</time>
      </trkpt>
      <trkpt lat="45.71337" lon="6.70932">
        <ele>2617</ele>
        <time>2022-07-16T16:58:32Z</time>
      </trkpt>
      <trkpt lat="45.7134" lon="6.70933">
        <ele>2617</ele>
        <time>2022-07-16T16:58:34Z</time>
      </trkpt>
      <trkpt lat="45.71342" lon="6.70935">
        <ele>2617</ele>
        <time>2022-07-16T16:58:36Z</time>
      </trkpt>
      <trkpt lat="45.71345" lon="6.70936">
        <ele>2617</ele>
        <time>2022-07-16T16:58:38Z</time>
      </trkpt>
      <trkpt lat="45.71347" lon="6.70938">
        <ele>2616</ele>
        <time>2022-07-16T16:58:40Z</time>
      </trkpt>
      <trkpt lat="45.71349" lon="6.70939">
        <ele>2617</ele>
        <time>2022-07-16T16:58:42Z</time>
      </trkpt>
      <trkpt lat="45.71351" lon="6.70941">
        <ele>2617</ele>
        <time>2022-07-16T16:58:44Z</time>
      </trkpt>
      <trkpt lat="45.71353" lon="6.70943">
        <ele>2617</ele>
        <time>2022-07-16T16:58:46Z</time>
      </trkpt>
      <trkpt lat="45.71355" lon="6.70945">
        <ele>2617</ele>
        <time>2022-07-16T16:58:48Z</time>
      </trkpt>
      <trkpt lat="45.71356" lon="6.70948">
        <ele>2617</ele>
        <time>2022-07-16T16:58:50Z</time>
      </trkpt>
      <trkpt lat="45.71357" lon="6.70949">
        <ele>2617</ele>
        <time>2022-07-16T16:58:52Z</time>
      </trkpt>
      <trkpt lat="45.71359" lon="6.70951">
        <ele>2619</ele>
        <time>2022-07-16T16:58:54Z</time>
      </trkpt>
      <trkpt lat="45.7136" lon="6.70953">
        <ele>2619</ele>
        <time>2022-07-16T16:58:56Z</time>
      </trkpt>
      <trkpt lat="45.71362" lon="6.70955">
        <ele>2620</ele>
        <time>2022-07-16T16:58:58Z</time>
      </trkpt>
      <trkpt lat="45.71364" lon="6.70958">
        <ele>2620</ele>
        <time>2022-07-16T16:59:00Z</time>
      </trkpt>
      <trkpt lat="45.71366" lon="6.7096">
        <ele>2620</ele>
        <time>2022-07-16T16:59:02Z</time>
      </trkpt>
      <trkpt lat="45.71368" lon="6.70962">
        <ele>2620</ele>
        <time>2022-07-16T16:59:04Z</time>
      </trkpt>
      <trkpt lat="45.7137" lon="6.70964">
        <ele>2619</ele>
        <time>2022-07-16T16:59:06Z</time>
      </trkpt>
      <trkpt lat="45.71373" lon="6.70966">
        <ele>2619</ele>
        <time>2022-07-16T16:59:08Z</time>
      </trkpt>
      <trkpt lat="45.71374" lon="6.70968">
        <ele>2620</ele>
        <time>2022-07-16T16:59:10Z</time>
      </trkpt>
      <trkpt lat="45.71376" lon="6.70971">
        <ele>2620</ele>
        <time>2022-07-16T16:59:12Z</time>
      </trkpt>
      <trkpt lat="45.71378" lon="6.70973">
        <ele>2619</ele>
        <time>2022-07-16T16:59:14Z</time>
      </trkpt>
      <trkpt lat="45.7138" lon="6.70975">
        <ele>2619</ele>
        <time>2022-07-16T16:59:16Z</time>
      </trkpt>
      <trkpt lat="45.71382" lon="6.70977">
        <ele>2619</ele>
        <time>2022-07-16T16:59:18Z</time>
      </trkpt>
      <trkpt lat="45.71384" lon="6.70979">
        <ele>2619</ele>
        <time>2022-07-16T16:59:20Z</time>
      </trkpt>
      <trkpt lat="45.71386" lon="6.7098">
        <ele>2619</ele>
        <time>2022-07-16T16:59:22Z</time>
      </trkpt>
      <trkpt lat="45.71389" lon="6.70982">
        <ele>2619</ele>
        <time>2022-07-16T16:59:24Z</time>
      </trkpt>
      <trkpt lat="45.71391" lon="6.70984">
        <ele>2619</ele>
        <time>2022-07-16T16:59:26Z</time>
      </trkpt>
      <trkpt lat="45.71393" lon="6.70986">
        <ele>2619</ele>
        <time>2022-07-16T16:59:28Z</time>
      </trkpt>
      <trkpt lat="45.71396" lon="6.70989">
        <ele>2619</ele>
        <time>2022-07-16T16:59:30Z</time>
      </trkpt>
      <trkpt lat="45.71398" lon="6.7099">
        <ele>2617</ele>
        <time>2022-07-16T16:59:32Z</time>
      </trkpt>
      <trkpt lat="45.71401" lon="6.70992">
        <ele>2617</ele>
        <time>2022-07-16T16:59:34Z</time>
      </trkpt>
      <trkpt lat="45.71403" lon="6.70994">
        <ele>2616</ele>
        <time>2022-07-16T16:59:36Z</time>
      </trkpt>
      <trkpt lat="45.71405" lon="6.70996">
        <ele>2617</ele>
        <time>2022-07-16T16:59:38Z</time>
      </trkpt>
      <trkpt lat="45.71408" lon="6.70998">
        <ele>2616</ele>
        <time>2022-07-16T16:59:40Z</time>
      </trkpt>
      <trkpt lat="45.7141" lon="6.71">
        <ele>2616</ele>
        <time>2022-07-16T16:59:42Z</time>
      </trkpt>
      <trkpt lat="45.71412" lon="6.71002">
        <ele>2616</ele>
        <time>2022-07-16T16:59:44Z</time>
      </trkpt>
      <trkpt lat="45.71414" lon="6.71004">
        <ele>2616</ele>
        <time>2022-07-16T16:59:46Z</time>
      </trkpt>
      <trkpt lat="45.71416" lon="6.71006">
        <ele>2616</ele>
        <time>2022-07-16T16:59:48Z</time>
      </trkpt>
      <trkpt lat="45.71419" lon="6.71008">
        <ele>2615</ele>
        <time>2022-07-16T16:59:50Z</time>
      </trkpt>
      <trkpt lat="45.71421" lon="6.7101">
        <ele>2616</ele>
        <time>2022-07-16T16:59:52Z</time>
      </trkpt>
      <trkpt lat="45.71423" lon="6.71013">
        <ele>2616</ele>
        <time>2022-07-16T16:59:54Z</time>
      </trkpt>
      <trkpt lat="45.71426" lon="6.71015">
        <ele>2615</ele>
        <time>2022-07-16T16:59:56Z</time>
      </trkpt>
      <trkpt lat="45.71428" lon="6.71017">
        <ele>2615</ele>
        <time>2022-07-16T16:59:58Z</time>
      </trkpt>
      <trkpt lat="45.7143" lon="6.7102">
        <ele>2615</ele>
        <time>2022-07-16T17:00:00Z</time>
      </trkpt>
      <trkpt lat="45.71432" lon="6.71022">
        <ele>2615</ele>
        <time>2022-07-16T17:00:02Z</time>
      </trkpt>
      <trkpt lat="45.71434" lon="6.71025">
        <ele>2615</ele>
        <time>2022-07-16T17:00:04Z</time>
      </trkpt>
      <trkpt lat="45.71436" lon="6.71028">
        <ele>2615</ele>
        <time>2022-07-16T17:00:06Z</time>
      </trkpt>
      <trkpt lat="45.71439" lon="6.7103">
        <ele>2615</ele>
        <time>2022-07-16T17:00:08Z</time>
      </trkpt>
      <trkpt lat="45.71441" lon="6.71033">
        <ele>2614</ele>
        <time>2022-07-16T17:00:10Z</time>
      </trkpt>
      <trkpt lat="45.71443" lon="6.71035">
        <ele>2614</ele>
        <time>2022-07-16T17:00:12Z</time>
      </trkpt>
      <trkpt lat="45.71445" lon="6.71038">
        <ele>2613</ele>
        <time>2022-07-16T17:00:14Z</time>
      </trkpt>
      <trkpt lat="45.71447" lon="6.71041">
        <ele>2613</ele>
        <time>2022-07-16T17:00:16Z</time>
      </trkpt>
      <trkpt lat="45.71449" lon="6.71043">
        <ele>2613</ele>
        <time>2022-07-16T17:00:18Z</time>
      </trkpt>
      <trkpt lat="45.7145" lon="6.71046">
        <ele>2613</ele>
        <time>2022-07-16T17:00:20Z</time>
      </trkpt>
      <trkpt lat="45.71452" lon="6.71048">
        <ele>2613</ele>
        <time>2022-07-16T17:00:22Z</time>
      </trkpt>
      <trkpt lat="45.71452" lon="6.7105">
        <ele>2613</ele>
        <time>2022-07-16T17:00:24Z</time>
      </trkpt>
      <trkpt lat="45.7145" lon="6.71052">
        <ele>2613</ele>
        <time>2022-07-16T17:00:26Z</time>
      </trkpt>
      <trkpt lat="45.71447" lon="6.71053">
        <ele>2613</ele>
        <time>2022-07-16T17:00:28Z</time>
      </trkpt>
      <trkpt lat="45.71443" lon="6.71054">
        <ele>2613</ele>
        <time>2022-07-16T17:00:30Z</time>
      </trkpt>
      <trkpt lat="45.71441" lon="6.71055">
        <ele>2612</ele>
        <time>2022-07-16T17:00:31Z</time>
      </trkpt>
      <trkpt lat="45.71439" lon="6.71056">
        <ele>2612</ele>
        <time>2022-07-16T17:00:32Z</time>
      </trkpt>
      <trkpt lat="45.71438" lon="6.71056">
        <ele>2612</ele>
        <time>2022-07-16T17:00:33Z</time>
      </trkpt>
      <trkpt lat="45.71435" lon="6.71057">
        <ele>2611</ele>
        <time>2022-07-16T17:00:35Z</time>
      </trkpt>
      <trkpt lat="45.71432" lon="6.71058">
        <ele>2611</ele>
        <time>2022-07-16T17:00:37Z</time>
      </trkpt>
      <trkpt lat="45.71431" lon="6.71059">
        <ele>2611</ele>
        <time>2022-07-16T17:00:39Z</time>
      </trkpt>
      <trkpt lat="45.71432" lon="6.7106">
        <ele>2610</ele>
        <time>2022-07-16T17:00:40Z</time>
      </trkpt>
      <trkpt lat="45.71433" lon="6.7106">
        <ele>2610</ele>
        <time>2022-07-16T17:00:41Z</time>
      </trkpt>
      <trkpt lat="45.71434" lon="6.71061">
        <ele>2610</ele>
        <time>2022-07-16T17:00:42Z</time>
      </trkpt>
      <trkpt lat="45.71436" lon="6.71062">
        <ele>2610</ele>
        <time>2022-07-16T17:00:43Z</time>
      </trkpt>
      <trkpt lat="45.71438" lon="6.71061">
        <ele>2609</ele>
        <time>2022-07-16T17:00:44Z</time>
      </trkpt>
      <trkpt lat="45.7144" lon="6.71061">
        <ele>2609</ele>
        <time>2022-07-16T17:00:45Z</time>
      </trkpt>
      <trkpt lat="45.71441" lon="6.71061">
        <ele>2609</ele>
        <time>2022-07-16T17:00:46Z</time>
      </trkpt>
      <trkpt lat="45.71444" lon="6.71062">
        <ele>2609</ele>
        <time>2022-07-16T17:00:47Z</time>
      </trkpt>
      <trkpt lat="45.71445" lon="6.71062">
        <ele>2609</ele>
        <time>2022-07-16T17:00:48Z</time>
      </trkpt>
      <trkpt lat="45.71447" lon="6.71062">
        <ele>2609</ele>
        <time>2022-07-16T17:00:49Z</time>
      </trkpt>
      <trkpt lat="45.71451" lon="6.71064">
        <ele>2608</ele>
        <time>2022-07-16T17:00:51Z</time>
      </trkpt>
      <trkpt lat="45.71454" lon="6.71065">
        <ele>2608</ele>
        <time>2022-07-16T17:00:52Z</time>
      </trkpt>
      <trkpt lat="45.71455" lon="6.71066">
        <ele>2608</ele>
        <time>2022-07-16T17:00:53Z</time>
      </trkpt>
      <trkpt lat="45.71456" lon="6.71066">
        <ele>2607</ele>
        <time>2022-07-16T17:00:54Z</time>
      </trkpt>
      <trkpt lat="45.71459" lon="6.71067">
        <ele>2607</ele>
        <time>2022-07-16T17:00:55Z</time>
      </trkpt>
      <trkpt lat="45.71461" lon="6.71067">
        <ele>2607</ele>
        <time>2022-07-16T17:00:57Z</time>
      </trkpt>
      <trkpt lat="45.71464" lon="6.71067">
        <ele>2607</ele>
        <time>2022-07-16T17:00:59Z</time>
      </trkpt>
      <trkpt lat="45.71467" lon="6.71068">
        <ele>2607</ele>
        <time>2022-07-16T17:01:01Z</time>
      </trkpt>
      <trkpt lat="45.7147" lon="6.7107">
        <ele>2605</ele>
        <time>2022-07-16T17:01:03Z</time>
      </trkpt>
      <trkpt lat="45.71472" lon="6.71072">
        <ele>2605</ele>
        <time>2022-07-16T17:01:05Z</time>
      </trkpt>
      <trkpt lat="45.71475" lon="6.71071">
        <ele>2605</ele>
        <time>2022-07-16T17:01:07Z</time>
      </trkpt>
      <trkpt lat="45.71478" lon="6.71069">
        <ele>2605</ele>
        <time>2022-07-16T17:01:10Z</time>
      </trkpt>
      <trkpt lat="45.71481" lon="6.7107">
        <ele>2604</ele>
        <time>2022-07-16T17:01:11Z</time>
      </trkpt>
      <trkpt lat="45.71483" lon="6.7107">
        <ele>2603</ele>
        <time>2022-07-16T17:01:13Z</time>
      </trkpt>
      <trkpt lat="45.71485" lon="6.7107">
        <ele>2603</ele>
        <time>2022-07-16T17:01:15Z</time>
      </trkpt>
      <trkpt lat="45.71488" lon="6.7107">
        <ele>2603</ele>
        <time>2022-07-16T17:01:17Z</time>
      </trkpt>
      <trkpt lat="45.71491" lon="6.71071">
        <ele>2602</ele>
        <time>2022-07-16T17:01:19Z</time>
      </trkpt>
      <trkpt lat="45.71493" lon="6.71072">
        <ele>2601</ele>
        <time>2022-07-16T17:01:21Z</time>
      </trkpt>
      <trkpt lat="45.71496" lon="6.71072">
        <ele>2601</ele>
        <time>2022-07-16T17:01:23Z</time>
      </trkpt>
      <trkpt lat="45.71498" lon="6.71073">
        <ele>2600</ele>
        <time>2022-07-16T17:01:25Z</time>
      </trkpt>
      <trkpt lat="45.71501" lon="6.71074">
        <ele>2599</ele>
        <time>2022-07-16T17:01:27Z</time>
      </trkpt>
      <trkpt lat="45.71503" lon="6.71076">
        <ele>2599</ele>
        <time>2022-07-16T17:01:29Z</time>
      </trkpt>
      <trkpt lat="45.71506" lon="6.71077">
        <ele>2599</ele>
        <time>2022-07-16T17:01:31Z</time>
      </trkpt>
      <trkpt lat="45.71508" lon="6.71078">
        <ele>2599</ele>
        <time>2022-07-16T17:01:33Z</time>
      </trkpt>
      <trkpt lat="45.71511" lon="6.7108">
        <ele>2599</ele>
        <time>2022-07-16T17:01:35Z</time>
      </trkpt>
      <trkpt lat="45.71513" lon="6.71081">
        <ele>2598</ele>
        <time>2022-07-16T17:01:37Z</time>
      </trkpt>
      <trkpt lat="45.71515" lon="6.71083">
        <ele>2596</ele>
        <time>2022-07-16T17:01:39Z</time>
      </trkpt>
      <trkpt lat="45.71518" lon="6.71083">
        <ele>2596</ele>
        <time>2022-07-16T17:01:41Z</time>
      </trkpt>
      <trkpt lat="45.7152" lon="6.71084">
        <ele>2596</ele>
        <time>2022-07-16T17:01:43Z</time>
      </trkpt>
      <trkpt lat="45.71522" lon="6.71083">
        <ele>2596</ele>
        <time>2022-07-16T17:01:45Z</time>
      </trkpt>
      <trkpt lat="45.71525" lon="6.71083">
        <ele>2595</ele>
        <time>2022-07-16T17:01:47Z</time>
      </trkpt>
      <trkpt lat="45.71528" lon="6.71084">
        <ele>2593</ele>
        <time>2022-07-16T17:01:49Z</time>
      </trkpt>
      <trkpt lat="45.7153" lon="6.71086">
        <ele>2592</ele>
        <time>2022-07-16T17:01:51Z</time>
      </trkpt>
      <trkpt lat="45.71533" lon="6.71088">
        <ele>2592</ele>
        <time>2022-07-16T17:01:53Z</time>
      </trkpt>
      <trkpt lat="45.71535" lon="6.7109">
        <ele>2592</ele>
        <time>2022-07-16T17:01:55Z</time>
      </trkpt>
      <trkpt lat="45.71538" lon="6.71093">
        <ele>2592</ele>
        <time>2022-07-16T17:01:57Z</time>
      </trkpt>
      <trkpt lat="45.7154" lon="6.71095">
        <ele>2592</ele>
        <time>2022-07-16T17:01:59Z</time>
      </trkpt>
      <trkpt lat="45.71542" lon="6.71098">
        <ele>2591</ele>
        <time>2022-07-16T17:02:01Z</time>
      </trkpt>
      <trkpt lat="45.71545" lon="6.711">
        <ele>2591</ele>
        <time>2022-07-16T17:02:03Z</time>
      </trkpt>
      <trkpt lat="45.71547" lon="6.71102">
        <ele>2591</ele>
        <time>2022-07-16T17:02:05Z</time>
      </trkpt>
      <trkpt lat="45.71549" lon="6.71104">
        <ele>2591</ele>
        <time>2022-07-16T17:02:07Z</time>
      </trkpt>
      <trkpt lat="45.71551" lon="6.71105">
        <ele>2591</ele>
        <time>2022-07-16T17:02:09Z</time>
      </trkpt>
      <trkpt lat="45.71553" lon="6.71106">
        <ele>2591</ele>
        <time>2022-07-16T17:02:11Z</time>
      </trkpt>
      <trkpt lat="45.71555" lon="6.71107">
        <ele>2590</ele>
        <time>2022-07-16T17:02:13Z</time>
      </trkpt>
      <trkpt lat="45.71557" lon="6.71109">
        <ele>2590</ele>
        <time>2022-07-16T17:02:15Z</time>
      </trkpt>
      <trkpt lat="45.7156" lon="6.7111">
        <ele>2589</ele>
        <time>2022-07-16T17:02:17Z</time>
      </trkpt>
      <trkpt lat="45.71562" lon="6.71111">
        <ele>2588</ele>
        <time>2022-07-16T17:02:19Z</time>
      </trkpt>
      <trkpt lat="45.71564" lon="6.71112">
        <ele>2588</ele>
        <time>2022-07-16T17:02:21Z</time>
      </trkpt>
      <trkpt lat="45.71567" lon="6.71112">
        <ele>2587</ele>
        <time>2022-07-16T17:02:23Z</time>
      </trkpt>
      <trkpt lat="45.71569" lon="6.71113">
        <ele>2587</ele>
        <time>2022-07-16T17:02:25Z</time>
      </trkpt>
      <trkpt lat="45.71571" lon="6.71114">
        <ele>2587</ele>
        <time>2022-07-16T17:02:26Z</time>
      </trkpt>
      <trkpt lat="45.71573" lon="6.71115">
        <ele>2586</ele>
        <time>2022-07-16T17:02:27Z</time>
      </trkpt>
      <trkpt lat="45.71574" lon="6.71117">
        <ele>2585</ele>
        <time>2022-07-16T17:02:28Z</time>
      </trkpt>
      <trkpt lat="45.71577" lon="6.71119">
        <ele>2585</ele>
        <time>2022-07-16T17:02:30Z</time>
      </trkpt>
      <trkpt lat="45.71579" lon="6.71121">
        <ele>2585</ele>
        <time>2022-07-16T17:02:32Z</time>
      </trkpt>
      <trkpt lat="45.71582" lon="6.71123">
        <ele>2585</ele>
        <time>2022-07-16T17:02:34Z</time>
      </trkpt>
      <trkpt lat="45.71585" lon="6.71125">
        <ele>2585</ele>
        <time>2022-07-16T17:02:36Z</time>
      </trkpt>
      <trkpt lat="45.71587" lon="6.71127">
        <ele>2585</ele>
        <time>2022-07-16T17:02:38Z</time>
      </trkpt>
      <trkpt lat="45.71589" lon="6.71129">
        <ele>2584</ele>
        <time>2022-07-16T17:02:40Z</time>
      </trkpt>
      <trkpt lat="45.71592" lon="6.71131">
        <ele>2584</ele>
        <time>2022-07-16T17:02:42Z</time>
      </trkpt>
      <trkpt lat="45.71595" lon="6.71133">
        <ele>2583</ele>
        <time>2022-07-16T17:02:44Z</time>
      </trkpt>
      <trkpt lat="45.71597" lon="6.71136">
        <ele>2581</ele>
        <time>2022-07-16T17:02:46Z</time>
      </trkpt>
      <trkpt lat="45.71599" lon="6.71139">
        <ele>2581</ele>
        <time>2022-07-16T17:02:48Z</time>
      </trkpt>
      <trkpt lat="45.71601" lon="6.71141">
        <ele>2581</ele>
        <time>2022-07-16T17:02:50Z</time>
      </trkpt>
      <trkpt lat="45.71603" lon="6.71144">
        <ele>2581</ele>
        <time>2022-07-16T17:02:52Z</time>
      </trkpt>
      <trkpt lat="45.71605" lon="6.71147">
        <ele>2581</ele>
        <time>2022-07-16T17:02:54Z</time>
      </trkpt>
      <trkpt lat="45.71607" lon="6.71149">
        <ele>2581</ele>
        <time>2022-07-16T17:02:56Z</time>
      </trkpt>
      <trkpt lat="45.71609" lon="6.71152">
        <ele>2581</ele>
        <time>2022-07-16T17:02:58Z</time>
      </trkpt>
      <trkpt lat="45.71611" lon="6.71154">
        <ele>2581</ele>
        <time>2022-07-16T17:03:00Z</time>
      </trkpt>
      <trkpt lat="45.71613" lon="6.71156">
        <ele>2581</ele>
        <time>2022-07-16T17:03:02Z</time>
      </trkpt>
      <trkpt lat="45.71615" lon="6.71158">
        <ele>2583</ele>
        <time>2022-07-16T17:03:04Z</time>
      </trkpt>
      <trkpt lat="45.71617" lon="6.7116">
        <ele>2583</ele>
        <time>2022-07-16T17:03:06Z</time>
      </trkpt>
      <trkpt lat="45.71619" lon="6.71162">
        <ele>2581</ele>
        <time>2022-07-16T17:03:08Z</time>
      </trkpt>
      <trkpt lat="45.71622" lon="6.71164">
        <ele>2581</ele>
        <time>2022-07-16T17:03:10Z</time>
      </trkpt>
      <trkpt lat="45.71624" lon="6.71166">
        <ele>2580</ele>
        <time>2022-07-16T17:03:12Z</time>
      </trkpt>
      <trkpt lat="45.71627" lon="6.71167">
        <ele>2580</ele>
        <time>2022-07-16T17:03:14Z</time>
      </trkpt>
      <trkpt lat="45.71629" lon="6.71169">
        <ele>2580</ele>
        <time>2022-07-16T17:03:16Z</time>
      </trkpt>
      <trkpt lat="45.71631" lon="6.71171">
        <ele>2580</ele>
        <time>2022-07-16T17:03:18Z</time>
      </trkpt>
      <trkpt lat="45.71634" lon="6.71173">
        <ele>2579</ele>
        <time>2022-07-16T17:03:20Z</time>
      </trkpt>
      <trkpt lat="45.71637" lon="6.71174">
        <ele>2579</ele>
        <time>2022-07-16T17:03:22Z</time>
      </trkpt>
      <trkpt lat="45.71639" lon="6.71176">
        <ele>2579</ele>
        <time>2022-07-16T17:03:24Z</time>
      </trkpt>
      <trkpt lat="45.71641" lon="6.71177">
        <ele>2579</ele>
        <time>2022-07-16T17:03:26Z</time>
      </trkpt>
      <trkpt lat="45.71644" lon="6.71179">
        <ele>2579</ele>
        <time>2022-07-16T17:03:28Z</time>
      </trkpt>
      <trkpt lat="45.71646" lon="6.7118">
        <ele>2579</ele>
        <time>2022-07-16T17:03:30Z</time>
      </trkpt>
      <trkpt lat="45.71649" lon="6.7118">
        <ele>2579</ele>
        <time>2022-07-16T17:03:32Z</time>
      </trkpt>
      <trkpt lat="45.71651" lon="6.7118">
        <ele>2579</ele>
        <time>2022-07-16T17:03:34Z</time>
      </trkpt>
      <trkpt lat="45.71653" lon="6.71181">
        <ele>2579</ele>
        <time>2022-07-16T17:03:36Z</time>
      </trkpt>
      <trkpt lat="45.71656" lon="6.71182">
        <ele>2579</ele>
        <time>2022-07-16T17:03:38Z</time>
      </trkpt>
      <trkpt lat="45.71658" lon="6.71184">
        <ele>2579</ele>
        <time>2022-07-16T17:03:40Z</time>
      </trkpt>
      <trkpt lat="45.71661" lon="6.71186">
        <ele>2579</ele>
        <time>2022-07-16T17:03:42Z</time>
      </trkpt>
      <trkpt lat="45.71663" lon="6.71188">
        <ele>2579</ele>
        <time>2022-07-16T17:03:44Z</time>
      </trkpt>
      <trkpt lat="45.71665" lon="6.71191">
        <ele>2579</ele>
        <time>2022-07-16T17:03:46Z</time>
      </trkpt>
      <trkpt lat="45.71668" lon="6.71194">
        <ele>2579</ele>
        <time>2022-07-16T17:03:48Z</time>
      </trkpt>
      <trkpt lat="45.71669" lon="6.71197">
        <ele>2579</ele>
        <time>2022-07-16T17:03:50Z</time>
      </trkpt>
      <trkpt lat="45.71671" lon="6.71199">
        <ele>2579</ele>
        <time>2022-07-16T17:03:52Z</time>
      </trkpt>
      <trkpt lat="45.71673" lon="6.71202">
        <ele>2579</ele>
        <time>2022-07-16T17:03:54Z</time>
      </trkpt>
      <trkpt lat="45.71674" lon="6.71206">
        <ele>2579</ele>
        <time>2022-07-16T17:03:56Z</time>
      </trkpt>
      <trkpt lat="45.71676" lon="6.71209">
        <ele>2579</ele>
        <time>2022-07-16T17:03:58Z</time>
      </trkpt>
      <trkpt lat="45.71677" lon="6.71213">
        <ele>2579</ele>
        <time>2022-07-16T17:04:01Z</time>
      </trkpt>
      <trkpt lat="45.71679" lon="6.71217">
        <ele>2579</ele>
        <time>2022-07-16T17:04:02Z</time>
      </trkpt>
      <trkpt lat="45.7168" lon="6.7122">
        <ele>2578</ele>
        <time>2022-07-16T17:04:04Z</time>
      </trkpt>
      <trkpt lat="45.7168" lon="6.71224">
        <ele>2578</ele>
        <time>2022-07-16T17:04:06Z</time>
      </trkpt>
      <trkpt lat="45.7168" lon="6.71228">
        <ele>2577</ele>
        <time>2022-07-16T17:04:08Z</time>
      </trkpt>
      <trkpt lat="45.71681" lon="6.71232">
        <ele>2577</ele>
        <time>2022-07-16T17:04:10Z</time>
      </trkpt>
      <trkpt lat="45.71682" lon="6.71235">
        <ele>2577</ele>
        <time>2022-07-16T17:04:12Z</time>
      </trkpt>
      <trkpt lat="45.71684" lon="6.71238">
        <ele>2577</ele>
        <time>2022-07-16T17:04:14Z</time>
      </trkpt>
      <trkpt lat="45.71685" lon="6.71242">
        <ele>2576</ele>
        <time>2022-07-16T17:04:16Z</time>
      </trkpt>
      <trkpt lat="45.71686" lon="6.71246">
        <ele>2576</ele>
        <time>2022-07-16T17:04:18Z</time>
      </trkpt>
      <trkpt lat="45.71686" lon="6.71249">
        <ele>2576</ele>
        <time>2022-07-16T17:04:20Z</time>
      </trkpt>
      <trkpt lat="45.71687" lon="6.71252">
        <ele>2575</ele>
        <time>2022-07-16T17:04:22Z</time>
      </trkpt>
      <trkpt lat="45.71689" lon="6.71256">
        <ele>2575</ele>
        <time>2022-07-16T17:04:24Z</time>
      </trkpt>
      <trkpt lat="45.7169" lon="6.71259">
        <ele>2575</ele>
        <time>2022-07-16T17:04:26Z</time>
      </trkpt>
      <trkpt lat="45.71692" lon="6.71262">
        <ele>2575</ele>
        <time>2022-07-16T17:04:28Z</time>
      </trkpt>
      <trkpt lat="45.71693" lon="6.71265">
        <ele>2575</ele>
        <time>2022-07-16T17:04:30Z</time>
      </trkpt>
      <trkpt lat="45.71694" lon="6.71268">
        <ele>2575</ele>
        <time>2022-07-16T17:04:32Z</time>
      </trkpt>
      <trkpt lat="45.71696" lon="6.71272">
        <ele>2575</ele>
        <time>2022-07-16T17:04:34Z</time>
      </trkpt>
      <trkpt lat="45.71697" lon="6.71275">
        <ele>2575</ele>
        <time>2022-07-16T17:04:36Z</time>
      </trkpt>
      <trkpt lat="45.71698" lon="6.71278">
        <ele>2575</ele>
        <time>2022-07-16T17:04:38Z</time>
      </trkpt>
      <trkpt lat="45.717" lon="6.71281">
        <ele>2575</ele>
        <time>2022-07-16T17:04:40Z</time>
      </trkpt>
      <trkpt lat="45.71701" lon="6.71284">
        <ele>2574</ele>
        <time>2022-07-16T17:04:42Z</time>
      </trkpt>
      <trkpt lat="45.71702" lon="6.71287">
        <ele>2574</ele>
        <time>2022-07-16T17:04:44Z</time>
      </trkpt>
      <trkpt lat="45.71704" lon="6.7129">
        <ele>2574</ele>
        <time>2022-07-16T17:04:46Z</time>
      </trkpt>
      <trkpt lat="45.71705" lon="6.71293">
        <ele>2574</ele>
        <time>2022-07-16T17:04:48Z</time>
      </trkpt>
      <trkpt lat="45.71707" lon="6.71296">
        <ele>2574</ele>
        <time>2022-07-16T17:04:50Z</time>
      </trkpt>
      <trkpt lat="45.71709" lon="6.71299">
        <ele>2574</ele>
        <time>2022-07-16T17:04:52Z</time>
      </trkpt>
      <trkpt lat="45.71711" lon="6.71302">
        <ele>2574</ele>
        <time>2022-07-16T17:04:54Z</time>
      </trkpt>
      <trkpt lat="45.71713" lon="6.71305">
        <ele>2574</ele>
        <time>2022-07-16T17:04:56Z</time>
      </trkpt>
      <trkpt lat="45.71715" lon="6.71309">
        <ele>2574</ele>
        <time>2022-07-16T17:04:58Z</time>
      </trkpt>
      <trkpt lat="45.71717" lon="6.71313">
        <ele>2573</ele>
        <time>2022-07-16T17:05:00Z</time>
      </trkpt>
      <trkpt lat="45.71718" lon="6.71316">
        <ele>2573</ele>
        <time>2022-07-16T17:05:02Z</time>
      </trkpt>
      <trkpt lat="45.7172" lon="6.7132">
        <ele>2573</ele>
        <time>2022-07-16T17:05:04Z</time>
      </trkpt>
      <trkpt lat="45.71721" lon="6.71324">
        <ele>2573</ele>
        <time>2022-07-16T17:05:06Z</time>
      </trkpt>
      <trkpt lat="45.71723" lon="6.71327">
        <ele>2572</ele>
        <time>2022-07-16T17:05:08Z</time>
      </trkpt>
      <trkpt lat="45.71725" lon="6.7133">
        <ele>2571</ele>
        <time>2022-07-16T17:05:10Z</time>
      </trkpt>
      <trkpt lat="45.71727" lon="6.71333">
        <ele>2569</ele>
        <time>2022-07-16T17:05:12Z</time>
      </trkpt>
      <trkpt lat="45.71729" lon="6.71336">
        <ele>2569</ele>
        <time>2022-07-16T17:05:14Z</time>
      </trkpt>
      <trkpt lat="45.71732" lon="6.71338">
        <ele>2571</ele>
        <time>2022-07-16T17:05:16Z</time>
      </trkpt>
      <trkpt lat="45.71733" lon="6.71341">
        <ele>2569</ele>
        <time>2022-07-16T17:05:18Z</time>
      </trkpt>
      <trkpt lat="45.71735" lon="6.71343">
        <ele>2568</ele>
        <time>2022-07-16T17:05:20Z</time>
      </trkpt>
      <trkpt lat="45.71737" lon="6.71345">
        <ele>2567</ele>
        <time>2022-07-16T17:05:22Z</time>
      </trkpt>
      <trkpt lat="45.7174" lon="6.71347">
        <ele>2568</ele>
        <time>2022-07-16T17:05:24Z</time>
      </trkpt>
      <trkpt lat="45.71743" lon="6.71349">
        <ele>2567</ele>
        <time>2022-07-16T17:05:26Z</time>
      </trkpt>
      <trkpt lat="45.71746" lon="6.7135">
        <ele>2568</ele>
        <time>2022-07-16T17:05:28Z</time>
      </trkpt>
      <trkpt lat="45.71748" lon="6.71351">
        <ele>2567</ele>
        <time>2022-07-16T17:05:30Z</time>
      </trkpt>
      <trkpt lat="45.7175" lon="6.71349">
        <ele>2567</ele>
        <time>2022-07-16T17:05:33Z</time>
      </trkpt>
      <trkpt lat="45.71752" lon="6.71347">
        <ele>2567</ele>
        <time>2022-07-16T17:05:35Z</time>
      </trkpt>
      <trkpt lat="45.71754" lon="6.71346">
        <ele>2566</ele>
        <time>2022-07-16T17:05:37Z</time>
      </trkpt>
      <trkpt lat="45.71756" lon="6.71346">
        <ele>2565</ele>
        <time>2022-07-16T17:05:39Z</time>
      </trkpt>
      <trkpt lat="45.71758" lon="6.71347">
        <ele>2563</ele>
        <time>2022-07-16T17:05:41Z</time>
      </trkpt>
      <trkpt lat="45.7176" lon="6.71348">
        <ele>2562</ele>
        <time>2022-07-16T17:05:43Z</time>
      </trkpt>
      <trkpt lat="45.71762" lon="6.71351">
        <ele>2561</ele>
        <time>2022-07-16T17:05:45Z</time>
      </trkpt>
      <trkpt lat="45.71763" lon="6.71353">
        <ele>2561</ele>
        <time>2022-07-16T17:05:47Z</time>
      </trkpt>
      <trkpt lat="45.71765" lon="6.71355">
        <ele>2561</ele>
        <time>2022-07-16T17:05:49Z</time>
      </trkpt>
      <trkpt lat="45.71766" lon="6.71357">
        <ele>2561</ele>
        <time>2022-07-16T17:05:51Z</time>
      </trkpt>
      <trkpt lat="45.71768" lon="6.71359">
        <ele>2561</ele>
        <time>2022-07-16T17:05:55Z</time>
      </trkpt>
      <trkpt lat="45.7177" lon="6.71361">
        <ele>2559</ele>
        <time>2022-07-16T17:05:56Z</time>
      </trkpt>
      <trkpt lat="45.71772" lon="6.71362">
        <ele>2559</ele>
        <time>2022-07-16T17:05:58Z</time>
      </trkpt>
      <trkpt lat="45.71775" lon="6.71364">
        <ele>2559</ele>
        <time>2022-07-16T17:06:01Z</time>
      </trkpt>
      <trkpt lat="45.71776" lon="6.71366">
        <ele>2557</ele>
        <time>2022-07-16T17:06:03Z</time>
      </trkpt>
      <trkpt lat="45.71778" lon="6.71368">
        <ele>2557</ele>
        <time>2022-07-16T17:06:05Z</time>
      </trkpt>
      <trkpt lat="45.7178" lon="6.7137">
        <ele>2557</ele>
        <time>2022-07-16T17:06:07Z</time>
      </trkpt>
      <trkpt lat="45.71781" lon="6.71372">
        <ele>2557</ele>
        <time>2022-07-16T17:06:09Z</time>
      </trkpt>
      <trkpt lat="45.71783" lon="6.71375">
        <ele>2556</ele>
        <time>2022-07-16T17:06:11Z</time>
      </trkpt>
      <trkpt lat="45.71785" lon="6.71377">
        <ele>2556</ele>
        <time>2022-07-16T17:06:13Z</time>
      </trkpt>
      <trkpt lat="45.71786" lon="6.71379">
        <ele>2555</ele>
        <time>2022-07-16T17:06:15Z</time>
      </trkpt>
      <trkpt lat="45.71787" lon="6.71381">
        <ele>2554</ele>
        <time>2022-07-16T17:06:17Z</time>
      </trkpt>
      <trkpt lat="45.71789" lon="6.71383">
        <ele>2554</ele>
        <time>2022-07-16T17:06:19Z</time>
      </trkpt>
      <trkpt lat="45.71791" lon="6.71385">
        <ele>2553</ele>
        <time>2022-07-16T17:06:21Z</time>
      </trkpt>
      <trkpt lat="45.71793" lon="6.71387">
        <ele>2553</ele>
        <time>2022-07-16T17:06:23Z</time>
      </trkpt>
      <trkpt lat="45.71796" lon="6.7139">
        <ele>2553</ele>
        <time>2022-07-16T17:06:25Z</time>
      </trkpt>
      <trkpt lat="45.71797" lon="6.71392">
        <ele>2553</ele>
        <time>2022-07-16T17:06:27Z</time>
      </trkpt>
      <trkpt lat="45.71799" lon="6.71395">
        <ele>2553</ele>
        <time>2022-07-16T17:06:29Z</time>
      </trkpt>
      <trkpt lat="45.71801" lon="6.71398">
        <ele>2553</ele>
        <time>2022-07-16T17:06:31Z</time>
      </trkpt>
      <trkpt lat="45.71803" lon="6.714">
        <ele>2553</ele>
        <time>2022-07-16T17:06:33Z</time>
      </trkpt>
      <trkpt lat="45.71805" lon="6.71402">
        <ele>2552</ele>
        <time>2022-07-16T17:06:35Z</time>
      </trkpt>
      <trkpt lat="45.71807" lon="6.71404">
        <ele>2551</ele>
        <time>2022-07-16T17:06:37Z</time>
      </trkpt>
      <trkpt lat="45.71809" lon="6.71407">
        <ele>2551</ele>
        <time>2022-07-16T17:06:39Z</time>
      </trkpt>
      <trkpt lat="45.71811" lon="6.7141">
        <ele>2551</ele>
        <time>2022-07-16T17:06:41Z</time>
      </trkpt>
      <trkpt lat="45.71812" lon="6.71412">
        <ele>2551</ele>
        <time>2022-07-16T17:06:43Z</time>
      </trkpt>
      <trkpt lat="45.71814" lon="6.71415">
        <ele>2551</ele>
        <time>2022-07-16T17:06:45Z</time>
      </trkpt>
      <trkpt lat="45.71815" lon="6.71418">
        <ele>2551</ele>
        <time>2022-07-16T17:06:47Z</time>
      </trkpt>
      <trkpt lat="45.71816" lon="6.71421">
        <ele>2550</ele>
        <time>2022-07-16T17:06:49Z</time>
      </trkpt>
      <trkpt lat="45.71817" lon="6.71424">
        <ele>2550</ele>
        <time>2022-07-16T17:06:52Z</time>
      </trkpt>
      <trkpt lat="45.71818" lon="6.71426">
        <ele>2550</ele>
        <time>2022-07-16T17:06:53Z</time>
      </trkpt>
      <trkpt lat="45.71819" lon="6.71429">
        <ele>2548</ele>
        <time>2022-07-16T17:06:55Z</time>
      </trkpt>
      <trkpt lat="45.7182" lon="6.71431">
        <ele>2548</ele>
        <time>2022-07-16T17:06:57Z</time>
      </trkpt>
      <trkpt lat="45.71821" lon="6.71433">
        <ele>2547</ele>
        <time>2022-07-16T17:06:59Z</time>
      </trkpt>
      <trkpt lat="45.71822" lon="6.71435">
        <ele>2547</ele>
        <time>2022-07-16T17:07:01Z</time>
      </trkpt>
      <trkpt lat="45.71823" lon="6.71437">
        <ele>2545</ele>
        <time>2022-07-16T17:07:03Z</time>
      </trkpt>
      <trkpt lat="45.71824" lon="6.7144">
        <ele>2545</ele>
        <time>2022-07-16T17:07:06Z</time>
      </trkpt>
      <trkpt lat="45.71822" lon="6.71442">
        <ele>2545</ele>
        <time>2022-07-16T17:07:09Z</time>
      </trkpt>
      <trkpt lat="45.7182" lon="6.71441">
        <ele>2545</ele>
        <time>2022-07-16T17:07:11Z</time>
      </trkpt>
      <trkpt lat="45.71817" lon="6.71441">
        <ele>2544</ele>
        <time>2022-07-16T17:07:13Z</time>
      </trkpt>
      <trkpt lat="45.71815" lon="6.71441">
        <ele>2543</ele>
        <time>2022-07-16T17:07:15Z</time>
      </trkpt>
      <trkpt lat="45.71812" lon="6.71441">
        <ele>2543</ele>
        <time>2022-07-16T17:07:17Z</time>
      </trkpt>
      <trkpt lat="45.7181" lon="6.71441">
        <ele>2542</ele>
        <time>2022-07-16T17:07:19Z</time>
      </trkpt>
      <trkpt lat="45.71808" lon="6.71442">
        <ele>2542</ele>
        <time>2022-07-16T17:07:21Z</time>
      </trkpt>
      <trkpt lat="45.71806" lon="6.71442">
        <ele>2542</ele>
        <time>2022-07-16T17:07:23Z</time>
      </trkpt>
      <trkpt lat="45.71803" lon="6.71441">
        <ele>2542</ele>
        <time>2022-07-16T17:07:25Z</time>
      </trkpt>
      <trkpt lat="45.71801" lon="6.71441">
        <ele>2542</ele>
        <time>2022-07-16T17:07:27Z</time>
      </trkpt>
      <trkpt lat="45.71801" lon="6.71444">
        <ele>2541</ele>
        <time>2022-07-16T17:07:30Z</time>
      </trkpt>
      <trkpt lat="45.71802" lon="6.71444">
        <ele>2540</ele>
        <time>2022-07-16T17:07:31Z</time>
      </trkpt>
      <trkpt lat="45.71802" lon="6.71445">
        <ele>2539</ele>
        <time>2022-07-16T17:07:32Z</time>
      </trkpt>
      <trkpt lat="45.71803" lon="6.71445">
        <ele>2539</ele>
        <time>2022-07-16T17:07:33Z</time>
      </trkpt>
      <trkpt lat="45.71804" lon="6.71446">
        <ele>2539</ele>
        <time>2022-07-16T17:07:34Z</time>
      </trkpt>
      <trkpt lat="45.71805" lon="6.71446">
        <ele>2539</ele>
        <time>2022-07-16T17:07:35Z</time>
      </trkpt>
      <trkpt lat="45.71806" lon="6.71447">
        <ele>2539</ele>
        <time>2022-07-16T17:07:36Z</time>
      </trkpt>
      <trkpt lat="45.71808" lon="6.71449">
        <ele>2538</ele>
        <time>2022-07-16T17:07:39Z</time>
      </trkpt>
      <trkpt lat="45.7181" lon="6.71451">
        <ele>2537</ele>
        <time>2022-07-16T17:07:41Z</time>
      </trkpt>
      <trkpt lat="45.71812" lon="6.71453">
        <ele>2537</ele>
        <time>2022-07-16T17:07:43Z</time>
      </trkpt>
      <trkpt lat="45.71814" lon="6.71455">
        <ele>2536</ele>
        <time>2022-07-16T17:07:45Z</time>
      </trkpt>
      <trkpt lat="45.71816" lon="6.71457">
        <ele>2536</ele>
        <time>2022-07-16T17:07:47Z</time>
      </trkpt>
      <trkpt lat="45.71818" lon="6.71459">
        <ele>2536</ele>
        <time>2022-07-16T17:07:49Z</time>
      </trkpt>
      <trkpt lat="45.7182" lon="6.7146">
        <ele>2536</ele>
        <time>2022-07-16T17:07:51Z</time>
      </trkpt>
      <trkpt lat="45.71823" lon="6.71461">
        <ele>2536</ele>
        <time>2022-07-16T17:07:53Z</time>
      </trkpt>
      <trkpt lat="45.71825" lon="6.71462">
        <ele>2535</ele>
        <time>2022-07-16T17:07:55Z</time>
      </trkpt>
      <trkpt lat="45.71828" lon="6.71462">
        <ele>2535</ele>
        <time>2022-07-16T17:07:57Z</time>
      </trkpt>
      <trkpt lat="45.71831" lon="6.71462">
        <ele>2535</ele>
        <time>2022-07-16T17:07:59Z</time>
      </trkpt>
      <trkpt lat="45.71833" lon="6.71462">
        <ele>2535</ele>
        <time>2022-07-16T17:08:01Z</time>
      </trkpt>
      <trkpt lat="45.71836" lon="6.71462">
        <ele>2535</ele>
        <time>2022-07-16T17:08:03Z</time>
      </trkpt>
      <trkpt lat="45.71838" lon="6.71462">
        <ele>2535</ele>
        <time>2022-07-16T17:08:05Z</time>
      </trkpt>
      <trkpt lat="45.71841" lon="6.71462">
        <ele>2533</ele>
        <time>2022-07-16T17:08:07Z</time>
      </trkpt>
      <trkpt lat="45.71843" lon="6.71462">
        <ele>2533</ele>
        <time>2022-07-16T17:08:09Z</time>
      </trkpt>
      <trkpt lat="45.71845" lon="6.71462">
        <ele>2532</ele>
        <time>2022-07-16T17:08:11Z</time>
      </trkpt>
      <trkpt lat="45.71848" lon="6.71463">
        <ele>2531</ele>
        <time>2022-07-16T17:08:13Z</time>
      </trkpt>
      <trkpt lat="45.7185" lon="6.71463">
        <ele>2530</ele>
        <time>2022-07-16T17:08:15Z</time>
      </trkpt>
      <trkpt lat="45.71853" lon="6.71463">
        <ele>2530</ele>
        <time>2022-07-16T17:08:17Z</time>
      </trkpt>
      <trkpt lat="45.71855" lon="6.71464">
        <ele>2530</ele>
        <time>2022-07-16T17:08:19Z</time>
      </trkpt>
      <trkpt lat="45.71857" lon="6.71465">
        <ele>2530</ele>
        <time>2022-07-16T17:08:21Z</time>
      </trkpt>
      <trkpt lat="45.7186" lon="6.71465">
        <ele>2530</ele>
        <time>2022-07-16T17:08:23Z</time>
      </trkpt>
      <trkpt lat="45.71862" lon="6.71466">
        <ele>2528</ele>
        <time>2022-07-16T17:08:25Z</time>
      </trkpt>
      <trkpt lat="45.71864" lon="6.71467">
        <ele>2528</ele>
        <time>2022-07-16T17:08:27Z</time>
      </trkpt>
      <trkpt lat="45.71867" lon="6.71467">
        <ele>2528</ele>
        <time>2022-07-16T17:08:29Z</time>
      </trkpt>
      <trkpt lat="45.71869" lon="6.71468">
        <ele>2527</ele>
        <time>2022-07-16T17:08:31Z</time>
      </trkpt>
      <trkpt lat="45.71871" lon="6.7147">
        <ele>2526</ele>
        <time>2022-07-16T17:08:33Z</time>
      </trkpt>
      <trkpt lat="45.71873" lon="6.71472">
        <ele>2525</ele>
        <time>2022-07-16T17:08:35Z</time>
      </trkpt>
      <trkpt lat="45.71875" lon="6.71473">
        <ele>2525</ele>
        <time>2022-07-16T17:08:37Z</time>
      </trkpt>
      <trkpt lat="45.71878" lon="6.71475">
        <ele>2525</ele>
        <time>2022-07-16T17:08:39Z</time>
      </trkpt>
      <trkpt lat="45.7188" lon="6.71477">
        <ele>2525</ele>
        <time>2022-07-16T17:08:41Z</time>
      </trkpt>
      <trkpt lat="45.71882" lon="6.71478">
        <ele>2524</ele>
        <time>2022-07-16T17:08:43Z</time>
      </trkpt>
      <trkpt lat="45.71885" lon="6.71479">
        <ele>2524</ele>
        <time>2022-07-16T17:08:46Z</time>
      </trkpt>
      <trkpt lat="45.71887" lon="6.71481">
        <ele>2524</ele>
        <time>2022-07-16T17:08:47Z</time>
      </trkpt>
      <trkpt lat="45.71889" lon="6.71482">
        <ele>2524</ele>
        <time>2022-07-16T17:08:49Z</time>
      </trkpt>
      <trkpt lat="45.71891" lon="6.71484">
        <ele>2523</ele>
        <time>2022-07-16T17:08:51Z</time>
      </trkpt>
      <trkpt lat="45.71893" lon="6.71485">
        <ele>2522</ele>
        <time>2022-07-16T17:08:53Z</time>
      </trkpt>
      <trkpt lat="45.71895" lon="6.71486">
        <ele>2522</ele>
        <time>2022-07-16T17:08:55Z</time>
      </trkpt>
      <trkpt lat="45.71897" lon="6.71487">
        <ele>2520</ele>
        <time>2022-07-16T17:08:57Z</time>
      </trkpt>
      <trkpt lat="45.71899" lon="6.71488">
        <ele>2520</ele>
        <time>2022-07-16T17:08:59Z</time>
      </trkpt>
      <trkpt lat="45.71901" lon="6.71489">
        <ele>2519</ele>
        <time>2022-07-16T17:09:01Z</time>
      </trkpt>
      <trkpt lat="45.71903" lon="6.71491">
        <ele>2519</ele>
        <time>2022-07-16T17:09:03Z</time>
      </trkpt>
      <trkpt lat="45.71905" lon="6.71491">
        <ele>2519</ele>
        <time>2022-07-16T17:09:05Z</time>
      </trkpt>
      <trkpt lat="45.71908" lon="6.71492">
        <ele>2516</ele>
        <time>2022-07-16T17:09:07Z</time>
      </trkpt>
      <trkpt lat="45.7191" lon="6.71494">
        <ele>2516</ele>
        <time>2022-07-16T17:09:09Z</time>
      </trkpt>
      <trkpt lat="45.71911" lon="6.71494">
        <ele>2516</ele>
        <time>2022-07-16T17:09:11Z</time>
      </trkpt>
      <trkpt lat="45.71913" lon="6.71494">
        <ele>2515</ele>
        <time>2022-07-16T17:09:13Z</time>
      </trkpt>
      <trkpt lat="45.71915" lon="6.71495">
        <ele>2515</ele>
        <time>2022-07-16T17:09:15Z</time>
      </trkpt>
      <trkpt lat="45.71917" lon="6.71496">
        <ele>2515</ele>
        <time>2022-07-16T17:09:17Z</time>
      </trkpt>
      <trkpt lat="45.7192" lon="6.71497">
        <ele>2514</ele>
        <time>2022-07-16T17:09:19Z</time>
      </trkpt>
      <trkpt lat="45.71923" lon="6.71498">
        <ele>2514</ele>
        <time>2022-07-16T17:09:21Z</time>
      </trkpt>
      <trkpt lat="45.71926" lon="6.71498">
        <ele>2514</ele>
        <time>2022-07-16T17:09:23Z</time>
      </trkpt>
      <trkpt lat="45.71929" lon="6.71498">
        <ele>2513</ele>
        <time>2022-07-16T17:09:25Z</time>
      </trkpt>
      <trkpt lat="45.71933" lon="6.71498">
        <ele>2511</ele>
        <time>2022-07-16T17:09:27Z</time>
      </trkpt>
      <trkpt lat="45.71936" lon="6.71498">
        <ele>2510</ele>
        <time>2022-07-16T17:09:29Z</time>
      </trkpt>
      <trkpt lat="45.71939" lon="6.71498">
        <ele>2510</ele>
        <time>2022-07-16T17:09:30Z</time>
      </trkpt>
      <trkpt lat="45.7194" lon="6.71498">
        <ele>2510</ele>
        <time>2022-07-16T17:09:31Z</time>
      </trkpt>
      <trkpt lat="45.71942" lon="6.71498">
        <ele>2510</ele>
        <time>2022-07-16T17:09:32Z</time>
      </trkpt>
      <trkpt lat="45.71946" lon="6.71498">
        <ele>2508</ele>
        <time>2022-07-16T17:09:34Z</time>
      </trkpt>
      <trkpt lat="45.71948" lon="6.71497">
        <ele>2508</ele>
        <time>2022-07-16T17:09:35Z</time>
      </trkpt>
      <trkpt lat="45.7195" lon="6.71497">
        <ele>2507</ele>
        <time>2022-07-16T17:09:36Z</time>
      </trkpt>
      <trkpt lat="45.71951" lon="6.71496">
        <ele>2506</ele>
        <time>2022-07-16T17:09:37Z</time>
      </trkpt>
      <trkpt lat="45.71953" lon="6.71495">
        <ele>2506</ele>
        <time>2022-07-16T17:09:38Z</time>
      </trkpt>
      <trkpt lat="45.71955" lon="6.71494">
        <ele>2506</ele>
        <time>2022-07-16T17:09:39Z</time>
      </trkpt>
      <trkpt lat="45.71956" lon="6.71493">
        <ele>2506</ele>
        <time>2022-07-16T17:09:40Z</time>
      </trkpt>
      <trkpt lat="45.71958" lon="6.71491">
        <ele>2505</ele>
        <time>2022-07-16T17:09:41Z</time>
      </trkpt>
      <trkpt lat="45.7196" lon="6.7149">
        <ele>2505</ele>
        <time>2022-07-16T17:09:42Z</time>
      </trkpt>
      <trkpt lat="45.71962" lon="6.71488">
        <ele>2505</ele>
        <time>2022-07-16T17:09:43Z</time>
      </trkpt>
      <trkpt lat="45.71963" lon="6.71487">
        <ele>2505</ele>
        <time>2022-07-16T17:09:44Z</time>
      </trkpt>
      <trkpt lat="45.71965" lon="6.71487">
        <ele>2505</ele>
        <time>2022-07-16T17:09:45Z</time>
      </trkpt>
      <trkpt lat="45.71968" lon="6.71485">
        <ele>2504</ele>
        <time>2022-07-16T17:09:47Z</time>
      </trkpt>
      <trkpt lat="45.71971" lon="6.71483">
        <ele>2503</ele>
        <time>2022-07-16T17:09:49Z</time>
      </trkpt>
      <trkpt lat="45.71974" lon="6.71482">
        <ele>2503</ele>
        <time>2022-07-16T17:09:51Z</time>
      </trkpt>
      <trkpt lat="45.71976" lon="6.7148">
        <ele>2503</ele>
        <time>2022-07-16T17:09:53Z</time>
      </trkpt>
      <trkpt lat="45.71978" lon="6.71477">
        <ele>2502</ele>
        <time>2022-07-16T17:09:55Z</time>
      </trkpt>
      <trkpt lat="45.71981" lon="6.71475">
        <ele>2502</ele>
        <time>2022-07-16T17:09:57Z</time>
      </trkpt>
      <trkpt lat="45.71983" lon="6.71473">
        <ele>2502</ele>
        <time>2022-07-16T17:09:59Z</time>
      </trkpt>
      <trkpt lat="45.71986" lon="6.71472">
        <ele>2501</ele>
        <time>2022-07-16T17:10:02Z</time>
      </trkpt>
      <trkpt lat="45.71988" lon="6.71471">
        <ele>2501</ele>
        <time>2022-07-16T17:10:03Z</time>
      </trkpt>
      <trkpt lat="45.71991" lon="6.71469">
        <ele>2502</ele>
        <time>2022-07-16T17:10:05Z</time>
      </trkpt>
      <trkpt lat="45.71993" lon="6.71467">
        <ele>2503</ele>
        <time>2022-07-16T17:10:07Z</time>
      </trkpt>
      <trkpt lat="45.71995" lon="6.71466">
        <ele>2502</ele>
        <time>2022-07-16T17:10:09Z</time>
      </trkpt>
      <trkpt lat="45.71997" lon="6.71464">
        <ele>2502</ele>
        <time>2022-07-16T17:10:11Z</time>
      </trkpt>
      <trkpt lat="45.71999" lon="6.71463">
        <ele>2502</ele>
        <time>2022-07-16T17:10:13Z</time>
      </trkpt>
      <trkpt lat="45.72002" lon="6.71462">
        <ele>2503</ele>
        <time>2022-07-16T17:10:15Z</time>
      </trkpt>
      <trkpt lat="45.72004" lon="6.71461">
        <ele>2503</ele>
        <time>2022-07-16T17:10:17Z</time>
      </trkpt>
      <trkpt lat="45.72007" lon="6.71459">
        <ele>2503</ele>
        <time>2022-07-16T17:10:19Z</time>
      </trkpt>
      <trkpt lat="45.72009" lon="6.71458">
        <ele>2503</ele>
        <time>2022-07-16T17:10:21Z</time>
      </trkpt>
      <trkpt lat="45.72011" lon="6.71457">
        <ele>2503</ele>
        <time>2022-07-16T17:10:23Z</time>
      </trkpt>
      <trkpt lat="45.72014" lon="6.71456">
        <ele>2503</ele>
        <time>2022-07-16T17:10:25Z</time>
      </trkpt>
      <trkpt lat="45.72016" lon="6.71455">
        <ele>2503</ele>
        <time>2022-07-16T17:10:27Z</time>
      </trkpt>
      <trkpt lat="45.72018" lon="6.71454">
        <ele>2503</ele>
        <time>2022-07-16T17:10:29Z</time>
      </trkpt>
      <trkpt lat="45.7202" lon="6.71453">
        <ele>2503</ele>
        <time>2022-07-16T17:10:31Z</time>
      </trkpt>
      <trkpt lat="45.72022" lon="6.71453">
        <ele>2503</ele>
        <time>2022-07-16T17:10:33Z</time>
      </trkpt>
      <trkpt lat="45.72024" lon="6.71452">
        <ele>2503</ele>
        <time>2022-07-16T17:10:35Z</time>
      </trkpt>
      <trkpt lat="45.72026" lon="6.71452">
        <ele>2504</ele>
        <time>2022-07-16T17:10:37Z</time>
      </trkpt>
      <trkpt lat="45.72028" lon="6.71451">
        <ele>2504</ele>
        <time>2022-07-16T17:10:39Z</time>
      </trkpt>
      <trkpt lat="45.72031" lon="6.71451">
        <ele>2504</ele>
        <time>2022-07-16T17:10:41Z</time>
      </trkpt>
      <trkpt lat="45.72033" lon="6.7145">
        <ele>2505</ele>
        <time>2022-07-16T17:10:43Z</time>
      </trkpt>
      <trkpt lat="45.72035" lon="6.7145">
        <ele>2504</ele>
        <time>2022-07-16T17:10:45Z</time>
      </trkpt>
      <trkpt lat="45.72037" lon="6.7145">
        <ele>2504</ele>
        <time>2022-07-16T17:10:47Z</time>
      </trkpt>
      <trkpt lat="45.72039" lon="6.71451">
        <ele>2504</ele>
        <time>2022-07-16T17:10:49Z</time>
      </trkpt>
      <trkpt lat="45.72041" lon="6.71452">
        <ele>2504</ele>
        <time>2022-07-16T17:10:51Z</time>
      </trkpt>
      <trkpt lat="45.72043" lon="6.71454">
        <ele>2505</ele>
        <time>2022-07-16T17:10:53Z</time>
      </trkpt>
      <trkpt lat="45.72045" lon="6.71454">
        <ele>2505</ele>
        <time>2022-07-16T17:10:56Z</time>
      </trkpt>
      <trkpt lat="45.72048" lon="6.71454">
        <ele>2506</ele>
        <time>2022-07-16T17:10:59Z</time>
      </trkpt>
      <trkpt lat="45.72049" lon="6.71455">
        <ele>2508</ele>
        <time>2022-07-16T17:11:02Z</time>
      </trkpt>
      <trkpt lat="45.72052" lon="6.71454">
        <ele>2508</ele>
        <time>2022-07-16T17:11:05Z</time>
      </trkpt>
      <trkpt lat="45.72054" lon="6.71453">
        <ele>2507</ele>
        <time>2022-07-16T17:11:08Z</time>
      </trkpt>
      <trkpt lat="45.72057" lon="6.71453">
        <ele>2508</ele>
        <time>2022-07-16T17:11:11Z</time>
      </trkpt>
      <trkpt lat="45.72059" lon="6.71454">
        <ele>2508</ele>
        <time>2022-07-16T17:11:14Z</time>
      </trkpt>
      <trkpt lat="45.7206" lon="6.71457">
        <ele>2510</ele>
        <time>2022-07-16T17:11:17Z</time>
      </trkpt>
      <trkpt lat="45.72061" lon="6.7146">
        <ele>2510</ele>
        <time>2022-07-16T17:11:20Z</time>
      </trkpt>
      <trkpt lat="45.72062" lon="6.71464">
        <ele>2510</ele>
        <time>2022-07-16T17:11:23Z</time>
      </trkpt>
      <trkpt lat="45.72063" lon="6.71467">
        <ele>2510</ele>
        <time>2022-07-16T17:11:25Z</time>
      </trkpt>
      <trkpt lat="45.72064" lon="6.71469">
        <ele>2510</ele>
        <time>2022-07-16T17:11:27Z</time>
      </trkpt>
      <trkpt lat="45.72066" lon="6.71471">
        <ele>2510</ele>
        <time>2022-07-16T17:11:29Z</time>
      </trkpt>
      <trkpt lat="45.72067" lon="6.71473">
        <ele>2510</ele>
        <time>2022-07-16T17:11:31Z</time>
      </trkpt>
      <trkpt lat="45.72069" lon="6.71475">
        <ele>2510</ele>
        <time>2022-07-16T17:11:33Z</time>
      </trkpt>
      <trkpt lat="45.72071" lon="6.71478">
        <ele>2510</ele>
        <time>2022-07-16T17:11:35Z</time>
      </trkpt>
      <trkpt lat="45.72072" lon="6.7148">
        <ele>2510</ele>
        <time>2022-07-16T17:11:37Z</time>
      </trkpt>
      <trkpt lat="45.72074" lon="6.71482">
        <ele>2511</ele>
        <time>2022-07-16T17:11:39Z</time>
      </trkpt>
      <trkpt lat="45.72075" lon="6.71484">
        <ele>2511</ele>
        <time>2022-07-16T17:11:41Z</time>
      </trkpt>
      <trkpt lat="45.72077" lon="6.71486">
        <ele>2511</ele>
        <time>2022-07-16T17:11:43Z</time>
      </trkpt>
      <trkpt lat="45.72078" lon="6.71489">
        <ele>2511</ele>
        <time>2022-07-16T17:11:45Z</time>
      </trkpt>
      <trkpt lat="45.72079" lon="6.71492">
        <ele>2511</ele>
        <time>2022-07-16T17:11:47Z</time>
      </trkpt>
      <trkpt lat="45.7208" lon="6.71495">
        <ele>2511</ele>
        <time>2022-07-16T17:11:49Z</time>
      </trkpt>
      <trkpt lat="45.7208" lon="6.71499">
        <ele>2511</ele>
        <time>2022-07-16T17:11:52Z</time>
      </trkpt>
      <trkpt lat="45.72082" lon="6.71502">
        <ele>2512</ele>
        <time>2022-07-16T17:11:55Z</time>
      </trkpt>
      <trkpt lat="45.72083" lon="6.71505">
        <ele>2512</ele>
        <time>2022-07-16T17:11:58Z</time>
      </trkpt>
      <trkpt lat="45.72085" lon="6.71507">
        <ele>2513</ele>
        <time>2022-07-16T17:12:01Z</time>
      </trkpt>
      <trkpt lat="45.72087" lon="6.7151">
        <ele>2513</ele>
        <time>2022-07-16T17:12:04Z</time>
      </trkpt>
      <trkpt lat="45.72088" lon="6.71512">
        <ele>2513</ele>
        <time>2022-07-16T17:12:07Z</time>
      </trkpt>
      <trkpt lat="45.72089" lon="6.71514">
        <ele>2514</ele>
        <time>2022-07-16T17:12:09Z</time>
      </trkpt>
      <trkpt lat="45.7209" lon="6.71517">
        <ele>2514</ele>
        <time>2022-07-16T17:12:11Z</time>
      </trkpt>
      <trkpt lat="45.72092" lon="6.7152">
        <ele>2514</ele>
        <time>2022-07-16T17:12:14Z</time>
      </trkpt>
      <trkpt lat="45.72093" lon="6.71522">
        <ele>2514</ele>
        <time>2022-07-16T17:12:16Z</time>
      </trkpt>
      <trkpt lat="45.72095" lon="6.71524">
        <ele>2515</ele>
        <time>2022-07-16T17:12:18Z</time>
      </trkpt>
      <trkpt lat="45.72096" lon="6.71526">
        <ele>2515</ele>
        <time>2022-07-16T17:12:20Z</time>
      </trkpt>
      <trkpt lat="45.72098" lon="6.71527">
        <ele>2515</ele>
        <time>2022-07-16T17:12:22Z</time>
      </trkpt>
      <trkpt lat="45.72099" lon="6.71529">
        <ele>2515</ele>
        <time>2022-07-16T17:12:24Z</time>
      </trkpt>
      <trkpt lat="45.721" lon="6.71532">
        <ele>2516</ele>
        <time>2022-07-16T17:12:27Z</time>
      </trkpt>
      <trkpt lat="45.72102" lon="6.71534">
        <ele>2516</ele>
        <time>2022-07-16T17:12:29Z</time>
      </trkpt>
      <trkpt lat="45.72103" lon="6.71536">
        <ele>2517</ele>
        <time>2022-07-16T17:12:32Z</time>
      </trkpt>
      <trkpt lat="45.72104" lon="6.71538">
        <ele>2517</ele>
        <time>2022-07-16T17:12:34Z</time>
      </trkpt>
      <trkpt lat="45.72105" lon="6.71541">
        <ele>2517</ele>
        <time>2022-07-16T17:12:36Z</time>
      </trkpt>
      <trkpt lat="45.72107" lon="6.71544">
        <ele>2517</ele>
        <time>2022-07-16T17:12:39Z</time>
      </trkpt>
      <trkpt lat="45.72108" lon="6.71546">
        <ele>2517</ele>
        <time>2022-07-16T17:12:42Z</time>
      </trkpt>
      <trkpt lat="45.7211" lon="6.71549">
        <ele>2517</ele>
        <time>2022-07-16T17:12:45Z</time>
      </trkpt>
      <trkpt lat="45.72112" lon="6.7155">
        <ele>2518</ele>
        <time>2022-07-16T17:12:47Z</time>
      </trkpt>
      <trkpt lat="45.72114" lon="6.71552">
        <ele>2518</ele>
        <time>2022-07-16T17:12:49Z</time>
      </trkpt>
      <trkpt lat="45.72116" lon="6.71553">
        <ele>2518</ele>
        <time>2022-07-16T17:12:51Z</time>
      </trkpt>
      <trkpt lat="45.72119" lon="6.71555">
        <ele>2518</ele>
        <time>2022-07-16T17:12:53Z</time>
      </trkpt>
      <trkpt lat="45.72121" lon="6.71557">
        <ele>2518</ele>
        <time>2022-07-16T17:12:55Z</time>
      </trkpt>
      <trkpt lat="45.72123" lon="6.71558">
        <ele>2518</ele>
        <time>2022-07-16T17:12:57Z</time>
      </trkpt>
      <trkpt lat="45.72125" lon="6.7156">
        <ele>2518</ele>
        <time>2022-07-16T17:12:59Z</time>
      </trkpt>
      <trkpt lat="45.72128" lon="6.71561">
        <ele>2518</ele>
        <time>2022-07-16T17:13:01Z</time>
      </trkpt>
      <trkpt lat="45.7213" lon="6.71563">
        <ele>2519</ele>
        <time>2022-07-16T17:13:03Z</time>
      </trkpt>
      <trkpt lat="45.72132" lon="6.71564">
        <ele>2519</ele>
        <time>2022-07-16T17:13:05Z</time>
      </trkpt>
      <trkpt lat="45.72134" lon="6.71565">
        <ele>2519</ele>
        <time>2022-07-16T17:13:07Z</time>
      </trkpt>
      <trkpt lat="45.72136" lon="6.71567">
        <ele>2519</ele>
        <time>2022-07-16T17:13:09Z</time>
      </trkpt>
      <trkpt lat="45.72138" lon="6.71568">
        <ele>2519</ele>
        <time>2022-07-16T17:13:11Z</time>
      </trkpt>
      <trkpt lat="45.72141" lon="6.71569">
        <ele>2519</ele>
        <time>2022-07-16T17:13:13Z</time>
      </trkpt>
      <trkpt lat="45.72143" lon="6.7157">
        <ele>2519</ele>
        <time>2022-07-16T17:13:15Z</time>
      </trkpt>
      <trkpt lat="45.72146" lon="6.71571">
        <ele>2519</ele>
        <time>2022-07-16T17:13:17Z</time>
      </trkpt>
      <trkpt lat="45.72148" lon="6.71572">
        <ele>2519</ele>
        <time>2022-07-16T17:13:19Z</time>
      </trkpt>
      <trkpt lat="45.7215" lon="6.71573">
        <ele>2519</ele>
        <time>2022-07-16T17:13:21Z</time>
      </trkpt>
      <trkpt lat="45.72153" lon="6.71574">
        <ele>2519</ele>
        <time>2022-07-16T17:13:23Z</time>
      </trkpt>
      <trkpt lat="45.72155" lon="6.71574">
        <ele>2519</ele>
        <time>2022-07-16T17:13:25Z</time>
      </trkpt>
      <trkpt lat="45.72157" lon="6.71575">
        <ele>2519</ele>
        <time>2022-07-16T17:13:27Z</time>
      </trkpt>
      <trkpt lat="45.72159" lon="6.71577">
        <ele>2519</ele>
        <time>2022-07-16T17:13:29Z</time>
      </trkpt>
      <trkpt lat="45.72161" lon="6.71578">
        <ele>2519</ele>
        <time>2022-07-16T17:13:31Z</time>
      </trkpt>
      <trkpt lat="45.72162" lon="6.7158">
        <ele>2519</ele>
        <time>2022-07-16T17:13:33Z</time>
      </trkpt>
      <trkpt lat="45.72164" lon="6.71581">
        <ele>2520</ele>
        <time>2022-07-16T17:13:35Z</time>
      </trkpt>
      <trkpt lat="45.72166" lon="6.71583">
        <ele>2520</ele>
        <time>2022-07-16T17:13:37Z</time>
      </trkpt>
      <trkpt lat="45.72168" lon="6.71584">
        <ele>2520</ele>
        <time>2022-07-16T17:13:39Z</time>
      </trkpt>
      <trkpt lat="45.7217" lon="6.71585">
        <ele>2520</ele>
        <time>2022-07-16T17:13:42Z</time>
      </trkpt>
      <trkpt lat="45.72172" lon="6.71586">
        <ele>2522</ele>
        <time>2022-07-16T17:13:44Z</time>
      </trkpt>
      <trkpt lat="45.72174" lon="6.71586">
        <ele>2522</ele>
        <time>2022-07-16T17:13:46Z</time>
      </trkpt>
      <trkpt lat="45.72176" lon="6.71587">
        <ele>2522</ele>
        <time>2022-07-16T17:13:48Z</time>
      </trkpt>
      <trkpt lat="45.72178" lon="6.71588">
        <ele>2522</ele>
        <time>2022-07-16T17:13:50Z</time>
      </trkpt>
      <trkpt lat="45.7218" lon="6.71589">
        <ele>2523</ele>
        <time>2022-07-16T17:13:52Z</time>
      </trkpt>
      <trkpt lat="45.72182" lon="6.7159">
        <ele>2524</ele>
        <time>2022-07-16T17:13:54Z</time>
      </trkpt>
      <trkpt lat="45.72184" lon="6.71592">
        <ele>2523</ele>
        <time>2022-07-16T17:13:57Z</time>
      </trkpt>
      <trkpt lat="45.72186" lon="6.71594">
        <ele>2524</ele>
        <time>2022-07-16T17:14:00Z</time>
      </trkpt>
      <trkpt lat="45.72188" lon="6.71595">
        <ele>2524</ele>
        <time>2022-07-16T17:14:03Z</time>
      </trkpt>
      <trkpt lat="45.72189" lon="6.71597">
        <ele>2524</ele>
        <time>2022-07-16T17:14:05Z</time>
      </trkpt>
      <trkpt lat="45.72191" lon="6.71598">
        <ele>2524</ele>
        <time>2022-07-16T17:14:07Z</time>
      </trkpt>
      <trkpt lat="45.72193" lon="6.71599">
        <ele>2524</ele>
        <time>2022-07-16T17:14:09Z</time>
      </trkpt>
      <trkpt lat="45.72195" lon="6.71601">
        <ele>2525</ele>
        <time>2022-07-16T17:14:11Z</time>
      </trkpt>
      <trkpt lat="45.72196" lon="6.71604">
        <ele>2525</ele>
        <time>2022-07-16T17:14:13Z</time>
      </trkpt>
      <trkpt lat="45.72198" lon="6.71605">
        <ele>2524</ele>
        <time>2022-07-16T17:14:15Z</time>
      </trkpt>
      <trkpt lat="45.72199" lon="6.71607">
        <ele>2524</ele>
        <time>2022-07-16T17:14:17Z</time>
      </trkpt>
      <trkpt lat="45.72201" lon="6.71609">
        <ele>2524</ele>
        <time>2022-07-16T17:14:19Z</time>
      </trkpt>
      <trkpt lat="45.72203" lon="6.7161">
        <ele>2525</ele>
        <time>2022-07-16T17:14:21Z</time>
      </trkpt>
      <trkpt lat="45.72204" lon="6.71612">
        <ele>2525</ele>
        <time>2022-07-16T17:14:23Z</time>
      </trkpt>
      <trkpt lat="45.72205" lon="6.71615">
        <ele>2525</ele>
        <time>2022-07-16T17:14:25Z</time>
      </trkpt>
      <trkpt lat="45.72205" lon="6.71619">
        <ele>2525</ele>
        <time>2022-07-16T17:14:28Z</time>
      </trkpt>
      <trkpt lat="45.72206" lon="6.71621">
        <ele>2525</ele>
        <time>2022-07-16T17:14:31Z</time>
      </trkpt>
      <trkpt lat="45.72208" lon="6.71623">
        <ele>2526</ele>
        <time>2022-07-16T17:14:34Z</time>
      </trkpt>
      <trkpt lat="45.72209" lon="6.71626">
        <ele>2526</ele>
        <time>2022-07-16T17:14:37Z</time>
      </trkpt>
      <trkpt lat="45.7221" lon="6.71629">
        <ele>2527</ele>
        <time>2022-07-16T17:14:40Z</time>
      </trkpt>
      <trkpt lat="45.72211" lon="6.71633">
        <ele>2527</ele>
        <time>2022-07-16T17:14:43Z</time>
      </trkpt>
      <trkpt lat="45.72211" lon="6.71636">
        <ele>2527</ele>
        <time>2022-07-16T17:14:46Z</time>
      </trkpt>
      <trkpt lat="45.72212" lon="6.7164">
        <ele>2528</ele>
        <time>2022-07-16T17:14:49Z</time>
      </trkpt>
      <trkpt lat="45.72213" lon="6.71644">
        <ele>2528</ele>
        <time>2022-07-16T17:14:52Z</time>
      </trkpt>
      <trkpt lat="45.72213" lon="6.71646">
        <ele>2529</ele>
        <time>2022-07-16T17:14:54Z</time>
      </trkpt>
      <trkpt lat="45.72214" lon="6.71649">
        <ele>2529</ele>
        <time>2022-07-16T17:14:56Z</time>
      </trkpt>
      <trkpt lat="45.72214" lon="6.71652">
        <ele>2529</ele>
        <time>2022-07-16T17:14:59Z</time>
      </trkpt>
      <trkpt lat="45.72214" lon="6.71656">
        <ele>2530</ele>
        <time>2022-07-16T17:15:02Z</time>
      </trkpt>
      <trkpt lat="45.72214" lon="6.7166">
        <ele>2531</ele>
        <time>2022-07-16T17:15:05Z</time>
      </trkpt>
      <trkpt lat="45.72214" lon="6.71664">
        <ele>2531</ele>
        <time>2022-07-16T17:15:08Z</time>
      </trkpt>
      <trkpt lat="45.72214" lon="6.71667">
        <ele>2531</ele>
        <time>2022-07-16T17:15:11Z</time>
      </trkpt>
      <trkpt lat="45.72214" lon="6.71671">
        <ele>2531</ele>
        <time>2022-07-16T17:15:14Z</time>
      </trkpt>
      <trkpt lat="45.72213" lon="6.71673">
        <ele>2531</ele>
        <time>2022-07-16T17:15:16Z</time>
      </trkpt>
      <trkpt lat="45.72213" lon="6.71676">
        <ele>2532</ele>
        <time>2022-07-16T17:15:18Z</time>
      </trkpt>
      <trkpt lat="45.72212" lon="6.7168">
        <ele>2533</ele>
        <time>2022-07-16T17:15:21Z</time>
      </trkpt>
      <trkpt lat="45.72212" lon="6.71683">
        <ele>2533</ele>
        <time>2022-07-16T17:15:24Z</time>
      </trkpt>
      <trkpt lat="45.72211" lon="6.71686">
        <ele>2533</ele>
        <time>2022-07-16T17:15:27Z</time>
      </trkpt>
      <trkpt lat="45.72211" lon="6.71689">
        <ele>2535</ele>
        <time>2022-07-16T17:15:30Z</time>
      </trkpt>
      <trkpt lat="45.7221" lon="6.71692">
        <ele>2535</ele>
        <time>2022-07-16T17:15:33Z</time>
      </trkpt>
      <trkpt lat="45.7221" lon="6.71695">
        <ele>2535</ele>
        <time>2022-07-16T17:15:37Z</time>
      </trkpt>
      <trkpt lat="45.7221" lon="6.71698">
        <ele>2535</ele>
        <time>2022-07-16T17:15:40Z</time>
      </trkpt>
      <trkpt lat="45.7221" lon="6.71701">
        <ele>2536</ele>
        <time>2022-07-16T17:15:43Z</time>
      </trkpt>
      <trkpt lat="45.72211" lon="6.71704">
        <ele>2536</ele>
        <time>2022-07-16T17:15:46Z</time>
      </trkpt>
      <trkpt lat="45.72212" lon="6.71707">
        <ele>2536</ele>
        <time>2022-07-16T17:15:49Z</time>
      </trkpt>
      <trkpt lat="45.72212" lon="6.7171">
        <ele>2536</ele>
        <time>2022-07-16T17:15:52Z</time>
      </trkpt>
      <trkpt lat="45.72213" lon="6.71713">
        <ele>2536</ele>
        <time>2022-07-16T17:15:55Z</time>
      </trkpt>
      <trkpt lat="45.72213" lon="6.71716">
        <ele>2536</ele>
        <time>2022-07-16T17:15:58Z</time>
      </trkpt>
      <trkpt lat="45.72214" lon="6.71719">
        <ele>2536</ele>
        <time>2022-07-16T17:16:01Z</time>
      </trkpt>
      <trkpt lat="45.72214" lon="6.71722">
        <ele>2537</ele>
        <time>2022-07-16T17:16:04Z</time>
      </trkpt>
      <trkpt lat="45.72214" lon="6.71724">
        <ele>2537</ele>
        <time>2022-07-16T17:16:08Z</time>
      </trkpt>
      <trkpt lat="45.72215" lon="6.71722">
        <ele>2536</ele>
        <time>2022-07-16T17:16:20Z</time>
      </trkpt>
      <trkpt lat="45.72215" lon="6.71722">
        <ele>2537</ele>
        <time>2022-07-16T17:16:22Z</time>
      </trkpt>
      <trkpt lat="45.72217" lon="6.7172">
        <ele>2537</ele>
        <time>2022-07-16T17:16:23Z</time>
      </trkpt>
      <trkpt lat="45.72219" lon="6.71719">
        <ele>2537</ele>
        <time>2022-07-16T17:16:25Z</time>
      </trkpt>
      <trkpt lat="45.72221" lon="6.7172">
        <ele>2537</ele>
        <time>2022-07-16T17:16:28Z</time>
      </trkpt>
      <trkpt lat="45.72224" lon="6.71721">
        <ele>2537</ele>
        <time>2022-07-16T17:16:31Z</time>
      </trkpt>
      <trkpt lat="45.72226" lon="6.71722">
        <ele>2538</ele>
        <time>2022-07-16T17:16:34Z</time>
      </trkpt>
      <trkpt lat="45.72228" lon="6.71722">
        <ele>2538</ele>
        <time>2022-07-16T17:16:37Z</time>
      </trkpt>
      <trkpt lat="45.7223" lon="6.71722">
        <ele>2538</ele>
        <time>2022-07-16T17:16:41Z</time>
      </trkpt>
      <trkpt lat="45.72232" lon="6.71723">
        <ele>2539</ele>
        <time>2022-07-16T17:16:45Z</time>
      </trkpt>
      <trkpt lat="45.72232" lon="6.71723">
        <ele>2541</ele>
        <time>2022-07-16T17:16:58Z</time>
      </trkpt>
      <trkpt lat="45.72232" lon="6.71723">
        <ele>2541</ele>
        <time>2022-07-16T17:17:14Z</time>
      </trkpt>
      <trkpt lat="45.72234" lon="6.71723">
        <ele>2541</ele>
        <time>2022-07-16T17:17:17Z</time>
      </trkpt>
      <trkpt lat="45.72236" lon="6.71723">
        <ele>2541</ele>
        <time>2022-07-16T17:17:20Z</time>
      </trkpt>
      <trkpt lat="45.72238" lon="6.71723">
        <ele>2543</ele>
        <time>2022-07-16T17:17:23Z</time>
      </trkpt>
      <trkpt lat="45.7224" lon="6.71723">
        <ele>2543</ele>
        <time>2022-07-16T17:17:26Z</time>
      </trkpt>
      <trkpt lat="45.72242" lon="6.71722">
        <ele>2544</ele>
        <time>2022-07-16T17:17:29Z</time>
      </trkpt>
      <trkpt lat="45.72245" lon="6.71722">
        <ele>2544</ele>
        <time>2022-07-16T17:17:32Z</time>
      </trkpt>
      <trkpt lat="45.72247" lon="6.71721">
        <ele>2545</ele>
        <time>2022-07-16T17:17:35Z</time>
      </trkpt>
      <trkpt lat="45.7225" lon="6.71721">
        <ele>2545</ele>
        <time>2022-07-16T17:17:38Z</time>
      </trkpt>
      <trkpt lat="45.72252" lon="6.71721">
        <ele>2545</ele>
        <time>2022-07-16T17:17:41Z</time>
      </trkpt>
      <trkpt lat="45.72255" lon="6.71721">
        <ele>2545</ele>
        <time>2022-07-16T17:17:44Z</time>
      </trkpt>
      <trkpt lat="45.72257" lon="6.71722">
        <ele>2547</ele>
        <time>2022-07-16T17:17:47Z</time>
      </trkpt>
      <trkpt lat="45.7226" lon="6.71721">
        <ele>2547</ele>
        <time>2022-07-16T17:17:50Z</time>
      </trkpt>
      <trkpt lat="45.72263" lon="6.71721">
        <ele>2547</ele>
        <time>2022-07-16T17:17:53Z</time>
      </trkpt>
      <trkpt lat="45.72265" lon="6.71721">
        <ele>2547</ele>
        <time>2022-07-16T17:17:56Z</time>
      </trkpt>
      <trkpt lat="45.72267" lon="6.71721">
        <ele>2547</ele>
        <time>2022-07-16T17:17:59Z</time>
      </trkpt>
      <trkpt lat="45.72269" lon="6.71722">
        <ele>2548</ele>
        <time>2022-07-16T17:18:02Z</time>
      </trkpt>
      <trkpt lat="45.72271" lon="6.71721">
        <ele>2548</ele>
        <time>2022-07-16T17:18:05Z</time>
      </trkpt>
      <trkpt lat="45.72274" lon="6.7172">
        <ele>2549</ele>
        <time>2022-07-16T17:18:08Z</time>
      </trkpt>
      <trkpt lat="45.72276" lon="6.7172">
        <ele>2550</ele>
        <time>2022-07-16T17:18:11Z</time>
      </trkpt>
      <trkpt lat="45.72278" lon="6.71719">
        <ele>2550</ele>
        <time>2022-07-16T17:18:14Z</time>
      </trkpt>
      <trkpt lat="45.7228" lon="6.71719">
        <ele>2552</ele>
        <time>2022-07-16T17:18:18Z</time>
      </trkpt>
      <trkpt lat="45.72282" lon="6.71718">
        <ele>2552</ele>
        <time>2022-07-16T17:18:22Z</time>
      </trkpt>
      <trkpt lat="45.72284" lon="6.71718">
        <ele>2553</ele>
        <time>2022-07-16T17:18:26Z</time>
      </trkpt>
      <trkpt lat="45.72286" lon="6.71718">
        <ele>2554</ele>
        <time>2022-07-16T17:18:30Z</time>
      </trkpt>
      <trkpt lat="45.72288" lon="6.71718">
        <ele>2554</ele>
        <time>2022-07-16T17:18:35Z</time>
      </trkpt>
      <trkpt lat="45.7229" lon="6.71717">
        <ele>2553</ele>
        <time>2022-07-16T17:18:37Z</time>
      </trkpt>
      <trkpt lat="45.72292" lon="6.71716">
        <ele>2554</ele>
        <time>2022-07-16T17:18:39Z</time>
      </trkpt>
      <trkpt lat="45.72294" lon="6.71715">
        <ele>2554</ele>
        <time>2022-07-16T17:18:41Z</time>
      </trkpt>
      <trkpt lat="45.72296" lon="6.71714">
        <ele>2555</ele>
        <time>2022-07-16T17:18:44Z</time>
      </trkpt>
      <trkpt lat="45.72299" lon="6.71712">
        <ele>2555</ele>
        <time>2022-07-16T17:18:47Z</time>
      </trkpt>
      <trkpt lat="45.72301" lon="6.71712">
        <ele>2555</ele>
        <time>2022-07-16T17:18:49Z</time>
      </trkpt>
      <trkpt lat="45.72303" lon="6.71712">
        <ele>2555</ele>
        <time>2022-07-16T17:18:52Z</time>
      </trkpt>
      <trkpt lat="45.72305" lon="6.71712">
        <ele>2555</ele>
        <time>2022-07-16T17:18:55Z</time>
      </trkpt>
      <trkpt lat="45.72308" lon="6.71713">
        <ele>2555</ele>
        <time>2022-07-16T17:18:58Z</time>
      </trkpt>
      <trkpt lat="45.7231" lon="6.71714">
        <ele>2556</ele>
        <time>2022-07-16T17:19:01Z</time>
      </trkpt>
      <trkpt lat="45.72312" lon="6.71715">
        <ele>2557</ele>
        <time>2022-07-16T17:19:04Z</time>
      </trkpt>
      <trkpt lat="45.72315" lon="6.71716">
        <ele>2557</ele>
        <time>2022-07-16T17:19:07Z</time>
      </trkpt>
      <trkpt lat="45.72316" lon="6.71716">
        <ele>2559</ele>
        <time>2022-07-16T17:19:09Z</time>
      </trkpt>
      <trkpt lat="45.72319" lon="6.71716">
        <ele>2557</ele>
        <time>2022-07-16T17:19:13Z</time>
      </trkpt>
      <trkpt lat="45.72321" lon="6.71716">
        <ele>2559</ele>
        <time>2022-07-16T17:19:14Z</time>
      </trkpt>
      <trkpt lat="45.72323" lon="6.71716">
        <ele>2559</ele>
        <time>2022-07-16T17:19:17Z</time>
      </trkpt>
      <trkpt lat="45.72325" lon="6.71715">
        <ele>2560</ele>
        <time>2022-07-16T17:19:20Z</time>
      </trkpt>
      <trkpt lat="45.72328" lon="6.71714">
        <ele>2560</ele>
        <time>2022-07-16T17:19:23Z</time>
      </trkpt>
      <trkpt lat="45.7233" lon="6.71713">
        <ele>2561</ele>
        <time>2022-07-16T17:19:26Z</time>
      </trkpt>
      <trkpt lat="45.72332" lon="6.71712">
        <ele>2562</ele>
        <time>2022-07-16T17:19:29Z</time>
      </trkpt>
      <trkpt lat="45.72335" lon="6.71711">
        <ele>2562</ele>
        <time>2022-07-16T17:19:32Z</time>
      </trkpt>
      <trkpt lat="45.72337" lon="6.71711">
        <ele>2562</ele>
        <time>2022-07-16T17:19:35Z</time>
      </trkpt>
      <trkpt lat="45.72339" lon="6.7171">
        <ele>2562</ele>
        <time>2022-07-16T17:19:38Z</time>
      </trkpt>
      <trkpt lat="45.72342" lon="6.71709">
        <ele>2563</ele>
        <time>2022-07-16T17:19:41Z</time>
      </trkpt>
      <trkpt lat="45.72344" lon="6.71709">
        <ele>2563</ele>
        <time>2022-07-16T17:19:43Z</time>
      </trkpt>
      <trkpt lat="45.72346" lon="6.71709">
        <ele>2563</ele>
        <time>2022-07-16T17:19:45Z</time>
      </trkpt>
      <trkpt lat="45.72348" lon="6.71708">
        <ele>2563</ele>
        <time>2022-07-16T17:19:47Z</time>
      </trkpt>
      <trkpt lat="45.7235" lon="6.71708">
        <ele>2563</ele>
        <time>2022-07-16T17:19:49Z</time>
      </trkpt>
      <trkpt lat="45.72352" lon="6.71708">
        <ele>2563</ele>
        <time>2022-07-16T17:19:51Z</time>
      </trkpt>
      <trkpt lat="45.72354" lon="6.71708">
        <ele>2563</ele>
        <time>2022-07-16T17:19:53Z</time>
      </trkpt>
      <trkpt lat="45.72356" lon="6.71708">
        <ele>2563</ele>
        <time>2022-07-16T17:19:55Z</time>
      </trkpt>
      <trkpt lat="45.72357" lon="6.71708">
        <ele>2564</ele>
        <time>2022-07-16T17:19:57Z</time>
      </trkpt>
      <trkpt lat="45.7236" lon="6.71709">
        <ele>2565</ele>
        <time>2022-07-16T17:20:00Z</time>
      </trkpt>
      <trkpt lat="45.72362" lon="6.71709">
        <ele>2565</ele>
        <time>2022-07-16T17:20:02Z</time>
      </trkpt>
      <trkpt lat="45.72364" lon="6.7171">
        <ele>2565</ele>
        <time>2022-07-16T17:20:04Z</time>
      </trkpt>
      <trkpt lat="45.72366" lon="6.7171">
        <ele>2564</ele>
        <time>2022-07-16T17:20:06Z</time>
      </trkpt>
      <trkpt lat="45.72368" lon="6.71711">
        <ele>2564</ele>
        <time>2022-07-16T17:20:08Z</time>
      </trkpt>
      <trkpt lat="45.7237" lon="6.71711">
        <ele>2564</ele>
        <time>2022-07-16T17:20:10Z</time>
      </trkpt>
      <trkpt lat="45.72373" lon="6.71711">
        <ele>2564</ele>
        <time>2022-07-16T17:20:13Z</time>
      </trkpt>
      <trkpt lat="45.72375" lon="6.71712">
        <ele>2565</ele>
        <time>2022-07-16T17:20:15Z</time>
      </trkpt>
      <trkpt lat="45.72376" lon="6.71713">
        <ele>2565</ele>
        <time>2022-07-16T17:20:17Z</time>
      </trkpt>
      <trkpt lat="45.72379" lon="6.71715">
        <ele>2566</ele>
        <time>2022-07-16T17:20:20Z</time>
      </trkpt>
      <trkpt lat="45.72381" lon="6.71717">
        <ele>2566</ele>
        <time>2022-07-16T17:20:23Z</time>
      </trkpt>
      <trkpt lat="45.72383" lon="6.71719">
        <ele>2567</ele>
        <time>2022-07-16T17:20:25Z</time>
      </trkpt>
      <trkpt lat="45.72385" lon="6.7172">
        <ele>2567</ele>
        <time>2022-07-16T17:20:27Z</time>
      </trkpt>
      <trkpt lat="45.72387" lon="6.7172">
        <ele>2567</ele>
        <time>2022-07-16T17:20:29Z</time>
      </trkpt>
      <trkpt lat="45.72389" lon="6.7172">
        <ele>2567</ele>
        <time>2022-07-16T17:20:31Z</time>
      </trkpt>
      <trkpt lat="45.72392" lon="6.7172">
        <ele>2568</ele>
        <time>2022-07-16T17:20:34Z</time>
      </trkpt>
      <trkpt lat="45.72394" lon="6.71719">
        <ele>2568</ele>
        <time>2022-07-16T17:20:37Z</time>
      </trkpt>
      <trkpt lat="45.72396" lon="6.7172">
        <ele>2569</ele>
        <time>2022-07-16T17:20:40Z</time>
      </trkpt>
      <trkpt lat="45.72399" lon="6.71721">
        <ele>2569</ele>
        <time>2022-07-16T17:20:43Z</time>
      </trkpt>
      <trkpt lat="45.72401" lon="6.71721">
        <ele>2569</ele>
        <time>2022-07-16T17:20:46Z</time>
      </trkpt>
      <trkpt lat="45.72403" lon="6.7172">
        <ele>2571</ele>
        <time>2022-07-16T17:20:48Z</time>
      </trkpt>
      <trkpt lat="45.72405" lon="6.7172">
        <ele>2572</ele>
        <time>2022-07-16T17:20:51Z</time>
      </trkpt>
      <trkpt lat="45.72407" lon="6.7172">
        <ele>2572</ele>
        <time>2022-07-16T17:20:54Z</time>
      </trkpt>
      <trkpt lat="45.72409" lon="6.71718">
        <ele>2573</ele>
        <time>2022-07-16T17:20:57Z</time>
      </trkpt>
      <trkpt lat="45.7241" lon="6.71716">
        <ele>2573</ele>
        <time>2022-07-16T17:21:00Z</time>
      </trkpt>
      <trkpt lat="45.72412" lon="6.71714">
        <ele>2574</ele>
        <time>2022-07-16T17:21:03Z</time>
      </trkpt>
      <trkpt lat="45.72414" lon="6.71712">
        <ele>2574</ele>
        <time>2022-07-16T17:21:07Z</time>
      </trkpt>
      <trkpt lat="45.72416" lon="6.71711">
        <ele>2574</ele>
        <time>2022-07-16T17:21:09Z</time>
      </trkpt>
      <trkpt lat="45.72418" lon="6.71709">
        <ele>2575</ele>
        <time>2022-07-16T17:21:12Z</time>
      </trkpt>
      <trkpt lat="45.7242" lon="6.71707">
        <ele>2575</ele>
        <time>2022-07-16T17:21:15Z</time>
      </trkpt>
      <trkpt lat="45.72422" lon="6.71705">
        <ele>2575</ele>
        <time>2022-07-16T17:21:18Z</time>
      </trkpt>
      <trkpt lat="45.72423" lon="6.71703">
        <ele>2576</ele>
        <time>2022-07-16T17:21:21Z</time>
      </trkpt>
      <trkpt lat="45.72426" lon="6.71702">
        <ele>2577</ele>
        <time>2022-07-16T17:21:24Z</time>
      </trkpt>
      <trkpt lat="45.72428" lon="6.71701">
        <ele>2577</ele>
        <time>2022-07-16T17:21:27Z</time>
      </trkpt>
      <trkpt lat="45.7243" lon="6.717">
        <ele>2577</ele>
        <time>2022-07-16T17:21:30Z</time>
      </trkpt>
      <trkpt lat="45.72432" lon="6.71698">
        <ele>2577</ele>
        <time>2022-07-16T17:21:33Z</time>
      </trkpt>
      <trkpt lat="45.72434" lon="6.71696">
        <ele>2578</ele>
        <time>2022-07-16T17:21:36Z</time>
      </trkpt>
      <trkpt lat="45.72436" lon="6.71694">
        <ele>2579</ele>
        <time>2022-07-16T17:21:39Z</time>
      </trkpt>
      <trkpt lat="45.72438" lon="6.71693">
        <ele>2579</ele>
        <time>2022-07-16T17:21:42Z</time>
      </trkpt>
      <trkpt lat="45.72439" lon="6.71692">
        <ele>2579</ele>
        <time>2022-07-16T17:21:45Z</time>
      </trkpt>
      <trkpt lat="45.72441" lon="6.71691">
        <ele>2581</ele>
        <time>2022-07-16T17:21:48Z</time>
      </trkpt>
      <trkpt lat="45.72443" lon="6.7169">
        <ele>2583</ele>
        <time>2022-07-16T17:21:51Z</time>
      </trkpt>
      <trkpt lat="45.72445" lon="6.71688">
        <ele>2583</ele>
        <time>2022-07-16T17:21:55Z</time>
      </trkpt>
      <trkpt lat="45.72447" lon="6.71687">
        <ele>2584</ele>
        <time>2022-07-16T17:21:58Z</time>
      </trkpt>
      <trkpt lat="45.72448" lon="6.71685">
        <ele>2585</ele>
        <time>2022-07-16T17:22:02Z</time>
      </trkpt>
      <trkpt lat="45.7245" lon="6.71683">
        <ele>2585</ele>
        <time>2022-07-16T17:22:05Z</time>
      </trkpt>
      <trkpt lat="45.72452" lon="6.71682">
        <ele>2585</ele>
        <time>2022-07-16T17:22:08Z</time>
      </trkpt>
      <trkpt lat="45.72454" lon="6.71681">
        <ele>2586</ele>
        <time>2022-07-16T17:22:10Z</time>
      </trkpt>
      <trkpt lat="45.72456" lon="6.7168">
        <ele>2586</ele>
        <time>2022-07-16T17:22:12Z</time>
      </trkpt>
      <trkpt lat="45.72458" lon="6.7168">
        <ele>2585</ele>
        <time>2022-07-16T17:22:14Z</time>
      </trkpt>
      <trkpt lat="45.72461" lon="6.7168">
        <ele>2584</ele>
        <time>2022-07-16T17:22:16Z</time>
      </trkpt>
      <trkpt lat="45.72463" lon="6.71679">
        <ele>2584</ele>
        <time>2022-07-16T17:22:18Z</time>
      </trkpt>
      <trkpt lat="45.72465" lon="6.71678">
        <ele>2583</ele>
        <time>2022-07-16T17:22:20Z</time>
      </trkpt>
      <trkpt lat="45.72466" lon="6.71677">
        <ele>2583</ele>
        <time>2022-07-16T17:22:22Z</time>
      </trkpt>
      <trkpt lat="45.72469" lon="6.71675">
        <ele>2584</ele>
        <time>2022-07-16T17:22:24Z</time>
      </trkpt>
      <trkpt lat="45.72471" lon="6.71674">
        <ele>2583</ele>
        <time>2022-07-16T17:22:26Z</time>
      </trkpt>
      <trkpt lat="45.72473" lon="6.71672">
        <ele>2580</ele>
        <time>2022-07-16T17:22:28Z</time>
      </trkpt>
      <trkpt lat="45.72475" lon="6.7167">
        <ele>2581</ele>
        <time>2022-07-16T17:22:30Z</time>
      </trkpt>
      <trkpt lat="45.72478" lon="6.71669">
        <ele>2580</ele>
        <time>2022-07-16T17:22:32Z</time>
      </trkpt>
      <trkpt lat="45.7248" lon="6.71668">
        <ele>2580</ele>
        <time>2022-07-16T17:22:34Z</time>
      </trkpt>
      <trkpt lat="45.72482" lon="6.71667">
        <ele>2580</ele>
        <time>2022-07-16T17:22:36Z</time>
      </trkpt>
      <trkpt lat="45.72484" lon="6.71666">
        <ele>2579</ele>
        <time>2022-07-16T17:22:38Z</time>
      </trkpt>
      <trkpt lat="45.72487" lon="6.71665">
        <ele>2577</ele>
        <time>2022-07-16T17:22:40Z</time>
      </trkpt>
      <trkpt lat="45.72489" lon="6.71664">
        <ele>2577</ele>
        <time>2022-07-16T17:22:42Z</time>
      </trkpt>
      <trkpt lat="45.72492" lon="6.71664">
        <ele>2576</ele>
        <time>2022-07-16T17:22:44Z</time>
      </trkpt>
      <trkpt lat="45.72494" lon="6.71663">
        <ele>2576</ele>
        <time>2022-07-16T17:22:46Z</time>
      </trkpt>
      <trkpt lat="45.72497" lon="6.71663">
        <ele>2575</ele>
        <time>2022-07-16T17:22:48Z</time>
      </trkpt>
      <trkpt lat="45.72499" lon="6.71663">
        <ele>2575</ele>
        <time>2022-07-16T17:22:50Z</time>
      </trkpt>
      <trkpt lat="45.72502" lon="6.71661">
        <ele>2574</ele>
        <time>2022-07-16T17:22:52Z</time>
      </trkpt>
      <trkpt lat="45.72503" lon="6.71659">
        <ele>2574</ele>
        <time>2022-07-16T17:22:54Z</time>
      </trkpt>
      <trkpt lat="45.72505" lon="6.71655">
        <ele>2574</ele>
        <time>2022-07-16T17:22:56Z</time>
      </trkpt>
      <trkpt lat="45.72506" lon="6.71652">
        <ele>2573</ele>
        <time>2022-07-16T17:22:58Z</time>
      </trkpt>
      <trkpt lat="45.72509" lon="6.71646">
        <ele>2573</ele>
        <time>2022-07-16T17:23:01Z</time>
      </trkpt>
      <trkpt lat="45.7251" lon="6.71643">
        <ele>2572</ele>
        <time>2022-07-16T17:23:02Z</time>
      </trkpt>
      <trkpt lat="45.72512" lon="6.71641">
        <ele>2572</ele>
        <time>2022-07-16T17:23:03Z</time>
      </trkpt>
      <trkpt lat="45.72513" lon="6.71639">
        <ele>2572</ele>
        <time>2022-07-16T17:23:04Z</time>
      </trkpt>
      <trkpt lat="45.72514" lon="6.71636">
        <ele>2572</ele>
        <time>2022-07-16T17:23:05Z</time>
      </trkpt>
      <trkpt lat="45.72515" lon="6.71634">
        <ele>2572</ele>
        <time>2022-07-16T17:23:06Z</time>
      </trkpt>
      <trkpt lat="45.72516" lon="6.71631">
        <ele>2572</ele>
        <time>2022-07-16T17:23:07Z</time>
      </trkpt>
      <trkpt lat="45.72518" lon="6.71627">
        <ele>2569</ele>
        <time>2022-07-16T17:23:09Z</time>
      </trkpt>
      <trkpt lat="45.72519" lon="6.71625">
        <ele>2569</ele>
        <time>2022-07-16T17:23:10Z</time>
      </trkpt>
      <trkpt lat="45.7252" lon="6.71621">
        <ele>2569</ele>
        <time>2022-07-16T17:23:12Z</time>
      </trkpt>
      <trkpt lat="45.72521" lon="6.71617">
        <ele>2569</ele>
        <time>2022-07-16T17:23:14Z</time>
      </trkpt>
      <trkpt lat="45.72523" lon="6.71613">
        <ele>2569</ele>
        <time>2022-07-16T17:23:16Z</time>
      </trkpt>
      <trkpt lat="45.72525" lon="6.71609">
        <ele>2568</ele>
        <time>2022-07-16T17:23:18Z</time>
      </trkpt>
      <trkpt lat="45.72527" lon="6.71605">
        <ele>2568</ele>
        <time>2022-07-16T17:23:20Z</time>
      </trkpt>
      <trkpt lat="45.7253" lon="6.71603">
        <ele>2567</ele>
        <time>2022-07-16T17:23:22Z</time>
      </trkpt>
      <trkpt lat="45.72531" lon="6.71603">
        <ele>2567</ele>
        <time>2022-07-16T17:23:24Z</time>
      </trkpt>
      <trkpt lat="45.72534" lon="6.71603">
        <ele>2566</ele>
        <time>2022-07-16T17:23:26Z</time>
      </trkpt>
      <trkpt lat="45.72535" lon="6.71605">
        <ele>2565</ele>
        <time>2022-07-16T17:23:28Z</time>
      </trkpt>
      <trkpt lat="45.72537" lon="6.71606">
        <ele>2565</ele>
        <time>2022-07-16T17:23:30Z</time>
      </trkpt>
      <trkpt lat="45.72539" lon="6.71608">
        <ele>2565</ele>
        <time>2022-07-16T17:23:33Z</time>
      </trkpt>
      <trkpt lat="45.72541" lon="6.71611">
        <ele>2565</ele>
        <time>2022-07-16T17:23:36Z</time>
      </trkpt>
      <trkpt lat="45.72542" lon="6.71612">
        <ele>2564</ele>
        <time>2022-07-16T17:23:40Z</time>
      </trkpt>
      <trkpt lat="45.72543" lon="6.7161">
        <ele>2562</ele>
        <time>2022-07-16T17:23:47Z</time>
      </trkpt>
      <trkpt lat="45.72546" lon="6.7161">
        <ele>2561</ele>
        <time>2022-07-16T17:23:51Z</time>
      </trkpt>
      <trkpt lat="45.72547" lon="6.71609">
        <ele>2561</ele>
        <time>2022-07-16T17:23:55Z</time>
      </trkpt>
      <trkpt lat="45.72548" lon="6.71606">
        <ele>2560</ele>
        <time>2022-07-16T17:24:01Z</time>
      </trkpt>
      <trkpt lat="45.72547" lon="6.71603">
        <ele>2560</ele>
        <time>2022-07-16T17:24:05Z</time>
      </trkpt>
      <trkpt lat="45.72548" lon="6.716">
        <ele>2559</ele>
        <time>2022-07-16T17:24:09Z</time>
      </trkpt>
      <trkpt lat="45.72548" lon="6.71597">
        <ele>2559</ele>
        <time>2022-07-16T17:24:12Z</time>
      </trkpt>
      <trkpt lat="45.72548" lon="6.71594">
        <ele>2559</ele>
        <time>2022-07-16T17:24:15Z</time>
      </trkpt>
      <trkpt lat="45.72548" lon="6.71591">
        <ele>2557</ele>
        <time>2022-07-16T17:24:18Z</time>
      </trkpt>
      <trkpt lat="45.72548" lon="6.71588">
        <ele>2557</ele>
        <time>2022-07-16T17:24:21Z</time>
      </trkpt>
      <trkpt lat="45.72549" lon="6.71585">
        <ele>2557</ele>
        <time>2022-07-16T17:24:24Z</time>
      </trkpt>
      <trkpt lat="45.72549" lon="6.71583">
        <ele>2556</ele>
        <time>2022-07-16T17:24:27Z</time>
      </trkpt>
      <trkpt lat="45.72551" lon="6.7158">
        <ele>2556</ele>
        <time>2022-07-16T17:24:30Z</time>
      </trkpt>
      <trkpt lat="45.72552" lon="6.71579">
        <ele>2556</ele>
        <time>2022-07-16T17:24:33Z</time>
      </trkpt>
      <trkpt lat="45.72554" lon="6.71576">
        <ele>2556</ele>
        <time>2022-07-16T17:24:38Z</time>
      </trkpt>
      <trkpt lat="45.72552" lon="6.71574">
        <ele>2555</ele>
        <time>2022-07-16T17:24:46Z</time>
      </trkpt>
      <trkpt lat="45.72552" lon="6.71571">
        <ele>2554</ele>
        <time>2022-07-16T17:24:49Z</time>
      </trkpt>
      <trkpt lat="45.72552" lon="6.71567">
        <ele>2554</ele>
        <time>2022-07-16T17:24:52Z</time>
      </trkpt>
      <trkpt lat="45.72552" lon="6.71563">
        <ele>2553</ele>
        <time>2022-07-16T17:24:55Z</time>
      </trkpt>
      <trkpt lat="45.72552" lon="6.71561">
        <ele>2553</ele>
        <time>2022-07-16T17:24:56Z</time>
      </trkpt>
      <trkpt lat="45.72553" lon="6.71558">
        <ele>2553</ele>
        <time>2022-07-16T17:24:59Z</time>
      </trkpt>
      <trkpt lat="45.72552" lon="6.71555">
        <ele>2553</ele>
        <time>2022-07-16T17:25:02Z</time>
      </trkpt>
      <trkpt lat="45.72552" lon="6.71551">
        <ele>2552</ele>
        <time>2022-07-16T17:25:04Z</time>
      </trkpt>
      <trkpt lat="45.7255" lon="6.7155">
        <ele>2552</ele>
        <time>2022-07-16T17:25:08Z</time>
      </trkpt>
      <trkpt lat="45.72547" lon="6.71548">
        <ele>2551</ele>
        <time>2022-07-16T17:25:11Z</time>
      </trkpt>
      <trkpt lat="45.72546" lon="6.7155">
        <ele>2550</ele>
        <time>2022-07-16T17:25:17Z</time>
      </trkpt>
      <trkpt lat="45.72544" lon="6.71552">
        <ele>2549</ele>
        <time>2022-07-16T17:25:19Z</time>
      </trkpt>
      <trkpt lat="45.72543" lon="6.71549">
        <ele>2549</ele>
        <time>2022-07-16T17:25:21Z</time>
      </trkpt>
      <trkpt lat="45.72542" lon="6.71545">
        <ele>2549</ele>
        <time>2022-07-16T17:25:23Z</time>
      </trkpt>
      <trkpt lat="45.72542" lon="6.71542">
        <ele>2548</ele>
        <time>2022-07-16T17:25:25Z</time>
      </trkpt>
      <trkpt lat="45.72542" lon="6.71538">
        <ele>2548</ele>
        <time>2022-07-16T17:25:27Z</time>
      </trkpt>
      <trkpt lat="45.72543" lon="6.71535">
        <ele>2548</ele>
        <time>2022-07-16T17:25:29Z</time>
      </trkpt>
      <trkpt lat="45.72542" lon="6.71531">
        <ele>2548</ele>
        <time>2022-07-16T17:25:31Z</time>
      </trkpt>
      <trkpt lat="45.72541" lon="6.71528">
        <ele>2548</ele>
        <time>2022-07-16T17:25:33Z</time>
      </trkpt>
      <trkpt lat="45.7254" lon="6.71523">
        <ele>2547</ele>
        <time>2022-07-16T17:25:35Z</time>
      </trkpt>
      <trkpt lat="45.7254" lon="6.71519">
        <ele>2547</ele>
        <time>2022-07-16T17:25:37Z</time>
      </trkpt>
      <trkpt lat="45.72539" lon="6.71515">
        <ele>2545</ele>
        <time>2022-07-16T17:25:39Z</time>
      </trkpt>
      <trkpt lat="45.72538" lon="6.71511">
        <ele>2545</ele>
        <time>2022-07-16T17:25:41Z</time>
      </trkpt>
      <trkpt lat="45.72539" lon="6.71508">
        <ele>2544</ele>
        <time>2022-07-16T17:25:43Z</time>
      </trkpt>
      <trkpt lat="45.72538" lon="6.71505">
        <ele>2543</ele>
        <time>2022-07-16T17:25:45Z</time>
      </trkpt>
      <trkpt lat="45.72539" lon="6.715">
        <ele>2543</ele>
        <time>2022-07-16T17:25:47Z</time>
      </trkpt>
      <trkpt lat="45.72539" lon="6.71496">
        <ele>2542</ele>
        <time>2022-07-16T17:25:49Z</time>
      </trkpt>
      <trkpt lat="45.72538" lon="6.71492">
        <ele>2542</ele>
        <time>2022-07-16T17:25:51Z</time>
      </trkpt>
      <trkpt lat="45.72538" lon="6.71489">
        <ele>2542</ele>
        <time>2022-07-16T17:25:53Z</time>
      </trkpt>
      <trkpt lat="45.72538" lon="6.71484">
        <ele>2541</ele>
        <time>2022-07-16T17:25:55Z</time>
      </trkpt>
      <trkpt lat="45.72538" lon="6.71482">
        <ele>2541</ele>
        <time>2022-07-16T17:25:56Z</time>
      </trkpt>
      <trkpt lat="45.72538" lon="6.71478">
        <ele>2542</ele>
        <time>2022-07-16T17:25:58Z</time>
      </trkpt>
      <trkpt lat="45.72538" lon="6.71475">
        <ele>2542</ele>
        <time>2022-07-16T17:26:00Z</time>
      </trkpt>
      <trkpt lat="45.72537" lon="6.71471">
        <ele>2542</ele>
        <time>2022-07-16T17:26:02Z</time>
      </trkpt>
      <trkpt lat="45.72537" lon="6.71466">
        <ele>2541</ele>
        <time>2022-07-16T17:26:04Z</time>
      </trkpt>
      <trkpt lat="45.72538" lon="6.71464">
        <ele>2540</ele>
        <time>2022-07-16T17:26:05Z</time>
      </trkpt>
      <trkpt lat="45.72539" lon="6.71462">
        <ele>2540</ele>
        <time>2022-07-16T17:26:06Z</time>
      </trkpt>
      <trkpt lat="45.72539" lon="6.7146">
        <ele>2540</ele>
        <time>2022-07-16T17:26:07Z</time>
      </trkpt>
      <trkpt lat="45.72541" lon="6.71458">
        <ele>2540</ele>
        <time>2022-07-16T17:26:08Z</time>
      </trkpt>
      <trkpt lat="45.72544" lon="6.71455">
        <ele>2539</ele>
        <time>2022-07-16T17:26:10Z</time>
      </trkpt>
      <trkpt lat="45.72546" lon="6.71453">
        <ele>2539</ele>
        <time>2022-07-16T17:26:12Z</time>
      </trkpt>
      <trkpt lat="45.72549" lon="6.71452">
        <ele>2539</ele>
        <time>2022-07-16T17:26:14Z</time>
      </trkpt>
      <trkpt lat="45.7255" lon="6.7145">
        <ele>2539</ele>
        <time>2022-07-16T17:26:17Z</time>
      </trkpt>
      <trkpt lat="45.7255" lon="6.71447">
        <ele>2538</ele>
        <time>2022-07-16T17:26:19Z</time>
      </trkpt>
      <trkpt lat="45.72552" lon="6.71445">
        <ele>2538</ele>
        <time>2022-07-16T17:26:21Z</time>
      </trkpt>
      <trkpt lat="45.72553" lon="6.71442">
        <ele>2538</ele>
        <time>2022-07-16T17:26:23Z</time>
      </trkpt>
      <trkpt lat="45.72553" lon="6.71439">
        <ele>2537</ele>
        <time>2022-07-16T17:26:26Z</time>
      </trkpt>
      <trkpt lat="45.72552" lon="6.71437">
        <ele>2537</ele>
        <time>2022-07-16T17:26:29Z</time>
      </trkpt>
      <trkpt lat="45.72551" lon="6.71433">
        <ele>2537</ele>
        <time>2022-07-16T17:26:31Z</time>
      </trkpt>
      <trkpt lat="45.72552" lon="6.7143">
        <ele>2536</ele>
        <time>2022-07-16T17:26:34Z</time>
      </trkpt>
      <trkpt lat="45.72553" lon="6.71427">
        <ele>2536</ele>
        <time>2022-07-16T17:26:37Z</time>
      </trkpt>
      <trkpt lat="45.72553" lon="6.71424">
        <ele>2535</ele>
        <time>2022-07-16T17:26:40Z</time>
      </trkpt>
      <trkpt lat="45.72553" lon="6.71421">
        <ele>2535</ele>
        <time>2022-07-16T17:26:42Z</time>
      </trkpt>
      <trkpt lat="45.72554" lon="6.71418">
        <ele>2535</ele>
        <time>2022-07-16T17:26:45Z</time>
      </trkpt>
      <trkpt lat="45.72554" lon="6.71415">
        <ele>2535</ele>
        <time>2022-07-16T17:26:48Z</time>
      </trkpt>
      <trkpt lat="45.72554" lon="6.71411">
        <ele>2533</ele>
        <time>2022-07-16T17:26:51Z</time>
      </trkpt>
      <trkpt lat="45.72555" lon="6.71408">
        <ele>2533</ele>
        <time>2022-07-16T17:26:54Z</time>
      </trkpt>
      <trkpt lat="45.72556" lon="6.71405">
        <ele>2533</ele>
        <time>2022-07-16T17:26:57Z</time>
      </trkpt>
      <trkpt lat="45.72556" lon="6.71401">
        <ele>2533</ele>
        <time>2022-07-16T17:27:00Z</time>
      </trkpt>
      <trkpt lat="45.72556" lon="6.71398">
        <ele>2533</ele>
        <time>2022-07-16T17:27:02Z</time>
      </trkpt>
      <trkpt lat="45.72556" lon="6.71395">
        <ele>2532</ele>
        <time>2022-07-16T17:27:04Z</time>
      </trkpt>
      <trkpt lat="45.72556" lon="6.71392">
        <ele>2532</ele>
        <time>2022-07-16T17:27:08Z</time>
      </trkpt>
      <trkpt lat="45.72556" lon="6.71389">
        <ele>2532</ele>
        <time>2022-07-16T17:27:09Z</time>
      </trkpt>
      <trkpt lat="45.72554" lon="6.71387">
        <ele>2532</ele>
        <time>2022-07-16T17:27:12Z</time>
      </trkpt>
      <trkpt lat="45.72553" lon="6.71384">
        <ele>2532</ele>
        <time>2022-07-16T17:27:14Z</time>
      </trkpt>
      <trkpt lat="45.72554" lon="6.71382">
        <ele>2532</ele>
        <time>2022-07-16T17:27:16Z</time>
      </trkpt>
      <trkpt lat="45.72553" lon="6.71378">
        <ele>2530</ele>
        <time>2022-07-16T17:27:19Z</time>
      </trkpt>
      <trkpt lat="45.72554" lon="6.71375">
        <ele>2530</ele>
        <time>2022-07-16T17:27:22Z</time>
      </trkpt>
      <trkpt lat="45.72555" lon="6.71372">
        <ele>2530</ele>
        <time>2022-07-16T17:27:25Z</time>
      </trkpt>
      <trkpt lat="45.72555" lon="6.7137">
        <ele>2529</ele>
        <time>2022-07-16T17:27:28Z</time>
      </trkpt>
      <trkpt lat="45.72557" lon="6.71368">
        <ele>2528</ele>
        <time>2022-07-16T17:27:31Z</time>
      </trkpt>
      <trkpt lat="45.72558" lon="6.71366">
        <ele>2527</ele>
        <time>2022-07-16T17:27:34Z</time>
      </trkpt>
      <trkpt lat="45.7256" lon="6.71364">
        <ele>2526</ele>
        <time>2022-07-16T17:27:37Z</time>
      </trkpt>
      <trkpt lat="45.72562" lon="6.71362">
        <ele>2526</ele>
        <time>2022-07-16T17:27:41Z</time>
      </trkpt>
      <trkpt lat="45.72563" lon="6.7136">
        <ele>2526</ele>
        <time>2022-07-16T17:27:44Z</time>
      </trkpt>
      <trkpt lat="45.72563" lon="6.71357">
        <ele>2525</ele>
        <time>2022-07-16T17:27:48Z</time>
      </trkpt>
      <trkpt lat="45.72564" lon="6.71354">
        <ele>2524</ele>
        <time>2022-07-16T17:27:51Z</time>
      </trkpt>
      <trkpt lat="45.72565" lon="6.71351">
        <ele>2524</ele>
        <time>2022-07-16T17:27:53Z</time>
      </trkpt>
      <trkpt lat="45.72565" lon="6.71348">
        <ele>2523</ele>
        <time>2022-07-16T17:27:57Z</time>
      </trkpt>
      <trkpt lat="45.72566" lon="6.71345">
        <ele>2523</ele>
        <time>2022-07-16T17:28:00Z</time>
      </trkpt>
      <trkpt lat="45.72566" lon="6.71342">
        <ele>2522</ele>
        <time>2022-07-16T17:28:03Z</time>
      </trkpt>
      <trkpt lat="45.72566" lon="6.71339">
        <ele>2520</ele>
        <time>2022-07-16T17:28:06Z</time>
      </trkpt>
      <trkpt lat="45.72566" lon="6.71335">
        <ele>2519</ele>
        <time>2022-07-16T17:28:09Z</time>
      </trkpt>
      <trkpt lat="45.72567" lon="6.71332">
        <ele>2519</ele>
        <time>2022-07-16T17:28:12Z</time>
      </trkpt>
      <trkpt lat="45.72568" lon="6.71328">
        <ele>2519</ele>
        <time>2022-07-16T17:28:15Z</time>
      </trkpt>
      <trkpt lat="45.72569" lon="6.71326">
        <ele>2519</ele>
        <time>2022-07-16T17:28:18Z</time>
      </trkpt>
      <trkpt lat="45.7257" lon="6.71324">
        <ele>2518</ele>
        <time>2022-07-16T17:28:21Z</time>
      </trkpt>
      <trkpt lat="45.72571" lon="6.71321">
        <ele>2518</ele>
        <time>2022-07-16T17:28:24Z</time>
      </trkpt>
      <trkpt lat="45.72573" lon="6.7132">
        <ele>2516</ele>
        <time>2022-07-16T17:28:28Z</time>
      </trkpt>
      <trkpt lat="45.72575" lon="6.71318">
        <ele>2516</ele>
        <time>2022-07-16T17:28:31Z</time>
      </trkpt>
      <trkpt lat="45.72576" lon="6.71315">
        <ele>2515</ele>
        <time>2022-07-16T17:28:34Z</time>
      </trkpt>
      <trkpt lat="45.72577" lon="6.71313">
        <ele>2515</ele>
        <time>2022-07-16T17:28:37Z</time>
      </trkpt>
      <trkpt lat="45.72577" lon="6.7131">
        <ele>2514</ele>
        <time>2022-07-16T17:28:39Z</time>
      </trkpt>
      <trkpt lat="45.72578" lon="6.71307">
        <ele>2513</ele>
        <time>2022-07-16T17:28:41Z</time>
      </trkpt>
      <trkpt lat="45.72579" lon="6.71304">
        <ele>2513</ele>
        <time>2022-07-16T17:28:44Z</time>
      </trkpt>
      <trkpt lat="45.7258" lon="6.71301">
        <ele>2513</ele>
        <time>2022-07-16T17:28:47Z</time>
      </trkpt>
      <trkpt lat="45.7258" lon="6.71298">
        <ele>2513</ele>
        <time>2022-07-16T17:28:49Z</time>
      </trkpt>
      <trkpt lat="45.72582" lon="6.71296">
        <ele>2513</ele>
        <time>2022-07-16T17:28:51Z</time>
      </trkpt>
      <trkpt lat="45.72583" lon="6.71293">
        <ele>2513</ele>
        <time>2022-07-16T17:28:54Z</time>
      </trkpt>
      <trkpt lat="45.72582" lon="6.7129">
        <ele>2512</ele>
        <time>2022-07-16T17:28:56Z</time>
      </trkpt>
      <trkpt lat="45.72581" lon="6.71287">
        <ele>2512</ele>
        <time>2022-07-16T17:29:00Z</time>
      </trkpt>
      <trkpt lat="45.7258" lon="6.71285">
        <ele>2511</ele>
        <time>2022-07-16T17:29:02Z</time>
      </trkpt>
      <trkpt lat="45.72581" lon="6.71282">
        <ele>2511</ele>
        <time>2022-07-16T17:29:04Z</time>
      </trkpt>
      <trkpt lat="45.72582" lon="6.71279">
        <ele>2510</ele>
        <time>2022-07-16T17:29:06Z</time>
      </trkpt>
      <trkpt lat="45.72584" lon="6.71277">
        <ele>2510</ele>
        <time>2022-07-16T17:29:08Z</time>
      </trkpt>
      <trkpt lat="45.72585" lon="6.71274">
        <ele>2508</ele>
        <time>2022-07-16T17:29:11Z</time>
      </trkpt>
      <trkpt lat="45.72587" lon="6.71271">
        <ele>2508</ele>
        <time>2022-07-16T17:29:13Z</time>
      </trkpt>
      <trkpt lat="45.72589" lon="6.7127">
        <ele>2507</ele>
        <time>2022-07-16T17:29:15Z</time>
      </trkpt>
      <trkpt lat="45.72591" lon="6.71269">
        <ele>2507</ele>
        <time>2022-07-16T17:29:17Z</time>
      </trkpt>
      <trkpt lat="45.72593" lon="6.71268">
        <ele>2508</ele>
        <time>2022-07-16T17:29:19Z</time>
      </trkpt>
      <trkpt lat="45.72595" lon="6.71266">
        <ele>2508</ele>
        <time>2022-07-16T17:29:21Z</time>
      </trkpt>
      <trkpt lat="45.72597" lon="6.71263">
        <ele>2508</ele>
        <time>2022-07-16T17:29:24Z</time>
      </trkpt>
      <trkpt lat="45.72599" lon="6.71261">
        <ele>2508</ele>
        <time>2022-07-16T17:29:26Z</time>
      </trkpt>
      <trkpt lat="45.726" lon="6.71261">
        <ele>2508</ele>
        <time>2022-07-16T17:29:28Z</time>
      </trkpt>
      <trkpt lat="45.72602" lon="6.71259">
        <ele>2507</ele>
        <time>2022-07-16T17:29:30Z</time>
      </trkpt>
      <trkpt lat="45.72604" lon="6.71257">
        <ele>2507</ele>
        <time>2022-07-16T17:29:32Z</time>
      </trkpt>
      <trkpt lat="45.72606" lon="6.71255">
        <ele>2506</ele>
        <time>2022-07-16T17:29:34Z</time>
      </trkpt>
      <trkpt lat="45.72609" lon="6.71254">
        <ele>2506</ele>
        <time>2022-07-16T17:29:37Z</time>
      </trkpt>
      <trkpt lat="45.7261" lon="6.71254">
        <ele>2507</ele>
        <time>2022-07-16T17:29:39Z</time>
      </trkpt>
      <trkpt lat="45.72613" lon="6.71252">
        <ele>2507</ele>
        <time>2022-07-16T17:29:42Z</time>
      </trkpt>
      <trkpt lat="45.72614" lon="6.7125">
        <ele>2507</ele>
        <time>2022-07-16T17:29:44Z</time>
      </trkpt>
      <trkpt lat="45.72616" lon="6.71248">
        <ele>2507</ele>
        <time>2022-07-16T17:29:46Z</time>
      </trkpt>
      <trkpt lat="45.72617" lon="6.71246">
        <ele>2508</ele>
        <time>2022-07-16T17:29:48Z</time>
      </trkpt>
      <trkpt lat="45.72619" lon="6.71245">
        <ele>2508</ele>
        <time>2022-07-16T17:29:51Z</time>
      </trkpt>
      <trkpt lat="45.72621" lon="6.71242">
        <ele>2510</ele>
        <time>2022-07-16T17:29:54Z</time>
      </trkpt>
      <trkpt lat="45.72622" lon="6.71239">
        <ele>2510</ele>
        <time>2022-07-16T17:29:56Z</time>
      </trkpt>
      <trkpt lat="45.72622" lon="6.71236">
        <ele>2510</ele>
        <time>2022-07-16T17:29:58Z</time>
      </trkpt>
      <trkpt lat="45.72623" lon="6.71234">
        <ele>2510</ele>
        <time>2022-07-16T17:30:00Z</time>
      </trkpt>
      <trkpt lat="45.72625" lon="6.71231">
        <ele>2510</ele>
        <time>2022-07-16T17:30:02Z</time>
      </trkpt>
      <trkpt lat="45.72626" lon="6.71229">
        <ele>2511</ele>
        <time>2022-07-16T17:30:05Z</time>
      </trkpt>
      <trkpt lat="45.72628" lon="6.71227">
        <ele>2511</ele>
        <time>2022-07-16T17:30:07Z</time>
      </trkpt>
      <trkpt lat="45.72631" lon="6.71227">
        <ele>2510</ele>
        <time>2022-07-16T17:30:09Z</time>
      </trkpt>
      <trkpt lat="45.72633" lon="6.71228">
        <ele>2510</ele>
        <time>2022-07-16T17:30:11Z</time>
      </trkpt>
      <trkpt lat="45.72634" lon="6.7123">
        <ele>2510</ele>
        <time>2022-07-16T17:30:14Z</time>
      </trkpt>
      <trkpt lat="45.72637" lon="6.71231">
        <ele>2510</ele>
        <time>2022-07-16T17:30:17Z</time>
      </trkpt>
      <trkpt lat="45.72638" lon="6.71232">
        <ele>2511</ele>
        <time>2022-07-16T17:30:20Z</time>
      </trkpt>
      <trkpt lat="45.72641" lon="6.71232">
        <ele>2511</ele>
        <time>2022-07-16T17:30:23Z</time>
      </trkpt>
      <trkpt lat="45.72643" lon="6.71233">
        <ele>2511</ele>
        <time>2022-07-16T17:30:26Z</time>
      </trkpt>
      <trkpt lat="45.72645" lon="6.71233">
        <ele>2511</ele>
        <time>2022-07-16T17:30:28Z</time>
      </trkpt>
      <trkpt lat="45.72647" lon="6.71233">
        <ele>2512</ele>
        <time>2022-07-16T17:30:31Z</time>
      </trkpt>
      <trkpt lat="45.7265" lon="6.71232">
        <ele>2512</ele>
        <time>2022-07-16T17:30:34Z</time>
      </trkpt>
      <trkpt lat="45.72652" lon="6.7123">
        <ele>2513</ele>
        <time>2022-07-16T17:30:37Z</time>
      </trkpt>
      <trkpt lat="45.72653" lon="6.71227">
        <ele>2514</ele>
        <time>2022-07-16T17:30:40Z</time>
      </trkpt>
      <trkpt lat="45.72655" lon="6.71225">
        <ele>2514</ele>
        <time>2022-07-16T17:30:42Z</time>
      </trkpt>
      <trkpt lat="45.72657" lon="6.71223">
        <ele>2514</ele>
        <time>2022-07-16T17:30:45Z</time>
      </trkpt>
      <trkpt lat="45.72659" lon="6.71223">
        <ele>2515</ele>
        <time>2022-07-16T17:30:48Z</time>
      </trkpt>
      <trkpt lat="45.72661" lon="6.71224">
        <ele>2516</ele>
        <time>2022-07-16T17:30:51Z</time>
      </trkpt>
      <trkpt lat="45.72663" lon="6.71225">
        <ele>2515</ele>
        <time>2022-07-16T17:30:54Z</time>
      </trkpt>
      <trkpt lat="45.72665" lon="6.71223">
        <ele>2517</ele>
        <time>2022-07-16T17:30:59Z</time>
      </trkpt>
      <trkpt lat="45.72667" lon="6.7122">
        <ele>2517</ele>
        <time>2022-07-16T17:31:02Z</time>
      </trkpt>
      <trkpt lat="45.72668" lon="6.71218">
        <ele>2516</ele>
        <time>2022-07-16T17:31:04Z</time>
      </trkpt>
      <trkpt lat="45.7267" lon="6.71214">
        <ele>2516</ele>
        <time>2022-07-16T17:31:06Z</time>
      </trkpt>
      <trkpt lat="45.72671" lon="6.7121">
        <ele>2516</ele>
        <time>2022-07-16T17:31:08Z</time>
      </trkpt>
      <trkpt lat="45.72673" lon="6.71207">
        <ele>2516</ele>
        <time>2022-07-16T17:31:10Z</time>
      </trkpt>
      <trkpt lat="45.72674" lon="6.71204">
        <ele>2516</ele>
        <time>2022-07-16T17:31:12Z</time>
      </trkpt>
      <trkpt lat="45.72675" lon="6.71201">
        <ele>2516</ele>
        <time>2022-07-16T17:31:14Z</time>
      </trkpt>
      <trkpt lat="45.72677" lon="6.71197">
        <ele>2515</ele>
        <time>2022-07-16T17:31:16Z</time>
      </trkpt>
      <trkpt lat="45.72679" lon="6.71194">
        <ele>2514</ele>
        <time>2022-07-16T17:31:18Z</time>
      </trkpt>
      <trkpt lat="45.72681" lon="6.71192">
        <ele>2514</ele>
        <time>2022-07-16T17:31:20Z</time>
      </trkpt>
      <trkpt lat="45.72682" lon="6.7119">
        <ele>2514</ele>
        <time>2022-07-16T17:31:22Z</time>
      </trkpt>
      <trkpt lat="45.72684" lon="6.71187">
        <ele>2514</ele>
        <time>2022-07-16T17:31:24Z</time>
      </trkpt>
      <trkpt lat="45.72686" lon="6.71185">
        <ele>2514</ele>
        <time>2022-07-16T17:31:26Z</time>
      </trkpt>
      <trkpt lat="45.72687" lon="6.71182">
        <ele>2515</ele>
        <time>2022-07-16T17:31:28Z</time>
      </trkpt>
      <trkpt lat="45.72689" lon="6.7118">
        <ele>2515</ele>
        <time>2022-07-16T17:31:30Z</time>
      </trkpt>
      <trkpt lat="45.7269" lon="6.71178">
        <ele>2516</ele>
        <time>2022-07-16T17:31:32Z</time>
      </trkpt>
      <trkpt lat="45.72691" lon="6.71175">
        <ele>2516</ele>
        <time>2022-07-16T17:31:34Z</time>
      </trkpt>
      <trkpt lat="45.72692" lon="6.71172">
        <ele>2516</ele>
        <time>2022-07-16T17:31:36Z</time>
      </trkpt>
      <trkpt lat="45.72693" lon="6.71169">
        <ele>2516</ele>
        <time>2022-07-16T17:31:38Z</time>
      </trkpt>
      <trkpt lat="45.72694" lon="6.71165">
        <ele>2516</ele>
        <time>2022-07-16T17:31:40Z</time>
      </trkpt>
      <trkpt lat="45.72695" lon="6.71162">
        <ele>2516</ele>
        <time>2022-07-16T17:31:42Z</time>
      </trkpt>
      <trkpt lat="45.72696" lon="6.71159">
        <ele>2516</ele>
        <time>2022-07-16T17:31:44Z</time>
      </trkpt>
      <trkpt lat="45.72696" lon="6.71157">
        <ele>2516</ele>
        <time>2022-07-16T17:31:46Z</time>
      </trkpt>
      <trkpt lat="45.72695" lon="6.71153">
        <ele>2516</ele>
        <time>2022-07-16T17:31:49Z</time>
      </trkpt>
      <trkpt lat="45.72696" lon="6.7115">
        <ele>2516</ele>
        <time>2022-07-16T17:31:51Z</time>
      </trkpt>
      <trkpt lat="45.72697" lon="6.71148">
        <ele>2515</ele>
        <time>2022-07-16T17:31:55Z</time>
      </trkpt>
      <trkpt lat="45.72698" lon="6.71145">
        <ele>2513</ele>
        <time>2022-07-16T17:31:59Z</time>
      </trkpt>
      <trkpt lat="45.72699" lon="6.71142">
        <ele>2512</ele>
        <time>2022-07-16T17:32:01Z</time>
      </trkpt>
      <trkpt lat="45.72701" lon="6.7114">
        <ele>2512</ele>
        <time>2022-07-16T17:32:03Z</time>
      </trkpt>
      <trkpt lat="45.72703" lon="6.71139">
        <ele>2512</ele>
        <time>2022-07-16T17:32:05Z</time>
      </trkpt>
      <trkpt lat="45.72704" lon="6.71137">
        <ele>2512</ele>
        <time>2022-07-16T17:32:09Z</time>
      </trkpt>
      <trkpt lat="45.72706" lon="6.71134">
        <ele>2511</ele>
        <time>2022-07-16T17:32:12Z</time>
      </trkpt>
      <trkpt lat="45.72707" lon="6.71132">
        <ele>2510</ele>
        <time>2022-07-16T17:32:14Z</time>
      </trkpt>
      <trkpt lat="45.72709" lon="6.7113">
        <ele>2510</ele>
        <time>2022-07-16T17:32:16Z</time>
      </trkpt>
      <trkpt lat="45.72712" lon="6.71129">
        <ele>2508</ele>
        <time>2022-07-16T17:32:18Z</time>
      </trkpt>
      <trkpt lat="45.72715" lon="6.71129">
        <ele>2508</ele>
        <time>2022-07-16T17:32:20Z</time>
      </trkpt>
      <trkpt lat="45.72717" lon="6.71129">
        <ele>2508</ele>
        <time>2022-07-16T17:32:22Z</time>
      </trkpt>
      <trkpt lat="45.72719" lon="6.71128">
        <ele>2508</ele>
        <time>2022-07-16T17:32:24Z</time>
      </trkpt>
      <trkpt lat="45.72721" lon="6.71127">
        <ele>2508</ele>
        <time>2022-07-16T17:32:26Z</time>
      </trkpt>
      <trkpt lat="45.72724" lon="6.71126">
        <ele>2510</ele>
        <time>2022-07-16T17:32:28Z</time>
      </trkpt>
      <trkpt lat="45.72726" lon="6.71127">
        <ele>2510</ele>
        <time>2022-07-16T17:32:30Z</time>
      </trkpt>
      <trkpt lat="45.72728" lon="6.71126">
        <ele>2510</ele>
        <time>2022-07-16T17:32:32Z</time>
      </trkpt>
      <trkpt lat="45.7273" lon="6.71125">
        <ele>2511</ele>
        <time>2022-07-16T17:32:35Z</time>
      </trkpt>
      <trkpt lat="45.72733" lon="6.71124">
        <ele>2511</ele>
        <time>2022-07-16T17:32:38Z</time>
      </trkpt>
      <trkpt lat="45.72735" lon="6.71123">
        <ele>2511</ele>
        <time>2022-07-16T17:32:40Z</time>
      </trkpt>
      <trkpt lat="45.72737" lon="6.71122">
        <ele>2511</ele>
        <time>2022-07-16T17:32:42Z</time>
      </trkpt>
      <trkpt lat="45.72739" lon="6.71121">
        <ele>2511</ele>
        <time>2022-07-16T17:32:44Z</time>
      </trkpt>
      <trkpt lat="45.72741" lon="6.71122">
        <ele>2511</ele>
        <time>2022-07-16T17:32:46Z</time>
      </trkpt>
      <trkpt lat="45.72743" lon="6.71122">
        <ele>2512</ele>
        <time>2022-07-16T17:32:48Z</time>
      </trkpt>
      <trkpt lat="45.72746" lon="6.71121">
        <ele>2512</ele>
        <time>2022-07-16T17:32:51Z</time>
      </trkpt>
      <trkpt lat="45.72747" lon="6.7112">
        <ele>2512</ele>
        <time>2022-07-16T17:32:53Z</time>
      </trkpt>
      <trkpt lat="45.72749" lon="6.71119">
        <ele>2512</ele>
        <time>2022-07-16T17:32:55Z</time>
      </trkpt>
      <trkpt lat="45.72751" lon="6.71117">
        <ele>2512</ele>
        <time>2022-07-16T17:32:58Z</time>
      </trkpt>
      <trkpt lat="45.72753" lon="6.71116">
        <ele>2512</ele>
        <time>2022-07-16T17:33:00Z</time>
      </trkpt>
      <trkpt lat="45.72755" lon="6.71114">
        <ele>2512</ele>
        <time>2022-07-16T17:33:03Z</time>
      </trkpt>
      <trkpt lat="45.72756" lon="6.71112">
        <ele>2511</ele>
        <time>2022-07-16T17:33:06Z</time>
      </trkpt>
      <trkpt lat="45.72757" lon="6.71109">
        <ele>2511</ele>
        <time>2022-07-16T17:33:09Z</time>
      </trkpt>
      <trkpt lat="45.72759" lon="6.71106">
        <ele>2508</ele>
        <time>2022-07-16T17:33:12Z</time>
      </trkpt>
      <trkpt lat="45.72761" lon="6.71104">
        <ele>2508</ele>
        <time>2022-07-16T17:33:14Z</time>
      </trkpt>
      <trkpt lat="45.72764" lon="6.71104">
        <ele>2508</ele>
        <time>2022-07-16T17:33:16Z</time>
      </trkpt>
      <trkpt lat="45.72766" lon="6.71103">
        <ele>2507</ele>
        <time>2022-07-16T17:33:18Z</time>
      </trkpt>
      <trkpt lat="45.72767" lon="6.71101">
        <ele>2507</ele>
        <time>2022-07-16T17:33:20Z</time>
      </trkpt>
      <trkpt lat="45.7277" lon="6.71099">
        <ele>2507</ele>
        <time>2022-07-16T17:33:22Z</time>
      </trkpt>
      <trkpt lat="45.72772" lon="6.71098">
        <ele>2506</ele>
        <time>2022-07-16T17:33:24Z</time>
      </trkpt>
      <trkpt lat="45.72774" lon="6.71098">
        <ele>2506</ele>
        <time>2022-07-16T17:33:26Z</time>
      </trkpt>
      <trkpt lat="45.72776" lon="6.71097">
        <ele>2506</ele>
        <time>2022-07-16T17:33:28Z</time>
      </trkpt>
      <trkpt lat="45.72778" lon="6.71098">
        <ele>2507</ele>
        <time>2022-07-16T17:33:30Z</time>
      </trkpt>
      <trkpt lat="45.7278" lon="6.71098">
        <ele>2507</ele>
        <time>2022-07-16T17:33:33Z</time>
      </trkpt>
      <trkpt lat="45.72781" lon="6.71095">
        <ele>2507</ele>
        <time>2022-07-16T17:33:35Z</time>
      </trkpt>
      <trkpt lat="45.72784" lon="6.71093">
        <ele>2507</ele>
        <time>2022-07-16T17:33:37Z</time>
      </trkpt>
      <trkpt lat="45.72786" lon="6.71092">
        <ele>2507</ele>
        <time>2022-07-16T17:33:39Z</time>
      </trkpt>
      <trkpt lat="45.72788" lon="6.71092">
        <ele>2506</ele>
        <time>2022-07-16T17:33:41Z</time>
      </trkpt>
      <trkpt lat="45.7279" lon="6.7109">
        <ele>2506</ele>
        <time>2022-07-16T17:33:43Z</time>
      </trkpt>
      <trkpt lat="45.72792" lon="6.71088">
        <ele>2507</ele>
        <time>2022-07-16T17:33:46Z</time>
      </trkpt>
      <trkpt lat="45.72793" lon="6.71086">
        <ele>2507</ele>
        <time>2022-07-16T17:33:48Z</time>
      </trkpt>
      <trkpt lat="45.72795" lon="6.71083">
        <ele>2506</ele>
        <time>2022-07-16T17:33:50Z</time>
      </trkpt>
      <trkpt lat="45.72797" lon="6.71081">
        <ele>2506</ele>
        <time>2022-07-16T17:33:52Z</time>
      </trkpt>
      <trkpt lat="45.72799" lon="6.71081">
        <ele>2507</ele>
        <time>2022-07-16T17:33:54Z</time>
      </trkpt>
      <trkpt lat="45.72802" lon="6.7108">
        <ele>2507</ele>
        <time>2022-07-16T17:33:57Z</time>
      </trkpt>
      <trkpt lat="45.72803" lon="6.71078">
        <ele>2506</ele>
        <time>2022-07-16T17:34:00Z</time>
      </trkpt>
      <trkpt lat="45.72803" lon="6.71075">
        <ele>2506</ele>
        <time>2022-07-16T17:34:03Z</time>
      </trkpt>
      <trkpt lat="45.72803" lon="6.71072">
        <ele>2506</ele>
        <time>2022-07-16T17:34:06Z</time>
      </trkpt>
      <trkpt lat="45.72803" lon="6.71069">
        <ele>2505</ele>
        <time>2022-07-16T17:34:09Z</time>
      </trkpt>
      <trkpt lat="45.72803" lon="6.71065">
        <ele>2504</ele>
        <time>2022-07-16T17:34:12Z</time>
      </trkpt>
      <trkpt lat="45.72803" lon="6.71063">
        <ele>2504</ele>
        <time>2022-07-16T17:34:14Z</time>
      </trkpt>
      <trkpt lat="45.72803" lon="6.7106">
        <ele>2504</ele>
        <time>2022-07-16T17:34:16Z</time>
      </trkpt>
      <trkpt lat="45.72804" lon="6.71057">
        <ele>2504</ele>
        <time>2022-07-16T17:34:18Z</time>
      </trkpt>
      <trkpt lat="45.72805" lon="6.71055">
        <ele>2504</ele>
        <time>2022-07-16T17:34:20Z</time>
      </trkpt>
      <trkpt lat="45.72805" lon="6.71051">
        <ele>2503</ele>
        <time>2022-07-16T17:34:22Z</time>
      </trkpt>
      <trkpt lat="45.72806" lon="6.71048">
        <ele>2503</ele>
        <time>2022-07-16T17:34:24Z</time>
      </trkpt>
      <trkpt lat="45.72806" lon="6.71045">
        <ele>2503</ele>
        <time>2022-07-16T17:34:26Z</time>
      </trkpt>
      <trkpt lat="45.72807" lon="6.71042">
        <ele>2502</ele>
        <time>2022-07-16T17:34:29Z</time>
      </trkpt>
      <trkpt lat="45.72808" lon="6.7104">
        <ele>2502</ele>
        <time>2022-07-16T17:34:31Z</time>
      </trkpt>
      <trkpt lat="45.7281" lon="6.71037">
        <ele>2502</ele>
        <time>2022-07-16T17:34:34Z</time>
      </trkpt>
      <trkpt lat="45.72812" lon="6.71037">
        <ele>2501</ele>
        <time>2022-07-16T17:34:36Z</time>
      </trkpt>
      <trkpt lat="45.72815" lon="6.71038">
        <ele>2500</ele>
        <time>2022-07-16T17:34:39Z</time>
      </trkpt>
      <trkpt lat="45.72816" lon="6.71037">
        <ele>2500</ele>
        <time>2022-07-16T17:34:41Z</time>
      </trkpt>
      <trkpt lat="45.72818" lon="6.71036">
        <ele>2500</ele>
        <time>2022-07-16T17:34:43Z</time>
      </trkpt>
      <trkpt lat="45.72821" lon="6.71035">
        <ele>2500</ele>
        <time>2022-07-16T17:34:45Z</time>
      </trkpt>
      <trkpt lat="45.72824" lon="6.71035">
        <ele>2499</ele>
        <time>2022-07-16T17:34:47Z</time>
      </trkpt>
      <trkpt lat="45.72826" lon="6.71034">
        <ele>2499</ele>
        <time>2022-07-16T17:34:49Z</time>
      </trkpt>
      <trkpt lat="45.72828" lon="6.71033">
        <ele>2499</ele>
        <time>2022-07-16T17:34:51Z</time>
      </trkpt>
      <trkpt lat="45.7283" lon="6.71032">
        <ele>2499</ele>
        <time>2022-07-16T17:34:53Z</time>
      </trkpt>
      <trkpt lat="45.72831" lon="6.71031">
        <ele>2500</ele>
        <time>2022-07-16T17:34:55Z</time>
      </trkpt>
      <trkpt lat="45.72833" lon="6.71029">
        <ele>2500</ele>
        <time>2022-07-16T17:34:57Z</time>
      </trkpt>
      <trkpt lat="45.72835" lon="6.71028">
        <ele>2500</ele>
        <time>2022-07-16T17:34:59Z</time>
      </trkpt>
      <trkpt lat="45.72837" lon="6.71027">
        <ele>2500</ele>
        <time>2022-07-16T17:35:01Z</time>
      </trkpt>
      <trkpt lat="45.72839" lon="6.71026">
        <ele>2500</ele>
        <time>2022-07-16T17:35:03Z</time>
      </trkpt>
      <trkpt lat="45.72841" lon="6.71026">
        <ele>2501</ele>
        <time>2022-07-16T17:35:06Z</time>
      </trkpt>
      <trkpt lat="45.72843" lon="6.71027">
        <ele>2502</ele>
        <time>2022-07-16T17:35:09Z</time>
      </trkpt>
      <trkpt lat="45.72846" lon="6.71028">
        <ele>2502</ele>
        <time>2022-07-16T17:35:12Z</time>
      </trkpt>
      <trkpt lat="45.72847" lon="6.71027">
        <ele>2503</ele>
        <time>2022-07-16T17:35:15Z</time>
      </trkpt>
      <trkpt lat="45.7285" lon="6.71027">
        <ele>2503</ele>
        <time>2022-07-16T17:35:18Z</time>
      </trkpt>
      <trkpt lat="45.72852" lon="6.71028">
        <ele>2503</ele>
        <time>2022-07-16T17:35:20Z</time>
      </trkpt>
      <trkpt lat="45.72854" lon="6.71028">
        <ele>2503</ele>
        <time>2022-07-16T17:35:22Z</time>
      </trkpt>
      <trkpt lat="45.72856" lon="6.71028">
        <ele>2504</ele>
        <time>2022-07-16T17:35:24Z</time>
      </trkpt>
      <trkpt lat="45.72858" lon="6.71027">
        <ele>2504</ele>
        <time>2022-07-16T17:35:26Z</time>
      </trkpt>
      <trkpt lat="45.7286" lon="6.71028">
        <ele>2504</ele>
        <time>2022-07-16T17:35:28Z</time>
      </trkpt>
      <trkpt lat="45.72862" lon="6.71029">
        <ele>2505</ele>
        <time>2022-07-16T17:35:31Z</time>
      </trkpt>
      <trkpt lat="45.72863" lon="6.71031">
        <ele>2505</ele>
        <time>2022-07-16T17:35:34Z</time>
      </trkpt>
      <trkpt lat="45.72866" lon="6.7103">
        <ele>2505</ele>
        <time>2022-07-16T17:35:37Z</time>
      </trkpt>
      <trkpt lat="45.72868" lon="6.7103">
        <ele>2505</ele>
        <time>2022-07-16T17:35:39Z</time>
      </trkpt>
      <trkpt lat="45.72871" lon="6.7103">
        <ele>2505</ele>
        <time>2022-07-16T17:35:41Z</time>
      </trkpt>
      <trkpt lat="45.72873" lon="6.7103">
        <ele>2505</ele>
        <time>2022-07-16T17:35:44Z</time>
      </trkpt>
      <trkpt lat="45.72875" lon="6.7103">
        <ele>2505</ele>
        <time>2022-07-16T17:35:46Z</time>
      </trkpt>
      <trkpt lat="45.72877" lon="6.7103">
        <ele>2505</ele>
        <time>2022-07-16T17:35:48Z</time>
      </trkpt>
      <trkpt lat="45.72879" lon="6.71029">
        <ele>2506</ele>
        <time>2022-07-16T17:35:52Z</time>
      </trkpt>
      <trkpt lat="45.72881" lon="6.71027">
        <ele>2507</ele>
        <time>2022-07-16T17:35:55Z</time>
      </trkpt>
      <trkpt lat="45.72883" lon="6.71026">
        <ele>2507</ele>
        <time>2022-07-16T17:35:57Z</time>
      </trkpt>
      <trkpt lat="45.72884" lon="6.71024">
        <ele>2507</ele>
        <time>2022-07-16T17:35:59Z</time>
      </trkpt>
      <trkpt lat="45.72887" lon="6.71023">
        <ele>2506</ele>
        <time>2022-07-16T17:36:01Z</time>
      </trkpt>
      <trkpt lat="45.72888" lon="6.71025">
        <ele>2506</ele>
        <time>2022-07-16T17:36:03Z</time>
      </trkpt>
      <trkpt lat="45.72889" lon="6.71027">
        <ele>2507</ele>
        <time>2022-07-16T17:36:06Z</time>
      </trkpt>
      <trkpt lat="45.72891" lon="6.71028">
        <ele>2508</ele>
        <time>2022-07-16T17:36:09Z</time>
      </trkpt>
      <trkpt lat="45.72894" lon="6.71029">
        <ele>2510</ele>
        <time>2022-07-16T17:36:12Z</time>
      </trkpt>
      <trkpt lat="45.72895" lon="6.7103">
        <ele>2510</ele>
        <time>2022-07-16T17:36:15Z</time>
      </trkpt>
      <trkpt lat="45.72898" lon="6.71029">
        <ele>2511</ele>
        <time>2022-07-16T17:36:19Z</time>
      </trkpt>
      <trkpt lat="45.729" lon="6.71028">
        <ele>2511</ele>
        <time>2022-07-16T17:36:21Z</time>
      </trkpt>
      <trkpt lat="45.72902" lon="6.71027">
        <ele>2511</ele>
        <time>2022-07-16T17:36:23Z</time>
      </trkpt>
      <trkpt lat="45.72905" lon="6.71027">
        <ele>2510</ele>
        <time>2022-07-16T17:36:25Z</time>
      </trkpt>
      <trkpt lat="45.72907" lon="6.71027">
        <ele>2510</ele>
        <time>2022-07-16T17:36:27Z</time>
      </trkpt>
      <trkpt lat="45.72909" lon="6.71027">
        <ele>2510</ele>
        <time>2022-07-16T17:36:30Z</time>
      </trkpt>
      <trkpt lat="45.72909" lon="6.71027">
        <ele>2510</ele>
        <time>2022-07-16T17:36:43Z</time>
      </trkpt>
      <trkpt lat="45.72911" lon="6.71027">
        <ele>2510</ele>
        <time>2022-07-16T17:36:50Z</time>
      </trkpt>
      <trkpt lat="45.72913" lon="6.71027">
        <ele>2510</ele>
        <time>2022-07-16T17:36:52Z</time>
      </trkpt>
      <trkpt lat="45.72916" lon="6.71027">
        <ele>2510</ele>
        <time>2022-07-16T17:36:54Z</time>
      </trkpt>
      <trkpt lat="45.72918" lon="6.71028">
        <ele>2510</ele>
        <time>2022-07-16T17:36:56Z</time>
      </trkpt>
      <trkpt lat="45.7292" lon="6.71028">
        <ele>2510</ele>
        <time>2022-07-16T17:36:58Z</time>
      </trkpt>
      <trkpt lat="45.72923" lon="6.71028">
        <ele>2510</ele>
        <time>2022-07-16T17:37:00Z</time>
      </trkpt>
      <trkpt lat="45.72925" lon="6.71028">
        <ele>2511</ele>
        <time>2022-07-16T17:37:02Z</time>
      </trkpt>
      <trkpt lat="45.72927" lon="6.71028">
        <ele>2511</ele>
        <time>2022-07-16T17:37:04Z</time>
      </trkpt>
      <trkpt lat="45.72929" lon="6.71028">
        <ele>2511</ele>
        <time>2022-07-16T17:37:07Z</time>
      </trkpt>
      <trkpt lat="45.72932" lon="6.71028">
        <ele>2511</ele>
        <time>2022-07-16T17:37:10Z</time>
      </trkpt>
      <trkpt lat="45.72934" lon="6.71027">
        <ele>2510</ele>
        <time>2022-07-16T17:37:12Z</time>
      </trkpt>
      <trkpt lat="45.72936" lon="6.71027">
        <ele>2510</ele>
        <time>2022-07-16T17:37:14Z</time>
      </trkpt>
      <trkpt lat="45.72938" lon="6.71027">
        <ele>2510</ele>
        <time>2022-07-16T17:37:16Z</time>
      </trkpt>
      <trkpt lat="45.7294" lon="6.71027">
        <ele>2510</ele>
        <time>2022-07-16T17:37:19Z</time>
      </trkpt>
      <trkpt lat="45.72942" lon="6.71026">
        <ele>2510</ele>
        <time>2022-07-16T17:37:21Z</time>
      </trkpt>
      <trkpt lat="45.72945" lon="6.71024">
        <ele>2510</ele>
        <time>2022-07-16T17:37:23Z</time>
      </trkpt>
      <trkpt lat="45.72947" lon="6.71024">
        <ele>2508</ele>
        <time>2022-07-16T17:37:25Z</time>
      </trkpt>
      <trkpt lat="45.72949" lon="6.71023">
        <ele>2508</ele>
        <time>2022-07-16T17:37:28Z</time>
      </trkpt>
      <trkpt lat="45.72951" lon="6.71021">
        <ele>2508</ele>
        <time>2022-07-16T17:37:30Z</time>
      </trkpt>
      <trkpt lat="45.72952" lon="6.71018">
        <ele>2507</ele>
        <time>2022-07-16T17:37:33Z</time>
      </trkpt>
      <trkpt lat="45.72954" lon="6.71015">
        <ele>2507</ele>
        <time>2022-07-16T17:37:35Z</time>
      </trkpt>
      <trkpt lat="45.72954" lon="6.71012">
        <ele>2507</ele>
        <time>2022-07-16T17:37:37Z</time>
      </trkpt>
      <trkpt lat="45.72956" lon="6.71009">
        <ele>2507</ele>
        <time>2022-07-16T17:37:39Z</time>
      </trkpt>
      <trkpt lat="45.72957" lon="6.71006">
        <ele>2507</ele>
        <time>2022-07-16T17:37:41Z</time>
      </trkpt>
      <trkpt lat="45.72958" lon="6.71004">
        <ele>2506</ele>
        <time>2022-07-16T17:37:43Z</time>
      </trkpt>
      <trkpt lat="45.72959" lon="6.71001">
        <ele>2506</ele>
        <time>2022-07-16T17:37:45Z</time>
      </trkpt>
      <trkpt lat="45.7296" lon="6.70998">
        <ele>2507</ele>
        <time>2022-07-16T17:37:48Z</time>
      </trkpt>
      <trkpt lat="45.72959" lon="6.70996">
        <ele>2506</ele>
        <time>2022-07-16T17:37:50Z</time>
      </trkpt>
      <trkpt lat="45.72959" lon="6.70993">
        <ele>2507</ele>
        <time>2022-07-16T17:37:52Z</time>
      </trkpt>
      <trkpt lat="45.7296" lon="6.7099">
        <ele>2506</ele>
        <time>2022-07-16T17:37:54Z</time>
      </trkpt>
      <trkpt lat="45.72961" lon="6.70988">
        <ele>2507</ele>
        <time>2022-07-16T17:37:57Z</time>
      </trkpt>
      <trkpt lat="45.72962" lon="6.70984">
        <ele>2507</ele>
        <time>2022-07-16T17:38:00Z</time>
      </trkpt>
      <trkpt lat="45.72963" lon="6.70982">
        <ele>2506</ele>
        <time>2022-07-16T17:38:03Z</time>
      </trkpt>
      <trkpt lat="45.72965" lon="6.7098">
        <ele>2506</ele>
        <time>2022-07-16T17:38:06Z</time>
      </trkpt>
      <trkpt lat="45.72967" lon="6.70979">
        <ele>2505</ele>
        <time>2022-07-16T17:38:09Z</time>
      </trkpt>
      <trkpt lat="45.72969" lon="6.70978">
        <ele>2505</ele>
        <time>2022-07-16T17:38:11Z</time>
      </trkpt>
      <trkpt lat="45.72971" lon="6.70976">
        <ele>2505</ele>
        <time>2022-07-16T17:38:13Z</time>
      </trkpt>
      <trkpt lat="45.72974" lon="6.70974">
        <ele>2503</ele>
        <time>2022-07-16T17:38:15Z</time>
      </trkpt>
      <trkpt lat="45.72977" lon="6.70972">
        <ele>2503</ele>
        <time>2022-07-16T17:38:17Z</time>
      </trkpt>
      <trkpt lat="45.72979" lon="6.70971">
        <ele>2503</ele>
        <time>2022-07-16T17:38:19Z</time>
      </trkpt>
      <trkpt lat="45.7298" lon="6.70967">
        <ele>2503</ele>
        <time>2022-07-16T17:38:21Z</time>
      </trkpt>
      <trkpt lat="45.72981" lon="6.70963">
        <ele>2504</ele>
        <time>2022-07-16T17:38:23Z</time>
      </trkpt>
      <trkpt lat="45.72982" lon="6.7096">
        <ele>2504</ele>
        <time>2022-07-16T17:38:25Z</time>
      </trkpt>
      <trkpt lat="45.72983" lon="6.70957">
        <ele>2504</ele>
        <time>2022-07-16T17:38:27Z</time>
      </trkpt>
      <trkpt lat="45.72984" lon="6.70954">
        <ele>2504</ele>
        <time>2022-07-16T17:38:29Z</time>
      </trkpt>
      <trkpt lat="45.72985" lon="6.7095">
        <ele>2504</ele>
        <time>2022-07-16T17:38:31Z</time>
      </trkpt>
      <trkpt lat="45.72986" lon="6.70947">
        <ele>2503</ele>
        <time>2022-07-16T17:38:33Z</time>
      </trkpt>
      <trkpt lat="45.72988" lon="6.70943">
        <ele>2503</ele>
        <time>2022-07-16T17:38:35Z</time>
      </trkpt>
      <trkpt lat="45.72989" lon="6.7094">
        <ele>2503</ele>
        <time>2022-07-16T17:38:37Z</time>
      </trkpt>
      <trkpt lat="45.72991" lon="6.70938">
        <ele>2503</ele>
        <time>2022-07-16T17:38:39Z</time>
      </trkpt>
      <trkpt lat="45.72993" lon="6.70936">
        <ele>2503</ele>
        <time>2022-07-16T17:38:41Z</time>
      </trkpt>
      <trkpt lat="45.72996" lon="6.70936">
        <ele>2503</ele>
        <time>2022-07-16T17:38:43Z</time>
      </trkpt>
      <trkpt lat="45.72998" lon="6.70936">
        <ele>2503</ele>
        <time>2022-07-16T17:38:45Z</time>
      </trkpt>
      <trkpt lat="45.72999" lon="6.70935">
        <ele>2503</ele>
        <time>2022-07-16T17:38:47Z</time>
      </trkpt>
      <trkpt lat="45.73002" lon="6.70933">
        <ele>2503</ele>
        <time>2022-07-16T17:38:50Z</time>
      </trkpt>
      <trkpt lat="45.73004" lon="6.70933">
        <ele>2502</ele>
        <time>2022-07-16T17:38:52Z</time>
      </trkpt>
      <trkpt lat="45.73006" lon="6.70933">
        <ele>2502</ele>
        <time>2022-07-16T17:38:54Z</time>
      </trkpt>
      <trkpt lat="45.73008" lon="6.70934">
        <ele>2502</ele>
        <time>2022-07-16T17:38:56Z</time>
      </trkpt>
      <trkpt lat="45.7301" lon="6.70934">
        <ele>2501</ele>
        <time>2022-07-16T17:38:58Z</time>
      </trkpt>
      <trkpt lat="45.73012" lon="6.70932">
        <ele>2501</ele>
        <time>2022-07-16T17:39:00Z</time>
      </trkpt>
      <trkpt lat="45.73013" lon="6.70929">
        <ele>2501</ele>
        <time>2022-07-16T17:39:03Z</time>
      </trkpt>
      <trkpt lat="45.73014" lon="6.70926">
        <ele>2501</ele>
        <time>2022-07-16T17:39:06Z</time>
      </trkpt>
      <trkpt lat="45.73015" lon="6.70924">
        <ele>2500</ele>
        <time>2022-07-16T17:39:09Z</time>
      </trkpt>
      <trkpt lat="45.73017" lon="6.70921">
        <ele>2499</ele>
        <time>2022-07-16T17:39:12Z</time>
      </trkpt>
      <trkpt lat="45.73018" lon="6.70917">
        <ele>2499</ele>
        <time>2022-07-16T17:39:14Z</time>
      </trkpt>
      <trkpt lat="45.73021" lon="6.70916">
        <ele>2499</ele>
        <time>2022-07-16T17:39:16Z</time>
      </trkpt>
      <trkpt lat="45.73024" lon="6.70915">
        <ele>2499</ele>
        <time>2022-07-16T17:39:18Z</time>
      </trkpt>
      <trkpt lat="45.73026" lon="6.70915">
        <ele>2499</ele>
        <time>2022-07-16T17:39:20Z</time>
      </trkpt>
      <trkpt lat="45.73028" lon="6.70913">
        <ele>2499</ele>
        <time>2022-07-16T17:39:22Z</time>
      </trkpt>
      <trkpt lat="45.7303" lon="6.70911">
        <ele>2499</ele>
        <time>2022-07-16T17:39:25Z</time>
      </trkpt>
      <trkpt lat="45.73033" lon="6.7091">
        <ele>2499</ele>
        <time>2022-07-16T17:39:27Z</time>
      </trkpt>
      <trkpt lat="45.73035" lon="6.70909">
        <ele>2499</ele>
        <time>2022-07-16T17:39:29Z</time>
      </trkpt>
      <trkpt lat="45.73037" lon="6.70908">
        <ele>2499</ele>
        <time>2022-07-16T17:39:31Z</time>
      </trkpt>
      <trkpt lat="45.73039" lon="6.70906">
        <ele>2499</ele>
        <time>2022-07-16T17:39:33Z</time>
      </trkpt>
      <trkpt lat="45.73041" lon="6.70904">
        <ele>2498</ele>
        <time>2022-07-16T17:39:35Z</time>
      </trkpt>
      <trkpt lat="45.73043" lon="6.70901">
        <ele>2498</ele>
        <time>2022-07-16T17:39:38Z</time>
      </trkpt>
      <trkpt lat="45.73045" lon="6.709">
        <ele>2499</ele>
        <time>2022-07-16T17:39:41Z</time>
      </trkpt>
      <trkpt lat="45.73047" lon="6.709">
        <ele>2499</ele>
        <time>2022-07-16T17:39:44Z</time>
      </trkpt>
      <trkpt lat="45.73049" lon="6.70899">
        <ele>2499</ele>
        <time>2022-07-16T17:39:48Z</time>
      </trkpt>
      <trkpt lat="45.73052" lon="6.709">
        <ele>2501</ele>
        <time>2022-07-16T17:39:52Z</time>
      </trkpt>
      <trkpt lat="45.73054" lon="6.70902">
        <ele>2500</ele>
        <time>2022-07-16T17:39:55Z</time>
      </trkpt>
      <trkpt lat="45.73056" lon="6.70905">
        <ele>2500</ele>
        <time>2022-07-16T17:39:57Z</time>
      </trkpt>
      <trkpt lat="45.73057" lon="6.70907">
        <ele>2500</ele>
        <time>2022-07-16T17:39:59Z</time>
      </trkpt>
      <trkpt lat="45.73059" lon="6.70909">
        <ele>2500</ele>
        <time>2022-07-16T17:40:01Z</time>
      </trkpt>
      <trkpt lat="45.7306" lon="6.7091">
        <ele>2500</ele>
        <time>2022-07-16T17:40:03Z</time>
      </trkpt>
      <trkpt lat="45.73062" lon="6.70908">
        <ele>2501</ele>
        <time>2022-07-16T17:40:06Z</time>
      </trkpt>
      <trkpt lat="45.73064" lon="6.70905">
        <ele>2501</ele>
        <time>2022-07-16T17:40:08Z</time>
      </trkpt>
      <trkpt lat="45.73066" lon="6.70903">
        <ele>2500</ele>
        <time>2022-07-16T17:40:10Z</time>
      </trkpt>
      <trkpt lat="45.73067" lon="6.70901">
        <ele>2499</ele>
        <time>2022-07-16T17:40:12Z</time>
      </trkpt>
      <trkpt lat="45.73069" lon="6.709">
        <ele>2500</ele>
        <time>2022-07-16T17:40:14Z</time>
      </trkpt>
      <trkpt lat="45.73071" lon="6.70899">
        <ele>2499</ele>
        <time>2022-07-16T17:40:17Z</time>
      </trkpt>
      <trkpt lat="45.73072" lon="6.70897">
        <ele>2498</ele>
        <time>2022-07-16T17:40:19Z</time>
      </trkpt>
      <trkpt lat="45.73074" lon="6.70894">
        <ele>2498</ele>
        <time>2022-07-16T17:40:21Z</time>
      </trkpt>
      <trkpt lat="45.73075" lon="6.70892">
        <ele>2496</ele>
        <time>2022-07-16T17:40:23Z</time>
      </trkpt>
      <trkpt lat="45.73076" lon="6.7089">
        <ele>2496</ele>
        <time>2022-07-16T17:40:25Z</time>
      </trkpt>
      <trkpt lat="45.73078" lon="6.70888">
        <ele>2495</ele>
        <time>2022-07-16T17:40:27Z</time>
      </trkpt>
      <trkpt lat="45.73079" lon="6.70885">
        <ele>2495</ele>
        <time>2022-07-16T17:40:29Z</time>
      </trkpt>
      <trkpt lat="45.73081" lon="6.70883">
        <ele>2495</ele>
        <time>2022-07-16T17:40:31Z</time>
      </trkpt>
      <trkpt lat="45.73083" lon="6.70883">
        <ele>2495</ele>
        <time>2022-07-16T17:40:33Z</time>
      </trkpt>
      <trkpt lat="45.73085" lon="6.70883">
        <ele>2494</ele>
        <time>2022-07-16T17:40:36Z</time>
      </trkpt>
      <trkpt lat="45.73087" lon="6.70882">
        <ele>2493</ele>
        <time>2022-07-16T17:40:39Z</time>
      </trkpt>
      <trkpt lat="45.73089" lon="6.7088">
        <ele>2493</ele>
        <time>2022-07-16T17:40:41Z</time>
      </trkpt>
      <trkpt lat="45.7309" lon="6.70878">
        <ele>2493</ele>
        <time>2022-07-16T17:40:44Z</time>
      </trkpt>
      <trkpt lat="45.73091" lon="6.70875">
        <ele>2493</ele>
        <time>2022-07-16T17:40:47Z</time>
      </trkpt>
      <trkpt lat="45.73092" lon="6.70873">
        <ele>2493</ele>
        <time>2022-07-16T17:40:49Z</time>
      </trkpt>
      <trkpt lat="45.73093" lon="6.70871">
        <ele>2492</ele>
        <time>2022-07-16T17:40:51Z</time>
      </trkpt>
      <trkpt lat="45.73095" lon="6.70869">
        <ele>2492</ele>
        <time>2022-07-16T17:40:53Z</time>
      </trkpt>
      <trkpt lat="45.73097" lon="6.70866">
        <ele>2492</ele>
        <time>2022-07-16T17:40:55Z</time>
      </trkpt>
      <trkpt lat="45.73098" lon="6.70864">
        <ele>2492</ele>
        <time>2022-07-16T17:40:57Z</time>
      </trkpt>
      <trkpt lat="45.731" lon="6.70862">
        <ele>2492</ele>
        <time>2022-07-16T17:40:59Z</time>
      </trkpt>
      <trkpt lat="45.73102" lon="6.70859">
        <ele>2491</ele>
        <time>2022-07-16T17:41:02Z</time>
      </trkpt>
      <trkpt lat="45.73102" lon="6.70856">
        <ele>2490</ele>
        <time>2022-07-16T17:41:06Z</time>
      </trkpt>
      <trkpt lat="45.73102" lon="6.70852">
        <ele>2488</ele>
        <time>2022-07-16T17:41:09Z</time>
      </trkpt>
      <trkpt lat="45.73102" lon="6.7085">
        <ele>2487</ele>
        <time>2022-07-16T17:41:11Z</time>
      </trkpt>
      <trkpt lat="45.73104" lon="6.70846">
        <ele>2487</ele>
        <time>2022-07-16T17:41:13Z</time>
      </trkpt>
      <trkpt lat="45.73106" lon="6.70845">
        <ele>2487</ele>
        <time>2022-07-16T17:41:15Z</time>
      </trkpt>
      <trkpt lat="45.73109" lon="6.70845">
        <ele>2484</ele>
        <time>2022-07-16T17:41:17Z</time>
      </trkpt>
      <trkpt lat="45.73112" lon="6.70846">
        <ele>2484</ele>
        <time>2022-07-16T17:41:19Z</time>
      </trkpt>
      <trkpt lat="45.73115" lon="6.70847">
        <ele>2484</ele>
        <time>2022-07-16T17:41:21Z</time>
      </trkpt>
      <trkpt lat="45.73117" lon="6.70848">
        <ele>2484</ele>
        <time>2022-07-16T17:41:23Z</time>
      </trkpt>
      <trkpt lat="45.7312" lon="6.70849">
        <ele>2483</ele>
        <time>2022-07-16T17:41:25Z</time>
      </trkpt>
      <trkpt lat="45.73122" lon="6.70849">
        <ele>2483</ele>
        <time>2022-07-16T17:41:27Z</time>
      </trkpt>
      <trkpt lat="45.73125" lon="6.70849">
        <ele>2483</ele>
        <time>2022-07-16T17:41:29Z</time>
      </trkpt>
      <trkpt lat="45.73127" lon="6.70849">
        <ele>2483</ele>
        <time>2022-07-16T17:41:31Z</time>
      </trkpt>
      <trkpt lat="45.73129" lon="6.70848">
        <ele>2483</ele>
        <time>2022-07-16T17:41:33Z</time>
      </trkpt>
      <trkpt lat="45.7313" lon="6.70846">
        <ele>2483</ele>
        <time>2022-07-16T17:41:35Z</time>
      </trkpt>
      <trkpt lat="45.73132" lon="6.70844">
        <ele>2484</ele>
        <time>2022-07-16T17:41:38Z</time>
      </trkpt>
      <trkpt lat="45.73135" lon="6.70843">
        <ele>2486</ele>
        <time>2022-07-16T17:41:42Z</time>
      </trkpt>
      <trkpt lat="45.73137" lon="6.70842">
        <ele>2484</ele>
        <time>2022-07-16T17:41:45Z</time>
      </trkpt>
      <trkpt lat="45.73139" lon="6.7084">
        <ele>2487</ele>
        <time>2022-07-16T17:41:48Z</time>
      </trkpt>
      <trkpt lat="45.7314" lon="6.70838">
        <ele>2487</ele>
        <time>2022-07-16T17:41:51Z</time>
      </trkpt>
      <trkpt lat="45.73142" lon="6.70836">
        <ele>2487</ele>
        <time>2022-07-16T17:41:53Z</time>
      </trkpt>
      <trkpt lat="45.73144" lon="6.70835">
        <ele>2487</ele>
        <time>2022-07-16T17:41:56Z</time>
      </trkpt>
      <trkpt lat="45.73146" lon="6.70833">
        <ele>2487</ele>
        <time>2022-07-16T17:41:59Z</time>
      </trkpt>
      <trkpt lat="45.73147" lon="6.70832">
        <ele>2486</ele>
        <time>2022-07-16T17:42:01Z</time>
      </trkpt>
      <trkpt lat="45.73149" lon="6.7083">
        <ele>2484</ele>
        <time>2022-07-16T17:42:04Z</time>
      </trkpt>
      <trkpt lat="45.73152" lon="6.70832">
        <ele>2483</ele>
        <time>2022-07-16T17:42:07Z</time>
      </trkpt>
      <trkpt lat="45.73154" lon="6.70831">
        <ele>2482</ele>
        <time>2022-07-16T17:42:10Z</time>
      </trkpt>
      <trkpt lat="45.73156" lon="6.7083">
        <ele>2481</ele>
        <time>2022-07-16T17:42:14Z</time>
      </trkpt>
      <trkpt lat="45.73158" lon="6.70829">
        <ele>2480</ele>
        <time>2022-07-16T17:42:17Z</time>
      </trkpt>
      <trkpt lat="45.7316" lon="6.70829">
        <ele>2479</ele>
        <time>2022-07-16T17:42:19Z</time>
      </trkpt>
      <trkpt lat="45.73163" lon="6.70831">
        <ele>2479</ele>
        <time>2022-07-16T17:42:21Z</time>
      </trkpt>
      <trkpt lat="45.73165" lon="6.70833">
        <ele>2477</ele>
        <time>2022-07-16T17:42:23Z</time>
      </trkpt>
      <trkpt lat="45.73167" lon="6.70834">
        <ele>2477</ele>
        <time>2022-07-16T17:42:25Z</time>
      </trkpt>
      <trkpt lat="45.73169" lon="6.70835">
        <ele>2477</ele>
        <time>2022-07-16T17:42:27Z</time>
      </trkpt>
      <trkpt lat="45.73171" lon="6.70834">
        <ele>2477</ele>
        <time>2022-07-16T17:42:29Z</time>
      </trkpt>
      <trkpt lat="45.73173" lon="6.70835">
        <ele>2477</ele>
        <time>2022-07-16T17:42:31Z</time>
      </trkpt>
      <trkpt lat="45.73174" lon="6.70834">
        <ele>2477</ele>
        <time>2022-07-16T17:42:33Z</time>
      </trkpt>
      <trkpt lat="45.73177" lon="6.70833">
        <ele>2477</ele>
        <time>2022-07-16T17:42:35Z</time>
      </trkpt>
      <trkpt lat="45.73179" lon="6.70833">
        <ele>2476</ele>
        <time>2022-07-16T17:42:37Z</time>
      </trkpt>
      <trkpt lat="45.73182" lon="6.70832">
        <ele>2476</ele>
        <time>2022-07-16T17:42:39Z</time>
      </trkpt>
      <trkpt lat="45.73184" lon="6.70831">
        <ele>2476</ele>
        <time>2022-07-16T17:42:41Z</time>
      </trkpt>
      <trkpt lat="45.73187" lon="6.70832">
        <ele>2475</ele>
        <time>2022-07-16T17:42:43Z</time>
      </trkpt>
      <trkpt lat="45.73189" lon="6.70832">
        <ele>2475</ele>
        <time>2022-07-16T17:42:45Z</time>
      </trkpt>
      <trkpt lat="45.73192" lon="6.70832">
        <ele>2475</ele>
        <time>2022-07-16T17:42:47Z</time>
      </trkpt>
      <trkpt lat="45.73195" lon="6.70832">
        <ele>2475</ele>
        <time>2022-07-16T17:42:49Z</time>
      </trkpt>
      <trkpt lat="45.73197" lon="6.70832">
        <ele>2475</ele>
        <time>2022-07-16T17:42:51Z</time>
      </trkpt>
      <trkpt lat="45.73199" lon="6.70831">
        <ele>2475</ele>
        <time>2022-07-16T17:42:53Z</time>
      </trkpt>
      <trkpt lat="45.73201" lon="6.70831">
        <ele>2476</ele>
        <time>2022-07-16T17:42:55Z</time>
      </trkpt>
      <trkpt lat="45.73203" lon="6.70831">
        <ele>2476</ele>
        <time>2022-07-16T17:42:57Z</time>
      </trkpt>
      <trkpt lat="45.73205" lon="6.7083">
        <ele>2477</ele>
        <time>2022-07-16T17:43:00Z</time>
      </trkpt>
      <trkpt lat="45.73208" lon="6.70831">
        <ele>2478</ele>
        <time>2022-07-16T17:43:03Z</time>
      </trkpt>
      <trkpt lat="45.73209" lon="6.70829">
        <ele>2478</ele>
        <time>2022-07-16T17:43:07Z</time>
      </trkpt>
      <trkpt lat="45.73211" lon="6.70826">
        <ele>2479</ele>
        <time>2022-07-16T17:43:10Z</time>
      </trkpt>
      <trkpt lat="45.73213" lon="6.70825">
        <ele>2479</ele>
        <time>2022-07-16T17:43:12Z</time>
      </trkpt>
      <trkpt lat="45.73215" lon="6.70825">
        <ele>2479</ele>
        <time>2022-07-16T17:43:14Z</time>
      </trkpt>
      <trkpt lat="45.73218" lon="6.70825">
        <ele>2479</ele>
        <time>2022-07-16T17:43:16Z</time>
      </trkpt>
      <trkpt lat="45.7322" lon="6.70826">
        <ele>2478</ele>
        <time>2022-07-16T17:43:19Z</time>
      </trkpt>
      <trkpt lat="45.73222" lon="6.70828">
        <ele>2478</ele>
        <time>2022-07-16T17:43:21Z</time>
      </trkpt>
      <trkpt lat="45.73223" lon="6.70829">
        <ele>2477</ele>
        <time>2022-07-16T17:43:23Z</time>
      </trkpt>
      <trkpt lat="45.73225" lon="6.70829">
        <ele>2477</ele>
        <time>2022-07-16T17:43:26Z</time>
      </trkpt>
      <trkpt lat="45.73228" lon="6.70828">
        <ele>2476</ele>
        <time>2022-07-16T17:43:28Z</time>
      </trkpt>
      <trkpt lat="45.7323" lon="6.70829">
        <ele>2476</ele>
        <time>2022-07-16T17:43:30Z</time>
      </trkpt>
      <trkpt lat="45.73233" lon="6.70828">
        <ele>2476</ele>
        <time>2022-07-16T17:43:32Z</time>
      </trkpt>
      <trkpt lat="45.73235" lon="6.70828">
        <ele>2475</ele>
        <time>2022-07-16T17:43:34Z</time>
      </trkpt>
      <trkpt lat="45.73237" lon="6.70827">
        <ele>2475</ele>
        <time>2022-07-16T17:43:36Z</time>
      </trkpt>
      <trkpt lat="45.7324" lon="6.70827">
        <ele>2475</ele>
        <time>2022-07-16T17:43:39Z</time>
      </trkpt>
      <trkpt lat="45.73241" lon="6.70826">
        <ele>2475</ele>
        <time>2022-07-16T17:43:41Z</time>
      </trkpt>
      <trkpt lat="45.73244" lon="6.70825">
        <ele>2475</ele>
        <time>2022-07-16T17:43:44Z</time>
      </trkpt>
      <trkpt lat="45.73246" lon="6.70825">
        <ele>2474</ele>
        <time>2022-07-16T17:43:47Z</time>
      </trkpt>
      <trkpt lat="45.73249" lon="6.70827">
        <ele>2472</ele>
        <time>2022-07-16T17:43:50Z</time>
      </trkpt>
      <trkpt lat="45.7325" lon="6.70829">
        <ele>2471</ele>
        <time>2022-07-16T17:43:52Z</time>
      </trkpt>
      <trkpt lat="45.73252" lon="6.70831">
        <ele>2471</ele>
        <time>2022-07-16T17:43:56Z</time>
      </trkpt>
      <trkpt lat="45.73255" lon="6.70833">
        <ele>2470</ele>
        <time>2022-07-16T17:43:59Z</time>
      </trkpt>
      <trkpt lat="45.73257" lon="6.70834">
        <ele>2469</ele>
        <time>2022-07-16T17:44:01Z</time>
      </trkpt>
      <trkpt lat="45.73259" lon="6.70835">
        <ele>2469</ele>
        <time>2022-07-16T17:44:03Z</time>
      </trkpt>
      <trkpt lat="45.73261" lon="6.70834">
        <ele>2469</ele>
        <time>2022-07-16T17:44:05Z</time>
      </trkpt>
      <trkpt lat="45.73263" lon="6.70835">
        <ele>2469</ele>
        <time>2022-07-16T17:44:07Z</time>
      </trkpt>
      <trkpt lat="45.73265" lon="6.70837">
        <ele>2468</ele>
        <time>2022-07-16T17:44:10Z</time>
      </trkpt>
      <trkpt lat="45.73267" lon="6.70838">
        <ele>2468</ele>
        <time>2022-07-16T17:44:12Z</time>
      </trkpt>
      <trkpt lat="45.7327" lon="6.70837">
        <ele>2468</ele>
        <time>2022-07-16T17:44:15Z</time>
      </trkpt>
      <trkpt lat="45.73272" lon="6.70837">
        <ele>2468</ele>
        <time>2022-07-16T17:44:17Z</time>
      </trkpt>
      <trkpt lat="45.73273" lon="6.7084">
        <ele>2467</ele>
        <time>2022-07-16T17:44:20Z</time>
      </trkpt>
      <trkpt lat="45.73274" lon="6.70843">
        <ele>2467</ele>
        <time>2022-07-16T17:44:22Z</time>
      </trkpt>
      <trkpt lat="45.73277" lon="6.70844">
        <ele>2466</ele>
        <time>2022-07-16T17:44:26Z</time>
      </trkpt>
      <trkpt lat="45.73279" lon="6.70845">
        <ele>2465</ele>
        <time>2022-07-16T17:44:30Z</time>
      </trkpt>
      <trkpt lat="45.73282" lon="6.70847">
        <ele>2464</ele>
        <time>2022-07-16T17:44:33Z</time>
      </trkpt>
      <trkpt lat="45.73284" lon="6.70846">
        <ele>2463</ele>
        <time>2022-07-16T17:44:35Z</time>
      </trkpt>
      <trkpt lat="45.73286" lon="6.70845">
        <ele>2463</ele>
        <time>2022-07-16T17:44:37Z</time>
      </trkpt>
      <trkpt lat="45.73288" lon="6.70844">
        <ele>2463</ele>
        <time>2022-07-16T17:44:39Z</time>
      </trkpt>
      <trkpt lat="45.7329" lon="6.70843">
        <ele>2463</ele>
        <time>2022-07-16T17:44:41Z</time>
      </trkpt>
      <trkpt lat="45.73292" lon="6.70843">
        <ele>2462</ele>
        <time>2022-07-16T17:44:43Z</time>
      </trkpt>
      <trkpt lat="45.73294" lon="6.70843">
        <ele>2462</ele>
        <time>2022-07-16T17:44:45Z</time>
      </trkpt>
      <trkpt lat="45.73297" lon="6.70844">
        <ele>2462</ele>
        <time>2022-07-16T17:44:47Z</time>
      </trkpt>
      <trkpt lat="45.73299" lon="6.70845">
        <ele>2462</ele>
        <time>2022-07-16T17:44:49Z</time>
      </trkpt>
      <trkpt lat="45.73301" lon="6.70848">
        <ele>2461</ele>
        <time>2022-07-16T17:44:51Z</time>
      </trkpt>
      <trkpt lat="45.73303" lon="6.7085">
        <ele>2461</ele>
        <time>2022-07-16T17:44:53Z</time>
      </trkpt>
      <trkpt lat="45.73305" lon="6.70852">
        <ele>2461</ele>
        <time>2022-07-16T17:44:55Z</time>
      </trkpt>
      <trkpt lat="45.73307" lon="6.70854">
        <ele>2461</ele>
        <time>2022-07-16T17:44:57Z</time>
      </trkpt>
      <trkpt lat="45.73309" lon="6.70855">
        <ele>2461</ele>
        <time>2022-07-16T17:44:59Z</time>
      </trkpt>
      <trkpt lat="45.73311" lon="6.70856">
        <ele>2461</ele>
        <time>2022-07-16T17:45:01Z</time>
      </trkpt>
      <trkpt lat="45.73313" lon="6.70858">
        <ele>2461</ele>
        <time>2022-07-16T17:45:03Z</time>
      </trkpt>
      <trkpt lat="45.73315" lon="6.70859">
        <ele>2461</ele>
        <time>2022-07-16T17:45:05Z</time>
      </trkpt>
      <trkpt lat="45.73318" lon="6.70861">
        <ele>2461</ele>
        <time>2022-07-16T17:45:07Z</time>
      </trkpt>
      <trkpt lat="45.7332" lon="6.70864">
        <ele>2461</ele>
        <time>2022-07-16T17:45:09Z</time>
      </trkpt>
      <trkpt lat="45.73321" lon="6.70865">
        <ele>2461</ele>
        <time>2022-07-16T17:45:11Z</time>
      </trkpt>
      <trkpt lat="45.73324" lon="6.70865">
        <ele>2461</ele>
        <time>2022-07-16T17:45:14Z</time>
      </trkpt>
      <trkpt lat="45.73326" lon="6.70864">
        <ele>2462</ele>
        <time>2022-07-16T17:45:16Z</time>
      </trkpt>
      <trkpt lat="45.73328" lon="6.70866">
        <ele>2462</ele>
        <time>2022-07-16T17:45:18Z</time>
      </trkpt>
      <trkpt lat="45.7333" lon="6.70868">
        <ele>2461</ele>
        <time>2022-07-16T17:45:20Z</time>
      </trkpt>
      <trkpt lat="45.73332" lon="6.7087">
        <ele>2461</ele>
        <time>2022-07-16T17:45:22Z</time>
      </trkpt>
      <trkpt lat="45.73334" lon="6.70871">
        <ele>2460</ele>
        <time>2022-07-16T17:45:26Z</time>
      </trkpt>
      <trkpt lat="45.73336" lon="6.70871">
        <ele>2460</ele>
        <time>2022-07-16T17:45:29Z</time>
      </trkpt>
      <trkpt lat="45.73338" lon="6.70873">
        <ele>2459</ele>
        <time>2022-07-16T17:45:32Z</time>
      </trkpt>
      <trkpt lat="45.73337" lon="6.7087">
        <ele>2458</ele>
        <time>2022-07-16T17:45:38Z</time>
      </trkpt>
      <trkpt lat="45.73339" lon="6.70868">
        <ele>2457</ele>
        <time>2022-07-16T17:45:41Z</time>
      </trkpt>
      <trkpt lat="45.73341" lon="6.70867">
        <ele>2457</ele>
        <time>2022-07-16T17:45:44Z</time>
      </trkpt>
      <trkpt lat="45.73343" lon="6.70866">
        <ele>2457</ele>
        <time>2022-07-16T17:45:47Z</time>
      </trkpt>
      <trkpt lat="45.73344" lon="6.70864">
        <ele>2456</ele>
        <time>2022-07-16T17:45:49Z</time>
      </trkpt>
      <trkpt lat="45.73345" lon="6.70861">
        <ele>2454</ele>
        <time>2022-07-16T17:45:51Z</time>
      </trkpt>
      <trkpt lat="45.73347" lon="6.7086">
        <ele>2454</ele>
        <time>2022-07-16T17:45:53Z</time>
      </trkpt>
      <trkpt lat="45.7335" lon="6.70859">
        <ele>2452</ele>
        <time>2022-07-16T17:45:56Z</time>
      </trkpt>
      <trkpt lat="45.73352" lon="6.70857">
        <ele>2452</ele>
        <time>2022-07-16T17:45:59Z</time>
      </trkpt>
      <trkpt lat="45.73355" lon="6.70857">
        <ele>2452</ele>
        <time>2022-07-16T17:46:02Z</time>
      </trkpt>
      <trkpt lat="45.73356" lon="6.70854">
        <ele>2451</ele>
        <time>2022-07-16T17:46:05Z</time>
      </trkpt>
      <trkpt lat="45.73358" lon="6.70852">
        <ele>2450</ele>
        <time>2022-07-16T17:46:07Z</time>
      </trkpt>
      <trkpt lat="45.7336" lon="6.70851">
        <ele>2450</ele>
        <time>2022-07-16T17:46:09Z</time>
      </trkpt>
      <trkpt lat="45.73363" lon="6.70851">
        <ele>2450</ele>
        <time>2022-07-16T17:46:11Z</time>
      </trkpt>
      <trkpt lat="45.73365" lon="6.7085">
        <ele>2450</ele>
        <time>2022-07-16T17:46:13Z</time>
      </trkpt>
      <trkpt lat="45.73366" lon="6.70849">
        <ele>2450</ele>
        <time>2022-07-16T17:46:15Z</time>
      </trkpt>
      <trkpt lat="45.73368" lon="6.70847">
        <ele>2450</ele>
        <time>2022-07-16T17:46:18Z</time>
      </trkpt>
      <trkpt lat="45.73371" lon="6.70847">
        <ele>2450</ele>
        <time>2022-07-16T17:46:22Z</time>
      </trkpt>
      <trkpt lat="45.73373" lon="6.70847">
        <ele>2449</ele>
        <time>2022-07-16T17:46:25Z</time>
      </trkpt>
      <trkpt lat="45.73375" lon="6.70845">
        <ele>2448</ele>
        <time>2022-07-16T17:46:28Z</time>
      </trkpt>
      <trkpt lat="45.73377" lon="6.70843">
        <ele>2447</ele>
        <time>2022-07-16T17:46:30Z</time>
      </trkpt>
      <trkpt lat="45.73379" lon="6.70843">
        <ele>2447</ele>
        <time>2022-07-16T17:46:33Z</time>
      </trkpt>
      <trkpt lat="45.73381" lon="6.70841">
        <ele>2446</ele>
        <time>2022-07-16T17:46:36Z</time>
      </trkpt>
      <trkpt lat="45.73383" lon="6.70839">
        <ele>2446</ele>
        <time>2022-07-16T17:46:39Z</time>
      </trkpt>
      <trkpt lat="45.73385" lon="6.70837">
        <ele>2445</ele>
        <time>2022-07-16T17:46:41Z</time>
      </trkpt>
      <trkpt lat="45.73387" lon="6.70835">
        <ele>2444</ele>
        <time>2022-07-16T17:46:42Z</time>
      </trkpt>
      <trkpt lat="45.7339" lon="6.70833">
        <ele>2444</ele>
        <time>2022-07-16T17:46:43Z</time>
      </trkpt>
      <trkpt lat="45.7339" lon="6.70832">
        <ele>2444</ele>
        <time>2022-07-16T17:46:44Z</time>
      </trkpt>
      <trkpt lat="45.73392" lon="6.70831">
        <ele>2444</ele>
        <time>2022-07-16T17:46:45Z</time>
      </trkpt>
      <trkpt lat="45.73394" lon="6.70829">
        <ele>2444</ele>
        <time>2022-07-16T17:46:46Z</time>
      </trkpt>
      <trkpt lat="45.73395" lon="6.70828">
        <ele>2443</ele>
        <time>2022-07-16T17:46:47Z</time>
      </trkpt>
      <trkpt lat="45.73397" lon="6.70828">
        <ele>2442</ele>
        <time>2022-07-16T17:46:48Z</time>
      </trkpt>
      <trkpt lat="45.734" lon="6.70826">
        <ele>2443</ele>
        <time>2022-07-16T17:46:50Z</time>
      </trkpt>
      <trkpt lat="45.73402" lon="6.70824">
        <ele>2443</ele>
        <time>2022-07-16T17:46:52Z</time>
      </trkpt>
      <trkpt lat="45.73403" lon="6.70821">
        <ele>2443</ele>
        <time>2022-07-16T17:46:54Z</time>
      </trkpt>
      <trkpt lat="45.73405" lon="6.70818">
        <ele>2443</ele>
        <time>2022-07-16T17:46:56Z</time>
      </trkpt>
      <trkpt lat="45.73406" lon="6.70814">
        <ele>2443</ele>
        <time>2022-07-16T17:46:58Z</time>
      </trkpt>
      <trkpt lat="45.73406" lon="6.70811">
        <ele>2443</ele>
        <time>2022-07-16T17:46:59Z</time>
      </trkpt>
      <trkpt lat="45.73407" lon="6.70809">
        <ele>2442</ele>
        <time>2022-07-16T17:47:00Z</time>
      </trkpt>
      <trkpt lat="45.73407" lon="6.70806">
        <ele>2442</ele>
        <time>2022-07-16T17:47:01Z</time>
      </trkpt>
      <trkpt lat="45.73408" lon="6.70803">
        <ele>2442</ele>
        <time>2022-07-16T17:47:02Z</time>
      </trkpt>
      <trkpt lat="45.73409" lon="6.70799">
        <ele>2441</ele>
        <time>2022-07-16T17:47:04Z</time>
      </trkpt>
      <trkpt lat="45.73411" lon="6.70796">
        <ele>2441</ele>
        <time>2022-07-16T17:47:06Z</time>
      </trkpt>
      <trkpt lat="45.73413" lon="6.70797">
        <ele>2441</ele>
        <time>2022-07-16T17:47:08Z</time>
      </trkpt>
      <trkpt lat="45.73415" lon="6.70798">
        <ele>2441</ele>
        <time>2022-07-16T17:47:10Z</time>
      </trkpt>
      <trkpt lat="45.73416" lon="6.708">
        <ele>2440</ele>
        <time>2022-07-16T17:47:12Z</time>
      </trkpt>
      <trkpt lat="45.73418" lon="6.70798">
        <ele>2440</ele>
        <time>2022-07-16T17:47:15Z</time>
      </trkpt>
      <trkpt lat="45.73418" lon="6.70795">
        <ele>2440</ele>
        <time>2022-07-16T17:47:17Z</time>
      </trkpt>
      <trkpt lat="45.7342" lon="6.70792">
        <ele>2439</ele>
        <time>2022-07-16T17:47:19Z</time>
      </trkpt>
      <trkpt lat="45.73423" lon="6.70789">
        <ele>2438</ele>
        <time>2022-07-16T17:47:21Z</time>
      </trkpt>
      <trkpt lat="45.73425" lon="6.70786">
        <ele>2438</ele>
        <time>2022-07-16T17:47:24Z</time>
      </trkpt>
      <trkpt lat="45.73427" lon="6.70784">
        <ele>2438</ele>
        <time>2022-07-16T17:47:25Z</time>
      </trkpt>
      <trkpt lat="45.73428" lon="6.70782">
        <ele>2438</ele>
        <time>2022-07-16T17:47:27Z</time>
      </trkpt>
      <trkpt lat="45.73429" lon="6.70779">
        <ele>2438</ele>
        <time>2022-07-16T17:47:29Z</time>
      </trkpt>
      <trkpt lat="45.73431" lon="6.70777">
        <ele>2438</ele>
        <time>2022-07-16T17:47:32Z</time>
      </trkpt>
      <trkpt lat="45.73431" lon="6.70772">
        <ele>2437</ele>
        <time>2022-07-16T17:47:34Z</time>
      </trkpt>
      <trkpt lat="45.73432" lon="6.70769">
        <ele>2437</ele>
        <time>2022-07-16T17:47:35Z</time>
      </trkpt>
      <trkpt lat="45.73433" lon="6.70765">
        <ele>2437</ele>
        <time>2022-07-16T17:47:37Z</time>
      </trkpt>
      <trkpt lat="45.73434" lon="6.7076">
        <ele>2437</ele>
        <time>2022-07-16T17:47:39Z</time>
      </trkpt>
      <trkpt lat="45.73435" lon="6.70757">
        <ele>2437</ele>
        <time>2022-07-16T17:47:40Z</time>
      </trkpt>
      <trkpt lat="45.73435" lon="6.70752">
        <ele>2436</ele>
        <time>2022-07-16T17:47:42Z</time>
      </trkpt>
      <trkpt lat="45.73436" lon="6.70749">
        <ele>2436</ele>
        <time>2022-07-16T17:47:43Z</time>
      </trkpt>
      <trkpt lat="45.73436" lon="6.70745">
        <ele>2436</ele>
        <time>2022-07-16T17:47:44Z</time>
      </trkpt>
      <trkpt lat="45.73437" lon="6.70744">
        <ele>2436</ele>
        <time>2022-07-16T17:47:45Z</time>
      </trkpt>
      <trkpt lat="45.73437" lon="6.70741">
        <ele>2435</ele>
        <time>2022-07-16T17:47:46Z</time>
      </trkpt>
      <trkpt lat="45.73438" lon="6.70738">
        <ele>2435</ele>
        <time>2022-07-16T17:47:47Z</time>
      </trkpt>
      <trkpt lat="45.73439" lon="6.70736">
        <ele>2435</ele>
        <time>2022-07-16T17:47:48Z</time>
      </trkpt>
      <trkpt lat="45.7344" lon="6.70734">
        <ele>2435</ele>
        <time>2022-07-16T17:47:49Z</time>
      </trkpt>
      <trkpt lat="45.73441" lon="6.70732">
        <ele>2435</ele>
        <time>2022-07-16T17:47:50Z</time>
      </trkpt>
      <trkpt lat="45.73442" lon="6.70729">
        <ele>2435</ele>
        <time>2022-07-16T17:47:51Z</time>
      </trkpt>
      <trkpt lat="45.73443" lon="6.70728">
        <ele>2435</ele>
        <time>2022-07-16T17:47:52Z</time>
      </trkpt>
      <trkpt lat="45.73445" lon="6.70726">
        <ele>2435</ele>
        <time>2022-07-16T17:47:53Z</time>
      </trkpt>
      <trkpt lat="45.73447" lon="6.70723">
        <ele>2435</ele>
        <time>2022-07-16T17:47:55Z</time>
      </trkpt>
      <trkpt lat="45.73448" lon="6.70721">
        <ele>2435</ele>
        <time>2022-07-16T17:47:57Z</time>
      </trkpt>
      <trkpt lat="45.7345" lon="6.70718">
        <ele>2433</ele>
        <time>2022-07-16T17:48:00Z</time>
      </trkpt>
      <trkpt lat="45.73452" lon="6.70717">
        <ele>2432</ele>
        <time>2022-07-16T17:48:02Z</time>
      </trkpt>
      <trkpt lat="45.73454" lon="6.70715">
        <ele>2432</ele>
        <time>2022-07-16T17:48:04Z</time>
      </trkpt>
      <trkpt lat="45.73456" lon="6.70714">
        <ele>2432</ele>
        <time>2022-07-16T17:48:05Z</time>
      </trkpt>
      <trkpt lat="45.73457" lon="6.70712">
        <ele>2432</ele>
        <time>2022-07-16T17:48:06Z</time>
      </trkpt>
      <trkpt lat="45.7346" lon="6.7071">
        <ele>2432</ele>
        <time>2022-07-16T17:48:08Z</time>
      </trkpt>
      <trkpt lat="45.73462" lon="6.70708">
        <ele>2432</ele>
        <time>2022-07-16T17:48:09Z</time>
      </trkpt>
      <trkpt lat="45.73463" lon="6.70707">
        <ele>2432</ele>
        <time>2022-07-16T17:48:10Z</time>
      </trkpt>
      <trkpt lat="45.73464" lon="6.70705">
        <ele>2432</ele>
        <time>2022-07-16T17:48:11Z</time>
      </trkpt>
      <trkpt lat="45.73466" lon="6.70704">
        <ele>2431</ele>
        <time>2022-07-16T17:48:12Z</time>
      </trkpt>
      <trkpt lat="45.73469" lon="6.70701">
        <ele>2431</ele>
        <time>2022-07-16T17:48:14Z</time>
      </trkpt>
      <trkpt lat="45.73472" lon="6.70699">
        <ele>2431</ele>
        <time>2022-07-16T17:48:16Z</time>
      </trkpt>
      <trkpt lat="45.73475" lon="6.70697">
        <ele>2430</ele>
        <time>2022-07-16T17:48:18Z</time>
      </trkpt>
      <trkpt lat="45.73477" lon="6.70695">
        <ele>2428</ele>
        <time>2022-07-16T17:48:20Z</time>
      </trkpt>
      <trkpt lat="45.73478" lon="6.70691">
        <ele>2428</ele>
        <time>2022-07-16T17:48:22Z</time>
      </trkpt>
      <trkpt lat="45.7348" lon="6.70688">
        <ele>2427</ele>
        <time>2022-07-16T17:48:24Z</time>
      </trkpt>
      <trkpt lat="45.73483" lon="6.70686">
        <ele>2427</ele>
        <time>2022-07-16T17:48:26Z</time>
      </trkpt>
      <trkpt lat="45.73486" lon="6.70684">
        <ele>2426</ele>
        <time>2022-07-16T17:48:28Z</time>
      </trkpt>
      <trkpt lat="45.73487" lon="6.70681">
        <ele>2426</ele>
        <time>2022-07-16T17:48:30Z</time>
      </trkpt>
      <trkpt lat="45.73489" lon="6.70677">
        <ele>2426</ele>
        <time>2022-07-16T17:48:32Z</time>
      </trkpt>
      <trkpt lat="45.73491" lon="6.70674">
        <ele>2426</ele>
        <time>2022-07-16T17:48:34Z</time>
      </trkpt>
      <trkpt lat="45.73492" lon="6.70671">
        <ele>2426</ele>
        <time>2022-07-16T17:48:36Z</time>
      </trkpt>
      <trkpt lat="45.73494" lon="6.70668">
        <ele>2426</ele>
        <time>2022-07-16T17:48:38Z</time>
      </trkpt>
      <trkpt lat="45.73495" lon="6.70667">
        <ele>2426</ele>
        <time>2022-07-16T17:48:40Z</time>
      </trkpt>
      <trkpt lat="45.73497" lon="6.70664">
        <ele>2425</ele>
        <time>2022-07-16T17:48:44Z</time>
      </trkpt>
      <trkpt lat="45.73496" lon="6.70662">
        <ele>2425</ele>
        <time>2022-07-16T17:48:47Z</time>
      </trkpt>
      <trkpt lat="45.73495" lon="6.7066">
        <ele>2425</ele>
        <time>2022-07-16T17:48:50Z</time>
      </trkpt>
      <trkpt lat="45.73493" lon="6.70659">
        <ele>2425</ele>
        <time>2022-07-16T17:48:52Z</time>
      </trkpt>
      <trkpt lat="45.73492" lon="6.70656">
        <ele>2425</ele>
        <time>2022-07-16T17:48:54Z</time>
      </trkpt>
      <trkpt lat="45.7349" lon="6.70653">
        <ele>2425</ele>
        <time>2022-07-16T17:48:56Z</time>
      </trkpt>
      <trkpt lat="45.73489" lon="6.7065">
        <ele>2424</ele>
        <time>2022-07-16T17:48:59Z</time>
      </trkpt>
      <trkpt lat="45.73487" lon="6.70648">
        <ele>2424</ele>
        <time>2022-07-16T17:49:00Z</time>
      </trkpt>
      <trkpt lat="45.73484" lon="6.70646">
        <ele>2423</ele>
        <time>2022-07-16T17:49:02Z</time>
      </trkpt>
      <trkpt lat="45.73482" lon="6.70644">
        <ele>2423</ele>
        <time>2022-07-16T17:49:04Z</time>
      </trkpt>
      <trkpt lat="45.7348" lon="6.70642">
        <ele>2423</ele>
        <time>2022-07-16T17:49:06Z</time>
      </trkpt>
      <trkpt lat="45.73477" lon="6.7064">
        <ele>2422</ele>
        <time>2022-07-16T17:49:08Z</time>
      </trkpt>
      <trkpt lat="45.73474" lon="6.70639">
        <ele>2422</ele>
        <time>2022-07-16T17:49:10Z</time>
      </trkpt>
      <trkpt lat="45.73471" lon="6.70638">
        <ele>2421</ele>
        <time>2022-07-16T17:49:12Z</time>
      </trkpt>
      <trkpt lat="45.73469" lon="6.70636">
        <ele>2421</ele>
        <time>2022-07-16T17:49:14Z</time>
      </trkpt>
      <trkpt lat="45.73467" lon="6.70635">
        <ele>2420</ele>
        <time>2022-07-16T17:49:16Z</time>
      </trkpt>
      <trkpt lat="45.73465" lon="6.70633">
        <ele>2420</ele>
        <time>2022-07-16T17:49:18Z</time>
      </trkpt>
      <trkpt lat="45.73463" lon="6.70631">
        <ele>2419</ele>
        <time>2022-07-16T17:49:20Z</time>
      </trkpt>
      <trkpt lat="45.73461" lon="6.70629">
        <ele>2418</ele>
        <time>2022-07-16T17:49:22Z</time>
      </trkpt>
      <trkpt lat="45.73458" lon="6.70628">
        <ele>2418</ele>
        <time>2022-07-16T17:49:24Z</time>
      </trkpt>
      <trkpt lat="45.73456" lon="6.70628">
        <ele>2417</ele>
        <time>2022-07-16T17:49:26Z</time>
      </trkpt>
      <trkpt lat="45.73453" lon="6.70627">
        <ele>2417</ele>
        <time>2022-07-16T17:49:28Z</time>
      </trkpt>
      <trkpt lat="45.73451" lon="6.70626">
        <ele>2415</ele>
        <time>2022-07-16T17:49:30Z</time>
      </trkpt>
      <trkpt lat="45.73448" lon="6.70625">
        <ele>2415</ele>
        <time>2022-07-16T17:49:32Z</time>
      </trkpt>
      <trkpt lat="45.73445" lon="6.70624">
        <ele>2415</ele>
        <time>2022-07-16T17:49:34Z</time>
      </trkpt>
      <trkpt lat="45.73443" lon="6.70622">
        <ele>2414</ele>
        <time>2022-07-16T17:49:36Z</time>
      </trkpt>
      <trkpt lat="45.73439" lon="6.70621">
        <ele>2413</ele>
        <time>2022-07-16T17:49:38Z</time>
      </trkpt>
      <trkpt lat="45.73436" lon="6.70619">
        <ele>2413</ele>
        <time>2022-07-16T17:49:40Z</time>
      </trkpt>
      <trkpt lat="45.73433" lon="6.70619">
        <ele>2413</ele>
        <time>2022-07-16T17:49:42Z</time>
      </trkpt>
      <trkpt lat="45.73431" lon="6.70618">
        <ele>2413</ele>
        <time>2022-07-16T17:49:44Z</time>
      </trkpt>
      <trkpt lat="45.73428" lon="6.70616">
        <ele>2412</ele>
        <time>2022-07-16T17:49:46Z</time>
      </trkpt>
      <trkpt lat="45.73426" lon="6.70613">
        <ele>2412</ele>
        <time>2022-07-16T17:49:48Z</time>
      </trkpt>
      <trkpt lat="45.73424" lon="6.70609">
        <ele>2411</ele>
        <time>2022-07-16T17:49:50Z</time>
      </trkpt>
      <trkpt lat="45.73423" lon="6.70606">
        <ele>2410</ele>
        <time>2022-07-16T17:49:52Z</time>
      </trkpt>
      <trkpt lat="45.73421" lon="6.70604">
        <ele>2410</ele>
        <time>2022-07-16T17:49:54Z</time>
      </trkpt>
      <trkpt lat="45.7342" lon="6.70602">
        <ele>2410</ele>
        <time>2022-07-16T17:49:57Z</time>
      </trkpt>
      <trkpt lat="45.73418" lon="6.706">
        <ele>2408</ele>
        <time>2022-07-16T17:49:59Z</time>
      </trkpt>
      <trkpt lat="45.73416" lon="6.70598">
        <ele>2408</ele>
        <time>2022-07-16T17:50:01Z</time>
      </trkpt>
      <trkpt lat="45.73414" lon="6.70596">
        <ele>2407</ele>
        <time>2022-07-16T17:50:03Z</time>
      </trkpt>
      <trkpt lat="45.73413" lon="6.70593">
        <ele>2406</ele>
        <time>2022-07-16T17:50:05Z</time>
      </trkpt>
      <trkpt lat="45.73412" lon="6.70591">
        <ele>2406</ele>
        <time>2022-07-16T17:50:07Z</time>
      </trkpt>
      <trkpt lat="45.7341" lon="6.70588">
        <ele>2406</ele>
        <time>2022-07-16T17:50:09Z</time>
      </trkpt>
      <trkpt lat="45.73409" lon="6.70584">
        <ele>2405</ele>
        <time>2022-07-16T17:50:11Z</time>
      </trkpt>
      <trkpt lat="45.73409" lon="6.70581">
        <ele>2405</ele>
        <time>2022-07-16T17:50:13Z</time>
      </trkpt>
      <trkpt lat="45.73408" lon="6.70579">
        <ele>2404</ele>
        <time>2022-07-16T17:50:16Z</time>
      </trkpt>
      <trkpt lat="45.73406" lon="6.70576">
        <ele>2402</ele>
        <time>2022-07-16T17:50:18Z</time>
      </trkpt>
      <trkpt lat="45.73405" lon="6.70574">
        <ele>2401</ele>
        <time>2022-07-16T17:50:20Z</time>
      </trkpt>
      <trkpt lat="45.73403" lon="6.70575">
        <ele>2401</ele>
        <time>2022-07-16T17:50:22Z</time>
      </trkpt>
      <trkpt lat="45.73401" lon="6.70575">
        <ele>2401</ele>
        <time>2022-07-16T17:50:24Z</time>
      </trkpt>
      <trkpt lat="45.73398" lon="6.70574">
        <ele>2401</ele>
        <time>2022-07-16T17:50:26Z</time>
      </trkpt>
      <trkpt lat="45.73396" lon="6.70573">
        <ele>2400</ele>
        <time>2022-07-16T17:50:28Z</time>
      </trkpt>
      <trkpt lat="45.73393" lon="6.70572">
        <ele>2400</ele>
        <time>2022-07-16T17:50:30Z</time>
      </trkpt>
      <trkpt lat="45.7339" lon="6.70571">
        <ele>2399</ele>
        <time>2022-07-16T17:50:32Z</time>
      </trkpt>
      <trkpt lat="45.73388" lon="6.70569">
        <ele>2399</ele>
        <time>2022-07-16T17:50:34Z</time>
      </trkpt>
      <trkpt lat="45.73386" lon="6.70568">
        <ele>2398</ele>
        <time>2022-07-16T17:50:36Z</time>
      </trkpt>
      <trkpt lat="45.73384" lon="6.70567">
        <ele>2397</ele>
        <time>2022-07-16T17:50:38Z</time>
      </trkpt>
      <trkpt lat="45.73381" lon="6.70566">
        <ele>2396</ele>
        <time>2022-07-16T17:50:40Z</time>
      </trkpt>
      <trkpt lat="45.7338" lon="6.70566">
        <ele>2396</ele>
        <time>2022-07-16T17:50:41Z</time>
      </trkpt>
      <trkpt lat="45.73379" lon="6.70566">
        <ele>2396</ele>
        <time>2022-07-16T17:50:42Z</time>
      </trkpt>
      <trkpt lat="45.73377" lon="6.70565">
        <ele>2396</ele>
        <time>2022-07-16T17:50:43Z</time>
      </trkpt>
      <trkpt lat="45.73374" lon="6.70564">
        <ele>2395</ele>
        <time>2022-07-16T17:50:45Z</time>
      </trkpt>
      <trkpt lat="45.73372" lon="6.70561">
        <ele>2395</ele>
        <time>2022-07-16T17:50:47Z</time>
      </trkpt>
      <trkpt lat="45.73371" lon="6.70558">
        <ele>2394</ele>
        <time>2022-07-16T17:50:49Z</time>
      </trkpt>
      <trkpt lat="45.7337" lon="6.70555">
        <ele>2394</ele>
        <time>2022-07-16T17:50:51Z</time>
      </trkpt>
      <trkpt lat="45.73368" lon="6.70553">
        <ele>2393</ele>
        <time>2022-07-16T17:50:53Z</time>
      </trkpt>
      <trkpt lat="45.73367" lon="6.70552">
        <ele>2393</ele>
        <time>2022-07-16T17:50:55Z</time>
      </trkpt>
      <trkpt lat="45.73364" lon="6.70552">
        <ele>2393</ele>
        <time>2022-07-16T17:50:57Z</time>
      </trkpt>
      <trkpt lat="45.73362" lon="6.7055">
        <ele>2393</ele>
        <time>2022-07-16T17:50:59Z</time>
      </trkpt>
      <trkpt lat="45.73359" lon="6.70549">
        <ele>2392</ele>
        <time>2022-07-16T17:51:01Z</time>
      </trkpt>
      <trkpt lat="45.73356" lon="6.70548">
        <ele>2391</ele>
        <time>2022-07-16T17:51:03Z</time>
      </trkpt>
      <trkpt lat="45.73354" lon="6.70548">
        <ele>2391</ele>
        <time>2022-07-16T17:51:05Z</time>
      </trkpt>
      <trkpt lat="45.73351" lon="6.70548">
        <ele>2391</ele>
        <time>2022-07-16T17:51:07Z</time>
      </trkpt>
      <trkpt lat="45.73348" lon="6.70547">
        <ele>2390</ele>
        <time>2022-07-16T17:51:09Z</time>
      </trkpt>
      <trkpt lat="45.73344" lon="6.70547">
        <ele>2390</ele>
        <time>2022-07-16T17:51:11Z</time>
      </trkpt>
      <trkpt lat="45.73341" lon="6.70546">
        <ele>2390</ele>
        <time>2022-07-16T17:51:13Z</time>
      </trkpt>
      <trkpt lat="45.73338" lon="6.70545">
        <ele>2389</ele>
        <time>2022-07-16T17:51:15Z</time>
      </trkpt>
      <trkpt lat="45.73336" lon="6.70544">
        <ele>2389</ele>
        <time>2022-07-16T17:51:17Z</time>
      </trkpt>
      <trkpt lat="45.73333" lon="6.70544">
        <ele>2389</ele>
        <time>2022-07-16T17:51:19Z</time>
      </trkpt>
      <trkpt lat="45.73331" lon="6.70542">
        <ele>2388</ele>
        <time>2022-07-16T17:51:21Z</time>
      </trkpt>
      <trkpt lat="45.73329" lon="6.70541">
        <ele>2387</ele>
        <time>2022-07-16T17:51:25Z</time>
      </trkpt>
      <trkpt lat="45.73328" lon="6.70538">
        <ele>2387</ele>
        <time>2022-07-16T17:51:28Z</time>
      </trkpt>
      <trkpt lat="45.73326" lon="6.70536">
        <ele>2387</ele>
        <time>2022-07-16T17:51:30Z</time>
      </trkpt>
      <trkpt lat="45.73324" lon="6.70534">
        <ele>2386</ele>
        <time>2022-07-16T17:51:32Z</time>
      </trkpt>
      <trkpt lat="45.73323" lon="6.70531">
        <ele>2385</ele>
        <time>2022-07-16T17:51:34Z</time>
      </trkpt>
      <trkpt lat="45.73321" lon="6.70529">
        <ele>2384</ele>
        <time>2022-07-16T17:51:36Z</time>
      </trkpt>
      <trkpt lat="45.73319" lon="6.70528">
        <ele>2384</ele>
        <time>2022-07-16T17:51:39Z</time>
      </trkpt>
      <trkpt lat="45.73317" lon="6.70528">
        <ele>2383</ele>
        <time>2022-07-16T17:51:41Z</time>
      </trkpt>
      <trkpt lat="45.73315" lon="6.70528">
        <ele>2383</ele>
        <time>2022-07-16T17:51:43Z</time>
      </trkpt>
      <trkpt lat="45.73313" lon="6.70527">
        <ele>2382</ele>
        <time>2022-07-16T17:51:45Z</time>
      </trkpt>
      <trkpt lat="45.73311" lon="6.70525">
        <ele>2382</ele>
        <time>2022-07-16T17:51:47Z</time>
      </trkpt>
      <trkpt lat="45.73309" lon="6.70524">
        <ele>2382</ele>
        <time>2022-07-16T17:51:49Z</time>
      </trkpt>
      <trkpt lat="45.73307" lon="6.70523">
        <ele>2381</ele>
        <time>2022-07-16T17:51:51Z</time>
      </trkpt>
      <trkpt lat="45.73306" lon="6.7052">
        <ele>2380</ele>
        <time>2022-07-16T17:51:53Z</time>
      </trkpt>
      <trkpt lat="45.73304" lon="6.70517">
        <ele>2379</ele>
        <time>2022-07-16T17:51:55Z</time>
      </trkpt>
      <trkpt lat="45.73302" lon="6.70515">
        <ele>2379</ele>
        <time>2022-07-16T17:51:57Z</time>
      </trkpt>
      <trkpt lat="45.733" lon="6.70513">
        <ele>2379</ele>
        <time>2022-07-16T17:51:59Z</time>
      </trkpt>
      <trkpt lat="45.73297" lon="6.70512">
        <ele>2378</ele>
        <time>2022-07-16T17:52:01Z</time>
      </trkpt>
      <trkpt lat="45.73294" lon="6.70509">
        <ele>2376</ele>
        <time>2022-07-16T17:52:03Z</time>
      </trkpt>
      <trkpt lat="45.73291" lon="6.70508">
        <ele>2376</ele>
        <time>2022-07-16T17:52:05Z</time>
      </trkpt>
      <trkpt lat="45.73289" lon="6.70507">
        <ele>2376</ele>
        <time>2022-07-16T17:52:06Z</time>
      </trkpt>
      <trkpt lat="45.73286" lon="6.70506">
        <ele>2375</ele>
        <time>2022-07-16T17:52:08Z</time>
      </trkpt>
      <trkpt lat="45.73283" lon="6.70504">
        <ele>2375</ele>
        <time>2022-07-16T17:52:10Z</time>
      </trkpt>
      <trkpt lat="45.7328" lon="6.70502">
        <ele>2374</ele>
        <time>2022-07-16T17:52:12Z</time>
      </trkpt>
      <trkpt lat="45.73277" lon="6.70502">
        <ele>2374</ele>
        <time>2022-07-16T17:52:14Z</time>
      </trkpt>
      <trkpt lat="45.73274" lon="6.70501">
        <ele>2373</ele>
        <time>2022-07-16T17:52:16Z</time>
      </trkpt>
      <trkpt lat="45.73271" lon="6.70501">
        <ele>2373</ele>
        <time>2022-07-16T17:52:18Z</time>
      </trkpt>
      <trkpt lat="45.73269" lon="6.705">
        <ele>2373</ele>
        <time>2022-07-16T17:52:20Z</time>
      </trkpt>
      <trkpt lat="45.73267" lon="6.70499">
        <ele>2373</ele>
        <time>2022-07-16T17:52:22Z</time>
      </trkpt>
      <trkpt lat="45.73264" lon="6.70497">
        <ele>2372</ele>
        <time>2022-07-16T17:52:24Z</time>
      </trkpt>
      <trkpt lat="45.73261" lon="6.70496">
        <ele>2371</ele>
        <time>2022-07-16T17:52:26Z</time>
      </trkpt>
      <trkpt lat="45.7326" lon="6.70492">
        <ele>2371</ele>
        <time>2022-07-16T17:52:28Z</time>
      </trkpt>
      <trkpt lat="45.73258" lon="6.70489">
        <ele>2370</ele>
        <time>2022-07-16T17:52:30Z</time>
      </trkpt>
      <trkpt lat="45.73255" lon="6.70487">
        <ele>2370</ele>
        <time>2022-07-16T17:52:32Z</time>
      </trkpt>
      <trkpt lat="45.73253" lon="6.70487">
        <ele>2369</ele>
        <time>2022-07-16T17:52:34Z</time>
      </trkpt>
      <trkpt lat="45.73252" lon="6.70484">
        <ele>2369</ele>
        <time>2022-07-16T17:52:37Z</time>
      </trkpt>
      <trkpt lat="45.73248" lon="6.70483">
        <ele>2369</ele>
        <time>2022-07-16T17:52:43Z</time>
      </trkpt>
      <trkpt lat="45.73247" lon="6.70483">
        <ele>2369</ele>
        <time>2022-07-16T17:52:44Z</time>
      </trkpt>
      <trkpt lat="45.73245" lon="6.70483">
        <ele>2369</ele>
        <time>2022-07-16T17:52:45Z</time>
      </trkpt>
      <trkpt lat="45.73242" lon="6.70481">
        <ele>2368</ele>
        <time>2022-07-16T17:52:47Z</time>
      </trkpt>
      <trkpt lat="45.73239" lon="6.7048">
        <ele>2367</ele>
        <time>2022-07-16T17:52:49Z</time>
      </trkpt>
      <trkpt lat="45.73237" lon="6.70479">
        <ele>2367</ele>
        <time>2022-07-16T17:52:51Z</time>
      </trkpt>
      <trkpt lat="45.73235" lon="6.70478">
        <ele>2367</ele>
        <time>2022-07-16T17:52:53Z</time>
      </trkpt>
      <trkpt lat="45.73233" lon="6.70477">
        <ele>2367</ele>
        <time>2022-07-16T17:52:55Z</time>
      </trkpt>
      <trkpt lat="45.73231" lon="6.70476">
        <ele>2367</ele>
        <time>2022-07-16T17:52:57Z</time>
      </trkpt>
      <trkpt lat="45.73228" lon="6.70475">
        <ele>2365</ele>
        <time>2022-07-16T17:53:00Z</time>
      </trkpt>
      <trkpt lat="45.73225" lon="6.70476">
        <ele>2364</ele>
        <time>2022-07-16T17:53:02Z</time>
      </trkpt>
      <trkpt lat="45.73222" lon="6.70475">
        <ele>2364</ele>
        <time>2022-07-16T17:53:04Z</time>
      </trkpt>
      <trkpt lat="45.73219" lon="6.70473">
        <ele>2363</ele>
        <time>2022-07-16T17:53:06Z</time>
      </trkpt>
      <trkpt lat="45.73217" lon="6.70473">
        <ele>2362</ele>
        <time>2022-07-16T17:53:08Z</time>
      </trkpt>
      <trkpt lat="45.73215" lon="6.70471">
        <ele>2362</ele>
        <time>2022-07-16T17:53:10Z</time>
      </trkpt>
      <trkpt lat="45.73213" lon="6.70469">
        <ele>2362</ele>
        <time>2022-07-16T17:53:12Z</time>
      </trkpt>
      <trkpt lat="45.73211" lon="6.70467">
        <ele>2361</ele>
        <time>2022-07-16T17:53:14Z</time>
      </trkpt>
      <trkpt lat="45.73209" lon="6.70465">
        <ele>2360</ele>
        <time>2022-07-16T17:53:16Z</time>
      </trkpt>
      <trkpt lat="45.73206" lon="6.70463">
        <ele>2359</ele>
        <time>2022-07-16T17:53:18Z</time>
      </trkpt>
      <trkpt lat="45.73203" lon="6.70462">
        <ele>2359</ele>
        <time>2022-07-16T17:53:20Z</time>
      </trkpt>
      <trkpt lat="45.732" lon="6.70461">
        <ele>2359</ele>
        <time>2022-07-16T17:53:22Z</time>
      </trkpt>
      <trkpt lat="45.73198" lon="6.7046">
        <ele>2358</ele>
        <time>2022-07-16T17:53:24Z</time>
      </trkpt>
      <trkpt lat="45.73196" lon="6.70458">
        <ele>2358</ele>
        <time>2022-07-16T17:53:26Z</time>
      </trkpt>
      <trkpt lat="45.73193" lon="6.70456">
        <ele>2357</ele>
        <time>2022-07-16T17:53:28Z</time>
      </trkpt>
      <trkpt lat="45.73191" lon="6.70455">
        <ele>2357</ele>
        <time>2022-07-16T17:53:30Z</time>
      </trkpt>
      <trkpt lat="45.73189" lon="6.70453">
        <ele>2357</ele>
        <time>2022-07-16T17:53:32Z</time>
      </trkpt>
      <trkpt lat="45.73187" lon="6.70452">
        <ele>2356</ele>
        <time>2022-07-16T17:53:34Z</time>
      </trkpt>
      <trkpt lat="45.73185" lon="6.70451">
        <ele>2356</ele>
        <time>2022-07-16T17:53:36Z</time>
      </trkpt>
      <trkpt lat="45.73184" lon="6.70449">
        <ele>2356</ele>
        <time>2022-07-16T17:53:38Z</time>
      </trkpt>
      <trkpt lat="45.73182" lon="6.70447">
        <ele>2356</ele>
        <time>2022-07-16T17:53:40Z</time>
      </trkpt>
      <trkpt lat="45.7318" lon="6.70447">
        <ele>2354</ele>
        <time>2022-07-16T17:53:42Z</time>
      </trkpt>
      <trkpt lat="45.73178" lon="6.70446">
        <ele>2354</ele>
        <time>2022-07-16T17:53:44Z</time>
      </trkpt>
      <trkpt lat="45.73175" lon="6.70445">
        <ele>2354</ele>
        <time>2022-07-16T17:53:46Z</time>
      </trkpt>
      <trkpt lat="45.73173" lon="6.70444">
        <ele>2354</ele>
        <time>2022-07-16T17:53:48Z</time>
      </trkpt>
      <trkpt lat="45.7317" lon="6.70442">
        <ele>2353</ele>
        <time>2022-07-16T17:53:50Z</time>
      </trkpt>
      <trkpt lat="45.73168" lon="6.7044">
        <ele>2353</ele>
        <time>2022-07-16T17:53:52Z</time>
      </trkpt>
      <trkpt lat="45.73166" lon="6.70438">
        <ele>2352</ele>
        <time>2022-07-16T17:53:54Z</time>
      </trkpt>
      <trkpt lat="45.73164" lon="6.70436">
        <ele>2350</ele>
        <time>2022-07-16T17:53:56Z</time>
      </trkpt>
      <trkpt lat="45.73162" lon="6.70434">
        <ele>2350</ele>
        <time>2022-07-16T17:53:58Z</time>
      </trkpt>
      <trkpt lat="45.73159" lon="6.70433">
        <ele>2350</ele>
        <time>2022-07-16T17:54:00Z</time>
      </trkpt>
      <trkpt lat="45.73158" lon="6.70432">
        <ele>2350</ele>
        <time>2022-07-16T17:54:01Z</time>
      </trkpt>
      <trkpt lat="45.73156" lon="6.70431">
        <ele>2350</ele>
        <time>2022-07-16T17:54:02Z</time>
      </trkpt>
      <trkpt lat="45.73154" lon="6.7043">
        <ele>2350</ele>
        <time>2022-07-16T17:54:03Z</time>
      </trkpt>
      <trkpt lat="45.73152" lon="6.70429">
        <ele>2348</ele>
        <time>2022-07-16T17:54:06Z</time>
      </trkpt>
      <trkpt lat="45.7315" lon="6.70427">
        <ele>2348</ele>
        <time>2022-07-16T17:54:09Z</time>
      </trkpt>
      <trkpt lat="45.73149" lon="6.70426">
        <ele>2347</ele>
        <time>2022-07-16T17:54:11Z</time>
      </trkpt>
      <trkpt lat="45.73148" lon="6.70423">
        <ele>2347</ele>
        <time>2022-07-16T17:54:13Z</time>
      </trkpt>
      <trkpt lat="45.73146" lon="6.70421">
        <ele>2347</ele>
        <time>2022-07-16T17:54:15Z</time>
      </trkpt>
      <trkpt lat="45.73144" lon="6.70419">
        <ele>2346</ele>
        <time>2022-07-16T17:54:17Z</time>
      </trkpt>
      <trkpt lat="45.73142" lon="6.70418">
        <ele>2346</ele>
        <time>2022-07-16T17:54:19Z</time>
      </trkpt>
      <trkpt lat="45.7314" lon="6.70416">
        <ele>2346</ele>
        <time>2022-07-16T17:54:21Z</time>
      </trkpt>
      <trkpt lat="45.73139" lon="6.70414">
        <ele>2346</ele>
        <time>2022-07-16T17:54:23Z</time>
      </trkpt>
      <trkpt lat="45.73138" lon="6.70412">
        <ele>2346</ele>
        <time>2022-07-16T17:54:25Z</time>
      </trkpt>
      <trkpt lat="45.73136" lon="6.70411">
        <ele>2345</ele>
        <time>2022-07-16T17:54:27Z</time>
      </trkpt>
      <trkpt lat="45.73134" lon="6.7041">
        <ele>2345</ele>
        <time>2022-07-16T17:54:29Z</time>
      </trkpt>
      <trkpt lat="45.73132" lon="6.70409">
        <ele>2345</ele>
        <time>2022-07-16T17:54:31Z</time>
      </trkpt>
      <trkpt lat="45.73129" lon="6.70408">
        <ele>2344</ele>
        <time>2022-07-16T17:54:33Z</time>
      </trkpt>
      <trkpt lat="45.73127" lon="6.70406">
        <ele>2344</ele>
        <time>2022-07-16T17:54:35Z</time>
      </trkpt>
      <trkpt lat="45.73125" lon="6.70403">
        <ele>2344</ele>
        <time>2022-07-16T17:54:37Z</time>
      </trkpt>
      <trkpt lat="45.73124" lon="6.70402">
        <ele>2344</ele>
        <time>2022-07-16T17:54:39Z</time>
      </trkpt>
      <trkpt lat="45.73121" lon="6.704">
        <ele>2344</ele>
        <time>2022-07-16T17:54:41Z</time>
      </trkpt>
      <trkpt lat="45.73117" lon="6.70399">
        <ele>2344</ele>
        <time>2022-07-16T17:54:43Z</time>
      </trkpt>
      <trkpt lat="45.73115" lon="6.70397">
        <ele>2343</ele>
        <time>2022-07-16T17:54:46Z</time>
      </trkpt>
      <trkpt lat="45.73113" lon="6.70396">
        <ele>2342</ele>
        <time>2022-07-16T17:54:48Z</time>
      </trkpt>
      <trkpt lat="45.73111" lon="6.70394">
        <ele>2342</ele>
        <time>2022-07-16T17:54:50Z</time>
      </trkpt>
      <trkpt lat="45.73109" lon="6.70393">
        <ele>2342</ele>
        <time>2022-07-16T17:54:52Z</time>
      </trkpt>
      <trkpt lat="45.73106" lon="6.7039">
        <ele>2342</ele>
        <time>2022-07-16T17:54:54Z</time>
      </trkpt>
      <trkpt lat="45.73104" lon="6.70388">
        <ele>2342</ele>
        <time>2022-07-16T17:54:56Z</time>
      </trkpt>
      <trkpt lat="45.73102" lon="6.70385">
        <ele>2342</ele>
        <time>2022-07-16T17:54:59Z</time>
      </trkpt>
      <trkpt lat="45.731" lon="6.70383">
        <ele>2342</ele>
        <time>2022-07-16T17:55:01Z</time>
      </trkpt>
      <trkpt lat="45.73098" lon="6.70381">
        <ele>2341</ele>
        <time>2022-07-16T17:55:04Z</time>
      </trkpt>
      <trkpt lat="45.73097" lon="6.70379">
        <ele>2341</ele>
        <time>2022-07-16T17:55:07Z</time>
      </trkpt>
      <trkpt lat="45.73095" lon="6.70379">
        <ele>2340</ele>
        <time>2022-07-16T17:55:12Z</time>
      </trkpt>
      <trkpt lat="45.73092" lon="6.70378">
        <ele>2339</ele>
        <time>2022-07-16T17:55:15Z</time>
      </trkpt>
      <trkpt lat="45.7309" lon="6.70376">
        <ele>2338</ele>
        <time>2022-07-16T17:55:17Z</time>
      </trkpt>
      <trkpt lat="45.73087" lon="6.70374">
        <ele>2338</ele>
        <time>2022-07-16T17:55:19Z</time>
      </trkpt>
      <trkpt lat="45.73085" lon="6.70373">
        <ele>2338</ele>
        <time>2022-07-16T17:55:20Z</time>
      </trkpt>
      <trkpt lat="45.73084" lon="6.70372">
        <ele>2337</ele>
        <time>2022-07-16T17:55:21Z</time>
      </trkpt>
      <trkpt lat="45.73082" lon="6.70371">
        <ele>2337</ele>
        <time>2022-07-16T17:55:22Z</time>
      </trkpt>
      <trkpt lat="45.7308" lon="6.70369">
        <ele>2337</ele>
        <time>2022-07-16T17:55:23Z</time>
      </trkpt>
      <trkpt lat="45.73079" lon="6.70368">
        <ele>2337</ele>
        <time>2022-07-16T17:55:24Z</time>
      </trkpt>
      <trkpt lat="45.73077" lon="6.70367">
        <ele>2337</ele>
        <time>2022-07-16T17:55:25Z</time>
      </trkpt>
      <trkpt lat="45.73076" lon="6.70366">
        <ele>2337</ele>
        <time>2022-07-16T17:55:26Z</time>
      </trkpt>
      <trkpt lat="45.73074" lon="6.70364">
        <ele>2337</ele>
        <time>2022-07-16T17:55:27Z</time>
      </trkpt>
      <trkpt lat="45.73072" lon="6.70361">
        <ele>2337</ele>
        <time>2022-07-16T17:55:29Z</time>
      </trkpt>
      <trkpt lat="45.73071" lon="6.70359">
        <ele>2337</ele>
        <time>2022-07-16T17:55:31Z</time>
      </trkpt>
      <trkpt lat="45.73069" lon="6.70357">
        <ele>2337</ele>
        <time>2022-07-16T17:55:33Z</time>
      </trkpt>
      <trkpt lat="45.73067" lon="6.70355">
        <ele>2337</ele>
        <time>2022-07-16T17:55:35Z</time>
      </trkpt>
      <trkpt lat="45.73065" lon="6.70353">
        <ele>2337</ele>
        <time>2022-07-16T17:55:38Z</time>
      </trkpt>
      <trkpt lat="45.73064" lon="6.70352">
        <ele>2338</ele>
        <time>2022-07-16T17:55:39Z</time>
      </trkpt>
      <trkpt lat="45.73062" lon="6.70349">
        <ele>2338</ele>
        <time>2022-07-16T17:55:42Z</time>
      </trkpt>
      <trkpt lat="45.7306" lon="6.70347">
        <ele>2338</ele>
        <time>2022-07-16T17:55:45Z</time>
      </trkpt>
      <trkpt lat="45.73057" lon="6.70346">
        <ele>2338</ele>
        <time>2022-07-16T17:55:48Z</time>
      </trkpt>
      <trkpt lat="45.73055" lon="6.70345">
        <ele>2337</ele>
        <time>2022-07-16T17:55:50Z</time>
      </trkpt>
      <trkpt lat="45.73053" lon="6.70343">
        <ele>2337</ele>
        <time>2022-07-16T17:55:53Z</time>
      </trkpt>
      <trkpt lat="45.73051" lon="6.70342">
        <ele>2336</ele>
        <time>2022-07-16T17:55:55Z</time>
      </trkpt>
      <trkpt lat="45.73049" lon="6.70341">
        <ele>2336</ele>
        <time>2022-07-16T17:55:57Z</time>
      </trkpt>
      <trkpt lat="45.73047" lon="6.70338">
        <ele>2334</ele>
        <time>2022-07-16T17:55:59Z</time>
      </trkpt>
      <trkpt lat="45.73046" lon="6.70336">
        <ele>2335</ele>
        <time>2022-07-16T17:56:01Z</time>
      </trkpt>
      <trkpt lat="45.73044" lon="6.70333">
        <ele>2335</ele>
        <time>2022-07-16T17:56:03Z</time>
      </trkpt>
      <trkpt lat="45.73043" lon="6.7033">
        <ele>2335</ele>
        <time>2022-07-16T17:56:05Z</time>
      </trkpt>
      <trkpt lat="45.73041" lon="6.70328">
        <ele>2334</ele>
        <time>2022-07-16T17:56:07Z</time>
      </trkpt>
      <trkpt lat="45.73039" lon="6.70325">
        <ele>2333</ele>
        <time>2022-07-16T17:56:09Z</time>
      </trkpt>
      <trkpt lat="45.73037" lon="6.70322">
        <ele>2332</ele>
        <time>2022-07-16T17:56:11Z</time>
      </trkpt>
      <trkpt lat="45.73035" lon="6.7032">
        <ele>2332</ele>
        <time>2022-07-16T17:56:13Z</time>
      </trkpt>
      <trkpt lat="45.73032" lon="6.70317">
        <ele>2332</ele>
        <time>2022-07-16T17:56:16Z</time>
      </trkpt>
      <trkpt lat="45.7303" lon="6.70314">
        <ele>2331</ele>
        <time>2022-07-16T17:56:18Z</time>
      </trkpt>
      <trkpt lat="45.73029" lon="6.70312">
        <ele>2331</ele>
        <time>2022-07-16T17:56:20Z</time>
      </trkpt>
      <trkpt lat="45.73027" lon="6.7031">
        <ele>2331</ele>
        <time>2022-07-16T17:56:22Z</time>
      </trkpt>
      <trkpt lat="45.73025" lon="6.70307">
        <ele>2331</ele>
        <time>2022-07-16T17:56:24Z</time>
      </trkpt>
      <trkpt lat="45.73023" lon="6.70304">
        <ele>2331</ele>
        <time>2022-07-16T17:56:26Z</time>
      </trkpt>
      <trkpt lat="45.73021" lon="6.70302">
        <ele>2331</ele>
        <time>2022-07-16T17:56:28Z</time>
      </trkpt>
      <trkpt lat="45.73019" lon="6.70301">
        <ele>2331</ele>
        <time>2022-07-16T17:56:30Z</time>
      </trkpt>
      <trkpt lat="45.73016" lon="6.70299">
        <ele>2331</ele>
        <time>2022-07-16T17:56:32Z</time>
      </trkpt>
      <trkpt lat="45.73014" lon="6.70297">
        <ele>2330</ele>
        <time>2022-07-16T17:56:34Z</time>
      </trkpt>
      <trkpt lat="45.73012" lon="6.70296">
        <ele>2330</ele>
        <time>2022-07-16T17:56:36Z</time>
      </trkpt>
      <trkpt lat="45.7301" lon="6.70295">
        <ele>2330</ele>
        <time>2022-07-16T17:56:38Z</time>
      </trkpt>
      <trkpt lat="45.73007" lon="6.70293">
        <ele>2329</ele>
        <time>2022-07-16T17:56:40Z</time>
      </trkpt>
      <trkpt lat="45.73005" lon="6.70291">
        <ele>2329</ele>
        <time>2022-07-16T17:56:42Z</time>
      </trkpt>
      <trkpt lat="45.73003" lon="6.70289">
        <ele>2328</ele>
        <time>2022-07-16T17:56:44Z</time>
      </trkpt>
      <trkpt lat="45.73001" lon="6.70286">
        <ele>2328</ele>
        <time>2022-07-16T17:56:46Z</time>
      </trkpt>
      <trkpt lat="45.72999" lon="6.70284">
        <ele>2327</ele>
        <time>2022-07-16T17:56:48Z</time>
      </trkpt>
      <trkpt lat="45.72997" lon="6.70282">
        <ele>2327</ele>
        <time>2022-07-16T17:56:50Z</time>
      </trkpt>
      <trkpt lat="45.72995" lon="6.70279">
        <ele>2327</ele>
        <time>2022-07-16T17:56:52Z</time>
      </trkpt>
      <trkpt lat="45.72994" lon="6.70277">
        <ele>2327</ele>
        <time>2022-07-16T17:56:54Z</time>
      </trkpt>
      <trkpt lat="45.72992" lon="6.70274">
        <ele>2326</ele>
        <time>2022-07-16T17:56:56Z</time>
      </trkpt>
      <trkpt lat="45.72991" lon="6.70271">
        <ele>2326</ele>
        <time>2022-07-16T17:56:58Z</time>
      </trkpt>
      <trkpt lat="45.72989" lon="6.70268">
        <ele>2324</ele>
        <time>2022-07-16T17:57:00Z</time>
      </trkpt>
      <trkpt lat="45.72987" lon="6.70267">
        <ele>2324</ele>
        <time>2022-07-16T17:57:02Z</time>
      </trkpt>
      <trkpt lat="45.72985" lon="6.70267">
        <ele>2323</ele>
        <time>2022-07-16T17:57:04Z</time>
      </trkpt>
      <trkpt lat="45.72982" lon="6.70268">
        <ele>2323</ele>
        <time>2022-07-16T17:57:06Z</time>
      </trkpt>
      <trkpt lat="45.72979" lon="6.70269">
        <ele>2323</ele>
        <time>2022-07-16T17:57:08Z</time>
      </trkpt>
      <trkpt lat="45.72977" lon="6.70269">
        <ele>2322</ele>
        <time>2022-07-16T17:57:10Z</time>
      </trkpt>
      <trkpt lat="45.72974" lon="6.70269">
        <ele>2322</ele>
        <time>2022-07-16T17:57:13Z</time>
      </trkpt>
      <trkpt lat="45.72971" lon="6.70267">
        <ele>2322</ele>
        <time>2022-07-16T17:57:14Z</time>
      </trkpt>
      <trkpt lat="45.72969" lon="6.70265">
        <ele>2322</ele>
        <time>2022-07-16T17:57:16Z</time>
      </trkpt>
      <trkpt lat="45.72967" lon="6.70264">
        <ele>2322</ele>
        <time>2022-07-16T17:57:18Z</time>
      </trkpt>
      <trkpt lat="45.72965" lon="6.70263">
        <ele>2322</ele>
        <time>2022-07-16T17:57:20Z</time>
      </trkpt>
      <trkpt lat="45.72963" lon="6.70263">
        <ele>2321</ele>
        <time>2022-07-16T17:57:22Z</time>
      </trkpt>
      <trkpt lat="45.72961" lon="6.70262">
        <ele>2321</ele>
        <time>2022-07-16T17:57:24Z</time>
      </trkpt>
      <trkpt lat="45.72958" lon="6.7026">
        <ele>2320</ele>
        <time>2022-07-16T17:57:27Z</time>
      </trkpt>
      <trkpt lat="45.72957" lon="6.70259">
        <ele>2320</ele>
        <time>2022-07-16T17:57:29Z</time>
      </trkpt>
      <trkpt lat="45.72955" lon="6.70258">
        <ele>2320</ele>
        <time>2022-07-16T17:57:31Z</time>
      </trkpt>
      <trkpt lat="45.72952" lon="6.70259">
        <ele>2320</ele>
        <time>2022-07-16T17:57:33Z</time>
      </trkpt>
      <trkpt lat="45.7295" lon="6.70258">
        <ele>2320</ele>
        <time>2022-07-16T17:57:35Z</time>
      </trkpt>
      <trkpt lat="45.72948" lon="6.70258">
        <ele>2320</ele>
        <time>2022-07-16T17:57:37Z</time>
      </trkpt>
      <trkpt lat="45.72946" lon="6.70258">
        <ele>2319</ele>
        <time>2022-07-16T17:57:39Z</time>
      </trkpt>
      <trkpt lat="45.72944" lon="6.70258">
        <ele>2318</ele>
        <time>2022-07-16T17:57:41Z</time>
      </trkpt>
      <trkpt lat="45.72941" lon="6.70258">
        <ele>2318</ele>
        <time>2022-07-16T17:57:43Z</time>
      </trkpt>
      <trkpt lat="45.72939" lon="6.70258">
        <ele>2318</ele>
        <time>2022-07-16T17:57:45Z</time>
      </trkpt>
      <trkpt lat="45.72937" lon="6.70258">
        <ele>2318</ele>
        <time>2022-07-16T17:57:47Z</time>
      </trkpt>
      <trkpt lat="45.72935" lon="6.70258">
        <ele>2318</ele>
        <time>2022-07-16T17:57:49Z</time>
      </trkpt>
      <trkpt lat="45.72932" lon="6.70257">
        <ele>2318</ele>
        <time>2022-07-16T17:57:51Z</time>
      </trkpt>
      <trkpt lat="45.7293" lon="6.70256">
        <ele>2317</ele>
        <time>2022-07-16T17:57:53Z</time>
      </trkpt>
      <trkpt lat="45.72928" lon="6.70255">
        <ele>2317</ele>
        <time>2022-07-16T17:57:55Z</time>
      </trkpt>
      <trkpt lat="45.72926" lon="6.70254">
        <ele>2317</ele>
        <time>2022-07-16T17:57:57Z</time>
      </trkpt>
      <trkpt lat="45.72923" lon="6.70253">
        <ele>2316</ele>
        <time>2022-07-16T17:58:00Z</time>
      </trkpt>
      <trkpt lat="45.72921" lon="6.70252">
        <ele>2316</ele>
        <time>2022-07-16T17:58:02Z</time>
      </trkpt>
      <trkpt lat="45.72919" lon="6.70251">
        <ele>2316</ele>
        <time>2022-07-16T17:58:04Z</time>
      </trkpt>
      <trkpt lat="45.72917" lon="6.70251">
        <ele>2316</ele>
        <time>2022-07-16T17:58:06Z</time>
      </trkpt>
      <trkpt lat="45.72914" lon="6.70252">
        <ele>2315</ele>
        <time>2022-07-16T17:58:08Z</time>
      </trkpt>
      <trkpt lat="45.72912" lon="6.70251">
        <ele>2315</ele>
        <time>2022-07-16T17:58:10Z</time>
      </trkpt>
      <trkpt lat="45.72909" lon="6.7025">
        <ele>2314</ele>
        <time>2022-07-16T17:58:12Z</time>
      </trkpt>
      <trkpt lat="45.72907" lon="6.70249">
        <ele>2314</ele>
        <time>2022-07-16T17:58:14Z</time>
      </trkpt>
      <trkpt lat="45.72905" lon="6.70249">
        <ele>2314</ele>
        <time>2022-07-16T17:58:16Z</time>
      </trkpt>
      <trkpt lat="45.72903" lon="6.70249">
        <ele>2313</ele>
        <time>2022-07-16T17:58:18Z</time>
      </trkpt>
      <trkpt lat="45.72901" lon="6.70248">
        <ele>2312</ele>
        <time>2022-07-16T17:58:20Z</time>
      </trkpt>
      <trkpt lat="45.72898" lon="6.70247">
        <ele>2312</ele>
        <time>2022-07-16T17:58:22Z</time>
      </trkpt>
      <trkpt lat="45.72896" lon="6.70247">
        <ele>2311</ele>
        <time>2022-07-16T17:58:24Z</time>
      </trkpt>
      <trkpt lat="45.72894" lon="6.70246">
        <ele>2311</ele>
        <time>2022-07-16T17:58:26Z</time>
      </trkpt>
      <trkpt lat="45.72892" lon="6.70246">
        <ele>2310</ele>
        <time>2022-07-16T17:58:28Z</time>
      </trkpt>
      <trkpt lat="45.7289" lon="6.70245">
        <ele>2310</ele>
        <time>2022-07-16T17:58:30Z</time>
      </trkpt>
      <trkpt lat="45.72888" lon="6.70245">
        <ele>2309</ele>
        <time>2022-07-16T17:58:32Z</time>
      </trkpt>
      <trkpt lat="45.72886" lon="6.70245">
        <ele>2309</ele>
        <time>2022-07-16T17:58:34Z</time>
      </trkpt>
      <trkpt lat="45.72884" lon="6.70245">
        <ele>2308</ele>
        <time>2022-07-16T17:58:36Z</time>
      </trkpt>
      <trkpt lat="45.72882" lon="6.70245">
        <ele>2307</ele>
        <time>2022-07-16T17:58:38Z</time>
      </trkpt>
      <trkpt lat="45.72879" lon="6.70244">
        <ele>2306</ele>
        <time>2022-07-16T17:58:41Z</time>
      </trkpt>
      <trkpt lat="45.72876" lon="6.70243">
        <ele>2306</ele>
        <time>2022-07-16T17:58:43Z</time>
      </trkpt>
      <trkpt lat="45.72874" lon="6.70242">
        <ele>2305</ele>
        <time>2022-07-16T17:58:45Z</time>
      </trkpt>
      <trkpt lat="45.7287" lon="6.70241">
        <ele>2305</ele>
        <time>2022-07-16T17:58:48Z</time>
      </trkpt>
      <trkpt lat="45.72868" lon="6.7024">
        <ele>2304</ele>
        <time>2022-07-16T17:58:50Z</time>
      </trkpt>
      <trkpt lat="45.72866" lon="6.70239">
        <ele>2304</ele>
        <time>2022-07-16T17:58:52Z</time>
      </trkpt>
      <trkpt lat="45.72864" lon="6.70239">
        <ele>2303</ele>
        <time>2022-07-16T17:58:54Z</time>
      </trkpt>
      <trkpt lat="45.72861" lon="6.70239">
        <ele>2303</ele>
        <time>2022-07-16T17:58:57Z</time>
      </trkpt>
      <trkpt lat="45.72859" lon="6.70239">
        <ele>2302</ele>
        <time>2022-07-16T17:58:59Z</time>
      </trkpt>
      <trkpt lat="45.72857" lon="6.70238">
        <ele>2301</ele>
        <time>2022-07-16T17:59:01Z</time>
      </trkpt>
      <trkpt lat="45.72855" lon="6.70236">
        <ele>2301</ele>
        <time>2022-07-16T17:59:03Z</time>
      </trkpt>
      <trkpt lat="45.72854" lon="6.70233">
        <ele>2301</ele>
        <time>2022-07-16T17:59:05Z</time>
      </trkpt>
      <trkpt lat="45.72852" lon="6.70232">
        <ele>2301</ele>
        <time>2022-07-16T17:59:07Z</time>
      </trkpt>
      <trkpt lat="45.72851" lon="6.70229">
        <ele>2298</ele>
        <time>2022-07-16T17:59:09Z</time>
      </trkpt>
      <trkpt lat="45.72848" lon="6.70228">
        <ele>2298</ele>
        <time>2022-07-16T17:59:12Z</time>
      </trkpt>
      <trkpt lat="45.72846" lon="6.70228">
        <ele>2298</ele>
        <time>2022-07-16T17:59:14Z</time>
      </trkpt>
      <trkpt lat="45.72842" lon="6.70227">
        <ele>2297</ele>
        <time>2022-07-16T17:59:16Z</time>
      </trkpt>
      <trkpt lat="45.7284" lon="6.70226">
        <ele>2297</ele>
        <time>2022-07-16T17:59:18Z</time>
      </trkpt>
      <trkpt lat="45.72837" lon="6.70226">
        <ele>2297</ele>
        <time>2022-07-16T17:59:20Z</time>
      </trkpt>
      <trkpt lat="45.72835" lon="6.70226">
        <ele>2297</ele>
        <time>2022-07-16T17:59:22Z</time>
      </trkpt>
      <trkpt lat="45.72832" lon="6.70227">
        <ele>2296</ele>
        <time>2022-07-16T17:59:26Z</time>
      </trkpt>
      <trkpt lat="45.7283" lon="6.70226">
        <ele>2295</ele>
        <time>2022-07-16T17:59:28Z</time>
      </trkpt>
      <trkpt lat="45.72829" lon="6.70224">
        <ele>2294</ele>
        <time>2022-07-16T17:59:31Z</time>
      </trkpt>
      <trkpt lat="45.72827" lon="6.70225">
        <ele>2294</ele>
        <time>2022-07-16T17:59:33Z</time>
      </trkpt>
      <trkpt lat="45.72825" lon="6.70225">
        <ele>2294</ele>
        <time>2022-07-16T17:59:35Z</time>
      </trkpt>
      <trkpt lat="45.72823" lon="6.70223">
        <ele>2293</ele>
        <time>2022-07-16T17:59:37Z</time>
      </trkpt>
      <trkpt lat="45.72823" lon="6.7022">
        <ele>2293</ele>
        <time>2022-07-16T17:59:39Z</time>
      </trkpt>
      <trkpt lat="45.72822" lon="6.70217">
        <ele>2292</ele>
        <time>2022-07-16T17:59:41Z</time>
      </trkpt>
      <trkpt lat="45.72819" lon="6.70214">
        <ele>2291</ele>
        <time>2022-07-16T17:59:45Z</time>
      </trkpt>
      <trkpt lat="45.72817" lon="6.70213">
        <ele>2290</ele>
        <time>2022-07-16T17:59:47Z</time>
      </trkpt>
      <trkpt lat="45.72816" lon="6.70211">
        <ele>2290</ele>
        <time>2022-07-16T17:59:49Z</time>
      </trkpt>
      <trkpt lat="45.72814" lon="6.7021">
        <ele>2290</ele>
        <time>2022-07-16T17:59:51Z</time>
      </trkpt>
      <trkpt lat="45.72811" lon="6.70209">
        <ele>2290</ele>
        <time>2022-07-16T17:59:53Z</time>
      </trkpt>
      <trkpt lat="45.72808" lon="6.70208">
        <ele>2289</ele>
        <time>2022-07-16T17:59:55Z</time>
      </trkpt>
      <trkpt lat="45.72806" lon="6.70207">
        <ele>2289</ele>
        <time>2022-07-16T17:59:57Z</time>
      </trkpt>
      <trkpt lat="45.72803" lon="6.70207">
        <ele>2289</ele>
        <time>2022-07-16T17:59:59Z</time>
      </trkpt>
      <trkpt lat="45.72801" lon="6.70206">
        <ele>2289</ele>
        <time>2022-07-16T18:00:01Z</time>
      </trkpt>
      <trkpt lat="45.72798" lon="6.70204">
        <ele>2289</ele>
        <time>2022-07-16T18:00:03Z</time>
      </trkpt>
      <trkpt lat="45.72796" lon="6.70203">
        <ele>2289</ele>
        <time>2022-07-16T18:00:05Z</time>
      </trkpt>
      <trkpt lat="45.72794" lon="6.70201">
        <ele>2288</ele>
        <time>2022-07-16T18:00:07Z</time>
      </trkpt>
      <trkpt lat="45.72792" lon="6.702">
        <ele>2288</ele>
        <time>2022-07-16T18:00:09Z</time>
      </trkpt>
      <trkpt lat="45.7279" lon="6.702">
        <ele>2288</ele>
        <time>2022-07-16T18:00:11Z</time>
      </trkpt>
      <trkpt lat="45.72787" lon="6.70199">
        <ele>2287</ele>
        <time>2022-07-16T18:00:13Z</time>
      </trkpt>
      <trkpt lat="45.72785" lon="6.70198">
        <ele>2286</ele>
        <time>2022-07-16T18:00:15Z</time>
      </trkpt>
      <trkpt lat="45.72783" lon="6.70197">
        <ele>2286</ele>
        <time>2022-07-16T18:00:17Z</time>
      </trkpt>
      <trkpt lat="45.7278" lon="6.70196">
        <ele>2285</ele>
        <time>2022-07-16T18:00:19Z</time>
      </trkpt>
      <trkpt lat="45.72778" lon="6.70195">
        <ele>2285</ele>
        <time>2022-07-16T18:00:21Z</time>
      </trkpt>
      <trkpt lat="45.72775" lon="6.70193">
        <ele>2285</ele>
        <time>2022-07-16T18:00:23Z</time>
      </trkpt>
      <trkpt lat="45.72773" lon="6.70191">
        <ele>2283</ele>
        <time>2022-07-16T18:00:25Z</time>
      </trkpt>
      <trkpt lat="45.72772" lon="6.70188">
        <ele>2283</ele>
        <time>2022-07-16T18:00:27Z</time>
      </trkpt>
      <trkpt lat="45.72772" lon="6.70185">
        <ele>2283</ele>
        <time>2022-07-16T18:00:29Z</time>
      </trkpt>
      <trkpt lat="45.72773" lon="6.70181">
        <ele>2284</ele>
        <time>2022-07-16T18:00:31Z</time>
      </trkpt>
      <trkpt lat="45.72774" lon="6.70179">
        <ele>2284</ele>
        <time>2022-07-16T18:00:33Z</time>
      </trkpt>
      <trkpt lat="45.72776" lon="6.70177">
        <ele>2283</ele>
        <time>2022-07-16T18:00:36Z</time>
      </trkpt>
      <trkpt lat="45.72779" lon="6.70176">
        <ele>2282</ele>
        <time>2022-07-16T18:00:39Z</time>
      </trkpt>
      <trkpt lat="45.72781" lon="6.70176">
        <ele>2281</ele>
        <time>2022-07-16T18:00:41Z</time>
      </trkpt>
      <trkpt lat="45.72783" lon="6.70174">
        <ele>2281</ele>
        <time>2022-07-16T18:00:43Z</time>
      </trkpt>
      <trkpt lat="45.72785" lon="6.70174">
        <ele>2280</ele>
        <time>2022-07-16T18:00:45Z</time>
      </trkpt>
      <trkpt lat="45.72789" lon="6.70174">
        <ele>2280</ele>
        <time>2022-07-16T18:00:47Z</time>
      </trkpt>
      <trkpt lat="45.72792" lon="6.70174">
        <ele>2280</ele>
        <time>2022-07-16T18:00:49Z</time>
      </trkpt>
      <trkpt lat="45.72795" lon="6.70173">
        <ele>2278</ele>
        <time>2022-07-16T18:00:51Z</time>
      </trkpt>
      <trkpt lat="45.72799" lon="6.70173">
        <ele>2277</ele>
        <time>2022-07-16T18:00:53Z</time>
      </trkpt>
      <trkpt lat="45.72801" lon="6.70173">
        <ele>2277</ele>
        <time>2022-07-16T18:00:54Z</time>
      </trkpt>
      <trkpt lat="45.72804" lon="6.70173">
        <ele>2277</ele>
        <time>2022-07-16T18:00:56Z</time>
      </trkpt>
      <trkpt lat="45.72802" lon="6.7017">
        <ele>2276</ele>
        <time>2022-07-16T18:01:01Z</time>
      </trkpt>
      <trkpt lat="45.72799" lon="6.70168">
        <ele>2274</ele>
        <time>2022-07-16T18:01:03Z</time>
      </trkpt>
      <trkpt lat="45.72796" lon="6.70168">
        <ele>2274</ele>
        <time>2022-07-16T18:01:05Z</time>
      </trkpt>
      <trkpt lat="45.72793" lon="6.70166">
        <ele>2272</ele>
        <time>2022-07-16T18:01:07Z</time>
      </trkpt>
      <trkpt lat="45.7279" lon="6.70164">
        <ele>2272</ele>
        <time>2022-07-16T18:01:09Z</time>
      </trkpt>
      <trkpt lat="45.72787" lon="6.70162">
        <ele>2272</ele>
        <time>2022-07-16T18:01:11Z</time>
      </trkpt>
      <trkpt lat="45.72785" lon="6.7016">
        <ele>2271</ele>
        <time>2022-07-16T18:01:13Z</time>
      </trkpt>
      <trkpt lat="45.72782" lon="6.70158">
        <ele>2271</ele>
        <time>2022-07-16T18:01:15Z</time>
      </trkpt>
      <trkpt lat="45.72781" lon="6.70157">
        <ele>2271</ele>
        <time>2022-07-16T18:01:17Z</time>
      </trkpt>
      <trkpt lat="45.72779" lon="6.70154">
        <ele>2271</ele>
        <time>2022-07-16T18:01:19Z</time>
      </trkpt>
      <trkpt lat="45.72777" lon="6.70151">
        <ele>2270</ele>
        <time>2022-07-16T18:01:21Z</time>
      </trkpt>
      <trkpt lat="45.72774" lon="6.70149">
        <ele>2270</ele>
        <time>2022-07-16T18:01:23Z</time>
      </trkpt>
      <trkpt lat="45.72771" lon="6.70146">
        <ele>2269</ele>
        <time>2022-07-16T18:01:25Z</time>
      </trkpt>
      <trkpt lat="45.72769" lon="6.70144">
        <ele>2269</ele>
        <time>2022-07-16T18:01:27Z</time>
      </trkpt>
      <trkpt lat="45.72766" lon="6.70142">
        <ele>2269</ele>
        <time>2022-07-16T18:01:29Z</time>
      </trkpt>
      <trkpt lat="45.72763" lon="6.7014">
        <ele>2268</ele>
        <time>2022-07-16T18:01:31Z</time>
      </trkpt>
      <trkpt lat="45.7276" lon="6.70138">
        <ele>2268</ele>
        <time>2022-07-16T18:01:33Z</time>
      </trkpt>
      <trkpt lat="45.72758" lon="6.70136">
        <ele>2267</ele>
        <time>2022-07-16T18:01:34Z</time>
      </trkpt>
      <trkpt lat="45.72755" lon="6.70135">
        <ele>2266</ele>
        <time>2022-07-16T18:01:36Z</time>
      </trkpt>
      <trkpt lat="45.72753" lon="6.70133">
        <ele>2266</ele>
        <time>2022-07-16T18:01:39Z</time>
      </trkpt>
      <trkpt lat="45.7275" lon="6.70133">
        <ele>2265</ele>
        <time>2022-07-16T18:01:40Z</time>
      </trkpt>
      <trkpt lat="45.72747" lon="6.70132">
        <ele>2264</ele>
        <time>2022-07-16T18:01:42Z</time>
      </trkpt>
      <trkpt lat="45.72744" lon="6.7013">
        <ele>2264</ele>
        <time>2022-07-16T18:01:44Z</time>
      </trkpt>
      <trkpt lat="45.72742" lon="6.70128">
        <ele>2263</ele>
        <time>2022-07-16T18:01:46Z</time>
      </trkpt>
      <trkpt lat="45.72739" lon="6.70125">
        <ele>2262</ele>
        <time>2022-07-16T18:01:48Z</time>
      </trkpt>
      <trkpt lat="45.72736" lon="6.70123">
        <ele>2261</ele>
        <time>2022-07-16T18:01:50Z</time>
      </trkpt>
      <trkpt lat="45.72734" lon="6.70122">
        <ele>2261</ele>
        <time>2022-07-16T18:01:52Z</time>
      </trkpt>
      <trkpt lat="45.72732" lon="6.7012">
        <ele>2261</ele>
        <time>2022-07-16T18:01:54Z</time>
      </trkpt>
      <trkpt lat="45.7273" lon="6.70117">
        <ele>2261</ele>
        <time>2022-07-16T18:01:56Z</time>
      </trkpt>
      <trkpt lat="45.72728" lon="6.70115">
        <ele>2261</ele>
        <time>2022-07-16T18:01:58Z</time>
      </trkpt>
      <trkpt lat="45.72725" lon="6.70114">
        <ele>2259</ele>
        <time>2022-07-16T18:02:00Z</time>
      </trkpt>
      <trkpt lat="45.72724" lon="6.70114">
        <ele>2259</ele>
        <time>2022-07-16T18:02:01Z</time>
      </trkpt>
      <trkpt lat="45.72722" lon="6.70113">
        <ele>2259</ele>
        <time>2022-07-16T18:02:02Z</time>
      </trkpt>
      <trkpt lat="45.7272" lon="6.70113">
        <ele>2259</ele>
        <time>2022-07-16T18:02:03Z</time>
      </trkpt>
      <trkpt lat="45.72717" lon="6.70112">
        <ele>2257</ele>
        <time>2022-07-16T18:02:05Z</time>
      </trkpt>
      <trkpt lat="45.72714" lon="6.7011">
        <ele>2257</ele>
        <time>2022-07-16T18:02:07Z</time>
      </trkpt>
      <trkpt lat="45.72712" lon="6.70109">
        <ele>2257</ele>
        <time>2022-07-16T18:02:09Z</time>
      </trkpt>
      <trkpt lat="45.72709" lon="6.70107">
        <ele>2256</ele>
        <time>2022-07-16T18:02:11Z</time>
      </trkpt>
      <trkpt lat="45.72707" lon="6.70104">
        <ele>2255</ele>
        <time>2022-07-16T18:02:13Z</time>
      </trkpt>
      <trkpt lat="45.72705" lon="6.70101">
        <ele>2254</ele>
        <time>2022-07-16T18:02:15Z</time>
      </trkpt>
      <trkpt lat="45.72703" lon="6.701">
        <ele>2254</ele>
        <time>2022-07-16T18:02:17Z</time>
      </trkpt>
      <trkpt lat="45.72701" lon="6.70098">
        <ele>2252</ele>
        <time>2022-07-16T18:02:19Z</time>
      </trkpt>
      <trkpt lat="45.72699" lon="6.70098">
        <ele>2252</ele>
        <time>2022-07-16T18:02:21Z</time>
      </trkpt>
      <trkpt lat="45.72696" lon="6.70098">
        <ele>2252</ele>
        <time>2022-07-16T18:02:23Z</time>
      </trkpt>
      <trkpt lat="45.72693" lon="6.70097">
        <ele>2251</ele>
        <time>2022-07-16T18:02:25Z</time>
      </trkpt>
      <trkpt lat="45.72691" lon="6.70096">
        <ele>2251</ele>
        <time>2022-07-16T18:02:27Z</time>
      </trkpt>
      <trkpt lat="45.72688" lon="6.70094">
        <ele>2250</ele>
        <time>2022-07-16T18:02:29Z</time>
      </trkpt>
      <trkpt lat="45.72685" lon="6.70093">
        <ele>2250</ele>
        <time>2022-07-16T18:02:31Z</time>
      </trkpt>
      <trkpt lat="45.72683" lon="6.7009">
        <ele>2249</ele>
        <time>2022-07-16T18:02:33Z</time>
      </trkpt>
      <trkpt lat="45.7268" lon="6.70088">
        <ele>2248</ele>
        <time>2022-07-16T18:02:36Z</time>
      </trkpt>
      <trkpt lat="45.72678" lon="6.70087">
        <ele>2248</ele>
        <time>2022-07-16T18:02:37Z</time>
      </trkpt>
      <trkpt lat="45.72674" lon="6.70086">
        <ele>2246</ele>
        <time>2022-07-16T18:02:39Z</time>
      </trkpt>
      <trkpt lat="45.72672" lon="6.70085">
        <ele>2245</ele>
        <time>2022-07-16T18:02:41Z</time>
      </trkpt>
      <trkpt lat="45.72669" lon="6.70085">
        <ele>2244</ele>
        <time>2022-07-16T18:02:43Z</time>
      </trkpt>
      <trkpt lat="45.72666" lon="6.70084">
        <ele>2244</ele>
        <time>2022-07-16T18:02:45Z</time>
      </trkpt>
      <trkpt lat="45.72662" lon="6.70082">
        <ele>2243</ele>
        <time>2022-07-16T18:02:47Z</time>
      </trkpt>
      <trkpt lat="45.72659" lon="6.70081">
        <ele>2243</ele>
        <time>2022-07-16T18:02:49Z</time>
      </trkpt>
      <trkpt lat="45.72656" lon="6.7008">
        <ele>2243</ele>
        <time>2022-07-16T18:02:51Z</time>
      </trkpt>
      <trkpt lat="45.72653" lon="6.70079">
        <ele>2241</ele>
        <time>2022-07-16T18:02:53Z</time>
      </trkpt>
      <trkpt lat="45.72651" lon="6.70078">
        <ele>2241</ele>
        <time>2022-07-16T18:02:55Z</time>
      </trkpt>
      <trkpt lat="45.72648" lon="6.70076">
        <ele>2241</ele>
        <time>2022-07-16T18:02:57Z</time>
      </trkpt>
      <trkpt lat="45.72646" lon="6.70074">
        <ele>2241</ele>
        <time>2022-07-16T18:02:59Z</time>
      </trkpt>
      <trkpt lat="45.72645" lon="6.70072">
        <ele>2240</ele>
        <time>2022-07-16T18:03:01Z</time>
      </trkpt>
      <trkpt lat="45.72643" lon="6.70069">
        <ele>2240</ele>
        <time>2022-07-16T18:03:03Z</time>
      </trkpt>
      <trkpt lat="45.7264" lon="6.70066">
        <ele>2239</ele>
        <time>2022-07-16T18:03:05Z</time>
      </trkpt>
      <trkpt lat="45.72638" lon="6.70062">
        <ele>2239</ele>
        <time>2022-07-16T18:03:07Z</time>
      </trkpt>
      <trkpt lat="45.72638" lon="6.70059">
        <ele>2238</ele>
        <time>2022-07-16T18:03:09Z</time>
      </trkpt>
      <trkpt lat="45.72637" lon="6.70056">
        <ele>2238</ele>
        <time>2022-07-16T18:03:12Z</time>
      </trkpt>
      <trkpt lat="45.72634" lon="6.70054">
        <ele>2238</ele>
        <time>2022-07-16T18:03:14Z</time>
      </trkpt>
      <trkpt lat="45.72632" lon="6.70054">
        <ele>2237</ele>
        <time>2022-07-16T18:03:16Z</time>
      </trkpt>
      <trkpt lat="45.72629" lon="6.70053">
        <ele>2237</ele>
        <time>2022-07-16T18:03:18Z</time>
      </trkpt>
      <trkpt lat="45.72626" lon="6.70052">
        <ele>2236</ele>
        <time>2022-07-16T18:03:20Z</time>
      </trkpt>
      <trkpt lat="45.72623" lon="6.70051">
        <ele>2235</ele>
        <time>2022-07-16T18:03:22Z</time>
      </trkpt>
      <trkpt lat="45.72619" lon="6.70049">
        <ele>2235</ele>
        <time>2022-07-16T18:03:24Z</time>
      </trkpt>
      <trkpt lat="45.72616" lon="6.70048">
        <ele>2234</ele>
        <time>2022-07-16T18:03:26Z</time>
      </trkpt>
      <trkpt lat="45.72614" lon="6.70044">
        <ele>2234</ele>
        <time>2022-07-16T18:03:28Z</time>
      </trkpt>
      <trkpt lat="45.72611" lon="6.70043">
        <ele>2234</ele>
        <time>2022-07-16T18:03:30Z</time>
      </trkpt>
      <trkpt lat="45.72608" lon="6.70039">
        <ele>2233</ele>
        <time>2022-07-16T18:03:33Z</time>
      </trkpt>
      <trkpt lat="45.72605" lon="6.70038">
        <ele>2232</ele>
        <time>2022-07-16T18:03:35Z</time>
      </trkpt>
      <trkpt lat="45.72602" lon="6.70036">
        <ele>2232</ele>
        <time>2022-07-16T18:03:37Z</time>
      </trkpt>
      <trkpt lat="45.72599" lon="6.70036">
        <ele>2232</ele>
        <time>2022-07-16T18:03:39Z</time>
      </trkpt>
      <trkpt lat="45.72597" lon="6.70034">
        <ele>2230</ele>
        <time>2022-07-16T18:03:41Z</time>
      </trkpt>
      <trkpt lat="45.72595" lon="6.70032">
        <ele>2229</ele>
        <time>2022-07-16T18:03:43Z</time>
      </trkpt>
      <trkpt lat="45.72593" lon="6.70033">
        <ele>2228</ele>
        <time>2022-07-16T18:03:46Z</time>
      </trkpt>
      <trkpt lat="45.72593" lon="6.70037">
        <ele>2226</ele>
        <time>2022-07-16T18:03:50Z</time>
      </trkpt>
      <trkpt lat="45.72594" lon="6.70039">
        <ele>2226</ele>
        <time>2022-07-16T18:03:52Z</time>
      </trkpt>
      <trkpt lat="45.72596" lon="6.70041">
        <ele>2226</ele>
        <time>2022-07-16T18:03:54Z</time>
      </trkpt>
      <trkpt lat="45.72596" lon="6.70045">
        <ele>2225</ele>
        <time>2022-07-16T18:03:58Z</time>
      </trkpt>
      <trkpt lat="45.72595" lon="6.70048">
        <ele>2225</ele>
        <time>2022-07-16T18:04:00Z</time>
      </trkpt>
      <trkpt lat="45.72595" lon="6.70051">
        <ele>2224</ele>
        <time>2022-07-16T18:04:02Z</time>
      </trkpt>
      <trkpt lat="45.72596" lon="6.70054">
        <ele>2224</ele>
        <time>2022-07-16T18:04:04Z</time>
      </trkpt>
      <trkpt lat="45.72595" lon="6.70057">
        <ele>2224</ele>
        <time>2022-07-16T18:04:06Z</time>
      </trkpt>
      <trkpt lat="45.72596" lon="6.70061">
        <ele>2223</ele>
        <time>2022-07-16T18:04:08Z</time>
      </trkpt>
      <trkpt lat="45.72595" lon="6.70065">
        <ele>2220</ele>
        <time>2022-07-16T18:04:11Z</time>
      </trkpt>
      <trkpt lat="45.72593" lon="6.70066">
        <ele>2219</ele>
        <time>2022-07-16T18:04:15Z</time>
      </trkpt>
      <trkpt lat="45.72591" lon="6.70065">
        <ele>2218</ele>
        <time>2022-07-16T18:04:17Z</time>
      </trkpt>
      <trkpt lat="45.72589" lon="6.70064">
        <ele>2218</ele>
        <time>2022-07-16T18:04:19Z</time>
      </trkpt>
      <trkpt lat="45.72587" lon="6.70061">
        <ele>2217</ele>
        <time>2022-07-16T18:04:21Z</time>
      </trkpt>
      <trkpt lat="45.72586" lon="6.70058">
        <ele>2217</ele>
        <time>2022-07-16T18:04:23Z</time>
      </trkpt>
      <trkpt lat="45.72584" lon="6.70056">
        <ele>2216</ele>
        <time>2022-07-16T18:04:25Z</time>
      </trkpt>
      <trkpt lat="45.72583" lon="6.70053">
        <ele>2216</ele>
        <time>2022-07-16T18:04:27Z</time>
      </trkpt>
      <trkpt lat="45.72581" lon="6.70051">
        <ele>2215</ele>
        <time>2022-07-16T18:04:29Z</time>
      </trkpt>
      <trkpt lat="45.72579" lon="6.70049">
        <ele>2214</ele>
        <time>2022-07-16T18:04:31Z</time>
      </trkpt>
      <trkpt lat="45.72577" lon="6.70046">
        <ele>2213</ele>
        <time>2022-07-16T18:04:33Z</time>
      </trkpt>
      <trkpt lat="45.72575" lon="6.70044">
        <ele>2213</ele>
        <time>2022-07-16T18:04:35Z</time>
      </trkpt>
      <trkpt lat="45.72573" lon="6.70042">
        <ele>2212</ele>
        <time>2022-07-16T18:04:38Z</time>
      </trkpt>
      <trkpt lat="45.72571" lon="6.7004">
        <ele>2212</ele>
        <time>2022-07-16T18:04:40Z</time>
      </trkpt>
      <trkpt lat="45.72569" lon="6.70039">
        <ele>2212</ele>
        <time>2022-07-16T18:04:42Z</time>
      </trkpt>
      <trkpt lat="45.72567" lon="6.70037">
        <ele>2211</ele>
        <time>2022-07-16T18:04:44Z</time>
      </trkpt>
      <trkpt lat="45.72566" lon="6.70035">
        <ele>2210</ele>
        <time>2022-07-16T18:04:46Z</time>
      </trkpt>
      <trkpt lat="45.72564" lon="6.70035">
        <ele>2209</ele>
        <time>2022-07-16T18:04:50Z</time>
      </trkpt>
      <trkpt lat="45.72562" lon="6.70034">
        <ele>2208</ele>
        <time>2022-07-16T18:04:53Z</time>
      </trkpt>
      <trkpt lat="45.7256" lon="6.70033">
        <ele>2208</ele>
        <time>2022-07-16T18:04:56Z</time>
      </trkpt>
      <trkpt lat="45.72558" lon="6.70034">
        <ele>2206</ele>
        <time>2022-07-16T18:05:00Z</time>
      </trkpt>
      <trkpt lat="45.72559" lon="6.70038">
        <ele>2204</ele>
        <time>2022-07-16T18:05:03Z</time>
      </trkpt>
      <trkpt lat="45.72559" lon="6.70042">
        <ele>2204</ele>
        <time>2022-07-16T18:05:06Z</time>
      </trkpt>
      <trkpt lat="45.72558" lon="6.70045">
        <ele>2203</ele>
        <time>2022-07-16T18:05:08Z</time>
      </trkpt>
      <trkpt lat="45.72556" lon="6.70046">
        <ele>2202</ele>
        <time>2022-07-16T18:05:10Z</time>
      </trkpt>
      <trkpt lat="45.72554" lon="6.70045">
        <ele>2202</ele>
        <time>2022-07-16T18:05:13Z</time>
      </trkpt>
      <trkpt lat="45.72552" lon="6.70044">
        <ele>2202</ele>
        <time>2022-07-16T18:05:15Z</time>
      </trkpt>
      <trkpt lat="45.72551" lon="6.70043">
        <ele>2201</ele>
        <time>2022-07-16T18:05:17Z</time>
      </trkpt>
      <trkpt lat="45.7255" lon="6.7004">
        <ele>2200</ele>
        <time>2022-07-16T18:05:19Z</time>
      </trkpt>
      <trkpt lat="45.72549" lon="6.70038">
        <ele>2199</ele>
        <time>2022-07-16T18:05:21Z</time>
      </trkpt>
      <trkpt lat="45.72548" lon="6.70035">
        <ele>2199</ele>
        <time>2022-07-16T18:05:23Z</time>
      </trkpt>
      <trkpt lat="45.72546" lon="6.70036">
        <ele>2197</ele>
        <time>2022-07-16T18:05:27Z</time>
      </trkpt>
      <trkpt lat="45.72547" lon="6.7004">
        <ele>2197</ele>
        <time>2022-07-16T18:05:30Z</time>
      </trkpt>
      <trkpt lat="45.72547" lon="6.70043">
        <ele>2196</ele>
        <time>2022-07-16T18:05:32Z</time>
      </trkpt>
      <trkpt lat="45.72547" lon="6.70046">
        <ele>2194</ele>
        <time>2022-07-16T18:05:35Z</time>
      </trkpt>
      <trkpt lat="45.72548" lon="6.70049">
        <ele>2193</ele>
        <time>2022-07-16T18:05:39Z</time>
      </trkpt>
      <trkpt lat="45.72549" lon="6.70053">
        <ele>2192</ele>
        <time>2022-07-16T18:05:42Z</time>
      </trkpt>
      <trkpt lat="45.72549" lon="6.70056">
        <ele>2192</ele>
        <time>2022-07-16T18:05:46Z</time>
      </trkpt>
      <trkpt lat="45.72549" lon="6.70059">
        <ele>2190</ele>
        <time>2022-07-16T18:05:49Z</time>
      </trkpt>
      <trkpt lat="45.72547" lon="6.70061">
        <ele>2190</ele>
        <time>2022-07-16T18:05:52Z</time>
      </trkpt>
      <trkpt lat="45.72544" lon="6.70061">
        <ele>2190</ele>
        <time>2022-07-16T18:05:54Z</time>
      </trkpt>
      <trkpt lat="45.72542" lon="6.7006">
        <ele>2189</ele>
        <time>2022-07-16T18:05:56Z</time>
      </trkpt>
      <trkpt lat="45.72541" lon="6.70057">
        <ele>2188</ele>
        <time>2022-07-16T18:05:59Z</time>
      </trkpt>
      <trkpt lat="45.7254" lon="6.70056">
        <ele>2187</ele>
        <time>2022-07-16T18:06:02Z</time>
      </trkpt>
      <trkpt lat="45.72538" lon="6.70055">
        <ele>2187</ele>
        <time>2022-07-16T18:06:05Z</time>
      </trkpt>
      <trkpt lat="45.72535" lon="6.70054">
        <ele>2184</ele>
        <time>2022-07-16T18:06:08Z</time>
      </trkpt>
      <trkpt lat="45.72533" lon="6.70052">
        <ele>2184</ele>
        <time>2022-07-16T18:06:14Z</time>
      </trkpt>
      <trkpt lat="45.72532" lon="6.70049">
        <ele>2183</ele>
        <time>2022-07-16T18:06:17Z</time>
      </trkpt>
      <trkpt lat="45.72531" lon="6.70046">
        <ele>2182</ele>
        <time>2022-07-16T18:06:20Z</time>
      </trkpt>
      <trkpt lat="45.72529" lon="6.70044">
        <ele>2181</ele>
        <time>2022-07-16T18:06:23Z</time>
      </trkpt>
      <trkpt lat="45.72527" lon="6.70042">
        <ele>2181</ele>
        <time>2022-07-16T18:06:25Z</time>
      </trkpt>
      <trkpt lat="45.72525" lon="6.70041">
        <ele>2180</ele>
        <time>2022-07-16T18:06:27Z</time>
      </trkpt>
      <trkpt lat="45.72524" lon="6.70043">
        <ele>2178</ele>
        <time>2022-07-16T18:06:31Z</time>
      </trkpt>
      <trkpt lat="45.72524" lon="6.70046">
        <ele>2177</ele>
        <time>2022-07-16T18:06:34Z</time>
      </trkpt>
      <trkpt lat="45.72525" lon="6.7005">
        <ele>2177</ele>
        <time>2022-07-16T18:06:36Z</time>
      </trkpt>
      <trkpt lat="45.72526" lon="6.70053">
        <ele>2176</ele>
        <time>2022-07-16T18:06:38Z</time>
      </trkpt>
      <trkpt lat="45.72525" lon="6.70056">
        <ele>2176</ele>
        <time>2022-07-16T18:06:41Z</time>
      </trkpt>
      <trkpt lat="45.72523" lon="6.70055">
        <ele>2175</ele>
        <time>2022-07-16T18:06:44Z</time>
      </trkpt>
      <trkpt lat="45.72522" lon="6.70052">
        <ele>2173</ele>
        <time>2022-07-16T18:06:47Z</time>
      </trkpt>
      <trkpt lat="45.72519" lon="6.70052">
        <ele>2172</ele>
        <time>2022-07-16T18:06:51Z</time>
      </trkpt>
      <trkpt lat="45.72517" lon="6.70053">
        <ele>2172</ele>
        <time>2022-07-16T18:06:54Z</time>
      </trkpt>
      <trkpt lat="45.72514" lon="6.70052">
        <ele>2171</ele>
        <time>2022-07-16T18:06:56Z</time>
      </trkpt>
      <trkpt lat="45.72512" lon="6.70051">
        <ele>2171</ele>
        <time>2022-07-16T18:06:58Z</time>
      </trkpt>
      <trkpt lat="45.72511" lon="6.70049">
        <ele>2171</ele>
        <time>2022-07-16T18:07:00Z</time>
      </trkpt>
      <trkpt lat="45.72509" lon="6.70046">
        <ele>2168</ele>
        <time>2022-07-16T18:07:02Z</time>
      </trkpt>
      <trkpt lat="45.72507" lon="6.70044">
        <ele>2167</ele>
        <time>2022-07-16T18:07:04Z</time>
      </trkpt>
      <trkpt lat="45.72506" lon="6.70041">
        <ele>2166</ele>
        <time>2022-07-16T18:07:06Z</time>
      </trkpt>
      <trkpt lat="45.72504" lon="6.70039">
        <ele>2165</ele>
        <time>2022-07-16T18:07:08Z</time>
      </trkpt>
      <trkpt lat="45.72504" lon="6.70035">
        <ele>2164</ele>
        <time>2022-07-16T18:07:10Z</time>
      </trkpt>
      <trkpt lat="45.72503" lon="6.70033">
        <ele>2164</ele>
        <time>2022-07-16T18:07:12Z</time>
      </trkpt>
      <trkpt lat="45.72501" lon="6.70031">
        <ele>2163</ele>
        <time>2022-07-16T18:07:15Z</time>
      </trkpt>
      <trkpt lat="45.72499" lon="6.70032">
        <ele>2162</ele>
        <time>2022-07-16T18:07:18Z</time>
      </trkpt>
      <trkpt lat="45.72498" lon="6.70035">
        <ele>2161</ele>
        <time>2022-07-16T18:07:20Z</time>
      </trkpt>
      <trkpt lat="45.72498" lon="6.70038">
        <ele>2160</ele>
        <time>2022-07-16T18:07:22Z</time>
      </trkpt>
      <trkpt lat="45.72498" lon="6.70042">
        <ele>2159</ele>
        <time>2022-07-16T18:07:24Z</time>
      </trkpt>
      <trkpt lat="45.72499" lon="6.70046">
        <ele>2159</ele>
        <time>2022-07-16T18:07:26Z</time>
      </trkpt>
      <trkpt lat="45.72499" lon="6.7005">
        <ele>2158</ele>
        <time>2022-07-16T18:07:28Z</time>
      </trkpt>
      <trkpt lat="45.72498" lon="6.70053">
        <ele>2158</ele>
        <time>2022-07-16T18:07:30Z</time>
      </trkpt>
      <trkpt lat="45.72496" lon="6.70056">
        <ele>2157</ele>
        <time>2022-07-16T18:07:32Z</time>
      </trkpt>
      <trkpt lat="45.72495" lon="6.70059">
        <ele>2155</ele>
        <time>2022-07-16T18:07:34Z</time>
      </trkpt>
      <trkpt lat="45.72494" lon="6.70062">
        <ele>2155</ele>
        <time>2022-07-16T18:07:36Z</time>
      </trkpt>
      <trkpt lat="45.72492" lon="6.70063">
        <ele>2154</ele>
        <time>2022-07-16T18:07:38Z</time>
      </trkpt>
      <trkpt lat="45.7249" lon="6.70061">
        <ele>2154</ele>
        <time>2022-07-16T18:07:40Z</time>
      </trkpt>
      <trkpt lat="45.72489" lon="6.70058">
        <ele>2152</ele>
        <time>2022-07-16T18:07:42Z</time>
      </trkpt>
      <trkpt lat="45.72488" lon="6.70055">
        <ele>2152</ele>
        <time>2022-07-16T18:07:44Z</time>
      </trkpt>
      <trkpt lat="45.72487" lon="6.70052">
        <ele>2152</ele>
        <time>2022-07-16T18:07:46Z</time>
      </trkpt>
      <trkpt lat="45.72486" lon="6.70049">
        <ele>2151</ele>
        <time>2022-07-16T18:07:48Z</time>
      </trkpt>
      <trkpt lat="45.72484" lon="6.70047">
        <ele>2150</ele>
        <time>2022-07-16T18:07:50Z</time>
      </trkpt>
      <trkpt lat="45.72483" lon="6.70044">
        <ele>2149</ele>
        <time>2022-07-16T18:07:52Z</time>
      </trkpt>
      <trkpt lat="45.72481" lon="6.70041">
        <ele>2149</ele>
        <time>2022-07-16T18:07:54Z</time>
      </trkpt>
      <trkpt lat="45.72479" lon="6.70038">
        <ele>2148</ele>
        <time>2022-07-16T18:07:56Z</time>
      </trkpt>
      <trkpt lat="45.72478" lon="6.70035">
        <ele>2147</ele>
        <time>2022-07-16T18:07:58Z</time>
      </trkpt>
      <trkpt lat="45.72477" lon="6.70033">
        <ele>2147</ele>
        <time>2022-07-16T18:08:01Z</time>
      </trkpt>
      <trkpt lat="45.72476" lon="6.70031">
        <ele>2146</ele>
        <time>2022-07-16T18:08:02Z</time>
      </trkpt>
      <trkpt lat="45.72475" lon="6.70028">
        <ele>2146</ele>
        <time>2022-07-16T18:08:04Z</time>
      </trkpt>
      <trkpt lat="45.72474" lon="6.70025">
        <ele>2145</ele>
        <time>2022-07-16T18:08:07Z</time>
      </trkpt>
      <trkpt lat="45.72473" lon="6.70022">
        <ele>2145</ele>
        <time>2022-07-16T18:08:10Z</time>
      </trkpt>
      <trkpt lat="45.72473" lon="6.7002">
        <ele>2145</ele>
        <time>2022-07-16T18:08:12Z</time>
      </trkpt>
      <trkpt lat="45.72472" lon="6.70016">
        <ele>2144</ele>
        <time>2022-07-16T18:08:15Z</time>
      </trkpt>
      <trkpt lat="45.72472" lon="6.70013">
        <ele>2142</ele>
        <time>2022-07-16T18:08:18Z</time>
      </trkpt>
      <trkpt lat="45.72473" lon="6.7001">
        <ele>2142</ele>
        <time>2022-07-16T18:08:20Z</time>
      </trkpt>
      <trkpt lat="45.72471" lon="6.70007">
        <ele>2141</ele>
        <time>2022-07-16T18:08:23Z</time>
      </trkpt>
      <trkpt lat="45.7247" lon="6.70004">
        <ele>2140</ele>
        <time>2022-07-16T18:08:26Z</time>
      </trkpt>
      <trkpt lat="45.72468" lon="6.70001">
        <ele>2139</ele>
        <time>2022-07-16T18:08:29Z</time>
      </trkpt>
      <trkpt lat="45.72467" lon="6.69999">
        <ele>2139</ele>
        <time>2022-07-16T18:08:32Z</time>
      </trkpt>
      <trkpt lat="45.72465" lon="6.69996">
        <ele>2139</ele>
        <time>2022-07-16T18:08:35Z</time>
      </trkpt>
      <trkpt lat="45.72464" lon="6.69994">
        <ele>2138</ele>
        <time>2022-07-16T18:08:37Z</time>
      </trkpt>
      <trkpt lat="45.72462" lon="6.69992">
        <ele>2135</ele>
        <time>2022-07-16T18:08:40Z</time>
      </trkpt>
      <trkpt lat="45.7246" lon="6.69992">
        <ele>2135</ele>
        <time>2022-07-16T18:08:42Z</time>
      </trkpt>
      <trkpt lat="45.72458" lon="6.69991">
        <ele>2135</ele>
        <time>2022-07-16T18:08:44Z</time>
      </trkpt>
      <trkpt lat="45.72456" lon="6.69989">
        <ele>2135</ele>
        <time>2022-07-16T18:08:46Z</time>
      </trkpt>
      <trkpt lat="45.72454" lon="6.69986">
        <ele>2134</ele>
        <time>2022-07-16T18:08:48Z</time>
      </trkpt>
      <trkpt lat="45.72453" lon="6.69984">
        <ele>2134</ele>
        <time>2022-07-16T18:08:50Z</time>
      </trkpt>
      <trkpt lat="45.72451" lon="6.69981">
        <ele>2133</ele>
        <time>2022-07-16T18:08:53Z</time>
      </trkpt>
      <trkpt lat="45.7245" lon="6.69978">
        <ele>2133</ele>
        <time>2022-07-16T18:08:55Z</time>
      </trkpt>
      <trkpt lat="45.72449" lon="6.69976">
        <ele>2133</ele>
        <time>2022-07-16T18:08:57Z</time>
      </trkpt>
      <trkpt lat="45.72448" lon="6.69972">
        <ele>2132</ele>
        <time>2022-07-16T18:08:59Z</time>
      </trkpt>
      <trkpt lat="45.72448" lon="6.69969">
        <ele>2132</ele>
        <time>2022-07-16T18:09:01Z</time>
      </trkpt>
      <trkpt lat="45.72447" lon="6.69967">
        <ele>2132</ele>
        <time>2022-07-16T18:09:03Z</time>
      </trkpt>
      <trkpt lat="45.72445" lon="6.69966">
        <ele>2131</ele>
        <time>2022-07-16T18:09:06Z</time>
      </trkpt>
      <trkpt lat="45.72443" lon="6.69963">
        <ele>2130</ele>
        <time>2022-07-16T18:09:08Z</time>
      </trkpt>
      <trkpt lat="45.72443" lon="6.6996">
        <ele>2129</ele>
        <time>2022-07-16T18:09:10Z</time>
      </trkpt>
      <trkpt lat="45.72443" lon="6.69955">
        <ele>2129</ele>
        <time>2022-07-16T18:09:12Z</time>
      </trkpt>
      <trkpt lat="45.72443" lon="6.69949">
        <ele>2128</ele>
        <time>2022-07-16T18:09:15Z</time>
      </trkpt>
      <trkpt lat="45.72441" lon="6.69946">
        <ele>2127</ele>
        <time>2022-07-16T18:09:17Z</time>
      </trkpt>
      <trkpt lat="45.7244" lon="6.69943">
        <ele>2127</ele>
        <time>2022-07-16T18:09:19Z</time>
      </trkpt>
      <trkpt lat="45.7244" lon="6.69939">
        <ele>2127</ele>
        <time>2022-07-16T18:09:21Z</time>
      </trkpt>
      <trkpt lat="45.72438" lon="6.69936">
        <ele>2126</ele>
        <time>2022-07-16T18:09:24Z</time>
      </trkpt>
      <trkpt lat="45.72437" lon="6.69934">
        <ele>2126</ele>
        <time>2022-07-16T18:09:27Z</time>
      </trkpt>
      <trkpt lat="45.72434" lon="6.69933">
        <ele>2126</ele>
        <time>2022-07-16T18:09:29Z</time>
      </trkpt>
      <trkpt lat="45.72432" lon="6.69935">
        <ele>2124</ele>
        <time>2022-07-16T18:09:31Z</time>
      </trkpt>
      <trkpt lat="45.72431" lon="6.69937">
        <ele>2124</ele>
        <time>2022-07-16T18:09:33Z</time>
      </trkpt>
      <trkpt lat="45.7243" lon="6.69941">
        <ele>2124</ele>
        <time>2022-07-16T18:09:35Z</time>
      </trkpt>
      <trkpt lat="45.7243" lon="6.69944">
        <ele>2123</ele>
        <time>2022-07-16T18:09:37Z</time>
      </trkpt>
      <trkpt lat="45.72428" lon="6.69947">
        <ele>2123</ele>
        <time>2022-07-16T18:09:40Z</time>
      </trkpt>
      <trkpt lat="45.72427" lon="6.69949">
        <ele>2122</ele>
        <time>2022-07-16T18:09:42Z</time>
      </trkpt>
      <trkpt lat="45.72425" lon="6.6995">
        <ele>2122</ele>
        <time>2022-07-16T18:09:44Z</time>
      </trkpt>
      <trkpt lat="45.72423" lon="6.69952">
        <ele>2122</ele>
        <time>2022-07-16T18:09:46Z</time>
      </trkpt>
      <trkpt lat="45.72421" lon="6.69953">
        <ele>2121</ele>
        <time>2022-07-16T18:09:48Z</time>
      </trkpt>
      <trkpt lat="45.7242" lon="6.69956">
        <ele>2121</ele>
        <time>2022-07-16T18:09:50Z</time>
      </trkpt>
      <trkpt lat="45.72418" lon="6.69956">
        <ele>2121</ele>
        <time>2022-07-16T18:09:52Z</time>
      </trkpt>
      <trkpt lat="45.72416" lon="6.69957">
        <ele>2121</ele>
        <time>2022-07-16T18:09:54Z</time>
      </trkpt>
      <trkpt lat="45.72413" lon="6.69957">
        <ele>2120</ele>
        <time>2022-07-16T18:09:57Z</time>
      </trkpt>
      <trkpt lat="45.72411" lon="6.69958">
        <ele>2119</ele>
        <time>2022-07-16T18:10:00Z</time>
      </trkpt>
      <trkpt lat="45.72409" lon="6.69959">
        <ele>2118</ele>
        <time>2022-07-16T18:10:02Z</time>
      </trkpt>
      <trkpt lat="45.72406" lon="6.6996">
        <ele>2116</ele>
        <time>2022-07-16T18:10:05Z</time>
      </trkpt>
      <trkpt lat="45.72404" lon="6.6996">
        <ele>2116</ele>
        <time>2022-07-16T18:10:07Z</time>
      </trkpt>
      <trkpt lat="45.72402" lon="6.69959">
        <ele>2115</ele>
        <time>2022-07-16T18:10:09Z</time>
      </trkpt>
      <trkpt lat="45.724" lon="6.69957">
        <ele>2114</ele>
        <time>2022-07-16T18:10:12Z</time>
      </trkpt>
      <trkpt lat="45.72398" lon="6.69955">
        <ele>2112</ele>
        <time>2022-07-16T18:10:15Z</time>
      </trkpt>
      <trkpt lat="45.72396" lon="6.69954">
        <ele>2112</ele>
        <time>2022-07-16T18:10:18Z</time>
      </trkpt>
      <trkpt lat="45.72394" lon="6.69954">
        <ele>2111</ele>
        <time>2022-07-16T18:10:21Z</time>
      </trkpt>
      <trkpt lat="45.72392" lon="6.69951">
        <ele>2110</ele>
        <time>2022-07-16T18:10:24Z</time>
      </trkpt>
      <trkpt lat="45.72393" lon="6.69948">
        <ele>2110</ele>
        <time>2022-07-16T18:10:26Z</time>
      </trkpt>
      <trkpt lat="45.72393" lon="6.69944">
        <ele>2110</ele>
        <time>2022-07-16T18:10:28Z</time>
      </trkpt>
      <trkpt lat="45.72394" lon="6.69941">
        <ele>2109</ele>
        <time>2022-07-16T18:10:30Z</time>
      </trkpt>
      <trkpt lat="45.72396" lon="6.69937">
        <ele>2109</ele>
        <time>2022-07-16T18:10:32Z</time>
      </trkpt>
      <trkpt lat="45.72397" lon="6.69934">
        <ele>2108</ele>
        <time>2022-07-16T18:10:34Z</time>
      </trkpt>
      <trkpt lat="45.72398" lon="6.69931">
        <ele>2108</ele>
        <time>2022-07-16T18:10:36Z</time>
      </trkpt>
      <trkpt lat="45.72399" lon="6.69927">
        <ele>2108</ele>
        <time>2022-07-16T18:10:38Z</time>
      </trkpt>
      <trkpt lat="45.724" lon="6.69923">
        <ele>2108</ele>
        <time>2022-07-16T18:10:40Z</time>
      </trkpt>
      <trkpt lat="45.724" lon="6.69919">
        <ele>2108</ele>
        <time>2022-07-16T18:10:42Z</time>
      </trkpt>
      <trkpt lat="45.72399" lon="6.69916">
        <ele>2108</ele>
        <time>2022-07-16T18:10:44Z</time>
      </trkpt>
      <trkpt lat="45.72397" lon="6.69915">
        <ele>2107</ele>
        <time>2022-07-16T18:10:46Z</time>
      </trkpt>
      <trkpt lat="45.72395" lon="6.69914">
        <ele>2106</ele>
        <time>2022-07-16T18:10:48Z</time>
      </trkpt>
      <trkpt lat="45.72393" lon="6.69912">
        <ele>2106</ele>
        <time>2022-07-16T18:10:50Z</time>
      </trkpt>
      <trkpt lat="45.72391" lon="6.69911">
        <ele>2106</ele>
        <time>2022-07-16T18:10:52Z</time>
      </trkpt>
      <trkpt lat="45.72389" lon="6.69909">
        <ele>2105</ele>
        <time>2022-07-16T18:10:54Z</time>
      </trkpt>
      <trkpt lat="45.72388" lon="6.69908">
        <ele>2105</ele>
        <time>2022-07-16T18:10:56Z</time>
      </trkpt>
      <trkpt lat="45.72385" lon="6.69907">
        <ele>2105</ele>
        <time>2022-07-16T18:10:58Z</time>
      </trkpt>
      <trkpt lat="45.72383" lon="6.69908">
        <ele>2104</ele>
        <time>2022-07-16T18:11:01Z</time>
      </trkpt>
      <trkpt lat="45.72381" lon="6.69908">
        <ele>2103</ele>
        <time>2022-07-16T18:11:03Z</time>
      </trkpt>
      <trkpt lat="45.72378" lon="6.69907">
        <ele>2103</ele>
        <time>2022-07-16T18:11:05Z</time>
      </trkpt>
      <trkpt lat="45.72377" lon="6.69906">
        <ele>2103</ele>
        <time>2022-07-16T18:11:07Z</time>
      </trkpt>
      <trkpt lat="45.72375" lon="6.69905">
        <ele>2102</ele>
        <time>2022-07-16T18:11:09Z</time>
      </trkpt>
      <trkpt lat="45.72374" lon="6.69903">
        <ele>2101</ele>
        <time>2022-07-16T18:11:11Z</time>
      </trkpt>
      <trkpt lat="45.72372" lon="6.69901">
        <ele>2101</ele>
        <time>2022-07-16T18:11:13Z</time>
      </trkpt>
      <trkpt lat="45.72371" lon="6.69899">
        <ele>2101</ele>
        <time>2022-07-16T18:11:15Z</time>
      </trkpt>
      <trkpt lat="45.72371" lon="6.69896">
        <ele>2100</ele>
        <time>2022-07-16T18:11:17Z</time>
      </trkpt>
      <trkpt lat="45.72372" lon="6.69893">
        <ele>2100</ele>
        <time>2022-07-16T18:11:19Z</time>
      </trkpt>
      <trkpt lat="45.72372" lon="6.6989">
        <ele>2099</ele>
        <time>2022-07-16T18:11:22Z</time>
      </trkpt>
      <trkpt lat="45.72371" lon="6.69888">
        <ele>2099</ele>
        <time>2022-07-16T18:11:24Z</time>
      </trkpt>
      <trkpt lat="45.7237" lon="6.69885">
        <ele>2099</ele>
        <time>2022-07-16T18:11:26Z</time>
      </trkpt>
      <trkpt lat="45.7237" lon="6.69883">
        <ele>2099</ele>
        <time>2022-07-16T18:11:28Z</time>
      </trkpt>
      <trkpt lat="45.72368" lon="6.69881">
        <ele>2099</ele>
        <time>2022-07-16T18:11:31Z</time>
      </trkpt>
      <trkpt lat="45.72366" lon="6.69881">
        <ele>2099</ele>
        <time>2022-07-16T18:11:33Z</time>
      </trkpt>
      <trkpt lat="45.72364" lon="6.69882">
        <ele>2099</ele>
        <time>2022-07-16T18:11:35Z</time>
      </trkpt>
      <trkpt lat="45.72362" lon="6.69882">
        <ele>2098</ele>
        <time>2022-07-16T18:11:37Z</time>
      </trkpt>
      <trkpt lat="45.7236" lon="6.69881">
        <ele>2098</ele>
        <time>2022-07-16T18:11:39Z</time>
      </trkpt>
      <trkpt lat="45.72358" lon="6.6988">
        <ele>2098</ele>
        <time>2022-07-16T18:11:41Z</time>
      </trkpt>
      <trkpt lat="45.72357" lon="6.69878">
        <ele>2097</ele>
        <time>2022-07-16T18:11:43Z</time>
      </trkpt>
      <trkpt lat="45.72355" lon="6.69876">
        <ele>2097</ele>
        <time>2022-07-16T18:11:45Z</time>
      </trkpt>
      <trkpt lat="45.72353" lon="6.69873">
        <ele>2097</ele>
        <time>2022-07-16T18:11:47Z</time>
      </trkpt>
      <trkpt lat="45.72352" lon="6.6987">
        <ele>2095</ele>
        <time>2022-07-16T18:11:49Z</time>
      </trkpt>
      <trkpt lat="45.7235" lon="6.69867">
        <ele>2095</ele>
        <time>2022-07-16T18:11:51Z</time>
      </trkpt>
      <trkpt lat="45.72348" lon="6.69864">
        <ele>2095</ele>
        <time>2022-07-16T18:11:53Z</time>
      </trkpt>
      <trkpt lat="45.72345" lon="6.69861">
        <ele>2095</ele>
        <time>2022-07-16T18:11:55Z</time>
      </trkpt>
      <trkpt lat="45.72343" lon="6.69858">
        <ele>2095</ele>
        <time>2022-07-16T18:11:57Z</time>
      </trkpt>
      <trkpt lat="45.7234" lon="6.69853">
        <ele>2095</ele>
        <time>2022-07-16T18:11:59Z</time>
      </trkpt>
      <trkpt lat="45.72338" lon="6.6985">
        <ele>2093</ele>
        <time>2022-07-16T18:12:01Z</time>
      </trkpt>
      <trkpt lat="45.72335" lon="6.69849">
        <ele>2093</ele>
        <time>2022-07-16T18:12:03Z</time>
      </trkpt>
      <trkpt lat="45.72333" lon="6.69847">
        <ele>2093</ele>
        <time>2022-07-16T18:12:05Z</time>
      </trkpt>
      <trkpt lat="45.72333" lon="6.69842">
        <ele>2093</ele>
        <time>2022-07-16T18:12:07Z</time>
      </trkpt>
      <trkpt lat="45.72335" lon="6.69839">
        <ele>2093</ele>
        <time>2022-07-16T18:12:09Z</time>
      </trkpt>
      <trkpt lat="45.72336" lon="6.69835">
        <ele>2092</ele>
        <time>2022-07-16T18:12:11Z</time>
      </trkpt>
      <trkpt lat="45.72337" lon="6.69831">
        <ele>2092</ele>
        <time>2022-07-16T18:12:13Z</time>
      </trkpt>
      <trkpt lat="45.72336" lon="6.69828">
        <ele>2092</ele>
        <time>2022-07-16T18:12:15Z</time>
      </trkpt>
      <trkpt lat="45.72336" lon="6.69825">
        <ele>2092</ele>
        <time>2022-07-16T18:12:17Z</time>
      </trkpt>
      <trkpt lat="45.72336" lon="6.69822">
        <ele>2092</ele>
        <time>2022-07-16T18:12:19Z</time>
      </trkpt>
      <trkpt lat="45.72337" lon="6.69818">
        <ele>2093</ele>
        <time>2022-07-16T18:12:21Z</time>
      </trkpt>
      <trkpt lat="45.72338" lon="6.69815">
        <ele>2093</ele>
        <time>2022-07-16T18:12:23Z</time>
      </trkpt>
      <trkpt lat="45.72339" lon="6.69812">
        <ele>2093</ele>
        <time>2022-07-16T18:12:25Z</time>
      </trkpt>
      <trkpt lat="45.7234" lon="6.69809">
        <ele>2093</ele>
        <time>2022-07-16T18:12:27Z</time>
      </trkpt>
      <trkpt lat="45.72341" lon="6.69805">
        <ele>2093</ele>
        <time>2022-07-16T18:12:29Z</time>
      </trkpt>
      <trkpt lat="45.72341" lon="6.69801">
        <ele>2093</ele>
        <time>2022-07-16T18:12:31Z</time>
      </trkpt>
      <trkpt lat="45.72341" lon="6.69797">
        <ele>2093</ele>
        <time>2022-07-16T18:12:33Z</time>
      </trkpt>
      <trkpt lat="45.72342" lon="6.69793">
        <ele>2093</ele>
        <time>2022-07-16T18:12:35Z</time>
      </trkpt>
      <trkpt lat="45.72342" lon="6.6979">
        <ele>2093</ele>
        <time>2022-07-16T18:12:37Z</time>
      </trkpt>
      <trkpt lat="45.72342" lon="6.69786">
        <ele>2093</ele>
        <time>2022-07-16T18:12:39Z</time>
      </trkpt>
      <trkpt lat="45.72342" lon="6.69782">
        <ele>2093</ele>
        <time>2022-07-16T18:12:41Z</time>
      </trkpt>
      <trkpt lat="45.72342" lon="6.69778">
        <ele>2093</ele>
        <time>2022-07-16T18:12:44Z</time>
      </trkpt>
      <trkpt lat="45.72342" lon="6.69775">
        <ele>2093</ele>
        <time>2022-07-16T18:12:45Z</time>
      </trkpt>
      <trkpt lat="45.72342" lon="6.69771">
        <ele>2093</ele>
        <time>2022-07-16T18:12:47Z</time>
      </trkpt>
      <trkpt lat="45.72342" lon="6.69768">
        <ele>2092</ele>
        <time>2022-07-16T18:12:49Z</time>
      </trkpt>
      <trkpt lat="45.72343" lon="6.69765">
        <ele>2092</ele>
        <time>2022-07-16T18:12:51Z</time>
      </trkpt>
      <trkpt lat="45.72344" lon="6.69761">
        <ele>2092</ele>
        <time>2022-07-16T18:12:54Z</time>
      </trkpt>
      <trkpt lat="45.72344" lon="6.69758">
        <ele>2090</ele>
        <time>2022-07-16T18:12:56Z</time>
      </trkpt>
      <trkpt lat="45.72342" lon="6.69754">
        <ele>2090</ele>
        <time>2022-07-16T18:12:59Z</time>
      </trkpt>
      <trkpt lat="45.72342" lon="6.69752">
        <ele>2088</ele>
        <time>2022-07-16T18:13:01Z</time>
      </trkpt>
      <trkpt lat="45.72341" lon="6.69749">
        <ele>2088</ele>
        <time>2022-07-16T18:13:03Z</time>
      </trkpt>
      <trkpt lat="45.7234" lon="6.69746">
        <ele>2087</ele>
        <time>2022-07-16T18:13:05Z</time>
      </trkpt>
      <trkpt lat="45.7234" lon="6.69742">
        <ele>2087</ele>
        <time>2022-07-16T18:13:07Z</time>
      </trkpt>
      <trkpt lat="45.72338" lon="6.69739">
        <ele>2087</ele>
        <time>2022-07-16T18:13:09Z</time>
      </trkpt>
      <trkpt lat="45.72337" lon="6.69735">
        <ele>2087</ele>
        <time>2022-07-16T18:13:11Z</time>
      </trkpt>
      <trkpt lat="45.72336" lon="6.69732">
        <ele>2087</ele>
        <time>2022-07-16T18:13:13Z</time>
      </trkpt>
      <trkpt lat="45.72335" lon="6.69729">
        <ele>2087</ele>
        <time>2022-07-16T18:13:15Z</time>
      </trkpt>
      <trkpt lat="45.72334" lon="6.69725">
        <ele>2086</ele>
        <time>2022-07-16T18:13:17Z</time>
      </trkpt>
      <trkpt lat="45.72333" lon="6.69722">
        <ele>2086</ele>
        <time>2022-07-16T18:13:19Z</time>
      </trkpt>
      <trkpt lat="45.72331" lon="6.69718">
        <ele>2086</ele>
        <time>2022-07-16T18:13:22Z</time>
      </trkpt>
      <trkpt lat="45.72329" lon="6.69716">
        <ele>2085</ele>
        <time>2022-07-16T18:13:24Z</time>
      </trkpt>
      <trkpt lat="45.72328" lon="6.69713">
        <ele>2085</ele>
        <time>2022-07-16T18:13:26Z</time>
      </trkpt>
      <trkpt lat="45.72328" lon="6.69709">
        <ele>2085</ele>
        <time>2022-07-16T18:13:28Z</time>
      </trkpt>
      <trkpt lat="45.72329" lon="6.69707">
        <ele>2086</ele>
        <time>2022-07-16T18:13:30Z</time>
      </trkpt>
      <trkpt lat="45.7233" lon="6.69702">
        <ele>2086</ele>
        <time>2022-07-16T18:13:33Z</time>
      </trkpt>
      <trkpt lat="45.72329" lon="6.69699">
        <ele>2086</ele>
        <time>2022-07-16T18:13:35Z</time>
      </trkpt>
      <trkpt lat="45.72329" lon="6.69695">
        <ele>2085</ele>
        <time>2022-07-16T18:13:37Z</time>
      </trkpt>
      <trkpt lat="45.7233" lon="6.6969">
        <ele>2085</ele>
        <time>2022-07-16T18:13:39Z</time>
      </trkpt>
      <trkpt lat="45.7233" lon="6.69687">
        <ele>2085</ele>
        <time>2022-07-16T18:13:40Z</time>
      </trkpt>
      <trkpt lat="45.72331" lon="6.69682">
        <ele>2085</ele>
        <time>2022-07-16T18:13:42Z</time>
      </trkpt>
      <trkpt lat="45.72331" lon="6.69677">
        <ele>2085</ele>
        <time>2022-07-16T18:13:44Z</time>
      </trkpt>
      <trkpt lat="45.72331" lon="6.69673">
        <ele>2085</ele>
        <time>2022-07-16T18:13:46Z</time>
      </trkpt>
      <trkpt lat="45.72331" lon="6.6967">
        <ele>2085</ele>
        <time>2022-07-16T18:13:47Z</time>
      </trkpt>
      <trkpt lat="45.72331" lon="6.69667">
        <ele>2085</ele>
        <time>2022-07-16T18:13:48Z</time>
      </trkpt>
      <trkpt lat="45.72331" lon="6.69665">
        <ele>2085</ele>
        <time>2022-07-16T18:13:49Z</time>
      </trkpt>
      <trkpt lat="45.72331" lon="6.69662">
        <ele>2085</ele>
        <time>2022-07-16T18:13:50Z</time>
      </trkpt>
      <trkpt lat="45.72332" lon="6.69659">
        <ele>2085</ele>
        <time>2022-07-16T18:13:51Z</time>
      </trkpt>
      <trkpt lat="45.72334" lon="6.69655">
        <ele>2085</ele>
        <time>2022-07-16T18:13:53Z</time>
      </trkpt>
      <trkpt lat="45.72335" lon="6.69652">
        <ele>2084</ele>
        <time>2022-07-16T18:13:54Z</time>
      </trkpt>
      <trkpt lat="45.72336" lon="6.6965">
        <ele>2084</ele>
        <time>2022-07-16T18:13:55Z</time>
      </trkpt>
      <trkpt lat="45.72338" lon="6.69646">
        <ele>2084</ele>
        <time>2022-07-16T18:13:57Z</time>
      </trkpt>
      <trkpt lat="45.72339" lon="6.69643">
        <ele>2084</ele>
        <time>2022-07-16T18:14:00Z</time>
      </trkpt>
      <trkpt lat="45.7234" lon="6.6964">
        <ele>2084</ele>
        <time>2022-07-16T18:14:01Z</time>
      </trkpt>
      <trkpt lat="45.72341" lon="6.69637">
        <ele>2084</ele>
        <time>2022-07-16T18:14:03Z</time>
      </trkpt>
      <trkpt lat="45.7234" lon="6.69634">
        <ele>2085</ele>
        <time>2022-07-16T18:14:05Z</time>
      </trkpt>
      <trkpt lat="45.72341" lon="6.69631">
        <ele>2085</ele>
        <time>2022-07-16T18:14:07Z</time>
      </trkpt>
      <trkpt lat="45.72342" lon="6.69629">
        <ele>2085</ele>
        <time>2022-07-16T18:14:09Z</time>
      </trkpt>
      <trkpt lat="45.72342" lon="6.69626">
        <ele>2085</ele>
        <time>2022-07-16T18:14:11Z</time>
      </trkpt>
      <trkpt lat="45.72342" lon="6.69622">
        <ele>2085</ele>
        <time>2022-07-16T18:14:13Z</time>
      </trkpt>
      <trkpt lat="45.72344" lon="6.69619">
        <ele>2085</ele>
        <time>2022-07-16T18:14:15Z</time>
      </trkpt>
      <trkpt lat="45.72345" lon="6.69615">
        <ele>2085</ele>
        <time>2022-07-16T18:14:17Z</time>
      </trkpt>
      <trkpt lat="45.72346" lon="6.69612">
        <ele>2085</ele>
        <time>2022-07-16T18:14:19Z</time>
      </trkpt>
      <trkpt lat="45.72347" lon="6.69609">
        <ele>2085</ele>
        <time>2022-07-16T18:14:21Z</time>
      </trkpt>
      <trkpt lat="45.72348" lon="6.69606">
        <ele>2085</ele>
        <time>2022-07-16T18:14:23Z</time>
      </trkpt>
      <trkpt lat="45.72349" lon="6.69602">
        <ele>2085</ele>
        <time>2022-07-16T18:14:25Z</time>
      </trkpt>
      <trkpt lat="45.7235" lon="6.69599">
        <ele>2085</ele>
        <time>2022-07-16T18:14:27Z</time>
      </trkpt>
      <trkpt lat="45.72351" lon="6.69596">
        <ele>2085</ele>
        <time>2022-07-16T18:14:29Z</time>
      </trkpt>
      <trkpt lat="45.72353" lon="6.69593">
        <ele>2085</ele>
        <time>2022-07-16T18:14:31Z</time>
      </trkpt>
      <trkpt lat="45.72355" lon="6.69592">
        <ele>2085</ele>
        <time>2022-07-16T18:14:33Z</time>
      </trkpt>
      <trkpt lat="45.72358" lon="6.69592">
        <ele>2085</ele>
        <time>2022-07-16T18:14:35Z</time>
      </trkpt>
      <trkpt lat="45.72361" lon="6.69593">
        <ele>2085</ele>
        <time>2022-07-16T18:14:38Z</time>
      </trkpt>
      <trkpt lat="45.72363" lon="6.69593">
        <ele>2085</ele>
        <time>2022-07-16T18:14:39Z</time>
      </trkpt>
      <trkpt lat="45.72365" lon="6.69592">
        <ele>2085</ele>
        <time>2022-07-16T18:14:41Z</time>
      </trkpt>
      <trkpt lat="45.72367" lon="6.6959">
        <ele>2085</ele>
        <time>2022-07-16T18:14:43Z</time>
      </trkpt>
      <trkpt lat="45.72368" lon="6.69587">
        <ele>2085</ele>
        <time>2022-07-16T18:14:45Z</time>
      </trkpt>
      <trkpt lat="45.72369" lon="6.69584">
        <ele>2085</ele>
        <time>2022-07-16T18:14:47Z</time>
      </trkpt>
      <trkpt lat="45.72369" lon="6.6958">
        <ele>2085</ele>
        <time>2022-07-16T18:14:49Z</time>
      </trkpt>
      <trkpt lat="45.72371" lon="6.69577">
        <ele>2085</ele>
        <time>2022-07-16T18:14:51Z</time>
      </trkpt>
      <trkpt lat="45.72372" lon="6.69575">
        <ele>2085</ele>
        <time>2022-07-16T18:14:53Z</time>
      </trkpt>
      <trkpt lat="45.72373" lon="6.69571">
        <ele>2085</ele>
        <time>2022-07-16T18:14:55Z</time>
      </trkpt>
      <trkpt lat="45.72373" lon="6.69568">
        <ele>2084</ele>
        <time>2022-07-16T18:14:57Z</time>
      </trkpt>
      <trkpt lat="45.72375" lon="6.69565">
        <ele>2083</ele>
        <time>2022-07-16T18:14:59Z</time>
      </trkpt>
      <trkpt lat="45.72377" lon="6.69563">
        <ele>2083</ele>
        <time>2022-07-16T18:15:01Z</time>
      </trkpt>
      <trkpt lat="45.72379" lon="6.69562">
        <ele>2082</ele>
        <time>2022-07-16T18:15:03Z</time>
      </trkpt>
      <trkpt lat="45.72382" lon="6.69561">
        <ele>2082</ele>
        <time>2022-07-16T18:15:06Z</time>
      </trkpt>
      <trkpt lat="45.72383" lon="6.69559">
        <ele>2083</ele>
        <time>2022-07-16T18:15:09Z</time>
      </trkpt>
      <trkpt lat="45.72383" lon="6.69556">
        <ele>2083</ele>
        <time>2022-07-16T18:15:11Z</time>
      </trkpt>
      <trkpt lat="45.72382" lon="6.69553">
        <ele>2083</ele>
        <time>2022-07-16T18:15:16Z</time>
      </trkpt>
      <trkpt lat="45.72382" lon="6.6955">
        <ele>2083</ele>
        <time>2022-07-16T18:15:18Z</time>
      </trkpt>
      <trkpt lat="45.72383" lon="6.69547">
        <ele>2083</ele>
        <time>2022-07-16T18:15:20Z</time>
      </trkpt>
      <trkpt lat="45.72383" lon="6.69544">
        <ele>2083</ele>
        <time>2022-07-16T18:15:22Z</time>
      </trkpt>
      <trkpt lat="45.72381" lon="6.69541">
        <ele>2082</ele>
        <time>2022-07-16T18:15:25Z</time>
      </trkpt>
      <trkpt lat="45.72379" lon="6.69539">
        <ele>2082</ele>
        <time>2022-07-16T18:15:27Z</time>
      </trkpt>
      <trkpt lat="45.72378" lon="6.69536">
        <ele>2081</ele>
        <time>2022-07-16T18:15:29Z</time>
      </trkpt>
      <trkpt lat="45.72379" lon="6.69532">
        <ele>2080</ele>
        <time>2022-07-16T18:15:31Z</time>
      </trkpt>
      <trkpt lat="45.72379" lon="6.69529">
        <ele>2080</ele>
        <time>2022-07-16T18:15:33Z</time>
      </trkpt>
      <trkpt lat="45.72379" lon="6.69525">
        <ele>2079</ele>
        <time>2022-07-16T18:15:35Z</time>
      </trkpt>
      <trkpt lat="45.7238" lon="6.69522">
        <ele>2077</ele>
        <time>2022-07-16T18:15:37Z</time>
      </trkpt>
      <trkpt lat="45.72381" lon="6.69518">
        <ele>2077</ele>
        <time>2022-07-16T18:15:39Z</time>
      </trkpt>
      <trkpt lat="45.72381" lon="6.69514">
        <ele>2077</ele>
        <time>2022-07-16T18:15:41Z</time>
      </trkpt>
      <trkpt lat="45.72382" lon="6.69511">
        <ele>2077</ele>
        <time>2022-07-16T18:15:42Z</time>
      </trkpt>
      <trkpt lat="45.72382" lon="6.69508">
        <ele>2077</ele>
        <time>2022-07-16T18:15:43Z</time>
      </trkpt>
      <trkpt lat="45.72383" lon="6.69505">
        <ele>2077</ele>
        <time>2022-07-16T18:15:44Z</time>
      </trkpt>
      <trkpt lat="45.72384" lon="6.69503">
        <ele>2077</ele>
        <time>2022-07-16T18:15:45Z</time>
      </trkpt>
      <trkpt lat="45.72384" lon="6.695">
        <ele>2077</ele>
        <time>2022-07-16T18:15:46Z</time>
      </trkpt>
      <trkpt lat="45.72386" lon="6.69497">
        <ele>2077</ele>
        <time>2022-07-16T18:15:48Z</time>
      </trkpt>
      <trkpt lat="45.72387" lon="6.69494">
        <ele>2077</ele>
        <time>2022-07-16T18:15:50Z</time>
      </trkpt>
      <trkpt lat="45.72386" lon="6.69491">
        <ele>2077</ele>
        <time>2022-07-16T18:15:52Z</time>
      </trkpt>
      <trkpt lat="45.72385" lon="6.69487">
        <ele>2077</ele>
        <time>2022-07-16T18:15:54Z</time>
      </trkpt>
      <trkpt lat="45.72383" lon="6.69482">
        <ele>2076</ele>
        <time>2022-07-16T18:15:56Z</time>
      </trkpt>
      <trkpt lat="45.72383" lon="6.69478">
        <ele>2076</ele>
        <time>2022-07-16T18:15:58Z</time>
      </trkpt>
      <trkpt lat="45.72383" lon="6.69475">
        <ele>2076</ele>
        <time>2022-07-16T18:15:59Z</time>
      </trkpt>
      <trkpt lat="45.72382" lon="6.6947">
        <ele>2075</ele>
        <time>2022-07-16T18:16:01Z</time>
      </trkpt>
      <trkpt lat="45.72381" lon="6.69466">
        <ele>2075</ele>
        <time>2022-07-16T18:16:03Z</time>
      </trkpt>
      <trkpt lat="45.7238" lon="6.69462">
        <ele>2075</ele>
        <time>2022-07-16T18:16:05Z</time>
      </trkpt>
      <trkpt lat="45.7238" lon="6.69458">
        <ele>2074</ele>
        <time>2022-07-16T18:16:07Z</time>
      </trkpt>
      <trkpt lat="45.72381" lon="6.69455">
        <ele>2074</ele>
        <time>2022-07-16T18:16:09Z</time>
      </trkpt>
      <trkpt lat="45.72381" lon="6.69451">
        <ele>2073</ele>
        <time>2022-07-16T18:16:11Z</time>
      </trkpt>
      <trkpt lat="45.7238" lon="6.69447">
        <ele>2073</ele>
        <time>2022-07-16T18:16:13Z</time>
      </trkpt>
      <trkpt lat="45.72378" lon="6.69444">
        <ele>2072</ele>
        <time>2022-07-16T18:16:15Z</time>
      </trkpt>
      <trkpt lat="45.72377" lon="6.69441">
        <ele>2072</ele>
        <time>2022-07-16T18:16:17Z</time>
      </trkpt>
      <trkpt lat="45.72376" lon="6.69439">
        <ele>2072</ele>
        <time>2022-07-16T18:16:19Z</time>
      </trkpt>
      <trkpt lat="45.72374" lon="6.69436">
        <ele>2072</ele>
        <time>2022-07-16T18:16:21Z</time>
      </trkpt>
      <trkpt lat="45.72373" lon="6.69433">
        <ele>2072</ele>
        <time>2022-07-16T18:16:23Z</time>
      </trkpt>
      <trkpt lat="45.72371" lon="6.69431">
        <ele>2071</ele>
        <time>2022-07-16T18:16:27Z</time>
      </trkpt>
      <trkpt lat="45.72369" lon="6.69433">
        <ele>2070</ele>
        <time>2022-07-16T18:16:32Z</time>
      </trkpt>
      <trkpt lat="45.72367" lon="6.69433">
        <ele>2070</ele>
        <time>2022-07-16T18:16:34Z</time>
      </trkpt>
      <trkpt lat="45.72365" lon="6.69433">
        <ele>2070</ele>
        <time>2022-07-16T18:16:36Z</time>
      </trkpt>
      <trkpt lat="45.72363" lon="6.69431">
        <ele>2069</ele>
        <time>2022-07-16T18:16:38Z</time>
      </trkpt>
      <trkpt lat="45.72361" lon="6.69428">
        <ele>2068</ele>
        <time>2022-07-16T18:16:41Z</time>
      </trkpt>
      <trkpt lat="45.72362" lon="6.69424">
        <ele>2067</ele>
        <time>2022-07-16T18:16:43Z</time>
      </trkpt>
      <trkpt lat="45.72362" lon="6.6942">
        <ele>2067</ele>
        <time>2022-07-16T18:16:45Z</time>
      </trkpt>
      <trkpt lat="45.72362" lon="6.69417">
        <ele>2067</ele>
        <time>2022-07-16T18:16:47Z</time>
      </trkpt>
      <trkpt lat="45.72362" lon="6.69414">
        <ele>2068</ele>
        <time>2022-07-16T18:16:49Z</time>
      </trkpt>
      <trkpt lat="45.72361" lon="6.69411">
        <ele>2068</ele>
        <time>2022-07-16T18:16:51Z</time>
      </trkpt>
      <trkpt lat="45.7236" lon="6.69409">
        <ele>2068</ele>
        <time>2022-07-16T18:16:53Z</time>
      </trkpt>
      <trkpt lat="45.72357" lon="6.69411">
        <ele>2068</ele>
        <time>2022-07-16T18:16:55Z</time>
      </trkpt>
      <trkpt lat="45.72354" lon="6.69414">
        <ele>2067</ele>
        <time>2022-07-16T18:16:57Z</time>
      </trkpt>
      <trkpt lat="45.72352" lon="6.69415">
        <ele>2067</ele>
        <time>2022-07-16T18:16:58Z</time>
      </trkpt>
      <trkpt lat="45.7235" lon="6.69416">
        <ele>2067</ele>
        <time>2022-07-16T18:16:59Z</time>
      </trkpt>
      <trkpt lat="45.72348" lon="6.69412">
        <ele>2066</ele>
        <time>2022-07-16T18:17:01Z</time>
      </trkpt>
      <trkpt lat="45.7235" lon="6.69407">
        <ele>2064</ele>
        <time>2022-07-16T18:17:03Z</time>
      </trkpt>
      <trkpt lat="45.72352" lon="6.69402">
        <ele>2064</ele>
        <time>2022-07-16T18:17:04Z</time>
      </trkpt>
      <trkpt lat="45.72356" lon="6.69391">
        <ele>2066</ele>
        <time>2022-07-16T18:17:05Z</time>
      </trkpt>
      <trkpt lat="45.72358" lon="6.69389">
        <ele>2066</ele>
        <time>2022-07-16T18:17:06Z</time>
      </trkpt>
      <trkpt lat="45.72359" lon="6.69386">
        <ele>2066</ele>
        <time>2022-07-16T18:17:07Z</time>
      </trkpt>
      <trkpt lat="45.7236" lon="6.69384">
        <ele>2066</ele>
        <time>2022-07-16T18:17:08Z</time>
      </trkpt>
      <trkpt lat="45.72362" lon="6.69381">
        <ele>2066</ele>
        <time>2022-07-16T18:17:10Z</time>
      </trkpt>
      <trkpt lat="45.72363" lon="6.69378">
        <ele>2066</ele>
        <time>2022-07-16T18:17:12Z</time>
      </trkpt>
      <trkpt lat="45.72362" lon="6.69375">
        <ele>2066</ele>
        <time>2022-07-16T18:17:14Z</time>
      </trkpt>
      <trkpt lat="45.72361" lon="6.69373">
        <ele>2066</ele>
        <time>2022-07-16T18:17:17Z</time>
      </trkpt>
      <trkpt lat="45.72359" lon="6.69373">
        <ele>2066</ele>
        <time>2022-07-16T18:17:20Z</time>
      </trkpt>
      <trkpt lat="45.72357" lon="6.69372">
        <ele>2066</ele>
        <time>2022-07-16T18:17:22Z</time>
      </trkpt>
      <trkpt lat="45.72357" lon="6.69369">
        <ele>2066</ele>
        <time>2022-07-16T18:17:24Z</time>
      </trkpt>
      <trkpt lat="45.72357" lon="6.69365">
        <ele>2066</ele>
        <time>2022-07-16T18:17:26Z</time>
      </trkpt>
      <trkpt lat="45.72357" lon="6.69361">
        <ele>2066</ele>
        <time>2022-07-16T18:17:29Z</time>
      </trkpt>
      <trkpt lat="45.72357" lon="6.69357">
        <ele>2066</ele>
        <time>2022-07-16T18:17:30Z</time>
      </trkpt>
      <trkpt lat="45.72356" lon="6.69354">
        <ele>2066</ele>
        <time>2022-07-16T18:17:32Z</time>
      </trkpt>
      <trkpt lat="45.72354" lon="6.69351">
        <ele>2064</ele>
        <time>2022-07-16T18:17:34Z</time>
      </trkpt>
      <trkpt lat="45.72353" lon="6.69348">
        <ele>2063</ele>
        <time>2022-07-16T18:17:36Z</time>
      </trkpt>
      <trkpt lat="45.72352" lon="6.69345">
        <ele>2063</ele>
        <time>2022-07-16T18:17:38Z</time>
      </trkpt>
      <trkpt lat="45.72352" lon="6.69342">
        <ele>2063</ele>
        <time>2022-07-16T18:17:40Z</time>
      </trkpt>
      <trkpt lat="45.72352" lon="6.69339">
        <ele>2063</ele>
        <time>2022-07-16T18:17:42Z</time>
      </trkpt>
      <trkpt lat="45.72351" lon="6.69336">
        <ele>2062</ele>
        <time>2022-07-16T18:17:44Z</time>
      </trkpt>
      <trkpt lat="45.7235" lon="6.69334">
        <ele>2062</ele>
        <time>2022-07-16T18:17:46Z</time>
      </trkpt>
      <trkpt lat="45.7235" lon="6.69331">
        <ele>2061</ele>
        <time>2022-07-16T18:17:48Z</time>
      </trkpt>
      <trkpt lat="45.7235" lon="6.69328">
        <ele>2061</ele>
        <time>2022-07-16T18:17:51Z</time>
      </trkpt>
      <trkpt lat="45.72349" lon="6.69324">
        <ele>2061</ele>
        <time>2022-07-16T18:17:54Z</time>
      </trkpt>
      <trkpt lat="45.72349" lon="6.6932">
        <ele>2060</ele>
        <time>2022-07-16T18:17:57Z</time>
      </trkpt>
      <trkpt lat="45.72348" lon="6.69316">
        <ele>2059</ele>
        <time>2022-07-16T18:17:59Z</time>
      </trkpt>
      <trkpt lat="45.72349" lon="6.69312">
        <ele>2058</ele>
        <time>2022-07-16T18:18:01Z</time>
      </trkpt>
      <trkpt lat="45.72349" lon="6.69309">
        <ele>2058</ele>
        <time>2022-07-16T18:18:03Z</time>
      </trkpt>
      <trkpt lat="45.72349" lon="6.69306">
        <ele>2058</ele>
        <time>2022-07-16T18:18:05Z</time>
      </trkpt>
      <trkpt lat="45.72348" lon="6.69302">
        <ele>2058</ele>
        <time>2022-07-16T18:18:07Z</time>
      </trkpt>
      <trkpt lat="45.72347" lon="6.693">
        <ele>2058</ele>
        <time>2022-07-16T18:18:09Z</time>
      </trkpt>
      <trkpt lat="45.72345" lon="6.69297">
        <ele>2057</ele>
        <time>2022-07-16T18:18:11Z</time>
      </trkpt>
      <trkpt lat="45.72345" lon="6.69294">
        <ele>2057</ele>
        <time>2022-07-16T18:18:13Z</time>
      </trkpt>
      <trkpt lat="45.72344" lon="6.6929">
        <ele>2057</ele>
        <time>2022-07-16T18:18:16Z</time>
      </trkpt>
      <trkpt lat="45.72344" lon="6.69287">
        <ele>2057</ele>
        <time>2022-07-16T18:18:18Z</time>
      </trkpt>
      <trkpt lat="45.72343" lon="6.69284">
        <ele>2056</ele>
        <time>2022-07-16T18:18:20Z</time>
      </trkpt>
      <trkpt lat="45.72343" lon="6.69281">
        <ele>2056</ele>
        <time>2022-07-16T18:18:22Z</time>
      </trkpt>
      <trkpt lat="45.72342" lon="6.69278">
        <ele>2055</ele>
        <time>2022-07-16T18:18:24Z</time>
      </trkpt>
      <trkpt lat="45.7234" lon="6.69276">
        <ele>2055</ele>
        <time>2022-07-16T18:18:26Z</time>
      </trkpt>
      <trkpt lat="45.72339" lon="6.69274">
        <ele>2053</ele>
        <time>2022-07-16T18:18:28Z</time>
      </trkpt>
      <trkpt lat="45.72339" lon="6.69271">
        <ele>2053</ele>
        <time>2022-07-16T18:18:30Z</time>
      </trkpt>
      <trkpt lat="45.72338" lon="6.69268">
        <ele>2053</ele>
        <time>2022-07-16T18:18:34Z</time>
      </trkpt>
      <trkpt lat="45.72337" lon="6.69265">
        <ele>2052</ele>
        <time>2022-07-16T18:18:36Z</time>
      </trkpt>
      <trkpt lat="45.72336" lon="6.69261">
        <ele>2052</ele>
        <time>2022-07-16T18:18:38Z</time>
      </trkpt>
      <trkpt lat="45.72336" lon="6.69258">
        <ele>2051</ele>
        <time>2022-07-16T18:18:41Z</time>
      </trkpt>
      <trkpt lat="45.72334" lon="6.69256">
        <ele>2051</ele>
        <time>2022-07-16T18:18:44Z</time>
      </trkpt>
      <trkpt lat="45.72332" lon="6.69254">
        <ele>2049</ele>
        <time>2022-07-16T18:18:47Z</time>
      </trkpt>
      <trkpt lat="45.72331" lon="6.69251">
        <ele>2048</ele>
        <time>2022-07-16T18:18:50Z</time>
      </trkpt>
      <trkpt lat="45.7233" lon="6.69253">
        <ele>2047</ele>
        <time>2022-07-16T18:18:55Z</time>
      </trkpt>
      <trkpt lat="45.72329" lon="6.69255">
        <ele>2046</ele>
        <time>2022-07-16T18:18:57Z</time>
      </trkpt>
      <trkpt lat="45.72328" lon="6.69258">
        <ele>2046</ele>
        <time>2022-07-16T18:18:59Z</time>
      </trkpt>
      <trkpt lat="45.72327" lon="6.69261">
        <ele>2046</ele>
        <time>2022-07-16T18:19:01Z</time>
      </trkpt>
      <trkpt lat="45.72327" lon="6.69264">
        <ele>2046</ele>
        <time>2022-07-16T18:19:03Z</time>
      </trkpt>
      <trkpt lat="45.72326" lon="6.69267">
        <ele>2046</ele>
        <time>2022-07-16T18:19:05Z</time>
      </trkpt>
      <trkpt lat="45.72325" lon="6.6927">
        <ele>2047</ele>
        <time>2022-07-16T18:19:07Z</time>
      </trkpt>
      <trkpt lat="45.72324" lon="6.69273">
        <ele>2047</ele>
        <time>2022-07-16T18:19:09Z</time>
      </trkpt>
      <trkpt lat="45.72322" lon="6.69275">
        <ele>2046</ele>
        <time>2022-07-16T18:19:12Z</time>
      </trkpt>
      <trkpt lat="45.72322" lon="6.69275">
        <ele>2046</ele>
        <time>2022-07-16T18:19:24Z</time>
      </trkpt>
      <trkpt lat="45.7232" lon="6.69274">
        <ele>2046</ele>
        <time>2022-07-16T18:19:27Z</time>
      </trkpt>
      <trkpt lat="45.72318" lon="6.69273">
        <ele>2046</ele>
        <time>2022-07-16T18:19:30Z</time>
      </trkpt>
      <trkpt lat="45.72318" lon="6.69269">
        <ele>2046</ele>
        <time>2022-07-16T18:19:32Z</time>
      </trkpt>
      <trkpt lat="45.72318" lon="6.69265">
        <ele>2046</ele>
        <time>2022-07-16T18:19:34Z</time>
      </trkpt>
      <trkpt lat="45.72318" lon="6.69261">
        <ele>2046</ele>
        <time>2022-07-16T18:19:36Z</time>
      </trkpt>
      <trkpt lat="45.72318" lon="6.69258">
        <ele>2046</ele>
        <time>2022-07-16T18:19:38Z</time>
      </trkpt>
      <trkpt lat="45.72317" lon="6.69254">
        <ele>2046</ele>
        <time>2022-07-16T18:19:42Z</time>
      </trkpt>
      <trkpt lat="45.72316" lon="6.69252">
        <ele>2046</ele>
        <time>2022-07-16T18:19:45Z</time>
      </trkpt>
      <trkpt lat="45.72314" lon="6.6925">
        <ele>2047</ele>
        <time>2022-07-16T18:19:48Z</time>
      </trkpt>
      <trkpt lat="45.72313" lon="6.69247">
        <ele>2048</ele>
        <time>2022-07-16T18:19:52Z</time>
      </trkpt>
      <trkpt lat="45.72313" lon="6.69244">
        <ele>2048</ele>
        <time>2022-07-16T18:19:55Z</time>
      </trkpt>
      <trkpt lat="45.72314" lon="6.69241">
        <ele>2049</ele>
        <time>2022-07-16T18:19:58Z</time>
      </trkpt>
      <trkpt lat="45.72314" lon="6.69237">
        <ele>2049</ele>
        <time>2022-07-16T18:20:01Z</time>
      </trkpt>
      <trkpt lat="45.72315" lon="6.69234">
        <ele>2048</ele>
        <time>2022-07-16T18:20:04Z</time>
      </trkpt>
      <trkpt lat="45.72315" lon="6.69232">
        <ele>2048</ele>
        <time>2022-07-16T18:20:06Z</time>
      </trkpt>
      <trkpt lat="45.72316" lon="6.69229">
        <ele>2048</ele>
        <time>2022-07-16T18:20:08Z</time>
      </trkpt>
      <trkpt lat="45.72316" lon="6.69226">
        <ele>2048</ele>
        <time>2022-07-16T18:20:10Z</time>
      </trkpt>
      <trkpt lat="45.72316" lon="6.69222">
        <ele>2048</ele>
        <time>2022-07-16T18:20:12Z</time>
      </trkpt>
      <trkpt lat="45.72316" lon="6.6922">
        <ele>2048</ele>
        <time>2022-07-16T18:20:14Z</time>
      </trkpt>
      <trkpt lat="45.72317" lon="6.69217">
        <ele>2048</ele>
        <time>2022-07-16T18:20:18Z</time>
      </trkpt>
      <trkpt lat="45.72317" lon="6.69217">
        <ele>2047</ele>
        <time>2022-07-16T18:20:30Z</time>
      </trkpt>
      <trkpt lat="45.72319" lon="6.69215">
        <ele>2047</ele>
        <time>2022-07-16T18:20:40Z</time>
      </trkpt>
      <trkpt lat="45.7232" lon="6.69212">
        <ele>2046</ele>
        <time>2022-07-16T18:20:42Z</time>
      </trkpt>
      <trkpt lat="45.72321" lon="6.69209">
        <ele>2046</ele>
        <time>2022-07-16T18:20:45Z</time>
      </trkpt>
      <trkpt lat="45.72321" lon="6.69206">
        <ele>2046</ele>
        <time>2022-07-16T18:20:47Z</time>
      </trkpt>
      <trkpt lat="45.72321" lon="6.69204">
        <ele>2046</ele>
        <time>2022-07-16T18:20:49Z</time>
      </trkpt>
      <trkpt lat="45.7232" lon="6.69201">
        <ele>2046</ele>
        <time>2022-07-16T18:20:51Z</time>
      </trkpt>
      <trkpt lat="45.72319" lon="6.69198">
        <ele>2046</ele>
        <time>2022-07-16T18:20:53Z</time>
      </trkpt>
      <trkpt lat="45.72318" lon="6.69195">
        <ele>2047</ele>
        <time>2022-07-16T18:20:55Z</time>
      </trkpt>
      <trkpt lat="45.72317" lon="6.69192">
        <ele>2047</ele>
        <time>2022-07-16T18:20:58Z</time>
      </trkpt>
      <trkpt lat="45.72317" lon="6.69189">
        <ele>2047</ele>
        <time>2022-07-16T18:20:59Z</time>
      </trkpt>
      <trkpt lat="45.72318" lon="6.69185">
        <ele>2047</ele>
        <time>2022-07-16T18:21:01Z</time>
      </trkpt>
      <trkpt lat="45.72318" lon="6.69182">
        <ele>2047</ele>
        <time>2022-07-16T18:21:03Z</time>
      </trkpt>
      <trkpt lat="45.72318" lon="6.69178">
        <ele>2046</ele>
        <time>2022-07-16T18:21:05Z</time>
      </trkpt>
      <trkpt lat="45.72317" lon="6.69174">
        <ele>2046</ele>
        <time>2022-07-16T18:21:07Z</time>
      </trkpt>
      <trkpt lat="45.72317" lon="6.69172">
        <ele>2046</ele>
        <time>2022-07-16T18:21:09Z</time>
      </trkpt>
      <trkpt lat="45.72316" lon="6.69169">
        <ele>2046</ele>
        <time>2022-07-16T18:21:11Z</time>
      </trkpt>
      <trkpt lat="45.72315" lon="6.69166">
        <ele>2046</ele>
        <time>2022-07-16T18:21:13Z</time>
      </trkpt>
      <trkpt lat="45.72315" lon="6.69163">
        <ele>2047</ele>
        <time>2022-07-16T18:21:15Z</time>
      </trkpt>
      <trkpt lat="45.72315" lon="6.69159">
        <ele>2047</ele>
        <time>2022-07-16T18:21:17Z</time>
      </trkpt>
      <trkpt lat="45.72315" lon="6.69155">
        <ele>2047</ele>
        <time>2022-07-16T18:21:20Z</time>
      </trkpt>
      <trkpt lat="45.72315" lon="6.69153">
        <ele>2047</ele>
        <time>2022-07-16T18:21:22Z</time>
      </trkpt>
      <trkpt lat="45.72316" lon="6.69149">
        <ele>2047</ele>
        <time>2022-07-16T18:21:25Z</time>
      </trkpt>
      <trkpt lat="45.72316" lon="6.69146">
        <ele>2046</ele>
        <time>2022-07-16T18:21:28Z</time>
      </trkpt>
      <trkpt lat="45.72316" lon="6.69143">
        <ele>2047</ele>
        <time>2022-07-16T18:21:30Z</time>
      </trkpt>
      <trkpt lat="45.72316" lon="6.6914">
        <ele>2047</ele>
        <time>2022-07-16T18:21:32Z</time>
      </trkpt>
      <trkpt lat="45.72317" lon="6.69137">
        <ele>2047</ele>
        <time>2022-07-16T18:21:34Z</time>
      </trkpt>
      <trkpt lat="45.72316" lon="6.69135">
        <ele>2047</ele>
        <time>2022-07-16T18:21:36Z</time>
      </trkpt>
      <trkpt lat="45.72316" lon="6.69131">
        <ele>2047</ele>
        <time>2022-07-16T18:21:39Z</time>
      </trkpt>
      <trkpt lat="45.72315" lon="6.69129">
        <ele>2049</ele>
        <time>2022-07-16T18:21:42Z</time>
      </trkpt>
      <trkpt lat="45.72314" lon="6.69126">
        <ele>2049</ele>
        <time>2022-07-16T18:21:45Z</time>
      </trkpt>
      <trkpt lat="45.72314" lon="6.69124">
        <ele>2049</ele>
        <time>2022-07-16T18:21:47Z</time>
      </trkpt>
      <trkpt lat="45.72313" lon="6.69121">
        <ele>2050</ele>
        <time>2022-07-16T18:21:49Z</time>
      </trkpt>
      <trkpt lat="45.72313" lon="6.69118">
        <ele>2049</ele>
        <time>2022-07-16T18:21:51Z</time>
      </trkpt>
      <trkpt lat="45.72313" lon="6.69115">
        <ele>2050</ele>
        <time>2022-07-16T18:21:53Z</time>
      </trkpt>
      <trkpt lat="45.72312" lon="6.69112">
        <ele>2050</ele>
        <time>2022-07-16T18:21:56Z</time>
      </trkpt>
      <trkpt lat="45.72313" lon="6.69109">
        <ele>2051</ele>
        <time>2022-07-16T18:21:59Z</time>
      </trkpt>
      <trkpt lat="45.72313" lon="6.69105">
        <ele>2052</ele>
        <time>2022-07-16T18:22:02Z</time>
      </trkpt>
      <trkpt lat="45.72313" lon="6.69102">
        <ele>2051</ele>
        <time>2022-07-16T18:22:04Z</time>
      </trkpt>
      <trkpt lat="45.72313" lon="6.69099">
        <ele>2051</ele>
        <time>2022-07-16T18:22:06Z</time>
      </trkpt>
      <trkpt lat="45.72312" lon="6.69095">
        <ele>2052</ele>
        <time>2022-07-16T18:22:09Z</time>
      </trkpt>
      <trkpt lat="45.72312" lon="6.69092">
        <ele>2052</ele>
        <time>2022-07-16T18:22:12Z</time>
      </trkpt>
      <trkpt lat="45.72311" lon="6.69089">
        <ele>2052</ele>
        <time>2022-07-16T18:22:14Z</time>
      </trkpt>
      <trkpt lat="45.72311" lon="6.69085">
        <ele>2052</ele>
        <time>2022-07-16T18:22:17Z</time>
      </trkpt>
      <trkpt lat="45.72312" lon="6.69082">
        <ele>2052</ele>
        <time>2022-07-16T18:22:19Z</time>
      </trkpt>
      <trkpt lat="45.72313" lon="6.69079">
        <ele>2051</ele>
        <time>2022-07-16T18:22:21Z</time>
      </trkpt>
      <trkpt lat="45.72313" lon="6.69076">
        <ele>2051</ele>
        <time>2022-07-16T18:22:23Z</time>
      </trkpt>
      <trkpt lat="45.72312" lon="6.69073">
        <ele>2051</ele>
        <time>2022-07-16T18:22:25Z</time>
      </trkpt>
      <trkpt lat="45.72312" lon="6.6907">
        <ele>2052</ele>
        <time>2022-07-16T18:22:27Z</time>
      </trkpt>
      <trkpt lat="45.7231" lon="6.69067">
        <ele>2052</ele>
        <time>2022-07-16T18:22:30Z</time>
      </trkpt>
      <trkpt lat="45.72309" lon="6.69063">
        <ele>2053</ele>
        <time>2022-07-16T18:22:33Z</time>
      </trkpt>
      <trkpt lat="45.72308" lon="6.6906">
        <ele>2053</ele>
        <time>2022-07-16T18:22:35Z</time>
      </trkpt>
      <trkpt lat="45.72309" lon="6.69057">
        <ele>2053</ele>
        <time>2022-07-16T18:22:37Z</time>
      </trkpt>
      <trkpt lat="45.72309" lon="6.69054">
        <ele>2053</ele>
        <time>2022-07-16T18:22:39Z</time>
      </trkpt>
      <trkpt lat="45.7231" lon="6.69051">
        <ele>2053</ele>
        <time>2022-07-16T18:22:41Z</time>
      </trkpt>
      <trkpt lat="45.72311" lon="6.69047">
        <ele>2052</ele>
        <time>2022-07-16T18:22:43Z</time>
      </trkpt>
      <trkpt lat="45.72311" lon="6.69043">
        <ele>2052</ele>
        <time>2022-07-16T18:22:45Z</time>
      </trkpt>
      <trkpt lat="45.72311" lon="6.6904">
        <ele>2052</ele>
        <time>2022-07-16T18:22:47Z</time>
      </trkpt>
      <trkpt lat="45.72311" lon="6.69037">
        <ele>2052</ele>
        <time>2022-07-16T18:22:49Z</time>
      </trkpt>
      <trkpt lat="45.72312" lon="6.69033">
        <ele>2052</ele>
        <time>2022-07-16T18:22:51Z</time>
      </trkpt>
      <trkpt lat="45.72313" lon="6.6903">
        <ele>2052</ele>
        <time>2022-07-16T18:22:53Z</time>
      </trkpt>
      <trkpt lat="45.72314" lon="6.69027">
        <ele>2051</ele>
        <time>2022-07-16T18:22:55Z</time>
      </trkpt>
      <trkpt lat="45.72313" lon="6.69024">
        <ele>2051</ele>
        <time>2022-07-16T18:22:57Z</time>
      </trkpt>
      <trkpt lat="45.72313" lon="6.69021">
        <ele>2051</ele>
        <time>2022-07-16T18:22:59Z</time>
      </trkpt>
      <trkpt lat="45.72313" lon="6.69017">
        <ele>2052</ele>
        <time>2022-07-16T18:23:02Z</time>
      </trkpt>
      <trkpt lat="45.72312" lon="6.69014">
        <ele>2052</ele>
        <time>2022-07-16T18:23:05Z</time>
      </trkpt>
      <trkpt lat="45.72312" lon="6.69012">
        <ele>2052</ele>
        <time>2022-07-16T18:23:08Z</time>
      </trkpt>
      <trkpt lat="45.72312" lon="6.69008">
        <ele>2053</ele>
        <time>2022-07-16T18:23:11Z</time>
      </trkpt>
      <trkpt lat="45.72312" lon="6.69006">
        <ele>2054</ele>
        <time>2022-07-16T18:23:13Z</time>
      </trkpt>
      <trkpt lat="45.72313" lon="6.69003">
        <ele>2054</ele>
        <time>2022-07-16T18:23:15Z</time>
      </trkpt>
      <trkpt lat="45.72313" lon="6.68999">
        <ele>2054</ele>
        <time>2022-07-16T18:23:17Z</time>
      </trkpt>
      <trkpt lat="45.72314" lon="6.68996">
        <ele>2055</ele>
        <time>2022-07-16T18:23:19Z</time>
      </trkpt>
      <trkpt lat="45.72314" lon="6.68993">
        <ele>2055</ele>
        <time>2022-07-16T18:23:21Z</time>
      </trkpt>
      <trkpt lat="45.72314" lon="6.6899">
        <ele>2055</ele>
        <time>2022-07-16T18:23:23Z</time>
      </trkpt>
      <trkpt lat="45.72315" lon="6.68988">
        <ele>2055</ele>
        <time>2022-07-16T18:23:25Z</time>
      </trkpt>
      <trkpt lat="45.72317" lon="6.68985">
        <ele>2056</ele>
        <time>2022-07-16T18:23:27Z</time>
      </trkpt>
      <trkpt lat="45.72318" lon="6.68981">
        <ele>2056</ele>
        <time>2022-07-16T18:23:29Z</time>
      </trkpt>
      <trkpt lat="45.72318" lon="6.68978">
        <ele>2056</ele>
        <time>2022-07-16T18:23:31Z</time>
      </trkpt>
      <trkpt lat="45.72319" lon="6.68974">
        <ele>2056</ele>
        <time>2022-07-16T18:23:33Z</time>
      </trkpt>
      <trkpt lat="45.7232" lon="6.68971">
        <ele>2056</ele>
        <time>2022-07-16T18:23:35Z</time>
      </trkpt>
      <trkpt lat="45.72321" lon="6.68969">
        <ele>2056</ele>
        <time>2022-07-16T18:23:37Z</time>
      </trkpt>
      <trkpt lat="45.72323" lon="6.68965">
        <ele>2056</ele>
        <time>2022-07-16T18:23:39Z</time>
      </trkpt>
      <trkpt lat="45.72326" lon="6.68961">
        <ele>2055</ele>
        <time>2022-07-16T18:23:41Z</time>
      </trkpt>
      <trkpt lat="45.72326" lon="6.68959">
        <ele>2055</ele>
        <time>2022-07-16T18:23:42Z</time>
      </trkpt>
      <trkpt lat="45.72327" lon="6.68957">
        <ele>2055</ele>
        <time>2022-07-16T18:23:43Z</time>
      </trkpt>
      <trkpt lat="45.72328" lon="6.68955">
        <ele>2054</ele>
        <time>2022-07-16T18:23:44Z</time>
      </trkpt>
      <trkpt lat="45.72329" lon="6.68953">
        <ele>2053</ele>
        <time>2022-07-16T18:23:45Z</time>
      </trkpt>
      <trkpt lat="45.72331" lon="6.6895">
        <ele>2053</ele>
        <time>2022-07-16T18:23:46Z</time>
      </trkpt>
      <trkpt lat="45.72333" lon="6.68947">
        <ele>2053</ele>
        <time>2022-07-16T18:23:48Z</time>
      </trkpt>
      <trkpt lat="45.72336" lon="6.68943">
        <ele>2053</ele>
        <time>2022-07-16T18:23:50Z</time>
      </trkpt>
      <trkpt lat="45.72337" lon="6.68942">
        <ele>2052</ele>
        <time>2022-07-16T18:23:51Z</time>
      </trkpt>
      <trkpt lat="45.72338" lon="6.6894">
        <ele>2052</ele>
        <time>2022-07-16T18:23:52Z</time>
      </trkpt>
      <trkpt lat="45.7234" lon="6.68938">
        <ele>2052</ele>
        <time>2022-07-16T18:23:53Z</time>
      </trkpt>
      <trkpt lat="45.72342" lon="6.68936">
        <ele>2051</ele>
        <time>2022-07-16T18:23:55Z</time>
      </trkpt>
      <trkpt lat="45.72344" lon="6.68933">
        <ele>2051</ele>
        <time>2022-07-16T18:23:57Z</time>
      </trkpt>
      <trkpt lat="45.72344" lon="6.68929">
        <ele>2051</ele>
        <time>2022-07-16T18:23:59Z</time>
      </trkpt>
      <trkpt lat="45.72344" lon="6.68925">
        <ele>2050</ele>
        <time>2022-07-16T18:24:01Z</time>
      </trkpt>
      <trkpt lat="45.72344" lon="6.68921">
        <ele>2050</ele>
        <time>2022-07-16T18:24:03Z</time>
      </trkpt>
      <trkpt lat="45.72344" lon="6.68918">
        <ele>2049</ele>
        <time>2022-07-16T18:24:05Z</time>
      </trkpt>
      <trkpt lat="45.72346" lon="6.68912">
        <ele>2049</ele>
        <time>2022-07-16T18:24:08Z</time>
      </trkpt>
      <trkpt lat="45.72348" lon="6.6891">
        <ele>2048</ele>
        <time>2022-07-16T18:24:09Z</time>
      </trkpt>
      <trkpt lat="45.72349" lon="6.68909">
        <ele>2047</ele>
        <time>2022-07-16T18:24:10Z</time>
      </trkpt>
      <trkpt lat="45.72352" lon="6.68906">
        <ele>2047</ele>
        <time>2022-07-16T18:24:12Z</time>
      </trkpt>
      <trkpt lat="45.72354" lon="6.68904">
        <ele>2047</ele>
        <time>2022-07-16T18:24:14Z</time>
      </trkpt>
      <trkpt lat="45.72357" lon="6.68902">
        <ele>2046</ele>
        <time>2022-07-16T18:24:16Z</time>
      </trkpt>
      <trkpt lat="45.72359" lon="6.68901">
        <ele>2046</ele>
        <time>2022-07-16T18:24:17Z</time>
      </trkpt>
      <trkpt lat="45.72361" lon="6.689">
        <ele>2046</ele>
        <time>2022-07-16T18:24:18Z</time>
      </trkpt>
      <trkpt lat="45.72362" lon="6.68898">
        <ele>2046</ele>
        <time>2022-07-16T18:24:19Z</time>
      </trkpt>
      <trkpt lat="45.72364" lon="6.68897">
        <ele>2045</ele>
        <time>2022-07-16T18:24:20Z</time>
      </trkpt>
      <trkpt lat="45.72366" lon="6.68896">
        <ele>2045</ele>
        <time>2022-07-16T18:24:21Z</time>
      </trkpt>
      <trkpt lat="45.7237" lon="6.68892">
        <ele>2045</ele>
        <time>2022-07-16T18:24:22Z</time>
      </trkpt>
      <trkpt lat="45.72374" lon="6.68888">
        <ele>2044</ele>
        <time>2022-07-16T18:24:23Z</time>
      </trkpt>
      <trkpt lat="45.72375" lon="6.68887">
        <ele>2044</ele>
        <time>2022-07-16T18:24:24Z</time>
      </trkpt>
      <trkpt lat="45.72376" lon="6.68886">
        <ele>2044</ele>
        <time>2022-07-16T18:24:25Z</time>
      </trkpt>
      <trkpt lat="45.72376" lon="6.68885">
        <ele>2044</ele>
        <time>2022-07-16T18:24:26Z</time>
      </trkpt>
      <trkpt lat="45.72377" lon="6.68884">
        <ele>2044</ele>
        <time>2022-07-16T18:24:27Z</time>
      </trkpt>
      <trkpt lat="45.72378" lon="6.68883">
        <ele>2043</ele>
        <time>2022-07-16T18:24:28Z</time>
      </trkpt>
      <trkpt lat="45.72378" lon="6.68882">
        <ele>2043</ele>
        <time>2022-07-16T18:24:29Z</time>
      </trkpt>
      <trkpt lat="45.72379" lon="6.68881">
        <ele>2043</ele>
        <time>2022-07-16T18:24:30Z</time>
      </trkpt>
      <trkpt lat="45.7238" lon="6.6888">
        <ele>2042</ele>
        <time>2022-07-16T18:24:31Z</time>
      </trkpt>
      <trkpt lat="45.72381" lon="6.68878">
        <ele>2042</ele>
        <time>2022-07-16T18:24:32Z</time>
      </trkpt>
      <trkpt lat="45.72381" lon="6.68875">
        <ele>2041</ele>
        <time>2022-07-16T18:24:38Z</time>
      </trkpt>
      <trkpt lat="45.72383" lon="6.68872">
        <ele>2041</ele>
        <time>2022-07-16T18:24:40Z</time>
      </trkpt>
      <trkpt lat="45.72385" lon="6.68871">
        <ele>2040</ele>
        <time>2022-07-16T18:24:42Z</time>
      </trkpt>
      <trkpt lat="45.72385" lon="6.6887">
        <ele>2040</ele>
        <time>2022-07-16T18:24:44Z</time>
      </trkpt>
      <trkpt lat="45.72386" lon="6.68869">
        <ele>2038</ele>
        <time>2022-07-16T18:24:45Z</time>
      </trkpt>
      <trkpt lat="45.72387" lon="6.68869">
        <ele>2038</ele>
        <time>2022-07-16T18:24:46Z</time>
      </trkpt>
      <trkpt lat="45.72388" lon="6.68868">
        <ele>2038</ele>
        <time>2022-07-16T18:24:47Z</time>
      </trkpt>
      <trkpt lat="45.72388" lon="6.68867">
        <ele>2037</ele>
        <time>2022-07-16T18:24:48Z</time>
      </trkpt>
      <trkpt lat="45.72389" lon="6.68866">
        <ele>2037</ele>
        <time>2022-07-16T18:24:49Z</time>
      </trkpt>
      <trkpt lat="45.7239" lon="6.68866">
        <ele>2037</ele>
        <time>2022-07-16T18:24:50Z</time>
      </trkpt>
      <trkpt lat="45.72391" lon="6.68865">
        <ele>2037</ele>
        <time>2022-07-16T18:24:51Z</time>
      </trkpt>
      <trkpt lat="45.72392" lon="6.68864">
        <ele>2037</ele>
        <time>2022-07-16T18:24:52Z</time>
      </trkpt>
      <trkpt lat="45.72392" lon="6.68863">
        <ele>2037</ele>
        <time>2022-07-16T18:24:53Z</time>
      </trkpt>
      <trkpt lat="45.72393" lon="6.68863">
        <ele>2036</ele>
        <time>2022-07-16T18:24:54Z</time>
      </trkpt>
      <trkpt lat="45.72395" lon="6.68863">
        <ele>2035</ele>
        <time>2022-07-16T18:24:55Z</time>
      </trkpt>
      <trkpt lat="45.72397" lon="6.68863">
        <ele>2035</ele>
        <time>2022-07-16T18:24:56Z</time>
      </trkpt>
      <trkpt lat="45.724" lon="6.68863">
        <ele>2035</ele>
        <time>2022-07-16T18:24:57Z</time>
      </trkpt>
      <trkpt lat="45.72402" lon="6.68863">
        <ele>2035</ele>
        <time>2022-07-16T18:24:58Z</time>
      </trkpt>
      <trkpt lat="45.72403" lon="6.68863">
        <ele>2035</ele>
        <time>2022-07-16T18:24:59Z</time>
      </trkpt>
      <trkpt lat="45.72405" lon="6.68864">
        <ele>2035</ele>
        <time>2022-07-16T18:25:00Z</time>
      </trkpt>
      <trkpt lat="45.72406" lon="6.68864">
        <ele>2034</ele>
        <time>2022-07-16T18:25:01Z</time>
      </trkpt>
      <trkpt lat="45.72407" lon="6.68864">
        <ele>2034</ele>
        <time>2022-07-16T18:25:02Z</time>
      </trkpt>
      <trkpt lat="45.72409" lon="6.68864">
        <ele>2034</ele>
        <time>2022-07-16T18:25:03Z</time>
      </trkpt>
      <trkpt lat="45.7241" lon="6.68865">
        <ele>2033</ele>
        <time>2022-07-16T18:25:05Z</time>
      </trkpt>
      <trkpt lat="45.72412" lon="6.68865">
        <ele>2033</ele>
        <time>2022-07-16T18:25:06Z</time>
      </trkpt>
      <trkpt lat="45.72414" lon="6.68866">
        <ele>2032</ele>
        <time>2022-07-16T18:25:07Z</time>
      </trkpt>
      <trkpt lat="45.72416" lon="6.68867">
        <ele>2032</ele>
        <time>2022-07-16T18:25:08Z</time>
      </trkpt>
      <trkpt lat="45.72418" lon="6.68868">
        <ele>2032</ele>
        <time>2022-07-16T18:25:09Z</time>
      </trkpt>
      <trkpt lat="45.7242" lon="6.68869">
        <ele>2032</ele>
        <time>2022-07-16T18:25:10Z</time>
      </trkpt>
      <trkpt lat="45.72422" lon="6.68869">
        <ele>2032</ele>
        <time>2022-07-16T18:25:11Z</time>
      </trkpt>
      <trkpt lat="45.72425" lon="6.6887">
        <ele>2031</ele>
        <time>2022-07-16T18:25:12Z</time>
      </trkpt>
      <trkpt lat="45.72428" lon="6.68871">
        <ele>2031</ele>
        <time>2022-07-16T18:25:13Z</time>
      </trkpt>
      <trkpt lat="45.72431" lon="6.68871">
        <ele>2030</ele>
        <time>2022-07-16T18:25:14Z</time>
      </trkpt>
      <trkpt lat="45.72434" lon="6.68872">
        <ele>2030</ele>
        <time>2022-07-16T18:25:15Z</time>
      </trkpt>
      <trkpt lat="45.72433" lon="6.68873">
        <ele>2030</ele>
        <time>2022-07-16T18:25:16Z</time>
      </trkpt>
      <trkpt lat="45.72432" lon="6.68875">
        <ele>2030</ele>
        <time>2022-07-16T18:25:17Z</time>
      </trkpt>
      <trkpt lat="45.7243" lon="6.68876">
        <ele>2030</ele>
        <time>2022-07-16T18:25:18Z</time>
      </trkpt>
      <trkpt lat="45.72429" lon="6.68878">
        <ele>2030</ele>
        <time>2022-07-16T18:25:19Z</time>
      </trkpt>
      <trkpt lat="45.72428" lon="6.68879">
        <ele>2030</ele>
        <time>2022-07-16T18:25:20Z</time>
      </trkpt>
      <trkpt lat="45.72427" lon="6.68881">
        <ele>2030</ele>
        <time>2022-07-16T18:25:21Z</time>
      </trkpt>
      <trkpt lat="45.72429" lon="6.68879">
        <ele>2029</ele>
        <time>2022-07-16T18:25:22Z</time>
      </trkpt>
      <trkpt lat="45.72431" lon="6.68877">
        <ele>2029</ele>
        <time>2022-07-16T18:25:23Z</time>
      </trkpt>
      <trkpt lat="45.72432" lon="6.68875">
        <ele>2029</ele>
        <time>2022-07-16T18:25:24Z</time>
      </trkpt>
      <trkpt lat="45.72434" lon="6.68873">
        <ele>2028</ele>
        <time>2022-07-16T18:25:25Z</time>
      </trkpt>
      <trkpt lat="45.72436" lon="6.68871">
        <ele>2028</ele>
        <time>2022-07-16T18:25:26Z</time>
      </trkpt>
      <trkpt lat="45.72437" lon="6.6887">
        <ele>2028</ele>
        <time>2022-07-16T18:25:27Z</time>
      </trkpt>
      <trkpt lat="45.72439" lon="6.68869">
        <ele>2028</ele>
        <time>2022-07-16T18:25:28Z</time>
      </trkpt>
      <trkpt lat="45.7244" lon="6.68868">
        <ele>2028</ele>
        <time>2022-07-16T18:25:29Z</time>
      </trkpt>
      <trkpt lat="45.72442" lon="6.68867">
        <ele>2028</ele>
        <time>2022-07-16T18:25:30Z</time>
      </trkpt>
      <trkpt lat="45.72443" lon="6.68866">
        <ele>2027</ele>
        <time>2022-07-16T18:25:31Z</time>
      </trkpt>
      <trkpt lat="45.72445" lon="6.68865">
        <ele>2027</ele>
        <time>2022-07-16T18:25:32Z</time>
      </trkpt>
      <trkpt lat="45.72447" lon="6.68862">
        <ele>2027</ele>
        <time>2022-07-16T18:25:33Z</time>
      </trkpt>
      <trkpt lat="45.72449" lon="6.68858">
        <ele>2027</ele>
        <time>2022-07-16T18:25:34Z</time>
      </trkpt>
      <trkpt lat="45.72451" lon="6.68855">
        <ele>2026</ele>
        <time>2022-07-16T18:25:35Z</time>
      </trkpt>
      <trkpt lat="45.72453" lon="6.68851">
        <ele>2026</ele>
        <time>2022-07-16T18:25:36Z</time>
      </trkpt>
      <trkpt lat="45.72449" lon="6.68852">
        <ele>2025</ele>
        <time>2022-07-16T18:25:37Z</time>
      </trkpt>
      <trkpt lat="45.72446" lon="6.68852">
        <ele>2025</ele>
        <time>2022-07-16T18:25:38Z</time>
      </trkpt>
      <trkpt lat="45.72443" lon="6.68853">
        <ele>2025</ele>
        <time>2022-07-16T18:25:39Z</time>
      </trkpt>
      <trkpt lat="45.72439" lon="6.68853">
        <ele>2025</ele>
        <time>2022-07-16T18:25:40Z</time>
      </trkpt>
      <trkpt lat="45.72436" lon="6.68853">
        <ele>2025</ele>
        <time>2022-07-16T18:25:41Z</time>
      </trkpt>
      <trkpt lat="45.72433" lon="6.68854">
        <ele>2025</ele>
        <time>2022-07-16T18:25:42Z</time>
      </trkpt>
      <trkpt lat="45.72429" lon="6.68854">
        <ele>2025</ele>
        <time>2022-07-16T18:25:43Z</time>
      </trkpt>
      <trkpt lat="45.72418" lon="6.68858">
        <ele>2024</ele>
        <time>2022-07-16T18:25:44Z</time>
      </trkpt>
      <trkpt lat="45.72417" lon="6.68857">
        <ele>2024</ele>
        <time>2022-07-16T18:25:46Z</time>
      </trkpt>
      <trkpt lat="45.72415" lon="6.68855">
        <ele>2023</ele>
        <time>2022-07-16T18:25:47Z</time>
      </trkpt>
      <trkpt lat="45.72413" lon="6.68854">
        <ele>2023</ele>
        <time>2022-07-16T18:25:48Z</time>
      </trkpt>
      <trkpt lat="45.72412" lon="6.68852">
        <ele>2022</ele>
        <time>2022-07-16T18:25:49Z</time>
      </trkpt>
      <trkpt lat="45.7241" lon="6.6885">
        <ele>2022</ele>
        <time>2022-07-16T18:25:50Z</time>
      </trkpt>
      <trkpt lat="45.72413" lon="6.68841">
        <ele>2021</ele>
        <time>2022-07-16T18:25:51Z</time>
      </trkpt>
      <trkpt lat="45.72415" lon="6.68832">
        <ele>2021</ele>
        <time>2022-07-16T18:25:52Z</time>
      </trkpt>
      <trkpt lat="45.7242" lon="6.68813">
        <ele>2021</ele>
        <time>2022-07-16T18:25:53Z</time>
      </trkpt>
      <trkpt lat="45.72422" lon="6.68812">
        <ele>2021</ele>
        <time>2022-07-16T18:25:55Z</time>
      </trkpt>
      <trkpt lat="45.72424" lon="6.68811">
        <ele>2021</ele>
        <time>2022-07-16T18:25:56Z</time>
      </trkpt>
      <trkpt lat="45.72426" lon="6.6881">
        <ele>2020</ele>
        <time>2022-07-16T18:25:57Z</time>
      </trkpt>
      <trkpt lat="45.72428" lon="6.68809">
        <ele>2020</ele>
        <time>2022-07-16T18:25:58Z</time>
      </trkpt>
      <trkpt lat="45.7243" lon="6.68808">
        <ele>2020</ele>
        <time>2022-07-16T18:25:59Z</time>
      </trkpt>
      <trkpt lat="45.72432" lon="6.68805">
        <ele>2020</ele>
        <time>2022-07-16T18:26:00Z</time>
      </trkpt>
      <trkpt lat="45.72435" lon="6.68803">
        <ele>2019</ele>
        <time>2022-07-16T18:26:01Z</time>
      </trkpt>
      <trkpt lat="45.72442" lon="6.68795">
        <ele>2019</ele>
        <time>2022-07-16T18:26:02Z</time>
      </trkpt>
      <trkpt lat="45.72444" lon="6.68791">
        <ele>2019</ele>
        <time>2022-07-16T18:26:03Z</time>
      </trkpt>
      <trkpt lat="45.72447" lon="6.68788">
        <ele>2019</ele>
        <time>2022-07-16T18:26:04Z</time>
      </trkpt>
      <trkpt lat="45.72449" lon="6.68786">
        <ele>2018</ele>
        <time>2022-07-16T18:26:05Z</time>
      </trkpt>
      <trkpt lat="45.72451" lon="6.68783">
        <ele>2018</ele>
        <time>2022-07-16T18:26:06Z</time>
      </trkpt>
      <trkpt lat="45.72453" lon="6.68781">
        <ele>2018</ele>
        <time>2022-07-16T18:26:07Z</time>
      </trkpt>
      <trkpt lat="45.72455" lon="6.68779">
        <ele>2017</ele>
        <time>2022-07-16T18:26:08Z</time>
      </trkpt>
      <trkpt lat="45.72456" lon="6.68777">
        <ele>2017</ele>
        <time>2022-07-16T18:26:09Z</time>
      </trkpt>
      <trkpt lat="45.72457" lon="6.68775">
        <ele>2017</ele>
        <time>2022-07-16T18:26:10Z</time>
      </trkpt>
      <trkpt lat="45.72458" lon="6.68774">
        <ele>2017</ele>
        <time>2022-07-16T18:26:11Z</time>
      </trkpt>
      <trkpt lat="45.72459" lon="6.68772">
        <ele>2017</ele>
        <time>2022-07-16T18:26:12Z</time>
      </trkpt>
      <trkpt lat="45.7246" lon="6.6877">
        <ele>2016</ele>
        <time>2022-07-16T18:26:13Z</time>
      </trkpt>
      <trkpt lat="45.72461" lon="6.68769">
        <ele>2016</ele>
        <time>2022-07-16T18:26:14Z</time>
      </trkpt>
      <trkpt lat="45.72462" lon="6.68767">
        <ele>2016</ele>
        <time>2022-07-16T18:26:15Z</time>
      </trkpt>
      <trkpt lat="45.72463" lon="6.68766">
        <ele>2015</ele>
        <time>2022-07-16T18:26:16Z</time>
      </trkpt>
      <trkpt lat="45.72464" lon="6.68765">
        <ele>2015</ele>
        <time>2022-07-16T18:26:17Z</time>
      </trkpt>
      <trkpt lat="45.72465" lon="6.68763">
        <ele>2015</ele>
        <time>2022-07-16T18:26:18Z</time>
      </trkpt>
      <trkpt lat="45.72465" lon="6.68762">
        <ele>2015</ele>
        <time>2022-07-16T18:26:19Z</time>
      </trkpt>
      <trkpt lat="45.72466" lon="6.6876">
        <ele>2015</ele>
        <time>2022-07-16T18:26:20Z</time>
      </trkpt>
      <trkpt lat="45.72467" lon="6.68759">
        <ele>2015</ele>
        <time>2022-07-16T18:26:21Z</time>
      </trkpt>
      <trkpt lat="45.7247" lon="6.68757">
        <ele>2015</ele>
        <time>2022-07-16T18:26:22Z</time>
      </trkpt>
      <trkpt lat="45.72472" lon="6.68754">
        <ele>2014</ele>
        <time>2022-07-16T18:26:23Z</time>
      </trkpt>
      <trkpt lat="45.72475" lon="6.68752">
        <ele>2014</ele>
        <time>2022-07-16T18:26:24Z</time>
      </trkpt>
      <trkpt lat="45.72475" lon="6.6875">
        <ele>2014</ele>
        <time>2022-07-16T18:26:25Z</time>
      </trkpt>
      <trkpt lat="45.72475" lon="6.68749">
        <ele>2012</ele>
        <time>2022-07-16T18:26:26Z</time>
      </trkpt>
      <trkpt lat="45.72476" lon="6.68747">
        <ele>2012</ele>
        <time>2022-07-16T18:26:27Z</time>
      </trkpt>
      <trkpt lat="45.72476" lon="6.68746">
        <ele>2012</ele>
        <time>2022-07-16T18:26:28Z</time>
      </trkpt>
      <trkpt lat="45.72476" lon="6.68744">
        <ele>2011</ele>
        <time>2022-07-16T18:26:29Z</time>
      </trkpt>
      <trkpt lat="45.72477" lon="6.68743">
        <ele>2011</ele>
        <time>2022-07-16T18:26:30Z</time>
      </trkpt>
      <trkpt lat="45.72477" lon="6.68741">
        <ele>2011</ele>
        <time>2022-07-16T18:26:31Z</time>
      </trkpt>
      <trkpt lat="45.72477" lon="6.68739">
        <ele>2010</ele>
        <time>2022-07-16T18:26:32Z</time>
      </trkpt>
      <trkpt lat="45.72478" lon="6.68738">
        <ele>2010</ele>
        <time>2022-07-16T18:26:33Z</time>
      </trkpt>
      <trkpt lat="45.72479" lon="6.68738">
        <ele>2010</ele>
        <time>2022-07-16T18:26:34Z</time>
      </trkpt>
      <trkpt lat="45.72481" lon="6.68738">
        <ele>2010</ele>
        <time>2022-07-16T18:26:35Z</time>
      </trkpt>
      <trkpt lat="45.72482" lon="6.68737">
        <ele>2009</ele>
        <time>2022-07-16T18:26:36Z</time>
      </trkpt>
      <trkpt lat="45.72484" lon="6.68737">
        <ele>2009</ele>
        <time>2022-07-16T18:26:37Z</time>
      </trkpt>
      <trkpt lat="45.72485" lon="6.68737">
        <ele>2009</ele>
        <time>2022-07-16T18:26:38Z</time>
      </trkpt>
      <trkpt lat="45.72487" lon="6.68737">
        <ele>2008</ele>
        <time>2022-07-16T18:26:39Z</time>
      </trkpt>
      <trkpt lat="45.72488" lon="6.68736">
        <ele>2008</ele>
        <time>2022-07-16T18:26:40Z</time>
      </trkpt>
      <trkpt lat="45.72489" lon="6.68735">
        <ele>2008</ele>
        <time>2022-07-16T18:26:41Z</time>
      </trkpt>
      <trkpt lat="45.72491" lon="6.68734">
        <ele>2008</ele>
        <time>2022-07-16T18:26:42Z</time>
      </trkpt>
      <trkpt lat="45.72492" lon="6.68733">
        <ele>2008</ele>
        <time>2022-07-16T18:26:43Z</time>
      </trkpt>
      <trkpt lat="45.72493" lon="6.68733">
        <ele>2008</ele>
        <time>2022-07-16T18:26:44Z</time>
      </trkpt>
      <trkpt lat="45.72494" lon="6.68732">
        <ele>2008</ele>
        <time>2022-07-16T18:26:45Z</time>
      </trkpt>
      <trkpt lat="45.72495" lon="6.68731">
        <ele>2007</ele>
        <time>2022-07-16T18:26:46Z</time>
      </trkpt>
      <trkpt lat="45.72497" lon="6.6873">
        <ele>2007</ele>
        <time>2022-07-16T18:26:47Z</time>
      </trkpt>
      <trkpt lat="45.72498" lon="6.6873">
        <ele>2007</ele>
        <time>2022-07-16T18:26:48Z</time>
      </trkpt>
      <trkpt lat="45.72499" lon="6.6873">
        <ele>2007</ele>
        <time>2022-07-16T18:26:49Z</time>
      </trkpt>
      <trkpt lat="45.725" lon="6.68729">
        <ele>2007</ele>
        <time>2022-07-16T18:26:50Z</time>
      </trkpt>
      <trkpt lat="45.72501" lon="6.68729">
        <ele>2006</ele>
        <time>2022-07-16T18:26:51Z</time>
      </trkpt>
      <trkpt lat="45.72502" lon="6.68729">
        <ele>2006</ele>
        <time>2022-07-16T18:26:52Z</time>
      </trkpt>
      <trkpt lat="45.72503" lon="6.68728">
        <ele>2006</ele>
        <time>2022-07-16T18:26:53Z</time>
      </trkpt>
      <trkpt lat="45.72505" lon="6.68728">
        <ele>2005</ele>
        <time>2022-07-16T18:26:54Z</time>
      </trkpt>
      <trkpt lat="45.72506" lon="6.68728">
        <ele>2005</ele>
        <time>2022-07-16T18:26:55Z</time>
      </trkpt>
      <trkpt lat="45.72507" lon="6.68727">
        <ele>2005</ele>
        <time>2022-07-16T18:26:56Z</time>
      </trkpt>
      <trkpt lat="45.72509" lon="6.68726">
        <ele>2005</ele>
        <time>2022-07-16T18:26:57Z</time>
      </trkpt>
      <trkpt lat="45.7251" lon="6.68726">
        <ele>2004</ele>
        <time>2022-07-16T18:26:59Z</time>
      </trkpt>
      <trkpt lat="45.72512" lon="6.68725">
        <ele>2004</ele>
        <time>2022-07-16T18:27:00Z</time>
      </trkpt>
      <trkpt lat="45.72513" lon="6.68725">
        <ele>2003</ele>
        <time>2022-07-16T18:27:01Z</time>
      </trkpt>
      <trkpt lat="45.72513" lon="6.68723">
        <ele>2003</ele>
        <time>2022-07-16T18:27:02Z</time>
      </trkpt>
      <trkpt lat="45.72514" lon="6.68721">
        <ele>2003</ele>
        <time>2022-07-16T18:27:03Z</time>
      </trkpt>
      <trkpt lat="45.72514" lon="6.6872">
        <ele>2003</ele>
        <time>2022-07-16T18:27:04Z</time>
      </trkpt>
      <trkpt lat="45.72514" lon="6.68718">
        <ele>2003</ele>
        <time>2022-07-16T18:27:05Z</time>
      </trkpt>
      <trkpt lat="45.72514" lon="6.68717">
        <ele>2003</ele>
        <time>2022-07-16T18:27:06Z</time>
      </trkpt>
      <trkpt lat="45.72515" lon="6.68715">
        <ele>2003</ele>
        <time>2022-07-16T18:27:07Z</time>
      </trkpt>
      <trkpt lat="45.72515" lon="6.68713">
        <ele>2003</ele>
        <time>2022-07-16T18:27:08Z</time>
      </trkpt>
      <trkpt lat="45.72515" lon="6.68712">
        <ele>2003</ele>
        <time>2022-07-16T18:27:09Z</time>
      </trkpt>
      <trkpt lat="45.72515" lon="6.6871">
        <ele>2003</ele>
        <time>2022-07-16T18:27:10Z</time>
      </trkpt>
      <trkpt lat="45.72516" lon="6.6871">
        <ele>2003</ele>
        <time>2022-07-16T18:27:11Z</time>
      </trkpt>
      <trkpt lat="45.72516" lon="6.68709">
        <ele>2003</ele>
        <time>2022-07-16T18:27:13Z</time>
      </trkpt>
      <trkpt lat="45.72517" lon="6.68709">
        <ele>2003</ele>
        <time>2022-07-16T18:27:14Z</time>
      </trkpt>
      <trkpt lat="45.72518" lon="6.68709">
        <ele>2003</ele>
        <time>2022-07-16T18:27:17Z</time>
      </trkpt>
      <trkpt lat="45.72518" lon="6.68708">
        <ele>2003</ele>
        <time>2022-07-16T18:27:19Z</time>
      </trkpt>
      <trkpt lat="45.72519" lon="6.68708">
        <ele>2003</ele>
        <time>2022-07-16T18:27:20Z</time>
      </trkpt>
      <trkpt lat="45.7252" lon="6.68707">
        <ele>2003</ele>
        <time>2022-07-16T18:27:24Z</time>
      </trkpt>
      <trkpt lat="45.72521" lon="6.68707">
        <ele>2003</ele>
        <time>2022-07-16T18:27:27Z</time>
      </trkpt>
      <trkpt lat="45.72521" lon="6.68706">
        <ele>2003</ele>
        <time>2022-07-16T18:27:29Z</time>
      </trkpt>
      <trkpt lat="45.72522" lon="6.68706">
        <ele>2002</ele>
        <time>2022-07-16T18:27:30Z</time>
      </trkpt>
      <trkpt lat="45.72523" lon="6.68706">
        <ele>2001</ele>
        <time>2022-07-16T18:27:33Z</time>
      </trkpt>
      <trkpt lat="45.72523" lon="6.68705">
        <ele>2001</ele>
        <time>2022-07-16T18:27:34Z</time>
      </trkpt>
      <trkpt lat="45.72524" lon="6.68705">
        <ele>2001</ele>
        <time>2022-07-16T18:27:37Z</time>
      </trkpt>
      <trkpt lat="45.72525" lon="6.68702">
        <ele>2000</ele>
        <time>2022-07-16T18:27:40Z</time>
      </trkpt>
      <trkpt lat="45.72525" lon="6.687">
        <ele>2000</ele>
        <time>2022-07-16T18:27:41Z</time>
      </trkpt>
      <trkpt lat="45.72525" lon="6.68697">
        <ele>1999</ele>
        <time>2022-07-16T18:27:42Z</time>
      </trkpt>
      <trkpt lat="45.72526" lon="6.6869">
        <ele>1999</ele>
        <time>2022-07-16T18:27:43Z</time>
      </trkpt>
      <trkpt lat="45.72524" lon="6.6867">
        <ele>1999</ele>
        <time>2022-07-16T18:27:44Z</time>
      </trkpt>
      <trkpt lat="45.72521" lon="6.68672">
        <ele>1998</ele>
        <time>2022-07-16T18:27:47Z</time>
      </trkpt>
      <trkpt lat="45.72517" lon="6.68674">
        <ele>1997</ele>
        <time>2022-07-16T18:27:48Z</time>
      </trkpt>
      <trkpt lat="45.72513" lon="6.68677">
        <ele>1997</ele>
        <time>2022-07-16T18:27:49Z</time>
      </trkpt>
      <trkpt lat="45.72502" lon="6.68683">
        <ele>1997</ele>
        <time>2022-07-16T18:27:50Z</time>
      </trkpt>
      <trkpt lat="45.72505" lon="6.68685">
        <ele>1997</ele>
        <time>2022-07-16T18:27:51Z</time>
      </trkpt>
      <trkpt lat="45.72508" lon="6.68687">
        <ele>1997</ele>
        <time>2022-07-16T18:27:52Z</time>
      </trkpt>
      <trkpt lat="45.72511" lon="6.68688">
        <ele>1997</ele>
        <time>2022-07-16T18:27:53Z</time>
      </trkpt>
      <trkpt lat="45.72514" lon="6.68685">
        <ele>1997</ele>
        <time>2022-07-16T18:27:54Z</time>
      </trkpt>
      <trkpt lat="45.72517" lon="6.68683">
        <ele>1996</ele>
        <time>2022-07-16T18:27:55Z</time>
      </trkpt>
      <trkpt lat="45.72525" lon="6.68669">
        <ele>1996</ele>
        <time>2022-07-16T18:27:56Z</time>
      </trkpt>
      <trkpt lat="45.72526" lon="6.68661">
        <ele>1996</ele>
        <time>2022-07-16T18:27:57Z</time>
      </trkpt>
      <trkpt lat="45.72527" lon="6.68653">
        <ele>1995</ele>
        <time>2022-07-16T18:27:58Z</time>
      </trkpt>
      <trkpt lat="45.72523" lon="6.6865">
        <ele>1994</ele>
        <time>2022-07-16T18:27:59Z</time>
      </trkpt>
      <trkpt lat="45.72519" lon="6.68647">
        <ele>1994</ele>
        <time>2022-07-16T18:28:00Z</time>
      </trkpt>
      <trkpt lat="45.72499" lon="6.68641">
        <ele>1994</ele>
        <time>2022-07-16T18:28:01Z</time>
      </trkpt>
      <trkpt lat="45.72488" lon="6.68641">
        <ele>1994</ele>
        <time>2022-07-16T18:28:02Z</time>
      </trkpt>
      <trkpt lat="45.72489" lon="6.68641">
        <ele>1993</ele>
        <time>2022-07-16T18:28:04Z</time>
      </trkpt>
      <trkpt lat="45.72489" lon="6.6864">
        <ele>1993</ele>
        <time>2022-07-16T18:28:05Z</time>
      </trkpt>
      <trkpt lat="45.7249" lon="6.6864">
        <ele>1993</ele>
        <time>2022-07-16T18:28:06Z</time>
      </trkpt>
      <trkpt lat="45.72491" lon="6.68639">
        <ele>1993</ele>
        <time>2022-07-16T18:28:08Z</time>
      </trkpt>
      <trkpt lat="45.72491" lon="6.68638">
        <ele>1993</ele>
        <time>2022-07-16T18:28:10Z</time>
      </trkpt>
      <trkpt lat="45.72492" lon="6.68638">
        <ele>1993</ele>
        <time>2022-07-16T18:28:11Z</time>
      </trkpt>
      <trkpt lat="45.72493" lon="6.68637">
        <ele>1993</ele>
        <time>2022-07-16T18:28:13Z</time>
      </trkpt>
      <trkpt lat="45.72494" lon="6.68636">
        <ele>1993</ele>
        <time>2022-07-16T18:28:15Z</time>
      </trkpt>
      <trkpt lat="45.72495" lon="6.68635">
        <ele>1993</ele>
        <time>2022-07-16T18:28:18Z</time>
      </trkpt>
      <trkpt lat="45.72496" lon="6.68634">
        <ele>1993</ele>
        <time>2022-07-16T18:28:20Z</time>
      </trkpt>
      <trkpt lat="45.72487" lon="6.68632">
        <ele>1993</ele>
        <time>2022-07-16T18:28:23Z</time>
      </trkpt>
      <trkpt lat="45.72477" lon="6.6863">
        <ele>1993</ele>
        <time>2022-07-16T18:28:24Z</time>
      </trkpt>
      <trkpt lat="45.72458" lon="6.68626">
        <ele>1993</ele>
        <time>2022-07-16T18:28:25Z</time>
      </trkpt>
      <trkpt lat="45.72457" lon="6.68625">
        <ele>1993</ele>
        <time>2022-07-16T18:28:27Z</time>
      </trkpt>
      <trkpt lat="45.72456" lon="6.68625">
        <ele>1993</ele>
        <time>2022-07-16T18:28:28Z</time>
      </trkpt>
      <trkpt lat="45.72455" lon="6.68624">
        <ele>1993</ele>
        <time>2022-07-16T18:28:29Z</time>
      </trkpt>
      <trkpt lat="45.72454" lon="6.68623">
        <ele>1992</ele>
        <time>2022-07-16T18:28:30Z</time>
      </trkpt>
      <trkpt lat="45.72452" lon="6.68623">
        <ele>1991</ele>
        <time>2022-07-16T18:28:31Z</time>
      </trkpt>
      <trkpt lat="45.72451" lon="6.68622">
        <ele>1991</ele>
        <time>2022-07-16T18:28:32Z</time>
      </trkpt>
      <trkpt lat="45.7245" lon="6.68622">
        <ele>1991</ele>
        <time>2022-07-16T18:28:33Z</time>
      </trkpt>
      <trkpt lat="45.72449" lon="6.68621">
        <ele>1991</ele>
        <time>2022-07-16T18:28:34Z</time>
      </trkpt>
      <trkpt lat="45.72447" lon="6.6862">
        <ele>1991</ele>
        <time>2022-07-16T18:28:35Z</time>
      </trkpt>
      <trkpt lat="45.72445" lon="6.68619">
        <ele>1991</ele>
        <time>2022-07-16T18:28:36Z</time>
      </trkpt>
      <trkpt lat="45.72444" lon="6.68618">
        <ele>1990</ele>
        <time>2022-07-16T18:28:37Z</time>
      </trkpt>
      <trkpt lat="45.72442" lon="6.68616">
        <ele>1989</ele>
        <time>2022-07-16T18:28:38Z</time>
      </trkpt>
      <trkpt lat="45.7244" lon="6.68615">
        <ele>1989</ele>
        <time>2022-07-16T18:28:39Z</time>
      </trkpt>
      <trkpt lat="45.7244" lon="6.68614">
        <ele>1989</ele>
        <time>2022-07-16T18:28:40Z</time>
      </trkpt>
      <trkpt lat="45.72439" lon="6.68613">
        <ele>1989</ele>
        <time>2022-07-16T18:28:41Z</time>
      </trkpt>
      <trkpt lat="45.72439" lon="6.68612">
        <ele>1989</ele>
        <time>2022-07-16T18:28:42Z</time>
      </trkpt>
      <trkpt lat="45.72439" lon="6.6861">
        <ele>1989</ele>
        <time>2022-07-16T18:28:43Z</time>
      </trkpt>
      <trkpt lat="45.72438" lon="6.68609">
        <ele>1989</ele>
        <time>2022-07-16T18:28:44Z</time>
      </trkpt>
      <trkpt lat="45.72438" lon="6.68608">
        <ele>1988</ele>
        <time>2022-07-16T18:28:45Z</time>
      </trkpt>
      <trkpt lat="45.72437" lon="6.68607">
        <ele>1988</ele>
        <time>2022-07-16T18:28:46Z</time>
      </trkpt>
      <trkpt lat="45.72437" lon="6.68606">
        <ele>1988</ele>
        <time>2022-07-16T18:28:47Z</time>
      </trkpt>
      <trkpt lat="45.72436" lon="6.68605">
        <ele>1988</ele>
        <time>2022-07-16T18:28:48Z</time>
      </trkpt>
      <trkpt lat="45.72436" lon="6.68603">
        <ele>1986</ele>
        <time>2022-07-16T18:28:49Z</time>
      </trkpt>
      <trkpt lat="45.72436" lon="6.68602">
        <ele>1985</ele>
        <time>2022-07-16T18:28:50Z</time>
      </trkpt>
      <trkpt lat="45.72436" lon="6.68601">
        <ele>1985</ele>
        <time>2022-07-16T18:28:51Z</time>
      </trkpt>
      <trkpt lat="45.72435" lon="6.68599">
        <ele>1985</ele>
        <time>2022-07-16T18:28:52Z</time>
      </trkpt>
      <trkpt lat="45.72435" lon="6.68598">
        <ele>1985</ele>
        <time>2022-07-16T18:28:53Z</time>
      </trkpt>
      <trkpt lat="45.72435" lon="6.68597">
        <ele>1985</ele>
        <time>2022-07-16T18:28:54Z</time>
      </trkpt>
      <trkpt lat="45.72435" lon="6.68595">
        <ele>1984</ele>
        <time>2022-07-16T18:28:55Z</time>
      </trkpt>
      <trkpt lat="45.72434" lon="6.68594">
        <ele>1984</ele>
        <time>2022-07-16T18:28:56Z</time>
      </trkpt>
      <trkpt lat="45.72433" lon="6.68592">
        <ele>1984</ele>
        <time>2022-07-16T18:28:57Z</time>
      </trkpt>
      <trkpt lat="45.72432" lon="6.68591">
        <ele>1983</ele>
        <time>2022-07-16T18:28:58Z</time>
      </trkpt>
      <trkpt lat="45.72431" lon="6.68589">
        <ele>1983</ele>
        <time>2022-07-16T18:28:59Z</time>
      </trkpt>
      <trkpt lat="45.72431" lon="6.68588">
        <ele>1983</ele>
        <time>2022-07-16T18:29:00Z</time>
      </trkpt>
      <trkpt lat="45.7243" lon="6.68586">
        <ele>1983</ele>
        <time>2022-07-16T18:29:01Z</time>
      </trkpt>
      <trkpt lat="45.72429" lon="6.68585">
        <ele>1983</ele>
        <time>2022-07-16T18:29:02Z</time>
      </trkpt>
      <trkpt lat="45.72427" lon="6.68582">
        <ele>1983</ele>
        <time>2022-07-16T18:29:05Z</time>
      </trkpt>
      <trkpt lat="45.72425" lon="6.6858">
        <ele>1982</ele>
        <time>2022-07-16T18:29:07Z</time>
      </trkpt>
      <trkpt lat="45.72424" lon="6.68578">
        <ele>1982</ele>
        <time>2022-07-16T18:29:09Z</time>
      </trkpt>
      <trkpt lat="45.72422" lon="6.68574">
        <ele>1981</ele>
        <time>2022-07-16T18:29:12Z</time>
      </trkpt>
      <trkpt lat="45.72421" lon="6.68572">
        <ele>1980</ele>
        <time>2022-07-16T18:29:14Z</time>
      </trkpt>
      <trkpt lat="45.72418" lon="6.68569">
        <ele>1980</ele>
        <time>2022-07-16T18:29:16Z</time>
      </trkpt>
      <trkpt lat="45.72416" lon="6.68567">
        <ele>1980</ele>
        <time>2022-07-16T18:29:18Z</time>
      </trkpt>
      <trkpt lat="45.72414" lon="6.68564">
        <ele>1979</ele>
        <time>2022-07-16T18:29:20Z</time>
      </trkpt>
      <trkpt lat="45.72412" lon="6.68563">
        <ele>1978</ele>
        <time>2022-07-16T18:29:22Z</time>
      </trkpt>
      <trkpt lat="45.72411" lon="6.68561">
        <ele>1978</ele>
        <time>2022-07-16T18:29:24Z</time>
      </trkpt>
      <trkpt lat="45.72408" lon="6.6856">
        <ele>1977</ele>
        <time>2022-07-16T18:29:26Z</time>
      </trkpt>
      <trkpt lat="45.72406" lon="6.68559">
        <ele>1976</ele>
        <time>2022-07-16T18:29:28Z</time>
      </trkpt>
      <trkpt lat="45.72404" lon="6.68558">
        <ele>1976</ele>
        <time>2022-07-16T18:29:30Z</time>
      </trkpt>
      <trkpt lat="45.72404" lon="6.68555">
        <ele>1976</ele>
        <time>2022-07-16T18:29:32Z</time>
      </trkpt>
      <trkpt lat="45.72406" lon="6.68553">
        <ele>1975</ele>
        <time>2022-07-16T18:29:34Z</time>
      </trkpt>
      <trkpt lat="45.72408" lon="6.68553">
        <ele>1974</ele>
        <time>2022-07-16T18:29:35Z</time>
      </trkpt>
      <trkpt lat="45.7241" lon="6.68554">
        <ele>1973</ele>
        <time>2022-07-16T18:29:36Z</time>
      </trkpt>
      <trkpt lat="45.72414" lon="6.68555">
        <ele>1974</ele>
        <time>2022-07-16T18:29:38Z</time>
      </trkpt>
      <trkpt lat="45.72417" lon="6.68555">
        <ele>1973</ele>
        <time>2022-07-16T18:29:40Z</time>
      </trkpt>
      <trkpt lat="45.72419" lon="6.68554">
        <ele>1973</ele>
        <time>2022-07-16T18:29:42Z</time>
      </trkpt>
      <trkpt lat="45.72422" lon="6.68551">
        <ele>1973</ele>
        <time>2022-07-16T18:29:44Z</time>
      </trkpt>
      <trkpt lat="45.72425" lon="6.68548">
        <ele>1972</ele>
        <time>2022-07-16T18:29:46Z</time>
      </trkpt>
      <trkpt lat="45.72427" lon="6.68545">
        <ele>1971</ele>
        <time>2022-07-16T18:29:48Z</time>
      </trkpt>
      <trkpt lat="45.72429" lon="6.68542">
        <ele>1971</ele>
        <time>2022-07-16T18:29:50Z</time>
      </trkpt>
      <trkpt lat="45.72431" lon="6.6854">
        <ele>1970</ele>
        <time>2022-07-16T18:29:52Z</time>
      </trkpt>
      <trkpt lat="45.72433" lon="6.68538">
        <ele>1970</ele>
        <time>2022-07-16T18:29:54Z</time>
      </trkpt>
      <trkpt lat="45.72435" lon="6.68536">
        <ele>1969</ele>
        <time>2022-07-16T18:29:57Z</time>
      </trkpt>
      <trkpt lat="45.72435" lon="6.68534">
        <ele>1968</ele>
        <time>2022-07-16T18:29:59Z</time>
      </trkpt>
      <trkpt lat="45.72434" lon="6.68531">
        <ele>1967</ele>
        <time>2022-07-16T18:30:01Z</time>
      </trkpt>
      <trkpt lat="45.72433" lon="6.68527">
        <ele>1965</ele>
        <time>2022-07-16T18:30:03Z</time>
      </trkpt>
      <trkpt lat="45.72431" lon="6.68525">
        <ele>1965</ele>
        <time>2022-07-16T18:30:05Z</time>
      </trkpt>
      <trkpt lat="45.72431" lon="6.68522">
        <ele>1964</ele>
        <time>2022-07-16T18:30:07Z</time>
      </trkpt>
      <trkpt lat="45.72429" lon="6.68519">
        <ele>1963</ele>
        <time>2022-07-16T18:30:09Z</time>
      </trkpt>
      <trkpt lat="45.72427" lon="6.68516">
        <ele>1963</ele>
        <time>2022-07-16T18:30:11Z</time>
      </trkpt>
      <trkpt lat="45.72425" lon="6.68513">
        <ele>1962</ele>
        <time>2022-07-16T18:30:13Z</time>
      </trkpt>
      <trkpt lat="45.72422" lon="6.68509">
        <ele>1960</ele>
        <time>2022-07-16T18:30:15Z</time>
      </trkpt>
      <trkpt lat="45.7242" lon="6.68507">
        <ele>1959</ele>
        <time>2022-07-16T18:30:17Z</time>
      </trkpt>
      <trkpt lat="45.72418" lon="6.68505">
        <ele>1958</ele>
        <time>2022-07-16T18:30:19Z</time>
      </trkpt>
      <trkpt lat="45.72415" lon="6.68503">
        <ele>1957</ele>
        <time>2022-07-16T18:30:21Z</time>
      </trkpt>
      <trkpt lat="45.72413" lon="6.685">
        <ele>1957</ele>
        <time>2022-07-16T18:30:23Z</time>
      </trkpt>
      <trkpt lat="45.7241" lon="6.68498">
        <ele>1955</ele>
        <time>2022-07-16T18:30:25Z</time>
      </trkpt>
      <trkpt lat="45.72407" lon="6.68496">
        <ele>1955</ele>
        <time>2022-07-16T18:30:27Z</time>
      </trkpt>
      <trkpt lat="45.72405" lon="6.68494">
        <ele>1953</ele>
        <time>2022-07-16T18:30:29Z</time>
      </trkpt>
      <trkpt lat="45.72401" lon="6.68494">
        <ele>1952</ele>
        <time>2022-07-16T18:30:31Z</time>
      </trkpt>
      <trkpt lat="45.72399" lon="6.68493">
        <ele>1952</ele>
        <time>2022-07-16T18:30:33Z</time>
      </trkpt>
      <trkpt lat="45.72396" lon="6.68493">
        <ele>1952</ele>
        <time>2022-07-16T18:30:35Z</time>
      </trkpt>
      <trkpt lat="45.72393" lon="6.68492">
        <ele>1951</ele>
        <time>2022-07-16T18:30:37Z</time>
      </trkpt>
      <trkpt lat="45.7239" lon="6.68492">
        <ele>1951</ele>
        <time>2022-07-16T18:30:39Z</time>
      </trkpt>
      <trkpt lat="45.72387" lon="6.68492">
        <ele>1951</ele>
        <time>2022-07-16T18:30:41Z</time>
      </trkpt>
      <trkpt lat="45.72385" lon="6.68492">
        <ele>1950</ele>
        <time>2022-07-16T18:30:43Z</time>
      </trkpt>
      <trkpt lat="45.72383" lon="6.68492">
        <ele>1950</ele>
        <time>2022-07-16T18:30:45Z</time>
      </trkpt>
      <trkpt lat="45.72381" lon="6.68489">
        <ele>1949</ele>
        <time>2022-07-16T18:30:48Z</time>
      </trkpt>
      <trkpt lat="45.72379" lon="6.68486">
        <ele>1949</ele>
        <time>2022-07-16T18:30:50Z</time>
      </trkpt>
      <trkpt lat="45.72377" lon="6.68483">
        <ele>1947</ele>
        <time>2022-07-16T18:30:52Z</time>
      </trkpt>
      <trkpt lat="45.72375" lon="6.68482">
        <ele>1947</ele>
        <time>2022-07-16T18:30:54Z</time>
      </trkpt>
      <trkpt lat="45.72373" lon="6.68481">
        <ele>1946</ele>
        <time>2022-07-16T18:30:57Z</time>
      </trkpt>
      <trkpt lat="45.7237" lon="6.6848">
        <ele>1946</ele>
        <time>2022-07-16T18:30:59Z</time>
      </trkpt>
      <trkpt lat="45.72368" lon="6.68477">
        <ele>1945</ele>
        <time>2022-07-16T18:31:01Z</time>
      </trkpt>
      <trkpt lat="45.72366" lon="6.68475">
        <ele>1944</ele>
        <time>2022-07-16T18:31:03Z</time>
      </trkpt>
      <trkpt lat="45.72364" lon="6.68472">
        <ele>1943</ele>
        <time>2022-07-16T18:31:05Z</time>
      </trkpt>
      <trkpt lat="45.72361" lon="6.68471">
        <ele>1942</ele>
        <time>2022-07-16T18:31:07Z</time>
      </trkpt>
      <trkpt lat="45.72358" lon="6.68469">
        <ele>1941</ele>
        <time>2022-07-16T18:31:09Z</time>
      </trkpt>
      <trkpt lat="45.72355" lon="6.68468">
        <ele>1941</ele>
        <time>2022-07-16T18:31:11Z</time>
      </trkpt>
      <trkpt lat="45.72352" lon="6.68468">
        <ele>1941</ele>
        <time>2022-07-16T18:31:13Z</time>
      </trkpt>
      <trkpt lat="45.7235" lon="6.68467">
        <ele>1941</ele>
        <time>2022-07-16T18:31:15Z</time>
      </trkpt>
      <trkpt lat="45.72348" lon="6.68466">
        <ele>1940</ele>
        <time>2022-07-16T18:31:17Z</time>
      </trkpt>
      <trkpt lat="45.72345" lon="6.68465">
        <ele>1940</ele>
        <time>2022-07-16T18:31:19Z</time>
      </trkpt>
      <trkpt lat="45.72342" lon="6.68463">
        <ele>1939</ele>
        <time>2022-07-16T18:31:21Z</time>
      </trkpt>
      <trkpt lat="45.7234" lon="6.68461">
        <ele>1938</ele>
        <time>2022-07-16T18:31:23Z</time>
      </trkpt>
      <trkpt lat="45.72337" lon="6.68459">
        <ele>1938</ele>
        <time>2022-07-16T18:31:25Z</time>
      </trkpt>
      <trkpt lat="45.72335" lon="6.68458">
        <ele>1937</ele>
        <time>2022-07-16T18:31:27Z</time>
      </trkpt>
      <trkpt lat="45.72334" lon="6.68458">
        <ele>1937</ele>
        <time>2022-07-16T18:31:29Z</time>
      </trkpt>
      <trkpt lat="45.72331" lon="6.6846">
        <ele>1937</ele>
        <time>2022-07-16T18:31:31Z</time>
      </trkpt>
      <trkpt lat="45.72329" lon="6.68462">
        <ele>1936</ele>
        <time>2022-07-16T18:31:33Z</time>
      </trkpt>
      <trkpt lat="45.72327" lon="6.68464">
        <ele>1935</ele>
        <time>2022-07-16T18:31:35Z</time>
      </trkpt>
      <trkpt lat="45.72324" lon="6.68464">
        <ele>1935</ele>
        <time>2022-07-16T18:31:38Z</time>
      </trkpt>
      <trkpt lat="45.72322" lon="6.68464">
        <ele>1934</ele>
        <time>2022-07-16T18:31:40Z</time>
      </trkpt>
      <trkpt lat="45.72319" lon="6.68464">
        <ele>1933</ele>
        <time>2022-07-16T18:31:42Z</time>
      </trkpt>
      <trkpt lat="45.72316" lon="6.68462">
        <ele>1932</ele>
        <time>2022-07-16T18:31:44Z</time>
      </trkpt>
      <trkpt lat="45.72314" lon="6.68461">
        <ele>1932</ele>
        <time>2022-07-16T18:31:46Z</time>
      </trkpt>
      <trkpt lat="45.72311" lon="6.6846">
        <ele>1931</ele>
        <time>2022-07-16T18:31:48Z</time>
      </trkpt>
      <trkpt lat="45.72308" lon="6.68459">
        <ele>1930</ele>
        <time>2022-07-16T18:31:50Z</time>
      </trkpt>
      <trkpt lat="45.72306" lon="6.68458">
        <ele>1930</ele>
        <time>2022-07-16T18:31:52Z</time>
      </trkpt>
      <trkpt lat="45.72303" lon="6.68457">
        <ele>1929</ele>
        <time>2022-07-16T18:31:54Z</time>
      </trkpt>
      <trkpt lat="45.72301" lon="6.68457">
        <ele>1929</ele>
        <time>2022-07-16T18:31:56Z</time>
      </trkpt>
      <trkpt lat="45.72298" lon="6.68457">
        <ele>1929</ele>
        <time>2022-07-16T18:31:58Z</time>
      </trkpt>
      <trkpt lat="45.72296" lon="6.68456">
        <ele>1928</ele>
        <time>2022-07-16T18:32:00Z</time>
      </trkpt>
      <trkpt lat="45.72293" lon="6.68456">
        <ele>1928</ele>
        <time>2022-07-16T18:32:02Z</time>
      </trkpt>
      <trkpt lat="45.72291" lon="6.68456">
        <ele>1928</ele>
        <time>2022-07-16T18:32:04Z</time>
      </trkpt>
      <trkpt lat="45.72288" lon="6.68456">
        <ele>1926</ele>
        <time>2022-07-16T18:32:07Z</time>
      </trkpt>
      <trkpt lat="45.72286" lon="6.68455">
        <ele>1925</ele>
        <time>2022-07-16T18:32:09Z</time>
      </trkpt>
      <trkpt lat="45.72284" lon="6.68455">
        <ele>1925</ele>
        <time>2022-07-16T18:32:11Z</time>
      </trkpt>
      <trkpt lat="45.72281" lon="6.68454">
        <ele>1924</ele>
        <time>2022-07-16T18:32:13Z</time>
      </trkpt>
      <trkpt lat="45.72278" lon="6.68457">
        <ele>1924</ele>
        <time>2022-07-16T18:32:15Z</time>
      </trkpt>
      <trkpt lat="45.72275" lon="6.68458">
        <ele>1924</ele>
        <time>2022-07-16T18:32:17Z</time>
      </trkpt>
      <trkpt lat="45.72272" lon="6.68458">
        <ele>1923</ele>
        <time>2022-07-16T18:32:19Z</time>
      </trkpt>
      <trkpt lat="45.72269" lon="6.68458">
        <ele>1923</ele>
        <time>2022-07-16T18:32:22Z</time>
      </trkpt>
      <trkpt lat="45.72267" lon="6.68458">
        <ele>1921</ele>
        <time>2022-07-16T18:32:23Z</time>
      </trkpt>
      <trkpt lat="45.72264" lon="6.68459">
        <ele>1920</ele>
        <time>2022-07-16T18:32:25Z</time>
      </trkpt>
      <trkpt lat="45.72261" lon="6.6846">
        <ele>1921</ele>
        <time>2022-07-16T18:32:27Z</time>
      </trkpt>
      <trkpt lat="45.72259" lon="6.6846">
        <ele>1921</ele>
        <time>2022-07-16T18:32:29Z</time>
      </trkpt>
      <trkpt lat="45.72256" lon="6.68461">
        <ele>1920</ele>
        <time>2022-07-16T18:32:31Z</time>
      </trkpt>
      <trkpt lat="45.72254" lon="6.68461">
        <ele>1919</ele>
        <time>2022-07-16T18:32:33Z</time>
      </trkpt>
      <trkpt lat="45.72252" lon="6.68462">
        <ele>1919</ele>
        <time>2022-07-16T18:32:35Z</time>
      </trkpt>
      <trkpt lat="45.72249" lon="6.68462">
        <ele>1919</ele>
        <time>2022-07-16T18:32:37Z</time>
      </trkpt>
      <trkpt lat="45.72247" lon="6.68464">
        <ele>1918</ele>
        <time>2022-07-16T18:32:39Z</time>
      </trkpt>
      <trkpt lat="45.72246" lon="6.68466">
        <ele>1918</ele>
        <time>2022-07-16T18:32:41Z</time>
      </trkpt>
      <trkpt lat="45.72245" lon="6.68469">
        <ele>1917</ele>
        <time>2022-07-16T18:32:43Z</time>
      </trkpt>
      <trkpt lat="45.72243" lon="6.68471">
        <ele>1917</ele>
        <time>2022-07-16T18:32:45Z</time>
      </trkpt>
      <trkpt lat="45.72241" lon="6.68471">
        <ele>1917</ele>
        <time>2022-07-16T18:32:48Z</time>
      </trkpt>
      <trkpt lat="45.72239" lon="6.68471">
        <ele>1917</ele>
        <time>2022-07-16T18:32:51Z</time>
      </trkpt>
      <trkpt lat="45.72237" lon="6.68469">
        <ele>1916</ele>
        <time>2022-07-16T18:32:54Z</time>
      </trkpt>
      <trkpt lat="45.72235" lon="6.68467">
        <ele>1916</ele>
        <time>2022-07-16T18:32:57Z</time>
      </trkpt>
      <trkpt lat="45.72234" lon="6.68466">
        <ele>1915</ele>
        <time>2022-07-16T18:33:00Z</time>
      </trkpt>
      <trkpt lat="45.72232" lon="6.68463">
        <ele>1914</ele>
        <time>2022-07-16T18:33:02Z</time>
      </trkpt>
      <trkpt lat="45.7223" lon="6.68461">
        <ele>1914</ele>
        <time>2022-07-16T18:33:04Z</time>
      </trkpt>
      <trkpt lat="45.72229" lon="6.68456">
        <ele>1913</ele>
        <time>2022-07-16T18:33:06Z</time>
      </trkpt>
      <trkpt lat="45.72227" lon="6.68455">
        <ele>1913</ele>
        <time>2022-07-16T18:33:08Z</time>
      </trkpt>
      <trkpt lat="45.72224" lon="6.68455">
        <ele>1912</ele>
        <time>2022-07-16T18:33:10Z</time>
      </trkpt>
      <trkpt lat="45.72222" lon="6.68454">
        <ele>1912</ele>
        <time>2022-07-16T18:33:12Z</time>
      </trkpt>
      <trkpt lat="45.7222" lon="6.68453">
        <ele>1911</ele>
        <time>2022-07-16T18:33:14Z</time>
      </trkpt>
      <trkpt lat="45.72218" lon="6.68452">
        <ele>1910</ele>
        <time>2022-07-16T18:33:16Z</time>
      </trkpt>
      <trkpt lat="45.72215" lon="6.6845">
        <ele>1910</ele>
        <time>2022-07-16T18:33:19Z</time>
      </trkpt>
      <trkpt lat="45.72214" lon="6.6845">
        <ele>1909</ele>
        <time>2022-07-16T18:33:20Z</time>
      </trkpt>
      <trkpt lat="45.72213" lon="6.6845">
        <ele>1908</ele>
        <time>2022-07-16T18:33:21Z</time>
      </trkpt>
      <trkpt lat="45.72213" lon="6.68449">
        <ele>1908</ele>
        <time>2022-07-16T18:33:22Z</time>
      </trkpt>
      <trkpt lat="45.72212" lon="6.68449">
        <ele>1908</ele>
        <time>2022-07-16T18:33:23Z</time>
      </trkpt>
      <trkpt lat="45.72211" lon="6.68449">
        <ele>1908</ele>
        <time>2022-07-16T18:33:24Z</time>
      </trkpt>
      <trkpt lat="45.72209" lon="6.68447">
        <ele>1908</ele>
        <time>2022-07-16T18:33:25Z</time>
      </trkpt>
      <trkpt lat="45.72207" lon="6.68447">
        <ele>1908</ele>
        <time>2022-07-16T18:33:27Z</time>
      </trkpt>
      <trkpt lat="45.72206" lon="6.68444">
        <ele>1908</ele>
        <time>2022-07-16T18:33:29Z</time>
      </trkpt>
      <trkpt lat="45.72205" lon="6.68442">
        <ele>1907</ele>
        <time>2022-07-16T18:33:31Z</time>
      </trkpt>
      <trkpt lat="45.72203" lon="6.6844">
        <ele>1906</ele>
        <time>2022-07-16T18:33:34Z</time>
      </trkpt>
      <trkpt lat="45.72201" lon="6.68438">
        <ele>1905</ele>
        <time>2022-07-16T18:33:36Z</time>
      </trkpt>
      <trkpt lat="45.722" lon="6.68436">
        <ele>1905</ele>
        <time>2022-07-16T18:33:38Z</time>
      </trkpt>
      <trkpt lat="45.72198" lon="6.68434">
        <ele>1903</ele>
        <time>2022-07-16T18:33:40Z</time>
      </trkpt>
      <trkpt lat="45.72197" lon="6.68433">
        <ele>1903</ele>
        <time>2022-07-16T18:33:42Z</time>
      </trkpt>
      <trkpt lat="45.72196" lon="6.6843">
        <ele>1903</ele>
        <time>2022-07-16T18:33:44Z</time>
      </trkpt>
      <trkpt lat="45.72195" lon="6.68428">
        <ele>1902</ele>
        <time>2022-07-16T18:33:46Z</time>
      </trkpt>
      <trkpt lat="45.72193" lon="6.68425">
        <ele>1901</ele>
        <time>2022-07-16T18:33:48Z</time>
      </trkpt>
      <trkpt lat="45.72191" lon="6.68423">
        <ele>1900</ele>
        <time>2022-07-16T18:33:50Z</time>
      </trkpt>
      <trkpt lat="45.72189" lon="6.68418">
        <ele>1899</ele>
        <time>2022-07-16T18:33:52Z</time>
      </trkpt>
      <trkpt lat="45.72188" lon="6.68416">
        <ele>1899</ele>
        <time>2022-07-16T18:33:53Z</time>
      </trkpt>
      <trkpt lat="45.72185" lon="6.68414">
        <ele>1899</ele>
        <time>2022-07-16T18:33:55Z</time>
      </trkpt>
      <trkpt lat="45.72182" lon="6.68412">
        <ele>1898</ele>
        <time>2022-07-16T18:33:57Z</time>
      </trkpt>
      <trkpt lat="45.7218" lon="6.6841">
        <ele>1897</ele>
        <time>2022-07-16T18:33:59Z</time>
      </trkpt>
      <trkpt lat="45.72178" lon="6.68407">
        <ele>1897</ele>
        <time>2022-07-16T18:34:01Z</time>
      </trkpt>
      <trkpt lat="45.72176" lon="6.68405">
        <ele>1896</ele>
        <time>2022-07-16T18:34:03Z</time>
      </trkpt>
      <trkpt lat="45.72175" lon="6.68403">
        <ele>1896</ele>
        <time>2022-07-16T18:34:05Z</time>
      </trkpt>
      <trkpt lat="45.72173" lon="6.684">
        <ele>1895</ele>
        <time>2022-07-16T18:34:07Z</time>
      </trkpt>
      <trkpt lat="45.72172" lon="6.68398">
        <ele>1894</ele>
        <time>2022-07-16T18:34:09Z</time>
      </trkpt>
      <trkpt lat="45.7217" lon="6.68396">
        <ele>1894</ele>
        <time>2022-07-16T18:34:11Z</time>
      </trkpt>
      <trkpt lat="45.72168" lon="6.68395">
        <ele>1893</ele>
        <time>2022-07-16T18:34:13Z</time>
      </trkpt>
      <trkpt lat="45.72166" lon="6.68393">
        <ele>1893</ele>
        <time>2022-07-16T18:34:16Z</time>
      </trkpt>
      <trkpt lat="45.72163" lon="6.68391">
        <ele>1892</ele>
        <time>2022-07-16T18:34:17Z</time>
      </trkpt>
      <trkpt lat="45.7216" lon="6.6839">
        <ele>1891</ele>
        <time>2022-07-16T18:34:19Z</time>
      </trkpt>
      <trkpt lat="45.72158" lon="6.68389">
        <ele>1891</ele>
        <time>2022-07-16T18:34:21Z</time>
      </trkpt>
      <trkpt lat="45.72155" lon="6.68387">
        <ele>1891</ele>
        <time>2022-07-16T18:34:23Z</time>
      </trkpt>
      <trkpt lat="45.72153" lon="6.68385">
        <ele>1891</ele>
        <time>2022-07-16T18:34:25Z</time>
      </trkpt>
      <trkpt lat="45.72151" lon="6.68381">
        <ele>1891</ele>
        <time>2022-07-16T18:34:27Z</time>
      </trkpt>
      <trkpt lat="45.72149" lon="6.6838">
        <ele>1891</ele>
        <time>2022-07-16T18:34:29Z</time>
      </trkpt>
      <trkpt lat="45.72147" lon="6.68378">
        <ele>1890</ele>
        <time>2022-07-16T18:34:31Z</time>
      </trkpt>
      <trkpt lat="45.72145" lon="6.68375">
        <ele>1890</ele>
        <time>2022-07-16T18:34:33Z</time>
      </trkpt>
      <trkpt lat="45.72144" lon="6.68372">
        <ele>1889</ele>
        <time>2022-07-16T18:34:35Z</time>
      </trkpt>
      <trkpt lat="45.72142" lon="6.68369">
        <ele>1889</ele>
        <time>2022-07-16T18:34:37Z</time>
      </trkpt>
      <trkpt lat="45.72142" lon="6.68367">
        <ele>1889</ele>
        <time>2022-07-16T18:34:39Z</time>
      </trkpt>
      <trkpt lat="45.72141" lon="6.68363">
        <ele>1888</ele>
        <time>2022-07-16T18:34:41Z</time>
      </trkpt>
      <trkpt lat="45.7214" lon="6.68359">
        <ele>1888</ele>
        <time>2022-07-16T18:34:43Z</time>
      </trkpt>
      <trkpt lat="45.7214" lon="6.68355">
        <ele>1887</ele>
        <time>2022-07-16T18:34:45Z</time>
      </trkpt>
      <trkpt lat="45.72139" lon="6.68351">
        <ele>1887</ele>
        <time>2022-07-16T18:34:47Z</time>
      </trkpt>
      <trkpt lat="45.72139" lon="6.68347">
        <ele>1886</ele>
        <time>2022-07-16T18:34:49Z</time>
      </trkpt>
      <trkpt lat="45.72139" lon="6.68344">
        <ele>1886</ele>
        <time>2022-07-16T18:34:51Z</time>
      </trkpt>
      <trkpt lat="45.72138" lon="6.6834">
        <ele>1886</ele>
        <time>2022-07-16T18:34:53Z</time>
      </trkpt>
      <trkpt lat="45.72137" lon="6.68337">
        <ele>1884</ele>
        <time>2022-07-16T18:34:55Z</time>
      </trkpt>
      <trkpt lat="45.72136" lon="6.68336">
        <ele>1883</ele>
        <time>2022-07-16T18:34:57Z</time>
      </trkpt>
      <trkpt lat="45.72134" lon="6.68335">
        <ele>1882</ele>
        <time>2022-07-16T18:34:59Z</time>
      </trkpt>
      <trkpt lat="45.72131" lon="6.68335">
        <ele>1881</ele>
        <time>2022-07-16T18:35:01Z</time>
      </trkpt>
      <trkpt lat="45.72128" lon="6.68335">
        <ele>1880</ele>
        <time>2022-07-16T18:35:03Z</time>
      </trkpt>
      <trkpt lat="45.72123" lon="6.68334">
        <ele>1879</ele>
        <time>2022-07-16T18:35:05Z</time>
      </trkpt>
      <trkpt lat="45.72122" lon="6.68334">
        <ele>1879</ele>
        <time>2022-07-16T18:35:06Z</time>
      </trkpt>
      <trkpt lat="45.7212" lon="6.68334">
        <ele>1878</ele>
        <time>2022-07-16T18:35:07Z</time>
      </trkpt>
      <trkpt lat="45.72117" lon="6.68333">
        <ele>1878</ele>
        <time>2022-07-16T18:35:09Z</time>
      </trkpt>
      <trkpt lat="45.72115" lon="6.68332">
        <ele>1879</ele>
        <time>2022-07-16T18:35:10Z</time>
      </trkpt>
      <trkpt lat="45.72113" lon="6.68331">
        <ele>1879</ele>
        <time>2022-07-16T18:35:11Z</time>
      </trkpt>
      <trkpt lat="45.72112" lon="6.6833">
        <ele>1879</ele>
        <time>2022-07-16T18:35:12Z</time>
      </trkpt>
      <trkpt lat="45.7211" lon="6.68329">
        <ele>1879</ele>
        <time>2022-07-16T18:35:13Z</time>
      </trkpt>
      <trkpt lat="45.72108" lon="6.68327">
        <ele>1879</ele>
        <time>2022-07-16T18:35:14Z</time>
      </trkpt>
      <trkpt lat="45.72107" lon="6.68325">
        <ele>1879</ele>
        <time>2022-07-16T18:35:15Z</time>
      </trkpt>
      <trkpt lat="45.72104" lon="6.68323">
        <ele>1879</ele>
        <time>2022-07-16T18:35:17Z</time>
      </trkpt>
      <trkpt lat="45.72102" lon="6.6832">
        <ele>1878</ele>
        <time>2022-07-16T18:35:19Z</time>
      </trkpt>
      <trkpt lat="45.72099" lon="6.68317">
        <ele>1877</ele>
        <time>2022-07-16T18:35:21Z</time>
      </trkpt>
      <trkpt lat="45.72097" lon="6.68314">
        <ele>1877</ele>
        <time>2022-07-16T18:35:23Z</time>
      </trkpt>
      <trkpt lat="45.72096" lon="6.68311">
        <ele>1877</ele>
        <time>2022-07-16T18:35:25Z</time>
      </trkpt>
      <trkpt lat="45.72094" lon="6.68308">
        <ele>1877</ele>
        <time>2022-07-16T18:35:27Z</time>
      </trkpt>
      <trkpt lat="45.72092" lon="6.68304">
        <ele>1876</ele>
        <time>2022-07-16T18:35:29Z</time>
      </trkpt>
      <trkpt lat="45.7209" lon="6.68301">
        <ele>1875</ele>
        <time>2022-07-16T18:35:31Z</time>
      </trkpt>
      <trkpt lat="45.72088" lon="6.68297">
        <ele>1875</ele>
        <time>2022-07-16T18:35:33Z</time>
      </trkpt>
      <trkpt lat="45.72086" lon="6.68294">
        <ele>1874</ele>
        <time>2022-07-16T18:35:35Z</time>
      </trkpt>
      <trkpt lat="45.72084" lon="6.68292">
        <ele>1874</ele>
        <time>2022-07-16T18:35:37Z</time>
      </trkpt>
      <trkpt lat="45.72083" lon="6.68289">
        <ele>1874</ele>
        <time>2022-07-16T18:35:39Z</time>
      </trkpt>
      <trkpt lat="45.72082" lon="6.68287">
        <ele>1874</ele>
        <time>2022-07-16T18:35:41Z</time>
      </trkpt>
      <trkpt lat="45.72081" lon="6.68284">
        <ele>1874</ele>
        <time>2022-07-16T18:35:43Z</time>
      </trkpt>
      <trkpt lat="45.7208" lon="6.68281">
        <ele>1873</ele>
        <time>2022-07-16T18:35:45Z</time>
      </trkpt>
      <trkpt lat="45.72079" lon="6.68279">
        <ele>1873</ele>
        <time>2022-07-16T18:35:47Z</time>
      </trkpt>
      <trkpt lat="45.72078" lon="6.68277">
        <ele>1873</ele>
        <time>2022-07-16T18:35:49Z</time>
      </trkpt>
      <trkpt lat="45.72076" lon="6.68274">
        <ele>1872</ele>
        <time>2022-07-16T18:35:51Z</time>
      </trkpt>
      <trkpt lat="45.72074" lon="6.68271">
        <ele>1871</ele>
        <time>2022-07-16T18:35:54Z</time>
      </trkpt>
      <trkpt lat="45.72072" lon="6.6827">
        <ele>1871</ele>
        <time>2022-07-16T18:35:56Z</time>
      </trkpt>
      <trkpt lat="45.7207" lon="6.68269">
        <ele>1870</ele>
        <time>2022-07-16T18:35:57Z</time>
      </trkpt>
      <trkpt lat="45.72068" lon="6.68268">
        <ele>1870</ele>
        <time>2022-07-16T18:35:58Z</time>
      </trkpt>
      <trkpt lat="45.72065" lon="6.68268">
        <ele>1870</ele>
        <time>2022-07-16T18:36:00Z</time>
      </trkpt>
      <trkpt lat="45.72063" lon="6.68269">
        <ele>1869</ele>
        <time>2022-07-16T18:36:02Z</time>
      </trkpt>
      <trkpt lat="45.7206" lon="6.68269">
        <ele>1869</ele>
        <time>2022-07-16T18:36:04Z</time>
      </trkpt>
      <trkpt lat="45.72057" lon="6.68271">
        <ele>1868</ele>
        <time>2022-07-16T18:36:06Z</time>
      </trkpt>
      <trkpt lat="45.72055" lon="6.68274">
        <ele>1867</ele>
        <time>2022-07-16T18:36:08Z</time>
      </trkpt>
      <trkpt lat="45.72053" lon="6.68276">
        <ele>1867</ele>
        <time>2022-07-16T18:36:10Z</time>
      </trkpt>
      <trkpt lat="45.72052" lon="6.68278">
        <ele>1865</ele>
        <time>2022-07-16T18:36:12Z</time>
      </trkpt>
      <trkpt lat="45.7205" lon="6.68278">
        <ele>1865</ele>
        <time>2022-07-16T18:36:14Z</time>
      </trkpt>
      <trkpt lat="45.72048" lon="6.68278">
        <ele>1865</ele>
        <time>2022-07-16T18:36:16Z</time>
      </trkpt>
      <trkpt lat="45.72046" lon="6.68277">
        <ele>1865</ele>
        <time>2022-07-16T18:36:18Z</time>
      </trkpt>
      <trkpt lat="45.72044" lon="6.68277">
        <ele>1865</ele>
        <time>2022-07-16T18:36:20Z</time>
      </trkpt>
      <trkpt lat="45.72041" lon="6.68277">
        <ele>1864</ele>
        <time>2022-07-16T18:36:22Z</time>
      </trkpt>
      <trkpt lat="45.72039" lon="6.68277">
        <ele>1864</ele>
        <time>2022-07-16T18:36:24Z</time>
      </trkpt>
      <trkpt lat="45.72037" lon="6.68276">
        <ele>1863</ele>
        <time>2022-07-16T18:36:26Z</time>
      </trkpt>
      <trkpt lat="45.72034" lon="6.68275">
        <ele>1863</ele>
        <time>2022-07-16T18:36:28Z</time>
      </trkpt>
      <trkpt lat="45.72032" lon="6.68272">
        <ele>1863</ele>
        <time>2022-07-16T18:36:30Z</time>
      </trkpt>
      <trkpt lat="45.72031" lon="6.68269">
        <ele>1863</ele>
        <time>2022-07-16T18:36:32Z</time>
      </trkpt>
      <trkpt lat="45.7203" lon="6.68266">
        <ele>1862</ele>
        <time>2022-07-16T18:36:34Z</time>
      </trkpt>
      <trkpt lat="45.72029" lon="6.68262">
        <ele>1862</ele>
        <time>2022-07-16T18:36:36Z</time>
      </trkpt>
      <trkpt lat="45.72028" lon="6.68259">
        <ele>1862</ele>
        <time>2022-07-16T18:36:38Z</time>
      </trkpt>
      <trkpt lat="45.72028" lon="6.68256">
        <ele>1862</ele>
        <time>2022-07-16T18:36:40Z</time>
      </trkpt>
      <trkpt lat="45.72028" lon="6.68253">
        <ele>1861</ele>
        <time>2022-07-16T18:36:42Z</time>
      </trkpt>
      <trkpt lat="45.72029" lon="6.68249">
        <ele>1861</ele>
        <time>2022-07-16T18:36:44Z</time>
      </trkpt>
      <trkpt lat="45.72029" lon="6.68245">
        <ele>1860</ele>
        <time>2022-07-16T18:36:46Z</time>
      </trkpt>
      <trkpt lat="45.72028" lon="6.68241">
        <ele>1860</ele>
        <time>2022-07-16T18:36:48Z</time>
      </trkpt>
      <trkpt lat="45.72029" lon="6.68237">
        <ele>1858</ele>
        <time>2022-07-16T18:36:50Z</time>
      </trkpt>
      <trkpt lat="45.72029" lon="6.68233">
        <ele>1858</ele>
        <time>2022-07-16T18:36:52Z</time>
      </trkpt>
      <trkpt lat="45.72029" lon="6.6823">
        <ele>1857</ele>
        <time>2022-07-16T18:36:54Z</time>
      </trkpt>
      <trkpt lat="45.72029" lon="6.68227">
        <ele>1856</ele>
        <time>2022-07-16T18:36:56Z</time>
      </trkpt>
      <trkpt lat="45.72028" lon="6.68222">
        <ele>1856</ele>
        <time>2022-07-16T18:36:59Z</time>
      </trkpt>
      <trkpt lat="45.72029" lon="6.68219">
        <ele>1855</ele>
        <time>2022-07-16T18:37:01Z</time>
      </trkpt>
      <trkpt lat="45.72029" lon="6.68216">
        <ele>1855</ele>
        <time>2022-07-16T18:37:03Z</time>
      </trkpt>
      <trkpt lat="45.72029" lon="6.68211">
        <ele>1854</ele>
        <time>2022-07-16T18:37:05Z</time>
      </trkpt>
      <trkpt lat="45.72029" lon="6.68207">
        <ele>1853</ele>
        <time>2022-07-16T18:37:08Z</time>
      </trkpt>
      <trkpt lat="45.72029" lon="6.68204">
        <ele>1852</ele>
        <time>2022-07-16T18:37:09Z</time>
      </trkpt>
      <trkpt lat="45.72028" lon="6.682">
        <ele>1852</ele>
        <time>2022-07-16T18:37:11Z</time>
      </trkpt>
      <trkpt lat="45.72028" lon="6.68197">
        <ele>1851</ele>
        <time>2022-07-16T18:37:13Z</time>
      </trkpt>
      <trkpt lat="45.72028" lon="6.68193">
        <ele>1851</ele>
        <time>2022-07-16T18:37:15Z</time>
      </trkpt>
      <trkpt lat="45.72028" lon="6.6819">
        <ele>1850</ele>
        <time>2022-07-16T18:37:17Z</time>
      </trkpt>
      <trkpt lat="45.72028" lon="6.68187">
        <ele>1849</ele>
        <time>2022-07-16T18:37:19Z</time>
      </trkpt>
      <trkpt lat="45.72029" lon="6.68184">
        <ele>1849</ele>
        <time>2022-07-16T18:37:21Z</time>
      </trkpt>
      <trkpt lat="45.72029" lon="6.68181">
        <ele>1849</ele>
        <time>2022-07-16T18:37:23Z</time>
      </trkpt>
      <trkpt lat="45.72029" lon="6.68178">
        <ele>1849</ele>
        <time>2022-07-16T18:37:25Z</time>
      </trkpt>
      <trkpt lat="45.72028" lon="6.68173">
        <ele>1848</ele>
        <time>2022-07-16T18:37:27Z</time>
      </trkpt>
      <trkpt lat="45.72027" lon="6.68169">
        <ele>1847</ele>
        <time>2022-07-16T18:37:29Z</time>
      </trkpt>
      <trkpt lat="45.72026" lon="6.68166">
        <ele>1847</ele>
        <time>2022-07-16T18:37:31Z</time>
      </trkpt>
      <trkpt lat="45.72025" lon="6.68163">
        <ele>1847</ele>
        <time>2022-07-16T18:37:33Z</time>
      </trkpt>
      <trkpt lat="45.72023" lon="6.68161">
        <ele>1847</ele>
        <time>2022-07-16T18:37:35Z</time>
      </trkpt>
      <trkpt lat="45.72021" lon="6.68159">
        <ele>1847</ele>
        <time>2022-07-16T18:37:38Z</time>
      </trkpt>
      <trkpt lat="45.72019" lon="6.68157">
        <ele>1847</ele>
        <time>2022-07-16T18:37:41Z</time>
      </trkpt>
      <trkpt lat="45.72019" lon="6.68153">
        <ele>1846</ele>
        <time>2022-07-16T18:37:44Z</time>
      </trkpt>
      <trkpt lat="45.7202" lon="6.68149">
        <ele>1845</ele>
        <time>2022-07-16T18:37:47Z</time>
      </trkpt>
      <trkpt lat="45.7202" lon="6.68145">
        <ele>1845</ele>
        <time>2022-07-16T18:37:49Z</time>
      </trkpt>
      <trkpt lat="45.72023" lon="6.68143">
        <ele>1845</ele>
        <time>2022-07-16T18:37:51Z</time>
      </trkpt>
      <trkpt lat="45.72025" lon="6.68141">
        <ele>1844</ele>
        <time>2022-07-16T18:37:53Z</time>
      </trkpt>
      <trkpt lat="45.72027" lon="6.68138">
        <ele>1844</ele>
        <time>2022-07-16T18:37:55Z</time>
      </trkpt>
      <trkpt lat="45.72028" lon="6.68136">
        <ele>1844</ele>
        <time>2022-07-16T18:37:57Z</time>
      </trkpt>
      <trkpt lat="45.72029" lon="6.68132">
        <ele>1843</ele>
        <time>2022-07-16T18:37:59Z</time>
      </trkpt>
      <trkpt lat="45.72029" lon="6.68129">
        <ele>1842</ele>
        <time>2022-07-16T18:38:01Z</time>
      </trkpt>
      <trkpt lat="45.72029" lon="6.68125">
        <ele>1842</ele>
        <time>2022-07-16T18:38:03Z</time>
      </trkpt>
      <trkpt lat="45.7203" lon="6.6812">
        <ele>1841</ele>
        <time>2022-07-16T18:38:05Z</time>
      </trkpt>
      <trkpt lat="45.7203" lon="6.68117">
        <ele>1840</ele>
        <time>2022-07-16T18:38:07Z</time>
      </trkpt>
      <trkpt lat="45.72031" lon="6.68114">
        <ele>1840</ele>
        <time>2022-07-16T18:38:09Z</time>
      </trkpt>
      <trkpt lat="45.72032" lon="6.68111">
        <ele>1839</ele>
        <time>2022-07-16T18:38:11Z</time>
      </trkpt>
      <trkpt lat="45.72033" lon="6.68108">
        <ele>1838</ele>
        <time>2022-07-16T18:38:13Z</time>
      </trkpt>
      <trkpt lat="45.72033" lon="6.68104">
        <ele>1838</ele>
        <time>2022-07-16T18:38:15Z</time>
      </trkpt>
      <trkpt lat="45.72033" lon="6.681">
        <ele>1837</ele>
        <time>2022-07-16T18:38:17Z</time>
      </trkpt>
      <trkpt lat="45.72032" lon="6.68097">
        <ele>1836</ele>
        <time>2022-07-16T18:38:19Z</time>
      </trkpt>
      <trkpt lat="45.72031" lon="6.68095">
        <ele>1836</ele>
        <time>2022-07-16T18:38:21Z</time>
      </trkpt>
      <trkpt lat="45.72031" lon="6.68091">
        <ele>1835</ele>
        <time>2022-07-16T18:38:23Z</time>
      </trkpt>
      <trkpt lat="45.7203" lon="6.68087">
        <ele>1833</ele>
        <time>2022-07-16T18:38:25Z</time>
      </trkpt>
      <trkpt lat="45.72031" lon="6.68083">
        <ele>1833</ele>
        <time>2022-07-16T18:38:27Z</time>
      </trkpt>
      <trkpt lat="45.72032" lon="6.68079">
        <ele>1833</ele>
        <time>2022-07-16T18:38:29Z</time>
      </trkpt>
      <trkpt lat="45.72032" lon="6.68075">
        <ele>1833</ele>
        <time>2022-07-16T18:38:31Z</time>
      </trkpt>
      <trkpt lat="45.72033" lon="6.68073">
        <ele>1832</ele>
        <time>2022-07-16T18:38:32Z</time>
      </trkpt>
      <trkpt lat="45.72034" lon="6.6807">
        <ele>1832</ele>
        <time>2022-07-16T18:38:33Z</time>
      </trkpt>
      <trkpt lat="45.72035" lon="6.68067">
        <ele>1832</ele>
        <time>2022-07-16T18:38:35Z</time>
      </trkpt>
      <trkpt lat="45.72037" lon="6.68064">
        <ele>1830</ele>
        <time>2022-07-16T18:38:37Z</time>
      </trkpt>
      <trkpt lat="45.72037" lon="6.6806">
        <ele>1830</ele>
        <time>2022-07-16T18:38:39Z</time>
      </trkpt>
      <trkpt lat="45.72038" lon="6.68056">
        <ele>1830</ele>
        <time>2022-07-16T18:38:41Z</time>
      </trkpt>
      <trkpt lat="45.72038" lon="6.68053">
        <ele>1830</ele>
        <time>2022-07-16T18:38:43Z</time>
      </trkpt>
      <trkpt lat="45.7204" lon="6.68051">
        <ele>1829</ele>
        <time>2022-07-16T18:38:45Z</time>
      </trkpt>
      <trkpt lat="45.72041" lon="6.68049">
        <ele>1828</ele>
        <time>2022-07-16T18:38:47Z</time>
      </trkpt>
      <trkpt lat="45.72043" lon="6.68046">
        <ele>1827</ele>
        <time>2022-07-16T18:38:49Z</time>
      </trkpt>
      <trkpt lat="45.72044" lon="6.68043">
        <ele>1826</ele>
        <time>2022-07-16T18:38:51Z</time>
      </trkpt>
      <trkpt lat="45.72045" lon="6.68041">
        <ele>1826</ele>
        <time>2022-07-16T18:38:53Z</time>
      </trkpt>
      <trkpt lat="45.72047" lon="6.68038">
        <ele>1826</ele>
        <time>2022-07-16T18:38:55Z</time>
      </trkpt>
      <trkpt lat="45.72048" lon="6.68034">
        <ele>1826</ele>
        <time>2022-07-16T18:38:57Z</time>
      </trkpt>
      <trkpt lat="45.72049" lon="6.68031">
        <ele>1825</ele>
        <time>2022-07-16T18:38:59Z</time>
      </trkpt>
      <trkpt lat="45.7205" lon="6.68028">
        <ele>1825</ele>
        <time>2022-07-16T18:39:01Z</time>
      </trkpt>
      <trkpt lat="45.72052" lon="6.68025">
        <ele>1823</ele>
        <time>2022-07-16T18:39:03Z</time>
      </trkpt>
      <trkpt lat="45.72054" lon="6.68022">
        <ele>1823</ele>
        <time>2022-07-16T18:39:05Z</time>
      </trkpt>
      <trkpt lat="45.72056" lon="6.68019">
        <ele>1822</ele>
        <time>2022-07-16T18:39:07Z</time>
      </trkpt>
      <trkpt lat="45.72057" lon="6.68016">
        <ele>1822</ele>
        <time>2022-07-16T18:39:09Z</time>
      </trkpt>
      <trkpt lat="45.72057" lon="6.68013">
        <ele>1822</ele>
        <time>2022-07-16T18:39:11Z</time>
      </trkpt>
      <trkpt lat="45.72058" lon="6.6801">
        <ele>1821</ele>
        <time>2022-07-16T18:39:13Z</time>
      </trkpt>
      <trkpt lat="45.72059" lon="6.68008">
        <ele>1820</ele>
        <time>2022-07-16T18:39:15Z</time>
      </trkpt>
      <trkpt lat="45.72061" lon="6.68004">
        <ele>1820</ele>
        <time>2022-07-16T18:39:17Z</time>
      </trkpt>
      <trkpt lat="45.72062" lon="6.68001">
        <ele>1819</ele>
        <time>2022-07-16T18:39:19Z</time>
      </trkpt>
      <trkpt lat="45.72063" lon="6.67998">
        <ele>1819</ele>
        <time>2022-07-16T18:39:21Z</time>
      </trkpt>
      <trkpt lat="45.72064" lon="6.67995">
        <ele>1818</ele>
        <time>2022-07-16T18:39:23Z</time>
      </trkpt>
      <trkpt lat="45.72066" lon="6.67991">
        <ele>1817</ele>
        <time>2022-07-16T18:39:25Z</time>
      </trkpt>
      <trkpt lat="45.72067" lon="6.67987">
        <ele>1816</ele>
        <time>2022-07-16T18:39:27Z</time>
      </trkpt>
      <trkpt lat="45.72068" lon="6.67983">
        <ele>1816</ele>
        <time>2022-07-16T18:39:29Z</time>
      </trkpt>
      <trkpt lat="45.72068" lon="6.67979">
        <ele>1815</ele>
        <time>2022-07-16T18:39:31Z</time>
      </trkpt>
      <trkpt lat="45.72069" lon="6.67976">
        <ele>1815</ele>
        <time>2022-07-16T18:39:33Z</time>
      </trkpt>
      <trkpt lat="45.7207" lon="6.67972">
        <ele>1815</ele>
        <time>2022-07-16T18:39:35Z</time>
      </trkpt>
      <trkpt lat="45.72071" lon="6.67969">
        <ele>1814</ele>
        <time>2022-07-16T18:39:37Z</time>
      </trkpt>
      <trkpt lat="45.72072" lon="6.67966">
        <ele>1813</ele>
        <time>2022-07-16T18:39:39Z</time>
      </trkpt>
      <trkpt lat="45.72075" lon="6.67963">
        <ele>1811</ele>
        <time>2022-07-16T18:39:41Z</time>
      </trkpt>
      <trkpt lat="45.72077" lon="6.6796">
        <ele>1811</ele>
        <time>2022-07-16T18:39:43Z</time>
      </trkpt>
      <trkpt lat="45.72078" lon="6.67956">
        <ele>1810</ele>
        <time>2022-07-16T18:39:45Z</time>
      </trkpt>
      <trkpt lat="45.72079" lon="6.67952">
        <ele>1810</ele>
        <time>2022-07-16T18:39:47Z</time>
      </trkpt>
      <trkpt lat="45.72081" lon="6.67949">
        <ele>1810</ele>
        <time>2022-07-16T18:39:49Z</time>
      </trkpt>
      <trkpt lat="45.72083" lon="6.67946">
        <ele>1809</ele>
        <time>2022-07-16T18:39:51Z</time>
      </trkpt>
      <trkpt lat="45.72085" lon="6.67944">
        <ele>1808</ele>
        <time>2022-07-16T18:39:53Z</time>
      </trkpt>
      <trkpt lat="45.72086" lon="6.6794">
        <ele>1808</ele>
        <time>2022-07-16T18:39:55Z</time>
      </trkpt>
      <trkpt lat="45.72087" lon="6.67938">
        <ele>1807</ele>
        <time>2022-07-16T18:39:57Z</time>
      </trkpt>
      <trkpt lat="45.72088" lon="6.67935">
        <ele>1806</ele>
        <time>2022-07-16T18:39:59Z</time>
      </trkpt>
      <trkpt lat="45.7209" lon="6.67932">
        <ele>1805</ele>
        <time>2022-07-16T18:40:01Z</time>
      </trkpt>
      <trkpt lat="45.72091" lon="6.6793">
        <ele>1805</ele>
        <time>2022-07-16T18:40:03Z</time>
      </trkpt>
      <trkpt lat="45.72091" lon="6.67926">
        <ele>1804</ele>
        <time>2022-07-16T18:40:05Z</time>
      </trkpt>
      <trkpt lat="45.72092" lon="6.67922">
        <ele>1804</ele>
        <time>2022-07-16T18:40:07Z</time>
      </trkpt>
      <trkpt lat="45.72092" lon="6.67918">
        <ele>1803</ele>
        <time>2022-07-16T18:40:09Z</time>
      </trkpt>
      <trkpt lat="45.72093" lon="6.67915">
        <ele>1803</ele>
        <time>2022-07-16T18:40:11Z</time>
      </trkpt>
      <trkpt lat="45.72094" lon="6.67911">
        <ele>1803</ele>
        <time>2022-07-16T18:40:13Z</time>
      </trkpt>
      <trkpt lat="45.72095" lon="6.67907">
        <ele>1802</ele>
        <time>2022-07-16T18:40:15Z</time>
      </trkpt>
      <trkpt lat="45.72096" lon="6.67903">
        <ele>1801</ele>
        <time>2022-07-16T18:40:17Z</time>
      </trkpt>
      <trkpt lat="45.72097" lon="6.679">
        <ele>1800</ele>
        <time>2022-07-16T18:40:19Z</time>
      </trkpt>
      <trkpt lat="45.72098" lon="6.67896">
        <ele>1800</ele>
        <time>2022-07-16T18:40:21Z</time>
      </trkpt>
      <trkpt lat="45.72098" lon="6.67892">
        <ele>1799</ele>
        <time>2022-07-16T18:40:24Z</time>
      </trkpt>
      <trkpt lat="45.72098" lon="6.67889">
        <ele>1799</ele>
        <time>2022-07-16T18:40:26Z</time>
      </trkpt>
      <trkpt lat="45.72097" lon="6.67885">
        <ele>1799</ele>
        <time>2022-07-16T18:40:28Z</time>
      </trkpt>
      <trkpt lat="45.72097" lon="6.67881">
        <ele>1798</ele>
        <time>2022-07-16T18:40:30Z</time>
      </trkpt>
      <trkpt lat="45.72098" lon="6.67878">
        <ele>1798</ele>
        <time>2022-07-16T18:40:32Z</time>
      </trkpt>
      <trkpt lat="45.72099" lon="6.67875">
        <ele>1798</ele>
        <time>2022-07-16T18:40:34Z</time>
      </trkpt>
      <trkpt lat="45.72099" lon="6.67872">
        <ele>1798</ele>
        <time>2022-07-16T18:40:36Z</time>
      </trkpt>
      <trkpt lat="45.72098" lon="6.67868">
        <ele>1795</ele>
        <time>2022-07-16T18:40:38Z</time>
      </trkpt>
      <trkpt lat="45.72098" lon="6.67864">
        <ele>1795</ele>
        <time>2022-07-16T18:40:40Z</time>
      </trkpt>
      <trkpt lat="45.72098" lon="6.6786">
        <ele>1795</ele>
        <time>2022-07-16T18:40:42Z</time>
      </trkpt>
      <trkpt lat="45.72098" lon="6.67857">
        <ele>1795</ele>
        <time>2022-07-16T18:40:44Z</time>
      </trkpt>
      <trkpt lat="45.72098" lon="6.67854">
        <ele>1795</ele>
        <time>2022-07-16T18:40:46Z</time>
      </trkpt>
      <trkpt lat="45.72097" lon="6.67851">
        <ele>1794</ele>
        <time>2022-07-16T18:40:48Z</time>
      </trkpt>
      <trkpt lat="45.72096" lon="6.67848">
        <ele>1793</ele>
        <time>2022-07-16T18:40:50Z</time>
      </trkpt>
      <trkpt lat="45.72096" lon="6.67845">
        <ele>1793</ele>
        <time>2022-07-16T18:40:52Z</time>
      </trkpt>
      <trkpt lat="45.72095" lon="6.67842">
        <ele>1792</ele>
        <time>2022-07-16T18:40:55Z</time>
      </trkpt>
      <trkpt lat="45.72096" lon="6.67839">
        <ele>1791</ele>
        <time>2022-07-16T18:40:56Z</time>
      </trkpt>
      <trkpt lat="45.72095" lon="6.67836">
        <ele>1790</ele>
        <time>2022-07-16T18:40:58Z</time>
      </trkpt>
      <trkpt lat="45.72094" lon="6.67833">
        <ele>1790</ele>
        <time>2022-07-16T18:41:00Z</time>
      </trkpt>
      <trkpt lat="45.72093" lon="6.6783">
        <ele>1790</ele>
        <time>2022-07-16T18:41:02Z</time>
      </trkpt>
      <trkpt lat="45.72094" lon="6.67826">
        <ele>1790</ele>
        <time>2022-07-16T18:41:04Z</time>
      </trkpt>
      <trkpt lat="45.72094" lon="6.67822">
        <ele>1790</ele>
        <time>2022-07-16T18:41:06Z</time>
      </trkpt>
      <trkpt lat="45.72093" lon="6.67819">
        <ele>1790</ele>
        <time>2022-07-16T18:41:08Z</time>
      </trkpt>
      <trkpt lat="45.72093" lon="6.67816">
        <ele>1789</ele>
        <time>2022-07-16T18:41:10Z</time>
      </trkpt>
      <trkpt lat="45.72093" lon="6.67812">
        <ele>1788</ele>
        <time>2022-07-16T18:41:12Z</time>
      </trkpt>
      <trkpt lat="45.72094" lon="6.67808">
        <ele>1788</ele>
        <time>2022-07-16T18:41:14Z</time>
      </trkpt>
      <trkpt lat="45.72095" lon="6.67805">
        <ele>1786</ele>
        <time>2022-07-16T18:41:16Z</time>
      </trkpt>
      <trkpt lat="45.72095" lon="6.67802">
        <ele>1786</ele>
        <time>2022-07-16T18:41:18Z</time>
      </trkpt>
      <trkpt lat="45.72096" lon="6.67798">
        <ele>1786</ele>
        <time>2022-07-16T18:41:20Z</time>
      </trkpt>
      <trkpt lat="45.72097" lon="6.67795">
        <ele>1786</ele>
        <time>2022-07-16T18:41:22Z</time>
      </trkpt>
      <trkpt lat="45.72098" lon="6.67791">
        <ele>1785</ele>
        <time>2022-07-16T18:41:24Z</time>
      </trkpt>
      <trkpt lat="45.72099" lon="6.67789">
        <ele>1785</ele>
        <time>2022-07-16T18:41:26Z</time>
      </trkpt>
      <trkpt lat="45.72101" lon="6.67786">
        <ele>1785</ele>
        <time>2022-07-16T18:41:28Z</time>
      </trkpt>
      <trkpt lat="45.72101" lon="6.67783">
        <ele>1784</ele>
        <time>2022-07-16T18:41:30Z</time>
      </trkpt>
      <trkpt lat="45.72101" lon="6.67778">
        <ele>1783</ele>
        <time>2022-07-16T18:41:33Z</time>
      </trkpt>
      <trkpt lat="45.72101" lon="6.67774">
        <ele>1783</ele>
        <time>2022-07-16T18:41:34Z</time>
      </trkpt>
      <trkpt lat="45.72101" lon="6.67771">
        <ele>1782</ele>
        <time>2022-07-16T18:41:36Z</time>
      </trkpt>
      <trkpt lat="45.72101" lon="6.67767">
        <ele>1782</ele>
        <time>2022-07-16T18:41:38Z</time>
      </trkpt>
      <trkpt lat="45.72101" lon="6.67764">
        <ele>1781</ele>
        <time>2022-07-16T18:41:40Z</time>
      </trkpt>
      <trkpt lat="45.72102" lon="6.6776">
        <ele>1781</ele>
        <time>2022-07-16T18:41:42Z</time>
      </trkpt>
      <trkpt lat="45.72103" lon="6.67757">
        <ele>1780</ele>
        <time>2022-07-16T18:41:44Z</time>
      </trkpt>
      <trkpt lat="45.72104" lon="6.67753">
        <ele>1780</ele>
        <time>2022-07-16T18:41:46Z</time>
      </trkpt>
      <trkpt lat="45.72105" lon="6.6775">
        <ele>1780</ele>
        <time>2022-07-16T18:41:48Z</time>
      </trkpt>
      <trkpt lat="45.72106" lon="6.67748">
        <ele>1779</ele>
        <time>2022-07-16T18:41:50Z</time>
      </trkpt>
      <trkpt lat="45.72107" lon="6.67745">
        <ele>1779</ele>
        <time>2022-07-16T18:41:52Z</time>
      </trkpt>
      <trkpt lat="45.72108" lon="6.67743">
        <ele>1778</ele>
        <time>2022-07-16T18:41:54Z</time>
      </trkpt>
      <trkpt lat="45.72109" lon="6.6774">
        <ele>1777</ele>
        <time>2022-07-16T18:41:56Z</time>
      </trkpt>
      <trkpt lat="45.7211" lon="6.67736">
        <ele>1777</ele>
        <time>2022-07-16T18:41:58Z</time>
      </trkpt>
      <trkpt lat="45.7211" lon="6.67733">
        <ele>1777</ele>
        <time>2022-07-16T18:42:00Z</time>
      </trkpt>
      <trkpt lat="45.72109" lon="6.67729">
        <ele>1777</ele>
        <time>2022-07-16T18:42:02Z</time>
      </trkpt>
      <trkpt lat="45.72109" lon="6.67726">
        <ele>1776</ele>
        <time>2022-07-16T18:42:04Z</time>
      </trkpt>
      <trkpt lat="45.7211" lon="6.67723">
        <ele>1776</ele>
        <time>2022-07-16T18:42:06Z</time>
      </trkpt>
      <trkpt lat="45.7211" lon="6.6772">
        <ele>1775</ele>
        <time>2022-07-16T18:42:08Z</time>
      </trkpt>
      <trkpt lat="45.7211" lon="6.67715">
        <ele>1774</ele>
        <time>2022-07-16T18:42:11Z</time>
      </trkpt>
      <trkpt lat="45.72109" lon="6.67711">
        <ele>1774</ele>
        <time>2022-07-16T18:42:13Z</time>
      </trkpt>
      <trkpt lat="45.72109" lon="6.67708">
        <ele>1773</ele>
        <time>2022-07-16T18:42:14Z</time>
      </trkpt>
      <trkpt lat="45.72109" lon="6.67706">
        <ele>1773</ele>
        <time>2022-07-16T18:42:15Z</time>
      </trkpt>
      <trkpt lat="45.7211" lon="6.67701">
        <ele>1772</ele>
        <time>2022-07-16T18:42:17Z</time>
      </trkpt>
      <trkpt lat="45.72111" lon="6.67696">
        <ele>1772</ele>
        <time>2022-07-16T18:42:19Z</time>
      </trkpt>
      <trkpt lat="45.72112" lon="6.67691">
        <ele>1771</ele>
        <time>2022-07-16T18:42:21Z</time>
      </trkpt>
      <trkpt lat="45.72114" lon="6.67686">
        <ele>1771</ele>
        <time>2022-07-16T18:42:23Z</time>
      </trkpt>
      <trkpt lat="45.72116" lon="6.67682">
        <ele>1770</ele>
        <time>2022-07-16T18:42:25Z</time>
      </trkpt>
      <trkpt lat="45.72119" lon="6.67679">
        <ele>1769</ele>
        <time>2022-07-16T18:42:27Z</time>
      </trkpt>
      <trkpt lat="45.72121" lon="6.67676">
        <ele>1768</ele>
        <time>2022-07-16T18:42:29Z</time>
      </trkpt>
      <trkpt lat="45.72122" lon="6.67672">
        <ele>1768</ele>
        <time>2022-07-16T18:42:31Z</time>
      </trkpt>
      <trkpt lat="45.72122" lon="6.67668">
        <ele>1768</ele>
        <time>2022-07-16T18:42:33Z</time>
      </trkpt>
      <trkpt lat="45.72123" lon="6.67664">
        <ele>1767</ele>
        <time>2022-07-16T18:42:35Z</time>
      </trkpt>
      <trkpt lat="45.72123" lon="6.6766">
        <ele>1766</ele>
        <time>2022-07-16T18:42:37Z</time>
      </trkpt>
      <trkpt lat="45.72124" lon="6.67656">
        <ele>1766</ele>
        <time>2022-07-16T18:42:39Z</time>
      </trkpt>
      <trkpt lat="45.72124" lon="6.67651">
        <ele>1766</ele>
        <time>2022-07-16T18:42:41Z</time>
      </trkpt>
      <trkpt lat="45.72124" lon="6.67647">
        <ele>1765</ele>
        <time>2022-07-16T18:42:43Z</time>
      </trkpt>
      <trkpt lat="45.72124" lon="6.67643">
        <ele>1765</ele>
        <time>2022-07-16T18:42:45Z</time>
      </trkpt>
      <trkpt lat="45.72124" lon="6.67638">
        <ele>1763</ele>
        <time>2022-07-16T18:42:47Z</time>
      </trkpt>
      <trkpt lat="45.72124" lon="6.67635">
        <ele>1763</ele>
        <time>2022-07-16T18:42:48Z</time>
      </trkpt>
      <trkpt lat="45.72124" lon="6.67632">
        <ele>1763</ele>
        <time>2022-07-16T18:42:49Z</time>
      </trkpt>
      <trkpt lat="45.72124" lon="6.67627">
        <ele>1763</ele>
        <time>2022-07-16T18:42:51Z</time>
      </trkpt>
      <trkpt lat="45.72125" lon="6.67622">
        <ele>1763</ele>
        <time>2022-07-16T18:42:53Z</time>
      </trkpt>
      <trkpt lat="45.72124" lon="6.67618">
        <ele>1762</ele>
        <time>2022-07-16T18:42:55Z</time>
      </trkpt>
      <trkpt lat="45.72125" lon="6.67615">
        <ele>1762</ele>
        <time>2022-07-16T18:42:56Z</time>
      </trkpt>
      <trkpt lat="45.72125" lon="6.67612">
        <ele>1762</ele>
        <time>2022-07-16T18:42:57Z</time>
      </trkpt>
      <trkpt lat="45.72125" lon="6.6761">
        <ele>1762</ele>
        <time>2022-07-16T18:42:58Z</time>
      </trkpt>
      <trkpt lat="45.72125" lon="6.67604">
        <ele>1761</ele>
        <time>2022-07-16T18:43:00Z</time>
      </trkpt>
      <trkpt lat="45.72125" lon="6.67601">
        <ele>1761</ele>
        <time>2022-07-16T18:43:01Z</time>
      </trkpt>
      <trkpt lat="45.72124" lon="6.67598">
        <ele>1761</ele>
        <time>2022-07-16T18:43:02Z</time>
      </trkpt>
      <trkpt lat="45.72124" lon="6.67595">
        <ele>1761</ele>
        <time>2022-07-16T18:43:03Z</time>
      </trkpt>
      <trkpt lat="45.72124" lon="6.67592">
        <ele>1761</ele>
        <time>2022-07-16T18:43:04Z</time>
      </trkpt>
      <trkpt lat="45.72124" lon="6.6759">
        <ele>1760</ele>
        <time>2022-07-16T18:43:05Z</time>
      </trkpt>
      <trkpt lat="45.72124" lon="6.67587">
        <ele>1760</ele>
        <time>2022-07-16T18:43:06Z</time>
      </trkpt>
      <trkpt lat="45.72124" lon="6.67584">
        <ele>1760</ele>
        <time>2022-07-16T18:43:07Z</time>
      </trkpt>
      <trkpt lat="45.72124" lon="6.67581">
        <ele>1760</ele>
        <time>2022-07-16T18:43:08Z</time>
      </trkpt>
      <trkpt lat="45.72124" lon="6.67579">
        <ele>1760</ele>
        <time>2022-07-16T18:43:09Z</time>
      </trkpt>
      <trkpt lat="45.72124" lon="6.67576">
        <ele>1760</ele>
        <time>2022-07-16T18:43:10Z</time>
      </trkpt>
      <trkpt lat="45.72123" lon="6.67573">
        <ele>1760</ele>
        <time>2022-07-16T18:43:11Z</time>
      </trkpt>
      <trkpt lat="45.72122" lon="6.6757">
        <ele>1759</ele>
        <time>2022-07-16T18:43:12Z</time>
      </trkpt>
      <trkpt lat="45.72121" lon="6.67567">
        <ele>1759</ele>
        <time>2022-07-16T18:43:13Z</time>
      </trkpt>
      <trkpt lat="45.72121" lon="6.67565">
        <ele>1759</ele>
        <time>2022-07-16T18:43:14Z</time>
      </trkpt>
      <trkpt lat="45.72119" lon="6.6756">
        <ele>1758</ele>
        <time>2022-07-16T18:43:16Z</time>
      </trkpt>
      <trkpt lat="45.72119" lon="6.67555">
        <ele>1758</ele>
        <time>2022-07-16T18:43:18Z</time>
      </trkpt>
      <trkpt lat="45.72119" lon="6.6755">
        <ele>1757</ele>
        <time>2022-07-16T18:43:20Z</time>
      </trkpt>
      <trkpt lat="45.72118" lon="6.67546">
        <ele>1757</ele>
        <time>2022-07-16T18:43:21Z</time>
      </trkpt>
      <trkpt lat="45.72118" lon="6.67544">
        <ele>1757</ele>
        <time>2022-07-16T18:43:22Z</time>
      </trkpt>
      <trkpt lat="45.72118" lon="6.67542">
        <ele>1756</ele>
        <time>2022-07-16T18:43:23Z</time>
      </trkpt>
      <trkpt lat="45.72118" lon="6.67539">
        <ele>1756</ele>
        <time>2022-07-16T18:43:24Z</time>
      </trkpt>
      <trkpt lat="45.72118" lon="6.67537">
        <ele>1756</ele>
        <time>2022-07-16T18:43:25Z</time>
      </trkpt>
      <trkpt lat="45.72119" lon="6.67531">
        <ele>1756</ele>
        <time>2022-07-16T18:43:27Z</time>
      </trkpt>
      <trkpt lat="45.72119" lon="6.67528">
        <ele>1756</ele>
        <time>2022-07-16T18:43:28Z</time>
      </trkpt>
      <trkpt lat="45.72118" lon="6.67525">
        <ele>1756</ele>
        <time>2022-07-16T18:43:29Z</time>
      </trkpt>
      <trkpt lat="45.72118" lon="6.67522">
        <ele>1755</ele>
        <time>2022-07-16T18:43:30Z</time>
      </trkpt>
      <trkpt lat="45.72117" lon="6.6752">
        <ele>1755</ele>
        <time>2022-07-16T18:43:31Z</time>
      </trkpt>
      <trkpt lat="45.72117" lon="6.67515">
        <ele>1754</ele>
        <time>2022-07-16T18:43:33Z</time>
      </trkpt>
      <trkpt lat="45.72116" lon="6.6751">
        <ele>1754</ele>
        <time>2022-07-16T18:43:35Z</time>
      </trkpt>
      <trkpt lat="45.72116" lon="6.67506">
        <ele>1753</ele>
        <time>2022-07-16T18:43:37Z</time>
      </trkpt>
      <trkpt lat="45.72117" lon="6.67501">
        <ele>1753</ele>
        <time>2022-07-16T18:43:39Z</time>
      </trkpt>
      <trkpt lat="45.72117" lon="6.67497">
        <ele>1752</ele>
        <time>2022-07-16T18:43:41Z</time>
      </trkpt>
      <trkpt lat="45.72118" lon="6.67492">
        <ele>1752</ele>
        <time>2022-07-16T18:43:43Z</time>
      </trkpt>
      <trkpt lat="45.72118" lon="6.6749">
        <ele>1752</ele>
        <time>2022-07-16T18:43:44Z</time>
      </trkpt>
      <trkpt lat="45.72121" lon="6.67487">
        <ele>1752</ele>
        <time>2022-07-16T18:43:46Z</time>
      </trkpt>
      <trkpt lat="45.72123" lon="6.67484">
        <ele>1751</ele>
        <time>2022-07-16T18:43:48Z</time>
      </trkpt>
      <trkpt lat="45.72125" lon="6.67481">
        <ele>1750</ele>
        <time>2022-07-16T18:43:50Z</time>
      </trkpt>
      <trkpt lat="45.72128" lon="6.6748">
        <ele>1749</ele>
        <time>2022-07-16T18:43:52Z</time>
      </trkpt>
      <trkpt lat="45.7213" lon="6.6748">
        <ele>1750</ele>
        <time>2022-07-16T18:43:54Z</time>
      </trkpt>
      <trkpt lat="45.72133" lon="6.67481">
        <ele>1750</ele>
        <time>2022-07-16T18:43:56Z</time>
      </trkpt>
      <trkpt lat="45.72135" lon="6.67483">
        <ele>1750</ele>
        <time>2022-07-16T18:43:58Z</time>
      </trkpt>
      <trkpt lat="45.72137" lon="6.67485">
        <ele>1750</ele>
        <time>2022-07-16T18:44:00Z</time>
      </trkpt>
      <trkpt lat="45.7214" lon="6.67485">
        <ele>1749</ele>
        <time>2022-07-16T18:44:02Z</time>
      </trkpt>
      <trkpt lat="45.72142" lon="6.67482">
        <ele>1749</ele>
        <time>2022-07-16T18:44:05Z</time>
      </trkpt>
      <trkpt lat="45.72143" lon="6.67478">
        <ele>1749</ele>
        <time>2022-07-16T18:44:06Z</time>
      </trkpt>
      <trkpt lat="45.72145" lon="6.67474">
        <ele>1749</ele>
        <time>2022-07-16T18:44:08Z</time>
      </trkpt>
      <trkpt lat="45.72147" lon="6.67471">
        <ele>1749</ele>
        <time>2022-07-16T18:44:10Z</time>
      </trkpt>
      <trkpt lat="45.72149" lon="6.67468">
        <ele>1749</ele>
        <time>2022-07-16T18:44:12Z</time>
      </trkpt>
      <trkpt lat="45.72151" lon="6.67466">
        <ele>1749</ele>
        <time>2022-07-16T18:44:14Z</time>
      </trkpt>
      <trkpt lat="45.72153" lon="6.67463">
        <ele>1749</ele>
        <time>2022-07-16T18:44:16Z</time>
      </trkpt>
      <trkpt lat="45.72155" lon="6.67461">
        <ele>1749</ele>
        <time>2022-07-16T18:44:18Z</time>
      </trkpt>
      <trkpt lat="45.72156" lon="6.67458">
        <ele>1749</ele>
        <time>2022-07-16T18:44:20Z</time>
      </trkpt>
      <trkpt lat="45.72158" lon="6.67455">
        <ele>1749</ele>
        <time>2022-07-16T18:44:22Z</time>
      </trkpt>
      <trkpt lat="45.7216" lon="6.67453">
        <ele>1749</ele>
        <time>2022-07-16T18:44:24Z</time>
      </trkpt>
      <trkpt lat="45.72161" lon="6.6745">
        <ele>1749</ele>
        <time>2022-07-16T18:44:26Z</time>
      </trkpt>
      <trkpt lat="45.72162" lon="6.67446">
        <ele>1749</ele>
        <time>2022-07-16T18:44:28Z</time>
      </trkpt>
      <trkpt lat="45.72163" lon="6.67444">
        <ele>1749</ele>
        <time>2022-07-16T18:44:30Z</time>
      </trkpt>
      <trkpt lat="45.72164" lon="6.67441">
        <ele>1749</ele>
        <time>2022-07-16T18:44:32Z</time>
      </trkpt>
      <trkpt lat="45.72165" lon="6.67438">
        <ele>1749</ele>
        <time>2022-07-16T18:44:34Z</time>
      </trkpt>
      <trkpt lat="45.72167" lon="6.67435">
        <ele>1750</ele>
        <time>2022-07-16T18:44:36Z</time>
      </trkpt>
      <trkpt lat="45.72168" lon="6.67433">
        <ele>1750</ele>
        <time>2022-07-16T18:44:38Z</time>
      </trkpt>
      <trkpt lat="45.72169" lon="6.67431">
        <ele>1750</ele>
        <time>2022-07-16T18:44:40Z</time>
      </trkpt>
      <trkpt lat="45.72171" lon="6.67429">
        <ele>1751</ele>
        <time>2022-07-16T18:44:43Z</time>
      </trkpt>
      <trkpt lat="45.72173" lon="6.67427">
        <ele>1751</ele>
        <time>2022-07-16T18:44:44Z</time>
      </trkpt>
      <trkpt lat="45.72175" lon="6.67427">
        <ele>1752</ele>
        <time>2022-07-16T18:44:46Z</time>
      </trkpt>
      <trkpt lat="45.72177" lon="6.67427">
        <ele>1752</ele>
        <time>2022-07-16T18:44:48Z</time>
      </trkpt>
      <trkpt lat="45.72179" lon="6.67427">
        <ele>1752</ele>
        <time>2022-07-16T18:44:50Z</time>
      </trkpt>
      <trkpt lat="45.72181" lon="6.67426">
        <ele>1753</ele>
        <time>2022-07-16T18:44:53Z</time>
      </trkpt>
      <trkpt lat="45.72183" lon="6.67426">
        <ele>1754</ele>
        <time>2022-07-16T18:44:55Z</time>
      </trkpt>
      <trkpt lat="45.72185" lon="6.67426">
        <ele>1755</ele>
        <time>2022-07-16T18:44:57Z</time>
      </trkpt>
      <trkpt lat="45.72187" lon="6.67427">
        <ele>1755</ele>
        <time>2022-07-16T18:44:59Z</time>
      </trkpt>
      <trkpt lat="45.72189" lon="6.67428">
        <ele>1755</ele>
        <time>2022-07-16T18:45:01Z</time>
      </trkpt>
      <trkpt lat="45.72191" lon="6.67429">
        <ele>1755</ele>
        <time>2022-07-16T18:45:03Z</time>
      </trkpt>
      <trkpt lat="45.72193" lon="6.6743">
        <ele>1755</ele>
        <time>2022-07-16T18:45:05Z</time>
      </trkpt>
      <trkpt lat="45.72195" lon="6.67431">
        <ele>1756</ele>
        <time>2022-07-16T18:45:08Z</time>
      </trkpt>
      <trkpt lat="45.72197" lon="6.67431">
        <ele>1757</ele>
        <time>2022-07-16T18:45:10Z</time>
      </trkpt>
      <trkpt lat="45.72199" lon="6.67432">
        <ele>1757</ele>
        <time>2022-07-16T18:45:13Z</time>
      </trkpt>
      <trkpt lat="45.72201" lon="6.67433">
        <ele>1758</ele>
        <time>2022-07-16T18:45:15Z</time>
      </trkpt>
      <trkpt lat="45.72203" lon="6.67433">
        <ele>1758</ele>
        <time>2022-07-16T18:45:17Z</time>
      </trkpt>
      <trkpt lat="45.72206" lon="6.67434">
        <ele>1758</ele>
        <time>2022-07-16T18:45:20Z</time>
      </trkpt>
      <trkpt lat="45.72208" lon="6.67434">
        <ele>1759</ele>
        <time>2022-07-16T18:45:23Z</time>
      </trkpt>
      <trkpt lat="45.7221" lon="6.67434">
        <ele>1759</ele>
        <time>2022-07-16T18:45:26Z</time>
      </trkpt>
      <trkpt lat="45.72213" lon="6.67434">
        <ele>1760</ele>
        <time>2022-07-16T18:45:29Z</time>
      </trkpt>
      <trkpt lat="45.72215" lon="6.67434">
        <ele>1761</ele>
        <time>2022-07-16T18:45:32Z</time>
      </trkpt>
      <trkpt lat="45.72217" lon="6.67433">
        <ele>1761</ele>
        <time>2022-07-16T18:45:35Z</time>
      </trkpt>
      <trkpt lat="45.7222" lon="6.67432">
        <ele>1762</ele>
        <time>2022-07-16T18:45:38Z</time>
      </trkpt>
      <trkpt lat="45.72222" lon="6.6743">
        <ele>1762</ele>
        <time>2022-07-16T18:45:41Z</time>
      </trkpt>
      <trkpt lat="45.72224" lon="6.67429">
        <ele>1762</ele>
        <time>2022-07-16T18:45:44Z</time>
      </trkpt>
      <trkpt lat="45.72226" lon="6.67427">
        <ele>1763</ele>
        <time>2022-07-16T18:45:46Z</time>
      </trkpt>
      <trkpt lat="45.72227" lon="6.67426">
        <ele>1763</ele>
        <time>2022-07-16T18:45:48Z</time>
      </trkpt>
      <trkpt lat="45.72229" lon="6.67424">
        <ele>1763</ele>
        <time>2022-07-16T18:45:50Z</time>
      </trkpt>
      <trkpt lat="45.72231" lon="6.67423">
        <ele>1764</ele>
        <time>2022-07-16T18:45:53Z</time>
      </trkpt>
      <trkpt lat="45.72234" lon="6.67421">
        <ele>1765</ele>
        <time>2022-07-16T18:45:56Z</time>
      </trkpt>
      <trkpt lat="45.72236" lon="6.6742">
        <ele>1765</ele>
        <time>2022-07-16T18:45:59Z</time>
      </trkpt>
      <trkpt lat="45.72238" lon="6.67419">
        <ele>1765</ele>
        <time>2022-07-16T18:46:01Z</time>
      </trkpt>
      <trkpt lat="45.7224" lon="6.67417">
        <ele>1766</ele>
        <time>2022-07-16T18:46:03Z</time>
      </trkpt>
      <trkpt lat="45.72242" lon="6.67415">
        <ele>1766</ele>
        <time>2022-07-16T18:46:06Z</time>
      </trkpt>
      <trkpt lat="45.72245" lon="6.67416">
        <ele>1766</ele>
        <time>2022-07-16T18:46:09Z</time>
      </trkpt>
      <trkpt lat="45.72246" lon="6.67417">
        <ele>1766</ele>
        <time>2022-07-16T18:46:12Z</time>
      </trkpt>
      <trkpt lat="45.72248" lon="6.67419">
        <ele>1766</ele>
        <time>2022-07-16T18:46:14Z</time>
      </trkpt>
      <trkpt lat="45.7225" lon="6.67421">
        <ele>1766</ele>
        <time>2022-07-16T18:46:16Z</time>
      </trkpt>
      <trkpt lat="45.72251" lon="6.67423">
        <ele>1767</ele>
        <time>2022-07-16T18:46:23Z</time>
      </trkpt>
      <trkpt lat="45.72252" lon="6.67426">
        <ele>1767</ele>
        <time>2022-07-16T18:46:27Z</time>
      </trkpt>
      <trkpt lat="45.72252" lon="6.67429">
        <ele>1767</ele>
        <time>2022-07-16T18:46:30Z</time>
      </trkpt>
      <trkpt lat="45.72252" lon="6.67429">
        <ele>1767</ele>
        <time>2022-07-16T18:46:41Z</time>
      </trkpt>
      <trkpt lat="45.72253" lon="6.67431">
        <ele>1768</ele>
        <time>2022-07-16T18:46:46Z</time>
      </trkpt>
      <trkpt lat="45.72253" lon="6.67431">
        <ele>1767</ele>
        <time>2022-07-16T18:46:59Z</time>
      </trkpt>
      <trkpt lat="45.72255" lon="6.67432">
        <ele>1767</ele>
        <time>2022-07-16T18:47:16Z</time>
      </trkpt>
      <trkpt lat="45.72255" lon="6.67432">
        <ele>1767</ele>
        <time>2022-07-16T18:47:17Z</time>
      </trkpt>
      <trkpt lat="45.72255" lon="6.67432">
        <ele>1767</ele>
        <time>2022-07-16T18:47:33Z</time>
      </trkpt>
      <trkpt lat="45.72255" lon="6.67432">
        <ele>1768</ele>
        <time>2022-07-16T18:47:49Z</time>
      </trkpt>
      <trkpt lat="45.72255" lon="6.67432">
        <ele>1768</ele>
        <time>2022-07-16T18:48:05Z</time>
      </trkpt>
      <trkpt lat="45.72254" lon="6.67433">
        <ele>1768</ele>
        <time>2022-07-16T18:48:06Z</time>
      </trkpt>
      <trkpt lat="45.72255" lon="6.67431">
        <ele>1767</ele>
        <time>2022-07-16T18:48:12Z</time>
      </trkpt>
      <trkpt lat="45.72255" lon="6.67431">
        <ele>1767</ele>
        <time>2022-07-16T18:48:23Z</time>
      </trkpt>
      <trkpt lat="45.72255" lon="6.67431">
        <ele>1767</ele>
        <time>2022-07-16T18:48:39Z</time>
      </trkpt>
      <trkpt lat="45.72255" lon="6.67431">
        <ele>1767</ele>
        <time>2022-07-16T18:48:55Z</time>
      </trkpt>
      <trkpt lat="45.72255" lon="6.67431">
        <ele>1767</ele>
        <time>2022-07-16T18:49:11Z</time>
      </trkpt>
      <trkpt lat="45.72254" lon="6.67434">
        <ele>1767</ele>
        <time>2022-07-16T18:49:15Z</time>
      </trkpt>
      <trkpt lat="45.72254" lon="6.67434">
        <ele>1766</ele>
        <time>2022-07-16T18:49:28Z</time>
      </trkpt>
      <trkpt lat="45.72254" lon="6.67434">
        <ele>1767</ele>
        <time>2022-07-16T18:49:44Z</time>
      </trkpt>
      <trkpt lat="45.72254" lon="6.67434">
        <ele>1767</ele>
        <time>2022-07-16T18:50:00Z</time>
      </trkpt>
      <trkpt lat="45.72254" lon="6.67434">
        <ele>1766</ele>
        <time>2022-07-16T18:50:16Z</time>
      </trkpt>
      <trkpt lat="45.72254" lon="6.67434">
        <ele>1766</ele>
        <time>2022-07-16T18:50:33Z</time>
      </trkpt>
      <trkpt lat="45.72254" lon="6.67434">
        <ele>1766</ele>
        <time>2022-07-16T18:50:49Z</time>
      </trkpt>
      <trkpt lat="45.72254" lon="6.67434">
        <ele>1766</ele>
        <time>2022-07-16T18:51:05Z</time>
      </trkpt>
      <trkpt lat="45.72254" lon="6.67434">
        <ele>1767</ele>
        <time>2022-07-16T18:51:21Z</time>
      </trkpt>
      <trkpt lat="45.72254" lon="6.67434">
        <ele>1766</ele>
        <time>2022-07-16T18:51:37Z</time>
      </trkpt>
      <trkpt lat="45.72254" lon="6.67434">
        <ele>1766</ele>
        <time>2022-07-16T18:51:54Z</time>
      </trkpt>
      <trkpt lat="45.72254" lon="6.67434">
        <ele>1766</ele>
        <time>2022-07-16T18:52:10Z</time>
      </trkpt>
      <trkpt lat="45.72255" lon="6.67432">
        <ele>1766</ele>
        <time>2022-07-16T18:52:26Z</time>
      </trkpt>
      <trkpt lat="45.72255" lon="6.67432">
        <ele>1766</ele>
        <time>2022-07-16T18:52:27Z</time>
      </trkpt>
      <trkpt lat="45.72255" lon="6.67432">
        <ele>1766</ele>
        <time>2022-07-16T18:52:43Z</time>
      </trkpt>
      <trkpt lat="45.72255" lon="6.67432">
        <ele>1766</ele>
        <time>2022-07-16T18:52:59Z</time>
      </trkpt>
      <trkpt lat="45.72255" lon="6.67432">
        <ele>1766</ele>
        <time>2022-07-16T18:53:15Z</time>
      </trkpt>
      <trkpt lat="45.72254" lon="6.67434">
        <ele>1766</ele>
        <time>2022-07-16T18:53:26Z</time>
      </trkpt>
      <trkpt lat="45.72254" lon="6.67434">
        <ele>1766</ele>
        <time>2022-07-16T18:53:32Z</time>
      </trkpt>
      <trkpt lat="45.72254" lon="6.67434">
        <ele>1767</ele>
        <time>2022-07-16T18:53:48Z</time>
      </trkpt>
      <trkpt lat="45.72254" lon="6.67434">
        <ele>1766</ele>
        <time>2022-07-16T18:54:04Z</time>
      </trkpt>
      <trkpt lat="45.72254" lon="6.67434">
        <ele>1766</ele>
        <time>2022-07-16T18:54:21Z</time>
      </trkpt>
      <trkpt lat="45.72254" lon="6.67434">
        <ele>1766</ele>
        <time>2022-07-16T18:54:37Z</time>
      </trkpt>
      <trkpt lat="45.72254" lon="6.67434">
        <ele>1766</ele>
        <time>2022-07-16T18:54:53Z</time>
      </trkpt>
      <trkpt lat="45.72254" lon="6.67434">
        <ele>1766</ele>
        <time>2022-07-16T18:55:09Z</time>
      </trkpt>
      <trkpt lat="45.72255" lon="6.67436">
        <ele>1766</ele>
        <time>2022-07-16T18:55:12Z</time>
      </trkpt>
      <trkpt lat="45.72253" lon="6.67434">
        <ele>1766</ele>
        <time>2022-07-16T18:55:20Z</time>
      </trkpt>
      <trkpt lat="45.72253" lon="6.67431">
        <ele>1766</ele>
        <time>2022-07-16T18:55:23Z</time>
      </trkpt>
      <trkpt lat="45.72255" lon="6.6743">
        <ele>1766</ele>
        <time>2022-07-16T18:55:36Z</time>
      </trkpt>
      <trkpt lat="45.72255" lon="6.6743">
        <ele>1766</ele>
        <time>2022-07-16T18:55:37Z</time>
      </trkpt>
      <trkpt lat="45.72255" lon="6.6743">
        <ele>1766</ele>
        <time>2022-07-16T18:55:53Z</time>
      </trkpt>
      <trkpt lat="45.72255" lon="6.6743">
        <ele>1766</ele>
        <time>2022-07-16T18:56:09Z</time>
      </trkpt>
      <trkpt lat="45.72255" lon="6.6743">
        <ele>1766</ele>
        <time>2022-07-16T18:56:25Z</time>
      </trkpt>
      <trkpt lat="45.72254" lon="6.67432">
        <ele>1766</ele>
        <time>2022-07-16T18:56:29Z</time>
      </trkpt>
      <trkpt lat="45.72254" lon="6.67432">
        <ele>1766</ele>
        <time>2022-07-16T18:56:42Z</time>
      </trkpt>
      <trkpt lat="45.72254" lon="6.67432">
        <ele>1766</ele>
        <time>2022-07-16T18:56:58Z</time>
      </trkpt>
      <trkpt lat="45.72254" lon="6.67432">
        <ele>1766</ele>
        <time>2022-07-16T18:57:14Z</time>
      </trkpt>
      <trkpt lat="45.72254" lon="6.67429">
        <ele>1766</ele>
        <time>2022-07-16T18:57:25Z</time>
      </trkpt>
      <trkpt lat="45.72254" lon="6.67429">
        <ele>1766</ele>
        <time>2022-07-16T18:57:31Z</time>
      </trkpt>
      <trkpt lat="45.72254" lon="6.67429">
        <ele>1766</ele>
        <time>2022-07-16T18:57:49Z</time>
      </trkpt>
      <trkpt lat="45.72254" lon="6.67429">
        <ele>1765</ele>
        <time>2022-07-16T18:58:05Z</time>
      </trkpt>
      <trkpt lat="45.72254" lon="6.67429">
        <ele>1765</ele>
        <time>2022-07-16T18:58:21Z</time>
      </trkpt>
      <trkpt lat="45.72254" lon="6.67429">
        <ele>1765</ele>
        <time>2022-07-16T18:58:37Z</time>
      </trkpt>
      <trkpt lat="45.72254" lon="6.67429">
        <ele>1765</ele>
        <time>2022-07-16T18:58:53Z</time>
      </trkpt>
      <trkpt lat="45.72254" lon="6.67429">
        <ele>1765</ele>
        <time>2022-07-16T18:59:09Z</time>
      </trkpt>
      <trkpt lat="45.72254" lon="6.67429">
        <ele>1764</ele>
        <time>2022-07-16T18:59:25Z</time>
      </trkpt>
      <trkpt lat="45.72254" lon="6.67429">
        <ele>1765</ele>
        <time>2022-07-16T18:59:41Z</time>
      </trkpt>
      <trkpt lat="45.72254" lon="6.67429">
        <ele>1764</ele>
        <time>2022-07-16T18:59:57Z</time>
      </trkpt>
      <trkpt lat="45.72254" lon="6.67429">
        <ele>1764</ele>
        <time>2022-07-16T19:00:14Z</time>
      </trkpt>
      <trkpt lat="45.72254" lon="6.67429">
        <ele>1764</ele>
        <time>2022-07-16T19:00:30Z</time>
      </trkpt>
      <trkpt lat="45.72254" lon="6.67429">
        <ele>1764</ele>
        <time>2022-07-16T19:00:46Z</time>
      </trkpt>
      <trkpt lat="45.72253" lon="6.67428">
        <ele>1764</ele>
        <time>2022-07-16T19:00:50Z</time>
      </trkpt>
      <trkpt lat="45.72253" lon="6.67428">
        <ele>1764</ele>
        <time>2022-07-16T19:01:03Z</time>
      </trkpt>
      <trkpt lat="45.72253" lon="6.67428">
        <ele>1764</ele>
        <time>2022-07-16T19:01:19Z</time>
      </trkpt>
      <trkpt lat="45.72253" lon="6.67428">
        <ele>1764</ele>
        <time>2022-07-16T19:01:35Z</time>
      </trkpt>
      <trkpt lat="45.72254" lon="6.67429">
        <ele>1764</ele>
        <time>2022-07-16T19:01:50Z</time>
      </trkpt>
      <trkpt lat="45.72254" lon="6.67429">
        <ele>1764</ele>
        <time>2022-07-16T19:01:53Z</time>
      </trkpt>
      <trkpt lat="45.72254" lon="6.67429">
        <ele>1764</ele>
        <time>2022-07-16T19:02:10Z</time>
      </trkpt>
      <trkpt lat="45.72254" lon="6.67433">
        <ele>1764</ele>
        <time>2022-07-16T19:02:22Z</time>
      </trkpt>
      <trkpt lat="45.72254" lon="6.67435">
        <ele>1764</ele>
        <time>2022-07-16T19:02:25Z</time>
      </trkpt>
      <trkpt lat="45.72252" lon="6.67433">
        <ele>1764</ele>
        <time>2022-07-16T19:02:32Z</time>
      </trkpt>
      <trkpt lat="45.72252" lon="6.67431">
        <ele>1764</ele>
        <time>2022-07-16T19:02:35Z</time>
      </trkpt>
      <trkpt lat="45.72252" lon="6.67431">
        <ele>1764</ele>
        <time>2022-07-16T19:02:48Z</time>
      </trkpt>
      <trkpt lat="45.72254" lon="6.67429">
        <ele>1764</ele>
        <time>2022-07-16T19:02:53Z</time>
      </trkpt>
      <trkpt lat="45.72254" lon="6.67429">
        <ele>1764</ele>
        <time>2022-07-16T19:03:05Z</time>
      </trkpt>
      <trkpt lat="45.72254" lon="6.67429">
        <ele>1764</ele>
        <time>2022-07-16T19:03:21Z</time>
      </trkpt>
      <trkpt lat="45.72254" lon="6.67429">
        <ele>1764</ele>
        <time>2022-07-16T19:03:37Z</time>
      </trkpt>
      <trkpt lat="45.72254" lon="6.67429">
        <ele>1764</ele>
        <time>2022-07-16T19:03:53Z</time>
      </trkpt>
      <trkpt lat="45.72254" lon="6.67429">
        <ele>1764</ele>
        <time>2022-07-16T19:04:10Z</time>
      </trkpt>
      <trkpt lat="45.72254" lon="6.67429">
        <ele>1764</ele>
        <time>2022-07-16T19:04:26Z</time>
      </trkpt>
      <trkpt lat="45.72254" lon="6.67429">
        <ele>1764</ele>
        <time>2022-07-16T19:04:43Z</time>
      </trkpt>
      <trkpt lat="45.72254" lon="6.67429">
        <ele>1764</ele>
        <time>2022-07-16T19:04:59Z</time>
      </trkpt>
      <trkpt lat="45.72255" lon="6.67429">
        <ele>1764</ele>
        <time>2022-07-16T19:05:14Z</time>
      </trkpt>
      <trkpt lat="45.72255" lon="6.67429">
        <ele>1764</ele>
        <time>2022-07-16T19:05:17Z</time>
      </trkpt>
      <trkpt lat="45.72255" lon="6.67429">
        <ele>1764</ele>
        <time>2022-07-16T19:05:33Z</time>
      </trkpt>
      <trkpt lat="45.72255" lon="6.67429">
        <ele>1764</ele>
        <time>2022-07-16T19:05:50Z</time>
      </trkpt>
      <trkpt lat="45.72255" lon="6.67429">
        <ele>1764</ele>
        <time>2022-07-16T19:06:07Z</time>
      </trkpt>
      <trkpt lat="45.72255" lon="6.67429">
        <ele>1764</ele>
        <time>2022-07-16T19:06:23Z</time>
      </trkpt>
      <trkpt lat="45.72255" lon="6.67429">
        <ele>1764</ele>
        <time>2022-07-16T19:06:39Z</time>
      </trkpt>
      <trkpt lat="45.72255" lon="6.67429">
        <ele>1764</ele>
        <time>2022-07-16T19:06:55Z</time>
      </trkpt>
      <trkpt lat="45.72255" lon="6.67429">
        <ele>1764</ele>
        <time>2022-07-16T19:07:11Z</time>
      </trkpt>
      <trkpt lat="45.72255" lon="6.67429">
        <ele>1764</ele>
        <time>2022-07-16T19:07:27Z</time>
      </trkpt>
      <trkpt lat="45.72254" lon="6.6743">
        <ele>1764</ele>
        <time>2022-07-16T19:07:29Z</time>
      </trkpt>
      <trkpt lat="45.72254" lon="6.6743">
        <ele>1764</ele>
        <time>2022-07-16T19:07:44Z</time>
      </trkpt>
      <trkpt lat="45.72254" lon="6.67432">
        <ele>1764</ele>
        <time>2022-07-16T19:07:47Z</time>
      </trkpt>
      <trkpt lat="45.72252" lon="6.67431">
        <ele>1764</ele>
        <time>2022-07-16T19:07:54Z</time>
      </trkpt>
      <trkpt lat="45.72252" lon="6.67429">
        <ele>1764</ele>
        <time>2022-07-16T19:07:57Z</time>
      </trkpt>
      <trkpt lat="45.7225" lon="6.67426">
        <ele>1764</ele>
        <time>2022-07-16T19:08:01Z</time>
      </trkpt>
      <trkpt lat="45.7225" lon="6.67423">
        <ele>1764</ele>
        <time>2022-07-16T19:08:12Z</time>
      </trkpt>
      <trkpt lat="45.7225" lon="6.67423">
        <ele>1764</ele>
        <time>2022-07-16T19:08:14Z</time>
      </trkpt>
      <trkpt lat="45.72249" lon="6.67421">
        <ele>1764</ele>
        <time>2022-07-16T19:08:21Z</time>
      </trkpt>
      <trkpt lat="45.72249" lon="6.67421">
        <ele>1764</ele>
        <time>2022-07-16T19:08:31Z</time>
      </trkpt>
      <trkpt lat="45.72248" lon="6.67418">
        <ele>1764</ele>
        <time>2022-07-16T19:08:32Z</time>
      </trkpt>
      <trkpt lat="45.7225" lon="6.67416">
        <ele>1764</ele>
        <time>2022-07-16T19:08:35Z</time>
      </trkpt>
      <trkpt lat="45.72253" lon="6.67417">
        <ele>1764</ele>
        <time>2022-07-16T19:08:38Z</time>
      </trkpt>
      <trkpt lat="45.72254" lon="6.67418">
        <ele>1764</ele>
        <time>2022-07-16T19:08:40Z</time>
      </trkpt>
      <trkpt lat="45.72257" lon="6.67418">
        <ele>1764</ele>
        <time>2022-07-16T19:08:43Z</time>
      </trkpt>
      <trkpt lat="45.72259" lon="6.6742">
        <ele>1764</ele>
        <time>2022-07-16T19:08:47Z</time>
      </trkpt>
      <trkpt lat="45.72261" lon="6.67421">
        <ele>1764</ele>
        <time>2022-07-16T19:08:48Z</time>
      </trkpt>
      <trkpt lat="45.72263" lon="6.67423">
        <ele>1764</ele>
        <time>2022-07-16T19:08:50Z</time>
      </trkpt>
      <trkpt lat="45.72265" lon="6.67424">
        <ele>1764</ele>
        <time>2022-07-16T19:08:52Z</time>
      </trkpt>
      <trkpt lat="45.72267" lon="6.67427">
        <ele>1764</ele>
        <time>2022-07-16T19:08:54Z</time>
      </trkpt>
      <trkpt lat="45.72269" lon="6.67429">
        <ele>1764</ele>
        <time>2022-07-16T19:08:57Z</time>
      </trkpt>
      <trkpt lat="45.7227" lon="6.67432">
        <ele>1764</ele>
        <time>2022-07-16T19:08:59Z</time>
      </trkpt>
      <trkpt lat="45.72271" lon="6.67435">
        <ele>1764</ele>
        <time>2022-07-16T19:09:01Z</time>
      </trkpt>
      <trkpt lat="45.72271" lon="6.67438">
        <ele>1764</ele>
        <time>2022-07-16T19:09:03Z</time>
      </trkpt>
      <trkpt lat="45.72271" lon="6.67441">
        <ele>1764</ele>
        <time>2022-07-16T19:09:05Z</time>
      </trkpt>
      <trkpt lat="45.72271" lon="6.67444">
        <ele>1764</ele>
        <time>2022-07-16T19:09:07Z</time>
      </trkpt>
      <trkpt lat="45.72271" lon="6.67446">
        <ele>1764</ele>
        <time>2022-07-16T19:09:09Z</time>
      </trkpt>
      <trkpt lat="45.72272" lon="6.67448">
        <ele>1764</ele>
        <time>2022-07-16T19:09:11Z</time>
      </trkpt>
      <trkpt lat="45.72274" lon="6.67449">
        <ele>1764</ele>
        <time>2022-07-16T19:09:16Z</time>
      </trkpt>
      <trkpt lat="45.72276" lon="6.67449">
        <ele>1764</ele>
        <time>2022-07-16T19:09:18Z</time>
      </trkpt>
      <trkpt lat="45.72278" lon="6.67451">
        <ele>1764</ele>
        <time>2022-07-16T19:09:21Z</time>
      </trkpt>
      <trkpt lat="45.72281" lon="6.6745">
        <ele>1764</ele>
        <time>2022-07-16T19:09:25Z</time>
      </trkpt>
      <trkpt lat="45.72283" lon="6.6745">
        <ele>1770</ele>
        <time>2022-07-16T19:09:26Z</time>
      </trkpt>
      <trkpt lat="45.72285" lon="6.6745">
        <ele>1770</ele>
        <time>2022-07-16T19:09:29Z</time>
      </trkpt>
      <trkpt lat="45.72288" lon="6.6745">
        <ele>1771</ele>
        <time>2022-07-16T19:09:32Z</time>
      </trkpt>
      <trkpt lat="45.7229" lon="6.67451">
        <ele>1772</ele>
        <time>2022-07-16T19:09:34Z</time>
      </trkpt>
      <trkpt lat="45.72292" lon="6.67452">
        <ele>1772</ele>
        <time>2022-07-16T19:09:37Z</time>
      </trkpt>
      <trkpt lat="45.72294" lon="6.67454">
        <ele>1772</ele>
        <time>2022-07-16T19:09:39Z</time>
      </trkpt>
      <trkpt lat="45.72296" lon="6.67456">
        <ele>1773</ele>
        <time>2022-07-16T19:09:42Z</time>
      </trkpt>
      <trkpt lat="45.72297" lon="6.67458">
        <ele>1773</ele>
        <time>2022-07-16T19:09:44Z</time>
      </trkpt>
      <trkpt lat="45.72298" lon="6.6746">
        <ele>1773</ele>
        <time>2022-07-16T19:09:46Z</time>
      </trkpt>
      <trkpt lat="45.72299" lon="6.67463">
        <ele>1773</ele>
        <time>2022-07-16T19:09:48Z</time>
      </trkpt>
      <trkpt lat="45.72299" lon="6.67466">
        <ele>1773</ele>
        <time>2022-07-16T19:09:50Z</time>
      </trkpt>
      <trkpt lat="45.72299" lon="6.67469">
        <ele>1773</ele>
        <time>2022-07-16T19:09:53Z</time>
      </trkpt>
      <trkpt lat="45.723" lon="6.67473">
        <ele>1775</ele>
        <time>2022-07-16T19:09:56Z</time>
      </trkpt>
      <trkpt lat="45.72301" lon="6.67475">
        <ele>1775</ele>
        <time>2022-07-16T19:09:58Z</time>
      </trkpt>
      <trkpt lat="45.72302" lon="6.67478">
        <ele>1776</ele>
        <time>2022-07-16T19:10:00Z</time>
      </trkpt>
      <trkpt lat="45.72303" lon="6.6748">
        <ele>1776</ele>
        <time>2022-07-16T19:10:02Z</time>
      </trkpt>
      <trkpt lat="45.72305" lon="6.67482">
        <ele>1776</ele>
        <time>2022-07-16T19:10:05Z</time>
      </trkpt>
      <trkpt lat="45.72307" lon="6.67483">
        <ele>1776</ele>
        <time>2022-07-16T19:10:08Z</time>
      </trkpt>
      <trkpt lat="45.72309" lon="6.67486">
        <ele>1777</ele>
        <time>2022-07-16T19:10:10Z</time>
      </trkpt>
      <trkpt lat="45.72311" lon="6.67489">
        <ele>1777</ele>
        <time>2022-07-16T19:10:13Z</time>
      </trkpt>
      <trkpt lat="45.72312" lon="6.67491">
        <ele>1777</ele>
        <time>2022-07-16T19:10:16Z</time>
      </trkpt>
      <trkpt lat="45.72314" lon="6.67493">
        <ele>1777</ele>
        <time>2022-07-16T19:10:18Z</time>
      </trkpt>
      <trkpt lat="45.72316" lon="6.67495">
        <ele>1777</ele>
        <time>2022-07-16T19:10:22Z</time>
      </trkpt>
      <trkpt lat="45.72316" lon="6.67497">
        <ele>1778</ele>
        <time>2022-07-16T19:10:23Z</time>
      </trkpt>
      <trkpt lat="45.72318" lon="6.67499">
        <ele>1778</ele>
        <time>2022-07-16T19:10:26Z</time>
      </trkpt>
      <trkpt lat="45.72319" lon="6.67502">
        <ele>1778</ele>
        <time>2022-07-16T19:10:28Z</time>
      </trkpt>
      <trkpt lat="45.72319" lon="6.67504">
        <ele>1780</ele>
        <time>2022-07-16T19:10:32Z</time>
      </trkpt>
      <trkpt lat="45.7232" lon="6.67507">
        <ele>1780</ele>
        <time>2022-07-16T19:10:35Z</time>
      </trkpt>
      <trkpt lat="45.7232" lon="6.6751">
        <ele>1780</ele>
        <time>2022-07-16T19:10:38Z</time>
      </trkpt>
      <trkpt lat="45.72321" lon="6.67513">
        <ele>1779</ele>
        <time>2022-07-16T19:10:41Z</time>
      </trkpt>
      <trkpt lat="45.72322" lon="6.67517">
        <ele>1780</ele>
        <time>2022-07-16T19:10:44Z</time>
      </trkpt>
      <trkpt lat="45.72323" lon="6.6752">
        <ele>1781</ele>
        <time>2022-07-16T19:10:47Z</time>
      </trkpt>
      <trkpt lat="45.72324" lon="6.67523">
        <ele>1781</ele>
        <time>2022-07-16T19:10:50Z</time>
      </trkpt>
      <trkpt lat="45.72325" lon="6.67527">
        <ele>1781</ele>
        <time>2022-07-16T19:10:53Z</time>
      </trkpt>
      <trkpt lat="45.72326" lon="6.67529">
        <ele>1782</ele>
        <time>2022-07-16T19:10:56Z</time>
      </trkpt>
      <trkpt lat="45.72326" lon="6.67532">
        <ele>1782</ele>
        <time>2022-07-16T19:10:58Z</time>
      </trkpt>
      <trkpt lat="45.72328" lon="6.67534">
        <ele>1782</ele>
        <time>2022-07-16T19:11:00Z</time>
      </trkpt>
      <trkpt lat="45.72328" lon="6.67537">
        <ele>1782</ele>
        <time>2022-07-16T19:11:03Z</time>
      </trkpt>
      <trkpt lat="45.72329" lon="6.6754">
        <ele>1782</ele>
        <time>2022-07-16T19:11:06Z</time>
      </trkpt>
      <trkpt lat="45.7233" lon="6.67543">
        <ele>1783</ele>
        <time>2022-07-16T19:11:08Z</time>
      </trkpt>
      <trkpt lat="45.72331" lon="6.67546">
        <ele>1784</ele>
        <time>2022-07-16T19:11:10Z</time>
      </trkpt>
      <trkpt lat="45.72332" lon="6.67548">
        <ele>1784</ele>
        <time>2022-07-16T19:11:13Z</time>
      </trkpt>
      <trkpt lat="45.72334" lon="6.6755">
        <ele>1784</ele>
        <time>2022-07-16T19:11:15Z</time>
      </trkpt>
      <trkpt lat="45.72335" lon="6.67552">
        <ele>1784</ele>
        <time>2022-07-16T19:11:17Z</time>
      </trkpt>
      <trkpt lat="45.72336" lon="6.67555">
        <ele>1784</ele>
        <time>2022-07-16T19:11:20Z</time>
      </trkpt>
      <trkpt lat="45.72338" lon="6.67558">
        <ele>1785</ele>
        <time>2022-07-16T19:11:23Z</time>
      </trkpt>
      <trkpt lat="45.7234" lon="6.67559">
        <ele>1785</ele>
        <time>2022-07-16T19:11:25Z</time>
      </trkpt>
      <trkpt lat="45.72341" lon="6.67562">
        <ele>1785</ele>
        <time>2022-07-16T19:11:28Z</time>
      </trkpt>
      <trkpt lat="45.72343" lon="6.67564">
        <ele>1786</ele>
        <time>2022-07-16T19:11:30Z</time>
      </trkpt>
      <trkpt lat="45.72344" lon="6.67566">
        <ele>1787</ele>
        <time>2022-07-16T19:11:32Z</time>
      </trkpt>
      <trkpt lat="45.72345" lon="6.67569">
        <ele>1787</ele>
        <time>2022-07-16T19:11:35Z</time>
      </trkpt>
      <trkpt lat="45.72347" lon="6.67572">
        <ele>1787</ele>
        <time>2022-07-16T19:11:38Z</time>
      </trkpt>
      <trkpt lat="45.72348" lon="6.67575">
        <ele>1787</ele>
        <time>2022-07-16T19:11:41Z</time>
      </trkpt>
      <trkpt lat="45.7235" lon="6.67578">
        <ele>1787</ele>
        <time>2022-07-16T19:11:44Z</time>
      </trkpt>
      <trkpt lat="45.72351" lon="6.67581">
        <ele>1788</ele>
        <time>2022-07-16T19:11:47Z</time>
      </trkpt>
      <trkpt lat="45.72353" lon="6.67583">
        <ele>1788</ele>
        <time>2022-07-16T19:11:49Z</time>
      </trkpt>
      <trkpt lat="45.72355" lon="6.67585">
        <ele>1788</ele>
        <time>2022-07-16T19:11:51Z</time>
      </trkpt>
      <trkpt lat="45.72357" lon="6.67586">
        <ele>1788</ele>
        <time>2022-07-16T19:11:53Z</time>
      </trkpt>
      <trkpt lat="45.72358" lon="6.67588">
        <ele>1789</ele>
        <time>2022-07-16T19:11:55Z</time>
      </trkpt>
      <trkpt lat="45.7236" lon="6.67591">
        <ele>1789</ele>
        <time>2022-07-16T19:11:58Z</time>
      </trkpt>
      <trkpt lat="45.72361" lon="6.67593">
        <ele>1789</ele>
        <time>2022-07-16T19:11:59Z</time>
      </trkpt>
      <trkpt lat="45.72362" lon="6.67595">
        <ele>1789</ele>
        <time>2022-07-16T19:12:01Z</time>
      </trkpt>
      <trkpt lat="45.72364" lon="6.67597">
        <ele>1790</ele>
        <time>2022-07-16T19:12:03Z</time>
      </trkpt>
      <trkpt lat="45.72365" lon="6.67599">
        <ele>1790</ele>
        <time>2022-07-16T19:12:05Z</time>
      </trkpt>
      <trkpt lat="45.72367" lon="6.67601">
        <ele>1790</ele>
        <time>2022-07-16T19:12:07Z</time>
      </trkpt>
      <trkpt lat="45.72368" lon="6.67603">
        <ele>1790</ele>
        <time>2022-07-16T19:12:09Z</time>
      </trkpt>
      <trkpt lat="45.7237" lon="6.67605">
        <ele>1790</ele>
        <time>2022-07-16T19:12:11Z</time>
      </trkpt>
      <trkpt lat="45.72371" lon="6.67607">
        <ele>1790</ele>
        <time>2022-07-16T19:12:13Z</time>
      </trkpt>
      <trkpt lat="45.72373" lon="6.67609">
        <ele>1790</ele>
        <time>2022-07-16T19:12:16Z</time>
      </trkpt>
      <trkpt lat="45.72375" lon="6.6761">
        <ele>1791</ele>
        <time>2022-07-16T19:12:17Z</time>
      </trkpt>
      <trkpt lat="45.72376" lon="6.67612">
        <ele>1791</ele>
        <time>2022-07-16T19:12:19Z</time>
      </trkpt>
      <trkpt lat="45.72378" lon="6.67615">
        <ele>1791</ele>
        <time>2022-07-16T19:12:21Z</time>
      </trkpt>
      <trkpt lat="45.72379" lon="6.67616">
        <ele>1791</ele>
        <time>2022-07-16T19:12:23Z</time>
      </trkpt>
      <trkpt lat="45.72381" lon="6.67618">
        <ele>1792</ele>
        <time>2022-07-16T19:12:26Z</time>
      </trkpt>
      <trkpt lat="45.72383" lon="6.6762">
        <ele>1792</ele>
        <time>2022-07-16T19:12:29Z</time>
      </trkpt>
      <trkpt lat="45.72386" lon="6.67622">
        <ele>1792</ele>
        <time>2022-07-16T19:12:32Z</time>
      </trkpt>
      <trkpt lat="45.72387" lon="6.67623">
        <ele>1792</ele>
        <time>2022-07-16T19:12:35Z</time>
      </trkpt>
      <trkpt lat="45.7239" lon="6.67625">
        <ele>1793</ele>
        <time>2022-07-16T19:12:37Z</time>
      </trkpt>
      <trkpt lat="45.72392" lon="6.67626">
        <ele>1793</ele>
        <time>2022-07-16T19:12:40Z</time>
      </trkpt>
      <trkpt lat="45.72394" lon="6.67628">
        <ele>1795</ele>
        <time>2022-07-16T19:12:43Z</time>
      </trkpt>
      <trkpt lat="45.72396" lon="6.6763">
        <ele>1795</ele>
        <time>2022-07-16T19:12:45Z</time>
      </trkpt>
      <trkpt lat="45.72397" lon="6.67631">
        <ele>1795</ele>
        <time>2022-07-16T19:12:47Z</time>
      </trkpt>
      <trkpt lat="45.72399" lon="6.67633">
        <ele>1795</ele>
        <time>2022-07-16T19:12:49Z</time>
      </trkpt>
      <trkpt lat="45.724" lon="6.67635">
        <ele>1795</ele>
        <time>2022-07-16T19:12:51Z</time>
      </trkpt>
      <trkpt lat="45.72402" lon="6.67636">
        <ele>1796</ele>
        <time>2022-07-16T19:12:54Z</time>
      </trkpt>
      <trkpt lat="45.72404" lon="6.67638">
        <ele>1797</ele>
        <time>2022-07-16T19:12:57Z</time>
      </trkpt>
      <trkpt lat="45.72405" lon="6.67641">
        <ele>1797</ele>
        <time>2022-07-16T19:13:00Z</time>
      </trkpt>
      <trkpt lat="45.72406" lon="6.67643">
        <ele>1797</ele>
        <time>2022-07-16T19:13:02Z</time>
      </trkpt>
      <trkpt lat="45.72408" lon="6.67646">
        <ele>1797</ele>
        <time>2022-07-16T19:13:05Z</time>
      </trkpt>
      <trkpt lat="45.7241" lon="6.67648">
        <ele>1798</ele>
        <time>2022-07-16T19:13:08Z</time>
      </trkpt>
      <trkpt lat="45.72412" lon="6.6765">
        <ele>1798</ele>
        <time>2022-07-16T19:13:11Z</time>
      </trkpt>
      <trkpt lat="45.72415" lon="6.67651">
        <ele>1798</ele>
        <time>2022-07-16T19:13:14Z</time>
      </trkpt>
      <trkpt lat="45.72417" lon="6.67652">
        <ele>1800</ele>
        <time>2022-07-16T19:13:17Z</time>
      </trkpt>
      <trkpt lat="45.72419" lon="6.67654">
        <ele>1800</ele>
        <time>2022-07-16T19:13:20Z</time>
      </trkpt>
      <trkpt lat="45.72421" lon="6.67655">
        <ele>1800</ele>
        <time>2022-07-16T19:13:23Z</time>
      </trkpt>
      <trkpt lat="45.72423" lon="6.67657">
        <ele>1801</ele>
        <time>2022-07-16T19:13:26Z</time>
      </trkpt>
      <trkpt lat="45.72425" lon="6.67658">
        <ele>1802</ele>
        <time>2022-07-16T19:13:29Z</time>
      </trkpt>
      <trkpt lat="45.72427" lon="6.6766">
        <ele>1802</ele>
        <time>2022-07-16T19:13:32Z</time>
      </trkpt>
      <trkpt lat="45.72429" lon="6.67662">
        <ele>1802</ele>
        <time>2022-07-16T19:13:35Z</time>
      </trkpt>
      <trkpt lat="45.72432" lon="6.67664">
        <ele>1803</ele>
        <time>2022-07-16T19:13:38Z</time>
      </trkpt>
      <trkpt lat="45.72434" lon="6.67665">
        <ele>1804</ele>
        <time>2022-07-16T19:13:41Z</time>
      </trkpt>
      <trkpt lat="45.72436" lon="6.67666">
        <ele>1804</ele>
        <time>2022-07-16T19:13:44Z</time>
      </trkpt>
      <trkpt lat="45.72438" lon="6.67667">
        <ele>1805</ele>
        <time>2022-07-16T19:13:47Z</time>
      </trkpt>
      <trkpt lat="45.7244" lon="6.67668">
        <ele>1805</ele>
        <time>2022-07-16T19:13:51Z</time>
      </trkpt>
      <trkpt lat="45.72442" lon="6.67669">
        <ele>1806</ele>
        <time>2022-07-16T19:13:53Z</time>
      </trkpt>
      <trkpt lat="45.72445" lon="6.67669">
        <ele>1807</ele>
        <time>2022-07-16T19:13:56Z</time>
      </trkpt>
      <trkpt lat="45.72447" lon="6.67671">
        <ele>1807</ele>
        <time>2022-07-16T19:13:59Z</time>
      </trkpt>
      <trkpt lat="45.72449" lon="6.67672">
        <ele>1808</ele>
        <time>2022-07-16T19:14:02Z</time>
      </trkpt>
      <trkpt lat="45.72451" lon="6.67673">
        <ele>1808</ele>
        <time>2022-07-16T19:14:05Z</time>
      </trkpt>
      <trkpt lat="45.72453" lon="6.67674">
        <ele>1809</ele>
        <time>2022-07-16T19:14:08Z</time>
      </trkpt>
      <trkpt lat="45.72456" lon="6.67675">
        <ele>1810</ele>
        <time>2022-07-16T19:14:11Z</time>
      </trkpt>
      <trkpt lat="45.72458" lon="6.67675">
        <ele>1810</ele>
        <time>2022-07-16T19:14:14Z</time>
      </trkpt>
      <trkpt lat="45.7246" lon="6.67676">
        <ele>1811</ele>
        <time>2022-07-16T19:14:17Z</time>
      </trkpt>
      <trkpt lat="45.72462" lon="6.67676">
        <ele>1812</ele>
        <time>2022-07-16T19:14:20Z</time>
      </trkpt>
      <trkpt lat="45.72465" lon="6.67677">
        <ele>1812</ele>
        <time>2022-07-16T19:14:23Z</time>
      </trkpt>
      <trkpt lat="45.72467" lon="6.67678">
        <ele>1812</ele>
        <time>2022-07-16T19:14:26Z</time>
      </trkpt>
      <trkpt lat="45.72469" lon="6.67679">
        <ele>1813</ele>
        <time>2022-07-16T19:14:30Z</time>
      </trkpt>
      <trkpt lat="45.72472" lon="6.67678">
        <ele>1813</ele>
        <time>2022-07-16T19:14:32Z</time>
      </trkpt>
      <trkpt lat="45.72474" lon="6.67677">
        <ele>1814</ele>
        <time>2022-07-16T19:14:35Z</time>
      </trkpt>
      <trkpt lat="45.72475" lon="6.67677">
        <ele>1815</ele>
        <time>2022-07-16T19:14:38Z</time>
      </trkpt>
      <trkpt lat="45.72478" lon="6.67675">
        <ele>1815</ele>
        <time>2022-07-16T19:14:41Z</time>
      </trkpt>
      <trkpt lat="45.7248" lon="6.67675">
        <ele>1815</ele>
        <time>2022-07-16T19:14:43Z</time>
      </trkpt>
      <trkpt lat="45.72482" lon="6.67676">
        <ele>1816</ele>
        <time>2022-07-16T19:14:45Z</time>
      </trkpt>
      <trkpt lat="45.72484" lon="6.67677">
        <ele>1816</ele>
        <time>2022-07-16T19:14:48Z</time>
      </trkpt>
      <trkpt lat="45.72485" lon="6.67678">
        <ele>1817</ele>
        <time>2022-07-16T19:14:49Z</time>
      </trkpt>
      <trkpt lat="45.72487" lon="6.67679">
        <ele>1817</ele>
        <time>2022-07-16T19:14:51Z</time>
      </trkpt>
      <trkpt lat="45.72489" lon="6.67682">
        <ele>1817</ele>
        <time>2022-07-16T19:14:54Z</time>
      </trkpt>
      <trkpt lat="45.7249" lon="6.67684">
        <ele>1817</ele>
        <time>2022-07-16T19:14:56Z</time>
      </trkpt>
      <trkpt lat="45.72491" lon="6.67686">
        <ele>1817</ele>
        <time>2022-07-16T19:14:58Z</time>
      </trkpt>
      <trkpt lat="45.72493" lon="6.67689">
        <ele>1818</ele>
        <time>2022-07-16T19:15:01Z</time>
      </trkpt>
      <trkpt lat="45.72494" lon="6.67692">
        <ele>1819</ele>
        <time>2022-07-16T19:15:04Z</time>
      </trkpt>
      <trkpt lat="45.72495" lon="6.67694">
        <ele>1819</ele>
        <time>2022-07-16T19:15:07Z</time>
      </trkpt>
      <trkpt lat="45.72496" lon="6.67696">
        <ele>1819</ele>
        <time>2022-07-16T19:15:08Z</time>
      </trkpt>
      <trkpt lat="45.72498" lon="6.67699">
        <ele>1820</ele>
        <time>2022-07-16T19:15:11Z</time>
      </trkpt>
      <trkpt lat="45.725" lon="6.67701">
        <ele>1820</ele>
        <time>2022-07-16T19:15:13Z</time>
      </trkpt>
      <trkpt lat="45.72502" lon="6.67702">
        <ele>1820</ele>
        <time>2022-07-16T19:15:16Z</time>
      </trkpt>
      <trkpt lat="45.72504" lon="6.67701">
        <ele>1821</ele>
        <time>2022-07-16T19:15:19Z</time>
      </trkpt>
      <trkpt lat="45.72506" lon="6.677">
        <ele>1821</ele>
        <time>2022-07-16T19:15:22Z</time>
      </trkpt>
      <trkpt lat="45.72507" lon="6.67697">
        <ele>1822</ele>
        <time>2022-07-16T19:15:26Z</time>
      </trkpt>
      <trkpt lat="45.72508" lon="6.67694">
        <ele>1822</ele>
        <time>2022-07-16T19:15:29Z</time>
      </trkpt>
      <trkpt lat="45.72509" lon="6.67692">
        <ele>1822</ele>
        <time>2022-07-16T19:15:32Z</time>
      </trkpt>
      <trkpt lat="45.72509" lon="6.67692">
        <ele>1823</ele>
        <time>2022-07-16T19:15:43Z</time>
      </trkpt>
      <trkpt lat="45.72509" lon="6.67688">
        <ele>1823</ele>
        <time>2022-07-16T19:15:44Z</time>
      </trkpt>
      <trkpt lat="45.72509" lon="6.67688">
        <ele>1823</ele>
        <time>2022-07-16T19:16:00Z</time>
      </trkpt>
      <trkpt lat="45.7251" lon="6.67686">
        <ele>1823</ele>
        <time>2022-07-16T19:16:01Z</time>
      </trkpt>
      <trkpt lat="45.7251" lon="6.67682">
        <ele>1823</ele>
        <time>2022-07-16T19:16:04Z</time>
      </trkpt>
      <trkpt lat="45.72511" lon="6.67679">
        <ele>1824</ele>
        <time>2022-07-16T19:16:06Z</time>
      </trkpt>
      <trkpt lat="45.72511" lon="6.67676">
        <ele>1824</ele>
        <time>2022-07-16T19:16:08Z</time>
      </trkpt>
      <trkpt lat="45.72512" lon="6.67673">
        <ele>1824</ele>
        <time>2022-07-16T19:16:10Z</time>
      </trkpt>
      <trkpt lat="45.72514" lon="6.6767">
        <ele>1825</ele>
        <time>2022-07-16T19:16:12Z</time>
      </trkpt>
      <trkpt lat="45.72516" lon="6.67669">
        <ele>1825</ele>
        <time>2022-07-16T19:16:14Z</time>
      </trkpt>
      <trkpt lat="45.72518" lon="6.67669">
        <ele>1825</ele>
        <time>2022-07-16T19:16:16Z</time>
      </trkpt>
      <trkpt lat="45.72519" lon="6.67671">
        <ele>1826</ele>
        <time>2022-07-16T19:16:18Z</time>
      </trkpt>
      <trkpt lat="45.7252" lon="6.67675">
        <ele>1826</ele>
        <time>2022-07-16T19:16:21Z</time>
      </trkpt>
      <trkpt lat="45.7252" lon="6.67679">
        <ele>1826</ele>
        <time>2022-07-16T19:16:24Z</time>
      </trkpt>
      <trkpt lat="45.72521" lon="6.67681">
        <ele>1826</ele>
        <time>2022-07-16T19:16:26Z</time>
      </trkpt>
      <trkpt lat="45.72522" lon="6.67683">
        <ele>1826</ele>
        <time>2022-07-16T19:16:28Z</time>
      </trkpt>
      <trkpt lat="45.72524" lon="6.67686">
        <ele>1828</ele>
        <time>2022-07-16T19:16:31Z</time>
      </trkpt>
      <trkpt lat="45.72525" lon="6.67689">
        <ele>1828</ele>
        <time>2022-07-16T19:16:34Z</time>
      </trkpt>
      <trkpt lat="45.72527" lon="6.67689">
        <ele>1829</ele>
        <time>2022-07-16T19:16:37Z</time>
      </trkpt>
      <trkpt lat="45.72529" lon="6.67689">
        <ele>1829</ele>
        <time>2022-07-16T19:16:39Z</time>
      </trkpt>
      <trkpt lat="45.72531" lon="6.67689">
        <ele>1829</ele>
        <time>2022-07-16T19:16:42Z</time>
      </trkpt>
      <trkpt lat="45.72533" lon="6.67688">
        <ele>1831</ele>
        <time>2022-07-16T19:16:44Z</time>
      </trkpt>
      <trkpt lat="45.72536" lon="6.67687">
        <ele>1831</ele>
        <time>2022-07-16T19:16:47Z</time>
      </trkpt>
      <trkpt lat="45.72538" lon="6.67688">
        <ele>1831</ele>
        <time>2022-07-16T19:16:50Z</time>
      </trkpt>
      <trkpt lat="45.7254" lon="6.67687">
        <ele>1832</ele>
        <time>2022-07-16T19:16:53Z</time>
      </trkpt>
      <trkpt lat="45.72543" lon="6.67687">
        <ele>1833</ele>
        <time>2022-07-16T19:16:56Z</time>
      </trkpt>
      <trkpt lat="45.72545" lon="6.67687">
        <ele>1834</ele>
        <time>2022-07-16T19:17:01Z</time>
      </trkpt>
      <trkpt lat="45.72547" lon="6.67689">
        <ele>1834</ele>
        <time>2022-07-16T19:17:04Z</time>
      </trkpt>
      <trkpt lat="45.72547" lon="6.67691">
        <ele>1836</ele>
        <time>2022-07-16T19:17:07Z</time>
      </trkpt>
      <trkpt lat="45.72549" lon="6.67694">
        <ele>1836</ele>
        <time>2022-07-16T19:17:11Z</time>
      </trkpt>
      <trkpt lat="45.7255" lon="6.67695">
        <ele>1837</ele>
        <time>2022-07-16T19:17:14Z</time>
      </trkpt>
      <trkpt lat="45.72551" lon="6.67698">
        <ele>1838</ele>
        <time>2022-07-16T19:17:17Z</time>
      </trkpt>
      <trkpt lat="45.72551" lon="6.67701">
        <ele>1838</ele>
        <time>2022-07-16T19:17:20Z</time>
      </trkpt>
      <trkpt lat="45.72553" lon="6.67704">
        <ele>1838</ele>
        <time>2022-07-16T19:17:22Z</time>
      </trkpt>
      <trkpt lat="45.72553" lon="6.67706">
        <ele>1838</ele>
        <time>2022-07-16T19:17:24Z</time>
      </trkpt>
      <trkpt lat="45.72554" lon="6.6771">
        <ele>1840</ele>
        <time>2022-07-16T19:17:27Z</time>
      </trkpt>
      <trkpt lat="45.72555" lon="6.67712">
        <ele>1840</ele>
        <time>2022-07-16T19:17:30Z</time>
      </trkpt>
      <trkpt lat="45.72555" lon="6.67715">
        <ele>1841</ele>
        <time>2022-07-16T19:17:33Z</time>
      </trkpt>
      <trkpt lat="45.72557" lon="6.67716">
        <ele>1842</ele>
        <time>2022-07-16T19:17:39Z</time>
      </trkpt>
      <trkpt lat="45.72559" lon="6.67715">
        <ele>1843</ele>
        <time>2022-07-16T19:17:42Z</time>
      </trkpt>
      <trkpt lat="45.72561" lon="6.67713">
        <ele>1843</ele>
        <time>2022-07-16T19:17:45Z</time>
      </trkpt>
      <trkpt lat="45.72563" lon="6.67712">
        <ele>1844</ele>
        <time>2022-07-16T19:17:48Z</time>
      </trkpt>
      <trkpt lat="45.72565" lon="6.67711">
        <ele>1845</ele>
        <time>2022-07-16T19:17:51Z</time>
      </trkpt>
      <trkpt lat="45.72567" lon="6.67709">
        <ele>1846</ele>
        <time>2022-07-16T19:17:54Z</time>
      </trkpt>
      <trkpt lat="45.72569" lon="6.67707">
        <ele>1846</ele>
        <time>2022-07-16T19:17:58Z</time>
      </trkpt>
      <trkpt lat="45.72571" lon="6.67705">
        <ele>1847</ele>
        <time>2022-07-16T19:18:00Z</time>
      </trkpt>
      <trkpt lat="45.72573" lon="6.67704">
        <ele>1847</ele>
        <time>2022-07-16T19:18:03Z</time>
      </trkpt>
      <trkpt lat="45.72575" lon="6.67702">
        <ele>1847</ele>
        <time>2022-07-16T19:18:06Z</time>
      </trkpt>
      <trkpt lat="45.72578" lon="6.67701">
        <ele>1848</ele>
        <time>2022-07-16T19:18:09Z</time>
      </trkpt>
      <trkpt lat="45.7258" lon="6.67701">
        <ele>1849</ele>
        <time>2022-07-16T19:18:12Z</time>
      </trkpt>
      <trkpt lat="45.72582" lon="6.67699">
        <ele>1850</ele>
        <time>2022-07-16T19:18:17Z</time>
      </trkpt>
      <trkpt lat="45.72584" lon="6.67698">
        <ele>1850</ele>
        <time>2022-07-16T19:18:19Z</time>
      </trkpt>
      <trkpt lat="45.72586" lon="6.67697">
        <ele>1851</ele>
        <time>2022-07-16T19:18:22Z</time>
      </trkpt>
      <trkpt lat="45.72588" lon="6.67696">
        <ele>1852</ele>
        <time>2022-07-16T19:18:25Z</time>
      </trkpt>
      <trkpt lat="45.7259" lon="6.67695">
        <ele>1854</ele>
        <time>2022-07-16T19:18:29Z</time>
      </trkpt>
      <trkpt lat="45.72593" lon="6.67696">
        <ele>1854</ele>
        <time>2022-07-16T19:18:32Z</time>
      </trkpt>
      <trkpt lat="45.72594" lon="6.67697">
        <ele>1854</ele>
        <time>2022-07-16T19:18:36Z</time>
      </trkpt>
      <trkpt lat="45.72596" lon="6.67699">
        <ele>1854</ele>
        <time>2022-07-16T19:18:39Z</time>
      </trkpt>
      <trkpt lat="45.72599" lon="6.67698">
        <ele>1856</ele>
        <time>2022-07-16T19:18:42Z</time>
      </trkpt>
      <trkpt lat="45.72601" lon="6.67698">
        <ele>1856</ele>
        <time>2022-07-16T19:18:45Z</time>
      </trkpt>
      <trkpt lat="45.72603" lon="6.67699">
        <ele>1857</ele>
        <time>2022-07-16T19:18:48Z</time>
      </trkpt>
      <trkpt lat="45.72606" lon="6.67698">
        <ele>1857</ele>
        <time>2022-07-16T19:18:51Z</time>
      </trkpt>
      <trkpt lat="45.72608" lon="6.67698">
        <ele>1858</ele>
        <time>2022-07-16T19:18:55Z</time>
      </trkpt>
      <trkpt lat="45.7261" lon="6.67699">
        <ele>1858</ele>
        <time>2022-07-16T19:18:57Z</time>
      </trkpt>
      <trkpt lat="45.72612" lon="6.67701">
        <ele>1860</ele>
        <time>2022-07-16T19:19:02Z</time>
      </trkpt>
      <trkpt lat="45.72613" lon="6.67704">
        <ele>1860</ele>
        <time>2022-07-16T19:19:05Z</time>
      </trkpt>
      <trkpt lat="45.72613" lon="6.67706">
        <ele>1860</ele>
        <time>2022-07-16T19:19:07Z</time>
      </trkpt>
      <trkpt lat="45.72614" lon="6.6771">
        <ele>1861</ele>
        <time>2022-07-16T19:19:10Z</time>
      </trkpt>
      <trkpt lat="45.72614" lon="6.67713">
        <ele>1861</ele>
        <time>2022-07-16T19:19:13Z</time>
      </trkpt>
      <trkpt lat="45.72615" lon="6.67716">
        <ele>1862</ele>
        <time>2022-07-16T19:19:16Z</time>
      </trkpt>
      <trkpt lat="45.72617" lon="6.67719">
        <ele>1862</ele>
        <time>2022-07-16T19:19:19Z</time>
      </trkpt>
      <trkpt lat="45.72619" lon="6.6772">
        <ele>1863</ele>
        <time>2022-07-16T19:19:22Z</time>
      </trkpt>
      <trkpt lat="45.72622" lon="6.6772">
        <ele>1863</ele>
        <time>2022-07-16T19:19:25Z</time>
      </trkpt>
      <trkpt lat="45.72624" lon="6.6772">
        <ele>1865</ele>
        <time>2022-07-16T19:19:28Z</time>
      </trkpt>
      <trkpt lat="45.72626" lon="6.6772">
        <ele>1865</ele>
        <time>2022-07-16T19:19:31Z</time>
      </trkpt>
      <trkpt lat="45.72629" lon="6.6772">
        <ele>1865</ele>
        <time>2022-07-16T19:19:34Z</time>
      </trkpt>
      <trkpt lat="45.72631" lon="6.67719">
        <ele>1866</ele>
        <time>2022-07-16T19:19:37Z</time>
      </trkpt>
      <trkpt lat="45.72633" lon="6.67718">
        <ele>1867</ele>
        <time>2022-07-16T19:19:40Z</time>
      </trkpt>
      <trkpt lat="45.72635" lon="6.67717">
        <ele>1868</ele>
        <time>2022-07-16T19:19:43Z</time>
      </trkpt>
      <trkpt lat="45.72637" lon="6.67716">
        <ele>1868</ele>
        <time>2022-07-16T19:19:46Z</time>
      </trkpt>
      <trkpt lat="45.7264" lon="6.67716">
        <ele>1869</ele>
        <time>2022-07-16T19:19:49Z</time>
      </trkpt>
      <trkpt lat="45.72642" lon="6.67716">
        <ele>1869</ele>
        <time>2022-07-16T19:19:52Z</time>
      </trkpt>
      <trkpt lat="45.72643" lon="6.67716">
        <ele>1870</ele>
        <time>2022-07-16T19:19:54Z</time>
      </trkpt>
      <trkpt lat="45.72645" lon="6.67716">
        <ele>1870</ele>
        <time>2022-07-16T19:19:57Z</time>
      </trkpt>
      <trkpt lat="45.72647" lon="6.67716">
        <ele>1871</ele>
        <time>2022-07-16T19:20:00Z</time>
      </trkpt>
      <trkpt lat="45.72649" lon="6.67717">
        <ele>1872</ele>
        <time>2022-07-16T19:20:03Z</time>
      </trkpt>
      <trkpt lat="45.72652" lon="6.67717">
        <ele>1873</ele>
        <time>2022-07-16T19:20:06Z</time>
      </trkpt>
      <trkpt lat="45.72653" lon="6.67717">
        <ele>1873</ele>
        <time>2022-07-16T19:20:09Z</time>
      </trkpt>
      <trkpt lat="45.72655" lon="6.67718">
        <ele>1874</ele>
        <time>2022-07-16T19:20:12Z</time>
      </trkpt>
      <trkpt lat="45.72657" lon="6.67719">
        <ele>1875</ele>
        <time>2022-07-16T19:20:16Z</time>
      </trkpt>
      <trkpt lat="45.72659" lon="6.67719">
        <ele>1875</ele>
        <time>2022-07-16T19:20:19Z</time>
      </trkpt>
      <trkpt lat="45.72661" lon="6.67719">
        <ele>1875</ele>
        <time>2022-07-16T19:20:22Z</time>
      </trkpt>
      <trkpt lat="45.72663" lon="6.67719">
        <ele>1875</ele>
        <time>2022-07-16T19:20:26Z</time>
      </trkpt>
      <trkpt lat="45.72665" lon="6.6772">
        <ele>1876</ele>
        <time>2022-07-16T19:20:29Z</time>
      </trkpt>
      <trkpt lat="45.72667" lon="6.67721">
        <ele>1876</ele>
        <time>2022-07-16T19:20:32Z</time>
      </trkpt>
      <trkpt lat="45.72669" lon="6.67723">
        <ele>1877</ele>
        <time>2022-07-16T19:20:36Z</time>
      </trkpt>
      <trkpt lat="45.72671" lon="6.67723">
        <ele>1878</ele>
        <time>2022-07-16T19:20:39Z</time>
      </trkpt>
      <trkpt lat="45.72673" lon="6.67724">
        <ele>1879</ele>
        <time>2022-07-16T19:20:42Z</time>
      </trkpt>
      <trkpt lat="45.72675" lon="6.67725">
        <ele>1879</ele>
        <time>2022-07-16T19:20:45Z</time>
      </trkpt>
      <trkpt lat="45.72678" lon="6.67726">
        <ele>1879</ele>
        <time>2022-07-16T19:20:49Z</time>
      </trkpt>
      <trkpt lat="45.7268" lon="6.67727">
        <ele>1880</ele>
        <time>2022-07-16T19:20:52Z</time>
      </trkpt>
      <trkpt lat="45.72682" lon="6.67727">
        <ele>1881</ele>
        <time>2022-07-16T19:20:56Z</time>
      </trkpt>
      <trkpt lat="45.72682" lon="6.67727">
        <ele>1881</ele>
        <time>2022-07-16T19:21:07Z</time>
      </trkpt>
      <trkpt lat="45.72684" lon="6.67727">
        <ele>1881</ele>
        <time>2022-07-16T19:21:17Z</time>
      </trkpt>
      <trkpt lat="45.72686" lon="6.67727">
        <ele>1882</ele>
        <time>2022-07-16T19:21:19Z</time>
      </trkpt>
      <trkpt lat="45.72688" lon="6.67728">
        <ele>1882</ele>
        <time>2022-07-16T19:21:22Z</time>
      </trkpt>
      <trkpt lat="45.72691" lon="6.67728">
        <ele>1882</ele>
        <time>2022-07-16T19:21:25Z</time>
      </trkpt>
      <trkpt lat="45.72693" lon="6.67729">
        <ele>1882</ele>
        <time>2022-07-16T19:21:28Z</time>
      </trkpt>
      <trkpt lat="45.72696" lon="6.67729">
        <ele>1884</ele>
        <time>2022-07-16T19:21:31Z</time>
      </trkpt>
      <trkpt lat="45.72698" lon="6.67729">
        <ele>1885</ele>
        <time>2022-07-16T19:21:34Z</time>
      </trkpt>
      <trkpt lat="45.72701" lon="6.67728">
        <ele>1886</ele>
        <time>2022-07-16T19:21:37Z</time>
      </trkpt>
      <trkpt lat="45.72703" lon="6.67726">
        <ele>1886</ele>
        <time>2022-07-16T19:21:40Z</time>
      </trkpt>
      <trkpt lat="45.72705" lon="6.67726">
        <ele>1887</ele>
        <time>2022-07-16T19:21:43Z</time>
      </trkpt>
      <trkpt lat="45.72708" lon="6.67725">
        <ele>1887</ele>
        <time>2022-07-16T19:21:46Z</time>
      </trkpt>
      <trkpt lat="45.7271" lon="6.67723">
        <ele>1889</ele>
        <time>2022-07-16T19:21:49Z</time>
      </trkpt>
      <trkpt lat="45.72711" lon="6.67722">
        <ele>1889</ele>
        <time>2022-07-16T19:21:51Z</time>
      </trkpt>
      <trkpt lat="45.72713" lon="6.67721">
        <ele>1889</ele>
        <time>2022-07-16T19:21:53Z</time>
      </trkpt>
      <trkpt lat="45.72714" lon="6.67719">
        <ele>1889</ele>
        <time>2022-07-16T19:21:55Z</time>
      </trkpt>
      <trkpt lat="45.72716" lon="6.67716">
        <ele>1889</ele>
        <time>2022-07-16T19:21:57Z</time>
      </trkpt>
      <trkpt lat="45.72717" lon="6.67713">
        <ele>1890</ele>
        <time>2022-07-16T19:22:00Z</time>
      </trkpt>
      <trkpt lat="45.72718" lon="6.67711">
        <ele>1891</ele>
        <time>2022-07-16T19:22:03Z</time>
      </trkpt>
      <trkpt lat="45.7272" lon="6.67708">
        <ele>1892</ele>
        <time>2022-07-16T19:22:06Z</time>
      </trkpt>
      <trkpt lat="45.72722" lon="6.67709">
        <ele>1892</ele>
        <time>2022-07-16T19:22:09Z</time>
      </trkpt>
      <trkpt lat="45.72724" lon="6.67711">
        <ele>1893</ele>
        <time>2022-07-16T19:22:13Z</time>
      </trkpt>
      <trkpt lat="45.72726" lon="6.67711">
        <ele>1894</ele>
        <time>2022-07-16T19:22:16Z</time>
      </trkpt>
      <trkpt lat="45.72728" lon="6.67709">
        <ele>1895</ele>
        <time>2022-07-16T19:22:19Z</time>
      </trkpt>
      <trkpt lat="45.7273" lon="6.67708">
        <ele>1895</ele>
        <time>2022-07-16T19:22:23Z</time>
      </trkpt>
      <trkpt lat="45.72732" lon="6.67707">
        <ele>1895</ele>
        <time>2022-07-16T19:22:26Z</time>
      </trkpt>
      <trkpt lat="45.72734" lon="6.67707">
        <ele>1896</ele>
        <time>2022-07-16T19:22:29Z</time>
      </trkpt>
      <trkpt lat="45.72736" lon="6.67708">
        <ele>1897</ele>
        <time>2022-07-16T19:22:32Z</time>
      </trkpt>
      <trkpt lat="45.72739" lon="6.67708">
        <ele>1897</ele>
        <time>2022-07-16T19:22:35Z</time>
      </trkpt>
      <trkpt lat="45.72741" lon="6.67707">
        <ele>1897</ele>
        <time>2022-07-16T19:22:38Z</time>
      </trkpt>
      <trkpt lat="45.72742" lon="6.67706">
        <ele>1899</ele>
        <time>2022-07-16T19:22:41Z</time>
      </trkpt>
      <trkpt lat="45.72744" lon="6.67705">
        <ele>1899</ele>
        <time>2022-07-16T19:22:44Z</time>
      </trkpt>
      <trkpt lat="45.72746" lon="6.67703">
        <ele>1900</ele>
        <time>2022-07-16T19:22:48Z</time>
      </trkpt>
      <trkpt lat="45.72747" lon="6.677">
        <ele>1901</ele>
        <time>2022-07-16T19:22:51Z</time>
      </trkpt>
      <trkpt lat="45.72749" lon="6.67699">
        <ele>1901</ele>
        <time>2022-07-16T19:22:54Z</time>
      </trkpt>
      <trkpt lat="45.72752" lon="6.67699">
        <ele>1902</ele>
        <time>2022-07-16T19:22:57Z</time>
      </trkpt>
      <trkpt lat="45.72754" lon="6.677">
        <ele>1902</ele>
        <time>2022-07-16T19:23:00Z</time>
      </trkpt>
      <trkpt lat="45.72756" lon="6.677">
        <ele>1903</ele>
        <time>2022-07-16T19:23:03Z</time>
      </trkpt>
      <trkpt lat="45.72758" lon="6.67702">
        <ele>1903</ele>
        <time>2022-07-16T19:23:06Z</time>
      </trkpt>
      <trkpt lat="45.7276" lon="6.67703">
        <ele>1904</ele>
        <time>2022-07-16T19:23:09Z</time>
      </trkpt>
      <trkpt lat="45.72762" lon="6.67702">
        <ele>1905</ele>
        <time>2022-07-16T19:23:15Z</time>
      </trkpt>
      <trkpt lat="45.72764" lon="6.677">
        <ele>1905</ele>
        <time>2022-07-16T19:23:18Z</time>
      </trkpt>
      <trkpt lat="45.72766" lon="6.677">
        <ele>1905</ele>
        <time>2022-07-16T19:23:21Z</time>
      </trkpt>
      <trkpt lat="45.72768" lon="6.677">
        <ele>1906</ele>
        <time>2022-07-16T19:23:23Z</time>
      </trkpt>
      <trkpt lat="45.7277" lon="6.67701">
        <ele>1907</ele>
        <time>2022-07-16T19:23:27Z</time>
      </trkpt>
      <trkpt lat="45.72772" lon="6.67701">
        <ele>1908</ele>
        <time>2022-07-16T19:23:30Z</time>
      </trkpt>
      <trkpt lat="45.72774" lon="6.677">
        <ele>1909</ele>
        <time>2022-07-16T19:23:33Z</time>
      </trkpt>
      <trkpt lat="45.72776" lon="6.67699">
        <ele>1910</ele>
        <time>2022-07-16T19:23:37Z</time>
      </trkpt>
      <trkpt lat="45.72778" lon="6.67698">
        <ele>1911</ele>
        <time>2022-07-16T19:23:40Z</time>
      </trkpt>
      <trkpt lat="45.7278" lon="6.67696">
        <ele>1912</ele>
        <time>2022-07-16T19:23:43Z</time>
      </trkpt>
      <trkpt lat="45.72781" lon="6.67694">
        <ele>1912</ele>
        <time>2022-07-16T19:23:46Z</time>
      </trkpt>
      <trkpt lat="45.72783" lon="6.67693">
        <ele>1912</ele>
        <time>2022-07-16T19:23:49Z</time>
      </trkpt>
      <trkpt lat="45.72785" lon="6.67692">
        <ele>1913</ele>
        <time>2022-07-16T19:23:52Z</time>
      </trkpt>
      <trkpt lat="45.72787" lon="6.67692">
        <ele>1915</ele>
        <time>2022-07-16T19:23:55Z</time>
      </trkpt>
      <trkpt lat="45.72789" lon="6.67692">
        <ele>1915</ele>
        <time>2022-07-16T19:23:59Z</time>
      </trkpt>
      <trkpt lat="45.7279" lon="6.67693">
        <ele>1916</ele>
        <time>2022-07-16T19:24:01Z</time>
      </trkpt>
      <trkpt lat="45.72793" lon="6.67692">
        <ele>1916</ele>
        <time>2022-07-16T19:24:04Z</time>
      </trkpt>
      <trkpt lat="45.72795" lon="6.67692">
        <ele>1916</ele>
        <time>2022-07-16T19:24:07Z</time>
      </trkpt>
      <trkpt lat="45.72797" lon="6.67693">
        <ele>1917</ele>
        <time>2022-07-16T19:24:10Z</time>
      </trkpt>
      <trkpt lat="45.72799" lon="6.67692">
        <ele>1917</ele>
        <time>2022-07-16T19:24:13Z</time>
      </trkpt>
      <trkpt lat="45.72802" lon="6.67692">
        <ele>1918</ele>
        <time>2022-07-16T19:24:16Z</time>
      </trkpt>
      <trkpt lat="45.72804" lon="6.67693">
        <ele>1919</ele>
        <time>2022-07-16T19:24:19Z</time>
      </trkpt>
      <trkpt lat="45.72806" lon="6.67694">
        <ele>1919</ele>
        <time>2022-07-16T19:24:22Z</time>
      </trkpt>
      <trkpt lat="45.72809" lon="6.67695">
        <ele>1920</ele>
        <time>2022-07-16T19:24:25Z</time>
      </trkpt>
      <trkpt lat="45.72811" lon="6.67695">
        <ele>1921</ele>
        <time>2022-07-16T19:24:28Z</time>
      </trkpt>
      <trkpt lat="45.72813" lon="6.67696">
        <ele>1922</ele>
        <time>2022-07-16T19:24:31Z</time>
      </trkpt>
      <trkpt lat="45.72815" lon="6.67697">
        <ele>1922</ele>
        <time>2022-07-16T19:24:34Z</time>
      </trkpt>
      <trkpt lat="45.72817" lon="6.67699">
        <ele>1923</ele>
        <time>2022-07-16T19:24:37Z</time>
      </trkpt>
      <trkpt lat="45.72818" lon="6.67702">
        <ele>1923</ele>
        <time>2022-07-16T19:24:40Z</time>
      </trkpt>
      <trkpt lat="45.7282" lon="6.67703">
        <ele>1924</ele>
        <time>2022-07-16T19:24:43Z</time>
      </trkpt>
      <trkpt lat="45.72823" lon="6.67702">
        <ele>1924</ele>
        <time>2022-07-16T19:24:47Z</time>
      </trkpt>
      <trkpt lat="45.72824" lon="6.67702">
        <ele>1924</ele>
        <time>2022-07-16T19:24:50Z</time>
      </trkpt>
      <trkpt lat="45.72826" lon="6.67703">
        <ele>1925</ele>
        <time>2022-07-16T19:24:53Z</time>
      </trkpt>
      <trkpt lat="45.72828" lon="6.67703">
        <ele>1925</ele>
        <time>2022-07-16T19:24:56Z</time>
      </trkpt>
      <trkpt lat="45.7283" lon="6.67703">
        <ele>1926</ele>
        <time>2022-07-16T19:24:59Z</time>
      </trkpt>
      <trkpt lat="45.72833" lon="6.67704">
        <ele>1926</ele>
        <time>2022-07-16T19:25:02Z</time>
      </trkpt>
      <trkpt lat="45.72834" lon="6.67705">
        <ele>1926</ele>
        <time>2022-07-16T19:25:04Z</time>
      </trkpt>
      <trkpt lat="45.72836" lon="6.67707">
        <ele>1928</ele>
        <time>2022-07-16T19:25:07Z</time>
      </trkpt>
      <trkpt lat="45.72837" lon="6.67706">
        <ele>1928</ele>
        <time>2022-07-16T19:25:10Z</time>
      </trkpt>
      <trkpt lat="45.7284" lon="6.67707">
        <ele>1928</ele>
        <time>2022-07-16T19:25:13Z</time>
      </trkpt>
      <trkpt lat="45.72842" lon="6.67709">
        <ele>1929</ele>
        <time>2022-07-16T19:25:16Z</time>
      </trkpt>
      <trkpt lat="45.72843" lon="6.67711">
        <ele>1930</ele>
        <time>2022-07-16T19:25:19Z</time>
      </trkpt>
      <trkpt lat="45.72845" lon="6.67713">
        <ele>1930</ele>
        <time>2022-07-16T19:25:22Z</time>
      </trkpt>
      <trkpt lat="45.72847" lon="6.67714">
        <ele>1931</ele>
        <time>2022-07-16T19:25:25Z</time>
      </trkpt>
      <trkpt lat="45.7285" lon="6.67715">
        <ele>1931</ele>
        <time>2022-07-16T19:25:28Z</time>
      </trkpt>
      <trkpt lat="45.72852" lon="6.67716">
        <ele>1932</ele>
        <time>2022-07-16T19:25:31Z</time>
      </trkpt>
      <trkpt lat="45.72855" lon="6.67716">
        <ele>1932</ele>
        <time>2022-07-16T19:25:34Z</time>
      </trkpt>
      <trkpt lat="45.72857" lon="6.67716">
        <ele>1933</ele>
        <time>2022-07-16T19:25:37Z</time>
      </trkpt>
      <trkpt lat="45.72859" lon="6.67716">
        <ele>1933</ele>
        <time>2022-07-16T19:25:40Z</time>
      </trkpt>
      <trkpt lat="45.72861" lon="6.67716">
        <ele>1934</ele>
        <time>2022-07-16T19:25:43Z</time>
      </trkpt>
      <trkpt lat="45.72863" lon="6.67714">
        <ele>1935</ele>
        <time>2022-07-16T19:25:46Z</time>
      </trkpt>
      <trkpt lat="45.72865" lon="6.67712">
        <ele>1935</ele>
        <time>2022-07-16T19:25:49Z</time>
      </trkpt>
      <trkpt lat="45.72866" lon="6.67709">
        <ele>1935</ele>
        <time>2022-07-16T19:25:52Z</time>
      </trkpt>
      <trkpt lat="45.72867" lon="6.67706">
        <ele>1937</ele>
        <time>2022-07-16T19:25:55Z</time>
      </trkpt>
      <trkpt lat="45.72869" lon="6.67705">
        <ele>1937</ele>
        <time>2022-07-16T19:25:58Z</time>
      </trkpt>
      <trkpt lat="45.72871" lon="6.67704">
        <ele>1937</ele>
        <time>2022-07-16T19:26:01Z</time>
      </trkpt>
      <trkpt lat="45.72873" lon="6.67707">
        <ele>1938</ele>
        <time>2022-07-16T19:26:04Z</time>
      </trkpt>
      <trkpt lat="45.72874" lon="6.67709">
        <ele>1938</ele>
        <time>2022-07-16T19:26:07Z</time>
      </trkpt>
      <trkpt lat="45.72877" lon="6.6771">
        <ele>1939</ele>
        <time>2022-07-16T19:26:10Z</time>
      </trkpt>
      <trkpt lat="45.72878" lon="6.67711">
        <ele>1939</ele>
        <time>2022-07-16T19:26:12Z</time>
      </trkpt>
      <trkpt lat="45.72881" lon="6.67712">
        <ele>1939</ele>
        <time>2022-07-16T19:26:15Z</time>
      </trkpt>
      <trkpt lat="45.72883" lon="6.67711">
        <ele>1940</ele>
        <time>2022-07-16T19:26:18Z</time>
      </trkpt>
      <trkpt lat="45.72885" lon="6.67709">
        <ele>1941</ele>
        <time>2022-07-16T19:26:21Z</time>
      </trkpt>
      <trkpt lat="45.72887" lon="6.67707">
        <ele>1941</ele>
        <time>2022-07-16T19:26:24Z</time>
      </trkpt>
      <trkpt lat="45.72889" lon="6.67705">
        <ele>1941</ele>
        <time>2022-07-16T19:26:27Z</time>
      </trkpt>
      <trkpt lat="45.7289" lon="6.67702">
        <ele>1942</ele>
        <time>2022-07-16T19:26:31Z</time>
      </trkpt>
      <trkpt lat="45.7289" lon="6.67699">
        <ele>1942</ele>
        <time>2022-07-16T19:26:33Z</time>
      </trkpt>
      <trkpt lat="45.72888" lon="6.67697">
        <ele>1943</ele>
        <time>2022-07-16T19:26:36Z</time>
      </trkpt>
      <trkpt lat="45.72887" lon="6.67695">
        <ele>1944</ele>
        <time>2022-07-16T19:26:38Z</time>
      </trkpt>
      <trkpt lat="45.72887" lon="6.67692">
        <ele>1944</ele>
        <time>2022-07-16T19:26:41Z</time>
      </trkpt>
      <trkpt lat="45.72886" lon="6.67688">
        <ele>1944</ele>
        <time>2022-07-16T19:26:44Z</time>
      </trkpt>
      <trkpt lat="45.72885" lon="6.67686">
        <ele>1944</ele>
        <time>2022-07-16T19:26:46Z</time>
      </trkpt>
      <trkpt lat="45.72884" lon="6.67683">
        <ele>1945</ele>
        <time>2022-07-16T19:26:48Z</time>
      </trkpt>
      <trkpt lat="45.72884" lon="6.6768">
        <ele>1946</ele>
        <time>2022-07-16T19:26:51Z</time>
      </trkpt>
      <trkpt lat="45.72883" lon="6.67676">
        <ele>1947</ele>
        <time>2022-07-16T19:26:55Z</time>
      </trkpt>
      <trkpt lat="45.72882" lon="6.67674">
        <ele>1947</ele>
        <time>2022-07-16T19:26:57Z</time>
      </trkpt>
      <trkpt lat="45.72881" lon="6.67672">
        <ele>1947</ele>
        <time>2022-07-16T19:26:59Z</time>
      </trkpt>
      <trkpt lat="45.72881" lon="6.67668">
        <ele>1948</ele>
        <time>2022-07-16T19:27:02Z</time>
      </trkpt>
      <trkpt lat="45.72883" lon="6.67666">
        <ele>1949</ele>
        <time>2022-07-16T19:27:05Z</time>
      </trkpt>
      <trkpt lat="45.72885" lon="6.67666">
        <ele>1949</ele>
        <time>2022-07-16T19:27:09Z</time>
      </trkpt>
      <trkpt lat="45.72886" lon="6.67669">
        <ele>1950</ele>
        <time>2022-07-16T19:27:12Z</time>
      </trkpt>
      <trkpt lat="45.72888" lon="6.67671">
        <ele>1950</ele>
        <time>2022-07-16T19:27:14Z</time>
      </trkpt>
      <trkpt lat="45.7289" lon="6.67672">
        <ele>1950</ele>
        <time>2022-07-16T19:27:16Z</time>
      </trkpt>
      <trkpt lat="45.72892" lon="6.67673">
        <ele>1951</ele>
        <time>2022-07-16T19:27:18Z</time>
      </trkpt>
      <trkpt lat="45.72894" lon="6.67674">
        <ele>1951</ele>
        <time>2022-07-16T19:27:20Z</time>
      </trkpt>
      <trkpt lat="45.72895" lon="6.67673">
        <ele>1951</ele>
        <time>2022-07-16T19:27:22Z</time>
      </trkpt>
      <trkpt lat="45.72897" lon="6.67671">
        <ele>1952</ele>
        <time>2022-07-16T19:27:25Z</time>
      </trkpt>
      <trkpt lat="45.72898" lon="6.67668">
        <ele>1952</ele>
        <time>2022-07-16T19:27:28Z</time>
      </trkpt>
      <trkpt lat="45.72897" lon="6.67665">
        <ele>1952</ele>
        <time>2022-07-16T19:27:31Z</time>
      </trkpt>
      <trkpt lat="45.72895" lon="6.67663">
        <ele>1952</ele>
        <time>2022-07-16T19:27:33Z</time>
      </trkpt>
      <trkpt lat="45.72894" lon="6.67661">
        <ele>1953</ele>
        <time>2022-07-16T19:27:35Z</time>
      </trkpt>
      <trkpt lat="45.72892" lon="6.67659">
        <ele>1953</ele>
        <time>2022-07-16T19:27:37Z</time>
      </trkpt>
      <trkpt lat="45.72891" lon="6.67656">
        <ele>1953</ele>
        <time>2022-07-16T19:27:39Z</time>
      </trkpt>
      <trkpt lat="45.7289" lon="6.67654">
        <ele>1953</ele>
        <time>2022-07-16T19:27:41Z</time>
      </trkpt>
      <trkpt lat="45.72889" lon="6.67651">
        <ele>1953</ele>
        <time>2022-07-16T19:27:43Z</time>
      </trkpt>
      <trkpt lat="45.72889" lon="6.67649">
        <ele>1954</ele>
        <time>2022-07-16T19:27:45Z</time>
      </trkpt>
      <trkpt lat="45.72888" lon="6.67646">
        <ele>1954</ele>
        <time>2022-07-16T19:27:47Z</time>
      </trkpt>
      <trkpt lat="45.72889" lon="6.67643">
        <ele>1954</ele>
        <time>2022-07-16T19:27:49Z</time>
      </trkpt>
      <trkpt lat="45.72889" lon="6.6764">
        <ele>1955</ele>
        <time>2022-07-16T19:27:52Z</time>
      </trkpt>
      <trkpt lat="45.72888" lon="6.67637">
        <ele>1956</ele>
        <time>2022-07-16T19:27:55Z</time>
      </trkpt>
      <trkpt lat="45.72888" lon="6.67634">
        <ele>1956</ele>
        <time>2022-07-16T19:27:57Z</time>
      </trkpt>
      <trkpt lat="45.72889" lon="6.6763">
        <ele>1956</ele>
        <time>2022-07-16T19:28:01Z</time>
      </trkpt>
      <trkpt lat="45.72889" lon="6.67627">
        <ele>1957</ele>
        <time>2022-07-16T19:28:02Z</time>
      </trkpt>
      <trkpt lat="45.72889" lon="6.67625">
        <ele>1957</ele>
        <time>2022-07-16T19:28:04Z</time>
      </trkpt>
      <trkpt lat="45.72889" lon="6.67622">
        <ele>1958</ele>
        <time>2022-07-16T19:28:07Z</time>
      </trkpt>
      <trkpt lat="45.72889" lon="6.67619">
        <ele>1959</ele>
        <time>2022-07-16T19:28:10Z</time>
      </trkpt>
      <trkpt lat="45.72888" lon="6.67616">
        <ele>1959</ele>
        <time>2022-07-16T19:28:13Z</time>
      </trkpt>
      <trkpt lat="45.72888" lon="6.67613">
        <ele>1959</ele>
        <time>2022-07-16T19:28:16Z</time>
      </trkpt>
      <trkpt lat="45.72889" lon="6.6761">
        <ele>1959</ele>
        <time>2022-07-16T19:28:19Z</time>
      </trkpt>
      <trkpt lat="45.72891" lon="6.67608">
        <ele>1960</ele>
        <time>2022-07-16T19:28:23Z</time>
      </trkpt>
      <trkpt lat="45.72893" lon="6.67609">
        <ele>1962</ele>
        <time>2022-07-16T19:28:26Z</time>
      </trkpt>
      <trkpt lat="45.72895" lon="6.6761">
        <ele>1963</ele>
        <time>2022-07-16T19:28:28Z</time>
      </trkpt>
      <trkpt lat="45.72897" lon="6.67612">
        <ele>1963</ele>
        <time>2022-07-16T19:28:31Z</time>
      </trkpt>
      <trkpt lat="45.72899" lon="6.67615">
        <ele>1963</ele>
        <time>2022-07-16T19:28:34Z</time>
      </trkpt>
      <trkpt lat="45.72899" lon="6.67618">
        <ele>1964</ele>
        <time>2022-07-16T19:28:37Z</time>
      </trkpt>
      <trkpt lat="45.72901" lon="6.67621">
        <ele>1964</ele>
        <time>2022-07-16T19:28:40Z</time>
      </trkpt>
      <trkpt lat="45.72903" lon="6.67623">
        <ele>1965</ele>
        <time>2022-07-16T19:28:42Z</time>
      </trkpt>
      <trkpt lat="45.72904" lon="6.67625">
        <ele>1965</ele>
        <time>2022-07-16T19:28:44Z</time>
      </trkpt>
      <trkpt lat="45.72905" lon="6.67627">
        <ele>1965</ele>
        <time>2022-07-16T19:28:46Z</time>
      </trkpt>
      <trkpt lat="45.72907" lon="6.67628">
        <ele>1965</ele>
        <time>2022-07-16T19:28:48Z</time>
      </trkpt>
      <trkpt lat="45.72909" lon="6.67629">
        <ele>1965</ele>
        <time>2022-07-16T19:28:51Z</time>
      </trkpt>
      <trkpt lat="45.72912" lon="6.6763">
        <ele>1966</ele>
        <time>2022-07-16T19:28:54Z</time>
      </trkpt>
      <trkpt lat="45.72914" lon="6.67631">
        <ele>1966</ele>
        <time>2022-07-16T19:28:57Z</time>
      </trkpt>
      <trkpt lat="45.72916" lon="6.6763">
        <ele>1967</ele>
        <time>2022-07-16T19:29:00Z</time>
      </trkpt>
      <trkpt lat="45.72916" lon="6.67627">
        <ele>1967</ele>
        <time>2022-07-16T19:29:03Z</time>
      </trkpt>
      <trkpt lat="45.72915" lon="6.67624">
        <ele>1967</ele>
        <time>2022-07-16T19:29:05Z</time>
      </trkpt>
      <trkpt lat="45.72915" lon="6.67622">
        <ele>1967</ele>
        <time>2022-07-16T19:29:07Z</time>
      </trkpt>
      <trkpt lat="45.72914" lon="6.67619">
        <ele>1968</ele>
        <time>2022-07-16T19:29:09Z</time>
      </trkpt>
      <trkpt lat="45.72914" lon="6.67616">
        <ele>1969</ele>
        <time>2022-07-16T19:29:11Z</time>
      </trkpt>
      <trkpt lat="45.72913" lon="6.67614">
        <ele>1970</ele>
        <time>2022-07-16T19:29:14Z</time>
      </trkpt>
      <trkpt lat="45.72911" lon="6.67611">
        <ele>1970</ele>
        <time>2022-07-16T19:29:17Z</time>
      </trkpt>
      <trkpt lat="45.72909" lon="6.67608">
        <ele>1970</ele>
        <time>2022-07-16T19:29:20Z</time>
      </trkpt>
      <trkpt lat="45.72908" lon="6.67605">
        <ele>1970</ele>
        <time>2022-07-16T19:29:23Z</time>
      </trkpt>
      <trkpt lat="45.72907" lon="6.67602">
        <ele>1971</ele>
        <time>2022-07-16T19:29:25Z</time>
      </trkpt>
      <trkpt lat="45.72906" lon="6.676">
        <ele>1971</ele>
        <time>2022-07-16T19:29:27Z</time>
      </trkpt>
      <trkpt lat="45.72905" lon="6.67598">
        <ele>1971</ele>
        <time>2022-07-16T19:29:29Z</time>
      </trkpt>
      <trkpt lat="45.72904" lon="6.67595">
        <ele>1971</ele>
        <time>2022-07-16T19:29:31Z</time>
      </trkpt>
      <trkpt lat="45.72903" lon="6.67592">
        <ele>1972</ele>
        <time>2022-07-16T19:29:34Z</time>
      </trkpt>
      <trkpt lat="45.72902" lon="6.67589">
        <ele>1972</ele>
        <time>2022-07-16T19:29:37Z</time>
      </trkpt>
      <trkpt lat="45.72901" lon="6.67586">
        <ele>1973</ele>
        <time>2022-07-16T19:29:40Z</time>
      </trkpt>
      <trkpt lat="45.72899" lon="6.67583">
        <ele>1973</ele>
        <time>2022-07-16T19:29:43Z</time>
      </trkpt>
      <trkpt lat="45.72897" lon="6.67581">
        <ele>1973</ele>
        <time>2022-07-16T19:29:45Z</time>
      </trkpt>
      <trkpt lat="45.72896" lon="6.67579">
        <ele>1974</ele>
        <time>2022-07-16T19:29:47Z</time>
      </trkpt>
      <trkpt lat="45.72895" lon="6.67576">
        <ele>1974</ele>
        <time>2022-07-16T19:29:50Z</time>
      </trkpt>
      <trkpt lat="45.72894" lon="6.67574">
        <ele>1975</ele>
        <time>2022-07-16T19:29:53Z</time>
      </trkpt>
      <trkpt lat="45.72892" lon="6.67571">
        <ele>1976</ele>
        <time>2022-07-16T19:29:56Z</time>
      </trkpt>
      <trkpt lat="45.72891" lon="6.67568">
        <ele>1976</ele>
        <time>2022-07-16T19:29:59Z</time>
      </trkpt>
      <trkpt lat="45.72889" lon="6.67566">
        <ele>1977</ele>
        <time>2022-07-16T19:30:02Z</time>
      </trkpt>
      <trkpt lat="45.72888" lon="6.67563">
        <ele>1977</ele>
        <time>2022-07-16T19:30:05Z</time>
      </trkpt>
      <trkpt lat="45.72886" lon="6.67561">
        <ele>1978</ele>
        <time>2022-07-16T19:30:07Z</time>
      </trkpt>
      <trkpt lat="45.72885" lon="6.6756">
        <ele>1979</ele>
        <time>2022-07-16T19:30:09Z</time>
      </trkpt>
      <trkpt lat="45.72883" lon="6.67558">
        <ele>1979</ele>
        <time>2022-07-16T19:30:11Z</time>
      </trkpt>
      <trkpt lat="45.72882" lon="6.67556">
        <ele>1979</ele>
        <time>2022-07-16T19:30:13Z</time>
      </trkpt>
      <trkpt lat="45.7288" lon="6.67554">
        <ele>1980</ele>
        <time>2022-07-16T19:30:15Z</time>
      </trkpt>
      <trkpt lat="45.72879" lon="6.6755">
        <ele>1980</ele>
        <time>2022-07-16T19:30:17Z</time>
      </trkpt>
      <trkpt lat="45.72878" lon="6.67547">
        <ele>1980</ele>
        <time>2022-07-16T19:30:19Z</time>
      </trkpt>
      <trkpt lat="45.72876" lon="6.67545">
        <ele>1979</ele>
        <time>2022-07-16T19:30:21Z</time>
      </trkpt>
      <trkpt lat="45.72874" lon="6.67542">
        <ele>1980</ele>
        <time>2022-07-16T19:30:23Z</time>
      </trkpt>
      <trkpt lat="45.72873" lon="6.6754">
        <ele>1980</ele>
        <time>2022-07-16T19:30:25Z</time>
      </trkpt>
      <trkpt lat="45.72871" lon="6.67539">
        <ele>1980</ele>
        <time>2022-07-16T19:30:27Z</time>
      </trkpt>
      <trkpt lat="45.72869" lon="6.67538">
        <ele>1980</ele>
        <time>2022-07-16T19:30:30Z</time>
      </trkpt>
      <trkpt lat="45.72866" lon="6.67537">
        <ele>1980</ele>
        <time>2022-07-16T19:30:33Z</time>
      </trkpt>
      <trkpt lat="45.72864" lon="6.67536">
        <ele>1981</ele>
        <time>2022-07-16T19:30:36Z</time>
      </trkpt>
      <trkpt lat="45.72862" lon="6.67534">
        <ele>1982</ele>
        <time>2022-07-16T19:30:39Z</time>
      </trkpt>
      <trkpt lat="45.7286" lon="6.67533">
        <ele>1983</ele>
        <time>2022-07-16T19:30:42Z</time>
      </trkpt>
      <trkpt lat="45.72859" lon="6.6753">
        <ele>1983</ele>
        <time>2022-07-16T19:30:46Z</time>
      </trkpt>
      <trkpt lat="45.72857" lon="6.6753">
        <ele>1984</ele>
        <time>2022-07-16T19:30:49Z</time>
      </trkpt>
      <trkpt lat="45.72855" lon="6.6753">
        <ele>1984</ele>
        <time>2022-07-16T19:30:52Z</time>
      </trkpt>
      <trkpt lat="45.72854" lon="6.67527">
        <ele>1986</ele>
        <time>2022-07-16T19:30:55Z</time>
      </trkpt>
      <trkpt lat="45.72853" lon="6.67524">
        <ele>1986</ele>
        <time>2022-07-16T19:30:59Z</time>
      </trkpt>
      <trkpt lat="45.72851" lon="6.67524">
        <ele>1986</ele>
        <time>2022-07-16T19:31:02Z</time>
      </trkpt>
      <trkpt lat="45.72849" lon="6.67523">
        <ele>1988</ele>
        <time>2022-07-16T19:31:05Z</time>
      </trkpt>
      <trkpt lat="45.72847" lon="6.67521">
        <ele>1990</ele>
        <time>2022-07-16T19:31:08Z</time>
      </trkpt>
      <trkpt lat="45.72846" lon="6.67519">
        <ele>1991</ele>
        <time>2022-07-16T19:31:11Z</time>
      </trkpt>
      <trkpt lat="45.72844" lon="6.67517">
        <ele>1991</ele>
        <time>2022-07-16T19:31:14Z</time>
      </trkpt>
      <trkpt lat="45.72842" lon="6.67516">
        <ele>1991</ele>
        <time>2022-07-16T19:31:16Z</time>
      </trkpt>
      <trkpt lat="45.72841" lon="6.67514">
        <ele>1991</ele>
        <time>2022-07-16T19:31:18Z</time>
      </trkpt>
      <trkpt lat="45.72839" lon="6.67511">
        <ele>1991</ele>
        <time>2022-07-16T19:31:21Z</time>
      </trkpt>
      <trkpt lat="45.72837" lon="6.6751">
        <ele>1992</ele>
        <time>2022-07-16T19:31:24Z</time>
      </trkpt>
      <trkpt lat="45.72835" lon="6.67509">
        <ele>1992</ele>
        <time>2022-07-16T19:31:26Z</time>
      </trkpt>
      <trkpt lat="45.72833" lon="6.67507">
        <ele>1992</ele>
        <time>2022-07-16T19:31:29Z</time>
      </trkpt>
      <trkpt lat="45.72832" lon="6.67505">
        <ele>1992</ele>
        <time>2022-07-16T19:31:31Z</time>
      </trkpt>
      <trkpt lat="45.7283" lon="6.67503">
        <ele>1992</ele>
        <time>2022-07-16T19:31:33Z</time>
      </trkpt>
      <trkpt lat="45.72829" lon="6.675">
        <ele>1992</ele>
        <time>2022-07-16T19:31:36Z</time>
      </trkpt>
      <trkpt lat="45.72831" lon="6.67498">
        <ele>1992</ele>
        <time>2022-07-16T19:31:39Z</time>
      </trkpt>
      <trkpt lat="45.72832" lon="6.67497">
        <ele>1993</ele>
        <time>2022-07-16T19:31:45Z</time>
      </trkpt>
      <trkpt lat="45.72834" lon="6.67495">
        <ele>1994</ele>
        <time>2022-07-16T19:31:51Z</time>
      </trkpt>
      <trkpt lat="45.72836" lon="6.67495">
        <ele>1995</ele>
        <time>2022-07-16T19:31:56Z</time>
      </trkpt>
      <trkpt lat="45.72838" lon="6.67494">
        <ele>1996</ele>
        <time>2022-07-16T19:32:03Z</time>
      </trkpt>
      <trkpt lat="45.72839" lon="6.67492">
        <ele>1996</ele>
        <time>2022-07-16T19:32:07Z</time>
      </trkpt>
      <trkpt lat="45.7284" lon="6.6749">
        <ele>1997</ele>
        <time>2022-07-16T19:32:13Z</time>
      </trkpt>
      <trkpt lat="45.72841" lon="6.67487">
        <ele>1997</ele>
        <time>2022-07-16T19:32:14Z</time>
      </trkpt>
      <trkpt lat="45.72841" lon="6.67483">
        <ele>1997</ele>
        <time>2022-07-16T19:32:16Z</time>
      </trkpt>
      <trkpt lat="45.72841" lon="6.6748">
        <ele>1997</ele>
        <time>2022-07-16T19:32:18Z</time>
      </trkpt>
      <trkpt lat="45.72842" lon="6.67477">
        <ele>1998</ele>
        <time>2022-07-16T19:32:20Z</time>
      </trkpt>
      <trkpt lat="45.72843" lon="6.67474">
        <ele>1999</ele>
        <time>2022-07-16T19:32:23Z</time>
      </trkpt>
      <trkpt lat="45.72844" lon="6.67471">
        <ele>1999</ele>
        <time>2022-07-16T19:32:27Z</time>
      </trkpt>
      <trkpt lat="45.72844" lon="6.67468">
        <ele>2000</ele>
        <time>2022-07-16T19:32:30Z</time>
      </trkpt>
      <trkpt lat="45.72845" lon="6.67465">
        <ele>2000</ele>
        <time>2022-07-16T19:32:33Z</time>
      </trkpt>
      <trkpt lat="45.72846" lon="6.67463">
        <ele>2001</ele>
        <time>2022-07-16T19:32:37Z</time>
      </trkpt>
      <trkpt lat="45.72847" lon="6.67461">
        <ele>2001</ele>
        <time>2022-07-16T19:32:41Z</time>
      </trkpt>
      <trkpt lat="45.72847" lon="6.67458">
        <ele>2002</ele>
        <time>2022-07-16T19:32:47Z</time>
      </trkpt>
      <trkpt lat="45.72845" lon="6.67455">
        <ele>2002</ele>
        <time>2022-07-16T19:32:49Z</time>
      </trkpt>
      <trkpt lat="45.72844" lon="6.67451">
        <ele>2002</ele>
        <time>2022-07-16T19:32:51Z</time>
      </trkpt>
      <trkpt lat="45.72844" lon="6.67448">
        <ele>2000</ele>
        <time>2022-07-16T19:32:53Z</time>
      </trkpt>
      <trkpt lat="45.72844" lon="6.67445">
        <ele>2001</ele>
        <time>2022-07-16T19:32:55Z</time>
      </trkpt>
      <trkpt lat="45.72844" lon="6.67442">
        <ele>2001</ele>
        <time>2022-07-16T19:32:58Z</time>
      </trkpt>
      <trkpt lat="45.72843" lon="6.67438">
        <ele>2001</ele>
        <time>2022-07-16T19:33:01Z</time>
      </trkpt>
      <trkpt lat="45.72843" lon="6.67435">
        <ele>2001</ele>
        <time>2022-07-16T19:33:03Z</time>
      </trkpt>
      <trkpt lat="45.72842" lon="6.67433">
        <ele>2002</ele>
        <time>2022-07-16T19:33:05Z</time>
      </trkpt>
      <trkpt lat="45.72841" lon="6.6743">
        <ele>2002</ele>
        <time>2022-07-16T19:33:07Z</time>
      </trkpt>
      <trkpt lat="45.7284" lon="6.67427">
        <ele>2002</ele>
        <time>2022-07-16T19:33:10Z</time>
      </trkpt>
      <trkpt lat="45.72839" lon="6.67425">
        <ele>2003</ele>
        <time>2022-07-16T19:33:13Z</time>
      </trkpt>
      <trkpt lat="45.72837" lon="6.67424">
        <ele>2003</ele>
        <time>2022-07-16T19:33:15Z</time>
      </trkpt>
      <trkpt lat="45.72835" lon="6.67422">
        <ele>2003</ele>
        <time>2022-07-16T19:33:17Z</time>
      </trkpt>
      <trkpt lat="45.72833" lon="6.67419">
        <ele>2003</ele>
        <time>2022-07-16T19:33:19Z</time>
      </trkpt>
      <trkpt lat="45.72832" lon="6.67417">
        <ele>2003</ele>
        <time>2022-07-16T19:33:21Z</time>
      </trkpt>
      <trkpt lat="45.7283" lon="6.67414">
        <ele>2003</ele>
        <time>2022-07-16T19:33:23Z</time>
      </trkpt>
      <trkpt lat="45.72829" lon="6.67411">
        <ele>2004</ele>
        <time>2022-07-16T19:33:25Z</time>
      </trkpt>
      <trkpt lat="45.72829" lon="6.67407">
        <ele>2005</ele>
        <time>2022-07-16T19:33:29Z</time>
      </trkpt>
      <trkpt lat="45.72828" lon="6.67404">
        <ele>2006</ele>
        <time>2022-07-16T19:33:32Z</time>
      </trkpt>
      <trkpt lat="45.72828" lon="6.67401">
        <ele>2006</ele>
        <time>2022-07-16T19:33:35Z</time>
      </trkpt>
      <trkpt lat="45.72827" lon="6.67398">
        <ele>2006</ele>
        <time>2022-07-16T19:33:37Z</time>
      </trkpt>
      <trkpt lat="45.72827" lon="6.67395">
        <ele>2006</ele>
        <time>2022-07-16T19:33:40Z</time>
      </trkpt>
      <trkpt lat="45.72827" lon="6.67392">
        <ele>2006</ele>
        <time>2022-07-16T19:33:42Z</time>
      </trkpt>
      <trkpt lat="45.72826" lon="6.67388">
        <ele>2006</ele>
        <time>2022-07-16T19:33:45Z</time>
      </trkpt>
      <trkpt lat="45.72826" lon="6.67384">
        <ele>2006</ele>
        <time>2022-07-16T19:33:48Z</time>
      </trkpt>
      <trkpt lat="45.72826" lon="6.67381">
        <ele>2007</ele>
        <time>2022-07-16T19:33:50Z</time>
      </trkpt>
      <trkpt lat="45.72827" lon="6.67379">
        <ele>2007</ele>
        <time>2022-07-16T19:33:53Z</time>
      </trkpt>
      <trkpt lat="45.72829" lon="6.67378">
        <ele>2008</ele>
        <time>2022-07-16T19:33:56Z</time>
      </trkpt>
      <trkpt lat="45.72831" lon="6.67379">
        <ele>2008</ele>
        <time>2022-07-16T19:33:59Z</time>
      </trkpt>
      <trkpt lat="45.72833" lon="6.67381">
        <ele>2009</ele>
        <time>2022-07-16T19:34:02Z</time>
      </trkpt>
      <trkpt lat="45.72835" lon="6.67383">
        <ele>2009</ele>
        <time>2022-07-16T19:34:04Z</time>
      </trkpt>
      <trkpt lat="45.72837" lon="6.67385">
        <ele>2009</ele>
        <time>2022-07-16T19:34:07Z</time>
      </trkpt>
      <trkpt lat="45.72839" lon="6.67387">
        <ele>2010</ele>
        <time>2022-07-16T19:34:10Z</time>
      </trkpt>
      <trkpt lat="45.7284" lon="6.67389">
        <ele>2010</ele>
        <time>2022-07-16T19:34:13Z</time>
      </trkpt>
      <trkpt lat="45.72842" lon="6.67391">
        <ele>2011</ele>
        <time>2022-07-16T19:34:15Z</time>
      </trkpt>
      <trkpt lat="45.72844" lon="6.67392">
        <ele>2011</ele>
        <time>2022-07-16T19:34:18Z</time>
      </trkpt>
      <trkpt lat="45.72846" lon="6.67394">
        <ele>2011</ele>
        <time>2022-07-16T19:34:21Z</time>
      </trkpt>
      <trkpt lat="45.72848" lon="6.67395">
        <ele>2012</ele>
        <time>2022-07-16T19:34:24Z</time>
      </trkpt>
      <trkpt lat="45.72849" lon="6.67393">
        <ele>2012</ele>
        <time>2022-07-16T19:34:27Z</time>
      </trkpt>
      <trkpt lat="45.7285" lon="6.6739">
        <ele>2014</ele>
        <time>2022-07-16T19:34:30Z</time>
      </trkpt>
      <trkpt lat="45.7285" lon="6.67387">
        <ele>2015</ele>
        <time>2022-07-16T19:34:33Z</time>
      </trkpt>
      <trkpt lat="45.7285" lon="6.67384">
        <ele>2016</ele>
        <time>2022-07-16T19:34:37Z</time>
      </trkpt>
      <trkpt lat="45.72849" lon="6.67381">
        <ele>2016</ele>
        <time>2022-07-16T19:34:39Z</time>
      </trkpt>
      <trkpt lat="45.72849" lon="6.67378">
        <ele>2016</ele>
        <time>2022-07-16T19:34:41Z</time>
      </trkpt>
      <trkpt lat="45.72848" lon="6.67375">
        <ele>2017</ele>
        <time>2022-07-16T19:34:45Z</time>
      </trkpt>
      <trkpt lat="45.72848" lon="6.67373">
        <ele>2017</ele>
        <time>2022-07-16T19:34:47Z</time>
      </trkpt>
      <trkpt lat="45.72847" lon="6.67369">
        <ele>2017</ele>
        <time>2022-07-16T19:34:51Z</time>
      </trkpt>
      <trkpt lat="45.72847" lon="6.67367">
        <ele>2017</ele>
        <time>2022-07-16T19:34:54Z</time>
      </trkpt>
      <trkpt lat="45.72847" lon="6.67363">
        <ele>2018</ele>
        <time>2022-07-16T19:34:57Z</time>
      </trkpt>
      <trkpt lat="45.72849" lon="6.67361">
        <ele>2019</ele>
        <time>2022-07-16T19:34:59Z</time>
      </trkpt>
      <trkpt lat="45.72849" lon="6.67357">
        <ele>2020</ele>
        <time>2022-07-16T19:35:02Z</time>
      </trkpt>
      <trkpt lat="45.7285" lon="6.67354">
        <ele>2020</ele>
        <time>2022-07-16T19:35:04Z</time>
      </trkpt>
      <trkpt lat="45.72852" lon="6.67353">
        <ele>2020</ele>
        <time>2022-07-16T19:35:07Z</time>
      </trkpt>
      <trkpt lat="45.72854" lon="6.67354">
        <ele>2021</ele>
        <time>2022-07-16T19:35:10Z</time>
      </trkpt>
      <trkpt lat="45.72855" lon="6.67351">
        <ele>2022</ele>
        <time>2022-07-16T19:35:14Z</time>
      </trkpt>
      <trkpt lat="45.72855" lon="6.67348">
        <ele>2022</ele>
        <time>2022-07-16T19:35:17Z</time>
      </trkpt>
      <trkpt lat="45.72856" lon="6.67345">
        <ele>2022</ele>
        <time>2022-07-16T19:35:20Z</time>
      </trkpt>
      <trkpt lat="45.72855" lon="6.67343">
        <ele>2023</ele>
        <time>2022-07-16T19:35:24Z</time>
      </trkpt>
      <trkpt lat="45.72853" lon="6.67341">
        <ele>2024</ele>
        <time>2022-07-16T19:35:28Z</time>
      </trkpt>
      <trkpt lat="45.72851" lon="6.67339">
        <ele>2025</ele>
        <time>2022-07-16T19:35:31Z</time>
      </trkpt>
      <trkpt lat="45.7285" lon="6.67337">
        <ele>2026</ele>
        <time>2022-07-16T19:35:34Z</time>
      </trkpt>
      <trkpt lat="45.72849" lon="6.67335">
        <ele>2026</ele>
        <time>2022-07-16T19:35:37Z</time>
      </trkpt>
      <trkpt lat="45.72846" lon="6.67334">
        <ele>2026</ele>
        <time>2022-07-16T19:35:42Z</time>
      </trkpt>
      <trkpt lat="45.72845" lon="6.67333">
        <ele>2027</ele>
        <time>2022-07-16T19:35:44Z</time>
      </trkpt>
      <trkpt lat="45.72843" lon="6.67332">
        <ele>2027</ele>
        <time>2022-07-16T19:35:47Z</time>
      </trkpt>
      <trkpt lat="45.72841" lon="6.6733">
        <ele>2027</ele>
        <time>2022-07-16T19:35:50Z</time>
      </trkpt>
      <trkpt lat="45.72839" lon="6.67327">
        <ele>2028</ele>
        <time>2022-07-16T19:35:53Z</time>
      </trkpt>
      <trkpt lat="45.72837" lon="6.67325">
        <ele>2028</ele>
        <time>2022-07-16T19:35:56Z</time>
      </trkpt>
      <trkpt lat="45.72835" lon="6.67323">
        <ele>2029</ele>
        <time>2022-07-16T19:35:59Z</time>
      </trkpt>
      <trkpt lat="45.72833" lon="6.67321">
        <ele>2030</ele>
        <time>2022-07-16T19:36:02Z</time>
      </trkpt>
      <trkpt lat="45.72833" lon="6.67317">
        <ele>2031</ele>
        <time>2022-07-16T19:36:06Z</time>
      </trkpt>
      <trkpt lat="45.72835" lon="6.67316">
        <ele>2031</ele>
        <time>2022-07-16T19:36:10Z</time>
      </trkpt>
      <trkpt lat="45.72838" lon="6.67317">
        <ele>2031</ele>
        <time>2022-07-16T19:36:13Z</time>
      </trkpt>
      <trkpt lat="45.72839" lon="6.67318">
        <ele>2032</ele>
        <time>2022-07-16T19:36:16Z</time>
      </trkpt>
      <trkpt lat="45.72842" lon="6.67317">
        <ele>2032</ele>
        <time>2022-07-16T19:36:20Z</time>
      </trkpt>
      <trkpt lat="45.72844" lon="6.67319">
        <ele>2032</ele>
        <time>2022-07-16T19:36:23Z</time>
      </trkpt>
      <trkpt lat="45.72846" lon="6.67319">
        <ele>2033</ele>
        <time>2022-07-16T19:36:26Z</time>
      </trkpt>
      <trkpt lat="45.72848" lon="6.67318">
        <ele>2033</ele>
        <time>2022-07-16T19:36:30Z</time>
      </trkpt>
      <trkpt lat="45.7285" lon="6.67316">
        <ele>2034</ele>
        <time>2022-07-16T19:36:34Z</time>
      </trkpt>
      <trkpt lat="45.72853" lon="6.67316">
        <ele>2035</ele>
        <time>2022-07-16T19:36:37Z</time>
      </trkpt>
      <trkpt lat="45.72855" lon="6.67318">
        <ele>2035</ele>
        <time>2022-07-16T19:36:40Z</time>
      </trkpt>
      <trkpt lat="45.72857" lon="6.67318">
        <ele>2035</ele>
        <time>2022-07-16T19:36:43Z</time>
      </trkpt>
      <trkpt lat="45.72856" lon="6.67315">
        <ele>2037</ele>
        <time>2022-07-16T19:36:49Z</time>
      </trkpt>
      <trkpt lat="45.72854" lon="6.67315">
        <ele>2037</ele>
        <time>2022-07-16T19:36:51Z</time>
      </trkpt>
      <trkpt lat="45.72852" lon="6.67313">
        <ele>2037</ele>
        <time>2022-07-16T19:36:53Z</time>
      </trkpt>
      <trkpt lat="45.7285" lon="6.67312">
        <ele>2037</ele>
        <time>2022-07-16T19:36:55Z</time>
      </trkpt>
      <trkpt lat="45.72848" lon="6.67309">
        <ele>2037</ele>
        <time>2022-07-16T19:36:58Z</time>
      </trkpt>
      <trkpt lat="45.72847" lon="6.67307">
        <ele>2037</ele>
        <time>2022-07-16T19:36:59Z</time>
      </trkpt>
      <trkpt lat="45.72846" lon="6.67305">
        <ele>2037</ele>
        <time>2022-07-16T19:37:01Z</time>
      </trkpt>
      <trkpt lat="45.72844" lon="6.67303">
        <ele>2037</ele>
        <time>2022-07-16T19:37:03Z</time>
      </trkpt>
      <trkpt lat="45.72842" lon="6.67301">
        <ele>2037</ele>
        <time>2022-07-16T19:37:05Z</time>
      </trkpt>
      <trkpt lat="45.72841" lon="6.67299">
        <ele>2038</ele>
        <time>2022-07-16T19:37:07Z</time>
      </trkpt>
      <trkpt lat="45.72839" lon="6.67297">
        <ele>2040</ele>
        <time>2022-07-16T19:37:09Z</time>
      </trkpt>
      <trkpt lat="45.72838" lon="6.67295">
        <ele>2040</ele>
        <time>2022-07-16T19:37:11Z</time>
      </trkpt>
      <trkpt lat="45.72837" lon="6.67292">
        <ele>2040</ele>
        <time>2022-07-16T19:37:13Z</time>
      </trkpt>
      <trkpt lat="45.72836" lon="6.6729">
        <ele>2041</ele>
        <time>2022-07-16T19:37:15Z</time>
      </trkpt>
      <trkpt lat="45.72835" lon="6.67287">
        <ele>2041</ele>
        <time>2022-07-16T19:37:18Z</time>
      </trkpt>
      <trkpt lat="45.72833" lon="6.67287">
        <ele>2042</ele>
        <time>2022-07-16T19:37:20Z</time>
      </trkpt>
      <trkpt lat="45.72831" lon="6.67285">
        <ele>2042</ele>
        <time>2022-07-16T19:37:22Z</time>
      </trkpt>
      <trkpt lat="45.72829" lon="6.67284">
        <ele>2042</ele>
        <time>2022-07-16T19:37:24Z</time>
      </trkpt>
      <trkpt lat="45.72827" lon="6.67282">
        <ele>2042</ele>
        <time>2022-07-16T19:37:26Z</time>
      </trkpt>
      <trkpt lat="45.72826" lon="6.67279">
        <ele>2042</ele>
        <time>2022-07-16T19:37:28Z</time>
      </trkpt>
      <trkpt lat="45.72826" lon="6.67276">
        <ele>2042</ele>
        <time>2022-07-16T19:37:30Z</time>
      </trkpt>
      <trkpt lat="45.72828" lon="6.67274">
        <ele>2042</ele>
        <time>2022-07-16T19:37:32Z</time>
      </trkpt>
      <trkpt lat="45.7283" lon="6.67272">
        <ele>2043</ele>
        <time>2022-07-16T19:37:34Z</time>
      </trkpt>
      <trkpt lat="45.72832" lon="6.67271">
        <ele>2043</ele>
        <time>2022-07-16T19:37:36Z</time>
      </trkpt>
      <trkpt lat="45.72834" lon="6.67271">
        <ele>2043</ele>
        <time>2022-07-16T19:37:38Z</time>
      </trkpt>
      <trkpt lat="45.72835" lon="6.67271">
        <ele>2043</ele>
        <time>2022-07-16T19:37:40Z</time>
      </trkpt>
      <trkpt lat="45.72838" lon="6.6727">
        <ele>2043</ele>
        <time>2022-07-16T19:37:42Z</time>
      </trkpt>
      <trkpt lat="45.72839" lon="6.6727">
        <ele>2044</ele>
        <time>2022-07-16T19:37:44Z</time>
      </trkpt>
      <trkpt lat="45.72842" lon="6.67269">
        <ele>2044</ele>
        <time>2022-07-16T19:37:46Z</time>
      </trkpt>
      <trkpt lat="45.72844" lon="6.6727">
        <ele>2044</ele>
        <time>2022-07-16T19:37:48Z</time>
      </trkpt>
      <trkpt lat="45.72845" lon="6.67271">
        <ele>2044</ele>
        <time>2022-07-16T19:37:50Z</time>
      </trkpt>
      <trkpt lat="45.72847" lon="6.67272">
        <ele>2044</ele>
        <time>2022-07-16T19:37:52Z</time>
      </trkpt>
      <trkpt lat="45.72849" lon="6.67272">
        <ele>2044</ele>
        <time>2022-07-16T19:37:55Z</time>
      </trkpt>
      <trkpt lat="45.72851" lon="6.67271">
        <ele>2044</ele>
        <time>2022-07-16T19:37:56Z</time>
      </trkpt>
      <trkpt lat="45.72853" lon="6.67271">
        <ele>2045</ele>
        <time>2022-07-16T19:37:58Z</time>
      </trkpt>
      <trkpt lat="45.72855" lon="6.67271">
        <ele>2046</ele>
        <time>2022-07-16T19:38:00Z</time>
      </trkpt>
      <trkpt lat="45.72857" lon="6.6727">
        <ele>2046</ele>
        <time>2022-07-16T19:38:02Z</time>
      </trkpt>
      <trkpt lat="45.72859" lon="6.67271">
        <ele>2046</ele>
        <time>2022-07-16T19:38:04Z</time>
      </trkpt>
      <trkpt lat="45.72861" lon="6.67271">
        <ele>2047</ele>
        <time>2022-07-16T19:38:06Z</time>
      </trkpt>
      <trkpt lat="45.72863" lon="6.67271">
        <ele>2047</ele>
        <time>2022-07-16T19:38:08Z</time>
      </trkpt>
      <trkpt lat="45.72866" lon="6.67271">
        <ele>2048</ele>
        <time>2022-07-16T19:38:11Z</time>
      </trkpt>
      <trkpt lat="45.72868" lon="6.67271">
        <ele>2048</ele>
        <time>2022-07-16T19:38:14Z</time>
      </trkpt>
      <trkpt lat="45.72871" lon="6.67271">
        <ele>2048</ele>
        <time>2022-07-16T19:38:17Z</time>
      </trkpt>
      <trkpt lat="45.72873" lon="6.67272">
        <ele>2049</ele>
        <time>2022-07-16T19:38:20Z</time>
      </trkpt>
      <trkpt lat="45.72875" lon="6.67272">
        <ele>2050</ele>
        <time>2022-07-16T19:38:23Z</time>
      </trkpt>
      <trkpt lat="45.72877" lon="6.67273">
        <ele>2050</ele>
        <time>2022-07-16T19:38:26Z</time>
      </trkpt>
      <trkpt lat="45.72879" lon="6.67273">
        <ele>2051</ele>
        <time>2022-07-16T19:38:29Z</time>
      </trkpt>
      <trkpt lat="45.72882" lon="6.67272">
        <ele>2051</ele>
        <time>2022-07-16T19:38:33Z</time>
      </trkpt>
      <trkpt lat="45.72883" lon="6.67272">
        <ele>2051</ele>
        <time>2022-07-16T19:38:34Z</time>
      </trkpt>
      <trkpt lat="45.72886" lon="6.67273">
        <ele>2052</ele>
        <time>2022-07-16T19:38:37Z</time>
      </trkpt>
      <trkpt lat="45.72888" lon="6.67274">
        <ele>2053</ele>
        <time>2022-07-16T19:38:40Z</time>
      </trkpt>
      <trkpt lat="45.7289" lon="6.67277">
        <ele>2053</ele>
        <time>2022-07-16T19:38:43Z</time>
      </trkpt>
      <trkpt lat="45.72892" lon="6.67278">
        <ele>2053</ele>
        <time>2022-07-16T19:38:45Z</time>
      </trkpt>
      <trkpt lat="45.72894" lon="6.6728">
        <ele>2053</ele>
        <time>2022-07-16T19:38:47Z</time>
      </trkpt>
      <trkpt lat="45.72895" lon="6.67281">
        <ele>2053</ele>
        <time>2022-07-16T19:38:49Z</time>
      </trkpt>
      <trkpt lat="45.72897" lon="6.67282">
        <ele>2054</ele>
        <time>2022-07-16T19:38:51Z</time>
      </trkpt>
      <trkpt lat="45.72899" lon="6.67284">
        <ele>2056</ele>
        <time>2022-07-16T19:38:54Z</time>
      </trkpt>
      <trkpt lat="45.72902" lon="6.67285">
        <ele>2056</ele>
        <time>2022-07-16T19:38:57Z</time>
      </trkpt>
      <trkpt lat="45.72904" lon="6.67285">
        <ele>2056</ele>
        <time>2022-07-16T19:39:00Z</time>
      </trkpt>
      <trkpt lat="45.72907" lon="6.67286">
        <ele>2057</ele>
        <time>2022-07-16T19:39:03Z</time>
      </trkpt>
      <trkpt lat="45.72909" lon="6.67287">
        <ele>2057</ele>
        <time>2022-07-16T19:39:06Z</time>
      </trkpt>
      <trkpt lat="45.72911" lon="6.67287">
        <ele>2057</ele>
        <time>2022-07-16T19:39:08Z</time>
      </trkpt>
      <trkpt lat="45.72913" lon="6.67288">
        <ele>2058</ele>
        <time>2022-07-16T19:39:11Z</time>
      </trkpt>
      <trkpt lat="45.72915" lon="6.67289">
        <ele>2058</ele>
        <time>2022-07-16T19:39:13Z</time>
      </trkpt>
      <trkpt lat="45.72917" lon="6.6729">
        <ele>2059</ele>
        <time>2022-07-16T19:39:15Z</time>
      </trkpt>
      <trkpt lat="45.72918" lon="6.67292">
        <ele>2059</ele>
        <time>2022-07-16T19:39:17Z</time>
      </trkpt>
      <trkpt lat="45.7292" lon="6.67293">
        <ele>2059</ele>
        <time>2022-07-16T19:39:21Z</time>
      </trkpt>
      <trkpt lat="45.72922" lon="6.67295">
        <ele>2060</ele>
        <time>2022-07-16T19:39:23Z</time>
      </trkpt>
      <trkpt lat="45.72924" lon="6.67296">
        <ele>2059</ele>
        <time>2022-07-16T19:39:25Z</time>
      </trkpt>
      <trkpt lat="45.72926" lon="6.67297">
        <ele>2059</ele>
        <time>2022-07-16T19:39:27Z</time>
      </trkpt>
      <trkpt lat="45.72928" lon="6.67299">
        <ele>2060</ele>
        <time>2022-07-16T19:39:30Z</time>
      </trkpt>
      <trkpt lat="45.72929" lon="6.673">
        <ele>2060</ele>
        <time>2022-07-16T19:39:31Z</time>
      </trkpt>
      <trkpt lat="45.72931" lon="6.67301">
        <ele>2059</ele>
        <time>2022-07-16T19:39:33Z</time>
      </trkpt>
      <trkpt lat="45.72933" lon="6.67301">
        <ele>2059</ele>
        <time>2022-07-16T19:39:35Z</time>
      </trkpt>
      <trkpt lat="45.72936" lon="6.673">
        <ele>2059</ele>
        <time>2022-07-16T19:39:37Z</time>
      </trkpt>
      <trkpt lat="45.72938" lon="6.673">
        <ele>2060</ele>
        <time>2022-07-16T19:39:39Z</time>
      </trkpt>
      <trkpt lat="45.7294" lon="6.67299">
        <ele>2060</ele>
        <time>2022-07-16T19:39:41Z</time>
      </trkpt>
      <trkpt lat="45.72942" lon="6.67298">
        <ele>2060</ele>
        <time>2022-07-16T19:39:43Z</time>
      </trkpt>
      <trkpt lat="45.72944" lon="6.67296">
        <ele>2060</ele>
        <time>2022-07-16T19:39:45Z</time>
      </trkpt>
      <trkpt lat="45.72946" lon="6.67294">
        <ele>2061</ele>
        <time>2022-07-16T19:39:47Z</time>
      </trkpt>
      <trkpt lat="45.72948" lon="6.67292">
        <ele>2061</ele>
        <time>2022-07-16T19:39:50Z</time>
      </trkpt>
      <trkpt lat="45.72949" lon="6.67289">
        <ele>2061</ele>
        <time>2022-07-16T19:39:51Z</time>
      </trkpt>
      <trkpt lat="45.72951" lon="6.67287">
        <ele>2061</ele>
        <time>2022-07-16T19:39:53Z</time>
      </trkpt>
      <trkpt lat="45.72953" lon="6.67285">
        <ele>2061</ele>
        <time>2022-07-16T19:39:55Z</time>
      </trkpt>
      <trkpt lat="45.72955" lon="6.67283">
        <ele>2061</ele>
        <time>2022-07-16T19:39:57Z</time>
      </trkpt>
      <trkpt lat="45.72957" lon="6.67282">
        <ele>2062</ele>
        <time>2022-07-16T19:39:59Z</time>
      </trkpt>
      <trkpt lat="45.72959" lon="6.67281">
        <ele>2062</ele>
        <time>2022-07-16T19:40:01Z</time>
      </trkpt>
      <trkpt lat="45.72961" lon="6.6728">
        <ele>2062</ele>
        <time>2022-07-16T19:40:03Z</time>
      </trkpt>
      <trkpt lat="45.72963" lon="6.67279">
        <ele>2062</ele>
        <time>2022-07-16T19:40:05Z</time>
      </trkpt>
      <trkpt lat="45.72965" lon="6.67277">
        <ele>2063</ele>
        <time>2022-07-16T19:40:08Z</time>
      </trkpt>
      <trkpt lat="45.72966" lon="6.67273">
        <ele>2063</ele>
        <time>2022-07-16T19:40:11Z</time>
      </trkpt>
      <trkpt lat="45.72966" lon="6.6727">
        <ele>2064</ele>
        <time>2022-07-16T19:40:14Z</time>
      </trkpt>
      <trkpt lat="45.72967" lon="6.67267">
        <ele>2064</ele>
        <time>2022-07-16T19:40:16Z</time>
      </trkpt>
      <trkpt lat="45.72968" lon="6.67264">
        <ele>2066</ele>
        <time>2022-07-16T19:40:18Z</time>
      </trkpt>
      <trkpt lat="45.72968" lon="6.67262">
        <ele>2066</ele>
        <time>2022-07-16T19:40:20Z</time>
      </trkpt>
      <trkpt lat="45.72969" lon="6.6726">
        <ele>2066</ele>
        <time>2022-07-16T19:40:22Z</time>
      </trkpt>
      <trkpt lat="45.72971" lon="6.67258">
        <ele>2067</ele>
        <time>2022-07-16T19:40:25Z</time>
      </trkpt>
      <trkpt lat="45.72973" lon="6.67256">
        <ele>2067</ele>
        <time>2022-07-16T19:40:28Z</time>
      </trkpt>
      <trkpt lat="45.72974" lon="6.67253">
        <ele>2067</ele>
        <time>2022-07-16T19:40:31Z</time>
      </trkpt>
      <trkpt lat="45.72976" lon="6.67251">
        <ele>2068</ele>
        <time>2022-07-16T19:40:34Z</time>
      </trkpt>
      <trkpt lat="45.72977" lon="6.67249">
        <ele>2069</ele>
        <time>2022-07-16T19:40:38Z</time>
      </trkpt>
      <trkpt lat="45.72979" lon="6.67247">
        <ele>2070</ele>
        <time>2022-07-16T19:40:42Z</time>
      </trkpt>
      <trkpt lat="45.72981" lon="6.67245">
        <ele>2071</ele>
        <time>2022-07-16T19:40:46Z</time>
      </trkpt>
      <trkpt lat="45.72982" lon="6.67243">
        <ele>2072</ele>
        <time>2022-07-16T19:40:49Z</time>
      </trkpt>
      <trkpt lat="45.72983" lon="6.67241">
        <ele>2073</ele>
        <time>2022-07-16T19:40:54Z</time>
      </trkpt>
      <trkpt lat="45.72983" lon="6.67238">
        <ele>2074</ele>
        <time>2022-07-16T19:40:58Z</time>
      </trkpt>
      <trkpt lat="45.72982" lon="6.67235">
        <ele>2075</ele>
        <time>2022-07-16T19:41:02Z</time>
      </trkpt>
      <trkpt lat="45.72981" lon="6.67232">
        <ele>2075</ele>
        <time>2022-07-16T19:41:06Z</time>
      </trkpt>
      <trkpt lat="45.72981" lon="6.67229">
        <ele>2076</ele>
        <time>2022-07-16T19:41:09Z</time>
      </trkpt>
      <trkpt lat="45.72982" lon="6.67227">
        <ele>2076</ele>
        <time>2022-07-16T19:41:11Z</time>
      </trkpt>
      <trkpt lat="45.72983" lon="6.67226">
        <ele>2076</ele>
        <time>2022-07-16T19:41:13Z</time>
      </trkpt>
      <trkpt lat="45.72985" lon="6.67224">
        <ele>2076</ele>
        <time>2022-07-16T19:41:15Z</time>
      </trkpt>
      <trkpt lat="45.72987" lon="6.67225">
        <ele>2077</ele>
        <time>2022-07-16T19:41:17Z</time>
      </trkpt>
      <trkpt lat="45.72989" lon="6.67225">
        <ele>2077</ele>
        <time>2022-07-16T19:41:19Z</time>
      </trkpt>
      <trkpt lat="45.72991" lon="6.67227">
        <ele>2077</ele>
        <time>2022-07-16T19:41:21Z</time>
      </trkpt>
      <trkpt lat="45.72992" lon="6.67228">
        <ele>2077</ele>
        <time>2022-07-16T19:41:23Z</time>
      </trkpt>
      <trkpt lat="45.72994" lon="6.67231">
        <ele>2078</ele>
        <time>2022-07-16T19:41:25Z</time>
      </trkpt>
      <trkpt lat="45.72995" lon="6.67233">
        <ele>2079</ele>
        <time>2022-07-16T19:41:27Z</time>
      </trkpt>
      <trkpt lat="45.72997" lon="6.67235">
        <ele>2079</ele>
        <time>2022-07-16T19:41:29Z</time>
      </trkpt>
      <trkpt lat="45.72998" lon="6.67237">
        <ele>2079</ele>
        <time>2022-07-16T19:41:31Z</time>
      </trkpt>
      <trkpt lat="45.73" lon="6.67239">
        <ele>2079</ele>
        <time>2022-07-16T19:41:33Z</time>
      </trkpt>
      <trkpt lat="45.73001" lon="6.67241">
        <ele>2079</ele>
        <time>2022-07-16T19:41:35Z</time>
      </trkpt>
      <trkpt lat="45.73003" lon="6.67244">
        <ele>2079</ele>
        <time>2022-07-16T19:41:37Z</time>
      </trkpt>
      <trkpt lat="45.73004" lon="6.67246">
        <ele>2079</ele>
        <time>2022-07-16T19:41:39Z</time>
      </trkpt>
      <trkpt lat="45.73005" lon="6.67249">
        <ele>2079</ele>
        <time>2022-07-16T19:41:41Z</time>
      </trkpt>
      <trkpt lat="45.73006" lon="6.67251">
        <ele>2079</ele>
        <time>2022-07-16T19:41:44Z</time>
      </trkpt>
      <trkpt lat="45.73008" lon="6.67253">
        <ele>2080</ele>
        <time>2022-07-16T19:41:45Z</time>
      </trkpt>
      <trkpt lat="45.73009" lon="6.67256">
        <ele>2080</ele>
        <time>2022-07-16T19:41:47Z</time>
      </trkpt>
      <trkpt lat="45.7301" lon="6.67258">
        <ele>2081</ele>
        <time>2022-07-16T19:41:49Z</time>
      </trkpt>
      <trkpt lat="45.73012" lon="6.6726">
        <ele>2081</ele>
        <time>2022-07-16T19:41:51Z</time>
      </trkpt>
      <trkpt lat="45.73013" lon="6.67262">
        <ele>2081</ele>
        <time>2022-07-16T19:41:53Z</time>
      </trkpt>
      <trkpt lat="45.73015" lon="6.67264">
        <ele>2081</ele>
        <time>2022-07-16T19:41:55Z</time>
      </trkpt>
      <trkpt lat="45.73016" lon="6.67266">
        <ele>2081</ele>
        <time>2022-07-16T19:41:57Z</time>
      </trkpt>
      <trkpt lat="45.73018" lon="6.67269">
        <ele>2081</ele>
        <time>2022-07-16T19:41:59Z</time>
      </trkpt>
      <trkpt lat="45.73019" lon="6.67271">
        <ele>2081</ele>
        <time>2022-07-16T19:42:01Z</time>
      </trkpt>
      <trkpt lat="45.7302" lon="6.67273">
        <ele>2082</ele>
        <time>2022-07-16T19:42:03Z</time>
      </trkpt>
      <trkpt lat="45.73022" lon="6.67275">
        <ele>2082</ele>
        <time>2022-07-16T19:42:05Z</time>
      </trkpt>
      <trkpt lat="45.73024" lon="6.67276">
        <ele>2082</ele>
        <time>2022-07-16T19:42:07Z</time>
      </trkpt>
      <trkpt lat="45.73026" lon="6.67279">
        <ele>2083</ele>
        <time>2022-07-16T19:42:10Z</time>
      </trkpt>
      <trkpt lat="45.73028" lon="6.6728">
        <ele>2083</ele>
        <time>2022-07-16T19:42:12Z</time>
      </trkpt>
      <trkpt lat="45.73029" lon="6.67282">
        <ele>2084</ele>
        <time>2022-07-16T19:42:14Z</time>
      </trkpt>
      <trkpt lat="45.73032" lon="6.67284">
        <ele>2084</ele>
        <time>2022-07-16T19:42:17Z</time>
      </trkpt>
      <trkpt lat="45.73033" lon="6.67286">
        <ele>2084</ele>
        <time>2022-07-16T19:42:19Z</time>
      </trkpt>
      <trkpt lat="45.73035" lon="6.67288">
        <ele>2084</ele>
        <time>2022-07-16T19:42:21Z</time>
      </trkpt>
      <trkpt lat="45.73036" lon="6.6729">
        <ele>2084</ele>
        <time>2022-07-16T19:42:23Z</time>
      </trkpt>
      <trkpt lat="45.73038" lon="6.67292">
        <ele>2085</ele>
        <time>2022-07-16T19:42:25Z</time>
      </trkpt>
      <trkpt lat="45.7304" lon="6.67293">
        <ele>2085</ele>
        <time>2022-07-16T19:42:27Z</time>
      </trkpt>
      <trkpt lat="45.73041" lon="6.67295">
        <ele>2085</ele>
        <time>2022-07-16T19:42:29Z</time>
      </trkpt>
      <trkpt lat="45.73043" lon="6.67296">
        <ele>2085</ele>
        <time>2022-07-16T19:42:31Z</time>
      </trkpt>
      <trkpt lat="45.73045" lon="6.67299">
        <ele>2085</ele>
        <time>2022-07-16T19:42:34Z</time>
      </trkpt>
      <trkpt lat="45.73048" lon="6.673">
        <ele>2086</ele>
        <time>2022-07-16T19:42:37Z</time>
      </trkpt>
      <trkpt lat="45.7305" lon="6.67302">
        <ele>2088</ele>
        <time>2022-07-16T19:42:39Z</time>
      </trkpt>
      <trkpt lat="45.73051" lon="6.67303">
        <ele>2087</ele>
        <time>2022-07-16T19:42:41Z</time>
      </trkpt>
      <trkpt lat="45.73053" lon="6.67304">
        <ele>2088</ele>
        <time>2022-07-16T19:42:43Z</time>
      </trkpt>
      <trkpt lat="45.73055" lon="6.67305">
        <ele>2088</ele>
        <time>2022-07-16T19:42:46Z</time>
      </trkpt>
      <trkpt lat="45.73057" lon="6.67306">
        <ele>2088</ele>
        <time>2022-07-16T19:42:47Z</time>
      </trkpt>
      <trkpt lat="45.73058" lon="6.67308">
        <ele>2088</ele>
        <time>2022-07-16T19:42:49Z</time>
      </trkpt>
      <trkpt lat="45.7306" lon="6.67309">
        <ele>2088</ele>
        <time>2022-07-16T19:42:51Z</time>
      </trkpt>
      <trkpt lat="45.73062" lon="6.6731">
        <ele>2089</ele>
        <time>2022-07-16T19:42:53Z</time>
      </trkpt>
      <trkpt lat="45.73064" lon="6.6731">
        <ele>2089</ele>
        <time>2022-07-16T19:42:55Z</time>
      </trkpt>
      <trkpt lat="45.73066" lon="6.67312">
        <ele>2089</ele>
        <time>2022-07-16T19:42:57Z</time>
      </trkpt>
      <trkpt lat="45.73067" lon="6.67313">
        <ele>2089</ele>
        <time>2022-07-16T19:42:59Z</time>
      </trkpt>
      <trkpt lat="45.73069" lon="6.67315">
        <ele>2089</ele>
        <time>2022-07-16T19:43:01Z</time>
      </trkpt>
      <trkpt lat="45.73071" lon="6.67316">
        <ele>2089</ele>
        <time>2022-07-16T19:43:03Z</time>
      </trkpt>
      <trkpt lat="45.73073" lon="6.67318">
        <ele>2089</ele>
        <time>2022-07-16T19:43:05Z</time>
      </trkpt>
      <trkpt lat="45.73075" lon="6.67319">
        <ele>2090</ele>
        <time>2022-07-16T19:43:07Z</time>
      </trkpt>
      <trkpt lat="45.73077" lon="6.6732">
        <ele>2090</ele>
        <time>2022-07-16T19:43:09Z</time>
      </trkpt>
      <trkpt lat="45.73078" lon="6.67321">
        <ele>2090</ele>
        <time>2022-07-16T19:43:11Z</time>
      </trkpt>
      <trkpt lat="45.7308" lon="6.67322">
        <ele>2090</ele>
        <time>2022-07-16T19:43:13Z</time>
      </trkpt>
      <trkpt lat="45.73082" lon="6.67324">
        <ele>2090</ele>
        <time>2022-07-16T19:43:15Z</time>
      </trkpt>
      <trkpt lat="45.73084" lon="6.67325">
        <ele>2092</ele>
        <time>2022-07-16T19:43:18Z</time>
      </trkpt>
      <trkpt lat="45.73086" lon="6.67327">
        <ele>2092</ele>
        <time>2022-07-16T19:43:19Z</time>
      </trkpt>
      <trkpt lat="45.73088" lon="6.67328">
        <ele>2092</ele>
        <time>2022-07-16T19:43:21Z</time>
      </trkpt>
      <trkpt lat="45.7309" lon="6.6733">
        <ele>2092</ele>
        <time>2022-07-16T19:43:23Z</time>
      </trkpt>
      <trkpt lat="45.73091" lon="6.67331">
        <ele>2092</ele>
        <time>2022-07-16T19:43:25Z</time>
      </trkpt>
      <trkpt lat="45.73093" lon="6.67332">
        <ele>2093</ele>
        <time>2022-07-16T19:43:27Z</time>
      </trkpt>
      <trkpt lat="45.73095" lon="6.67333">
        <ele>2093</ele>
        <time>2022-07-16T19:43:29Z</time>
      </trkpt>
      <trkpt lat="45.73097" lon="6.67334">
        <ele>2093</ele>
        <time>2022-07-16T19:43:31Z</time>
      </trkpt>
      <trkpt lat="45.73099" lon="6.67336">
        <ele>2093</ele>
        <time>2022-07-16T19:43:33Z</time>
      </trkpt>
      <trkpt lat="45.73101" lon="6.67337">
        <ele>2093</ele>
        <time>2022-07-16T19:43:35Z</time>
      </trkpt>
      <trkpt lat="45.73103" lon="6.67339">
        <ele>2093</ele>
        <time>2022-07-16T19:43:37Z</time>
      </trkpt>
      <trkpt lat="45.73105" lon="6.6734">
        <ele>2093</ele>
        <time>2022-07-16T19:43:39Z</time>
      </trkpt>
      <trkpt lat="45.73107" lon="6.67341">
        <ele>2094</ele>
        <time>2022-07-16T19:43:41Z</time>
      </trkpt>
      <trkpt lat="45.73109" lon="6.67342">
        <ele>2095</ele>
        <time>2022-07-16T19:43:43Z</time>
      </trkpt>
      <trkpt lat="45.73111" lon="6.67344">
        <ele>2095</ele>
        <time>2022-07-16T19:43:45Z</time>
      </trkpt>
      <trkpt lat="45.73112" lon="6.67345">
        <ele>2095</ele>
        <time>2022-07-16T19:43:47Z</time>
      </trkpt>
      <trkpt lat="45.73114" lon="6.67347">
        <ele>2095</ele>
        <time>2022-07-16T19:43:49Z</time>
      </trkpt>
      <trkpt lat="45.73116" lon="6.67347">
        <ele>2095</ele>
        <time>2022-07-16T19:43:51Z</time>
      </trkpt>
      <trkpt lat="45.73118" lon="6.67348">
        <ele>2095</ele>
        <time>2022-07-16T19:43:53Z</time>
      </trkpt>
      <trkpt lat="45.7312" lon="6.67349">
        <ele>2095</ele>
        <time>2022-07-16T19:43:56Z</time>
      </trkpt>
      <trkpt lat="45.73122" lon="6.6735">
        <ele>2095</ele>
        <time>2022-07-16T19:43:57Z</time>
      </trkpt>
      <trkpt lat="45.73124" lon="6.67351">
        <ele>2097</ele>
        <time>2022-07-16T19:43:59Z</time>
      </trkpt>
      <trkpt lat="45.73127" lon="6.67351">
        <ele>2097</ele>
        <time>2022-07-16T19:44:02Z</time>
      </trkpt>
      <trkpt lat="45.73129" lon="6.67352">
        <ele>2097</ele>
        <time>2022-07-16T19:44:04Z</time>
      </trkpt>
      <trkpt lat="45.73131" lon="6.67352">
        <ele>2097</ele>
        <time>2022-07-16T19:44:06Z</time>
      </trkpt>
      <trkpt lat="45.73133" lon="6.67352">
        <ele>2098</ele>
        <time>2022-07-16T19:44:08Z</time>
      </trkpt>
      <trkpt lat="45.73134" lon="6.67352">
        <ele>2098</ele>
        <time>2022-07-16T19:44:10Z</time>
      </trkpt>
      <trkpt lat="45.73137" lon="6.67352">
        <ele>2099</ele>
        <time>2022-07-16T19:44:12Z</time>
      </trkpt>
      <trkpt lat="45.73139" lon="6.67351">
        <ele>2099</ele>
        <time>2022-07-16T19:44:14Z</time>
      </trkpt>
      <trkpt lat="45.73141" lon="6.67351">
        <ele>2099</ele>
        <time>2022-07-16T19:44:16Z</time>
      </trkpt>
      <trkpt lat="45.73143" lon="6.6735">
        <ele>2099</ele>
        <time>2022-07-16T19:44:18Z</time>
      </trkpt>
      <trkpt lat="45.73145" lon="6.6735">
        <ele>2099</ele>
        <time>2022-07-16T19:44:20Z</time>
      </trkpt>
      <trkpt lat="45.73147" lon="6.67349">
        <ele>2099</ele>
        <time>2022-07-16T19:44:22Z</time>
      </trkpt>
      <trkpt lat="45.73149" lon="6.67348">
        <ele>2100</ele>
        <time>2022-07-16T19:44:24Z</time>
      </trkpt>
      <trkpt lat="45.73151" lon="6.67347">
        <ele>2100</ele>
        <time>2022-07-16T19:44:26Z</time>
      </trkpt>
      <trkpt lat="45.73154" lon="6.67346">
        <ele>2100</ele>
        <time>2022-07-16T19:44:28Z</time>
      </trkpt>
      <trkpt lat="45.73156" lon="6.67345">
        <ele>2101</ele>
        <time>2022-07-16T19:44:30Z</time>
      </trkpt>
      <trkpt lat="45.73158" lon="6.67344">
        <ele>2101</ele>
        <time>2022-07-16T19:44:32Z</time>
      </trkpt>
      <trkpt lat="45.7316" lon="6.67343">
        <ele>2101</ele>
        <time>2022-07-16T19:44:34Z</time>
      </trkpt>
      <trkpt lat="45.73162" lon="6.67342">
        <ele>2101</ele>
        <time>2022-07-16T19:44:36Z</time>
      </trkpt>
      <trkpt lat="45.73164" lon="6.67341">
        <ele>2102</ele>
        <time>2022-07-16T19:44:38Z</time>
      </trkpt>
      <trkpt lat="45.73166" lon="6.6734">
        <ele>2102</ele>
        <time>2022-07-16T19:44:40Z</time>
      </trkpt>
      <trkpt lat="45.73168" lon="6.67339">
        <ele>2101</ele>
        <time>2022-07-16T19:44:42Z</time>
      </trkpt>
      <trkpt lat="45.73171" lon="6.67338">
        <ele>2102</ele>
        <time>2022-07-16T19:44:45Z</time>
      </trkpt>
      <trkpt lat="45.73173" lon="6.67337">
        <ele>2102</ele>
        <time>2022-07-16T19:44:47Z</time>
      </trkpt>
      <trkpt lat="45.73174" lon="6.67336">
        <ele>2102</ele>
        <time>2022-07-16T19:44:49Z</time>
      </trkpt>
      <trkpt lat="45.73177" lon="6.67335">
        <ele>2102</ele>
        <time>2022-07-16T19:44:53Z</time>
      </trkpt>
      <trkpt lat="45.73179" lon="6.67334">
        <ele>2102</ele>
        <time>2022-07-16T19:44:54Z</time>
      </trkpt>
      <trkpt lat="45.73181" lon="6.67333">
        <ele>2103</ele>
        <time>2022-07-16T19:44:56Z</time>
      </trkpt>
      <trkpt lat="45.73183" lon="6.67331">
        <ele>2103</ele>
        <time>2022-07-16T19:44:58Z</time>
      </trkpt>
      <trkpt lat="45.73185" lon="6.6733">
        <ele>2103</ele>
        <time>2022-07-16T19:45:01Z</time>
      </trkpt>
      <trkpt lat="45.73187" lon="6.67329">
        <ele>2103</ele>
        <time>2022-07-16T19:45:02Z</time>
      </trkpt>
      <trkpt lat="45.73189" lon="6.67328">
        <ele>2104</ele>
        <time>2022-07-16T19:45:04Z</time>
      </trkpt>
      <trkpt lat="45.7319" lon="6.67326">
        <ele>2104</ele>
        <time>2022-07-16T19:45:06Z</time>
      </trkpt>
      <trkpt lat="45.73192" lon="6.67325">
        <ele>2104</ele>
        <time>2022-07-16T19:45:08Z</time>
      </trkpt>
      <trkpt lat="45.73194" lon="6.67324">
        <ele>2104</ele>
        <time>2022-07-16T19:45:10Z</time>
      </trkpt>
      <trkpt lat="45.73195" lon="6.67322">
        <ele>2105</ele>
        <time>2022-07-16T19:45:12Z</time>
      </trkpt>
      <trkpt lat="45.73197" lon="6.6732">
        <ele>2105</ele>
        <time>2022-07-16T19:45:14Z</time>
      </trkpt>
      <trkpt lat="45.73199" lon="6.67319">
        <ele>2105</ele>
        <time>2022-07-16T19:45:16Z</time>
      </trkpt>
      <trkpt lat="45.73201" lon="6.67317">
        <ele>2105</ele>
        <time>2022-07-16T19:45:18Z</time>
      </trkpt>
      <trkpt lat="45.73202" lon="6.67316">
        <ele>2105</ele>
        <time>2022-07-16T19:45:20Z</time>
      </trkpt>
      <trkpt lat="45.73204" lon="6.67315">
        <ele>2106</ele>
        <time>2022-07-16T19:45:22Z</time>
      </trkpt>
      <trkpt lat="45.73207" lon="6.67314">
        <ele>2106</ele>
        <time>2022-07-16T19:45:24Z</time>
      </trkpt>
      <trkpt lat="45.73209" lon="6.67313">
        <ele>2106</ele>
        <time>2022-07-16T19:45:26Z</time>
      </trkpt>
      <trkpt lat="45.73211" lon="6.67311">
        <ele>2106</ele>
        <time>2022-07-16T19:45:28Z</time>
      </trkpt>
      <trkpt lat="45.73212" lon="6.6731">
        <ele>2107</ele>
        <time>2022-07-16T19:45:31Z</time>
      </trkpt>
      <trkpt lat="45.73214" lon="6.67309">
        <ele>2107</ele>
        <time>2022-07-16T19:45:32Z</time>
      </trkpt>
      <trkpt lat="45.73216" lon="6.67307">
        <ele>2107</ele>
        <time>2022-07-16T19:45:34Z</time>
      </trkpt>
      <trkpt lat="45.73218" lon="6.67306">
        <ele>2108</ele>
        <time>2022-07-16T19:45:36Z</time>
      </trkpt>
      <trkpt lat="45.7322" lon="6.67305">
        <ele>2108</ele>
        <time>2022-07-16T19:45:38Z</time>
      </trkpt>
      <trkpt lat="45.73222" lon="6.67304">
        <ele>2108</ele>
        <time>2022-07-16T19:45:40Z</time>
      </trkpt>
      <trkpt lat="45.73224" lon="6.67302">
        <ele>2108</ele>
        <time>2022-07-16T19:45:42Z</time>
      </trkpt>
      <trkpt lat="45.73225" lon="6.67301">
        <ele>2108</ele>
        <time>2022-07-16T19:45:44Z</time>
      </trkpt>
      <trkpt lat="45.73227" lon="6.673">
        <ele>2108</ele>
        <time>2022-07-16T19:45:46Z</time>
      </trkpt>
      <trkpt lat="45.73229" lon="6.67299">
        <ele>2108</ele>
        <time>2022-07-16T19:45:48Z</time>
      </trkpt>
      <trkpt lat="45.7323" lon="6.67298">
        <ele>2108</ele>
        <time>2022-07-16T19:45:50Z</time>
      </trkpt>
      <trkpt lat="45.73232" lon="6.67297">
        <ele>2109</ele>
        <time>2022-07-16T19:45:52Z</time>
      </trkpt>
      <trkpt lat="45.73234" lon="6.67296">
        <ele>2109</ele>
        <time>2022-07-16T19:45:54Z</time>
      </trkpt>
      <trkpt lat="45.73236" lon="6.67295">
        <ele>2109</ele>
        <time>2022-07-16T19:45:56Z</time>
      </trkpt>
      <trkpt lat="45.73238" lon="6.67293">
        <ele>2110</ele>
        <time>2022-07-16T19:45:59Z</time>
      </trkpt>
      <trkpt lat="45.7324" lon="6.67292">
        <ele>2110</ele>
        <time>2022-07-16T19:46:01Z</time>
      </trkpt>
      <trkpt lat="45.73242" lon="6.67291">
        <ele>2110</ele>
        <time>2022-07-16T19:46:03Z</time>
      </trkpt>
      <trkpt lat="45.73245" lon="6.6729">
        <ele>2111</ele>
        <time>2022-07-16T19:46:06Z</time>
      </trkpt>
      <trkpt lat="45.73247" lon="6.67288">
        <ele>2111</ele>
        <time>2022-07-16T19:46:10Z</time>
      </trkpt>
      <trkpt lat="45.7325" lon="6.67287">
        <ele>2111</ele>
        <time>2022-07-16T19:46:12Z</time>
      </trkpt>
      <trkpt lat="45.73253" lon="6.67286">
        <ele>2112</ele>
        <time>2022-07-16T19:46:15Z</time>
      </trkpt>
      <trkpt lat="45.73254" lon="6.67285">
        <ele>2112</ele>
        <time>2022-07-16T19:46:17Z</time>
      </trkpt>
      <trkpt lat="45.73256" lon="6.67285">
        <ele>2112</ele>
        <time>2022-07-16T19:46:19Z</time>
      </trkpt>
      <trkpt lat="45.73258" lon="6.67284">
        <ele>2113</ele>
        <time>2022-07-16T19:46:21Z</time>
      </trkpt>
      <trkpt lat="45.7326" lon="6.67283">
        <ele>2113</ele>
        <time>2022-07-16T19:46:23Z</time>
      </trkpt>
      <trkpt lat="45.73262" lon="6.67283">
        <ele>2113</ele>
        <time>2022-07-16T19:46:25Z</time>
      </trkpt>
      <trkpt lat="45.73264" lon="6.67282">
        <ele>2113</ele>
        <time>2022-07-16T19:46:28Z</time>
      </trkpt>
      <trkpt lat="45.73266" lon="6.67282">
        <ele>2114</ele>
        <time>2022-07-16T19:46:29Z</time>
      </trkpt>
      <trkpt lat="45.73268" lon="6.67281">
        <ele>2114</ele>
        <time>2022-07-16T19:46:31Z</time>
      </trkpt>
      <trkpt lat="45.7327" lon="6.67281">
        <ele>2114</ele>
        <time>2022-07-16T19:46:33Z</time>
      </trkpt>
      <trkpt lat="45.73273" lon="6.67281">
        <ele>2114</ele>
        <time>2022-07-16T19:46:36Z</time>
      </trkpt>
      <trkpt lat="45.73275" lon="6.6728">
        <ele>2114</ele>
        <time>2022-07-16T19:46:38Z</time>
      </trkpt>
      <trkpt lat="45.73277" lon="6.6728">
        <ele>2115</ele>
        <time>2022-07-16T19:46:40Z</time>
      </trkpt>
      <trkpt lat="45.73279" lon="6.6728">
        <ele>2115</ele>
        <time>2022-07-16T19:46:42Z</time>
      </trkpt>
      <trkpt lat="45.73281" lon="6.6728">
        <ele>2115</ele>
        <time>2022-07-16T19:46:44Z</time>
      </trkpt>
      <trkpt lat="45.73283" lon="6.6728">
        <ele>2115</ele>
        <time>2022-07-16T19:46:46Z</time>
      </trkpt>
      <trkpt lat="45.73285" lon="6.6728">
        <ele>2115</ele>
        <time>2022-07-16T19:46:48Z</time>
      </trkpt>
      <trkpt lat="45.73287" lon="6.6728">
        <ele>2116</ele>
        <time>2022-07-16T19:46:50Z</time>
      </trkpt>
      <trkpt lat="45.73289" lon="6.6728">
        <ele>2116</ele>
        <time>2022-07-16T19:46:52Z</time>
      </trkpt>
      <trkpt lat="45.73291" lon="6.6728">
        <ele>2116</ele>
        <time>2022-07-16T19:46:54Z</time>
      </trkpt>
      <trkpt lat="45.73293" lon="6.6728">
        <ele>2116</ele>
        <time>2022-07-16T19:46:56Z</time>
      </trkpt>
      <trkpt lat="45.73295" lon="6.6728">
        <ele>2116</ele>
        <time>2022-07-16T19:46:58Z</time>
      </trkpt>
      <trkpt lat="45.73297" lon="6.6728">
        <ele>2118</ele>
        <time>2022-07-16T19:47:00Z</time>
      </trkpt>
      <trkpt lat="45.73299" lon="6.6728">
        <ele>2118</ele>
        <time>2022-07-16T19:47:02Z</time>
      </trkpt>
      <trkpt lat="45.73301" lon="6.67281">
        <ele>2118</ele>
        <time>2022-07-16T19:47:04Z</time>
      </trkpt>
      <trkpt lat="45.73304" lon="6.6728">
        <ele>2118</ele>
        <time>2022-07-16T19:47:06Z</time>
      </trkpt>
      <trkpt lat="45.73306" lon="6.67279">
        <ele>2118</ele>
        <time>2022-07-16T19:47:09Z</time>
      </trkpt>
      <trkpt lat="45.73308" lon="6.67278">
        <ele>2119</ele>
        <time>2022-07-16T19:47:11Z</time>
      </trkpt>
      <trkpt lat="45.7331" lon="6.67277">
        <ele>2119</ele>
        <time>2022-07-16T19:47:13Z</time>
      </trkpt>
      <trkpt lat="45.73312" lon="6.67276">
        <ele>2120</ele>
        <time>2022-07-16T19:47:16Z</time>
      </trkpt>
      <trkpt lat="45.73314" lon="6.67274">
        <ele>2120</ele>
        <time>2022-07-16T19:47:19Z</time>
      </trkpt>
      <trkpt lat="45.73317" lon="6.67273">
        <ele>2121</ele>
        <time>2022-07-16T19:47:22Z</time>
      </trkpt>
      <trkpt lat="45.7332" lon="6.67272">
        <ele>2121</ele>
        <time>2022-07-16T19:47:26Z</time>
      </trkpt>
      <trkpt lat="45.73322" lon="6.67271">
        <ele>2121</ele>
        <time>2022-07-16T19:47:28Z</time>
      </trkpt>
      <trkpt lat="45.73324" lon="6.6727">
        <ele>2122</ele>
        <time>2022-07-16T19:47:30Z</time>
      </trkpt>
      <trkpt lat="45.73327" lon="6.6727">
        <ele>2122</ele>
        <time>2022-07-16T19:47:33Z</time>
      </trkpt>
      <trkpt lat="45.73329" lon="6.6727">
        <ele>2122</ele>
        <time>2022-07-16T19:47:36Z</time>
      </trkpt>
      <trkpt lat="45.73332" lon="6.67269">
        <ele>2123</ele>
        <time>2022-07-16T19:47:39Z</time>
      </trkpt>
      <trkpt lat="45.73334" lon="6.6727">
        <ele>2124</ele>
        <time>2022-07-16T19:47:41Z</time>
      </trkpt>
      <trkpt lat="45.73336" lon="6.6727">
        <ele>2124</ele>
        <time>2022-07-16T19:47:44Z</time>
      </trkpt>
      <trkpt lat="45.73338" lon="6.6727">
        <ele>2125</ele>
        <time>2022-07-16T19:47:46Z</time>
      </trkpt>
      <trkpt lat="45.73341" lon="6.6727">
        <ele>2125</ele>
        <time>2022-07-16T19:47:49Z</time>
      </trkpt>
      <trkpt lat="45.73344" lon="6.67271">
        <ele>2125</ele>
        <time>2022-07-16T19:47:52Z</time>
      </trkpt>
      <trkpt lat="45.73345" lon="6.67271">
        <ele>2126</ele>
        <time>2022-07-16T19:47:54Z</time>
      </trkpt>
      <trkpt lat="45.73347" lon="6.67271">
        <ele>2126</ele>
        <time>2022-07-16T19:47:56Z</time>
      </trkpt>
      <trkpt lat="45.7335" lon="6.67273">
        <ele>2126</ele>
        <time>2022-07-16T19:47:59Z</time>
      </trkpt>
      <trkpt lat="45.73352" lon="6.67275">
        <ele>2126</ele>
        <time>2022-07-16T19:48:01Z</time>
      </trkpt>
      <trkpt lat="45.73352" lon="6.67277">
        <ele>2126</ele>
        <time>2022-07-16T19:48:04Z</time>
      </trkpt>
      <trkpt lat="45.73352" lon="6.6728">
        <ele>2126</ele>
        <time>2022-07-16T19:48:05Z</time>
      </trkpt>
      <trkpt lat="45.73351" lon="6.67282">
        <ele>2127</ele>
        <time>2022-07-16T19:48:07Z</time>
      </trkpt>
      <trkpt lat="45.73349" lon="6.67284">
        <ele>2127</ele>
        <time>2022-07-16T19:48:09Z</time>
      </trkpt>
      <trkpt lat="45.73347" lon="6.67285">
        <ele>2127</ele>
        <time>2022-07-16T19:48:12Z</time>
      </trkpt>
      <trkpt lat="45.73345" lon="6.67286">
        <ele>2127</ele>
        <time>2022-07-16T19:48:14Z</time>
      </trkpt>
      <trkpt lat="45.73344" lon="6.67287">
        <ele>2128</ele>
        <time>2022-07-16T19:48:16Z</time>
      </trkpt>
      <trkpt lat="45.73342" lon="6.67288">
        <ele>2128</ele>
        <time>2022-07-16T19:48:18Z</time>
      </trkpt>
      <trkpt lat="45.7334" lon="6.67289">
        <ele>2129</ele>
        <time>2022-07-16T19:48:20Z</time>
      </trkpt>
      <trkpt lat="45.73338" lon="6.67291">
        <ele>2129</ele>
        <time>2022-07-16T19:48:23Z</time>
      </trkpt>
      <trkpt lat="45.73337" lon="6.67293">
        <ele>2129</ele>
        <time>2022-07-16T19:48:25Z</time>
      </trkpt>
      <trkpt lat="45.73336" lon="6.67296">
        <ele>2129</ele>
        <time>2022-07-16T19:48:27Z</time>
      </trkpt>
      <trkpt lat="45.73335" lon="6.67298">
        <ele>2129</ele>
        <time>2022-07-16T19:48:29Z</time>
      </trkpt>
      <trkpt lat="45.73334" lon="6.67301">
        <ele>2130</ele>
        <time>2022-07-16T19:48:31Z</time>
      </trkpt>
      <trkpt lat="45.73333" lon="6.67303">
        <ele>2130</ele>
        <time>2022-07-16T19:48:33Z</time>
      </trkpt>
      <trkpt lat="45.73333" lon="6.67306">
        <ele>2130</ele>
        <time>2022-07-16T19:48:35Z</time>
      </trkpt>
      <trkpt lat="45.73332" lon="6.67309">
        <ele>2131</ele>
        <time>2022-07-16T19:48:37Z</time>
      </trkpt>
      <trkpt lat="45.73331" lon="6.67311">
        <ele>2131</ele>
        <time>2022-07-16T19:48:39Z</time>
      </trkpt>
      <trkpt lat="45.73331" lon="6.67314">
        <ele>2131</ele>
        <time>2022-07-16T19:48:41Z</time>
      </trkpt>
      <trkpt lat="45.7333" lon="6.67317">
        <ele>2131</ele>
        <time>2022-07-16T19:48:43Z</time>
      </trkpt>
      <trkpt lat="45.7333" lon="6.6732">
        <ele>2131</ele>
        <time>2022-07-16T19:48:45Z</time>
      </trkpt>
      <trkpt lat="45.7333" lon="6.67322">
        <ele>2131</ele>
        <time>2022-07-16T19:48:47Z</time>
      </trkpt>
      <trkpt lat="45.7333" lon="6.67325">
        <ele>2132</ele>
        <time>2022-07-16T19:48:49Z</time>
      </trkpt>
      <trkpt lat="45.7333" lon="6.67329">
        <ele>2132</ele>
        <time>2022-07-16T19:48:51Z</time>
      </trkpt>
      <trkpt lat="45.7333" lon="6.67332">
        <ele>2132</ele>
        <time>2022-07-16T19:48:53Z</time>
      </trkpt>
      <trkpt lat="45.7333" lon="6.67335">
        <ele>2132</ele>
        <time>2022-07-16T19:48:55Z</time>
      </trkpt>
      <trkpt lat="45.7333" lon="6.67337">
        <ele>2133</ele>
        <time>2022-07-16T19:48:57Z</time>
      </trkpt>
      <trkpt lat="45.73331" lon="6.6734">
        <ele>2133</ele>
        <time>2022-07-16T19:49:00Z</time>
      </trkpt>
      <trkpt lat="45.73331" lon="6.67343">
        <ele>2133</ele>
        <time>2022-07-16T19:49:01Z</time>
      </trkpt>
      <trkpt lat="45.73332" lon="6.67346">
        <ele>2134</ele>
        <time>2022-07-16T19:49:03Z</time>
      </trkpt>
      <trkpt lat="45.73333" lon="6.67349">
        <ele>2134</ele>
        <time>2022-07-16T19:49:05Z</time>
      </trkpt>
      <trkpt lat="45.73333" lon="6.67352">
        <ele>2134</ele>
        <time>2022-07-16T19:49:07Z</time>
      </trkpt>
      <trkpt lat="45.73334" lon="6.67355">
        <ele>2134</ele>
        <time>2022-07-16T19:49:09Z</time>
      </trkpt>
      <trkpt lat="45.73334" lon="6.67358">
        <ele>2134</ele>
        <time>2022-07-16T19:49:11Z</time>
      </trkpt>
      <trkpt lat="45.73335" lon="6.67361">
        <ele>2135</ele>
        <time>2022-07-16T19:49:13Z</time>
      </trkpt>
      <trkpt lat="45.73335" lon="6.67364">
        <ele>2135</ele>
        <time>2022-07-16T19:49:15Z</time>
      </trkpt>
      <trkpt lat="45.73335" lon="6.67367">
        <ele>2136</ele>
        <time>2022-07-16T19:49:17Z</time>
      </trkpt>
      <trkpt lat="45.73335" lon="6.6737">
        <ele>2136</ele>
        <time>2022-07-16T19:49:19Z</time>
      </trkpt>
      <trkpt lat="45.73335" lon="6.67373">
        <ele>2136</ele>
        <time>2022-07-16T19:49:21Z</time>
      </trkpt>
      <trkpt lat="45.73335" lon="6.67376">
        <ele>2137</ele>
        <time>2022-07-16T19:49:23Z</time>
      </trkpt>
      <trkpt lat="45.73335" lon="6.67379">
        <ele>2137</ele>
        <time>2022-07-16T19:49:25Z</time>
      </trkpt>
      <trkpt lat="45.73334" lon="6.67381">
        <ele>2137</ele>
        <time>2022-07-16T19:49:27Z</time>
      </trkpt>
      <trkpt lat="45.73334" lon="6.67384">
        <ele>2137</ele>
        <time>2022-07-16T19:49:29Z</time>
      </trkpt>
      <trkpt lat="45.73333" lon="6.67387">
        <ele>2137</ele>
        <time>2022-07-16T19:49:31Z</time>
      </trkpt>
      <trkpt lat="45.73333" lon="6.67391">
        <ele>2138</ele>
        <time>2022-07-16T19:49:34Z</time>
      </trkpt>
      <trkpt lat="45.73333" lon="6.67394">
        <ele>2138</ele>
        <time>2022-07-16T19:49:36Z</time>
      </trkpt>
      <trkpt lat="45.73333" lon="6.67397">
        <ele>2138</ele>
        <time>2022-07-16T19:49:39Z</time>
      </trkpt>
      <trkpt lat="45.73333" lon="6.674">
        <ele>2139</ele>
        <time>2022-07-16T19:49:40Z</time>
      </trkpt>
      <trkpt lat="45.73333" lon="6.67403">
        <ele>2139</ele>
        <time>2022-07-16T19:49:42Z</time>
      </trkpt>
      <trkpt lat="45.73333" lon="6.67406">
        <ele>2139</ele>
        <time>2022-07-16T19:49:44Z</time>
      </trkpt>
      <trkpt lat="45.73333" lon="6.6741">
        <ele>2140</ele>
        <time>2022-07-16T19:49:46Z</time>
      </trkpt>
      <trkpt lat="45.73334" lon="6.67413">
        <ele>2140</ele>
        <time>2022-07-16T19:49:48Z</time>
      </trkpt>
      <trkpt lat="45.73334" lon="6.67416">
        <ele>2141</ele>
        <time>2022-07-16T19:49:50Z</time>
      </trkpt>
      <trkpt lat="45.73335" lon="6.67419">
        <ele>2141</ele>
        <time>2022-07-16T19:49:52Z</time>
      </trkpt>
      <trkpt lat="45.73336" lon="6.67421">
        <ele>2141</ele>
        <time>2022-07-16T19:49:54Z</time>
      </trkpt>
      <trkpt lat="45.73337" lon="6.67424">
        <ele>2141</ele>
        <time>2022-07-16T19:49:57Z</time>
      </trkpt>
      <trkpt lat="45.73338" lon="6.67426">
        <ele>2141</ele>
        <time>2022-07-16T19:49:58Z</time>
      </trkpt>
      <trkpt lat="45.7334" lon="6.67428">
        <ele>2142</ele>
        <time>2022-07-16T19:50:00Z</time>
      </trkpt>
      <trkpt lat="45.73342" lon="6.67429">
        <ele>2142</ele>
        <time>2022-07-16T19:50:02Z</time>
      </trkpt>
      <trkpt lat="45.73344" lon="6.67429">
        <ele>2144</ele>
        <time>2022-07-16T19:50:04Z</time>
      </trkpt>
      <trkpt lat="45.73346" lon="6.67429">
        <ele>2144</ele>
        <time>2022-07-16T19:50:06Z</time>
      </trkpt>
      <trkpt lat="45.73348" lon="6.67429">
        <ele>2144</ele>
        <time>2022-07-16T19:50:08Z</time>
      </trkpt>
      <trkpt lat="45.73351" lon="6.67429">
        <ele>2144</ele>
        <time>2022-07-16T19:50:10Z</time>
      </trkpt>
      <trkpt lat="45.73353" lon="6.67428">
        <ele>2145</ele>
        <time>2022-07-16T19:50:12Z</time>
      </trkpt>
      <trkpt lat="45.73355" lon="6.67428">
        <ele>2145</ele>
        <time>2022-07-16T19:50:14Z</time>
      </trkpt>
      <trkpt lat="45.73357" lon="6.67426">
        <ele>2145</ele>
        <time>2022-07-16T19:50:16Z</time>
      </trkpt>
      <trkpt lat="45.73359" lon="6.67425">
        <ele>2145</ele>
        <time>2022-07-16T19:50:18Z</time>
      </trkpt>
      <trkpt lat="45.73361" lon="6.67423">
        <ele>2146</ele>
        <time>2022-07-16T19:50:20Z</time>
      </trkpt>
      <trkpt lat="45.73363" lon="6.67422">
        <ele>2146</ele>
        <time>2022-07-16T19:50:22Z</time>
      </trkpt>
      <trkpt lat="45.73365" lon="6.6742">
        <ele>2146</ele>
        <time>2022-07-16T19:50:24Z</time>
      </trkpt>
      <trkpt lat="45.73367" lon="6.67418">
        <ele>2146</ele>
        <time>2022-07-16T19:50:26Z</time>
      </trkpt>
      <trkpt lat="45.73368" lon="6.67416">
        <ele>2146</ele>
        <time>2022-07-16T19:50:28Z</time>
      </trkpt>
      <trkpt lat="45.7337" lon="6.67414">
        <ele>2146</ele>
        <time>2022-07-16T19:50:30Z</time>
      </trkpt>
      <trkpt lat="45.73371" lon="6.67412">
        <ele>2147</ele>
        <time>2022-07-16T19:50:32Z</time>
      </trkpt>
      <trkpt lat="45.73373" lon="6.6741">
        <ele>2147</ele>
        <time>2022-07-16T19:50:35Z</time>
      </trkpt>
      <trkpt lat="45.73374" lon="6.67408">
        <ele>2147</ele>
        <time>2022-07-16T19:50:36Z</time>
      </trkpt>
      <trkpt lat="45.73376" lon="6.67406">
        <ele>2147</ele>
        <time>2022-07-16T19:50:38Z</time>
      </trkpt>
      <trkpt lat="45.73377" lon="6.67403">
        <ele>2148</ele>
        <time>2022-07-16T19:50:40Z</time>
      </trkpt>
      <trkpt lat="45.73379" lon="6.67401">
        <ele>2148</ele>
        <time>2022-07-16T19:50:42Z</time>
      </trkpt>
      <trkpt lat="45.7338" lon="6.67399">
        <ele>2148</ele>
        <time>2022-07-16T19:50:44Z</time>
      </trkpt>
      <trkpt lat="45.73382" lon="6.67396">
        <ele>2148</ele>
        <time>2022-07-16T19:50:46Z</time>
      </trkpt>
      <trkpt lat="45.73383" lon="6.67394">
        <ele>2149</ele>
        <time>2022-07-16T19:50:48Z</time>
      </trkpt>
      <trkpt lat="45.73385" lon="6.67392">
        <ele>2149</ele>
        <time>2022-07-16T19:50:50Z</time>
      </trkpt>
      <trkpt lat="45.73387" lon="6.6739">
        <ele>2149</ele>
        <time>2022-07-16T19:50:52Z</time>
      </trkpt>
      <trkpt lat="45.73388" lon="6.67388">
        <ele>2149</ele>
        <time>2022-07-16T19:50:54Z</time>
      </trkpt>
      <trkpt lat="45.73391" lon="6.67387">
        <ele>2149</ele>
        <time>2022-07-16T19:50:56Z</time>
      </trkpt>
      <trkpt lat="45.73393" lon="6.67387">
        <ele>2150</ele>
        <time>2022-07-16T19:50:58Z</time>
      </trkpt>
      <trkpt lat="45.73395" lon="6.67387">
        <ele>2150</ele>
        <time>2022-07-16T19:51:00Z</time>
      </trkpt>
      <trkpt lat="45.73397" lon="6.67388">
        <ele>2151</ele>
        <time>2022-07-16T19:51:02Z</time>
      </trkpt>
      <trkpt lat="45.73399" lon="6.67389">
        <ele>2151</ele>
        <time>2022-07-16T19:51:04Z</time>
      </trkpt>
      <trkpt lat="45.73401" lon="6.67391">
        <ele>2151</ele>
        <time>2022-07-16T19:51:06Z</time>
      </trkpt>
      <trkpt lat="45.73403" lon="6.67393">
        <ele>2152</ele>
        <time>2022-07-16T19:51:08Z</time>
      </trkpt>
      <trkpt lat="45.73404" lon="6.67395">
        <ele>2152</ele>
        <time>2022-07-16T19:51:10Z</time>
      </trkpt>
      <trkpt lat="45.73406" lon="6.67397">
        <ele>2152</ele>
        <time>2022-07-16T19:51:12Z</time>
      </trkpt>
      <trkpt lat="45.73407" lon="6.67399">
        <ele>2152</ele>
        <time>2022-07-16T19:51:14Z</time>
      </trkpt>
      <trkpt lat="45.73409" lon="6.67401">
        <ele>2152</ele>
        <time>2022-07-16T19:51:16Z</time>
      </trkpt>
      <trkpt lat="45.7341" lon="6.67403">
        <ele>2152</ele>
        <time>2022-07-16T19:51:18Z</time>
      </trkpt>
      <trkpt lat="45.73412" lon="6.67406">
        <ele>2152</ele>
        <time>2022-07-16T19:51:20Z</time>
      </trkpt>
      <trkpt lat="45.73413" lon="6.67409">
        <ele>2153</ele>
        <time>2022-07-16T19:51:22Z</time>
      </trkpt>
      <trkpt lat="45.73415" lon="6.67411">
        <ele>2153</ele>
        <time>2022-07-16T19:51:24Z</time>
      </trkpt>
      <trkpt lat="45.73416" lon="6.67413">
        <ele>2153</ele>
        <time>2022-07-16T19:51:26Z</time>
      </trkpt>
      <trkpt lat="45.73418" lon="6.67416">
        <ele>2154</ele>
        <time>2022-07-16T19:51:28Z</time>
      </trkpt>
      <trkpt lat="45.73419" lon="6.67419">
        <ele>2154</ele>
        <time>2022-07-16T19:51:30Z</time>
      </trkpt>
      <trkpt lat="45.7342" lon="6.67421">
        <ele>2154</ele>
        <time>2022-07-16T19:51:32Z</time>
      </trkpt>
      <trkpt lat="45.73421" lon="6.67424">
        <ele>2155</ele>
        <time>2022-07-16T19:51:34Z</time>
      </trkpt>
      <trkpt lat="45.73422" lon="6.67428">
        <ele>2155</ele>
        <time>2022-07-16T19:51:36Z</time>
      </trkpt>
      <trkpt lat="45.73423" lon="6.6743">
        <ele>2156</ele>
        <time>2022-07-16T19:51:38Z</time>
      </trkpt>
      <trkpt lat="45.73424" lon="6.67433">
        <ele>2156</ele>
        <time>2022-07-16T19:51:40Z</time>
      </trkpt>
      <trkpt lat="45.73424" lon="6.67436">
        <ele>2156</ele>
        <time>2022-07-16T19:51:42Z</time>
      </trkpt>
      <trkpt lat="45.73425" lon="6.67439">
        <ele>2156</ele>
        <time>2022-07-16T19:51:44Z</time>
      </trkpt>
      <trkpt lat="45.73425" lon="6.67441">
        <ele>2157</ele>
        <time>2022-07-16T19:51:46Z</time>
      </trkpt>
      <trkpt lat="45.73426" lon="6.67444">
        <ele>2157</ele>
        <time>2022-07-16T19:51:48Z</time>
      </trkpt>
      <trkpt lat="45.73427" lon="6.67447">
        <ele>2157</ele>
        <time>2022-07-16T19:51:51Z</time>
      </trkpt>
      <trkpt lat="45.73428" lon="6.6745">
        <ele>2157</ele>
        <time>2022-07-16T19:51:52Z</time>
      </trkpt>
      <trkpt lat="45.73428" lon="6.67453">
        <ele>2157</ele>
        <time>2022-07-16T19:51:54Z</time>
      </trkpt>
      <trkpt lat="45.73429" lon="6.67456">
        <ele>2158</ele>
        <time>2022-07-16T19:51:56Z</time>
      </trkpt>
      <trkpt lat="45.7343" lon="6.67459">
        <ele>2158</ele>
        <time>2022-07-16T19:51:58Z</time>
      </trkpt>
      <trkpt lat="45.73431" lon="6.67463">
        <ele>2158</ele>
        <time>2022-07-16T19:52:00Z</time>
      </trkpt>
      <trkpt lat="45.73432" lon="6.67465">
        <ele>2158</ele>
        <time>2022-07-16T19:52:02Z</time>
      </trkpt>
      <trkpt lat="45.73433" lon="6.67469">
        <ele>2159</ele>
        <time>2022-07-16T19:52:04Z</time>
      </trkpt>
      <trkpt lat="45.73433" lon="6.67471">
        <ele>2159</ele>
        <time>2022-07-16T19:52:06Z</time>
      </trkpt>
      <trkpt lat="45.73434" lon="6.67475">
        <ele>2159</ele>
        <time>2022-07-16T19:52:08Z</time>
      </trkpt>
      <trkpt lat="45.73434" lon="6.67478">
        <ele>2160</ele>
        <time>2022-07-16T19:52:10Z</time>
      </trkpt>
      <trkpt lat="45.73434" lon="6.67481">
        <ele>2160</ele>
        <time>2022-07-16T19:52:12Z</time>
      </trkpt>
      <trkpt lat="45.73434" lon="6.67483">
        <ele>2161</ele>
        <time>2022-07-16T19:52:14Z</time>
      </trkpt>
      <trkpt lat="45.73434" lon="6.67487">
        <ele>2161</ele>
        <time>2022-07-16T19:52:16Z</time>
      </trkpt>
      <trkpt lat="45.73433" lon="6.67489">
        <ele>2162</ele>
        <time>2022-07-16T19:52:18Z</time>
      </trkpt>
      <trkpt lat="45.73433" lon="6.67492">
        <ele>2162</ele>
        <time>2022-07-16T19:52:20Z</time>
      </trkpt>
      <trkpt lat="45.73432" lon="6.67495">
        <ele>2162</ele>
        <time>2022-07-16T19:52:22Z</time>
      </trkpt>
      <trkpt lat="45.73432" lon="6.67498">
        <ele>2162</ele>
        <time>2022-07-16T19:52:24Z</time>
      </trkpt>
      <trkpt lat="45.73432" lon="6.67501">
        <ele>2162</ele>
        <time>2022-07-16T19:52:26Z</time>
      </trkpt>
      <trkpt lat="45.73432" lon="6.67503">
        <ele>2162</ele>
        <time>2022-07-16T19:52:29Z</time>
      </trkpt>
      <trkpt lat="45.73432" lon="6.67506">
        <ele>2162</ele>
        <time>2022-07-16T19:52:30Z</time>
      </trkpt>
      <trkpt lat="45.73433" lon="6.67509">
        <ele>2163</ele>
        <time>2022-07-16T19:52:32Z</time>
      </trkpt>
      <trkpt lat="45.73434" lon="6.67512">
        <ele>2163</ele>
        <time>2022-07-16T19:52:34Z</time>
      </trkpt>
      <trkpt lat="45.73435" lon="6.67514">
        <ele>2164</ele>
        <time>2022-07-16T19:52:36Z</time>
      </trkpt>
      <trkpt lat="45.73437" lon="6.67515">
        <ele>2165</ele>
        <time>2022-07-16T19:52:38Z</time>
      </trkpt>
      <trkpt lat="45.73439" lon="6.67516">
        <ele>2165</ele>
        <time>2022-07-16T19:52:40Z</time>
      </trkpt>
      <trkpt lat="45.73441" lon="6.67517">
        <ele>2165</ele>
        <time>2022-07-16T19:52:42Z</time>
      </trkpt>
      <trkpt lat="45.73444" lon="6.67517">
        <ele>2166</ele>
        <time>2022-07-16T19:52:45Z</time>
      </trkpt>
      <trkpt lat="45.73446" lon="6.67518">
        <ele>2166</ele>
        <time>2022-07-16T19:52:48Z</time>
      </trkpt>
      <trkpt lat="45.73448" lon="6.67518">
        <ele>2166</ele>
        <time>2022-07-16T19:52:49Z</time>
      </trkpt>
      <trkpt lat="45.7345" lon="6.67518">
        <ele>2166</ele>
        <time>2022-07-16T19:52:51Z</time>
      </trkpt>
      <trkpt lat="45.73452" lon="6.67518">
        <ele>2167</ele>
        <time>2022-07-16T19:52:53Z</time>
      </trkpt>
      <trkpt lat="45.73454" lon="6.67517">
        <ele>2167</ele>
        <time>2022-07-16T19:52:57Z</time>
      </trkpt>
      <trkpt lat="45.73456" lon="6.67517">
        <ele>2167</ele>
        <time>2022-07-16T19:52:59Z</time>
      </trkpt>
      <trkpt lat="45.73458" lon="6.67517">
        <ele>2167</ele>
        <time>2022-07-16T19:53:01Z</time>
      </trkpt>
      <trkpt lat="45.73461" lon="6.67517">
        <ele>2168</ele>
        <time>2022-07-16T19:53:03Z</time>
      </trkpt>
      <trkpt lat="45.73463" lon="6.67516">
        <ele>2168</ele>
        <time>2022-07-16T19:53:05Z</time>
      </trkpt>
      <trkpt lat="45.73465" lon="6.67516">
        <ele>2168</ele>
        <time>2022-07-16T19:53:07Z</time>
      </trkpt>
      <trkpt lat="45.73467" lon="6.67515">
        <ele>2170</ele>
        <time>2022-07-16T19:53:09Z</time>
      </trkpt>
      <trkpt lat="45.73469" lon="6.67514">
        <ele>2170</ele>
        <time>2022-07-16T19:53:11Z</time>
      </trkpt>
      <trkpt lat="45.73471" lon="6.67513">
        <ele>2171</ele>
        <time>2022-07-16T19:53:13Z</time>
      </trkpt>
      <trkpt lat="45.73473" lon="6.67513">
        <ele>2171</ele>
        <time>2022-07-16T19:53:15Z</time>
      </trkpt>
      <trkpt lat="45.73475" lon="6.67512">
        <ele>2171</ele>
        <time>2022-07-16T19:53:17Z</time>
      </trkpt>
      <trkpt lat="45.73477" lon="6.67511">
        <ele>2172</ele>
        <time>2022-07-16T19:53:19Z</time>
      </trkpt>
      <trkpt lat="45.7348" lon="6.6751">
        <ele>2172</ele>
        <time>2022-07-16T19:53:21Z</time>
      </trkpt>
      <trkpt lat="45.73482" lon="6.67509">
        <ele>2172</ele>
        <time>2022-07-16T19:53:23Z</time>
      </trkpt>
      <trkpt lat="45.73484" lon="6.67509">
        <ele>2172</ele>
        <time>2022-07-16T19:53:26Z</time>
      </trkpt>
      <trkpt lat="45.73486" lon="6.67509">
        <ele>2172</ele>
        <time>2022-07-16T19:53:27Z</time>
      </trkpt>
      <trkpt lat="45.73488" lon="6.67508">
        <ele>2173</ele>
        <time>2022-07-16T19:53:29Z</time>
      </trkpt>
      <trkpt lat="45.7349" lon="6.67508">
        <ele>2173</ele>
        <time>2022-07-16T19:53:31Z</time>
      </trkpt>
      <trkpt lat="45.73492" lon="6.67508">
        <ele>2173</ele>
        <time>2022-07-16T19:53:33Z</time>
      </trkpt>
      <trkpt lat="45.73494" lon="6.67508">
        <ele>2173</ele>
        <time>2022-07-16T19:53:35Z</time>
      </trkpt>
      <trkpt lat="45.73496" lon="6.67509">
        <ele>2174</ele>
        <time>2022-07-16T19:53:37Z</time>
      </trkpt>
      <trkpt lat="45.73498" lon="6.6751">
        <ele>2174</ele>
        <time>2022-07-16T19:53:39Z</time>
      </trkpt>
      <trkpt lat="45.735" lon="6.67512">
        <ele>2174</ele>
        <time>2022-07-16T19:53:41Z</time>
      </trkpt>
      <trkpt lat="45.73502" lon="6.67513">
        <ele>2174</ele>
        <time>2022-07-16T19:53:43Z</time>
      </trkpt>
      <trkpt lat="45.73503" lon="6.67514">
        <ele>2174</ele>
        <time>2022-07-16T19:53:45Z</time>
      </trkpt>
      <trkpt lat="45.73505" lon="6.67515">
        <ele>2175</ele>
        <time>2022-07-16T19:53:47Z</time>
      </trkpt>
      <trkpt lat="45.73507" lon="6.67517">
        <ele>2175</ele>
        <time>2022-07-16T19:53:49Z</time>
      </trkpt>
      <trkpt lat="45.73509" lon="6.67518">
        <ele>2176</ele>
        <time>2022-07-16T19:53:51Z</time>
      </trkpt>
      <trkpt lat="45.73511" lon="6.67518">
        <ele>2176</ele>
        <time>2022-07-16T19:53:53Z</time>
      </trkpt>
      <trkpt lat="45.73513" lon="6.67519">
        <ele>2177</ele>
        <time>2022-07-16T19:53:55Z</time>
      </trkpt>
      <trkpt lat="45.73515" lon="6.6752">
        <ele>2177</ele>
        <time>2022-07-16T19:53:57Z</time>
      </trkpt>
      <trkpt lat="45.73517" lon="6.67521">
        <ele>2178</ele>
        <time>2022-07-16T19:53:59Z</time>
      </trkpt>
      <trkpt lat="45.73519" lon="6.67521">
        <ele>2178</ele>
        <time>2022-07-16T19:54:01Z</time>
      </trkpt>
      <trkpt lat="45.73522" lon="6.67522">
        <ele>2178</ele>
        <time>2022-07-16T19:54:04Z</time>
      </trkpt>
      <trkpt lat="45.73523" lon="6.67523">
        <ele>2178</ele>
        <time>2022-07-16T19:54:05Z</time>
      </trkpt>
      <trkpt lat="45.73525" lon="6.67523">
        <ele>2178</ele>
        <time>2022-07-16T19:54:07Z</time>
      </trkpt>
      <trkpt lat="45.73527" lon="6.67524">
        <ele>2178</ele>
        <time>2022-07-16T19:54:09Z</time>
      </trkpt>
      <trkpt lat="45.7353" lon="6.67525">
        <ele>2178</ele>
        <time>2022-07-16T19:54:12Z</time>
      </trkpt>
      <trkpt lat="45.73532" lon="6.67526">
        <ele>2178</ele>
        <time>2022-07-16T19:54:14Z</time>
      </trkpt>
      <trkpt lat="45.73534" lon="6.67528">
        <ele>2178</ele>
        <time>2022-07-16T19:54:17Z</time>
      </trkpt>
      <trkpt lat="45.73535" lon="6.67529">
        <ele>2179</ele>
        <time>2022-07-16T19:54:19Z</time>
      </trkpt>
      <trkpt lat="45.73537" lon="6.67531">
        <ele>2179</ele>
        <time>2022-07-16T19:54:21Z</time>
      </trkpt>
      <trkpt lat="45.73539" lon="6.67532">
        <ele>2179</ele>
        <time>2022-07-16T19:54:23Z</time>
      </trkpt>
      <trkpt lat="45.73541" lon="6.67535">
        <ele>2180</ele>
        <time>2022-07-16T19:54:26Z</time>
      </trkpt>
      <trkpt lat="45.73543" lon="6.67537">
        <ele>2180</ele>
        <time>2022-07-16T19:54:28Z</time>
      </trkpt>
      <trkpt lat="45.73544" lon="6.67539">
        <ele>2180</ele>
        <time>2022-07-16T19:54:30Z</time>
      </trkpt>
      <trkpt lat="45.73546" lon="6.67541">
        <ele>2181</ele>
        <time>2022-07-16T19:54:33Z</time>
      </trkpt>
      <trkpt lat="45.73548" lon="6.67543">
        <ele>2182</ele>
        <time>2022-07-16T19:54:37Z</time>
      </trkpt>
      <trkpt lat="45.7355" lon="6.67544">
        <ele>2182</ele>
        <time>2022-07-16T19:54:38Z</time>
      </trkpt>
      <trkpt lat="45.73552" lon="6.67545">
        <ele>2182</ele>
        <time>2022-07-16T19:54:40Z</time>
      </trkpt>
      <trkpt lat="45.73554" lon="6.67546">
        <ele>2182</ele>
        <time>2022-07-16T19:54:42Z</time>
      </trkpt>
      <trkpt lat="45.73556" lon="6.67547">
        <ele>2182</ele>
        <time>2022-07-16T19:54:44Z</time>
      </trkpt>
      <trkpt lat="45.73558" lon="6.67548">
        <ele>2182</ele>
        <time>2022-07-16T19:54:47Z</time>
      </trkpt>
      <trkpt lat="45.7356" lon="6.6755">
        <ele>2183</ele>
        <time>2022-07-16T19:54:50Z</time>
      </trkpt>
      <trkpt lat="45.73562" lon="6.67551">
        <ele>2183</ele>
        <time>2022-07-16T19:54:52Z</time>
      </trkpt>
      <trkpt lat="45.73564" lon="6.67552">
        <ele>2183</ele>
        <time>2022-07-16T19:54:55Z</time>
      </trkpt>
      <trkpt lat="45.73566" lon="6.67553">
        <ele>2184</ele>
        <time>2022-07-16T19:54:58Z</time>
      </trkpt>
      <trkpt lat="45.73568" lon="6.67555">
        <ele>2184</ele>
        <time>2022-07-16T19:55:01Z</time>
      </trkpt>
      <trkpt lat="45.7357" lon="6.67557">
        <ele>2185</ele>
        <time>2022-07-16T19:55:04Z</time>
      </trkpt>
      <trkpt lat="45.73573" lon="6.67558">
        <ele>2185</ele>
        <time>2022-07-16T19:55:06Z</time>
      </trkpt>
      <trkpt lat="45.73574" lon="6.67559">
        <ele>2185</ele>
        <time>2022-07-16T19:55:08Z</time>
      </trkpt>
      <trkpt lat="45.73576" lon="6.6756">
        <ele>2185</ele>
        <time>2022-07-16T19:55:10Z</time>
      </trkpt>
      <trkpt lat="45.73578" lon="6.67561">
        <ele>2185</ele>
        <time>2022-07-16T19:55:12Z</time>
      </trkpt>
      <trkpt lat="45.73581" lon="6.67562">
        <ele>2185</ele>
        <time>2022-07-16T19:55:14Z</time>
      </trkpt>
      <trkpt lat="45.73584" lon="6.67564">
        <ele>2186</ele>
        <time>2022-07-16T19:55:17Z</time>
      </trkpt>
      <trkpt lat="45.73586" lon="6.67565">
        <ele>2186</ele>
        <time>2022-07-16T19:55:21Z</time>
      </trkpt>
      <trkpt lat="45.73587" lon="6.67568">
        <ele>2188</ele>
        <time>2022-07-16T19:55:24Z</time>
      </trkpt>
      <trkpt lat="45.73589" lon="6.67569">
        <ele>2188</ele>
        <time>2022-07-16T19:55:27Z</time>
      </trkpt>
      <trkpt lat="45.73591" lon="6.67571">
        <ele>2188</ele>
        <time>2022-07-16T19:55:29Z</time>
      </trkpt>
      <trkpt lat="45.73593" lon="6.67572">
        <ele>2188</ele>
        <time>2022-07-16T19:55:32Z</time>
      </trkpt>
      <trkpt lat="45.73595" lon="6.67572">
        <ele>2188</ele>
        <time>2022-07-16T19:55:35Z</time>
      </trkpt>
      <trkpt lat="45.73597" lon="6.6757">
        <ele>2188</ele>
        <time>2022-07-16T19:55:37Z</time>
      </trkpt>
      <trkpt lat="45.73599" lon="6.67569">
        <ele>2189</ele>
        <time>2022-07-16T19:55:40Z</time>
      </trkpt>
      <trkpt lat="45.736" lon="6.67565">
        <ele>2189</ele>
        <time>2022-07-16T19:55:43Z</time>
      </trkpt>
      <trkpt lat="45.73599" lon="6.67561">
        <ele>2190</ele>
        <time>2022-07-16T19:55:46Z</time>
      </trkpt>
      <trkpt lat="45.73598" lon="6.67558">
        <ele>2191</ele>
        <time>2022-07-16T19:55:49Z</time>
      </trkpt>
      <trkpt lat="45.73597" lon="6.67556">
        <ele>2191</ele>
        <time>2022-07-16T19:55:52Z</time>
      </trkpt>
      <trkpt lat="45.73595" lon="6.67553">
        <ele>2191</ele>
        <time>2022-07-16T19:55:54Z</time>
      </trkpt>
      <trkpt lat="45.73594" lon="6.67551">
        <ele>2191</ele>
        <time>2022-07-16T19:55:57Z</time>
      </trkpt>
      <trkpt lat="45.73593" lon="6.6755">
        <ele>2191</ele>
        <time>2022-07-16T19:55:59Z</time>
      </trkpt>
      <trkpt lat="45.73591" lon="6.67547">
        <ele>2192</ele>
        <time>2022-07-16T19:56:01Z</time>
      </trkpt>
      <trkpt lat="45.73589" lon="6.67546">
        <ele>2193</ele>
        <time>2022-07-16T19:56:03Z</time>
      </trkpt>
      <trkpt lat="45.73588" lon="6.67543">
        <ele>2193</ele>
        <time>2022-07-16T19:56:05Z</time>
      </trkpt>
      <trkpt lat="45.73586" lon="6.67541">
        <ele>2193</ele>
        <time>2022-07-16T19:56:07Z</time>
      </trkpt>
      <trkpt lat="45.73585" lon="6.67539">
        <ele>2193</ele>
        <time>2022-07-16T19:56:09Z</time>
      </trkpt>
      <trkpt lat="45.73583" lon="6.67537">
        <ele>2193</ele>
        <time>2022-07-16T19:56:12Z</time>
      </trkpt>
      <trkpt lat="45.73582" lon="6.67534">
        <ele>2193</ele>
        <time>2022-07-16T19:56:14Z</time>
      </trkpt>
      <trkpt lat="45.7358" lon="6.67531">
        <ele>2193</ele>
        <time>2022-07-16T19:56:18Z</time>
      </trkpt>
      <trkpt lat="45.73578" lon="6.67528">
        <ele>2193</ele>
        <time>2022-07-16T19:56:20Z</time>
      </trkpt>
      <trkpt lat="45.73576" lon="6.67525">
        <ele>2193</ele>
        <time>2022-07-16T19:56:23Z</time>
      </trkpt>
      <trkpt lat="45.73575" lon="6.67522">
        <ele>2194</ele>
        <time>2022-07-16T19:56:26Z</time>
      </trkpt>
      <trkpt lat="45.73574" lon="6.67519">
        <ele>2194</ele>
        <time>2022-07-16T19:56:28Z</time>
      </trkpt>
      <trkpt lat="45.73573" lon="6.67516">
        <ele>2196</ele>
        <time>2022-07-16T19:56:32Z</time>
      </trkpt>
      <trkpt lat="45.73572" lon="6.67514">
        <ele>2196</ele>
        <time>2022-07-16T19:56:33Z</time>
      </trkpt>
      <trkpt lat="45.7357" lon="6.67512">
        <ele>2196</ele>
        <time>2022-07-16T19:56:36Z</time>
      </trkpt>
      <trkpt lat="45.73569" lon="6.6751">
        <ele>2196</ele>
        <time>2022-07-16T19:56:37Z</time>
      </trkpt>
      <trkpt lat="45.73567" lon="6.67508">
        <ele>2196</ele>
        <time>2022-07-16T19:56:39Z</time>
      </trkpt>
      <trkpt lat="45.73566" lon="6.67505">
        <ele>2197</ele>
        <time>2022-07-16T19:56:42Z</time>
      </trkpt>
      <trkpt lat="45.73565" lon="6.67501">
        <ele>2197</ele>
        <time>2022-07-16T19:56:45Z</time>
      </trkpt>
      <trkpt lat="45.73563" lon="6.67498">
        <ele>2198</ele>
        <time>2022-07-16T19:56:48Z</time>
      </trkpt>
      <trkpt lat="45.73562" lon="6.67496">
        <ele>2198</ele>
        <time>2022-07-16T19:56:50Z</time>
      </trkpt>
      <trkpt lat="45.73562" lon="6.67493">
        <ele>2198</ele>
        <time>2022-07-16T19:56:52Z</time>
      </trkpt>
      <trkpt lat="45.73561" lon="6.67489">
        <ele>2199</ele>
        <time>2022-07-16T19:56:56Z</time>
      </trkpt>
      <trkpt lat="45.7356" lon="6.67487">
        <ele>2199</ele>
        <time>2022-07-16T19:56:57Z</time>
      </trkpt>
      <trkpt lat="45.73559" lon="6.67484">
        <ele>2199</ele>
        <time>2022-07-16T19:56:59Z</time>
      </trkpt>
      <trkpt lat="45.73559" lon="6.6748">
        <ele>2200</ele>
        <time>2022-07-16T19:57:02Z</time>
      </trkpt>
      <trkpt lat="45.73558" lon="6.67478">
        <ele>2200</ele>
        <time>2022-07-16T19:57:04Z</time>
      </trkpt>
      <trkpt lat="45.73557" lon="6.67474">
        <ele>2201</ele>
        <time>2022-07-16T19:57:07Z</time>
      </trkpt>
      <trkpt lat="45.73557" lon="6.67471">
        <ele>2201</ele>
        <time>2022-07-16T19:57:09Z</time>
      </trkpt>
      <trkpt lat="45.73557" lon="6.67468">
        <ele>2202</ele>
        <time>2022-07-16T19:57:12Z</time>
      </trkpt>
      <trkpt lat="45.73556" lon="6.67465">
        <ele>2202</ele>
        <time>2022-07-16T19:57:15Z</time>
      </trkpt>
      <trkpt lat="45.73556" lon="6.67462">
        <ele>2202</ele>
        <time>2022-07-16T19:57:16Z</time>
      </trkpt>
      <trkpt lat="45.73556" lon="6.67459">
        <ele>2202</ele>
        <time>2022-07-16T19:57:18Z</time>
      </trkpt>
      <trkpt lat="45.73555" lon="6.67455">
        <ele>2203</ele>
        <time>2022-07-16T19:57:22Z</time>
      </trkpt>
      <trkpt lat="45.73556" lon="6.67452">
        <ele>2203</ele>
        <time>2022-07-16T19:57:23Z</time>
      </trkpt>
      <trkpt lat="45.73556" lon="6.6745">
        <ele>2204</ele>
        <time>2022-07-16T19:57:25Z</time>
      </trkpt>
      <trkpt lat="45.73559" lon="6.67447">
        <ele>2204</ele>
        <time>2022-07-16T19:57:29Z</time>
      </trkpt>
      <trkpt lat="45.7356" lon="6.67446">
        <ele>2204</ele>
        <time>2022-07-16T19:57:30Z</time>
      </trkpt>
      <trkpt lat="45.73562" lon="6.67447">
        <ele>2204</ele>
        <time>2022-07-16T19:57:33Z</time>
      </trkpt>
      <trkpt lat="45.73565" lon="6.67447">
        <ele>2205</ele>
        <time>2022-07-16T19:57:35Z</time>
      </trkpt>
      <trkpt lat="45.73567" lon="6.67449">
        <ele>2205</ele>
        <time>2022-07-16T19:57:38Z</time>
      </trkpt>
      <trkpt lat="45.73568" lon="6.6745">
        <ele>2205</ele>
        <time>2022-07-16T19:57:40Z</time>
      </trkpt>
      <trkpt lat="45.7357" lon="6.67452">
        <ele>2205</ele>
        <time>2022-07-16T19:57:42Z</time>
      </trkpt>
      <trkpt lat="45.73572" lon="6.67453">
        <ele>2206</ele>
        <time>2022-07-16T19:57:44Z</time>
      </trkpt>
      <trkpt lat="45.73574" lon="6.67455">
        <ele>2206</ele>
        <time>2022-07-16T19:57:47Z</time>
      </trkpt>
      <trkpt lat="45.73575" lon="6.67456">
        <ele>2206</ele>
        <time>2022-07-16T19:57:48Z</time>
      </trkpt>
      <trkpt lat="45.73578" lon="6.67458">
        <ele>2207</ele>
        <time>2022-07-16T19:57:52Z</time>
      </trkpt>
      <trkpt lat="45.7358" lon="6.67459">
        <ele>2207</ele>
        <time>2022-07-16T19:57:55Z</time>
      </trkpt>
      <trkpt lat="45.73583" lon="6.67461">
        <ele>2207</ele>
        <time>2022-07-16T19:57:57Z</time>
      </trkpt>
      <trkpt lat="45.73585" lon="6.67462">
        <ele>2207</ele>
        <time>2022-07-16T19:58:00Z</time>
      </trkpt>
      <trkpt lat="45.73587" lon="6.67462">
        <ele>2208</ele>
        <time>2022-07-16T19:58:01Z</time>
      </trkpt>
      <trkpt lat="45.73589" lon="6.67464">
        <ele>2208</ele>
        <time>2022-07-16T19:58:04Z</time>
      </trkpt>
      <trkpt lat="45.73591" lon="6.67464">
        <ele>2209</ele>
        <time>2022-07-16T19:58:06Z</time>
      </trkpt>
      <trkpt lat="45.73593" lon="6.67465">
        <ele>2209</ele>
        <time>2022-07-16T19:58:08Z</time>
      </trkpt>
      <trkpt lat="45.73596" lon="6.67465">
        <ele>2209</ele>
        <time>2022-07-16T19:58:11Z</time>
      </trkpt>
      <trkpt lat="45.73598" lon="6.67466">
        <ele>2209</ele>
        <time>2022-07-16T19:58:13Z</time>
      </trkpt>
      <trkpt lat="45.736" lon="6.67466">
        <ele>2209</ele>
        <time>2022-07-16T19:58:16Z</time>
      </trkpt>
      <trkpt lat="45.73603" lon="6.67466">
        <ele>2210</ele>
        <time>2022-07-16T19:58:19Z</time>
      </trkpt>
      <trkpt lat="45.73605" lon="6.67467">
        <ele>2211</ele>
        <time>2022-07-16T19:58:22Z</time>
      </trkpt>
      <trkpt lat="45.73607" lon="6.67467">
        <ele>2211</ele>
        <time>2022-07-16T19:58:24Z</time>
      </trkpt>
      <trkpt lat="45.73609" lon="6.67466">
        <ele>2211</ele>
        <time>2022-07-16T19:58:26Z</time>
      </trkpt>
      <trkpt lat="45.73611" lon="6.67466">
        <ele>2211</ele>
        <time>2022-07-16T19:58:28Z</time>
      </trkpt>
      <trkpt lat="45.73614" lon="6.67466">
        <ele>2212</ele>
        <time>2022-07-16T19:58:31Z</time>
      </trkpt>
      <trkpt lat="45.73616" lon="6.67466">
        <ele>2212</ele>
        <time>2022-07-16T19:58:34Z</time>
      </trkpt>
      <trkpt lat="45.73618" lon="6.67466">
        <ele>2213</ele>
        <time>2022-07-16T19:58:36Z</time>
      </trkpt>
      <trkpt lat="45.73621" lon="6.67465">
        <ele>2213</ele>
        <time>2022-07-16T19:58:39Z</time>
      </trkpt>
      <trkpt lat="45.73623" lon="6.67465">
        <ele>2213</ele>
        <time>2022-07-16T19:58:41Z</time>
      </trkpt>
      <trkpt lat="45.73625" lon="6.67465">
        <ele>2214</ele>
        <time>2022-07-16T19:58:44Z</time>
      </trkpt>
      <trkpt lat="45.73627" lon="6.67465">
        <ele>2215</ele>
        <time>2022-07-16T19:58:47Z</time>
      </trkpt>
      <trkpt lat="45.7363" lon="6.67464">
        <ele>2215</ele>
        <time>2022-07-16T19:58:49Z</time>
      </trkpt>
      <trkpt lat="45.73632" lon="6.67463">
        <ele>2215</ele>
        <time>2022-07-16T19:58:52Z</time>
      </trkpt>
      <trkpt lat="45.73634" lon="6.67462">
        <ele>2215</ele>
        <time>2022-07-16T19:58:55Z</time>
      </trkpt>
      <trkpt lat="45.73637" lon="6.67462">
        <ele>2216</ele>
        <time>2022-07-16T19:58:58Z</time>
      </trkpt>
      <trkpt lat="45.73639" lon="6.67462">
        <ele>2216</ele>
        <time>2022-07-16T19:59:00Z</time>
      </trkpt>
      <trkpt lat="45.73642" lon="6.67462">
        <ele>2217</ele>
        <time>2022-07-16T19:59:04Z</time>
      </trkpt>
      <trkpt lat="45.73643" lon="6.67463">
        <ele>2217</ele>
        <time>2022-07-16T19:59:05Z</time>
      </trkpt>
      <trkpt lat="45.73645" lon="6.67464">
        <ele>2217</ele>
        <time>2022-07-16T19:59:08Z</time>
      </trkpt>
      <trkpt lat="45.73647" lon="6.67465">
        <ele>2217</ele>
        <time>2022-07-16T19:59:09Z</time>
      </trkpt>
      <trkpt lat="45.73649" lon="6.67466">
        <ele>2218</ele>
        <time>2022-07-16T19:59:11Z</time>
      </trkpt>
      <trkpt lat="45.7365" lon="6.67468">
        <ele>2218</ele>
        <time>2022-07-16T19:59:13Z</time>
      </trkpt>
      <trkpt lat="45.73652" lon="6.67469">
        <ele>2218</ele>
        <time>2022-07-16T19:59:15Z</time>
      </trkpt>
      <trkpt lat="45.73654" lon="6.67469">
        <ele>2219</ele>
        <time>2022-07-16T19:59:17Z</time>
      </trkpt>
      <trkpt lat="45.73656" lon="6.6747">
        <ele>2219</ele>
        <time>2022-07-16T19:59:19Z</time>
      </trkpt>
      <trkpt lat="45.73658" lon="6.6747">
        <ele>2219</ele>
        <time>2022-07-16T19:59:21Z</time>
      </trkpt>
      <trkpt lat="45.7366" lon="6.67469">
        <ele>2219</ele>
        <time>2022-07-16T19:59:23Z</time>
      </trkpt>
      <trkpt lat="45.73662" lon="6.67468">
        <ele>2219</ele>
        <time>2022-07-16T19:59:26Z</time>
      </trkpt>
      <trkpt lat="45.73665" lon="6.67467">
        <ele>2219</ele>
        <time>2022-07-16T19:59:28Z</time>
      </trkpt>
      <trkpt lat="45.73667" lon="6.67466">
        <ele>2220</ele>
        <time>2022-07-16T19:59:32Z</time>
      </trkpt>
      <trkpt lat="45.73669" lon="6.67465">
        <ele>2220</ele>
        <time>2022-07-16T19:59:34Z</time>
      </trkpt>
      <trkpt lat="45.73671" lon="6.67465">
        <ele>2222</ele>
        <time>2022-07-16T19:59:36Z</time>
      </trkpt>
      <trkpt lat="45.73673" lon="6.67465">
        <ele>2222</ele>
        <time>2022-07-16T19:59:38Z</time>
      </trkpt>
      <trkpt lat="45.73674" lon="6.67467">
        <ele>2222</ele>
        <time>2022-07-16T19:59:40Z</time>
      </trkpt>
      <trkpt lat="45.73675" lon="6.6747">
        <ele>2223</ele>
        <time>2022-07-16T19:59:43Z</time>
      </trkpt>
      <trkpt lat="45.73674" lon="6.67473">
        <ele>2223</ele>
        <time>2022-07-16T19:59:46Z</time>
      </trkpt>
      <trkpt lat="45.73673" lon="6.67475">
        <ele>2224</ele>
        <time>2022-07-16T19:59:49Z</time>
      </trkpt>
      <trkpt lat="45.73671" lon="6.67477">
        <ele>2224</ele>
        <time>2022-07-16T19:59:50Z</time>
      </trkpt>
      <trkpt lat="45.7367" lon="6.67479">
        <ele>2224</ele>
        <time>2022-07-16T19:59:52Z</time>
      </trkpt>
      <trkpt lat="45.73668" lon="6.67481">
        <ele>2224</ele>
        <time>2022-07-16T19:59:54Z</time>
      </trkpt>
      <trkpt lat="45.73666" lon="6.67483">
        <ele>2225</ele>
        <time>2022-07-16T19:59:56Z</time>
      </trkpt>
      <trkpt lat="45.73664" lon="6.67484">
        <ele>2225</ele>
        <time>2022-07-16T19:59:58Z</time>
      </trkpt>
      <trkpt lat="45.73662" lon="6.67485">
        <ele>2225</ele>
        <time>2022-07-16T20:00:01Z</time>
      </trkpt>
      <trkpt lat="45.7366" lon="6.67486">
        <ele>2225</ele>
        <time>2022-07-16T20:00:02Z</time>
      </trkpt>
      <trkpt lat="45.73657" lon="6.67488">
        <ele>2226</ele>
        <time>2022-07-16T20:00:05Z</time>
      </trkpt>
      <trkpt lat="45.73656" lon="6.67489">
        <ele>2226</ele>
        <time>2022-07-16T20:00:06Z</time>
      </trkpt>
      <trkpt lat="45.73654" lon="6.67491">
        <ele>2226</ele>
        <time>2022-07-16T20:00:08Z</time>
      </trkpt>
      <trkpt lat="45.73653" lon="6.67493">
        <ele>2226</ele>
        <time>2022-07-16T20:00:10Z</time>
      </trkpt>
      <trkpt lat="45.73653" lon="6.67497">
        <ele>2226</ele>
        <time>2022-07-16T20:00:12Z</time>
      </trkpt>
      <trkpt lat="45.73654" lon="6.67499">
        <ele>2226</ele>
        <time>2022-07-16T20:00:14Z</time>
      </trkpt>
      <trkpt lat="45.73655" lon="6.67501">
        <ele>2226</ele>
        <time>2022-07-16T20:00:16Z</time>
      </trkpt>
      <trkpt lat="45.73657" lon="6.67502">
        <ele>2228</ele>
        <time>2022-07-16T20:00:18Z</time>
      </trkpt>
      <trkpt lat="45.73659" lon="6.67502">
        <ele>2228</ele>
        <time>2022-07-16T20:00:20Z</time>
      </trkpt>
      <trkpt lat="45.73661" lon="6.67501">
        <ele>2228</ele>
        <time>2022-07-16T20:00:22Z</time>
      </trkpt>
      <trkpt lat="45.73663" lon="6.67501">
        <ele>2228</ele>
        <time>2022-07-16T20:00:24Z</time>
      </trkpt>
      <trkpt lat="45.73665" lon="6.675">
        <ele>2228</ele>
        <time>2022-07-16T20:00:27Z</time>
      </trkpt>
      <trkpt lat="45.73667" lon="6.675">
        <ele>2228</ele>
        <time>2022-07-16T20:00:28Z</time>
      </trkpt>
      <trkpt lat="45.73669" lon="6.67499">
        <ele>2230</ele>
        <time>2022-07-16T20:00:30Z</time>
      </trkpt>
      <trkpt lat="45.73671" lon="6.67498">
        <ele>2229</ele>
        <time>2022-07-16T20:00:32Z</time>
      </trkpt>
      <trkpt lat="45.73674" lon="6.67498">
        <ele>2229</ele>
        <time>2022-07-16T20:00:34Z</time>
      </trkpt>
      <trkpt lat="45.73676" lon="6.67496">
        <ele>2229</ele>
        <time>2022-07-16T20:00:36Z</time>
      </trkpt>
      <trkpt lat="45.73678" lon="6.67495">
        <ele>2229</ele>
        <time>2022-07-16T20:00:38Z</time>
      </trkpt>
      <trkpt lat="45.7368" lon="6.67493">
        <ele>2229</ele>
        <time>2022-07-16T20:00:40Z</time>
      </trkpt>
      <trkpt lat="45.73682" lon="6.67491">
        <ele>2229</ele>
        <time>2022-07-16T20:00:43Z</time>
      </trkpt>
      <trkpt lat="45.73683" lon="6.67489">
        <ele>2230</ele>
        <time>2022-07-16T20:00:44Z</time>
      </trkpt>
      <trkpt lat="45.73685" lon="6.67487">
        <ele>2230</ele>
        <time>2022-07-16T20:00:46Z</time>
      </trkpt>
      <trkpt lat="45.73687" lon="6.67485">
        <ele>2230</ele>
        <time>2022-07-16T20:00:48Z</time>
      </trkpt>
      <trkpt lat="45.73688" lon="6.67483">
        <ele>2230</ele>
        <time>2022-07-16T20:00:50Z</time>
      </trkpt>
      <trkpt lat="45.7369" lon="6.67482">
        <ele>2231</ele>
        <time>2022-07-16T20:00:52Z</time>
      </trkpt>
      <trkpt lat="45.73692" lon="6.67479">
        <ele>2231</ele>
        <time>2022-07-16T20:00:54Z</time>
      </trkpt>
      <trkpt lat="45.73693" lon="6.67477">
        <ele>2231</ele>
        <time>2022-07-16T20:00:56Z</time>
      </trkpt>
      <trkpt lat="45.73695" lon="6.67475">
        <ele>2231</ele>
        <time>2022-07-16T20:00:58Z</time>
      </trkpt>
      <trkpt lat="45.73696" lon="6.67473">
        <ele>2232</ele>
        <time>2022-07-16T20:01:00Z</time>
      </trkpt>
      <trkpt lat="45.73697" lon="6.6747">
        <ele>2232</ele>
        <time>2022-07-16T20:01:03Z</time>
      </trkpt>
      <trkpt lat="45.73699" lon="6.67468">
        <ele>2232</ele>
        <time>2022-07-16T20:01:04Z</time>
      </trkpt>
      <trkpt lat="45.737" lon="6.67465">
        <ele>2233</ele>
        <time>2022-07-16T20:01:06Z</time>
      </trkpt>
      <trkpt lat="45.73701" lon="6.67463">
        <ele>2233</ele>
        <time>2022-07-16T20:01:08Z</time>
      </trkpt>
      <trkpt lat="45.73702" lon="6.67461">
        <ele>2233</ele>
        <time>2022-07-16T20:01:10Z</time>
      </trkpt>
      <trkpt lat="45.73703" lon="6.67457">
        <ele>2233</ele>
        <time>2022-07-16T20:01:13Z</time>
      </trkpt>
      <trkpt lat="45.73705" lon="6.67455">
        <ele>2233</ele>
        <time>2022-07-16T20:01:16Z</time>
      </trkpt>
      <trkpt lat="45.73706" lon="6.67453">
        <ele>2233</ele>
        <time>2022-07-16T20:01:17Z</time>
      </trkpt>
      <trkpt lat="45.73707" lon="6.6745">
        <ele>2234</ele>
        <time>2022-07-16T20:01:19Z</time>
      </trkpt>
      <trkpt lat="45.73708" lon="6.67447">
        <ele>2234</ele>
        <time>2022-07-16T20:01:22Z</time>
      </trkpt>
      <trkpt lat="45.73709" lon="6.67444">
        <ele>2234</ele>
        <time>2022-07-16T20:01:23Z</time>
      </trkpt>
      <trkpt lat="45.7371" lon="6.67442">
        <ele>2234</ele>
        <time>2022-07-16T20:01:25Z</time>
      </trkpt>
      <trkpt lat="45.73711" lon="6.67439">
        <ele>2234</ele>
        <time>2022-07-16T20:01:27Z</time>
      </trkpt>
      <trkpt lat="45.73712" lon="6.67437">
        <ele>2235</ele>
        <time>2022-07-16T20:01:29Z</time>
      </trkpt>
      <trkpt lat="45.73712" lon="6.67434">
        <ele>2235</ele>
        <time>2022-07-16T20:01:31Z</time>
      </trkpt>
      <trkpt lat="45.73713" lon="6.67431">
        <ele>2236</ele>
        <time>2022-07-16T20:01:34Z</time>
      </trkpt>
      <trkpt lat="45.73713" lon="6.67428">
        <ele>2236</ele>
        <time>2022-07-16T20:01:36Z</time>
      </trkpt>
      <trkpt lat="45.73714" lon="6.67425">
        <ele>2236</ele>
        <time>2022-07-16T20:01:38Z</time>
      </trkpt>
      <trkpt lat="45.73715" lon="6.67422">
        <ele>2236</ele>
        <time>2022-07-16T20:01:40Z</time>
      </trkpt>
      <trkpt lat="45.73716" lon="6.6742">
        <ele>2237</ele>
        <time>2022-07-16T20:01:43Z</time>
      </trkpt>
      <trkpt lat="45.73716" lon="6.67417">
        <ele>2237</ele>
        <time>2022-07-16T20:01:44Z</time>
      </trkpt>
      <trkpt lat="45.73717" lon="6.67414">
        <ele>2238</ele>
        <time>2022-07-16T20:01:46Z</time>
      </trkpt>
      <trkpt lat="45.73718" lon="6.67412">
        <ele>2238</ele>
        <time>2022-07-16T20:01:48Z</time>
      </trkpt>
      <trkpt lat="45.73719" lon="6.67409">
        <ele>2238</ele>
        <time>2022-07-16T20:01:51Z</time>
      </trkpt>
      <trkpt lat="45.7372" lon="6.67407">
        <ele>2239</ele>
        <time>2022-07-16T20:01:52Z</time>
      </trkpt>
      <trkpt lat="45.73721" lon="6.67404">
        <ele>2239</ele>
        <time>2022-07-16T20:01:55Z</time>
      </trkpt>
      <trkpt lat="45.73722" lon="6.674">
        <ele>2239</ele>
        <time>2022-07-16T20:01:58Z</time>
      </trkpt>
      <trkpt lat="45.73724" lon="6.67397">
        <ele>2240</ele>
        <time>2022-07-16T20:02:01Z</time>
      </trkpt>
      <trkpt lat="45.73725" lon="6.67394">
        <ele>2240</ele>
        <time>2022-07-16T20:02:04Z</time>
      </trkpt>
      <trkpt lat="45.73725" lon="6.67391">
        <ele>2240</ele>
        <time>2022-07-16T20:02:07Z</time>
      </trkpt>
      <trkpt lat="45.73726" lon="6.67387">
        <ele>2241</ele>
        <time>2022-07-16T20:02:10Z</time>
      </trkpt>
      <trkpt lat="45.73727" lon="6.67385">
        <ele>2241</ele>
        <time>2022-07-16T20:02:12Z</time>
      </trkpt>
      <trkpt lat="45.73728" lon="6.67381">
        <ele>2241</ele>
        <time>2022-07-16T20:02:15Z</time>
      </trkpt>
      <trkpt lat="45.73731" lon="6.6738">
        <ele>2241</ele>
        <time>2022-07-16T20:02:19Z</time>
      </trkpt>
      <trkpt lat="45.73733" lon="6.6738">
        <ele>2241</ele>
        <time>2022-07-16T20:02:20Z</time>
      </trkpt>
      <trkpt lat="45.73734" lon="6.67382">
        <ele>2242</ele>
        <time>2022-07-16T20:02:22Z</time>
      </trkpt>
      <trkpt lat="45.73734" lon="6.67385">
        <ele>2242</ele>
        <time>2022-07-16T20:02:24Z</time>
      </trkpt>
      <trkpt lat="45.73733" lon="6.67388">
        <ele>2243</ele>
        <time>2022-07-16T20:02:26Z</time>
      </trkpt>
      <trkpt lat="45.73733" lon="6.67391">
        <ele>2243</ele>
        <time>2022-07-16T20:02:28Z</time>
      </trkpt>
      <trkpt lat="45.73732" lon="6.67393">
        <ele>2243</ele>
        <time>2022-07-16T20:02:30Z</time>
      </trkpt>
      <trkpt lat="45.73732" lon="6.67397">
        <ele>2243</ele>
        <time>2022-07-16T20:02:33Z</time>
      </trkpt>
      <trkpt lat="45.73731" lon="6.674">
        <ele>2244</ele>
        <time>2022-07-16T20:02:35Z</time>
      </trkpt>
      <trkpt lat="45.73731" lon="6.67404">
        <ele>2244</ele>
        <time>2022-07-16T20:02:38Z</time>
      </trkpt>
      <trkpt lat="45.7373" lon="6.67407">
        <ele>2244</ele>
        <time>2022-07-16T20:02:40Z</time>
      </trkpt>
      <trkpt lat="45.7373" lon="6.67411">
        <ele>2245</ele>
        <time>2022-07-16T20:02:43Z</time>
      </trkpt>
      <trkpt lat="45.7373" lon="6.67413">
        <ele>2245</ele>
        <time>2022-07-16T20:02:45Z</time>
      </trkpt>
      <trkpt lat="45.7373" lon="6.67416">
        <ele>2245</ele>
        <time>2022-07-16T20:02:47Z</time>
      </trkpt>
      <trkpt lat="45.7373" lon="6.67419">
        <ele>2246</ele>
        <time>2022-07-16T20:02:49Z</time>
      </trkpt>
      <trkpt lat="45.73731" lon="6.67422">
        <ele>2246</ele>
        <time>2022-07-16T20:02:51Z</time>
      </trkpt>
      <trkpt lat="45.73731" lon="6.67424">
        <ele>2246</ele>
        <time>2022-07-16T20:02:53Z</time>
      </trkpt>
      <trkpt lat="45.73732" lon="6.67427">
        <ele>2248</ele>
        <time>2022-07-16T20:02:55Z</time>
      </trkpt>
      <trkpt lat="45.73733" lon="6.67429">
        <ele>2248</ele>
        <time>2022-07-16T20:02:57Z</time>
      </trkpt>
      <trkpt lat="45.73735" lon="6.67432">
        <ele>2248</ele>
        <time>2022-07-16T20:02:59Z</time>
      </trkpt>
      <trkpt lat="45.73736" lon="6.67434">
        <ele>2248</ele>
        <time>2022-07-16T20:03:01Z</time>
      </trkpt>
      <trkpt lat="45.73737" lon="6.67437">
        <ele>2248</ele>
        <time>2022-07-16T20:03:03Z</time>
      </trkpt>
      <trkpt lat="45.73737" lon="6.6744">
        <ele>2249</ele>
        <time>2022-07-16T20:03:05Z</time>
      </trkpt>
      <trkpt lat="45.73738" lon="6.67442">
        <ele>2249</ele>
        <time>2022-07-16T20:03:07Z</time>
      </trkpt>
      <trkpt lat="45.73738" lon="6.67446">
        <ele>2250</ele>
        <time>2022-07-16T20:03:10Z</time>
      </trkpt>
      <trkpt lat="45.73738" lon="6.6745">
        <ele>2250</ele>
        <time>2022-07-16T20:03:13Z</time>
      </trkpt>
      <trkpt lat="45.73738" lon="6.67453">
        <ele>2250</ele>
        <time>2022-07-16T20:03:16Z</time>
      </trkpt>
      <trkpt lat="45.73738" lon="6.67455">
        <ele>2250</ele>
        <time>2022-07-16T20:03:17Z</time>
      </trkpt>
      <trkpt lat="45.73739" lon="6.67459">
        <ele>2251</ele>
        <time>2022-07-16T20:03:20Z</time>
      </trkpt>
      <trkpt lat="45.73741" lon="6.67461">
        <ele>2251</ele>
        <time>2022-07-16T20:03:23Z</time>
      </trkpt>
      <trkpt lat="45.73744" lon="6.67462">
        <ele>2251</ele>
        <time>2022-07-16T20:03:26Z</time>
      </trkpt>
      <trkpt lat="45.73746" lon="6.67462">
        <ele>2252</ele>
        <time>2022-07-16T20:03:28Z</time>
      </trkpt>
      <trkpt lat="45.73747" lon="6.67462">
        <ele>2252</ele>
        <time>2022-07-16T20:03:30Z</time>
      </trkpt>
      <trkpt lat="45.73749" lon="6.6746">
        <ele>2252</ele>
        <time>2022-07-16T20:03:32Z</time>
      </trkpt>
      <trkpt lat="45.73751" lon="6.67458">
        <ele>2252</ele>
        <time>2022-07-16T20:03:35Z</time>
      </trkpt>
      <trkpt lat="45.73751" lon="6.67455">
        <ele>2252</ele>
        <time>2022-07-16T20:03:38Z</time>
      </trkpt>
      <trkpt lat="45.73752" lon="6.67452">
        <ele>2253</ele>
        <time>2022-07-16T20:03:42Z</time>
      </trkpt>
      <trkpt lat="45.73754" lon="6.67449">
        <ele>2253</ele>
        <time>2022-07-16T20:03:44Z</time>
      </trkpt>
      <trkpt lat="45.73755" lon="6.67446">
        <ele>2254</ele>
        <time>2022-07-16T20:03:46Z</time>
      </trkpt>
      <trkpt lat="45.73756" lon="6.67444">
        <ele>2254</ele>
        <time>2022-07-16T20:03:48Z</time>
      </trkpt>
      <trkpt lat="45.73757" lon="6.67441">
        <ele>2255</ele>
        <time>2022-07-16T20:03:51Z</time>
      </trkpt>
      <trkpt lat="45.73758" lon="6.67439">
        <ele>2255</ele>
        <time>2022-07-16T20:03:53Z</time>
      </trkpt>
      <trkpt lat="45.73759" lon="6.67436">
        <ele>2255</ele>
        <time>2022-07-16T20:03:55Z</time>
      </trkpt>
      <trkpt lat="45.7376" lon="6.67433">
        <ele>2255</ele>
        <time>2022-07-16T20:03:56Z</time>
      </trkpt>
      <trkpt lat="45.73761" lon="6.67431">
        <ele>2255</ele>
        <time>2022-07-16T20:03:58Z</time>
      </trkpt>
      <trkpt lat="45.73762" lon="6.67428">
        <ele>2255</ele>
        <time>2022-07-16T20:04:00Z</time>
      </trkpt>
      <trkpt lat="45.73762" lon="6.67426">
        <ele>2256</ele>
        <time>2022-07-16T20:04:02Z</time>
      </trkpt>
      <trkpt lat="45.73763" lon="6.67423">
        <ele>2256</ele>
        <time>2022-07-16T20:04:04Z</time>
      </trkpt>
      <trkpt lat="45.73764" lon="6.67421">
        <ele>2256</ele>
        <time>2022-07-16T20:04:06Z</time>
      </trkpt>
      <trkpt lat="45.73765" lon="6.67418">
        <ele>2256</ele>
        <time>2022-07-16T20:04:08Z</time>
      </trkpt>
      <trkpt lat="45.73766" lon="6.67415">
        <ele>2257</ele>
        <time>2022-07-16T20:04:10Z</time>
      </trkpt>
      <trkpt lat="45.73767" lon="6.67412">
        <ele>2257</ele>
        <time>2022-07-16T20:04:13Z</time>
      </trkpt>
      <trkpt lat="45.73768" lon="6.6741">
        <ele>2257</ele>
        <time>2022-07-16T20:04:14Z</time>
      </trkpt>
      <trkpt lat="45.73769" lon="6.67407">
        <ele>2257</ele>
        <time>2022-07-16T20:04:16Z</time>
      </trkpt>
      <trkpt lat="45.73769" lon="6.67405">
        <ele>2257</ele>
        <time>2022-07-16T20:04:18Z</time>
      </trkpt>
      <trkpt lat="45.73771" lon="6.67403">
        <ele>2257</ele>
        <time>2022-07-16T20:04:20Z</time>
      </trkpt>
      <trkpt lat="45.73772" lon="6.67401">
        <ele>2258</ele>
        <time>2022-07-16T20:04:22Z</time>
      </trkpt>
      <trkpt lat="45.73773" lon="6.67398">
        <ele>2258</ele>
        <time>2022-07-16T20:04:25Z</time>
      </trkpt>
      <trkpt lat="45.73775" lon="6.67396">
        <ele>2258</ele>
        <time>2022-07-16T20:04:26Z</time>
      </trkpt>
      <trkpt lat="45.73777" lon="6.67395">
        <ele>2258</ele>
        <time>2022-07-16T20:04:28Z</time>
      </trkpt>
      <trkpt lat="45.73778" lon="6.67394">
        <ele>2258</ele>
        <time>2022-07-16T20:04:31Z</time>
      </trkpt>
      <trkpt lat="45.73781" lon="6.67393">
        <ele>2259</ele>
        <time>2022-07-16T20:04:33Z</time>
      </trkpt>
      <trkpt lat="45.73783" lon="6.67394">
        <ele>2259</ele>
        <time>2022-07-16T20:04:36Z</time>
      </trkpt>
      <trkpt lat="45.73783" lon="6.67394">
        <ele>2259</ele>
        <time>2022-07-16T20:04:49Z</time>
      </trkpt>
      <trkpt lat="45.73783" lon="6.67394">
        <ele>2259</ele>
        <time>2022-07-16T20:05:05Z</time>
      </trkpt>
      <trkpt lat="45.73785" lon="6.67394">
        <ele>2259</ele>
        <time>2022-07-16T20:05:10Z</time>
      </trkpt>
      <trkpt lat="45.73787" lon="6.67395">
        <ele>2260</ele>
        <time>2022-07-16T20:05:12Z</time>
      </trkpt>
      <trkpt lat="45.73789" lon="6.67395">
        <ele>2260</ele>
        <time>2022-07-16T20:05:14Z</time>
      </trkpt>
      <trkpt lat="45.73791" lon="6.67396">
        <ele>2260</ele>
        <time>2022-07-16T20:05:17Z</time>
      </trkpt>
      <trkpt lat="45.73791" lon="6.67396">
        <ele>2260</ele>
        <time>2022-07-16T20:05:32Z</time>
      </trkpt>
      <trkpt lat="45.73791" lon="6.67396">
        <ele>2260</ele>
        <time>2022-07-16T20:05:48Z</time>
      </trkpt>
      <trkpt lat="45.73791" lon="6.67396">
        <ele>2260</ele>
        <time>2022-07-16T20:06:04Z</time>
      </trkpt>
      <trkpt lat="45.73793" lon="6.67396">
        <ele>2260</ele>
        <time>2022-07-16T20:06:06Z</time>
      </trkpt>
      <trkpt lat="45.73795" lon="6.67396">
        <ele>2260</ele>
        <time>2022-07-16T20:06:07Z</time>
      </trkpt>
      <trkpt lat="45.73797" lon="6.67397">
        <ele>2261</ele>
        <time>2022-07-16T20:06:09Z</time>
      </trkpt>
      <trkpt lat="45.73799" lon="6.67397">
        <ele>2261</ele>
        <time>2022-07-16T20:06:11Z</time>
      </trkpt>
      <trkpt lat="45.73802" lon="6.67398">
        <ele>2261</ele>
        <time>2022-07-16T20:06:14Z</time>
      </trkpt>
      <trkpt lat="45.73803" lon="6.67398">
        <ele>2261</ele>
        <time>2022-07-16T20:06:16Z</time>
      </trkpt>
      <trkpt lat="45.73805" lon="6.67398">
        <ele>2261</ele>
        <time>2022-07-16T20:06:17Z</time>
      </trkpt>
      <trkpt lat="45.73807" lon="6.67399">
        <ele>2262</ele>
        <time>2022-07-16T20:06:19Z</time>
      </trkpt>
      <trkpt lat="45.73809" lon="6.67399">
        <ele>2263</ele>
        <time>2022-07-16T20:06:22Z</time>
      </trkpt>
      <trkpt lat="45.73812" lon="6.67399">
        <ele>2264</ele>
        <time>2022-07-16T20:06:26Z</time>
      </trkpt>
      <trkpt lat="45.73814" lon="6.67398">
        <ele>2264</ele>
        <time>2022-07-16T20:06:28Z</time>
      </trkpt>
      <trkpt lat="45.73816" lon="6.67398">
        <ele>2265</ele>
        <time>2022-07-16T20:06:31Z</time>
      </trkpt>
      <trkpt lat="45.73819" lon="6.67398">
        <ele>2265</ele>
        <time>2022-07-16T20:06:34Z</time>
      </trkpt>
      <trkpt lat="45.73821" lon="6.67398">
        <ele>2265</ele>
        <time>2022-07-16T20:06:36Z</time>
      </trkpt>
      <trkpt lat="45.73823" lon="6.67398">
        <ele>2266</ele>
        <time>2022-07-16T20:06:39Z</time>
      </trkpt>
      <trkpt lat="45.73825" lon="6.67399">
        <ele>2266</ele>
        <time>2022-07-16T20:06:42Z</time>
      </trkpt>
      <trkpt lat="45.73828" lon="6.674">
        <ele>2266</ele>
        <time>2022-07-16T20:06:45Z</time>
      </trkpt>
      <trkpt lat="45.73829" lon="6.67401">
        <ele>2266</ele>
        <time>2022-07-16T20:06:48Z</time>
      </trkpt>
      <trkpt lat="45.73831" lon="6.67402">
        <ele>2267</ele>
        <time>2022-07-16T20:06:51Z</time>
      </trkpt>
      <trkpt lat="45.73833" lon="6.67403">
        <ele>2268</ele>
        <time>2022-07-16T20:06:54Z</time>
      </trkpt>
      <trkpt lat="45.73835" lon="6.67404">
        <ele>2269</ele>
        <time>2022-07-16T20:06:57Z</time>
      </trkpt>
      <trkpt lat="45.73838" lon="6.67405">
        <ele>2269</ele>
        <time>2022-07-16T20:07:01Z</time>
      </trkpt>
      <trkpt lat="45.7384" lon="6.67405">
        <ele>2270</ele>
        <time>2022-07-16T20:07:04Z</time>
      </trkpt>
      <trkpt lat="45.73842" lon="6.67405">
        <ele>2271</ele>
        <time>2022-07-16T20:07:07Z</time>
      </trkpt>
      <trkpt lat="45.73844" lon="6.67405">
        <ele>2271</ele>
        <time>2022-07-16T20:07:10Z</time>
      </trkpt>
      <trkpt lat="45.73846" lon="6.67406">
        <ele>2272</ele>
        <time>2022-07-16T20:07:13Z</time>
      </trkpt>
      <trkpt lat="45.73848" lon="6.67406">
        <ele>2272</ele>
        <time>2022-07-16T20:07:16Z</time>
      </trkpt>
      <trkpt lat="45.7385" lon="6.67407">
        <ele>2274</ele>
        <time>2022-07-16T20:07:19Z</time>
      </trkpt>
      <trkpt lat="45.73852" lon="6.67408">
        <ele>2274</ele>
        <time>2022-07-16T20:07:22Z</time>
      </trkpt>
      <trkpt lat="45.73855" lon="6.67408">
        <ele>2275</ele>
        <time>2022-07-16T20:07:25Z</time>
      </trkpt>
      <trkpt lat="45.73857" lon="6.67409">
        <ele>2276</ele>
        <time>2022-07-16T20:07:28Z</time>
      </trkpt>
      <trkpt lat="45.73859" lon="6.67409">
        <ele>2277</ele>
        <time>2022-07-16T20:07:31Z</time>
      </trkpt>
      <trkpt lat="45.73861" lon="6.67409">
        <ele>2277</ele>
        <time>2022-07-16T20:07:34Z</time>
      </trkpt>
      <trkpt lat="45.73864" lon="6.6741">
        <ele>2278</ele>
        <time>2022-07-16T20:07:37Z</time>
      </trkpt>
      <trkpt lat="45.73865" lon="6.67411">
        <ele>2278</ele>
        <time>2022-07-16T20:07:41Z</time>
      </trkpt>
      <trkpt lat="45.73868" lon="6.67411">
        <ele>2279</ele>
        <time>2022-07-16T20:07:43Z</time>
      </trkpt>
      <trkpt lat="45.7387" lon="6.67412">
        <ele>2280</ele>
        <time>2022-07-16T20:07:46Z</time>
      </trkpt>
      <trkpt lat="45.73872" lon="6.67412">
        <ele>2280</ele>
        <time>2022-07-16T20:07:49Z</time>
      </trkpt>
      <trkpt lat="45.73874" lon="6.67413">
        <ele>2281</ele>
        <time>2022-07-16T20:07:52Z</time>
      </trkpt>
      <trkpt lat="45.73876" lon="6.67413">
        <ele>2281</ele>
        <time>2022-07-16T20:07:55Z</time>
      </trkpt>
      <trkpt lat="45.73879" lon="6.67416">
        <ele>2282</ele>
        <time>2022-07-16T20:08:01Z</time>
      </trkpt>
      <trkpt lat="45.73881" lon="6.67417">
        <ele>2283</ele>
        <time>2022-07-16T20:08:03Z</time>
      </trkpt>
      <trkpt lat="45.73884" lon="6.67417">
        <ele>2283</ele>
        <time>2022-07-16T20:08:06Z</time>
      </trkpt>
      <trkpt lat="45.73886" lon="6.67417">
        <ele>2283</ele>
        <time>2022-07-16T20:08:09Z</time>
      </trkpt>
      <trkpt lat="45.73888" lon="6.67416">
        <ele>2283</ele>
        <time>2022-07-16T20:08:12Z</time>
      </trkpt>
      <trkpt lat="45.73891" lon="6.67417">
        <ele>2283</ele>
        <time>2022-07-16T20:08:15Z</time>
      </trkpt>
      <trkpt lat="45.73893" lon="6.67417">
        <ele>2284</ele>
        <time>2022-07-16T20:08:18Z</time>
      </trkpt>
      <trkpt lat="45.73895" lon="6.67417">
        <ele>2285</ele>
        <time>2022-07-16T20:08:21Z</time>
      </trkpt>
      <trkpt lat="45.73897" lon="6.67416">
        <ele>2286</ele>
        <time>2022-07-16T20:08:24Z</time>
      </trkpt>
      <trkpt lat="45.73899" lon="6.67416">
        <ele>2286</ele>
        <time>2022-07-16T20:08:25Z</time>
      </trkpt>
      <trkpt lat="45.73901" lon="6.67415">
        <ele>2286</ele>
        <time>2022-07-16T20:08:28Z</time>
      </trkpt>
      <trkpt lat="45.73903" lon="6.67414">
        <ele>2287</ele>
        <time>2022-07-16T20:08:32Z</time>
      </trkpt>
      <trkpt lat="45.73905" lon="6.67414">
        <ele>2287</ele>
        <time>2022-07-16T20:08:34Z</time>
      </trkpt>
      <trkpt lat="45.73908" lon="6.67414">
        <ele>2287</ele>
        <time>2022-07-16T20:08:38Z</time>
      </trkpt>
      <trkpt lat="45.7391" lon="6.67413">
        <ele>2288</ele>
        <time>2022-07-16T20:08:40Z</time>
      </trkpt>
      <trkpt lat="45.73912" lon="6.67413">
        <ele>2288</ele>
        <time>2022-07-16T20:08:44Z</time>
      </trkpt>
      <trkpt lat="45.73914" lon="6.67413">
        <ele>2288</ele>
        <time>2022-07-16T20:08:46Z</time>
      </trkpt>
      <trkpt lat="45.73917" lon="6.67412">
        <ele>2290</ele>
        <time>2022-07-16T20:08:49Z</time>
      </trkpt>
      <trkpt lat="45.73919" lon="6.67411">
        <ele>2290</ele>
        <time>2022-07-16T20:08:52Z</time>
      </trkpt>
      <trkpt lat="45.73921" lon="6.67411">
        <ele>2290</ele>
        <time>2022-07-16T20:08:55Z</time>
      </trkpt>
      <trkpt lat="45.73924" lon="6.6741">
        <ele>2291</ele>
        <time>2022-07-16T20:08:59Z</time>
      </trkpt>
      <trkpt lat="45.73926" lon="6.6741">
        <ele>2291</ele>
        <time>2022-07-16T20:09:02Z</time>
      </trkpt>
      <trkpt lat="45.73928" lon="6.67411">
        <ele>2292</ele>
        <time>2022-07-16T20:09:05Z</time>
      </trkpt>
      <trkpt lat="45.7393" lon="6.67411">
        <ele>2292</ele>
        <time>2022-07-16T20:09:08Z</time>
      </trkpt>
      <trkpt lat="45.73932" lon="6.67412">
        <ele>2293</ele>
        <time>2022-07-16T20:09:11Z</time>
      </trkpt>
      <trkpt lat="45.73935" lon="6.67412">
        <ele>2293</ele>
        <time>2022-07-16T20:09:15Z</time>
      </trkpt>
      <trkpt lat="45.73937" lon="6.67412">
        <ele>2294</ele>
        <time>2022-07-16T20:09:17Z</time>
      </trkpt>
      <trkpt lat="45.73939" lon="6.67412">
        <ele>2294</ele>
        <time>2022-07-16T20:09:20Z</time>
      </trkpt>
      <trkpt lat="45.73941" lon="6.67413">
        <ele>2294</ele>
        <time>2022-07-16T20:09:23Z</time>
      </trkpt>
      <trkpt lat="45.73944" lon="6.67413">
        <ele>2296</ele>
        <time>2022-07-16T20:09:27Z</time>
      </trkpt>
      <trkpt lat="45.73946" lon="6.67414">
        <ele>2296</ele>
        <time>2022-07-16T20:09:29Z</time>
      </trkpt>
      <trkpt lat="45.73948" lon="6.67416">
        <ele>2296</ele>
        <time>2022-07-16T20:09:32Z</time>
      </trkpt>
      <trkpt lat="45.7395" lon="6.67417">
        <ele>2297</ele>
        <time>2022-07-16T20:09:36Z</time>
      </trkpt>
      <trkpt lat="45.73952" lon="6.67419">
        <ele>2297</ele>
        <time>2022-07-16T20:09:38Z</time>
      </trkpt>
      <trkpt lat="45.73954" lon="6.6742">
        <ele>2298</ele>
        <time>2022-07-16T20:09:41Z</time>
      </trkpt>
      <trkpt lat="45.73956" lon="6.67422">
        <ele>2298</ele>
        <time>2022-07-16T20:09:45Z</time>
      </trkpt>
      <trkpt lat="45.73957" lon="6.67423">
        <ele>2300</ele>
        <time>2022-07-16T20:09:46Z</time>
      </trkpt>
      <trkpt lat="45.73959" lon="6.67424">
        <ele>2300</ele>
        <time>2022-07-16T20:09:48Z</time>
      </trkpt>
      <trkpt lat="45.73961" lon="6.67426">
        <ele>2300</ele>
        <time>2022-07-16T20:09:50Z</time>
      </trkpt>
      <trkpt lat="45.73963" lon="6.67427">
        <ele>2300</ele>
        <time>2022-07-16T20:09:52Z</time>
      </trkpt>
      <trkpt lat="45.73965" lon="6.67428">
        <ele>2300</ele>
        <time>2022-07-16T20:09:54Z</time>
      </trkpt>
      <trkpt lat="45.73968" lon="6.67429">
        <ele>2298</ele>
        <time>2022-07-16T20:09:56Z</time>
      </trkpt>
      <trkpt lat="45.7397" lon="6.6743">
        <ele>2298</ele>
        <time>2022-07-16T20:09:58Z</time>
      </trkpt>
      <trkpt lat="45.73972" lon="6.67431">
        <ele>2298</ele>
        <time>2022-07-16T20:10:01Z</time>
      </trkpt>
      <trkpt lat="45.73974" lon="6.67432">
        <ele>2298</ele>
        <time>2022-07-16T20:10:02Z</time>
      </trkpt>
      <trkpt lat="45.73977" lon="6.67433">
        <ele>2298</ele>
        <time>2022-07-16T20:10:04Z</time>
      </trkpt>
      <trkpt lat="45.73979" lon="6.67434">
        <ele>2298</ele>
        <time>2022-07-16T20:10:06Z</time>
      </trkpt>
      <trkpt lat="45.73981" lon="6.67435">
        <ele>2298</ele>
        <time>2022-07-16T20:10:08Z</time>
      </trkpt>
      <trkpt lat="45.73983" lon="6.67437">
        <ele>2298</ele>
        <time>2022-07-16T20:10:10Z</time>
      </trkpt>
      <trkpt lat="45.73985" lon="6.6744">
        <ele>2298</ele>
        <time>2022-07-16T20:10:12Z</time>
      </trkpt>
      <trkpt lat="45.73985" lon="6.67443">
        <ele>2297</ele>
        <time>2022-07-16T20:10:14Z</time>
      </trkpt>
      <trkpt lat="45.73985" lon="6.67446">
        <ele>2297</ele>
        <time>2022-07-16T20:10:16Z</time>
      </trkpt>
      <trkpt lat="45.73986" lon="6.67448">
        <ele>2297</ele>
        <time>2022-07-16T20:10:18Z</time>
      </trkpt>
      <trkpt lat="45.73985" lon="6.67452">
        <ele>2297</ele>
        <time>2022-07-16T20:10:21Z</time>
      </trkpt>
      <trkpt lat="45.73985" lon="6.67455">
        <ele>2300</ele>
        <time>2022-07-16T20:10:24Z</time>
      </trkpt>
      <trkpt lat="45.73985" lon="6.67459">
        <ele>2301</ele>
        <time>2022-07-16T20:10:28Z</time>
      </trkpt>
      <trkpt lat="45.73984" lon="6.67462">
        <ele>2301</ele>
        <time>2022-07-16T20:10:31Z</time>
      </trkpt>
      <trkpt lat="45.73984" lon="6.67465">
        <ele>2302</ele>
        <time>2022-07-16T20:10:33Z</time>
      </trkpt>
      <trkpt lat="45.73984" lon="6.67468">
        <ele>2302</ele>
        <time>2022-07-16T20:10:36Z</time>
      </trkpt>
      <trkpt lat="45.73984" lon="6.67471">
        <ele>2303</ele>
        <time>2022-07-16T20:10:39Z</time>
      </trkpt>
      <trkpt lat="45.73983" lon="6.67474">
        <ele>2303</ele>
        <time>2022-07-16T20:10:42Z</time>
      </trkpt>
      <trkpt lat="45.73982" lon="6.67477">
        <ele>2305</ele>
        <time>2022-07-16T20:10:45Z</time>
      </trkpt>
      <trkpt lat="45.73981" lon="6.6748">
        <ele>2305</ele>
        <time>2022-07-16T20:10:48Z</time>
      </trkpt>
      <trkpt lat="45.73981" lon="6.67484">
        <ele>2305</ele>
        <time>2022-07-16T20:10:51Z</time>
      </trkpt>
      <trkpt lat="45.7398" lon="6.67486">
        <ele>2305</ele>
        <time>2022-07-16T20:10:53Z</time>
      </trkpt>
      <trkpt lat="45.7398" lon="6.6749">
        <ele>2305</ele>
        <time>2022-07-16T20:10:56Z</time>
      </trkpt>
      <trkpt lat="45.73981" lon="6.67493">
        <ele>2306</ele>
        <time>2022-07-16T20:10:58Z</time>
      </trkpt>
      <trkpt lat="45.73982" lon="6.67496">
        <ele>2306</ele>
        <time>2022-07-16T20:11:01Z</time>
      </trkpt>
      <trkpt lat="45.73983" lon="6.67498">
        <ele>2307</ele>
        <time>2022-07-16T20:11:03Z</time>
      </trkpt>
      <trkpt lat="45.73985" lon="6.675">
        <ele>2307</ele>
        <time>2022-07-16T20:11:06Z</time>
      </trkpt>
      <trkpt lat="45.73987" lon="6.67502">
        <ele>2308</ele>
        <time>2022-07-16T20:11:10Z</time>
      </trkpt>
      <trkpt lat="45.73989" lon="6.67502">
        <ele>2308</ele>
        <time>2022-07-16T20:11:12Z</time>
      </trkpt>
      <trkpt lat="45.73991" lon="6.67502">
        <ele>2308</ele>
        <time>2022-07-16T20:11:15Z</time>
      </trkpt>
      <trkpt lat="45.73993" lon="6.67501">
        <ele>2309</ele>
        <time>2022-07-16T20:11:18Z</time>
      </trkpt>
      <trkpt lat="45.73995" lon="6.675">
        <ele>2310</ele>
        <time>2022-07-16T20:11:22Z</time>
      </trkpt>
      <trkpt lat="45.73997" lon="6.67499">
        <ele>2310</ele>
        <time>2022-07-16T20:11:24Z</time>
      </trkpt>
      <trkpt lat="45.73999" lon="6.675">
        <ele>2310</ele>
        <time>2022-07-16T20:11:26Z</time>
      </trkpt>
      <trkpt lat="45.74002" lon="6.675">
        <ele>2311</ele>
        <time>2022-07-16T20:11:29Z</time>
      </trkpt>
      <trkpt lat="45.74004" lon="6.67502">
        <ele>2312</ele>
        <time>2022-07-16T20:11:32Z</time>
      </trkpt>
      <trkpt lat="45.74007" lon="6.67504">
        <ele>2312</ele>
        <time>2022-07-16T20:11:35Z</time>
      </trkpt>
      <trkpt lat="45.74009" lon="6.67505">
        <ele>2313</ele>
        <time>2022-07-16T20:11:38Z</time>
      </trkpt>
      <trkpt lat="45.74011" lon="6.67506">
        <ele>2313</ele>
        <time>2022-07-16T20:11:41Z</time>
      </trkpt>
      <trkpt lat="45.74013" lon="6.67508">
        <ele>2313</ele>
        <time>2022-07-16T20:11:44Z</time>
      </trkpt>
      <trkpt lat="45.74015" lon="6.67509">
        <ele>2313</ele>
        <time>2022-07-16T20:11:48Z</time>
      </trkpt>
      <trkpt lat="45.74017" lon="6.6751">
        <ele>2314</ele>
        <time>2022-07-16T20:11:50Z</time>
      </trkpt>
      <trkpt lat="45.74019" lon="6.67511">
        <ele>2315</ele>
        <time>2022-07-16T20:11:53Z</time>
      </trkpt>
      <trkpt lat="45.74022" lon="6.67512">
        <ele>2316</ele>
        <time>2022-07-16T20:11:56Z</time>
      </trkpt>
      <trkpt lat="45.74024" lon="6.67512">
        <ele>2316</ele>
        <time>2022-07-16T20:11:59Z</time>
      </trkpt>
      <trkpt lat="45.74026" lon="6.67512">
        <ele>2316</ele>
        <time>2022-07-16T20:12:02Z</time>
      </trkpt>
      <trkpt lat="45.74028" lon="6.67512">
        <ele>2317</ele>
        <time>2022-07-16T20:12:05Z</time>
      </trkpt>
      <trkpt lat="45.7403" lon="6.67513">
        <ele>2317</ele>
        <time>2022-07-16T20:12:08Z</time>
      </trkpt>
      <trkpt lat="45.74032" lon="6.67513">
        <ele>2318</ele>
        <time>2022-07-16T20:12:11Z</time>
      </trkpt>
      <trkpt lat="45.74035" lon="6.67513">
        <ele>2318</ele>
        <time>2022-07-16T20:12:15Z</time>
      </trkpt>
      <trkpt lat="45.74037" lon="6.67513">
        <ele>2318</ele>
        <time>2022-07-16T20:12:18Z</time>
      </trkpt>
      <trkpt lat="45.74039" lon="6.67513">
        <ele>2319</ele>
        <time>2022-07-16T20:12:21Z</time>
      </trkpt>
      <trkpt lat="45.74041" lon="6.67513">
        <ele>2320</ele>
        <time>2022-07-16T20:12:24Z</time>
      </trkpt>
      <trkpt lat="45.74043" lon="6.67512">
        <ele>2321</ele>
        <time>2022-07-16T20:12:27Z</time>
      </trkpt>
      <trkpt lat="45.74045" lon="6.6751">
        <ele>2321</ele>
        <time>2022-07-16T20:12:31Z</time>
      </trkpt>
      <trkpt lat="45.74046" lon="6.67509">
        <ele>2322</ele>
        <time>2022-07-16T20:12:34Z</time>
      </trkpt>
      <trkpt lat="45.74048" lon="6.67508">
        <ele>2322</ele>
        <time>2022-07-16T20:12:38Z</time>
      </trkpt>
      <trkpt lat="45.7405" lon="6.67508">
        <ele>2323</ele>
        <time>2022-07-16T20:12:41Z</time>
      </trkpt>
      <trkpt lat="45.74052" lon="6.67506">
        <ele>2323</ele>
        <time>2022-07-16T20:12:45Z</time>
      </trkpt>
      <trkpt lat="45.74054" lon="6.67505">
        <ele>2324</ele>
        <time>2022-07-16T20:12:48Z</time>
      </trkpt>
      <trkpt lat="45.74054" lon="6.67502">
        <ele>2324</ele>
        <time>2022-07-16T20:12:51Z</time>
      </trkpt>
      <trkpt lat="45.74055" lon="6.67499">
        <ele>2326</ele>
        <time>2022-07-16T20:12:56Z</time>
      </trkpt>
      <trkpt lat="45.74056" lon="6.67496">
        <ele>2328</ele>
        <time>2022-07-16T20:12:59Z</time>
      </trkpt>
      <trkpt lat="45.74057" lon="6.67493">
        <ele>2328</ele>
        <time>2022-07-16T20:13:05Z</time>
      </trkpt>
      <trkpt lat="45.74058" lon="6.6749">
        <ele>2329</ele>
        <time>2022-07-16T20:13:09Z</time>
      </trkpt>
      <trkpt lat="45.74057" lon="6.67487">
        <ele>2329</ele>
        <time>2022-07-16T20:13:12Z</time>
      </trkpt>
      <trkpt lat="45.74057" lon="6.67484">
        <ele>2329</ele>
        <time>2022-07-16T20:13:15Z</time>
      </trkpt>
      <trkpt lat="45.74057" lon="6.6748">
        <ele>2331</ele>
        <time>2022-07-16T20:13:19Z</time>
      </trkpt>
      <trkpt lat="45.74057" lon="6.67477">
        <ele>2331</ele>
        <time>2022-07-16T20:13:21Z</time>
      </trkpt>
      <trkpt lat="45.74058" lon="6.67474">
        <ele>2331</ele>
        <time>2022-07-16T20:13:24Z</time>
      </trkpt>
      <trkpt lat="45.74058" lon="6.6747">
        <ele>2332</ele>
        <time>2022-07-16T20:13:28Z</time>
      </trkpt>
      <trkpt lat="45.74058" lon="6.67468">
        <ele>2333</ele>
        <time>2022-07-16T20:13:31Z</time>
      </trkpt>
      <trkpt lat="45.74058" lon="6.67464">
        <ele>2334</ele>
        <time>2022-07-16T20:13:35Z</time>
      </trkpt>
      <trkpt lat="45.74058" lon="6.67462">
        <ele>2334</ele>
        <time>2022-07-16T20:13:39Z</time>
      </trkpt>
      <trkpt lat="45.74058" lon="6.67459">
        <ele>2335</ele>
        <time>2022-07-16T20:13:43Z</time>
      </trkpt>
      <trkpt lat="45.74057" lon="6.67456">
        <ele>2335</ele>
        <time>2022-07-16T20:13:46Z</time>
      </trkpt>
      <trkpt lat="45.74057" lon="6.67453">
        <ele>2336</ele>
        <time>2022-07-16T20:13:50Z</time>
      </trkpt>
      <trkpt lat="45.74057" lon="6.6745">
        <ele>2336</ele>
        <time>2022-07-16T20:13:52Z</time>
      </trkpt>
      <trkpt lat="45.74058" lon="6.67447">
        <ele>2336</ele>
        <time>2022-07-16T20:13:55Z</time>
      </trkpt>
      <trkpt lat="45.74058" lon="6.67444">
        <ele>2337</ele>
        <time>2022-07-16T20:13:58Z</time>
      </trkpt>
      <trkpt lat="45.74058" lon="6.67441">
        <ele>2338</ele>
        <time>2022-07-16T20:14:01Z</time>
      </trkpt>
      <trkpt lat="45.74058" lon="6.67439">
        <ele>2338</ele>
        <time>2022-07-16T20:14:02Z</time>
      </trkpt>
      <trkpt lat="45.74059" lon="6.67436">
        <ele>2337</ele>
        <time>2022-07-16T20:14:04Z</time>
      </trkpt>
      <trkpt lat="45.74059" lon="6.67433">
        <ele>2337</ele>
        <time>2022-07-16T20:14:06Z</time>
      </trkpt>
      <trkpt lat="45.7406" lon="6.6743">
        <ele>2338</ele>
        <time>2022-07-16T20:14:08Z</time>
      </trkpt>
      <trkpt lat="45.74061" lon="6.67428">
        <ele>2338</ele>
        <time>2022-07-16T20:14:10Z</time>
      </trkpt>
      <trkpt lat="45.74062" lon="6.67425">
        <ele>2338</ele>
        <time>2022-07-16T20:14:12Z</time>
      </trkpt>
      <trkpt lat="45.74064" lon="6.67422">
        <ele>2338</ele>
        <time>2022-07-16T20:14:14Z</time>
      </trkpt>
      <trkpt lat="45.74066" lon="6.67419">
        <ele>2338</ele>
        <time>2022-07-16T20:14:16Z</time>
      </trkpt>
      <trkpt lat="45.74067" lon="6.67418">
        <ele>2338</ele>
        <time>2022-07-16T20:14:18Z</time>
      </trkpt>
      <trkpt lat="45.74069" lon="6.67416">
        <ele>2338</ele>
        <time>2022-07-16T20:14:21Z</time>
      </trkpt>
      <trkpt lat="45.74071" lon="6.67413">
        <ele>2337</ele>
        <time>2022-07-16T20:14:23Z</time>
      </trkpt>
      <trkpt lat="45.74071" lon="6.67409">
        <ele>2337</ele>
        <time>2022-07-16T20:14:26Z</time>
      </trkpt>
      <trkpt lat="45.74072" lon="6.67406">
        <ele>2337</ele>
        <time>2022-07-16T20:14:28Z</time>
      </trkpt>
      <trkpt lat="45.74072" lon="6.67404">
        <ele>2337</ele>
        <time>2022-07-16T20:14:31Z</time>
      </trkpt>
      <trkpt lat="45.74073" lon="6.67401">
        <ele>2338</ele>
        <time>2022-07-16T20:14:35Z</time>
      </trkpt>
      <trkpt lat="45.74074" lon="6.67397">
        <ele>2338</ele>
        <time>2022-07-16T20:14:39Z</time>
      </trkpt>
      <trkpt lat="45.74073" lon="6.67394">
        <ele>2339</ele>
        <time>2022-07-16T20:14:44Z</time>
      </trkpt>
      <trkpt lat="45.74073" lon="6.67391">
        <ele>2339</ele>
        <time>2022-07-16T20:14:46Z</time>
      </trkpt>
      <trkpt lat="45.74072" lon="6.67387">
        <ele>2340</ele>
        <time>2022-07-16T20:14:49Z</time>
      </trkpt>
      <trkpt lat="45.74072" lon="6.67384">
        <ele>2342</ele>
        <time>2022-07-16T20:14:52Z</time>
      </trkpt>
      <trkpt lat="45.74073" lon="6.67381">
        <ele>2342</ele>
        <time>2022-07-16T20:14:56Z</time>
      </trkpt>
      <trkpt lat="45.74074" lon="6.67378">
        <ele>2342</ele>
        <time>2022-07-16T20:14:58Z</time>
      </trkpt>
      <trkpt lat="45.74075" lon="6.67374">
        <ele>2343</ele>
        <time>2022-07-16T20:15:01Z</time>
      </trkpt>
      <trkpt lat="45.74077" lon="6.67372">
        <ele>2343</ele>
        <time>2022-07-16T20:15:04Z</time>
      </trkpt>
      <trkpt lat="45.74078" lon="6.67371">
        <ele>2343</ele>
        <time>2022-07-16T20:15:06Z</time>
      </trkpt>
      <trkpt lat="45.7408" lon="6.67369">
        <ele>2344</ele>
        <time>2022-07-16T20:15:09Z</time>
      </trkpt>
      <trkpt lat="45.74082" lon="6.67366">
        <ele>2344</ele>
        <time>2022-07-16T20:15:12Z</time>
      </trkpt>
      <trkpt lat="45.74083" lon="6.67364">
        <ele>2344</ele>
        <time>2022-07-16T20:15:15Z</time>
      </trkpt>
      <trkpt lat="45.74085" lon="6.67361">
        <ele>2344</ele>
        <time>2022-07-16T20:15:17Z</time>
      </trkpt>
      <trkpt lat="45.74086" lon="6.67359">
        <ele>2345</ele>
        <time>2022-07-16T20:15:19Z</time>
      </trkpt>
      <trkpt lat="45.74088" lon="6.67357">
        <ele>2345</ele>
        <time>2022-07-16T20:15:21Z</time>
      </trkpt>
      <trkpt lat="45.74089" lon="6.67355">
        <ele>2345</ele>
        <time>2022-07-16T20:15:23Z</time>
      </trkpt>
      <trkpt lat="45.74091" lon="6.67353">
        <ele>2345</ele>
        <time>2022-07-16T20:15:25Z</time>
      </trkpt>
      <trkpt lat="45.74092" lon="6.67352">
        <ele>2345</ele>
        <time>2022-07-16T20:15:27Z</time>
      </trkpt>
      <trkpt lat="45.74094" lon="6.6735">
        <ele>2346</ele>
        <time>2022-07-16T20:15:29Z</time>
      </trkpt>
      <trkpt lat="45.74096" lon="6.67349">
        <ele>2346</ele>
        <time>2022-07-16T20:15:31Z</time>
      </trkpt>
      <trkpt lat="45.74097" lon="6.67348">
        <ele>2346</ele>
        <time>2022-07-16T20:15:33Z</time>
      </trkpt>
      <trkpt lat="45.74099" lon="6.67346">
        <ele>2346</ele>
        <time>2022-07-16T20:15:35Z</time>
      </trkpt>
      <trkpt lat="45.74101" lon="6.67343">
        <ele>2347</ele>
        <time>2022-07-16T20:15:38Z</time>
      </trkpt>
      <trkpt lat="45.74102" lon="6.67341">
        <ele>2347</ele>
        <time>2022-07-16T20:15:40Z</time>
      </trkpt>
      <trkpt lat="45.74103" lon="6.67339">
        <ele>2347</ele>
        <time>2022-07-16T20:15:42Z</time>
      </trkpt>
      <trkpt lat="45.74104" lon="6.67337">
        <ele>2347</ele>
        <time>2022-07-16T20:15:44Z</time>
      </trkpt>
      <trkpt lat="45.74106" lon="6.67335">
        <ele>2348</ele>
        <time>2022-07-16T20:15:47Z</time>
      </trkpt>
      <trkpt lat="45.74108" lon="6.67332">
        <ele>2348</ele>
        <time>2022-07-16T20:15:50Z</time>
      </trkpt>
      <trkpt lat="45.7411" lon="6.67329">
        <ele>2348</ele>
        <time>2022-07-16T20:15:53Z</time>
      </trkpt>
      <trkpt lat="45.74111" lon="6.67326">
        <ele>2348</ele>
        <time>2022-07-16T20:15:56Z</time>
      </trkpt>
      <trkpt lat="45.74113" lon="6.67324">
        <ele>2348</ele>
        <time>2022-07-16T20:15:58Z</time>
      </trkpt>
      <trkpt lat="45.74114" lon="6.67321">
        <ele>2348</ele>
        <time>2022-07-16T20:16:01Z</time>
      </trkpt>
      <trkpt lat="45.74115" lon="6.67319">
        <ele>2349</ele>
        <time>2022-07-16T20:16:03Z</time>
      </trkpt>
      <trkpt lat="45.74117" lon="6.67316">
        <ele>2349</ele>
        <time>2022-07-16T20:16:06Z</time>
      </trkpt>
      <trkpt lat="45.74119" lon="6.67314">
        <ele>2350</ele>
        <time>2022-07-16T20:16:09Z</time>
      </trkpt>
      <trkpt lat="45.7412" lon="6.67312">
        <ele>2350</ele>
        <time>2022-07-16T20:16:12Z</time>
      </trkpt>
      <trkpt lat="45.74122" lon="6.67309">
        <ele>2352</ele>
        <time>2022-07-16T20:16:15Z</time>
      </trkpt>
      <trkpt lat="45.74124" lon="6.67307">
        <ele>2352</ele>
        <time>2022-07-16T20:16:18Z</time>
      </trkpt>
      <trkpt lat="45.74126" lon="6.67305">
        <ele>2352</ele>
        <time>2022-07-16T20:16:21Z</time>
      </trkpt>
      <trkpt lat="45.74128" lon="6.67303">
        <ele>2353</ele>
        <time>2022-07-16T20:16:24Z</time>
      </trkpt>
      <trkpt lat="45.74129" lon="6.67302">
        <ele>2353</ele>
        <time>2022-07-16T20:16:27Z</time>
      </trkpt>
      <trkpt lat="45.74131" lon="6.673">
        <ele>2354</ele>
        <time>2022-07-16T20:16:30Z</time>
      </trkpt>
      <trkpt lat="45.74133" lon="6.67297">
        <ele>2354</ele>
        <time>2022-07-16T20:16:33Z</time>
      </trkpt>
      <trkpt lat="45.74134" lon="6.67295">
        <ele>2355</ele>
        <time>2022-07-16T20:16:36Z</time>
      </trkpt>
      <trkpt lat="45.74135" lon="6.67292">
        <ele>2356</ele>
        <time>2022-07-16T20:16:39Z</time>
      </trkpt>
      <trkpt lat="45.74136" lon="6.6729">
        <ele>2357</ele>
        <time>2022-07-16T20:16:43Z</time>
      </trkpt>
      <trkpt lat="45.74137" lon="6.67288">
        <ele>2357</ele>
        <time>2022-07-16T20:16:46Z</time>
      </trkpt>
      <trkpt lat="45.74139" lon="6.67285">
        <ele>2357</ele>
        <time>2022-07-16T20:16:49Z</time>
      </trkpt>
      <trkpt lat="45.74139" lon="6.67283">
        <ele>2358</ele>
        <time>2022-07-16T20:16:53Z</time>
      </trkpt>
      <trkpt lat="45.7414" lon="6.6728">
        <ele>2358</ele>
        <time>2022-07-16T20:16:55Z</time>
      </trkpt>
      <trkpt lat="45.74142" lon="6.67277">
        <ele>2358</ele>
        <time>2022-07-16T20:16:58Z</time>
      </trkpt>
      <trkpt lat="45.74143" lon="6.67276">
        <ele>2359</ele>
        <time>2022-07-16T20:17:02Z</time>
      </trkpt>
      <trkpt lat="45.74145" lon="6.67274">
        <ele>2359</ele>
        <time>2022-07-16T20:17:04Z</time>
      </trkpt>
      <trkpt lat="45.74147" lon="6.67272">
        <ele>2360</ele>
        <time>2022-07-16T20:17:07Z</time>
      </trkpt>
      <trkpt lat="45.74149" lon="6.6727">
        <ele>2360</ele>
        <time>2022-07-16T20:17:11Z</time>
      </trkpt>
      <trkpt lat="45.74151" lon="6.67269">
        <ele>2360</ele>
        <time>2022-07-16T20:17:14Z</time>
      </trkpt>
      <trkpt lat="45.74153" lon="6.67267">
        <ele>2360</ele>
        <time>2022-07-16T20:17:16Z</time>
      </trkpt>
      <trkpt lat="45.74155" lon="6.67264">
        <ele>2361</ele>
        <time>2022-07-16T20:17:19Z</time>
      </trkpt>
      <trkpt lat="45.74157" lon="6.67263">
        <ele>2362</ele>
        <time>2022-07-16T20:17:22Z</time>
      </trkpt>
      <trkpt lat="45.74159" lon="6.67262">
        <ele>2363</ele>
        <time>2022-07-16T20:17:26Z</time>
      </trkpt>
      <trkpt lat="45.74161" lon="6.6726">
        <ele>2364</ele>
        <time>2022-07-16T20:17:31Z</time>
      </trkpt>
      <trkpt lat="45.74163" lon="6.67259">
        <ele>2364</ele>
        <time>2022-07-16T20:17:34Z</time>
      </trkpt>
      <trkpt lat="45.74164" lon="6.67257">
        <ele>2365</ele>
        <time>2022-07-16T20:17:38Z</time>
      </trkpt>
      <trkpt lat="45.74166" lon="6.67254">
        <ele>2365</ele>
        <time>2022-07-16T20:17:42Z</time>
      </trkpt>
      <trkpt lat="45.74167" lon="6.67252">
        <ele>2366</ele>
        <time>2022-07-16T20:17:46Z</time>
      </trkpt>
      <trkpt lat="45.74167" lon="6.67249">
        <ele>2367</ele>
        <time>2022-07-16T20:17:50Z</time>
      </trkpt>
      <trkpt lat="45.74169" lon="6.67247">
        <ele>2367</ele>
        <time>2022-07-16T20:17:53Z</time>
      </trkpt>
      <trkpt lat="45.74171" lon="6.67247">
        <ele>2368</ele>
        <time>2022-07-16T20:17:56Z</time>
      </trkpt>
      <trkpt lat="45.74174" lon="6.67248">
        <ele>2368</ele>
        <time>2022-07-16T20:17:59Z</time>
      </trkpt>
      <trkpt lat="45.74176" lon="6.67248">
        <ele>2368</ele>
        <time>2022-07-16T20:18:02Z</time>
      </trkpt>
      <trkpt lat="45.74178" lon="6.67247">
        <ele>2368</ele>
        <time>2022-07-16T20:18:05Z</time>
      </trkpt>
      <trkpt lat="45.7418" lon="6.67246">
        <ele>2368</ele>
        <time>2022-07-16T20:18:08Z</time>
      </trkpt>
      <trkpt lat="45.74182" lon="6.67244">
        <ele>2369</ele>
        <time>2022-07-16T20:18:10Z</time>
      </trkpt>
      <trkpt lat="45.74184" lon="6.67243">
        <ele>2370</ele>
        <time>2022-07-16T20:18:13Z</time>
      </trkpt>
      <trkpt lat="45.74186" lon="6.67242">
        <ele>2370</ele>
        <time>2022-07-16T20:18:16Z</time>
      </trkpt>
      <trkpt lat="45.74188" lon="6.6724">
        <ele>2370</ele>
        <time>2022-07-16T20:18:19Z</time>
      </trkpt>
      <trkpt lat="45.7419" lon="6.67239">
        <ele>2370</ele>
        <time>2022-07-16T20:18:21Z</time>
      </trkpt>
      <trkpt lat="45.74192" lon="6.67238">
        <ele>2370</ele>
        <time>2022-07-16T20:18:23Z</time>
      </trkpt>
      <trkpt lat="45.74194" lon="6.67238">
        <ele>2371</ele>
        <time>2022-07-16T20:18:27Z</time>
      </trkpt>
      <trkpt lat="45.74197" lon="6.67237">
        <ele>2371</ele>
        <time>2022-07-16T20:18:30Z</time>
      </trkpt>
      <trkpt lat="45.742" lon="6.67236">
        <ele>2371</ele>
        <time>2022-07-16T20:18:32Z</time>
      </trkpt>
      <trkpt lat="45.74202" lon="6.67235">
        <ele>2372</ele>
        <time>2022-07-16T20:18:35Z</time>
      </trkpt>
      <trkpt lat="45.74204" lon="6.67235">
        <ele>2372</ele>
        <time>2022-07-16T20:18:38Z</time>
      </trkpt>
      <trkpt lat="45.74206" lon="6.67234">
        <ele>2373</ele>
        <time>2022-07-16T20:18:41Z</time>
      </trkpt>
      <trkpt lat="45.74207" lon="6.67233">
        <ele>2373</ele>
        <time>2022-07-16T20:18:44Z</time>
      </trkpt>
      <trkpt lat="45.74209" lon="6.67232">
        <ele>2374</ele>
        <time>2022-07-16T20:18:47Z</time>
      </trkpt>
      <trkpt lat="45.74211" lon="6.67232">
        <ele>2375</ele>
        <time>2022-07-16T20:18:50Z</time>
      </trkpt>
      <trkpt lat="45.74213" lon="6.67231">
        <ele>2375</ele>
        <time>2022-07-16T20:18:53Z</time>
      </trkpt>
      <trkpt lat="45.74215" lon="6.67231">
        <ele>2375</ele>
        <time>2022-07-16T20:18:56Z</time>
      </trkpt>
      <trkpt lat="45.74217" lon="6.67231">
        <ele>2378</ele>
        <time>2022-07-16T20:19:01Z</time>
      </trkpt>
      <trkpt lat="45.74219" lon="6.67229">
        <ele>2379</ele>
        <time>2022-07-16T20:19:05Z</time>
      </trkpt>
      <trkpt lat="45.74222" lon="6.67228">
        <ele>2379</ele>
        <time>2022-07-16T20:19:08Z</time>
      </trkpt>
      <trkpt lat="45.74223" lon="6.67228">
        <ele>2379</ele>
        <time>2022-07-16T20:19:11Z</time>
      </trkpt>
      <trkpt lat="45.74225" lon="6.67228">
        <ele>2379</ele>
        <time>2022-07-16T20:19:15Z</time>
      </trkpt>
      <trkpt lat="45.74228" lon="6.67227">
        <ele>2381</ele>
        <time>2022-07-16T20:19:17Z</time>
      </trkpt>
      <trkpt lat="45.74229" lon="6.67226">
        <ele>2381</ele>
        <time>2022-07-16T20:19:21Z</time>
      </trkpt>
      <trkpt lat="45.74231" lon="6.67226">
        <ele>2381</ele>
        <time>2022-07-16T20:19:24Z</time>
      </trkpt>
      <trkpt lat="45.74233" lon="6.67226">
        <ele>2381</ele>
        <time>2022-07-16T20:19:26Z</time>
      </trkpt>
      <trkpt lat="45.74236" lon="6.67225">
        <ele>2382</ele>
        <time>2022-07-16T20:19:29Z</time>
      </trkpt>
      <trkpt lat="45.74237" lon="6.67225">
        <ele>2382</ele>
        <time>2022-07-16T20:19:32Z</time>
      </trkpt>
      <trkpt lat="45.7424" lon="6.67225">
        <ele>2382</ele>
        <time>2022-07-16T20:19:34Z</time>
      </trkpt>
      <trkpt lat="45.74242" lon="6.67224">
        <ele>2383</ele>
        <time>2022-07-16T20:19:37Z</time>
      </trkpt>
      <trkpt lat="45.74244" lon="6.67224">
        <ele>2383</ele>
        <time>2022-07-16T20:19:40Z</time>
      </trkpt>
      <trkpt lat="45.74246" lon="6.67223">
        <ele>2383</ele>
        <time>2022-07-16T20:19:42Z</time>
      </trkpt>
      <trkpt lat="45.74248" lon="6.67223">
        <ele>2383</ele>
        <time>2022-07-16T20:19:45Z</time>
      </trkpt>
      <trkpt lat="45.7425" lon="6.67223">
        <ele>2383</ele>
        <time>2022-07-16T20:19:48Z</time>
      </trkpt>
      <trkpt lat="45.74252" lon="6.67223">
        <ele>2385</ele>
        <time>2022-07-16T20:19:51Z</time>
      </trkpt>
      <trkpt lat="45.74255" lon="6.67222">
        <ele>2386</ele>
        <time>2022-07-16T20:19:54Z</time>
      </trkpt>
      <trkpt lat="45.74257" lon="6.67221">
        <ele>2386</ele>
        <time>2022-07-16T20:19:56Z</time>
      </trkpt>
      <trkpt lat="45.74259" lon="6.6722">
        <ele>2386</ele>
        <time>2022-07-16T20:19:59Z</time>
      </trkpt>
      <trkpt lat="45.74261" lon="6.6722">
        <ele>2387</ele>
        <time>2022-07-16T20:20:02Z</time>
      </trkpt>
      <trkpt lat="45.74263" lon="6.67219">
        <ele>2387</ele>
        <time>2022-07-16T20:20:05Z</time>
      </trkpt>
      <trkpt lat="45.74265" lon="6.67219">
        <ele>2388</ele>
        <time>2022-07-16T20:20:09Z</time>
      </trkpt>
      <trkpt lat="45.74267" lon="6.67219">
        <ele>2389</ele>
        <time>2022-07-16T20:20:11Z</time>
      </trkpt>
      <trkpt lat="45.7427" lon="6.67218">
        <ele>2389</ele>
        <time>2022-07-16T20:20:14Z</time>
      </trkpt>
      <trkpt lat="45.74271" lon="6.67218">
        <ele>2389</ele>
        <time>2022-07-16T20:20:17Z</time>
      </trkpt>
      <trkpt lat="45.74273" lon="6.67216">
        <ele>2390</ele>
        <time>2022-07-16T20:20:20Z</time>
      </trkpt>
      <trkpt lat="45.74275" lon="6.67216">
        <ele>2390</ele>
        <time>2022-07-16T20:20:23Z</time>
      </trkpt>
      <trkpt lat="45.74277" lon="6.67215">
        <ele>2391</ele>
        <time>2022-07-16T20:20:26Z</time>
      </trkpt>
      <trkpt lat="45.74279" lon="6.67214">
        <ele>2391</ele>
        <time>2022-07-16T20:20:29Z</time>
      </trkpt>
      <trkpt lat="45.74281" lon="6.67214">
        <ele>2392</ele>
        <time>2022-07-16T20:20:32Z</time>
      </trkpt>
      <trkpt lat="45.74283" lon="6.67212">
        <ele>2392</ele>
        <time>2022-07-16T20:20:35Z</time>
      </trkpt>
      <trkpt lat="45.74285" lon="6.67212">
        <ele>2392</ele>
        <time>2022-07-16T20:20:37Z</time>
      </trkpt>
      <trkpt lat="45.74288" lon="6.67212">
        <ele>2393</ele>
        <time>2022-07-16T20:20:41Z</time>
      </trkpt>
      <trkpt lat="45.7429" lon="6.67213">
        <ele>2393</ele>
        <time>2022-07-16T20:20:43Z</time>
      </trkpt>
      <trkpt lat="45.74292" lon="6.67214">
        <ele>2393</ele>
        <time>2022-07-16T20:20:46Z</time>
      </trkpt>
      <trkpt lat="45.74294" lon="6.67213">
        <ele>2394</ele>
        <time>2022-07-16T20:20:48Z</time>
      </trkpt>
      <trkpt lat="45.74297" lon="6.67212">
        <ele>2395</ele>
        <time>2022-07-16T20:20:51Z</time>
      </trkpt>
      <trkpt lat="45.74299" lon="6.67212">
        <ele>2395</ele>
        <time>2022-07-16T20:20:54Z</time>
      </trkpt>
      <trkpt lat="45.74301" lon="6.67211">
        <ele>2396</ele>
        <time>2022-07-16T20:20:58Z</time>
      </trkpt>
      <trkpt lat="45.74303" lon="6.67211">
        <ele>2396</ele>
        <time>2022-07-16T20:21:00Z</time>
      </trkpt>
      <trkpt lat="45.74305" lon="6.67211">
        <ele>2396</ele>
        <time>2022-07-16T20:21:04Z</time>
      </trkpt>
      <trkpt lat="45.74307" lon="6.67211">
        <ele>2397</ele>
        <time>2022-07-16T20:21:06Z</time>
      </trkpt>
      <trkpt lat="45.74309" lon="6.6721">
        <ele>2397</ele>
        <time>2022-07-16T20:21:09Z</time>
      </trkpt>
      <trkpt lat="45.74311" lon="6.6721">
        <ele>2398</ele>
        <time>2022-07-16T20:21:12Z</time>
      </trkpt>
      <trkpt lat="45.74314" lon="6.67211">
        <ele>2398</ele>
        <time>2022-07-16T20:21:15Z</time>
      </trkpt>
      <trkpt lat="45.74316" lon="6.67211">
        <ele>2399</ele>
        <time>2022-07-16T20:21:19Z</time>
      </trkpt>
      <trkpt lat="45.74319" lon="6.67212">
        <ele>2400</ele>
        <time>2022-07-16T20:21:22Z</time>
      </trkpt>
      <trkpt lat="45.74321" lon="6.67213">
        <ele>2400</ele>
        <time>2022-07-16T20:21:24Z</time>
      </trkpt>
      <trkpt lat="45.74324" lon="6.67213">
        <ele>2400</ele>
        <time>2022-07-16T20:21:27Z</time>
      </trkpt>
      <trkpt lat="45.74326" lon="6.67214">
        <ele>2400</ele>
        <time>2022-07-16T20:21:29Z</time>
      </trkpt>
      <trkpt lat="45.74329" lon="6.67214">
        <ele>2400</ele>
        <time>2022-07-16T20:21:32Z</time>
      </trkpt>
      <trkpt lat="45.74331" lon="6.67214">
        <ele>2401</ele>
        <time>2022-07-16T20:21:36Z</time>
      </trkpt>
      <trkpt lat="45.74333" lon="6.67213">
        <ele>2401</ele>
        <time>2022-07-16T20:21:38Z</time>
      </trkpt>
      <trkpt lat="45.74336" lon="6.67213">
        <ele>2401</ele>
        <time>2022-07-16T20:21:40Z</time>
      </trkpt>
      <trkpt lat="45.74338" lon="6.67213">
        <ele>2401</ele>
        <time>2022-07-16T20:21:42Z</time>
      </trkpt>
      <trkpt lat="45.7434" lon="6.67212">
        <ele>2401</ele>
        <time>2022-07-16T20:21:44Z</time>
      </trkpt>
      <trkpt lat="45.74342" lon="6.6721">
        <ele>2401</ele>
        <time>2022-07-16T20:21:47Z</time>
      </trkpt>
      <trkpt lat="45.74344" lon="6.67209">
        <ele>2402</ele>
        <time>2022-07-16T20:21:49Z</time>
      </trkpt>
      <trkpt lat="45.74347" lon="6.67209">
        <ele>2402</ele>
        <time>2022-07-16T20:21:52Z</time>
      </trkpt>
      <trkpt lat="45.74349" lon="6.67209">
        <ele>2402</ele>
        <time>2022-07-16T20:21:54Z</time>
      </trkpt>
      <trkpt lat="45.74351" lon="6.67208">
        <ele>2402</ele>
        <time>2022-07-16T20:21:56Z</time>
      </trkpt>
      <trkpt lat="45.74353" lon="6.67208">
        <ele>2402</ele>
        <time>2022-07-16T20:21:59Z</time>
      </trkpt>
      <trkpt lat="45.74355" lon="6.67207">
        <ele>2404</ele>
        <time>2022-07-16T20:22:02Z</time>
      </trkpt>
      <trkpt lat="45.74357" lon="6.67207">
        <ele>2404</ele>
        <time>2022-07-16T20:22:07Z</time>
      </trkpt>
      <trkpt lat="45.74359" lon="6.67207">
        <ele>2404</ele>
        <time>2022-07-16T20:22:09Z</time>
      </trkpt>
      <trkpt lat="45.74362" lon="6.67207">
        <ele>2404</ele>
        <time>2022-07-16T20:22:12Z</time>
      </trkpt>
      <trkpt lat="45.74363" lon="6.67207">
        <ele>2404</ele>
        <time>2022-07-16T20:22:13Z</time>
      </trkpt>
      <trkpt lat="45.74365" lon="6.67206">
        <ele>2404</ele>
        <time>2022-07-16T20:22:16Z</time>
      </trkpt>
      <trkpt lat="45.74367" lon="6.67206">
        <ele>2404</ele>
        <time>2022-07-16T20:22:18Z</time>
      </trkpt>
      <trkpt lat="45.74369" lon="6.67205">
        <ele>2404</ele>
        <time>2022-07-16T20:22:19Z</time>
      </trkpt>
      <trkpt lat="45.74371" lon="6.67205">
        <ele>2404</ele>
        <time>2022-07-16T20:22:23Z</time>
      </trkpt>
      <trkpt lat="45.74373" lon="6.67205">
        <ele>2404</ele>
        <time>2022-07-16T20:22:24Z</time>
      </trkpt>
      <trkpt lat="45.74375" lon="6.67205">
        <ele>2404</ele>
        <time>2022-07-16T20:22:26Z</time>
      </trkpt>
      <trkpt lat="45.74378" lon="6.67205">
        <ele>2404</ele>
        <time>2022-07-16T20:22:28Z</time>
      </trkpt>
      <trkpt lat="45.7438" lon="6.67205">
        <ele>2404</ele>
        <time>2022-07-16T20:22:30Z</time>
      </trkpt>
      <trkpt lat="45.74383" lon="6.67205">
        <ele>2402</ele>
        <time>2022-07-16T20:22:32Z</time>
      </trkpt>
      <trkpt lat="45.74385" lon="6.67206">
        <ele>2404</ele>
        <time>2022-07-16T20:22:35Z</time>
      </trkpt>
      <trkpt lat="45.74387" lon="6.67206">
        <ele>2404</ele>
        <time>2022-07-16T20:22:36Z</time>
      </trkpt>
      <trkpt lat="45.74389" lon="6.67208">
        <ele>2402</ele>
        <time>2022-07-16T20:22:38Z</time>
      </trkpt>
      <trkpt lat="45.74389" lon="6.67208">
        <ele>2404</ele>
        <time>2022-07-16T20:22:53Z</time>
      </trkpt>
      <trkpt lat="45.74391" lon="6.67209">
        <ele>2404</ele>
        <time>2022-07-16T20:23:08Z</time>
      </trkpt>
      <trkpt lat="45.74391" lon="6.67209">
        <ele>2404</ele>
        <time>2022-07-16T20:23:10Z</time>
      </trkpt>
      <trkpt lat="45.74393" lon="6.6721">
        <ele>2402</ele>
        <time>2022-07-16T20:23:13Z</time>
      </trkpt>
      <trkpt lat="45.74395" lon="6.6721">
        <ele>2402</ele>
        <time>2022-07-16T20:23:17Z</time>
      </trkpt>
      <trkpt lat="45.74397" lon="6.67209">
        <ele>2402</ele>
        <time>2022-07-16T20:23:19Z</time>
      </trkpt>
      <trkpt lat="45.74399" lon="6.67209">
        <ele>2401</ele>
        <time>2022-07-16T20:23:21Z</time>
      </trkpt>
      <trkpt lat="45.74401" lon="6.67209">
        <ele>2401</ele>
        <time>2022-07-16T20:23:23Z</time>
      </trkpt>
      <trkpt lat="45.74403" lon="6.6721">
        <ele>2401</ele>
        <time>2022-07-16T20:23:25Z</time>
      </trkpt>
      <trkpt lat="45.74406" lon="6.67211">
        <ele>2400</ele>
        <time>2022-07-16T20:23:27Z</time>
      </trkpt>
      <trkpt lat="45.74407" lon="6.67212">
        <ele>2400</ele>
        <time>2022-07-16T20:23:30Z</time>
      </trkpt>
      <trkpt lat="45.74409" lon="6.67212">
        <ele>2400</ele>
        <time>2022-07-16T20:23:32Z</time>
      </trkpt>
      <trkpt lat="45.74412" lon="6.67213">
        <ele>2399</ele>
        <time>2022-07-16T20:23:34Z</time>
      </trkpt>
      <trkpt lat="45.74414" lon="6.67214">
        <ele>2399</ele>
        <time>2022-07-16T20:23:36Z</time>
      </trkpt>
      <trkpt lat="45.74416" lon="6.67214">
        <ele>2399</ele>
        <time>2022-07-16T20:23:38Z</time>
      </trkpt>
      <trkpt lat="45.74418" lon="6.67214">
        <ele>2398</ele>
        <time>2022-07-16T20:23:40Z</time>
      </trkpt>
      <trkpt lat="45.74421" lon="6.67214">
        <ele>2398</ele>
        <time>2022-07-16T20:23:42Z</time>
      </trkpt>
      <trkpt lat="45.74423" lon="6.67214">
        <ele>2397</ele>
        <time>2022-07-16T20:23:44Z</time>
      </trkpt>
      <trkpt lat="45.74425" lon="6.67215">
        <ele>2397</ele>
        <time>2022-07-16T20:23:46Z</time>
      </trkpt>
      <trkpt lat="45.74428" lon="6.67215">
        <ele>2396</ele>
        <time>2022-07-16T20:23:48Z</time>
      </trkpt>
      <trkpt lat="45.7443" lon="6.67215">
        <ele>2396</ele>
        <time>2022-07-16T20:23:50Z</time>
      </trkpt>
      <trkpt lat="45.74432" lon="6.67215">
        <ele>2395</ele>
        <time>2022-07-16T20:23:52Z</time>
      </trkpt>
      <trkpt lat="45.74434" lon="6.67215">
        <ele>2395</ele>
        <time>2022-07-16T20:23:54Z</time>
      </trkpt>
      <trkpt lat="45.74437" lon="6.67216">
        <ele>2394</ele>
        <time>2022-07-16T20:23:57Z</time>
      </trkpt>
      <trkpt lat="45.74438" lon="6.67212">
        <ele>2393</ele>
        <time>2022-07-16T20:24:00Z</time>
      </trkpt>
      <trkpt lat="45.74439" lon="6.67209">
        <ele>2393</ele>
        <time>2022-07-16T20:24:02Z</time>
      </trkpt>
      <trkpt lat="45.74438" lon="6.67206">
        <ele>2393</ele>
        <time>2022-07-16T20:24:05Z</time>
      </trkpt>
      <trkpt lat="45.74437" lon="6.67204">
        <ele>2393</ele>
        <time>2022-07-16T20:24:06Z</time>
      </trkpt>
      <trkpt lat="45.74435" lon="6.67201">
        <ele>2393</ele>
        <time>2022-07-16T20:24:09Z</time>
      </trkpt>
      <trkpt lat="45.74434" lon="6.67198">
        <ele>2393</ele>
        <time>2022-07-16T20:24:10Z</time>
      </trkpt>
      <trkpt lat="45.74432" lon="6.67196">
        <ele>2393</ele>
        <time>2022-07-16T20:24:12Z</time>
      </trkpt>
      <trkpt lat="45.74431" lon="6.67194">
        <ele>2394</ele>
        <time>2022-07-16T20:24:14Z</time>
      </trkpt>
      <trkpt lat="45.74429" lon="6.67191">
        <ele>2394</ele>
        <time>2022-07-16T20:24:16Z</time>
      </trkpt>
      <trkpt lat="45.74427" lon="6.67189">
        <ele>2394</ele>
        <time>2022-07-16T20:24:18Z</time>
      </trkpt>
      <trkpt lat="45.74425" lon="6.67187">
        <ele>2394</ele>
        <time>2022-07-16T20:24:20Z</time>
      </trkpt>
      <trkpt lat="45.74423" lon="6.67185">
        <ele>2394</ele>
        <time>2022-07-16T20:24:22Z</time>
      </trkpt>
      <trkpt lat="45.74421" lon="6.67183">
        <ele>2394</ele>
        <time>2022-07-16T20:24:24Z</time>
      </trkpt>
      <trkpt lat="45.74419" lon="6.67181">
        <ele>2394</ele>
        <time>2022-07-16T20:24:26Z</time>
      </trkpt>
      <trkpt lat="45.74418" lon="6.67179">
        <ele>2394</ele>
        <time>2022-07-16T20:24:29Z</time>
      </trkpt>
      <trkpt lat="45.74417" lon="6.67176">
        <ele>2394</ele>
        <time>2022-07-16T20:24:30Z</time>
      </trkpt>
      <trkpt lat="45.74415" lon="6.67173">
        <ele>2395</ele>
        <time>2022-07-16T20:24:33Z</time>
      </trkpt>
      <trkpt lat="45.74414" lon="6.67171">
        <ele>2395</ele>
        <time>2022-07-16T20:24:34Z</time>
      </trkpt>
      <trkpt lat="45.74413" lon="6.67169">
        <ele>2395</ele>
        <time>2022-07-16T20:24:36Z</time>
      </trkpt>
      <trkpt lat="45.74411" lon="6.67168">
        <ele>2395</ele>
        <time>2022-07-16T20:24:38Z</time>
      </trkpt>
      <trkpt lat="45.74409" lon="6.67165">
        <ele>2396</ele>
        <time>2022-07-16T20:24:41Z</time>
      </trkpt>
      <trkpt lat="45.74407" lon="6.67163">
        <ele>2396</ele>
        <time>2022-07-16T20:24:44Z</time>
      </trkpt>
      <trkpt lat="45.74405" lon="6.67161">
        <ele>2396</ele>
        <time>2022-07-16T20:24:47Z</time>
      </trkpt>
      <trkpt lat="45.74404" lon="6.67159">
        <ele>2396</ele>
        <time>2022-07-16T20:24:48Z</time>
      </trkpt>
      <trkpt lat="45.74402" lon="6.67157">
        <ele>2396</ele>
        <time>2022-07-16T20:24:51Z</time>
      </trkpt>
      <trkpt lat="45.744" lon="6.67154">
        <ele>2396</ele>
        <time>2022-07-16T20:24:53Z</time>
      </trkpt>
      <trkpt lat="45.74398" lon="6.67152">
        <ele>2396</ele>
        <time>2022-07-16T20:24:55Z</time>
      </trkpt>
      <trkpt lat="45.74396" lon="6.6715">
        <ele>2396</ele>
        <time>2022-07-16T20:24:57Z</time>
      </trkpt>
      <trkpt lat="45.74395" lon="6.67148">
        <ele>2397</ele>
        <time>2022-07-16T20:25:00Z</time>
      </trkpt>
      <trkpt lat="45.74393" lon="6.67146">
        <ele>2397</ele>
        <time>2022-07-16T20:25:01Z</time>
      </trkpt>
      <trkpt lat="45.74392" lon="6.67145">
        <ele>2397</ele>
        <time>2022-07-16T20:25:03Z</time>
      </trkpt>
      <trkpt lat="45.7439" lon="6.67143">
        <ele>2397</ele>
        <time>2022-07-16T20:25:05Z</time>
      </trkpt>
      <trkpt lat="45.74388" lon="6.67142">
        <ele>2398</ele>
        <time>2022-07-16T20:25:07Z</time>
      </trkpt>
      <trkpt lat="45.74386" lon="6.6714">
        <ele>2398</ele>
        <time>2022-07-16T20:25:09Z</time>
      </trkpt>
      <trkpt lat="45.74384" lon="6.67138">
        <ele>2398</ele>
        <time>2022-07-16T20:25:11Z</time>
      </trkpt>
      <trkpt lat="45.74383" lon="6.67137">
        <ele>2398</ele>
        <time>2022-07-16T20:25:13Z</time>
      </trkpt>
      <trkpt lat="45.74381" lon="6.67135">
        <ele>2398</ele>
        <time>2022-07-16T20:25:15Z</time>
      </trkpt>
      <trkpt lat="45.74379" lon="6.67134">
        <ele>2398</ele>
        <time>2022-07-16T20:25:17Z</time>
      </trkpt>
      <trkpt lat="45.74377" lon="6.67132">
        <ele>2398</ele>
        <time>2022-07-16T20:25:19Z</time>
      </trkpt>
      <trkpt lat="45.74375" lon="6.67131">
        <ele>2398</ele>
        <time>2022-07-16T20:25:21Z</time>
      </trkpt>
      <trkpt lat="45.74373" lon="6.67129">
        <ele>2398</ele>
        <time>2022-07-16T20:25:23Z</time>
      </trkpt>
      <trkpt lat="45.74371" lon="6.67127">
        <ele>2399</ele>
        <time>2022-07-16T20:25:26Z</time>
      </trkpt>
      <trkpt lat="45.74369" lon="6.67126">
        <ele>2399</ele>
        <time>2022-07-16T20:25:27Z</time>
      </trkpt>
      <trkpt lat="45.74367" lon="6.67124">
        <ele>2399</ele>
        <time>2022-07-16T20:25:29Z</time>
      </trkpt>
      <trkpt lat="45.74365" lon="6.67122">
        <ele>2399</ele>
        <time>2022-07-16T20:25:31Z</time>
      </trkpt>
      <trkpt lat="45.74363" lon="6.67121">
        <ele>2399</ele>
        <time>2022-07-16T20:25:33Z</time>
      </trkpt>
      <trkpt lat="45.7436" lon="6.67119">
        <ele>2399</ele>
        <time>2022-07-16T20:25:35Z</time>
      </trkpt>
      <trkpt lat="45.74358" lon="6.67117">
        <ele>2399</ele>
        <time>2022-07-16T20:25:37Z</time>
      </trkpt>
      <trkpt lat="45.74356" lon="6.67115">
        <ele>2399</ele>
        <time>2022-07-16T20:25:39Z</time>
      </trkpt>
      <trkpt lat="45.74354" lon="6.67114">
        <ele>2399</ele>
        <time>2022-07-16T20:25:41Z</time>
      </trkpt>
      <trkpt lat="45.74352" lon="6.67111">
        <ele>2399</ele>
        <time>2022-07-16T20:25:44Z</time>
      </trkpt>
      <trkpt lat="45.7435" lon="6.67109">
        <ele>2400</ele>
        <time>2022-07-16T20:25:45Z</time>
      </trkpt>
      <trkpt lat="45.74348" lon="6.67107">
        <ele>2400</ele>
        <time>2022-07-16T20:25:47Z</time>
      </trkpt>
      <trkpt lat="45.74346" lon="6.67105">
        <ele>2400</ele>
        <time>2022-07-16T20:25:49Z</time>
      </trkpt>
      <trkpt lat="45.74344" lon="6.67103">
        <ele>2400</ele>
        <time>2022-07-16T20:25:51Z</time>
      </trkpt>
      <trkpt lat="45.74342" lon="6.67101">
        <ele>2400</ele>
        <time>2022-07-16T20:25:53Z</time>
      </trkpt>
      <trkpt lat="45.7434" lon="6.67099">
        <ele>2399</ele>
        <time>2022-07-16T20:25:56Z</time>
      </trkpt>
      <trkpt lat="45.74338" lon="6.67097">
        <ele>2399</ele>
        <time>2022-07-16T20:25:57Z</time>
      </trkpt>
      <trkpt lat="45.74336" lon="6.67095">
        <ele>2399</ele>
        <time>2022-07-16T20:25:59Z</time>
      </trkpt>
      <trkpt lat="45.74334" lon="6.67093">
        <ele>2399</ele>
        <time>2022-07-16T20:26:01Z</time>
      </trkpt>
      <trkpt lat="45.74331" lon="6.67091">
        <ele>2399</ele>
        <time>2022-07-16T20:26:04Z</time>
      </trkpt>
      <trkpt lat="45.74329" lon="6.6709">
        <ele>2399</ele>
        <time>2022-07-16T20:26:05Z</time>
      </trkpt>
      <trkpt lat="45.74327" lon="6.67088">
        <ele>2399</ele>
        <time>2022-07-16T20:26:07Z</time>
      </trkpt>
      <trkpt lat="45.74325" lon="6.67086">
        <ele>2399</ele>
        <time>2022-07-16T20:26:09Z</time>
      </trkpt>
      <trkpt lat="45.74323" lon="6.67084">
        <ele>2399</ele>
        <time>2022-07-16T20:26:11Z</time>
      </trkpt>
      <trkpt lat="45.74322" lon="6.67083">
        <ele>2399</ele>
        <time>2022-07-16T20:26:13Z</time>
      </trkpt>
      <trkpt lat="45.7432" lon="6.6708">
        <ele>2399</ele>
        <time>2022-07-16T20:26:16Z</time>
      </trkpt>
      <trkpt lat="45.74318" lon="6.67077">
        <ele>2399</ele>
        <time>2022-07-16T20:26:18Z</time>
      </trkpt>
      <trkpt lat="45.74317" lon="6.67075">
        <ele>2399</ele>
        <time>2022-07-16T20:26:19Z</time>
      </trkpt>
      <trkpt lat="45.74315" lon="6.67073">
        <ele>2399</ele>
        <time>2022-07-16T20:26:22Z</time>
      </trkpt>
      <trkpt lat="45.74313" lon="6.67071">
        <ele>2399</ele>
        <time>2022-07-16T20:26:23Z</time>
      </trkpt>
      <trkpt lat="45.74311" lon="6.67068">
        <ele>2398</ele>
        <time>2022-07-16T20:26:25Z</time>
      </trkpt>
      <trkpt lat="45.74309" lon="6.67066">
        <ele>2397</ele>
        <time>2022-07-16T20:26:27Z</time>
      </trkpt>
      <trkpt lat="45.74307" lon="6.67064">
        <ele>2397</ele>
        <time>2022-07-16T20:26:29Z</time>
      </trkpt>
      <trkpt lat="45.74305" lon="6.67063">
        <ele>2396</ele>
        <time>2022-07-16T20:26:31Z</time>
      </trkpt>
      <trkpt lat="45.74303" lon="6.67062">
        <ele>2396</ele>
        <time>2022-07-16T20:26:34Z</time>
      </trkpt>
      <trkpt lat="45.743" lon="6.67061">
        <ele>2396</ele>
        <time>2022-07-16T20:26:35Z</time>
      </trkpt>
      <trkpt lat="45.74298" lon="6.67059">
        <ele>2395</ele>
        <time>2022-07-16T20:26:37Z</time>
      </trkpt>
      <trkpt lat="45.74296" lon="6.67058">
        <ele>2395</ele>
        <time>2022-07-16T20:26:39Z</time>
      </trkpt>
      <trkpt lat="45.74293" lon="6.67055">
        <ele>2395</ele>
        <time>2022-07-16T20:26:41Z</time>
      </trkpt>
      <trkpt lat="45.74291" lon="6.67053">
        <ele>2394</ele>
        <time>2022-07-16T20:26:43Z</time>
      </trkpt>
      <trkpt lat="45.74289" lon="6.67049">
        <ele>2394</ele>
        <time>2022-07-16T20:26:45Z</time>
      </trkpt>
      <trkpt lat="45.74288" lon="6.67046">
        <ele>2394</ele>
        <time>2022-07-16T20:26:47Z</time>
      </trkpt>
      <trkpt lat="45.74286" lon="6.67043">
        <ele>2394</ele>
        <time>2022-07-16T20:26:49Z</time>
      </trkpt>
      <trkpt lat="45.74285" lon="6.67041">
        <ele>2394</ele>
        <time>2022-07-16T20:26:51Z</time>
      </trkpt>
      <trkpt lat="45.74283" lon="6.67039">
        <ele>2394</ele>
        <time>2022-07-16T20:26:54Z</time>
      </trkpt>
      <trkpt lat="45.7428" lon="6.67037">
        <ele>2394</ele>
        <time>2022-07-16T20:26:55Z</time>
      </trkpt>
      <trkpt lat="45.74278" lon="6.67035">
        <ele>2394</ele>
        <time>2022-07-16T20:26:57Z</time>
      </trkpt>
      <trkpt lat="45.74277" lon="6.67033">
        <ele>2394</ele>
        <time>2022-07-16T20:27:00Z</time>
      </trkpt>
      <trkpt lat="45.74274" lon="6.67031">
        <ele>2394</ele>
        <time>2022-07-16T20:27:01Z</time>
      </trkpt>
      <trkpt lat="45.74273" lon="6.67028">
        <ele>2393</ele>
        <time>2022-07-16T20:27:03Z</time>
      </trkpt>
      <trkpt lat="45.74271" lon="6.67025">
        <ele>2393</ele>
        <time>2022-07-16T20:27:06Z</time>
      </trkpt>
      <trkpt lat="45.7427" lon="6.67022">
        <ele>2393</ele>
        <time>2022-07-16T20:27:08Z</time>
      </trkpt>
      <trkpt lat="45.74268" lon="6.6702">
        <ele>2393</ele>
        <time>2022-07-16T20:27:09Z</time>
      </trkpt>
      <trkpt lat="45.74266" lon="6.67018">
        <ele>2393</ele>
        <time>2022-07-16T20:27:11Z</time>
      </trkpt>
      <trkpt lat="45.74265" lon="6.67015">
        <ele>2393</ele>
        <time>2022-07-16T20:27:14Z</time>
      </trkpt>
      <trkpt lat="45.74263" lon="6.67013">
        <ele>2393</ele>
        <time>2022-07-16T20:27:16Z</time>
      </trkpt>
      <trkpt lat="45.74261" lon="6.67011">
        <ele>2393</ele>
        <time>2022-07-16T20:27:18Z</time>
      </trkpt>
      <trkpt lat="45.74259" lon="6.67008">
        <ele>2393</ele>
        <time>2022-07-16T20:27:20Z</time>
      </trkpt>
      <trkpt lat="45.74258" lon="6.67005">
        <ele>2393</ele>
        <time>2022-07-16T20:27:21Z</time>
      </trkpt>
      <trkpt lat="45.74256" lon="6.67003">
        <ele>2394</ele>
        <time>2022-07-16T20:27:24Z</time>
      </trkpt>
      <trkpt lat="45.74254" lon="6.67002">
        <ele>2394</ele>
        <time>2022-07-16T20:27:25Z</time>
      </trkpt>
      <trkpt lat="45.74252" lon="6.67001">
        <ele>2394</ele>
        <time>2022-07-16T20:27:27Z</time>
      </trkpt>
      <trkpt lat="45.7425" lon="6.66999">
        <ele>2394</ele>
        <time>2022-07-16T20:27:29Z</time>
      </trkpt>
      <trkpt lat="45.74248" lon="6.66997">
        <ele>2394</ele>
        <time>2022-07-16T20:27:32Z</time>
      </trkpt>
      <trkpt lat="45.74246" lon="6.66995">
        <ele>2394</ele>
        <time>2022-07-16T20:27:34Z</time>
      </trkpt>
      <trkpt lat="45.74245" lon="6.66993">
        <ele>2394</ele>
        <time>2022-07-16T20:27:35Z</time>
      </trkpt>
      <trkpt lat="45.74243" lon="6.6699">
        <ele>2393</ele>
        <time>2022-07-16T20:27:38Z</time>
      </trkpt>
      <trkpt lat="45.74242" lon="6.66986">
        <ele>2393</ele>
        <time>2022-07-16T20:27:39Z</time>
      </trkpt>
      <trkpt lat="45.7424" lon="6.66982">
        <ele>2392</ele>
        <time>2022-07-16T20:27:41Z</time>
      </trkpt>
      <trkpt lat="45.74239" lon="6.66979">
        <ele>2392</ele>
        <time>2022-07-16T20:27:43Z</time>
      </trkpt>
      <trkpt lat="45.74238" lon="6.66976">
        <ele>2392</ele>
        <time>2022-07-16T20:27:46Z</time>
      </trkpt>
      <trkpt lat="45.74237" lon="6.66973">
        <ele>2392</ele>
        <time>2022-07-16T20:27:47Z</time>
      </trkpt>
      <trkpt lat="45.74236" lon="6.6697">
        <ele>2392</ele>
        <time>2022-07-16T20:27:50Z</time>
      </trkpt>
      <trkpt lat="45.74235" lon="6.66967">
        <ele>2392</ele>
        <time>2022-07-16T20:27:51Z</time>
      </trkpt>
      <trkpt lat="45.74233" lon="6.66964">
        <ele>2393</ele>
        <time>2022-07-16T20:27:53Z</time>
      </trkpt>
      <trkpt lat="45.74233" lon="6.66961">
        <ele>2393</ele>
        <time>2022-07-16T20:27:55Z</time>
      </trkpt>
      <trkpt lat="45.74232" lon="6.66957">
        <ele>2393</ele>
        <time>2022-07-16T20:27:58Z</time>
      </trkpt>
      <trkpt lat="45.74231" lon="6.66954">
        <ele>2393</ele>
        <time>2022-07-16T20:27:59Z</time>
      </trkpt>
      <trkpt lat="45.7423" lon="6.66951">
        <ele>2393</ele>
        <time>2022-07-16T20:28:01Z</time>
      </trkpt>
      <trkpt lat="45.7423" lon="6.66948">
        <ele>2394</ele>
        <time>2022-07-16T20:28:03Z</time>
      </trkpt>
      <trkpt lat="45.74229" lon="6.66944">
        <ele>2394</ele>
        <time>2022-07-16T20:28:06Z</time>
      </trkpt>
      <trkpt lat="45.74228" lon="6.66942">
        <ele>2394</ele>
        <time>2022-07-16T20:28:08Z</time>
      </trkpt>
      <trkpt lat="45.74228" lon="6.66939">
        <ele>2394</ele>
        <time>2022-07-16T20:28:11Z</time>
      </trkpt>
      <trkpt lat="45.74227" lon="6.66936">
        <ele>2394</ele>
        <time>2022-07-16T20:28:12Z</time>
      </trkpt>
      <trkpt lat="45.74226" lon="6.66933">
        <ele>2394</ele>
        <time>2022-07-16T20:28:14Z</time>
      </trkpt>
      <trkpt lat="45.74225" lon="6.6693">
        <ele>2394</ele>
        <time>2022-07-16T20:28:16Z</time>
      </trkpt>
      <trkpt lat="45.74223" lon="6.66927">
        <ele>2394</ele>
        <time>2022-07-16T20:28:18Z</time>
      </trkpt>
      <trkpt lat="45.74222" lon="6.66924">
        <ele>2395</ele>
        <time>2022-07-16T20:28:20Z</time>
      </trkpt>
      <trkpt lat="45.74221" lon="6.66921">
        <ele>2395</ele>
        <time>2022-07-16T20:28:22Z</time>
      </trkpt>
      <trkpt lat="45.7422" lon="6.66918">
        <ele>2395</ele>
        <time>2022-07-16T20:28:24Z</time>
      </trkpt>
      <trkpt lat="45.74218" lon="6.66915">
        <ele>2395</ele>
        <time>2022-07-16T20:28:26Z</time>
      </trkpt>
      <trkpt lat="45.74217" lon="6.66911">
        <ele>2395</ele>
        <time>2022-07-16T20:28:28Z</time>
      </trkpt>
      <trkpt lat="45.74216" lon="6.66909">
        <ele>2395</ele>
        <time>2022-07-16T20:28:30Z</time>
      </trkpt>
      <trkpt lat="45.74214" lon="6.66906">
        <ele>2394</ele>
        <time>2022-07-16T20:28:32Z</time>
      </trkpt>
      <trkpt lat="45.74212" lon="6.66903">
        <ele>2394</ele>
        <time>2022-07-16T20:28:35Z</time>
      </trkpt>
      <trkpt lat="45.7421" lon="6.66901">
        <ele>2394</ele>
        <time>2022-07-16T20:28:37Z</time>
      </trkpt>
      <trkpt lat="45.74208" lon="6.66899">
        <ele>2394</ele>
        <time>2022-07-16T20:28:38Z</time>
      </trkpt>
      <trkpt lat="45.74206" lon="6.66895">
        <ele>2394</ele>
        <time>2022-07-16T20:28:40Z</time>
      </trkpt>
      <trkpt lat="45.74204" lon="6.66892">
        <ele>2394</ele>
        <time>2022-07-16T20:28:42Z</time>
      </trkpt>
      <trkpt lat="45.74203" lon="6.6689">
        <ele>2394</ele>
        <time>2022-07-16T20:28:44Z</time>
      </trkpt>
      <trkpt lat="45.74202" lon="6.66887">
        <ele>2394</ele>
        <time>2022-07-16T20:28:46Z</time>
      </trkpt>
      <trkpt lat="45.74199" lon="6.66885">
        <ele>2394</ele>
        <time>2022-07-16T20:28:49Z</time>
      </trkpt>
      <trkpt lat="45.74197" lon="6.66883">
        <ele>2394</ele>
        <time>2022-07-16T20:28:51Z</time>
      </trkpt>
      <trkpt lat="45.74195" lon="6.66881">
        <ele>2394</ele>
        <time>2022-07-16T20:28:52Z</time>
      </trkpt>
      <trkpt lat="45.74193" lon="6.66878">
        <ele>2394</ele>
        <time>2022-07-16T20:28:55Z</time>
      </trkpt>
      <trkpt lat="45.74192" lon="6.66875">
        <ele>2394</ele>
        <time>2022-07-16T20:28:57Z</time>
      </trkpt>
      <trkpt lat="45.7419" lon="6.66873">
        <ele>2393</ele>
        <time>2022-07-16T20:28:58Z</time>
      </trkpt>
      <trkpt lat="45.74188" lon="6.66869">
        <ele>2393</ele>
        <time>2022-07-16T20:29:00Z</time>
      </trkpt>
      <trkpt lat="45.74187" lon="6.66866">
        <ele>2393</ele>
        <time>2022-07-16T20:29:02Z</time>
      </trkpt>
      <trkpt lat="45.74186" lon="6.66863">
        <ele>2393</ele>
        <time>2022-07-16T20:29:04Z</time>
      </trkpt>
      <trkpt lat="45.74184" lon="6.6686">
        <ele>2393</ele>
        <time>2022-07-16T20:29:06Z</time>
      </trkpt>
      <trkpt lat="45.74183" lon="6.66858">
        <ele>2392</ele>
        <time>2022-07-16T20:29:08Z</time>
      </trkpt>
      <trkpt lat="45.74181" lon="6.66856">
        <ele>2392</ele>
        <time>2022-07-16T20:29:10Z</time>
      </trkpt>
      <trkpt lat="45.74179" lon="6.66854">
        <ele>2392</ele>
        <time>2022-07-16T20:29:13Z</time>
      </trkpt>
      <trkpt lat="45.74178" lon="6.66851">
        <ele>2391</ele>
        <time>2022-07-16T20:29:14Z</time>
      </trkpt>
      <trkpt lat="45.74176" lon="6.66848">
        <ele>2391</ele>
        <time>2022-07-16T20:29:16Z</time>
      </trkpt>
      <trkpt lat="45.74174" lon="6.66845">
        <ele>2390</ele>
        <time>2022-07-16T20:29:18Z</time>
      </trkpt>
      <trkpt lat="45.74173" lon="6.66842">
        <ele>2390</ele>
        <time>2022-07-16T20:29:20Z</time>
      </trkpt>
      <trkpt lat="45.74171" lon="6.66839">
        <ele>2389</ele>
        <time>2022-07-16T20:29:22Z</time>
      </trkpt>
      <trkpt lat="45.7417" lon="6.66836">
        <ele>2389</ele>
        <time>2022-07-16T20:29:24Z</time>
      </trkpt>
      <trkpt lat="45.74168" lon="6.66833">
        <ele>2388</ele>
        <time>2022-07-16T20:29:26Z</time>
      </trkpt>
      <trkpt lat="45.74166" lon="6.6683">
        <ele>2388</ele>
        <time>2022-07-16T20:29:28Z</time>
      </trkpt>
      <trkpt lat="45.74164" lon="6.66827">
        <ele>2388</ele>
        <time>2022-07-16T20:29:30Z</time>
      </trkpt>
      <trkpt lat="45.74162" lon="6.66825">
        <ele>2388</ele>
        <time>2022-07-16T20:29:33Z</time>
      </trkpt>
      <trkpt lat="45.7416" lon="6.66822">
        <ele>2388</ele>
        <time>2022-07-16T20:29:34Z</time>
      </trkpt>
      <trkpt lat="45.74159" lon="6.66818">
        <ele>2388</ele>
        <time>2022-07-16T20:29:36Z</time>
      </trkpt>
      <trkpt lat="45.74157" lon="6.66816">
        <ele>2388</ele>
        <time>2022-07-16T20:29:38Z</time>
      </trkpt>
      <trkpt lat="45.74156" lon="6.66813">
        <ele>2388</ele>
        <time>2022-07-16T20:29:41Z</time>
      </trkpt>
      <trkpt lat="45.74154" lon="6.6681">
        <ele>2388</ele>
        <time>2022-07-16T20:29:42Z</time>
      </trkpt>
      <trkpt lat="45.74153" lon="6.66807">
        <ele>2388</ele>
        <time>2022-07-16T20:29:44Z</time>
      </trkpt>
      <trkpt lat="45.74151" lon="6.66805">
        <ele>2388</ele>
        <time>2022-07-16T20:29:46Z</time>
      </trkpt>
      <trkpt lat="45.74149" lon="6.66803">
        <ele>2388</ele>
        <time>2022-07-16T20:29:48Z</time>
      </trkpt>
      <trkpt lat="45.74148" lon="6.66801">
        <ele>2388</ele>
        <time>2022-07-16T20:29:50Z</time>
      </trkpt>
      <trkpt lat="45.74147" lon="6.66797">
        <ele>2388</ele>
        <time>2022-07-16T20:29:52Z</time>
      </trkpt>
      <trkpt lat="45.74146" lon="6.66794">
        <ele>2388</ele>
        <time>2022-07-16T20:29:55Z</time>
      </trkpt>
      <trkpt lat="45.74145" lon="6.66789">
        <ele>2388</ele>
        <time>2022-07-16T20:29:56Z</time>
      </trkpt>
      <trkpt lat="45.74144" lon="6.66786">
        <ele>2387</ele>
        <time>2022-07-16T20:29:58Z</time>
      </trkpt>
      <trkpt lat="45.74143" lon="6.66782">
        <ele>2387</ele>
        <time>2022-07-16T20:30:01Z</time>
      </trkpt>
      <trkpt lat="45.74142" lon="6.66779">
        <ele>2387</ele>
        <time>2022-07-16T20:30:02Z</time>
      </trkpt>
      <trkpt lat="45.7414" lon="6.66776">
        <ele>2386</ele>
        <time>2022-07-16T20:30:04Z</time>
      </trkpt>
      <trkpt lat="45.74138" lon="6.66772">
        <ele>2386</ele>
        <time>2022-07-16T20:30:06Z</time>
      </trkpt>
      <trkpt lat="45.74137" lon="6.6677">
        <ele>2386</ele>
        <time>2022-07-16T20:30:08Z</time>
      </trkpt>
      <trkpt lat="45.74134" lon="6.66767">
        <ele>2386</ele>
        <time>2022-07-16T20:30:11Z</time>
      </trkpt>
      <trkpt lat="45.74132" lon="6.66765">
        <ele>2385</ele>
        <time>2022-07-16T20:30:12Z</time>
      </trkpt>
      <trkpt lat="45.74131" lon="6.66763">
        <ele>2385</ele>
        <time>2022-07-16T20:30:14Z</time>
      </trkpt>
      <trkpt lat="45.74129" lon="6.6676">
        <ele>2385</ele>
        <time>2022-07-16T20:30:16Z</time>
      </trkpt>
      <trkpt lat="45.74127" lon="6.66758">
        <ele>2385</ele>
        <time>2022-07-16T20:30:18Z</time>
      </trkpt>
      <trkpt lat="45.74125" lon="6.66756">
        <ele>2384</ele>
        <time>2022-07-16T20:30:20Z</time>
      </trkpt>
      <trkpt lat="45.74124" lon="6.66754">
        <ele>2384</ele>
        <time>2022-07-16T20:30:22Z</time>
      </trkpt>
      <trkpt lat="45.74122" lon="6.66752">
        <ele>2384</ele>
        <time>2022-07-16T20:30:24Z</time>
      </trkpt>
      <trkpt lat="45.74121" lon="6.66749">
        <ele>2384</ele>
        <time>2022-07-16T20:30:26Z</time>
      </trkpt>
      <trkpt lat="45.7412" lon="6.66747">
        <ele>2383</ele>
        <time>2022-07-16T20:30:29Z</time>
      </trkpt>
      <trkpt lat="45.74119" lon="6.66744">
        <ele>2383</ele>
        <time>2022-07-16T20:30:30Z</time>
      </trkpt>
      <trkpt lat="45.74118" lon="6.6674">
        <ele>2382</ele>
        <time>2022-07-16T20:30:32Z</time>
      </trkpt>
      <trkpt lat="45.74118" lon="6.66736">
        <ele>2381</ele>
        <time>2022-07-16T20:30:34Z</time>
      </trkpt>
      <trkpt lat="45.74117" lon="6.66732">
        <ele>2381</ele>
        <time>2022-07-16T20:30:36Z</time>
      </trkpt>
      <trkpt lat="45.74117" lon="6.66729">
        <ele>2381</ele>
        <time>2022-07-16T20:30:38Z</time>
      </trkpt>
      <trkpt lat="45.74116" lon="6.66725">
        <ele>2381</ele>
        <time>2022-07-16T20:30:40Z</time>
      </trkpt>
      <trkpt lat="45.74115" lon="6.66722">
        <ele>2380</ele>
        <time>2022-07-16T20:30:42Z</time>
      </trkpt>
      <trkpt lat="45.74114" lon="6.6672">
        <ele>2380</ele>
        <time>2022-07-16T20:30:44Z</time>
      </trkpt>
      <trkpt lat="45.74112" lon="6.66717">
        <ele>2379</ele>
        <time>2022-07-16T20:30:46Z</time>
      </trkpt>
      <trkpt lat="45.7411" lon="6.66714">
        <ele>2379</ele>
        <time>2022-07-16T20:30:49Z</time>
      </trkpt>
      <trkpt lat="45.7411" lon="6.6671">
        <ele>2378</ele>
        <time>2022-07-16T20:30:50Z</time>
      </trkpt>
      <trkpt lat="45.7411" lon="6.66706">
        <ele>2378</ele>
        <time>2022-07-16T20:30:52Z</time>
      </trkpt>
      <trkpt lat="45.7411" lon="6.66701">
        <ele>2376</ele>
        <time>2022-07-16T20:30:54Z</time>
      </trkpt>
      <trkpt lat="45.7411" lon="6.66698">
        <ele>2376</ele>
        <time>2022-07-16T20:30:56Z</time>
      </trkpt>
      <trkpt lat="45.7411" lon="6.66695">
        <ele>2376</ele>
        <time>2022-07-16T20:30:58Z</time>
      </trkpt>
      <trkpt lat="45.74109" lon="6.66692">
        <ele>2376</ele>
        <time>2022-07-16T20:31:00Z</time>
      </trkpt>
      <trkpt lat="45.74109" lon="6.66688">
        <ele>2375</ele>
        <time>2022-07-16T20:31:03Z</time>
      </trkpt>
      <trkpt lat="45.74107" lon="6.66685">
        <ele>2374</ele>
        <time>2022-07-16T20:31:05Z</time>
      </trkpt>
      <trkpt lat="45.74107" lon="6.66682">
        <ele>2374</ele>
        <time>2022-07-16T20:31:07Z</time>
      </trkpt>
      <trkpt lat="45.74106" lon="6.66679">
        <ele>2374</ele>
        <time>2022-07-16T20:31:08Z</time>
      </trkpt>
      <trkpt lat="45.74104" lon="6.66675">
        <ele>2373</ele>
        <time>2022-07-16T20:31:10Z</time>
      </trkpt>
      <trkpt lat="45.74103" lon="6.66671">
        <ele>2373</ele>
        <time>2022-07-16T20:31:13Z</time>
      </trkpt>
      <trkpt lat="45.74102" lon="6.66668">
        <ele>2373</ele>
        <time>2022-07-16T20:31:14Z</time>
      </trkpt>
      <trkpt lat="45.74101" lon="6.66664">
        <ele>2372</ele>
        <time>2022-07-16T20:31:16Z</time>
      </trkpt>
      <trkpt lat="45.741" lon="6.66661">
        <ele>2372</ele>
        <time>2022-07-16T20:31:18Z</time>
      </trkpt>
      <trkpt lat="45.741" lon="6.66657">
        <ele>2372</ele>
        <time>2022-07-16T20:31:21Z</time>
      </trkpt>
      <trkpt lat="45.74099" lon="6.66654">
        <ele>2372</ele>
        <time>2022-07-16T20:31:23Z</time>
      </trkpt>
      <trkpt lat="45.74098" lon="6.6665">
        <ele>2372</ele>
        <time>2022-07-16T20:31:24Z</time>
      </trkpt>
      <trkpt lat="45.74097" lon="6.66647">
        <ele>2372</ele>
        <time>2022-07-16T20:31:27Z</time>
      </trkpt>
      <trkpt lat="45.74096" lon="6.66643">
        <ele>2371</ele>
        <time>2022-07-16T20:31:28Z</time>
      </trkpt>
      <trkpt lat="45.74096" lon="6.66639">
        <ele>2371</ele>
        <time>2022-07-16T20:31:30Z</time>
      </trkpt>
      <trkpt lat="45.74096" lon="6.66636">
        <ele>2371</ele>
        <time>2022-07-16T20:31:32Z</time>
      </trkpt>
      <trkpt lat="45.74096" lon="6.66632">
        <ele>2371</ele>
        <time>2022-07-16T20:31:34Z</time>
      </trkpt>
      <trkpt lat="45.74095" lon="6.66628">
        <ele>2371</ele>
        <time>2022-07-16T20:31:36Z</time>
      </trkpt>
      <trkpt lat="45.74094" lon="6.66625">
        <ele>2371</ele>
        <time>2022-07-16T20:31:38Z</time>
      </trkpt>
      <trkpt lat="45.74093" lon="6.66621">
        <ele>2370</ele>
        <time>2022-07-16T20:31:40Z</time>
      </trkpt>
      <trkpt lat="45.74092" lon="6.66618">
        <ele>2370</ele>
        <time>2022-07-16T20:31:42Z</time>
      </trkpt>
      <trkpt lat="45.74091" lon="6.66615">
        <ele>2369</ele>
        <time>2022-07-16T20:31:44Z</time>
      </trkpt>
      <trkpt lat="45.7409" lon="6.66611">
        <ele>2369</ele>
        <time>2022-07-16T20:31:46Z</time>
      </trkpt>
      <trkpt lat="45.74089" lon="6.66608">
        <ele>2369</ele>
        <time>2022-07-16T20:31:48Z</time>
      </trkpt>
      <trkpt lat="45.74089" lon="6.66604">
        <ele>2369</ele>
        <time>2022-07-16T20:31:50Z</time>
      </trkpt>
      <trkpt lat="45.74088" lon="6.66601">
        <ele>2369</ele>
        <time>2022-07-16T20:31:52Z</time>
      </trkpt>
      <trkpt lat="45.74087" lon="6.66598">
        <ele>2369</ele>
        <time>2022-07-16T20:31:54Z</time>
      </trkpt>
      <trkpt lat="45.74087" lon="6.66595">
        <ele>2369</ele>
        <time>2022-07-16T20:31:56Z</time>
      </trkpt>
      <trkpt lat="45.74087" lon="6.66591">
        <ele>2369</ele>
        <time>2022-07-16T20:31:58Z</time>
      </trkpt>
      <trkpt lat="45.74087" lon="6.66589">
        <ele>2369</ele>
        <time>2022-07-16T20:32:00Z</time>
      </trkpt>
      <trkpt lat="45.74087" lon="6.66586">
        <ele>2370</ele>
        <time>2022-07-16T20:32:03Z</time>
      </trkpt>
      <trkpt lat="45.74088" lon="6.66583">
        <ele>2370</ele>
        <time>2022-07-16T20:32:05Z</time>
      </trkpt>
      <trkpt lat="45.74089" lon="6.6658">
        <ele>2370</ele>
        <time>2022-07-16T20:32:07Z</time>
      </trkpt>
      <trkpt lat="45.7409" lon="6.66578">
        <ele>2370</ele>
        <time>2022-07-16T20:32:09Z</time>
      </trkpt>
      <trkpt lat="45.74091" lon="6.66575">
        <ele>2371</ele>
        <time>2022-07-16T20:32:10Z</time>
      </trkpt>
      <trkpt lat="45.74091" lon="6.66572">
        <ele>2371</ele>
        <time>2022-07-16T20:32:12Z</time>
      </trkpt>
      <trkpt lat="45.74091" lon="6.66568">
        <ele>2371</ele>
        <time>2022-07-16T20:32:14Z</time>
      </trkpt>
      <trkpt lat="45.74092" lon="6.66565">
        <ele>2371</ele>
        <time>2022-07-16T20:32:16Z</time>
      </trkpt>
      <trkpt lat="45.74093" lon="6.66562">
        <ele>2371</ele>
        <time>2022-07-16T20:32:18Z</time>
      </trkpt>
      <trkpt lat="45.74093" lon="6.66558">
        <ele>2371</ele>
        <time>2022-07-16T20:32:20Z</time>
      </trkpt>
      <trkpt lat="45.74094" lon="6.66555">
        <ele>2371</ele>
        <time>2022-07-16T20:32:23Z</time>
      </trkpt>
      <trkpt lat="45.74094" lon="6.66552">
        <ele>2371</ele>
        <time>2022-07-16T20:32:24Z</time>
      </trkpt>
      <trkpt lat="45.74094" lon="6.66549">
        <ele>2372</ele>
        <time>2022-07-16T20:32:26Z</time>
      </trkpt>
      <trkpt lat="45.74095" lon="6.66546">
        <ele>2372</ele>
        <time>2022-07-16T20:32:28Z</time>
      </trkpt>
      <trkpt lat="45.74095" lon="6.66543">
        <ele>2372</ele>
        <time>2022-07-16T20:32:31Z</time>
      </trkpt>
      <trkpt lat="45.74094" lon="6.66541">
        <ele>2372</ele>
        <time>2022-07-16T20:32:32Z</time>
      </trkpt>
      <trkpt lat="45.74093" lon="6.66538">
        <ele>2373</ele>
        <time>2022-07-16T20:32:34Z</time>
      </trkpt>
      <trkpt lat="45.74093" lon="6.66535">
        <ele>2373</ele>
        <time>2022-07-16T20:32:37Z</time>
      </trkpt>
      <trkpt lat="45.74091" lon="6.66533">
        <ele>2373</ele>
        <time>2022-07-16T20:32:38Z</time>
      </trkpt>
      <trkpt lat="45.74091" lon="6.6653">
        <ele>2373</ele>
        <time>2022-07-16T20:32:40Z</time>
      </trkpt>
      <trkpt lat="45.7409" lon="6.66528">
        <ele>2374</ele>
        <time>2022-07-16T20:32:43Z</time>
      </trkpt>
      <trkpt lat="45.7409" lon="6.66524">
        <ele>2375</ele>
        <time>2022-07-16T20:32:45Z</time>
      </trkpt>
      <trkpt lat="45.74089" lon="6.66521">
        <ele>2375</ele>
        <time>2022-07-16T20:32:48Z</time>
      </trkpt>
      <trkpt lat="45.74088" lon="6.66518">
        <ele>2375</ele>
        <time>2022-07-16T20:32:51Z</time>
      </trkpt>
      <trkpt lat="45.74087" lon="6.66516">
        <ele>2376</ele>
        <time>2022-07-16T20:32:55Z</time>
      </trkpt>
      <trkpt lat="45.74086" lon="6.66514">
        <ele>2378</ele>
        <time>2022-07-16T20:32:58Z</time>
      </trkpt>
      <trkpt lat="45.74085" lon="6.66511">
        <ele>2378</ele>
        <time>2022-07-16T20:33:01Z</time>
      </trkpt>
      <trkpt lat="45.74084" lon="6.66508">
        <ele>2379</ele>
        <time>2022-07-16T20:33:04Z</time>
      </trkpt>
      <trkpt lat="45.74083" lon="6.66505">
        <ele>2379</ele>
        <time>2022-07-16T20:33:07Z</time>
      </trkpt>
      <trkpt lat="45.74083" lon="6.66503">
        <ele>2379</ele>
        <time>2022-07-16T20:33:09Z</time>
      </trkpt>
      <trkpt lat="45.74083" lon="6.66499">
        <ele>2380</ele>
        <time>2022-07-16T20:33:12Z</time>
      </trkpt>
      <trkpt lat="45.74083" lon="6.66496">
        <ele>2381</ele>
        <time>2022-07-16T20:33:15Z</time>
      </trkpt>
      <trkpt lat="45.74082" lon="6.66492">
        <ele>2381</ele>
        <time>2022-07-16T20:33:19Z</time>
      </trkpt>
      <trkpt lat="45.74081" lon="6.6649">
        <ele>2381</ele>
        <time>2022-07-16T20:33:21Z</time>
      </trkpt>
      <trkpt lat="45.7408" lon="6.66487">
        <ele>2381</ele>
        <time>2022-07-16T20:33:22Z</time>
      </trkpt>
      <trkpt lat="45.74079" lon="6.66485">
        <ele>2381</ele>
        <time>2022-07-16T20:33:25Z</time>
      </trkpt>
      <trkpt lat="45.74078" lon="6.66482">
        <ele>2381</ele>
        <time>2022-07-16T20:33:27Z</time>
      </trkpt>
      <trkpt lat="45.74076" lon="6.66479">
        <ele>2382</ele>
        <time>2022-07-16T20:33:30Z</time>
      </trkpt>
      <trkpt lat="45.74076" lon="6.66477">
        <ele>2382</ele>
        <time>2022-07-16T20:33:32Z</time>
      </trkpt>
      <trkpt lat="45.74074" lon="6.66474">
        <ele>2382</ele>
        <time>2022-07-16T20:33:35Z</time>
      </trkpt>
      <trkpt lat="45.74072" lon="6.66472">
        <ele>2382</ele>
        <time>2022-07-16T20:33:38Z</time>
      </trkpt>
      <trkpt lat="45.74072" lon="6.66469">
        <ele>2383</ele>
        <time>2022-07-16T20:33:41Z</time>
      </trkpt>
      <trkpt lat="45.74071" lon="6.66466">
        <ele>2384</ele>
        <time>2022-07-16T20:33:43Z</time>
      </trkpt>
      <trkpt lat="45.74069" lon="6.66463">
        <ele>2384</ele>
        <time>2022-07-16T20:33:46Z</time>
      </trkpt>
      <trkpt lat="45.74068" lon="6.66461">
        <ele>2385</ele>
        <time>2022-07-16T20:33:49Z</time>
      </trkpt>
      <trkpt lat="45.74067" lon="6.66459">
        <ele>2385</ele>
        <time>2022-07-16T20:33:51Z</time>
      </trkpt>
      <trkpt lat="45.74065" lon="6.66456">
        <ele>2385</ele>
        <time>2022-07-16T20:33:54Z</time>
      </trkpt>
      <trkpt lat="45.74064" lon="6.66455">
        <ele>2386</ele>
        <time>2022-07-16T20:33:56Z</time>
      </trkpt>
      <trkpt lat="45.74062" lon="6.66453">
        <ele>2386</ele>
        <time>2022-07-16T20:33:59Z</time>
      </trkpt>
      <trkpt lat="45.7406" lon="6.66449">
        <ele>2386</ele>
        <time>2022-07-16T20:34:02Z</time>
      </trkpt>
      <trkpt lat="45.74059" lon="6.66447">
        <ele>2386</ele>
        <time>2022-07-16T20:34:04Z</time>
      </trkpt>
      <trkpt lat="45.74058" lon="6.66444">
        <ele>2386</ele>
        <time>2022-07-16T20:34:07Z</time>
      </trkpt>
      <trkpt lat="45.74057" lon="6.66442">
        <ele>2386</ele>
        <time>2022-07-16T20:34:09Z</time>
      </trkpt>
      <trkpt lat="45.74055" lon="6.6644">
        <ele>2386</ele>
        <time>2022-07-16T20:34:11Z</time>
      </trkpt>
      <trkpt lat="45.74054" lon="6.66438">
        <ele>2386</ele>
        <time>2022-07-16T20:34:13Z</time>
      </trkpt>
      <trkpt lat="45.74052" lon="6.66436">
        <ele>2386</ele>
        <time>2022-07-16T20:34:15Z</time>
      </trkpt>
      <trkpt lat="45.74051" lon="6.66434">
        <ele>2386</ele>
        <time>2022-07-16T20:34:18Z</time>
      </trkpt>
      <trkpt lat="45.74049" lon="6.66432">
        <ele>2386</ele>
        <time>2022-07-16T20:34:19Z</time>
      </trkpt>
      <trkpt lat="45.74047" lon="6.6643">
        <ele>2386</ele>
        <time>2022-07-16T20:34:21Z</time>
      </trkpt>
      <trkpt lat="45.74046" lon="6.66427">
        <ele>2387</ele>
        <time>2022-07-16T20:34:23Z</time>
      </trkpt>
      <trkpt lat="45.74046" lon="6.66424">
        <ele>2387</ele>
        <time>2022-07-16T20:34:27Z</time>
      </trkpt>
      <trkpt lat="45.74044" lon="6.66421">
        <ele>2387</ele>
        <time>2022-07-16T20:34:28Z</time>
      </trkpt>
      <trkpt lat="45.74043" lon="6.66419">
        <ele>2387</ele>
        <time>2022-07-16T20:34:30Z</time>
      </trkpt>
      <trkpt lat="45.74041" lon="6.66417">
        <ele>2387</ele>
        <time>2022-07-16T20:34:32Z</time>
      </trkpt>
      <trkpt lat="45.74039" lon="6.66416">
        <ele>2387</ele>
        <time>2022-07-16T20:34:34Z</time>
      </trkpt>
      <trkpt lat="45.74037" lon="6.66414">
        <ele>2387</ele>
        <time>2022-07-16T20:34:37Z</time>
      </trkpt>
      <trkpt lat="45.74036" lon="6.66411">
        <ele>2387</ele>
        <time>2022-07-16T20:34:38Z</time>
      </trkpt>
      <trkpt lat="45.74035" lon="6.66409">
        <ele>2387</ele>
        <time>2022-07-16T20:34:41Z</time>
      </trkpt>
      <trkpt lat="45.74033" lon="6.66407">
        <ele>2387</ele>
        <time>2022-07-16T20:34:42Z</time>
      </trkpt>
      <trkpt lat="45.74032" lon="6.66406">
        <ele>2387</ele>
        <time>2022-07-16T20:34:44Z</time>
      </trkpt>
      <trkpt lat="45.7403" lon="6.66404">
        <ele>2387</ele>
        <time>2022-07-16T20:34:46Z</time>
      </trkpt>
      <trkpt lat="45.74028" lon="6.66402">
        <ele>2387</ele>
        <time>2022-07-16T20:34:49Z</time>
      </trkpt>
      <trkpt lat="45.74026" lon="6.66401">
        <ele>2388</ele>
        <time>2022-07-16T20:34:52Z</time>
      </trkpt>
      <trkpt lat="45.74025" lon="6.66398">
        <ele>2389</ele>
        <time>2022-07-16T20:34:56Z</time>
      </trkpt>
      <trkpt lat="45.74023" lon="6.66396">
        <ele>2389</ele>
        <time>2022-07-16T20:34:58Z</time>
      </trkpt>
      <trkpt lat="45.74022" lon="6.66394">
        <ele>2389</ele>
        <time>2022-07-16T20:35:01Z</time>
      </trkpt>
      <trkpt lat="45.74021" lon="6.66391">
        <ele>2390</ele>
        <time>2022-07-16T20:35:04Z</time>
      </trkpt>
      <trkpt lat="45.74019" lon="6.66389">
        <ele>2390</ele>
        <time>2022-07-16T20:35:08Z</time>
      </trkpt>
      <trkpt lat="45.74017" lon="6.66386">
        <ele>2391</ele>
        <time>2022-07-16T20:35:10Z</time>
      </trkpt>
      <trkpt lat="45.74016" lon="6.66384">
        <ele>2391</ele>
        <time>2022-07-16T20:35:14Z</time>
      </trkpt>
      <trkpt lat="45.74014" lon="6.66381">
        <ele>2392</ele>
        <time>2022-07-16T20:35:16Z</time>
      </trkpt>
      <trkpt lat="45.74012" lon="6.6638">
        <ele>2392</ele>
        <time>2022-07-16T20:35:19Z</time>
      </trkpt>
      <trkpt lat="45.7401" lon="6.66378">
        <ele>2392</ele>
        <time>2022-07-16T20:35:22Z</time>
      </trkpt>
      <trkpt lat="45.74008" lon="6.66376">
        <ele>2392</ele>
        <time>2022-07-16T20:35:24Z</time>
      </trkpt>
      <trkpt lat="45.74007" lon="6.66374">
        <ele>2392</ele>
        <time>2022-07-16T20:35:26Z</time>
      </trkpt>
      <trkpt lat="45.74005" lon="6.66371">
        <ele>2393</ele>
        <time>2022-07-16T20:35:29Z</time>
      </trkpt>
      <trkpt lat="45.74004" lon="6.66369">
        <ele>2394</ele>
        <time>2022-07-16T20:35:32Z</time>
      </trkpt>
      <trkpt lat="45.74003" lon="6.66367">
        <ele>2394</ele>
        <time>2022-07-16T20:35:35Z</time>
      </trkpt>
      <trkpt lat="45.74002" lon="6.66364">
        <ele>2394</ele>
        <time>2022-07-16T20:35:38Z</time>
      </trkpt>
      <trkpt lat="45.74001" lon="6.66361">
        <ele>2395</ele>
        <time>2022-07-16T20:35:41Z</time>
      </trkpt>
      <trkpt lat="45.74" lon="6.66359">
        <ele>2395</ele>
        <time>2022-07-16T20:35:44Z</time>
      </trkpt>
      <trkpt lat="45.73998" lon="6.66358">
        <ele>2396</ele>
        <time>2022-07-16T20:35:47Z</time>
      </trkpt>
      <trkpt lat="45.73996" lon="6.66356">
        <ele>2397</ele>
        <time>2022-07-16T20:35:50Z</time>
      </trkpt>
      <trkpt lat="45.73994" lon="6.66355">
        <ele>2397</ele>
        <time>2022-07-16T20:35:53Z</time>
      </trkpt>
      <trkpt lat="45.73993" lon="6.66353">
        <ele>2397</ele>
        <time>2022-07-16T20:35:56Z</time>
      </trkpt>
      <trkpt lat="45.73991" lon="6.66351">
        <ele>2398</ele>
        <time>2022-07-16T20:35:59Z</time>
      </trkpt>
      <trkpt lat="45.73989" lon="6.6635">
        <ele>2399</ele>
        <time>2022-07-16T20:36:02Z</time>
      </trkpt>
      <trkpt lat="45.73987" lon="6.66348">
        <ele>2400</ele>
        <time>2022-07-16T20:36:06Z</time>
      </trkpt>
      <trkpt lat="45.73987" lon="6.66345">
        <ele>2400</ele>
        <time>2022-07-16T20:36:09Z</time>
      </trkpt>
      <trkpt lat="45.73988" lon="6.66342">
        <ele>2401</ele>
        <time>2022-07-16T20:36:14Z</time>
      </trkpt>
      <trkpt lat="45.73987" lon="6.66339">
        <ele>2402</ele>
        <time>2022-07-16T20:36:19Z</time>
      </trkpt>
      <trkpt lat="45.73986" lon="6.66336">
        <ele>2402</ele>
        <time>2022-07-16T20:36:22Z</time>
      </trkpt>
      <trkpt lat="45.73985" lon="6.66333">
        <ele>2404</ele>
        <time>2022-07-16T20:36:26Z</time>
      </trkpt>
      <trkpt lat="45.73985" lon="6.66329">
        <ele>2404</ele>
        <time>2022-07-16T20:36:28Z</time>
      </trkpt>
      <trkpt lat="45.73985" lon="6.66326">
        <ele>2405</ele>
        <time>2022-07-16T20:36:31Z</time>
      </trkpt>
      <trkpt lat="45.73984" lon="6.66323">
        <ele>2405</ele>
        <time>2022-07-16T20:36:33Z</time>
      </trkpt>
      <trkpt lat="45.73984" lon="6.6632">
        <ele>2405</ele>
        <time>2022-07-16T20:36:36Z</time>
      </trkpt>
      <trkpt lat="45.73984" lon="6.66317">
        <ele>2406</ele>
        <time>2022-07-16T20:36:39Z</time>
      </trkpt>
      <trkpt lat="45.73983" lon="6.66315">
        <ele>2406</ele>
        <time>2022-07-16T20:36:40Z</time>
      </trkpt>
      <trkpt lat="45.73982" lon="6.66313">
        <ele>2406</ele>
        <time>2022-07-16T20:36:42Z</time>
      </trkpt>
      <trkpt lat="45.73981" lon="6.6631">
        <ele>2406</ele>
        <time>2022-07-16T20:36:44Z</time>
      </trkpt>
      <trkpt lat="45.7398" lon="6.66308">
        <ele>2406</ele>
        <time>2022-07-16T20:36:46Z</time>
      </trkpt>
      <trkpt lat="45.7398" lon="6.66305">
        <ele>2407</ele>
        <time>2022-07-16T20:36:48Z</time>
      </trkpt>
      <trkpt lat="45.7398" lon="6.66302">
        <ele>2407</ele>
        <time>2022-07-16T20:36:50Z</time>
      </trkpt>
      <trkpt lat="45.73979" lon="6.66298">
        <ele>2407</ele>
        <time>2022-07-16T20:36:53Z</time>
      </trkpt>
      <trkpt lat="45.73979" lon="6.66295">
        <ele>2408</ele>
        <time>2022-07-16T20:36:57Z</time>
      </trkpt>
      <trkpt lat="45.73979" lon="6.66291">
        <ele>2408</ele>
        <time>2022-07-16T20:36:59Z</time>
      </trkpt>
      <trkpt lat="45.73978" lon="6.66288">
        <ele>2408</ele>
        <time>2022-07-16T20:37:03Z</time>
      </trkpt>
      <trkpt lat="45.73977" lon="6.66284">
        <ele>2408</ele>
        <time>2022-07-16T20:37:05Z</time>
      </trkpt>
      <trkpt lat="45.73978" lon="6.66281">
        <ele>2409</ele>
        <time>2022-07-16T20:37:09Z</time>
      </trkpt>
      <trkpt lat="45.73978" lon="6.66278">
        <ele>2409</ele>
        <time>2022-07-16T20:37:11Z</time>
      </trkpt>
      <trkpt lat="45.73979" lon="6.66275">
        <ele>2410</ele>
        <time>2022-07-16T20:37:14Z</time>
      </trkpt>
      <trkpt lat="45.73979" lon="6.66272">
        <ele>2410</ele>
        <time>2022-07-16T20:37:17Z</time>
      </trkpt>
      <trkpt lat="45.7398" lon="6.6627">
        <ele>2410</ele>
        <time>2022-07-16T20:37:20Z</time>
      </trkpt>
      <trkpt lat="45.7398" lon="6.66267">
        <ele>2411</ele>
        <time>2022-07-16T20:37:23Z</time>
      </trkpt>
      <trkpt lat="45.73981" lon="6.66264">
        <ele>2411</ele>
        <time>2022-07-16T20:37:27Z</time>
      </trkpt>
      <trkpt lat="45.73981" lon="6.66261">
        <ele>2412</ele>
        <time>2022-07-16T20:37:30Z</time>
      </trkpt>
      <trkpt lat="45.73982" lon="6.66259">
        <ele>2413</ele>
        <time>2022-07-16T20:37:32Z</time>
      </trkpt>
      <trkpt lat="45.73983" lon="6.66256">
        <ele>2414</ele>
        <time>2022-07-16T20:37:37Z</time>
      </trkpt>
      <trkpt lat="45.73982" lon="6.66253">
        <ele>2414</ele>
        <time>2022-07-16T20:37:40Z</time>
      </trkpt>
      <trkpt lat="45.73982" lon="6.66249">
        <ele>2415</ele>
        <time>2022-07-16T20:37:43Z</time>
      </trkpt>
      <trkpt lat="45.73982" lon="6.66247">
        <ele>2415</ele>
        <time>2022-07-16T20:37:47Z</time>
      </trkpt>
      <trkpt lat="45.73983" lon="6.66243">
        <ele>2416</ele>
        <time>2022-07-16T20:37:50Z</time>
      </trkpt>
      <trkpt lat="45.73985" lon="6.6624">
        <ele>2416</ele>
        <time>2022-07-16T20:37:52Z</time>
      </trkpt>
      <trkpt lat="45.73985" lon="6.66238">
        <ele>2417</ele>
        <time>2022-07-16T20:37:55Z</time>
      </trkpt>
      <trkpt lat="45.73986" lon="6.66235">
        <ele>2417</ele>
        <time>2022-07-16T20:37:58Z</time>
      </trkpt>
      <trkpt lat="45.73986" lon="6.66231">
        <ele>2417</ele>
        <time>2022-07-16T20:38:01Z</time>
      </trkpt>
      <trkpt lat="45.73986" lon="6.66229">
        <ele>2418</ele>
        <time>2022-07-16T20:38:04Z</time>
      </trkpt>
      <trkpt lat="45.73987" lon="6.66225">
        <ele>2418</ele>
        <time>2022-07-16T20:38:06Z</time>
      </trkpt>
      <trkpt lat="45.73987" lon="6.66223">
        <ele>2418</ele>
        <time>2022-07-16T20:38:10Z</time>
      </trkpt>
      <trkpt lat="45.73987" lon="6.6622">
        <ele>2419</ele>
        <time>2022-07-16T20:38:13Z</time>
      </trkpt>
      <trkpt lat="45.73987" lon="6.66217">
        <ele>2419</ele>
        <time>2022-07-16T20:38:15Z</time>
      </trkpt>
      <trkpt lat="45.73986" lon="6.66214">
        <ele>2419</ele>
        <time>2022-07-16T20:38:18Z</time>
      </trkpt>
      <trkpt lat="45.73986" lon="6.66212">
        <ele>2419</ele>
        <time>2022-07-16T20:38:20Z</time>
      </trkpt>
      <trkpt lat="45.73985" lon="6.66209">
        <ele>2420</ele>
        <time>2022-07-16T20:38:22Z</time>
      </trkpt>
      <trkpt lat="45.73985" lon="6.66206">
        <ele>2420</ele>
        <time>2022-07-16T20:38:25Z</time>
      </trkpt>
      <trkpt lat="45.73984" lon="6.66204">
        <ele>2421</ele>
        <time>2022-07-16T20:38:27Z</time>
      </trkpt>
      <trkpt lat="45.73984" lon="6.662">
        <ele>2421</ele>
        <time>2022-07-16T20:38:29Z</time>
      </trkpt>
      <trkpt lat="45.73984" lon="6.66197">
        <ele>2421</ele>
        <time>2022-07-16T20:38:32Z</time>
      </trkpt>
      <trkpt lat="45.73983" lon="6.66195">
        <ele>2421</ele>
        <time>2022-07-16T20:38:33Z</time>
      </trkpt>
      <trkpt lat="45.73983" lon="6.66191">
        <ele>2422</ele>
        <time>2022-07-16T20:38:37Z</time>
      </trkpt>
      <trkpt lat="45.73983" lon="6.66188">
        <ele>2422</ele>
        <time>2022-07-16T20:38:39Z</time>
      </trkpt>
      <trkpt lat="45.73984" lon="6.66185">
        <ele>2422</ele>
        <time>2022-07-16T20:38:41Z</time>
      </trkpt>
      <trkpt lat="45.73984" lon="6.66182">
        <ele>2422</ele>
        <time>2022-07-16T20:38:44Z</time>
      </trkpt>
      <trkpt lat="45.73983" lon="6.66179">
        <ele>2422</ele>
        <time>2022-07-16T20:38:45Z</time>
      </trkpt>
      <trkpt lat="45.73982" lon="6.66177">
        <ele>2422</ele>
        <time>2022-07-16T20:38:47Z</time>
      </trkpt>
      <trkpt lat="45.73981" lon="6.66174">
        <ele>2423</ele>
        <time>2022-07-16T20:38:49Z</time>
      </trkpt>
      <trkpt lat="45.7398" lon="6.66171">
        <ele>2423</ele>
        <time>2022-07-16T20:38:51Z</time>
      </trkpt>
      <trkpt lat="45.73979" lon="6.66169">
        <ele>2423</ele>
        <time>2022-07-16T20:38:54Z</time>
      </trkpt>
      <trkpt lat="45.73978" lon="6.66166">
        <ele>2423</ele>
        <time>2022-07-16T20:38:55Z</time>
      </trkpt>
      <trkpt lat="45.73977" lon="6.66164">
        <ele>2423</ele>
        <time>2022-07-16T20:38:57Z</time>
      </trkpt>
      <trkpt lat="45.73976" lon="6.66161">
        <ele>2423</ele>
        <time>2022-07-16T20:38:59Z</time>
      </trkpt>
      <trkpt lat="45.73975" lon="6.66159">
        <ele>2423</ele>
        <time>2022-07-16T20:39:01Z</time>
      </trkpt>
      <trkpt lat="45.73974" lon="6.66157">
        <ele>2423</ele>
        <time>2022-07-16T20:39:03Z</time>
      </trkpt>
      <trkpt lat="45.73972" lon="6.66154">
        <ele>2424</ele>
        <time>2022-07-16T20:39:05Z</time>
      </trkpt>
      <trkpt lat="45.73971" lon="6.66151">
        <ele>2424</ele>
        <time>2022-07-16T20:39:07Z</time>
      </trkpt>
      <trkpt lat="45.7397" lon="6.66149">
        <ele>2424</ele>
        <time>2022-07-16T20:39:10Z</time>
      </trkpt>
      <trkpt lat="45.73968" lon="6.66147">
        <ele>2425</ele>
        <time>2022-07-16T20:39:11Z</time>
      </trkpt>
      <trkpt lat="45.73967" lon="6.66144">
        <ele>2425</ele>
        <time>2022-07-16T20:39:14Z</time>
      </trkpt>
      <trkpt lat="45.73965" lon="6.6614">
        <ele>2425</ele>
        <time>2022-07-16T20:39:17Z</time>
      </trkpt>
      <trkpt lat="45.73964" lon="6.66138">
        <ele>2425</ele>
        <time>2022-07-16T20:39:19Z</time>
      </trkpt>
      <trkpt lat="45.73962" lon="6.66136">
        <ele>2426</ele>
        <time>2022-07-16T20:39:22Z</time>
      </trkpt>
      <trkpt lat="45.73961" lon="6.66133">
        <ele>2427</ele>
        <time>2022-07-16T20:39:26Z</time>
      </trkpt>
      <trkpt lat="45.73959" lon="6.6613">
        <ele>2427</ele>
        <time>2022-07-16T20:39:29Z</time>
      </trkpt>
      <trkpt lat="45.73957" lon="6.66128">
        <ele>2427</ele>
        <time>2022-07-16T20:39:31Z</time>
      </trkpt>
      <trkpt lat="45.73955" lon="6.66127">
        <ele>2427</ele>
        <time>2022-07-16T20:39:34Z</time>
      </trkpt>
      <trkpt lat="45.73954" lon="6.66125">
        <ele>2427</ele>
        <time>2022-07-16T20:39:37Z</time>
      </trkpt>
      <trkpt lat="45.73952" lon="6.66122">
        <ele>2428</ele>
        <time>2022-07-16T20:39:41Z</time>
      </trkpt>
      <trkpt lat="45.73951" lon="6.6612">
        <ele>2430</ele>
        <time>2022-07-16T20:39:43Z</time>
      </trkpt>
      <trkpt lat="45.7395" lon="6.66117">
        <ele>2430</ele>
        <time>2022-07-16T20:39:46Z</time>
      </trkpt>
      <trkpt lat="45.73948" lon="6.66115">
        <ele>2430</ele>
        <time>2022-07-16T20:39:49Z</time>
      </trkpt>
      <trkpt lat="45.73947" lon="6.66114">
        <ele>2431</ele>
        <time>2022-07-16T20:39:52Z</time>
      </trkpt>
      <trkpt lat="45.73945" lon="6.66111">
        <ele>2431</ele>
        <time>2022-07-16T20:39:55Z</time>
      </trkpt>
      <trkpt lat="45.73944" lon="6.66109">
        <ele>2432</ele>
        <time>2022-07-16T20:39:58Z</time>
      </trkpt>
      <trkpt lat="45.73942" lon="6.66107">
        <ele>2432</ele>
        <time>2022-07-16T20:40:01Z</time>
      </trkpt>
      <trkpt lat="45.73941" lon="6.66105">
        <ele>2433</ele>
        <time>2022-07-16T20:40:04Z</time>
      </trkpt>
      <trkpt lat="45.73939" lon="6.66103">
        <ele>2433</ele>
        <time>2022-07-16T20:40:07Z</time>
      </trkpt>
      <trkpt lat="45.73937" lon="6.66101">
        <ele>2433</ele>
        <time>2022-07-16T20:40:10Z</time>
      </trkpt>
      <trkpt lat="45.73936" lon="6.66099">
        <ele>2434</ele>
        <time>2022-07-16T20:40:12Z</time>
      </trkpt>
      <trkpt lat="45.73934" lon="6.66096">
        <ele>2434</ele>
        <time>2022-07-16T20:40:15Z</time>
      </trkpt>
      <trkpt lat="45.73933" lon="6.66094">
        <ele>2434</ele>
        <time>2022-07-16T20:40:18Z</time>
      </trkpt>
      <trkpt lat="45.73931" lon="6.66092">
        <ele>2434</ele>
        <time>2022-07-16T20:40:19Z</time>
      </trkpt>
      <trkpt lat="45.7393" lon="6.6609">
        <ele>2435</ele>
        <time>2022-07-16T20:40:21Z</time>
      </trkpt>
      <trkpt lat="45.73929" lon="6.66087">
        <ele>2435</ele>
        <time>2022-07-16T20:40:25Z</time>
      </trkpt>
      <trkpt lat="45.73927" lon="6.66085">
        <ele>2436</ele>
        <time>2022-07-16T20:40:27Z</time>
      </trkpt>
      <trkpt lat="45.73926" lon="6.66082">
        <ele>2436</ele>
        <time>2022-07-16T20:40:30Z</time>
      </trkpt>
      <trkpt lat="45.73925" lon="6.66079">
        <ele>2436</ele>
        <time>2022-07-16T20:40:33Z</time>
      </trkpt>
      <trkpt lat="45.73923" lon="6.66077">
        <ele>2437</ele>
        <time>2022-07-16T20:40:36Z</time>
      </trkpt>
      <trkpt lat="45.73921" lon="6.66074">
        <ele>2437</ele>
        <time>2022-07-16T20:40:39Z</time>
      </trkpt>
      <trkpt lat="45.7392" lon="6.66072">
        <ele>2437</ele>
        <time>2022-07-16T20:40:42Z</time>
      </trkpt>
      <trkpt lat="45.73918" lon="6.66069">
        <ele>2438</ele>
        <time>2022-07-16T20:40:45Z</time>
      </trkpt>
      <trkpt lat="45.73917" lon="6.66066">
        <ele>2438</ele>
        <time>2022-07-16T20:40:48Z</time>
      </trkpt>
      <trkpt lat="45.73915" lon="6.66064">
        <ele>2438</ele>
        <time>2022-07-16T20:40:52Z</time>
      </trkpt>
      <trkpt lat="45.73914" lon="6.66061">
        <ele>2438</ele>
        <time>2022-07-16T20:40:54Z</time>
      </trkpt>
      <trkpt lat="45.73913" lon="6.66059">
        <ele>2439</ele>
        <time>2022-07-16T20:40:58Z</time>
      </trkpt>
      <trkpt lat="45.73912" lon="6.66056">
        <ele>2440</ele>
        <time>2022-07-16T20:41:00Z</time>
      </trkpt>
      <trkpt lat="45.73911" lon="6.66054">
        <ele>2441</ele>
        <time>2022-07-16T20:41:03Z</time>
      </trkpt>
      <trkpt lat="45.7391" lon="6.66052">
        <ele>2441</ele>
        <time>2022-07-16T20:41:06Z</time>
      </trkpt>
      <trkpt lat="45.73909" lon="6.66049">
        <ele>2442</ele>
        <time>2022-07-16T20:41:09Z</time>
      </trkpt>
      <trkpt lat="45.73907" lon="6.66047">
        <ele>2443</ele>
        <time>2022-07-16T20:41:13Z</time>
      </trkpt>
      <trkpt lat="45.73906" lon="6.66045">
        <ele>2443</ele>
        <time>2022-07-16T20:41:16Z</time>
      </trkpt>
      <trkpt lat="45.73905" lon="6.66043">
        <ele>2443</ele>
        <time>2022-07-16T20:41:19Z</time>
      </trkpt>
      <trkpt lat="45.73904" lon="6.66041">
        <ele>2444</ele>
        <time>2022-07-16T20:41:22Z</time>
      </trkpt>
      <trkpt lat="45.73903" lon="6.66038">
        <ele>2445</ele>
        <time>2022-07-16T20:41:27Z</time>
      </trkpt>
      <trkpt lat="45.73901" lon="6.66036">
        <ele>2446</ele>
        <time>2022-07-16T20:41:30Z</time>
      </trkpt>
      <trkpt lat="45.739" lon="6.66033">
        <ele>2446</ele>
        <time>2022-07-16T20:41:34Z</time>
      </trkpt>
      <trkpt lat="45.73898" lon="6.6603">
        <ele>2448</ele>
        <time>2022-07-16T20:41:38Z</time>
      </trkpt>
      <trkpt lat="45.73897" lon="6.66028">
        <ele>2448</ele>
        <time>2022-07-16T20:41:42Z</time>
      </trkpt>
      <trkpt lat="45.73896" lon="6.66026">
        <ele>2448</ele>
        <time>2022-07-16T20:41:45Z</time>
      </trkpt>
      <trkpt lat="45.73895" lon="6.66025">
        <ele>2449</ele>
        <time>2022-07-16T20:41:47Z</time>
      </trkpt>
      <trkpt lat="45.73894" lon="6.66022">
        <ele>2449</ele>
        <time>2022-07-16T20:41:50Z</time>
      </trkpt>
      <trkpt lat="45.73895" lon="6.6602">
        <ele>2449</ele>
        <time>2022-07-16T20:41:54Z</time>
      </trkpt>
      <trkpt lat="45.73897" lon="6.6602">
        <ele>2449</ele>
        <time>2022-07-16T20:41:56Z</time>
      </trkpt>
      <trkpt lat="45.73899" lon="6.66019">
        <ele>2449</ele>
        <time>2022-07-16T20:41:58Z</time>
      </trkpt>
      <trkpt lat="45.73901" lon="6.66019">
        <ele>2450</ele>
        <time>2022-07-16T20:42:01Z</time>
      </trkpt>
      <trkpt lat="45.73903" lon="6.66018">
        <ele>2450</ele>
        <time>2022-07-16T20:42:03Z</time>
      </trkpt>
      <trkpt lat="45.73905" lon="6.66017">
        <ele>2450</ele>
        <time>2022-07-16T20:42:06Z</time>
      </trkpt>
      <trkpt lat="45.73907" lon="6.66016">
        <ele>2450</ele>
        <time>2022-07-16T20:42:07Z</time>
      </trkpt>
      <trkpt lat="45.73909" lon="6.66016">
        <ele>2451</ele>
        <time>2022-07-16T20:42:09Z</time>
      </trkpt>
      <trkpt lat="45.73912" lon="6.66014">
        <ele>2451</ele>
        <time>2022-07-16T20:42:12Z</time>
      </trkpt>
      <trkpt lat="45.73914" lon="6.66013">
        <ele>2451</ele>
        <time>2022-07-16T20:42:13Z</time>
      </trkpt>
      <trkpt lat="45.73916" lon="6.66013">
        <ele>2451</ele>
        <time>2022-07-16T20:42:15Z</time>
      </trkpt>
      <trkpt lat="45.73918" lon="6.66012">
        <ele>2451</ele>
        <time>2022-07-16T20:42:17Z</time>
      </trkpt>
      <trkpt lat="45.7392" lon="6.66011">
        <ele>2451</ele>
        <time>2022-07-16T20:42:19Z</time>
      </trkpt>
      <trkpt lat="45.73922" lon="6.66008">
        <ele>2451</ele>
        <time>2022-07-16T20:42:22Z</time>
      </trkpt>
      <trkpt lat="45.73922" lon="6.66006">
        <ele>2451</ele>
        <time>2022-07-16T20:42:24Z</time>
      </trkpt>
      <trkpt lat="45.73923" lon="6.66003">
        <ele>2451</ele>
        <time>2022-07-16T20:42:25Z</time>
      </trkpt>
      <trkpt lat="45.73925" lon="6.66001">
        <ele>2451</ele>
        <time>2022-07-16T20:42:27Z</time>
      </trkpt>
      <trkpt lat="45.73926" lon="6.65998">
        <ele>2451</ele>
        <time>2022-07-16T20:42:29Z</time>
      </trkpt>
      <trkpt lat="45.73927" lon="6.65996">
        <ele>2451</ele>
        <time>2022-07-16T20:42:31Z</time>
      </trkpt>
      <trkpt lat="45.73929" lon="6.65993">
        <ele>2451</ele>
        <time>2022-07-16T20:42:34Z</time>
      </trkpt>
      <trkpt lat="45.7393" lon="6.6599">
        <ele>2451</ele>
        <time>2022-07-16T20:42:35Z</time>
      </trkpt>
      <trkpt lat="45.73931" lon="6.65988">
        <ele>2452</ele>
        <time>2022-07-16T20:42:37Z</time>
      </trkpt>
      <trkpt lat="45.73933" lon="6.65985">
        <ele>2452</ele>
        <time>2022-07-16T20:42:39Z</time>
      </trkpt>
      <trkpt lat="45.73934" lon="6.65981">
        <ele>2452</ele>
        <time>2022-07-16T20:42:41Z</time>
      </trkpt>
      <trkpt lat="45.73936" lon="6.65979">
        <ele>2451</ele>
        <time>2022-07-16T20:42:43Z</time>
      </trkpt>
      <trkpt lat="45.73937" lon="6.65976">
        <ele>2451</ele>
        <time>2022-07-16T20:42:46Z</time>
      </trkpt>
      <trkpt lat="45.73938" lon="6.65973">
        <ele>2451</ele>
        <time>2022-07-16T20:42:47Z</time>
      </trkpt>
      <trkpt lat="45.7394" lon="6.65971">
        <ele>2450</ele>
        <time>2022-07-16T20:42:50Z</time>
      </trkpt>
      <trkpt lat="45.73942" lon="6.65968">
        <ele>2450</ele>
        <time>2022-07-16T20:42:52Z</time>
      </trkpt>
      <trkpt lat="45.73943" lon="6.65966">
        <ele>2450</ele>
        <time>2022-07-16T20:42:53Z</time>
      </trkpt>
      <trkpt lat="45.73945" lon="6.65964">
        <ele>2450</ele>
        <time>2022-07-16T20:42:55Z</time>
      </trkpt>
      <trkpt lat="45.73947" lon="6.65961">
        <ele>2450</ele>
        <time>2022-07-16T20:42:58Z</time>
      </trkpt>
      <trkpt lat="45.73948" lon="6.65959">
        <ele>2450</ele>
        <time>2022-07-16T20:43:00Z</time>
      </trkpt>
      <trkpt lat="45.7395" lon="6.65957">
        <ele>2450</ele>
        <time>2022-07-16T20:43:01Z</time>
      </trkpt>
      <trkpt lat="45.73952" lon="6.65955">
        <ele>2450</ele>
        <time>2022-07-16T20:43:03Z</time>
      </trkpt>
      <trkpt lat="45.73954" lon="6.65952">
        <ele>2450</ele>
        <time>2022-07-16T20:43:05Z</time>
      </trkpt>
      <trkpt lat="45.73956" lon="6.6595">
        <ele>2450</ele>
        <time>2022-07-16T20:43:08Z</time>
      </trkpt>
      <trkpt lat="45.73958" lon="6.65948">
        <ele>2450</ele>
        <time>2022-07-16T20:43:10Z</time>
      </trkpt>
      <trkpt lat="45.7396" lon="6.65945">
        <ele>2449</ele>
        <time>2022-07-16T20:43:11Z</time>
      </trkpt>
      <trkpt lat="45.73962" lon="6.65942">
        <ele>2449</ele>
        <time>2022-07-16T20:43:13Z</time>
      </trkpt>
      <trkpt lat="45.73965" lon="6.65939">
        <ele>2449</ele>
        <time>2022-07-16T20:43:15Z</time>
      </trkpt>
      <trkpt lat="45.73967" lon="6.65936">
        <ele>2448</ele>
        <time>2022-07-16T20:43:17Z</time>
      </trkpt>
      <trkpt lat="45.73968" lon="6.65933">
        <ele>2448</ele>
        <time>2022-07-16T20:43:20Z</time>
      </trkpt>
      <trkpt lat="45.7397" lon="6.6593">
        <ele>2448</ele>
        <time>2022-07-16T20:43:21Z</time>
      </trkpt>
      <trkpt lat="45.73971" lon="6.65927">
        <ele>2448</ele>
        <time>2022-07-16T20:43:24Z</time>
      </trkpt>
      <trkpt lat="45.73972" lon="6.65924">
        <ele>2448</ele>
        <time>2022-07-16T20:43:25Z</time>
      </trkpt>
      <trkpt lat="45.73973" lon="6.65922">
        <ele>2448</ele>
        <time>2022-07-16T20:43:28Z</time>
      </trkpt>
      <trkpt lat="45.73974" lon="6.65918">
        <ele>2447</ele>
        <time>2022-07-16T20:43:30Z</time>
      </trkpt>
      <trkpt lat="45.73976" lon="6.65915">
        <ele>2447</ele>
        <time>2022-07-16T20:43:31Z</time>
      </trkpt>
      <trkpt lat="45.73977" lon="6.65911">
        <ele>2447</ele>
        <time>2022-07-16T20:43:33Z</time>
      </trkpt>
      <trkpt lat="45.73977" lon="6.65908">
        <ele>2447</ele>
        <time>2022-07-16T20:43:35Z</time>
      </trkpt>
      <trkpt lat="45.73978" lon="6.65904">
        <ele>2447</ele>
        <time>2022-07-16T20:43:37Z</time>
      </trkpt>
      <trkpt lat="45.73979" lon="6.65901">
        <ele>2447</ele>
        <time>2022-07-16T20:43:39Z</time>
      </trkpt>
      <trkpt lat="45.7398" lon="6.65898">
        <ele>2447</ele>
        <time>2022-07-16T20:43:41Z</time>
      </trkpt>
      <trkpt lat="45.73981" lon="6.65895">
        <ele>2447</ele>
        <time>2022-07-16T20:43:43Z</time>
      </trkpt>
      <trkpt lat="45.73982" lon="6.65892">
        <ele>2447</ele>
        <time>2022-07-16T20:43:46Z</time>
      </trkpt>
      <trkpt lat="45.73983" lon="6.65889">
        <ele>2448</ele>
        <time>2022-07-16T20:43:49Z</time>
      </trkpt>
      <trkpt lat="45.73983" lon="6.65886">
        <ele>2448</ele>
        <time>2022-07-16T20:43:50Z</time>
      </trkpt>
      <trkpt lat="45.73984" lon="6.65883">
        <ele>2448</ele>
        <time>2022-07-16T20:43:52Z</time>
      </trkpt>
      <trkpt lat="45.73985" lon="6.6588">
        <ele>2448</ele>
        <time>2022-07-16T20:43:54Z</time>
      </trkpt>
      <trkpt lat="45.73986" lon="6.65877">
        <ele>2449</ele>
        <time>2022-07-16T20:43:57Z</time>
      </trkpt>
      <trkpt lat="45.73987" lon="6.65874">
        <ele>2449</ele>
        <time>2022-07-16T20:43:58Z</time>
      </trkpt>
      <trkpt lat="45.73988" lon="6.65871">
        <ele>2449</ele>
        <time>2022-07-16T20:44:00Z</time>
      </trkpt>
      <trkpt lat="45.73988" lon="6.65867">
        <ele>2449</ele>
        <time>2022-07-16T20:44:02Z</time>
      </trkpt>
      <trkpt lat="45.73989" lon="6.65864">
        <ele>2449</ele>
        <time>2022-07-16T20:44:05Z</time>
      </trkpt>
      <trkpt lat="45.7399" lon="6.65861">
        <ele>2449</ele>
        <time>2022-07-16T20:44:07Z</time>
      </trkpt>
      <trkpt lat="45.7399" lon="6.65857">
        <ele>2448</ele>
        <time>2022-07-16T20:44:08Z</time>
      </trkpt>
      <trkpt lat="45.73991" lon="6.65854">
        <ele>2449</ele>
        <time>2022-07-16T20:44:10Z</time>
      </trkpt>
      <trkpt lat="45.73992" lon="6.65851">
        <ele>2449</ele>
        <time>2022-07-16T20:44:12Z</time>
      </trkpt>
      <trkpt lat="45.73993" lon="6.65847">
        <ele>2449</ele>
        <time>2022-07-16T20:44:14Z</time>
      </trkpt>
      <trkpt lat="45.73993" lon="6.65844">
        <ele>2449</ele>
        <time>2022-07-16T20:44:17Z</time>
      </trkpt>
      <trkpt lat="45.73994" lon="6.65841">
        <ele>2449</ele>
        <time>2022-07-16T20:44:18Z</time>
      </trkpt>
      <trkpt lat="45.73995" lon="6.65837">
        <ele>2449</ele>
        <time>2022-07-16T20:44:21Z</time>
      </trkpt>
      <trkpt lat="45.73995" lon="6.65834">
        <ele>2449</ele>
        <time>2022-07-16T20:44:22Z</time>
      </trkpt>
      <trkpt lat="45.73995" lon="6.65831">
        <ele>2449</ele>
        <time>2022-07-16T20:44:25Z</time>
      </trkpt>
      <trkpt lat="45.73995" lon="6.65827">
        <ele>2449</ele>
        <time>2022-07-16T20:44:26Z</time>
      </trkpt>
      <trkpt lat="45.73995" lon="6.65825">
        <ele>2449</ele>
        <time>2022-07-16T20:44:28Z</time>
      </trkpt>
      <trkpt lat="45.73995" lon="6.65821">
        <ele>2449</ele>
        <time>2022-07-16T20:44:30Z</time>
      </trkpt>
      <trkpt lat="45.73995" lon="6.65818">
        <ele>2449</ele>
        <time>2022-07-16T20:44:33Z</time>
      </trkpt>
      <trkpt lat="45.73996" lon="6.65815">
        <ele>2449</ele>
        <time>2022-07-16T20:44:34Z</time>
      </trkpt>
      <trkpt lat="45.73996" lon="6.65811">
        <ele>2449</ele>
        <time>2022-07-16T20:44:36Z</time>
      </trkpt>
      <trkpt lat="45.73996" lon="6.65808">
        <ele>2450</ele>
        <time>2022-07-16T20:44:38Z</time>
      </trkpt>
      <trkpt lat="45.73996" lon="6.65804">
        <ele>2450</ele>
        <time>2022-07-16T20:44:40Z</time>
      </trkpt>
      <trkpt lat="45.73996" lon="6.658">
        <ele>2450</ele>
        <time>2022-07-16T20:44:43Z</time>
      </trkpt>
      <trkpt lat="45.73996" lon="6.65797">
        <ele>2451</ele>
        <time>2022-07-16T20:44:47Z</time>
      </trkpt>
      <trkpt lat="45.73996" lon="6.65794">
        <ele>2451</ele>
        <time>2022-07-16T20:44:49Z</time>
      </trkpt>
      <trkpt lat="45.73996" lon="6.65791">
        <ele>2451</ele>
        <time>2022-07-16T20:44:50Z</time>
      </trkpt>
      <trkpt lat="45.73996" lon="6.65788">
        <ele>2451</ele>
        <time>2022-07-16T20:44:53Z</time>
      </trkpt>
      <trkpt lat="45.73996" lon="6.65785">
        <ele>2451</ele>
        <time>2022-07-16T20:44:54Z</time>
      </trkpt>
      <trkpt lat="45.73996" lon="6.65782">
        <ele>2451</ele>
        <time>2022-07-16T20:44:57Z</time>
      </trkpt>
      <trkpt lat="45.73995" lon="6.65779">
        <ele>2452</ele>
        <time>2022-07-16T20:44:59Z</time>
      </trkpt>
      <trkpt lat="45.73996" lon="6.65775">
        <ele>2452</ele>
        <time>2022-07-16T20:45:01Z</time>
      </trkpt>
      <trkpt lat="45.73996" lon="6.65773">
        <ele>2452</ele>
        <time>2022-07-16T20:45:04Z</time>
      </trkpt>
      <trkpt lat="45.73996" lon="6.6577">
        <ele>2453</ele>
        <time>2022-07-16T20:45:06Z</time>
      </trkpt>
      <trkpt lat="45.73998" lon="6.65768">
        <ele>2453</ele>
        <time>2022-07-16T20:45:08Z</time>
      </trkpt>
      <trkpt lat="45.74" lon="6.65766">
        <ele>2453</ele>
        <time>2022-07-16T20:45:11Z</time>
      </trkpt>
      <trkpt lat="45.74002" lon="6.65765">
        <ele>2454</ele>
        <time>2022-07-16T20:45:13Z</time>
      </trkpt>
      <trkpt lat="45.74004" lon="6.65762">
        <ele>2456</ele>
        <time>2022-07-16T20:45:16Z</time>
      </trkpt>
      <trkpt lat="45.74005" lon="6.65759">
        <ele>2456</ele>
        <time>2022-07-16T20:45:19Z</time>
      </trkpt>
      <trkpt lat="45.74006" lon="6.65756">
        <ele>2456</ele>
        <time>2022-07-16T20:45:22Z</time>
      </trkpt>
      <trkpt lat="45.74007" lon="6.65753">
        <ele>2456</ele>
        <time>2022-07-16T20:45:24Z</time>
      </trkpt>
      <trkpt lat="45.74007" lon="6.6575">
        <ele>2456</ele>
        <time>2022-07-16T20:45:26Z</time>
      </trkpt>
      <trkpt lat="45.74008" lon="6.65748">
        <ele>2457</ele>
        <time>2022-07-16T20:45:28Z</time>
      </trkpt>
      <trkpt lat="45.74008" lon="6.65745">
        <ele>2457</ele>
        <time>2022-07-16T20:45:30Z</time>
      </trkpt>
      <trkpt lat="45.74008" lon="6.65742">
        <ele>2457</ele>
        <time>2022-07-16T20:45:32Z</time>
      </trkpt>
      <trkpt lat="45.74008" lon="6.65739">
        <ele>2457</ele>
        <time>2022-07-16T20:45:34Z</time>
      </trkpt>
      <trkpt lat="45.74008" lon="6.65736">
        <ele>2457</ele>
        <time>2022-07-16T20:45:36Z</time>
      </trkpt>
      <trkpt lat="45.74008" lon="6.65734">
        <ele>2458</ele>
        <time>2022-07-16T20:45:38Z</time>
      </trkpt>
      <trkpt lat="45.74008" lon="6.65731">
        <ele>2458</ele>
        <time>2022-07-16T20:45:40Z</time>
      </trkpt>
      <trkpt lat="45.74009" lon="6.65729">
        <ele>2458</ele>
        <time>2022-07-16T20:45:42Z</time>
      </trkpt>
      <trkpt lat="45.74009" lon="6.65726">
        <ele>2458</ele>
        <time>2022-07-16T20:45:45Z</time>
      </trkpt>
      <trkpt lat="45.74011" lon="6.65722">
        <ele>2458</ele>
        <time>2022-07-16T20:45:47Z</time>
      </trkpt>
      <trkpt lat="45.74012" lon="6.6572">
        <ele>2458</ele>
        <time>2022-07-16T20:45:50Z</time>
      </trkpt>
      <trkpt lat="45.74012" lon="6.65717">
        <ele>2458</ele>
        <time>2022-07-16T20:45:51Z</time>
      </trkpt>
      <trkpt lat="45.74013" lon="6.65714">
        <ele>2458</ele>
        <time>2022-07-16T20:45:53Z</time>
      </trkpt>
      <trkpt lat="45.74015" lon="6.65712">
        <ele>2458</ele>
        <time>2022-07-16T20:45:55Z</time>
      </trkpt>
      <trkpt lat="45.74017" lon="6.65709">
        <ele>2459</ele>
        <time>2022-07-16T20:45:58Z</time>
      </trkpt>
      <trkpt lat="45.74019" lon="6.65706">
        <ele>2459</ele>
        <time>2022-07-16T20:46:01Z</time>
      </trkpt>
      <trkpt lat="45.7402" lon="6.65704">
        <ele>2460</ele>
        <time>2022-07-16T20:46:04Z</time>
      </trkpt>
      <trkpt lat="45.74021" lon="6.65701">
        <ele>2460</ele>
        <time>2022-07-16T20:46:07Z</time>
      </trkpt>
      <trkpt lat="45.74021" lon="6.65698">
        <ele>2461</ele>
        <time>2022-07-16T20:46:11Z</time>
      </trkpt>
      <trkpt lat="45.74021" lon="6.65695">
        <ele>2462</ele>
        <time>2022-07-16T20:46:15Z</time>
      </trkpt>
      <trkpt lat="45.74021" lon="6.65692">
        <ele>2463</ele>
        <time>2022-07-16T20:46:18Z</time>
      </trkpt>
      <trkpt lat="45.74022" lon="6.6569">
        <ele>2463</ele>
        <time>2022-07-16T20:46:20Z</time>
      </trkpt>
      <trkpt lat="45.74023" lon="6.65687">
        <ele>2464</ele>
        <time>2022-07-16T20:46:23Z</time>
      </trkpt>
      <trkpt lat="45.74023" lon="6.65685">
        <ele>2464</ele>
        <time>2022-07-16T20:46:26Z</time>
      </trkpt>
      <trkpt lat="45.74025" lon="6.65683">
        <ele>2464</ele>
        <time>2022-07-16T20:46:29Z</time>
      </trkpt>
      <trkpt lat="45.74026" lon="6.65681">
        <ele>2465</ele>
        <time>2022-07-16T20:46:32Z</time>
      </trkpt>
      <trkpt lat="45.74028" lon="6.6568">
        <ele>2465</ele>
        <time>2022-07-16T20:46:36Z</time>
      </trkpt>
      <trkpt lat="45.7403" lon="6.65678">
        <ele>2466</ele>
        <time>2022-07-16T20:46:39Z</time>
      </trkpt>
      <trkpt lat="45.74032" lon="6.65677">
        <ele>2467</ele>
        <time>2022-07-16T20:46:42Z</time>
      </trkpt>
      <trkpt lat="45.74034" lon="6.65675">
        <ele>2467</ele>
        <time>2022-07-16T20:46:46Z</time>
      </trkpt>
      <trkpt lat="45.74035" lon="6.65674">
        <ele>2467</ele>
        <time>2022-07-16T20:46:48Z</time>
      </trkpt>
      <trkpt lat="45.74037" lon="6.65671">
        <ele>2468</ele>
        <time>2022-07-16T20:46:53Z</time>
      </trkpt>
      <trkpt lat="45.74037" lon="6.65668">
        <ele>2468</ele>
        <time>2022-07-16T20:46:57Z</time>
      </trkpt>
      <trkpt lat="45.74038" lon="6.65665">
        <ele>2470</ele>
        <time>2022-07-16T20:46:59Z</time>
      </trkpt>
      <trkpt lat="45.74038" lon="6.65662">
        <ele>2470</ele>
        <time>2022-07-16T20:47:04Z</time>
      </trkpt>
      <trkpt lat="45.74038" lon="6.65659">
        <ele>2470</ele>
        <time>2022-07-16T20:47:06Z</time>
      </trkpt>
      <trkpt lat="45.74038" lon="6.65656">
        <ele>2470</ele>
        <time>2022-07-16T20:47:08Z</time>
      </trkpt>
      <trkpt lat="45.74038" lon="6.65653">
        <ele>2470</ele>
        <time>2022-07-16T20:47:10Z</time>
      </trkpt>
      <trkpt lat="45.74038" lon="6.65651">
        <ele>2470</ele>
        <time>2022-07-16T20:47:12Z</time>
      </trkpt>
      <trkpt lat="45.74038" lon="6.65648">
        <ele>2470</ele>
        <time>2022-07-16T20:47:13Z</time>
      </trkpt>
      <trkpt lat="45.74039" lon="6.65644">
        <ele>2470</ele>
        <time>2022-07-16T20:47:17Z</time>
      </trkpt>
      <trkpt lat="45.74039" lon="6.65641">
        <ele>2470</ele>
        <time>2022-07-16T20:47:19Z</time>
      </trkpt>
      <trkpt lat="45.74039" lon="6.65637">
        <ele>2471</ele>
        <time>2022-07-16T20:47:22Z</time>
      </trkpt>
      <trkpt lat="45.74039" lon="6.65634">
        <ele>2472</ele>
        <time>2022-07-16T20:47:25Z</time>
      </trkpt>
      <trkpt lat="45.74039" lon="6.65631">
        <ele>2472</ele>
        <time>2022-07-16T20:47:29Z</time>
      </trkpt>
      <trkpt lat="45.74039" lon="6.65628">
        <ele>2472</ele>
        <time>2022-07-16T20:47:31Z</time>
      </trkpt>
      <trkpt lat="45.74039" lon="6.65625">
        <ele>2474</ele>
        <time>2022-07-16T20:47:34Z</time>
      </trkpt>
      <trkpt lat="45.74039" lon="6.65622">
        <ele>2475</ele>
        <time>2022-07-16T20:47:37Z</time>
      </trkpt>
      <trkpt lat="45.74039" lon="6.65619">
        <ele>2475</ele>
        <time>2022-07-16T20:47:40Z</time>
      </trkpt>
      <trkpt lat="45.74038" lon="6.65616">
        <ele>2475</ele>
        <time>2022-07-16T20:47:43Z</time>
      </trkpt>
      <trkpt lat="45.74037" lon="6.65614">
        <ele>2475</ele>
        <time>2022-07-16T20:47:45Z</time>
      </trkpt>
      <trkpt lat="45.74036" lon="6.65611">
        <ele>2475</ele>
        <time>2022-07-16T20:47:48Z</time>
      </trkpt>
      <trkpt lat="45.74035" lon="6.65608">
        <ele>2475</ele>
        <time>2022-07-16T20:47:50Z</time>
      </trkpt>
      <trkpt lat="45.74033" lon="6.65606">
        <ele>2475</ele>
        <time>2022-07-16T20:47:51Z</time>
      </trkpt>
      <trkpt lat="45.74032" lon="6.65603">
        <ele>2475</ele>
        <time>2022-07-16T20:47:54Z</time>
      </trkpt>
      <trkpt lat="45.7403" lon="6.656">
        <ele>2475</ele>
        <time>2022-07-16T20:47:55Z</time>
      </trkpt>
      <trkpt lat="45.74029" lon="6.65597">
        <ele>2475</ele>
        <time>2022-07-16T20:47:58Z</time>
      </trkpt>
      <trkpt lat="45.74027" lon="6.65594">
        <ele>2475</ele>
        <time>2022-07-16T20:48:00Z</time>
      </trkpt>
      <trkpt lat="45.74026" lon="6.65591">
        <ele>2475</ele>
        <time>2022-07-16T20:48:02Z</time>
      </trkpt>
      <trkpt lat="45.74025" lon="6.65588">
        <ele>2475</ele>
        <time>2022-07-16T20:48:03Z</time>
      </trkpt>
      <trkpt lat="45.74024" lon="6.65585">
        <ele>2475</ele>
        <time>2022-07-16T20:48:05Z</time>
      </trkpt>
      <trkpt lat="45.74022" lon="6.65582">
        <ele>2475</ele>
        <time>2022-07-16T20:48:07Z</time>
      </trkpt>
      <trkpt lat="45.7402" lon="6.65581">
        <ele>2475</ele>
        <time>2022-07-16T20:48:10Z</time>
      </trkpt>
      <trkpt lat="45.74018" lon="6.6558">
        <ele>2475</ele>
        <time>2022-07-16T20:48:12Z</time>
      </trkpt>
      <trkpt lat="45.74016" lon="6.65579">
        <ele>2475</ele>
        <time>2022-07-16T20:48:14Z</time>
      </trkpt>
      <trkpt lat="45.74014" lon="6.65579">
        <ele>2475</ele>
        <time>2022-07-16T20:48:15Z</time>
      </trkpt>
      <trkpt lat="45.74012" lon="6.65578">
        <ele>2474</ele>
        <time>2022-07-16T20:48:17Z</time>
      </trkpt>
      <trkpt lat="45.7401" lon="6.65577">
        <ele>2472</ele>
        <time>2022-07-16T20:48:19Z</time>
      </trkpt>
      <trkpt lat="45.74008" lon="6.65576">
        <ele>2472</ele>
        <time>2022-07-16T20:48:21Z</time>
      </trkpt>
      <trkpt lat="45.74005" lon="6.65575">
        <ele>2472</ele>
        <time>2022-07-16T20:48:23Z</time>
      </trkpt>
      <trkpt lat="45.74003" lon="6.65574">
        <ele>2472</ele>
        <time>2022-07-16T20:48:26Z</time>
      </trkpt>
      <trkpt lat="45.74001" lon="6.65574">
        <ele>2472</ele>
        <time>2022-07-16T20:48:28Z</time>
      </trkpt>
      <trkpt lat="45.73999" lon="6.65573">
        <ele>2472</ele>
        <time>2022-07-16T20:48:29Z</time>
      </trkpt>
      <trkpt lat="45.73997" lon="6.65571">
        <ele>2472</ele>
        <time>2022-07-16T20:48:32Z</time>
      </trkpt>
      <trkpt lat="45.73995" lon="6.65569">
        <ele>2472</ele>
        <time>2022-07-16T20:48:33Z</time>
      </trkpt>
      <trkpt lat="45.73993" lon="6.65567">
        <ele>2471</ele>
        <time>2022-07-16T20:48:35Z</time>
      </trkpt>
      <trkpt lat="45.73991" lon="6.65565">
        <ele>2471</ele>
        <time>2022-07-16T20:48:37Z</time>
      </trkpt>
      <trkpt lat="45.73989" lon="6.65564">
        <ele>2471</ele>
        <time>2022-07-16T20:48:40Z</time>
      </trkpt>
      <trkpt lat="45.73987" lon="6.65563">
        <ele>2471</ele>
        <time>2022-07-16T20:48:42Z</time>
      </trkpt>
      <trkpt lat="45.73985" lon="6.65562">
        <ele>2471</ele>
        <time>2022-07-16T20:48:43Z</time>
      </trkpt>
      <trkpt lat="45.73983" lon="6.65561">
        <ele>2471</ele>
        <time>2022-07-16T20:48:46Z</time>
      </trkpt>
      <trkpt lat="45.73981" lon="6.6556">
        <ele>2471</ele>
        <time>2022-07-16T20:48:47Z</time>
      </trkpt>
      <trkpt lat="45.73979" lon="6.65559">
        <ele>2471</ele>
        <time>2022-07-16T20:48:49Z</time>
      </trkpt>
      <trkpt lat="45.73977" lon="6.65558">
        <ele>2471</ele>
        <time>2022-07-16T20:48:52Z</time>
      </trkpt>
      <trkpt lat="45.73975" lon="6.65557">
        <ele>2471</ele>
        <time>2022-07-16T20:48:54Z</time>
      </trkpt>
      <trkpt lat="45.73972" lon="6.65555">
        <ele>2470</ele>
        <time>2022-07-16T20:48:56Z</time>
      </trkpt>
      <trkpt lat="45.73972" lon="6.65552">
        <ele>2470</ele>
        <time>2022-07-16T20:48:59Z</time>
      </trkpt>
      <trkpt lat="45.73972" lon="6.65549">
        <ele>2469</ele>
        <time>2022-07-16T20:49:01Z</time>
      </trkpt>
      <trkpt lat="45.73971" lon="6.65546">
        <ele>2469</ele>
        <time>2022-07-16T20:49:03Z</time>
      </trkpt>
      <trkpt lat="45.7397" lon="6.65543">
        <ele>2469</ele>
        <time>2022-07-16T20:49:06Z</time>
      </trkpt>
      <trkpt lat="45.73969" lon="6.6554">
        <ele>2469</ele>
        <time>2022-07-16T20:49:08Z</time>
      </trkpt>
      <trkpt lat="45.73969" lon="6.65537">
        <ele>2469</ele>
        <time>2022-07-16T20:49:11Z</time>
      </trkpt>
      <trkpt lat="45.73968" lon="6.65534">
        <ele>2468</ele>
        <time>2022-07-16T20:49:13Z</time>
      </trkpt>
      <trkpt lat="45.73967" lon="6.65531">
        <ele>2468</ele>
        <time>2022-07-16T20:49:14Z</time>
      </trkpt>
      <trkpt lat="45.73966" lon="6.65528">
        <ele>2468</ele>
        <time>2022-07-16T20:49:16Z</time>
      </trkpt>
      <trkpt lat="45.73965" lon="6.65525">
        <ele>2468</ele>
        <time>2022-07-16T20:49:18Z</time>
      </trkpt>
      <trkpt lat="45.73964" lon="6.65522">
        <ele>2468</ele>
        <time>2022-07-16T20:49:20Z</time>
      </trkpt>
      <trkpt lat="45.73962" lon="6.65519">
        <ele>2468</ele>
        <time>2022-07-16T20:49:23Z</time>
      </trkpt>
      <trkpt lat="45.73961" lon="6.65516">
        <ele>2468</ele>
        <time>2022-07-16T20:49:25Z</time>
      </trkpt>
      <trkpt lat="45.7396" lon="6.65514">
        <ele>2468</ele>
        <time>2022-07-16T20:49:27Z</time>
      </trkpt>
      <trkpt lat="45.73959" lon="6.65511">
        <ele>2468</ele>
        <time>2022-07-16T20:49:29Z</time>
      </trkpt>
      <trkpt lat="45.73959" lon="6.65508">
        <ele>2468</ele>
        <time>2022-07-16T20:49:31Z</time>
      </trkpt>
      <trkpt lat="45.73959" lon="6.65505">
        <ele>2468</ele>
        <time>2022-07-16T20:49:33Z</time>
      </trkpt>
      <trkpt lat="45.73958" lon="6.65502">
        <ele>2468</ele>
        <time>2022-07-16T20:49:34Z</time>
      </trkpt>
      <trkpt lat="45.73958" lon="6.65498">
        <ele>2468</ele>
        <time>2022-07-16T20:49:37Z</time>
      </trkpt>
      <trkpt lat="45.73958" lon="6.65495">
        <ele>2468</ele>
        <time>2022-07-16T20:49:39Z</time>
      </trkpt>
      <trkpt lat="45.73958" lon="6.65492">
        <ele>2468</ele>
        <time>2022-07-16T20:49:41Z</time>
      </trkpt>
      <trkpt lat="45.73959" lon="6.65489">
        <ele>2468</ele>
        <time>2022-07-16T20:49:43Z</time>
      </trkpt>
      <trkpt lat="45.73959" lon="6.65487">
        <ele>2468</ele>
        <time>2022-07-16T20:49:44Z</time>
      </trkpt>
      <trkpt lat="45.7396" lon="6.65483">
        <ele>2468</ele>
        <time>2022-07-16T20:49:46Z</time>
      </trkpt>
      <trkpt lat="45.7396" lon="6.65481">
        <ele>2468</ele>
        <time>2022-07-16T20:49:49Z</time>
      </trkpt>
      <trkpt lat="45.73961" lon="6.65478">
        <ele>2468</ele>
        <time>2022-07-16T20:49:51Z</time>
      </trkpt>
      <trkpt lat="45.73963" lon="6.65476">
        <ele>2468</ele>
        <time>2022-07-16T20:49:52Z</time>
      </trkpt>
      <trkpt lat="45.73964" lon="6.65474">
        <ele>2468</ele>
        <time>2022-07-16T20:49:55Z</time>
      </trkpt>
      <trkpt lat="45.73966" lon="6.65472">
        <ele>2468</ele>
        <time>2022-07-16T20:49:56Z</time>
      </trkpt>
      <trkpt lat="45.73968" lon="6.65471">
        <ele>2468</ele>
        <time>2022-07-16T20:49:58Z</time>
      </trkpt>
      <trkpt lat="45.73971" lon="6.6547">
        <ele>2468</ele>
        <time>2022-07-16T20:50:01Z</time>
      </trkpt>
      <trkpt lat="45.73973" lon="6.65469">
        <ele>2468</ele>
        <time>2022-07-16T20:50:02Z</time>
      </trkpt>
      <trkpt lat="45.73976" lon="6.65469">
        <ele>2468</ele>
        <time>2022-07-16T20:50:05Z</time>
      </trkpt>
      <trkpt lat="45.73978" lon="6.6547">
        <ele>2468</ele>
        <time>2022-07-16T20:50:07Z</time>
      </trkpt>
      <trkpt lat="45.73981" lon="6.65471">
        <ele>2468</ele>
        <time>2022-07-16T20:50:09Z</time>
      </trkpt>
      <trkpt lat="45.73983" lon="6.65471">
        <ele>2468</ele>
        <time>2022-07-16T20:50:11Z</time>
      </trkpt>
      <trkpt lat="45.73986" lon="6.65472">
        <ele>2467</ele>
        <time>2022-07-16T20:50:13Z</time>
      </trkpt>
      <trkpt lat="45.73988" lon="6.65472">
        <ele>2467</ele>
        <time>2022-07-16T20:50:14Z</time>
      </trkpt>
      <trkpt lat="45.73991" lon="6.65473">
        <ele>2467</ele>
        <time>2022-07-16T20:50:17Z</time>
      </trkpt>
      <trkpt lat="45.73994" lon="6.65474">
        <ele>2466</ele>
        <time>2022-07-16T20:50:19Z</time>
      </trkpt>
      <trkpt lat="45.73996" lon="6.65475">
        <ele>2465</ele>
        <time>2022-07-16T20:50:20Z</time>
      </trkpt>
      <trkpt lat="45.73999" lon="6.65476">
        <ele>2465</ele>
        <time>2022-07-16T20:50:23Z</time>
      </trkpt>
      <trkpt lat="45.74001" lon="6.65476">
        <ele>2465</ele>
        <time>2022-07-16T20:50:24Z</time>
      </trkpt>
      <trkpt lat="45.74004" lon="6.65477">
        <ele>2465</ele>
        <time>2022-07-16T20:50:27Z</time>
      </trkpt>
      <trkpt lat="45.74006" lon="6.65477">
        <ele>2465</ele>
        <time>2022-07-16T20:50:28Z</time>
      </trkpt>
      <trkpt lat="45.74009" lon="6.65477">
        <ele>2465</ele>
        <time>2022-07-16T20:50:31Z</time>
      </trkpt>
      <trkpt lat="45.74012" lon="6.65478">
        <ele>2465</ele>
        <time>2022-07-16T20:50:33Z</time>
      </trkpt>
      <trkpt lat="45.74014" lon="6.65478">
        <ele>2465</ele>
        <time>2022-07-16T20:50:35Z</time>
      </trkpt>
      <trkpt lat="45.74016" lon="6.65479">
        <ele>2465</ele>
        <time>2022-07-16T20:50:36Z</time>
      </trkpt>
      <trkpt lat="45.74018" lon="6.65479">
        <ele>2465</ele>
        <time>2022-07-16T20:50:39Z</time>
      </trkpt>
      <trkpt lat="45.74021" lon="6.6548">
        <ele>2465</ele>
        <time>2022-07-16T20:50:41Z</time>
      </trkpt>
      <trkpt lat="45.74023" lon="6.65481">
        <ele>2465</ele>
        <time>2022-07-16T20:50:42Z</time>
      </trkpt>
      <trkpt lat="45.74025" lon="6.65482">
        <ele>2465</ele>
        <time>2022-07-16T20:50:45Z</time>
      </trkpt>
      <trkpt lat="45.74027" lon="6.65484">
        <ele>2465</ele>
        <time>2022-07-16T20:50:47Z</time>
      </trkpt>
      <trkpt lat="45.74029" lon="6.65486">
        <ele>2465</ele>
        <time>2022-07-16T20:50:48Z</time>
      </trkpt>
      <trkpt lat="45.74031" lon="6.65486">
        <ele>2465</ele>
        <time>2022-07-16T20:50:51Z</time>
      </trkpt>
      <trkpt lat="45.74033" lon="6.65487">
        <ele>2465</ele>
        <time>2022-07-16T20:50:53Z</time>
      </trkpt>
      <trkpt lat="45.74035" lon="6.65487">
        <ele>2465</ele>
        <time>2022-07-16T20:50:54Z</time>
      </trkpt>
      <trkpt lat="45.74038" lon="6.65487">
        <ele>2465</ele>
        <time>2022-07-16T20:50:56Z</time>
      </trkpt>
      <trkpt lat="45.7404" lon="6.65487">
        <ele>2465</ele>
        <time>2022-07-16T20:50:59Z</time>
      </trkpt>
      <trkpt lat="45.74042" lon="6.65486">
        <ele>2464</ele>
        <time>2022-07-16T20:51:01Z</time>
      </trkpt>
      <trkpt lat="45.74043" lon="6.65485">
        <ele>2464</ele>
        <time>2022-07-16T20:51:04Z</time>
      </trkpt>
      <trkpt lat="45.74045" lon="6.65483">
        <ele>2464</ele>
        <time>2022-07-16T20:51:05Z</time>
      </trkpt>
      <trkpt lat="45.74046" lon="6.65481">
        <ele>2464</ele>
        <time>2022-07-16T20:51:08Z</time>
      </trkpt>
      <trkpt lat="45.74048" lon="6.65479">
        <ele>2464</ele>
        <time>2022-07-16T20:51:09Z</time>
      </trkpt>
      <trkpt lat="45.7405" lon="6.65477">
        <ele>2463</ele>
        <time>2022-07-16T20:51:11Z</time>
      </trkpt>
      <trkpt lat="45.74051" lon="6.65475">
        <ele>2463</ele>
        <time>2022-07-16T20:51:13Z</time>
      </trkpt>
      <trkpt lat="45.74053" lon="6.65472">
        <ele>2463</ele>
        <time>2022-07-16T20:51:16Z</time>
      </trkpt>
      <trkpt lat="45.74054" lon="6.6547">
        <ele>2462</ele>
        <time>2022-07-16T20:51:18Z</time>
      </trkpt>
      <trkpt lat="45.74055" lon="6.65468">
        <ele>2462</ele>
        <time>2022-07-16T20:51:19Z</time>
      </trkpt>
      <trkpt lat="45.74057" lon="6.65466">
        <ele>2462</ele>
        <time>2022-07-16T20:51:21Z</time>
      </trkpt>
      <trkpt lat="45.74059" lon="6.65466">
        <ele>2461</ele>
        <time>2022-07-16T20:51:24Z</time>
      </trkpt>
      <trkpt lat="45.74061" lon="6.65466">
        <ele>2460</ele>
        <time>2022-07-16T20:51:26Z</time>
      </trkpt>
      <trkpt lat="45.74064" lon="6.65467">
        <ele>2459</ele>
        <time>2022-07-16T20:51:29Z</time>
      </trkpt>
      <trkpt lat="45.74067" lon="6.65468">
        <ele>2459</ele>
        <time>2022-07-16T20:51:31Z</time>
      </trkpt>
      <trkpt lat="45.74069" lon="6.65469">
        <ele>2459</ele>
        <time>2022-07-16T20:51:34Z</time>
      </trkpt>
      <trkpt lat="45.74071" lon="6.6547">
        <ele>2458</ele>
        <time>2022-07-16T20:51:36Z</time>
      </trkpt>
      <trkpt lat="45.74073" lon="6.6547">
        <ele>2458</ele>
        <time>2022-07-16T20:51:38Z</time>
      </trkpt>
      <trkpt lat="45.74076" lon="6.6547">
        <ele>2458</ele>
        <time>2022-07-16T20:51:40Z</time>
      </trkpt>
      <trkpt lat="45.74078" lon="6.6547">
        <ele>2457</ele>
        <time>2022-07-16T20:51:42Z</time>
      </trkpt>
      <trkpt lat="45.7408" lon="6.65472">
        <ele>2457</ele>
        <time>2022-07-16T20:51:44Z</time>
      </trkpt>
      <trkpt lat="45.74082" lon="6.65473">
        <ele>2457</ele>
        <time>2022-07-16T20:51:46Z</time>
      </trkpt>
      <trkpt lat="45.74084" lon="6.65474">
        <ele>2457</ele>
        <time>2022-07-16T20:51:47Z</time>
      </trkpt>
      <trkpt lat="45.74086" lon="6.65476">
        <ele>2457</ele>
        <time>2022-07-16T20:51:49Z</time>
      </trkpt>
      <trkpt lat="45.74088" lon="6.65477">
        <ele>2456</ele>
        <time>2022-07-16T20:51:52Z</time>
      </trkpt>
      <trkpt lat="45.7409" lon="6.65478">
        <ele>2456</ele>
        <time>2022-07-16T20:51:54Z</time>
      </trkpt>
      <trkpt lat="45.74092" lon="6.65478">
        <ele>2456</ele>
        <time>2022-07-16T20:51:56Z</time>
      </trkpt>
      <trkpt lat="45.74094" lon="6.6548">
        <ele>2456</ele>
        <time>2022-07-16T20:51:57Z</time>
      </trkpt>
      <trkpt lat="45.74096" lon="6.65482">
        <ele>2454</ele>
        <time>2022-07-16T20:52:01Z</time>
      </trkpt>
      <trkpt lat="45.74098" lon="6.65484">
        <ele>2454</ele>
        <time>2022-07-16T20:52:03Z</time>
      </trkpt>
      <trkpt lat="45.741" lon="6.65486">
        <ele>2456</ele>
        <time>2022-07-16T20:52:06Z</time>
      </trkpt>
      <trkpt lat="45.74102" lon="6.65487">
        <ele>2456</ele>
        <time>2022-07-16T20:52:07Z</time>
      </trkpt>
      <trkpt lat="45.74104" lon="6.65489">
        <ele>2456</ele>
        <time>2022-07-16T20:52:09Z</time>
      </trkpt>
      <trkpt lat="45.74105" lon="6.65492">
        <ele>2456</ele>
        <time>2022-07-16T20:52:12Z</time>
      </trkpt>
      <trkpt lat="45.74107" lon="6.65494">
        <ele>2456</ele>
        <time>2022-07-16T20:52:14Z</time>
      </trkpt>
      <trkpt lat="45.74109" lon="6.65495">
        <ele>2456</ele>
        <time>2022-07-16T20:52:15Z</time>
      </trkpt>
      <trkpt lat="45.74111" lon="6.65496">
        <ele>2456</ele>
        <time>2022-07-16T20:52:18Z</time>
      </trkpt>
      <trkpt lat="45.74113" lon="6.65497">
        <ele>2456</ele>
        <time>2022-07-16T20:52:19Z</time>
      </trkpt>
      <trkpt lat="45.74115" lon="6.65497">
        <ele>2456</ele>
        <time>2022-07-16T20:52:22Z</time>
      </trkpt>
      <trkpt lat="45.74117" lon="6.65497">
        <ele>2456</ele>
        <time>2022-07-16T20:52:23Z</time>
      </trkpt>
      <trkpt lat="45.7412" lon="6.65497">
        <ele>2456</ele>
        <time>2022-07-16T20:52:25Z</time>
      </trkpt>
      <trkpt lat="45.74122" lon="6.65497">
        <ele>2457</ele>
        <time>2022-07-16T20:52:28Z</time>
      </trkpt>
      <trkpt lat="45.74124" lon="6.65497">
        <ele>2457</ele>
        <time>2022-07-16T20:52:29Z</time>
      </trkpt>
      <trkpt lat="45.74126" lon="6.65496">
        <ele>2456</ele>
        <time>2022-07-16T20:52:31Z</time>
      </trkpt>
      <trkpt lat="45.74129" lon="6.65496">
        <ele>2456</ele>
        <time>2022-07-16T20:52:33Z</time>
      </trkpt>
      <trkpt lat="45.74131" lon="6.65495">
        <ele>2454</ele>
        <time>2022-07-16T20:52:36Z</time>
      </trkpt>
      <trkpt lat="45.74134" lon="6.65494">
        <ele>2454</ele>
        <time>2022-07-16T20:52:38Z</time>
      </trkpt>
      <trkpt lat="45.74136" lon="6.65494">
        <ele>2454</ele>
        <time>2022-07-16T20:52:40Z</time>
      </trkpt>
      <trkpt lat="45.74138" lon="6.65494">
        <ele>2454</ele>
        <time>2022-07-16T20:52:41Z</time>
      </trkpt>
      <trkpt lat="45.7414" lon="6.65493">
        <ele>2454</ele>
        <time>2022-07-16T20:52:44Z</time>
      </trkpt>
      <trkpt lat="45.74142" lon="6.65492">
        <ele>2454</ele>
        <time>2022-07-16T20:52:46Z</time>
      </trkpt>
      <trkpt lat="45.74145" lon="6.65491">
        <ele>2454</ele>
        <time>2022-07-16T20:52:48Z</time>
      </trkpt>
      <trkpt lat="45.74147" lon="6.6549">
        <ele>2454</ele>
        <time>2022-07-16T20:52:49Z</time>
      </trkpt>
      <trkpt lat="45.74149" lon="6.65489">
        <ele>2454</ele>
        <time>2022-07-16T20:52:52Z</time>
      </trkpt>
      <trkpt lat="45.74151" lon="6.65487">
        <ele>2454</ele>
        <time>2022-07-16T20:52:53Z</time>
      </trkpt>
      <trkpt lat="45.74153" lon="6.65485">
        <ele>2454</ele>
        <time>2022-07-16T20:52:55Z</time>
      </trkpt>
      <trkpt lat="45.74155" lon="6.65483">
        <ele>2453</ele>
        <time>2022-07-16T20:52:58Z</time>
      </trkpt>
      <trkpt lat="45.74157" lon="6.65481">
        <ele>2453</ele>
        <time>2022-07-16T20:52:59Z</time>
      </trkpt>
      <trkpt lat="45.74159" lon="6.65479">
        <ele>2453</ele>
        <time>2022-07-16T20:53:01Z</time>
      </trkpt>
      <trkpt lat="45.74161" lon="6.65478">
        <ele>2453</ele>
        <time>2022-07-16T20:53:03Z</time>
      </trkpt>
      <trkpt lat="45.74163" lon="6.65477">
        <ele>2452</ele>
        <time>2022-07-16T20:53:06Z</time>
      </trkpt>
      <trkpt lat="45.74165" lon="6.65475">
        <ele>2452</ele>
        <time>2022-07-16T20:53:08Z</time>
      </trkpt>
      <trkpt lat="45.74167" lon="6.65473">
        <ele>2452</ele>
        <time>2022-07-16T20:53:10Z</time>
      </trkpt>
      <trkpt lat="45.74169" lon="6.65472">
        <ele>2452</ele>
        <time>2022-07-16T20:53:12Z</time>
      </trkpt>
      <trkpt lat="45.74172" lon="6.65471">
        <ele>2452</ele>
        <time>2022-07-16T20:53:13Z</time>
      </trkpt>
      <trkpt lat="45.74174" lon="6.6547">
        <ele>2452</ele>
        <time>2022-07-16T20:53:16Z</time>
      </trkpt>
      <trkpt lat="45.74176" lon="6.6547">
        <ele>2452</ele>
        <time>2022-07-16T20:53:18Z</time>
      </trkpt>
      <trkpt lat="45.74178" lon="6.6547">
        <ele>2451</ele>
        <time>2022-07-16T20:53:20Z</time>
      </trkpt>
      <trkpt lat="45.7418" lon="6.6547">
        <ele>2451</ele>
        <time>2022-07-16T20:53:22Z</time>
      </trkpt>
      <trkpt lat="45.74182" lon="6.6547">
        <ele>2451</ele>
        <time>2022-07-16T20:53:23Z</time>
      </trkpt>
      <trkpt lat="45.74185" lon="6.65471">
        <ele>2450</ele>
        <time>2022-07-16T20:53:25Z</time>
      </trkpt>
      <trkpt lat="45.74187" lon="6.65471">
        <ele>2450</ele>
        <time>2022-07-16T20:53:27Z</time>
      </trkpt>
      <trkpt lat="45.7419" lon="6.65471">
        <ele>2450</ele>
        <time>2022-07-16T20:53:29Z</time>
      </trkpt>
      <trkpt lat="45.74192" lon="6.65472">
        <ele>2450</ele>
        <time>2022-07-16T20:53:32Z</time>
      </trkpt>
      <trkpt lat="45.74195" lon="6.65473">
        <ele>2449</ele>
        <time>2022-07-16T20:53:34Z</time>
      </trkpt>
      <trkpt lat="45.74197" lon="6.65475">
        <ele>2449</ele>
        <time>2022-07-16T20:53:36Z</time>
      </trkpt>
      <trkpt lat="45.742" lon="6.65476">
        <ele>2449</ele>
        <time>2022-07-16T20:53:38Z</time>
      </trkpt>
      <trkpt lat="45.74202" lon="6.65477">
        <ele>2449</ele>
        <time>2022-07-16T20:53:39Z</time>
      </trkpt>
      <trkpt lat="45.74205" lon="6.65479">
        <ele>2449</ele>
        <time>2022-07-16T20:53:41Z</time>
      </trkpt>
      <trkpt lat="45.74208" lon="6.6548">
        <ele>2448</ele>
        <time>2022-07-16T20:53:44Z</time>
      </trkpt>
      <trkpt lat="45.7421" lon="6.65482">
        <ele>2448</ele>
        <time>2022-07-16T20:53:46Z</time>
      </trkpt>
      <trkpt lat="45.74212" lon="6.65484">
        <ele>2448</ele>
        <time>2022-07-16T20:53:48Z</time>
      </trkpt>
      <trkpt lat="45.74214" lon="6.65485">
        <ele>2448</ele>
        <time>2022-07-16T20:53:49Z</time>
      </trkpt>
      <trkpt lat="45.74216" lon="6.65486">
        <ele>2448</ele>
        <time>2022-07-16T20:53:52Z</time>
      </trkpt>
      <trkpt lat="45.74219" lon="6.65487">
        <ele>2448</ele>
        <time>2022-07-16T20:53:54Z</time>
      </trkpt>
      <trkpt lat="45.74221" lon="6.65489">
        <ele>2448</ele>
        <time>2022-07-16T20:53:56Z</time>
      </trkpt>
      <trkpt lat="45.74223" lon="6.6549">
        <ele>2448</ele>
        <time>2022-07-16T20:53:58Z</time>
      </trkpt>
      <trkpt lat="45.74225" lon="6.65491">
        <ele>2448</ele>
        <time>2022-07-16T20:54:00Z</time>
      </trkpt>
      <trkpt lat="45.74227" lon="6.65492">
        <ele>2447</ele>
        <time>2022-07-16T20:54:02Z</time>
      </trkpt>
      <trkpt lat="45.74229" lon="6.65493">
        <ele>2447</ele>
        <time>2022-07-16T20:54:03Z</time>
      </trkpt>
      <trkpt lat="45.7423" lon="6.65495">
        <ele>2447</ele>
        <time>2022-07-16T20:54:05Z</time>
      </trkpt>
      <trkpt lat="45.74232" lon="6.65495">
        <ele>2446</ele>
        <time>2022-07-16T20:54:09Z</time>
      </trkpt>
      <trkpt lat="45.74233" lon="6.65492">
        <ele>2446</ele>
        <time>2022-07-16T20:54:10Z</time>
      </trkpt>
      <trkpt lat="45.74233" lon="6.65488">
        <ele>2445</ele>
        <time>2022-07-16T20:54:12Z</time>
      </trkpt>
      <trkpt lat="45.74233" lon="6.65485">
        <ele>2444</ele>
        <time>2022-07-16T20:54:15Z</time>
      </trkpt>
      <trkpt lat="45.74233" lon="6.65482">
        <ele>2443</ele>
        <time>2022-07-16T20:54:17Z</time>
      </trkpt>
      <trkpt lat="45.74232" lon="6.65479">
        <ele>2443</ele>
        <time>2022-07-16T20:54:19Z</time>
      </trkpt>
      <trkpt lat="45.74231" lon="6.65475">
        <ele>2442</ele>
        <time>2022-07-16T20:54:20Z</time>
      </trkpt>
      <trkpt lat="45.7423" lon="6.65473">
        <ele>2442</ele>
        <time>2022-07-16T20:54:22Z</time>
      </trkpt>
      <trkpt lat="45.74228" lon="6.6547">
        <ele>2442</ele>
        <time>2022-07-16T20:54:24Z</time>
      </trkpt>
      <trkpt lat="45.74226" lon="6.65466">
        <ele>2441</ele>
        <time>2022-07-16T20:54:27Z</time>
      </trkpt>
      <trkpt lat="45.74225" lon="6.65463">
        <ele>2441</ele>
        <time>2022-07-16T20:54:29Z</time>
      </trkpt>
      <trkpt lat="45.74224" lon="6.6546">
        <ele>2441</ele>
        <time>2022-07-16T20:54:31Z</time>
      </trkpt>
      <trkpt lat="45.74223" lon="6.65457">
        <ele>2441</ele>
        <time>2022-07-16T20:54:33Z</time>
      </trkpt>
      <trkpt lat="45.74222" lon="6.65454">
        <ele>2440</ele>
        <time>2022-07-16T20:54:35Z</time>
      </trkpt>
      <trkpt lat="45.74221" lon="6.65452">
        <ele>2439</ele>
        <time>2022-07-16T20:54:36Z</time>
      </trkpt>
      <trkpt lat="45.74219" lon="6.65449">
        <ele>2439</ele>
        <time>2022-07-16T20:54:40Z</time>
      </trkpt>
      <trkpt lat="45.74218" lon="6.65447">
        <ele>2439</ele>
        <time>2022-07-16T20:54:42Z</time>
      </trkpt>
      <trkpt lat="45.74217" lon="6.65443">
        <ele>2438</ele>
        <time>2022-07-16T20:54:45Z</time>
      </trkpt>
      <trkpt lat="45.74216" lon="6.65441">
        <ele>2438</ele>
        <time>2022-07-16T20:54:48Z</time>
      </trkpt>
      <trkpt lat="45.74215" lon="6.65439">
        <ele>2438</ele>
        <time>2022-07-16T20:54:50Z</time>
      </trkpt>
      <trkpt lat="45.74213" lon="6.65435">
        <ele>2438</ele>
        <time>2022-07-16T20:54:53Z</time>
      </trkpt>
      <trkpt lat="45.74212" lon="6.65432">
        <ele>2438</ele>
        <time>2022-07-16T20:54:56Z</time>
      </trkpt>
      <trkpt lat="45.74211" lon="6.6543">
        <ele>2438</ele>
        <time>2022-07-16T20:54:58Z</time>
      </trkpt>
      <trkpt lat="45.74211" lon="6.6543">
        <ele>2437</ele>
        <time>2022-07-16T20:55:12Z</time>
      </trkpt>
      <trkpt lat="45.74211" lon="6.6543">
        <ele>2437</ele>
        <time>2022-07-16T20:55:28Z</time>
      </trkpt>
      <trkpt lat="45.74211" lon="6.6543">
        <ele>2437</ele>
        <time>2022-07-16T20:55:44Z</time>
      </trkpt>
      <trkpt lat="45.74211" lon="6.6543">
        <ele>2437</ele>
        <time>2022-07-16T20:56:00Z</time>
      </trkpt>
      <trkpt lat="45.74211" lon="6.6543">
        <ele>2436</ele>
        <time>2022-07-16T20:56:16Z</time>
      </trkpt>
      <trkpt lat="45.74211" lon="6.6543">
        <ele>2437</ele>
        <time>2022-07-16T20:56:33Z</time>
      </trkpt>
      <trkpt lat="45.74211" lon="6.6543">
        <ele>2436</ele>
        <time>2022-07-16T20:56:49Z</time>
      </trkpt>
      <trkpt lat="45.7421" lon="6.65428">
        <ele>2437</ele>
        <time>2022-07-16T20:57:05Z</time>
      </trkpt>
      <trkpt lat="45.7421" lon="6.65428">
        <ele>2437</ele>
        <time>2022-07-16T20:57:06Z</time>
      </trkpt>
      <trkpt lat="45.7421" lon="6.65428">
        <ele>2437</ele>
        <time>2022-07-16T20:57:22Z</time>
      </trkpt>
      <trkpt lat="45.74209" lon="6.65425">
        <ele>2437</ele>
        <time>2022-07-16T20:57:25Z</time>
      </trkpt>
      <trkpt lat="45.74208" lon="6.65422">
        <ele>2437</ele>
        <time>2022-07-16T20:57:28Z</time>
      </trkpt>
      <trkpt lat="45.74208" lon="6.65419">
        <ele>2437</ele>
        <time>2022-07-16T20:57:29Z</time>
      </trkpt>
      <trkpt lat="45.74207" lon="6.65416">
        <ele>2437</ele>
        <time>2022-07-16T20:57:33Z</time>
      </trkpt>
      <trkpt lat="45.74207" lon="6.65412">
        <ele>2437</ele>
        <time>2022-07-16T20:57:36Z</time>
      </trkpt>
      <trkpt lat="45.74206" lon="6.65408">
        <ele>2436</ele>
        <time>2022-07-16T20:57:39Z</time>
      </trkpt>
      <trkpt lat="45.74205" lon="6.65406">
        <ele>2436</ele>
        <time>2022-07-16T20:57:40Z</time>
      </trkpt>
      <trkpt lat="45.74204" lon="6.65404">
        <ele>2435</ele>
        <time>2022-07-16T20:57:43Z</time>
      </trkpt>
      <trkpt lat="45.74203" lon="6.65401">
        <ele>2434</ele>
        <time>2022-07-16T20:57:44Z</time>
      </trkpt>
      <trkpt lat="45.74202" lon="6.65398">
        <ele>2433</ele>
        <time>2022-07-16T20:57:47Z</time>
      </trkpt>
      <trkpt lat="45.74201" lon="6.65394">
        <ele>2434</ele>
        <time>2022-07-16T20:57:48Z</time>
      </trkpt>
      <trkpt lat="45.742" lon="6.65391">
        <ele>2434</ele>
        <time>2022-07-16T20:57:50Z</time>
      </trkpt>
      <trkpt lat="45.742" lon="6.65388">
        <ele>2434</ele>
        <time>2022-07-16T20:57:53Z</time>
      </trkpt>
      <trkpt lat="45.742" lon="6.65384">
        <ele>2434</ele>
        <time>2022-07-16T20:57:54Z</time>
      </trkpt>
      <trkpt lat="45.742" lon="6.65381">
        <ele>2434</ele>
        <time>2022-07-16T20:57:57Z</time>
      </trkpt>
      <trkpt lat="45.74201" lon="6.65379">
        <ele>2434</ele>
        <time>2022-07-16T20:57:59Z</time>
      </trkpt>
      <trkpt lat="45.74202" lon="6.65376">
        <ele>2434</ele>
        <time>2022-07-16T20:58:01Z</time>
      </trkpt>
      <trkpt lat="45.74202" lon="6.65373">
        <ele>2434</ele>
        <time>2022-07-16T20:58:02Z</time>
      </trkpt>
      <trkpt lat="45.74203" lon="6.65371">
        <ele>2434</ele>
        <time>2022-07-16T20:58:05Z</time>
      </trkpt>
      <trkpt lat="45.74204" lon="6.65368">
        <ele>2434</ele>
        <time>2022-07-16T20:58:07Z</time>
      </trkpt>
      <trkpt lat="45.74206" lon="6.65365">
        <ele>2433</ele>
        <time>2022-07-16T20:58:09Z</time>
      </trkpt>
      <trkpt lat="45.74207" lon="6.65363">
        <ele>2432</ele>
        <time>2022-07-16T20:58:12Z</time>
      </trkpt>
      <trkpt lat="45.74209" lon="6.65361">
        <ele>2432</ele>
        <time>2022-07-16T20:58:13Z</time>
      </trkpt>
      <trkpt lat="45.74211" lon="6.6536">
        <ele>2431</ele>
        <time>2022-07-16T20:58:16Z</time>
      </trkpt>
      <trkpt lat="45.74212" lon="6.65358">
        <ele>2431</ele>
        <time>2022-07-16T20:58:17Z</time>
      </trkpt>
      <trkpt lat="45.74214" lon="6.65356">
        <ele>2431</ele>
        <time>2022-07-16T20:58:19Z</time>
      </trkpt>
      <trkpt lat="45.74216" lon="6.65354">
        <ele>2431</ele>
        <time>2022-07-16T20:58:22Z</time>
      </trkpt>
      <trkpt lat="45.74218" lon="6.65354">
        <ele>2430</ele>
        <time>2022-07-16T20:58:23Z</time>
      </trkpt>
      <trkpt lat="45.7422" lon="6.65355">
        <ele>2430</ele>
        <time>2022-07-16T20:58:26Z</time>
      </trkpt>
      <trkpt lat="45.74223" lon="6.65356">
        <ele>2430</ele>
        <time>2022-07-16T20:58:27Z</time>
      </trkpt>
      <trkpt lat="45.74226" lon="6.65355">
        <ele>2430</ele>
        <time>2022-07-16T20:58:29Z</time>
      </trkpt>
      <trkpt lat="45.74228" lon="6.65354">
        <ele>2430</ele>
        <time>2022-07-16T20:58:31Z</time>
      </trkpt>
      <trkpt lat="45.7423" lon="6.65354">
        <ele>2428</ele>
        <time>2022-07-16T20:58:33Z</time>
      </trkpt>
      <trkpt lat="45.74233" lon="6.65353">
        <ele>2428</ele>
        <time>2022-07-16T20:58:36Z</time>
      </trkpt>
      <trkpt lat="45.74235" lon="6.65351">
        <ele>2428</ele>
        <time>2022-07-16T20:58:38Z</time>
      </trkpt>
      <trkpt lat="45.74237" lon="6.6535">
        <ele>2428</ele>
        <time>2022-07-16T20:58:40Z</time>
      </trkpt>
      <trkpt lat="45.74239" lon="6.6535">
        <ele>2428</ele>
        <time>2022-07-16T20:58:41Z</time>
      </trkpt>
      <trkpt lat="45.7424" lon="6.65347">
        <ele>2427</ele>
        <time>2022-07-16T20:58:44Z</time>
      </trkpt>
      <trkpt lat="45.74242" lon="6.65345">
        <ele>2427</ele>
        <time>2022-07-16T20:58:46Z</time>
      </trkpt>
      <trkpt lat="45.74243" lon="6.65342">
        <ele>2426</ele>
        <time>2022-07-16T20:58:50Z</time>
      </trkpt>
      <trkpt lat="45.74243" lon="6.65339">
        <ele>2426</ele>
        <time>2022-07-16T20:58:51Z</time>
      </trkpt>
      <trkpt lat="45.74242" lon="6.65336">
        <ele>2426</ele>
        <time>2022-07-16T20:58:53Z</time>
      </trkpt>
      <trkpt lat="45.74242" lon="6.65333">
        <ele>2425</ele>
        <time>2022-07-16T20:58:55Z</time>
      </trkpt>
      <trkpt lat="45.74243" lon="6.6533">
        <ele>2424</ele>
        <time>2022-07-16T20:58:58Z</time>
      </trkpt>
      <trkpt lat="45.74246" lon="6.6533">
        <ele>2422</ele>
        <time>2022-07-16T20:59:01Z</time>
      </trkpt>
      <trkpt lat="45.74248" lon="6.6533">
        <ele>2422</ele>
        <time>2022-07-16T20:59:03Z</time>
      </trkpt>
      <trkpt lat="45.7425" lon="6.65331">
        <ele>2422</ele>
        <time>2022-07-16T20:59:05Z</time>
      </trkpt>
      <trkpt lat="45.74252" lon="6.65332">
        <ele>2422</ele>
        <time>2022-07-16T20:59:07Z</time>
      </trkpt>
      <trkpt lat="45.74255" lon="6.65331">
        <ele>2421</ele>
        <time>2022-07-16T20:59:10Z</time>
      </trkpt>
      <trkpt lat="45.74257" lon="6.6533">
        <ele>2421</ele>
        <time>2022-07-16T20:59:12Z</time>
      </trkpt>
      <trkpt lat="45.74258" lon="6.65327">
        <ele>2419</ele>
        <time>2022-07-16T20:59:15Z</time>
      </trkpt>
      <trkpt lat="45.7426" lon="6.65323">
        <ele>2419</ele>
        <time>2022-07-16T20:59:17Z</time>
      </trkpt>
      <trkpt lat="45.74261" lon="6.6532">
        <ele>2419</ele>
        <time>2022-07-16T20:59:19Z</time>
      </trkpt>
      <trkpt lat="45.74261" lon="6.65317">
        <ele>2418</ele>
        <time>2022-07-16T20:59:21Z</time>
      </trkpt>
      <trkpt lat="45.7426" lon="6.65315">
        <ele>2418</ele>
        <time>2022-07-16T20:59:23Z</time>
      </trkpt>
      <trkpt lat="45.74259" lon="6.65312">
        <ele>2418</ele>
        <time>2022-07-16T20:59:24Z</time>
      </trkpt>
      <trkpt lat="45.74258" lon="6.65309">
        <ele>2418</ele>
        <time>2022-07-16T20:59:26Z</time>
      </trkpt>
      <trkpt lat="45.74257" lon="6.65306">
        <ele>2418</ele>
        <time>2022-07-16T20:59:29Z</time>
      </trkpt>
      <trkpt lat="45.74255" lon="6.65303">
        <ele>2418</ele>
        <time>2022-07-16T20:59:31Z</time>
      </trkpt>
      <trkpt lat="45.74253" lon="6.65301">
        <ele>2418</ele>
        <time>2022-07-16T20:59:33Z</time>
      </trkpt>
      <trkpt lat="45.74251" lon="6.65299">
        <ele>2418</ele>
        <time>2022-07-16T20:59:35Z</time>
      </trkpt>
      <trkpt lat="45.7425" lon="6.65297">
        <ele>2418</ele>
        <time>2022-07-16T20:59:38Z</time>
      </trkpt>
      <trkpt lat="45.7425" lon="6.65294">
        <ele>2418</ele>
        <time>2022-07-16T20:59:39Z</time>
      </trkpt>
      <trkpt lat="45.74252" lon="6.65291">
        <ele>2417</ele>
        <time>2022-07-16T20:59:42Z</time>
      </trkpt>
      <trkpt lat="45.74254" lon="6.65291">
        <ele>2417</ele>
        <time>2022-07-16T20:59:43Z</time>
      </trkpt>
      <trkpt lat="45.74256" lon="6.65291">
        <ele>2417</ele>
        <time>2022-07-16T20:59:45Z</time>
      </trkpt>
      <trkpt lat="45.74258" lon="6.6529">
        <ele>2416</ele>
        <time>2022-07-16T20:59:47Z</time>
      </trkpt>
      <trkpt lat="45.7426" lon="6.6529">
        <ele>2415</ele>
        <time>2022-07-16T20:59:50Z</time>
      </trkpt>
      <trkpt lat="45.74263" lon="6.65288">
        <ele>2414</ele>
        <time>2022-07-16T20:59:52Z</time>
      </trkpt>
      <trkpt lat="45.74264" lon="6.65286">
        <ele>2413</ele>
        <time>2022-07-16T20:59:55Z</time>
      </trkpt>
      <trkpt lat="45.74266" lon="6.65285">
        <ele>2413</ele>
        <time>2022-07-16T20:59:57Z</time>
      </trkpt>
      <trkpt lat="45.74268" lon="6.65285">
        <ele>2412</ele>
        <time>2022-07-16T20:59:59Z</time>
      </trkpt>
      <trkpt lat="45.7427" lon="6.65285">
        <ele>2410</ele>
        <time>2022-07-16T21:00:02Z</time>
      </trkpt>
      <trkpt lat="45.7427" lon="6.65282">
        <ele>2409</ele>
        <time>2022-07-16T21:00:06Z</time>
      </trkpt>
      <trkpt lat="45.7427" lon="6.6528">
        <ele>2409</ele>
        <time>2022-07-16T21:00:07Z</time>
      </trkpt>
      <trkpt lat="45.74271" lon="6.65276">
        <ele>2408</ele>
        <time>2022-07-16T21:00:11Z</time>
      </trkpt>
      <trkpt lat="45.74273" lon="6.65275">
        <ele>2408</ele>
        <time>2022-07-16T21:00:13Z</time>
      </trkpt>
      <trkpt lat="45.74275" lon="6.65273">
        <ele>2407</ele>
        <time>2022-07-16T21:00:16Z</time>
      </trkpt>
      <trkpt lat="45.74276" lon="6.6527">
        <ele>2407</ele>
        <time>2022-07-16T21:00:18Z</time>
      </trkpt>
      <trkpt lat="45.74278" lon="6.65268">
        <ele>2406</ele>
        <time>2022-07-16T21:00:21Z</time>
      </trkpt>
      <trkpt lat="45.7428" lon="6.65267">
        <ele>2406</ele>
        <time>2022-07-16T21:00:23Z</time>
      </trkpt>
      <trkpt lat="45.74282" lon="6.65265">
        <ele>2405</ele>
        <time>2022-07-16T21:00:26Z</time>
      </trkpt>
      <trkpt lat="45.74284" lon="6.65265">
        <ele>2405</ele>
        <time>2022-07-16T21:00:27Z</time>
      </trkpt>
      <trkpt lat="45.74286" lon="6.65266">
        <ele>2404</ele>
        <time>2022-07-16T21:00:31Z</time>
      </trkpt>
      <trkpt lat="45.74288" lon="6.65267">
        <ele>2402</ele>
        <time>2022-07-16T21:00:33Z</time>
      </trkpt>
      <trkpt lat="45.74291" lon="6.65267">
        <ele>2402</ele>
        <time>2022-07-16T21:00:37Z</time>
      </trkpt>
      <trkpt lat="45.74293" lon="6.65267">
        <ele>2401</ele>
        <time>2022-07-16T21:00:39Z</time>
      </trkpt>
      <trkpt lat="45.74295" lon="6.65266">
        <ele>2400</ele>
        <time>2022-07-16T21:00:42Z</time>
      </trkpt>
      <trkpt lat="45.74297" lon="6.65265">
        <ele>2399</ele>
        <time>2022-07-16T21:00:44Z</time>
      </trkpt>
      <trkpt lat="45.743" lon="6.65264">
        <ele>2399</ele>
        <time>2022-07-16T21:00:45Z</time>
      </trkpt>
      <trkpt lat="45.74302" lon="6.65263">
        <ele>2399</ele>
        <time>2022-07-16T21:00:48Z</time>
      </trkpt>
      <trkpt lat="45.74304" lon="6.65263">
        <ele>2398</ele>
        <time>2022-07-16T21:00:49Z</time>
      </trkpt>
      <trkpt lat="45.74306" lon="6.65261">
        <ele>2398</ele>
        <time>2022-07-16T21:00:53Z</time>
      </trkpt>
      <trkpt lat="45.74308" lon="6.65261">
        <ele>2398</ele>
        <time>2022-07-16T21:00:54Z</time>
      </trkpt>
      <trkpt lat="45.7431" lon="6.6526">
        <ele>2397</ele>
        <time>2022-07-16T21:00:56Z</time>
      </trkpt>
      <trkpt lat="45.74313" lon="6.65259">
        <ele>2397</ele>
        <time>2022-07-16T21:00:59Z</time>
      </trkpt>
      <trkpt lat="45.74315" lon="6.65259">
        <ele>2396</ele>
        <time>2022-07-16T21:01:01Z</time>
      </trkpt>
      <trkpt lat="45.74317" lon="6.6526">
        <ele>2396</ele>
        <time>2022-07-16T21:01:04Z</time>
      </trkpt>
      <trkpt lat="45.74319" lon="6.6526">
        <ele>2396</ele>
        <time>2022-07-16T21:01:06Z</time>
      </trkpt>
      <trkpt lat="45.74321" lon="6.65262">
        <ele>2395</ele>
        <time>2022-07-16T21:01:09Z</time>
      </trkpt>
      <trkpt lat="45.74324" lon="6.65262">
        <ele>2395</ele>
        <time>2022-07-16T21:01:12Z</time>
      </trkpt>
      <trkpt lat="45.74325" lon="6.65261">
        <ele>2394</ele>
        <time>2022-07-16T21:01:16Z</time>
      </trkpt>
      <trkpt lat="45.74327" lon="6.65258">
        <ele>2393</ele>
        <time>2022-07-16T21:01:20Z</time>
      </trkpt>
      <trkpt lat="45.74329" lon="6.65256">
        <ele>2392</ele>
        <time>2022-07-16T21:01:24Z</time>
      </trkpt>
      <trkpt lat="45.7433" lon="6.65257">
        <ele>2391</ele>
        <time>2022-07-16T21:01:27Z</time>
      </trkpt>
      <trkpt lat="45.74331" lon="6.65253">
        <ele>2391</ele>
        <time>2022-07-16T21:01:29Z</time>
      </trkpt>
      <trkpt lat="45.74332" lon="6.6525">
        <ele>2390</ele>
        <time>2022-07-16T21:01:32Z</time>
      </trkpt>
      <trkpt lat="45.74334" lon="6.6525">
        <ele>2389</ele>
        <time>2022-07-16T21:01:34Z</time>
      </trkpt>
      <trkpt lat="45.74336" lon="6.65252">
        <ele>2389</ele>
        <time>2022-07-16T21:01:36Z</time>
      </trkpt>
      <trkpt lat="45.74337" lon="6.65253">
        <ele>2389</ele>
        <time>2022-07-16T21:01:39Z</time>
      </trkpt>
      <trkpt lat="45.7434" lon="6.65254">
        <ele>2388</ele>
        <time>2022-07-16T21:01:41Z</time>
      </trkpt>
      <trkpt lat="45.74342" lon="6.65255">
        <ele>2387</ele>
        <time>2022-07-16T21:01:44Z</time>
      </trkpt>
      <trkpt lat="45.74343" lon="6.65253">
        <ele>2386</ele>
        <time>2022-07-16T21:01:49Z</time>
      </trkpt>
      <trkpt lat="45.74343" lon="6.6525">
        <ele>2385</ele>
        <time>2022-07-16T21:01:51Z</time>
      </trkpt>
      <trkpt lat="45.74343" lon="6.65247">
        <ele>2384</ele>
        <time>2022-07-16T21:01:54Z</time>
      </trkpt>
      <trkpt lat="45.74343" lon="6.65243">
        <ele>2383</ele>
        <time>2022-07-16T21:01:57Z</time>
      </trkpt>
      <trkpt lat="45.74342" lon="6.65241">
        <ele>2382</ele>
        <time>2022-07-16T21:01:58Z</time>
      </trkpt>
      <trkpt lat="45.74342" lon="6.65238">
        <ele>2382</ele>
        <time>2022-07-16T21:02:00Z</time>
      </trkpt>
      <trkpt lat="45.74343" lon="6.65235">
        <ele>2382</ele>
        <time>2022-07-16T21:02:03Z</time>
      </trkpt>
      <trkpt lat="45.74343" lon="6.65231">
        <ele>2382</ele>
        <time>2022-07-16T21:02:05Z</time>
      </trkpt>
      <trkpt lat="45.74341" lon="6.65228">
        <ele>2382</ele>
        <time>2022-07-16T21:02:07Z</time>
      </trkpt>
      <trkpt lat="45.7434" lon="6.65226">
        <ele>2381</ele>
        <time>2022-07-16T21:02:10Z</time>
      </trkpt>
      <trkpt lat="45.74338" lon="6.65224">
        <ele>2381</ele>
        <time>2022-07-16T21:02:12Z</time>
      </trkpt>
      <trkpt lat="45.74336" lon="6.65222">
        <ele>2380</ele>
        <time>2022-07-16T21:02:15Z</time>
      </trkpt>
      <trkpt lat="45.74335" lon="6.6522">
        <ele>2380</ele>
        <time>2022-07-16T21:02:18Z</time>
      </trkpt>
      <trkpt lat="45.74334" lon="6.65218">
        <ele>2379</ele>
        <time>2022-07-16T21:02:20Z</time>
      </trkpt>
      <trkpt lat="45.74333" lon="6.65215">
        <ele>2379</ele>
        <time>2022-07-16T21:02:22Z</time>
      </trkpt>
      <trkpt lat="45.74332" lon="6.65212">
        <ele>2378</ele>
        <time>2022-07-16T21:02:25Z</time>
      </trkpt>
      <trkpt lat="45.74331" lon="6.65209">
        <ele>2376</ele>
        <time>2022-07-16T21:02:27Z</time>
      </trkpt>
      <trkpt lat="45.7433" lon="6.65205">
        <ele>2375</ele>
        <time>2022-07-16T21:02:29Z</time>
      </trkpt>
      <trkpt lat="45.7433" lon="6.65201">
        <ele>2375</ele>
        <time>2022-07-16T21:02:31Z</time>
      </trkpt>
      <trkpt lat="45.7433" lon="6.65198">
        <ele>2375</ele>
        <time>2022-07-16T21:02:34Z</time>
      </trkpt>
      <trkpt lat="45.74329" lon="6.65195">
        <ele>2374</ele>
        <time>2022-07-16T21:02:38Z</time>
      </trkpt>
      <trkpt lat="45.74328" lon="6.65192">
        <ele>2373</ele>
        <time>2022-07-16T21:02:41Z</time>
      </trkpt>
      <trkpt lat="45.74326" lon="6.65191">
        <ele>2373</ele>
        <time>2022-07-16T21:02:44Z</time>
      </trkpt>
      <trkpt lat="45.74324" lon="6.65191">
        <ele>2372</ele>
        <time>2022-07-16T21:02:48Z</time>
      </trkpt>
      <trkpt lat="45.74323" lon="6.65188">
        <ele>2371</ele>
        <time>2022-07-16T21:02:50Z</time>
      </trkpt>
      <trkpt lat="45.74322" lon="6.65186">
        <ele>2370</ele>
        <time>2022-07-16T21:02:53Z</time>
      </trkpt>
      <trkpt lat="45.74322" lon="6.65183">
        <ele>2369</ele>
        <time>2022-07-16T21:02:57Z</time>
      </trkpt>
      <trkpt lat="45.7432" lon="6.6518">
        <ele>2368</ele>
        <time>2022-07-16T21:03:02Z</time>
      </trkpt>
      <trkpt lat="45.74319" lon="6.65178">
        <ele>2367</ele>
        <time>2022-07-16T21:03:05Z</time>
      </trkpt>
      <trkpt lat="45.74318" lon="6.65176">
        <ele>2365</ele>
        <time>2022-07-16T21:03:10Z</time>
      </trkpt>
      <trkpt lat="45.74317" lon="6.65173">
        <ele>2364</ele>
        <time>2022-07-16T21:03:12Z</time>
      </trkpt>
      <trkpt lat="45.74315" lon="6.65171">
        <ele>2364</ele>
        <time>2022-07-16T21:03:16Z</time>
      </trkpt>
      <trkpt lat="45.74313" lon="6.6517">
        <ele>2363</ele>
        <time>2022-07-16T21:03:19Z</time>
      </trkpt>
      <trkpt lat="45.74311" lon="6.65168">
        <ele>2362</ele>
        <time>2022-07-16T21:03:22Z</time>
      </trkpt>
      <trkpt lat="45.7431" lon="6.65166">
        <ele>2361</ele>
        <time>2022-07-16T21:03:26Z</time>
      </trkpt>
      <trkpt lat="45.74309" lon="6.65163">
        <ele>2360</ele>
        <time>2022-07-16T21:03:30Z</time>
      </trkpt>
      <trkpt lat="45.74308" lon="6.65161">
        <ele>2360</ele>
        <time>2022-07-16T21:03:34Z</time>
      </trkpt>
      <trkpt lat="45.74307" lon="6.65158">
        <ele>2358</ele>
        <time>2022-07-16T21:03:39Z</time>
      </trkpt>
      <trkpt lat="45.74305" lon="6.65156">
        <ele>2357</ele>
        <time>2022-07-16T21:03:43Z</time>
      </trkpt>
      <trkpt lat="45.74304" lon="6.65154">
        <ele>2356</ele>
        <time>2022-07-16T21:03:45Z</time>
      </trkpt>
      <trkpt lat="45.74303" lon="6.65151">
        <ele>2355</ele>
        <time>2022-07-16T21:03:49Z</time>
      </trkpt>
      <trkpt lat="45.74302" lon="6.65149">
        <ele>2355</ele>
        <time>2022-07-16T21:03:51Z</time>
      </trkpt>
      <trkpt lat="45.743" lon="6.65147">
        <ele>2353</ele>
        <time>2022-07-16T21:03:56Z</time>
      </trkpt>
      <trkpt lat="45.74298" lon="6.65146">
        <ele>2353</ele>
        <time>2022-07-16T21:03:58Z</time>
      </trkpt>
      <trkpt lat="45.74297" lon="6.65143">
        <ele>2353</ele>
        <time>2022-07-16T21:03:59Z</time>
      </trkpt>
      <trkpt lat="45.74297" lon="6.6514">
        <ele>2352</ele>
        <time>2022-07-16T21:04:01Z</time>
      </trkpt>
      <trkpt lat="45.74299" lon="6.65139">
        <ele>2350</ele>
        <time>2022-07-16T21:04:04Z</time>
      </trkpt>
      <trkpt lat="45.74301" lon="6.65138">
        <ele>2350</ele>
        <time>2022-07-16T21:04:05Z</time>
      </trkpt>
      <trkpt lat="45.74303" lon="6.65137">
        <ele>2350</ele>
        <time>2022-07-16T21:04:08Z</time>
      </trkpt>
      <trkpt lat="45.74305" lon="6.65135">
        <ele>2350</ele>
        <time>2022-07-16T21:04:11Z</time>
      </trkpt>
      <trkpt lat="45.74307" lon="6.65134">
        <ele>2349</ele>
        <time>2022-07-16T21:04:14Z</time>
      </trkpt>
      <trkpt lat="45.74307" lon="6.65131">
        <ele>2348</ele>
        <time>2022-07-16T21:04:17Z</time>
      </trkpt>
      <trkpt lat="45.74306" lon="6.65129">
        <ele>2348</ele>
        <time>2022-07-16T21:04:21Z</time>
      </trkpt>
      <trkpt lat="45.74304" lon="6.65128">
        <ele>2348</ele>
        <time>2022-07-16T21:04:23Z</time>
      </trkpt>
      <trkpt lat="45.74302" lon="6.65127">
        <ele>2347</ele>
        <time>2022-07-16T21:04:25Z</time>
      </trkpt>
      <trkpt lat="45.743" lon="6.65126">
        <ele>2346</ele>
        <time>2022-07-16T21:04:27Z</time>
      </trkpt>
      <trkpt lat="45.74299" lon="6.65124">
        <ele>2346</ele>
        <time>2022-07-16T21:04:29Z</time>
      </trkpt>
      <trkpt lat="45.74298" lon="6.6512">
        <ele>2345</ele>
        <time>2022-07-16T21:04:31Z</time>
      </trkpt>
      <trkpt lat="45.74297" lon="6.65117">
        <ele>2345</ele>
        <time>2022-07-16T21:04:33Z</time>
      </trkpt>
      <trkpt lat="45.74296" lon="6.65114">
        <ele>2345</ele>
        <time>2022-07-16T21:04:35Z</time>
      </trkpt>
      <trkpt lat="45.74295" lon="6.65111">
        <ele>2344</ele>
        <time>2022-07-16T21:04:38Z</time>
      </trkpt>
      <trkpt lat="45.74293" lon="6.65109">
        <ele>2344</ele>
        <time>2022-07-16T21:04:42Z</time>
      </trkpt>
      <trkpt lat="45.74291" lon="6.65108">
        <ele>2343</ele>
        <time>2022-07-16T21:04:45Z</time>
      </trkpt>
      <trkpt lat="45.7429" lon="6.65106">
        <ele>2343</ele>
        <time>2022-07-16T21:04:47Z</time>
      </trkpt>
      <trkpt lat="45.74288" lon="6.65105">
        <ele>2342</ele>
        <time>2022-07-16T21:04:51Z</time>
      </trkpt>
      <trkpt lat="45.74286" lon="6.65103">
        <ele>2340</ele>
        <time>2022-07-16T21:04:53Z</time>
      </trkpt>
      <trkpt lat="45.74284" lon="6.651">
        <ele>2340</ele>
        <time>2022-07-16T21:04:54Z</time>
      </trkpt>
      <trkpt lat="45.74283" lon="6.65097">
        <ele>2340</ele>
        <time>2022-07-16T21:04:56Z</time>
      </trkpt>
      <trkpt lat="45.74281" lon="6.65094">
        <ele>2340</ele>
        <time>2022-07-16T21:04:58Z</time>
      </trkpt>
      <trkpt lat="45.7428" lon="6.65091">
        <ele>2340</ele>
        <time>2022-07-16T21:05:01Z</time>
      </trkpt>
      <trkpt lat="45.74278" lon="6.65089">
        <ele>2340</ele>
        <time>2022-07-16T21:05:03Z</time>
      </trkpt>
      <trkpt lat="45.74277" lon="6.65087">
        <ele>2340</ele>
        <time>2022-07-16T21:05:04Z</time>
      </trkpt>
      <trkpt lat="45.74276" lon="6.65084">
        <ele>2340</ele>
        <time>2022-07-16T21:05:06Z</time>
      </trkpt>
      <trkpt lat="45.74276" lon="6.65081">
        <ele>2340</ele>
        <time>2022-07-16T21:05:08Z</time>
      </trkpt>
      <trkpt lat="45.74277" lon="6.65078">
        <ele>2340</ele>
        <time>2022-07-16T21:05:11Z</time>
      </trkpt>
      <trkpt lat="45.74279" lon="6.65076">
        <ele>2340</ele>
        <time>2022-07-16T21:05:13Z</time>
      </trkpt>
      <trkpt lat="45.74281" lon="6.65074">
        <ele>2339</ele>
        <time>2022-07-16T21:05:15Z</time>
      </trkpt>
      <trkpt lat="45.74282" lon="6.65072">
        <ele>2339</ele>
        <time>2022-07-16T21:05:17Z</time>
      </trkpt>
      <trkpt lat="45.74283" lon="6.65069">
        <ele>2339</ele>
        <time>2022-07-16T21:05:20Z</time>
      </trkpt>
      <trkpt lat="45.74283" lon="6.65065">
        <ele>2338</ele>
        <time>2022-07-16T21:05:22Z</time>
      </trkpt>
      <trkpt lat="45.74284" lon="6.65062">
        <ele>2338</ele>
        <time>2022-07-16T21:05:23Z</time>
      </trkpt>
      <trkpt lat="45.74286" lon="6.6506">
        <ele>2337</ele>
        <time>2022-07-16T21:05:25Z</time>
      </trkpt>
      <trkpt lat="45.74287" lon="6.65058">
        <ele>2337</ele>
        <time>2022-07-16T21:05:28Z</time>
      </trkpt>
      <trkpt lat="45.74288" lon="6.65055">
        <ele>2337</ele>
        <time>2022-07-16T21:05:29Z</time>
      </trkpt>
      <trkpt lat="45.74289" lon="6.65052">
        <ele>2336</ele>
        <time>2022-07-16T21:05:32Z</time>
      </trkpt>
      <trkpt lat="45.7429" lon="6.65048">
        <ele>2336</ele>
        <time>2022-07-16T21:05:34Z</time>
      </trkpt>
      <trkpt lat="45.7429" lon="6.65045">
        <ele>2335</ele>
        <time>2022-07-16T21:05:35Z</time>
      </trkpt>
      <trkpt lat="45.74291" lon="6.65042">
        <ele>2335</ele>
        <time>2022-07-16T21:05:38Z</time>
      </trkpt>
      <trkpt lat="45.74291" lon="6.65038">
        <ele>2335</ele>
        <time>2022-07-16T21:05:39Z</time>
      </trkpt>
      <trkpt lat="45.74292" lon="6.65035">
        <ele>2335</ele>
        <time>2022-07-16T21:05:41Z</time>
      </trkpt>
      <trkpt lat="45.74292" lon="6.65032">
        <ele>2335</ele>
        <time>2022-07-16T21:05:44Z</time>
      </trkpt>
      <trkpt lat="45.74291" lon="6.65029">
        <ele>2335</ele>
        <time>2022-07-16T21:05:45Z</time>
      </trkpt>
      <trkpt lat="45.7429" lon="6.65026">
        <ele>2335</ele>
        <time>2022-07-16T21:05:47Z</time>
      </trkpt>
      <trkpt lat="45.74288" lon="6.65023">
        <ele>2335</ele>
        <time>2022-07-16T21:05:49Z</time>
      </trkpt>
      <trkpt lat="45.74286" lon="6.6502">
        <ele>2335</ele>
        <time>2022-07-16T21:05:51Z</time>
      </trkpt>
      <trkpt lat="45.74285" lon="6.65017">
        <ele>2335</ele>
        <time>2022-07-16T21:05:54Z</time>
      </trkpt>
      <trkpt lat="45.74284" lon="6.65015">
        <ele>2335</ele>
        <time>2022-07-16T21:05:56Z</time>
      </trkpt>
      <trkpt lat="45.74283" lon="6.65012">
        <ele>2335</ele>
        <time>2022-07-16T21:05:58Z</time>
      </trkpt>
      <trkpt lat="45.74282" lon="6.65008">
        <ele>2334</ele>
        <time>2022-07-16T21:05:59Z</time>
      </trkpt>
      <trkpt lat="45.74281" lon="6.65005">
        <ele>2334</ele>
        <time>2022-07-16T21:06:02Z</time>
      </trkpt>
      <trkpt lat="45.74279" lon="6.65003">
        <ele>2334</ele>
        <time>2022-07-16T21:06:04Z</time>
      </trkpt>
      <trkpt lat="45.74278" lon="6.65">
        <ele>2333</ele>
        <time>2022-07-16T21:06:06Z</time>
      </trkpt>
      <trkpt lat="45.74277" lon="6.64997">
        <ele>2333</ele>
        <time>2022-07-16T21:06:07Z</time>
      </trkpt>
      <trkpt lat="45.74275" lon="6.64995">
        <ele>2333</ele>
        <time>2022-07-16T21:06:09Z</time>
      </trkpt>
      <trkpt lat="45.74273" lon="6.64993">
        <ele>2332</ele>
        <time>2022-07-16T21:06:12Z</time>
      </trkpt>
      <trkpt lat="45.74272" lon="6.64991">
        <ele>2332</ele>
        <time>2022-07-16T21:06:14Z</time>
      </trkpt>
      <trkpt lat="45.74271" lon="6.64988">
        <ele>2332</ele>
        <time>2022-07-16T21:06:17Z</time>
      </trkpt>
      <trkpt lat="45.7427" lon="6.64984">
        <ele>2332</ele>
        <time>2022-07-16T21:06:19Z</time>
      </trkpt>
      <trkpt lat="45.7427" lon="6.64982">
        <ele>2331</ele>
        <time>2022-07-16T21:06:22Z</time>
      </trkpt>
      <trkpt lat="45.7427" lon="6.64979">
        <ele>2330</ele>
        <time>2022-07-16T21:06:24Z</time>
      </trkpt>
      <trkpt lat="45.7427" lon="6.64975">
        <ele>2330</ele>
        <time>2022-07-16T21:06:26Z</time>
      </trkpt>
      <trkpt lat="45.7427" lon="6.64972">
        <ele>2329</ele>
        <time>2022-07-16T21:06:29Z</time>
      </trkpt>
      <trkpt lat="45.74271" lon="6.64969">
        <ele>2328</ele>
        <time>2022-07-16T21:06:32Z</time>
      </trkpt>
      <trkpt lat="45.74272" lon="6.64966">
        <ele>2326</ele>
        <time>2022-07-16T21:06:36Z</time>
      </trkpt>
      <trkpt lat="45.74272" lon="6.64964">
        <ele>2326</ele>
        <time>2022-07-16T21:06:38Z</time>
      </trkpt>
      <trkpt lat="45.74273" lon="6.64961">
        <ele>2324</ele>
        <time>2022-07-16T21:06:41Z</time>
      </trkpt>
      <trkpt lat="45.74274" lon="6.64958">
        <ele>2323</ele>
        <time>2022-07-16T21:06:45Z</time>
      </trkpt>
      <trkpt lat="45.74275" lon="6.64955">
        <ele>2323</ele>
        <time>2022-07-16T21:06:47Z</time>
      </trkpt>
      <trkpt lat="45.74276" lon="6.64953">
        <ele>2322</ele>
        <time>2022-07-16T21:06:50Z</time>
      </trkpt>
      <trkpt lat="45.74278" lon="6.64952">
        <ele>2321</ele>
        <time>2022-07-16T21:06:54Z</time>
      </trkpt>
      <trkpt lat="45.7428" lon="6.6495">
        <ele>2319</ele>
        <time>2022-07-16T21:06:57Z</time>
      </trkpt>
      <trkpt lat="45.74282" lon="6.64948">
        <ele>2319</ele>
        <time>2022-07-16T21:07:00Z</time>
      </trkpt>
      <trkpt lat="45.74282" lon="6.64944">
        <ele>2318</ele>
        <time>2022-07-16T21:07:05Z</time>
      </trkpt>
      <trkpt lat="45.74281" lon="6.64942">
        <ele>2317</ele>
        <time>2022-07-16T21:07:06Z</time>
      </trkpt>
      <trkpt lat="45.7428" lon="6.6494">
        <ele>2317</ele>
        <time>2022-07-16T21:07:09Z</time>
      </trkpt>
      <trkpt lat="45.74278" lon="6.64937">
        <ele>2317</ele>
        <time>2022-07-16T21:07:10Z</time>
      </trkpt>
      <trkpt lat="45.74277" lon="6.64935">
        <ele>2317</ele>
        <time>2022-07-16T21:07:12Z</time>
      </trkpt>
      <trkpt lat="45.74275" lon="6.64933">
        <ele>2316</ele>
        <time>2022-07-16T21:07:17Z</time>
      </trkpt>
      <trkpt lat="45.74273" lon="6.64931">
        <ele>2316</ele>
        <time>2022-07-16T21:07:20Z</time>
      </trkpt>
      <trkpt lat="45.74272" lon="6.64929">
        <ele>2315</ele>
        <time>2022-07-16T21:07:24Z</time>
      </trkpt>
      <trkpt lat="45.74271" lon="6.64927">
        <ele>2314</ele>
        <time>2022-07-16T21:07:28Z</time>
      </trkpt>
      <trkpt lat="45.7427" lon="6.64925">
        <ele>2314</ele>
        <time>2022-07-16T21:07:30Z</time>
      </trkpt>
      <trkpt lat="45.74269" lon="6.64922">
        <ele>2313</ele>
        <time>2022-07-16T21:07:33Z</time>
      </trkpt>
      <trkpt lat="45.74269" lon="6.64919">
        <ele>2312</ele>
        <time>2022-07-16T21:07:36Z</time>
      </trkpt>
      <trkpt lat="45.74268" lon="6.64916">
        <ele>2311</ele>
        <time>2022-07-16T21:07:40Z</time>
      </trkpt>
      <trkpt lat="45.74266" lon="6.64914">
        <ele>2311</ele>
        <time>2022-07-16T21:07:43Z</time>
      </trkpt>
      <trkpt lat="45.74265" lon="6.64912">
        <ele>2310</ele>
        <time>2022-07-16T21:07:45Z</time>
      </trkpt>
      <trkpt lat="45.74266" lon="6.64909">
        <ele>2310</ele>
        <time>2022-07-16T21:07:48Z</time>
      </trkpt>
      <trkpt lat="45.74268" lon="6.64907">
        <ele>2308</ele>
        <time>2022-07-16T21:07:53Z</time>
      </trkpt>
      <trkpt lat="45.74268" lon="6.64905">
        <ele>2307</ele>
        <time>2022-07-16T21:07:56Z</time>
      </trkpt>
      <trkpt lat="45.74269" lon="6.64901">
        <ele>2307</ele>
        <time>2022-07-16T21:07:58Z</time>
      </trkpt>
      <trkpt lat="45.7427" lon="6.64899">
        <ele>2306</ele>
        <time>2022-07-16T21:08:01Z</time>
      </trkpt>
      <trkpt lat="45.74271" lon="6.64895">
        <ele>2306</ele>
        <time>2022-07-16T21:08:03Z</time>
      </trkpt>
      <trkpt lat="45.74272" lon="6.64893">
        <ele>2305</ele>
        <time>2022-07-16T21:08:05Z</time>
      </trkpt>
      <trkpt lat="45.74273" lon="6.6489">
        <ele>2305</ele>
        <time>2022-07-16T21:08:08Z</time>
      </trkpt>
      <trkpt lat="45.74273" lon="6.64887">
        <ele>2304</ele>
        <time>2022-07-16T21:08:13Z</time>
      </trkpt>
      <trkpt lat="45.74274" lon="6.64883">
        <ele>2303</ele>
        <time>2022-07-16T21:08:16Z</time>
      </trkpt>
      <trkpt lat="45.74274" lon="6.6488">
        <ele>2301</ele>
        <time>2022-07-16T21:08:20Z</time>
      </trkpt>
      <trkpt lat="45.74274" lon="6.64877">
        <ele>2301</ele>
        <time>2022-07-16T21:08:21Z</time>
      </trkpt>
      <trkpt lat="45.74274" lon="6.64874">
        <ele>2301</ele>
        <time>2022-07-16T21:08:23Z</time>
      </trkpt>
      <trkpt lat="45.74274" lon="6.64871">
        <ele>2300</ele>
        <time>2022-07-16T21:08:26Z</time>
      </trkpt>
      <trkpt lat="45.74273" lon="6.64868">
        <ele>2298</ele>
        <time>2022-07-16T21:08:30Z</time>
      </trkpt>
      <trkpt lat="45.74273" lon="6.64864">
        <ele>2297</ele>
        <time>2022-07-16T21:08:33Z</time>
      </trkpt>
      <trkpt lat="45.74273" lon="6.64861">
        <ele>2297</ele>
        <time>2022-07-16T21:08:35Z</time>
      </trkpt>
      <trkpt lat="45.74272" lon="6.64858">
        <ele>2297</ele>
        <time>2022-07-16T21:08:37Z</time>
      </trkpt>
      <trkpt lat="45.74272" lon="6.64855">
        <ele>2296</ele>
        <time>2022-07-16T21:08:39Z</time>
      </trkpt>
      <trkpt lat="45.74272" lon="6.64852">
        <ele>2296</ele>
        <time>2022-07-16T21:08:41Z</time>
      </trkpt>
      <trkpt lat="45.74271" lon="6.64848">
        <ele>2295</ele>
        <time>2022-07-16T21:08:43Z</time>
      </trkpt>
      <trkpt lat="45.7427" lon="6.64845">
        <ele>2295</ele>
        <time>2022-07-16T21:08:45Z</time>
      </trkpt>
      <trkpt lat="45.74269" lon="6.64842">
        <ele>2295</ele>
        <time>2022-07-16T21:08:48Z</time>
      </trkpt>
      <trkpt lat="45.74268" lon="6.64839">
        <ele>2295</ele>
        <time>2022-07-16T21:08:50Z</time>
      </trkpt>
      <trkpt lat="45.74267" lon="6.64836">
        <ele>2295</ele>
        <time>2022-07-16T21:08:52Z</time>
      </trkpt>
      <trkpt lat="45.74266" lon="6.64833">
        <ele>2295</ele>
        <time>2022-07-16T21:08:53Z</time>
      </trkpt>
      <trkpt lat="45.74266" lon="6.6483">
        <ele>2295</ele>
        <time>2022-07-16T21:08:55Z</time>
      </trkpt>
      <trkpt lat="45.74265" lon="6.64827">
        <ele>2295</ele>
        <time>2022-07-16T21:08:57Z</time>
      </trkpt>
      <trkpt lat="45.74265" lon="6.64823">
        <ele>2295</ele>
        <time>2022-07-16T21:09:01Z</time>
      </trkpt>
      <trkpt lat="45.74264" lon="6.64821">
        <ele>2295</ele>
        <time>2022-07-16T21:09:03Z</time>
      </trkpt>
      <trkpt lat="45.74264" lon="6.64818">
        <ele>2295</ele>
        <time>2022-07-16T21:09:05Z</time>
      </trkpt>
      <trkpt lat="45.74263" lon="6.64815">
        <ele>2296</ele>
        <time>2022-07-16T21:09:06Z</time>
      </trkpt>
      <trkpt lat="45.74262" lon="6.64812">
        <ele>2296</ele>
        <time>2022-07-16T21:09:08Z</time>
      </trkpt>
      <trkpt lat="45.74261" lon="6.6481">
        <ele>2296</ele>
        <time>2022-07-16T21:09:10Z</time>
      </trkpt>
      <trkpt lat="45.7426" lon="6.64807">
        <ele>2296</ele>
        <time>2022-07-16T21:09:12Z</time>
      </trkpt>
      <trkpt lat="45.74258" lon="6.64805">
        <ele>2296</ele>
        <time>2022-07-16T21:09:14Z</time>
      </trkpt>
      <trkpt lat="45.74257" lon="6.64801">
        <ele>2296</ele>
        <time>2022-07-16T21:09:17Z</time>
      </trkpt>
      <trkpt lat="45.74257" lon="6.64798">
        <ele>2296</ele>
        <time>2022-07-16T21:09:18Z</time>
      </trkpt>
      <trkpt lat="45.74257" lon="6.64795">
        <ele>2297</ele>
        <time>2022-07-16T21:09:22Z</time>
      </trkpt>
      <trkpt lat="45.74256" lon="6.64792">
        <ele>2297</ele>
        <time>2022-07-16T21:09:25Z</time>
      </trkpt>
      <trkpt lat="45.74255" lon="6.64789">
        <ele>2297</ele>
        <time>2022-07-16T21:09:28Z</time>
      </trkpt>
      <trkpt lat="45.74254" lon="6.64787">
        <ele>2297</ele>
        <time>2022-07-16T21:09:39Z</time>
      </trkpt>
      <trkpt lat="45.74254" lon="6.64787">
        <ele>2297</ele>
        <time>2022-07-16T21:09:42Z</time>
      </trkpt>
      <trkpt lat="45.74254" lon="6.64787">
        <ele>2297</ele>
        <time>2022-07-16T21:09:58Z</time>
      </trkpt>
      <trkpt lat="45.74254" lon="6.64787">
        <ele>2298</ele>
        <time>2022-07-16T21:10:14Z</time>
      </trkpt>
      <trkpt lat="45.74255" lon="6.64784">
        <ele>2298</ele>
        <time>2022-07-16T21:10:19Z</time>
      </trkpt>
      <trkpt lat="45.74255" lon="6.64781">
        <ele>2298</ele>
        <time>2022-07-16T21:10:27Z</time>
      </trkpt>
      <trkpt lat="45.74254" lon="6.64777">
        <ele>2298</ele>
        <time>2022-07-16T21:10:31Z</time>
      </trkpt>
      <trkpt lat="45.74253" lon="6.64774">
        <ele>2298</ele>
        <time>2022-07-16T21:10:33Z</time>
      </trkpt>
      <trkpt lat="45.74254" lon="6.64771">
        <ele>2298</ele>
        <time>2022-07-16T21:10:36Z</time>
      </trkpt>
      <trkpt lat="45.74256" lon="6.64769">
        <ele>2298</ele>
        <time>2022-07-16T21:10:38Z</time>
      </trkpt>
      <trkpt lat="45.74257" lon="6.64767">
        <ele>2298</ele>
        <time>2022-07-16T21:10:40Z</time>
      </trkpt>
      <trkpt lat="45.74258" lon="6.64765">
        <ele>2297</ele>
        <time>2022-07-16T21:10:42Z</time>
      </trkpt>
      <trkpt lat="45.74259" lon="6.64762">
        <ele>2297</ele>
        <time>2022-07-16T21:10:43Z</time>
      </trkpt>
      <trkpt lat="45.74261" lon="6.6476">
        <ele>2297</ele>
        <time>2022-07-16T21:10:45Z</time>
      </trkpt>
      <trkpt lat="45.74263" lon="6.64759">
        <ele>2297</ele>
        <time>2022-07-16T21:10:47Z</time>
      </trkpt>
      <trkpt lat="45.74265" lon="6.64758">
        <ele>2296</ele>
        <time>2022-07-16T21:10:49Z</time>
      </trkpt>
      <trkpt lat="45.74268" lon="6.64757">
        <ele>2296</ele>
        <time>2022-07-16T21:10:52Z</time>
      </trkpt>
      <trkpt lat="45.7427" lon="6.64755">
        <ele>2296</ele>
        <time>2022-07-16T21:10:53Z</time>
      </trkpt>
      <trkpt lat="45.74271" lon="6.64754">
        <ele>2295</ele>
        <time>2022-07-16T21:10:56Z</time>
      </trkpt>
      <trkpt lat="45.74273" lon="6.64752">
        <ele>2295</ele>
        <time>2022-07-16T21:10:57Z</time>
      </trkpt>
      <trkpt lat="45.74275" lon="6.6475">
        <ele>2294</ele>
        <time>2022-07-16T21:10:59Z</time>
      </trkpt>
      <trkpt lat="45.74276" lon="6.64749">
        <ele>2292</ele>
        <time>2022-07-16T21:11:03Z</time>
      </trkpt>
      <trkpt lat="45.74277" lon="6.64745">
        <ele>2292</ele>
        <time>2022-07-16T21:11:05Z</time>
      </trkpt>
      <trkpt lat="45.74276" lon="6.64742">
        <ele>2292</ele>
        <time>2022-07-16T21:11:08Z</time>
      </trkpt>
      <trkpt lat="45.74276" lon="6.64739">
        <ele>2292</ele>
        <time>2022-07-16T21:11:09Z</time>
      </trkpt>
      <trkpt lat="45.74276" lon="6.64737">
        <ele>2292</ele>
        <time>2022-07-16T21:11:12Z</time>
      </trkpt>
      <trkpt lat="45.74275" lon="6.64734">
        <ele>2291</ele>
        <time>2022-07-16T21:11:15Z</time>
      </trkpt>
      <trkpt lat="45.74276" lon="6.6473">
        <ele>2291</ele>
        <time>2022-07-16T21:11:18Z</time>
      </trkpt>
      <trkpt lat="45.74277" lon="6.64728">
        <ele>2290</ele>
        <time>2022-07-16T21:11:20Z</time>
      </trkpt>
      <trkpt lat="45.7428" lon="6.64728">
        <ele>2289</ele>
        <time>2022-07-16T21:11:21Z</time>
      </trkpt>
      <trkpt lat="45.74282" lon="6.64727">
        <ele>2289</ele>
        <time>2022-07-16T21:11:23Z</time>
      </trkpt>
      <trkpt lat="45.74284" lon="6.64727">
        <ele>2288</ele>
        <time>2022-07-16T21:11:25Z</time>
      </trkpt>
      <trkpt lat="45.74287" lon="6.64724">
        <ele>2287</ele>
        <time>2022-07-16T21:11:28Z</time>
      </trkpt>
      <trkpt lat="45.74288" lon="6.64722">
        <ele>2287</ele>
        <time>2022-07-16T21:11:30Z</time>
      </trkpt>
      <trkpt lat="45.74289" lon="6.6472">
        <ele>2286</ele>
        <time>2022-07-16T21:11:32Z</time>
      </trkpt>
      <trkpt lat="45.74291" lon="6.64719">
        <ele>2285</ele>
        <time>2022-07-16T21:11:36Z</time>
      </trkpt>
      <trkpt lat="45.74294" lon="6.64719">
        <ele>2284</ele>
        <time>2022-07-16T21:11:39Z</time>
      </trkpt>
      <trkpt lat="45.74296" lon="6.64717">
        <ele>2282</ele>
        <time>2022-07-16T21:11:41Z</time>
      </trkpt>
      <trkpt lat="45.74298" lon="6.64716">
        <ele>2281</ele>
        <time>2022-07-16T21:11:45Z</time>
      </trkpt>
      <trkpt lat="45.743" lon="6.64715">
        <ele>2281</ele>
        <time>2022-07-16T21:11:47Z</time>
      </trkpt>
      <trkpt lat="45.74302" lon="6.64714">
        <ele>2281</ele>
        <time>2022-07-16T21:11:48Z</time>
      </trkpt>
      <trkpt lat="45.74303" lon="6.64713">
        <ele>2280</ele>
        <time>2022-07-16T21:11:50Z</time>
      </trkpt>
      <trkpt lat="45.74305" lon="6.64711">
        <ele>2280</ele>
        <time>2022-07-16T21:11:53Z</time>
      </trkpt>
      <trkpt lat="45.74308" lon="6.64709">
        <ele>2279</ele>
        <time>2022-07-16T21:11:54Z</time>
      </trkpt>
      <trkpt lat="45.7431" lon="6.64707">
        <ele>2278</ele>
        <time>2022-07-16T21:11:57Z</time>
      </trkpt>
      <trkpt lat="45.74313" lon="6.64706">
        <ele>2278</ele>
        <time>2022-07-16T21:11:59Z</time>
      </trkpt>
      <trkpt lat="45.74315" lon="6.64705">
        <ele>2278</ele>
        <time>2022-07-16T21:12:01Z</time>
      </trkpt>
      <trkpt lat="45.74316" lon="6.64704">
        <ele>2278</ele>
        <time>2022-07-16T21:12:03Z</time>
      </trkpt>
      <trkpt lat="45.74319" lon="6.64703">
        <ele>2277</ele>
        <time>2022-07-16T21:12:04Z</time>
      </trkpt>
      <trkpt lat="45.74321" lon="6.64702">
        <ele>2277</ele>
        <time>2022-07-16T21:12:06Z</time>
      </trkpt>
      <trkpt lat="45.74324" lon="6.64702">
        <ele>2276</ele>
        <time>2022-07-16T21:12:08Z</time>
      </trkpt>
      <trkpt lat="45.74326" lon="6.64701">
        <ele>2276</ele>
        <time>2022-07-16T21:12:11Z</time>
      </trkpt>
      <trkpt lat="45.74329" lon="6.64702">
        <ele>2276</ele>
        <time>2022-07-16T21:12:13Z</time>
      </trkpt>
      <trkpt lat="45.74331" lon="6.64702">
        <ele>2276</ele>
        <time>2022-07-16T21:12:14Z</time>
      </trkpt>
      <trkpt lat="45.74334" lon="6.64702">
        <ele>2276</ele>
        <time>2022-07-16T21:12:17Z</time>
      </trkpt>
      <trkpt lat="45.74336" lon="6.64703">
        <ele>2275</ele>
        <time>2022-07-16T21:12:19Z</time>
      </trkpt>
      <trkpt lat="45.74338" lon="6.64703">
        <ele>2275</ele>
        <time>2022-07-16T21:12:20Z</time>
      </trkpt>
      <trkpt lat="45.74341" lon="6.64703">
        <ele>2275</ele>
        <time>2022-07-16T21:12:22Z</time>
      </trkpt>
      <trkpt lat="45.74343" lon="6.64703">
        <ele>2275</ele>
        <time>2022-07-16T21:12:25Z</time>
      </trkpt>
      <trkpt lat="45.74345" lon="6.64704">
        <ele>2275</ele>
        <time>2022-07-16T21:12:27Z</time>
      </trkpt>
      <trkpt lat="45.74347" lon="6.64704">
        <ele>2275</ele>
        <time>2022-07-16T21:12:29Z</time>
      </trkpt>
      <trkpt lat="45.74349" lon="6.64703">
        <ele>2272</ele>
        <time>2022-07-16T21:12:31Z</time>
      </trkpt>
      <trkpt lat="45.74351" lon="6.64701">
        <ele>2272</ele>
        <time>2022-07-16T21:12:32Z</time>
      </trkpt>
      <trkpt lat="45.74352" lon="6.64699">
        <ele>2272</ele>
        <time>2022-07-16T21:12:34Z</time>
      </trkpt>
      <trkpt lat="45.74354" lon="6.64696">
        <ele>2271</ele>
        <time>2022-07-16T21:12:37Z</time>
      </trkpt>
      <trkpt lat="45.74356" lon="6.64693">
        <ele>2271</ele>
        <time>2022-07-16T21:12:39Z</time>
      </trkpt>
      <trkpt lat="45.74357" lon="6.6469">
        <ele>2271</ele>
        <time>2022-07-16T21:12:40Z</time>
      </trkpt>
      <trkpt lat="45.7436" lon="6.64688">
        <ele>2271</ele>
        <time>2022-07-16T21:12:43Z</time>
      </trkpt>
      <trkpt lat="45.74362" lon="6.64687">
        <ele>2271</ele>
        <time>2022-07-16T21:12:44Z</time>
      </trkpt>
      <trkpt lat="45.74364" lon="6.64686">
        <ele>2271</ele>
        <time>2022-07-16T21:12:46Z</time>
      </trkpt>
      <trkpt lat="45.74366" lon="6.64685">
        <ele>2271</ele>
        <time>2022-07-16T21:12:49Z</time>
      </trkpt>
      <trkpt lat="45.74368" lon="6.64684">
        <ele>2271</ele>
        <time>2022-07-16T21:12:50Z</time>
      </trkpt>
      <trkpt lat="45.7437" lon="6.64682">
        <ele>2271</ele>
        <time>2022-07-16T21:12:52Z</time>
      </trkpt>
      <trkpt lat="45.74373" lon="6.64681">
        <ele>2271</ele>
        <time>2022-07-16T21:12:55Z</time>
      </trkpt>
      <trkpt lat="45.74375" lon="6.6468">
        <ele>2271</ele>
        <time>2022-07-16T21:12:57Z</time>
      </trkpt>
      <trkpt lat="45.74376" lon="6.64678">
        <ele>2271</ele>
        <time>2022-07-16T21:12:58Z</time>
      </trkpt>
      <trkpt lat="45.74377" lon="6.64675">
        <ele>2271</ele>
        <time>2022-07-16T21:13:00Z</time>
      </trkpt>
      <trkpt lat="45.74378" lon="6.64672">
        <ele>2271</ele>
        <time>2022-07-16T21:13:03Z</time>
      </trkpt>
      <trkpt lat="45.74379" lon="6.64669">
        <ele>2271</ele>
        <time>2022-07-16T21:13:05Z</time>
      </trkpt>
      <trkpt lat="45.74382" lon="6.64667">
        <ele>2270</ele>
        <time>2022-07-16T21:13:07Z</time>
      </trkpt>
      <trkpt lat="45.74384" lon="6.64664">
        <ele>2271</ele>
        <time>2022-07-16T21:13:09Z</time>
      </trkpt>
      <trkpt lat="45.74386" lon="6.64662">
        <ele>2271</ele>
        <time>2022-07-16T21:13:10Z</time>
      </trkpt>
      <trkpt lat="45.74387" lon="6.6466">
        <ele>2271</ele>
        <time>2022-07-16T21:13:12Z</time>
      </trkpt>
      <trkpt lat="45.74388" lon="6.64657">
        <ele>2271</ele>
        <time>2022-07-16T21:13:15Z</time>
      </trkpt>
      <trkpt lat="45.74389" lon="6.64653">
        <ele>2271</ele>
        <time>2022-07-16T21:13:17Z</time>
      </trkpt>
      <trkpt lat="45.7439" lon="6.6465">
        <ele>2270</ele>
        <time>2022-07-16T21:13:19Z</time>
      </trkpt>
      <trkpt lat="45.74391" lon="6.64647">
        <ele>2270</ele>
        <time>2022-07-16T21:13:20Z</time>
      </trkpt>
      <trkpt lat="45.74393" lon="6.64644">
        <ele>2269</ele>
        <time>2022-07-16T21:13:22Z</time>
      </trkpt>
      <trkpt lat="45.74395" lon="6.64641">
        <ele>2269</ele>
        <time>2022-07-16T21:13:24Z</time>
      </trkpt>
      <trkpt lat="45.74397" lon="6.64639">
        <ele>2269</ele>
        <time>2022-07-16T21:13:27Z</time>
      </trkpt>
      <trkpt lat="45.74399" lon="6.64637">
        <ele>2268</ele>
        <time>2022-07-16T21:13:29Z</time>
      </trkpt>
      <trkpt lat="45.74402" lon="6.64632">
        <ele>2268</ele>
        <time>2022-07-16T21:13:31Z</time>
      </trkpt>
      <trkpt lat="45.74404" lon="6.64631">
        <ele>2268</ele>
        <time>2022-07-16T21:13:33Z</time>
      </trkpt>
      <trkpt lat="45.74406" lon="6.64629">
        <ele>2267</ele>
        <time>2022-07-16T21:13:34Z</time>
      </trkpt>
      <trkpt lat="45.74408" lon="6.64627">
        <ele>2266</ele>
        <time>2022-07-16T21:13:35Z</time>
      </trkpt>
      <trkpt lat="45.7441" lon="6.64625">
        <ele>2267</ele>
        <time>2022-07-16T21:13:37Z</time>
      </trkpt>
      <trkpt lat="45.74412" lon="6.64623">
        <ele>2267</ele>
        <time>2022-07-16T21:13:39Z</time>
      </trkpt>
      <trkpt lat="45.74414" lon="6.64621">
        <ele>2267</ele>
        <time>2022-07-16T21:13:41Z</time>
      </trkpt>
      <trkpt lat="45.74416" lon="6.6462">
        <ele>2267</ele>
        <time>2022-07-16T21:13:44Z</time>
      </trkpt>
      <trkpt lat="45.74418" lon="6.64619">
        <ele>2267</ele>
        <time>2022-07-16T21:13:46Z</time>
      </trkpt>
      <trkpt lat="45.7442" lon="6.64619">
        <ele>2267</ele>
        <time>2022-07-16T21:13:49Z</time>
      </trkpt>
      <trkpt lat="45.74422" lon="6.6462">
        <ele>2267</ele>
        <time>2022-07-16T21:13:50Z</time>
      </trkpt>
      <trkpt lat="45.74425" lon="6.64621">
        <ele>2267</ele>
        <time>2022-07-16T21:13:53Z</time>
      </trkpt>
      <trkpt lat="45.74427" lon="6.64623">
        <ele>2267</ele>
        <time>2022-07-16T21:13:54Z</time>
      </trkpt>
      <trkpt lat="45.74429" lon="6.64624">
        <ele>2267</ele>
        <time>2022-07-16T21:13:56Z</time>
      </trkpt>
      <trkpt lat="45.74431" lon="6.64625">
        <ele>2267</ele>
        <time>2022-07-16T21:13:58Z</time>
      </trkpt>
      <trkpt lat="45.74433" lon="6.64628">
        <ele>2265</ele>
        <time>2022-07-16T21:14:00Z</time>
      </trkpt>
      <trkpt lat="45.74435" lon="6.64629">
        <ele>2264</ele>
        <time>2022-07-16T21:14:02Z</time>
      </trkpt>
      <trkpt lat="45.74438" lon="6.6463">
        <ele>2264</ele>
        <time>2022-07-16T21:14:05Z</time>
      </trkpt>
      <trkpt lat="45.74441" lon="6.6463">
        <ele>2264</ele>
        <time>2022-07-16T21:14:07Z</time>
      </trkpt>
      <trkpt lat="45.74443" lon="6.64631">
        <ele>2264</ele>
        <time>2022-07-16T21:14:08Z</time>
      </trkpt>
      <trkpt lat="45.74445" lon="6.64631">
        <ele>2264</ele>
        <time>2022-07-16T21:14:11Z</time>
      </trkpt>
      <trkpt lat="45.74448" lon="6.64632">
        <ele>2263</ele>
        <time>2022-07-16T21:14:12Z</time>
      </trkpt>
      <trkpt lat="45.7445" lon="6.64631">
        <ele>2263</ele>
        <time>2022-07-16T21:14:14Z</time>
      </trkpt>
      <trkpt lat="45.74452" lon="6.64631">
        <ele>2263</ele>
        <time>2022-07-16T21:14:17Z</time>
      </trkpt>
      <trkpt lat="45.74454" lon="6.64632">
        <ele>2263</ele>
        <time>2022-07-16T21:14:18Z</time>
      </trkpt>
      <trkpt lat="45.74457" lon="6.64632">
        <ele>2262</ele>
        <time>2022-07-16T21:14:21Z</time>
      </trkpt>
      <trkpt lat="45.74459" lon="6.64633">
        <ele>2262</ele>
        <time>2022-07-16T21:14:22Z</time>
      </trkpt>
      <trkpt lat="45.74462" lon="6.64634">
        <ele>2262</ele>
        <time>2022-07-16T21:14:24Z</time>
      </trkpt>
      <trkpt lat="45.74464" lon="6.64635">
        <ele>2262</ele>
        <time>2022-07-16T21:14:26Z</time>
      </trkpt>
      <trkpt lat="45.74467" lon="6.64635">
        <ele>2261</ele>
        <time>2022-07-16T21:14:28Z</time>
      </trkpt>
      <trkpt lat="45.74469" lon="6.64636">
        <ele>2260</ele>
        <time>2022-07-16T21:14:31Z</time>
      </trkpt>
      <trkpt lat="45.74471" lon="6.64637">
        <ele>2259</ele>
        <time>2022-07-16T21:14:33Z</time>
      </trkpt>
      <trkpt lat="45.74473" lon="6.6464">
        <ele>2259</ele>
        <time>2022-07-16T21:14:35Z</time>
      </trkpt>
      <trkpt lat="45.74475" lon="6.64642">
        <ele>2259</ele>
        <time>2022-07-16T21:14:37Z</time>
      </trkpt>
      <trkpt lat="45.74478" lon="6.64644">
        <ele>2259</ele>
        <time>2022-07-16T21:14:38Z</time>
      </trkpt>
      <trkpt lat="45.74481" lon="6.64647">
        <ele>2259</ele>
        <time>2022-07-16T21:14:40Z</time>
      </trkpt>
      <trkpt lat="45.74483" lon="6.64649">
        <ele>2259</ele>
        <time>2022-07-16T21:14:42Z</time>
      </trkpt>
      <trkpt lat="45.74485" lon="6.64651">
        <ele>2258</ele>
        <time>2022-07-16T21:14:45Z</time>
      </trkpt>
      <trkpt lat="45.74488" lon="6.64653">
        <ele>2257</ele>
        <time>2022-07-16T21:14:47Z</time>
      </trkpt>
      <trkpt lat="45.74491" lon="6.64656">
        <ele>2257</ele>
        <time>2022-07-16T21:14:49Z</time>
      </trkpt>
      <trkpt lat="45.74493" lon="6.64658">
        <ele>2256</ele>
        <time>2022-07-16T21:14:51Z</time>
      </trkpt>
      <trkpt lat="45.74496" lon="6.64659">
        <ele>2256</ele>
        <time>2022-07-16T21:14:54Z</time>
      </trkpt>
      <trkpt lat="45.74498" lon="6.6466">
        <ele>2256</ele>
        <time>2022-07-16T21:14:55Z</time>
      </trkpt>
      <trkpt lat="45.745" lon="6.64661">
        <ele>2256</ele>
        <time>2022-07-16T21:14:57Z</time>
      </trkpt>
      <trkpt lat="45.74502" lon="6.64663">
        <ele>2256</ele>
        <time>2022-07-16T21:14:59Z</time>
      </trkpt>
      <trkpt lat="45.74504" lon="6.64667">
        <ele>2255</ele>
        <time>2022-07-16T21:15:01Z</time>
      </trkpt>
      <trkpt lat="45.74505" lon="6.64669">
        <ele>2255</ele>
        <time>2022-07-16T21:15:03Z</time>
      </trkpt>
      <trkpt lat="45.74507" lon="6.64672">
        <ele>2254</ele>
        <time>2022-07-16T21:15:05Z</time>
      </trkpt>
      <trkpt lat="45.74509" lon="6.64675">
        <ele>2254</ele>
        <time>2022-07-16T21:15:07Z</time>
      </trkpt>
      <trkpt lat="45.74511" lon="6.64677">
        <ele>2254</ele>
        <time>2022-07-16T21:15:09Z</time>
      </trkpt>
      <trkpt lat="45.74513" lon="6.64679">
        <ele>2253</ele>
        <time>2022-07-16T21:15:11Z</time>
      </trkpt>
      <trkpt lat="45.74515" lon="6.64682">
        <ele>2254</ele>
        <time>2022-07-16T21:15:13Z</time>
      </trkpt>
      <trkpt lat="45.74518" lon="6.64683">
        <ele>2253</ele>
        <time>2022-07-16T21:15:15Z</time>
      </trkpt>
      <trkpt lat="45.7452" lon="6.64685">
        <ele>2253</ele>
        <time>2022-07-16T21:15:16Z</time>
      </trkpt>
      <trkpt lat="45.74522" lon="6.64687">
        <ele>2253</ele>
        <time>2022-07-16T21:15:18Z</time>
      </trkpt>
      <trkpt lat="45.74524" lon="6.64688">
        <ele>2253</ele>
        <time>2022-07-16T21:15:20Z</time>
      </trkpt>
      <trkpt lat="45.74526" lon="6.6469">
        <ele>2254</ele>
        <time>2022-07-16T21:15:23Z</time>
      </trkpt>
      <trkpt lat="45.74528" lon="6.64693">
        <ele>2254</ele>
        <time>2022-07-16T21:15:25Z</time>
      </trkpt>
      <trkpt lat="45.7453" lon="6.64695">
        <ele>2254</ele>
        <time>2022-07-16T21:15:27Z</time>
      </trkpt>
      <trkpt lat="45.74532" lon="6.64696">
        <ele>2253</ele>
        <time>2022-07-16T21:15:28Z</time>
      </trkpt>
      <trkpt lat="45.74534" lon="6.64698">
        <ele>2254</ele>
        <time>2022-07-16T21:15:30Z</time>
      </trkpt>
      <trkpt lat="45.74536" lon="6.64699">
        <ele>2254</ele>
        <time>2022-07-16T21:15:32Z</time>
      </trkpt>
      <trkpt lat="45.74538" lon="6.647">
        <ele>2253</ele>
        <time>2022-07-16T21:15:35Z</time>
      </trkpt>
      <trkpt lat="45.7454" lon="6.64701">
        <ele>2253</ele>
        <time>2022-07-16T21:15:37Z</time>
      </trkpt>
      <trkpt lat="45.74542" lon="6.64703">
        <ele>2253</ele>
        <time>2022-07-16T21:15:38Z</time>
      </trkpt>
      <trkpt lat="45.74544" lon="6.64704">
        <ele>2252</ele>
        <time>2022-07-16T21:15:40Z</time>
      </trkpt>
      <trkpt lat="45.74546" lon="6.64705">
        <ele>2252</ele>
        <time>2022-07-16T21:15:42Z</time>
      </trkpt>
      <trkpt lat="45.74547" lon="6.64707">
        <ele>2252</ele>
        <time>2022-07-16T21:15:44Z</time>
      </trkpt>
      <trkpt lat="45.74549" lon="6.64708">
        <ele>2252</ele>
        <time>2022-07-16T21:15:46Z</time>
      </trkpt>
      <trkpt lat="45.7455" lon="6.64711">
        <ele>2251</ele>
        <time>2022-07-16T21:15:48Z</time>
      </trkpt>
      <trkpt lat="45.74551" lon="6.64714">
        <ele>2251</ele>
        <time>2022-07-16T21:15:51Z</time>
      </trkpt>
      <trkpt lat="45.74553" lon="6.64716">
        <ele>2251</ele>
        <time>2022-07-16T21:15:53Z</time>
      </trkpt>
      <trkpt lat="45.74556" lon="6.64717">
        <ele>2251</ele>
        <time>2022-07-16T21:15:54Z</time>
      </trkpt>
      <trkpt lat="45.74558" lon="6.64718">
        <ele>2250</ele>
        <time>2022-07-16T21:15:57Z</time>
      </trkpt>
      <trkpt lat="45.7456" lon="6.64719">
        <ele>2250</ele>
        <time>2022-07-16T21:15:58Z</time>
      </trkpt>
      <trkpt lat="45.74562" lon="6.6472">
        <ele>2249</ele>
        <time>2022-07-16T21:16:00Z</time>
      </trkpt>
      <trkpt lat="45.74563" lon="6.64723">
        <ele>2249</ele>
        <time>2022-07-16T21:16:02Z</time>
      </trkpt>
      <trkpt lat="45.74565" lon="6.64725">
        <ele>2248</ele>
        <time>2022-07-16T21:16:04Z</time>
      </trkpt>
      <trkpt lat="45.74567" lon="6.64727">
        <ele>2246</ele>
        <time>2022-07-16T21:16:07Z</time>
      </trkpt>
      <trkpt lat="45.74569" lon="6.64729">
        <ele>2245</ele>
        <time>2022-07-16T21:16:10Z</time>
      </trkpt>
      <trkpt lat="45.74571" lon="6.6473">
        <ele>2244</ele>
        <time>2022-07-16T21:16:12Z</time>
      </trkpt>
      <trkpt lat="45.74573" lon="6.64731">
        <ele>2244</ele>
        <time>2022-07-16T21:16:14Z</time>
      </trkpt>
      <trkpt lat="45.74575" lon="6.64732">
        <ele>2243</ele>
        <time>2022-07-16T21:16:15Z</time>
      </trkpt>
      <trkpt lat="45.74577" lon="6.64734">
        <ele>2243</ele>
        <time>2022-07-16T21:16:19Z</time>
      </trkpt>
      <trkpt lat="45.74579" lon="6.64734">
        <ele>2242</ele>
        <time>2022-07-16T21:16:22Z</time>
      </trkpt>
      <trkpt lat="45.74581" lon="6.64731">
        <ele>2242</ele>
        <time>2022-07-16T21:16:25Z</time>
      </trkpt>
      <trkpt lat="45.74582" lon="6.64729">
        <ele>2241</ele>
        <time>2022-07-16T21:16:27Z</time>
      </trkpt>
      <trkpt lat="45.74583" lon="6.64725">
        <ele>2240</ele>
        <time>2022-07-16T21:16:31Z</time>
      </trkpt>
      <trkpt lat="45.74583" lon="6.64723">
        <ele>2240</ele>
        <time>2022-07-16T21:16:32Z</time>
      </trkpt>
      <trkpt lat="45.74584" lon="6.6472">
        <ele>2239</ele>
        <time>2022-07-16T21:16:34Z</time>
      </trkpt>
      <trkpt lat="45.74585" lon="6.64718">
        <ele>2239</ele>
        <time>2022-07-16T21:16:37Z</time>
      </trkpt>
      <trkpt lat="45.74586" lon="6.64716">
        <ele>2238</ele>
        <time>2022-07-16T21:16:39Z</time>
      </trkpt>
      <trkpt lat="45.74588" lon="6.64713">
        <ele>2237</ele>
        <time>2022-07-16T21:16:41Z</time>
      </trkpt>
      <trkpt lat="45.74589" lon="6.6471">
        <ele>2236</ele>
        <time>2022-07-16T21:16:44Z</time>
      </trkpt>
      <trkpt lat="45.7459" lon="6.64708">
        <ele>2236</ele>
        <time>2022-07-16T21:16:46Z</time>
      </trkpt>
      <trkpt lat="45.74592" lon="6.64706">
        <ele>2235</ele>
        <time>2022-07-16T21:16:49Z</time>
      </trkpt>
      <trkpt lat="45.74591" lon="6.64702">
        <ele>2235</ele>
        <time>2022-07-16T21:16:53Z</time>
      </trkpt>
      <trkpt lat="45.74591" lon="6.647">
        <ele>2234</ele>
        <time>2022-07-16T21:16:54Z</time>
      </trkpt>
      <trkpt lat="45.74593" lon="6.64698">
        <ele>2233</ele>
        <time>2022-07-16T21:16:57Z</time>
      </trkpt>
      <trkpt lat="45.74596" lon="6.64698">
        <ele>2231</ele>
        <time>2022-07-16T21:17:01Z</time>
      </trkpt>
      <trkpt lat="45.74599" lon="6.64698">
        <ele>2231</ele>
        <time>2022-07-16T21:17:03Z</time>
      </trkpt>
      <trkpt lat="45.74601" lon="6.64699">
        <ele>2230</ele>
        <time>2022-07-16T21:17:05Z</time>
      </trkpt>
      <trkpt lat="45.74603" lon="6.64701">
        <ele>2230</ele>
        <time>2022-07-16T21:17:07Z</time>
      </trkpt>
      <trkpt lat="45.74605" lon="6.64703">
        <ele>2230</ele>
        <time>2022-07-16T21:17:10Z</time>
      </trkpt>
      <trkpt lat="45.74607" lon="6.64705">
        <ele>2229</ele>
        <time>2022-07-16T21:17:12Z</time>
      </trkpt>
      <trkpt lat="45.74608" lon="6.64707">
        <ele>2229</ele>
        <time>2022-07-16T21:17:14Z</time>
      </trkpt>
      <trkpt lat="45.74609" lon="6.6471">
        <ele>2229</ele>
        <time>2022-07-16T21:17:15Z</time>
      </trkpt>
      <trkpt lat="45.7461" lon="6.64713">
        <ele>2229</ele>
        <time>2022-07-16T21:17:17Z</time>
      </trkpt>
      <trkpt lat="45.7461" lon="6.64716">
        <ele>2228</ele>
        <time>2022-07-16T21:17:20Z</time>
      </trkpt>
      <trkpt lat="45.74611" lon="6.64719">
        <ele>2227</ele>
        <time>2022-07-16T21:17:22Z</time>
      </trkpt>
      <trkpt lat="45.7461" lon="6.64723">
        <ele>2226</ele>
        <time>2022-07-16T21:17:24Z</time>
      </trkpt>
      <trkpt lat="45.74609" lon="6.64726">
        <ele>2227</ele>
        <time>2022-07-16T21:17:27Z</time>
      </trkpt>
      <trkpt lat="45.7461" lon="6.64729">
        <ele>2227</ele>
        <time>2022-07-16T21:17:29Z</time>
      </trkpt>
      <trkpt lat="45.74611" lon="6.64731">
        <ele>2226</ele>
        <time>2022-07-16T21:17:31Z</time>
      </trkpt>
      <trkpt lat="45.74612" lon="6.64734">
        <ele>2226</ele>
        <time>2022-07-16T21:17:33Z</time>
      </trkpt>
      <trkpt lat="45.74614" lon="6.64737">
        <ele>2226</ele>
        <time>2022-07-16T21:17:35Z</time>
      </trkpt>
      <trkpt lat="45.74616" lon="6.64739">
        <ele>2225</ele>
        <time>2022-07-16T21:17:38Z</time>
      </trkpt>
      <trkpt lat="45.74617" lon="6.6474">
        <ele>2223</ele>
        <time>2022-07-16T21:17:41Z</time>
      </trkpt>
      <trkpt lat="45.74619" lon="6.64741">
        <ele>2222</ele>
        <time>2022-07-16T21:17:43Z</time>
      </trkpt>
      <trkpt lat="45.74621" lon="6.64741">
        <ele>2222</ele>
        <time>2022-07-16T21:17:46Z</time>
      </trkpt>
      <trkpt lat="45.74624" lon="6.64739">
        <ele>2220</ele>
        <time>2022-07-16T21:17:47Z</time>
      </trkpt>
      <trkpt lat="45.74626" lon="6.64738">
        <ele>2220</ele>
        <time>2022-07-16T21:17:49Z</time>
      </trkpt>
      <trkpt lat="45.7463" lon="6.64739">
        <ele>2220</ele>
        <time>2022-07-16T21:17:52Z</time>
      </trkpt>
      <trkpt lat="45.74632" lon="6.64739">
        <ele>2220</ele>
        <time>2022-07-16T21:17:53Z</time>
      </trkpt>
      <trkpt lat="45.74635" lon="6.64739">
        <ele>2219</ele>
        <time>2022-07-16T21:17:56Z</time>
      </trkpt>
      <trkpt lat="45.74638" lon="6.6474">
        <ele>2219</ele>
        <time>2022-07-16T21:17:58Z</time>
      </trkpt>
      <trkpt lat="45.7464" lon="6.64741">
        <ele>2219</ele>
        <time>2022-07-16T21:18:00Z</time>
      </trkpt>
      <trkpt lat="45.74642" lon="6.64742">
        <ele>2220</ele>
        <time>2022-07-16T21:18:02Z</time>
      </trkpt>
      <trkpt lat="45.74644" lon="6.64743">
        <ele>2220</ele>
        <time>2022-07-16T21:18:04Z</time>
      </trkpt>
      <trkpt lat="45.74646" lon="6.64746">
        <ele>2220</ele>
        <time>2022-07-16T21:18:05Z</time>
      </trkpt>
      <trkpt lat="45.74648" lon="6.64748">
        <ele>2220</ele>
        <time>2022-07-16T21:18:07Z</time>
      </trkpt>
      <trkpt lat="45.7465" lon="6.6475">
        <ele>2220</ele>
        <time>2022-07-16T21:18:09Z</time>
      </trkpt>
      <trkpt lat="45.74651" lon="6.64752">
        <ele>2219</ele>
        <time>2022-07-16T21:18:11Z</time>
      </trkpt>
      <trkpt lat="45.74652" lon="6.64754">
        <ele>2219</ele>
        <time>2022-07-16T21:18:14Z</time>
      </trkpt>
      <trkpt lat="45.74654" lon="6.64756">
        <ele>2219</ele>
        <time>2022-07-16T21:18:16Z</time>
      </trkpt>
      <trkpt lat="45.74656" lon="6.64757">
        <ele>2219</ele>
        <time>2022-07-16T21:18:18Z</time>
      </trkpt>
      <trkpt lat="45.74658" lon="6.64758">
        <ele>2218</ele>
        <time>2022-07-16T21:18:19Z</time>
      </trkpt>
      <trkpt lat="45.74661" lon="6.64759">
        <ele>2217</ele>
        <time>2022-07-16T21:18:21Z</time>
      </trkpt>
      <trkpt lat="45.74663" lon="6.6476">
        <ele>2217</ele>
        <time>2022-07-16T21:18:23Z</time>
      </trkpt>
      <trkpt lat="45.74665" lon="6.64762">
        <ele>2217</ele>
        <time>2022-07-16T21:18:26Z</time>
      </trkpt>
      <trkpt lat="45.74667" lon="6.64764">
        <ele>2217</ele>
        <time>2022-07-16T21:18:28Z</time>
      </trkpt>
      <trkpt lat="45.74669" lon="6.64766">
        <ele>2217</ele>
        <time>2022-07-16T21:18:29Z</time>
      </trkpt>
      <trkpt lat="45.74671" lon="6.64768">
        <ele>2217</ele>
        <time>2022-07-16T21:18:31Z</time>
      </trkpt>
      <trkpt lat="45.74673" lon="6.64769">
        <ele>2216</ele>
        <time>2022-07-16T21:18:33Z</time>
      </trkpt>
      <trkpt lat="45.74676" lon="6.64771">
        <ele>2216</ele>
        <time>2022-07-16T21:18:35Z</time>
      </trkpt>
      <trkpt lat="45.74678" lon="6.64773">
        <ele>2215</ele>
        <time>2022-07-16T21:18:38Z</time>
      </trkpt>
      <trkpt lat="45.74681" lon="6.64774">
        <ele>2215</ele>
        <time>2022-07-16T21:18:39Z</time>
      </trkpt>
      <trkpt lat="45.74683" lon="6.64775">
        <ele>2215</ele>
        <time>2022-07-16T21:18:41Z</time>
      </trkpt>
      <trkpt lat="45.74685" lon="6.64776">
        <ele>2214</ele>
        <time>2022-07-16T21:18:44Z</time>
      </trkpt>
      <trkpt lat="45.74687" lon="6.64777">
        <ele>2213</ele>
        <time>2022-07-16T21:18:45Z</time>
      </trkpt>
      <trkpt lat="45.7469" lon="6.64778">
        <ele>2213</ele>
        <time>2022-07-16T21:18:48Z</time>
      </trkpt>
      <trkpt lat="45.74692" lon="6.64778">
        <ele>2213</ele>
        <time>2022-07-16T21:18:50Z</time>
      </trkpt>
      <trkpt lat="45.74695" lon="6.6478">
        <ele>2213</ele>
        <time>2022-07-16T21:18:51Z</time>
      </trkpt>
      <trkpt lat="45.74696" lon="6.64782">
        <ele>2212</ele>
        <time>2022-07-16T21:18:53Z</time>
      </trkpt>
      <trkpt lat="45.74698" lon="6.64782">
        <ele>2211</ele>
        <time>2022-07-16T21:18:57Z</time>
      </trkpt>
      <trkpt lat="45.747" lon="6.64783">
        <ele>2210</ele>
        <time>2022-07-16T21:18:59Z</time>
      </trkpt>
      <trkpt lat="45.74703" lon="6.64785">
        <ele>2209</ele>
        <time>2022-07-16T21:19:01Z</time>
      </trkpt>
      <trkpt lat="45.74706" lon="6.64787">
        <ele>2208</ele>
        <time>2022-07-16T21:19:03Z</time>
      </trkpt>
      <trkpt lat="45.74708" lon="6.64789">
        <ele>2208</ele>
        <time>2022-07-16T21:19:05Z</time>
      </trkpt>
      <trkpt lat="45.7471" lon="6.64791">
        <ele>2208</ele>
        <time>2022-07-16T21:19:06Z</time>
      </trkpt>
      <trkpt lat="45.74712" lon="6.64793">
        <ele>2208</ele>
        <time>2022-07-16T21:19:09Z</time>
      </trkpt>
      <trkpt lat="45.74714" lon="6.64794">
        <ele>2208</ele>
        <time>2022-07-16T21:19:11Z</time>
      </trkpt>
      <trkpt lat="45.74717" lon="6.64795">
        <ele>2208</ele>
        <time>2022-07-16T21:19:12Z</time>
      </trkpt>
      <trkpt lat="45.74718" lon="6.64796">
        <ele>2208</ele>
        <time>2022-07-16T21:19:15Z</time>
      </trkpt>
      <trkpt lat="45.74721" lon="6.64797">
        <ele>2207</ele>
        <time>2022-07-16T21:19:17Z</time>
      </trkpt>
      <trkpt lat="45.74723" lon="6.64797">
        <ele>2207</ele>
        <time>2022-07-16T21:19:20Z</time>
      </trkpt>
      <trkpt lat="45.74724" lon="6.64799">
        <ele>2206</ele>
        <time>2022-07-16T21:19:22Z</time>
      </trkpt>
      <trkpt lat="45.74725" lon="6.64802">
        <ele>2206</ele>
        <time>2022-07-16T21:19:23Z</time>
      </trkpt>
      <trkpt lat="45.74726" lon="6.64805">
        <ele>2205</ele>
        <time>2022-07-16T21:19:27Z</time>
      </trkpt>
      <trkpt lat="45.74728" lon="6.64807">
        <ele>2205</ele>
        <time>2022-07-16T21:19:28Z</time>
      </trkpt>
      <trkpt lat="45.7473" lon="6.64808">
        <ele>2204</ele>
        <time>2022-07-16T21:19:31Z</time>
      </trkpt>
      <trkpt lat="45.74733" lon="6.64809">
        <ele>2203</ele>
        <time>2022-07-16T21:19:33Z</time>
      </trkpt>
      <trkpt lat="45.74736" lon="6.64809">
        <ele>2203</ele>
        <time>2022-07-16T21:19:35Z</time>
      </trkpt>
      <trkpt lat="45.74739" lon="6.6481">
        <ele>2202</ele>
        <time>2022-07-16T21:19:36Z</time>
      </trkpt>
      <trkpt lat="45.74742" lon="6.64812">
        <ele>2201</ele>
        <time>2022-07-16T21:19:39Z</time>
      </trkpt>
      <trkpt lat="45.74744" lon="6.64813">
        <ele>2200</ele>
        <time>2022-07-16T21:19:41Z</time>
      </trkpt>
      <trkpt lat="45.74746" lon="6.64812">
        <ele>2200</ele>
        <time>2022-07-16T21:19:43Z</time>
      </trkpt>
      <trkpt lat="45.74748" lon="6.64812">
        <ele>2200</ele>
        <time>2022-07-16T21:19:44Z</time>
      </trkpt>
      <trkpt lat="45.74751" lon="6.64811">
        <ele>2199</ele>
        <time>2022-07-16T21:19:46Z</time>
      </trkpt>
      <trkpt lat="45.74753" lon="6.64812">
        <ele>2199</ele>
        <time>2022-07-16T21:19:49Z</time>
      </trkpt>
      <trkpt lat="45.74755" lon="6.64812">
        <ele>2198</ele>
        <time>2022-07-16T21:19:51Z</time>
      </trkpt>
      <trkpt lat="45.74757" lon="6.64813">
        <ele>2196</ele>
        <time>2022-07-16T21:19:54Z</time>
      </trkpt>
      <trkpt lat="45.74759" lon="6.64815">
        <ele>2196</ele>
        <time>2022-07-16T21:19:56Z</time>
      </trkpt>
      <trkpt lat="45.74762" lon="6.64816">
        <ele>2194</ele>
        <time>2022-07-16T21:19:59Z</time>
      </trkpt>
      <trkpt lat="45.74764" lon="6.64817">
        <ele>2193</ele>
        <time>2022-07-16T21:20:03Z</time>
      </trkpt>
      <trkpt lat="45.74766" lon="6.64819">
        <ele>2192</ele>
        <time>2022-07-16T21:20:06Z</time>
      </trkpt>
      <trkpt lat="45.74768" lon="6.6482">
        <ele>2192</ele>
        <time>2022-07-16T21:20:07Z</time>
      </trkpt>
      <trkpt lat="45.74771" lon="6.64822">
        <ele>2191</ele>
        <time>2022-07-16T21:20:09Z</time>
      </trkpt>
      <trkpt lat="45.74773" lon="6.64822">
        <ele>2190</ele>
        <time>2022-07-16T21:20:12Z</time>
      </trkpt>
      <trkpt lat="45.74775" lon="6.64823">
        <ele>2189</ele>
        <time>2022-07-16T21:20:14Z</time>
      </trkpt>
      <trkpt lat="45.74777" lon="6.64824">
        <ele>2189</ele>
        <time>2022-07-16T21:20:16Z</time>
      </trkpt>
      <trkpt lat="45.74779" lon="6.64827">
        <ele>2188</ele>
        <time>2022-07-16T21:20:18Z</time>
      </trkpt>
      <trkpt lat="45.74781" lon="6.64828">
        <ele>2188</ele>
        <time>2022-07-16T21:20:21Z</time>
      </trkpt>
      <trkpt lat="45.74782" lon="6.64831">
        <ele>2188</ele>
        <time>2022-07-16T21:20:23Z</time>
      </trkpt>
      <trkpt lat="45.74783" lon="6.64834">
        <ele>2187</ele>
        <time>2022-07-16T21:20:25Z</time>
      </trkpt>
      <trkpt lat="45.74782" lon="6.64837">
        <ele>2186</ele>
        <time>2022-07-16T21:20:27Z</time>
      </trkpt>
      <trkpt lat="45.74782" lon="6.64841">
        <ele>2186</ele>
        <time>2022-07-16T21:20:31Z</time>
      </trkpt>
      <trkpt lat="45.74783" lon="6.64844">
        <ele>2184</ele>
        <time>2022-07-16T21:20:32Z</time>
      </trkpt>
      <trkpt lat="45.74784" lon="6.64846">
        <ele>2184</ele>
        <time>2022-07-16T21:20:34Z</time>
      </trkpt>
      <trkpt lat="45.74786" lon="6.64848">
        <ele>2184</ele>
        <time>2022-07-16T21:20:36Z</time>
      </trkpt>
      <trkpt lat="45.74788" lon="6.6485">
        <ele>2183</ele>
        <time>2022-07-16T21:20:39Z</time>
      </trkpt>
      <trkpt lat="45.74789" lon="6.64852">
        <ele>2183</ele>
        <time>2022-07-16T21:20:41Z</time>
      </trkpt>
      <trkpt lat="45.74791" lon="6.64853">
        <ele>2182</ele>
        <time>2022-07-16T21:20:43Z</time>
      </trkpt>
      <trkpt lat="45.74793" lon="6.64854">
        <ele>2182</ele>
        <time>2022-07-16T21:20:44Z</time>
      </trkpt>
      <trkpt lat="45.74794" lon="6.64856">
        <ele>2181</ele>
        <time>2022-07-16T21:20:47Z</time>
      </trkpt>
      <trkpt lat="45.74796" lon="6.64858">
        <ele>2181</ele>
        <time>2022-07-16T21:20:49Z</time>
      </trkpt>
      <trkpt lat="45.74797" lon="6.6486">
        <ele>2180</ele>
        <time>2022-07-16T21:20:51Z</time>
      </trkpt>
      <trkpt lat="45.74799" lon="6.64863">
        <ele>2179</ele>
        <time>2022-07-16T21:20:53Z</time>
      </trkpt>
      <trkpt lat="45.74801" lon="6.64866">
        <ele>2179</ele>
        <time>2022-07-16T21:20:55Z</time>
      </trkpt>
      <trkpt lat="45.74803" lon="6.64868">
        <ele>2179</ele>
        <time>2022-07-16T21:20:57Z</time>
      </trkpt>
      <trkpt lat="45.74805" lon="6.64871">
        <ele>2179</ele>
        <time>2022-07-16T21:20:59Z</time>
      </trkpt>
      <trkpt lat="45.74806" lon="6.64873">
        <ele>2179</ele>
        <time>2022-07-16T21:21:00Z</time>
      </trkpt>
      <trkpt lat="45.74808" lon="6.64876">
        <ele>2179</ele>
        <time>2022-07-16T21:21:02Z</time>
      </trkpt>
      <trkpt lat="45.74809" lon="6.64879">
        <ele>2179</ele>
        <time>2022-07-16T21:21:05Z</time>
      </trkpt>
      <trkpt lat="45.7481" lon="6.64882">
        <ele>2179</ele>
        <time>2022-07-16T21:21:07Z</time>
      </trkpt>
      <trkpt lat="45.74811" lon="6.64886">
        <ele>2179</ele>
        <time>2022-07-16T21:21:09Z</time>
      </trkpt>
      <trkpt lat="45.74812" lon="6.64889">
        <ele>2179</ele>
        <time>2022-07-16T21:21:11Z</time>
      </trkpt>
      <trkpt lat="45.74813" lon="6.64892">
        <ele>2179</ele>
        <time>2022-07-16T21:21:13Z</time>
      </trkpt>
      <trkpt lat="45.74814" lon="6.64894">
        <ele>2179</ele>
        <time>2022-07-16T21:21:15Z</time>
      </trkpt>
      <trkpt lat="45.74816" lon="6.64897">
        <ele>2179</ele>
        <time>2022-07-16T21:21:16Z</time>
      </trkpt>
      <trkpt lat="45.74819" lon="6.64899">
        <ele>2179</ele>
        <time>2022-07-16T21:21:19Z</time>
      </trkpt>
      <trkpt lat="45.74821" lon="6.64902">
        <ele>2179</ele>
        <time>2022-07-16T21:21:20Z</time>
      </trkpt>
      <trkpt lat="45.74822" lon="6.64906">
        <ele>2179</ele>
        <time>2022-07-16T21:21:23Z</time>
      </trkpt>
      <trkpt lat="45.74824" lon="6.64908">
        <ele>2179</ele>
        <time>2022-07-16T21:21:25Z</time>
      </trkpt>
      <trkpt lat="45.74826" lon="6.6491">
        <ele>2179</ele>
        <time>2022-07-16T21:21:27Z</time>
      </trkpt>
      <trkpt lat="45.74828" lon="6.64912">
        <ele>2179</ele>
        <time>2022-07-16T21:21:30Z</time>
      </trkpt>
      <trkpt lat="45.74829" lon="6.64914">
        <ele>2179</ele>
        <time>2022-07-16T21:21:31Z</time>
      </trkpt>
      <trkpt lat="45.74831" lon="6.64915">
        <ele>2178</ele>
        <time>2022-07-16T21:21:33Z</time>
      </trkpt>
      <trkpt lat="45.74834" lon="6.64915">
        <ele>2178</ele>
        <time>2022-07-16T21:21:35Z</time>
      </trkpt>
      <trkpt lat="45.74836" lon="6.64915">
        <ele>2178</ele>
        <time>2022-07-16T21:21:38Z</time>
      </trkpt>
      <trkpt lat="45.74839" lon="6.64916">
        <ele>2178</ele>
        <time>2022-07-16T21:21:39Z</time>
      </trkpt>
      <trkpt lat="45.74841" lon="6.64917">
        <ele>2178</ele>
        <time>2022-07-16T21:21:42Z</time>
      </trkpt>
      <trkpt lat="45.74844" lon="6.64919">
        <ele>2178</ele>
        <time>2022-07-16T21:21:43Z</time>
      </trkpt>
      <trkpt lat="45.74846" lon="6.64921">
        <ele>2178</ele>
        <time>2022-07-16T21:21:46Z</time>
      </trkpt>
      <trkpt lat="45.74848" lon="6.64922">
        <ele>2177</ele>
        <time>2022-07-16T21:21:48Z</time>
      </trkpt>
      <trkpt lat="45.74849" lon="6.64924">
        <ele>2176</ele>
        <time>2022-07-16T21:21:49Z</time>
      </trkpt>
      <trkpt lat="45.74851" lon="6.64926">
        <ele>2176</ele>
        <time>2022-07-16T21:21:51Z</time>
      </trkpt>
      <trkpt lat="45.74853" lon="6.64928">
        <ele>2176</ele>
        <time>2022-07-16T21:21:54Z</time>
      </trkpt>
      <trkpt lat="45.74856" lon="6.6493">
        <ele>2176</ele>
        <time>2022-07-16T21:21:55Z</time>
      </trkpt>
      <trkpt lat="45.74858" lon="6.64933">
        <ele>2176</ele>
        <time>2022-07-16T21:21:58Z</time>
      </trkpt>
      <trkpt lat="45.74859" lon="6.64936">
        <ele>2176</ele>
        <time>2022-07-16T21:21:59Z</time>
      </trkpt>
      <trkpt lat="45.74861" lon="6.64938">
        <ele>2176</ele>
        <time>2022-07-16T21:22:01Z</time>
      </trkpt>
      <trkpt lat="45.74864" lon="6.64939">
        <ele>2176</ele>
        <time>2022-07-16T21:22:03Z</time>
      </trkpt>
      <trkpt lat="45.74866" lon="6.64939">
        <ele>2175</ele>
        <time>2022-07-16T21:22:05Z</time>
      </trkpt>
      <trkpt lat="45.74868" lon="6.64941">
        <ele>2174</ele>
        <time>2022-07-16T21:22:08Z</time>
      </trkpt>
      <trkpt lat="45.74869" lon="6.64943">
        <ele>2174</ele>
        <time>2022-07-16T21:22:10Z</time>
      </trkpt>
      <trkpt lat="45.74871" lon="6.64945">
        <ele>2174</ele>
        <time>2022-07-16T21:22:11Z</time>
      </trkpt>
      <trkpt lat="45.74873" lon="6.64946">
        <ele>2174</ele>
        <time>2022-07-16T21:22:13Z</time>
      </trkpt>
      <trkpt lat="45.74875" lon="6.64947">
        <ele>2173</ele>
        <time>2022-07-16T21:22:16Z</time>
      </trkpt>
      <trkpt lat="45.74877" lon="6.64949">
        <ele>2172</ele>
        <time>2022-07-16T21:22:17Z</time>
      </trkpt>
      <trkpt lat="45.74879" lon="6.64949">
        <ele>2172</ele>
        <time>2022-07-16T21:22:19Z</time>
      </trkpt>
      <trkpt lat="45.7488" lon="6.64951">
        <ele>2172</ele>
        <time>2022-07-16T21:22:21Z</time>
      </trkpt>
      <trkpt lat="45.74883" lon="6.64953">
        <ele>2170</ele>
        <time>2022-07-16T21:22:24Z</time>
      </trkpt>
      <trkpt lat="45.74884" lon="6.64954">
        <ele>2170</ele>
        <time>2022-07-16T21:22:26Z</time>
      </trkpt>
      <trkpt lat="45.74886" lon="6.64956">
        <ele>2168</ele>
        <time>2022-07-16T21:22:27Z</time>
      </trkpt>
      <trkpt lat="45.74887" lon="6.64958">
        <ele>2168</ele>
        <time>2022-07-16T21:22:30Z</time>
      </trkpt>
      <trkpt lat="45.7489" lon="6.6496">
        <ele>2168</ele>
        <time>2022-07-16T21:22:31Z</time>
      </trkpt>
      <trkpt lat="45.74891" lon="6.64962">
        <ele>2167</ele>
        <time>2022-07-16T21:22:33Z</time>
      </trkpt>
      <trkpt lat="45.74893" lon="6.64965">
        <ele>2166</ele>
        <time>2022-07-16T21:22:37Z</time>
      </trkpt>
      <trkpt lat="45.74894" lon="6.64967">
        <ele>2165</ele>
        <time>2022-07-16T21:22:39Z</time>
      </trkpt>
      <trkpt lat="45.74896" lon="6.64967">
        <ele>2165</ele>
        <time>2022-07-16T21:22:40Z</time>
      </trkpt>
      <trkpt lat="45.74898" lon="6.64969">
        <ele>2164</ele>
        <time>2022-07-16T21:22:43Z</time>
      </trkpt>
      <trkpt lat="45.74901" lon="6.64972">
        <ele>2164</ele>
        <time>2022-07-16T21:22:45Z</time>
      </trkpt>
      <trkpt lat="45.74903" lon="6.64974">
        <ele>2163</ele>
        <time>2022-07-16T21:22:47Z</time>
      </trkpt>
      <trkpt lat="45.74906" lon="6.64974">
        <ele>2162</ele>
        <time>2022-07-16T21:22:49Z</time>
      </trkpt>
      <trkpt lat="45.74908" lon="6.64975">
        <ele>2162</ele>
        <time>2022-07-16T21:22:51Z</time>
      </trkpt>
      <trkpt lat="45.7491" lon="6.64976">
        <ele>2162</ele>
        <time>2022-07-16T21:22:53Z</time>
      </trkpt>
      <trkpt lat="45.74912" lon="6.64976">
        <ele>2161</ele>
        <time>2022-07-16T21:22:56Z</time>
      </trkpt>
      <trkpt lat="45.74913" lon="6.64978">
        <ele>2160</ele>
        <time>2022-07-16T21:22:58Z</time>
      </trkpt>
      <trkpt lat="45.74914" lon="6.64981">
        <ele>2160</ele>
        <time>2022-07-16T21:23:00Z</time>
      </trkpt>
      <trkpt lat="45.74914" lon="6.64984">
        <ele>2160</ele>
        <time>2022-07-16T21:23:04Z</time>
      </trkpt>
      <trkpt lat="45.74914" lon="6.64986">
        <ele>2159</ele>
        <time>2022-07-16T21:23:06Z</time>
      </trkpt>
      <trkpt lat="45.74916" lon="6.64989">
        <ele>2158</ele>
        <time>2022-07-16T21:23:09Z</time>
      </trkpt>
      <trkpt lat="45.74918" lon="6.64991">
        <ele>2157</ele>
        <time>2022-07-16T21:23:12Z</time>
      </trkpt>
      <trkpt lat="45.7492" lon="6.64993">
        <ele>2157</ele>
        <time>2022-07-16T21:23:13Z</time>
      </trkpt>
      <trkpt lat="45.74921" lon="6.64995">
        <ele>2156</ele>
        <time>2022-07-16T21:23:15Z</time>
      </trkpt>
      <trkpt lat="45.74923" lon="6.64997">
        <ele>2156</ele>
        <time>2022-07-16T21:23:18Z</time>
      </trkpt>
      <trkpt lat="45.74924" lon="6.64999">
        <ele>2155</ele>
        <time>2022-07-16T21:23:20Z</time>
      </trkpt>
      <trkpt lat="45.74926" lon="6.65">
        <ele>2154</ele>
        <time>2022-07-16T21:23:22Z</time>
      </trkpt>
      <trkpt lat="45.74928" lon="6.65002">
        <ele>2153</ele>
        <time>2022-07-16T21:23:25Z</time>
      </trkpt>
      <trkpt lat="45.7493" lon="6.65002">
        <ele>2153</ele>
        <time>2022-07-16T21:23:28Z</time>
      </trkpt>
      <trkpt lat="45.74933" lon="6.65002">
        <ele>2152</ele>
        <time>2022-07-16T21:23:29Z</time>
      </trkpt>
      <trkpt lat="45.74935" lon="6.65003">
        <ele>2152</ele>
        <time>2022-07-16T21:23:31Z</time>
      </trkpt>
      <trkpt lat="45.74938" lon="6.65002">
        <ele>2152</ele>
        <time>2022-07-16T21:23:34Z</time>
      </trkpt>
      <trkpt lat="45.7494" lon="6.65002">
        <ele>2151</ele>
        <time>2022-07-16T21:23:35Z</time>
      </trkpt>
      <trkpt lat="45.7494" lon="6.65005">
        <ele>2150</ele>
        <time>2022-07-16T21:23:38Z</time>
      </trkpt>
      <trkpt lat="45.7494" lon="6.65009">
        <ele>2150</ele>
        <time>2022-07-16T21:23:39Z</time>
      </trkpt>
      <trkpt lat="45.74939" lon="6.65012">
        <ele>2150</ele>
        <time>2022-07-16T21:23:42Z</time>
      </trkpt>
      <trkpt lat="45.74939" lon="6.65015">
        <ele>2149</ele>
        <time>2022-07-16T21:23:44Z</time>
      </trkpt>
      <trkpt lat="45.74939" lon="6.65018">
        <ele>2149</ele>
        <time>2022-07-16T21:23:46Z</time>
      </trkpt>
      <trkpt lat="45.7494" lon="6.65021">
        <ele>2148</ele>
        <time>2022-07-16T21:23:48Z</time>
      </trkpt>
      <trkpt lat="45.74942" lon="6.65023">
        <ele>2148</ele>
        <time>2022-07-16T21:23:50Z</time>
      </trkpt>
      <trkpt lat="45.74943" lon="6.65026">
        <ele>2148</ele>
        <time>2022-07-16T21:23:51Z</time>
      </trkpt>
      <trkpt lat="45.74944" lon="6.65029">
        <ele>2147</ele>
        <time>2022-07-16T21:23:53Z</time>
      </trkpt>
      <trkpt lat="45.74944" lon="6.65032">
        <ele>2147</ele>
        <time>2022-07-16T21:23:56Z</time>
      </trkpt>
      <trkpt lat="45.74946" lon="6.65035">
        <ele>2146</ele>
        <time>2022-07-16T21:23:57Z</time>
      </trkpt>
      <trkpt lat="45.74947" lon="6.65037">
        <ele>2146</ele>
        <time>2022-07-16T21:24:00Z</time>
      </trkpt>
      <trkpt lat="45.74948" lon="6.65039">
        <ele>2145</ele>
        <time>2022-07-16T21:24:02Z</time>
      </trkpt>
      <trkpt lat="45.7495" lon="6.65042">
        <ele>2145</ele>
        <time>2022-07-16T21:24:03Z</time>
      </trkpt>
      <trkpt lat="45.74951" lon="6.65044">
        <ele>2145</ele>
        <time>2022-07-16T21:24:06Z</time>
      </trkpt>
      <trkpt lat="45.74953" lon="6.65046">
        <ele>2144</ele>
        <time>2022-07-16T21:24:08Z</time>
      </trkpt>
      <trkpt lat="45.74954" lon="6.65048">
        <ele>2144</ele>
        <time>2022-07-16T21:24:09Z</time>
      </trkpt>
      <trkpt lat="45.74954" lon="6.65051">
        <ele>2142</ele>
        <time>2022-07-16T21:24:11Z</time>
      </trkpt>
      <trkpt lat="45.74956" lon="6.65054">
        <ele>2141</ele>
        <time>2022-07-16T21:24:15Z</time>
      </trkpt>
      <trkpt lat="45.74958" lon="6.65056">
        <ele>2141</ele>
        <time>2022-07-16T21:24:16Z</time>
      </trkpt>
      <trkpt lat="45.7496" lon="6.65058">
        <ele>2141</ele>
        <time>2022-07-16T21:24:19Z</time>
      </trkpt>
      <trkpt lat="45.74962" lon="6.6506">
        <ele>2140</ele>
        <time>2022-07-16T21:24:20Z</time>
      </trkpt>
      <trkpt lat="45.74964" lon="6.65062">
        <ele>2140</ele>
        <time>2022-07-16T21:24:22Z</time>
      </trkpt>
      <trkpt lat="45.74965" lon="6.65064">
        <ele>2140</ele>
        <time>2022-07-16T21:24:24Z</time>
      </trkpt>
      <trkpt lat="45.74966" lon="6.65066">
        <ele>2139</ele>
        <time>2022-07-16T21:24:26Z</time>
      </trkpt>
      <trkpt lat="45.74968" lon="6.65068">
        <ele>2138</ele>
        <time>2022-07-16T21:24:28Z</time>
      </trkpt>
      <trkpt lat="45.74969" lon="6.6507">
        <ele>2138</ele>
        <time>2022-07-16T21:24:30Z</time>
      </trkpt>
      <trkpt lat="45.74971" lon="6.65072">
        <ele>2137</ele>
        <time>2022-07-16T21:24:32Z</time>
      </trkpt>
      <trkpt lat="45.74972" lon="6.65074">
        <ele>2137</ele>
        <time>2022-07-16T21:24:35Z</time>
      </trkpt>
      <trkpt lat="45.74973" lon="6.65078">
        <ele>2136</ele>
        <time>2022-07-16T21:24:37Z</time>
      </trkpt>
      <trkpt lat="45.74974" lon="6.65081">
        <ele>2134</ele>
        <time>2022-07-16T21:24:40Z</time>
      </trkpt>
      <trkpt lat="45.74974" lon="6.65084">
        <ele>2134</ele>
        <time>2022-07-16T21:24:42Z</time>
      </trkpt>
      <trkpt lat="45.74975" lon="6.65087">
        <ele>2134</ele>
        <time>2022-07-16T21:24:45Z</time>
      </trkpt>
      <trkpt lat="45.74976" lon="6.6509">
        <ele>2133</ele>
        <time>2022-07-16T21:24:48Z</time>
      </trkpt>
      <trkpt lat="45.74977" lon="6.65093">
        <ele>2132</ele>
        <time>2022-07-16T21:24:51Z</time>
      </trkpt>
      <trkpt lat="45.74979" lon="6.65095">
        <ele>2132</ele>
        <time>2022-07-16T21:24:53Z</time>
      </trkpt>
      <trkpt lat="45.74981" lon="6.65097">
        <ele>2132</ele>
        <time>2022-07-16T21:24:57Z</time>
      </trkpt>
      <trkpt lat="45.74982" lon="6.651">
        <ele>2130</ele>
        <time>2022-07-16T21:25:00Z</time>
      </trkpt>
      <trkpt lat="45.74981" lon="6.65103">
        <ele>2130</ele>
        <time>2022-07-16T21:25:02Z</time>
      </trkpt>
      <trkpt lat="45.74981" lon="6.65106">
        <ele>2129</ele>
        <time>2022-07-16T21:25:04Z</time>
      </trkpt>
      <trkpt lat="45.74981" lon="6.6511">
        <ele>2129</ele>
        <time>2022-07-16T21:25:05Z</time>
      </trkpt>
      <trkpt lat="45.74981" lon="6.65113">
        <ele>2129</ele>
        <time>2022-07-16T21:25:08Z</time>
      </trkpt>
      <trkpt lat="45.74982" lon="6.65116">
        <ele>2128</ele>
        <time>2022-07-16T21:25:10Z</time>
      </trkpt>
      <trkpt lat="45.74983" lon="6.65119">
        <ele>2127</ele>
        <time>2022-07-16T21:25:13Z</time>
      </trkpt>
      <trkpt lat="45.74984" lon="6.65121">
        <ele>2127</ele>
        <time>2022-07-16T21:25:14Z</time>
      </trkpt>
      <trkpt lat="45.74986" lon="6.65121">
        <ele>2125</ele>
        <time>2022-07-16T21:25:18Z</time>
      </trkpt>
      <trkpt lat="45.74989" lon="6.6512">
        <ele>2125</ele>
        <time>2022-07-16T21:25:20Z</time>
      </trkpt>
      <trkpt lat="45.7499" lon="6.65122">
        <ele>2124</ele>
        <time>2022-07-16T21:25:24Z</time>
      </trkpt>
      <trkpt lat="45.74992" lon="6.65125">
        <ele>2122</ele>
        <time>2022-07-16T21:25:27Z</time>
      </trkpt>
      <trkpt lat="45.74993" lon="6.65128">
        <ele>2121</ele>
        <time>2022-07-16T21:25:31Z</time>
      </trkpt>
      <trkpt lat="45.74995" lon="6.65129">
        <ele>2121</ele>
        <time>2022-07-16T21:25:33Z</time>
      </trkpt>
      <trkpt lat="45.74997" lon="6.65129">
        <ele>2118</ele>
        <time>2022-07-16T21:25:38Z</time>
      </trkpt>
      <trkpt lat="45.74999" lon="6.65132">
        <ele>2118</ele>
        <time>2022-07-16T21:25:41Z</time>
      </trkpt>
      <trkpt lat="45.75" lon="6.65132">
        <ele>2116</ele>
        <time>2022-07-16T21:25:43Z</time>
      </trkpt>
      <trkpt lat="45.75003" lon="6.65135">
        <ele>2116</ele>
        <time>2022-07-16T21:25:46Z</time>
      </trkpt>
      <trkpt lat="45.75005" lon="6.65136">
        <ele>2114</ele>
        <time>2022-07-16T21:25:50Z</time>
      </trkpt>
      <trkpt lat="45.75006" lon="6.65138">
        <ele>2113</ele>
        <time>2022-07-16T21:25:53Z</time>
      </trkpt>
      <trkpt lat="45.75008" lon="6.65141">
        <ele>2111</ele>
        <time>2022-07-16T21:25:56Z</time>
      </trkpt>
      <trkpt lat="45.75009" lon="6.65143">
        <ele>2111</ele>
        <time>2022-07-16T21:25:57Z</time>
      </trkpt>
      <trkpt lat="45.7501" lon="6.65145">
        <ele>2111</ele>
        <time>2022-07-16T21:25:59Z</time>
      </trkpt>
      <trkpt lat="45.75012" lon="6.65145">
        <ele>2110</ele>
        <time>2022-07-16T21:26:04Z</time>
      </trkpt>
      <trkpt lat="45.75014" lon="6.65143">
        <ele>2109</ele>
        <time>2022-07-16T21:26:06Z</time>
      </trkpt>
      <trkpt lat="45.75016" lon="6.65143">
        <ele>2108</ele>
        <time>2022-07-16T21:26:09Z</time>
      </trkpt>
      <trkpt lat="45.75017" lon="6.65145">
        <ele>2107</ele>
        <time>2022-07-16T21:26:12Z</time>
      </trkpt>
      <trkpt lat="45.75017" lon="6.65148">
        <ele>2106</ele>
        <time>2022-07-16T21:26:14Z</time>
      </trkpt>
      <trkpt lat="45.75017" lon="6.65151">
        <ele>2105</ele>
        <time>2022-07-16T21:26:17Z</time>
      </trkpt>
      <trkpt lat="45.75018" lon="6.65153">
        <ele>2105</ele>
        <time>2022-07-16T21:26:19Z</time>
      </trkpt>
      <trkpt lat="45.75019" lon="6.65156">
        <ele>2104</ele>
        <time>2022-07-16T21:26:23Z</time>
      </trkpt>
      <trkpt lat="45.75021" lon="6.65158">
        <ele>2102</ele>
        <time>2022-07-16T21:26:26Z</time>
      </trkpt>
      <trkpt lat="45.75022" lon="6.6516">
        <ele>2102</ele>
        <time>2022-07-16T21:26:28Z</time>
      </trkpt>
      <trkpt lat="45.75024" lon="6.65162">
        <ele>2101</ele>
        <time>2022-07-16T21:26:31Z</time>
      </trkpt>
      <trkpt lat="45.75025" lon="6.65164">
        <ele>2100</ele>
        <time>2022-07-16T21:26:34Z</time>
      </trkpt>
      <trkpt lat="45.75027" lon="6.65164">
        <ele>2099</ele>
        <time>2022-07-16T21:26:39Z</time>
      </trkpt>
      <trkpt lat="45.75027" lon="6.65164">
        <ele>2098</ele>
        <time>2022-07-16T21:26:49Z</time>
      </trkpt>
      <trkpt lat="45.7503" lon="6.65163">
        <ele>2098</ele>
        <time>2022-07-16T21:26:50Z</time>
      </trkpt>
      <trkpt lat="45.75032" lon="6.65164">
        <ele>2097</ele>
        <time>2022-07-16T21:26:52Z</time>
      </trkpt>
      <trkpt lat="45.75033" lon="6.65166">
        <ele>2097</ele>
        <time>2022-07-16T21:26:54Z</time>
      </trkpt>
      <trkpt lat="45.75035" lon="6.65168">
        <ele>2095</ele>
        <time>2022-07-16T21:26:57Z</time>
      </trkpt>
      <trkpt lat="45.75037" lon="6.65169">
        <ele>2094</ele>
        <time>2022-07-16T21:27:01Z</time>
      </trkpt>
      <trkpt lat="45.75038" lon="6.65171">
        <ele>2094</ele>
        <time>2022-07-16T21:27:04Z</time>
      </trkpt>
      <trkpt lat="45.75039" lon="6.65173">
        <ele>2093</ele>
        <time>2022-07-16T21:27:06Z</time>
      </trkpt>
      <trkpt lat="45.75041" lon="6.65173">
        <ele>2090</ele>
        <time>2022-07-16T21:27:11Z</time>
      </trkpt>
      <trkpt lat="45.75043" lon="6.65174">
        <ele>2089</ele>
        <time>2022-07-16T21:27:15Z</time>
      </trkpt>
      <trkpt lat="45.75045" lon="6.65176">
        <ele>2088</ele>
        <time>2022-07-16T21:27:18Z</time>
      </trkpt>
      <trkpt lat="45.75047" lon="6.65177">
        <ele>2087</ele>
        <time>2022-07-16T21:27:20Z</time>
      </trkpt>
      <trkpt lat="45.75049" lon="6.65179">
        <ele>2086</ele>
        <time>2022-07-16T21:27:22Z</time>
      </trkpt>
      <trkpt lat="45.7505" lon="6.65181">
        <ele>2085</ele>
        <time>2022-07-16T21:27:25Z</time>
      </trkpt>
      <trkpt lat="45.75051" lon="6.6518">
        <ele>2085</ele>
        <time>2022-07-16T21:27:29Z</time>
      </trkpt>
      <trkpt lat="45.75053" lon="6.65182">
        <ele>2084</ele>
        <time>2022-07-16T21:27:30Z</time>
      </trkpt>
      <trkpt lat="45.75054" lon="6.65184">
        <ele>2083</ele>
        <time>2022-07-16T21:27:33Z</time>
      </trkpt>
      <trkpt lat="45.75055" lon="6.65186">
        <ele>2083</ele>
        <time>2022-07-16T21:27:34Z</time>
      </trkpt>
      <trkpt lat="45.75058" lon="6.65188">
        <ele>2082</ele>
        <time>2022-07-16T21:27:38Z</time>
      </trkpt>
      <trkpt lat="45.75059" lon="6.6519">
        <ele>2081</ele>
        <time>2022-07-16T21:27:40Z</time>
      </trkpt>
      <trkpt lat="45.75059" lon="6.65194">
        <ele>2081</ele>
        <time>2022-07-16T21:27:41Z</time>
      </trkpt>
      <trkpt lat="45.7506" lon="6.65196">
        <ele>2080</ele>
        <time>2022-07-16T21:27:44Z</time>
      </trkpt>
      <trkpt lat="45.75061" lon="6.652">
        <ele>2080</ele>
        <time>2022-07-16T21:27:47Z</time>
      </trkpt>
      <trkpt lat="45.75062" lon="6.65203">
        <ele>2079</ele>
        <time>2022-07-16T21:27:49Z</time>
      </trkpt>
      <trkpt lat="45.75063" lon="6.65205">
        <ele>2078</ele>
        <time>2022-07-16T21:27:51Z</time>
      </trkpt>
      <trkpt lat="45.75062" lon="6.65209">
        <ele>2078</ele>
        <time>2022-07-16T21:27:55Z</time>
      </trkpt>
      <trkpt lat="45.75062" lon="6.65212">
        <ele>2077</ele>
        <time>2022-07-16T21:27:59Z</time>
      </trkpt>
      <trkpt lat="45.75064" lon="6.65214">
        <ele>2076</ele>
        <time>2022-07-16T21:28:02Z</time>
      </trkpt>
      <trkpt lat="45.75064" lon="6.65217">
        <ele>2075</ele>
        <time>2022-07-16T21:28:06Z</time>
      </trkpt>
      <trkpt lat="45.75065" lon="6.65219">
        <ele>2075</ele>
        <time>2022-07-16T21:28:09Z</time>
      </trkpt>
      <trkpt lat="45.75066" lon="6.65222">
        <ele>2074</ele>
        <time>2022-07-16T21:28:11Z</time>
      </trkpt>
      <trkpt lat="45.75066" lon="6.65225">
        <ele>2073</ele>
        <time>2022-07-16T21:28:12Z</time>
      </trkpt>
      <trkpt lat="45.75067" lon="6.65228">
        <ele>2072</ele>
        <time>2022-07-16T21:28:16Z</time>
      </trkpt>
      <trkpt lat="45.75067" lon="6.65231">
        <ele>2072</ele>
        <time>2022-07-16T21:28:17Z</time>
      </trkpt>
      <trkpt lat="45.75067" lon="6.65234">
        <ele>2071</ele>
        <time>2022-07-16T21:28:21Z</time>
      </trkpt>
      <trkpt lat="45.75068" lon="6.65237">
        <ele>2071</ele>
        <time>2022-07-16T21:28:24Z</time>
      </trkpt>
      <trkpt lat="45.75069" lon="6.65241">
        <ele>2070</ele>
        <time>2022-07-16T21:28:27Z</time>
      </trkpt>
      <trkpt lat="45.7507" lon="6.65243">
        <ele>2069</ele>
        <time>2022-07-16T21:28:28Z</time>
      </trkpt>
      <trkpt lat="45.7507" lon="6.65246">
        <ele>2068</ele>
        <time>2022-07-16T21:28:31Z</time>
      </trkpt>
      <trkpt lat="45.7507" lon="6.65249">
        <ele>2068</ele>
        <time>2022-07-16T21:28:33Z</time>
      </trkpt>
      <trkpt lat="45.7507" lon="6.65252">
        <ele>2067</ele>
        <time>2022-07-16T21:28:36Z</time>
      </trkpt>
      <trkpt lat="45.75069" lon="6.65256">
        <ele>2067</ele>
        <time>2022-07-16T21:28:38Z</time>
      </trkpt>
      <trkpt lat="45.75068" lon="6.65258">
        <ele>2066</ele>
        <time>2022-07-16T21:28:40Z</time>
      </trkpt>
      <trkpt lat="45.75068" lon="6.65261">
        <ele>2066</ele>
        <time>2022-07-16T21:28:43Z</time>
      </trkpt>
      <trkpt lat="45.75068" lon="6.65264">
        <ele>2066</ele>
        <time>2022-07-16T21:28:45Z</time>
      </trkpt>
      <trkpt lat="45.75067" lon="6.65267">
        <ele>2066</ele>
        <time>2022-07-16T21:28:46Z</time>
      </trkpt>
      <trkpt lat="45.75067" lon="6.65269">
        <ele>2064</ele>
        <time>2022-07-16T21:28:49Z</time>
      </trkpt>
      <trkpt lat="45.75066" lon="6.65272">
        <ele>2064</ele>
        <time>2022-07-16T21:28:50Z</time>
      </trkpt>
      <trkpt lat="45.75066" lon="6.65276">
        <ele>2064</ele>
        <time>2022-07-16T21:28:53Z</time>
      </trkpt>
      <trkpt lat="45.75067" lon="6.65278">
        <ele>2061</ele>
        <time>2022-07-16T21:29:01Z</time>
      </trkpt>
      <trkpt lat="45.75068" lon="6.65281">
        <ele>2061</ele>
        <time>2022-07-16T21:29:04Z</time>
      </trkpt>
      <trkpt lat="45.75069" lon="6.65285">
        <ele>2059</ele>
        <time>2022-07-16T21:29:07Z</time>
      </trkpt>
      <trkpt lat="45.7507" lon="6.65287">
        <ele>2059</ele>
        <time>2022-07-16T21:29:09Z</time>
      </trkpt>
      <trkpt lat="45.7507" lon="6.65291">
        <ele>2058</ele>
        <time>2022-07-16T21:29:12Z</time>
      </trkpt>
      <trkpt lat="45.75071" lon="6.65293">
        <ele>2058</ele>
        <time>2022-07-16T21:29:13Z</time>
      </trkpt>
      <trkpt lat="45.75071" lon="6.65296">
        <ele>2058</ele>
        <time>2022-07-16T21:29:15Z</time>
      </trkpt>
      <trkpt lat="45.75073" lon="6.65299">
        <ele>2057</ele>
        <time>2022-07-16T21:29:20Z</time>
      </trkpt>
      <trkpt lat="45.75074" lon="6.65302">
        <ele>2056</ele>
        <time>2022-07-16T21:29:22Z</time>
      </trkpt>
      <trkpt lat="45.75074" lon="6.65305">
        <ele>2055</ele>
        <time>2022-07-16T21:29:25Z</time>
      </trkpt>
      <trkpt lat="45.75075" lon="6.65308">
        <ele>2055</ele>
        <time>2022-07-16T21:29:29Z</time>
      </trkpt>
      <trkpt lat="45.75076" lon="6.65311">
        <ele>2054</ele>
        <time>2022-07-16T21:29:31Z</time>
      </trkpt>
      <trkpt lat="45.75077" lon="6.65314">
        <ele>2053</ele>
        <time>2022-07-16T21:29:33Z</time>
      </trkpt>
      <trkpt lat="45.75077" lon="6.65317">
        <ele>2053</ele>
        <time>2022-07-16T21:29:35Z</time>
      </trkpt>
      <trkpt lat="45.75077" lon="6.6532">
        <ele>2052</ele>
        <time>2022-07-16T21:29:37Z</time>
      </trkpt>
      <trkpt lat="45.75078" lon="6.65322">
        <ele>2051</ele>
        <time>2022-07-16T21:29:39Z</time>
      </trkpt>
      <trkpt lat="45.75079" lon="6.65325">
        <ele>2051</ele>
        <time>2022-07-16T21:29:40Z</time>
      </trkpt>
      <trkpt lat="45.7508" lon="6.65328">
        <ele>2050</ele>
        <time>2022-07-16T21:29:42Z</time>
      </trkpt>
      <trkpt lat="45.7508" lon="6.65331">
        <ele>2050</ele>
        <time>2022-07-16T21:29:44Z</time>
      </trkpt>
      <trkpt lat="45.75079" lon="6.65335">
        <ele>2049</ele>
        <time>2022-07-16T21:29:47Z</time>
      </trkpt>
      <trkpt lat="45.75079" lon="6.65338">
        <ele>2049</ele>
        <time>2022-07-16T21:29:49Z</time>
      </trkpt>
      <trkpt lat="45.75079" lon="6.65342">
        <ele>2049</ele>
        <time>2022-07-16T21:29:50Z</time>
      </trkpt>
      <trkpt lat="45.7508" lon="6.65345">
        <ele>2049</ele>
        <time>2022-07-16T21:29:52Z</time>
      </trkpt>
      <trkpt lat="45.7508" lon="6.65348">
        <ele>2047</ele>
        <time>2022-07-16T21:29:55Z</time>
      </trkpt>
      <trkpt lat="45.75081" lon="6.65351">
        <ele>2047</ele>
        <time>2022-07-16T21:29:57Z</time>
      </trkpt>
      <trkpt lat="45.75083" lon="6.65352">
        <ele>2046</ele>
        <time>2022-07-16T21:30:02Z</time>
      </trkpt>
      <trkpt lat="45.75085" lon="6.65355">
        <ele>2043</ele>
        <time>2022-07-16T21:30:06Z</time>
      </trkpt>
      <trkpt lat="45.75087" lon="6.65356">
        <ele>2043</ele>
        <time>2022-07-16T21:30:11Z</time>
      </trkpt>
      <trkpt lat="45.75088" lon="6.65357">
        <ele>2042</ele>
        <time>2022-07-16T21:30:12Z</time>
      </trkpt>
      <trkpt lat="45.7509" lon="6.65359">
        <ele>2041</ele>
        <time>2022-07-16T21:30:15Z</time>
      </trkpt>
      <trkpt lat="45.75092" lon="6.65361">
        <ele>2040</ele>
        <time>2022-07-16T21:30:18Z</time>
      </trkpt>
      <trkpt lat="45.75092" lon="6.65364">
        <ele>2040</ele>
        <time>2022-07-16T21:30:20Z</time>
      </trkpt>
      <trkpt lat="45.75093" lon="6.65366">
        <ele>2038</ele>
        <time>2022-07-16T21:30:21Z</time>
      </trkpt>
      <trkpt lat="45.75094" lon="6.6537">
        <ele>2037</ele>
        <time>2022-07-16T21:30:24Z</time>
      </trkpt>
      <trkpt lat="45.75094" lon="6.65373">
        <ele>2037</ele>
        <time>2022-07-16T21:30:25Z</time>
      </trkpt>
      <trkpt lat="45.75094" lon="6.65377">
        <ele>2036</ele>
        <time>2022-07-16T21:30:28Z</time>
      </trkpt>
      <trkpt lat="45.75095" lon="6.6538">
        <ele>2036</ele>
        <time>2022-07-16T21:30:30Z</time>
      </trkpt>
      <trkpt lat="45.75095" lon="6.65383">
        <ele>2036</ele>
        <time>2022-07-16T21:30:32Z</time>
      </trkpt>
      <trkpt lat="45.75096" lon="6.65385">
        <ele>2035</ele>
        <time>2022-07-16T21:30:35Z</time>
      </trkpt>
      <trkpt lat="45.75097" lon="6.65388">
        <ele>2034</ele>
        <time>2022-07-16T21:30:37Z</time>
      </trkpt>
      <trkpt lat="45.75099" lon="6.6539">
        <ele>2034</ele>
        <time>2022-07-16T21:30:39Z</time>
      </trkpt>
      <trkpt lat="45.751" lon="6.65393">
        <ele>2034</ele>
        <time>2022-07-16T21:30:40Z</time>
      </trkpt>
      <trkpt lat="45.751" lon="6.65396">
        <ele>2033</ele>
        <time>2022-07-16T21:30:42Z</time>
      </trkpt>
      <trkpt lat="45.75101" lon="6.65399">
        <ele>2032</ele>
        <time>2022-07-16T21:30:44Z</time>
      </trkpt>
      <trkpt lat="45.75102" lon="6.65402">
        <ele>2031</ele>
        <time>2022-07-16T21:30:47Z</time>
      </trkpt>
      <trkpt lat="45.75103" lon="6.65405">
        <ele>2031</ele>
        <time>2022-07-16T21:30:48Z</time>
      </trkpt>
      <trkpt lat="45.75104" lon="6.65407">
        <ele>2031</ele>
        <time>2022-07-16T21:30:50Z</time>
      </trkpt>
      <trkpt lat="45.75105" lon="6.6541">
        <ele>2030</ele>
        <time>2022-07-16T21:30:53Z</time>
      </trkpt>
      <trkpt lat="45.75106" lon="6.65413">
        <ele>2030</ele>
        <time>2022-07-16T21:30:54Z</time>
      </trkpt>
      <trkpt lat="45.75107" lon="6.65416">
        <ele>2030</ele>
        <time>2022-07-16T21:30:58Z</time>
      </trkpt>
      <trkpt lat="45.75108" lon="6.65419">
        <ele>2029</ele>
        <time>2022-07-16T21:31:00Z</time>
      </trkpt>
      <trkpt lat="45.7511" lon="6.65421">
        <ele>2029</ele>
        <time>2022-07-16T21:31:03Z</time>
      </trkpt>
      <trkpt lat="45.75111" lon="6.65424">
        <ele>2028</ele>
        <time>2022-07-16T21:31:08Z</time>
      </trkpt>
      <trkpt lat="45.75113" lon="6.65426">
        <ele>2027</ele>
        <time>2022-07-16T21:31:10Z</time>
      </trkpt>
      <trkpt lat="45.75114" lon="6.65429">
        <ele>2025</ele>
        <time>2022-07-16T21:31:14Z</time>
      </trkpt>
      <trkpt lat="45.75116" lon="6.65431">
        <ele>2025</ele>
        <time>2022-07-16T21:31:15Z</time>
      </trkpt>
      <trkpt lat="45.75117" lon="6.65433">
        <ele>2024</ele>
        <time>2022-07-16T21:31:18Z</time>
      </trkpt>
      <trkpt lat="45.75118" lon="6.65436">
        <ele>2023</ele>
        <time>2022-07-16T21:31:20Z</time>
      </trkpt>
      <trkpt lat="45.75119" lon="6.65438">
        <ele>2023</ele>
        <time>2022-07-16T21:31:22Z</time>
      </trkpt>
      <trkpt lat="45.75121" lon="6.65439">
        <ele>2022</ele>
        <time>2022-07-16T21:31:25Z</time>
      </trkpt>
      <trkpt lat="45.75124" lon="6.65439">
        <ele>2021</ele>
        <time>2022-07-16T21:31:28Z</time>
      </trkpt>
      <trkpt lat="45.75125" lon="6.65441">
        <ele>2021</ele>
        <time>2022-07-16T21:31:30Z</time>
      </trkpt>
      <trkpt lat="45.75127" lon="6.65442">
        <ele>2020</ele>
        <time>2022-07-16T21:31:32Z</time>
      </trkpt>
      <trkpt lat="45.7513" lon="6.6544">
        <ele>2020</ele>
        <time>2022-07-16T21:31:36Z</time>
      </trkpt>
      <trkpt lat="45.75131" lon="6.6544">
        <ele>2020</ele>
        <time>2022-07-16T21:31:37Z</time>
      </trkpt>
      <trkpt lat="45.75134" lon="6.65439">
        <ele>2019</ele>
        <time>2022-07-16T21:31:39Z</time>
      </trkpt>
      <trkpt lat="45.75136" lon="6.65441">
        <ele>2018</ele>
        <time>2022-07-16T21:31:41Z</time>
      </trkpt>
      <trkpt lat="45.75137" lon="6.65443">
        <ele>2018</ele>
        <time>2022-07-16T21:31:43Z</time>
      </trkpt>
      <trkpt lat="45.75137" lon="6.65446">
        <ele>2018</ele>
        <time>2022-07-16T21:31:46Z</time>
      </trkpt>
      <trkpt lat="45.75137" lon="6.65448">
        <ele>2017</ele>
        <time>2022-07-16T21:31:48Z</time>
      </trkpt>
      <trkpt lat="45.75138" lon="6.65451">
        <ele>2017</ele>
        <time>2022-07-16T21:31:51Z</time>
      </trkpt>
      <trkpt lat="45.75138" lon="6.65454">
        <ele>2017</ele>
        <time>2022-07-16T21:31:52Z</time>
      </trkpt>
      <trkpt lat="45.75138" lon="6.65457">
        <ele>2017</ele>
        <time>2022-07-16T21:31:55Z</time>
      </trkpt>
      <trkpt lat="45.75138" lon="6.65461">
        <ele>2017</ele>
        <time>2022-07-16T21:31:57Z</time>
      </trkpt>
      <trkpt lat="45.75139" lon="6.65465">
        <ele>2017</ele>
        <time>2022-07-16T21:31:58Z</time>
      </trkpt>
      <trkpt lat="45.7514" lon="6.65468">
        <ele>2017</ele>
        <time>2022-07-16T21:32:00Z</time>
      </trkpt>
      <trkpt lat="45.7514" lon="6.65471">
        <ele>2017</ele>
        <time>2022-07-16T21:32:03Z</time>
      </trkpt>
      <trkpt lat="45.75142" lon="6.65472">
        <ele>2017</ele>
        <time>2022-07-16T21:32:10Z</time>
      </trkpt>
      <trkpt lat="45.75142" lon="6.65475">
        <ele>2016</ele>
        <time>2022-07-16T21:32:13Z</time>
      </trkpt>
      <trkpt lat="45.75141" lon="6.65478">
        <ele>2016</ele>
        <time>2022-07-16T21:32:15Z</time>
      </trkpt>
      <trkpt lat="45.75139" lon="6.65479">
        <ele>2016</ele>
        <time>2022-07-16T21:32:19Z</time>
      </trkpt>
      <trkpt lat="45.75139" lon="6.65482">
        <ele>2016</ele>
        <time>2022-07-16T21:32:21Z</time>
      </trkpt>
      <trkpt lat="45.75139" lon="6.65486">
        <ele>2016</ele>
        <time>2022-07-16T21:32:24Z</time>
      </trkpt>
      <trkpt lat="45.7514" lon="6.65488">
        <ele>2016</ele>
        <time>2022-07-16T21:32:27Z</time>
      </trkpt>
      <trkpt lat="45.75141" lon="6.65491">
        <ele>2016</ele>
        <time>2022-07-16T21:32:28Z</time>
      </trkpt>
      <trkpt lat="45.75142" lon="6.65493">
        <ele>2016</ele>
        <time>2022-07-16T21:32:31Z</time>
      </trkpt>
      <trkpt lat="45.75144" lon="6.65496">
        <ele>2016</ele>
        <time>2022-07-16T21:32:33Z</time>
      </trkpt>
      <trkpt lat="45.75145" lon="6.65498">
        <ele>2016</ele>
        <time>2022-07-16T21:32:34Z</time>
      </trkpt>
      <trkpt lat="45.75146" lon="6.65501">
        <ele>2016</ele>
        <time>2022-07-16T21:32:36Z</time>
      </trkpt>
      <trkpt lat="45.75147" lon="6.65504">
        <ele>2016</ele>
        <time>2022-07-16T21:32:39Z</time>
      </trkpt>
      <trkpt lat="45.75147" lon="6.65508">
        <ele>2016</ele>
        <time>2022-07-16T21:32:40Z</time>
      </trkpt>
      <trkpt lat="45.75148" lon="6.6551">
        <ele>2017</ele>
        <time>2022-07-16T21:32:43Z</time>
      </trkpt>
      <trkpt lat="45.75149" lon="6.65513">
        <ele>2017</ele>
        <time>2022-07-16T21:32:44Z</time>
      </trkpt>
      <trkpt lat="45.7515" lon="6.65516">
        <ele>2017</ele>
        <time>2022-07-16T21:32:47Z</time>
      </trkpt>
      <trkpt lat="45.75151" lon="6.65519">
        <ele>2017</ele>
        <time>2022-07-16T21:32:50Z</time>
      </trkpt>
      <trkpt lat="45.75152" lon="6.65522">
        <ele>2017</ele>
        <time>2022-07-16T21:32:53Z</time>
      </trkpt>
      <trkpt lat="45.75153" lon="6.65525">
        <ele>2017</ele>
        <time>2022-07-16T21:32:55Z</time>
      </trkpt>
      <trkpt lat="45.75154" lon="6.65528">
        <ele>2017</ele>
        <time>2022-07-16T21:32:58Z</time>
      </trkpt>
      <trkpt lat="45.75155" lon="6.6553">
        <ele>2018</ele>
        <time>2022-07-16T21:33:00Z</time>
      </trkpt>
      <trkpt lat="45.75156" lon="6.65533">
        <ele>2018</ele>
        <time>2022-07-16T21:33:01Z</time>
      </trkpt>
      <trkpt lat="45.75157" lon="6.65535">
        <ele>2018</ele>
        <time>2022-07-16T21:33:04Z</time>
      </trkpt>
      <trkpt lat="45.75158" lon="6.65537">
        <ele>2018</ele>
        <time>2022-07-16T21:33:05Z</time>
      </trkpt>
      <trkpt lat="45.75159" lon="6.6554">
        <ele>2018</ele>
        <time>2022-07-16T21:33:08Z</time>
      </trkpt>
      <trkpt lat="45.75161" lon="6.65543">
        <ele>2019</ele>
        <time>2022-07-16T21:33:11Z</time>
      </trkpt>
      <trkpt lat="45.75162" lon="6.65545">
        <ele>2019</ele>
        <time>2022-07-16T21:33:13Z</time>
      </trkpt>
      <trkpt lat="45.75163" lon="6.65549">
        <ele>2020</ele>
        <time>2022-07-16T21:33:17Z</time>
      </trkpt>
      <trkpt lat="45.75164" lon="6.65551">
        <ele>2020</ele>
        <time>2022-07-16T21:33:20Z</time>
      </trkpt>
      <trkpt lat="45.75165" lon="6.65554">
        <ele>2020</ele>
        <time>2022-07-16T21:33:22Z</time>
      </trkpt>
      <trkpt lat="45.75165" lon="6.65556">
        <ele>2021</ele>
        <time>2022-07-16T21:33:25Z</time>
      </trkpt>
      <trkpt lat="45.75167" lon="6.65559">
        <ele>2022</ele>
        <time>2022-07-16T21:33:29Z</time>
      </trkpt>
      <trkpt lat="45.75168" lon="6.65562">
        <ele>2023</ele>
        <time>2022-07-16T21:33:33Z</time>
      </trkpt>
      <trkpt lat="45.7517" lon="6.65564">
        <ele>2023</ele>
        <time>2022-07-16T21:33:35Z</time>
      </trkpt>
      <trkpt lat="45.75171" lon="6.65567">
        <ele>2023</ele>
        <time>2022-07-16T21:33:38Z</time>
      </trkpt>
      <trkpt lat="45.75172" lon="6.6557">
        <ele>2023</ele>
        <time>2022-07-16T21:33:40Z</time>
      </trkpt>
      <trkpt lat="45.75173" lon="6.65572">
        <ele>2023</ele>
        <time>2022-07-16T21:33:44Z</time>
      </trkpt>
      <trkpt lat="45.75174" lon="6.65575">
        <ele>2023</ele>
        <time>2022-07-16T21:33:45Z</time>
      </trkpt>
      <trkpt lat="45.75175" lon="6.65577">
        <ele>2023</ele>
        <time>2022-07-16T21:33:47Z</time>
      </trkpt>
      <trkpt lat="45.75175" lon="6.6558">
        <ele>2023</ele>
        <time>2022-07-16T21:33:50Z</time>
      </trkpt>
      <trkpt lat="45.75176" lon="6.65583">
        <ele>2023</ele>
        <time>2022-07-16T21:33:52Z</time>
      </trkpt>
      <trkpt lat="45.75176" lon="6.65585">
        <ele>2023</ele>
        <time>2022-07-16T21:33:53Z</time>
      </trkpt>
      <trkpt lat="45.75177" lon="6.65588">
        <ele>2024</ele>
        <time>2022-07-16T21:33:55Z</time>
      </trkpt>
      <trkpt lat="45.75177" lon="6.65592">
        <ele>2024</ele>
        <time>2022-07-16T21:33:58Z</time>
      </trkpt>
      <trkpt lat="45.75177" lon="6.65594">
        <ele>2025</ele>
        <time>2022-07-16T21:34:00Z</time>
      </trkpt>
      <trkpt lat="45.75178" lon="6.65597">
        <ele>2025</ele>
        <time>2022-07-16T21:34:02Z</time>
      </trkpt>
      <trkpt lat="45.75178" lon="6.656">
        <ele>2026</ele>
        <time>2022-07-16T21:34:04Z</time>
      </trkpt>
      <trkpt lat="45.75178" lon="6.65603">
        <ele>2026</ele>
        <time>2022-07-16T21:34:07Z</time>
      </trkpt>
      <trkpt lat="45.75178" lon="6.65606">
        <ele>2027</ele>
        <time>2022-07-16T21:34:09Z</time>
      </trkpt>
      <trkpt lat="45.75178" lon="6.65608">
        <ele>2027</ele>
        <time>2022-07-16T21:34:14Z</time>
      </trkpt>
      <trkpt lat="45.75178" lon="6.65612">
        <ele>2028</ele>
        <time>2022-07-16T21:34:19Z</time>
      </trkpt>
      <trkpt lat="45.75177" lon="6.65615">
        <ele>2029</ele>
        <time>2022-07-16T21:34:22Z</time>
      </trkpt>
      <trkpt lat="45.75178" lon="6.65618">
        <ele>2029</ele>
        <time>2022-07-16T21:34:24Z</time>
      </trkpt>
      <trkpt lat="45.75177" lon="6.65621">
        <ele>2030</ele>
        <time>2022-07-16T21:34:27Z</time>
      </trkpt>
      <trkpt lat="45.75177" lon="6.65623">
        <ele>2031</ele>
        <time>2022-07-16T21:34:32Z</time>
      </trkpt>
      <trkpt lat="45.75179" lon="6.65625">
        <ele>2031</ele>
        <time>2022-07-16T21:34:34Z</time>
      </trkpt>
      <trkpt lat="45.7518" lon="6.65627">
        <ele>2032</ele>
        <time>2022-07-16T21:34:38Z</time>
      </trkpt>
      <trkpt lat="45.7518" lon="6.6563">
        <ele>2032</ele>
        <time>2022-07-16T21:34:41Z</time>
      </trkpt>
      <trkpt lat="45.75179" lon="6.65632">
        <ele>2032</ele>
        <time>2022-07-16T21:34:44Z</time>
      </trkpt>
      <trkpt lat="45.75177" lon="6.65634">
        <ele>2033</ele>
        <time>2022-07-16T21:34:47Z</time>
      </trkpt>
      <trkpt lat="45.75177" lon="6.65637">
        <ele>2033</ele>
        <time>2022-07-16T21:34:52Z</time>
      </trkpt>
      <trkpt lat="45.75177" lon="6.6564">
        <ele>2033</ele>
        <time>2022-07-16T21:34:54Z</time>
      </trkpt>
      <trkpt lat="45.75177" lon="6.65644">
        <ele>2034</ele>
        <time>2022-07-16T21:35:00Z</time>
      </trkpt>
      <trkpt lat="45.75178" lon="6.65646">
        <ele>2034</ele>
        <time>2022-07-16T21:35:04Z</time>
      </trkpt>
      <trkpt lat="45.75178" lon="6.65646">
        <ele>2035</ele>
        <time>2022-07-16T21:35:10Z</time>
      </trkpt>
      <trkpt lat="45.75179" lon="6.65649">
        <ele>2035</ele>
        <time>2022-07-16T21:35:16Z</time>
      </trkpt>
      <trkpt lat="45.75179" lon="6.65652">
        <ele>2035</ele>
        <time>2022-07-16T21:35:20Z</time>
      </trkpt>
      <trkpt lat="45.75179" lon="6.65655">
        <ele>2034</ele>
        <time>2022-07-16T21:35:24Z</time>
      </trkpt>
      <trkpt lat="45.7518" lon="6.65658">
        <ele>2034</ele>
        <time>2022-07-16T21:35:26Z</time>
      </trkpt>
      <trkpt lat="45.75182" lon="6.6566">
        <ele>2034</ele>
        <time>2022-07-16T21:35:29Z</time>
      </trkpt>
      <trkpt lat="45.75184" lon="6.65662">
        <ele>2034</ele>
        <time>2022-07-16T21:35:32Z</time>
      </trkpt>
      <trkpt lat="45.75186" lon="6.65661">
        <ele>2034</ele>
        <time>2022-07-16T21:35:39Z</time>
      </trkpt>
      <trkpt lat="45.75187" lon="6.65662">
        <ele>2034</ele>
        <time>2022-07-16T21:35:43Z</time>
      </trkpt>
      <trkpt lat="45.7519" lon="6.65662">
        <ele>2034</ele>
        <time>2022-07-16T21:35:45Z</time>
      </trkpt>
      <trkpt lat="45.75192" lon="6.65661">
        <ele>2035</ele>
        <time>2022-07-16T21:35:50Z</time>
      </trkpt>
      <trkpt lat="45.75194" lon="6.65662">
        <ele>2035</ele>
        <time>2022-07-16T21:35:52Z</time>
      </trkpt>
      <trkpt lat="45.75195" lon="6.65663">
        <ele>2035</ele>
        <time>2022-07-16T21:35:56Z</time>
      </trkpt>
      <trkpt lat="45.75197" lon="6.65664">
        <ele>2036</ele>
        <time>2022-07-16T21:35:59Z</time>
      </trkpt>
      <trkpt lat="45.75199" lon="6.65665">
        <ele>2036</ele>
        <time>2022-07-16T21:36:02Z</time>
      </trkpt>
      <trkpt lat="45.75201" lon="6.65666">
        <ele>2037</ele>
        <time>2022-07-16T21:36:04Z</time>
      </trkpt>
      <trkpt lat="45.75203" lon="6.65667">
        <ele>2037</ele>
        <time>2022-07-16T21:36:07Z</time>
      </trkpt>
      <trkpt lat="45.75205" lon="6.65668">
        <ele>2037</ele>
        <time>2022-07-16T21:36:10Z</time>
      </trkpt>
      <trkpt lat="45.75207" lon="6.6567">
        <ele>2038</ele>
        <time>2022-07-16T21:36:12Z</time>
      </trkpt>
      <trkpt lat="45.75208" lon="6.65673">
        <ele>2038</ele>
        <time>2022-07-16T21:36:16Z</time>
      </trkpt>
      <trkpt lat="45.7521" lon="6.65676">
        <ele>2040</ele>
        <time>2022-07-16T21:36:20Z</time>
      </trkpt>
      <trkpt lat="45.75211" lon="6.65679">
        <ele>2040</ele>
        <time>2022-07-16T21:36:23Z</time>
      </trkpt>
      <trkpt lat="45.75213" lon="6.65681">
        <ele>2041</ele>
        <time>2022-07-16T21:36:26Z</time>
      </trkpt>
      <trkpt lat="45.75215" lon="6.65684">
        <ele>2041</ele>
        <time>2022-07-16T21:36:29Z</time>
      </trkpt>
      <trkpt lat="45.75215" lon="6.65686">
        <ele>2042</ele>
        <time>2022-07-16T21:36:31Z</time>
      </trkpt>
      <trkpt lat="45.75217" lon="6.65689">
        <ele>2042</ele>
        <time>2022-07-16T21:36:33Z</time>
      </trkpt>
      <trkpt lat="45.75218" lon="6.65691">
        <ele>2043</ele>
        <time>2022-07-16T21:36:37Z</time>
      </trkpt>
      <trkpt lat="45.7522" lon="6.65693">
        <ele>2043</ele>
        <time>2022-07-16T21:36:41Z</time>
      </trkpt>
      <trkpt lat="45.75221" lon="6.65695">
        <ele>2044</ele>
        <time>2022-07-16T21:36:44Z</time>
      </trkpt>
      <trkpt lat="45.75222" lon="6.65698">
        <ele>2045</ele>
        <time>2022-07-16T21:36:48Z</time>
      </trkpt>
      <trkpt lat="45.75223" lon="6.657">
        <ele>2045</ele>
        <time>2022-07-16T21:36:59Z</time>
      </trkpt>
      <trkpt lat="45.75225" lon="6.65703">
        <ele>2046</ele>
        <time>2022-07-16T21:37:01Z</time>
      </trkpt>
      <trkpt lat="45.75226" lon="6.65706">
        <ele>2046</ele>
        <time>2022-07-16T21:37:04Z</time>
      </trkpt>
      <trkpt lat="45.75227" lon="6.65709">
        <ele>2046</ele>
        <time>2022-07-16T21:37:07Z</time>
      </trkpt>
      <trkpt lat="45.75228" lon="6.65711">
        <ele>2047</ele>
        <time>2022-07-16T21:37:09Z</time>
      </trkpt>
      <trkpt lat="45.75229" lon="6.65713">
        <ele>2047</ele>
        <time>2022-07-16T21:37:12Z</time>
      </trkpt>
      <trkpt lat="45.7523" lon="6.65716">
        <ele>2047</ele>
        <time>2022-07-16T21:37:14Z</time>
      </trkpt>
      <trkpt lat="45.75231" lon="6.65719">
        <ele>2048</ele>
        <time>2022-07-16T21:37:16Z</time>
      </trkpt>
      <trkpt lat="45.75232" lon="6.65721">
        <ele>2048</ele>
        <time>2022-07-16T21:37:18Z</time>
      </trkpt>
      <trkpt lat="45.75233" lon="6.65724">
        <ele>2048</ele>
        <time>2022-07-16T21:37:20Z</time>
      </trkpt>
      <trkpt lat="45.75235" lon="6.65727">
        <ele>2048</ele>
        <time>2022-07-16T21:37:22Z</time>
      </trkpt>
      <trkpt lat="45.75236" lon="6.65729">
        <ele>2048</ele>
        <time>2022-07-16T21:37:23Z</time>
      </trkpt>
      <trkpt lat="45.75237" lon="6.65731">
        <ele>2048</ele>
        <time>2022-07-16T21:37:25Z</time>
      </trkpt>
      <trkpt lat="45.75238" lon="6.65733">
        <ele>2049</ele>
        <time>2022-07-16T21:37:28Z</time>
      </trkpt>
      <trkpt lat="45.75239" lon="6.65735">
        <ele>2049</ele>
        <time>2022-07-16T21:37:30Z</time>
      </trkpt>
      <trkpt lat="45.75241" lon="6.65738">
        <ele>2050</ele>
        <time>2022-07-16T21:37:34Z</time>
      </trkpt>
      <trkpt lat="45.75242" lon="6.65742">
        <ele>2050</ele>
        <time>2022-07-16T21:37:37Z</time>
      </trkpt>
      <trkpt lat="45.75243" lon="6.65745">
        <ele>2051</ele>
        <time>2022-07-16T21:37:40Z</time>
      </trkpt>
      <trkpt lat="45.75245" lon="6.65747">
        <ele>2051</ele>
        <time>2022-07-16T21:37:42Z</time>
      </trkpt>
      <trkpt lat="45.75247" lon="6.6575">
        <ele>2051</ele>
        <time>2022-07-16T21:37:46Z</time>
      </trkpt>
      <trkpt lat="45.75249" lon="6.65753">
        <ele>2052</ele>
        <time>2022-07-16T21:37:49Z</time>
      </trkpt>
      <trkpt lat="45.75249" lon="6.65756">
        <ele>2052</ele>
        <time>2022-07-16T21:37:51Z</time>
      </trkpt>
      <trkpt lat="45.75249" lon="6.65759">
        <ele>2052</ele>
        <time>2022-07-16T21:37:52Z</time>
      </trkpt>
      <trkpt lat="45.75249" lon="6.65762">
        <ele>2052</ele>
        <time>2022-07-16T21:37:54Z</time>
      </trkpt>
      <trkpt lat="45.7525" lon="6.65764">
        <ele>2052</ele>
        <time>2022-07-16T21:37:57Z</time>
      </trkpt>
      <trkpt lat="45.75251" lon="6.65767">
        <ele>2052</ele>
        <time>2022-07-16T21:37:58Z</time>
      </trkpt>
      <trkpt lat="45.75253" lon="6.65769">
        <ele>2052</ele>
        <time>2022-07-16T21:38:01Z</time>
      </trkpt>
      <trkpt lat="45.75254" lon="6.65771">
        <ele>2053</ele>
        <time>2022-07-16T21:38:02Z</time>
      </trkpt>
      <trkpt lat="45.75256" lon="6.65774">
        <ele>2053</ele>
        <time>2022-07-16T21:38:04Z</time>
      </trkpt>
      <trkpt lat="45.75257" lon="6.65776">
        <ele>2053</ele>
        <time>2022-07-16T21:38:06Z</time>
      </trkpt>
      <trkpt lat="45.75259" lon="6.65777">
        <ele>2053</ele>
        <time>2022-07-16T21:38:08Z</time>
      </trkpt>
      <trkpt lat="45.7526" lon="6.65779">
        <ele>2053</ele>
        <time>2022-07-16T21:38:11Z</time>
      </trkpt>
      <trkpt lat="45.75262" lon="6.65781">
        <ele>2053</ele>
        <time>2022-07-16T21:38:13Z</time>
      </trkpt>
      <trkpt lat="45.75264" lon="6.65783">
        <ele>2054</ele>
        <time>2022-07-16T21:38:15Z</time>
      </trkpt>
      <trkpt lat="45.75266" lon="6.65784">
        <ele>2055</ele>
        <time>2022-07-16T21:38:17Z</time>
      </trkpt>
      <trkpt lat="45.75268" lon="6.65786">
        <ele>2055</ele>
        <time>2022-07-16T21:38:19Z</time>
      </trkpt>
      <trkpt lat="45.7527" lon="6.65789">
        <ele>2055</ele>
        <time>2022-07-16T21:38:23Z</time>
      </trkpt>
      <trkpt lat="45.75271" lon="6.65791">
        <ele>2055</ele>
        <time>2022-07-16T21:38:25Z</time>
      </trkpt>
      <trkpt lat="45.75273" lon="6.65794">
        <ele>2055</ele>
        <time>2022-07-16T21:38:28Z</time>
      </trkpt>
      <trkpt lat="45.75275" lon="6.65797">
        <ele>2056</ele>
        <time>2022-07-16T21:38:30Z</time>
      </trkpt>
      <trkpt lat="45.75277" lon="6.65799">
        <ele>2057</ele>
        <time>2022-07-16T21:38:33Z</time>
      </trkpt>
      <trkpt lat="45.75278" lon="6.65801">
        <ele>2057</ele>
        <time>2022-07-16T21:38:35Z</time>
      </trkpt>
      <trkpt lat="45.75281" lon="6.65802">
        <ele>2058</ele>
        <time>2022-07-16T21:38:39Z</time>
      </trkpt>
      <trkpt lat="45.75283" lon="6.65804">
        <ele>2058</ele>
        <time>2022-07-16T21:38:42Z</time>
      </trkpt>
      <trkpt lat="45.75285" lon="6.65804">
        <ele>2059</ele>
        <time>2022-07-16T21:38:44Z</time>
      </trkpt>
      <trkpt lat="45.75287" lon="6.65805">
        <ele>2059</ele>
        <time>2022-07-16T21:38:47Z</time>
      </trkpt>
      <trkpt lat="45.75289" lon="6.65805">
        <ele>2060</ele>
        <time>2022-07-16T21:38:51Z</time>
      </trkpt>
      <trkpt lat="45.75291" lon="6.65805">
        <ele>2060</ele>
        <time>2022-07-16T21:38:53Z</time>
      </trkpt>
      <trkpt lat="45.75294" lon="6.65805">
        <ele>2061</ele>
        <time>2022-07-16T21:38:56Z</time>
      </trkpt>
      <trkpt lat="45.75296" lon="6.65806">
        <ele>2062</ele>
        <time>2022-07-16T21:39:00Z</time>
      </trkpt>
      <trkpt lat="45.75298" lon="6.65807">
        <ele>2062</ele>
        <time>2022-07-16T21:39:01Z</time>
      </trkpt>
      <trkpt lat="45.75301" lon="6.65808">
        <ele>2062</ele>
        <time>2022-07-16T21:39:05Z</time>
      </trkpt>
      <trkpt lat="45.75303" lon="6.65809">
        <ele>2062</ele>
        <time>2022-07-16T21:39:06Z</time>
      </trkpt>
      <trkpt lat="45.75305" lon="6.65809">
        <ele>2062</ele>
        <time>2022-07-16T21:39:09Z</time>
      </trkpt>
      <trkpt lat="45.75307" lon="6.65811">
        <ele>2063</ele>
        <time>2022-07-16T21:39:11Z</time>
      </trkpt>
      <trkpt lat="45.75309" lon="6.65813">
        <ele>2063</ele>
        <time>2022-07-16T21:39:13Z</time>
      </trkpt>
      <trkpt lat="45.75311" lon="6.65815">
        <ele>2063</ele>
        <time>2022-07-16T21:39:15Z</time>
      </trkpt>
      <trkpt lat="45.75313" lon="6.65816">
        <ele>2063</ele>
        <time>2022-07-16T21:39:16Z</time>
      </trkpt>
      <trkpt lat="45.75315" lon="6.65818">
        <ele>2062</ele>
        <time>2022-07-16T21:39:19Z</time>
      </trkpt>
      <trkpt lat="45.75318" lon="6.65819">
        <ele>2062</ele>
        <time>2022-07-16T21:39:20Z</time>
      </trkpt>
      <trkpt lat="45.7532" lon="6.6582">
        <ele>2061</ele>
        <time>2022-07-16T21:39:23Z</time>
      </trkpt>
      <trkpt lat="45.75322" lon="6.65822">
        <ele>2060</ele>
        <time>2022-07-16T21:39:25Z</time>
      </trkpt>
      <trkpt lat="45.75324" lon="6.65824">
        <ele>2059</ele>
        <time>2022-07-16T21:39:27Z</time>
      </trkpt>
      <trkpt lat="45.75326" lon="6.65826">
        <ele>2059</ele>
        <time>2022-07-16T21:39:29Z</time>
      </trkpt>
      <trkpt lat="45.75328" lon="6.65828">
        <ele>2059</ele>
        <time>2022-07-16T21:39:30Z</time>
      </trkpt>
      <trkpt lat="45.7533" lon="6.65829">
        <ele>2059</ele>
        <time>2022-07-16T21:39:32Z</time>
      </trkpt>
      <trkpt lat="45.75332" lon="6.6583">
        <ele>2059</ele>
        <time>2022-07-16T21:39:34Z</time>
      </trkpt>
      <trkpt lat="45.75334" lon="6.65831">
        <ele>2057</ele>
        <time>2022-07-16T21:39:36Z</time>
      </trkpt>
      <trkpt lat="45.75336" lon="6.65832">
        <ele>2057</ele>
        <time>2022-07-16T21:39:38Z</time>
      </trkpt>
      <trkpt lat="45.75339" lon="6.65832">
        <ele>2056</ele>
        <time>2022-07-16T21:39:41Z</time>
      </trkpt>
      <trkpt lat="45.75341" lon="6.65833">
        <ele>2055</ele>
        <time>2022-07-16T21:39:43Z</time>
      </trkpt>
      <trkpt lat="45.75343" lon="6.65834">
        <ele>2055</ele>
        <time>2022-07-16T21:39:44Z</time>
      </trkpt>
      <trkpt lat="45.75345" lon="6.65835">
        <ele>2055</ele>
        <time>2022-07-16T21:39:47Z</time>
      </trkpt>
      <trkpt lat="45.75347" lon="6.65835">
        <ele>2055</ele>
        <time>2022-07-16T21:39:48Z</time>
      </trkpt>
      <trkpt lat="45.75349" lon="6.65834">
        <ele>2054</ele>
        <time>2022-07-16T21:39:51Z</time>
      </trkpt>
      <trkpt lat="45.75351" lon="6.65834">
        <ele>2054</ele>
        <time>2022-07-16T21:39:53Z</time>
      </trkpt>
      <trkpt lat="45.75353" lon="6.65834">
        <ele>2054</ele>
        <time>2022-07-16T21:39:55Z</time>
      </trkpt>
      <trkpt lat="45.75356" lon="6.65833">
        <ele>2053</ele>
        <time>2022-07-16T21:39:58Z</time>
      </trkpt>
      <trkpt lat="45.75358" lon="6.65833">
        <ele>2053</ele>
        <time>2022-07-16T21:40:00Z</time>
      </trkpt>
      <trkpt lat="45.7536" lon="6.65834">
        <ele>2052</ele>
        <time>2022-07-16T21:40:02Z</time>
      </trkpt>
      <trkpt lat="45.75362" lon="6.65835">
        <ele>2052</ele>
        <time>2022-07-16T21:40:04Z</time>
      </trkpt>
      <trkpt lat="45.75364" lon="6.65836">
        <ele>2051</ele>
        <time>2022-07-16T21:40:05Z</time>
      </trkpt>
      <trkpt lat="45.75366" lon="6.65838">
        <ele>2051</ele>
        <time>2022-07-16T21:40:08Z</time>
      </trkpt>
      <trkpt lat="45.75368" lon="6.65839">
        <ele>2050</ele>
        <time>2022-07-16T21:40:10Z</time>
      </trkpt>
      <trkpt lat="45.7537" lon="6.6584">
        <ele>2049</ele>
        <time>2022-07-16T21:40:12Z</time>
      </trkpt>
      <trkpt lat="45.75371" lon="6.65841">
        <ele>2049</ele>
        <time>2022-07-16T21:40:15Z</time>
      </trkpt>
      <trkpt lat="45.75373" lon="6.65842">
        <ele>2049</ele>
        <time>2022-07-16T21:40:16Z</time>
      </trkpt>
      <trkpt lat="45.75375" lon="6.65844">
        <ele>2049</ele>
        <time>2022-07-16T21:40:19Z</time>
      </trkpt>
      <trkpt lat="45.75376" lon="6.65846">
        <ele>2049</ele>
        <time>2022-07-16T21:40:20Z</time>
      </trkpt>
      <trkpt lat="45.75378" lon="6.65848">
        <ele>2049</ele>
        <time>2022-07-16T21:40:22Z</time>
      </trkpt>
      <trkpt lat="45.75379" lon="6.6585">
        <ele>2048</ele>
        <time>2022-07-16T21:40:24Z</time>
      </trkpt>
      <trkpt lat="45.75382" lon="6.65852">
        <ele>2048</ele>
        <time>2022-07-16T21:40:26Z</time>
      </trkpt>
      <trkpt lat="45.75384" lon="6.65853">
        <ele>2047</ele>
        <time>2022-07-16T21:40:29Z</time>
      </trkpt>
      <trkpt lat="45.75386" lon="6.65856">
        <ele>2046</ele>
        <time>2022-07-16T21:40:31Z</time>
      </trkpt>
      <trkpt lat="45.75389" lon="6.65859">
        <ele>2046</ele>
        <time>2022-07-16T21:40:33Z</time>
      </trkpt>
      <trkpt lat="45.75391" lon="6.65861">
        <ele>2046</ele>
        <time>2022-07-16T21:40:34Z</time>
      </trkpt>
      <trkpt lat="45.75393" lon="6.65863">
        <ele>2046</ele>
        <time>2022-07-16T21:40:37Z</time>
      </trkpt>
      <trkpt lat="45.75395" lon="6.65866">
        <ele>2046</ele>
        <time>2022-07-16T21:40:38Z</time>
      </trkpt>
      <trkpt lat="45.75397" lon="6.65867">
        <ele>2045</ele>
        <time>2022-07-16T21:40:41Z</time>
      </trkpt>
      <trkpt lat="45.75399" lon="6.65869">
        <ele>2045</ele>
        <time>2022-07-16T21:40:43Z</time>
      </trkpt>
      <trkpt lat="45.75401" lon="6.6587">
        <ele>2044</ele>
        <time>2022-07-16T21:40:45Z</time>
      </trkpt>
      <trkpt lat="45.75403" lon="6.6587">
        <ele>2044</ele>
        <time>2022-07-16T21:40:48Z</time>
      </trkpt>
      <trkpt lat="45.75406" lon="6.65871">
        <ele>2043</ele>
        <time>2022-07-16T21:40:50Z</time>
      </trkpt>
      <trkpt lat="45.75408" lon="6.65872">
        <ele>2043</ele>
        <time>2022-07-16T21:40:52Z</time>
      </trkpt>
      <trkpt lat="45.7541" lon="6.65872">
        <ele>2043</ele>
        <time>2022-07-16T21:40:53Z</time>
      </trkpt>
      <trkpt lat="45.75412" lon="6.6587">
        <ele>2043</ele>
        <time>2022-07-16T21:40:55Z</time>
      </trkpt>
      <trkpt lat="45.75415" lon="6.65871">
        <ele>2042</ele>
        <time>2022-07-16T21:40:58Z</time>
      </trkpt>
      <trkpt lat="45.75417" lon="6.65872">
        <ele>2042</ele>
        <time>2022-07-16T21:40:59Z</time>
      </trkpt>
      <trkpt lat="45.75419" lon="6.65873">
        <ele>2042</ele>
        <time>2022-07-16T21:41:02Z</time>
      </trkpt>
      <trkpt lat="45.75422" lon="6.65876">
        <ele>2042</ele>
        <time>2022-07-16T21:41:03Z</time>
      </trkpt>
      <trkpt lat="45.75423" lon="6.65877">
        <ele>2043</ele>
        <time>2022-07-16T21:41:06Z</time>
      </trkpt>
      <trkpt lat="45.75425" lon="6.65879">
        <ele>2043</ele>
        <time>2022-07-16T21:41:08Z</time>
      </trkpt>
      <trkpt lat="45.75427" lon="6.6588">
        <ele>2043</ele>
        <time>2022-07-16T21:41:09Z</time>
      </trkpt>
      <trkpt lat="45.75429" lon="6.6588">
        <ele>2043</ele>
        <time>2022-07-16T21:41:13Z</time>
      </trkpt>
      <trkpt lat="45.75431" lon="6.65879">
        <ele>2043</ele>
        <time>2022-07-16T21:41:14Z</time>
      </trkpt>
      <trkpt lat="45.75433" lon="6.65879">
        <ele>2043</ele>
        <time>2022-07-16T21:41:17Z</time>
      </trkpt>
      <trkpt lat="45.75435" lon="6.65879">
        <ele>2042</ele>
        <time>2022-07-16T21:41:19Z</time>
      </trkpt>
      <trkpt lat="45.75437" lon="6.6588">
        <ele>2042</ele>
        <time>2022-07-16T21:41:21Z</time>
      </trkpt>
      <trkpt lat="45.75439" lon="6.65881">
        <ele>2042</ele>
        <time>2022-07-16T21:41:23Z</time>
      </trkpt>
      <trkpt lat="45.75441" lon="6.65882">
        <ele>2042</ele>
        <time>2022-07-16T21:41:24Z</time>
      </trkpt>
      <trkpt lat="45.75443" lon="6.65883">
        <ele>2042</ele>
        <time>2022-07-16T21:41:26Z</time>
      </trkpt>
      <trkpt lat="45.75446" lon="6.65883">
        <ele>2042</ele>
        <time>2022-07-16T21:41:36Z</time>
      </trkpt>
      <trkpt lat="45.75448" lon="6.65882">
        <ele>2042</ele>
        <time>2022-07-16T21:41:39Z</time>
      </trkpt>
      <trkpt lat="45.75451" lon="6.65881">
        <ele>2042</ele>
        <time>2022-07-16T21:41:40Z</time>
      </trkpt>
      <trkpt lat="45.75453" lon="6.6588">
        <ele>2042</ele>
        <time>2022-07-16T21:41:43Z</time>
      </trkpt>
      <trkpt lat="45.75455" lon="6.6588">
        <ele>2042</ele>
        <time>2022-07-16T21:41:45Z</time>
      </trkpt>
      <trkpt lat="45.75458" lon="6.6588">
        <ele>2042</ele>
        <time>2022-07-16T21:41:46Z</time>
      </trkpt>
      <trkpt lat="45.75461" lon="6.65879">
        <ele>2041</ele>
        <time>2022-07-16T21:41:49Z</time>
      </trkpt>
      <trkpt lat="45.75463" lon="6.65878">
        <ele>2041</ele>
        <time>2022-07-16T21:41:50Z</time>
      </trkpt>
      <trkpt lat="45.75466" lon="6.65878">
        <ele>2041</ele>
        <time>2022-07-16T21:41:53Z</time>
      </trkpt>
      <trkpt lat="45.75469" lon="6.65879">
        <ele>2041</ele>
        <time>2022-07-16T21:41:54Z</time>
      </trkpt>
      <trkpt lat="45.75471" lon="6.6588">
        <ele>2041</ele>
        <time>2022-07-16T21:41:57Z</time>
      </trkpt>
      <trkpt lat="45.75474" lon="6.6588">
        <ele>2041</ele>
        <time>2022-07-16T21:41:59Z</time>
      </trkpt>
      <trkpt lat="45.75477" lon="6.65881">
        <ele>2041</ele>
        <time>2022-07-16T21:42:01Z</time>
      </trkpt>
      <trkpt lat="45.75479" lon="6.65881">
        <ele>2041</ele>
        <time>2022-07-16T21:42:03Z</time>
      </trkpt>
      <trkpt lat="45.75481" lon="6.65881">
        <ele>2041</ele>
        <time>2022-07-16T21:42:05Z</time>
      </trkpt>
      <trkpt lat="45.75484" lon="6.6588">
        <ele>2041</ele>
        <time>2022-07-16T21:42:06Z</time>
      </trkpt>
      <trkpt lat="45.75485" lon="6.65879">
        <ele>2041</ele>
        <time>2022-07-16T21:42:09Z</time>
      </trkpt>
      <trkpt lat="45.75488" lon="6.65879">
        <ele>2040</ele>
        <time>2022-07-16T21:42:10Z</time>
      </trkpt>
      <trkpt lat="45.75491" lon="6.65879">
        <ele>2040</ele>
        <time>2022-07-16T21:42:13Z</time>
      </trkpt>
      <trkpt lat="45.75493" lon="6.65879">
        <ele>2040</ele>
        <time>2022-07-16T21:42:15Z</time>
      </trkpt>
      <trkpt lat="45.75494" lon="6.65879">
        <ele>2040</ele>
        <time>2022-07-16T21:42:17Z</time>
      </trkpt>
      <trkpt lat="45.75496" lon="6.6588">
        <ele>2040</ele>
        <time>2022-07-16T21:42:18Z</time>
      </trkpt>
      <trkpt lat="45.75498" lon="6.6588">
        <ele>2040</ele>
        <time>2022-07-16T21:42:20Z</time>
      </trkpt>
      <trkpt lat="45.75501" lon="6.6588">
        <ele>2038</ele>
        <time>2022-07-16T21:42:23Z</time>
      </trkpt>
      <trkpt lat="45.75503" lon="6.6588">
        <ele>2038</ele>
        <time>2022-07-16T21:42:25Z</time>
      </trkpt>
      <trkpt lat="45.75505" lon="6.65879">
        <ele>2038</ele>
        <time>2022-07-16T21:42:26Z</time>
      </trkpt>
      <trkpt lat="45.75508" lon="6.6588">
        <ele>2038</ele>
        <time>2022-07-16T21:42:29Z</time>
      </trkpt>
      <trkpt lat="45.7551" lon="6.65881">
        <ele>2038</ele>
        <time>2022-07-16T21:42:31Z</time>
      </trkpt>
      <trkpt lat="45.75512" lon="6.65882">
        <ele>2038</ele>
        <time>2022-07-16T21:42:32Z</time>
      </trkpt>
      <trkpt lat="45.75515" lon="6.65883">
        <ele>2038</ele>
        <time>2022-07-16T21:42:35Z</time>
      </trkpt>
      <trkpt lat="45.75517" lon="6.65885">
        <ele>2038</ele>
        <time>2022-07-16T21:42:37Z</time>
      </trkpt>
      <trkpt lat="45.75519" lon="6.65886">
        <ele>2038</ele>
        <time>2022-07-16T21:42:38Z</time>
      </trkpt>
      <trkpt lat="45.75521" lon="6.65887">
        <ele>2038</ele>
        <time>2022-07-16T21:42:40Z</time>
      </trkpt>
      <trkpt lat="45.75523" lon="6.65888">
        <ele>2038</ele>
        <time>2022-07-16T21:42:42Z</time>
      </trkpt>
      <trkpt lat="45.75525" lon="6.65888">
        <ele>2038</ele>
        <time>2022-07-16T21:42:45Z</time>
      </trkpt>
      <trkpt lat="45.75526" lon="6.65888">
        <ele>2040</ele>
        <time>2022-07-16T21:42:47Z</time>
      </trkpt>
      <trkpt lat="45.75528" lon="6.65888">
        <ele>2040</ele>
        <time>2022-07-16T21:42:49Z</time>
      </trkpt>
      <trkpt lat="45.7553" lon="6.65887">
        <ele>2038</ele>
        <time>2022-07-16T21:42:51Z</time>
      </trkpt>
      <trkpt lat="45.75532" lon="6.65887">
        <ele>2038</ele>
        <time>2022-07-16T21:42:52Z</time>
      </trkpt>
      <trkpt lat="45.75534" lon="6.65885">
        <ele>2037</ele>
        <time>2022-07-16T21:42:56Z</time>
      </trkpt>
      <trkpt lat="45.75536" lon="6.65882">
        <ele>2036</ele>
        <time>2022-07-16T21:42:59Z</time>
      </trkpt>
      <trkpt lat="45.75538" lon="6.65881">
        <ele>2033</ele>
        <time>2022-07-16T21:43:01Z</time>
      </trkpt>
      <trkpt lat="45.75537" lon="6.65878">
        <ele>2033</ele>
        <time>2022-07-16T21:43:05Z</time>
      </trkpt>
      <trkpt lat="45.75536" lon="6.65877">
        <ele>2033</ele>
        <time>2022-07-16T21:43:07Z</time>
      </trkpt>
      <trkpt lat="45.75534" lon="6.65875">
        <ele>2033</ele>
        <time>2022-07-16T21:43:08Z</time>
      </trkpt>
      <trkpt lat="45.75533" lon="6.65873">
        <ele>2033</ele>
        <time>2022-07-16T21:43:10Z</time>
      </trkpt>
      <trkpt lat="45.75535" lon="6.65871">
        <ele>2033</ele>
        <time>2022-07-16T21:43:13Z</time>
      </trkpt>
      <trkpt lat="45.75536" lon="6.65869">
        <ele>2031</ele>
        <time>2022-07-16T21:43:17Z</time>
      </trkpt>
      <trkpt lat="45.75538" lon="6.65869">
        <ele>2031</ele>
        <time>2022-07-16T21:43:18Z</time>
      </trkpt>
      <trkpt lat="45.7554" lon="6.6587">
        <ele>2030</ele>
        <time>2022-07-16T21:43:20Z</time>
      </trkpt>
      <trkpt lat="45.75541" lon="6.65872">
        <ele>2029</ele>
        <time>2022-07-16T21:43:23Z</time>
      </trkpt>
      <trkpt lat="45.75544" lon="6.65873">
        <ele>2029</ele>
        <time>2022-07-16T21:43:24Z</time>
      </trkpt>
      <trkpt lat="45.75546" lon="6.65874">
        <ele>2029</ele>
        <time>2022-07-16T21:43:27Z</time>
      </trkpt>
      <trkpt lat="45.75549" lon="6.65874">
        <ele>2029</ele>
        <time>2022-07-16T21:43:29Z</time>
      </trkpt>
      <trkpt lat="45.75551" lon="6.65873">
        <ele>2029</ele>
        <time>2022-07-16T21:43:31Z</time>
      </trkpt>
      <trkpt lat="45.75553" lon="6.65872">
        <ele>2028</ele>
        <time>2022-07-16T21:43:34Z</time>
      </trkpt>
      <trkpt lat="45.75554" lon="6.6587">
        <ele>2027</ele>
        <time>2022-07-16T21:43:35Z</time>
      </trkpt>
      <trkpt lat="45.75556" lon="6.65868">
        <ele>2027</ele>
        <time>2022-07-16T21:43:39Z</time>
      </trkpt>
      <trkpt lat="45.75558" lon="6.65867">
        <ele>2025</ele>
        <time>2022-07-16T21:43:41Z</time>
      </trkpt>
      <trkpt lat="45.75561" lon="6.65867">
        <ele>2025</ele>
        <time>2022-07-16T21:43:43Z</time>
      </trkpt>
      <trkpt lat="45.75563" lon="6.65869">
        <ele>2024</ele>
        <time>2022-07-16T21:43:45Z</time>
      </trkpt>
      <trkpt lat="45.75565" lon="6.6587">
        <ele>2024</ele>
        <time>2022-07-16T21:43:46Z</time>
      </trkpt>
      <trkpt lat="45.75567" lon="6.6587">
        <ele>2023</ele>
        <time>2022-07-16T21:43:50Z</time>
      </trkpt>
      <trkpt lat="45.75569" lon="6.6587">
        <ele>2023</ele>
        <time>2022-07-16T21:43:52Z</time>
      </trkpt>
      <trkpt lat="45.75571" lon="6.65868">
        <ele>2022</ele>
        <time>2022-07-16T21:43:54Z</time>
      </trkpt>
      <trkpt lat="45.75574" lon="6.65867">
        <ele>2021</ele>
        <time>2022-07-16T21:43:56Z</time>
      </trkpt>
      <trkpt lat="45.75577" lon="6.65868">
        <ele>2020</ele>
        <time>2022-07-16T21:43:59Z</time>
      </trkpt>
      <trkpt lat="45.7558" lon="6.65869">
        <ele>2020</ele>
        <time>2022-07-16T21:44:01Z</time>
      </trkpt>
      <trkpt lat="45.75583" lon="6.6587">
        <ele>2020</ele>
        <time>2022-07-16T21:44:03Z</time>
      </trkpt>
      <trkpt lat="45.75586" lon="6.65871">
        <ele>2020</ele>
        <time>2022-07-16T21:44:04Z</time>
      </trkpt>
      <trkpt lat="45.75589" lon="6.65872">
        <ele>2020</ele>
        <time>2022-07-16T21:44:06Z</time>
      </trkpt>
      <trkpt lat="45.75591" lon="6.65873">
        <ele>2020</ele>
        <time>2022-07-16T21:44:09Z</time>
      </trkpt>
      <trkpt lat="45.75594" lon="6.65872">
        <ele>2020</ele>
        <time>2022-07-16T21:44:11Z</time>
      </trkpt>
      <trkpt lat="45.75596" lon="6.6587">
        <ele>2019</ele>
        <time>2022-07-16T21:44:12Z</time>
      </trkpt>
      <trkpt lat="45.75598" lon="6.65869">
        <ele>2019</ele>
        <time>2022-07-16T21:44:15Z</time>
      </trkpt>
      <trkpt lat="45.756" lon="6.65867">
        <ele>2019</ele>
        <time>2022-07-16T21:44:17Z</time>
      </trkpt>
      <trkpt lat="45.75602" lon="6.65864">
        <ele>2019</ele>
        <time>2022-07-16T21:44:19Z</time>
      </trkpt>
      <trkpt lat="45.75604" lon="6.65863">
        <ele>2019</ele>
        <time>2022-07-16T21:44:20Z</time>
      </trkpt>
      <trkpt lat="45.75606" lon="6.6586">
        <ele>2018</ele>
        <time>2022-07-16T21:44:22Z</time>
      </trkpt>
      <trkpt lat="45.75608" lon="6.65858">
        <ele>2017</ele>
        <time>2022-07-16T21:44:25Z</time>
      </trkpt>
      <trkpt lat="45.75611" lon="6.65857">
        <ele>2017</ele>
        <time>2022-07-16T21:44:27Z</time>
      </trkpt>
      <trkpt lat="45.75613" lon="6.65857">
        <ele>2017</ele>
        <time>2022-07-16T21:44:29Z</time>
      </trkpt>
      <trkpt lat="45.75616" lon="6.65857">
        <ele>2017</ele>
        <time>2022-07-16T21:44:31Z</time>
      </trkpt>
      <trkpt lat="45.75618" lon="6.65856">
        <ele>2017</ele>
        <time>2022-07-16T21:44:33Z</time>
      </trkpt>
      <trkpt lat="45.7562" lon="6.65856">
        <ele>2017</ele>
        <time>2022-07-16T21:44:35Z</time>
      </trkpt>
      <trkpt lat="45.75622" lon="6.65855">
        <ele>2016</ele>
        <time>2022-07-16T21:44:37Z</time>
      </trkpt>
      <trkpt lat="45.75625" lon="6.65854">
        <ele>2016</ele>
        <time>2022-07-16T21:44:38Z</time>
      </trkpt>
      <trkpt lat="45.75627" lon="6.65854">
        <ele>2016</ele>
        <time>2022-07-16T21:44:40Z</time>
      </trkpt>
      <trkpt lat="45.7563" lon="6.65853">
        <ele>2016</ele>
        <time>2022-07-16T21:44:42Z</time>
      </trkpt>
      <trkpt lat="45.75632" lon="6.65852">
        <ele>2016</ele>
        <time>2022-07-16T21:44:45Z</time>
      </trkpt>
      <trkpt lat="45.75635" lon="6.6585">
        <ele>2016</ele>
        <time>2022-07-16T21:44:46Z</time>
      </trkpt>
      <trkpt lat="45.75638" lon="6.6585">
        <ele>2016</ele>
        <time>2022-07-16T21:44:48Z</time>
      </trkpt>
      <trkpt lat="45.75641" lon="6.65849">
        <ele>2015</ele>
        <time>2022-07-16T21:44:51Z</time>
      </trkpt>
      <trkpt lat="45.75644" lon="6.65849">
        <ele>2015</ele>
        <time>2022-07-16T21:44:52Z</time>
      </trkpt>
      <trkpt lat="45.75647" lon="6.65848">
        <ele>2015</ele>
        <time>2022-07-16T21:44:55Z</time>
      </trkpt>
      <trkpt lat="45.7565" lon="6.65847">
        <ele>2014</ele>
        <time>2022-07-16T21:44:57Z</time>
      </trkpt>
      <trkpt lat="45.75652" lon="6.65846">
        <ele>2014</ele>
        <time>2022-07-16T21:44:59Z</time>
      </trkpt>
      <trkpt lat="45.75655" lon="6.65846">
        <ele>2014</ele>
        <time>2022-07-16T21:45:01Z</time>
      </trkpt>
      <trkpt lat="45.75658" lon="6.65845">
        <ele>2014</ele>
        <time>2022-07-16T21:45:02Z</time>
      </trkpt>
      <trkpt lat="45.7566" lon="6.65844">
        <ele>2014</ele>
        <time>2022-07-16T21:45:05Z</time>
      </trkpt>
      <trkpt lat="45.75663" lon="6.65844">
        <ele>2014</ele>
        <time>2022-07-16T21:45:06Z</time>
      </trkpt>
      <trkpt lat="45.75665" lon="6.65844">
        <ele>2014</ele>
        <time>2022-07-16T21:45:08Z</time>
      </trkpt>
      <trkpt lat="45.75668" lon="6.65844">
        <ele>2014</ele>
        <time>2022-07-16T21:45:11Z</time>
      </trkpt>
      <trkpt lat="45.75671" lon="6.65843">
        <ele>2014</ele>
        <time>2022-07-16T21:45:13Z</time>
      </trkpt>
      <trkpt lat="45.75672" lon="6.65841">
        <ele>2012</ele>
        <time>2022-07-16T21:45:15Z</time>
      </trkpt>
      <trkpt lat="45.75674" lon="6.65839">
        <ele>2012</ele>
        <time>2022-07-16T21:45:16Z</time>
      </trkpt>
      <trkpt lat="45.75677" lon="6.65837">
        <ele>2012</ele>
        <time>2022-07-16T21:45:19Z</time>
      </trkpt>
      <trkpt lat="45.7568" lon="6.65836">
        <ele>2012</ele>
        <time>2022-07-16T21:45:21Z</time>
      </trkpt>
      <trkpt lat="45.75682" lon="6.65835">
        <ele>2012</ele>
        <time>2022-07-16T21:45:23Z</time>
      </trkpt>
      <trkpt lat="45.75685" lon="6.65835">
        <ele>2012</ele>
        <time>2022-07-16T21:45:25Z</time>
      </trkpt>
      <trkpt lat="45.75688" lon="6.65834">
        <ele>2012</ele>
        <time>2022-07-16T21:45:27Z</time>
      </trkpt>
      <trkpt lat="45.75691" lon="6.65834">
        <ele>2012</ele>
        <time>2022-07-16T21:45:28Z</time>
      </trkpt>
      <trkpt lat="45.75694" lon="6.65834">
        <ele>2012</ele>
        <time>2022-07-16T21:45:30Z</time>
      </trkpt>
      <trkpt lat="45.75697" lon="6.65835">
        <ele>2012</ele>
        <time>2022-07-16T21:45:33Z</time>
      </trkpt>
      <trkpt lat="45.75699" lon="6.65835">
        <ele>2012</ele>
        <time>2022-07-16T21:45:35Z</time>
      </trkpt>
      <trkpt lat="45.75702" lon="6.65835">
        <ele>2012</ele>
        <time>2022-07-16T21:45:37Z</time>
      </trkpt>
      <trkpt lat="45.75705" lon="6.65835">
        <ele>2012</ele>
        <time>2022-07-16T21:45:39Z</time>
      </trkpt>
      <trkpt lat="45.75707" lon="6.65835">
        <ele>2012</ele>
        <time>2022-07-16T21:45:41Z</time>
      </trkpt>
      <trkpt lat="45.7571" lon="6.65834">
        <ele>2012</ele>
        <time>2022-07-16T21:45:43Z</time>
      </trkpt>
      <trkpt lat="45.75713" lon="6.65833">
        <ele>2012</ele>
        <time>2022-07-16T21:45:44Z</time>
      </trkpt>
      <trkpt lat="45.75716" lon="6.65832">
        <ele>2012</ele>
        <time>2022-07-16T21:45:46Z</time>
      </trkpt>
      <trkpt lat="45.75718" lon="6.65831">
        <ele>2014</ele>
        <time>2022-07-16T21:45:49Z</time>
      </trkpt>
      <trkpt lat="45.75721" lon="6.6583">
        <ele>2014</ele>
        <time>2022-07-16T21:45:50Z</time>
      </trkpt>
      <trkpt lat="45.75724" lon="6.65828">
        <ele>2012</ele>
        <time>2022-07-16T21:45:53Z</time>
      </trkpt>
      <trkpt lat="45.75726" lon="6.65826">
        <ele>2012</ele>
        <time>2022-07-16T21:45:55Z</time>
      </trkpt>
      <trkpt lat="45.75729" lon="6.65824">
        <ele>2012</ele>
        <time>2022-07-16T21:45:56Z</time>
      </trkpt>
      <trkpt lat="45.75732" lon="6.65823">
        <ele>2012</ele>
        <time>2022-07-16T21:45:58Z</time>
      </trkpt>
      <trkpt lat="45.75735" lon="6.65821">
        <ele>2012</ele>
        <time>2022-07-16T21:46:01Z</time>
      </trkpt>
      <trkpt lat="45.75737" lon="6.6582">
        <ele>2012</ele>
        <time>2022-07-16T21:46:02Z</time>
      </trkpt>
      <trkpt lat="45.7574" lon="6.6582">
        <ele>2012</ele>
        <time>2022-07-16T21:46:05Z</time>
      </trkpt>
      <trkpt lat="45.75743" lon="6.6582">
        <ele>2012</ele>
        <time>2022-07-16T21:46:07Z</time>
      </trkpt>
      <trkpt lat="45.75745" lon="6.6582">
        <ele>2012</ele>
        <time>2022-07-16T21:46:08Z</time>
      </trkpt>
      <trkpt lat="45.75747" lon="6.65819">
        <ele>2012</ele>
        <time>2022-07-16T21:46:10Z</time>
      </trkpt>
      <trkpt lat="45.75749" lon="6.65819">
        <ele>2012</ele>
        <time>2022-07-16T21:46:11Z</time>
      </trkpt>
      <trkpt lat="45.75752" lon="6.65818">
        <ele>2011</ele>
        <time>2022-07-16T21:46:12Z</time>
      </trkpt>
      <trkpt lat="45.75755" lon="6.65816">
        <ele>2010</ele>
        <time>2022-07-16T21:46:13Z</time>
      </trkpt>
      <trkpt lat="45.75757" lon="6.65815">
        <ele>2010</ele>
        <time>2022-07-16T21:46:14Z</time>
      </trkpt>
      <trkpt lat="45.75759" lon="6.65814">
        <ele>2010</ele>
        <time>2022-07-16T21:46:15Z</time>
      </trkpt>
      <trkpt lat="45.75762" lon="6.65812">
        <ele>2010</ele>
        <time>2022-07-16T21:46:18Z</time>
      </trkpt>
      <trkpt lat="45.75765" lon="6.6581">
        <ele>2010</ele>
        <time>2022-07-16T21:46:19Z</time>
      </trkpt>
      <trkpt lat="45.75767" lon="6.6581">
        <ele>2010</ele>
        <time>2022-07-16T21:46:22Z</time>
      </trkpt>
      <trkpt lat="45.7577" lon="6.65809">
        <ele>2010</ele>
        <time>2022-07-16T21:46:24Z</time>
      </trkpt>
      <trkpt lat="45.75773" lon="6.65809">
        <ele>2010</ele>
        <time>2022-07-16T21:46:25Z</time>
      </trkpt>
      <trkpt lat="45.75775" lon="6.65808">
        <ele>2010</ele>
        <time>2022-07-16T21:46:27Z</time>
      </trkpt>
      <trkpt lat="45.75778" lon="6.65808">
        <ele>2010</ele>
        <time>2022-07-16T21:46:30Z</time>
      </trkpt>
      <trkpt lat="45.75781" lon="6.65808">
        <ele>2010</ele>
        <time>2022-07-16T21:46:32Z</time>
      </trkpt>
      <trkpt lat="45.75783" lon="6.65807">
        <ele>2010</ele>
        <time>2022-07-16T21:46:33Z</time>
      </trkpt>
      <trkpt lat="45.75786" lon="6.65806">
        <ele>2010</ele>
        <time>2022-07-16T21:46:36Z</time>
      </trkpt>
      <trkpt lat="45.75788" lon="6.65804">
        <ele>2011</ele>
        <time>2022-07-16T21:46:38Z</time>
      </trkpt>
      <trkpt lat="45.7579" lon="6.65801">
        <ele>2010</ele>
        <time>2022-07-16T21:46:39Z</time>
      </trkpt>
      <trkpt lat="45.75791" lon="6.65797">
        <ele>2010</ele>
        <time>2022-07-16T21:46:41Z</time>
      </trkpt>
      <trkpt lat="45.75792" lon="6.65794">
        <ele>2011</ele>
        <time>2022-07-16T21:46:44Z</time>
      </trkpt>
      <trkpt lat="45.75793" lon="6.65791">
        <ele>2011</ele>
        <time>2022-07-16T21:46:45Z</time>
      </trkpt>
      <trkpt lat="45.75794" lon="6.65787">
        <ele>2011</ele>
        <time>2022-07-16T21:46:48Z</time>
      </trkpt>
      <trkpt lat="45.75795" lon="6.65784">
        <ele>2011</ele>
        <time>2022-07-16T21:46:49Z</time>
      </trkpt>
      <trkpt lat="45.75796" lon="6.65781">
        <ele>2011</ele>
        <time>2022-07-16T21:46:51Z</time>
      </trkpt>
      <trkpt lat="45.75798" lon="6.65778">
        <ele>2011</ele>
        <time>2022-07-16T21:46:54Z</time>
      </trkpt>
      <trkpt lat="45.75799" lon="6.65775">
        <ele>2011</ele>
        <time>2022-07-16T21:46:56Z</time>
      </trkpt>
      <trkpt lat="45.75801" lon="6.65771">
        <ele>2011</ele>
        <time>2022-07-16T21:46:58Z</time>
      </trkpt>
      <trkpt lat="45.75803" lon="6.65768">
        <ele>2011</ele>
        <time>2022-07-16T21:46:59Z</time>
      </trkpt>
      <trkpt lat="45.75804" lon="6.65766">
        <ele>2011</ele>
        <time>2022-07-16T21:47:01Z</time>
      </trkpt>
      <trkpt lat="45.75806" lon="6.65763">
        <ele>2011</ele>
        <time>2022-07-16T21:47:04Z</time>
      </trkpt>
      <trkpt lat="45.75808" lon="6.6576">
        <ele>2011</ele>
        <time>2022-07-16T21:47:06Z</time>
      </trkpt>
      <trkpt lat="45.75811" lon="6.65757">
        <ele>2011</ele>
        <time>2022-07-16T21:47:08Z</time>
      </trkpt>
      <trkpt lat="45.75813" lon="6.65754">
        <ele>2011</ele>
        <time>2022-07-16T21:47:09Z</time>
      </trkpt>
      <trkpt lat="45.75815" lon="6.65752">
        <ele>2011</ele>
        <time>2022-07-16T21:47:12Z</time>
      </trkpt>
      <trkpt lat="45.75817" lon="6.65749">
        <ele>2011</ele>
        <time>2022-07-16T21:47:14Z</time>
      </trkpt>
      <trkpt lat="45.7582" lon="6.65747">
        <ele>2011</ele>
        <time>2022-07-16T21:47:15Z</time>
      </trkpt>
      <trkpt lat="45.75822" lon="6.65745">
        <ele>2011</ele>
        <time>2022-07-16T21:47:17Z</time>
      </trkpt>
      <trkpt lat="45.75824" lon="6.65743">
        <ele>2011</ele>
        <time>2022-07-16T21:47:19Z</time>
      </trkpt>
      <trkpt lat="45.75827" lon="6.65741">
        <ele>2011</ele>
        <time>2022-07-16T21:47:22Z</time>
      </trkpt>
      <trkpt lat="45.75829" lon="6.6574">
        <ele>2011</ele>
        <time>2022-07-16T21:47:24Z</time>
      </trkpt>
      <trkpt lat="45.75832" lon="6.65739">
        <ele>2011</ele>
        <time>2022-07-16T21:47:26Z</time>
      </trkpt>
      <trkpt lat="45.75835" lon="6.65738">
        <ele>2011</ele>
        <time>2022-07-16T21:47:27Z</time>
      </trkpt>
      <trkpt lat="45.75837" lon="6.65737">
        <ele>2011</ele>
        <time>2022-07-16T21:47:29Z</time>
      </trkpt>
      <trkpt lat="45.7584" lon="6.65737">
        <ele>2011</ele>
        <time>2022-07-16T21:47:31Z</time>
      </trkpt>
      <trkpt lat="45.75843" lon="6.65737">
        <ele>2011</ele>
        <time>2022-07-16T21:47:34Z</time>
      </trkpt>
      <trkpt lat="45.75846" lon="6.65737">
        <ele>2011</ele>
        <time>2022-07-16T21:47:36Z</time>
      </trkpt>
      <trkpt lat="45.75849" lon="6.65737">
        <ele>2011</ele>
        <time>2022-07-16T21:47:38Z</time>
      </trkpt>
      <trkpt lat="45.75851" lon="6.65737">
        <ele>2011</ele>
        <time>2022-07-16T21:47:39Z</time>
      </trkpt>
      <trkpt lat="45.75854" lon="6.65737">
        <ele>2011</ele>
        <time>2022-07-16T21:47:42Z</time>
      </trkpt>
      <trkpt lat="45.75857" lon="6.65737">
        <ele>2011</ele>
        <time>2022-07-16T21:47:44Z</time>
      </trkpt>
      <trkpt lat="45.7586" lon="6.65736">
        <ele>2011</ele>
        <time>2022-07-16T21:47:46Z</time>
      </trkpt>
      <trkpt lat="45.75863" lon="6.65736">
        <ele>2011</ele>
        <time>2022-07-16T21:47:47Z</time>
      </trkpt>
      <trkpt lat="45.75866" lon="6.65734">
        <ele>2011</ele>
        <time>2022-07-16T21:47:49Z</time>
      </trkpt>
      <trkpt lat="45.75868" lon="6.65733">
        <ele>2011</ele>
        <time>2022-07-16T21:47:51Z</time>
      </trkpt>
      <trkpt lat="45.75871" lon="6.65732">
        <ele>2011</ele>
        <time>2022-07-16T21:47:53Z</time>
      </trkpt>
      <trkpt lat="45.75873" lon="6.65731">
        <ele>2011</ele>
        <time>2022-07-16T21:47:55Z</time>
      </trkpt>
      <trkpt lat="45.75876" lon="6.65729">
        <ele>2011</ele>
        <time>2022-07-16T21:47:58Z</time>
      </trkpt>
      <trkpt lat="45.75878" lon="6.65727">
        <ele>2011</ele>
        <time>2022-07-16T21:48:00Z</time>
      </trkpt>
      <trkpt lat="45.75881" lon="6.65725">
        <ele>2011</ele>
        <time>2022-07-16T21:48:01Z</time>
      </trkpt>
      <trkpt lat="45.75883" lon="6.65724">
        <ele>2011</ele>
        <time>2022-07-16T21:48:03Z</time>
      </trkpt>
      <trkpt lat="45.75886" lon="6.65722">
        <ele>2011</ele>
        <time>2022-07-16T21:48:06Z</time>
      </trkpt>
      <trkpt lat="45.75888" lon="6.6572">
        <ele>2011</ele>
        <time>2022-07-16T21:48:08Z</time>
      </trkpt>
      <trkpt lat="45.75891" lon="6.65719">
        <ele>2011</ele>
        <time>2022-07-16T21:48:09Z</time>
      </trkpt>
      <trkpt lat="45.75893" lon="6.65717">
        <ele>2011</ele>
        <time>2022-07-16T21:48:11Z</time>
      </trkpt>
      <trkpt lat="45.75895" lon="6.65715">
        <ele>2011</ele>
        <time>2022-07-16T21:48:14Z</time>
      </trkpt>
      <trkpt lat="45.75898" lon="6.65714">
        <ele>2011</ele>
        <time>2022-07-16T21:48:15Z</time>
      </trkpt>
      <trkpt lat="45.75901" lon="6.65713">
        <ele>2011</ele>
        <time>2022-07-16T21:48:18Z</time>
      </trkpt>
      <trkpt lat="45.75904" lon="6.65712">
        <ele>2011</ele>
        <time>2022-07-16T21:48:20Z</time>
      </trkpt>
      <trkpt lat="45.75907" lon="6.65711">
        <ele>2011</ele>
        <time>2022-07-16T21:48:21Z</time>
      </trkpt>
      <trkpt lat="45.75909" lon="6.65711">
        <ele>2011</ele>
        <time>2022-07-16T21:48:24Z</time>
      </trkpt>
      <trkpt lat="45.75912" lon="6.65711">
        <ele>2011</ele>
        <time>2022-07-16T21:48:26Z</time>
      </trkpt>
      <trkpt lat="45.75915" lon="6.65711">
        <ele>2011</ele>
        <time>2022-07-16T21:48:28Z</time>
      </trkpt>
      <trkpt lat="45.75918" lon="6.65711">
        <ele>2011</ele>
        <time>2022-07-16T21:48:30Z</time>
      </trkpt>
      <trkpt lat="45.75921" lon="6.65712">
        <ele>2011</ele>
        <time>2022-07-16T21:48:32Z</time>
      </trkpt>
      <trkpt lat="45.75924" lon="6.65712">
        <ele>2011</ele>
        <time>2022-07-16T21:48:34Z</time>
      </trkpt>
      <trkpt lat="45.75927" lon="6.65713">
        <ele>2011</ele>
        <time>2022-07-16T21:48:36Z</time>
      </trkpt>
      <trkpt lat="45.7593" lon="6.65714">
        <ele>2011</ele>
        <time>2022-07-16T21:48:38Z</time>
      </trkpt>
      <trkpt lat="45.75932" lon="6.65716">
        <ele>2011</ele>
        <time>2022-07-16T21:48:40Z</time>
      </trkpt>
      <trkpt lat="45.75935" lon="6.65717">
        <ele>2011</ele>
        <time>2022-07-16T21:48:41Z</time>
      </trkpt>
      <trkpt lat="45.75938" lon="6.65719">
        <ele>2010</ele>
        <time>2022-07-16T21:48:44Z</time>
      </trkpt>
      <trkpt lat="45.75941" lon="6.6572">
        <ele>2010</ele>
        <time>2022-07-16T21:48:45Z</time>
      </trkpt>
      <trkpt lat="45.75943" lon="6.65721">
        <ele>2010</ele>
        <time>2022-07-16T21:48:47Z</time>
      </trkpt>
      <trkpt lat="45.75946" lon="6.65723">
        <ele>2010</ele>
        <time>2022-07-16T21:48:50Z</time>
      </trkpt>
      <trkpt lat="45.75949" lon="6.65724">
        <ele>2010</ele>
        <time>2022-07-16T21:48:52Z</time>
      </trkpt>
      <trkpt lat="45.75951" lon="6.65725">
        <ele>2010</ele>
        <time>2022-07-16T21:48:53Z</time>
      </trkpt>
      <trkpt lat="45.75954" lon="6.65727">
        <ele>2010</ele>
        <time>2022-07-16T21:48:55Z</time>
      </trkpt>
      <trkpt lat="45.75957" lon="6.65728">
        <ele>2010</ele>
        <time>2022-07-16T21:48:58Z</time>
      </trkpt>
      <trkpt lat="45.75959" lon="6.65729">
        <ele>2010</ele>
        <time>2022-07-16T21:48:59Z</time>
      </trkpt>
      <trkpt lat="45.75962" lon="6.6573">
        <ele>2009</ele>
        <time>2022-07-16T21:49:02Z</time>
      </trkpt>
      <trkpt lat="45.75964" lon="6.65731">
        <ele>2008</ele>
        <time>2022-07-16T21:49:03Z</time>
      </trkpt>
      <trkpt lat="45.75967" lon="6.65733">
        <ele>2008</ele>
        <time>2022-07-16T21:49:05Z</time>
      </trkpt>
      <trkpt lat="45.7597" lon="6.65734">
        <ele>2009</ele>
        <time>2022-07-16T21:49:08Z</time>
      </trkpt>
      <trkpt lat="45.75973" lon="6.65735">
        <ele>2009</ele>
        <time>2022-07-16T21:49:09Z</time>
      </trkpt>
      <trkpt lat="45.75975" lon="6.65736">
        <ele>2009</ele>
        <time>2022-07-16T21:49:12Z</time>
      </trkpt>
      <trkpt lat="45.75978" lon="6.65737">
        <ele>2008</ele>
        <time>2022-07-16T21:49:13Z</time>
      </trkpt>
      <trkpt lat="45.75981" lon="6.65737">
        <ele>2008</ele>
        <time>2022-07-16T21:49:15Z</time>
      </trkpt>
      <trkpt lat="45.75984" lon="6.65737">
        <ele>2008</ele>
        <time>2022-07-16T21:49:17Z</time>
      </trkpt>
      <trkpt lat="45.75986" lon="6.65738">
        <ele>2008</ele>
        <time>2022-07-16T21:49:19Z</time>
      </trkpt>
      <trkpt lat="45.75989" lon="6.65738">
        <ele>2007</ele>
        <time>2022-07-16T21:49:22Z</time>
      </trkpt>
      <trkpt lat="45.75992" lon="6.65739">
        <ele>2007</ele>
        <time>2022-07-16T21:49:24Z</time>
      </trkpt>
      <trkpt lat="45.75995" lon="6.65739">
        <ele>2007</ele>
        <time>2022-07-16T21:49:25Z</time>
      </trkpt>
      <trkpt lat="45.75998" lon="6.65739">
        <ele>2007</ele>
        <time>2022-07-16T21:49:28Z</time>
      </trkpt>
      <trkpt lat="45.76" lon="6.65739">
        <ele>2007</ele>
        <time>2022-07-16T21:49:30Z</time>
      </trkpt>
      <trkpt lat="45.76003" lon="6.65738">
        <ele>2007</ele>
        <time>2022-07-16T21:49:31Z</time>
      </trkpt>
      <trkpt lat="45.76006" lon="6.65738">
        <ele>2006</ele>
        <time>2022-07-16T21:49:34Z</time>
      </trkpt>
      <trkpt lat="45.76009" lon="6.65736">
        <ele>2006</ele>
        <time>2022-07-16T21:49:35Z</time>
      </trkpt>
      <trkpt lat="45.76011" lon="6.65736">
        <ele>2005</ele>
        <time>2022-07-16T21:49:37Z</time>
      </trkpt>
      <trkpt lat="45.76013" lon="6.65735">
        <ele>2005</ele>
        <time>2022-07-16T21:49:38Z</time>
      </trkpt>
      <trkpt lat="45.76015" lon="6.65734">
        <ele>2005</ele>
        <time>2022-07-16T21:49:39Z</time>
      </trkpt>
      <trkpt lat="45.76019" lon="6.65732">
        <ele>2005</ele>
        <time>2022-07-16T21:49:40Z</time>
      </trkpt>
      <trkpt lat="45.76021" lon="6.65731">
        <ele>2005</ele>
        <time>2022-07-16T21:49:41Z</time>
      </trkpt>
      <trkpt lat="45.76023" lon="6.6573">
        <ele>2005</ele>
        <time>2022-07-16T21:49:42Z</time>
      </trkpt>
      <trkpt lat="45.76026" lon="6.65728">
        <ele>2004</ele>
        <time>2022-07-16T21:49:44Z</time>
      </trkpt>
      <trkpt lat="45.76028" lon="6.65727">
        <ele>2004</ele>
        <time>2022-07-16T21:49:45Z</time>
      </trkpt>
      <trkpt lat="45.76031" lon="6.65724">
        <ele>2003</ele>
        <time>2022-07-16T21:49:48Z</time>
      </trkpt>
      <trkpt lat="45.76033" lon="6.65723">
        <ele>2003</ele>
        <time>2022-07-16T21:49:49Z</time>
      </trkpt>
      <trkpt lat="45.76036" lon="6.65721">
        <ele>2003</ele>
        <time>2022-07-16T21:49:51Z</time>
      </trkpt>
      <trkpt lat="45.76037" lon="6.65719">
        <ele>2002</ele>
        <time>2022-07-16T21:49:52Z</time>
      </trkpt>
      <trkpt lat="45.76039" lon="6.65717">
        <ele>2002</ele>
        <time>2022-07-16T21:49:53Z</time>
      </trkpt>
      <trkpt lat="45.76041" lon="6.65716">
        <ele>2002</ele>
        <time>2022-07-16T21:49:54Z</time>
      </trkpt>
      <trkpt lat="45.76042" lon="6.65714">
        <ele>2002</ele>
        <time>2022-07-16T21:49:55Z</time>
      </trkpt>
      <trkpt lat="45.76044" lon="6.65713">
        <ele>2001</ele>
        <time>2022-07-16T21:49:56Z</time>
      </trkpt>
      <trkpt lat="45.76046" lon="6.65711">
        <ele>2001</ele>
        <time>2022-07-16T21:49:57Z</time>
      </trkpt>
      <trkpt lat="45.76047" lon="6.6571">
        <ele>2001</ele>
        <time>2022-07-16T21:49:58Z</time>
      </trkpt>
      <trkpt lat="45.7605" lon="6.65706">
        <ele>2001</ele>
        <time>2022-07-16T21:49:59Z</time>
      </trkpt>
      <trkpt lat="45.76052" lon="6.65704">
        <ele>2000</ele>
        <time>2022-07-16T21:50:01Z</time>
      </trkpt>
      <trkpt lat="45.76057" lon="6.657">
        <ele>2000</ele>
        <time>2022-07-16T21:50:03Z</time>
      </trkpt>
      <trkpt lat="45.76059" lon="6.65698">
        <ele>1999</ele>
        <time>2022-07-16T21:50:05Z</time>
      </trkpt>
      <trkpt lat="45.7606" lon="6.65696">
        <ele>1999</ele>
        <time>2022-07-16T21:50:06Z</time>
      </trkpt>
      <trkpt lat="45.76062" lon="6.65694">
        <ele>1999</ele>
        <time>2022-07-16T21:50:07Z</time>
      </trkpt>
      <trkpt lat="45.76065" lon="6.65691">
        <ele>1999</ele>
        <time>2022-07-16T21:50:08Z</time>
      </trkpt>
      <trkpt lat="45.76068" lon="6.65688">
        <ele>1998</ele>
        <time>2022-07-16T21:50:10Z</time>
      </trkpt>
      <trkpt lat="45.7607" lon="6.65687">
        <ele>1998</ele>
        <time>2022-07-16T21:50:11Z</time>
      </trkpt>
      <trkpt lat="45.76073" lon="6.65684">
        <ele>1998</ele>
        <time>2022-07-16T21:50:13Z</time>
      </trkpt>
      <trkpt lat="45.76074" lon="6.65682">
        <ele>1998</ele>
        <time>2022-07-16T21:50:14Z</time>
      </trkpt>
      <trkpt lat="45.76076" lon="6.65681">
        <ele>1998</ele>
        <time>2022-07-16T21:50:16Z</time>
      </trkpt>
      <trkpt lat="45.76078" lon="6.65679">
        <ele>1998</ele>
        <time>2022-07-16T21:50:17Z</time>
      </trkpt>
      <trkpt lat="45.76079" lon="6.65677">
        <ele>1997</ele>
        <time>2022-07-16T21:50:18Z</time>
      </trkpt>
      <trkpt lat="45.76084" lon="6.65672">
        <ele>1996</ele>
        <time>2022-07-16T21:50:20Z</time>
      </trkpt>
      <trkpt lat="45.76086" lon="6.6567">
        <ele>1996</ele>
        <time>2022-07-16T21:50:21Z</time>
      </trkpt>
      <trkpt lat="45.76087" lon="6.65669">
        <ele>1996</ele>
        <time>2022-07-16T21:50:23Z</time>
      </trkpt>
      <trkpt lat="45.76088" lon="6.65667">
        <ele>1996</ele>
        <time>2022-07-16T21:50:24Z</time>
      </trkpt>
      <trkpt lat="45.76091" lon="6.65664">
        <ele>1996</ele>
        <time>2022-07-16T21:50:25Z</time>
      </trkpt>
      <trkpt lat="45.76094" lon="6.6566">
        <ele>1996</ele>
        <time>2022-07-16T21:50:27Z</time>
      </trkpt>
      <trkpt lat="45.76096" lon="6.65658">
        <ele>1996</ele>
        <time>2022-07-16T21:50:29Z</time>
      </trkpt>
      <trkpt lat="45.76098" lon="6.65655">
        <ele>1996</ele>
        <time>2022-07-16T21:50:31Z</time>
      </trkpt>
      <trkpt lat="45.761" lon="6.65652">
        <ele>1996</ele>
        <time>2022-07-16T21:50:34Z</time>
      </trkpt>
      <trkpt lat="45.76101" lon="6.6565">
        <ele>1996</ele>
        <time>2022-07-16T21:50:36Z</time>
      </trkpt>
      <trkpt lat="45.76103" lon="6.65647">
        <ele>1996</ele>
        <time>2022-07-16T21:50:37Z</time>
      </trkpt>
      <trkpt lat="45.76105" lon="6.65643">
        <ele>1995</ele>
        <time>2022-07-16T21:50:39Z</time>
      </trkpt>
      <trkpt lat="45.76106" lon="6.65639">
        <ele>1994</ele>
        <time>2022-07-16T21:50:41Z</time>
      </trkpt>
      <trkpt lat="45.76107" lon="6.65636">
        <ele>1994</ele>
        <time>2022-07-16T21:50:44Z</time>
      </trkpt>
      <trkpt lat="45.76108" lon="6.65633">
        <ele>1994</ele>
        <time>2022-07-16T21:50:46Z</time>
      </trkpt>
      <trkpt lat="45.76109" lon="6.6563">
        <ele>1994</ele>
        <time>2022-07-16T21:50:47Z</time>
      </trkpt>
      <trkpt lat="45.7611" lon="6.65627">
        <ele>1994</ele>
        <time>2022-07-16T21:50:49Z</time>
      </trkpt>
      <trkpt lat="45.76111" lon="6.65624">
        <ele>1993</ele>
        <time>2022-07-16T21:50:51Z</time>
      </trkpt>
      <trkpt lat="45.76113" lon="6.6562">
        <ele>1993</ele>
        <time>2022-07-16T21:50:53Z</time>
      </trkpt>
      <trkpt lat="45.76114" lon="6.65617">
        <ele>1992</ele>
        <time>2022-07-16T21:50:56Z</time>
      </trkpt>
      <trkpt lat="45.76115" lon="6.65614">
        <ele>1991</ele>
        <time>2022-07-16T21:50:58Z</time>
      </trkpt>
      <trkpt lat="45.76116" lon="6.6561">
        <ele>1991</ele>
        <time>2022-07-16T21:51:00Z</time>
      </trkpt>
      <trkpt lat="45.76117" lon="6.65607">
        <ele>1991</ele>
        <time>2022-07-16T21:51:01Z</time>
      </trkpt>
      <trkpt lat="45.76118" lon="6.65603">
        <ele>1991</ele>
        <time>2022-07-16T21:51:03Z</time>
      </trkpt>
      <trkpt lat="45.76119" lon="6.656">
        <ele>1991</ele>
        <time>2022-07-16T21:51:05Z</time>
      </trkpt>
      <trkpt lat="45.7612" lon="6.65596">
        <ele>1991</ele>
        <time>2022-07-16T21:51:08Z</time>
      </trkpt>
      <trkpt lat="45.7612" lon="6.65592">
        <ele>1991</ele>
        <time>2022-07-16T21:51:10Z</time>
      </trkpt>
      <trkpt lat="45.76121" lon="6.65588">
        <ele>1991</ele>
        <time>2022-07-16T21:51:11Z</time>
      </trkpt>
      <trkpt lat="45.76122" lon="6.65584">
        <ele>1990</ele>
        <time>2022-07-16T21:51:13Z</time>
      </trkpt>
      <trkpt lat="45.76123" lon="6.65579">
        <ele>1990</ele>
        <time>2022-07-16T21:51:15Z</time>
      </trkpt>
      <trkpt lat="45.76124" lon="6.65575">
        <ele>1990</ele>
        <time>2022-07-16T21:51:18Z</time>
      </trkpt>
      <trkpt lat="45.76126" lon="6.65571">
        <ele>1990</ele>
        <time>2022-07-16T21:51:19Z</time>
      </trkpt>
      <trkpt lat="45.76127" lon="6.65567">
        <ele>1990</ele>
        <time>2022-07-16T21:51:21Z</time>
      </trkpt>
      <trkpt lat="45.76128" lon="6.65563">
        <ele>1989</ele>
        <time>2022-07-16T21:51:23Z</time>
      </trkpt>
      <trkpt lat="45.76129" lon="6.65559">
        <ele>1989</ele>
        <time>2022-07-16T21:51:26Z</time>
      </trkpt>
      <trkpt lat="45.76131" lon="6.65555">
        <ele>1989</ele>
        <time>2022-07-16T21:51:28Z</time>
      </trkpt>
      <trkpt lat="45.76133" lon="6.65552">
        <ele>1988</ele>
        <time>2022-07-16T21:51:29Z</time>
      </trkpt>
      <trkpt lat="45.76135" lon="6.65549">
        <ele>1988</ele>
        <time>2022-07-16T21:51:31Z</time>
      </trkpt>
      <trkpt lat="45.76138" lon="6.65546">
        <ele>1988</ele>
        <time>2022-07-16T21:51:34Z</time>
      </trkpt>
      <trkpt lat="45.7614" lon="6.65544">
        <ele>1988</ele>
        <time>2022-07-16T21:51:35Z</time>
      </trkpt>
      <trkpt lat="45.76143" lon="6.65541">
        <ele>1986</ele>
        <time>2022-07-16T21:51:38Z</time>
      </trkpt>
      <trkpt lat="45.76145" lon="6.65539">
        <ele>1986</ele>
        <time>2022-07-16T21:51:39Z</time>
      </trkpt>
      <trkpt lat="45.76148" lon="6.65537">
        <ele>1984</ele>
        <time>2022-07-16T21:51:42Z</time>
      </trkpt>
      <trkpt lat="45.76151" lon="6.65535">
        <ele>1984</ele>
        <time>2022-07-16T21:51:44Z</time>
      </trkpt>
      <trkpt lat="45.76153" lon="6.65533">
        <ele>1984</ele>
        <time>2022-07-16T21:51:46Z</time>
      </trkpt>
      <trkpt lat="45.76156" lon="6.65531">
        <ele>1984</ele>
        <time>2022-07-16T21:51:47Z</time>
      </trkpt>
      <trkpt lat="45.76159" lon="6.65528">
        <ele>1984</ele>
        <time>2022-07-16T21:51:50Z</time>
      </trkpt>
      <trkpt lat="45.76161" lon="6.65526">
        <ele>1983</ele>
        <time>2022-07-16T21:51:51Z</time>
      </trkpt>
      <trkpt lat="45.76164" lon="6.65523">
        <ele>1983</ele>
        <time>2022-07-16T21:51:53Z</time>
      </trkpt>
      <trkpt lat="45.76166" lon="6.65521">
        <ele>1982</ele>
        <time>2022-07-16T21:51:56Z</time>
      </trkpt>
      <trkpt lat="45.76168" lon="6.65518">
        <ele>1982</ele>
        <time>2022-07-16T21:51:57Z</time>
      </trkpt>
      <trkpt lat="45.7617" lon="6.65515">
        <ele>1982</ele>
        <time>2022-07-16T21:51:59Z</time>
      </trkpt>
      <trkpt lat="45.76172" lon="6.65512">
        <ele>1981</ele>
        <time>2022-07-16T21:52:02Z</time>
      </trkpt>
      <trkpt lat="45.76173" lon="6.65508">
        <ele>1981</ele>
        <time>2022-07-16T21:52:03Z</time>
      </trkpt>
      <trkpt lat="45.76175" lon="6.65505">
        <ele>1981</ele>
        <time>2022-07-16T21:52:06Z</time>
      </trkpt>
      <trkpt lat="45.76177" lon="6.65501">
        <ele>1981</ele>
        <time>2022-07-16T21:52:08Z</time>
      </trkpt>
      <trkpt lat="45.76178" lon="6.65498">
        <ele>1981</ele>
        <time>2022-07-16T21:52:09Z</time>
      </trkpt>
      <trkpt lat="45.76179" lon="6.65494">
        <ele>1980</ele>
        <time>2022-07-16T21:52:12Z</time>
      </trkpt>
      <trkpt lat="45.7618" lon="6.6549">
        <ele>1980</ele>
        <time>2022-07-16T21:52:14Z</time>
      </trkpt>
      <trkpt lat="45.76182" lon="6.65487">
        <ele>1980</ele>
        <time>2022-07-16T21:52:16Z</time>
      </trkpt>
      <trkpt lat="45.76184" lon="6.65483">
        <ele>1979</ele>
        <time>2022-07-16T21:52:18Z</time>
      </trkpt>
      <trkpt lat="45.76185" lon="6.6548">
        <ele>1979</ele>
        <time>2022-07-16T21:52:20Z</time>
      </trkpt>
      <trkpt lat="45.76187" lon="6.65477">
        <ele>1979</ele>
        <time>2022-07-16T21:52:21Z</time>
      </trkpt>
      <trkpt lat="45.76189" lon="6.65474">
        <ele>1978</ele>
        <time>2022-07-16T21:52:23Z</time>
      </trkpt>
      <trkpt lat="45.7619" lon="6.65471">
        <ele>1978</ele>
        <time>2022-07-16T21:52:25Z</time>
      </trkpt>
      <trkpt lat="45.76192" lon="6.65468">
        <ele>1978</ele>
        <time>2022-07-16T21:52:27Z</time>
      </trkpt>
      <trkpt lat="45.76194" lon="6.65464">
        <ele>1977</ele>
        <time>2022-07-16T21:52:30Z</time>
      </trkpt>
      <trkpt lat="45.76196" lon="6.65461">
        <ele>1977</ele>
        <time>2022-07-16T21:52:31Z</time>
      </trkpt>
      <trkpt lat="45.76198" lon="6.65458">
        <ele>1976</ele>
        <time>2022-07-16T21:52:34Z</time>
      </trkpt>
      <trkpt lat="45.762" lon="6.65455">
        <ele>1976</ele>
        <time>2022-07-16T21:52:35Z</time>
      </trkpt>
      <trkpt lat="45.76202" lon="6.65453">
        <ele>1976</ele>
        <time>2022-07-16T21:52:38Z</time>
      </trkpt>
      <trkpt lat="45.76205" lon="6.65451">
        <ele>1976</ele>
        <time>2022-07-16T21:52:40Z</time>
      </trkpt>
      <trkpt lat="45.76207" lon="6.65449">
        <ele>1976</ele>
        <time>2022-07-16T21:52:42Z</time>
      </trkpt>
      <trkpt lat="45.76209" lon="6.65447">
        <ele>1976</ele>
        <time>2022-07-16T21:52:43Z</time>
      </trkpt>
      <trkpt lat="45.76212" lon="6.65446">
        <ele>1975</ele>
        <time>2022-07-16T21:52:45Z</time>
      </trkpt>
      <trkpt lat="45.76214" lon="6.65443">
        <ele>1975</ele>
        <time>2022-07-16T21:52:48Z</time>
      </trkpt>
      <trkpt lat="45.76217" lon="6.65441">
        <ele>1974</ele>
        <time>2022-07-16T21:52:50Z</time>
      </trkpt>
      <trkpt lat="45.7622" lon="6.6544">
        <ele>1974</ele>
        <time>2022-07-16T21:52:52Z</time>
      </trkpt>
      <trkpt lat="45.76223" lon="6.65438">
        <ele>1974</ele>
        <time>2022-07-16T21:52:54Z</time>
      </trkpt>
      <trkpt lat="45.76225" lon="6.65437">
        <ele>1974</ele>
        <time>2022-07-16T21:52:56Z</time>
      </trkpt>
      <trkpt lat="45.76228" lon="6.65435">
        <ele>1974</ele>
        <time>2022-07-16T21:52:58Z</time>
      </trkpt>
      <trkpt lat="45.76231" lon="6.65434">
        <ele>1973</ele>
        <time>2022-07-16T21:52:59Z</time>
      </trkpt>
      <trkpt lat="45.76233" lon="6.65433">
        <ele>1972</ele>
        <time>2022-07-16T21:53:01Z</time>
      </trkpt>
      <trkpt lat="45.76236" lon="6.65431">
        <ele>1972</ele>
        <time>2022-07-16T21:53:03Z</time>
      </trkpt>
      <trkpt lat="45.76239" lon="6.6543">
        <ele>1971</ele>
        <time>2022-07-16T21:53:06Z</time>
      </trkpt>
      <trkpt lat="45.76241" lon="6.65429">
        <ele>1971</ele>
        <time>2022-07-16T21:53:07Z</time>
      </trkpt>
      <trkpt lat="45.76243" lon="6.65429">
        <ele>1971</ele>
        <time>2022-07-16T21:53:08Z</time>
      </trkpt>
      <trkpt lat="45.76246" lon="6.65427">
        <ele>1971</ele>
        <time>2022-07-16T21:53:10Z</time>
      </trkpt>
      <trkpt lat="45.76249" lon="6.65425">
        <ele>1971</ele>
        <time>2022-07-16T21:53:11Z</time>
      </trkpt>
      <trkpt lat="45.76251" lon="6.65422">
        <ele>1971</ele>
        <time>2022-07-16T21:53:13Z</time>
      </trkpt>
      <trkpt lat="45.76253" lon="6.65421">
        <ele>1971</ele>
        <time>2022-07-16T21:53:14Z</time>
      </trkpt>
      <trkpt lat="45.76255" lon="6.6542">
        <ele>1970</ele>
        <time>2022-07-16T21:53:15Z</time>
      </trkpt>
      <trkpt lat="45.76258" lon="6.65418">
        <ele>1970</ele>
        <time>2022-07-16T21:53:18Z</time>
      </trkpt>
      <trkpt lat="45.7626" lon="6.65417">
        <ele>1969</ele>
        <time>2022-07-16T21:53:19Z</time>
      </trkpt>
      <trkpt lat="45.76262" lon="6.65415">
        <ele>1969</ele>
        <time>2022-07-16T21:53:21Z</time>
      </trkpt>
      <trkpt lat="45.76264" lon="6.65414">
        <ele>1969</ele>
        <time>2022-07-16T21:53:24Z</time>
      </trkpt>
      <trkpt lat="45.76267" lon="6.65413">
        <ele>1969</ele>
        <time>2022-07-16T21:53:25Z</time>
      </trkpt>
      <trkpt lat="45.7627" lon="6.65412">
        <ele>1968</ele>
        <time>2022-07-16T21:53:28Z</time>
      </trkpt>
      <trkpt lat="45.76272" lon="6.65411">
        <ele>1968</ele>
        <time>2022-07-16T21:53:30Z</time>
      </trkpt>
      <trkpt lat="45.76275" lon="6.6541">
        <ele>1968</ele>
        <time>2022-07-16T21:53:31Z</time>
      </trkpt>
      <trkpt lat="45.76277" lon="6.6541">
        <ele>1968</ele>
        <time>2022-07-16T21:53:34Z</time>
      </trkpt>
      <trkpt lat="45.7628" lon="6.65409">
        <ele>1968</ele>
        <time>2022-07-16T21:53:35Z</time>
      </trkpt>
      <trkpt lat="45.76283" lon="6.65408">
        <ele>1967</ele>
        <time>2022-07-16T21:53:38Z</time>
      </trkpt>
      <trkpt lat="45.76286" lon="6.65408">
        <ele>1966</ele>
        <time>2022-07-16T21:53:40Z</time>
      </trkpt>
      <trkpt lat="45.76288" lon="6.65408">
        <ele>1966</ele>
        <time>2022-07-16T21:53:41Z</time>
      </trkpt>
      <trkpt lat="45.76291" lon="6.65408">
        <ele>1966</ele>
        <time>2022-07-16T21:53:43Z</time>
      </trkpt>
      <trkpt lat="45.76293" lon="6.65408">
        <ele>1965</ele>
        <time>2022-07-16T21:53:46Z</time>
      </trkpt>
      <trkpt lat="45.76296" lon="6.65408">
        <ele>1964</ele>
        <time>2022-07-16T21:53:48Z</time>
      </trkpt>
      <trkpt lat="45.76299" lon="6.65408">
        <ele>1964</ele>
        <time>2022-07-16T21:53:49Z</time>
      </trkpt>
      <trkpt lat="45.76301" lon="6.65408">
        <ele>1964</ele>
        <time>2022-07-16T21:53:51Z</time>
      </trkpt>
      <trkpt lat="45.76303" lon="6.65408">
        <ele>1964</ele>
        <time>2022-07-16T21:53:54Z</time>
      </trkpt>
      <trkpt lat="45.76305" lon="6.65409">
        <ele>1963</ele>
        <time>2022-07-16T21:53:56Z</time>
      </trkpt>
      <trkpt lat="45.76308" lon="6.65409">
        <ele>1963</ele>
        <time>2022-07-16T21:53:57Z</time>
      </trkpt>
      <trkpt lat="45.76311" lon="6.65409">
        <ele>1963</ele>
        <time>2022-07-16T21:54:00Z</time>
      </trkpt>
      <trkpt lat="45.76314" lon="6.65409">
        <ele>1962</ele>
        <time>2022-07-16T21:54:02Z</time>
      </trkpt>
      <trkpt lat="45.76317" lon="6.65409">
        <ele>1962</ele>
        <time>2022-07-16T21:54:03Z</time>
      </trkpt>
      <trkpt lat="45.7632" lon="6.6541">
        <ele>1962</ele>
        <time>2022-07-16T21:54:06Z</time>
      </trkpt>
      <trkpt lat="45.76322" lon="6.6541">
        <ele>1960</ele>
        <time>2022-07-16T21:54:07Z</time>
      </trkpt>
      <trkpt lat="45.76325" lon="6.6541">
        <ele>1960</ele>
        <time>2022-07-16T21:54:09Z</time>
      </trkpt>
      <trkpt lat="45.76327" lon="6.65411">
        <ele>1960</ele>
        <time>2022-07-16T21:54:11Z</time>
      </trkpt>
      <trkpt lat="45.7633" lon="6.65412">
        <ele>1960</ele>
        <time>2022-07-16T21:54:14Z</time>
      </trkpt>
      <trkpt lat="45.76333" lon="6.65414">
        <ele>1960</ele>
        <time>2022-07-16T21:54:16Z</time>
      </trkpt>
      <trkpt lat="45.76336" lon="6.65416">
        <ele>1960</ele>
        <time>2022-07-16T21:54:22Z</time>
      </trkpt>
      <trkpt lat="45.76338" lon="6.65418">
        <ele>1960</ele>
        <time>2022-07-16T21:54:24Z</time>
      </trkpt>
      <trkpt lat="45.76341" lon="6.6542">
        <ele>1959</ele>
        <time>2022-07-16T21:54:26Z</time>
      </trkpt>
      <trkpt lat="45.76343" lon="6.65422">
        <ele>1959</ele>
        <time>2022-07-16T21:54:27Z</time>
      </trkpt>
      <trkpt lat="45.76345" lon="6.65424">
        <ele>1958</ele>
        <time>2022-07-16T21:54:28Z</time>
      </trkpt>
      <trkpt lat="45.76347" lon="6.65427">
        <ele>1958</ele>
        <time>2022-07-16T21:54:30Z</time>
      </trkpt>
      <trkpt lat="45.7635" lon="6.6543">
        <ele>1958</ele>
        <time>2022-07-16T21:54:32Z</time>
      </trkpt>
      <trkpt lat="45.76352" lon="6.65432">
        <ele>1958</ele>
        <time>2022-07-16T21:54:34Z</time>
      </trkpt>
      <trkpt lat="45.76355" lon="6.65435">
        <ele>1958</ele>
        <time>2022-07-16T21:54:35Z</time>
      </trkpt>
      <trkpt lat="45.76357" lon="6.65438">
        <ele>1957</ele>
        <time>2022-07-16T21:54:38Z</time>
      </trkpt>
      <trkpt lat="45.7636" lon="6.6544">
        <ele>1957</ele>
        <time>2022-07-16T21:54:39Z</time>
      </trkpt>
      <trkpt lat="45.76362" lon="6.65443">
        <ele>1956</ele>
        <time>2022-07-16T21:54:42Z</time>
      </trkpt>
      <trkpt lat="45.76365" lon="6.65446">
        <ele>1955</ele>
        <time>2022-07-16T21:54:44Z</time>
      </trkpt>
      <trkpt lat="45.76368" lon="6.65449">
        <ele>1955</ele>
        <time>2022-07-16T21:54:45Z</time>
      </trkpt>
      <trkpt lat="45.7637" lon="6.65452">
        <ele>1955</ele>
        <time>2022-07-16T21:54:48Z</time>
      </trkpt>
      <trkpt lat="45.76372" lon="6.65455">
        <ele>1955</ele>
        <time>2022-07-16T21:54:49Z</time>
      </trkpt>
      <trkpt lat="45.76374" lon="6.65458">
        <ele>1955</ele>
        <time>2022-07-16T21:54:51Z</time>
      </trkpt>
      <trkpt lat="45.76376" lon="6.65461">
        <ele>1955</ele>
        <time>2022-07-16T21:54:54Z</time>
      </trkpt>
      <trkpt lat="45.76378" lon="6.65465">
        <ele>1954</ele>
        <time>2022-07-16T21:54:56Z</time>
      </trkpt>
      <trkpt lat="45.76379" lon="6.65468">
        <ele>1954</ele>
        <time>2022-07-16T21:54:58Z</time>
      </trkpt>
      <trkpt lat="45.76381" lon="6.65472">
        <ele>1954</ele>
        <time>2022-07-16T21:54:59Z</time>
      </trkpt>
      <trkpt lat="45.76383" lon="6.65476">
        <ele>1953</ele>
        <time>2022-07-16T21:55:01Z</time>
      </trkpt>
      <trkpt lat="45.76384" lon="6.6548">
        <ele>1953</ele>
        <time>2022-07-16T21:55:04Z</time>
      </trkpt>
      <trkpt lat="45.76386" lon="6.65484">
        <ele>1952</ele>
        <time>2022-07-16T21:55:06Z</time>
      </trkpt>
      <trkpt lat="45.76387" lon="6.65487">
        <ele>1952</ele>
        <time>2022-07-16T21:55:07Z</time>
      </trkpt>
      <trkpt lat="45.76389" lon="6.6549">
        <ele>1952</ele>
        <time>2022-07-16T21:55:10Z</time>
      </trkpt>
      <trkpt lat="45.7639" lon="6.65493">
        <ele>1952</ele>
        <time>2022-07-16T21:55:12Z</time>
      </trkpt>
      <trkpt lat="45.76392" lon="6.65497">
        <ele>1951</ele>
        <time>2022-07-16T21:55:14Z</time>
      </trkpt>
      <trkpt lat="45.76394" lon="6.655">
        <ele>1951</ele>
        <time>2022-07-16T21:55:16Z</time>
      </trkpt>
      <trkpt lat="45.76395" lon="6.65504">
        <ele>1950</ele>
        <time>2022-07-16T21:55:18Z</time>
      </trkpt>
      <trkpt lat="45.76397" lon="6.65508">
        <ele>1950</ele>
        <time>2022-07-16T21:55:19Z</time>
      </trkpt>
      <trkpt lat="45.76398" lon="6.65512">
        <ele>1950</ele>
        <time>2022-07-16T21:55:21Z</time>
      </trkpt>
      <trkpt lat="45.764" lon="6.65519">
        <ele>1950</ele>
        <time>2022-07-16T21:55:24Z</time>
      </trkpt>
      <trkpt lat="45.764" lon="6.65523">
        <ele>1950</ele>
        <time>2022-07-16T21:55:26Z</time>
      </trkpt>
      <trkpt lat="45.76401" lon="6.65528">
        <ele>1950</ele>
        <time>2022-07-16T21:55:28Z</time>
      </trkpt>
      <trkpt lat="45.76401" lon="6.65532">
        <ele>1949</ele>
        <time>2022-07-16T21:55:30Z</time>
      </trkpt>
      <trkpt lat="45.76401" lon="6.65536">
        <ele>1949</ele>
        <time>2022-07-16T21:55:32Z</time>
      </trkpt>
      <trkpt lat="45.76401" lon="6.6554">
        <ele>1949</ele>
        <time>2022-07-16T21:55:34Z</time>
      </trkpt>
      <trkpt lat="45.76401" lon="6.65544">
        <ele>1948</ele>
        <time>2022-07-16T21:55:36Z</time>
      </trkpt>
      <trkpt lat="45.76401" lon="6.65547">
        <ele>1947</ele>
        <time>2022-07-16T21:55:39Z</time>
      </trkpt>
      <trkpt lat="45.76402" lon="6.6555">
        <ele>1947</ele>
        <time>2022-07-16T21:55:41Z</time>
      </trkpt>
      <trkpt lat="45.76402" lon="6.65554">
        <ele>1946</ele>
        <time>2022-07-16T21:55:42Z</time>
      </trkpt>
      <trkpt lat="45.76403" lon="6.65557">
        <ele>1946</ele>
        <time>2022-07-16T21:55:44Z</time>
      </trkpt>
      <trkpt lat="45.76404" lon="6.6556">
        <ele>1946</ele>
        <time>2022-07-16T21:55:47Z</time>
      </trkpt>
      <trkpt lat="45.76406" lon="6.65562">
        <ele>1946</ele>
        <time>2022-07-16T21:55:48Z</time>
      </trkpt>
      <trkpt lat="45.76409" lon="6.65562">
        <ele>1945</ele>
        <time>2022-07-16T21:55:51Z</time>
      </trkpt>
      <trkpt lat="45.76411" lon="6.65562">
        <ele>1945</ele>
        <time>2022-07-16T21:55:52Z</time>
      </trkpt>
      <trkpt lat="45.76414" lon="6.65561">
        <ele>1944</ele>
        <time>2022-07-16T21:55:55Z</time>
      </trkpt>
      <trkpt lat="45.76416" lon="6.65559">
        <ele>1944</ele>
        <time>2022-07-16T21:55:56Z</time>
      </trkpt>
      <trkpt lat="45.76418" lon="6.65557">
        <ele>1944</ele>
        <time>2022-07-16T21:55:58Z</time>
      </trkpt>
      <trkpt lat="45.76419" lon="6.65554">
        <ele>1944</ele>
        <time>2022-07-16T21:56:01Z</time>
      </trkpt>
      <trkpt lat="45.76421" lon="6.65551">
        <ele>1943</ele>
        <time>2022-07-16T21:56:03Z</time>
      </trkpt>
      <trkpt lat="45.76422" lon="6.65548">
        <ele>1943</ele>
        <time>2022-07-16T21:56:04Z</time>
      </trkpt>
      <trkpt lat="45.76423" lon="6.65545">
        <ele>1942</ele>
        <time>2022-07-16T21:56:06Z</time>
      </trkpt>
      <trkpt lat="45.76423" lon="6.65541">
        <ele>1942</ele>
        <time>2022-07-16T21:56:09Z</time>
      </trkpt>
      <trkpt lat="45.76422" lon="6.65537">
        <ele>1942</ele>
        <time>2022-07-16T21:56:11Z</time>
      </trkpt>
      <trkpt lat="45.76421" lon="6.65533">
        <ele>1941</ele>
        <time>2022-07-16T21:56:13Z</time>
      </trkpt>
      <trkpt lat="45.76419" lon="6.65529">
        <ele>1940</ele>
        <time>2022-07-16T21:56:15Z</time>
      </trkpt>
      <trkpt lat="45.76418" lon="6.65526">
        <ele>1940</ele>
        <time>2022-07-16T21:56:16Z</time>
      </trkpt>
      <trkpt lat="45.76417" lon="6.65522">
        <ele>1941</ele>
        <time>2022-07-16T21:56:19Z</time>
      </trkpt>
      <trkpt lat="45.76416" lon="6.65519">
        <ele>1941</ele>
        <time>2022-07-16T21:56:21Z</time>
      </trkpt>
      <trkpt lat="45.76415" lon="6.65515">
        <ele>1941</ele>
        <time>2022-07-16T21:56:22Z</time>
      </trkpt>
      <trkpt lat="45.76414" lon="6.65512">
        <ele>1941</ele>
        <time>2022-07-16T21:56:25Z</time>
      </trkpt>
      <trkpt lat="45.76414" lon="6.65509">
        <ele>1941</ele>
        <time>2022-07-16T21:56:26Z</time>
      </trkpt>
      <trkpt lat="45.76413" lon="6.65505">
        <ele>1941</ele>
        <time>2022-07-16T21:56:28Z</time>
      </trkpt>
      <trkpt lat="45.76412" lon="6.65502">
        <ele>1940</ele>
        <time>2022-07-16T21:56:30Z</time>
      </trkpt>
      <trkpt lat="45.76411" lon="6.65499">
        <ele>1940</ele>
        <time>2022-07-16T21:56:32Z</time>
      </trkpt>
      <trkpt lat="45.76411" lon="6.65494">
        <ele>1939</ele>
        <time>2022-07-16T21:56:34Z</time>
      </trkpt>
      <trkpt lat="45.7641" lon="6.65491">
        <ele>1939</ele>
        <time>2022-07-16T21:56:37Z</time>
      </trkpt>
      <trkpt lat="45.76408" lon="6.65487">
        <ele>1938</ele>
        <time>2022-07-16T21:56:39Z</time>
      </trkpt>
      <trkpt lat="45.76406" lon="6.65484">
        <ele>1938</ele>
        <time>2022-07-16T21:56:40Z</time>
      </trkpt>
      <trkpt lat="45.76404" lon="6.6548">
        <ele>1938</ele>
        <time>2022-07-16T21:56:43Z</time>
      </trkpt>
      <trkpt lat="45.76403" lon="6.65477">
        <ele>1938</ele>
        <time>2022-07-16T21:56:44Z</time>
      </trkpt>
      <trkpt lat="45.76401" lon="6.65474">
        <ele>1937</ele>
        <time>2022-07-16T21:56:47Z</time>
      </trkpt>
      <trkpt lat="45.76399" lon="6.65471">
        <ele>1937</ele>
        <time>2022-07-16T21:56:48Z</time>
      </trkpt>
      <trkpt lat="45.76398" lon="6.65467">
        <ele>1936</ele>
        <time>2022-07-16T21:56:50Z</time>
      </trkpt>
      <trkpt lat="45.76397" lon="6.65464">
        <ele>1936</ele>
        <time>2022-07-16T21:56:52Z</time>
      </trkpt>
      <trkpt lat="45.76395" lon="6.6546">
        <ele>1936</ele>
        <time>2022-07-16T21:56:55Z</time>
      </trkpt>
      <trkpt lat="45.76395" lon="6.65456">
        <ele>1936</ele>
        <time>2022-07-16T21:56:57Z</time>
      </trkpt>
      <trkpt lat="45.76394" lon="6.65453">
        <ele>1935</ele>
        <time>2022-07-16T21:56:58Z</time>
      </trkpt>
      <trkpt lat="45.76392" lon="6.65449">
        <ele>1935</ele>
        <time>2022-07-16T21:57:01Z</time>
      </trkpt>
      <trkpt lat="45.76392" lon="6.65446">
        <ele>1935</ele>
        <time>2022-07-16T21:57:02Z</time>
      </trkpt>
      <trkpt lat="45.76391" lon="6.65442">
        <ele>1935</ele>
        <time>2022-07-16T21:57:04Z</time>
      </trkpt>
      <trkpt lat="45.76388" lon="6.6544">
        <ele>1935</ele>
        <time>2022-07-16T21:57:06Z</time>
      </trkpt>
      <trkpt lat="45.76386" lon="6.65436">
        <ele>1934</ele>
        <time>2022-07-16T21:57:09Z</time>
      </trkpt>
      <trkpt lat="45.76384" lon="6.65434">
        <ele>1934</ele>
        <time>2022-07-16T21:57:11Z</time>
      </trkpt>
      <trkpt lat="45.76383" lon="6.65429">
        <ele>1934</ele>
        <time>2022-07-16T21:57:12Z</time>
      </trkpt>
      <trkpt lat="45.76383" lon="6.65427">
        <ele>1934</ele>
        <time>2022-07-16T21:57:14Z</time>
      </trkpt>
      <trkpt lat="45.76383" lon="6.65422">
        <ele>1933</ele>
        <time>2022-07-16T21:57:16Z</time>
      </trkpt>
      <trkpt lat="45.76381" lon="6.65419">
        <ele>1932</ele>
        <time>2022-07-16T21:57:18Z</time>
      </trkpt>
      <trkpt lat="45.7638" lon="6.65416">
        <ele>1932</ele>
        <time>2022-07-16T21:57:19Z</time>
      </trkpt>
      <trkpt lat="45.76379" lon="6.65412">
        <ele>1932</ele>
        <time>2022-07-16T21:57:21Z</time>
      </trkpt>
      <trkpt lat="45.76378" lon="6.65409">
        <ele>1931</ele>
        <time>2022-07-16T21:57:23Z</time>
      </trkpt>
      <trkpt lat="45.76377" lon="6.65407">
        <ele>1931</ele>
        <time>2022-07-16T21:57:25Z</time>
      </trkpt>
      <trkpt lat="45.76376" lon="6.65403">
        <ele>1931</ele>
        <time>2022-07-16T21:57:27Z</time>
      </trkpt>
      <trkpt lat="45.76374" lon="6.65399">
        <ele>1930</ele>
        <time>2022-07-16T21:57:28Z</time>
      </trkpt>
      <trkpt lat="45.76373" lon="6.65395">
        <ele>1930</ele>
        <time>2022-07-16T21:57:30Z</time>
      </trkpt>
      <trkpt lat="45.76373" lon="6.65391">
        <ele>1930</ele>
        <time>2022-07-16T21:57:33Z</time>
      </trkpt>
      <trkpt lat="45.76372" lon="6.65386">
        <ele>1930</ele>
        <time>2022-07-16T21:57:35Z</time>
      </trkpt>
      <trkpt lat="45.76371" lon="6.65383">
        <ele>1929</ele>
        <time>2022-07-16T21:57:36Z</time>
      </trkpt>
      <trkpt lat="45.7637" lon="6.65379">
        <ele>1929</ele>
        <time>2022-07-16T21:57:39Z</time>
      </trkpt>
      <trkpt lat="45.76369" lon="6.65376">
        <ele>1929</ele>
        <time>2022-07-16T21:57:40Z</time>
      </trkpt>
      <trkpt lat="45.76368" lon="6.65373">
        <ele>1928</ele>
        <time>2022-07-16T21:57:43Z</time>
      </trkpt>
      <trkpt lat="45.76366" lon="6.6537">
        <ele>1928</ele>
        <time>2022-07-16T21:57:44Z</time>
      </trkpt>
      <trkpt lat="45.76363" lon="6.65366">
        <ele>1927</ele>
        <time>2022-07-16T21:57:47Z</time>
      </trkpt>
      <trkpt lat="45.76362" lon="6.65363">
        <ele>1927</ele>
        <time>2022-07-16T21:57:49Z</time>
      </trkpt>
      <trkpt lat="45.7636" lon="6.65359">
        <ele>1927</ele>
        <time>2022-07-16T21:57:51Z</time>
      </trkpt>
      <trkpt lat="45.76358" lon="6.65356">
        <ele>1927</ele>
        <time>2022-07-16T21:57:53Z</time>
      </trkpt>
      <trkpt lat="45.76356" lon="6.65353">
        <ele>1927</ele>
        <time>2022-07-16T21:57:54Z</time>
      </trkpt>
      <trkpt lat="45.76355" lon="6.65349">
        <ele>1926</ele>
        <time>2022-07-16T21:57:57Z</time>
      </trkpt>
      <trkpt lat="45.76353" lon="6.65345">
        <ele>1926</ele>
        <time>2022-07-16T21:57:58Z</time>
      </trkpt>
      <trkpt lat="45.76351" lon="6.65342">
        <ele>1925</ele>
        <time>2022-07-16T21:58:01Z</time>
      </trkpt>
      <trkpt lat="45.76348" lon="6.65338">
        <ele>1925</ele>
        <time>2022-07-16T21:58:02Z</time>
      </trkpt>
      <trkpt lat="45.76346" lon="6.65335">
        <ele>1925</ele>
        <time>2022-07-16T21:58:04Z</time>
      </trkpt>
      <trkpt lat="45.76344" lon="6.65332">
        <ele>1924</ele>
        <time>2022-07-16T21:58:07Z</time>
      </trkpt>
      <trkpt lat="45.76342" lon="6.65329">
        <ele>1924</ele>
        <time>2022-07-16T21:58:08Z</time>
      </trkpt>
      <trkpt lat="45.76341" lon="6.65325">
        <ele>1924</ele>
        <time>2022-07-16T21:58:10Z</time>
      </trkpt>
      <trkpt lat="45.76339" lon="6.65321">
        <ele>1924</ele>
        <time>2022-07-16T21:58:13Z</time>
      </trkpt>
      <trkpt lat="45.76338" lon="6.65318">
        <ele>1923</ele>
        <time>2022-07-16T21:58:15Z</time>
      </trkpt>
      <trkpt lat="45.76337" lon="6.65315">
        <ele>1923</ele>
        <time>2022-07-16T21:58:16Z</time>
      </trkpt>
      <trkpt lat="45.76334" lon="6.65312">
        <ele>1922</ele>
        <time>2022-07-16T21:58:18Z</time>
      </trkpt>
      <trkpt lat="45.76333" lon="6.65309">
        <ele>1922</ele>
        <time>2022-07-16T21:58:20Z</time>
      </trkpt>
      <trkpt lat="45.76331" lon="6.65305">
        <ele>1922</ele>
        <time>2022-07-16T21:58:23Z</time>
      </trkpt>
      <trkpt lat="45.76329" lon="6.65302">
        <ele>1922</ele>
        <time>2022-07-16T21:58:24Z</time>
      </trkpt>
      <trkpt lat="45.76328" lon="6.65298">
        <ele>1922</ele>
        <time>2022-07-16T21:58:27Z</time>
      </trkpt>
      <trkpt lat="45.76328" lon="6.65293">
        <ele>1921</ele>
        <time>2022-07-16T21:58:29Z</time>
      </trkpt>
      <trkpt lat="45.76329" lon="6.65289">
        <ele>1921</ele>
        <time>2022-07-16T21:58:31Z</time>
      </trkpt>
      <trkpt lat="45.76331" lon="6.65284">
        <ele>1921</ele>
        <time>2022-07-16T21:58:32Z</time>
      </trkpt>
      <trkpt lat="45.76333" lon="6.65282">
        <ele>1920</ele>
        <time>2022-07-16T21:58:33Z</time>
      </trkpt>
      <trkpt lat="45.76334" lon="6.6528">
        <ele>1920</ele>
        <time>2022-07-16T21:58:34Z</time>
      </trkpt>
      <trkpt lat="45.76337" lon="6.65276">
        <ele>1920</ele>
        <time>2022-07-16T21:58:36Z</time>
      </trkpt>
      <trkpt lat="45.76339" lon="6.65275">
        <ele>1920</ele>
        <time>2022-07-16T21:58:37Z</time>
      </trkpt>
      <trkpt lat="45.76342" lon="6.65273">
        <ele>1920</ele>
        <time>2022-07-16T21:58:39Z</time>
      </trkpt>
      <trkpt lat="45.76346" lon="6.65271">
        <ele>1920</ele>
        <time>2022-07-16T21:58:41Z</time>
      </trkpt>
      <trkpt lat="45.76347" lon="6.6527">
        <ele>1919</ele>
        <time>2022-07-16T21:58:43Z</time>
      </trkpt>
      <trkpt lat="45.7635" lon="6.6527">
        <ele>1918</ele>
        <time>2022-07-16T21:58:45Z</time>
      </trkpt>
      <trkpt lat="45.76352" lon="6.65269">
        <ele>1918</ele>
        <time>2022-07-16T21:58:47Z</time>
      </trkpt>
      <trkpt lat="45.76352" lon="6.65269">
        <ele>1919</ele>
        <time>2022-07-16T21:59:02Z</time>
      </trkpt>
      <trkpt lat="45.76355" lon="6.65269">
        <ele>1919</ele>
        <time>2022-07-16T21:59:14Z</time>
      </trkpt>
      <trkpt lat="45.76358" lon="6.65269">
        <ele>1919</ele>
        <time>2022-07-16T21:59:16Z</time>
      </trkpt>
      <trkpt lat="45.76361" lon="6.6527">
        <ele>1918</ele>
        <time>2022-07-16T21:59:19Z</time>
      </trkpt>
      <trkpt lat="45.76364" lon="6.6527">
        <ele>1918</ele>
        <time>2022-07-16T21:59:21Z</time>
      </trkpt>
      <trkpt lat="45.76367" lon="6.6527">
        <ele>1918</ele>
        <time>2022-07-16T21:59:22Z</time>
      </trkpt>
      <trkpt lat="45.76371" lon="6.65272">
        <ele>1917</ele>
        <time>2022-07-16T21:59:23Z</time>
      </trkpt>
      <trkpt lat="45.76373" lon="6.65272">
        <ele>1916</ele>
        <time>2022-07-16T21:59:25Z</time>
      </trkpt>
      <trkpt lat="45.76376" lon="6.65274">
        <ele>1916</ele>
        <time>2022-07-16T21:59:26Z</time>
      </trkpt>
      <trkpt lat="45.76379" lon="6.65276">
        <ele>1916</ele>
        <time>2022-07-16T21:59:27Z</time>
      </trkpt>
      <trkpt lat="45.76381" lon="6.65277">
        <ele>1916</ele>
        <time>2022-07-16T21:59:28Z</time>
      </trkpt>
      <trkpt lat="45.76385" lon="6.6528">
        <ele>1916</ele>
        <time>2022-07-16T21:59:30Z</time>
      </trkpt>
      <trkpt lat="45.76386" lon="6.65282">
        <ele>1916</ele>
        <time>2022-07-16T21:59:31Z</time>
      </trkpt>
      <trkpt lat="45.76389" lon="6.65286">
        <ele>1916</ele>
        <time>2022-07-16T21:59:33Z</time>
      </trkpt>
      <trkpt lat="45.76391" lon="6.65288">
        <ele>1916</ele>
        <time>2022-07-16T21:59:34Z</time>
      </trkpt>
      <trkpt lat="45.76392" lon="6.6529">
        <ele>1915</ele>
        <time>2022-07-16T21:59:35Z</time>
      </trkpt>
      <trkpt lat="45.76395" lon="6.65294">
        <ele>1915</ele>
        <time>2022-07-16T21:59:37Z</time>
      </trkpt>
      <trkpt lat="45.76397" lon="6.65299">
        <ele>1914</ele>
        <time>2022-07-16T21:59:39Z</time>
      </trkpt>
      <trkpt lat="45.76397" lon="6.65301">
        <ele>1913</ele>
        <time>2022-07-16T21:59:41Z</time>
      </trkpt>
      <trkpt lat="45.76398" lon="6.65304">
        <ele>1913</ele>
        <time>2022-07-16T21:59:42Z</time>
      </trkpt>
      <trkpt lat="45.764" lon="6.65311">
        <ele>1913</ele>
        <time>2022-07-16T21:59:44Z</time>
      </trkpt>
      <trkpt lat="45.76401" lon="6.65314">
        <ele>1912</ele>
        <time>2022-07-16T21:59:46Z</time>
      </trkpt>
      <trkpt lat="45.76402" lon="6.65316">
        <ele>1911</ele>
        <time>2022-07-16T21:59:47Z</time>
      </trkpt>
      <trkpt lat="45.76403" lon="6.65322">
        <ele>1910</ele>
        <time>2022-07-16T21:59:48Z</time>
      </trkpt>
      <trkpt lat="45.76405" lon="6.65327">
        <ele>1910</ele>
        <time>2022-07-16T21:59:50Z</time>
      </trkpt>
      <trkpt lat="45.76406" lon="6.6533">
        <ele>1910</ele>
        <time>2022-07-16T21:59:51Z</time>
      </trkpt>
      <trkpt lat="45.76408" lon="6.65335">
        <ele>1909</ele>
        <time>2022-07-16T21:59:53Z</time>
      </trkpt>
      <trkpt lat="45.76411" lon="6.6534">
        <ele>1909</ele>
        <time>2022-07-16T21:59:55Z</time>
      </trkpt>
      <trkpt lat="45.76412" lon="6.65343">
        <ele>1909</ele>
        <time>2022-07-16T21:59:57Z</time>
      </trkpt>
      <trkpt lat="45.76414" lon="6.65348">
        <ele>1909</ele>
        <time>2022-07-16T21:59:58Z</time>
      </trkpt>
      <trkpt lat="45.76417" lon="6.65354">
        <ele>1908</ele>
        <time>2022-07-16T22:00:00Z</time>
      </trkpt>
      <trkpt lat="45.76418" lon="6.65357">
        <ele>1908</ele>
        <time>2022-07-16T22:00:03Z</time>
      </trkpt>
      <trkpt lat="45.7642" lon="6.6536">
        <ele>1908</ele>
        <time>2022-07-16T22:00:04Z</time>
      </trkpt>
      <trkpt lat="45.76421" lon="6.65363">
        <ele>1908</ele>
        <time>2022-07-16T22:00:07Z</time>
      </trkpt>
      <trkpt lat="45.76422" lon="6.65365">
        <ele>1906</ele>
        <time>2022-07-16T22:00:08Z</time>
      </trkpt>
      <trkpt lat="45.76423" lon="6.65368">
        <ele>1905</ele>
        <time>2022-07-16T22:00:09Z</time>
      </trkpt>
      <trkpt lat="45.76426" lon="6.65373">
        <ele>1905</ele>
        <time>2022-07-16T22:00:10Z</time>
      </trkpt>
      <trkpt lat="45.76427" lon="6.65375">
        <ele>1905</ele>
        <time>2022-07-16T22:00:11Z</time>
      </trkpt>
      <trkpt lat="45.76428" lon="6.65377">
        <ele>1905</ele>
        <time>2022-07-16T22:00:13Z</time>
      </trkpt>
      <trkpt lat="45.7643" lon="6.65379">
        <ele>1905</ele>
        <time>2022-07-16T22:00:14Z</time>
      </trkpt>
      <trkpt lat="45.76431" lon="6.6538">
        <ele>1904</ele>
        <time>2022-07-16T22:00:15Z</time>
      </trkpt>
      <trkpt lat="45.76435" lon="6.65382">
        <ele>1904</ele>
        <time>2022-07-16T22:00:16Z</time>
      </trkpt>
      <trkpt lat="45.76438" lon="6.65381">
        <ele>1904</ele>
        <time>2022-07-16T22:00:19Z</time>
      </trkpt>
      <trkpt lat="45.76441" lon="6.65378">
        <ele>1903</ele>
        <time>2022-07-16T22:00:20Z</time>
      </trkpt>
      <trkpt lat="45.76441" lon="6.65374">
        <ele>1903</ele>
        <time>2022-07-16T22:00:22Z</time>
      </trkpt>
      <trkpt lat="45.76442" lon="6.65369">
        <ele>1902</ele>
        <time>2022-07-16T22:00:24Z</time>
      </trkpt>
      <trkpt lat="45.76442" lon="6.65366">
        <ele>1901</ele>
        <time>2022-07-16T22:00:26Z</time>
      </trkpt>
      <trkpt lat="45.76441" lon="6.65361">
        <ele>1901</ele>
        <time>2022-07-16T22:00:27Z</time>
      </trkpt>
      <trkpt lat="45.76441" lon="6.65358">
        <ele>1901</ele>
        <time>2022-07-16T22:00:28Z</time>
      </trkpt>
      <trkpt lat="45.76441" lon="6.65355">
        <ele>1901</ele>
        <time>2022-07-16T22:00:30Z</time>
      </trkpt>
      <trkpt lat="45.76441" lon="6.65349">
        <ele>1901</ele>
        <time>2022-07-16T22:00:31Z</time>
      </trkpt>
      <trkpt lat="45.76441" lon="6.65343">
        <ele>1900</ele>
        <time>2022-07-16T22:00:33Z</time>
      </trkpt>
      <trkpt lat="45.76441" lon="6.65338">
        <ele>1900</ele>
        <time>2022-07-16T22:00:36Z</time>
      </trkpt>
      <trkpt lat="45.76441" lon="6.65335">
        <ele>1899</ele>
        <time>2022-07-16T22:00:37Z</time>
      </trkpt>
      <trkpt lat="45.76441" lon="6.65329">
        <ele>1898</ele>
        <time>2022-07-16T22:00:38Z</time>
      </trkpt>
      <trkpt lat="45.76441" lon="6.65326">
        <ele>1898</ele>
        <time>2022-07-16T22:00:39Z</time>
      </trkpt>
      <trkpt lat="45.76441" lon="6.65324">
        <ele>1898</ele>
        <time>2022-07-16T22:00:41Z</time>
      </trkpt>
      <trkpt lat="45.76441" lon="6.65319">
        <ele>1898</ele>
        <time>2022-07-16T22:00:43Z</time>
      </trkpt>
      <trkpt lat="45.76441" lon="6.65314">
        <ele>1897</ele>
        <time>2022-07-16T22:00:45Z</time>
      </trkpt>
      <trkpt lat="45.7644" lon="6.65309">
        <ele>1897</ele>
        <time>2022-07-16T22:00:47Z</time>
      </trkpt>
      <trkpt lat="45.7644" lon="6.65304">
        <ele>1897</ele>
        <time>2022-07-16T22:00:48Z</time>
      </trkpt>
      <trkpt lat="45.7644" lon="6.65299">
        <ele>1895</ele>
        <time>2022-07-16T22:00:50Z</time>
      </trkpt>
      <trkpt lat="45.76439" lon="6.65297">
        <ele>1895</ele>
        <time>2022-07-16T22:00:51Z</time>
      </trkpt>
      <trkpt lat="45.76439" lon="6.65294">
        <ele>1895</ele>
        <time>2022-07-16T22:00:53Z</time>
      </trkpt>
      <trkpt lat="45.76439" lon="6.65289">
        <ele>1895</ele>
        <time>2022-07-16T22:00:54Z</time>
      </trkpt>
      <trkpt lat="45.76439" lon="6.65284">
        <ele>1895</ele>
        <time>2022-07-16T22:00:57Z</time>
      </trkpt>
      <trkpt lat="45.76439" lon="6.65278">
        <ele>1895</ele>
        <time>2022-07-16T22:00:58Z</time>
      </trkpt>
      <trkpt lat="45.76439" lon="6.65273">
        <ele>1895</ele>
        <time>2022-07-16T22:01:00Z</time>
      </trkpt>
      <trkpt lat="45.76439" lon="6.65267">
        <ele>1894</ele>
        <time>2022-07-16T22:01:02Z</time>
      </trkpt>
      <trkpt lat="45.76439" lon="6.65263">
        <ele>1894</ele>
        <time>2022-07-16T22:01:04Z</time>
      </trkpt>
      <trkpt lat="45.7644" lon="6.6526">
        <ele>1894</ele>
        <time>2022-07-16T22:01:06Z</time>
      </trkpt>
      <trkpt lat="45.76441" lon="6.65256">
        <ele>1893</ele>
        <time>2022-07-16T22:01:07Z</time>
      </trkpt>
      <trkpt lat="45.7644" lon="6.65252">
        <ele>1892</ele>
        <time>2022-07-16T22:01:09Z</time>
      </trkpt>
      <trkpt lat="45.7644" lon="6.65248">
        <ele>1891</ele>
        <time>2022-07-16T22:01:12Z</time>
      </trkpt>
      <trkpt lat="45.76441" lon="6.65245">
        <ele>1891</ele>
        <time>2022-07-16T22:01:14Z</time>
      </trkpt>
      <trkpt lat="45.76441" lon="6.65241">
        <ele>1890</ele>
        <time>2022-07-16T22:01:16Z</time>
      </trkpt>
      <trkpt lat="45.76441" lon="6.65237">
        <ele>1890</ele>
        <time>2022-07-16T22:01:18Z</time>
      </trkpt>
      <trkpt lat="45.7644" lon="6.65229">
        <ele>1890</ele>
        <time>2022-07-16T22:01:20Z</time>
      </trkpt>
      <trkpt lat="45.76439" lon="6.65226">
        <ele>1890</ele>
        <time>2022-07-16T22:01:21Z</time>
      </trkpt>
      <trkpt lat="45.76439" lon="6.65223">
        <ele>1890</ele>
        <time>2022-07-16T22:01:23Z</time>
      </trkpt>
      <trkpt lat="45.76438" lon="6.65219">
        <ele>1889</ele>
        <time>2022-07-16T22:01:28Z</time>
      </trkpt>
      <trkpt lat="45.76437" lon="6.65216">
        <ele>1889</ele>
        <time>2022-07-16T22:01:30Z</time>
      </trkpt>
      <trkpt lat="45.76436" lon="6.65211">
        <ele>1889</ele>
        <time>2022-07-16T22:01:31Z</time>
      </trkpt>
      <trkpt lat="45.76435" lon="6.65208">
        <ele>1889</ele>
        <time>2022-07-16T22:01:32Z</time>
      </trkpt>
      <trkpt lat="45.76434" lon="6.65206">
        <ele>1888</ele>
        <time>2022-07-16T22:01:33Z</time>
      </trkpt>
      <trkpt lat="45.76433" lon="6.65203">
        <ele>1888</ele>
        <time>2022-07-16T22:01:34Z</time>
      </trkpt>
      <trkpt lat="45.76433" lon="6.652">
        <ele>1888</ele>
        <time>2022-07-16T22:01:36Z</time>
      </trkpt>
      <trkpt lat="45.76432" lon="6.65194">
        <ele>1888</ele>
        <time>2022-07-16T22:01:37Z</time>
      </trkpt>
      <trkpt lat="45.76432" lon="6.65191">
        <ele>1887</ele>
        <time>2022-07-16T22:01:38Z</time>
      </trkpt>
      <trkpt lat="45.76433" lon="6.65185">
        <ele>1887</ele>
        <time>2022-07-16T22:01:40Z</time>
      </trkpt>
      <trkpt lat="45.76434" lon="6.65179">
        <ele>1886</ele>
        <time>2022-07-16T22:01:42Z</time>
      </trkpt>
      <trkpt lat="45.76435" lon="6.65177">
        <ele>1886</ele>
        <time>2022-07-16T22:01:43Z</time>
      </trkpt>
      <trkpt lat="45.76436" lon="6.65174">
        <ele>1886</ele>
        <time>2022-07-16T22:01:45Z</time>
      </trkpt>
      <trkpt lat="45.7644" lon="6.6517">
        <ele>1885</ele>
        <time>2022-07-16T22:01:46Z</time>
      </trkpt>
      <trkpt lat="45.76442" lon="6.65169">
        <ele>1885</ele>
        <time>2022-07-16T22:01:48Z</time>
      </trkpt>
      <trkpt lat="45.76446" lon="6.65166">
        <ele>1885</ele>
        <time>2022-07-16T22:01:49Z</time>
      </trkpt>
      <trkpt lat="45.76448" lon="6.65165">
        <ele>1885</ele>
        <time>2022-07-16T22:01:50Z</time>
      </trkpt>
      <trkpt lat="45.7645" lon="6.65164">
        <ele>1885</ele>
        <time>2022-07-16T22:01:51Z</time>
      </trkpt>
      <trkpt lat="45.76452" lon="6.65163">
        <ele>1885</ele>
        <time>2022-07-16T22:01:53Z</time>
      </trkpt>
      <trkpt lat="45.76454" lon="6.65162">
        <ele>1885</ele>
        <time>2022-07-16T22:01:54Z</time>
      </trkpt>
      <trkpt lat="45.76456" lon="6.65162">
        <ele>1885</ele>
        <time>2022-07-16T22:01:55Z</time>
      </trkpt>
      <trkpt lat="45.76462" lon="6.65158">
        <ele>1885</ele>
        <time>2022-07-16T22:01:57Z</time>
      </trkpt>
      <trkpt lat="45.76464" lon="6.65157">
        <ele>1885</ele>
        <time>2022-07-16T22:01:58Z</time>
      </trkpt>
      <trkpt lat="45.76467" lon="6.65155">
        <ele>1885</ele>
        <time>2022-07-16T22:02:00Z</time>
      </trkpt>
      <trkpt lat="45.76469" lon="6.65154">
        <ele>1884</ele>
        <time>2022-07-16T22:02:02Z</time>
      </trkpt>
      <trkpt lat="45.76471" lon="6.65153">
        <ele>1884</ele>
        <time>2022-07-16T22:02:03Z</time>
      </trkpt>
      <trkpt lat="45.76474" lon="6.6515">
        <ele>1884</ele>
        <time>2022-07-16T22:02:05Z</time>
      </trkpt>
      <trkpt lat="45.76476" lon="6.65148">
        <ele>1884</ele>
        <time>2022-07-16T22:02:06Z</time>
      </trkpt>
      <trkpt lat="45.76478" lon="6.65146">
        <ele>1884</ele>
        <time>2022-07-16T22:02:07Z</time>
      </trkpt>
      <trkpt lat="45.7648" lon="6.65143">
        <ele>1884</ele>
        <time>2022-07-16T22:02:08Z</time>
      </trkpt>
      <trkpt lat="45.76482" lon="6.65141">
        <ele>1884</ele>
        <time>2022-07-16T22:02:10Z</time>
      </trkpt>
      <trkpt lat="45.76484" lon="6.65138">
        <ele>1884</ele>
        <time>2022-07-16T22:02:11Z</time>
      </trkpt>
      <trkpt lat="45.76485" lon="6.65136">
        <ele>1884</ele>
        <time>2022-07-16T22:02:12Z</time>
      </trkpt>
      <trkpt lat="45.76488" lon="6.65133">
        <ele>1884</ele>
        <time>2022-07-16T22:02:14Z</time>
      </trkpt>
      <trkpt lat="45.76489" lon="6.65131">
        <ele>1884</ele>
        <time>2022-07-16T22:02:15Z</time>
      </trkpt>
      <trkpt lat="45.76491" lon="6.65129">
        <ele>1883</ele>
        <time>2022-07-16T22:02:16Z</time>
      </trkpt>
      <trkpt lat="45.76492" lon="6.65126">
        <ele>1883</ele>
        <time>2022-07-16T22:02:17Z</time>
      </trkpt>
      <trkpt lat="45.76493" lon="6.65123">
        <ele>1883</ele>
        <time>2022-07-16T22:02:18Z</time>
      </trkpt>
      <trkpt lat="45.76495" lon="6.6512">
        <ele>1883</ele>
        <time>2022-07-16T22:02:19Z</time>
      </trkpt>
      <trkpt lat="45.76496" lon="6.65118">
        <ele>1883</ele>
        <time>2022-07-16T22:02:21Z</time>
      </trkpt>
      <trkpt lat="45.76498" lon="6.65114">
        <ele>1882</ele>
        <time>2022-07-16T22:02:23Z</time>
      </trkpt>
      <trkpt lat="45.765" lon="6.65112">
        <ele>1882</ele>
        <time>2022-07-16T22:02:24Z</time>
      </trkpt>
      <trkpt lat="45.76501" lon="6.6511">
        <ele>1882</ele>
        <time>2022-07-16T22:02:25Z</time>
      </trkpt>
      <trkpt lat="45.76503" lon="6.65106">
        <ele>1882</ele>
        <time>2022-07-16T22:02:27Z</time>
      </trkpt>
      <trkpt lat="45.76504" lon="6.65104">
        <ele>1882</ele>
        <time>2022-07-16T22:02:28Z</time>
      </trkpt>
      <trkpt lat="45.76505" lon="6.65101">
        <ele>1881</ele>
        <time>2022-07-16T22:02:29Z</time>
      </trkpt>
      <trkpt lat="45.76506" lon="6.65098">
        <ele>1881</ele>
        <time>2022-07-16T22:02:30Z</time>
      </trkpt>
      <trkpt lat="45.76508" lon="6.65094">
        <ele>1881</ele>
        <time>2022-07-16T22:02:32Z</time>
      </trkpt>
      <trkpt lat="45.7651" lon="6.65089">
        <ele>1881</ele>
        <time>2022-07-16T22:02:33Z</time>
      </trkpt>
      <trkpt lat="45.76511" lon="6.65087">
        <ele>1881</ele>
        <time>2022-07-16T22:02:35Z</time>
      </trkpt>
      <trkpt lat="45.76513" lon="6.65084">
        <ele>1881</ele>
        <time>2022-07-16T22:02:37Z</time>
      </trkpt>
      <trkpt lat="45.76514" lon="6.65081">
        <ele>1881</ele>
        <time>2022-07-16T22:02:38Z</time>
      </trkpt>
      <trkpt lat="45.76515" lon="6.65078">
        <ele>1881</ele>
        <time>2022-07-16T22:02:39Z</time>
      </trkpt>
      <trkpt lat="45.76516" lon="6.65076">
        <ele>1881</ele>
        <time>2022-07-16T22:02:40Z</time>
      </trkpt>
      <trkpt lat="45.76519" lon="6.65072">
        <ele>1881</ele>
        <time>2022-07-16T22:02:42Z</time>
      </trkpt>
      <trkpt lat="45.76521" lon="6.65069">
        <ele>1880</ele>
        <time>2022-07-16T22:02:43Z</time>
      </trkpt>
      <trkpt lat="45.76522" lon="6.65067">
        <ele>1880</ele>
        <time>2022-07-16T22:02:44Z</time>
      </trkpt>
      <trkpt lat="45.76524" lon="6.65063">
        <ele>1880</ele>
        <time>2022-07-16T22:02:45Z</time>
      </trkpt>
      <trkpt lat="45.76526" lon="6.65059">
        <ele>1879</ele>
        <time>2022-07-16T22:02:48Z</time>
      </trkpt>
      <trkpt lat="45.76528" lon="6.65056">
        <ele>1879</ele>
        <time>2022-07-16T22:02:49Z</time>
      </trkpt>
      <trkpt lat="45.76531" lon="6.65052">
        <ele>1878</ele>
        <time>2022-07-16T22:02:52Z</time>
      </trkpt>
      <trkpt lat="45.76533" lon="6.65049">
        <ele>1878</ele>
        <time>2022-07-16T22:02:54Z</time>
      </trkpt>
      <trkpt lat="45.76534" lon="6.65047">
        <ele>1878</ele>
        <time>2022-07-16T22:02:55Z</time>
      </trkpt>
      <trkpt lat="45.76536" lon="6.65045">
        <ele>1878</ele>
        <time>2022-07-16T22:02:56Z</time>
      </trkpt>
      <trkpt lat="45.76538" lon="6.65044">
        <ele>1878</ele>
        <time>2022-07-16T22:02:57Z</time>
      </trkpt>
      <trkpt lat="45.76539" lon="6.65041">
        <ele>1878</ele>
        <time>2022-07-16T22:02:59Z</time>
      </trkpt>
      <trkpt lat="45.76542" lon="6.65038">
        <ele>1875</ele>
        <time>2022-07-16T22:03:01Z</time>
      </trkpt>
      <trkpt lat="45.76544" lon="6.65036">
        <ele>1876</ele>
        <time>2022-07-16T22:03:02Z</time>
      </trkpt>
      <trkpt lat="45.76546" lon="6.65035">
        <ele>1876</ele>
        <time>2022-07-16T22:03:03Z</time>
      </trkpt>
      <trkpt lat="45.76548" lon="6.65031">
        <ele>1876</ele>
        <time>2022-07-16T22:03:05Z</time>
      </trkpt>
      <trkpt lat="45.76549" lon="6.65029">
        <ele>1876</ele>
        <time>2022-07-16T22:03:06Z</time>
      </trkpt>
      <trkpt lat="45.7655" lon="6.65027">
        <ele>1876</ele>
        <time>2022-07-16T22:03:07Z</time>
      </trkpt>
      <trkpt lat="45.76552" lon="6.65024">
        <ele>1876</ele>
        <time>2022-07-16T22:03:08Z</time>
      </trkpt>
      <trkpt lat="45.76553" lon="6.65022">
        <ele>1876</ele>
        <time>2022-07-16T22:03:09Z</time>
      </trkpt>
      <trkpt lat="45.76554" lon="6.65019">
        <ele>1876</ele>
        <time>2022-07-16T22:03:10Z</time>
      </trkpt>
      <trkpt lat="45.76557" lon="6.65015">
        <ele>1876</ele>
        <time>2022-07-16T22:03:11Z</time>
      </trkpt>
      <trkpt lat="45.76559" lon="6.65011">
        <ele>1875</ele>
        <time>2022-07-16T22:03:14Z</time>
      </trkpt>
      <trkpt lat="45.7656" lon="6.65008">
        <ele>1875</ele>
        <time>2022-07-16T22:03:15Z</time>
      </trkpt>
      <trkpt lat="45.76561" lon="6.65006">
        <ele>1875</ele>
        <time>2022-07-16T22:03:16Z</time>
      </trkpt>
      <trkpt lat="45.76564" lon="6.65001">
        <ele>1875</ele>
        <time>2022-07-16T22:03:18Z</time>
      </trkpt>
      <trkpt lat="45.76565" lon="6.64998">
        <ele>1875</ele>
        <time>2022-07-16T22:03:19Z</time>
      </trkpt>
      <trkpt lat="45.76567" lon="6.64996">
        <ele>1875</ele>
        <time>2022-07-16T22:03:20Z</time>
      </trkpt>
      <trkpt lat="45.76569" lon="6.64992">
        <ele>1875</ele>
        <time>2022-07-16T22:03:22Z</time>
      </trkpt>
      <trkpt lat="45.7657" lon="6.6499">
        <ele>1875</ele>
        <time>2022-07-16T22:03:23Z</time>
      </trkpt>
      <trkpt lat="45.76572" lon="6.64988">
        <ele>1875</ele>
        <time>2022-07-16T22:03:24Z</time>
      </trkpt>
      <trkpt lat="45.76574" lon="6.64984">
        <ele>1875</ele>
        <time>2022-07-16T22:03:26Z</time>
      </trkpt>
      <trkpt lat="45.76576" lon="6.64982">
        <ele>1875</ele>
        <time>2022-07-16T22:03:27Z</time>
      </trkpt>
      <trkpt lat="45.76578" lon="6.64979">
        <ele>1874</ele>
        <time>2022-07-16T22:03:29Z</time>
      </trkpt>
      <trkpt lat="45.76579" lon="6.64976">
        <ele>1874</ele>
        <time>2022-07-16T22:03:30Z</time>
      </trkpt>
      <trkpt lat="45.76581" lon="6.64974">
        <ele>1873</ele>
        <time>2022-07-16T22:03:31Z</time>
      </trkpt>
      <trkpt lat="45.76582" lon="6.64971">
        <ele>1873</ele>
        <time>2022-07-16T22:03:32Z</time>
      </trkpt>
      <trkpt lat="45.76584" lon="6.64969">
        <ele>1872</ele>
        <time>2022-07-16T22:03:33Z</time>
      </trkpt>
      <trkpt lat="45.76586" lon="6.64966">
        <ele>1872</ele>
        <time>2022-07-16T22:03:35Z</time>
      </trkpt>
      <trkpt lat="45.76588" lon="6.64964">
        <ele>1872</ele>
        <time>2022-07-16T22:03:36Z</time>
      </trkpt>
      <trkpt lat="45.7659" lon="6.64963">
        <ele>1872</ele>
        <time>2022-07-16T22:03:37Z</time>
      </trkpt>
      <trkpt lat="45.76593" lon="6.6496">
        <ele>1871</ele>
        <time>2022-07-16T22:03:39Z</time>
      </trkpt>
      <trkpt lat="45.76595" lon="6.64959">
        <ele>1871</ele>
        <time>2022-07-16T22:03:40Z</time>
      </trkpt>
      <trkpt lat="45.76597" lon="6.64955">
        <ele>1870</ele>
        <time>2022-07-16T22:03:42Z</time>
      </trkpt>
      <trkpt lat="45.76598" lon="6.64951">
        <ele>1869</ele>
        <time>2022-07-16T22:03:44Z</time>
      </trkpt>
      <trkpt lat="45.76596" lon="6.64948">
        <ele>1869</ele>
        <time>2022-07-16T22:03:46Z</time>
      </trkpt>
      <trkpt lat="45.76592" lon="6.64945">
        <ele>1868</ele>
        <time>2022-07-16T22:03:48Z</time>
      </trkpt>
      <trkpt lat="45.7659" lon="6.64944">
        <ele>1868</ele>
        <time>2022-07-16T22:03:49Z</time>
      </trkpt>
      <trkpt lat="45.76588" lon="6.64942">
        <ele>1867</ele>
        <time>2022-07-16T22:03:51Z</time>
      </trkpt>
      <trkpt lat="45.76587" lon="6.64937">
        <ele>1867</ele>
        <time>2022-07-16T22:03:53Z</time>
      </trkpt>
      <trkpt lat="45.76588" lon="6.64934">
        <ele>1866</ele>
        <time>2022-07-16T22:03:54Z</time>
      </trkpt>
      <trkpt lat="45.76591" lon="6.64932">
        <ele>1866</ele>
        <time>2022-07-16T22:03:56Z</time>
      </trkpt>
      <trkpt lat="45.76593" lon="6.64931">
        <ele>1866</ele>
        <time>2022-07-16T22:03:57Z</time>
      </trkpt>
      <trkpt lat="45.76595" lon="6.64931">
        <ele>1865</ele>
        <time>2022-07-16T22:03:58Z</time>
      </trkpt>
      <trkpt lat="45.76597" lon="6.6493">
        <ele>1864</ele>
        <time>2022-07-16T22:03:59Z</time>
      </trkpt>
      <trkpt lat="45.76599" lon="6.64931">
        <ele>1864</ele>
        <time>2022-07-16T22:04:00Z</time>
      </trkpt>
      <trkpt lat="45.76603" lon="6.64931">
        <ele>1863</ele>
        <time>2022-07-16T22:04:02Z</time>
      </trkpt>
      <trkpt lat="45.76606" lon="6.64929">
        <ele>1863</ele>
        <time>2022-07-16T22:04:04Z</time>
      </trkpt>
      <trkpt lat="45.76606" lon="6.64926">
        <ele>1862</ele>
        <time>2022-07-16T22:04:06Z</time>
      </trkpt>
      <trkpt lat="45.76605" lon="6.64923">
        <ele>1862</ele>
        <time>2022-07-16T22:04:07Z</time>
      </trkpt>
      <trkpt lat="45.76602" lon="6.64921">
        <ele>1862</ele>
        <time>2022-07-16T22:04:08Z</time>
      </trkpt>
      <trkpt lat="45.766" lon="6.6492">
        <ele>1862</ele>
        <time>2022-07-16T22:04:10Z</time>
      </trkpt>
      <trkpt lat="45.76598" lon="6.6492">
        <ele>1861</ele>
        <time>2022-07-16T22:04:11Z</time>
      </trkpt>
      <trkpt lat="45.76596" lon="6.64919">
        <ele>1860</ele>
        <time>2022-07-16T22:04:12Z</time>
      </trkpt>
      <trkpt lat="45.76594" lon="6.64919">
        <ele>1860</ele>
        <time>2022-07-16T22:04:13Z</time>
      </trkpt>
      <trkpt lat="45.76591" lon="6.64918">
        <ele>1859</ele>
        <time>2022-07-16T22:04:14Z</time>
      </trkpt>
      <trkpt lat="45.76589" lon="6.64917">
        <ele>1859</ele>
        <time>2022-07-16T22:04:15Z</time>
      </trkpt>
      <trkpt lat="45.76587" lon="6.64916">
        <ele>1859</ele>
        <time>2022-07-16T22:04:16Z</time>
      </trkpt>
      <trkpt lat="45.76585" lon="6.64915">
        <ele>1859</ele>
        <time>2022-07-16T22:04:17Z</time>
      </trkpt>
      <trkpt lat="45.76584" lon="6.64914">
        <ele>1858</ele>
        <time>2022-07-16T22:04:18Z</time>
      </trkpt>
      <trkpt lat="45.76582" lon="6.64911">
        <ele>1857</ele>
        <time>2022-07-16T22:04:20Z</time>
      </trkpt>
      <trkpt lat="45.76583" lon="6.64906">
        <ele>1857</ele>
        <time>2022-07-16T22:04:22Z</time>
      </trkpt>
      <trkpt lat="45.76588" lon="6.64903">
        <ele>1857</ele>
        <time>2022-07-16T22:04:23Z</time>
      </trkpt>
      <trkpt lat="45.76591" lon="6.64903">
        <ele>1856</ele>
        <time>2022-07-16T22:04:26Z</time>
      </trkpt>
      <trkpt lat="45.76593" lon="6.64903">
        <ele>1855</ele>
        <time>2022-07-16T22:04:27Z</time>
      </trkpt>
      <trkpt lat="45.76595" lon="6.64903">
        <ele>1854</ele>
        <time>2022-07-16T22:04:28Z</time>
      </trkpt>
      <trkpt lat="45.76597" lon="6.649">
        <ele>1854</ele>
        <time>2022-07-16T22:04:30Z</time>
      </trkpt>
      <trkpt lat="45.76597" lon="6.64897">
        <ele>1853</ele>
        <time>2022-07-16T22:04:32Z</time>
      </trkpt>
      <trkpt lat="45.76592" lon="6.64893">
        <ele>1852</ele>
        <time>2022-07-16T22:04:34Z</time>
      </trkpt>
      <trkpt lat="45.7659" lon="6.64891">
        <ele>1852</ele>
        <time>2022-07-16T22:04:36Z</time>
      </trkpt>
      <trkpt lat="45.76589" lon="6.6489">
        <ele>1852</ele>
        <time>2022-07-16T22:04:37Z</time>
      </trkpt>
      <trkpt lat="45.76585" lon="6.64889">
        <ele>1852</ele>
        <time>2022-07-16T22:04:39Z</time>
      </trkpt>
      <trkpt lat="45.76583" lon="6.64889">
        <ele>1851</ele>
        <time>2022-07-16T22:04:40Z</time>
      </trkpt>
      <trkpt lat="45.76581" lon="6.64888">
        <ele>1851</ele>
        <time>2022-07-16T22:04:41Z</time>
      </trkpt>
      <trkpt lat="45.76578" lon="6.64887">
        <ele>1851</ele>
        <time>2022-07-16T22:04:43Z</time>
      </trkpt>
      <trkpt lat="45.76575" lon="6.64887">
        <ele>1850</ele>
        <time>2022-07-16T22:04:45Z</time>
      </trkpt>
      <trkpt lat="45.76572" lon="6.64888">
        <ele>1849</ele>
        <time>2022-07-16T22:04:47Z</time>
      </trkpt>
      <trkpt lat="45.76569" lon="6.64888">
        <ele>1849</ele>
        <time>2022-07-16T22:04:49Z</time>
      </trkpt>
      <trkpt lat="45.76567" lon="6.64884">
        <ele>1849</ele>
        <time>2022-07-16T22:04:51Z</time>
      </trkpt>
      <trkpt lat="45.76568" lon="6.6488">
        <ele>1849</ele>
        <time>2022-07-16T22:04:53Z</time>
      </trkpt>
      <trkpt lat="45.7657" lon="6.64876">
        <ele>1848</ele>
        <time>2022-07-16T22:04:55Z</time>
      </trkpt>
      <trkpt lat="45.76573" lon="6.64874">
        <ele>1847</ele>
        <time>2022-07-16T22:04:57Z</time>
      </trkpt>
      <trkpt lat="45.76575" lon="6.64874">
        <ele>1847</ele>
        <time>2022-07-16T22:04:58Z</time>
      </trkpt>
      <trkpt lat="45.76577" lon="6.64874">
        <ele>1847</ele>
        <time>2022-07-16T22:04:59Z</time>
      </trkpt>
      <trkpt lat="45.76579" lon="6.64874">
        <ele>1847</ele>
        <time>2022-07-16T22:05:00Z</time>
      </trkpt>
      <trkpt lat="45.76582" lon="6.64874">
        <ele>1847</ele>
        <time>2022-07-16T22:05:02Z</time>
      </trkpt>
      <trkpt lat="45.76585" lon="6.64875">
        <ele>1846</ele>
        <time>2022-07-16T22:05:04Z</time>
      </trkpt>
      <trkpt lat="45.76588" lon="6.64875">
        <ele>1845</ele>
        <time>2022-07-16T22:05:06Z</time>
      </trkpt>
      <trkpt lat="45.76591" lon="6.64875">
        <ele>1844</ele>
        <time>2022-07-16T22:05:08Z</time>
      </trkpt>
      <trkpt lat="45.76594" lon="6.64874">
        <ele>1843</ele>
        <time>2022-07-16T22:05:10Z</time>
      </trkpt>
      <trkpt lat="45.76597" lon="6.64871">
        <ele>1843</ele>
        <time>2022-07-16T22:05:12Z</time>
      </trkpt>
      <trkpt lat="45.76597" lon="6.64867">
        <ele>1842</ele>
        <time>2022-07-16T22:05:14Z</time>
      </trkpt>
      <trkpt lat="45.76596" lon="6.64863">
        <ele>1842</ele>
        <time>2022-07-16T22:05:16Z</time>
      </trkpt>
      <trkpt lat="45.76594" lon="6.64862">
        <ele>1841</ele>
        <time>2022-07-16T22:05:17Z</time>
      </trkpt>
      <trkpt lat="45.76592" lon="6.6486">
        <ele>1841</ele>
        <time>2022-07-16T22:05:18Z</time>
      </trkpt>
      <trkpt lat="45.7659" lon="6.64859">
        <ele>1841</ele>
        <time>2022-07-16T22:05:19Z</time>
      </trkpt>
      <trkpt lat="45.76589" lon="6.64857">
        <ele>1840</ele>
        <time>2022-07-16T22:05:20Z</time>
      </trkpt>
      <trkpt lat="45.76586" lon="6.64855">
        <ele>1840</ele>
        <time>2022-07-16T22:05:21Z</time>
      </trkpt>
      <trkpt lat="45.76585" lon="6.64854">
        <ele>1839</ele>
        <time>2022-07-16T22:05:23Z</time>
      </trkpt>
      <trkpt lat="45.76582" lon="6.64852">
        <ele>1839</ele>
        <time>2022-07-16T22:05:25Z</time>
      </trkpt>
      <trkpt lat="45.76579" lon="6.64851">
        <ele>1838</ele>
        <time>2022-07-16T22:05:27Z</time>
      </trkpt>
      <trkpt lat="45.76576" lon="6.64852">
        <ele>1838</ele>
        <time>2022-07-16T22:05:29Z</time>
      </trkpt>
      <trkpt lat="45.76573" lon="6.64853">
        <ele>1837</ele>
        <time>2022-07-16T22:05:31Z</time>
      </trkpt>
      <trkpt lat="45.76571" lon="6.64853">
        <ele>1837</ele>
        <time>2022-07-16T22:05:33Z</time>
      </trkpt>
      <trkpt lat="45.76572" lon="6.64852">
        <ele>1837</ele>
        <time>2022-07-16T22:05:34Z</time>
      </trkpt>
      <trkpt lat="45.76574" lon="6.64851">
        <ele>1837</ele>
        <time>2022-07-16T22:05:35Z</time>
      </trkpt>
      <trkpt lat="45.76575" lon="6.6485">
        <ele>1837</ele>
        <time>2022-07-16T22:05:36Z</time>
      </trkpt>
      <trkpt lat="45.76576" lon="6.64849">
        <ele>1837</ele>
        <time>2022-07-16T22:05:37Z</time>
      </trkpt>
      <trkpt lat="45.76577" lon="6.64848">
        <ele>1837</ele>
        <time>2022-07-16T22:05:38Z</time>
      </trkpt>
      <trkpt lat="45.76578" lon="6.64847">
        <ele>1837</ele>
        <time>2022-07-16T22:05:39Z</time>
      </trkpt>
      <trkpt lat="45.7658" lon="6.64845">
        <ele>1837</ele>
        <time>2022-07-16T22:05:40Z</time>
      </trkpt>
      <trkpt lat="45.76581" lon="6.64842">
        <ele>1837</ele>
        <time>2022-07-16T22:05:41Z</time>
      </trkpt>
      <trkpt lat="45.76584" lon="6.6484">
        <ele>1835</ele>
        <time>2022-07-16T22:05:45Z</time>
      </trkpt>
      <trkpt lat="45.76586" lon="6.6484">
        <ele>1835</ele>
        <time>2022-07-16T22:05:46Z</time>
      </trkpt>
      <trkpt lat="45.76588" lon="6.64841">
        <ele>1834</ele>
        <time>2022-07-16T22:05:47Z</time>
      </trkpt>
      <trkpt lat="45.7659" lon="6.64841">
        <ele>1834</ele>
        <time>2022-07-16T22:05:48Z</time>
      </trkpt>
      <trkpt lat="45.76592" lon="6.64841">
        <ele>1834</ele>
        <time>2022-07-16T22:05:49Z</time>
      </trkpt>
      <trkpt lat="45.76596" lon="6.64841">
        <ele>1834</ele>
        <time>2022-07-16T22:05:50Z</time>
      </trkpt>
      <trkpt lat="45.76599" lon="6.64841">
        <ele>1833</ele>
        <time>2022-07-16T22:05:53Z</time>
      </trkpt>
      <trkpt lat="45.766" lon="6.64837">
        <ele>1832</ele>
        <time>2022-07-16T22:05:55Z</time>
      </trkpt>
      <trkpt lat="45.76599" lon="6.64832">
        <ele>1832</ele>
        <time>2022-07-16T22:05:56Z</time>
      </trkpt>
      <trkpt lat="45.76598" lon="6.6483">
        <ele>1832</ele>
        <time>2022-07-16T22:05:58Z</time>
      </trkpt>
      <trkpt lat="45.76596" lon="6.64829">
        <ele>1832</ele>
        <time>2022-07-16T22:05:59Z</time>
      </trkpt>
      <trkpt lat="45.76592" lon="6.64823">
        <ele>1831</ele>
        <time>2022-07-16T22:06:01Z</time>
      </trkpt>
      <trkpt lat="45.76591" lon="6.64822">
        <ele>1831</ele>
        <time>2022-07-16T22:06:03Z</time>
      </trkpt>
      <trkpt lat="45.76588" lon="6.64818">
        <ele>1830</ele>
        <time>2022-07-16T22:06:05Z</time>
      </trkpt>
      <trkpt lat="45.76586" lon="6.64814">
        <ele>1830</ele>
        <time>2022-07-16T22:06:07Z</time>
      </trkpt>
      <trkpt lat="45.76584" lon="6.64813">
        <ele>1829</ele>
        <time>2022-07-16T22:06:08Z</time>
      </trkpt>
      <trkpt lat="45.76582" lon="6.6481">
        <ele>1829</ele>
        <time>2022-07-16T22:06:10Z</time>
      </trkpt>
      <trkpt lat="45.7658" lon="6.64807">
        <ele>1829</ele>
        <time>2022-07-16T22:06:12Z</time>
      </trkpt>
      <trkpt lat="45.76578" lon="6.64804">
        <ele>1829</ele>
        <time>2022-07-16T22:06:14Z</time>
      </trkpt>
      <trkpt lat="45.76577" lon="6.648">
        <ele>1829</ele>
        <time>2022-07-16T22:06:16Z</time>
      </trkpt>
      <trkpt lat="45.76575" lon="6.64797">
        <ele>1829</ele>
        <time>2022-07-16T22:06:18Z</time>
      </trkpt>
      <trkpt lat="45.76574" lon="6.64793">
        <ele>1829</ele>
        <time>2022-07-16T22:06:20Z</time>
      </trkpt>
      <trkpt lat="45.76573" lon="6.6479">
        <ele>1829</ele>
        <time>2022-07-16T22:06:22Z</time>
      </trkpt>
      <trkpt lat="45.76571" lon="6.64786">
        <ele>1830</ele>
        <time>2022-07-16T22:06:24Z</time>
      </trkpt>
      <trkpt lat="45.76569" lon="6.64783">
        <ele>1830</ele>
        <time>2022-07-16T22:06:26Z</time>
      </trkpt>
      <trkpt lat="45.76569" lon="6.64779">
        <ele>1830</ele>
        <time>2022-07-16T22:06:28Z</time>
      </trkpt>
      <trkpt lat="45.76568" lon="6.64775">
        <ele>1830</ele>
        <time>2022-07-16T22:06:30Z</time>
      </trkpt>
      <trkpt lat="45.76566" lon="6.64771">
        <ele>1829</ele>
        <time>2022-07-16T22:06:32Z</time>
      </trkpt>
      <trkpt lat="45.76565" lon="6.64767">
        <ele>1829</ele>
        <time>2022-07-16T22:06:34Z</time>
      </trkpt>
      <trkpt lat="45.76563" lon="6.64763">
        <ele>1829</ele>
        <time>2022-07-16T22:06:36Z</time>
      </trkpt>
      <trkpt lat="45.76562" lon="6.64761">
        <ele>1829</ele>
        <time>2022-07-16T22:06:37Z</time>
      </trkpt>
      <trkpt lat="45.7656" lon="6.64757">
        <ele>1829</ele>
        <time>2022-07-16T22:06:39Z</time>
      </trkpt>
      <trkpt lat="45.7656" lon="6.64753">
        <ele>1829</ele>
        <time>2022-07-16T22:06:41Z</time>
      </trkpt>
      <trkpt lat="45.76559" lon="6.6475">
        <ele>1829</ele>
        <time>2022-07-16T22:06:43Z</time>
      </trkpt>
      <trkpt lat="45.76559" lon="6.64747">
        <ele>1829</ele>
        <time>2022-07-16T22:06:45Z</time>
      </trkpt>
      <trkpt lat="45.76559" lon="6.64743">
        <ele>1829</ele>
        <time>2022-07-16T22:06:47Z</time>
      </trkpt>
      <trkpt lat="45.76558" lon="6.64739">
        <ele>1829</ele>
        <time>2022-07-16T22:06:49Z</time>
      </trkpt>
      <trkpt lat="45.76558" lon="6.64736">
        <ele>1829</ele>
        <time>2022-07-16T22:06:51Z</time>
      </trkpt>
      <trkpt lat="45.76557" lon="6.64732">
        <ele>1830</ele>
        <time>2022-07-16T22:06:53Z</time>
      </trkpt>
      <trkpt lat="45.76556" lon="6.64729">
        <ele>1830</ele>
        <time>2022-07-16T22:06:55Z</time>
      </trkpt>
      <trkpt lat="45.76555" lon="6.64725">
        <ele>1830</ele>
        <time>2022-07-16T22:06:57Z</time>
      </trkpt>
      <trkpt lat="45.76554" lon="6.64721">
        <ele>1830</ele>
        <time>2022-07-16T22:06:59Z</time>
      </trkpt>
      <trkpt lat="45.76554" lon="6.64717">
        <ele>1830</ele>
        <time>2022-07-16T22:07:01Z</time>
      </trkpt>
      <trkpt lat="45.76554" lon="6.64714">
        <ele>1830</ele>
        <time>2022-07-16T22:07:03Z</time>
      </trkpt>
      <trkpt lat="45.76553" lon="6.64711">
        <ele>1830</ele>
        <time>2022-07-16T22:07:05Z</time>
      </trkpt>
      <trkpt lat="45.76553" lon="6.64707">
        <ele>1830</ele>
        <time>2022-07-16T22:07:06Z</time>
      </trkpt>
      <trkpt lat="45.76552" lon="6.64703">
        <ele>1829</ele>
        <time>2022-07-16T22:07:09Z</time>
      </trkpt>
      <trkpt lat="45.76551" lon="6.64699">
        <ele>1829</ele>
        <time>2022-07-16T22:07:11Z</time>
      </trkpt>
      <trkpt lat="45.76551" lon="6.64695">
        <ele>1829</ele>
        <time>2022-07-16T22:07:13Z</time>
      </trkpt>
      <trkpt lat="45.7655" lon="6.64691">
        <ele>1829</ele>
        <time>2022-07-16T22:07:15Z</time>
      </trkpt>
      <trkpt lat="45.76549" lon="6.64687">
        <ele>1829</ele>
        <time>2022-07-16T22:07:17Z</time>
      </trkpt>
      <trkpt lat="45.76549" lon="6.64683">
        <ele>1829</ele>
        <time>2022-07-16T22:07:19Z</time>
      </trkpt>
      <trkpt lat="45.76549" lon="6.6468">
        <ele>1829</ele>
        <time>2022-07-16T22:07:21Z</time>
      </trkpt>
      <trkpt lat="45.76547" lon="6.64676">
        <ele>1829</ele>
        <time>2022-07-16T22:07:23Z</time>
      </trkpt>
      <trkpt lat="45.76546" lon="6.64672">
        <ele>1829</ele>
        <time>2022-07-16T22:07:25Z</time>
      </trkpt>
      <trkpt lat="45.76545" lon="6.64669">
        <ele>1829</ele>
        <time>2022-07-16T22:07:27Z</time>
      </trkpt>
      <trkpt lat="45.76542" lon="6.64666">
        <ele>1829</ele>
        <time>2022-07-16T22:07:29Z</time>
      </trkpt>
      <trkpt lat="45.76541" lon="6.64662">
        <ele>1829</ele>
        <time>2022-07-16T22:07:30Z</time>
      </trkpt>
      <trkpt lat="45.7654" lon="6.64659">
        <ele>1829</ele>
        <time>2022-07-16T22:07:33Z</time>
      </trkpt>
      <trkpt lat="45.76539" lon="6.64654">
        <ele>1829</ele>
        <time>2022-07-16T22:07:35Z</time>
      </trkpt>
      <trkpt lat="45.76539" lon="6.64651">
        <ele>1829</ele>
        <time>2022-07-16T22:07:37Z</time>
      </trkpt>
      <trkpt lat="45.76539" lon="6.64648">
        <ele>1829</ele>
        <time>2022-07-16T22:07:39Z</time>
      </trkpt>
      <trkpt lat="45.76537" lon="6.64644">
        <ele>1829</ele>
        <time>2022-07-16T22:07:41Z</time>
      </trkpt>
      <trkpt lat="45.76533" lon="6.64639">
        <ele>1829</ele>
        <time>2022-07-16T22:07:43Z</time>
      </trkpt>
      <trkpt lat="45.76532" lon="6.64636">
        <ele>1829</ele>
        <time>2022-07-16T22:07:46Z</time>
      </trkpt>
      <trkpt lat="45.7653" lon="6.64632">
        <ele>1829</ele>
        <time>2022-07-16T22:07:48Z</time>
      </trkpt>
      <trkpt lat="45.76528" lon="6.64629">
        <ele>1829</ele>
        <time>2022-07-16T22:07:50Z</time>
      </trkpt>
      <trkpt lat="45.76527" lon="6.64626">
        <ele>1830</ele>
        <time>2022-07-16T22:07:52Z</time>
      </trkpt>
      <trkpt lat="45.76526" lon="6.64622">
        <ele>1831</ele>
        <time>2022-07-16T22:07:54Z</time>
      </trkpt>
      <trkpt lat="45.76525" lon="6.64618">
        <ele>1830</ele>
        <time>2022-07-16T22:07:56Z</time>
      </trkpt>
      <trkpt lat="45.76523" lon="6.64614">
        <ele>1829</ele>
        <time>2022-07-16T22:07:58Z</time>
      </trkpt>
      <trkpt lat="45.7652" lon="6.64611">
        <ele>1829</ele>
        <time>2022-07-16T22:08:00Z</time>
      </trkpt>
      <trkpt lat="45.76519" lon="6.64607">
        <ele>1829</ele>
        <time>2022-07-16T22:08:02Z</time>
      </trkpt>
      <trkpt lat="45.76517" lon="6.64604">
        <ele>1829</ele>
        <time>2022-07-16T22:08:03Z</time>
      </trkpt>
      <trkpt lat="45.76515" lon="6.64601">
        <ele>1829</ele>
        <time>2022-07-16T22:08:06Z</time>
      </trkpt>
      <trkpt lat="45.76513" lon="6.64597">
        <ele>1829</ele>
        <time>2022-07-16T22:08:08Z</time>
      </trkpt>
      <trkpt lat="45.76511" lon="6.64594">
        <ele>1829</ele>
        <time>2022-07-16T22:08:10Z</time>
      </trkpt>
      <trkpt lat="45.76509" lon="6.6459">
        <ele>1829</ele>
        <time>2022-07-16T22:08:12Z</time>
      </trkpt>
      <trkpt lat="45.76508" lon="6.64586">
        <ele>1829</ele>
        <time>2022-07-16T22:08:14Z</time>
      </trkpt>
      <trkpt lat="45.76507" lon="6.64583">
        <ele>1829</ele>
        <time>2022-07-16T22:08:16Z</time>
      </trkpt>
      <trkpt lat="45.76507" lon="6.6458">
        <ele>1829</ele>
        <time>2022-07-16T22:08:18Z</time>
      </trkpt>
      <trkpt lat="45.76506" lon="6.64576">
        <ele>1829</ele>
        <time>2022-07-16T22:08:20Z</time>
      </trkpt>
      <trkpt lat="45.76505" lon="6.64573">
        <ele>1829</ele>
        <time>2022-07-16T22:08:22Z</time>
      </trkpt>
      <trkpt lat="45.76503" lon="6.6457">
        <ele>1830</ele>
        <time>2022-07-16T22:08:24Z</time>
      </trkpt>
      <trkpt lat="45.76501" lon="6.64569">
        <ele>1831</ele>
        <time>2022-07-16T22:08:25Z</time>
      </trkpt>
      <trkpt lat="45.76499" lon="6.64567">
        <ele>1831</ele>
        <time>2022-07-16T22:08:27Z</time>
      </trkpt>
      <trkpt lat="45.76497" lon="6.64564">
        <ele>1831</ele>
        <time>2022-07-16T22:08:29Z</time>
      </trkpt>
      <trkpt lat="45.76496" lon="6.64557">
        <ele>1831</ele>
        <time>2022-07-16T22:08:31Z</time>
      </trkpt>
      <trkpt lat="45.76495" lon="6.64553">
        <ele>1831</ele>
        <time>2022-07-16T22:08:34Z</time>
      </trkpt>
      <trkpt lat="45.76494" lon="6.64549">
        <ele>1831</ele>
        <time>2022-07-16T22:08:36Z</time>
      </trkpt>
      <trkpt lat="45.76492" lon="6.64546">
        <ele>1831</ele>
        <time>2022-07-16T22:08:38Z</time>
      </trkpt>
      <trkpt lat="45.76491" lon="6.64543">
        <ele>1831</ele>
        <time>2022-07-16T22:08:40Z</time>
      </trkpt>
      <trkpt lat="45.76489" lon="6.6454">
        <ele>1831</ele>
        <time>2022-07-16T22:08:42Z</time>
      </trkpt>
      <trkpt lat="45.76488" lon="6.64536">
        <ele>1831</ele>
        <time>2022-07-16T22:08:44Z</time>
      </trkpt>
      <trkpt lat="45.76487" lon="6.64532">
        <ele>1831</ele>
        <time>2022-07-16T22:08:46Z</time>
      </trkpt>
      <trkpt lat="45.76486" lon="6.64529">
        <ele>1832</ele>
        <time>2022-07-16T22:08:48Z</time>
      </trkpt>
      <trkpt lat="45.76485" lon="6.64525">
        <ele>1833</ele>
        <time>2022-07-16T22:08:50Z</time>
      </trkpt>
      <trkpt lat="45.76484" lon="6.64521">
        <ele>1833</ele>
        <time>2022-07-16T22:08:52Z</time>
      </trkpt>
      <trkpt lat="45.76483" lon="6.6452">
        <ele>1833</ele>
        <time>2022-07-16T22:08:54Z</time>
      </trkpt>
      <trkpt lat="45.76482" lon="6.64518">
        <ele>1832</ele>
        <time>2022-07-16T22:08:55Z</time>
      </trkpt>
      <trkpt lat="45.76481" lon="6.64516">
        <ele>1832</ele>
        <time>2022-07-16T22:08:56Z</time>
      </trkpt>
      <trkpt lat="45.7648" lon="6.64515">
        <ele>1833</ele>
        <time>2022-07-16T22:08:57Z</time>
      </trkpt>
      <trkpt lat="45.7648" lon="6.64513">
        <ele>1833</ele>
        <time>2022-07-16T22:08:58Z</time>
      </trkpt>
      <trkpt lat="45.76479" lon="6.64511">
        <ele>1832</ele>
        <time>2022-07-16T22:08:59Z</time>
      </trkpt>
      <trkpt lat="45.76478" lon="6.6451">
        <ele>1832</ele>
        <time>2022-07-16T22:09:01Z</time>
      </trkpt>
      <trkpt lat="45.76477" lon="6.64508">
        <ele>1833</ele>
        <time>2022-07-16T22:09:02Z</time>
      </trkpt>
      <trkpt lat="45.76477" lon="6.64507">
        <ele>1833</ele>
        <time>2022-07-16T22:09:03Z</time>
      </trkpt>
      <trkpt lat="45.76476" lon="6.64505">
        <ele>1833</ele>
        <time>2022-07-16T22:09:04Z</time>
      </trkpt>
      <trkpt lat="45.76476" lon="6.64504">
        <ele>1834</ele>
        <time>2022-07-16T22:09:05Z</time>
      </trkpt>
      <trkpt lat="45.76475" lon="6.64503">
        <ele>1834</ele>
        <time>2022-07-16T22:09:06Z</time>
      </trkpt>
      <trkpt lat="45.76474" lon="6.64501">
        <ele>1834</ele>
        <time>2022-07-16T22:09:07Z</time>
      </trkpt>
      <trkpt lat="45.76474" lon="6.645">
        <ele>1834</ele>
        <time>2022-07-16T22:09:08Z</time>
      </trkpt>
      <trkpt lat="45.76472" lon="6.64499">
        <ele>1835</ele>
        <time>2022-07-16T22:09:10Z</time>
      </trkpt>
      <trkpt lat="45.7647" lon="6.64498">
        <ele>1835</ele>
        <time>2022-07-16T22:09:12Z</time>
      </trkpt>
      <trkpt lat="45.76469" lon="6.64498">
        <ele>1835</ele>
        <time>2022-07-16T22:09:13Z</time>
      </trkpt>
      <trkpt lat="45.76467" lon="6.64498">
        <ele>1835</ele>
        <time>2022-07-16T22:09:14Z</time>
      </trkpt>
      <trkpt lat="45.76466" lon="6.64498">
        <ele>1836</ele>
        <time>2022-07-16T22:09:15Z</time>
      </trkpt>
      <trkpt lat="45.76464" lon="6.64498">
        <ele>1837</ele>
        <time>2022-07-16T22:09:16Z</time>
      </trkpt>
      <trkpt lat="45.76463" lon="6.64498">
        <ele>1837</ele>
        <time>2022-07-16T22:09:17Z</time>
      </trkpt>
      <trkpt lat="45.76462" lon="6.64498">
        <ele>1837</ele>
        <time>2022-07-16T22:09:18Z</time>
      </trkpt>
      <trkpt lat="45.76461" lon="6.64497">
        <ele>1837</ele>
        <time>2022-07-16T22:09:20Z</time>
      </trkpt>
      <trkpt lat="45.7646" lon="6.64496">
        <ele>1837</ele>
        <time>2022-07-16T22:09:21Z</time>
      </trkpt>
      <trkpt lat="45.76459" lon="6.64496">
        <ele>1837</ele>
        <time>2022-07-16T22:09:22Z</time>
      </trkpt>
      <trkpt lat="45.76458" lon="6.64495">
        <ele>1837</ele>
        <time>2022-07-16T22:09:23Z</time>
      </trkpt>
      <trkpt lat="45.76458" lon="6.64494">
        <ele>1837</ele>
        <time>2022-07-16T22:09:24Z</time>
      </trkpt>
      <trkpt lat="45.76457" lon="6.64494">
        <ele>1837</ele>
        <time>2022-07-16T22:09:25Z</time>
      </trkpt>
      <trkpt lat="45.76456" lon="6.64493">
        <ele>1837</ele>
        <time>2022-07-16T22:09:26Z</time>
      </trkpt>
      <trkpt lat="45.76455" lon="6.64492">
        <ele>1838</ele>
        <time>2022-07-16T22:09:27Z</time>
      </trkpt>
      <trkpt lat="45.76454" lon="6.64492">
        <ele>1838</ele>
        <time>2022-07-16T22:09:28Z</time>
      </trkpt>
      <trkpt lat="45.76454" lon="6.64491">
        <ele>1838</ele>
        <time>2022-07-16T22:09:29Z</time>
      </trkpt>
      <trkpt lat="45.76451" lon="6.64491">
        <ele>1838</ele>
        <time>2022-07-16T22:09:31Z</time>
      </trkpt>
      <trkpt lat="45.76449" lon="6.64489">
        <ele>1839</ele>
        <time>2022-07-16T22:09:34Z</time>
      </trkpt>
      <trkpt lat="45.76447" lon="6.64487">
        <ele>1840</ele>
        <time>2022-07-16T22:09:36Z</time>
      </trkpt>
      <trkpt lat="45.76446" lon="6.64486">
        <ele>1840</ele>
        <time>2022-07-16T22:09:38Z</time>
      </trkpt>
      <trkpt lat="45.76444" lon="6.64484">
        <ele>1840</ele>
        <time>2022-07-16T22:09:40Z</time>
      </trkpt>
      <trkpt lat="45.76443" lon="6.64482">
        <ele>1840</ele>
        <time>2022-07-16T22:09:42Z</time>
      </trkpt>
      <trkpt lat="45.76442" lon="6.6448">
        <ele>1841</ele>
        <time>2022-07-16T22:09:44Z</time>
      </trkpt>
      <trkpt lat="45.7644" lon="6.64477">
        <ele>1841</ele>
        <time>2022-07-16T22:09:46Z</time>
      </trkpt>
      <trkpt lat="45.7644" lon="6.64474">
        <ele>1841</ele>
        <time>2022-07-16T22:09:48Z</time>
      </trkpt>
      <trkpt lat="45.76439" lon="6.64471">
        <ele>1841</ele>
        <time>2022-07-16T22:09:50Z</time>
      </trkpt>
      <trkpt lat="45.76438" lon="6.64468">
        <ele>1841</ele>
        <time>2022-07-16T22:09:53Z</time>
      </trkpt>
      <trkpt lat="45.76437" lon="6.64465">
        <ele>1841</ele>
        <time>2022-07-16T22:09:55Z</time>
      </trkpt>
      <trkpt lat="45.76436" lon="6.64462">
        <ele>1842</ele>
        <time>2022-07-16T22:09:57Z</time>
      </trkpt>
      <trkpt lat="45.76435" lon="6.6446">
        <ele>1842</ele>
        <time>2022-07-16T22:09:58Z</time>
      </trkpt>
      <trkpt lat="45.76435" lon="6.64459">
        <ele>1842</ele>
        <time>2022-07-16T22:09:59Z</time>
      </trkpt>
      <trkpt lat="45.76434" lon="6.64457">
        <ele>1843</ele>
        <time>2022-07-16T22:10:00Z</time>
      </trkpt>
      <trkpt lat="45.76434" lon="6.64455">
        <ele>1843</ele>
        <time>2022-07-16T22:10:01Z</time>
      </trkpt>
      <trkpt lat="45.76433" lon="6.64454">
        <ele>1843</ele>
        <time>2022-07-16T22:10:02Z</time>
      </trkpt>
      <trkpt lat="45.76433" lon="6.64452">
        <ele>1843</ele>
        <time>2022-07-16T22:10:03Z</time>
      </trkpt>
      <trkpt lat="45.76432" lon="6.6445">
        <ele>1844</ele>
        <time>2022-07-16T22:10:05Z</time>
      </trkpt>
      <trkpt lat="45.76431" lon="6.64446">
        <ele>1844</ele>
        <time>2022-07-16T22:10:08Z</time>
      </trkpt>
      <trkpt lat="45.7643" lon="6.64443">
        <ele>1845</ele>
        <time>2022-07-16T22:10:10Z</time>
      </trkpt>
      <trkpt lat="45.76429" lon="6.64441">
        <ele>1845</ele>
        <time>2022-07-16T22:10:12Z</time>
      </trkpt>
      <trkpt lat="45.76428" lon="6.64437">
        <ele>1845</ele>
        <time>2022-07-16T22:10:15Z</time>
      </trkpt>
      <trkpt lat="45.76426" lon="6.64435">
        <ele>1846</ele>
        <time>2022-07-16T22:10:17Z</time>
      </trkpt>
      <trkpt lat="45.76425" lon="6.64432">
        <ele>1845</ele>
        <time>2022-07-16T22:10:19Z</time>
      </trkpt>
      <trkpt lat="45.76423" lon="6.6443">
        <ele>1846</ele>
        <time>2022-07-16T22:10:21Z</time>
      </trkpt>
      <trkpt lat="45.76422" lon="6.64428">
        <ele>1846</ele>
        <time>2022-07-16T22:10:22Z</time>
      </trkpt>
      <trkpt lat="45.7642" lon="6.64425">
        <ele>1846</ele>
        <time>2022-07-16T22:10:25Z</time>
      </trkpt>
      <trkpt lat="45.76418" lon="6.64422">
        <ele>1846</ele>
        <time>2022-07-16T22:10:27Z</time>
      </trkpt>
      <trkpt lat="45.76416" lon="6.64419">
        <ele>1846</ele>
        <time>2022-07-16T22:10:29Z</time>
      </trkpt>
      <trkpt lat="45.76415" lon="6.64416">
        <ele>1846</ele>
        <time>2022-07-16T22:10:31Z</time>
      </trkpt>
      <trkpt lat="45.76413" lon="6.64413">
        <ele>1846</ele>
        <time>2022-07-16T22:10:33Z</time>
      </trkpt>
      <trkpt lat="45.76412" lon="6.64409">
        <ele>1846</ele>
        <time>2022-07-16T22:10:35Z</time>
      </trkpt>
      <trkpt lat="45.76411" lon="6.64406">
        <ele>1846</ele>
        <time>2022-07-16T22:10:37Z</time>
      </trkpt>
      <trkpt lat="45.7641" lon="6.64403">
        <ele>1846</ele>
        <time>2022-07-16T22:10:38Z</time>
      </trkpt>
      <trkpt lat="45.76409" lon="6.64399">
        <ele>1847</ele>
        <time>2022-07-16T22:10:41Z</time>
      </trkpt>
      <trkpt lat="45.76408" lon="6.64396">
        <ele>1847</ele>
        <time>2022-07-16T22:10:43Z</time>
      </trkpt>
      <trkpt lat="45.76407" lon="6.64393">
        <ele>1847</ele>
        <time>2022-07-16T22:10:45Z</time>
      </trkpt>
      <trkpt lat="45.76406" lon="6.6439">
        <ele>1847</ele>
        <time>2022-07-16T22:10:47Z</time>
      </trkpt>
      <trkpt lat="45.76404" lon="6.64388">
        <ele>1847</ele>
        <time>2022-07-16T22:10:49Z</time>
      </trkpt>
      <trkpt lat="45.76403" lon="6.64386">
        <ele>1848</ele>
        <time>2022-07-16T22:10:51Z</time>
      </trkpt>
      <trkpt lat="45.76401" lon="6.64383">
        <ele>1848</ele>
        <time>2022-07-16T22:10:53Z</time>
      </trkpt>
      <trkpt lat="45.764" lon="6.64381">
        <ele>1848</ele>
        <time>2022-07-16T22:10:55Z</time>
      </trkpt>
      <trkpt lat="45.76399" lon="6.64379">
        <ele>1849</ele>
        <time>2022-07-16T22:10:57Z</time>
      </trkpt>
      <trkpt lat="45.76397" lon="6.64377">
        <ele>1849</ele>
        <time>2022-07-16T22:10:59Z</time>
      </trkpt>
      <trkpt lat="45.76396" lon="6.64375">
        <ele>1849</ele>
        <time>2022-07-16T22:11:01Z</time>
      </trkpt>
      <trkpt lat="45.76394" lon="6.64373">
        <ele>1850</ele>
        <time>2022-07-16T22:11:03Z</time>
      </trkpt>
      <trkpt lat="45.76392" lon="6.64371">
        <ele>1850</ele>
        <time>2022-07-16T22:11:05Z</time>
      </trkpt>
      <trkpt lat="45.76391" lon="6.6437">
        <ele>1850</ele>
        <time>2022-07-16T22:11:07Z</time>
      </trkpt>
      <trkpt lat="45.76389" lon="6.64368">
        <ele>1851</ele>
        <time>2022-07-16T22:11:09Z</time>
      </trkpt>
      <trkpt lat="45.76387" lon="6.64367">
        <ele>1851</ele>
        <time>2022-07-16T22:11:11Z</time>
      </trkpt>
      <trkpt lat="45.76385" lon="6.64366">
        <ele>1851</ele>
        <time>2022-07-16T22:11:13Z</time>
      </trkpt>
      <trkpt lat="45.76384" lon="6.64364">
        <ele>1851</ele>
        <time>2022-07-16T22:11:15Z</time>
      </trkpt>
      <trkpt lat="45.76382" lon="6.64362">
        <ele>1852</ele>
        <time>2022-07-16T22:11:17Z</time>
      </trkpt>
      <trkpt lat="45.7638" lon="6.64361">
        <ele>1852</ele>
        <time>2022-07-16T22:11:19Z</time>
      </trkpt>
      <trkpt lat="45.76378" lon="6.64359">
        <ele>1852</ele>
        <time>2022-07-16T22:11:20Z</time>
      </trkpt>
      <trkpt lat="45.76378" lon="6.64356">
        <ele>1852</ele>
        <time>2022-07-16T22:11:23Z</time>
      </trkpt>
      <trkpt lat="45.76376" lon="6.64354">
        <ele>1853</ele>
        <time>2022-07-16T22:11:25Z</time>
      </trkpt>
      <trkpt lat="45.76375" lon="6.64352">
        <ele>1853</ele>
        <time>2022-07-16T22:11:27Z</time>
      </trkpt>
      <trkpt lat="45.76374" lon="6.64349">
        <ele>1853</ele>
        <time>2022-07-16T22:11:30Z</time>
      </trkpt>
      <trkpt lat="45.76373" lon="6.64346">
        <ele>1853</ele>
        <time>2022-07-16T22:11:32Z</time>
      </trkpt>
      <trkpt lat="45.76373" lon="6.64343">
        <ele>1855</ele>
        <time>2022-07-16T22:11:34Z</time>
      </trkpt>
      <trkpt lat="45.76373" lon="6.6434">
        <ele>1855</ele>
        <time>2022-07-16T22:11:36Z</time>
      </trkpt>
      <trkpt lat="45.76374" lon="6.64337">
        <ele>1855</ele>
        <time>2022-07-16T22:11:38Z</time>
      </trkpt>
      <trkpt lat="45.76376" lon="6.64334">
        <ele>1855</ele>
        <time>2022-07-16T22:11:41Z</time>
      </trkpt>
      <trkpt lat="45.76378" lon="6.64333">
        <ele>1856</ele>
        <time>2022-07-16T22:11:43Z</time>
      </trkpt>
      <trkpt lat="45.7638" lon="6.64331">
        <ele>1856</ele>
        <time>2022-07-16T22:11:45Z</time>
      </trkpt>
      <trkpt lat="45.76383" lon="6.6433">
        <ele>1856</ele>
        <time>2022-07-16T22:11:47Z</time>
      </trkpt>
      <trkpt lat="45.76385" lon="6.6433">
        <ele>1856</ele>
        <time>2022-07-16T22:11:49Z</time>
      </trkpt>
      <trkpt lat="45.76388" lon="6.6433">
        <ele>1856</ele>
        <time>2022-07-16T22:11:51Z</time>
      </trkpt>
      <trkpt lat="45.7639" lon="6.6433">
        <ele>1856</ele>
        <time>2022-07-16T22:11:53Z</time>
      </trkpt>
      <trkpt lat="45.76392" lon="6.6433">
        <ele>1856</ele>
        <time>2022-07-16T22:11:54Z</time>
      </trkpt>
      <trkpt lat="45.76395" lon="6.6433">
        <ele>1856</ele>
        <time>2022-07-16T22:11:57Z</time>
      </trkpt>
      <trkpt lat="45.76397" lon="6.6433">
        <ele>1857</ele>
        <time>2022-07-16T22:11:59Z</time>
      </trkpt>
      <trkpt lat="45.76399" lon="6.6433">
        <ele>1857</ele>
        <time>2022-07-16T22:12:01Z</time>
      </trkpt>
      <trkpt lat="45.76401" lon="6.6433">
        <ele>1857</ele>
        <time>2022-07-16T22:12:03Z</time>
      </trkpt>
      <trkpt lat="45.76403" lon="6.6433">
        <ele>1857</ele>
        <time>2022-07-16T22:12:05Z</time>
      </trkpt>
      <trkpt lat="45.76406" lon="6.64329">
        <ele>1858</ele>
        <time>2022-07-16T22:12:07Z</time>
      </trkpt>
      <trkpt lat="45.76409" lon="6.64329">
        <ele>1858</ele>
        <time>2022-07-16T22:12:10Z</time>
      </trkpt>
      <trkpt lat="45.7641" lon="6.64328">
        <ele>1858</ele>
        <time>2022-07-16T22:12:12Z</time>
      </trkpt>
      <trkpt lat="45.76413" lon="6.64327">
        <ele>1859</ele>
        <time>2022-07-16T22:12:15Z</time>
      </trkpt>
      <trkpt lat="45.76415" lon="6.64327">
        <ele>1859</ele>
        <time>2022-07-16T22:12:17Z</time>
      </trkpt>
      <trkpt lat="45.76417" lon="6.64326">
        <ele>1860</ele>
        <time>2022-07-16T22:12:19Z</time>
      </trkpt>
      <trkpt lat="45.76419" lon="6.64324">
        <ele>1860</ele>
        <time>2022-07-16T22:12:21Z</time>
      </trkpt>
      <trkpt lat="45.76421" lon="6.64323">
        <ele>1860</ele>
        <time>2022-07-16T22:12:23Z</time>
      </trkpt>
      <trkpt lat="45.76422" lon="6.6432">
        <ele>1861</ele>
        <time>2022-07-16T22:12:25Z</time>
      </trkpt>
      <trkpt lat="45.76424" lon="6.64318">
        <ele>1861</ele>
        <time>2022-07-16T22:12:27Z</time>
      </trkpt>
      <trkpt lat="45.76425" lon="6.64315">
        <ele>1861</ele>
        <time>2022-07-16T22:12:29Z</time>
      </trkpt>
      <trkpt lat="45.76425" lon="6.64311">
        <ele>1861</ele>
        <time>2022-07-16T22:12:31Z</time>
      </trkpt>
      <trkpt lat="45.76423" lon="6.64307">
        <ele>1861</ele>
        <time>2022-07-16T22:12:33Z</time>
      </trkpt>
      <trkpt lat="45.76421" lon="6.64305">
        <ele>1861</ele>
        <time>2022-07-16T22:12:35Z</time>
      </trkpt>
      <trkpt lat="45.76419" lon="6.64304">
        <ele>1861</ele>
        <time>2022-07-16T22:12:37Z</time>
      </trkpt>
      <trkpt lat="45.76417" lon="6.64303">
        <ele>1861</ele>
        <time>2022-07-16T22:12:39Z</time>
      </trkpt>
      <trkpt lat="45.76414" lon="6.64303">
        <ele>1861</ele>
        <time>2022-07-16T22:12:41Z</time>
      </trkpt>
      <trkpt lat="45.76411" lon="6.64303">
        <ele>1862</ele>
        <time>2022-07-16T22:12:43Z</time>
      </trkpt>
      <trkpt lat="45.76409" lon="6.64304">
        <ele>1862</ele>
        <time>2022-07-16T22:12:45Z</time>
      </trkpt>
      <trkpt lat="45.76406" lon="6.64305">
        <ele>1862</ele>
        <time>2022-07-16T22:12:47Z</time>
      </trkpt>
      <trkpt lat="45.76403" lon="6.64306">
        <ele>1862</ele>
        <time>2022-07-16T22:12:48Z</time>
      </trkpt>
      <trkpt lat="45.76401" lon="6.64307">
        <ele>1862</ele>
        <time>2022-07-16T22:12:51Z</time>
      </trkpt>
      <trkpt lat="45.76398" lon="6.64308">
        <ele>1862</ele>
        <time>2022-07-16T22:12:53Z</time>
      </trkpt>
      <trkpt lat="45.76395" lon="6.64308">
        <ele>1862</ele>
        <time>2022-07-16T22:12:55Z</time>
      </trkpt>
      <trkpt lat="45.76391" lon="6.64309">
        <ele>1862</ele>
        <time>2022-07-16T22:12:57Z</time>
      </trkpt>
      <trkpt lat="45.76389" lon="6.64311">
        <ele>1862</ele>
        <time>2022-07-16T22:12:59Z</time>
      </trkpt>
      <trkpt lat="45.76386" lon="6.64312">
        <ele>1862</ele>
        <time>2022-07-16T22:13:01Z</time>
      </trkpt>
      <trkpt lat="45.76383" lon="6.64312">
        <ele>1862</ele>
        <time>2022-07-16T22:13:03Z</time>
      </trkpt>
      <trkpt lat="45.76381" lon="6.64312">
        <ele>1862</ele>
        <time>2022-07-16T22:13:05Z</time>
      </trkpt>
      <trkpt lat="45.76378" lon="6.64312">
        <ele>1862</ele>
        <time>2022-07-16T22:13:07Z</time>
      </trkpt>
      <trkpt lat="45.76375" lon="6.6431">
        <ele>1861</ele>
        <time>2022-07-16T22:13:09Z</time>
      </trkpt>
      <trkpt lat="45.76372" lon="6.64308">
        <ele>1861</ele>
        <time>2022-07-16T22:13:11Z</time>
      </trkpt>
      <trkpt lat="45.7637" lon="6.64307">
        <ele>1862</ele>
        <time>2022-07-16T22:13:13Z</time>
      </trkpt>
      <trkpt lat="45.76367" lon="6.64306">
        <ele>1862</ele>
        <time>2022-07-16T22:13:15Z</time>
      </trkpt>
      <trkpt lat="45.76365" lon="6.64305">
        <ele>1862</ele>
        <time>2022-07-16T22:13:17Z</time>
      </trkpt>
      <trkpt lat="45.76363" lon="6.64303">
        <ele>1862</ele>
        <time>2022-07-16T22:13:19Z</time>
      </trkpt>
      <trkpt lat="45.76361" lon="6.643">
        <ele>1863</ele>
        <time>2022-07-16T22:13:22Z</time>
      </trkpt>
      <trkpt lat="45.7636" lon="6.64299">
        <ele>1863</ele>
        <time>2022-07-16T22:13:24Z</time>
      </trkpt>
      <trkpt lat="45.76357" lon="6.64297">
        <ele>1863</ele>
        <time>2022-07-16T22:13:26Z</time>
      </trkpt>
      <trkpt lat="45.76355" lon="6.64296">
        <ele>1864</ele>
        <time>2022-07-16T22:13:29Z</time>
      </trkpt>
      <trkpt lat="45.76353" lon="6.64295">
        <ele>1864</ele>
        <time>2022-07-16T22:13:31Z</time>
      </trkpt>
      <trkpt lat="45.76351" lon="6.64294">
        <ele>1865</ele>
        <time>2022-07-16T22:13:34Z</time>
      </trkpt>
      <trkpt lat="45.76348" lon="6.64293">
        <ele>1865</ele>
        <time>2022-07-16T22:13:37Z</time>
      </trkpt>
      <trkpt lat="45.76346" lon="6.64293">
        <ele>1865</ele>
        <time>2022-07-16T22:13:38Z</time>
      </trkpt>
      <trkpt lat="45.76343" lon="6.64293">
        <ele>1866</ele>
        <time>2022-07-16T22:13:41Z</time>
      </trkpt>
      <trkpt lat="45.76341" lon="6.64293">
        <ele>1866</ele>
        <time>2022-07-16T22:13:43Z</time>
      </trkpt>
      <trkpt lat="45.76338" lon="6.64293">
        <ele>1866</ele>
        <time>2022-07-16T22:13:45Z</time>
      </trkpt>
      <trkpt lat="45.76335" lon="6.64293">
        <ele>1866</ele>
        <time>2022-07-16T22:13:48Z</time>
      </trkpt>
      <trkpt lat="45.76334" lon="6.64292">
        <ele>1866</ele>
        <time>2022-07-16T22:13:49Z</time>
      </trkpt>
      <trkpt lat="45.76333" lon="6.64292">
        <ele>1866</ele>
        <time>2022-07-16T22:13:50Z</time>
      </trkpt>
      <trkpt lat="45.76332" lon="6.64292">
        <ele>1866</ele>
        <time>2022-07-16T22:13:51Z</time>
      </trkpt>
      <trkpt lat="45.76331" lon="6.64292">
        <ele>1866</ele>
        <time>2022-07-16T22:13:53Z</time>
      </trkpt>
      <trkpt lat="45.76328" lon="6.64292">
        <ele>1866</ele>
        <time>2022-07-16T22:13:56Z</time>
      </trkpt>
      <trkpt lat="45.76326" lon="6.64287">
        <ele>1868</ele>
        <time>2022-07-16T22:14:01Z</time>
      </trkpt>
      <trkpt lat="45.76327" lon="6.64284">
        <ele>1868</ele>
        <time>2022-07-16T22:14:04Z</time>
      </trkpt>
      <trkpt lat="45.76329" lon="6.64281">
        <ele>1868</ele>
        <time>2022-07-16T22:14:06Z</time>
      </trkpt>
      <trkpt lat="45.76328" lon="6.64278">
        <ele>1869</ele>
        <time>2022-07-16T22:14:09Z</time>
      </trkpt>
      <trkpt lat="45.76326" lon="6.64276">
        <ele>1869</ele>
        <time>2022-07-16T22:14:12Z</time>
      </trkpt>
      <trkpt lat="45.76327" lon="6.64276">
        <ele>1869</ele>
        <time>2022-07-16T22:14:13Z</time>
      </trkpt>
      <trkpt lat="45.76327" lon="6.64275">
        <ele>1869</ele>
        <time>2022-07-16T22:14:14Z</time>
      </trkpt>
      <trkpt lat="45.76328" lon="6.64275">
        <ele>1870</ele>
        <time>2022-07-16T22:14:15Z</time>
      </trkpt>
      <trkpt lat="45.76329" lon="6.64274">
        <ele>1870</ele>
        <time>2022-07-16T22:14:17Z</time>
      </trkpt>
      <trkpt lat="45.7633" lon="6.64274">
        <ele>1870</ele>
        <time>2022-07-16T22:14:19Z</time>
      </trkpt>
      <trkpt lat="45.7633" lon="6.64273">
        <ele>1870</ele>
        <time>2022-07-16T22:14:20Z</time>
      </trkpt>
      <trkpt lat="45.76331" lon="6.64273">
        <ele>1870</ele>
        <time>2022-07-16T22:14:22Z</time>
      </trkpt>
      <trkpt lat="45.76331" lon="6.64272">
        <ele>1870</ele>
        <time>2022-07-16T22:14:23Z</time>
      </trkpt>
      <trkpt lat="45.76332" lon="6.64272">
        <ele>1870</ele>
        <time>2022-07-16T22:14:24Z</time>
      </trkpt>
      <trkpt lat="45.76333" lon="6.64271">
        <ele>1871</ele>
        <time>2022-07-16T22:14:26Z</time>
      </trkpt>
      <trkpt lat="45.76334" lon="6.6427">
        <ele>1871</ele>
        <time>2022-07-16T22:14:29Z</time>
      </trkpt>
      <trkpt lat="45.76335" lon="6.6427">
        <ele>1871</ele>
        <time>2022-07-16T22:14:31Z</time>
      </trkpt>
      <trkpt lat="45.76335" lon="6.64269">
        <ele>1872</ele>
        <time>2022-07-16T22:14:32Z</time>
      </trkpt>
      <trkpt lat="45.76335" lon="6.6427">
        <ele>1872</ele>
        <time>2022-07-16T22:14:33Z</time>
      </trkpt>
      <trkpt lat="45.76334" lon="6.6427">
        <ele>1871</ele>
        <time>2022-07-16T22:14:36Z</time>
      </trkpt>
      <trkpt lat="45.76334" lon="6.64271">
        <ele>1871</ele>
        <time>2022-07-16T22:14:37Z</time>
      </trkpt>
      <trkpt lat="45.76333" lon="6.64272">
        <ele>1871</ele>
        <time>2022-07-16T22:14:42Z</time>
      </trkpt>
      <trkpt lat="45.76332" lon="6.64273">
        <ele>1871</ele>
        <time>2022-07-16T22:14:47Z</time>
      </trkpt>
      <trkpt lat="45.76332" lon="6.64274">
        <ele>1871</ele>
        <time>2022-07-16T22:14:51Z</time>
      </trkpt>
      <trkpt lat="45.76331" lon="6.64274">
        <ele>1871</ele>
        <time>2022-07-16T22:14:52Z</time>
      </trkpt>
      <trkpt lat="45.76331" lon="6.64275">
        <ele>1871</ele>
        <time>2022-07-16T22:14:56Z</time>
      </trkpt>
      <trkpt lat="45.7633" lon="6.64275">
        <ele>1871</ele>
        <time>2022-07-16T22:14:57Z</time>
      </trkpt>
      <trkpt lat="45.7633" lon="6.64276">
        <ele>1871</ele>
        <time>2022-07-16T22:15:00Z</time>
      </trkpt>
      <trkpt lat="45.76329" lon="6.64276">
        <ele>1871</ele>
        <time>2022-07-16T22:15:03Z</time>
      </trkpt>
      <trkpt lat="45.76329" lon="6.64277">
        <ele>1871</ele>
        <time>2022-07-16T22:15:05Z</time>
      </trkpt>
      <trkpt lat="45.76328" lon="6.64277">
        <ele>1871</ele>
        <time>2022-07-16T22:15:08Z</time>
      </trkpt>
      <trkpt lat="45.76328" lon="6.64278">
        <ele>1871</ele>
        <time>2022-07-16T22:15:10Z</time>
      </trkpt>
      <trkpt lat="45.76327" lon="6.64278">
        <ele>1871</ele>
        <time>2022-07-16T22:15:13Z</time>
      </trkpt>
      <trkpt lat="45.76327" lon="6.64279">
        <ele>1871</ele>
        <time>2022-07-16T22:15:14Z</time>
      </trkpt>
      <trkpt lat="45.76326" lon="6.64279">
        <ele>1871</ele>
        <time>2022-07-16T22:15:18Z</time>
      </trkpt>
      <trkpt lat="45.76326" lon="6.6428">
        <ele>1871</ele>
        <time>2022-07-16T22:15:19Z</time>
      </trkpt>
      <trkpt lat="45.76317" lon="6.6429">
        <ele>1871</ele>
        <time>2022-07-16T22:15:20Z</time>
      </trkpt>
      <trkpt lat="45.76317" lon="6.64291">
        <ele>1871</ele>
        <time>2022-07-16T22:15:22Z</time>
      </trkpt>
      <trkpt lat="45.76316" lon="6.64291">
        <ele>1871</ele>
        <time>2022-07-16T22:15:23Z</time>
      </trkpt>
      <trkpt lat="45.76316" lon="6.64292">
        <ele>1871</ele>
        <time>2022-07-16T22:15:25Z</time>
      </trkpt>
      <trkpt lat="45.76315" lon="6.64292">
        <ele>1871</ele>
        <time>2022-07-16T22:15:27Z</time>
      </trkpt>
      <trkpt lat="45.76315" lon="6.64293">
        <ele>1871</ele>
        <time>2022-07-16T22:15:28Z</time>
      </trkpt>
      <trkpt lat="45.76314" lon="6.64293">
        <ele>1871</ele>
        <time>2022-07-16T22:15:31Z</time>
      </trkpt>
      <trkpt lat="45.76314" lon="6.64294">
        <ele>1871</ele>
        <time>2022-07-16T22:15:32Z</time>
      </trkpt>
      <trkpt lat="45.76313" lon="6.64295">
        <ele>1871</ele>
        <time>2022-07-16T22:15:35Z</time>
      </trkpt>
      <trkpt lat="45.76313" lon="6.64296">
        <ele>1871</ele>
        <time>2022-07-16T22:15:38Z</time>
      </trkpt>
      <trkpt lat="45.76312" lon="6.64296">
        <ele>1871</ele>
        <time>2022-07-16T22:15:39Z</time>
      </trkpt>
      <trkpt lat="45.76312" lon="6.64297">
        <ele>1871</ele>
        <time>2022-07-16T22:15:41Z</time>
      </trkpt>
      <trkpt lat="45.76311" lon="6.64297">
        <ele>1871</ele>
        <time>2022-07-16T22:15:43Z</time>
      </trkpt>
      <trkpt lat="45.76311" lon="6.64298">
        <ele>1871</ele>
        <time>2022-07-16T22:15:44Z</time>
      </trkpt>
      <trkpt lat="45.7631" lon="6.64298">
        <ele>1871</ele>
        <time>2022-07-16T22:15:47Z</time>
      </trkpt>
      <trkpt lat="45.7631" lon="6.64299">
        <ele>1871</ele>
        <time>2022-07-16T22:15:48Z</time>
      </trkpt>
      <trkpt lat="45.76309" lon="6.643">
        <ele>1871</ele>
        <time>2022-07-16T22:15:51Z</time>
      </trkpt>
      <trkpt lat="45.76309" lon="6.64301">
        <ele>1871</ele>
        <time>2022-07-16T22:15:54Z</time>
      </trkpt>
      <trkpt lat="45.76308" lon="6.64301">
        <ele>1871</ele>
        <time>2022-07-16T22:15:55Z</time>
      </trkpt>
      <trkpt lat="45.76308" lon="6.64302">
        <ele>1871</ele>
        <time>2022-07-16T22:15:57Z</time>
      </trkpt>
      <trkpt lat="45.76307" lon="6.64302">
        <ele>1871</ele>
        <time>2022-07-16T22:15:59Z</time>
      </trkpt>
      <trkpt lat="45.76306" lon="6.64304">
        <ele>1871</ele>
        <time>2022-07-16T22:16:00Z</time>
      </trkpt>
      <trkpt lat="45.76305" lon="6.64306">
        <ele>1871</ele>
        <time>2022-07-16T22:16:01Z</time>
      </trkpt>
      <trkpt lat="45.76304" lon="6.64309">
        <ele>1871</ele>
        <time>2022-07-16T22:16:02Z</time>
      </trkpt>
      <trkpt lat="45.763" lon="6.64315">
        <ele>1871</ele>
        <time>2022-07-16T22:16:03Z</time>
      </trkpt>
      <trkpt lat="45.763" lon="6.64314">
        <ele>1871</ele>
        <time>2022-07-16T22:16:04Z</time>
      </trkpt>
      <trkpt lat="45.76301" lon="6.64313">
        <ele>1871</ele>
        <time>2022-07-16T22:16:07Z</time>
      </trkpt>
      <trkpt lat="45.76301" lon="6.64312">
        <ele>1871</ele>
        <time>2022-07-16T22:16:09Z</time>
      </trkpt>
      <trkpt lat="45.76301" lon="6.64311">
        <ele>1871</ele>
        <time>2022-07-16T22:16:12Z</time>
      </trkpt>
      <trkpt lat="45.76302" lon="6.64311">
        <ele>1871</ele>
        <time>2022-07-16T22:16:13Z</time>
      </trkpt>
      <trkpt lat="45.76302" lon="6.6431">
        <ele>1871</ele>
        <time>2022-07-16T22:16:15Z</time>
      </trkpt>
      <trkpt lat="45.76303" lon="6.64309">
        <ele>1871</ele>
        <time>2022-07-16T22:16:18Z</time>
      </trkpt>
      <trkpt lat="45.76303" lon="6.64308">
        <ele>1871</ele>
        <time>2022-07-16T22:16:20Z</time>
      </trkpt>
      <trkpt lat="45.76303" lon="6.64307">
        <ele>1871</ele>
        <time>2022-07-16T22:16:23Z</time>
      </trkpt>
      <trkpt lat="45.76304" lon="6.64307">
        <ele>1871</ele>
        <time>2022-07-16T22:16:24Z</time>
      </trkpt>
      <trkpt lat="45.76304" lon="6.64306">
        <ele>1871</ele>
        <time>2022-07-16T22:16:26Z</time>
      </trkpt>
      <trkpt lat="45.76305" lon="6.64305">
        <ele>1871</ele>
        <time>2022-07-16T22:16:29Z</time>
      </trkpt>
      <trkpt lat="45.76305" lon="6.64304">
        <ele>1871</ele>
        <time>2022-07-16T22:16:31Z</time>
      </trkpt>
      <trkpt lat="45.76306" lon="6.64303">
        <ele>1871</ele>
        <time>2022-07-16T22:16:34Z</time>
      </trkpt>
      <trkpt lat="45.76306" lon="6.64302">
        <ele>1871</ele>
        <time>2022-07-16T22:16:37Z</time>
      </trkpt>
      <trkpt lat="45.76307" lon="6.64301">
        <ele>1871</ele>
        <time>2022-07-16T22:16:40Z</time>
      </trkpt>
      <trkpt lat="45.76307" lon="6.643">
        <ele>1871</ele>
        <time>2022-07-16T22:16:42Z</time>
      </trkpt>
      <trkpt lat="45.76308" lon="6.64299">
        <ele>1871</ele>
        <time>2022-07-16T22:16:45Z</time>
      </trkpt>
      <trkpt lat="45.76308" lon="6.64298">
        <ele>1871</ele>
        <time>2022-07-16T22:16:48Z</time>
      </trkpt>
      <trkpt lat="45.76309" lon="6.64297">
        <ele>1871</ele>
        <time>2022-07-16T22:16:51Z</time>
      </trkpt>
      <trkpt lat="45.76309" lon="6.64296">
        <ele>1871</ele>
        <time>2022-07-16T22:16:53Z</time>
      </trkpt>
      <trkpt lat="45.7631" lon="6.64295">
        <ele>1871</ele>
        <time>2022-07-16T22:16:56Z</time>
      </trkpt>
      <trkpt lat="45.7631" lon="6.64294">
        <ele>1871</ele>
        <time>2022-07-16T22:16:59Z</time>
      </trkpt>
      <trkpt lat="45.76311" lon="6.64293">
        <ele>1871</ele>
        <time>2022-07-16T22:17:02Z</time>
      </trkpt>
      <trkpt lat="45.76311" lon="6.64292">
        <ele>1871</ele>
        <time>2022-07-16T22:17:04Z</time>
      </trkpt>
      <trkpt lat="45.76312" lon="6.64291">
        <ele>1871</ele>
        <time>2022-07-16T22:17:07Z</time>
      </trkpt>
      <trkpt lat="45.76312" lon="6.6429">
        <ele>1871</ele>
        <time>2022-07-16T22:17:10Z</time>
      </trkpt>
      <trkpt lat="45.76313" lon="6.64289">
        <ele>1871</ele>
        <time>2022-07-16T22:17:13Z</time>
      </trkpt>
      <trkpt lat="45.76313" lon="6.64288">
        <ele>1871</ele>
        <time>2022-07-16T22:17:15Z</time>
      </trkpt>
      <trkpt lat="45.76314" lon="6.64287">
        <ele>1871</ele>
        <time>2022-07-16T22:17:18Z</time>
      </trkpt>
      <trkpt lat="45.76314" lon="6.64286">
        <ele>1871</ele>
        <time>2022-07-16T22:17:21Z</time>
      </trkpt>
      <trkpt lat="45.76315" lon="6.64285">
        <ele>1871</ele>
        <time>2022-07-16T22:17:24Z</time>
      </trkpt>
      <trkpt lat="45.76315" lon="6.64284">
        <ele>1871</ele>
        <time>2022-07-16T22:17:26Z</time>
      </trkpt>
      <trkpt lat="45.76316" lon="6.64283">
        <ele>1871</ele>
        <time>2022-07-16T22:17:29Z</time>
      </trkpt>
      <trkpt lat="45.76316" lon="6.64282">
        <ele>1871</ele>
        <time>2022-07-16T22:17:32Z</time>
      </trkpt>
      <trkpt lat="45.76317" lon="6.64281">
        <ele>1871</ele>
        <time>2022-07-16T22:17:35Z</time>
      </trkpt>
      <trkpt lat="45.76317" lon="6.6428">
        <ele>1871</ele>
        <time>2022-07-16T22:17:37Z</time>
      </trkpt>
      <trkpt lat="45.76318" lon="6.64279">
        <ele>1871</ele>
        <time>2022-07-16T22:17:40Z</time>
      </trkpt>
      <trkpt lat="45.76318" lon="6.64278">
        <ele>1871</ele>
        <time>2022-07-16T22:17:43Z</time>
      </trkpt>
      <trkpt lat="45.76319" lon="6.64277">
        <ele>1871</ele>
        <time>2022-07-16T22:17:46Z</time>
      </trkpt>
      <trkpt lat="45.76319" lon="6.64276">
        <ele>1871</ele>
        <time>2022-07-16T22:17:48Z</time>
      </trkpt>
      <trkpt lat="45.7632" lon="6.64275">
        <ele>1871</ele>
        <time>2022-07-16T22:17:51Z</time>
      </trkpt>
      <trkpt lat="45.7632" lon="6.64274">
        <ele>1871</ele>
        <time>2022-07-16T22:17:54Z</time>
      </trkpt>
      <trkpt lat="45.76321" lon="6.64273">
        <ele>1871</ele>
        <time>2022-07-16T22:17:57Z</time>
      </trkpt>
      <trkpt lat="45.76321" lon="6.64272">
        <ele>1871</ele>
        <time>2022-07-16T22:17:59Z</time>
      </trkpt>
      <trkpt lat="45.76322" lon="6.64271">
        <ele>1870</ele>
        <time>2022-07-16T22:18:02Z</time>
      </trkpt>
      <trkpt lat="45.76322" lon="6.6427">
        <ele>1870</ele>
        <time>2022-07-16T22:18:05Z</time>
      </trkpt>
      <trkpt lat="45.76323" lon="6.64269">
        <ele>1870</ele>
        <time>2022-07-16T22:18:08Z</time>
      </trkpt>
      <trkpt lat="45.76323" lon="6.64268">
        <ele>1870</ele>
        <time>2022-07-16T22:18:10Z</time>
      </trkpt>
      <trkpt lat="45.76324" lon="6.64267">
        <ele>1870</ele>
        <time>2022-07-16T22:18:13Z</time>
      </trkpt>
      <trkpt lat="45.76324" lon="6.64266">
        <ele>1870</ele>
        <time>2022-07-16T22:18:16Z</time>
      </trkpt>
      <trkpt lat="45.76325" lon="6.64265">
        <ele>1870</ele>
        <time>2022-07-16T22:18:19Z</time>
      </trkpt>
      <trkpt lat="45.76325" lon="6.64264">
        <ele>1870</ele>
        <time>2022-07-16T22:18:21Z</time>
      </trkpt>
      <trkpt lat="45.76326" lon="6.64263">
        <ele>1870</ele>
        <time>2022-07-16T22:18:24Z</time>
      </trkpt>
      <trkpt lat="45.76326" lon="6.64262">
        <ele>1871</ele>
        <time>2022-07-16T22:18:27Z</time>
      </trkpt>
      <trkpt lat="45.76327" lon="6.64261">
        <ele>1871</ele>
        <time>2022-07-16T22:18:30Z</time>
      </trkpt>
      <trkpt lat="45.76327" lon="6.6426">
        <ele>1871</ele>
        <time>2022-07-16T22:18:32Z</time>
      </trkpt>
      <trkpt lat="45.76328" lon="6.64259">
        <ele>1870</ele>
        <time>2022-07-16T22:18:35Z</time>
      </trkpt>
      <trkpt lat="45.76328" lon="6.64258">
        <ele>1871</ele>
        <time>2022-07-16T22:18:38Z</time>
      </trkpt>
      <trkpt lat="45.76329" lon="6.64257">
        <ele>1871</ele>
        <time>2022-07-16T22:18:41Z</time>
      </trkpt>
      <trkpt lat="45.76329" lon="6.64256">
        <ele>1871</ele>
        <time>2022-07-16T22:18:43Z</time>
      </trkpt>
      <trkpt lat="45.7633" lon="6.64255">
        <ele>1871</ele>
        <time>2022-07-16T22:18:46Z</time>
      </trkpt>
      <trkpt lat="45.7633" lon="6.64254">
        <ele>1871</ele>
        <time>2022-07-16T22:18:49Z</time>
      </trkpt>
      <trkpt lat="45.76331" lon="6.64253">
        <ele>1871</ele>
        <time>2022-07-16T22:18:52Z</time>
      </trkpt>
      <trkpt lat="45.76331" lon="6.64252">
        <ele>1871</ele>
        <time>2022-07-16T22:18:54Z</time>
      </trkpt>
      <trkpt lat="45.76331" lon="6.64251">
        <ele>1871</ele>
        <time>2022-07-16T22:18:56Z</time>
      </trkpt>
      <trkpt lat="45.76332" lon="6.6425">
        <ele>1871</ele>
        <time>2022-07-16T22:18:57Z</time>
      </trkpt>
      <trkpt lat="45.76332" lon="6.64248">
        <ele>1871</ele>
        <time>2022-07-16T22:18:58Z</time>
      </trkpt>
      <trkpt lat="45.76332" lon="6.64247">
        <ele>1871</ele>
        <time>2022-07-16T22:18:59Z</time>
      </trkpt>
      <trkpt lat="45.76332" lon="6.64246">
        <ele>1871</ele>
        <time>2022-07-16T22:19:00Z</time>
      </trkpt>
      <trkpt lat="45.76332" lon="6.64244">
        <ele>1871</ele>
        <time>2022-07-16T22:19:01Z</time>
      </trkpt>
      <trkpt lat="45.76333" lon="6.64243">
        <ele>1871</ele>
        <time>2022-07-16T22:19:02Z</time>
      </trkpt>
      <trkpt lat="45.76333" lon="6.64242">
        <ele>1871</ele>
        <time>2022-07-16T22:19:03Z</time>
      </trkpt>
      <trkpt lat="45.76333" lon="6.64241">
        <ele>1871</ele>
        <time>2022-07-16T22:19:04Z</time>
      </trkpt>
      <trkpt lat="45.76333" lon="6.64239">
        <ele>1871</ele>
        <time>2022-07-16T22:19:05Z</time>
      </trkpt>
      <trkpt lat="45.76334" lon="6.6424">
        <ele>1871</ele>
        <time>2022-07-16T22:19:06Z</time>
      </trkpt>
      <trkpt lat="45.76334" lon="6.64241">
        <ele>1871</ele>
        <time>2022-07-16T22:19:07Z</time>
      </trkpt>
      <trkpt lat="45.76334" lon="6.64242">
        <ele>1871</ele>
        <time>2022-07-16T22:19:08Z</time>
      </trkpt>
      <trkpt lat="45.76335" lon="6.64243">
        <ele>1871</ele>
        <time>2022-07-16T22:19:09Z</time>
      </trkpt>
      <trkpt lat="45.76335" lon="6.64244">
        <ele>1871</ele>
        <time>2022-07-16T22:19:11Z</time>
      </trkpt>
      <trkpt lat="45.76336" lon="6.64245">
        <ele>1871</ele>
        <time>2022-07-16T22:19:12Z</time>
      </trkpt>
      <trkpt lat="45.76336" lon="6.64246">
        <ele>1871</ele>
        <time>2022-07-16T22:19:13Z</time>
      </trkpt>
      <trkpt lat="45.76336" lon="6.64247">
        <ele>1871</ele>
        <time>2022-07-16T22:19:14Z</time>
      </trkpt>
      <trkpt lat="45.76337" lon="6.64247">
        <ele>1871</ele>
        <time>2022-07-16T22:19:15Z</time>
      </trkpt>
      <trkpt lat="45.76337" lon="6.64248">
        <ele>1871</ele>
        <time>2022-07-16T22:19:16Z</time>
      </trkpt>
      <trkpt lat="45.76338" lon="6.64249">
        <ele>1871</ele>
        <time>2022-07-16T22:19:17Z</time>
      </trkpt>
      <trkpt lat="45.76338" lon="6.6425">
        <ele>1871</ele>
        <time>2022-07-16T22:19:18Z</time>
      </trkpt>
      <trkpt lat="45.76338" lon="6.64251">
        <ele>1871</ele>
        <time>2022-07-16T22:19:19Z</time>
      </trkpt>
      <trkpt lat="45.76338" lon="6.6425">
        <ele>1871</ele>
        <time>2022-07-16T22:19:20Z</time>
      </trkpt>
      <trkpt lat="45.76337" lon="6.6425">
        <ele>1871</ele>
        <time>2022-07-16T22:19:21Z</time>
      </trkpt>
      <trkpt lat="45.76337" lon="6.64249">
        <ele>1871</ele>
        <time>2022-07-16T22:19:22Z</time>
      </trkpt>
      <trkpt lat="45.76336" lon="6.64249">
        <ele>1871</ele>
        <time>2022-07-16T22:19:23Z</time>
      </trkpt>
      <trkpt lat="45.76336" lon="6.64248">
        <ele>1871</ele>
        <time>2022-07-16T22:19:24Z</time>
      </trkpt>
      <trkpt lat="45.76335" lon="6.64248">
        <ele>1871</ele>
        <time>2022-07-16T22:19:25Z</time>
      </trkpt>
      <trkpt lat="45.76335" lon="6.64247">
        <ele>1871</ele>
        <time>2022-07-16T22:19:26Z</time>
      </trkpt>
      <trkpt lat="45.76334" lon="6.64247">
        <ele>1871</ele>
        <time>2022-07-16T22:19:27Z</time>
      </trkpt>
      <trkpt lat="45.76334" lon="6.64246">
        <ele>1871</ele>
        <time>2022-07-16T22:19:28Z</time>
      </trkpt>
      <trkpt lat="45.76333" lon="6.64246">
        <ele>1871</ele>
        <time>2022-07-16T22:19:29Z</time>
      </trkpt>
      <trkpt lat="45.76332" lon="6.64245">
        <ele>1871</ele>
        <time>2022-07-16T22:19:31Z</time>
      </trkpt>
      <trkpt lat="45.76331" lon="6.64244">
        <ele>1871</ele>
        <time>2022-07-16T22:19:33Z</time>
      </trkpt>
      <trkpt lat="45.7633" lon="6.64244">
        <ele>1871</ele>
        <time>2022-07-16T22:19:34Z</time>
      </trkpt>
      <trkpt lat="45.7633" lon="6.64243">
        <ele>1871</ele>
        <time>2022-07-16T22:19:35Z</time>
      </trkpt>
      <trkpt lat="45.76329" lon="6.64243">
        <ele>1871</ele>
        <time>2022-07-16T22:19:36Z</time>
      </trkpt>
      <trkpt lat="45.76329" lon="6.64241">
        <ele>1871</ele>
        <time>2022-07-16T22:19:37Z</time>
      </trkpt>
      <trkpt lat="45.76329" lon="6.6424">
        <ele>1871</ele>
        <time>2022-07-16T22:19:38Z</time>
      </trkpt>
      <trkpt lat="45.76328" lon="6.64239">
        <ele>1871</ele>
        <time>2022-07-16T22:19:39Z</time>
      </trkpt>
      <trkpt lat="45.76328" lon="6.64237">
        <ele>1871</ele>
        <time>2022-07-16T22:19:40Z</time>
      </trkpt>
      <trkpt lat="45.76327" lon="6.64236">
        <ele>1871</ele>
        <time>2022-07-16T22:19:41Z</time>
      </trkpt>
      <trkpt lat="45.76327" lon="6.64235">
        <ele>1871</ele>
        <time>2022-07-16T22:19:42Z</time>
      </trkpt>
      <trkpt lat="45.76326" lon="6.64233">
        <ele>1871</ele>
        <time>2022-07-16T22:19:43Z</time>
      </trkpt>
      <trkpt lat="45.76326" lon="6.64232">
        <ele>1871</ele>
        <time>2022-07-16T22:19:44Z</time>
      </trkpt>
      <trkpt lat="45.76326" lon="6.64231">
        <ele>1871</ele>
        <time>2022-07-16T22:19:45Z</time>
      </trkpt>
      <trkpt lat="45.76327" lon="6.64232">
        <ele>1871</ele>
        <time>2022-07-16T22:19:47Z</time>
      </trkpt>
      <trkpt lat="45.76327" lon="6.64233">
        <ele>1871</ele>
        <time>2022-07-16T22:19:48Z</time>
      </trkpt>
      <trkpt lat="45.76328" lon="6.64234">
        <ele>1871</ele>
        <time>2022-07-16T22:19:49Z</time>
      </trkpt>
      <trkpt lat="45.76328" lon="6.64235">
        <ele>1871</ele>
        <time>2022-07-16T22:19:50Z</time>
      </trkpt>
      <trkpt lat="45.76329" lon="6.64236">
        <ele>1871</ele>
        <time>2022-07-16T22:19:51Z</time>
      </trkpt>
      <trkpt lat="45.76334" lon="6.64243">
        <ele>1871</ele>
        <time>2022-07-16T22:19:52Z</time>
      </trkpt>
      <trkpt lat="45.76336" lon="6.64244">
        <ele>1871</ele>
        <time>2022-07-16T22:19:53Z</time>
      </trkpt>
      <trkpt lat="45.76337" lon="6.64246">
        <ele>1871</ele>
        <time>2022-07-16T22:19:54Z</time>
      </trkpt>
      <trkpt lat="45.76338" lon="6.64248">
        <ele>1871</ele>
        <time>2022-07-16T22:19:55Z</time>
      </trkpt>
      <trkpt lat="45.7634" lon="6.6425">
        <ele>1871</ele>
        <time>2022-07-16T22:19:56Z</time>
      </trkpt>
      <trkpt lat="45.7634" lon="6.64249">
        <ele>1871</ele>
        <time>2022-07-16T22:19:57Z</time>
      </trkpt>
      <trkpt lat="45.7634" lon="6.64248">
        <ele>1871</ele>
        <time>2022-07-16T22:19:58Z</time>
      </trkpt>
      <trkpt lat="45.7634" lon="6.64247">
        <ele>1871</ele>
        <time>2022-07-16T22:19:59Z</time>
      </trkpt>
      <trkpt lat="45.7634" lon="6.64246">
        <ele>1871</ele>
        <time>2022-07-16T22:20:00Z</time>
      </trkpt>
      <trkpt lat="45.7634" lon="6.64245">
        <ele>1871</ele>
        <time>2022-07-16T22:20:01Z</time>
      </trkpt>
      <trkpt lat="45.7634" lon="6.64244">
        <ele>1871</ele>
        <time>2022-07-16T22:20:02Z</time>
      </trkpt>
      <trkpt lat="45.7634" lon="6.64243">
        <ele>1871</ele>
        <time>2022-07-16T22:20:03Z</time>
      </trkpt>
      <trkpt lat="45.7634" lon="6.64242">
        <ele>1871</ele>
        <time>2022-07-16T22:20:04Z</time>
      </trkpt>
      <trkpt lat="45.7634" lon="6.6424">
        <ele>1871</ele>
        <time>2022-07-16T22:20:06Z</time>
      </trkpt>
      <trkpt lat="45.7634" lon="6.64239">
        <ele>1871</ele>
        <time>2022-07-16T22:20:07Z</time>
      </trkpt>
      <trkpt lat="45.7634" lon="6.64238">
        <ele>1871</ele>
        <time>2022-07-16T22:20:08Z</time>
      </trkpt>
      <trkpt lat="45.7634" lon="6.64237">
        <ele>1871</ele>
        <time>2022-07-16T22:20:09Z</time>
      </trkpt>
      <trkpt lat="45.7634" lon="6.64238">
        <ele>1871</ele>
        <time>2022-07-16T22:20:11Z</time>
      </trkpt>
      <trkpt lat="45.7634" lon="6.64239">
        <ele>1871</ele>
        <time>2022-07-16T22:20:18Z</time>
      </trkpt>
      <trkpt lat="45.7634" lon="6.6424">
        <ele>1871</ele>
        <time>2022-07-16T22:20:25Z</time>
      </trkpt>
      <trkpt lat="45.7634" lon="6.6424">
        <ele>1871</ele>
        <time>2022-07-16T22:20:28Z</time>
      </trkpt>
      <trkpt lat="45.7634" lon="6.64241">
        <ele>1871</ele>
        <time>2022-07-16T22:20:32Z</time>
      </trkpt>
      <trkpt lat="45.7634" lon="6.64242">
        <ele>1871</ele>
        <time>2022-07-16T22:20:38Z</time>
      </trkpt>
      <trkpt lat="45.7634" lon="6.64243">
        <ele>1871</ele>
        <time>2022-07-16T22:20:46Z</time>
      </trkpt>
      <trkpt lat="45.7634" lon="6.64244">
        <ele>1871</ele>
        <time>2022-07-16T22:20:53Z</time>
      </trkpt>
      <trkpt lat="45.7634" lon="6.64244">
        <ele>1871</ele>
        <time>2022-07-16T22:20:57Z</time>
      </trkpt>
      <trkpt lat="45.7634" lon="6.64245">
        <ele>1871</ele>
        <time>2022-07-16T22:21:00Z</time>
      </trkpt>
      <trkpt lat="45.7634" lon="6.64246">
        <ele>1871</ele>
        <time>2022-07-16T22:21:07Z</time>
      </trkpt>
      <trkpt lat="45.7634" lon="6.64247">
        <ele>1871</ele>
        <time>2022-07-16T22:21:14Z</time>
      </trkpt>
      <trkpt lat="45.7634" lon="6.64248">
        <ele>1871</ele>
        <time>2022-07-16T22:21:20Z</time>
      </trkpt>
      <trkpt lat="45.7634" lon="6.64248">
        <ele>1870</ele>
        <time>2022-07-16T22:21:25Z</time>
      </trkpt>
      <trkpt lat="45.7634" lon="6.64249">
        <ele>1871</ele>
        <time>2022-07-16T22:21:27Z</time>
      </trkpt>
      <trkpt lat="45.7634" lon="6.6425">
        <ele>1871</ele>
        <time>2022-07-16T22:21:34Z</time>
      </trkpt>
      <trkpt lat="45.7634" lon="6.64251">
        <ele>1871</ele>
        <time>2022-07-16T22:21:42Z</time>
      </trkpt>
      <trkpt lat="45.7634" lon="6.64249">
        <ele>1871</ele>
        <time>2022-07-16T22:21:44Z</time>
      </trkpt>
      <trkpt lat="45.7634" lon="6.64248">
        <ele>1871</ele>
        <time>2022-07-16T22:21:45Z</time>
      </trkpt>
      <trkpt lat="45.7634" lon="6.64246">
        <ele>1871</ele>
        <time>2022-07-16T22:21:46Z</time>
      </trkpt>
      <trkpt lat="45.76339" lon="6.64245">
        <ele>1871</ele>
        <time>2022-07-16T22:21:47Z</time>
      </trkpt>
      <trkpt lat="45.76339" lon="6.64243">
        <ele>1871</ele>
        <time>2022-07-16T22:21:48Z</time>
      </trkpt>
      <trkpt lat="45.76339" lon="6.64241">
        <ele>1871</ele>
        <time>2022-07-16T22:21:49Z</time>
      </trkpt>
      <trkpt lat="45.76339" lon="6.6424">
        <ele>1871</ele>
        <time>2022-07-16T22:21:50Z</time>
      </trkpt>
      <trkpt lat="45.76338" lon="6.64238">
        <ele>1871</ele>
        <time>2022-07-16T22:21:51Z</time>
      </trkpt>
      <trkpt lat="45.76338" lon="6.64237">
        <ele>1871</ele>
        <time>2022-07-16T22:21:52Z</time>
      </trkpt>
      <trkpt lat="45.76338" lon="6.64238">
        <ele>1871</ele>
        <time>2022-07-16T22:21:53Z</time>
      </trkpt>
      <trkpt lat="45.76338" lon="6.64239">
        <ele>1871</ele>
        <time>2022-07-16T22:21:55Z</time>
      </trkpt>
      <trkpt lat="45.76338" lon="6.6424">
        <ele>1871</ele>
        <time>2022-07-16T22:21:57Z</time>
      </trkpt>
      <trkpt lat="45.76338" lon="6.64241">
        <ele>1871</ele>
        <time>2022-07-16T22:21:58Z</time>
      </trkpt>
      <trkpt lat="45.76338" lon="6.64242">
        <ele>1871</ele>
        <time>2022-07-16T22:22:00Z</time>
      </trkpt>
      <trkpt lat="45.76338" lon="6.64243">
        <ele>1871</ele>
        <time>2022-07-16T22:22:01Z</time>
      </trkpt>
      <trkpt lat="45.76338" lon="6.64244">
        <ele>1871</ele>
        <time>2022-07-16T22:22:03Z</time>
      </trkpt>
      <trkpt lat="45.76338" lon="6.64245">
        <ele>1871</ele>
        <time>2022-07-16T22:22:04Z</time>
      </trkpt>
      <trkpt lat="45.76338" lon="6.64246">
        <ele>1871</ele>
        <time>2022-07-16T22:22:06Z</time>
      </trkpt>
      <trkpt lat="45.76338" lon="6.64247">
        <ele>1871</ele>
        <time>2022-07-16T22:22:07Z</time>
      </trkpt>
      <trkpt lat="45.76338" lon="6.64248">
        <ele>1871</ele>
        <time>2022-07-16T22:22:09Z</time>
      </trkpt>
      <trkpt lat="45.76338" lon="6.64249">
        <ele>1870</ele>
        <time>2022-07-16T22:22:10Z</time>
      </trkpt>
      <trkpt lat="45.76338" lon="6.6425">
        <ele>1870</ele>
        <time>2022-07-16T22:22:12Z</time>
      </trkpt>
      <trkpt lat="45.76338" lon="6.64251">
        <ele>1870</ele>
        <time>2022-07-16T22:22:13Z</time>
      </trkpt>
      <trkpt lat="45.76338" lon="6.64252">
        <ele>1870</ele>
        <time>2022-07-16T22:22:15Z</time>
      </trkpt>
      <trkpt lat="45.76338" lon="6.64253">
        <ele>1870</ele>
        <time>2022-07-16T22:22:16Z</time>
      </trkpt>
      <trkpt lat="45.76339" lon="6.64253">
        <ele>1870</ele>
        <time>2022-07-16T22:22:17Z</time>
      </trkpt>
      <trkpt lat="45.76339" lon="6.64254">
        <ele>1870</ele>
        <time>2022-07-16T22:22:18Z</time>
      </trkpt>
      <trkpt lat="45.76339" lon="6.64255">
        <ele>1870</ele>
        <time>2022-07-16T22:22:19Z</time>
      </trkpt>
      <trkpt lat="45.76339" lon="6.64256">
        <ele>1870</ele>
        <time>2022-07-16T22:22:21Z</time>
      </trkpt>
      <trkpt lat="45.76339" lon="6.64257">
        <ele>1870</ele>
        <time>2022-07-16T22:22:22Z</time>
      </trkpt>
      <trkpt lat="45.76339" lon="6.64258">
        <ele>1871</ele>
        <time>2022-07-16T22:22:24Z</time>
      </trkpt>
      <trkpt lat="45.76339" lon="6.64259">
        <ele>1871</ele>
        <time>2022-07-16T22:22:25Z</time>
      </trkpt>
      <trkpt lat="45.76339" lon="6.6426">
        <ele>1871</ele>
        <time>2022-07-16T22:22:27Z</time>
      </trkpt>
      <trkpt lat="45.76339" lon="6.64261">
        <ele>1871</ele>
        <time>2022-07-16T22:22:28Z</time>
      </trkpt>
      <trkpt lat="45.76339" lon="6.64262">
        <ele>1871</ele>
        <time>2022-07-16T22:22:30Z</time>
      </trkpt>
      <trkpt lat="45.76339" lon="6.64263">
        <ele>1871</ele>
        <time>2022-07-16T22:22:31Z</time>
      </trkpt>
      <trkpt lat="45.7634" lon="6.64263">
        <ele>1871</ele>
        <time>2022-07-16T22:22:33Z</time>
      </trkpt>
      <trkpt lat="45.76341" lon="6.64263">
        <ele>1871</ele>
        <time>2022-07-16T22:22:34Z</time>
      </trkpt>
      <trkpt lat="45.76342" lon="6.64263">
        <ele>1871</ele>
        <time>2022-07-16T22:22:35Z</time>
      </trkpt>
      <trkpt lat="45.76343" lon="6.64262">
        <ele>1871</ele>
        <time>2022-07-16T22:22:36Z</time>
      </trkpt>
      <trkpt lat="45.76344" lon="6.64262">
        <ele>1871</ele>
        <time>2022-07-16T22:22:37Z</time>
      </trkpt>
      <trkpt lat="45.76346" lon="6.64262">
        <ele>1871</ele>
        <time>2022-07-16T22:22:38Z</time>
      </trkpt>
      <trkpt lat="45.76347" lon="6.64262">
        <ele>1871</ele>
        <time>2022-07-16T22:22:39Z</time>
      </trkpt>
      <trkpt lat="45.76348" lon="6.64262">
        <ele>1871</ele>
        <time>2022-07-16T22:22:40Z</time>
      </trkpt>
      <trkpt lat="45.76349" lon="6.64261">
        <ele>1871</ele>
        <time>2022-07-16T22:22:41Z</time>
      </trkpt>
      <trkpt lat="45.76351" lon="6.64261">
        <ele>1871</ele>
        <time>2022-07-16T22:22:42Z</time>
      </trkpt>
      <trkpt lat="45.76352" lon="6.64261">
        <ele>1870</ele>
        <time>2022-07-16T22:22:43Z</time>
      </trkpt>
      <trkpt lat="45.76354" lon="6.64261">
        <ele>1870</ele>
        <time>2022-07-16T22:22:44Z</time>
      </trkpt>
      <trkpt lat="45.76355" lon="6.6426">
        <ele>1871</ele>
        <time>2022-07-16T22:22:45Z</time>
      </trkpt>
      <trkpt lat="45.76357" lon="6.6426">
        <ele>1871</ele>
        <time>2022-07-16T22:22:46Z</time>
      </trkpt>
      <trkpt lat="45.76356" lon="6.6426">
        <ele>1871</ele>
        <time>2022-07-16T22:22:47Z</time>
      </trkpt>
      <trkpt lat="45.76355" lon="6.6426">
        <ele>1871</ele>
        <time>2022-07-16T22:22:48Z</time>
      </trkpt>
      <trkpt lat="45.76354" lon="6.6426">
        <ele>1871</ele>
        <time>2022-07-16T22:22:49Z</time>
      </trkpt>
      <trkpt lat="45.76353" lon="6.6426">
        <ele>1871</ele>
        <time>2022-07-16T22:22:50Z</time>
      </trkpt>
      <trkpt lat="45.76352" lon="6.64261">
        <ele>1871</ele>
        <time>2022-07-16T22:22:52Z</time>
      </trkpt>
      <trkpt lat="45.76351" lon="6.64261">
        <ele>1871</ele>
        <time>2022-07-16T22:22:53Z</time>
      </trkpt>
      <trkpt lat="45.7635" lon="6.64261">
        <ele>1871</ele>
        <time>2022-07-16T22:22:54Z</time>
      </trkpt>
      <trkpt lat="45.76349" lon="6.64261">
        <ele>1871</ele>
        <time>2022-07-16T22:22:55Z</time>
      </trkpt>
      <trkpt lat="45.76348" lon="6.64261">
        <ele>1871</ele>
        <time>2022-07-16T22:22:56Z</time>
      </trkpt>
      <trkpt lat="45.76347" lon="6.64261">
        <ele>1871</ele>
        <time>2022-07-16T22:22:57Z</time>
      </trkpt>
      <trkpt lat="45.76347" lon="6.6426">
        <ele>1871</ele>
        <time>2022-07-16T22:22:58Z</time>
      </trkpt>
      <trkpt lat="45.76346" lon="6.64259">
        <ele>1871</ele>
        <time>2022-07-16T22:22:59Z</time>
      </trkpt>
      <trkpt lat="45.76345" lon="6.64258">
        <ele>1871</ele>
        <time>2022-07-16T22:23:00Z</time>
      </trkpt>
      <trkpt lat="45.76345" lon="6.64257">
        <ele>1871</ele>
        <time>2022-07-16T22:23:01Z</time>
      </trkpt>
      <trkpt lat="45.76344" lon="6.64256">
        <ele>1871</ele>
        <time>2022-07-16T22:23:02Z</time>
      </trkpt>
      <trkpt lat="45.76343" lon="6.64255">
        <ele>1871</ele>
        <time>2022-07-16T22:23:03Z</time>
      </trkpt>
      <trkpt lat="45.76343" lon="6.64254">
        <ele>1871</ele>
        <time>2022-07-16T22:23:04Z</time>
      </trkpt>
      <trkpt lat="45.76342" lon="6.64253">
        <ele>1871</ele>
        <time>2022-07-16T22:23:05Z</time>
      </trkpt>
      <trkpt lat="45.76341" lon="6.64252">
        <ele>1871</ele>
        <time>2022-07-16T22:23:06Z</time>
      </trkpt>
      <trkpt lat="45.76341" lon="6.64251">
        <ele>1871</ele>
        <time>2022-07-16T22:23:07Z</time>
      </trkpt>
      <trkpt lat="45.7634" lon="6.6425">
        <ele>1871</ele>
        <time>2022-07-16T22:23:08Z</time>
      </trkpt>
      <trkpt lat="45.76339" lon="6.64249">
        <ele>1871</ele>
        <time>2022-07-16T22:23:09Z</time>
      </trkpt>
      <trkpt lat="45.76339" lon="6.64248">
        <ele>1871</ele>
        <time>2022-07-16T22:23:10Z</time>
      </trkpt>
      <trkpt lat="45.76338" lon="6.64247">
        <ele>1871</ele>
        <time>2022-07-16T22:23:11Z</time>
      </trkpt>
      <trkpt lat="45.76338" lon="6.64246">
        <ele>1871</ele>
        <time>2022-07-16T22:23:12Z</time>
      </trkpt>
      <trkpt lat="45.76338" lon="6.64247">
        <ele>1871</ele>
        <time>2022-07-16T22:23:13Z</time>
      </trkpt>
      <trkpt lat="45.76338" lon="6.64248">
        <ele>1871</ele>
        <time>2022-07-16T22:23:14Z</time>
      </trkpt>
      <trkpt lat="45.76338" lon="6.64249">
        <ele>1871</ele>
        <time>2022-07-16T22:23:15Z</time>
      </trkpt>
      <trkpt lat="45.76338" lon="6.6425">
        <ele>1871</ele>
        <time>2022-07-16T22:23:16Z</time>
      </trkpt>
      <trkpt lat="45.76338" lon="6.64251">
        <ele>1871</ele>
        <time>2022-07-16T22:23:17Z</time>
      </trkpt>
      <trkpt lat="45.76338" lon="6.64252">
        <ele>1871</ele>
        <time>2022-07-16T22:23:18Z</time>
      </trkpt>
      <trkpt lat="45.76338" lon="6.64253">
        <ele>1871</ele>
        <time>2022-07-16T22:23:19Z</time>
      </trkpt>
      <trkpt lat="45.76338" lon="6.64254">
        <ele>1871</ele>
        <time>2022-07-16T22:23:20Z</time>
      </trkpt>
      <trkpt lat="45.76338" lon="6.64255">
        <ele>1872</ele>
        <time>2022-07-16T22:23:22Z</time>
      </trkpt>
      <trkpt lat="45.76338" lon="6.64256">
        <ele>1872</ele>
        <time>2022-07-16T22:23:23Z</time>
      </trkpt>
      <trkpt lat="45.76338" lon="6.64257">
        <ele>1872</ele>
        <time>2022-07-16T22:23:24Z</time>
      </trkpt>
      <trkpt lat="45.76338" lon="6.64258">
        <ele>1872</ele>
        <time>2022-07-16T22:23:25Z</time>
      </trkpt>
      <trkpt lat="45.76338" lon="6.64259">
        <ele>1872</ele>
        <time>2022-07-16T22:23:26Z</time>
      </trkpt>
      <trkpt lat="45.76338" lon="6.6426">
        <ele>1872</ele>
        <time>2022-07-16T22:23:27Z</time>
      </trkpt>
      <trkpt lat="45.76337" lon="6.6426">
        <ele>1872</ele>
        <time>2022-07-16T22:23:28Z</time>
      </trkpt>
      <trkpt lat="45.76337" lon="6.64261">
        <ele>1872</ele>
        <time>2022-07-16T22:23:29Z</time>
      </trkpt>
      <trkpt lat="45.76336" lon="6.64261">
        <ele>1872</ele>
        <time>2022-07-16T22:23:30Z</time>
      </trkpt>
      <trkpt lat="45.76336" lon="6.64262">
        <ele>1872</ele>
        <time>2022-07-16T22:23:31Z</time>
      </trkpt>
      <trkpt lat="45.76335" lon="6.64262">
        <ele>1872</ele>
        <time>2022-07-16T22:23:32Z</time>
      </trkpt>
      <trkpt lat="45.76334" lon="6.64262">
        <ele>1872</ele>
        <time>2022-07-16T22:23:33Z</time>
      </trkpt>
      <trkpt lat="45.76334" lon="6.64263">
        <ele>1872</ele>
        <time>2022-07-16T22:23:34Z</time>
      </trkpt>
      <trkpt lat="45.76333" lon="6.64263">
        <ele>1872</ele>
        <time>2022-07-16T22:23:35Z</time>
      </trkpt>
      <trkpt lat="45.76332" lon="6.64264">
        <ele>1872</ele>
        <time>2022-07-16T22:23:36Z</time>
      </trkpt>
      <trkpt lat="45.76331" lon="6.64264">
        <ele>1872</ele>
        <time>2022-07-16T22:23:38Z</time>
      </trkpt>
      <trkpt lat="45.76331" lon="6.64265">
        <ele>1872</ele>
        <time>2022-07-16T22:23:39Z</time>
      </trkpt>
      <trkpt lat="45.7633" lon="6.64265">
        <ele>1872</ele>
        <time>2022-07-16T22:23:40Z</time>
      </trkpt>
      <trkpt lat="45.76329" lon="6.64266">
        <ele>1872</ele>
        <time>2022-07-16T22:23:41Z</time>
      </trkpt>
      <trkpt lat="45.7633" lon="6.64265">
        <ele>1872</ele>
        <time>2022-07-16T22:23:42Z</time>
      </trkpt>
      <trkpt lat="45.7633" lon="6.64264">
        <ele>1872</ele>
        <time>2022-07-16T22:23:43Z</time>
      </trkpt>
      <trkpt lat="45.7633" lon="6.64263">
        <ele>1872</ele>
        <time>2022-07-16T22:23:44Z</time>
      </trkpt>
      <trkpt lat="45.76331" lon="6.64262">
        <ele>1872</ele>
        <time>2022-07-16T22:23:45Z</time>
      </trkpt>
      <trkpt lat="45.76331" lon="6.64261">
        <ele>1872</ele>
        <time>2022-07-16T22:23:46Z</time>
      </trkpt>
      <trkpt lat="45.76332" lon="6.6426">
        <ele>1872</ele>
        <time>2022-07-16T22:23:48Z</time>
      </trkpt>
      <trkpt lat="45.76332" lon="6.64259">
        <ele>1872</ele>
        <time>2022-07-16T22:23:49Z</time>
      </trkpt>
      <trkpt lat="45.76332" lon="6.64258">
        <ele>1872</ele>
        <time>2022-07-16T22:23:50Z</time>
      </trkpt>
      <trkpt lat="45.76333" lon="6.64257">
        <ele>1872</ele>
        <time>2022-07-16T22:23:51Z</time>
      </trkpt>
      <trkpt lat="45.76333" lon="6.64256">
        <ele>1872</ele>
        <time>2022-07-16T22:23:52Z</time>
      </trkpt>
      <trkpt lat="45.76333" lon="6.64255">
        <ele>1872</ele>
        <time>2022-07-16T22:23:53Z</time>
      </trkpt>
      <trkpt lat="45.76334" lon="6.64254">
        <ele>1872</ele>
        <time>2022-07-16T22:23:54Z</time>
      </trkpt>
      <trkpt lat="45.76334" lon="6.64253">
        <ele>1872</ele>
        <time>2022-07-16T22:23:57Z</time>
      </trkpt>
      <trkpt lat="45.76335" lon="6.64253">
        <ele>1872</ele>
        <time>2022-07-16T22:23:58Z</time>
      </trkpt>
      <trkpt lat="45.76336" lon="6.64253">
        <ele>1872</ele>
        <time>2022-07-16T22:24:04Z</time>
      </trkpt>
      <trkpt lat="45.76336" lon="6.64252">
        <ele>1872</ele>
        <time>2022-07-16T22:24:05Z</time>
      </trkpt>
      <trkpt lat="45.76337" lon="6.64252">
        <ele>1872</ele>
        <time>2022-07-16T22:24:09Z</time>
      </trkpt>
      <trkpt lat="45.76337" lon="6.64251">
        <ele>1872</ele>
        <time>2022-07-16T22:24:14Z</time>
      </trkpt>
      <trkpt lat="45.76338" lon="6.64251">
        <ele>1872</ele>
        <time>2022-07-16T22:24:15Z</time>
      </trkpt>
      <trkpt lat="45.76339" lon="6.64251">
        <ele>1872</ele>
        <time>2022-07-16T22:24:20Z</time>
      </trkpt>
      <trkpt lat="45.76339" lon="6.6425">
        <ele>1872</ele>
        <time>2022-07-16T22:24:23Z</time>
      </trkpt>
      <trkpt lat="45.7634" lon="6.6425">
        <ele>1872</ele>
        <time>2022-07-16T22:24:26Z</time>
      </trkpt>
      <trkpt lat="45.76341" lon="6.64249">
        <ele>1872</ele>
        <time>2022-07-16T22:24:31Z</time>
      </trkpt>
      <trkpt lat="45.76342" lon="6.64249">
        <ele>1872</ele>
        <time>2022-07-16T22:24:37Z</time>
      </trkpt>
      <trkpt lat="45.76342" lon="6.64248">
        <ele>1871</ele>
        <time>2022-07-16T22:24:40Z</time>
      </trkpt>
      <trkpt lat="45.76342" lon="6.64249">
        <ele>1872</ele>
        <time>2022-07-16T22:24:42Z</time>
      </trkpt>
      <trkpt lat="45.76341" lon="6.6425">
        <ele>1872</ele>
        <time>2022-07-16T22:24:43Z</time>
      </trkpt>
      <trkpt lat="45.76341" lon="6.64251">
        <ele>1872</ele>
        <time>2022-07-16T22:24:44Z</time>
      </trkpt>
      <trkpt lat="45.7634" lon="6.64251">
        <ele>1872</ele>
        <time>2022-07-16T22:24:45Z</time>
      </trkpt>
      <trkpt lat="45.7634" lon="6.64252">
        <ele>1872</ele>
        <time>2022-07-16T22:24:46Z</time>
      </trkpt>
      <trkpt lat="45.7634" lon="6.64253">
        <ele>1872</ele>
        <time>2022-07-16T22:24:47Z</time>
      </trkpt>
      <trkpt lat="45.76339" lon="6.64254">
        <ele>1871</ele>
        <time>2022-07-16T22:24:48Z</time>
      </trkpt>
      <trkpt lat="45.76338" lon="6.64255">
        <ele>1871</ele>
        <time>2022-07-16T22:24:50Z</time>
      </trkpt>
      <trkpt lat="45.76338" lon="6.64256">
        <ele>1871</ele>
        <time>2022-07-16T22:24:51Z</time>
      </trkpt>
      <trkpt lat="45.76337" lon="6.64257">
        <ele>1871</ele>
        <time>2022-07-16T22:24:52Z</time>
      </trkpt>
      <trkpt lat="45.76336" lon="6.64258">
        <ele>1871</ele>
        <time>2022-07-16T22:24:54Z</time>
      </trkpt>
      <trkpt lat="45.76335" lon="6.64259">
        <ele>1871</ele>
        <time>2022-07-16T22:24:55Z</time>
      </trkpt>
      <trkpt lat="45.76334" lon="6.64261">
        <ele>1872</ele>
        <time>2022-07-16T22:24:56Z</time>
      </trkpt>
      <trkpt lat="45.76333" lon="6.64262">
        <ele>1872</ele>
        <time>2022-07-16T22:24:57Z</time>
      </trkpt>
      <trkpt lat="45.76332" lon="6.64263">
        <ele>1872</ele>
        <time>2022-07-16T22:24:58Z</time>
      </trkpt>
      <trkpt lat="45.76331" lon="6.64264">
        <ele>1872</ele>
        <time>2022-07-16T22:24:59Z</time>
      </trkpt>
      <trkpt lat="45.7633" lon="6.64266">
        <ele>1872</ele>
        <time>2022-07-16T22:25:00Z</time>
      </trkpt>
      <trkpt lat="45.76329" lon="6.64267">
        <ele>1872</ele>
        <time>2022-07-16T22:25:01Z</time>
      </trkpt>
      <trkpt lat="45.76328" lon="6.64268">
        <ele>1872</ele>
        <time>2022-07-16T22:25:02Z</time>
      </trkpt>
      <trkpt lat="45.76327" lon="6.64269">
        <ele>1872</ele>
        <time>2022-07-16T22:25:03Z</time>
      </trkpt>
      <trkpt lat="45.76325" lon="6.6427">
        <ele>1871</ele>
        <time>2022-07-16T22:25:04Z</time>
      </trkpt>
      <trkpt lat="45.76324" lon="6.6427">
        <ele>1871</ele>
        <time>2022-07-16T22:25:05Z</time>
      </trkpt>
      <trkpt lat="45.76323" lon="6.64271">
        <ele>1871</ele>
        <time>2022-07-16T22:25:06Z</time>
      </trkpt>
      <trkpt lat="45.76322" lon="6.64272">
        <ele>1871</ele>
        <time>2022-07-16T22:25:07Z</time>
      </trkpt>
      <trkpt lat="45.7632" lon="6.64273">
        <ele>1871</ele>
        <time>2022-07-16T22:25:08Z</time>
      </trkpt>
      <trkpt lat="45.7632" lon="6.64274">
        <ele>1871</ele>
        <time>2022-07-16T22:25:10Z</time>
      </trkpt>
      <trkpt lat="45.7632" lon="6.64275">
        <ele>1871</ele>
        <time>2022-07-16T22:25:12Z</time>
      </trkpt>
      <trkpt lat="45.7632" lon="6.64276">
        <ele>1871</ele>
        <time>2022-07-16T22:25:13Z</time>
      </trkpt>
      <trkpt lat="45.76319" lon="6.64277">
        <ele>1871</ele>
        <time>2022-07-16T22:25:14Z</time>
      </trkpt>
      <trkpt lat="45.76319" lon="6.64278">
        <ele>1871</ele>
        <time>2022-07-16T22:25:15Z</time>
      </trkpt>
      <trkpt lat="45.76319" lon="6.64279">
        <ele>1871</ele>
        <time>2022-07-16T22:25:17Z</time>
      </trkpt>
      <trkpt lat="45.76319" lon="6.6428">
        <ele>1871</ele>
        <time>2022-07-16T22:25:18Z</time>
      </trkpt>
      <trkpt lat="45.76319" lon="6.64281">
        <ele>1871</ele>
        <time>2022-07-16T22:25:19Z</time>
      </trkpt>
      <trkpt lat="45.76318" lon="6.64281">
        <ele>1871</ele>
        <time>2022-07-16T22:25:20Z</time>
      </trkpt>
      <trkpt lat="45.76318" lon="6.64282">
        <ele>1871</ele>
        <time>2022-07-16T22:25:21Z</time>
      </trkpt>
      <trkpt lat="45.76318" lon="6.64283">
        <ele>1871</ele>
        <time>2022-07-16T22:25:22Z</time>
      </trkpt>
      <trkpt lat="45.76318" lon="6.64284">
        <ele>1871</ele>
        <time>2022-07-16T22:25:23Z</time>
      </trkpt>
      <trkpt lat="45.76318" lon="6.64285">
        <ele>1871</ele>
        <time>2022-07-16T22:25:24Z</time>
      </trkpt>
      <trkpt lat="45.76317" lon="6.64285">
        <ele>1871</ele>
        <time>2022-07-16T22:25:25Z</time>
      </trkpt>
      <trkpt lat="45.76318" lon="6.64285">
        <ele>1871</ele>
        <time>2022-07-16T22:25:26Z</time>
      </trkpt>
      <trkpt lat="45.76318" lon="6.64284">
        <ele>1872</ele>
        <time>2022-07-16T22:25:28Z</time>
      </trkpt>
      <trkpt lat="45.76318" lon="6.64283">
        <ele>1872</ele>
        <time>2022-07-16T22:25:31Z</time>
      </trkpt>
      <trkpt lat="45.76319" lon="6.64282">
        <ele>1872</ele>
        <time>2022-07-16T22:25:33Z</time>
      </trkpt>
      <trkpt lat="45.76319" lon="6.64281">
        <ele>1872</ele>
        <time>2022-07-16T22:25:36Z</time>
      </trkpt>
      <trkpt lat="45.76319" lon="6.6428">
        <ele>1872</ele>
        <time>2022-07-16T22:25:39Z</time>
      </trkpt>
      <trkpt lat="45.7632" lon="6.6428">
        <ele>1872</ele>
        <time>2022-07-16T22:25:40Z</time>
      </trkpt>
      <trkpt lat="45.7632" lon="6.64279">
        <ele>1872</ele>
        <time>2022-07-16T22:25:42Z</time>
      </trkpt>
      <trkpt lat="45.7632" lon="6.64278">
        <ele>1872</ele>
        <time>2022-07-16T22:25:45Z</time>
      </trkpt>
      <trkpt lat="45.7632" lon="6.64277">
        <ele>1872</ele>
        <time>2022-07-16T22:25:47Z</time>
      </trkpt>
      <trkpt lat="45.76321" lon="6.64277">
        <ele>1872</ele>
        <time>2022-07-16T22:25:48Z</time>
      </trkpt>
      <trkpt lat="45.76321" lon="6.64276">
        <ele>1872</ele>
        <time>2022-07-16T22:25:50Z</time>
      </trkpt>
      <trkpt lat="45.76321" lon="6.64275">
        <ele>1872</ele>
        <time>2022-07-16T22:25:53Z</time>
      </trkpt>
      <trkpt lat="45.76322" lon="6.64275">
        <ele>1872</ele>
        <time>2022-07-16T22:25:55Z</time>
      </trkpt>
      <trkpt lat="45.76322" lon="6.64274">
        <ele>1872</ele>
        <time>2022-07-16T22:25:56Z</time>
      </trkpt>
      <trkpt lat="45.76321" lon="6.64273">
        <ele>1872</ele>
        <time>2022-07-16T22:26:00Z</time>
      </trkpt>
      <trkpt lat="45.7632" lon="6.64273">
        <ele>1872</ele>
        <time>2022-07-16T22:26:02Z</time>
      </trkpt>
      <trkpt lat="45.76319" lon="6.64273">
        <ele>1872</ele>
        <time>2022-07-16T22:26:04Z</time>
      </trkpt>
      <trkpt lat="45.76318" lon="6.64273">
        <ele>1872</ele>
        <time>2022-07-16T22:26:07Z</time>
      </trkpt>
      <trkpt lat="45.76317" lon="6.64273">
        <ele>1872</ele>
        <time>2022-07-16T22:26:11Z</time>
      </trkpt>
      <trkpt lat="45.76311" lon="6.64272">
        <ele>1872</ele>
        <time>2022-07-16T22:26:13Z</time>
      </trkpt>
      <trkpt lat="45.76311" lon="6.64267">
        <ele>1872</ele>
        <time>2022-07-16T22:26:18Z</time>
      </trkpt>
      <trkpt lat="45.76313" lon="6.64267">
        <ele>1872</ele>
        <time>2022-07-16T22:26:20Z</time>
      </trkpt>
      <trkpt lat="45.76316" lon="6.64267">
        <ele>1872</ele>
        <time>2022-07-16T22:26:22Z</time>
      </trkpt>
      <trkpt lat="45.76318" lon="6.64266">
        <ele>1872</ele>
        <time>2022-07-16T22:26:24Z</time>
      </trkpt>
      <trkpt lat="45.7632" lon="6.64266">
        <ele>1872</ele>
        <time>2022-07-16T22:26:25Z</time>
      </trkpt>
      <trkpt lat="45.76323" lon="6.64265">
        <ele>1872</ele>
        <time>2022-07-16T22:26:28Z</time>
      </trkpt>
      <trkpt lat="45.76325" lon="6.64266">
        <ele>1872</ele>
        <time>2022-07-16T22:26:31Z</time>
      </trkpt>
      <trkpt lat="45.76326" lon="6.64269">
        <ele>1872</ele>
        <time>2022-07-16T22:26:33Z</time>
      </trkpt>
      <trkpt lat="45.76326" lon="6.64272">
        <ele>1872</ele>
        <time>2022-07-16T22:26:35Z</time>
      </trkpt>
      <trkpt lat="45.76328" lon="6.64271">
        <ele>1872</ele>
        <time>2022-07-16T22:26:41Z</time>
      </trkpt>
      <trkpt lat="45.76328" lon="6.64271">
        <ele>1871</ele>
        <time>2022-07-16T22:26:51Z</time>
      </trkpt>
      <trkpt lat="45.76328" lon="6.64271">
        <ele>1871</ele>
        <time>2022-07-16T22:27:07Z</time>
      </trkpt>
      <trkpt lat="45.76328" lon="6.64271">
        <ele>1871</ele>
        <time>2022-07-16T22:27:23Z</time>
      </trkpt>
      <trkpt lat="45.76329" lon="6.64268">
        <ele>1871</ele>
        <time>2022-07-16T22:27:32Z</time>
      </trkpt>
      <trkpt lat="45.76327" lon="6.64266">
        <ele>1872</ele>
        <time>2022-07-16T22:27:36Z</time>
      </trkpt>
      <trkpt lat="45.76325" lon="6.64265">
        <ele>1873</ele>
        <time>2022-07-16T22:27:39Z</time>
      </trkpt>
      <trkpt lat="45.76323" lon="6.64264">
        <ele>1874</ele>
        <time>2022-07-16T22:27:41Z</time>
      </trkpt>
      <trkpt lat="45.76321" lon="6.64264">
        <ele>1874</ele>
        <time>2022-07-16T22:27:43Z</time>
      </trkpt>
      <trkpt lat="45.76319" lon="6.64263">
        <ele>1874</ele>
        <time>2022-07-16T22:27:45Z</time>
      </trkpt>
      <trkpt lat="45.76317" lon="6.64262">
        <ele>1874</ele>
        <time>2022-07-16T22:27:48Z</time>
      </trkpt>
      <trkpt lat="45.76314" lon="6.64262">
        <ele>1875</ele>
        <time>2022-07-16T22:27:51Z</time>
      </trkpt>
      <trkpt lat="45.76312" lon="6.64262">
        <ele>1875</ele>
        <time>2022-07-16T22:27:54Z</time>
      </trkpt>
      <trkpt lat="45.7631" lon="6.64263">
        <ele>1875</ele>
        <time>2022-07-16T22:27:56Z</time>
      </trkpt>
      <trkpt lat="45.76307" lon="6.64263">
        <ele>1876</ele>
        <time>2022-07-16T22:27:59Z</time>
      </trkpt>
      <trkpt lat="45.76305" lon="6.64263">
        <ele>1876</ele>
        <time>2022-07-16T22:28:01Z</time>
      </trkpt>
      <trkpt lat="45.76303" lon="6.64262">
        <ele>1876</ele>
        <time>2022-07-16T22:28:04Z</time>
      </trkpt>
      <trkpt lat="45.76301" lon="6.64261">
        <ele>1876</ele>
        <time>2022-07-16T22:28:08Z</time>
      </trkpt>
      <trkpt lat="45.763" lon="6.6426">
        <ele>1878</ele>
        <time>2022-07-16T22:28:11Z</time>
      </trkpt>
      <trkpt lat="45.76297" lon="6.64259">
        <ele>1879</ele>
        <time>2022-07-16T22:28:14Z</time>
      </trkpt>
      <trkpt lat="45.76297" lon="6.64259">
        <ele>1878</ele>
        <time>2022-07-16T22:28:26Z</time>
      </trkpt>
      <trkpt lat="45.76296" lon="6.64261">
        <ele>1878</ele>
        <time>2022-07-16T22:28:29Z</time>
      </trkpt>
      <trkpt lat="45.76294" lon="6.64261">
        <ele>1878</ele>
        <time>2022-07-16T22:28:31Z</time>
      </trkpt>
      <trkpt lat="45.76291" lon="6.64261">
        <ele>1878</ele>
        <time>2022-07-16T22:28:34Z</time>
      </trkpt>
      <trkpt lat="45.76289" lon="6.6426">
        <ele>1879</ele>
        <time>2022-07-16T22:28:37Z</time>
      </trkpt>
      <trkpt lat="45.76287" lon="6.64259">
        <ele>1879</ele>
        <time>2022-07-16T22:28:39Z</time>
      </trkpt>
      <trkpt lat="45.76285" lon="6.64258">
        <ele>1881</ele>
        <time>2022-07-16T22:28:42Z</time>
      </trkpt>
      <trkpt lat="45.76283" lon="6.64257">
        <ele>1881</ele>
        <time>2022-07-16T22:28:44Z</time>
      </trkpt>
      <trkpt lat="45.76281" lon="6.64256">
        <ele>1882</ele>
        <time>2022-07-16T22:28:47Z</time>
      </trkpt>
      <trkpt lat="45.76279" lon="6.64255">
        <ele>1881</ele>
        <time>2022-07-16T22:28:50Z</time>
      </trkpt>
      <trkpt lat="45.76277" lon="6.64254">
        <ele>1882</ele>
        <time>2022-07-16T22:28:53Z</time>
      </trkpt>
      <trkpt lat="45.76275" lon="6.64253">
        <ele>1883</ele>
        <time>2022-07-16T22:28:56Z</time>
      </trkpt>
      <trkpt lat="45.76273" lon="6.64252">
        <ele>1883</ele>
        <time>2022-07-16T22:28:59Z</time>
      </trkpt>
      <trkpt lat="45.76271" lon="6.64251">
        <ele>1884</ele>
        <time>2022-07-16T22:29:02Z</time>
      </trkpt>
      <trkpt lat="45.76269" lon="6.64251">
        <ele>1885</ele>
        <time>2022-07-16T22:29:05Z</time>
      </trkpt>
      <trkpt lat="45.76267" lon="6.6425">
        <ele>1885</ele>
        <time>2022-07-16T22:29:06Z</time>
      </trkpt>
      <trkpt lat="45.76265" lon="6.64249">
        <ele>1885</ele>
        <time>2022-07-16T22:29:09Z</time>
      </trkpt>
      <trkpt lat="45.76263" lon="6.64248">
        <ele>1886</ele>
        <time>2022-07-16T22:29:12Z</time>
      </trkpt>
      <trkpt lat="45.76261" lon="6.64246">
        <ele>1887</ele>
        <time>2022-07-16T22:29:15Z</time>
      </trkpt>
      <trkpt lat="45.76259" lon="6.64245">
        <ele>1888</ele>
        <time>2022-07-16T22:29:18Z</time>
      </trkpt>
      <trkpt lat="45.76258" lon="6.64244">
        <ele>1888</ele>
        <time>2022-07-16T22:29:20Z</time>
      </trkpt>
      <trkpt lat="45.76256" lon="6.64242">
        <ele>1888</ele>
        <time>2022-07-16T22:29:22Z</time>
      </trkpt>
      <trkpt lat="45.76255" lon="6.64239">
        <ele>1889</ele>
        <time>2022-07-16T22:29:25Z</time>
      </trkpt>
      <trkpt lat="45.76253" lon="6.64237">
        <ele>1889</ele>
        <time>2022-07-16T22:29:28Z</time>
      </trkpt>
      <trkpt lat="45.76252" lon="6.64235">
        <ele>1889</ele>
        <time>2022-07-16T22:29:31Z</time>
      </trkpt>
      <trkpt lat="45.76251" lon="6.64232">
        <ele>1890</ele>
        <time>2022-07-16T22:29:33Z</time>
      </trkpt>
      <trkpt lat="45.7625" lon="6.64231">
        <ele>1890</ele>
        <time>2022-07-16T22:29:36Z</time>
      </trkpt>
      <trkpt lat="45.76248" lon="6.64228">
        <ele>1891</ele>
        <time>2022-07-16T22:29:39Z</time>
      </trkpt>
      <trkpt lat="45.76247" lon="6.64226">
        <ele>1892</ele>
        <time>2022-07-16T22:29:42Z</time>
      </trkpt>
      <trkpt lat="45.76245" lon="6.64224">
        <ele>1892</ele>
        <time>2022-07-16T22:29:45Z</time>
      </trkpt>
      <trkpt lat="45.76244" lon="6.64223">
        <ele>1893</ele>
        <time>2022-07-16T22:29:48Z</time>
      </trkpt>
      <trkpt lat="45.76242" lon="6.64221">
        <ele>1894</ele>
        <time>2022-07-16T22:29:51Z</time>
      </trkpt>
      <trkpt lat="45.76239" lon="6.6422">
        <ele>1894</ele>
        <time>2022-07-16T22:29:54Z</time>
      </trkpt>
      <trkpt lat="45.76237" lon="6.64218">
        <ele>1894</ele>
        <time>2022-07-16T22:29:56Z</time>
      </trkpt>
      <trkpt lat="45.76236" lon="6.64217">
        <ele>1895</ele>
        <time>2022-07-16T22:29:58Z</time>
      </trkpt>
      <trkpt lat="45.76234" lon="6.64216">
        <ele>1895</ele>
        <time>2022-07-16T22:30:00Z</time>
      </trkpt>
      <trkpt lat="45.76232" lon="6.64215">
        <ele>1895</ele>
        <time>2022-07-16T22:30:01Z</time>
      </trkpt>
      <trkpt lat="45.7623" lon="6.64212">
        <ele>1895</ele>
        <time>2022-07-16T22:30:05Z</time>
      </trkpt>
      <trkpt lat="45.76228" lon="6.6421">
        <ele>1896</ele>
        <time>2022-07-16T22:30:08Z</time>
      </trkpt>
      <trkpt lat="45.76226" lon="6.64209">
        <ele>1896</ele>
        <time>2022-07-16T22:30:10Z</time>
      </trkpt>
      <trkpt lat="45.76225" lon="6.64207">
        <ele>1897</ele>
        <time>2022-07-16T22:30:12Z</time>
      </trkpt>
      <trkpt lat="45.76222" lon="6.64205">
        <ele>1897</ele>
        <time>2022-07-16T22:30:15Z</time>
      </trkpt>
      <trkpt lat="45.76221" lon="6.64203">
        <ele>1897</ele>
        <time>2022-07-16T22:30:17Z</time>
      </trkpt>
      <trkpt lat="45.76219" lon="6.642">
        <ele>1897</ele>
        <time>2022-07-16T22:30:19Z</time>
      </trkpt>
      <trkpt lat="45.76217" lon="6.64197">
        <ele>1897</ele>
        <time>2022-07-16T22:30:21Z</time>
      </trkpt>
      <trkpt lat="45.76216" lon="6.64195">
        <ele>1897</ele>
        <time>2022-07-16T22:30:23Z</time>
      </trkpt>
      <trkpt lat="45.76215" lon="6.64192">
        <ele>1897</ele>
        <time>2022-07-16T22:30:25Z</time>
      </trkpt>
      <trkpt lat="45.76214" lon="6.64189">
        <ele>1898</ele>
        <time>2022-07-16T22:30:27Z</time>
      </trkpt>
      <trkpt lat="45.76213" lon="6.64188">
        <ele>1898</ele>
        <time>2022-07-16T22:30:29Z</time>
      </trkpt>
      <trkpt lat="45.76211" lon="6.64186">
        <ele>1898</ele>
        <time>2022-07-16T22:30:32Z</time>
      </trkpt>
      <trkpt lat="45.76209" lon="6.64183">
        <ele>1899</ele>
        <time>2022-07-16T22:30:35Z</time>
      </trkpt>
      <trkpt lat="45.76207" lon="6.64181">
        <ele>1900</ele>
        <time>2022-07-16T22:30:38Z</time>
      </trkpt>
      <trkpt lat="45.76206" lon="6.64179">
        <ele>1900</ele>
        <time>2022-07-16T22:30:40Z</time>
      </trkpt>
      <trkpt lat="45.76205" lon="6.64176">
        <ele>1900</ele>
        <time>2022-07-16T22:30:42Z</time>
      </trkpt>
      <trkpt lat="45.76203" lon="6.64174">
        <ele>1900</ele>
        <time>2022-07-16T22:30:45Z</time>
      </trkpt>
      <trkpt lat="45.76202" lon="6.64171">
        <ele>1901</ele>
        <time>2022-07-16T22:30:47Z</time>
      </trkpt>
      <trkpt lat="45.762" lon="6.6417">
        <ele>1901</ele>
        <time>2022-07-16T22:30:49Z</time>
      </trkpt>
      <trkpt lat="45.76198" lon="6.64168">
        <ele>1902</ele>
        <time>2022-07-16T22:30:52Z</time>
      </trkpt>
      <trkpt lat="45.76197" lon="6.64166">
        <ele>1903</ele>
        <time>2022-07-16T22:30:55Z</time>
      </trkpt>
      <trkpt lat="45.76196" lon="6.64164">
        <ele>1904</ele>
        <time>2022-07-16T22:30:59Z</time>
      </trkpt>
      <trkpt lat="45.76194" lon="6.64165">
        <ele>1905</ele>
        <time>2022-07-16T22:31:03Z</time>
      </trkpt>
      <trkpt lat="45.76194" lon="6.64168">
        <ele>1905</ele>
        <time>2022-07-16T22:31:06Z</time>
      </trkpt>
      <trkpt lat="45.76193" lon="6.64171">
        <ele>1905</ele>
        <time>2022-07-16T22:31:09Z</time>
      </trkpt>
      <trkpt lat="45.76191" lon="6.64171">
        <ele>1907</ele>
        <time>2022-07-16T22:31:13Z</time>
      </trkpt>
      <trkpt lat="45.76189" lon="6.64173">
        <ele>1907</ele>
        <time>2022-07-16T22:31:17Z</time>
      </trkpt>
      <trkpt lat="45.76187" lon="6.64175">
        <ele>1908</ele>
        <time>2022-07-16T22:31:20Z</time>
      </trkpt>
      <trkpt lat="45.76185" lon="6.64177">
        <ele>1908</ele>
        <time>2022-07-16T22:31:23Z</time>
      </trkpt>
      <trkpt lat="45.76184" lon="6.64179">
        <ele>1909</ele>
        <time>2022-07-16T22:31:26Z</time>
      </trkpt>
      <trkpt lat="45.76182" lon="6.64181">
        <ele>1910</ele>
        <time>2022-07-16T22:31:30Z</time>
      </trkpt>
      <trkpt lat="45.76181" lon="6.64183">
        <ele>1910</ele>
        <time>2022-07-16T22:31:33Z</time>
      </trkpt>
      <trkpt lat="45.7618" lon="6.64186">
        <ele>1911</ele>
        <time>2022-07-16T22:31:39Z</time>
      </trkpt>
      <trkpt lat="45.76177" lon="6.64188">
        <ele>1912</ele>
        <time>2022-07-16T22:31:44Z</time>
      </trkpt>
      <trkpt lat="45.76176" lon="6.6419">
        <ele>1912</ele>
        <time>2022-07-16T22:31:46Z</time>
      </trkpt>
      <trkpt lat="45.76174" lon="6.6419">
        <ele>1913</ele>
        <time>2022-07-16T22:31:49Z</time>
      </trkpt>
      <trkpt lat="45.76172" lon="6.64189">
        <ele>1913</ele>
        <time>2022-07-16T22:31:51Z</time>
      </trkpt>
      <trkpt lat="45.76172" lon="6.64186">
        <ele>1914</ele>
        <time>2022-07-16T22:31:53Z</time>
      </trkpt>
      <trkpt lat="45.76173" lon="6.64183">
        <ele>1915</ele>
        <time>2022-07-16T22:31:56Z</time>
      </trkpt>
      <trkpt lat="45.76173" lon="6.6418">
        <ele>1915</ele>
        <time>2022-07-16T22:31:59Z</time>
      </trkpt>
      <trkpt lat="45.76171" lon="6.64178">
        <ele>1916</ele>
        <time>2022-07-16T22:32:02Z</time>
      </trkpt>
      <trkpt lat="45.76169" lon="6.64177">
        <ele>1916</ele>
        <time>2022-07-16T22:32:06Z</time>
      </trkpt>
      <trkpt lat="45.76167" lon="6.64177">
        <ele>1916</ele>
        <time>2022-07-16T22:32:09Z</time>
      </trkpt>
      <trkpt lat="45.76165" lon="6.64177">
        <ele>1917</ele>
        <time>2022-07-16T22:32:12Z</time>
      </trkpt>
      <trkpt lat="45.76163" lon="6.64176">
        <ele>1918</ele>
        <time>2022-07-16T22:32:15Z</time>
      </trkpt>
      <trkpt lat="45.76161" lon="6.64175">
        <ele>1918</ele>
        <time>2022-07-16T22:32:18Z</time>
      </trkpt>
      <trkpt lat="45.76159" lon="6.64174">
        <ele>1919</ele>
        <time>2022-07-16T22:32:22Z</time>
      </trkpt>
      <trkpt lat="45.76158" lon="6.64173">
        <ele>1920</ele>
        <time>2022-07-16T22:32:25Z</time>
      </trkpt>
      <trkpt lat="45.76156" lon="6.64171">
        <ele>1920</ele>
        <time>2022-07-16T22:32:29Z</time>
      </trkpt>
      <trkpt lat="45.76153" lon="6.6417">
        <ele>1921</ele>
        <time>2022-07-16T22:32:33Z</time>
      </trkpt>
      <trkpt lat="45.76152" lon="6.64167">
        <ele>1922</ele>
        <time>2022-07-16T22:32:36Z</time>
      </trkpt>
      <trkpt lat="45.76151" lon="6.64165">
        <ele>1923</ele>
        <time>2022-07-16T22:32:39Z</time>
      </trkpt>
      <trkpt lat="45.7615" lon="6.64164">
        <ele>1923</ele>
        <time>2022-07-16T22:32:42Z</time>
      </trkpt>
      <trkpt lat="45.76148" lon="6.64163">
        <ele>1923</ele>
        <time>2022-07-16T22:32:44Z</time>
      </trkpt>
      <trkpt lat="45.76146" lon="6.64162">
        <ele>1923</ele>
        <time>2022-07-16T22:32:45Z</time>
      </trkpt>
      <trkpt lat="45.76144" lon="6.6416">
        <ele>1923</ele>
        <time>2022-07-16T22:32:48Z</time>
      </trkpt>
      <trkpt lat="45.76143" lon="6.64158">
        <ele>1924</ele>
        <time>2022-07-16T22:32:50Z</time>
      </trkpt>
      <trkpt lat="45.76141" lon="6.64156">
        <ele>1924</ele>
        <time>2022-07-16T22:32:53Z</time>
      </trkpt>
      <trkpt lat="45.76139" lon="6.64153">
        <ele>1924</ele>
        <time>2022-07-16T22:32:56Z</time>
      </trkpt>
      <trkpt lat="45.76138" lon="6.6415">
        <ele>1924</ele>
        <time>2022-07-16T22:32:59Z</time>
      </trkpt>
      <trkpt lat="45.76136" lon="6.64149">
        <ele>1924</ele>
        <time>2022-07-16T22:33:02Z</time>
      </trkpt>
      <trkpt lat="45.76134" lon="6.64147">
        <ele>1924</ele>
        <time>2022-07-16T22:33:05Z</time>
      </trkpt>
      <trkpt lat="45.76132" lon="6.64145">
        <ele>1924</ele>
        <time>2022-07-16T22:33:08Z</time>
      </trkpt>
      <trkpt lat="45.76131" lon="6.64143">
        <ele>1925</ele>
        <time>2022-07-16T22:33:12Z</time>
      </trkpt>
      <trkpt lat="45.76129" lon="6.64142">
        <ele>1926</ele>
        <time>2022-07-16T22:33:15Z</time>
      </trkpt>
      <trkpt lat="45.76127" lon="6.64141">
        <ele>1926</ele>
        <time>2022-07-16T22:33:18Z</time>
      </trkpt>
      <trkpt lat="45.76125" lon="6.6414">
        <ele>1927</ele>
        <time>2022-07-16T22:33:22Z</time>
      </trkpt>
      <trkpt lat="45.76123" lon="6.64139">
        <ele>1928</ele>
        <time>2022-07-16T22:33:26Z</time>
      </trkpt>
      <trkpt lat="45.76121" lon="6.64138">
        <ele>1929</ele>
        <time>2022-07-16T22:33:30Z</time>
      </trkpt>
      <trkpt lat="45.76119" lon="6.64137">
        <ele>1929</ele>
        <time>2022-07-16T22:33:33Z</time>
      </trkpt>
      <trkpt lat="45.76117" lon="6.64137">
        <ele>1930</ele>
        <time>2022-07-16T22:33:37Z</time>
      </trkpt>
      <trkpt lat="45.76115" lon="6.64137">
        <ele>1931</ele>
        <time>2022-07-16T22:33:40Z</time>
      </trkpt>
      <trkpt lat="45.76113" lon="6.64137">
        <ele>1931</ele>
        <time>2022-07-16T22:33:43Z</time>
      </trkpt>
      <trkpt lat="45.76111" lon="6.64137">
        <ele>1931</ele>
        <time>2022-07-16T22:33:45Z</time>
      </trkpt>
      <trkpt lat="45.76109" lon="6.64136">
        <ele>1931</ele>
        <time>2022-07-16T22:33:47Z</time>
      </trkpt>
      <trkpt lat="45.76107" lon="6.64135">
        <ele>1932</ele>
        <time>2022-07-16T22:33:50Z</time>
      </trkpt>
      <trkpt lat="45.76105" lon="6.64134">
        <ele>1932</ele>
        <time>2022-07-16T22:33:53Z</time>
      </trkpt>
      <trkpt lat="45.76103" lon="6.64134">
        <ele>1932</ele>
        <time>2022-07-16T22:33:55Z</time>
      </trkpt>
      <trkpt lat="45.76101" lon="6.64134">
        <ele>1933</ele>
        <time>2022-07-16T22:33:57Z</time>
      </trkpt>
      <trkpt lat="45.76099" lon="6.64135">
        <ele>1933</ele>
        <time>2022-07-16T22:34:00Z</time>
      </trkpt>
      <trkpt lat="45.76096" lon="6.64137">
        <ele>1934</ele>
        <time>2022-07-16T22:34:03Z</time>
      </trkpt>
      <trkpt lat="45.76094" lon="6.64138">
        <ele>1934</ele>
        <time>2022-07-16T22:34:06Z</time>
      </trkpt>
      <trkpt lat="45.76092" lon="6.6414">
        <ele>1934</ele>
        <time>2022-07-16T22:34:09Z</time>
      </trkpt>
      <trkpt lat="45.7609" lon="6.64141">
        <ele>1934</ele>
        <time>2022-07-16T22:34:12Z</time>
      </trkpt>
      <trkpt lat="45.76088" lon="6.64143">
        <ele>1935</ele>
        <time>2022-07-16T22:34:15Z</time>
      </trkpt>
      <trkpt lat="45.76086" lon="6.64145">
        <ele>1935</ele>
        <time>2022-07-16T22:34:18Z</time>
      </trkpt>
      <trkpt lat="45.76084" lon="6.64147">
        <ele>1936</ele>
        <time>2022-07-16T22:34:21Z</time>
      </trkpt>
      <trkpt lat="45.76082" lon="6.6415">
        <ele>1937</ele>
        <time>2022-07-16T22:34:24Z</time>
      </trkpt>
      <trkpt lat="45.7608" lon="6.64153">
        <ele>1937</ele>
        <time>2022-07-16T22:34:27Z</time>
      </trkpt>
      <trkpt lat="45.76078" lon="6.64156">
        <ele>1937</ele>
        <time>2022-07-16T22:34:30Z</time>
      </trkpt>
      <trkpt lat="45.76076" lon="6.64158">
        <ele>1937</ele>
        <time>2022-07-16T22:34:33Z</time>
      </trkpt>
      <trkpt lat="45.76074" lon="6.64159">
        <ele>1939</ele>
        <time>2022-07-16T22:34:35Z</time>
      </trkpt>
      <trkpt lat="45.76072" lon="6.64159">
        <ele>1939</ele>
        <time>2022-07-16T22:34:38Z</time>
      </trkpt>
      <trkpt lat="45.7607" lon="6.64159">
        <ele>1939</ele>
        <time>2022-07-16T22:34:41Z</time>
      </trkpt>
      <trkpt lat="45.76068" lon="6.64158">
        <ele>1940</ele>
        <time>2022-07-16T22:34:44Z</time>
      </trkpt>
      <trkpt lat="45.76066" lon="6.64159">
        <ele>1940</ele>
        <time>2022-07-16T22:34:46Z</time>
      </trkpt>
      <trkpt lat="45.76064" lon="6.6416">
        <ele>1941</ele>
        <time>2022-07-16T22:34:48Z</time>
      </trkpt>
      <trkpt lat="45.76062" lon="6.64161">
        <ele>1941</ele>
        <time>2022-07-16T22:34:50Z</time>
      </trkpt>
      <trkpt lat="45.76059" lon="6.64163">
        <ele>1941</ele>
        <time>2022-07-16T22:34:52Z</time>
      </trkpt>
      <trkpt lat="45.76057" lon="6.64164">
        <ele>1941</ele>
        <time>2022-07-16T22:34:54Z</time>
      </trkpt>
      <trkpt lat="45.76055" lon="6.64164">
        <ele>1941</ele>
        <time>2022-07-16T22:34:58Z</time>
      </trkpt>
      <trkpt lat="45.76053" lon="6.64164">
        <ele>1942</ele>
        <time>2022-07-16T22:35:01Z</time>
      </trkpt>
      <trkpt lat="45.76051" lon="6.64164">
        <ele>1942</ele>
        <time>2022-07-16T22:35:03Z</time>
      </trkpt>
      <trkpt lat="45.76048" lon="6.64163">
        <ele>1943</ele>
        <time>2022-07-16T22:35:06Z</time>
      </trkpt>
      <trkpt lat="45.76046" lon="6.64162">
        <ele>1943</ele>
        <time>2022-07-16T22:35:09Z</time>
      </trkpt>
      <trkpt lat="45.76044" lon="6.64161">
        <ele>1944</ele>
        <time>2022-07-16T22:35:12Z</time>
      </trkpt>
      <trkpt lat="45.76042" lon="6.6416">
        <ele>1945</ele>
        <time>2022-07-16T22:35:15Z</time>
      </trkpt>
      <trkpt lat="45.7604" lon="6.64159">
        <ele>1945</ele>
        <time>2022-07-16T22:35:17Z</time>
      </trkpt>
      <trkpt lat="45.76037" lon="6.64159">
        <ele>1945</ele>
        <time>2022-07-16T22:35:21Z</time>
      </trkpt>
      <trkpt lat="45.76035" lon="6.64159">
        <ele>1946</ele>
        <time>2022-07-16T22:35:23Z</time>
      </trkpt>
      <trkpt lat="45.76032" lon="6.64159">
        <ele>1946</ele>
        <time>2022-07-16T22:35:25Z</time>
      </trkpt>
      <trkpt lat="45.7603" lon="6.64159">
        <ele>1946</ele>
        <time>2022-07-16T22:35:27Z</time>
      </trkpt>
      <trkpt lat="45.76028" lon="6.64158">
        <ele>1947</ele>
        <time>2022-07-16T22:35:29Z</time>
      </trkpt>
      <trkpt lat="45.76026" lon="6.64157">
        <ele>1948</ele>
        <time>2022-07-16T22:35:31Z</time>
      </trkpt>
      <trkpt lat="45.76024" lon="6.64157">
        <ele>1948</ele>
        <time>2022-07-16T22:35:33Z</time>
      </trkpt>
      <trkpt lat="45.76022" lon="6.64156">
        <ele>1948</ele>
        <time>2022-07-16T22:35:35Z</time>
      </trkpt>
      <trkpt lat="45.7602" lon="6.64155">
        <ele>1948</ele>
        <time>2022-07-16T22:35:37Z</time>
      </trkpt>
      <trkpt lat="45.76018" lon="6.64154">
        <ele>1948</ele>
        <time>2022-07-16T22:35:39Z</time>
      </trkpt>
      <trkpt lat="45.76015" lon="6.64153">
        <ele>1948</ele>
        <time>2022-07-16T22:35:41Z</time>
      </trkpt>
      <trkpt lat="45.76013" lon="6.64153">
        <ele>1949</ele>
        <time>2022-07-16T22:35:43Z</time>
      </trkpt>
      <trkpt lat="45.76011" lon="6.64152">
        <ele>1949</ele>
        <time>2022-07-16T22:35:45Z</time>
      </trkpt>
      <trkpt lat="45.76008" lon="6.64151">
        <ele>1949</ele>
        <time>2022-07-16T22:35:47Z</time>
      </trkpt>
      <trkpt lat="45.76006" lon="6.6415">
        <ele>1949</ele>
        <time>2022-07-16T22:35:49Z</time>
      </trkpt>
      <trkpt lat="45.76004" lon="6.64149">
        <ele>1949</ele>
        <time>2022-07-16T22:35:51Z</time>
      </trkpt>
      <trkpt lat="45.76001" lon="6.64148">
        <ele>1949</ele>
        <time>2022-07-16T22:35:53Z</time>
      </trkpt>
      <trkpt lat="45.75999" lon="6.64147">
        <ele>1949</ele>
        <time>2022-07-16T22:35:55Z</time>
      </trkpt>
      <trkpt lat="45.75996" lon="6.64147">
        <ele>1949</ele>
        <time>2022-07-16T22:35:57Z</time>
      </trkpt>
      <trkpt lat="45.75994" lon="6.64146">
        <ele>1950</ele>
        <time>2022-07-16T22:35:59Z</time>
      </trkpt>
      <trkpt lat="45.75992" lon="6.64146">
        <ele>1950</ele>
        <time>2022-07-16T22:36:01Z</time>
      </trkpt>
      <trkpt lat="45.75989" lon="6.64145">
        <ele>1950</ele>
        <time>2022-07-16T22:36:03Z</time>
      </trkpt>
      <trkpt lat="45.75987" lon="6.64144">
        <ele>1950</ele>
        <time>2022-07-16T22:36:05Z</time>
      </trkpt>
      <trkpt lat="45.75985" lon="6.64144">
        <ele>1951</ele>
        <time>2022-07-16T22:36:07Z</time>
      </trkpt>
      <trkpt lat="45.75983" lon="6.64144">
        <ele>1950</ele>
        <time>2022-07-16T22:36:09Z</time>
      </trkpt>
      <trkpt lat="45.7598" lon="6.64144">
        <ele>1950</ele>
        <time>2022-07-16T22:36:11Z</time>
      </trkpt>
      <trkpt lat="45.75977" lon="6.64145">
        <ele>1950</ele>
        <time>2022-07-16T22:36:13Z</time>
      </trkpt>
      <trkpt lat="45.75974" lon="6.64146">
        <ele>1950</ele>
        <time>2022-07-16T22:36:15Z</time>
      </trkpt>
      <trkpt lat="45.75972" lon="6.64146">
        <ele>1951</ele>
        <time>2022-07-16T22:36:17Z</time>
      </trkpt>
      <trkpt lat="45.75969" lon="6.64145">
        <ele>1951</ele>
        <time>2022-07-16T22:36:19Z</time>
      </trkpt>
      <trkpt lat="45.75967" lon="6.64145">
        <ele>1951</ele>
        <time>2022-07-16T22:36:21Z</time>
      </trkpt>
      <trkpt lat="45.75965" lon="6.64145">
        <ele>1951</ele>
        <time>2022-07-16T22:36:23Z</time>
      </trkpt>
      <trkpt lat="45.75962" lon="6.64144">
        <ele>1951</ele>
        <time>2022-07-16T22:36:25Z</time>
      </trkpt>
      <trkpt lat="45.7596" lon="6.64144">
        <ele>1951</ele>
        <time>2022-07-16T22:36:27Z</time>
      </trkpt>
      <trkpt lat="45.75957" lon="6.64145">
        <ele>1951</ele>
        <time>2022-07-16T22:36:29Z</time>
      </trkpt>
      <trkpt lat="45.75955" lon="6.64146">
        <ele>1951</ele>
        <time>2022-07-16T22:36:31Z</time>
      </trkpt>
      <trkpt lat="45.75952" lon="6.64146">
        <ele>1951</ele>
        <time>2022-07-16T22:36:33Z</time>
      </trkpt>
      <trkpt lat="45.7595" lon="6.64146">
        <ele>1951</ele>
        <time>2022-07-16T22:36:35Z</time>
      </trkpt>
      <trkpt lat="45.75947" lon="6.64146">
        <ele>1952</ele>
        <time>2022-07-16T22:36:37Z</time>
      </trkpt>
      <trkpt lat="45.75944" lon="6.64146">
        <ele>1952</ele>
        <time>2022-07-16T22:36:39Z</time>
      </trkpt>
      <trkpt lat="45.75942" lon="6.64146">
        <ele>1952</ele>
        <time>2022-07-16T22:36:41Z</time>
      </trkpt>
      <trkpt lat="45.75939" lon="6.64146">
        <ele>1952</ele>
        <time>2022-07-16T22:36:43Z</time>
      </trkpt>
      <trkpt lat="45.75937" lon="6.64146">
        <ele>1952</ele>
        <time>2022-07-16T22:36:45Z</time>
      </trkpt>
      <trkpt lat="45.75935" lon="6.64145">
        <ele>1952</ele>
        <time>2022-07-16T22:36:47Z</time>
      </trkpt>
      <trkpt lat="45.75932" lon="6.64145">
        <ele>1952</ele>
        <time>2022-07-16T22:36:49Z</time>
      </trkpt>
      <trkpt lat="45.75929" lon="6.64144">
        <ele>1952</ele>
        <time>2022-07-16T22:36:51Z</time>
      </trkpt>
      <trkpt lat="45.75927" lon="6.64143">
        <ele>1952</ele>
        <time>2022-07-16T22:36:53Z</time>
      </trkpt>
      <trkpt lat="45.75925" lon="6.64143">
        <ele>1952</ele>
        <time>2022-07-16T22:36:55Z</time>
      </trkpt>
      <trkpt lat="45.75922" lon="6.64142">
        <ele>1952</ele>
        <time>2022-07-16T22:36:57Z</time>
      </trkpt>
      <trkpt lat="45.7592" lon="6.64142">
        <ele>1952</ele>
        <time>2022-07-16T22:36:59Z</time>
      </trkpt>
      <trkpt lat="45.75917" lon="6.64142">
        <ele>1952</ele>
        <time>2022-07-16T22:37:01Z</time>
      </trkpt>
      <trkpt lat="45.75915" lon="6.64142">
        <ele>1952</ele>
        <time>2022-07-16T22:37:03Z</time>
      </trkpt>
      <trkpt lat="45.75912" lon="6.64142">
        <ele>1952</ele>
        <time>2022-07-16T22:37:05Z</time>
      </trkpt>
      <trkpt lat="45.7591" lon="6.64142">
        <ele>1953</ele>
        <time>2022-07-16T22:37:07Z</time>
      </trkpt>
      <trkpt lat="45.75907" lon="6.64141">
        <ele>1953</ele>
        <time>2022-07-16T22:37:09Z</time>
      </trkpt>
      <trkpt lat="45.75904" lon="6.6414">
        <ele>1953</ele>
        <time>2022-07-16T22:37:11Z</time>
      </trkpt>
      <trkpt lat="45.75902" lon="6.64139">
        <ele>1953</ele>
        <time>2022-07-16T22:37:13Z</time>
      </trkpt>
      <trkpt lat="45.75899" lon="6.64138">
        <ele>1953</ele>
        <time>2022-07-16T22:37:15Z</time>
      </trkpt>
      <trkpt lat="45.75897" lon="6.64137">
        <ele>1953</ele>
        <time>2022-07-16T22:37:17Z</time>
      </trkpt>
      <trkpt lat="45.75895" lon="6.64136">
        <ele>1953</ele>
        <time>2022-07-16T22:37:19Z</time>
      </trkpt>
      <trkpt lat="45.75892" lon="6.64136">
        <ele>1953</ele>
        <time>2022-07-16T22:37:21Z</time>
      </trkpt>
      <trkpt lat="45.7589" lon="6.64136">
        <ele>1953</ele>
        <time>2022-07-16T22:37:23Z</time>
      </trkpt>
      <trkpt lat="45.75887" lon="6.64136">
        <ele>1953</ele>
        <time>2022-07-16T22:37:25Z</time>
      </trkpt>
      <trkpt lat="45.75885" lon="6.64136">
        <ele>1953</ele>
        <time>2022-07-16T22:37:27Z</time>
      </trkpt>
      <trkpt lat="45.75882" lon="6.64135">
        <ele>1954</ele>
        <time>2022-07-16T22:37:29Z</time>
      </trkpt>
      <trkpt lat="45.7588" lon="6.64135">
        <ele>1954</ele>
        <time>2022-07-16T22:37:31Z</time>
      </trkpt>
      <trkpt lat="45.75878" lon="6.64135">
        <ele>1954</ele>
        <time>2022-07-16T22:37:33Z</time>
      </trkpt>
      <trkpt lat="45.75875" lon="6.64134">
        <ele>1954</ele>
        <time>2022-07-16T22:37:36Z</time>
      </trkpt>
      <trkpt lat="45.75873" lon="6.64134">
        <ele>1955</ele>
        <time>2022-07-16T22:37:38Z</time>
      </trkpt>
      <trkpt lat="45.75871" lon="6.64133">
        <ele>1955</ele>
        <time>2022-07-16T22:37:40Z</time>
      </trkpt>
      <trkpt lat="45.75869" lon="6.64133">
        <ele>1956</ele>
        <time>2022-07-16T22:37:43Z</time>
      </trkpt>
      <trkpt lat="45.75867" lon="6.64133">
        <ele>1957</ele>
        <time>2022-07-16T22:37:45Z</time>
      </trkpt>
      <trkpt lat="45.75865" lon="6.64133">
        <ele>1957</ele>
        <time>2022-07-16T22:37:47Z</time>
      </trkpt>
      <trkpt lat="45.75863" lon="6.64133">
        <ele>1958</ele>
        <time>2022-07-16T22:37:49Z</time>
      </trkpt>
      <trkpt lat="45.75861" lon="6.64133">
        <ele>1958</ele>
        <time>2022-07-16T22:37:51Z</time>
      </trkpt>
      <trkpt lat="45.75859" lon="6.64132">
        <ele>1958</ele>
        <time>2022-07-16T22:37:53Z</time>
      </trkpt>
      <trkpt lat="45.75857" lon="6.64132">
        <ele>1959</ele>
        <time>2022-07-16T22:37:56Z</time>
      </trkpt>
      <trkpt lat="45.75855" lon="6.64131">
        <ele>1960</ele>
        <time>2022-07-16T22:37:58Z</time>
      </trkpt>
      <trkpt lat="45.75852" lon="6.6413">
        <ele>1960</ele>
        <time>2022-07-16T22:38:01Z</time>
      </trkpt>
      <trkpt lat="45.7585" lon="6.64128">
        <ele>1960</ele>
        <time>2022-07-16T22:38:04Z</time>
      </trkpt>
      <trkpt lat="45.75848" lon="6.64127">
        <ele>1960</ele>
        <time>2022-07-16T22:38:07Z</time>
      </trkpt>
      <trkpt lat="45.75846" lon="6.64126">
        <ele>1963</ele>
        <time>2022-07-16T22:38:10Z</time>
      </trkpt>
      <trkpt lat="45.75844" lon="6.64126">
        <ele>1964</ele>
        <time>2022-07-16T22:38:12Z</time>
      </trkpt>
      <trkpt lat="45.75843" lon="6.64126">
        <ele>1964</ele>
        <time>2022-07-16T22:38:15Z</time>
      </trkpt>
      <trkpt lat="45.7584" lon="6.64124">
        <ele>1964</ele>
        <time>2022-07-16T22:38:19Z</time>
      </trkpt>
      <trkpt lat="45.75839" lon="6.64123">
        <ele>1965</ele>
        <time>2022-07-16T22:38:22Z</time>
      </trkpt>
      <trkpt lat="45.75837" lon="6.64122">
        <ele>1966</ele>
        <time>2022-07-16T22:38:25Z</time>
      </trkpt>
      <trkpt lat="45.75835" lon="6.64121">
        <ele>1966</ele>
        <time>2022-07-16T22:38:28Z</time>
      </trkpt>
      <trkpt lat="45.75833" lon="6.6412">
        <ele>1966</ele>
        <time>2022-07-16T22:38:30Z</time>
      </trkpt>
      <trkpt lat="45.75831" lon="6.6412">
        <ele>1966</ele>
        <time>2022-07-16T22:38:32Z</time>
      </trkpt>
      <trkpt lat="45.75829" lon="6.64119">
        <ele>1967</ele>
        <time>2022-07-16T22:38:34Z</time>
      </trkpt>
      <trkpt lat="45.75828" lon="6.64118">
        <ele>1967</ele>
        <time>2022-07-16T22:38:36Z</time>
      </trkpt>
      <trkpt lat="45.75825" lon="6.64117">
        <ele>1967</ele>
        <time>2022-07-16T22:38:39Z</time>
      </trkpt>
      <trkpt lat="45.75823" lon="6.64115">
        <ele>1967</ele>
        <time>2022-07-16T22:38:41Z</time>
      </trkpt>
      <trkpt lat="45.75821" lon="6.64114">
        <ele>1968</ele>
        <time>2022-07-16T22:38:43Z</time>
      </trkpt>
      <trkpt lat="45.75819" lon="6.64112">
        <ele>1969</ele>
        <time>2022-07-16T22:38:45Z</time>
      </trkpt>
      <trkpt lat="45.75817" lon="6.64111">
        <ele>1969</ele>
        <time>2022-07-16T22:38:46Z</time>
      </trkpt>
      <trkpt lat="45.75815" lon="6.64109">
        <ele>1968</ele>
        <time>2022-07-16T22:38:49Z</time>
      </trkpt>
      <trkpt lat="45.75813" lon="6.64108">
        <ele>1969</ele>
        <time>2022-07-16T22:38:51Z</time>
      </trkpt>
      <trkpt lat="45.7581" lon="6.64107">
        <ele>1969</ele>
        <time>2022-07-16T22:38:53Z</time>
      </trkpt>
      <trkpt lat="45.75807" lon="6.64107">
        <ele>1969</ele>
        <time>2022-07-16T22:38:55Z</time>
      </trkpt>
      <trkpt lat="45.75804" lon="6.64107">
        <ele>1969</ele>
        <time>2022-07-16T22:38:57Z</time>
      </trkpt>
      <trkpt lat="45.75801" lon="6.64108">
        <ele>1969</ele>
        <time>2022-07-16T22:38:59Z</time>
      </trkpt>
      <trkpt lat="45.75798" lon="6.64109">
        <ele>1969</ele>
        <time>2022-07-16T22:39:01Z</time>
      </trkpt>
      <trkpt lat="45.75796" lon="6.6411">
        <ele>1969</ele>
        <time>2022-07-16T22:39:03Z</time>
      </trkpt>
      <trkpt lat="45.75793" lon="6.64111">
        <ele>1969</ele>
        <time>2022-07-16T22:39:05Z</time>
      </trkpt>
      <trkpt lat="45.7579" lon="6.64113">
        <ele>1969</ele>
        <time>2022-07-16T22:39:07Z</time>
      </trkpt>
      <trkpt lat="45.75787" lon="6.64113">
        <ele>1968</ele>
        <time>2022-07-16T22:39:09Z</time>
      </trkpt>
      <trkpt lat="45.75784" lon="6.64113">
        <ele>1968</ele>
        <time>2022-07-16T22:39:11Z</time>
      </trkpt>
      <trkpt lat="45.75781" lon="6.64113">
        <ele>1968</ele>
        <time>2022-07-16T22:39:13Z</time>
      </trkpt>
      <trkpt lat="45.75778" lon="6.64114">
        <ele>1968</ele>
        <time>2022-07-16T22:39:15Z</time>
      </trkpt>
      <trkpt lat="45.75775" lon="6.64113">
        <ele>1968</ele>
        <time>2022-07-16T22:39:17Z</time>
      </trkpt>
      <trkpt lat="45.75773" lon="6.64112">
        <ele>1968</ele>
        <time>2022-07-16T22:39:18Z</time>
      </trkpt>
      <trkpt lat="45.75772" lon="6.64111">
        <ele>1968</ele>
        <time>2022-07-16T22:39:19Z</time>
      </trkpt>
      <trkpt lat="45.7577" lon="6.64111">
        <ele>1968</ele>
        <time>2022-07-16T22:39:20Z</time>
      </trkpt>
      <trkpt lat="45.75768" lon="6.64109">
        <ele>1968</ele>
        <time>2022-07-16T22:39:21Z</time>
      </trkpt>
      <trkpt lat="45.75766" lon="6.64108">
        <ele>1968</ele>
        <time>2022-07-16T22:39:22Z</time>
      </trkpt>
      <trkpt lat="45.75764" lon="6.64107">
        <ele>1968</ele>
        <time>2022-07-16T22:39:23Z</time>
      </trkpt>
      <trkpt lat="45.7576" lon="6.64105">
        <ele>1968</ele>
        <time>2022-07-16T22:39:24Z</time>
      </trkpt>
      <trkpt lat="45.75758" lon="6.64104">
        <ele>1967</ele>
        <time>2022-07-16T22:39:26Z</time>
      </trkpt>
      <trkpt lat="45.75756" lon="6.64103">
        <ele>1966</ele>
        <time>2022-07-16T22:39:27Z</time>
      </trkpt>
      <trkpt lat="45.75754" lon="6.64103">
        <ele>1966</ele>
        <time>2022-07-16T22:39:28Z</time>
      </trkpt>
      <trkpt lat="45.75751" lon="6.64102">
        <ele>1966</ele>
        <time>2022-07-16T22:39:29Z</time>
      </trkpt>
      <trkpt lat="45.75749" lon="6.64102">
        <ele>1966</ele>
        <time>2022-07-16T22:39:30Z</time>
      </trkpt>
      <trkpt lat="45.75747" lon="6.64102">
        <ele>1966</ele>
        <time>2022-07-16T22:39:31Z</time>
      </trkpt>
      <trkpt lat="45.75745" lon="6.64102">
        <ele>1966</ele>
        <time>2022-07-16T22:39:32Z</time>
      </trkpt>
      <trkpt lat="45.75744" lon="6.64102">
        <ele>1966</ele>
        <time>2022-07-16T22:39:33Z</time>
      </trkpt>
      <trkpt lat="45.7574" lon="6.64102">
        <ele>1966</ele>
        <time>2022-07-16T22:39:35Z</time>
      </trkpt>
      <trkpt lat="45.75738" lon="6.64102">
        <ele>1966</ele>
        <time>2022-07-16T22:39:36Z</time>
      </trkpt>
      <trkpt lat="45.75736" lon="6.64102">
        <ele>1965</ele>
        <time>2022-07-16T22:39:37Z</time>
      </trkpt>
      <trkpt lat="45.75734" lon="6.64102">
        <ele>1965</ele>
        <time>2022-07-16T22:39:38Z</time>
      </trkpt>
      <trkpt lat="45.75732" lon="6.64102">
        <ele>1965</ele>
        <time>2022-07-16T22:39:39Z</time>
      </trkpt>
      <trkpt lat="45.7573" lon="6.64102">
        <ele>1965</ele>
        <time>2022-07-16T22:39:40Z</time>
      </trkpt>
      <trkpt lat="45.75728" lon="6.64102">
        <ele>1965</ele>
        <time>2022-07-16T22:39:41Z</time>
      </trkpt>
      <trkpt lat="45.75726" lon="6.64102">
        <ele>1964</ele>
        <time>2022-07-16T22:39:42Z</time>
      </trkpt>
      <trkpt lat="45.75724" lon="6.64102">
        <ele>1964</ele>
        <time>2022-07-16T22:39:43Z</time>
      </trkpt>
      <trkpt lat="45.75722" lon="6.64103">
        <ele>1964</ele>
        <time>2022-07-16T22:39:44Z</time>
      </trkpt>
      <trkpt lat="45.7572" lon="6.64103">
        <ele>1964</ele>
        <time>2022-07-16T22:39:45Z</time>
      </trkpt>
      <trkpt lat="45.75718" lon="6.64103">
        <ele>1963</ele>
        <time>2022-07-16T22:39:46Z</time>
      </trkpt>
      <trkpt lat="45.75716" lon="6.64104">
        <ele>1962</ele>
        <time>2022-07-16T22:39:47Z</time>
      </trkpt>
      <trkpt lat="45.75713" lon="6.64106">
        <ele>1962</ele>
        <time>2022-07-16T22:39:49Z</time>
      </trkpt>
      <trkpt lat="45.75711" lon="6.64107">
        <ele>1962</ele>
        <time>2022-07-16T22:39:50Z</time>
      </trkpt>
      <trkpt lat="45.75709" lon="6.64107">
        <ele>1962</ele>
        <time>2022-07-16T22:39:51Z</time>
      </trkpt>
      <trkpt lat="45.75708" lon="6.64106">
        <ele>1962</ele>
        <time>2022-07-16T22:39:52Z</time>
      </trkpt>
      <trkpt lat="45.75705" lon="6.64105">
        <ele>1962</ele>
        <time>2022-07-16T22:39:54Z</time>
      </trkpt>
      <trkpt lat="45.75702" lon="6.64104">
        <ele>1962</ele>
        <time>2022-07-16T22:39:56Z</time>
      </trkpt>
      <trkpt lat="45.757" lon="6.64104">
        <ele>1962</ele>
        <time>2022-07-16T22:39:58Z</time>
      </trkpt>
      <trkpt lat="45.75698" lon="6.64103">
        <ele>1962</ele>
        <time>2022-07-16T22:40:00Z</time>
      </trkpt>
      <trkpt lat="45.75696" lon="6.64103">
        <ele>1963</ele>
        <time>2022-07-16T22:40:02Z</time>
      </trkpt>
      <trkpt lat="45.75693" lon="6.64104">
        <ele>1963</ele>
        <time>2022-07-16T22:40:04Z</time>
      </trkpt>
      <trkpt lat="45.75691" lon="6.64104">
        <ele>1963</ele>
        <time>2022-07-16T22:40:06Z</time>
      </trkpt>
      <trkpt lat="45.75689" lon="6.64104">
        <ele>1964</ele>
        <time>2022-07-16T22:40:08Z</time>
      </trkpt>
      <trkpt lat="45.75686" lon="6.64104">
        <ele>1964</ele>
        <time>2022-07-16T22:40:10Z</time>
      </trkpt>
      <trkpt lat="45.75684" lon="6.64103">
        <ele>1964</ele>
        <time>2022-07-16T22:40:12Z</time>
      </trkpt>
      <trkpt lat="45.75682" lon="6.64103">
        <ele>1964</ele>
        <time>2022-07-16T22:40:14Z</time>
      </trkpt>
      <trkpt lat="45.7568" lon="6.64102">
        <ele>1964</ele>
        <time>2022-07-16T22:40:16Z</time>
      </trkpt>
      <trkpt lat="45.75677" lon="6.64101">
        <ele>1964</ele>
        <time>2022-07-16T22:40:18Z</time>
      </trkpt>
      <trkpt lat="45.75675" lon="6.64099">
        <ele>1965</ele>
        <time>2022-07-16T22:40:20Z</time>
      </trkpt>
      <trkpt lat="45.75673" lon="6.64098">
        <ele>1965</ele>
        <time>2022-07-16T22:40:21Z</time>
      </trkpt>
      <trkpt lat="45.75672" lon="6.64097">
        <ele>1965</ele>
        <time>2022-07-16T22:40:24Z</time>
      </trkpt>
      <trkpt lat="45.75669" lon="6.64096">
        <ele>1965</ele>
        <time>2022-07-16T22:40:27Z</time>
      </trkpt>
      <trkpt lat="45.75667" lon="6.64094">
        <ele>1966</ele>
        <time>2022-07-16T22:40:30Z</time>
      </trkpt>
      <trkpt lat="45.75666" lon="6.64091">
        <ele>1966</ele>
        <time>2022-07-16T22:40:32Z</time>
      </trkpt>
      <trkpt lat="45.75665" lon="6.64089">
        <ele>1966</ele>
        <time>2022-07-16T22:40:34Z</time>
      </trkpt>
      <trkpt lat="45.75664" lon="6.64086">
        <ele>1967</ele>
        <time>2022-07-16T22:40:37Z</time>
      </trkpt>
      <trkpt lat="45.75661" lon="6.64087">
        <ele>1968</ele>
        <time>2022-07-16T22:40:40Z</time>
      </trkpt>
      <trkpt lat="45.75659" lon="6.64088">
        <ele>1968</ele>
        <time>2022-07-16T22:40:42Z</time>
      </trkpt>
      <trkpt lat="45.75657" lon="6.64088">
        <ele>1968</ele>
        <time>2022-07-16T22:40:43Z</time>
      </trkpt>
      <trkpt lat="45.75654" lon="6.64088">
        <ele>1969</ele>
        <time>2022-07-16T22:40:46Z</time>
      </trkpt>
      <trkpt lat="45.75652" lon="6.6409">
        <ele>1969</ele>
        <time>2022-07-16T22:40:48Z</time>
      </trkpt>
      <trkpt lat="45.7565" lon="6.64091">
        <ele>1969</ele>
        <time>2022-07-16T22:40:50Z</time>
      </trkpt>
      <trkpt lat="45.75648" lon="6.64093">
        <ele>1969</ele>
        <time>2022-07-16T22:40:52Z</time>
      </trkpt>
      <trkpt lat="45.75646" lon="6.64093">
        <ele>1969</ele>
        <time>2022-07-16T22:40:54Z</time>
      </trkpt>
      <trkpt lat="45.75644" lon="6.64094">
        <ele>1970</ele>
        <time>2022-07-16T22:40:56Z</time>
      </trkpt>
      <trkpt lat="45.75641" lon="6.64094">
        <ele>1970</ele>
        <time>2022-07-16T22:40:58Z</time>
      </trkpt>
      <trkpt lat="45.75639" lon="6.64095">
        <ele>1970</ele>
        <time>2022-07-16T22:40:59Z</time>
      </trkpt>
      <trkpt lat="45.75636" lon="6.64096">
        <ele>1970</ele>
        <time>2022-07-16T22:41:02Z</time>
      </trkpt>
      <trkpt lat="45.75634" lon="6.64097">
        <ele>1970</ele>
        <time>2022-07-16T22:41:04Z</time>
      </trkpt>
      <trkpt lat="45.75631" lon="6.64099">
        <ele>1970</ele>
        <time>2022-07-16T22:41:06Z</time>
      </trkpt>
      <trkpt lat="45.75628" lon="6.64099">
        <ele>1970</ele>
        <time>2022-07-16T22:41:08Z</time>
      </trkpt>
      <trkpt lat="45.75626" lon="6.641">
        <ele>1970</ele>
        <time>2022-07-16T22:41:10Z</time>
      </trkpt>
      <trkpt lat="45.75624" lon="6.64101">
        <ele>1970</ele>
        <time>2022-07-16T22:41:12Z</time>
      </trkpt>
      <trkpt lat="45.75621" lon="6.64103">
        <ele>1970</ele>
        <time>2022-07-16T22:41:14Z</time>
      </trkpt>
      <trkpt lat="45.75619" lon="6.64104">
        <ele>1970</ele>
        <time>2022-07-16T22:41:16Z</time>
      </trkpt>
      <trkpt lat="45.75617" lon="6.64105">
        <ele>1970</ele>
        <time>2022-07-16T22:41:18Z</time>
      </trkpt>
      <trkpt lat="45.75615" lon="6.64106">
        <ele>1970</ele>
        <time>2022-07-16T22:41:20Z</time>
      </trkpt>
      <trkpt lat="45.75612" lon="6.64107">
        <ele>1971</ele>
        <time>2022-07-16T22:41:22Z</time>
      </trkpt>
      <trkpt lat="45.7561" lon="6.64108">
        <ele>1971</ele>
        <time>2022-07-16T22:41:24Z</time>
      </trkpt>
      <trkpt lat="45.75607" lon="6.64109">
        <ele>1972</ele>
        <time>2022-07-16T22:41:26Z</time>
      </trkpt>
      <trkpt lat="45.75605" lon="6.64109">
        <ele>1972</ele>
        <time>2022-07-16T22:41:28Z</time>
      </trkpt>
      <trkpt lat="45.75602" lon="6.64109">
        <ele>1972</ele>
        <time>2022-07-16T22:41:30Z</time>
      </trkpt>
      <trkpt lat="45.756" lon="6.6411">
        <ele>1972</ele>
        <time>2022-07-16T22:41:32Z</time>
      </trkpt>
      <trkpt lat="45.75598" lon="6.6411">
        <ele>1972</ele>
        <time>2022-07-16T22:41:34Z</time>
      </trkpt>
      <trkpt lat="45.75595" lon="6.64111">
        <ele>1972</ele>
        <time>2022-07-16T22:41:36Z</time>
      </trkpt>
      <trkpt lat="45.75593" lon="6.64112">
        <ele>1972</ele>
        <time>2022-07-16T22:41:37Z</time>
      </trkpt>
      <trkpt lat="45.75591" lon="6.64114">
        <ele>1972</ele>
        <time>2022-07-16T22:41:40Z</time>
      </trkpt>
      <trkpt lat="45.75589" lon="6.64115">
        <ele>1972</ele>
        <time>2022-07-16T22:41:42Z</time>
      </trkpt>
      <trkpt lat="45.75587" lon="6.64116">
        <ele>1972</ele>
        <time>2022-07-16T22:41:44Z</time>
      </trkpt>
      <trkpt lat="45.75584" lon="6.64116">
        <ele>1973</ele>
        <time>2022-07-16T22:41:47Z</time>
      </trkpt>
      <trkpt lat="45.75582" lon="6.64118">
        <ele>1973</ele>
        <time>2022-07-16T22:41:49Z</time>
      </trkpt>
      <trkpt lat="45.75581" lon="6.64119">
        <ele>1974</ele>
        <time>2022-07-16T22:41:51Z</time>
      </trkpt>
      <trkpt lat="45.75579" lon="6.64121">
        <ele>1974</ele>
        <time>2022-07-16T22:41:53Z</time>
      </trkpt>
      <trkpt lat="45.75577" lon="6.64123">
        <ele>1975</ele>
        <time>2022-07-16T22:41:56Z</time>
      </trkpt>
      <trkpt lat="45.75575" lon="6.64125">
        <ele>1975</ele>
        <time>2022-07-16T22:41:58Z</time>
      </trkpt>
      <trkpt lat="45.75574" lon="6.64127">
        <ele>1975</ele>
        <time>2022-07-16T22:42:00Z</time>
      </trkpt>
      <trkpt lat="45.75573" lon="6.64129">
        <ele>1976</ele>
        <time>2022-07-16T22:42:02Z</time>
      </trkpt>
      <trkpt lat="45.75571" lon="6.64131">
        <ele>1976</ele>
        <time>2022-07-16T22:42:04Z</time>
      </trkpt>
      <trkpt lat="45.7557" lon="6.64133">
        <ele>1976</ele>
        <time>2022-07-16T22:42:06Z</time>
      </trkpt>
      <trkpt lat="45.75569" lon="6.64135">
        <ele>1978</ele>
        <time>2022-07-16T22:42:08Z</time>
      </trkpt>
      <trkpt lat="45.75568" lon="6.64137">
        <ele>1978</ele>
        <time>2022-07-16T22:42:10Z</time>
      </trkpt>
      <trkpt lat="45.75566" lon="6.64139">
        <ele>1978</ele>
        <time>2022-07-16T22:42:12Z</time>
      </trkpt>
      <trkpt lat="45.75565" lon="6.64142">
        <ele>1978</ele>
        <time>2022-07-16T22:42:14Z</time>
      </trkpt>
      <trkpt lat="45.75564" lon="6.64144">
        <ele>1978</ele>
        <time>2022-07-16T22:42:16Z</time>
      </trkpt>
      <trkpt lat="45.75562" lon="6.64147">
        <ele>1979</ele>
        <time>2022-07-16T22:42:19Z</time>
      </trkpt>
      <trkpt lat="45.7556" lon="6.64149">
        <ele>1979</ele>
        <time>2022-07-16T22:42:22Z</time>
      </trkpt>
      <trkpt lat="45.75559" lon="6.64151">
        <ele>1980</ele>
        <time>2022-07-16T22:42:25Z</time>
      </trkpt>
      <trkpt lat="45.75559" lon="6.64153">
        <ele>1980</ele>
        <time>2022-07-16T22:42:30Z</time>
      </trkpt>
      <trkpt lat="45.75558" lon="6.64156">
        <ele>1980</ele>
        <time>2022-07-16T22:42:33Z</time>
      </trkpt>
      <trkpt lat="45.75556" lon="6.64155">
        <ele>1982</ele>
        <time>2022-07-16T22:42:37Z</time>
      </trkpt>
      <trkpt lat="45.75555" lon="6.64157">
        <ele>1982</ele>
        <time>2022-07-16T22:42:41Z</time>
      </trkpt>
      <trkpt lat="45.75554" lon="6.64161">
        <ele>1983</ele>
        <time>2022-07-16T22:42:44Z</time>
      </trkpt>
      <trkpt lat="45.75553" lon="6.64164">
        <ele>1983</ele>
        <time>2022-07-16T22:42:47Z</time>
      </trkpt>
      <trkpt lat="45.75552" lon="6.64167">
        <ele>1985</ele>
        <time>2022-07-16T22:42:53Z</time>
      </trkpt>
      <trkpt lat="45.75551" lon="6.6417">
        <ele>1985</ele>
        <time>2022-07-16T22:42:56Z</time>
      </trkpt>
      <trkpt lat="45.7555" lon="6.64172">
        <ele>1988</ele>
        <time>2022-07-16T22:42:59Z</time>
      </trkpt>
      <trkpt lat="45.75549" lon="6.64175">
        <ele>1989</ele>
        <time>2022-07-16T22:43:03Z</time>
      </trkpt>
      <trkpt lat="45.75548" lon="6.64177">
        <ele>1989</ele>
        <time>2022-07-16T22:43:06Z</time>
      </trkpt>
      <trkpt lat="45.75547" lon="6.6418">
        <ele>1989</ele>
        <time>2022-07-16T22:43:08Z</time>
      </trkpt>
      <trkpt lat="45.75545" lon="6.64182">
        <ele>1989</ele>
        <time>2022-07-16T22:43:10Z</time>
      </trkpt>
      <trkpt lat="45.75543" lon="6.64184">
        <ele>1989</ele>
        <time>2022-07-16T22:43:12Z</time>
      </trkpt>
      <trkpt lat="45.7554" lon="6.64185">
        <ele>1990</ele>
        <time>2022-07-16T22:43:16Z</time>
      </trkpt>
      <trkpt lat="45.75538" lon="6.64185">
        <ele>1990</ele>
        <time>2022-07-16T22:43:18Z</time>
      </trkpt>
      <trkpt lat="45.75536" lon="6.64185">
        <ele>1991</ele>
        <time>2022-07-16T22:43:21Z</time>
      </trkpt>
      <trkpt lat="45.75534" lon="6.64185">
        <ele>1991</ele>
        <time>2022-07-16T22:43:24Z</time>
      </trkpt>
      <trkpt lat="45.75532" lon="6.64185">
        <ele>1991</ele>
        <time>2022-07-16T22:43:26Z</time>
      </trkpt>
      <trkpt lat="45.7553" lon="6.64186">
        <ele>1991</ele>
        <time>2022-07-16T22:43:28Z</time>
      </trkpt>
      <trkpt lat="45.75528" lon="6.64187">
        <ele>1991</ele>
        <time>2022-07-16T22:43:30Z</time>
      </trkpt>
      <trkpt lat="45.75526" lon="6.64187">
        <ele>1992</ele>
        <time>2022-07-16T22:43:33Z</time>
      </trkpt>
      <trkpt lat="45.75524" lon="6.64188">
        <ele>1992</ele>
        <time>2022-07-16T22:43:35Z</time>
      </trkpt>
      <trkpt lat="45.75521" lon="6.64188">
        <ele>1993</ele>
        <time>2022-07-16T22:43:37Z</time>
      </trkpt>
      <trkpt lat="45.7552" lon="6.64189">
        <ele>1993</ele>
        <time>2022-07-16T22:43:39Z</time>
      </trkpt>
      <trkpt lat="45.75517" lon="6.6419">
        <ele>1993</ele>
        <time>2022-07-16T22:43:42Z</time>
      </trkpt>
      <trkpt lat="45.75515" lon="6.64191">
        <ele>1994</ele>
        <time>2022-07-16T22:43:44Z</time>
      </trkpt>
      <trkpt lat="45.75514" lon="6.64193">
        <ele>1995</ele>
        <time>2022-07-16T22:43:46Z</time>
      </trkpt>
      <trkpt lat="45.75512" lon="6.64195">
        <ele>1995</ele>
        <time>2022-07-16T22:43:50Z</time>
      </trkpt>
      <trkpt lat="45.7551" lon="6.64197">
        <ele>1995</ele>
        <time>2022-07-16T22:43:52Z</time>
      </trkpt>
      <trkpt lat="45.75508" lon="6.64198">
        <ele>1996</ele>
        <time>2022-07-16T22:43:54Z</time>
      </trkpt>
      <trkpt lat="45.75506" lon="6.64199">
        <ele>1996</ele>
        <time>2022-07-16T22:43:56Z</time>
      </trkpt>
      <trkpt lat="45.75503" lon="6.642">
        <ele>1996</ele>
        <time>2022-07-16T22:43:59Z</time>
      </trkpt>
      <trkpt lat="45.75502" lon="6.64201">
        <ele>1996</ele>
        <time>2022-07-16T22:44:01Z</time>
      </trkpt>
      <trkpt lat="45.755" lon="6.64202">
        <ele>1996</ele>
        <time>2022-07-16T22:44:03Z</time>
      </trkpt>
      <trkpt lat="45.75498" lon="6.64203">
        <ele>1997</ele>
        <time>2022-07-16T22:44:05Z</time>
      </trkpt>
      <trkpt lat="45.75496" lon="6.64205">
        <ele>1997</ele>
        <time>2022-07-16T22:44:07Z</time>
      </trkpt>
      <trkpt lat="45.75495" lon="6.64207">
        <ele>1998</ele>
        <time>2022-07-16T22:44:09Z</time>
      </trkpt>
      <trkpt lat="45.75493" lon="6.64209">
        <ele>1998</ele>
        <time>2022-07-16T22:44:11Z</time>
      </trkpt>
      <trkpt lat="45.75491" lon="6.6421">
        <ele>1998</ele>
        <time>2022-07-16T22:44:13Z</time>
      </trkpt>
      <trkpt lat="45.75489" lon="6.6421">
        <ele>1998</ele>
        <time>2022-07-16T22:44:15Z</time>
      </trkpt>
      <trkpt lat="45.75487" lon="6.6421">
        <ele>1999</ele>
        <time>2022-07-16T22:44:17Z</time>
      </trkpt>
      <trkpt lat="45.75485" lon="6.6421">
        <ele>1999</ele>
        <time>2022-07-16T22:44:19Z</time>
      </trkpt>
      <trkpt lat="45.75482" lon="6.6421">
        <ele>1999</ele>
        <time>2022-07-16T22:44:21Z</time>
      </trkpt>
      <trkpt lat="45.7548" lon="6.6421">
        <ele>1999</ele>
        <time>2022-07-16T22:44:23Z</time>
      </trkpt>
      <trkpt lat="45.75478" lon="6.6421">
        <ele>2000</ele>
        <time>2022-07-16T22:44:25Z</time>
      </trkpt>
      <trkpt lat="45.75475" lon="6.64209">
        <ele>2000</ele>
        <time>2022-07-16T22:44:27Z</time>
      </trkpt>
      <trkpt lat="45.75473" lon="6.64209">
        <ele>2000</ele>
        <time>2022-07-16T22:44:29Z</time>
      </trkpt>
      <trkpt lat="45.75471" lon="6.64209">
        <ele>2000</ele>
        <time>2022-07-16T22:44:31Z</time>
      </trkpt>
      <trkpt lat="45.75468" lon="6.64209">
        <ele>2000</ele>
        <time>2022-07-16T22:44:33Z</time>
      </trkpt>
      <trkpt lat="45.75466" lon="6.64209">
        <ele>2000</ele>
        <time>2022-07-16T22:44:34Z</time>
      </trkpt>
      <trkpt lat="45.75463" lon="6.6421">
        <ele>2000</ele>
        <time>2022-07-16T22:44:37Z</time>
      </trkpt>
      <trkpt lat="45.75461" lon="6.64211">
        <ele>2001</ele>
        <time>2022-07-16T22:44:39Z</time>
      </trkpt>
      <trkpt lat="45.75459" lon="6.64213">
        <ele>2001</ele>
        <time>2022-07-16T22:44:41Z</time>
      </trkpt>
      <trkpt lat="45.75457" lon="6.64214">
        <ele>2001</ele>
        <time>2022-07-16T22:44:43Z</time>
      </trkpt>
      <trkpt lat="45.75455" lon="6.64215">
        <ele>2001</ele>
        <time>2022-07-16T22:44:45Z</time>
      </trkpt>
      <trkpt lat="45.75452" lon="6.64216">
        <ele>2001</ele>
        <time>2022-07-16T22:44:48Z</time>
      </trkpt>
      <trkpt lat="45.75449" lon="6.64218">
        <ele>2002</ele>
        <time>2022-07-16T22:44:51Z</time>
      </trkpt>
      <trkpt lat="45.75448" lon="6.64219">
        <ele>2003</ele>
        <time>2022-07-16T22:44:53Z</time>
      </trkpt>
      <trkpt lat="45.75446" lon="6.6422">
        <ele>2003</ele>
        <time>2022-07-16T22:44:55Z</time>
      </trkpt>
      <trkpt lat="45.75443" lon="6.64221">
        <ele>2003</ele>
        <time>2022-07-16T22:44:58Z</time>
      </trkpt>
      <trkpt lat="45.75441" lon="6.64222">
        <ele>2003</ele>
        <time>2022-07-16T22:45:00Z</time>
      </trkpt>
      <trkpt lat="45.75439" lon="6.64222">
        <ele>2003</ele>
        <time>2022-07-16T22:45:01Z</time>
      </trkpt>
      <trkpt lat="45.75436" lon="6.64223">
        <ele>2004</ele>
        <time>2022-07-16T22:45:05Z</time>
      </trkpt>
      <trkpt lat="45.75434" lon="6.64223">
        <ele>2005</ele>
        <time>2022-07-16T22:45:08Z</time>
      </trkpt>
      <trkpt lat="45.75432" lon="6.64224">
        <ele>2006</ele>
        <time>2022-07-16T22:45:11Z</time>
      </trkpt>
      <trkpt lat="45.7543" lon="6.64226">
        <ele>2006</ele>
        <time>2022-07-16T22:45:13Z</time>
      </trkpt>
      <trkpt lat="45.75428" lon="6.64228">
        <ele>2006</ele>
        <time>2022-07-16T22:45:15Z</time>
      </trkpt>
      <trkpt lat="45.75425" lon="6.6423">
        <ele>2006</ele>
        <time>2022-07-16T22:45:17Z</time>
      </trkpt>
      <trkpt lat="45.75422" lon="6.64231">
        <ele>2006</ele>
        <time>2022-07-16T22:45:19Z</time>
      </trkpt>
      <trkpt lat="45.75419" lon="6.64232">
        <ele>2006</ele>
        <time>2022-07-16T22:45:21Z</time>
      </trkpt>
      <trkpt lat="45.75416" lon="6.64234">
        <ele>2005</ele>
        <time>2022-07-16T22:45:23Z</time>
      </trkpt>
      <trkpt lat="45.75413" lon="6.64236">
        <ele>2005</ele>
        <time>2022-07-16T22:45:25Z</time>
      </trkpt>
      <trkpt lat="45.7541" lon="6.64237">
        <ele>2005</ele>
        <time>2022-07-16T22:45:27Z</time>
      </trkpt>
      <trkpt lat="45.75407" lon="6.64239">
        <ele>2004</ele>
        <time>2022-07-16T22:45:29Z</time>
      </trkpt>
      <trkpt lat="45.75404" lon="6.6424">
        <ele>2004</ele>
        <time>2022-07-16T22:45:31Z</time>
      </trkpt>
      <trkpt lat="45.75402" lon="6.64241">
        <ele>2004</ele>
        <time>2022-07-16T22:45:33Z</time>
      </trkpt>
      <trkpt lat="45.75399" lon="6.64244">
        <ele>2004</ele>
        <time>2022-07-16T22:45:35Z</time>
      </trkpt>
      <trkpt lat="45.75396" lon="6.64246">
        <ele>2004</ele>
        <time>2022-07-16T22:45:37Z</time>
      </trkpt>
      <trkpt lat="45.75394" lon="6.64247">
        <ele>2003</ele>
        <time>2022-07-16T22:45:39Z</time>
      </trkpt>
      <trkpt lat="45.75392" lon="6.64249">
        <ele>2003</ele>
        <time>2022-07-16T22:45:41Z</time>
      </trkpt>
      <trkpt lat="45.75389" lon="6.64252">
        <ele>2003</ele>
        <time>2022-07-16T22:45:43Z</time>
      </trkpt>
      <trkpt lat="45.75387" lon="6.64254">
        <ele>2003</ele>
        <time>2022-07-16T22:45:45Z</time>
      </trkpt>
      <trkpt lat="45.75385" lon="6.64257">
        <ele>2003</ele>
        <time>2022-07-16T22:45:47Z</time>
      </trkpt>
      <trkpt lat="45.75382" lon="6.64259">
        <ele>2003</ele>
        <time>2022-07-16T22:45:49Z</time>
      </trkpt>
      <trkpt lat="45.7538" lon="6.64262">
        <ele>2003</ele>
        <time>2022-07-16T22:45:51Z</time>
      </trkpt>
      <trkpt lat="45.75378" lon="6.64264">
        <ele>2003</ele>
        <time>2022-07-16T22:45:53Z</time>
      </trkpt>
      <trkpt lat="45.75376" lon="6.64265">
        <ele>2003</ele>
        <time>2022-07-16T22:45:55Z</time>
      </trkpt>
      <trkpt lat="45.75373" lon="6.64267">
        <ele>2003</ele>
        <time>2022-07-16T22:45:57Z</time>
      </trkpt>
      <trkpt lat="45.75371" lon="6.64268">
        <ele>2003</ele>
        <time>2022-07-16T22:45:59Z</time>
      </trkpt>
      <trkpt lat="45.75368" lon="6.64269">
        <ele>2003</ele>
        <time>2022-07-16T22:46:01Z</time>
      </trkpt>
      <trkpt lat="45.75366" lon="6.64271">
        <ele>2003</ele>
        <time>2022-07-16T22:46:03Z</time>
      </trkpt>
      <trkpt lat="45.75364" lon="6.64272">
        <ele>2003</ele>
        <time>2022-07-16T22:46:05Z</time>
      </trkpt>
      <trkpt lat="45.75362" lon="6.64274">
        <ele>2003</ele>
        <time>2022-07-16T22:46:07Z</time>
      </trkpt>
      <trkpt lat="45.75359" lon="6.64275">
        <ele>2004</ele>
        <time>2022-07-16T22:46:09Z</time>
      </trkpt>
      <trkpt lat="45.75356" lon="6.64275">
        <ele>2004</ele>
        <time>2022-07-16T22:46:11Z</time>
      </trkpt>
      <trkpt lat="45.75353" lon="6.64275">
        <ele>2004</ele>
        <time>2022-07-16T22:46:13Z</time>
      </trkpt>
      <trkpt lat="45.75351" lon="6.64276">
        <ele>2004</ele>
        <time>2022-07-16T22:46:14Z</time>
      </trkpt>
      <trkpt lat="45.75349" lon="6.64276">
        <ele>2004</ele>
        <time>2022-07-16T22:46:15Z</time>
      </trkpt>
      <trkpt lat="45.75347" lon="6.64276">
        <ele>2004</ele>
        <time>2022-07-16T22:46:16Z</time>
      </trkpt>
      <trkpt lat="45.75345" lon="6.64276">
        <ele>2004</ele>
        <time>2022-07-16T22:46:17Z</time>
      </trkpt>
      <trkpt lat="45.75343" lon="6.64276">
        <ele>2004</ele>
        <time>2022-07-16T22:46:18Z</time>
      </trkpt>
      <trkpt lat="45.75341" lon="6.64276">
        <ele>2004</ele>
        <time>2022-07-16T22:46:19Z</time>
      </trkpt>
      <trkpt lat="45.75339" lon="6.64276">
        <ele>2003</ele>
        <time>2022-07-16T22:46:20Z</time>
      </trkpt>
      <trkpt lat="45.75337" lon="6.64276">
        <ele>2003</ele>
        <time>2022-07-16T22:46:21Z</time>
      </trkpt>
      <trkpt lat="45.75335" lon="6.64276">
        <ele>2003</ele>
        <time>2022-07-16T22:46:22Z</time>
      </trkpt>
      <trkpt lat="45.75333" lon="6.64276">
        <ele>2003</ele>
        <time>2022-07-16T22:46:23Z</time>
      </trkpt>
      <trkpt lat="45.75327" lon="6.64276">
        <ele>2002</ele>
        <time>2022-07-16T22:46:25Z</time>
      </trkpt>
      <trkpt lat="45.75326" lon="6.64276">
        <ele>2003</ele>
        <time>2022-07-16T22:46:27Z</time>
      </trkpt>
      <trkpt lat="45.75322" lon="6.64275">
        <ele>2003</ele>
        <time>2022-07-16T22:46:29Z</time>
      </trkpt>
      <trkpt lat="45.7532" lon="6.64274">
        <ele>2003</ele>
        <time>2022-07-16T22:46:30Z</time>
      </trkpt>
      <trkpt lat="45.75318" lon="6.64273">
        <ele>2003</ele>
        <time>2022-07-16T22:46:31Z</time>
      </trkpt>
      <trkpt lat="45.75316" lon="6.64273">
        <ele>2003</ele>
        <time>2022-07-16T22:46:32Z</time>
      </trkpt>
      <trkpt lat="45.75314" lon="6.64272">
        <ele>2003</ele>
        <time>2022-07-16T22:46:33Z</time>
      </trkpt>
      <trkpt lat="45.75312" lon="6.64272">
        <ele>2003</ele>
        <time>2022-07-16T22:46:34Z</time>
      </trkpt>
      <trkpt lat="45.7531" lon="6.64273">
        <ele>2002</ele>
        <time>2022-07-16T22:46:35Z</time>
      </trkpt>
      <trkpt lat="45.75309" lon="6.64273">
        <ele>2002</ele>
        <time>2022-07-16T22:46:36Z</time>
      </trkpt>
      <trkpt lat="45.75305" lon="6.64273">
        <ele>2002</ele>
        <time>2022-07-16T22:46:38Z</time>
      </trkpt>
      <trkpt lat="45.75302" lon="6.64272">
        <ele>2002</ele>
        <time>2022-07-16T22:46:40Z</time>
      </trkpt>
      <trkpt lat="45.75299" lon="6.64271">
        <ele>2002</ele>
        <time>2022-07-16T22:46:42Z</time>
      </trkpt>
      <trkpt lat="45.75296" lon="6.6427">
        <ele>2001</ele>
        <time>2022-07-16T22:46:44Z</time>
      </trkpt>
      <trkpt lat="45.75294" lon="6.64269">
        <ele>2001</ele>
        <time>2022-07-16T22:46:46Z</time>
      </trkpt>
      <trkpt lat="45.75291" lon="6.64268">
        <ele>2001</ele>
        <time>2022-07-16T22:46:48Z</time>
      </trkpt>
      <trkpt lat="45.75289" lon="6.64266">
        <ele>2001</ele>
        <time>2022-07-16T22:46:50Z</time>
      </trkpt>
      <trkpt lat="45.75286" lon="6.64264">
        <ele>2001</ele>
        <time>2022-07-16T22:46:52Z</time>
      </trkpt>
      <trkpt lat="45.75284" lon="6.64263">
        <ele>2002</ele>
        <time>2022-07-16T22:46:54Z</time>
      </trkpt>
      <trkpt lat="45.75282" lon="6.64262">
        <ele>2002</ele>
        <time>2022-07-16T22:46:56Z</time>
      </trkpt>
      <trkpt lat="45.75279" lon="6.6426">
        <ele>2002</ele>
        <time>2022-07-16T22:46:58Z</time>
      </trkpt>
      <trkpt lat="45.75277" lon="6.6426">
        <ele>2002</ele>
        <time>2022-07-16T22:47:00Z</time>
      </trkpt>
      <trkpt lat="45.75275" lon="6.6426">
        <ele>2002</ele>
        <time>2022-07-16T22:47:02Z</time>
      </trkpt>
      <trkpt lat="45.75272" lon="6.6426">
        <ele>2002</ele>
        <time>2022-07-16T22:47:04Z</time>
      </trkpt>
      <trkpt lat="45.75269" lon="6.6426">
        <ele>2002</ele>
        <time>2022-07-16T22:47:06Z</time>
      </trkpt>
      <trkpt lat="45.75267" lon="6.6426">
        <ele>2002</ele>
        <time>2022-07-16T22:47:08Z</time>
      </trkpt>
      <trkpt lat="45.75264" lon="6.64259">
        <ele>2002</ele>
        <time>2022-07-16T22:47:10Z</time>
      </trkpt>
      <trkpt lat="45.75262" lon="6.64257">
        <ele>2002</ele>
        <time>2022-07-16T22:47:12Z</time>
      </trkpt>
      <trkpt lat="45.7526" lon="6.64255">
        <ele>2002</ele>
        <time>2022-07-16T22:47:14Z</time>
      </trkpt>
      <trkpt lat="45.75257" lon="6.64255">
        <ele>2002</ele>
        <time>2022-07-16T22:47:16Z</time>
      </trkpt>
      <trkpt lat="45.75255" lon="6.64253">
        <ele>2002</ele>
        <time>2022-07-16T22:47:18Z</time>
      </trkpt>
      <trkpt lat="45.75254" lon="6.64252">
        <ele>2003</ele>
        <time>2022-07-16T22:47:21Z</time>
      </trkpt>
      <trkpt lat="45.75251" lon="6.64251">
        <ele>2003</ele>
        <time>2022-07-16T22:47:24Z</time>
      </trkpt>
      <trkpt lat="45.75249" lon="6.64251">
        <ele>2003</ele>
        <time>2022-07-16T22:47:27Z</time>
      </trkpt>
      <trkpt lat="45.75247" lon="6.6425">
        <ele>2003</ele>
        <time>2022-07-16T22:47:29Z</time>
      </trkpt>
      <trkpt lat="45.75245" lon="6.64249">
        <ele>2004</ele>
        <time>2022-07-16T22:47:31Z</time>
      </trkpt>
      <trkpt lat="45.75243" lon="6.64247">
        <ele>2005</ele>
        <time>2022-07-16T22:47:33Z</time>
      </trkpt>
      <trkpt lat="45.7524" lon="6.64247">
        <ele>2005</ele>
        <time>2022-07-16T22:47:35Z</time>
      </trkpt>
      <trkpt lat="45.75238" lon="6.64246">
        <ele>2005</ele>
        <time>2022-07-16T22:47:37Z</time>
      </trkpt>
      <trkpt lat="45.75236" lon="6.64246">
        <ele>2005</ele>
        <time>2022-07-16T22:47:39Z</time>
      </trkpt>
      <trkpt lat="45.75234" lon="6.64246">
        <ele>2005</ele>
        <time>2022-07-16T22:47:41Z</time>
      </trkpt>
      <trkpt lat="45.75232" lon="6.64245">
        <ele>2006</ele>
        <time>2022-07-16T22:47:43Z</time>
      </trkpt>
      <trkpt lat="45.7523" lon="6.64243">
        <ele>2007</ele>
        <time>2022-07-16T22:47:46Z</time>
      </trkpt>
      <trkpt lat="45.75228" lon="6.64243">
        <ele>2007</ele>
        <time>2022-07-16T22:47:51Z</time>
      </trkpt>
      <trkpt lat="45.75226" lon="6.64243">
        <ele>2008</ele>
        <time>2022-07-16T22:47:54Z</time>
      </trkpt>
      <trkpt lat="45.75223" lon="6.64242">
        <ele>2008</ele>
        <time>2022-07-16T22:47:57Z</time>
      </trkpt>
      <trkpt lat="45.75222" lon="6.64241">
        <ele>2008</ele>
        <time>2022-07-16T22:48:01Z</time>
      </trkpt>
      <trkpt lat="45.75219" lon="6.64241">
        <ele>2009</ele>
        <time>2022-07-16T22:48:03Z</time>
      </trkpt>
      <trkpt lat="45.75218" lon="6.6424">
        <ele>2008</ele>
        <time>2022-07-16T22:48:05Z</time>
      </trkpt>
      <trkpt lat="45.75216" lon="6.64239">
        <ele>2008</ele>
        <time>2022-07-16T22:48:07Z</time>
      </trkpt>
      <trkpt lat="45.75213" lon="6.64238">
        <ele>2007</ele>
        <time>2022-07-16T22:48:09Z</time>
      </trkpt>
      <trkpt lat="45.7521" lon="6.64236">
        <ele>2006</ele>
        <time>2022-07-16T22:48:11Z</time>
      </trkpt>
      <trkpt lat="45.75207" lon="6.64235">
        <ele>2006</ele>
        <time>2022-07-16T22:48:13Z</time>
      </trkpt>
      <trkpt lat="45.75204" lon="6.64234">
        <ele>2006</ele>
        <time>2022-07-16T22:48:15Z</time>
      </trkpt>
      <trkpt lat="45.75201" lon="6.64234">
        <ele>2006</ele>
        <time>2022-07-16T22:48:17Z</time>
      </trkpt>
      <trkpt lat="45.75198" lon="6.64233">
        <ele>2006</ele>
        <time>2022-07-16T22:48:19Z</time>
      </trkpt>
      <trkpt lat="45.75196" lon="6.64234">
        <ele>2006</ele>
        <time>2022-07-16T22:48:21Z</time>
      </trkpt>
      <trkpt lat="45.75194" lon="6.64234">
        <ele>2006</ele>
        <time>2022-07-16T22:48:23Z</time>
      </trkpt>
      <trkpt lat="45.75191" lon="6.64235">
        <ele>2006</ele>
        <time>2022-07-16T22:48:25Z</time>
      </trkpt>
      <trkpt lat="45.75188" lon="6.64235">
        <ele>2005</ele>
        <time>2022-07-16T22:48:27Z</time>
      </trkpt>
      <trkpt lat="45.75185" lon="6.64234">
        <ele>2005</ele>
        <time>2022-07-16T22:48:29Z</time>
      </trkpt>
      <trkpt lat="45.75182" lon="6.64233">
        <ele>2005</ele>
        <time>2022-07-16T22:48:31Z</time>
      </trkpt>
      <trkpt lat="45.75179" lon="6.64231">
        <ele>2005</ele>
        <time>2022-07-16T22:48:33Z</time>
      </trkpt>
      <trkpt lat="45.75177" lon="6.6423">
        <ele>2005</ele>
        <time>2022-07-16T22:48:35Z</time>
      </trkpt>
      <trkpt lat="45.75175" lon="6.64228">
        <ele>2005</ele>
        <time>2022-07-16T22:48:37Z</time>
      </trkpt>
      <trkpt lat="45.75173" lon="6.64228">
        <ele>2005</ele>
        <time>2022-07-16T22:48:39Z</time>
      </trkpt>
      <trkpt lat="45.75171" lon="6.64227">
        <ele>2005</ele>
        <time>2022-07-16T22:48:41Z</time>
      </trkpt>
      <trkpt lat="45.75169" lon="6.64226">
        <ele>2005</ele>
        <time>2022-07-16T22:48:43Z</time>
      </trkpt>
      <trkpt lat="45.75167" lon="6.64225">
        <ele>2005</ele>
        <time>2022-07-16T22:48:45Z</time>
      </trkpt>
      <trkpt lat="45.75166" lon="6.64223">
        <ele>2006</ele>
        <time>2022-07-16T22:48:48Z</time>
      </trkpt>
      <trkpt lat="45.75165" lon="6.64221">
        <ele>2006</ele>
        <time>2022-07-16T22:48:51Z</time>
      </trkpt>
      <trkpt lat="45.75163" lon="6.64219">
        <ele>2007</ele>
        <time>2022-07-16T22:48:54Z</time>
      </trkpt>
      <trkpt lat="45.75162" lon="6.64217">
        <ele>2009</ele>
        <time>2022-07-16T22:48:57Z</time>
      </trkpt>
      <trkpt lat="45.75159" lon="6.64216">
        <ele>2009</ele>
        <time>2022-07-16T22:49:02Z</time>
      </trkpt>
      <trkpt lat="45.75157" lon="6.64215">
        <ele>2010</ele>
        <time>2022-07-16T22:49:05Z</time>
      </trkpt>
      <trkpt lat="45.75155" lon="6.64213">
        <ele>2010</ele>
        <time>2022-07-16T22:49:08Z</time>
      </trkpt>
      <trkpt lat="45.75154" lon="6.64211">
        <ele>2010</ele>
        <time>2022-07-16T22:49:11Z</time>
      </trkpt>
      <trkpt lat="45.75152" lon="6.64209">
        <ele>2010</ele>
        <time>2022-07-16T22:49:15Z</time>
      </trkpt>
      <trkpt lat="45.7515" lon="6.64207">
        <ele>2012</ele>
        <time>2022-07-16T22:49:18Z</time>
      </trkpt>
      <trkpt lat="45.75149" lon="6.64205">
        <ele>2012</ele>
        <time>2022-07-16T22:49:22Z</time>
      </trkpt>
      <trkpt lat="45.75147" lon="6.64204">
        <ele>2014</ele>
        <time>2022-07-16T22:49:26Z</time>
      </trkpt>
      <trkpt lat="45.75145" lon="6.64202">
        <ele>2015</ele>
        <time>2022-07-16T22:49:30Z</time>
      </trkpt>
      <trkpt lat="45.75144" lon="6.642">
        <ele>2016</ele>
        <time>2022-07-16T22:49:34Z</time>
      </trkpt>
      <trkpt lat="45.75142" lon="6.64198">
        <ele>2016</ele>
        <time>2022-07-16T22:49:37Z</time>
      </trkpt>
      <trkpt lat="45.7514" lon="6.64197">
        <ele>2016</ele>
        <time>2022-07-16T22:49:39Z</time>
      </trkpt>
      <trkpt lat="45.75138" lon="6.64196">
        <ele>2017</ele>
        <time>2022-07-16T22:49:42Z</time>
      </trkpt>
      <trkpt lat="45.75136" lon="6.64195">
        <ele>2017</ele>
        <time>2022-07-16T22:49:45Z</time>
      </trkpt>
      <trkpt lat="45.75135" lon="6.64194">
        <ele>2017</ele>
        <time>2022-07-16T22:49:47Z</time>
      </trkpt>
      <trkpt lat="45.75133" lon="6.64192">
        <ele>2018</ele>
        <time>2022-07-16T22:49:50Z</time>
      </trkpt>
      <trkpt lat="45.75131" lon="6.64191">
        <ele>2018</ele>
        <time>2022-07-16T22:49:51Z</time>
      </trkpt>
      <trkpt lat="45.7513" lon="6.64189">
        <ele>2018</ele>
        <time>2022-07-16T22:49:54Z</time>
      </trkpt>
      <trkpt lat="45.75128" lon="6.64187">
        <ele>2018</ele>
        <time>2022-07-16T22:49:56Z</time>
      </trkpt>
      <trkpt lat="45.75127" lon="6.64185">
        <ele>2019</ele>
        <time>2022-07-16T22:49:58Z</time>
      </trkpt>
      <trkpt lat="45.75125" lon="6.64183">
        <ele>2019</ele>
        <time>2022-07-16T22:50:00Z</time>
      </trkpt>
      <trkpt lat="45.75124" lon="6.64181">
        <ele>2020</ele>
        <time>2022-07-16T22:50:03Z</time>
      </trkpt>
      <trkpt lat="45.75121" lon="6.64181">
        <ele>2020</ele>
        <time>2022-07-16T22:50:06Z</time>
      </trkpt>
      <trkpt lat="45.75119" lon="6.6418">
        <ele>2019</ele>
        <time>2022-07-16T22:50:08Z</time>
      </trkpt>
      <trkpt lat="45.75117" lon="6.64178">
        <ele>2019</ele>
        <time>2022-07-16T22:50:11Z</time>
      </trkpt>
      <trkpt lat="45.75115" lon="6.64178">
        <ele>2019</ele>
        <time>2022-07-16T22:50:14Z</time>
      </trkpt>
      <trkpt lat="45.75112" lon="6.64178">
        <ele>2019</ele>
        <time>2022-07-16T22:50:16Z</time>
      </trkpt>
      <trkpt lat="45.7511" lon="6.64178">
        <ele>2019</ele>
        <time>2022-07-16T22:50:18Z</time>
      </trkpt>
      <trkpt lat="45.75107" lon="6.64176">
        <ele>2018</ele>
        <time>2022-07-16T22:50:20Z</time>
      </trkpt>
      <trkpt lat="45.75106" lon="6.64174">
        <ele>2018</ele>
        <time>2022-07-16T22:50:22Z</time>
      </trkpt>
      <trkpt lat="45.75104" lon="6.64171">
        <ele>2019</ele>
        <time>2022-07-16T22:50:25Z</time>
      </trkpt>
      <trkpt lat="45.75102" lon="6.6417">
        <ele>2019</ele>
        <time>2022-07-16T22:50:27Z</time>
      </trkpt>
      <trkpt lat="45.75099" lon="6.64169">
        <ele>2019</ele>
        <time>2022-07-16T22:50:29Z</time>
      </trkpt>
      <trkpt lat="45.75097" lon="6.64167">
        <ele>2019</ele>
        <time>2022-07-16T22:50:31Z</time>
      </trkpt>
      <trkpt lat="45.75095" lon="6.64166">
        <ele>2019</ele>
        <time>2022-07-16T22:50:33Z</time>
      </trkpt>
      <trkpt lat="45.75093" lon="6.64165">
        <ele>2019</ele>
        <time>2022-07-16T22:50:35Z</time>
      </trkpt>
      <trkpt lat="45.75092" lon="6.64163">
        <ele>2019</ele>
        <time>2022-07-16T22:50:37Z</time>
      </trkpt>
      <trkpt lat="45.7509" lon="6.64161">
        <ele>2020</ele>
        <time>2022-07-16T22:50:40Z</time>
      </trkpt>
      <trkpt lat="45.75088" lon="6.6416">
        <ele>2020</ele>
        <time>2022-07-16T22:50:42Z</time>
      </trkpt>
      <trkpt lat="45.75086" lon="6.6416">
        <ele>2020</ele>
        <time>2022-07-16T22:50:44Z</time>
      </trkpt>
      <trkpt lat="45.75084" lon="6.64159">
        <ele>2020</ele>
        <time>2022-07-16T22:50:46Z</time>
      </trkpt>
      <trkpt lat="45.75081" lon="6.64157">
        <ele>2020</ele>
        <time>2022-07-16T22:50:48Z</time>
      </trkpt>
      <trkpt lat="45.75079" lon="6.64155">
        <ele>2020</ele>
        <time>2022-07-16T22:50:50Z</time>
      </trkpt>
      <trkpt lat="45.75077" lon="6.64154">
        <ele>2020</ele>
        <time>2022-07-16T22:50:52Z</time>
      </trkpt>
      <trkpt lat="45.75075" lon="6.64152">
        <ele>2021</ele>
        <time>2022-07-16T22:50:54Z</time>
      </trkpt>
      <trkpt lat="45.75073" lon="6.6415">
        <ele>2021</ele>
        <time>2022-07-16T22:50:56Z</time>
      </trkpt>
      <trkpt lat="45.75072" lon="6.64148">
        <ele>2021</ele>
        <time>2022-07-16T22:50:58Z</time>
      </trkpt>
      <trkpt lat="45.7507" lon="6.64147">
        <ele>2021</ele>
        <time>2022-07-16T22:51:00Z</time>
      </trkpt>
      <trkpt lat="45.75068" lon="6.64146">
        <ele>2021</ele>
        <time>2022-07-16T22:51:02Z</time>
      </trkpt>
      <trkpt lat="45.75065" lon="6.64146">
        <ele>2022</ele>
        <time>2022-07-16T22:51:04Z</time>
      </trkpt>
      <trkpt lat="45.75063" lon="6.64147">
        <ele>2022</ele>
        <time>2022-07-16T22:51:06Z</time>
      </trkpt>
      <trkpt lat="45.7506" lon="6.64147">
        <ele>2022</ele>
        <time>2022-07-16T22:51:08Z</time>
      </trkpt>
      <trkpt lat="45.75058" lon="6.64148">
        <ele>2021</ele>
        <time>2022-07-16T22:51:10Z</time>
      </trkpt>
      <trkpt lat="45.75056" lon="6.6415">
        <ele>2022</ele>
        <time>2022-07-16T22:51:12Z</time>
      </trkpt>
      <trkpt lat="45.75053" lon="6.64152">
        <ele>2022</ele>
        <time>2022-07-16T22:51:14Z</time>
      </trkpt>
      <trkpt lat="45.7505" lon="6.64154">
        <ele>2022</ele>
        <time>2022-07-16T22:51:16Z</time>
      </trkpt>
      <trkpt lat="45.75047" lon="6.64154">
        <ele>2021</ele>
        <time>2022-07-16T22:51:18Z</time>
      </trkpt>
      <trkpt lat="45.75045" lon="6.64154">
        <ele>2021</ele>
        <time>2022-07-16T22:51:20Z</time>
      </trkpt>
      <trkpt lat="45.75042" lon="6.64153">
        <ele>2021</ele>
        <time>2022-07-16T22:51:22Z</time>
      </trkpt>
      <trkpt lat="45.7504" lon="6.64152">
        <ele>2021</ele>
        <time>2022-07-16T22:51:24Z</time>
      </trkpt>
      <trkpt lat="45.75038" lon="6.6415">
        <ele>2021</ele>
        <time>2022-07-16T22:51:26Z</time>
      </trkpt>
      <trkpt lat="45.75035" lon="6.64149">
        <ele>2021</ele>
        <time>2022-07-16T22:51:28Z</time>
      </trkpt>
      <trkpt lat="45.75032" lon="6.64147">
        <ele>2021</ele>
        <time>2022-07-16T22:51:30Z</time>
      </trkpt>
      <trkpt lat="45.7503" lon="6.64146">
        <ele>2022</ele>
        <time>2022-07-16T22:51:32Z</time>
      </trkpt>
      <trkpt lat="45.75028" lon="6.64145">
        <ele>2022</ele>
        <time>2022-07-16T22:51:34Z</time>
      </trkpt>
      <trkpt lat="45.75026" lon="6.64143">
        <ele>2022</ele>
        <time>2022-07-16T22:51:36Z</time>
      </trkpt>
      <trkpt lat="45.75023" lon="6.64141">
        <ele>2022</ele>
        <time>2022-07-16T22:51:38Z</time>
      </trkpt>
      <trkpt lat="45.75021" lon="6.6414">
        <ele>2022</ele>
        <time>2022-07-16T22:51:40Z</time>
      </trkpt>
      <trkpt lat="45.75018" lon="6.64139">
        <ele>2022</ele>
        <time>2022-07-16T22:51:42Z</time>
      </trkpt>
      <trkpt lat="45.75016" lon="6.64137">
        <ele>2022</ele>
        <time>2022-07-16T22:51:44Z</time>
      </trkpt>
      <trkpt lat="45.75013" lon="6.64137">
        <ele>2022</ele>
        <time>2022-07-16T22:51:46Z</time>
      </trkpt>
      <trkpt lat="45.7501" lon="6.64137">
        <ele>2022</ele>
        <time>2022-07-16T22:51:48Z</time>
      </trkpt>
      <trkpt lat="45.75008" lon="6.64136">
        <ele>2022</ele>
        <time>2022-07-16T22:51:50Z</time>
      </trkpt>
      <trkpt lat="45.75005" lon="6.64135">
        <ele>2022</ele>
        <time>2022-07-16T22:51:52Z</time>
      </trkpt>
      <trkpt lat="45.75003" lon="6.64135">
        <ele>2022</ele>
        <time>2022-07-16T22:51:54Z</time>
      </trkpt>
      <trkpt lat="45.75001" lon="6.64134">
        <ele>2022</ele>
        <time>2022-07-16T22:51:56Z</time>
      </trkpt>
      <trkpt lat="45.74998" lon="6.64134">
        <ele>2022</ele>
        <time>2022-07-16T22:51:58Z</time>
      </trkpt>
      <trkpt lat="45.74995" lon="6.64133">
        <ele>2022</ele>
        <time>2022-07-16T22:52:00Z</time>
      </trkpt>
      <trkpt lat="45.74993" lon="6.64132">
        <ele>2023</ele>
        <time>2022-07-16T22:52:02Z</time>
      </trkpt>
      <trkpt lat="45.7499" lon="6.64131">
        <ele>2023</ele>
        <time>2022-07-16T22:52:04Z</time>
      </trkpt>
      <trkpt lat="45.74988" lon="6.6413">
        <ele>2023</ele>
        <time>2022-07-16T22:52:06Z</time>
      </trkpt>
      <trkpt lat="45.74986" lon="6.64128">
        <ele>2023</ele>
        <time>2022-07-16T22:52:08Z</time>
      </trkpt>
      <trkpt lat="45.74984" lon="6.64128">
        <ele>2024</ele>
        <time>2022-07-16T22:52:10Z</time>
      </trkpt>
      <trkpt lat="45.74981" lon="6.64127">
        <ele>2024</ele>
        <time>2022-07-16T22:52:12Z</time>
      </trkpt>
      <trkpt lat="45.74979" lon="6.64127">
        <ele>2024</ele>
        <time>2022-07-16T22:52:14Z</time>
      </trkpt>
      <trkpt lat="45.74976" lon="6.64125">
        <ele>2024</ele>
        <time>2022-07-16T22:52:16Z</time>
      </trkpt>
      <trkpt lat="45.74974" lon="6.64123">
        <ele>2023</ele>
        <time>2022-07-16T22:52:18Z</time>
      </trkpt>
      <trkpt lat="45.74971" lon="6.6412">
        <ele>2023</ele>
        <time>2022-07-16T22:52:20Z</time>
      </trkpt>
      <trkpt lat="45.74969" lon="6.64117">
        <ele>2022</ele>
        <time>2022-07-16T22:52:22Z</time>
      </trkpt>
      <trkpt lat="45.74967" lon="6.64115">
        <ele>2022</ele>
        <time>2022-07-16T22:52:24Z</time>
      </trkpt>
      <trkpt lat="45.74965" lon="6.64114">
        <ele>2022</ele>
        <time>2022-07-16T22:52:26Z</time>
      </trkpt>
      <trkpt lat="45.74963" lon="6.64114">
        <ele>2023</ele>
        <time>2022-07-16T22:52:28Z</time>
      </trkpt>
      <trkpt lat="45.7496" lon="6.64114">
        <ele>2023</ele>
        <time>2022-07-16T22:52:30Z</time>
      </trkpt>
      <trkpt lat="45.74958" lon="6.64113">
        <ele>2024</ele>
        <time>2022-07-16T22:52:32Z</time>
      </trkpt>
      <trkpt lat="45.74955" lon="6.64113">
        <ele>2024</ele>
        <time>2022-07-16T22:52:34Z</time>
      </trkpt>
      <trkpt lat="45.74953" lon="6.64112">
        <ele>2024</ele>
        <time>2022-07-16T22:52:36Z</time>
      </trkpt>
      <trkpt lat="45.7495" lon="6.64111">
        <ele>2024</ele>
        <time>2022-07-16T22:52:38Z</time>
      </trkpt>
      <trkpt lat="45.74948" lon="6.64109">
        <ele>2024</ele>
        <time>2022-07-16T22:52:40Z</time>
      </trkpt>
      <trkpt lat="45.74946" lon="6.64108">
        <ele>2025</ele>
        <time>2022-07-16T22:52:42Z</time>
      </trkpt>
      <trkpt lat="45.74944" lon="6.64107">
        <ele>2025</ele>
        <time>2022-07-16T22:52:44Z</time>
      </trkpt>
      <trkpt lat="45.74942" lon="6.64107">
        <ele>2025</ele>
        <time>2022-07-16T22:52:46Z</time>
      </trkpt>
      <trkpt lat="45.7494" lon="6.64106">
        <ele>2026</ele>
        <time>2022-07-16T22:52:48Z</time>
      </trkpt>
      <trkpt lat="45.74938" lon="6.64106">
        <ele>2026</ele>
        <time>2022-07-16T22:52:50Z</time>
      </trkpt>
      <trkpt lat="45.74936" lon="6.64107">
        <ele>2026</ele>
        <time>2022-07-16T22:52:52Z</time>
      </trkpt>
      <trkpt lat="45.74933" lon="6.64107">
        <ele>2027</ele>
        <time>2022-07-16T22:52:54Z</time>
      </trkpt>
      <trkpt lat="45.74931" lon="6.64105">
        <ele>2027</ele>
        <time>2022-07-16T22:52:56Z</time>
      </trkpt>
      <trkpt lat="45.74929" lon="6.64104">
        <ele>2027</ele>
        <time>2022-07-16T22:52:58Z</time>
      </trkpt>
      <trkpt lat="45.74928" lon="6.64102">
        <ele>2027</ele>
        <time>2022-07-16T22:53:00Z</time>
      </trkpt>
      <trkpt lat="45.74926" lon="6.641">
        <ele>2027</ele>
        <time>2022-07-16T22:53:02Z</time>
      </trkpt>
      <trkpt lat="45.74926" lon="6.64098">
        <ele>2028</ele>
        <time>2022-07-16T22:53:04Z</time>
      </trkpt>
      <trkpt lat="45.74925" lon="6.64095">
        <ele>2029</ele>
        <time>2022-07-16T22:53:06Z</time>
      </trkpt>
      <trkpt lat="45.74923" lon="6.64092">
        <ele>2029</ele>
        <time>2022-07-16T22:53:08Z</time>
      </trkpt>
      <trkpt lat="45.74922" lon="6.64089">
        <ele>2030</ele>
        <time>2022-07-16T22:53:10Z</time>
      </trkpt>
      <trkpt lat="45.7492" lon="6.64087">
        <ele>2030</ele>
        <time>2022-07-16T22:53:12Z</time>
      </trkpt>
      <trkpt lat="45.74918" lon="6.64085">
        <ele>2030</ele>
        <time>2022-07-16T22:53:14Z</time>
      </trkpt>
      <trkpt lat="45.74916" lon="6.64083">
        <ele>2030</ele>
        <time>2022-07-16T22:53:16Z</time>
      </trkpt>
      <trkpt lat="45.74914" lon="6.64082">
        <ele>2030</ele>
        <time>2022-07-16T22:53:18Z</time>
      </trkpt>
      <trkpt lat="45.74911" lon="6.64081">
        <ele>2030</ele>
        <time>2022-07-16T22:53:20Z</time>
      </trkpt>
      <trkpt lat="45.74909" lon="6.6408">
        <ele>2030</ele>
        <time>2022-07-16T22:53:22Z</time>
      </trkpt>
      <trkpt lat="45.74906" lon="6.64078">
        <ele>2030</ele>
        <time>2022-07-16T22:53:24Z</time>
      </trkpt>
      <trkpt lat="45.74903" lon="6.64076">
        <ele>2030</ele>
        <time>2022-07-16T22:53:26Z</time>
      </trkpt>
      <trkpt lat="45.74901" lon="6.64074">
        <ele>2030</ele>
        <time>2022-07-16T22:53:28Z</time>
      </trkpt>
      <trkpt lat="45.74899" lon="6.64072">
        <ele>2030</ele>
        <time>2022-07-16T22:53:30Z</time>
      </trkpt>
      <trkpt lat="45.74896" lon="6.64072">
        <ele>2031</ele>
        <time>2022-07-16T22:53:33Z</time>
      </trkpt>
      <trkpt lat="45.74894" lon="6.64072">
        <ele>2031</ele>
        <time>2022-07-16T22:53:35Z</time>
      </trkpt>
      <trkpt lat="45.74891" lon="6.64072">
        <ele>2031</ele>
        <time>2022-07-16T22:53:37Z</time>
      </trkpt>
      <trkpt lat="45.74889" lon="6.6407">
        <ele>2031</ele>
        <time>2022-07-16T22:53:39Z</time>
      </trkpt>
      <trkpt lat="45.74886" lon="6.64069">
        <ele>2031</ele>
        <time>2022-07-16T22:53:41Z</time>
      </trkpt>
      <trkpt lat="45.74884" lon="6.64068">
        <ele>2032</ele>
        <time>2022-07-16T22:53:43Z</time>
      </trkpt>
      <trkpt lat="45.74881" lon="6.64067">
        <ele>2032</ele>
        <time>2022-07-16T22:53:45Z</time>
      </trkpt>
      <trkpt lat="45.74879" lon="6.64067">
        <ele>2032</ele>
        <time>2022-07-16T22:53:47Z</time>
      </trkpt>
      <trkpt lat="45.74877" lon="6.64067">
        <ele>2032</ele>
        <time>2022-07-16T22:53:49Z</time>
      </trkpt>
      <trkpt lat="45.74875" lon="6.64066">
        <ele>2032</ele>
        <time>2022-07-16T22:53:51Z</time>
      </trkpt>
      <trkpt lat="45.74873" lon="6.64065">
        <ele>2033</ele>
        <time>2022-07-16T22:53:53Z</time>
      </trkpt>
      <trkpt lat="45.74871" lon="6.64065">
        <ele>2033</ele>
        <time>2022-07-16T22:53:56Z</time>
      </trkpt>
      <trkpt lat="45.74868" lon="6.64066">
        <ele>2034</ele>
        <time>2022-07-16T22:53:59Z</time>
      </trkpt>
      <trkpt lat="45.74866" lon="6.64067">
        <ele>2035</ele>
        <time>2022-07-16T22:54:04Z</time>
      </trkpt>
      <trkpt lat="45.74864" lon="6.64067">
        <ele>2035</ele>
        <time>2022-07-16T22:54:06Z</time>
      </trkpt>
      <trkpt lat="45.74863" lon="6.64066">
        <ele>2035</ele>
        <time>2022-07-16T22:54:08Z</time>
      </trkpt>
      <trkpt lat="45.74861" lon="6.64064">
        <ele>2036</ele>
        <time>2022-07-16T22:54:11Z</time>
      </trkpt>
      <trkpt lat="45.74859" lon="6.64062">
        <ele>2037</ele>
        <time>2022-07-16T22:54:14Z</time>
      </trkpt>
      <trkpt lat="45.74858" lon="6.64061">
        <ele>2037</ele>
        <time>2022-07-16T22:54:17Z</time>
      </trkpt>
      <trkpt lat="45.74856" lon="6.64062">
        <ele>2038</ele>
        <time>2022-07-16T22:54:19Z</time>
      </trkpt>
      <trkpt lat="45.74853" lon="6.64063">
        <ele>2040</ele>
        <time>2022-07-16T22:54:22Z</time>
      </trkpt>
      <trkpt lat="45.74851" lon="6.64064">
        <ele>2040</ele>
        <time>2022-07-16T22:54:24Z</time>
      </trkpt>
      <trkpt lat="45.74849" lon="6.64064">
        <ele>2040</ele>
        <time>2022-07-16T22:54:26Z</time>
      </trkpt>
      <trkpt lat="45.74847" lon="6.64064">
        <ele>2041</ele>
        <time>2022-07-16T22:54:29Z</time>
      </trkpt>
      <trkpt lat="45.74845" lon="6.64065">
        <ele>2041</ele>
        <time>2022-07-16T22:54:34Z</time>
      </trkpt>
      <trkpt lat="45.74843" lon="6.64066">
        <ele>2042</ele>
        <time>2022-07-16T22:54:37Z</time>
      </trkpt>
      <trkpt lat="45.74841" lon="6.64066">
        <ele>2042</ele>
        <time>2022-07-16T22:54:39Z</time>
      </trkpt>
      <trkpt lat="45.74839" lon="6.64065">
        <ele>2043</ele>
        <time>2022-07-16T22:54:42Z</time>
      </trkpt>
      <trkpt lat="45.74837" lon="6.64065">
        <ele>2043</ele>
        <time>2022-07-16T22:54:45Z</time>
      </trkpt>
      <trkpt lat="45.74834" lon="6.64067">
        <ele>2044</ele>
        <time>2022-07-16T22:54:48Z</time>
      </trkpt>
      <trkpt lat="45.74832" lon="6.64068">
        <ele>2044</ele>
        <time>2022-07-16T22:54:51Z</time>
      </trkpt>
      <trkpt lat="45.7483" lon="6.6407">
        <ele>2045</ele>
        <time>2022-07-16T22:54:54Z</time>
      </trkpt>
      <trkpt lat="45.74829" lon="6.64069">
        <ele>2045</ele>
        <time>2022-07-16T22:54:56Z</time>
      </trkpt>
      <trkpt lat="45.74827" lon="6.64068">
        <ele>2046</ele>
        <time>2022-07-16T22:54:58Z</time>
      </trkpt>
      <trkpt lat="45.74824" lon="6.64068">
        <ele>2046</ele>
        <time>2022-07-16T22:55:00Z</time>
      </trkpt>
      <trkpt lat="45.74821" lon="6.64068">
        <ele>2045</ele>
        <time>2022-07-16T22:55:02Z</time>
      </trkpt>
      <trkpt lat="45.74819" lon="6.64069">
        <ele>2045</ele>
        <time>2022-07-16T22:55:04Z</time>
      </trkpt>
      <trkpt lat="45.74817" lon="6.64073">
        <ele>2045</ele>
        <time>2022-07-16T22:55:08Z</time>
      </trkpt>
      <trkpt lat="45.74814" lon="6.64075">
        <ele>2045</ele>
        <time>2022-07-16T22:55:10Z</time>
      </trkpt>
      <trkpt lat="45.74812" lon="6.64077">
        <ele>2045</ele>
        <time>2022-07-16T22:55:12Z</time>
      </trkpt>
      <trkpt lat="45.7481" lon="6.64079">
        <ele>2045</ele>
        <time>2022-07-16T22:55:14Z</time>
      </trkpt>
      <trkpt lat="45.74808" lon="6.64081">
        <ele>2045</ele>
        <time>2022-07-16T22:55:16Z</time>
      </trkpt>
      <trkpt lat="45.74805" lon="6.64081">
        <ele>2045</ele>
        <time>2022-07-16T22:55:18Z</time>
      </trkpt>
      <trkpt lat="45.74803" lon="6.64082">
        <ele>2044</ele>
        <time>2022-07-16T22:55:20Z</time>
      </trkpt>
      <trkpt lat="45.748" lon="6.64083">
        <ele>2044</ele>
        <time>2022-07-16T22:55:22Z</time>
      </trkpt>
      <trkpt lat="45.74797" lon="6.64084">
        <ele>2044</ele>
        <time>2022-07-16T22:55:24Z</time>
      </trkpt>
      <trkpt lat="45.74795" lon="6.64084">
        <ele>2044</ele>
        <time>2022-07-16T22:55:26Z</time>
      </trkpt>
      <trkpt lat="45.74792" lon="6.64086">
        <ele>2044</ele>
        <time>2022-07-16T22:55:28Z</time>
      </trkpt>
      <trkpt lat="45.7479" lon="6.64088">
        <ele>2044</ele>
        <time>2022-07-16T22:55:30Z</time>
      </trkpt>
      <trkpt lat="45.74788" lon="6.6409">
        <ele>2044</ele>
        <time>2022-07-16T22:55:32Z</time>
      </trkpt>
      <trkpt lat="45.74786" lon="6.64091">
        <ele>2044</ele>
        <time>2022-07-16T22:55:33Z</time>
      </trkpt>
      <trkpt lat="45.74784" lon="6.64094">
        <ele>2045</ele>
        <time>2022-07-16T22:55:36Z</time>
      </trkpt>
      <trkpt lat="45.74783" lon="6.64097">
        <ele>2045</ele>
        <time>2022-07-16T22:55:39Z</time>
      </trkpt>
      <trkpt lat="45.74781" lon="6.64098">
        <ele>2045</ele>
        <time>2022-07-16T22:55:41Z</time>
      </trkpt>
      <trkpt lat="45.74779" lon="6.64101">
        <ele>2046</ele>
        <time>2022-07-16T22:55:43Z</time>
      </trkpt>
      <trkpt lat="45.74777" lon="6.64102">
        <ele>2046</ele>
        <time>2022-07-16T22:55:46Z</time>
      </trkpt>
      <trkpt lat="45.74776" lon="6.64104">
        <ele>2047</ele>
        <time>2022-07-16T22:55:49Z</time>
      </trkpt>
      <trkpt lat="45.74773" lon="6.64105">
        <ele>2047</ele>
        <time>2022-07-16T22:55:52Z</time>
      </trkpt>
      <trkpt lat="45.74771" lon="6.64104">
        <ele>2048</ele>
        <time>2022-07-16T22:55:55Z</time>
      </trkpt>
      <trkpt lat="45.74769" lon="6.64104">
        <ele>2049</ele>
        <time>2022-07-16T22:55:58Z</time>
      </trkpt>
      <trkpt lat="45.74767" lon="6.64103">
        <ele>2050</ele>
        <time>2022-07-16T22:56:02Z</time>
      </trkpt>
      <trkpt lat="45.74764" lon="6.64103">
        <ele>2050</ele>
        <time>2022-07-16T22:56:06Z</time>
      </trkpt>
      <trkpt lat="45.74762" lon="6.64102">
        <ele>2050</ele>
        <time>2022-07-16T22:56:09Z</time>
      </trkpt>
      <trkpt lat="45.7476" lon="6.64102">
        <ele>2051</ele>
        <time>2022-07-16T22:56:11Z</time>
      </trkpt>
      <trkpt lat="45.74758" lon="6.64101">
        <ele>2051</ele>
        <time>2022-07-16T22:56:13Z</time>
      </trkpt>
      <trkpt lat="45.74756" lon="6.64099">
        <ele>2051</ele>
        <time>2022-07-16T22:56:15Z</time>
      </trkpt>
      <trkpt lat="45.74754" lon="6.64098">
        <ele>2051</ele>
        <time>2022-07-16T22:56:17Z</time>
      </trkpt>
      <trkpt lat="45.74752" lon="6.64096">
        <ele>2051</ele>
        <time>2022-07-16T22:56:19Z</time>
      </trkpt>
      <trkpt lat="45.7475" lon="6.64095">
        <ele>2051</ele>
        <time>2022-07-16T22:56:21Z</time>
      </trkpt>
      <trkpt lat="45.74747" lon="6.64095">
        <ele>2051</ele>
        <time>2022-07-16T22:56:23Z</time>
      </trkpt>
      <trkpt lat="45.74745" lon="6.64094">
        <ele>2051</ele>
        <time>2022-07-16T22:56:25Z</time>
      </trkpt>
      <trkpt lat="45.74743" lon="6.64092">
        <ele>2051</ele>
        <time>2022-07-16T22:56:27Z</time>
      </trkpt>
      <trkpt lat="45.74741" lon="6.64091">
        <ele>2052</ele>
        <time>2022-07-16T22:56:29Z</time>
      </trkpt>
      <trkpt lat="45.74738" lon="6.64091">
        <ele>2052</ele>
        <time>2022-07-16T22:56:31Z</time>
      </trkpt>
      <trkpt lat="45.74735" lon="6.64091">
        <ele>2052</ele>
        <time>2022-07-16T22:56:33Z</time>
      </trkpt>
      <trkpt lat="45.74732" lon="6.64091">
        <ele>2052</ele>
        <time>2022-07-16T22:56:35Z</time>
      </trkpt>
      <trkpt lat="45.7473" lon="6.64089">
        <ele>2052</ele>
        <time>2022-07-16T22:56:37Z</time>
      </trkpt>
      <trkpt lat="45.74728" lon="6.64088">
        <ele>2052</ele>
        <time>2022-07-16T22:56:39Z</time>
      </trkpt>
      <trkpt lat="45.74726" lon="6.64088">
        <ele>2052</ele>
        <time>2022-07-16T22:56:41Z</time>
      </trkpt>
      <trkpt lat="45.74724" lon="6.64087">
        <ele>2052</ele>
        <time>2022-07-16T22:56:43Z</time>
      </trkpt>
      <trkpt lat="45.74722" lon="6.64086">
        <ele>2052</ele>
        <time>2022-07-16T22:56:45Z</time>
      </trkpt>
      <trkpt lat="45.7472" lon="6.64085">
        <ele>2052</ele>
        <time>2022-07-16T22:56:47Z</time>
      </trkpt>
      <trkpt lat="45.74718" lon="6.64085">
        <ele>2052</ele>
        <time>2022-07-16T22:56:49Z</time>
      </trkpt>
      <trkpt lat="45.74715" lon="6.64085">
        <ele>2052</ele>
        <time>2022-07-16T22:56:51Z</time>
      </trkpt>
      <trkpt lat="45.74713" lon="6.64085">
        <ele>2052</ele>
        <time>2022-07-16T22:56:53Z</time>
      </trkpt>
      <trkpt lat="45.74711" lon="6.64085">
        <ele>2052</ele>
        <time>2022-07-16T22:56:54Z</time>
      </trkpt>
      <trkpt lat="45.74709" lon="6.64083">
        <ele>2052</ele>
        <time>2022-07-16T22:56:55Z</time>
      </trkpt>
      <trkpt lat="45.74708" lon="6.64082">
        <ele>2051</ele>
        <time>2022-07-16T22:56:56Z</time>
      </trkpt>
      <trkpt lat="45.74705" lon="6.64079">
        <ele>2051</ele>
        <time>2022-07-16T22:56:58Z</time>
      </trkpt>
      <trkpt lat="45.74703" lon="6.64077">
        <ele>2051</ele>
        <time>2022-07-16T22:57:00Z</time>
      </trkpt>
      <trkpt lat="45.74701" lon="6.64075">
        <ele>2051</ele>
        <time>2022-07-16T22:57:02Z</time>
      </trkpt>
      <trkpt lat="45.74699" lon="6.64074">
        <ele>2051</ele>
        <time>2022-07-16T22:57:04Z</time>
      </trkpt>
      <trkpt lat="45.74696" lon="6.64073">
        <ele>2051</ele>
        <time>2022-07-16T22:57:06Z</time>
      </trkpt>
      <trkpt lat="45.74693" lon="6.64071">
        <ele>2051</ele>
        <time>2022-07-16T22:57:08Z</time>
      </trkpt>
      <trkpt lat="45.74691" lon="6.6407">
        <ele>2051</ele>
        <time>2022-07-16T22:57:10Z</time>
      </trkpt>
      <trkpt lat="45.74688" lon="6.64069">
        <ele>2051</ele>
        <time>2022-07-16T22:57:12Z</time>
      </trkpt>
      <trkpt lat="45.74686" lon="6.64068">
        <ele>2051</ele>
        <time>2022-07-16T22:57:14Z</time>
      </trkpt>
      <trkpt lat="45.74683" lon="6.64068">
        <ele>2051</ele>
        <time>2022-07-16T22:57:16Z</time>
      </trkpt>
      <trkpt lat="45.7468" lon="6.64066">
        <ele>2051</ele>
        <time>2022-07-16T22:57:18Z</time>
      </trkpt>
      <trkpt lat="45.74678" lon="6.64064">
        <ele>2051</ele>
        <time>2022-07-16T22:57:20Z</time>
      </trkpt>
      <trkpt lat="45.74676" lon="6.64062">
        <ele>2051</ele>
        <time>2022-07-16T22:57:22Z</time>
      </trkpt>
      <trkpt lat="45.74674" lon="6.64059">
        <ele>2051</ele>
        <time>2022-07-16T22:57:24Z</time>
      </trkpt>
      <trkpt lat="45.74672" lon="6.64057">
        <ele>2051</ele>
        <time>2022-07-16T22:57:26Z</time>
      </trkpt>
      <trkpt lat="45.7467" lon="6.64055">
        <ele>2051</ele>
        <time>2022-07-16T22:57:28Z</time>
      </trkpt>
      <trkpt lat="45.74668" lon="6.64053">
        <ele>2051</ele>
        <time>2022-07-16T22:57:30Z</time>
      </trkpt>
      <trkpt lat="45.74666" lon="6.64051">
        <ele>2051</ele>
        <time>2022-07-16T22:57:32Z</time>
      </trkpt>
      <trkpt lat="45.74664" lon="6.6405">
        <ele>2051</ele>
        <time>2022-07-16T22:57:34Z</time>
      </trkpt>
      <trkpt lat="45.74661" lon="6.64049">
        <ele>2051</ele>
        <time>2022-07-16T22:57:36Z</time>
      </trkpt>
      <trkpt lat="45.74658" lon="6.64048">
        <ele>2052</ele>
        <time>2022-07-16T22:57:38Z</time>
      </trkpt>
      <trkpt lat="45.74655" lon="6.64046">
        <ele>2052</ele>
        <time>2022-07-16T22:57:40Z</time>
      </trkpt>
      <trkpt lat="45.74653" lon="6.64046">
        <ele>2052</ele>
        <time>2022-07-16T22:57:42Z</time>
      </trkpt>
      <trkpt lat="45.7465" lon="6.64046">
        <ele>2052</ele>
        <time>2022-07-16T22:57:44Z</time>
      </trkpt>
      <trkpt lat="45.74647" lon="6.64046">
        <ele>2051</ele>
        <time>2022-07-16T22:57:46Z</time>
      </trkpt>
      <trkpt lat="45.74645" lon="6.64045">
        <ele>2052</ele>
        <time>2022-07-16T22:57:48Z</time>
      </trkpt>
      <trkpt lat="45.74643" lon="6.64044">
        <ele>2052</ele>
        <time>2022-07-16T22:57:50Z</time>
      </trkpt>
      <trkpt lat="45.74641" lon="6.64042">
        <ele>2052</ele>
        <time>2022-07-16T22:57:52Z</time>
      </trkpt>
      <trkpt lat="45.74639" lon="6.6404">
        <ele>2052</ele>
        <time>2022-07-16T22:57:54Z</time>
      </trkpt>
      <trkpt lat="45.74637" lon="6.64038">
        <ele>2052</ele>
        <time>2022-07-16T22:57:56Z</time>
      </trkpt>
      <trkpt lat="45.74634" lon="6.64038">
        <ele>2052</ele>
        <time>2022-07-16T22:57:58Z</time>
      </trkpt>
      <trkpt lat="45.74632" lon="6.64037">
        <ele>2052</ele>
        <time>2022-07-16T22:58:00Z</time>
      </trkpt>
      <trkpt lat="45.74629" lon="6.64037">
        <ele>2053</ele>
        <time>2022-07-16T22:58:02Z</time>
      </trkpt>
      <trkpt lat="45.74627" lon="6.64036">
        <ele>2053</ele>
        <time>2022-07-16T22:58:05Z</time>
      </trkpt>
      <trkpt lat="45.74625" lon="6.64037">
        <ele>2053</ele>
        <time>2022-07-16T22:58:07Z</time>
      </trkpt>
      <trkpt lat="45.74623" lon="6.64038">
        <ele>2053</ele>
        <time>2022-07-16T22:58:09Z</time>
      </trkpt>
      <trkpt lat="45.74621" lon="6.64039">
        <ele>2054</ele>
        <time>2022-07-16T22:58:11Z</time>
      </trkpt>
      <trkpt lat="45.74619" lon="6.64041">
        <ele>2054</ele>
        <time>2022-07-16T22:58:14Z</time>
      </trkpt>
      <trkpt lat="45.74617" lon="6.64042">
        <ele>2055</ele>
        <time>2022-07-16T22:58:17Z</time>
      </trkpt>
      <trkpt lat="45.74615" lon="6.64044">
        <ele>2055</ele>
        <time>2022-07-16T22:58:19Z</time>
      </trkpt>
      <trkpt lat="45.74614" lon="6.64046">
        <ele>2055</ele>
        <time>2022-07-16T22:58:21Z</time>
      </trkpt>
      <trkpt lat="45.74612" lon="6.64048">
        <ele>2055</ele>
        <time>2022-07-16T22:58:23Z</time>
      </trkpt>
      <trkpt lat="45.7461" lon="6.6405">
        <ele>2056</ele>
        <time>2022-07-16T22:58:26Z</time>
      </trkpt>
      <trkpt lat="45.74609" lon="6.64053">
        <ele>2057</ele>
        <time>2022-07-16T22:58:29Z</time>
      </trkpt>
      <trkpt lat="45.74609" lon="6.64056">
        <ele>2057</ele>
        <time>2022-07-16T22:58:31Z</time>
      </trkpt>
      <trkpt lat="45.74608" lon="6.64059">
        <ele>2058</ele>
        <time>2022-07-16T22:58:33Z</time>
      </trkpt>
      <trkpt lat="45.74607" lon="6.64062">
        <ele>2058</ele>
        <time>2022-07-16T22:58:35Z</time>
      </trkpt>
      <trkpt lat="45.74605" lon="6.64063">
        <ele>2058</ele>
        <time>2022-07-16T22:58:39Z</time>
      </trkpt>
      <trkpt lat="45.74603" lon="6.64063">
        <ele>2058</ele>
        <time>2022-07-16T22:58:41Z</time>
      </trkpt>
      <trkpt lat="45.746" lon="6.64063">
        <ele>2058</ele>
        <time>2022-07-16T22:58:44Z</time>
      </trkpt>
      <trkpt lat="45.74598" lon="6.64062">
        <ele>2060</ele>
        <time>2022-07-16T22:58:47Z</time>
      </trkpt>
      <trkpt lat="45.74596" lon="6.64061">
        <ele>2061</ele>
        <time>2022-07-16T22:58:50Z</time>
      </trkpt>
      <trkpt lat="45.74594" lon="6.64061">
        <ele>2061</ele>
        <time>2022-07-16T22:58:55Z</time>
      </trkpt>
      <trkpt lat="45.74592" lon="6.6406">
        <ele>2062</ele>
        <time>2022-07-16T22:58:58Z</time>
      </trkpt>
      <trkpt lat="45.7459" lon="6.64059">
        <ele>2063</ele>
        <time>2022-07-16T22:59:01Z</time>
      </trkpt>
      <trkpt lat="45.74588" lon="6.64057">
        <ele>2063</ele>
        <time>2022-07-16T22:59:04Z</time>
      </trkpt>
      <trkpt lat="45.74587" lon="6.64054">
        <ele>2063</ele>
        <time>2022-07-16T22:59:07Z</time>
      </trkpt>
      <trkpt lat="45.74585" lon="6.64053">
        <ele>2066</ele>
        <time>2022-07-16T22:59:11Z</time>
      </trkpt>
      <trkpt lat="45.74583" lon="6.64054">
        <ele>2067</ele>
        <time>2022-07-16T22:59:15Z</time>
      </trkpt>
      <trkpt lat="45.74581" lon="6.64054">
        <ele>2067</ele>
        <time>2022-07-16T22:59:18Z</time>
      </trkpt>
      <trkpt lat="45.74578" lon="6.64053">
        <ele>2067</ele>
        <time>2022-07-16T22:59:21Z</time>
      </trkpt>
      <trkpt lat="45.74576" lon="6.64052">
        <ele>2067</ele>
        <time>2022-07-16T22:59:23Z</time>
      </trkpt>
      <trkpt lat="45.74573" lon="6.64052">
        <ele>2067</ele>
        <time>2022-07-16T22:59:25Z</time>
      </trkpt>
      <trkpt lat="45.7457" lon="6.64052">
        <ele>2066</ele>
        <time>2022-07-16T22:59:27Z</time>
      </trkpt>
      <trkpt lat="45.74567" lon="6.64052">
        <ele>2066</ele>
        <time>2022-07-16T22:59:29Z</time>
      </trkpt>
      <trkpt lat="45.74564" lon="6.64052">
        <ele>2064</ele>
        <time>2022-07-16T22:59:31Z</time>
      </trkpt>
      <trkpt lat="45.74562" lon="6.64052">
        <ele>2064</ele>
        <time>2022-07-16T22:59:33Z</time>
      </trkpt>
      <trkpt lat="45.74559" lon="6.64051">
        <ele>2064</ele>
        <time>2022-07-16T22:59:35Z</time>
      </trkpt>
      <trkpt lat="45.74556" lon="6.64052">
        <ele>2066</ele>
        <time>2022-07-16T22:59:37Z</time>
      </trkpt>
      <trkpt lat="45.74553" lon="6.64052">
        <ele>2066</ele>
        <time>2022-07-16T22:59:39Z</time>
      </trkpt>
      <trkpt lat="45.7455" lon="6.64052">
        <ele>2066</ele>
        <time>2022-07-16T22:59:40Z</time>
      </trkpt>
      <trkpt lat="45.74548" lon="6.64053">
        <ele>2063</ele>
        <time>2022-07-16T22:59:43Z</time>
      </trkpt>
      <trkpt lat="45.74545" lon="6.64054">
        <ele>2064</ele>
        <time>2022-07-16T22:59:45Z</time>
      </trkpt>
      <trkpt lat="45.74542" lon="6.64055">
        <ele>2064</ele>
        <time>2022-07-16T22:59:47Z</time>
      </trkpt>
      <trkpt lat="45.7454" lon="6.64056">
        <ele>2064</ele>
        <time>2022-07-16T22:59:49Z</time>
      </trkpt>
      <trkpt lat="45.74538" lon="6.64057">
        <ele>2064</ele>
        <time>2022-07-16T22:59:51Z</time>
      </trkpt>
      <trkpt lat="45.74535" lon="6.6406">
        <ele>2064</ele>
        <time>2022-07-16T22:59:53Z</time>
      </trkpt>
      <trkpt lat="45.74533" lon="6.64062">
        <ele>2064</ele>
        <time>2022-07-16T22:59:55Z</time>
      </trkpt>
      <trkpt lat="45.7453" lon="6.64063">
        <ele>2064</ele>
        <time>2022-07-16T22:59:57Z</time>
      </trkpt>
      <trkpt lat="45.74527" lon="6.64064">
        <ele>2064</ele>
        <time>2022-07-16T22:59:59Z</time>
      </trkpt>
      <trkpt lat="45.74524" lon="6.64065">
        <ele>2064</ele>
        <time>2022-07-16T23:00:01Z</time>
      </trkpt>
      <trkpt lat="45.74521" lon="6.64065">
        <ele>2063</ele>
        <time>2022-07-16T23:00:03Z</time>
      </trkpt>
      <trkpt lat="45.74517" lon="6.64064">
        <ele>2063</ele>
        <time>2022-07-16T23:00:05Z</time>
      </trkpt>
      <trkpt lat="45.74515" lon="6.64064">
        <ele>2063</ele>
        <time>2022-07-16T23:00:06Z</time>
      </trkpt>
      <trkpt lat="45.74513" lon="6.64064">
        <ele>2063</ele>
        <time>2022-07-16T23:00:07Z</time>
      </trkpt>
      <trkpt lat="45.74511" lon="6.64063">
        <ele>2063</ele>
        <time>2022-07-16T23:00:08Z</time>
      </trkpt>
      <trkpt lat="45.74509" lon="6.64063">
        <ele>2063</ele>
        <time>2022-07-16T23:00:09Z</time>
      </trkpt>
      <trkpt lat="45.74507" lon="6.64062">
        <ele>2063</ele>
        <time>2022-07-16T23:00:10Z</time>
      </trkpt>
      <trkpt lat="45.74503" lon="6.6406">
        <ele>2063</ele>
        <time>2022-07-16T23:00:12Z</time>
      </trkpt>
      <trkpt lat="45.74501" lon="6.64059">
        <ele>2063</ele>
        <time>2022-07-16T23:00:13Z</time>
      </trkpt>
      <trkpt lat="45.74499" lon="6.64058">
        <ele>2063</ele>
        <time>2022-07-16T23:00:14Z</time>
      </trkpt>
      <trkpt lat="45.74497" lon="6.64058">
        <ele>2063</ele>
        <time>2022-07-16T23:00:15Z</time>
      </trkpt>
      <trkpt lat="45.74495" lon="6.64057">
        <ele>2063</ele>
        <time>2022-07-16T23:00:16Z</time>
      </trkpt>
      <trkpt lat="45.74494" lon="6.64056">
        <ele>2063</ele>
        <time>2022-07-16T23:00:17Z</time>
      </trkpt>
      <trkpt lat="45.74491" lon="6.64055">
        <ele>2063</ele>
        <time>2022-07-16T23:00:18Z</time>
      </trkpt>
      <trkpt lat="45.7449" lon="6.64055">
        <ele>2063</ele>
        <time>2022-07-16T23:00:19Z</time>
      </trkpt>
      <trkpt lat="45.74488" lon="6.64054">
        <ele>2063</ele>
        <time>2022-07-16T23:00:20Z</time>
      </trkpt>
      <trkpt lat="45.74486" lon="6.64053">
        <ele>2062</ele>
        <time>2022-07-16T23:00:21Z</time>
      </trkpt>
      <trkpt lat="45.74484" lon="6.64052">
        <ele>2062</ele>
        <time>2022-07-16T23:00:22Z</time>
      </trkpt>
      <trkpt lat="45.74482" lon="6.6405">
        <ele>2063</ele>
        <time>2022-07-16T23:00:24Z</time>
      </trkpt>
      <trkpt lat="45.74479" lon="6.64047">
        <ele>2063</ele>
        <time>2022-07-16T23:00:26Z</time>
      </trkpt>
      <trkpt lat="45.74476" lon="6.64044">
        <ele>2063</ele>
        <time>2022-07-16T23:00:28Z</time>
      </trkpt>
      <trkpt lat="45.74474" lon="6.64042">
        <ele>2063</ele>
        <time>2022-07-16T23:00:30Z</time>
      </trkpt>
      <trkpt lat="45.74472" lon="6.64039">
        <ele>2063</ele>
        <time>2022-07-16T23:00:32Z</time>
      </trkpt>
      <trkpt lat="45.74469" lon="6.64036">
        <ele>2063</ele>
        <time>2022-07-16T23:00:34Z</time>
      </trkpt>
      <trkpt lat="45.74467" lon="6.64034">
        <ele>2063</ele>
        <time>2022-07-16T23:00:36Z</time>
      </trkpt>
      <trkpt lat="45.74464" lon="6.64031">
        <ele>2063</ele>
        <time>2022-07-16T23:00:37Z</time>
      </trkpt>
      <trkpt lat="45.74462" lon="6.64029">
        <ele>2062</ele>
        <time>2022-07-16T23:00:40Z</time>
      </trkpt>
      <trkpt lat="45.74461" lon="6.64028">
        <ele>2062</ele>
        <time>2022-07-16T23:00:41Z</time>
      </trkpt>
      <trkpt lat="45.7446" lon="6.64027">
        <ele>2063</ele>
        <time>2022-07-16T23:00:42Z</time>
      </trkpt>
      <trkpt lat="45.74459" lon="6.64026">
        <ele>2063</ele>
        <time>2022-07-16T23:00:43Z</time>
      </trkpt>
      <trkpt lat="45.74458" lon="6.64025">
        <ele>2063</ele>
        <time>2022-07-16T23:00:44Z</time>
      </trkpt>
      <trkpt lat="45.74457" lon="6.64024">
        <ele>2063</ele>
        <time>2022-07-16T23:00:45Z</time>
      </trkpt>
      <trkpt lat="45.74455" lon="6.64021">
        <ele>2063</ele>
        <time>2022-07-16T23:00:46Z</time>
      </trkpt>
      <trkpt lat="45.74454" lon="6.64018">
        <ele>2063</ele>
        <time>2022-07-16T23:00:48Z</time>
      </trkpt>
      <trkpt lat="45.74452" lon="6.64015">
        <ele>2063</ele>
        <time>2022-07-16T23:00:50Z</time>
      </trkpt>
      <trkpt lat="45.7445" lon="6.64012">
        <ele>2062</ele>
        <time>2022-07-16T23:00:52Z</time>
      </trkpt>
      <trkpt lat="45.74448" lon="6.64009">
        <ele>2062</ele>
        <time>2022-07-16T23:00:54Z</time>
      </trkpt>
      <trkpt lat="45.74446" lon="6.64007">
        <ele>2062</ele>
        <time>2022-07-16T23:00:56Z</time>
      </trkpt>
      <trkpt lat="45.74444" lon="6.64004">
        <ele>2062</ele>
        <time>2022-07-16T23:00:58Z</time>
      </trkpt>
      <trkpt lat="45.74443" lon="6.64003">
        <ele>2062</ele>
        <time>2022-07-16T23:01:00Z</time>
      </trkpt>
      <trkpt lat="45.74441" lon="6.64002">
        <ele>2062</ele>
        <time>2022-07-16T23:01:02Z</time>
      </trkpt>
      <trkpt lat="45.74438" lon="6.64">
        <ele>2062</ele>
        <time>2022-07-16T23:01:04Z</time>
      </trkpt>
      <trkpt lat="45.74437" lon="6.63999">
        <ele>2062</ele>
        <time>2022-07-16T23:01:05Z</time>
      </trkpt>
      <trkpt lat="45.74436" lon="6.63998">
        <ele>2062</ele>
        <time>2022-07-16T23:01:06Z</time>
      </trkpt>
      <trkpt lat="45.74435" lon="6.63997">
        <ele>2062</ele>
        <time>2022-07-16T23:01:07Z</time>
      </trkpt>
      <trkpt lat="45.74434" lon="6.63996">
        <ele>2062</ele>
        <time>2022-07-16T23:01:08Z</time>
      </trkpt>
      <trkpt lat="45.74433" lon="6.63995">
        <ele>2062</ele>
        <time>2022-07-16T23:01:09Z</time>
      </trkpt>
      <trkpt lat="45.74432" lon="6.63994">
        <ele>2062</ele>
        <time>2022-07-16T23:01:10Z</time>
      </trkpt>
      <trkpt lat="45.74431" lon="6.63993">
        <ele>2062</ele>
        <time>2022-07-16T23:01:11Z</time>
      </trkpt>
      <trkpt lat="45.7443" lon="6.63992">
        <ele>2062</ele>
        <time>2022-07-16T23:01:12Z</time>
      </trkpt>
      <trkpt lat="45.74427" lon="6.63991">
        <ele>2062</ele>
        <time>2022-07-16T23:01:14Z</time>
      </trkpt>
      <trkpt lat="45.74425" lon="6.63989">
        <ele>2063</ele>
        <time>2022-07-16T23:01:16Z</time>
      </trkpt>
      <trkpt lat="45.74422" lon="6.63987">
        <ele>2062</ele>
        <time>2022-07-16T23:01:18Z</time>
      </trkpt>
      <trkpt lat="45.7442" lon="6.63986">
        <ele>2062</ele>
        <time>2022-07-16T23:01:20Z</time>
      </trkpt>
      <trkpt lat="45.74418" lon="6.63983">
        <ele>2062</ele>
        <time>2022-07-16T23:01:22Z</time>
      </trkpt>
      <trkpt lat="45.74416" lon="6.6398">
        <ele>2062</ele>
        <time>2022-07-16T23:01:24Z</time>
      </trkpt>
      <trkpt lat="45.74415" lon="6.63977">
        <ele>2061</ele>
        <time>2022-07-16T23:01:26Z</time>
      </trkpt>
      <trkpt lat="45.74413" lon="6.63974">
        <ele>2061</ele>
        <time>2022-07-16T23:01:28Z</time>
      </trkpt>
      <trkpt lat="45.74411" lon="6.63971">
        <ele>2061</ele>
        <time>2022-07-16T23:01:30Z</time>
      </trkpt>
      <trkpt lat="45.7441" lon="6.63969">
        <ele>2061</ele>
        <time>2022-07-16T23:01:31Z</time>
      </trkpt>
      <trkpt lat="45.74409" lon="6.63968">
        <ele>2060</ele>
        <time>2022-07-16T23:01:32Z</time>
      </trkpt>
      <trkpt lat="45.74408" lon="6.63967">
        <ele>2060</ele>
        <time>2022-07-16T23:01:33Z</time>
      </trkpt>
      <trkpt lat="45.74408" lon="6.63965">
        <ele>2060</ele>
        <time>2022-07-16T23:01:34Z</time>
      </trkpt>
      <trkpt lat="45.74407" lon="6.63964">
        <ele>2060</ele>
        <time>2022-07-16T23:01:35Z</time>
      </trkpt>
      <trkpt lat="45.74406" lon="6.63963">
        <ele>2060</ele>
        <time>2022-07-16T23:01:36Z</time>
      </trkpt>
      <trkpt lat="45.74405" lon="6.63961">
        <ele>2060</ele>
        <time>2022-07-16T23:01:37Z</time>
      </trkpt>
      <trkpt lat="45.74404" lon="6.6396">
        <ele>2060</ele>
        <time>2022-07-16T23:01:38Z</time>
      </trkpt>
      <trkpt lat="45.74403" lon="6.63959">
        <ele>2060</ele>
        <time>2022-07-16T23:01:39Z</time>
      </trkpt>
      <trkpt lat="45.74402" lon="6.63958">
        <ele>2060</ele>
        <time>2022-07-16T23:01:40Z</time>
      </trkpt>
      <trkpt lat="45.74401" lon="6.63956">
        <ele>2060</ele>
        <time>2022-07-16T23:01:41Z</time>
      </trkpt>
      <trkpt lat="45.744" lon="6.63955">
        <ele>2060</ele>
        <time>2022-07-16T23:01:42Z</time>
      </trkpt>
      <trkpt lat="45.74399" lon="6.63954">
        <ele>2060</ele>
        <time>2022-07-16T23:01:43Z</time>
      </trkpt>
      <trkpt lat="45.74398" lon="6.63952">
        <ele>2060</ele>
        <time>2022-07-16T23:01:44Z</time>
      </trkpt>
      <trkpt lat="45.74397" lon="6.63951">
        <ele>2060</ele>
        <time>2022-07-16T23:01:45Z</time>
      </trkpt>
      <trkpt lat="45.74395" lon="6.63949">
        <ele>2060</ele>
        <time>2022-07-16T23:01:46Z</time>
      </trkpt>
      <trkpt lat="45.74394" lon="6.63948">
        <ele>2060</ele>
        <time>2022-07-16T23:01:47Z</time>
      </trkpt>
      <trkpt lat="45.74391" lon="6.63945">
        <ele>2060</ele>
        <time>2022-07-16T23:01:49Z</time>
      </trkpt>
      <trkpt lat="45.74389" lon="6.63942">
        <ele>2060</ele>
        <time>2022-07-16T23:01:51Z</time>
      </trkpt>
      <trkpt lat="45.74387" lon="6.63941">
        <ele>2060</ele>
        <time>2022-07-16T23:01:53Z</time>
      </trkpt>
      <trkpt lat="45.74384" lon="6.63939">
        <ele>2059</ele>
        <time>2022-07-16T23:01:55Z</time>
      </trkpt>
      <trkpt lat="45.74383" lon="6.63936">
        <ele>2058</ele>
        <time>2022-07-16T23:01:57Z</time>
      </trkpt>
      <trkpt lat="45.74381" lon="6.63933">
        <ele>2058</ele>
        <time>2022-07-16T23:01:59Z</time>
      </trkpt>
      <trkpt lat="45.74379" lon="6.6393">
        <ele>2058</ele>
        <time>2022-07-16T23:02:01Z</time>
      </trkpt>
      <trkpt lat="45.74377" lon="6.63927">
        <ele>2058</ele>
        <time>2022-07-16T23:02:03Z</time>
      </trkpt>
      <trkpt lat="45.74376" lon="6.63925">
        <ele>2058</ele>
        <time>2022-07-16T23:02:05Z</time>
      </trkpt>
      <trkpt lat="45.74374" lon="6.63922">
        <ele>2058</ele>
        <time>2022-07-16T23:02:07Z</time>
      </trkpt>
      <trkpt lat="45.74373" lon="6.63919">
        <ele>2058</ele>
        <time>2022-07-16T23:02:09Z</time>
      </trkpt>
      <trkpt lat="45.74372" lon="6.63916">
        <ele>2057</ele>
        <time>2022-07-16T23:02:11Z</time>
      </trkpt>
      <trkpt lat="45.74371" lon="6.63913">
        <ele>2056</ele>
        <time>2022-07-16T23:02:12Z</time>
      </trkpt>
      <trkpt lat="45.74371" lon="6.6391">
        <ele>2055</ele>
        <time>2022-07-16T23:02:15Z</time>
      </trkpt>
      <trkpt lat="45.7437" lon="6.63908">
        <ele>2055</ele>
        <time>2022-07-16T23:02:17Z</time>
      </trkpt>
      <trkpt lat="45.74368" lon="6.63906">
        <ele>2055</ele>
        <time>2022-07-16T23:02:19Z</time>
      </trkpt>
      <trkpt lat="45.74366" lon="6.63906">
        <ele>2055</ele>
        <time>2022-07-16T23:02:21Z</time>
      </trkpt>
      <trkpt lat="45.74363" lon="6.63906">
        <ele>2055</ele>
        <time>2022-07-16T23:02:23Z</time>
      </trkpt>
      <trkpt lat="45.7436" lon="6.63906">
        <ele>2055</ele>
        <time>2022-07-16T23:02:25Z</time>
      </trkpt>
      <trkpt lat="45.74358" lon="6.63905">
        <ele>2055</ele>
        <time>2022-07-16T23:02:27Z</time>
      </trkpt>
      <trkpt lat="45.74356" lon="6.63904">
        <ele>2055</ele>
        <time>2022-07-16T23:02:29Z</time>
      </trkpt>
      <trkpt lat="45.74354" lon="6.63902">
        <ele>2055</ele>
        <time>2022-07-16T23:02:31Z</time>
      </trkpt>
      <trkpt lat="45.74353" lon="6.63899">
        <ele>2056</ele>
        <time>2022-07-16T23:02:33Z</time>
      </trkpt>
      <trkpt lat="45.74351" lon="6.63894">
        <ele>2058</ele>
        <time>2022-07-16T23:02:38Z</time>
      </trkpt>
      <trkpt lat="45.74349" lon="6.63894">
        <ele>2058</ele>
        <time>2022-07-16T23:02:41Z</time>
      </trkpt>
      <trkpt lat="45.74347" lon="6.63891">
        <ele>2058</ele>
        <time>2022-07-16T23:02:44Z</time>
      </trkpt>
      <trkpt lat="45.74346" lon="6.63889">
        <ele>2058</ele>
        <time>2022-07-16T23:02:46Z</time>
      </trkpt>
      <trkpt lat="45.74344" lon="6.63887">
        <ele>2059</ele>
        <time>2022-07-16T23:02:48Z</time>
      </trkpt>
      <trkpt lat="45.74342" lon="6.63885">
        <ele>2059</ele>
        <time>2022-07-16T23:02:50Z</time>
      </trkpt>
      <trkpt lat="45.7434" lon="6.63884">
        <ele>2059</ele>
        <time>2022-07-16T23:02:52Z</time>
      </trkpt>
      <trkpt lat="45.74339" lon="6.63883">
        <ele>2059</ele>
        <time>2022-07-16T23:02:54Z</time>
      </trkpt>
      <trkpt lat="45.74336" lon="6.63881">
        <ele>2059</ele>
        <time>2022-07-16T23:02:56Z</time>
      </trkpt>
      <trkpt lat="45.74335" lon="6.6388">
        <ele>2060</ele>
        <time>2022-07-16T23:02:58Z</time>
      </trkpt>
      <trkpt lat="45.74333" lon="6.63878">
        <ele>2060</ele>
        <time>2022-07-16T23:03:00Z</time>
      </trkpt>
      <trkpt lat="45.74331" lon="6.63877">
        <ele>2061</ele>
        <time>2022-07-16T23:03:02Z</time>
      </trkpt>
      <trkpt lat="45.74329" lon="6.63876">
        <ele>2061</ele>
        <time>2022-07-16T23:03:04Z</time>
      </trkpt>
      <trkpt lat="45.74326" lon="6.63876">
        <ele>2061</ele>
        <time>2022-07-16T23:03:06Z</time>
      </trkpt>
      <trkpt lat="45.74324" lon="6.63874">
        <ele>2061</ele>
        <time>2022-07-16T23:03:08Z</time>
      </trkpt>
      <trkpt lat="45.74322" lon="6.63873">
        <ele>2062</ele>
        <time>2022-07-16T23:03:09Z</time>
      </trkpt>
      <trkpt lat="45.7432" lon="6.63873">
        <ele>2061</ele>
        <time>2022-07-16T23:03:12Z</time>
      </trkpt>
      <trkpt lat="45.74318" lon="6.63871">
        <ele>2062</ele>
        <time>2022-07-16T23:03:14Z</time>
      </trkpt>
      <trkpt lat="45.74316" lon="6.6387">
        <ele>2062</ele>
        <time>2022-07-16T23:03:16Z</time>
      </trkpt>
      <trkpt lat="45.74313" lon="6.6387">
        <ele>2062</ele>
        <time>2022-07-16T23:03:18Z</time>
      </trkpt>
      <trkpt lat="45.7431" lon="6.63869">
        <ele>2062</ele>
        <time>2022-07-16T23:03:20Z</time>
      </trkpt>
      <trkpt lat="45.74308" lon="6.63868">
        <ele>2062</ele>
        <time>2022-07-16T23:03:22Z</time>
      </trkpt>
      <trkpt lat="45.74306" lon="6.63866">
        <ele>2062</ele>
        <time>2022-07-16T23:03:24Z</time>
      </trkpt>
      <trkpt lat="45.74304" lon="6.63864">
        <ele>2062</ele>
        <time>2022-07-16T23:03:26Z</time>
      </trkpt>
      <trkpt lat="45.74303" lon="6.63861">
        <ele>2062</ele>
        <time>2022-07-16T23:03:28Z</time>
      </trkpt>
      <trkpt lat="45.74301" lon="6.63858">
        <ele>2062</ele>
        <time>2022-07-16T23:03:30Z</time>
      </trkpt>
      <trkpt lat="45.74301" lon="6.63856">
        <ele>2063</ele>
        <time>2022-07-16T23:03:32Z</time>
      </trkpt>
      <trkpt lat="45.74299" lon="6.63853">
        <ele>2063</ele>
        <time>2022-07-16T23:03:34Z</time>
      </trkpt>
      <trkpt lat="45.74299" lon="6.63851">
        <ele>2063</ele>
        <time>2022-07-16T23:03:35Z</time>
      </trkpt>
      <trkpt lat="45.74298" lon="6.6385">
        <ele>2063</ele>
        <time>2022-07-16T23:03:36Z</time>
      </trkpt>
      <trkpt lat="45.74297" lon="6.63848">
        <ele>2063</ele>
        <time>2022-07-16T23:03:37Z</time>
      </trkpt>
      <trkpt lat="45.74297" lon="6.63846">
        <ele>2063</ele>
        <time>2022-07-16T23:03:38Z</time>
      </trkpt>
      <trkpt lat="45.74296" lon="6.63845">
        <ele>2063</ele>
        <time>2022-07-16T23:03:39Z</time>
      </trkpt>
      <trkpt lat="45.74295" lon="6.63843">
        <ele>2063</ele>
        <time>2022-07-16T23:03:40Z</time>
      </trkpt>
      <trkpt lat="45.74295" lon="6.63841">
        <ele>2063</ele>
        <time>2022-07-16T23:03:41Z</time>
      </trkpt>
      <trkpt lat="45.74294" lon="6.63838">
        <ele>2064</ele>
        <time>2022-07-16T23:03:43Z</time>
      </trkpt>
      <trkpt lat="45.74293" lon="6.63834">
        <ele>2064</ele>
        <time>2022-07-16T23:03:45Z</time>
      </trkpt>
      <trkpt lat="45.74292" lon="6.63832">
        <ele>2064</ele>
        <time>2022-07-16T23:03:47Z</time>
      </trkpt>
      <trkpt lat="45.7429" lon="6.6383">
        <ele>2064</ele>
        <time>2022-07-16T23:03:49Z</time>
      </trkpt>
      <trkpt lat="45.74289" lon="6.63827">
        <ele>2064</ele>
        <time>2022-07-16T23:03:51Z</time>
      </trkpt>
      <trkpt lat="45.74287" lon="6.63825">
        <ele>2066</ele>
        <time>2022-07-16T23:03:53Z</time>
      </trkpt>
      <trkpt lat="45.74284" lon="6.63823">
        <ele>2067</ele>
        <time>2022-07-16T23:03:55Z</time>
      </trkpt>
      <trkpt lat="45.74282" lon="6.63822">
        <ele>2067</ele>
        <time>2022-07-16T23:03:57Z</time>
      </trkpt>
      <trkpt lat="45.7428" lon="6.6382">
        <ele>2067</ele>
        <time>2022-07-16T23:03:59Z</time>
      </trkpt>
      <trkpt lat="45.74279" lon="6.63818">
        <ele>2067</ele>
        <time>2022-07-16T23:04:01Z</time>
      </trkpt>
      <trkpt lat="45.74278" lon="6.63815">
        <ele>2068</ele>
        <time>2022-07-16T23:04:03Z</time>
      </trkpt>
      <trkpt lat="45.74277" lon="6.63813">
        <ele>2068</ele>
        <time>2022-07-16T23:04:05Z</time>
      </trkpt>
      <trkpt lat="45.74275" lon="6.63811">
        <ele>2068</ele>
        <time>2022-07-16T23:04:07Z</time>
      </trkpt>
      <trkpt lat="45.74273" lon="6.63809">
        <ele>2068</ele>
        <time>2022-07-16T23:04:10Z</time>
      </trkpt>
      <trkpt lat="45.74271" lon="6.63808">
        <ele>2068</ele>
        <time>2022-07-16T23:04:12Z</time>
      </trkpt>
      <trkpt lat="45.7427" lon="6.63806">
        <ele>2068</ele>
        <time>2022-07-16T23:04:14Z</time>
      </trkpt>
      <trkpt lat="45.74268" lon="6.63803">
        <ele>2069</ele>
        <time>2022-07-16T23:04:17Z</time>
      </trkpt>
      <trkpt lat="45.74266" lon="6.63802">
        <ele>2069</ele>
        <time>2022-07-16T23:04:19Z</time>
      </trkpt>
      <trkpt lat="45.74264" lon="6.638">
        <ele>2069</ele>
        <time>2022-07-16T23:04:21Z</time>
      </trkpt>
      <trkpt lat="45.74263" lon="6.63798">
        <ele>2069</ele>
        <time>2022-07-16T23:04:23Z</time>
      </trkpt>
      <trkpt lat="45.74261" lon="6.63795">
        <ele>2069</ele>
        <time>2022-07-16T23:04:25Z</time>
      </trkpt>
      <trkpt lat="45.7426" lon="6.63793">
        <ele>2069</ele>
        <time>2022-07-16T23:04:27Z</time>
      </trkpt>
      <trkpt lat="45.74258" lon="6.63792">
        <ele>2069</ele>
        <time>2022-07-16T23:04:29Z</time>
      </trkpt>
      <trkpt lat="45.74256" lon="6.63789">
        <ele>2069</ele>
        <time>2022-07-16T23:04:32Z</time>
      </trkpt>
      <trkpt lat="45.74254" lon="6.63787">
        <ele>2070</ele>
        <time>2022-07-16T23:04:34Z</time>
      </trkpt>
      <trkpt lat="45.74252" lon="6.63785">
        <ele>2070</ele>
        <time>2022-07-16T23:04:37Z</time>
      </trkpt>
      <trkpt lat="45.74251" lon="6.63783">
        <ele>2070</ele>
        <time>2022-07-16T23:04:39Z</time>
      </trkpt>
      <trkpt lat="45.7425" lon="6.63781">
        <ele>2071</ele>
        <time>2022-07-16T23:04:41Z</time>
      </trkpt>
      <trkpt lat="45.74248" lon="6.63779">
        <ele>2071</ele>
        <time>2022-07-16T23:04:44Z</time>
      </trkpt>
      <trkpt lat="45.74247" lon="6.63777">
        <ele>2072</ele>
        <time>2022-07-16T23:04:47Z</time>
      </trkpt>
      <trkpt lat="45.74245" lon="6.63775">
        <ele>2072</ele>
        <time>2022-07-16T23:04:50Z</time>
      </trkpt>
      <trkpt lat="45.74243" lon="6.63773">
        <ele>2072</ele>
        <time>2022-07-16T23:04:53Z</time>
      </trkpt>
      <trkpt lat="45.74241" lon="6.63772">
        <ele>2073</ele>
        <time>2022-07-16T23:04:55Z</time>
      </trkpt>
      <trkpt lat="45.74239" lon="6.6377">
        <ele>2073</ele>
        <time>2022-07-16T23:04:57Z</time>
      </trkpt>
      <trkpt lat="45.74237" lon="6.63769">
        <ele>2073</ele>
        <time>2022-07-16T23:04:59Z</time>
      </trkpt>
      <trkpt lat="45.74235" lon="6.63769">
        <ele>2073</ele>
        <time>2022-07-16T23:05:01Z</time>
      </trkpt>
      <trkpt lat="45.74234" lon="6.63766">
        <ele>2073</ele>
        <time>2022-07-16T23:05:03Z</time>
      </trkpt>
      <trkpt lat="45.74233" lon="6.63763">
        <ele>2073</ele>
        <time>2022-07-16T23:05:05Z</time>
      </trkpt>
      <trkpt lat="45.74231" lon="6.63762">
        <ele>2073</ele>
        <time>2022-07-16T23:05:07Z</time>
      </trkpt>
      <trkpt lat="45.74229" lon="6.6376">
        <ele>2073</ele>
        <time>2022-07-16T23:05:10Z</time>
      </trkpt>
      <trkpt lat="45.74228" lon="6.63758">
        <ele>2073</ele>
        <time>2022-07-16T23:05:13Z</time>
      </trkpt>
      <trkpt lat="45.74227" lon="6.63762">
        <ele>2073</ele>
        <time>2022-07-16T23:05:17Z</time>
      </trkpt>
      <trkpt lat="45.74225" lon="6.63765">
        <ele>2073</ele>
        <time>2022-07-16T23:05:19Z</time>
      </trkpt>
      <trkpt lat="45.74224" lon="6.63767">
        <ele>2072</ele>
        <time>2022-07-16T23:05:22Z</time>
      </trkpt>
      <trkpt lat="45.74222" lon="6.63769">
        <ele>2072</ele>
        <time>2022-07-16T23:05:24Z</time>
      </trkpt>
      <trkpt lat="45.74219" lon="6.63769">
        <ele>2073</ele>
        <time>2022-07-16T23:05:26Z</time>
      </trkpt>
      <trkpt lat="45.74217" lon="6.63768">
        <ele>2073</ele>
        <time>2022-07-16T23:05:28Z</time>
      </trkpt>
      <trkpt lat="45.74215" lon="6.63766">
        <ele>2073</ele>
        <time>2022-07-16T23:05:30Z</time>
      </trkpt>
      <trkpt lat="45.74214" lon="6.63763">
        <ele>2073</ele>
        <time>2022-07-16T23:05:32Z</time>
      </trkpt>
      <trkpt lat="45.74213" lon="6.63761">
        <ele>2073</ele>
        <time>2022-07-16T23:05:34Z</time>
      </trkpt>
      <trkpt lat="45.74211" lon="6.63757">
        <ele>2074</ele>
        <time>2022-07-16T23:05:37Z</time>
      </trkpt>
      <trkpt lat="45.74209" lon="6.63754">
        <ele>2075</ele>
        <time>2022-07-16T23:05:40Z</time>
      </trkpt>
      <trkpt lat="45.74208" lon="6.63753">
        <ele>2075</ele>
        <time>2022-07-16T23:05:42Z</time>
      </trkpt>
      <trkpt lat="45.74206" lon="6.63749">
        <ele>2075</ele>
        <time>2022-07-16T23:05:45Z</time>
      </trkpt>
      <trkpt lat="45.74205" lon="6.63746">
        <ele>2075</ele>
        <time>2022-07-16T23:05:47Z</time>
      </trkpt>
      <trkpt lat="45.74203" lon="6.63743">
        <ele>2075</ele>
        <time>2022-07-16T23:05:50Z</time>
      </trkpt>
      <trkpt lat="45.74202" lon="6.63741">
        <ele>2075</ele>
        <time>2022-07-16T23:05:52Z</time>
      </trkpt>
      <trkpt lat="45.74201" lon="6.63738">
        <ele>2075</ele>
        <time>2022-07-16T23:05:54Z</time>
      </trkpt>
      <trkpt lat="45.74199" lon="6.63735">
        <ele>2075</ele>
        <time>2022-07-16T23:05:57Z</time>
      </trkpt>
      <trkpt lat="45.74198" lon="6.63732">
        <ele>2075</ele>
        <time>2022-07-16T23:05:59Z</time>
      </trkpt>
      <trkpt lat="45.74197" lon="6.6373">
        <ele>2076</ele>
        <time>2022-07-16T23:06:01Z</time>
      </trkpt>
      <trkpt lat="45.74195" lon="6.63729">
        <ele>2076</ele>
        <time>2022-07-16T23:06:03Z</time>
      </trkpt>
      <trkpt lat="45.74194" lon="6.63727">
        <ele>2076</ele>
        <time>2022-07-16T23:06:05Z</time>
      </trkpt>
      <trkpt lat="45.74192" lon="6.63725">
        <ele>2076</ele>
        <time>2022-07-16T23:06:07Z</time>
      </trkpt>
      <trkpt lat="45.7419" lon="6.63724">
        <ele>2077</ele>
        <time>2022-07-16T23:06:10Z</time>
      </trkpt>
      <trkpt lat="45.74189" lon="6.63723">
        <ele>2078</ele>
        <time>2022-07-16T23:06:12Z</time>
      </trkpt>
      <trkpt lat="45.74187" lon="6.63721">
        <ele>2078</ele>
        <time>2022-07-16T23:06:14Z</time>
      </trkpt>
      <trkpt lat="45.74185" lon="6.63719">
        <ele>2078</ele>
        <time>2022-07-16T23:06:17Z</time>
      </trkpt>
      <trkpt lat="45.74183" lon="6.63718">
        <ele>2078</ele>
        <time>2022-07-16T23:06:19Z</time>
      </trkpt>
      <trkpt lat="45.74181" lon="6.63718">
        <ele>2078</ele>
        <time>2022-07-16T23:06:21Z</time>
      </trkpt>
      <trkpt lat="45.74179" lon="6.63716">
        <ele>2078</ele>
        <time>2022-07-16T23:06:23Z</time>
      </trkpt>
      <trkpt lat="45.74177" lon="6.63714">
        <ele>2078</ele>
        <time>2022-07-16T23:06:25Z</time>
      </trkpt>
      <trkpt lat="45.74176" lon="6.63713">
        <ele>2079</ele>
        <time>2022-07-16T23:06:27Z</time>
      </trkpt>
      <trkpt lat="45.74174" lon="6.63712">
        <ele>2079</ele>
        <time>2022-07-16T23:06:29Z</time>
      </trkpt>
      <trkpt lat="45.74172" lon="6.63711">
        <ele>2079</ele>
        <time>2022-07-16T23:06:31Z</time>
      </trkpt>
      <trkpt lat="45.7417" lon="6.63709">
        <ele>2079</ele>
        <time>2022-07-16T23:06:33Z</time>
      </trkpt>
      <trkpt lat="45.74169" lon="6.63708">
        <ele>2079</ele>
        <time>2022-07-16T23:06:35Z</time>
      </trkpt>
      <trkpt lat="45.74166" lon="6.63707">
        <ele>2079</ele>
        <time>2022-07-16T23:06:37Z</time>
      </trkpt>
      <trkpt lat="45.74165" lon="6.63705">
        <ele>2079</ele>
        <time>2022-07-16T23:06:39Z</time>
      </trkpt>
      <trkpt lat="45.74164" lon="6.63703">
        <ele>2079</ele>
        <time>2022-07-16T23:06:41Z</time>
      </trkpt>
      <trkpt lat="45.74162" lon="6.63701">
        <ele>2079</ele>
        <time>2022-07-16T23:06:43Z</time>
      </trkpt>
      <trkpt lat="45.74161" lon="6.63699">
        <ele>2080</ele>
        <time>2022-07-16T23:06:45Z</time>
      </trkpt>
      <trkpt lat="45.7416" lon="6.63697">
        <ele>2080</ele>
        <time>2022-07-16T23:06:47Z</time>
      </trkpt>
      <trkpt lat="45.74158" lon="6.63696">
        <ele>2080</ele>
        <time>2022-07-16T23:06:49Z</time>
      </trkpt>
      <trkpt lat="45.74156" lon="6.63695">
        <ele>2081</ele>
        <time>2022-07-16T23:06:51Z</time>
      </trkpt>
      <trkpt lat="45.74155" lon="6.63693">
        <ele>2081</ele>
        <time>2022-07-16T23:06:53Z</time>
      </trkpt>
      <trkpt lat="45.74153" lon="6.6369">
        <ele>2082</ele>
        <time>2022-07-16T23:06:56Z</time>
      </trkpt>
      <trkpt lat="45.74152" lon="6.63688">
        <ele>2083</ele>
        <time>2022-07-16T23:06:58Z</time>
      </trkpt>
      <trkpt lat="45.7415" lon="6.63686">
        <ele>2083</ele>
        <time>2022-07-16T23:07:01Z</time>
      </trkpt>
      <trkpt lat="45.74148" lon="6.63684">
        <ele>2083</ele>
        <time>2022-07-16T23:07:04Z</time>
      </trkpt>
      <trkpt lat="45.74147" lon="6.63682">
        <ele>2083</ele>
        <time>2022-07-16T23:07:06Z</time>
      </trkpt>
      <trkpt lat="45.74146" lon="6.6368">
        <ele>2084</ele>
        <time>2022-07-16T23:07:08Z</time>
      </trkpt>
      <trkpt lat="45.74144" lon="6.63678">
        <ele>2084</ele>
        <time>2022-07-16T23:07:11Z</time>
      </trkpt>
      <trkpt lat="45.74142" lon="6.63676">
        <ele>2085</ele>
        <time>2022-07-16T23:07:13Z</time>
      </trkpt>
      <trkpt lat="45.74141" lon="6.63673">
        <ele>2085</ele>
        <time>2022-07-16T23:07:16Z</time>
      </trkpt>
      <trkpt lat="45.74139" lon="6.6367">
        <ele>2085</ele>
        <time>2022-07-16T23:07:19Z</time>
      </trkpt>
      <trkpt lat="45.74138" lon="6.63668">
        <ele>2085</ele>
        <time>2022-07-16T23:07:21Z</time>
      </trkpt>
      <trkpt lat="45.74137" lon="6.63666">
        <ele>2086</ele>
        <time>2022-07-16T23:07:23Z</time>
      </trkpt>
      <trkpt lat="45.74135" lon="6.63663">
        <ele>2086</ele>
        <time>2022-07-16T23:07:26Z</time>
      </trkpt>
      <trkpt lat="45.74133" lon="6.6366">
        <ele>2086</ele>
        <time>2022-07-16T23:07:28Z</time>
      </trkpt>
      <trkpt lat="45.74132" lon="6.63657">
        <ele>2087</ele>
        <time>2022-07-16T23:07:31Z</time>
      </trkpt>
      <trkpt lat="45.74131" lon="6.63655">
        <ele>2087</ele>
        <time>2022-07-16T23:07:33Z</time>
      </trkpt>
      <trkpt lat="45.74131" lon="6.63652">
        <ele>2088</ele>
        <time>2022-07-16T23:07:35Z</time>
      </trkpt>
      <trkpt lat="45.7413" lon="6.6365">
        <ele>2088</ele>
        <time>2022-07-16T23:07:37Z</time>
      </trkpt>
      <trkpt lat="45.74128" lon="6.63649">
        <ele>2088</ele>
        <time>2022-07-16T23:07:39Z</time>
      </trkpt>
      <trkpt lat="45.74126" lon="6.63647">
        <ele>2089</ele>
        <time>2022-07-16T23:07:42Z</time>
      </trkpt>
      <trkpt lat="45.74123" lon="6.63646">
        <ele>2089</ele>
        <time>2022-07-16T23:07:46Z</time>
      </trkpt>
      <trkpt lat="45.74121" lon="6.63645">
        <ele>2089</ele>
        <time>2022-07-16T23:07:48Z</time>
      </trkpt>
      <trkpt lat="45.74119" lon="6.63645">
        <ele>2090</ele>
        <time>2022-07-16T23:07:50Z</time>
      </trkpt>
      <trkpt lat="45.74117" lon="6.63646">
        <ele>2090</ele>
        <time>2022-07-16T23:07:53Z</time>
      </trkpt>
      <trkpt lat="45.74115" lon="6.63646">
        <ele>2090</ele>
        <time>2022-07-16T23:07:55Z</time>
      </trkpt>
      <trkpt lat="45.74112" lon="6.63646">
        <ele>2092</ele>
        <time>2022-07-16T23:07:58Z</time>
      </trkpt>
      <trkpt lat="45.7411" lon="6.63647">
        <ele>2092</ele>
        <time>2022-07-16T23:08:00Z</time>
      </trkpt>
      <trkpt lat="45.74108" lon="6.63648">
        <ele>2092</ele>
        <time>2022-07-16T23:08:02Z</time>
      </trkpt>
      <trkpt lat="45.74106" lon="6.63648">
        <ele>2093</ele>
        <time>2022-07-16T23:08:05Z</time>
      </trkpt>
      <trkpt lat="45.74104" lon="6.63647">
        <ele>2093</ele>
        <time>2022-07-16T23:08:07Z</time>
      </trkpt>
      <trkpt lat="45.74102" lon="6.63645">
        <ele>2093</ele>
        <time>2022-07-16T23:08:10Z</time>
      </trkpt>
      <trkpt lat="45.74099" lon="6.63644">
        <ele>2093</ele>
        <time>2022-07-16T23:08:12Z</time>
      </trkpt>
      <trkpt lat="45.74097" lon="6.63643">
        <ele>2094</ele>
        <time>2022-07-16T23:08:15Z</time>
      </trkpt>
      <trkpt lat="45.74095" lon="6.63644">
        <ele>2095</ele>
        <time>2022-07-16T23:08:18Z</time>
      </trkpt>
      <trkpt lat="45.74092" lon="6.63644">
        <ele>2095</ele>
        <time>2022-07-16T23:08:21Z</time>
      </trkpt>
      <trkpt lat="45.7409" lon="6.63645">
        <ele>2095</ele>
        <time>2022-07-16T23:08:23Z</time>
      </trkpt>
      <trkpt lat="45.74089" lon="6.63645">
        <ele>2095</ele>
        <time>2022-07-16T23:08:25Z</time>
      </trkpt>
      <trkpt lat="45.74087" lon="6.63643">
        <ele>2095</ele>
        <time>2022-07-16T23:08:27Z</time>
      </trkpt>
      <trkpt lat="45.74087" lon="6.6364">
        <ele>2096</ele>
        <time>2022-07-16T23:08:29Z</time>
      </trkpt>
      <trkpt lat="45.74088" lon="6.63638">
        <ele>2096</ele>
        <time>2022-07-16T23:08:32Z</time>
      </trkpt>
      <trkpt lat="45.74088" lon="6.63634">
        <ele>2097</ele>
        <time>2022-07-16T23:08:35Z</time>
      </trkpt>
      <trkpt lat="45.74088" lon="6.63631">
        <ele>2097</ele>
        <time>2022-07-16T23:08:38Z</time>
      </trkpt>
      <trkpt lat="45.74085" lon="6.6363">
        <ele>2098</ele>
        <time>2022-07-16T23:08:47Z</time>
      </trkpt>
      <trkpt lat="45.74082" lon="6.63632">
        <ele>2099</ele>
        <time>2022-07-16T23:08:51Z</time>
      </trkpt>
      <trkpt lat="45.7408" lon="6.63632">
        <ele>2099</ele>
        <time>2022-07-16T23:08:54Z</time>
      </trkpt>
      <trkpt lat="45.74078" lon="6.6363">
        <ele>2100</ele>
        <time>2022-07-16T23:08:57Z</time>
      </trkpt>
      <trkpt lat="45.74078" lon="6.63627">
        <ele>2101</ele>
        <time>2022-07-16T23:08:59Z</time>
      </trkpt>
      <trkpt lat="45.74078" lon="6.63623">
        <ele>2101</ele>
        <time>2022-07-16T23:09:02Z</time>
      </trkpt>
      <trkpt lat="45.74077" lon="6.63621">
        <ele>2101</ele>
        <time>2022-07-16T23:09:05Z</time>
      </trkpt>
      <trkpt lat="45.74076" lon="6.63618">
        <ele>2102</ele>
        <time>2022-07-16T23:09:08Z</time>
      </trkpt>
      <trkpt lat="45.74074" lon="6.63617">
        <ele>2103</ele>
        <time>2022-07-16T23:09:11Z</time>
      </trkpt>
      <trkpt lat="45.74072" lon="6.63617">
        <ele>2104</ele>
        <time>2022-07-16T23:09:14Z</time>
      </trkpt>
      <trkpt lat="45.7407" lon="6.63619">
        <ele>2104</ele>
        <time>2022-07-16T23:09:17Z</time>
      </trkpt>
      <trkpt lat="45.74069" lon="6.63621">
        <ele>2105</ele>
        <time>2022-07-16T23:09:20Z</time>
      </trkpt>
      <trkpt lat="45.74069" lon="6.63625">
        <ele>2105</ele>
        <time>2022-07-16T23:09:23Z</time>
      </trkpt>
      <trkpt lat="45.74069" lon="6.63628">
        <ele>2105</ele>
        <time>2022-07-16T23:09:25Z</time>
      </trkpt>
      <trkpt lat="45.74068" lon="6.63631">
        <ele>2105</ele>
        <time>2022-07-16T23:09:27Z</time>
      </trkpt>
      <trkpt lat="45.74066" lon="6.63633">
        <ele>2105</ele>
        <time>2022-07-16T23:09:30Z</time>
      </trkpt>
      <trkpt lat="45.74064" lon="6.63635">
        <ele>2105</ele>
        <time>2022-07-16T23:09:33Z</time>
      </trkpt>
      <trkpt lat="45.74062" lon="6.63636">
        <ele>2106</ele>
        <time>2022-07-16T23:09:36Z</time>
      </trkpt>
      <trkpt lat="45.7406" lon="6.63637">
        <ele>2107</ele>
        <time>2022-07-16T23:09:39Z</time>
      </trkpt>
      <trkpt lat="45.74058" lon="6.63637">
        <ele>2107</ele>
        <time>2022-07-16T23:09:42Z</time>
      </trkpt>
      <trkpt lat="45.74056" lon="6.63638">
        <ele>2107</ele>
        <time>2022-07-16T23:09:44Z</time>
      </trkpt>
      <trkpt lat="45.74054" lon="6.63639">
        <ele>2108</ele>
        <time>2022-07-16T23:09:47Z</time>
      </trkpt>
      <trkpt lat="45.74052" lon="6.63639">
        <ele>2108</ele>
        <time>2022-07-16T23:09:50Z</time>
      </trkpt>
      <trkpt lat="45.7405" lon="6.63641">
        <ele>2110</ele>
        <time>2022-07-16T23:09:53Z</time>
      </trkpt>
      <trkpt lat="45.74048" lon="6.63642">
        <ele>2110</ele>
        <time>2022-07-16T23:09:56Z</time>
      </trkpt>
      <trkpt lat="45.74046" lon="6.63643">
        <ele>2111</ele>
        <time>2022-07-16T23:09:59Z</time>
      </trkpt>
      <trkpt lat="45.74044" lon="6.63643">
        <ele>2111</ele>
        <time>2022-07-16T23:10:02Z</time>
      </trkpt>
      <trkpt lat="45.74042" lon="6.63642">
        <ele>2112</ele>
        <time>2022-07-16T23:10:05Z</time>
      </trkpt>
      <trkpt lat="45.74042" lon="6.63639">
        <ele>2112</ele>
        <time>2022-07-16T23:10:08Z</time>
      </trkpt>
      <trkpt lat="45.74041" lon="6.63636">
        <ele>2113</ele>
        <time>2022-07-16T23:10:11Z</time>
      </trkpt>
      <trkpt lat="45.74042" lon="6.63633">
        <ele>2113</ele>
        <time>2022-07-16T23:10:14Z</time>
      </trkpt>
      <trkpt lat="45.74043" lon="6.6363">
        <ele>2114</ele>
        <time>2022-07-16T23:10:18Z</time>
      </trkpt>
      <trkpt lat="45.74041" lon="6.63631">
        <ele>2115</ele>
        <time>2022-07-16T23:10:26Z</time>
      </trkpt>
      <trkpt lat="45.74039" lon="6.63632">
        <ele>2115</ele>
        <time>2022-07-16T23:10:28Z</time>
      </trkpt>
      <trkpt lat="45.74037" lon="6.63633">
        <ele>2115</ele>
        <time>2022-07-16T23:10:30Z</time>
      </trkpt>
      <trkpt lat="45.74035" lon="6.63634">
        <ele>2118</ele>
        <time>2022-07-16T23:10:33Z</time>
      </trkpt>
      <trkpt lat="45.74033" lon="6.63634">
        <ele>2118</ele>
        <time>2022-07-16T23:10:36Z</time>
      </trkpt>
      <trkpt lat="45.74031" lon="6.63635">
        <ele>2119</ele>
        <time>2022-07-16T23:10:39Z</time>
      </trkpt>
      <trkpt lat="45.74029" lon="6.63637">
        <ele>2120</ele>
        <time>2022-07-16T23:10:42Z</time>
      </trkpt>
      <trkpt lat="45.74027" lon="6.63638">
        <ele>2120</ele>
        <time>2022-07-16T23:10:44Z</time>
      </trkpt>
      <trkpt lat="45.74025" lon="6.63639">
        <ele>2120</ele>
        <time>2022-07-16T23:10:47Z</time>
      </trkpt>
      <trkpt lat="45.74023" lon="6.6364">
        <ele>2121</ele>
        <time>2022-07-16T23:10:50Z</time>
      </trkpt>
      <trkpt lat="45.74021" lon="6.6364">
        <ele>2121</ele>
        <time>2022-07-16T23:10:53Z</time>
      </trkpt>
      <trkpt lat="45.7402" lon="6.63642">
        <ele>2121</ele>
        <time>2022-07-16T23:10:55Z</time>
      </trkpt>
      <trkpt lat="45.74018" lon="6.63643">
        <ele>2121</ele>
        <time>2022-07-16T23:10:57Z</time>
      </trkpt>
      <trkpt lat="45.74016" lon="6.63645">
        <ele>2122</ele>
        <time>2022-07-16T23:10:59Z</time>
      </trkpt>
      <trkpt lat="45.74014" lon="6.63645">
        <ele>2122</ele>
        <time>2022-07-16T23:11:02Z</time>
      </trkpt>
      <trkpt lat="45.74012" lon="6.63644">
        <ele>2123</ele>
        <time>2022-07-16T23:11:06Z</time>
      </trkpt>
      <trkpt lat="45.7401" lon="6.63642">
        <ele>2124</ele>
        <time>2022-07-16T23:11:10Z</time>
      </trkpt>
      <trkpt lat="45.74009" lon="6.63639">
        <ele>2125</ele>
        <time>2022-07-16T23:11:13Z</time>
      </trkpt>
      <trkpt lat="45.74009" lon="6.63636">
        <ele>2125</ele>
        <time>2022-07-16T23:11:16Z</time>
      </trkpt>
      <trkpt lat="45.74009" lon="6.63633">
        <ele>2126</ele>
        <time>2022-07-16T23:11:19Z</time>
      </trkpt>
      <trkpt lat="45.74009" lon="6.6363">
        <ele>2126</ele>
        <time>2022-07-16T23:11:21Z</time>
      </trkpt>
      <trkpt lat="45.7401" lon="6.63627">
        <ele>2126</ele>
        <time>2022-07-16T23:11:24Z</time>
      </trkpt>
      <trkpt lat="45.74012" lon="6.63625">
        <ele>2126</ele>
        <time>2022-07-16T23:11:26Z</time>
      </trkpt>
      <trkpt lat="45.74014" lon="6.63623">
        <ele>2127</ele>
        <time>2022-07-16T23:11:28Z</time>
      </trkpt>
      <trkpt lat="45.74015" lon="6.63621">
        <ele>2127</ele>
        <time>2022-07-16T23:11:32Z</time>
      </trkpt>
      <trkpt lat="45.74016" lon="6.63618">
        <ele>2128</ele>
        <time>2022-07-16T23:11:36Z</time>
      </trkpt>
      <trkpt lat="45.74017" lon="6.63615">
        <ele>2129</ele>
        <time>2022-07-16T23:11:39Z</time>
      </trkpt>
      <trkpt lat="45.74018" lon="6.63615">
        <ele>2129</ele>
        <time>2022-07-16T23:11:40Z</time>
      </trkpt>
      <trkpt lat="45.74019" lon="6.63614">
        <ele>2129</ele>
        <time>2022-07-16T23:11:41Z</time>
      </trkpt>
      <trkpt lat="45.7402" lon="6.63613">
        <ele>2129</ele>
        <time>2022-07-16T23:11:43Z</time>
      </trkpt>
      <trkpt lat="45.7402" lon="6.63612">
        <ele>2129</ele>
        <time>2022-07-16T23:11:44Z</time>
      </trkpt>
      <trkpt lat="45.74021" lon="6.63612">
        <ele>2130</ele>
        <time>2022-07-16T23:11:45Z</time>
      </trkpt>
      <trkpt lat="45.74022" lon="6.63611">
        <ele>2130</ele>
        <time>2022-07-16T23:11:46Z</time>
      </trkpt>
      <trkpt lat="45.74022" lon="6.6361">
        <ele>2131</ele>
        <time>2022-07-16T23:11:47Z</time>
      </trkpt>
      <trkpt lat="45.74023" lon="6.6361">
        <ele>2131</ele>
        <time>2022-07-16T23:11:48Z</time>
      </trkpt>
      <trkpt lat="45.74023" lon="6.63609">
        <ele>2131</ele>
        <time>2022-07-16T23:11:49Z</time>
      </trkpt>
      <trkpt lat="45.74024" lon="6.63606">
        <ele>2131</ele>
        <time>2022-07-16T23:11:53Z</time>
      </trkpt>
      <trkpt lat="45.74025" lon="6.63604">
        <ele>2131</ele>
        <time>2022-07-16T23:11:56Z</time>
      </trkpt>
      <trkpt lat="45.74024" lon="6.63601">
        <ele>2132</ele>
        <time>2022-07-16T23:11:59Z</time>
      </trkpt>
      <trkpt lat="45.74024" lon="6.63598">
        <ele>2133</ele>
        <time>2022-07-16T23:12:02Z</time>
      </trkpt>
      <trkpt lat="45.74025" lon="6.63596">
        <ele>2133</ele>
        <time>2022-07-16T23:12:05Z</time>
      </trkpt>
      <trkpt lat="45.74026" lon="6.63593">
        <ele>2133</ele>
        <time>2022-07-16T23:12:09Z</time>
      </trkpt>
      <trkpt lat="45.74027" lon="6.6359">
        <ele>2135</ele>
        <time>2022-07-16T23:12:12Z</time>
      </trkpt>
      <trkpt lat="45.74025" lon="6.63588">
        <ele>2135</ele>
        <time>2022-07-16T23:12:14Z</time>
      </trkpt>
      <trkpt lat="45.74023" lon="6.63587">
        <ele>2136</ele>
        <time>2022-07-16T23:12:22Z</time>
      </trkpt>
      <trkpt lat="45.74021" lon="6.63586">
        <ele>2137</ele>
        <time>2022-07-16T23:12:25Z</time>
      </trkpt>
      <trkpt lat="45.74019" lon="6.63587">
        <ele>2138</ele>
        <time>2022-07-16T23:12:29Z</time>
      </trkpt>
      <trkpt lat="45.74017" lon="6.63587">
        <ele>2138</ele>
        <time>2022-07-16T23:12:32Z</time>
      </trkpt>
      <trkpt lat="45.74015" lon="6.63588">
        <ele>2139</ele>
        <time>2022-07-16T23:12:35Z</time>
      </trkpt>
      <trkpt lat="45.74013" lon="6.63587">
        <ele>2139</ele>
        <time>2022-07-16T23:12:39Z</time>
      </trkpt>
      <trkpt lat="45.74011" lon="6.63588">
        <ele>2141</ele>
        <time>2022-07-16T23:12:44Z</time>
      </trkpt>
      <trkpt lat="45.74008" lon="6.63587">
        <ele>2144</ele>
        <time>2022-07-16T23:12:52Z</time>
      </trkpt>
      <trkpt lat="45.74007" lon="6.63586">
        <ele>2145</ele>
        <time>2022-07-16T23:12:57Z</time>
      </trkpt>
      <trkpt lat="45.74005" lon="6.63588">
        <ele>2145</ele>
        <time>2022-07-16T23:13:01Z</time>
      </trkpt>
      <trkpt lat="45.74003" lon="6.63589">
        <ele>2145</ele>
        <time>2022-07-16T23:13:05Z</time>
      </trkpt>
      <trkpt lat="45.74001" lon="6.63588">
        <ele>2147</ele>
        <time>2022-07-16T23:13:10Z</time>
      </trkpt>
      <trkpt lat="45.73999" lon="6.63588">
        <ele>2147</ele>
        <time>2022-07-16T23:13:13Z</time>
      </trkpt>
      <trkpt lat="45.73997" lon="6.63586">
        <ele>2148</ele>
        <time>2022-07-16T23:13:17Z</time>
      </trkpt>
      <trkpt lat="45.73996" lon="6.63584">
        <ele>2149</ele>
        <time>2022-07-16T23:13:19Z</time>
      </trkpt>
      <trkpt lat="45.73997" lon="6.63581">
        <ele>2150</ele>
        <time>2022-07-16T23:13:23Z</time>
      </trkpt>
      <trkpt lat="45.73997" lon="6.63578">
        <ele>2150</ele>
        <time>2022-07-16T23:13:27Z</time>
      </trkpt>
      <trkpt lat="45.73995" lon="6.63576">
        <ele>2150</ele>
        <time>2022-07-16T23:13:31Z</time>
      </trkpt>
      <trkpt lat="45.73993" lon="6.63574">
        <ele>2151</ele>
        <time>2022-07-16T23:13:34Z</time>
      </trkpt>
      <trkpt lat="45.73993" lon="6.63572">
        <ele>2151</ele>
        <time>2022-07-16T23:13:38Z</time>
      </trkpt>
      <trkpt lat="45.73993" lon="6.63569">
        <ele>2152</ele>
        <time>2022-07-16T23:13:42Z</time>
      </trkpt>
      <trkpt lat="45.73991" lon="6.63567">
        <ele>2154</ele>
        <time>2022-07-16T23:13:47Z</time>
      </trkpt>
      <trkpt lat="45.73989" lon="6.63565">
        <ele>2154</ele>
        <time>2022-07-16T23:13:50Z</time>
      </trkpt>
      <trkpt lat="45.73987" lon="6.63564">
        <ele>2155</ele>
        <time>2022-07-16T23:13:53Z</time>
      </trkpt>
      <trkpt lat="45.73984" lon="6.63562">
        <ele>2155</ele>
        <time>2022-07-16T23:13:55Z</time>
      </trkpt>
      <trkpt lat="45.73982" lon="6.63561">
        <ele>2155</ele>
        <time>2022-07-16T23:13:58Z</time>
      </trkpt>
      <trkpt lat="45.7398" lon="6.6356">
        <ele>2155</ele>
        <time>2022-07-16T23:14:00Z</time>
      </trkpt>
      <trkpt lat="45.73978" lon="6.63559">
        <ele>2156</ele>
        <time>2022-07-16T23:14:03Z</time>
      </trkpt>
      <trkpt lat="45.73977" lon="6.63556">
        <ele>2157</ele>
        <time>2022-07-16T23:14:06Z</time>
      </trkpt>
      <trkpt lat="45.73976" lon="6.63553">
        <ele>2157</ele>
        <time>2022-07-16T23:14:09Z</time>
      </trkpt>
      <trkpt lat="45.73974" lon="6.63552">
        <ele>2158</ele>
        <time>2022-07-16T23:14:12Z</time>
      </trkpt>
      <trkpt lat="45.73972" lon="6.6355">
        <ele>2158</ele>
        <time>2022-07-16T23:14:15Z</time>
      </trkpt>
      <trkpt lat="45.7397" lon="6.63547">
        <ele>2159</ele>
        <time>2022-07-16T23:14:18Z</time>
      </trkpt>
      <trkpt lat="45.73969" lon="6.63544">
        <ele>2159</ele>
        <time>2022-07-16T23:14:21Z</time>
      </trkpt>
      <trkpt lat="45.73966" lon="6.63544">
        <ele>2159</ele>
        <time>2022-07-16T23:14:23Z</time>
      </trkpt>
      <trkpt lat="45.73964" lon="6.63544">
        <ele>2159</ele>
        <time>2022-07-16T23:14:26Z</time>
      </trkpt>
      <trkpt lat="45.73962" lon="6.63546">
        <ele>2160</ele>
        <time>2022-07-16T23:14:28Z</time>
      </trkpt>
      <trkpt lat="45.7396" lon="6.63547">
        <ele>2161</ele>
        <time>2022-07-16T23:14:31Z</time>
      </trkpt>
      <trkpt lat="45.73958" lon="6.63547">
        <ele>2162</ele>
        <time>2022-07-16T23:14:35Z</time>
      </trkpt>
      <trkpt lat="45.73957" lon="6.6355">
        <ele>2162</ele>
        <time>2022-07-16T23:14:38Z</time>
      </trkpt>
      <trkpt lat="45.73957" lon="6.63552">
        <ele>2162</ele>
        <time>2022-07-16T23:14:40Z</time>
      </trkpt>
      <trkpt lat="45.73956" lon="6.63555">
        <ele>2163</ele>
        <time>2022-07-16T23:14:42Z</time>
      </trkpt>
      <trkpt lat="45.73956" lon="6.63557">
        <ele>2163</ele>
        <time>2022-07-16T23:14:44Z</time>
      </trkpt>
      <trkpt lat="45.73955" lon="6.6356">
        <ele>2163</ele>
        <time>2022-07-16T23:14:47Z</time>
      </trkpt>
      <trkpt lat="45.73953" lon="6.63563">
        <ele>2164</ele>
        <time>2022-07-16T23:14:50Z</time>
      </trkpt>
      <trkpt lat="45.73951" lon="6.63563">
        <ele>2164</ele>
        <time>2022-07-16T23:14:53Z</time>
      </trkpt>
      <trkpt lat="45.7395" lon="6.63561">
        <ele>2165</ele>
        <time>2022-07-16T23:14:57Z</time>
      </trkpt>
      <trkpt lat="45.73948" lon="6.63559">
        <ele>2166</ele>
        <time>2022-07-16T23:15:00Z</time>
      </trkpt>
      <trkpt lat="45.73945" lon="6.6356">
        <ele>2167</ele>
        <time>2022-07-16T23:15:03Z</time>
      </trkpt>
      <trkpt lat="45.73943" lon="6.63559">
        <ele>2167</ele>
        <time>2022-07-16T23:15:06Z</time>
      </trkpt>
      <trkpt lat="45.73941" lon="6.63558">
        <ele>2167</ele>
        <time>2022-07-16T23:15:09Z</time>
      </trkpt>
      <trkpt lat="45.73939" lon="6.63557">
        <ele>2167</ele>
        <time>2022-07-16T23:15:12Z</time>
      </trkpt>
      <trkpt lat="45.73937" lon="6.63556">
        <ele>2168</ele>
        <time>2022-07-16T23:15:15Z</time>
      </trkpt>
      <trkpt lat="45.73935" lon="6.63557">
        <ele>2168</ele>
        <time>2022-07-16T23:15:18Z</time>
      </trkpt>
      <trkpt lat="45.73933" lon="6.63557">
        <ele>2168</ele>
        <time>2022-07-16T23:15:21Z</time>
      </trkpt>
      <trkpt lat="45.73931" lon="6.63558">
        <ele>2170</ele>
        <time>2022-07-16T23:15:24Z</time>
      </trkpt>
      <trkpt lat="45.73929" lon="6.63559">
        <ele>2171</ele>
        <time>2022-07-16T23:15:27Z</time>
      </trkpt>
      <trkpt lat="45.73926" lon="6.63559">
        <ele>2171</ele>
        <time>2022-07-16T23:15:30Z</time>
      </trkpt>
      <trkpt lat="45.73924" lon="6.63559">
        <ele>2172</ele>
        <time>2022-07-16T23:15:33Z</time>
      </trkpt>
      <trkpt lat="45.73922" lon="6.63559">
        <ele>2172</ele>
        <time>2022-07-16T23:15:35Z</time>
      </trkpt>
      <trkpt lat="45.73919" lon="6.63559">
        <ele>2173</ele>
        <time>2022-07-16T23:15:39Z</time>
      </trkpt>
      <trkpt lat="45.73917" lon="6.63559">
        <ele>2173</ele>
        <time>2022-07-16T23:15:42Z</time>
      </trkpt>
      <trkpt lat="45.73915" lon="6.63559">
        <ele>2173</ele>
        <time>2022-07-16T23:15:46Z</time>
      </trkpt>
      <trkpt lat="45.73913" lon="6.63558">
        <ele>2173</ele>
        <time>2022-07-16T23:15:49Z</time>
      </trkpt>
      <trkpt lat="45.73911" lon="6.63559">
        <ele>2174</ele>
        <time>2022-07-16T23:15:54Z</time>
      </trkpt>
      <trkpt lat="45.73908" lon="6.63558">
        <ele>2175</ele>
        <time>2022-07-16T23:15:57Z</time>
      </trkpt>
      <trkpt lat="45.73906" lon="6.63559">
        <ele>2175</ele>
        <time>2022-07-16T23:16:00Z</time>
      </trkpt>
      <trkpt lat="45.73904" lon="6.63558">
        <ele>2175</ele>
        <time>2022-07-16T23:16:03Z</time>
      </trkpt>
      <trkpt lat="45.73902" lon="6.63559">
        <ele>2176</ele>
        <time>2022-07-16T23:16:07Z</time>
      </trkpt>
      <trkpt lat="45.739" lon="6.63559">
        <ele>2177</ele>
        <time>2022-07-16T23:16:10Z</time>
      </trkpt>
      <trkpt lat="45.73897" lon="6.63559">
        <ele>2177</ele>
        <time>2022-07-16T23:16:13Z</time>
      </trkpt>
      <trkpt lat="45.73895" lon="6.63557">
        <ele>2178</ele>
        <time>2022-07-16T23:16:16Z</time>
      </trkpt>
      <trkpt lat="45.73894" lon="6.63555">
        <ele>2178</ele>
        <time>2022-07-16T23:16:19Z</time>
      </trkpt>
      <trkpt lat="45.73893" lon="6.63552">
        <ele>2178</ele>
        <time>2022-07-16T23:16:21Z</time>
      </trkpt>
      <trkpt lat="45.73892" lon="6.6355">
        <ele>2178</ele>
        <time>2022-07-16T23:16:23Z</time>
      </trkpt>
      <trkpt lat="45.7389" lon="6.63547">
        <ele>2178</ele>
        <time>2022-07-16T23:16:25Z</time>
      </trkpt>
      <trkpt lat="45.73889" lon="6.63544">
        <ele>2178</ele>
        <time>2022-07-16T23:16:27Z</time>
      </trkpt>
      <trkpt lat="45.73888" lon="6.63541">
        <ele>2178</ele>
        <time>2022-07-16T23:16:29Z</time>
      </trkpt>
      <trkpt lat="45.73886" lon="6.63538">
        <ele>2178</ele>
        <time>2022-07-16T23:16:31Z</time>
      </trkpt>
      <trkpt lat="45.73885" lon="6.63536">
        <ele>2179</ele>
        <time>2022-07-16T23:16:33Z</time>
      </trkpt>
      <trkpt lat="45.73883" lon="6.63533">
        <ele>2179</ele>
        <time>2022-07-16T23:16:35Z</time>
      </trkpt>
      <trkpt lat="45.73882" lon="6.63531">
        <ele>2179</ele>
        <time>2022-07-16T23:16:37Z</time>
      </trkpt>
      <trkpt lat="45.73881" lon="6.63528">
        <ele>2179</ele>
        <time>2022-07-16T23:16:39Z</time>
      </trkpt>
      <trkpt lat="45.73879" lon="6.63526">
        <ele>2179</ele>
        <time>2022-07-16T23:16:41Z</time>
      </trkpt>
      <trkpt lat="45.73877" lon="6.63524">
        <ele>2179</ele>
        <time>2022-07-16T23:16:43Z</time>
      </trkpt>
      <trkpt lat="45.73875" lon="6.63523">
        <ele>2180</ele>
        <time>2022-07-16T23:16:45Z</time>
      </trkpt>
      <trkpt lat="45.73874" lon="6.63521">
        <ele>2180</ele>
        <time>2022-07-16T23:16:47Z</time>
      </trkpt>
      <trkpt lat="45.73872" lon="6.63519">
        <ele>2180</ele>
        <time>2022-07-16T23:16:49Z</time>
      </trkpt>
      <trkpt lat="45.7387" lon="6.63518">
        <ele>2180</ele>
        <time>2022-07-16T23:16:51Z</time>
      </trkpt>
      <trkpt lat="45.73868" lon="6.63516">
        <ele>2181</ele>
        <time>2022-07-16T23:16:53Z</time>
      </trkpt>
      <trkpt lat="45.73866" lon="6.63515">
        <ele>2181</ele>
        <time>2022-07-16T23:16:55Z</time>
      </trkpt>
      <trkpt lat="45.73864" lon="6.63514">
        <ele>2181</ele>
        <time>2022-07-16T23:16:57Z</time>
      </trkpt>
      <trkpt lat="45.73862" lon="6.63512">
        <ele>2181</ele>
        <time>2022-07-16T23:16:59Z</time>
      </trkpt>
      <trkpt lat="45.7386" lon="6.63511">
        <ele>2181</ele>
        <time>2022-07-16T23:17:01Z</time>
      </trkpt>
      <trkpt lat="45.73858" lon="6.6351">
        <ele>2181</ele>
        <time>2022-07-16T23:17:03Z</time>
      </trkpt>
      <trkpt lat="45.73857" lon="6.63509">
        <ele>2182</ele>
        <time>2022-07-16T23:17:05Z</time>
      </trkpt>
      <trkpt lat="45.73855" lon="6.63507">
        <ele>2182</ele>
        <time>2022-07-16T23:17:08Z</time>
      </trkpt>
      <trkpt lat="45.73853" lon="6.63506">
        <ele>2183</ele>
        <time>2022-07-16T23:17:10Z</time>
      </trkpt>
      <trkpt lat="45.73851" lon="6.63504">
        <ele>2183</ele>
        <time>2022-07-16T23:17:13Z</time>
      </trkpt>
      <trkpt lat="45.73849" lon="6.63503">
        <ele>2183</ele>
        <time>2022-07-16T23:17:15Z</time>
      </trkpt>
      <trkpt lat="45.73847" lon="6.63502">
        <ele>2184</ele>
        <time>2022-07-16T23:17:17Z</time>
      </trkpt>
      <trkpt lat="45.73845" lon="6.635">
        <ele>2184</ele>
        <time>2022-07-16T23:17:19Z</time>
      </trkpt>
      <trkpt lat="45.73843" lon="6.63499">
        <ele>2184</ele>
        <time>2022-07-16T23:17:21Z</time>
      </trkpt>
      <trkpt lat="45.73841" lon="6.63497">
        <ele>2184</ele>
        <time>2022-07-16T23:17:23Z</time>
      </trkpt>
      <trkpt lat="45.73839" lon="6.63496">
        <ele>2184</ele>
        <time>2022-07-16T23:17:24Z</time>
      </trkpt>
      <trkpt lat="45.73837" lon="6.63494">
        <ele>2184</ele>
        <time>2022-07-16T23:17:27Z</time>
      </trkpt>
      <trkpt lat="45.73835" lon="6.63492">
        <ele>2184</ele>
        <time>2022-07-16T23:17:29Z</time>
      </trkpt>
      <trkpt lat="45.73834" lon="6.6349">
        <ele>2185</ele>
        <time>2022-07-16T23:17:31Z</time>
      </trkpt>
      <trkpt lat="45.73832" lon="6.63488">
        <ele>2185</ele>
        <time>2022-07-16T23:17:33Z</time>
      </trkpt>
      <trkpt lat="45.73831" lon="6.63486">
        <ele>2185</ele>
        <time>2022-07-16T23:17:35Z</time>
      </trkpt>
      <trkpt lat="45.73829" lon="6.63484">
        <ele>2185</ele>
        <time>2022-07-16T23:17:37Z</time>
      </trkpt>
      <trkpt lat="45.73827" lon="6.63482">
        <ele>2185</ele>
        <time>2022-07-16T23:17:39Z</time>
      </trkpt>
      <trkpt lat="45.73826" lon="6.6348">
        <ele>2185</ele>
        <time>2022-07-16T23:17:41Z</time>
      </trkpt>
      <trkpt lat="45.73825" lon="6.63478">
        <ele>2186</ele>
        <time>2022-07-16T23:17:43Z</time>
      </trkpt>
      <trkpt lat="45.73824" lon="6.63475">
        <ele>2186</ele>
        <time>2022-07-16T23:17:46Z</time>
      </trkpt>
      <trkpt lat="45.73822" lon="6.63472">
        <ele>2186</ele>
        <time>2022-07-16T23:17:49Z</time>
      </trkpt>
      <trkpt lat="45.7382" lon="6.6347">
        <ele>2187</ele>
        <time>2022-07-16T23:17:51Z</time>
      </trkpt>
      <trkpt lat="45.73819" lon="6.63469">
        <ele>2187</ele>
        <time>2022-07-16T23:17:53Z</time>
      </trkpt>
      <trkpt lat="45.73817" lon="6.63468">
        <ele>2187</ele>
        <time>2022-07-16T23:17:55Z</time>
      </trkpt>
      <trkpt lat="45.73815" lon="6.63466">
        <ele>2187</ele>
        <time>2022-07-16T23:17:57Z</time>
      </trkpt>
      <trkpt lat="45.73814" lon="6.63464">
        <ele>2187</ele>
        <time>2022-07-16T23:17:59Z</time>
      </trkpt>
      <trkpt lat="45.73811" lon="6.63463">
        <ele>2188</ele>
        <time>2022-07-16T23:18:02Z</time>
      </trkpt>
      <trkpt lat="45.7381" lon="6.63462">
        <ele>2188</ele>
        <time>2022-07-16T23:18:04Z</time>
      </trkpt>
      <trkpt lat="45.73807" lon="6.63462">
        <ele>2189</ele>
        <time>2022-07-16T23:18:07Z</time>
      </trkpt>
      <trkpt lat="45.73805" lon="6.63462">
        <ele>2189</ele>
        <time>2022-07-16T23:18:09Z</time>
      </trkpt>
      <trkpt lat="45.73803" lon="6.63461">
        <ele>2189</ele>
        <time>2022-07-16T23:18:11Z</time>
      </trkpt>
      <trkpt lat="45.73801" lon="6.63461">
        <ele>2189</ele>
        <time>2022-07-16T23:18:13Z</time>
      </trkpt>
      <trkpt lat="45.73799" lon="6.6346">
        <ele>2189</ele>
        <time>2022-07-16T23:18:15Z</time>
      </trkpt>
      <trkpt lat="45.73797" lon="6.63459">
        <ele>2189</ele>
        <time>2022-07-16T23:18:17Z</time>
      </trkpt>
      <trkpt lat="45.73794" lon="6.63458">
        <ele>2189</ele>
        <time>2022-07-16T23:18:19Z</time>
      </trkpt>
      <trkpt lat="45.73792" lon="6.63457">
        <ele>2190</ele>
        <time>2022-07-16T23:18:21Z</time>
      </trkpt>
      <trkpt lat="45.73791" lon="6.63457">
        <ele>2190</ele>
        <time>2022-07-16T23:18:23Z</time>
      </trkpt>
      <trkpt lat="45.73789" lon="6.63456">
        <ele>2190</ele>
        <time>2022-07-16T23:18:25Z</time>
      </trkpt>
      <trkpt lat="45.73786" lon="6.63456">
        <ele>2191</ele>
        <time>2022-07-16T23:18:27Z</time>
      </trkpt>
      <trkpt lat="45.73784" lon="6.63456">
        <ele>2191</ele>
        <time>2022-07-16T23:18:29Z</time>
      </trkpt>
      <trkpt lat="45.73782" lon="6.63455">
        <ele>2191</ele>
        <time>2022-07-16T23:18:31Z</time>
      </trkpt>
      <trkpt lat="45.7378" lon="6.63453">
        <ele>2191</ele>
        <time>2022-07-16T23:18:33Z</time>
      </trkpt>
      <trkpt lat="45.73778" lon="6.63451">
        <ele>2191</ele>
        <time>2022-07-16T23:18:35Z</time>
      </trkpt>
      <trkpt lat="45.73776" lon="6.63449">
        <ele>2191</ele>
        <time>2022-07-16T23:18:37Z</time>
      </trkpt>
      <trkpt lat="45.73774" lon="6.63447">
        <ele>2191</ele>
        <time>2022-07-16T23:18:39Z</time>
      </trkpt>
      <trkpt lat="45.73772" lon="6.63445">
        <ele>2191</ele>
        <time>2022-07-16T23:18:41Z</time>
      </trkpt>
      <trkpt lat="45.7377" lon="6.63444">
        <ele>2191</ele>
        <time>2022-07-16T23:18:43Z</time>
      </trkpt>
      <trkpt lat="45.73768" lon="6.63443">
        <ele>2191</ele>
        <time>2022-07-16T23:18:45Z</time>
      </trkpt>
      <trkpt lat="45.73766" lon="6.63442">
        <ele>2191</ele>
        <time>2022-07-16T23:18:47Z</time>
      </trkpt>
      <trkpt lat="45.73764" lon="6.63441">
        <ele>2192</ele>
        <time>2022-07-16T23:18:49Z</time>
      </trkpt>
      <trkpt lat="45.73762" lon="6.63439">
        <ele>2192</ele>
        <time>2022-07-16T23:18:51Z</time>
      </trkpt>
      <trkpt lat="45.7376" lon="6.63439">
        <ele>2193</ele>
        <time>2022-07-16T23:18:54Z</time>
      </trkpt>
      <trkpt lat="45.73758" lon="6.63438">
        <ele>2193</ele>
        <time>2022-07-16T23:18:56Z</time>
      </trkpt>
      <trkpt lat="45.73756" lon="6.63436">
        <ele>2193</ele>
        <time>2022-07-16T23:18:58Z</time>
      </trkpt>
      <trkpt lat="45.73754" lon="6.63435">
        <ele>2193</ele>
        <time>2022-07-16T23:19:00Z</time>
      </trkpt>
      <trkpt lat="45.73752" lon="6.63434">
        <ele>2193</ele>
        <time>2022-07-16T23:19:02Z</time>
      </trkpt>
      <trkpt lat="45.7375" lon="6.63433">
        <ele>2193</ele>
        <time>2022-07-16T23:19:04Z</time>
      </trkpt>
      <trkpt lat="45.73748" lon="6.63432">
        <ele>2194</ele>
        <time>2022-07-16T23:19:06Z</time>
      </trkpt>
      <trkpt lat="45.73745" lon="6.63431">
        <ele>2194</ele>
        <time>2022-07-16T23:19:09Z</time>
      </trkpt>
      <trkpt lat="45.73744" lon="6.63429">
        <ele>2194</ele>
        <time>2022-07-16T23:19:13Z</time>
      </trkpt>
      <trkpt lat="45.73742" lon="6.63428">
        <ele>2196</ele>
        <time>2022-07-16T23:19:15Z</time>
      </trkpt>
      <trkpt lat="45.7374" lon="6.63428">
        <ele>2196</ele>
        <time>2022-07-16T23:19:17Z</time>
      </trkpt>
      <trkpt lat="45.73738" lon="6.63428">
        <ele>2196</ele>
        <time>2022-07-16T23:19:19Z</time>
      </trkpt>
      <trkpt lat="45.73735" lon="6.63427">
        <ele>2197</ele>
        <time>2022-07-16T23:19:21Z</time>
      </trkpt>
      <trkpt lat="45.73733" lon="6.63427">
        <ele>2197</ele>
        <time>2022-07-16T23:19:24Z</time>
      </trkpt>
      <trkpt lat="45.73731" lon="6.63425">
        <ele>2198</ele>
        <time>2022-07-16T23:19:26Z</time>
      </trkpt>
      <trkpt lat="45.73729" lon="6.63424">
        <ele>2198</ele>
        <time>2022-07-16T23:19:29Z</time>
      </trkpt>
      <trkpt lat="45.73727" lon="6.63421">
        <ele>2198</ele>
        <time>2022-07-16T23:19:32Z</time>
      </trkpt>
      <trkpt lat="45.73725" lon="6.6342">
        <ele>2199</ele>
        <time>2022-07-16T23:19:34Z</time>
      </trkpt>
      <trkpt lat="45.73723" lon="6.63417">
        <ele>2199</ele>
        <time>2022-07-16T23:19:37Z</time>
      </trkpt>
      <trkpt lat="45.73722" lon="6.63415">
        <ele>2199</ele>
        <time>2022-07-16T23:19:39Z</time>
      </trkpt>
      <trkpt lat="45.7372" lon="6.63413">
        <ele>2200</ele>
        <time>2022-07-16T23:19:41Z</time>
      </trkpt>
      <trkpt lat="45.73718" lon="6.63411">
        <ele>2200</ele>
        <time>2022-07-16T23:19:43Z</time>
      </trkpt>
      <trkpt lat="45.73717" lon="6.6341">
        <ele>2200</ele>
        <time>2022-07-16T23:19:45Z</time>
      </trkpt>
      <trkpt lat="45.73715" lon="6.63409">
        <ele>2200</ele>
        <time>2022-07-16T23:19:47Z</time>
      </trkpt>
      <trkpt lat="45.73712" lon="6.63408">
        <ele>2201</ele>
        <time>2022-07-16T23:19:50Z</time>
      </trkpt>
      <trkpt lat="45.7371" lon="6.63407">
        <ele>2201</ele>
        <time>2022-07-16T23:19:52Z</time>
      </trkpt>
      <trkpt lat="45.73708" lon="6.63406">
        <ele>2201</ele>
        <time>2022-07-16T23:19:55Z</time>
      </trkpt>
      <trkpt lat="45.73706" lon="6.63405">
        <ele>2202</ele>
        <time>2022-07-16T23:19:59Z</time>
      </trkpt>
      <trkpt lat="45.73704" lon="6.63404">
        <ele>2203</ele>
        <time>2022-07-16T23:20:04Z</time>
      </trkpt>
      <trkpt lat="45.73703" lon="6.63402">
        <ele>2203</ele>
        <time>2022-07-16T23:20:07Z</time>
      </trkpt>
      <trkpt lat="45.73701" lon="6.634">
        <ele>2203</ele>
        <time>2022-07-16T23:20:10Z</time>
      </trkpt>
      <trkpt lat="45.737" lon="6.63398">
        <ele>2203</ele>
        <time>2022-07-16T23:20:13Z</time>
      </trkpt>
      <trkpt lat="45.73699" lon="6.63395">
        <ele>2202</ele>
        <time>2022-07-16T23:20:18Z</time>
      </trkpt>
      <trkpt lat="45.73698" lon="6.63393">
        <ele>2203</ele>
        <time>2022-07-16T23:20:21Z</time>
      </trkpt>
      <trkpt lat="45.73697" lon="6.63391">
        <ele>2204</ele>
        <time>2022-07-16T23:20:23Z</time>
      </trkpt>
      <trkpt lat="45.73696" lon="6.63388">
        <ele>2204</ele>
        <time>2022-07-16T23:20:25Z</time>
      </trkpt>
      <trkpt lat="45.73696" lon="6.63385">
        <ele>2203</ele>
        <time>2022-07-16T23:20:27Z</time>
      </trkpt>
      <trkpt lat="45.73697" lon="6.63383">
        <ele>2204</ele>
        <time>2022-07-16T23:20:29Z</time>
      </trkpt>
      <trkpt lat="45.73699" lon="6.63381">
        <ele>2204</ele>
        <time>2022-07-16T23:20:32Z</time>
      </trkpt>
      <trkpt lat="45.73701" lon="6.6338">
        <ele>2205</ele>
        <time>2022-07-16T23:20:34Z</time>
      </trkpt>
      <trkpt lat="45.73703" lon="6.63377">
        <ele>2205</ele>
        <time>2022-07-16T23:20:37Z</time>
      </trkpt>
      <trkpt lat="45.73705" lon="6.63374">
        <ele>2205</ele>
        <time>2022-07-16T23:20:40Z</time>
      </trkpt>
      <trkpt lat="45.73704" lon="6.63371">
        <ele>2206</ele>
        <time>2022-07-16T23:20:45Z</time>
      </trkpt>
      <trkpt lat="45.73704" lon="6.63367">
        <ele>2207</ele>
        <time>2022-07-16T23:20:48Z</time>
      </trkpt>
      <trkpt lat="45.73703" lon="6.63364">
        <ele>2208</ele>
        <time>2022-07-16T23:20:51Z</time>
      </trkpt>
      <trkpt lat="45.73702" lon="6.63362">
        <ele>2208</ele>
        <time>2022-07-16T23:20:54Z</time>
      </trkpt>
      <trkpt lat="45.73701" lon="6.63359">
        <ele>2208</ele>
        <time>2022-07-16T23:20:56Z</time>
      </trkpt>
      <trkpt lat="45.73703" lon="6.63357">
        <ele>2209</ele>
        <time>2022-07-16T23:20:59Z</time>
      </trkpt>
      <trkpt lat="45.73705" lon="6.63356">
        <ele>2209</ele>
        <time>2022-07-16T23:21:02Z</time>
      </trkpt>
      <trkpt lat="45.73707" lon="6.63355">
        <ele>2209</ele>
        <time>2022-07-16T23:21:05Z</time>
      </trkpt>
      <trkpt lat="45.7371" lon="6.63354">
        <ele>2209</ele>
        <time>2022-07-16T23:21:08Z</time>
      </trkpt>
      <trkpt lat="45.73711" lon="6.63353">
        <ele>2210</ele>
        <time>2022-07-16T23:21:11Z</time>
      </trkpt>
      <trkpt lat="45.73713" lon="6.63352">
        <ele>2211</ele>
        <time>2022-07-16T23:21:14Z</time>
      </trkpt>
      <trkpt lat="45.73715" lon="6.63351">
        <ele>2211</ele>
        <time>2022-07-16T23:21:17Z</time>
      </trkpt>
      <trkpt lat="45.73717" lon="6.63349">
        <ele>2211</ele>
        <time>2022-07-16T23:21:20Z</time>
      </trkpt>
      <trkpt lat="45.73719" lon="6.63348">
        <ele>2212</ele>
        <time>2022-07-16T23:21:23Z</time>
      </trkpt>
      <trkpt lat="45.73722" lon="6.63347">
        <ele>2212</ele>
        <time>2022-07-16T23:21:26Z</time>
      </trkpt>
      <trkpt lat="45.73723" lon="6.63345">
        <ele>2212</ele>
        <time>2022-07-16T23:21:29Z</time>
      </trkpt>
      <trkpt lat="45.73724" lon="6.63342">
        <ele>2213</ele>
        <time>2022-07-16T23:21:33Z</time>
      </trkpt>
      <trkpt lat="45.73723" lon="6.6334">
        <ele>2214</ele>
        <time>2022-07-16T23:21:37Z</time>
      </trkpt>
      <trkpt lat="45.73721" lon="6.63338">
        <ele>2214</ele>
        <time>2022-07-16T23:21:41Z</time>
      </trkpt>
      <trkpt lat="45.7372" lon="6.63336">
        <ele>2215</ele>
        <time>2022-07-16T23:21:44Z</time>
      </trkpt>
      <trkpt lat="45.73719" lon="6.63333">
        <ele>2215</ele>
        <time>2022-07-16T23:21:47Z</time>
      </trkpt>
      <trkpt lat="45.73717" lon="6.63331">
        <ele>2216</ele>
        <time>2022-07-16T23:21:50Z</time>
      </trkpt>
      <trkpt lat="45.73716" lon="6.63329">
        <ele>2216</ele>
        <time>2022-07-16T23:21:54Z</time>
      </trkpt>
      <trkpt lat="45.73714" lon="6.63327">
        <ele>2217</ele>
        <time>2022-07-16T23:21:58Z</time>
      </trkpt>
      <trkpt lat="45.73712" lon="6.63325">
        <ele>2218</ele>
        <time>2022-07-16T23:22:02Z</time>
      </trkpt>
      <trkpt lat="45.73711" lon="6.63323">
        <ele>2218</ele>
        <time>2022-07-16T23:22:05Z</time>
      </trkpt>
      <trkpt lat="45.73709" lon="6.63321">
        <ele>2218</ele>
        <time>2022-07-16T23:22:09Z</time>
      </trkpt>
      <trkpt lat="45.73707" lon="6.63319">
        <ele>2219</ele>
        <time>2022-07-16T23:22:11Z</time>
      </trkpt>
      <trkpt lat="45.73706" lon="6.63317">
        <ele>2219</ele>
        <time>2022-07-16T23:22:14Z</time>
      </trkpt>
      <trkpt lat="45.73705" lon="6.63314">
        <ele>2219</ele>
        <time>2022-07-16T23:22:17Z</time>
      </trkpt>
      <trkpt lat="45.73703" lon="6.63312">
        <ele>2219</ele>
        <time>2022-07-16T23:22:19Z</time>
      </trkpt>
      <trkpt lat="45.73702" lon="6.63309">
        <ele>2220</ele>
        <time>2022-07-16T23:22:21Z</time>
      </trkpt>
      <trkpt lat="45.73701" lon="6.63307">
        <ele>2220</ele>
        <time>2022-07-16T23:22:24Z</time>
      </trkpt>
      <trkpt lat="45.73699" lon="6.63305">
        <ele>2222</ele>
        <time>2022-07-16T23:22:27Z</time>
      </trkpt>
      <trkpt lat="45.73699" lon="6.63302">
        <ele>2223</ele>
        <time>2022-07-16T23:22:30Z</time>
      </trkpt>
      <trkpt lat="45.73697" lon="6.633">
        <ele>2223</ele>
        <time>2022-07-16T23:22:33Z</time>
      </trkpt>
      <trkpt lat="45.73696" lon="6.63297">
        <ele>2224</ele>
        <time>2022-07-16T23:22:36Z</time>
      </trkpt>
      <trkpt lat="45.73695" lon="6.63295">
        <ele>2224</ele>
        <time>2022-07-16T23:22:38Z</time>
      </trkpt>
      <trkpt lat="45.73693" lon="6.63292">
        <ele>2225</ele>
        <time>2022-07-16T23:22:43Z</time>
      </trkpt>
      <trkpt lat="45.73692" lon="6.6329">
        <ele>2225</ele>
        <time>2022-07-16T23:22:46Z</time>
      </trkpt>
      <trkpt lat="45.73691" lon="6.63288">
        <ele>2225</ele>
        <time>2022-07-16T23:22:49Z</time>
      </trkpt>
      <trkpt lat="45.7369" lon="6.63285">
        <ele>2226</ele>
        <time>2022-07-16T23:22:52Z</time>
      </trkpt>
      <trkpt lat="45.73689" lon="6.63282">
        <ele>2226</ele>
        <time>2022-07-16T23:22:55Z</time>
      </trkpt>
      <trkpt lat="45.73687" lon="6.63279">
        <ele>2226</ele>
        <time>2022-07-16T23:22:58Z</time>
      </trkpt>
      <trkpt lat="45.73686" lon="6.63276">
        <ele>2227</ele>
        <time>2022-07-16T23:23:01Z</time>
      </trkpt>
      <trkpt lat="45.73685" lon="6.63273">
        <ele>2227</ele>
        <time>2022-07-16T23:23:04Z</time>
      </trkpt>
      <trkpt lat="45.73684" lon="6.6327">
        <ele>2227</ele>
        <time>2022-07-16T23:23:07Z</time>
      </trkpt>
      <trkpt lat="45.73683" lon="6.63267">
        <ele>2227</ele>
        <time>2022-07-16T23:23:10Z</time>
      </trkpt>
      <trkpt lat="45.73681" lon="6.63263">
        <ele>2228</ele>
        <time>2022-07-16T23:23:13Z</time>
      </trkpt>
      <trkpt lat="45.73682" lon="6.6326">
        <ele>2229</ele>
        <time>2022-07-16T23:23:16Z</time>
      </trkpt>
      <trkpt lat="45.73684" lon="6.63259">
        <ele>2229</ele>
        <time>2022-07-16T23:23:20Z</time>
      </trkpt>
      <trkpt lat="45.73686" lon="6.63258">
        <ele>2229</ele>
        <time>2022-07-16T23:23:23Z</time>
      </trkpt>
      <trkpt lat="45.73688" lon="6.63258">
        <ele>2230</ele>
        <time>2022-07-16T23:23:26Z</time>
      </trkpt>
      <trkpt lat="45.7369" lon="6.63258">
        <ele>2230</ele>
        <time>2022-07-16T23:23:31Z</time>
      </trkpt>
      <trkpt lat="45.73692" lon="6.63259">
        <ele>2231</ele>
        <time>2022-07-16T23:23:36Z</time>
      </trkpt>
      <trkpt lat="45.73694" lon="6.6326">
        <ele>2232</ele>
        <time>2022-07-16T23:23:40Z</time>
      </trkpt>
      <trkpt lat="45.73696" lon="6.63261">
        <ele>2233</ele>
        <time>2022-07-16T23:23:46Z</time>
      </trkpt>
      <trkpt lat="45.73698" lon="6.63261">
        <ele>2232</ele>
        <time>2022-07-16T23:23:48Z</time>
      </trkpt>
      <trkpt lat="45.737" lon="6.63262">
        <ele>2233</ele>
        <time>2022-07-16T23:23:51Z</time>
      </trkpt>
      <trkpt lat="45.73702" lon="6.63262">
        <ele>2234</ele>
        <time>2022-07-16T23:23:54Z</time>
      </trkpt>
      <trkpt lat="45.73704" lon="6.63263">
        <ele>2235</ele>
        <time>2022-07-16T23:23:57Z</time>
      </trkpt>
      <trkpt lat="45.73706" lon="6.63264">
        <ele>2235</ele>
        <time>2022-07-16T23:24:00Z</time>
      </trkpt>
      <trkpt lat="45.73708" lon="6.63265">
        <ele>2235</ele>
        <time>2022-07-16T23:24:03Z</time>
      </trkpt>
      <trkpt lat="45.7371" lon="6.63266">
        <ele>2235</ele>
        <time>2022-07-16T23:24:06Z</time>
      </trkpt>
      <trkpt lat="45.73712" lon="6.63266">
        <ele>2236</ele>
        <time>2022-07-16T23:24:10Z</time>
      </trkpt>
      <trkpt lat="45.73714" lon="6.63266">
        <ele>2237</ele>
        <time>2022-07-16T23:24:13Z</time>
      </trkpt>
      <trkpt lat="45.73716" lon="6.63266">
        <ele>2237</ele>
        <time>2022-07-16T23:24:16Z</time>
      </trkpt>
      <trkpt lat="45.73718" lon="6.63266">
        <ele>2237</ele>
        <time>2022-07-16T23:24:19Z</time>
      </trkpt>
      <trkpt lat="45.7372" lon="6.63266">
        <ele>2238</ele>
        <time>2022-07-16T23:24:23Z</time>
      </trkpt>
      <trkpt lat="45.73722" lon="6.63265">
        <ele>2238</ele>
        <time>2022-07-16T23:24:26Z</time>
      </trkpt>
      <trkpt lat="45.73724" lon="6.63264">
        <ele>2239</ele>
        <time>2022-07-16T23:24:29Z</time>
      </trkpt>
      <trkpt lat="45.73726" lon="6.63264">
        <ele>2239</ele>
        <time>2022-07-16T23:24:32Z</time>
      </trkpt>
      <trkpt lat="45.73728" lon="6.63264">
        <ele>2240</ele>
        <time>2022-07-16T23:24:35Z</time>
      </trkpt>
      <trkpt lat="45.7373" lon="6.63263">
        <ele>2240</ele>
        <time>2022-07-16T23:24:38Z</time>
      </trkpt>
      <trkpt lat="45.73732" lon="6.63261">
        <ele>2241</ele>
        <time>2022-07-16T23:24:42Z</time>
      </trkpt>
      <trkpt lat="45.73734" lon="6.6326">
        <ele>2241</ele>
        <time>2022-07-16T23:24:46Z</time>
      </trkpt>
      <trkpt lat="45.73735" lon="6.63259">
        <ele>2242</ele>
        <time>2022-07-16T23:24:50Z</time>
      </trkpt>
      <trkpt lat="45.73734" lon="6.63256">
        <ele>2243</ele>
        <time>2022-07-16T23:24:55Z</time>
      </trkpt>
      <trkpt lat="45.73733" lon="6.63253">
        <ele>2244</ele>
        <time>2022-07-16T23:24:59Z</time>
      </trkpt>
      <trkpt lat="45.73731" lon="6.63251">
        <ele>2244</ele>
        <time>2022-07-16T23:25:03Z</time>
      </trkpt>
      <trkpt lat="45.73729" lon="6.63249">
        <ele>2244</ele>
        <time>2022-07-16T23:25:06Z</time>
      </trkpt>
      <trkpt lat="45.73727" lon="6.63247">
        <ele>2244</ele>
        <time>2022-07-16T23:25:09Z</time>
      </trkpt>
      <trkpt lat="45.73726" lon="6.63246">
        <ele>2245</ele>
        <time>2022-07-16T23:25:12Z</time>
      </trkpt>
      <trkpt lat="45.73724" lon="6.63244">
        <ele>2245</ele>
        <time>2022-07-16T23:25:15Z</time>
      </trkpt>
      <trkpt lat="45.73723" lon="6.63242">
        <ele>2246</ele>
        <time>2022-07-16T23:25:18Z</time>
      </trkpt>
      <trkpt lat="45.73722" lon="6.6324">
        <ele>2246</ele>
        <time>2022-07-16T23:25:23Z</time>
      </trkpt>
      <trkpt lat="45.73723" lon="6.63239">
        <ele>2248</ele>
        <time>2022-07-16T23:25:26Z</time>
      </trkpt>
      <trkpt lat="45.73725" lon="6.63239">
        <ele>2248</ele>
        <time>2022-07-16T23:25:30Z</time>
      </trkpt>
      <trkpt lat="45.73727" lon="6.63239">
        <ele>2250</ele>
        <time>2022-07-16T23:25:34Z</time>
      </trkpt>
      <trkpt lat="45.73729" lon="6.63239">
        <ele>2250</ele>
        <time>2022-07-16T23:25:38Z</time>
      </trkpt>
      <trkpt lat="45.73732" lon="6.63238">
        <ele>2250</ele>
        <time>2022-07-16T23:25:42Z</time>
      </trkpt>
      <trkpt lat="45.73734" lon="6.63238">
        <ele>2251</ele>
        <time>2022-07-16T23:25:46Z</time>
      </trkpt>
      <trkpt lat="45.73736" lon="6.63237">
        <ele>2252</ele>
        <time>2022-07-16T23:25:50Z</time>
      </trkpt>
      <trkpt lat="45.73738" lon="6.63236">
        <ele>2252</ele>
        <time>2022-07-16T23:25:54Z</time>
      </trkpt>
      <trkpt lat="45.7374" lon="6.63235">
        <ele>2253</ele>
        <time>2022-07-16T23:25:58Z</time>
      </trkpt>
      <trkpt lat="45.73742" lon="6.63234">
        <ele>2253</ele>
        <time>2022-07-16T23:26:02Z</time>
      </trkpt>
      <trkpt lat="45.73743" lon="6.63233">
        <ele>2254</ele>
        <time>2022-07-16T23:26:05Z</time>
      </trkpt>
      <trkpt lat="45.73745" lon="6.63231">
        <ele>2255</ele>
        <time>2022-07-16T23:26:08Z</time>
      </trkpt>
      <trkpt lat="45.73747" lon="6.6323">
        <ele>2255</ele>
        <time>2022-07-16T23:26:11Z</time>
      </trkpt>
      <trkpt lat="45.73749" lon="6.63228">
        <ele>2256</ele>
        <time>2022-07-16T23:26:14Z</time>
      </trkpt>
      <trkpt lat="45.73751" lon="6.63225">
        <ele>2256</ele>
        <time>2022-07-16T23:26:17Z</time>
      </trkpt>
      <trkpt lat="45.73752" lon="6.63224">
        <ele>2256</ele>
        <time>2022-07-16T23:26:20Z</time>
      </trkpt>
      <trkpt lat="45.73754" lon="6.63222">
        <ele>2256</ele>
        <time>2022-07-16T23:26:23Z</time>
      </trkpt>
      <trkpt lat="45.73756" lon="6.63221">
        <ele>2257</ele>
        <time>2022-07-16T23:26:27Z</time>
      </trkpt>
      <trkpt lat="45.73758" lon="6.63219">
        <ele>2257</ele>
        <time>2022-07-16T23:26:30Z</time>
      </trkpt>
      <trkpt lat="45.7376" lon="6.63218">
        <ele>2258</ele>
        <time>2022-07-16T23:26:34Z</time>
      </trkpt>
      <trkpt lat="45.73762" lon="6.63217">
        <ele>2259</ele>
        <time>2022-07-16T23:26:39Z</time>
      </trkpt>
      <trkpt lat="45.73764" lon="6.63217">
        <ele>2260</ele>
        <time>2022-07-16T23:26:42Z</time>
      </trkpt>
      <trkpt lat="45.73766" lon="6.63215">
        <ele>2260</ele>
        <time>2022-07-16T23:26:45Z</time>
      </trkpt>
      <trkpt lat="45.73768" lon="6.63212">
        <ele>2260</ele>
        <time>2022-07-16T23:26:48Z</time>
      </trkpt>
      <trkpt lat="45.73768" lon="6.63209">
        <ele>2260</ele>
        <time>2022-07-16T23:26:50Z</time>
      </trkpt>
      <trkpt lat="45.7377" lon="6.63206">
        <ele>2261</ele>
        <time>2022-07-16T23:26:53Z</time>
      </trkpt>
      <trkpt lat="45.7377" lon="6.63203">
        <ele>2261</ele>
        <time>2022-07-16T23:26:56Z</time>
      </trkpt>
      <trkpt lat="45.7377" lon="6.632">
        <ele>2261</ele>
        <time>2022-07-16T23:26:59Z</time>
      </trkpt>
      <trkpt lat="45.7377" lon="6.63197">
        <ele>2262</ele>
        <time>2022-07-16T23:27:02Z</time>
      </trkpt>
      <trkpt lat="45.73768" lon="6.63194">
        <ele>2262</ele>
        <time>2022-07-16T23:27:04Z</time>
      </trkpt>
      <trkpt lat="45.73767" lon="6.63191">
        <ele>2262</ele>
        <time>2022-07-16T23:27:06Z</time>
      </trkpt>
      <trkpt lat="45.73765" lon="6.63189">
        <ele>2262</ele>
        <time>2022-07-16T23:27:08Z</time>
      </trkpt>
      <trkpt lat="45.73764" lon="6.63186">
        <ele>2262</ele>
        <time>2022-07-16T23:27:10Z</time>
      </trkpt>
      <trkpt lat="45.73763" lon="6.63183">
        <ele>2262</ele>
        <time>2022-07-16T23:27:12Z</time>
      </trkpt>
      <trkpt lat="45.73761" lon="6.63179">
        <ele>2262</ele>
        <time>2022-07-16T23:27:14Z</time>
      </trkpt>
      <trkpt lat="45.7376" lon="6.63175">
        <ele>2261</ele>
        <time>2022-07-16T23:27:16Z</time>
      </trkpt>
      <trkpt lat="45.7376" lon="6.6317">
        <ele>2261</ele>
        <time>2022-07-16T23:27:18Z</time>
      </trkpt>
      <trkpt lat="45.73761" lon="6.63168">
        <ele>2261</ele>
        <time>2022-07-16T23:27:19Z</time>
      </trkpt>
      <trkpt lat="45.73761" lon="6.63163">
        <ele>2261</ele>
        <time>2022-07-16T23:27:21Z</time>
      </trkpt>
      <trkpt lat="45.73762" lon="6.63159">
        <ele>2261</ele>
        <time>2022-07-16T23:27:23Z</time>
      </trkpt>
      <trkpt lat="45.73763" lon="6.63156">
        <ele>2261</ele>
        <time>2022-07-16T23:27:25Z</time>
      </trkpt>
      <trkpt lat="45.73764" lon="6.63153">
        <ele>2261</ele>
        <time>2022-07-16T23:27:27Z</time>
      </trkpt>
      <trkpt lat="45.73765" lon="6.6315">
        <ele>2261</ele>
        <time>2022-07-16T23:27:29Z</time>
      </trkpt>
      <trkpt lat="45.73765" lon="6.63147">
        <ele>2261</ele>
        <time>2022-07-16T23:27:31Z</time>
      </trkpt>
      <trkpt lat="45.73765" lon="6.63144">
        <ele>2261</ele>
        <time>2022-07-16T23:27:33Z</time>
      </trkpt>
      <trkpt lat="45.73764" lon="6.6314">
        <ele>2261</ele>
        <time>2022-07-16T23:27:35Z</time>
      </trkpt>
      <trkpt lat="45.73764" lon="6.63137">
        <ele>2261</ele>
        <time>2022-07-16T23:27:37Z</time>
      </trkpt>
      <trkpt lat="45.73764" lon="6.63133">
        <ele>2261</ele>
        <time>2022-07-16T23:27:39Z</time>
      </trkpt>
      <trkpt lat="45.73764" lon="6.6313">
        <ele>2261</ele>
        <time>2022-07-16T23:27:41Z</time>
      </trkpt>
      <trkpt lat="45.73764" lon="6.63126">
        <ele>2261</ele>
        <time>2022-07-16T23:27:43Z</time>
      </trkpt>
      <trkpt lat="45.73764" lon="6.63123">
        <ele>2261</ele>
        <time>2022-07-16T23:27:45Z</time>
      </trkpt>
      <trkpt lat="45.73766" lon="6.6312">
        <ele>2261</ele>
        <time>2022-07-16T23:27:47Z</time>
      </trkpt>
      <trkpt lat="45.73767" lon="6.63117">
        <ele>2261</ele>
        <time>2022-07-16T23:27:49Z</time>
      </trkpt>
      <trkpt lat="45.73769" lon="6.63114">
        <ele>2261</ele>
        <time>2022-07-16T23:27:51Z</time>
      </trkpt>
      <trkpt lat="45.7377" lon="6.63111">
        <ele>2261</ele>
        <time>2022-07-16T23:27:53Z</time>
      </trkpt>
      <trkpt lat="45.73772" lon="6.63109">
        <ele>2261</ele>
        <time>2022-07-16T23:27:55Z</time>
      </trkpt>
      <trkpt lat="45.73773" lon="6.63105">
        <ele>2261</ele>
        <time>2022-07-16T23:27:57Z</time>
      </trkpt>
      <trkpt lat="45.73773" lon="6.63102">
        <ele>2261</ele>
        <time>2022-07-16T23:27:59Z</time>
      </trkpt>
      <trkpt lat="45.73774" lon="6.63099">
        <ele>2261</ele>
        <time>2022-07-16T23:28:01Z</time>
      </trkpt>
      <trkpt lat="45.73774" lon="6.63096">
        <ele>2261</ele>
        <time>2022-07-16T23:28:03Z</time>
      </trkpt>
      <trkpt lat="45.73775" lon="6.63093">
        <ele>2261</ele>
        <time>2022-07-16T23:28:05Z</time>
      </trkpt>
      <trkpt lat="45.73776" lon="6.63089">
        <ele>2261</ele>
        <time>2022-07-16T23:28:07Z</time>
      </trkpt>
      <trkpt lat="45.73777" lon="6.63086">
        <ele>2261</ele>
        <time>2022-07-16T23:28:09Z</time>
      </trkpt>
      <trkpt lat="45.73778" lon="6.63082">
        <ele>2261</ele>
        <time>2022-07-16T23:28:11Z</time>
      </trkpt>
      <trkpt lat="45.73779" lon="6.63079">
        <ele>2260</ele>
        <time>2022-07-16T23:28:13Z</time>
      </trkpt>
      <trkpt lat="45.73779" lon="6.63075">
        <ele>2260</ele>
        <time>2022-07-16T23:28:15Z</time>
      </trkpt>
      <trkpt lat="45.7378" lon="6.63072">
        <ele>2260</ele>
        <time>2022-07-16T23:28:17Z</time>
      </trkpt>
      <trkpt lat="45.73781" lon="6.63068">
        <ele>2260</ele>
        <time>2022-07-16T23:28:19Z</time>
      </trkpt>
      <trkpt lat="45.73781" lon="6.63065">
        <ele>2260</ele>
        <time>2022-07-16T23:28:21Z</time>
      </trkpt>
      <trkpt lat="45.73782" lon="6.63061">
        <ele>2260</ele>
        <time>2022-07-16T23:28:23Z</time>
      </trkpt>
      <trkpt lat="45.73782" lon="6.63058">
        <ele>2260</ele>
        <time>2022-07-16T23:28:25Z</time>
      </trkpt>
      <trkpt lat="45.73783" lon="6.63054">
        <ele>2261</ele>
        <time>2022-07-16T23:28:27Z</time>
      </trkpt>
      <trkpt lat="45.73783" lon="6.6305">
        <ele>2261</ele>
        <time>2022-07-16T23:28:29Z</time>
      </trkpt>
      <trkpt lat="45.73785" lon="6.63046">
        <ele>2261</ele>
        <time>2022-07-16T23:28:31Z</time>
      </trkpt>
      <trkpt lat="45.73786" lon="6.63043">
        <ele>2261</ele>
        <time>2022-07-16T23:28:33Z</time>
      </trkpt>
      <trkpt lat="45.73787" lon="6.63039">
        <ele>2261</ele>
        <time>2022-07-16T23:28:35Z</time>
      </trkpt>
      <trkpt lat="45.73787" lon="6.63035">
        <ele>2261</ele>
        <time>2022-07-16T23:28:37Z</time>
      </trkpt>
      <trkpt lat="45.73788" lon="6.63031">
        <ele>2261</ele>
        <time>2022-07-16T23:28:39Z</time>
      </trkpt>
      <trkpt lat="45.73789" lon="6.63027">
        <ele>2261</ele>
        <time>2022-07-16T23:28:41Z</time>
      </trkpt>
      <trkpt lat="45.7379" lon="6.63022">
        <ele>2261</ele>
        <time>2022-07-16T23:28:43Z</time>
      </trkpt>
      <trkpt lat="45.7379" lon="6.63018">
        <ele>2261</ele>
        <time>2022-07-16T23:28:45Z</time>
      </trkpt>
      <trkpt lat="45.73791" lon="6.63015">
        <ele>2261</ele>
        <time>2022-07-16T23:28:47Z</time>
      </trkpt>
      <trkpt lat="45.73793" lon="6.63011">
        <ele>2261</ele>
        <time>2022-07-16T23:28:49Z</time>
      </trkpt>
      <trkpt lat="45.73794" lon="6.63008">
        <ele>2261</ele>
        <time>2022-07-16T23:28:51Z</time>
      </trkpt>
      <trkpt lat="45.73795" lon="6.63005">
        <ele>2260</ele>
        <time>2022-07-16T23:28:53Z</time>
      </trkpt>
      <trkpt lat="45.73795" lon="6.63001">
        <ele>2260</ele>
        <time>2022-07-16T23:28:55Z</time>
      </trkpt>
      <trkpt lat="45.73795" lon="6.62997">
        <ele>2260</ele>
        <time>2022-07-16T23:28:57Z</time>
      </trkpt>
      <trkpt lat="45.73795" lon="6.62993">
        <ele>2260</ele>
        <time>2022-07-16T23:28:59Z</time>
      </trkpt>
      <trkpt lat="45.73795" lon="6.6299">
        <ele>2260</ele>
        <time>2022-07-16T23:29:01Z</time>
      </trkpt>
      <trkpt lat="45.73796" lon="6.62986">
        <ele>2260</ele>
        <time>2022-07-16T23:29:03Z</time>
      </trkpt>
      <trkpt lat="45.73796" lon="6.62982">
        <ele>2260</ele>
        <time>2022-07-16T23:29:05Z</time>
      </trkpt>
      <trkpt lat="45.73796" lon="6.62979">
        <ele>2260</ele>
        <time>2022-07-16T23:29:07Z</time>
      </trkpt>
      <trkpt lat="45.73795" lon="6.62975">
        <ele>2260</ele>
        <time>2022-07-16T23:29:09Z</time>
      </trkpt>
      <trkpt lat="45.73796" lon="6.62972">
        <ele>2260</ele>
        <time>2022-07-16T23:29:11Z</time>
      </trkpt>
      <trkpt lat="45.73796" lon="6.62969">
        <ele>2260</ele>
        <time>2022-07-16T23:29:13Z</time>
      </trkpt>
      <trkpt lat="45.73795" lon="6.62966">
        <ele>2260</ele>
        <time>2022-07-16T23:29:15Z</time>
      </trkpt>
      <trkpt lat="45.73794" lon="6.62963">
        <ele>2260</ele>
        <time>2022-07-16T23:29:17Z</time>
      </trkpt>
      <trkpt lat="45.73794" lon="6.62959">
        <ele>2260</ele>
        <time>2022-07-16T23:29:19Z</time>
      </trkpt>
      <trkpt lat="45.73794" lon="6.62956">
        <ele>2260</ele>
        <time>2022-07-16T23:29:21Z</time>
      </trkpt>
      <trkpt lat="45.73795" lon="6.62953">
        <ele>2261</ele>
        <time>2022-07-16T23:29:23Z</time>
      </trkpt>
      <trkpt lat="45.73794" lon="6.62949">
        <ele>2261</ele>
        <time>2022-07-16T23:29:26Z</time>
      </trkpt>
      <trkpt lat="45.73794" lon="6.62946">
        <ele>2261</ele>
        <time>2022-07-16T23:29:28Z</time>
      </trkpt>
      <trkpt lat="45.73794" lon="6.62942">
        <ele>2261</ele>
        <time>2022-07-16T23:29:30Z</time>
      </trkpt>
      <trkpt lat="45.73794" lon="6.62939">
        <ele>2261</ele>
        <time>2022-07-16T23:29:32Z</time>
      </trkpt>
      <trkpt lat="45.73794" lon="6.62936">
        <ele>2261</ele>
        <time>2022-07-16T23:29:34Z</time>
      </trkpt>
      <trkpt lat="45.73793" lon="6.62933">
        <ele>2261</ele>
        <time>2022-07-16T23:29:37Z</time>
      </trkpt>
      <trkpt lat="45.73792" lon="6.6293">
        <ele>2261</ele>
        <time>2022-07-16T23:29:39Z</time>
      </trkpt>
      <trkpt lat="45.73792" lon="6.62926">
        <ele>2261</ele>
        <time>2022-07-16T23:29:41Z</time>
      </trkpt>
      <trkpt lat="45.73791" lon="6.62923">
        <ele>2261</ele>
        <time>2022-07-16T23:29:43Z</time>
      </trkpt>
      <trkpt lat="45.73791" lon="6.6292">
        <ele>2261</ele>
        <time>2022-07-16T23:29:45Z</time>
      </trkpt>
      <trkpt lat="45.73792" lon="6.62916">
        <ele>2261</ele>
        <time>2022-07-16T23:29:47Z</time>
      </trkpt>
      <trkpt lat="45.73792" lon="6.62913">
        <ele>2260</ele>
        <time>2022-07-16T23:29:49Z</time>
      </trkpt>
      <trkpt lat="45.73791" lon="6.62909">
        <ele>2260</ele>
        <time>2022-07-16T23:29:51Z</time>
      </trkpt>
      <trkpt lat="45.73789" lon="6.62906">
        <ele>2260</ele>
        <time>2022-07-16T23:29:53Z</time>
      </trkpt>
      <trkpt lat="45.73788" lon="6.62902">
        <ele>2260</ele>
        <time>2022-07-16T23:29:55Z</time>
      </trkpt>
      <trkpt lat="45.73787" lon="6.62899">
        <ele>2260</ele>
        <time>2022-07-16T23:29:57Z</time>
      </trkpt>
      <trkpt lat="45.73786" lon="6.62896">
        <ele>2259</ele>
        <time>2022-07-16T23:29:59Z</time>
      </trkpt>
      <trkpt lat="45.73785" lon="6.62893">
        <ele>2259</ele>
        <time>2022-07-16T23:30:01Z</time>
      </trkpt>
      <trkpt lat="45.73784" lon="6.6289">
        <ele>2259</ele>
        <time>2022-07-16T23:30:03Z</time>
      </trkpt>
      <trkpt lat="45.73784" lon="6.62887">
        <ele>2259</ele>
        <time>2022-07-16T23:30:04Z</time>
      </trkpt>
      <trkpt lat="45.73783" lon="6.62884">
        <ele>2259</ele>
        <time>2022-07-16T23:30:08Z</time>
      </trkpt>
      <trkpt lat="45.73783" lon="6.62881">
        <ele>2259</ele>
        <time>2022-07-16T23:30:10Z</time>
      </trkpt>
      <trkpt lat="45.73782" lon="6.62878">
        <ele>2259</ele>
        <time>2022-07-16T23:30:12Z</time>
      </trkpt>
      <trkpt lat="45.73781" lon="6.62875">
        <ele>2259</ele>
        <time>2022-07-16T23:30:14Z</time>
      </trkpt>
      <trkpt lat="45.7378" lon="6.62873">
        <ele>2259</ele>
        <time>2022-07-16T23:30:16Z</time>
      </trkpt>
      <trkpt lat="45.73779" lon="6.62869">
        <ele>2260</ele>
        <time>2022-07-16T23:30:18Z</time>
      </trkpt>
      <trkpt lat="45.73778" lon="6.62866">
        <ele>2260</ele>
        <time>2022-07-16T23:30:20Z</time>
      </trkpt>
      <trkpt lat="45.73777" lon="6.62863">
        <ele>2261</ele>
        <time>2022-07-16T23:30:22Z</time>
      </trkpt>
      <trkpt lat="45.73777" lon="6.6286">
        <ele>2261</ele>
        <time>2022-07-16T23:30:23Z</time>
      </trkpt>
      <trkpt lat="45.73776" lon="6.62857">
        <ele>2261</ele>
        <time>2022-07-16T23:30:26Z</time>
      </trkpt>
      <trkpt lat="45.73775" lon="6.62854">
        <ele>2261</ele>
        <time>2022-07-16T23:30:28Z</time>
      </trkpt>
      <trkpt lat="45.73774" lon="6.62851">
        <ele>2261</ele>
        <time>2022-07-16T23:30:30Z</time>
      </trkpt>
      <trkpt lat="45.73773" lon="6.62848">
        <ele>2261</ele>
        <time>2022-07-16T23:30:32Z</time>
      </trkpt>
      <trkpt lat="45.73771" lon="6.62845">
        <ele>2262</ele>
        <time>2022-07-16T23:30:34Z</time>
      </trkpt>
      <trkpt lat="45.7377" lon="6.62842">
        <ele>2262</ele>
        <time>2022-07-16T23:30:36Z</time>
      </trkpt>
      <trkpt lat="45.73769" lon="6.62839">
        <ele>2262</ele>
        <time>2022-07-16T23:30:38Z</time>
      </trkpt>
      <trkpt lat="45.73768" lon="6.62835">
        <ele>2262</ele>
        <time>2022-07-16T23:30:40Z</time>
      </trkpt>
      <trkpt lat="45.73767" lon="6.62832">
        <ele>2262</ele>
        <time>2022-07-16T23:30:42Z</time>
      </trkpt>
      <trkpt lat="45.73766" lon="6.62829">
        <ele>2262</ele>
        <time>2022-07-16T23:30:44Z</time>
      </trkpt>
      <trkpt lat="45.73765" lon="6.62826">
        <ele>2262</ele>
        <time>2022-07-16T23:30:46Z</time>
      </trkpt>
      <trkpt lat="45.73764" lon="6.62822">
        <ele>2262</ele>
        <time>2022-07-16T23:30:48Z</time>
      </trkpt>
      <trkpt lat="45.73762" lon="6.62819">
        <ele>2262</ele>
        <time>2022-07-16T23:30:50Z</time>
      </trkpt>
      <trkpt lat="45.73761" lon="6.62816">
        <ele>2262</ele>
        <time>2022-07-16T23:30:52Z</time>
      </trkpt>
      <trkpt lat="45.73759" lon="6.62813">
        <ele>2262</ele>
        <time>2022-07-16T23:30:54Z</time>
      </trkpt>
      <trkpt lat="45.73758" lon="6.6281">
        <ele>2262</ele>
        <time>2022-07-16T23:30:56Z</time>
      </trkpt>
      <trkpt lat="45.73757" lon="6.62807">
        <ele>2262</ele>
        <time>2022-07-16T23:30:58Z</time>
      </trkpt>
      <trkpt lat="45.73755" lon="6.62804">
        <ele>2262</ele>
        <time>2022-07-16T23:31:00Z</time>
      </trkpt>
      <trkpt lat="45.73754" lon="6.62801">
        <ele>2262</ele>
        <time>2022-07-16T23:31:02Z</time>
      </trkpt>
      <trkpt lat="45.73753" lon="6.62798">
        <ele>2263</ele>
        <time>2022-07-16T23:31:04Z</time>
      </trkpt>
      <trkpt lat="45.73752" lon="6.62796">
        <ele>2263</ele>
        <time>2022-07-16T23:31:06Z</time>
      </trkpt>
      <trkpt lat="45.7375" lon="6.62793">
        <ele>2264</ele>
        <time>2022-07-16T23:31:11Z</time>
      </trkpt>
      <trkpt lat="45.73749" lon="6.6279">
        <ele>2265</ele>
        <time>2022-07-16T23:31:13Z</time>
      </trkpt>
      <trkpt lat="45.73747" lon="6.62788">
        <ele>2265</ele>
        <time>2022-07-16T23:31:16Z</time>
      </trkpt>
      <trkpt lat="45.73745" lon="6.62786">
        <ele>2265</ele>
        <time>2022-07-16T23:31:18Z</time>
      </trkpt>
      <trkpt lat="45.73744" lon="6.62784">
        <ele>2266</ele>
        <time>2022-07-16T23:31:20Z</time>
      </trkpt>
      <trkpt lat="45.73742" lon="6.62782">
        <ele>2266</ele>
        <time>2022-07-16T23:31:23Z</time>
      </trkpt>
      <trkpt lat="45.7374" lon="6.6278">
        <ele>2266</ele>
        <time>2022-07-16T23:31:25Z</time>
      </trkpt>
      <trkpt lat="45.73739" lon="6.62778">
        <ele>2267</ele>
        <time>2022-07-16T23:31:27Z</time>
      </trkpt>
      <trkpt lat="45.73737" lon="6.62776">
        <ele>2267</ele>
        <time>2022-07-16T23:31:29Z</time>
      </trkpt>
      <trkpt lat="45.73736" lon="6.62773">
        <ele>2267</ele>
        <time>2022-07-16T23:31:31Z</time>
      </trkpt>
      <trkpt lat="45.73734" lon="6.62771">
        <ele>2267</ele>
        <time>2022-07-16T23:31:33Z</time>
      </trkpt>
      <trkpt lat="45.73732" lon="6.62768">
        <ele>2267</ele>
        <time>2022-07-16T23:31:35Z</time>
      </trkpt>
      <trkpt lat="45.73729" lon="6.62766">
        <ele>2267</ele>
        <time>2022-07-16T23:31:37Z</time>
      </trkpt>
      <trkpt lat="45.73727" lon="6.62764">
        <ele>2267</ele>
        <time>2022-07-16T23:31:39Z</time>
      </trkpt>
      <trkpt lat="45.73725" lon="6.62762">
        <ele>2267</ele>
        <time>2022-07-16T23:31:41Z</time>
      </trkpt>
      <trkpt lat="45.73723" lon="6.6276">
        <ele>2267</ele>
        <time>2022-07-16T23:31:43Z</time>
      </trkpt>
      <trkpt lat="45.73721" lon="6.62757">
        <ele>2267</ele>
        <time>2022-07-16T23:31:45Z</time>
      </trkpt>
      <trkpt lat="45.73719" lon="6.62754">
        <ele>2267</ele>
        <time>2022-07-16T23:31:47Z</time>
      </trkpt>
      <trkpt lat="45.73716" lon="6.62751">
        <ele>2266</ele>
        <time>2022-07-16T23:31:49Z</time>
      </trkpt>
      <trkpt lat="45.73714" lon="6.62748">
        <ele>2266</ele>
        <time>2022-07-16T23:31:51Z</time>
      </trkpt>
      <trkpt lat="45.73711" lon="6.62747">
        <ele>2265</ele>
        <time>2022-07-16T23:31:53Z</time>
      </trkpt>
      <trkpt lat="45.73709" lon="6.62745">
        <ele>2264</ele>
        <time>2022-07-16T23:31:55Z</time>
      </trkpt>
      <trkpt lat="45.73707" lon="6.62742">
        <ele>2264</ele>
        <time>2022-07-16T23:31:57Z</time>
      </trkpt>
      <trkpt lat="45.73705" lon="6.62739">
        <ele>2264</ele>
        <time>2022-07-16T23:31:59Z</time>
      </trkpt>
      <trkpt lat="45.73703" lon="6.62736">
        <ele>2261</ele>
        <time>2022-07-16T23:32:01Z</time>
      </trkpt>
      <trkpt lat="45.737" lon="6.62734">
        <ele>2261</ele>
        <time>2022-07-16T23:32:03Z</time>
      </trkpt>
      <trkpt lat="45.73699" lon="6.62731">
        <ele>2261</ele>
        <time>2022-07-16T23:32:05Z</time>
      </trkpt>
      <trkpt lat="45.73697" lon="6.62727">
        <ele>2261</ele>
        <time>2022-07-16T23:32:07Z</time>
      </trkpt>
      <trkpt lat="45.73695" lon="6.62724">
        <ele>2260</ele>
        <time>2022-07-16T23:32:09Z</time>
      </trkpt>
      <trkpt lat="45.73692" lon="6.62721">
        <ele>2259</ele>
        <time>2022-07-16T23:32:11Z</time>
      </trkpt>
      <trkpt lat="45.7369" lon="6.62718">
        <ele>2259</ele>
        <time>2022-07-16T23:32:13Z</time>
      </trkpt>
      <trkpt lat="45.73688" lon="6.62717">
        <ele>2259</ele>
        <time>2022-07-16T23:32:14Z</time>
      </trkpt>
      <trkpt lat="45.73686" lon="6.62714">
        <ele>2258</ele>
        <time>2022-07-16T23:32:16Z</time>
      </trkpt>
      <trkpt lat="45.73683" lon="6.62712">
        <ele>2258</ele>
        <time>2022-07-16T23:32:17Z</time>
      </trkpt>
      <trkpt lat="45.73681" lon="6.6271">
        <ele>2258</ele>
        <time>2022-07-16T23:32:20Z</time>
      </trkpt>
      <trkpt lat="45.73679" lon="6.62708">
        <ele>2257</ele>
        <time>2022-07-16T23:32:22Z</time>
      </trkpt>
      <trkpt lat="45.73676" lon="6.62706">
        <ele>2257</ele>
        <time>2022-07-16T23:32:24Z</time>
      </trkpt>
      <trkpt lat="45.73674" lon="6.62705">
        <ele>2257</ele>
        <time>2022-07-16T23:32:26Z</time>
      </trkpt>
      <trkpt lat="45.73672" lon="6.62702">
        <ele>2256</ele>
        <time>2022-07-16T23:32:28Z</time>
      </trkpt>
      <trkpt lat="45.7367" lon="6.627">
        <ele>2256</ele>
        <time>2022-07-16T23:32:30Z</time>
      </trkpt>
      <trkpt lat="45.73668" lon="6.62697">
        <ele>2256</ele>
        <time>2022-07-16T23:32:32Z</time>
      </trkpt>
      <trkpt lat="45.73667" lon="6.62694">
        <ele>2256</ele>
        <time>2022-07-16T23:32:34Z</time>
      </trkpt>
      <trkpt lat="45.73665" lon="6.62691">
        <ele>2256</ele>
        <time>2022-07-16T23:32:36Z</time>
      </trkpt>
      <trkpt lat="45.73663" lon="6.62688">
        <ele>2255</ele>
        <time>2022-07-16T23:32:38Z</time>
      </trkpt>
      <trkpt lat="45.73662" lon="6.62687">
        <ele>2254</ele>
        <time>2022-07-16T23:32:40Z</time>
      </trkpt>
      <trkpt lat="45.73659" lon="6.62688">
        <ele>2254</ele>
        <time>2022-07-16T23:32:42Z</time>
      </trkpt>
      <trkpt lat="45.73656" lon="6.62686">
        <ele>2254</ele>
        <time>2022-07-16T23:32:44Z</time>
      </trkpt>
      <trkpt lat="45.73654" lon="6.62684">
        <ele>2254</ele>
        <time>2022-07-16T23:32:46Z</time>
      </trkpt>
      <trkpt lat="45.73653" lon="6.62682">
        <ele>2255</ele>
        <time>2022-07-16T23:32:48Z</time>
      </trkpt>
      <trkpt lat="45.73651" lon="6.62679">
        <ele>2255</ele>
        <time>2022-07-16T23:32:50Z</time>
      </trkpt>
      <trkpt lat="45.73648" lon="6.62677">
        <ele>2255</ele>
        <time>2022-07-16T23:32:52Z</time>
      </trkpt>
      <trkpt lat="45.73646" lon="6.62675">
        <ele>2255</ele>
        <time>2022-07-16T23:32:54Z</time>
      </trkpt>
      <trkpt lat="45.73644" lon="6.62673">
        <ele>2255</ele>
        <time>2022-07-16T23:32:55Z</time>
      </trkpt>
      <trkpt lat="45.73642" lon="6.62671">
        <ele>2255</ele>
        <time>2022-07-16T23:32:58Z</time>
      </trkpt>
      <trkpt lat="45.7364" lon="6.62668">
        <ele>2255</ele>
        <time>2022-07-16T23:33:00Z</time>
      </trkpt>
      <trkpt lat="45.73639" lon="6.62665">
        <ele>2255</ele>
        <time>2022-07-16T23:33:02Z</time>
      </trkpt>
      <trkpt lat="45.73637" lon="6.62662">
        <ele>2255</ele>
        <time>2022-07-16T23:33:04Z</time>
      </trkpt>
      <trkpt lat="45.73635" lon="6.62659">
        <ele>2255</ele>
        <time>2022-07-16T23:33:06Z</time>
      </trkpt>
      <trkpt lat="45.73634" lon="6.62657">
        <ele>2255</ele>
        <time>2022-07-16T23:33:08Z</time>
      </trkpt>
      <trkpt lat="45.73632" lon="6.62654">
        <ele>2255</ele>
        <time>2022-07-16T23:33:10Z</time>
      </trkpt>
      <trkpt lat="45.7363" lon="6.62651">
        <ele>2255</ele>
        <time>2022-07-16T23:33:12Z</time>
      </trkpt>
      <trkpt lat="45.73629" lon="6.62648">
        <ele>2254</ele>
        <time>2022-07-16T23:33:14Z</time>
      </trkpt>
      <trkpt lat="45.73627" lon="6.62646">
        <ele>2254</ele>
        <time>2022-07-16T23:33:16Z</time>
      </trkpt>
      <trkpt lat="45.73626" lon="6.62644">
        <ele>2253</ele>
        <time>2022-07-16T23:33:18Z</time>
      </trkpt>
      <trkpt lat="45.73624" lon="6.62642">
        <ele>2253</ele>
        <time>2022-07-16T23:33:20Z</time>
      </trkpt>
      <trkpt lat="45.73621" lon="6.6264">
        <ele>2253</ele>
        <time>2022-07-16T23:33:22Z</time>
      </trkpt>
      <trkpt lat="45.73619" lon="6.62638">
        <ele>2253</ele>
        <time>2022-07-16T23:33:24Z</time>
      </trkpt>
      <trkpt lat="45.73618" lon="6.62635">
        <ele>2253</ele>
        <time>2022-07-16T23:33:26Z</time>
      </trkpt>
      <trkpt lat="45.73616" lon="6.62632">
        <ele>2253</ele>
        <time>2022-07-16T23:33:28Z</time>
      </trkpt>
      <trkpt lat="45.73615" lon="6.62629">
        <ele>2253</ele>
        <time>2022-07-16T23:33:30Z</time>
      </trkpt>
      <trkpt lat="45.73613" lon="6.62627">
        <ele>2253</ele>
        <time>2022-07-16T23:33:32Z</time>
      </trkpt>
      <trkpt lat="45.73611" lon="6.62625">
        <ele>2253</ele>
        <time>2022-07-16T23:33:34Z</time>
      </trkpt>
      <trkpt lat="45.73608" lon="6.62623">
        <ele>2252</ele>
        <time>2022-07-16T23:33:36Z</time>
      </trkpt>
      <trkpt lat="45.73607" lon="6.6262">
        <ele>2252</ele>
        <time>2022-07-16T23:33:38Z</time>
      </trkpt>
      <trkpt lat="45.73605" lon="6.62616">
        <ele>2252</ele>
        <time>2022-07-16T23:33:40Z</time>
      </trkpt>
      <trkpt lat="45.73603" lon="6.62613">
        <ele>2252</ele>
        <time>2022-07-16T23:33:42Z</time>
      </trkpt>
      <trkpt lat="45.73602" lon="6.6261">
        <ele>2252</ele>
        <time>2022-07-16T23:33:44Z</time>
      </trkpt>
      <trkpt lat="45.736" lon="6.62607">
        <ele>2252</ele>
        <time>2022-07-16T23:33:46Z</time>
      </trkpt>
      <trkpt lat="45.73598" lon="6.62605">
        <ele>2252</ele>
        <time>2022-07-16T23:33:48Z</time>
      </trkpt>
      <trkpt lat="45.73596" lon="6.62602">
        <ele>2252</ele>
        <time>2022-07-16T23:33:50Z</time>
      </trkpt>
      <trkpt lat="45.73594" lon="6.626">
        <ele>2251</ele>
        <time>2022-07-16T23:33:52Z</time>
      </trkpt>
      <trkpt lat="45.73592" lon="6.62598">
        <ele>2251</ele>
        <time>2022-07-16T23:33:54Z</time>
      </trkpt>
      <trkpt lat="45.7359" lon="6.62596">
        <ele>2250</ele>
        <time>2022-07-16T23:33:56Z</time>
      </trkpt>
      <trkpt lat="45.73588" lon="6.62595">
        <ele>2250</ele>
        <time>2022-07-16T23:33:58Z</time>
      </trkpt>
      <trkpt lat="45.73585" lon="6.62594">
        <ele>2249</ele>
        <time>2022-07-16T23:34:00Z</time>
      </trkpt>
      <trkpt lat="45.73581" lon="6.62593">
        <ele>2249</ele>
        <time>2022-07-16T23:34:02Z</time>
      </trkpt>
      <trkpt lat="45.73578" lon="6.62593">
        <ele>2248</ele>
        <time>2022-07-16T23:34:04Z</time>
      </trkpt>
      <trkpt lat="45.73574" lon="6.62593">
        <ele>2248</ele>
        <time>2022-07-16T23:34:06Z</time>
      </trkpt>
      <trkpt lat="45.73571" lon="6.62593">
        <ele>2246</ele>
        <time>2022-07-16T23:34:08Z</time>
      </trkpt>
      <trkpt lat="45.73568" lon="6.62592">
        <ele>2246</ele>
        <time>2022-07-16T23:34:10Z</time>
      </trkpt>
      <trkpt lat="45.73565" lon="6.62592">
        <ele>2245</ele>
        <time>2022-07-16T23:34:11Z</time>
      </trkpt>
      <trkpt lat="45.73563" lon="6.62593">
        <ele>2245</ele>
        <time>2022-07-16T23:34:14Z</time>
      </trkpt>
      <trkpt lat="45.7356" lon="6.62593">
        <ele>2244</ele>
        <time>2022-07-16T23:34:16Z</time>
      </trkpt>
      <trkpt lat="45.73557" lon="6.62593">
        <ele>2243</ele>
        <time>2022-07-16T23:34:18Z</time>
      </trkpt>
      <trkpt lat="45.73554" lon="6.62593">
        <ele>2243</ele>
        <time>2022-07-16T23:34:20Z</time>
      </trkpt>
      <trkpt lat="45.73551" lon="6.62593">
        <ele>2242</ele>
        <time>2022-07-16T23:34:22Z</time>
      </trkpt>
      <trkpt lat="45.73548" lon="6.62593">
        <ele>2242</ele>
        <time>2022-07-16T23:34:24Z</time>
      </trkpt>
      <trkpt lat="45.73546" lon="6.62592">
        <ele>2242</ele>
        <time>2022-07-16T23:34:26Z</time>
      </trkpt>
      <trkpt lat="45.73544" lon="6.62592">
        <ele>2241</ele>
        <time>2022-07-16T23:34:28Z</time>
      </trkpt>
      <trkpt lat="45.73541" lon="6.62592">
        <ele>2240</ele>
        <time>2022-07-16T23:34:30Z</time>
      </trkpt>
      <trkpt lat="45.73538" lon="6.62591">
        <ele>2239</ele>
        <time>2022-07-16T23:34:32Z</time>
      </trkpt>
      <trkpt lat="45.73535" lon="6.62591">
        <ele>2238</ele>
        <time>2022-07-16T23:34:34Z</time>
      </trkpt>
      <trkpt lat="45.73532" lon="6.6259">
        <ele>2238</ele>
        <time>2022-07-16T23:34:36Z</time>
      </trkpt>
      <trkpt lat="45.73529" lon="6.6259">
        <ele>2238</ele>
        <time>2022-07-16T23:34:38Z</time>
      </trkpt>
      <trkpt lat="45.73526" lon="6.62589">
        <ele>2238</ele>
        <time>2022-07-16T23:34:40Z</time>
      </trkpt>
      <trkpt lat="45.73524" lon="6.62587">
        <ele>2238</ele>
        <time>2022-07-16T23:34:42Z</time>
      </trkpt>
      <trkpt lat="45.73521" lon="6.62586">
        <ele>2237</ele>
        <time>2022-07-16T23:34:44Z</time>
      </trkpt>
      <trkpt lat="45.73518" lon="6.62584">
        <ele>2237</ele>
        <time>2022-07-16T23:34:46Z</time>
      </trkpt>
      <trkpt lat="45.73515" lon="6.62584">
        <ele>2236</ele>
        <time>2022-07-16T23:34:48Z</time>
      </trkpt>
      <trkpt lat="45.73513" lon="6.62583">
        <ele>2236</ele>
        <time>2022-07-16T23:34:49Z</time>
      </trkpt>
      <trkpt lat="45.7351" lon="6.62581">
        <ele>2236</ele>
        <time>2022-07-16T23:34:51Z</time>
      </trkpt>
      <trkpt lat="45.73507" lon="6.62579">
        <ele>2235</ele>
        <time>2022-07-16T23:34:53Z</time>
      </trkpt>
      <trkpt lat="45.73504" lon="6.62578">
        <ele>2235</ele>
        <time>2022-07-16T23:34:55Z</time>
      </trkpt>
      <trkpt lat="45.73501" lon="6.62576">
        <ele>2235</ele>
        <time>2022-07-16T23:34:57Z</time>
      </trkpt>
      <trkpt lat="45.73499" lon="6.62574">
        <ele>2235</ele>
        <time>2022-07-16T23:34:59Z</time>
      </trkpt>
      <trkpt lat="45.73496" lon="6.62572">
        <ele>2234</ele>
        <time>2022-07-16T23:35:01Z</time>
      </trkpt>
      <trkpt lat="45.73493" lon="6.6257">
        <ele>2234</ele>
        <time>2022-07-16T23:35:03Z</time>
      </trkpt>
      <trkpt lat="45.73491" lon="6.62567">
        <ele>2234</ele>
        <time>2022-07-16T23:35:05Z</time>
      </trkpt>
      <trkpt lat="45.73489" lon="6.62564">
        <ele>2234</ele>
        <time>2022-07-16T23:35:07Z</time>
      </trkpt>
      <trkpt lat="45.73486" lon="6.62562">
        <ele>2233</ele>
        <time>2022-07-16T23:35:08Z</time>
      </trkpt>
      <trkpt lat="45.73485" lon="6.62559">
        <ele>2233</ele>
        <time>2022-07-16T23:35:11Z</time>
      </trkpt>
      <trkpt lat="45.73482" lon="6.62556">
        <ele>2232</ele>
        <time>2022-07-16T23:35:13Z</time>
      </trkpt>
      <trkpt lat="45.7348" lon="6.62554">
        <ele>2231</ele>
        <time>2022-07-16T23:35:15Z</time>
      </trkpt>
      <trkpt lat="45.73478" lon="6.62552">
        <ele>2231</ele>
        <time>2022-07-16T23:35:17Z</time>
      </trkpt>
      <trkpt lat="45.73475" lon="6.62551">
        <ele>2230</ele>
        <time>2022-07-16T23:35:19Z</time>
      </trkpt>
      <trkpt lat="45.73473" lon="6.6255">
        <ele>2230</ele>
        <time>2022-07-16T23:35:21Z</time>
      </trkpt>
      <trkpt lat="45.7347" lon="6.62548">
        <ele>2230</ele>
        <time>2022-07-16T23:35:23Z</time>
      </trkpt>
      <trkpt lat="45.73468" lon="6.62546">
        <ele>2229</ele>
        <time>2022-07-16T23:35:25Z</time>
      </trkpt>
      <trkpt lat="45.73466" lon="6.62545">
        <ele>2229</ele>
        <time>2022-07-16T23:35:27Z</time>
      </trkpt>
      <trkpt lat="45.73464" lon="6.62543">
        <ele>2228</ele>
        <time>2022-07-16T23:35:29Z</time>
      </trkpt>
      <trkpt lat="45.73461" lon="6.62543">
        <ele>2227</ele>
        <time>2022-07-16T23:35:31Z</time>
      </trkpt>
      <trkpt lat="45.73459" lon="6.62541">
        <ele>2227</ele>
        <time>2022-07-16T23:35:33Z</time>
      </trkpt>
      <trkpt lat="45.73457" lon="6.62539">
        <ele>2226</ele>
        <time>2022-07-16T23:35:35Z</time>
      </trkpt>
      <trkpt lat="45.73456" lon="6.62537">
        <ele>2225</ele>
        <time>2022-07-16T23:35:38Z</time>
      </trkpt>
      <trkpt lat="45.73454" lon="6.62536">
        <ele>2224</ele>
        <time>2022-07-16T23:35:41Z</time>
      </trkpt>
      <trkpt lat="45.73451" lon="6.62534">
        <ele>2223</ele>
        <time>2022-07-16T23:35:44Z</time>
      </trkpt>
      <trkpt lat="45.73449" lon="6.62533">
        <ele>2223</ele>
        <time>2022-07-16T23:35:46Z</time>
      </trkpt>
      <trkpt lat="45.73448" lon="6.62532">
        <ele>2220</ele>
        <time>2022-07-16T23:35:48Z</time>
      </trkpt>
      <trkpt lat="45.73446" lon="6.62531">
        <ele>2219</ele>
        <time>2022-07-16T23:35:50Z</time>
      </trkpt>
      <trkpt lat="45.73445" lon="6.62529">
        <ele>2219</ele>
        <time>2022-07-16T23:35:52Z</time>
      </trkpt>
      <trkpt lat="45.73442" lon="6.62528">
        <ele>2219</ele>
        <time>2022-07-16T23:35:55Z</time>
      </trkpt>
      <trkpt lat="45.7344" lon="6.62527">
        <ele>2218</ele>
        <time>2022-07-16T23:35:57Z</time>
      </trkpt>
      <trkpt lat="45.73438" lon="6.62527">
        <ele>2218</ele>
        <time>2022-07-16T23:35:59Z</time>
      </trkpt>
      <trkpt lat="45.73436" lon="6.62527">
        <ele>2216</ele>
        <time>2022-07-16T23:36:01Z</time>
      </trkpt>
      <trkpt lat="45.73435" lon="6.62526">
        <ele>2216</ele>
        <time>2022-07-16T23:36:03Z</time>
      </trkpt>
      <trkpt lat="45.73432" lon="6.62525">
        <ele>2216</ele>
        <time>2022-07-16T23:36:05Z</time>
      </trkpt>
      <trkpt lat="45.7343" lon="6.62523">
        <ele>2215</ele>
        <time>2022-07-16T23:36:07Z</time>
      </trkpt>
      <trkpt lat="45.73427" lon="6.62522">
        <ele>2214</ele>
        <time>2022-07-16T23:36:09Z</time>
      </trkpt>
      <trkpt lat="45.73425" lon="6.62521">
        <ele>2214</ele>
        <time>2022-07-16T23:36:10Z</time>
      </trkpt>
      <trkpt lat="45.73423" lon="6.6252">
        <ele>2214</ele>
        <time>2022-07-16T23:36:11Z</time>
      </trkpt>
      <trkpt lat="45.7342" lon="6.62518">
        <ele>2214</ele>
        <time>2022-07-16T23:36:13Z</time>
      </trkpt>
      <trkpt lat="45.73417" lon="6.62517">
        <ele>2213</ele>
        <time>2022-07-16T23:36:15Z</time>
      </trkpt>
      <trkpt lat="45.73414" lon="6.62515">
        <ele>2213</ele>
        <time>2022-07-16T23:36:17Z</time>
      </trkpt>
      <trkpt lat="45.73411" lon="6.62514">
        <ele>2212</ele>
        <time>2022-07-16T23:36:19Z</time>
      </trkpt>
      <trkpt lat="45.73409" lon="6.62512">
        <ele>2211</ele>
        <time>2022-07-16T23:36:21Z</time>
      </trkpt>
      <trkpt lat="45.73406" lon="6.62511">
        <ele>2210</ele>
        <time>2022-07-16T23:36:23Z</time>
      </trkpt>
      <trkpt lat="45.73404" lon="6.62512">
        <ele>2210</ele>
        <time>2022-07-16T23:36:25Z</time>
      </trkpt>
      <trkpt lat="45.73402" lon="6.62514">
        <ele>2210</ele>
        <time>2022-07-16T23:36:27Z</time>
      </trkpt>
      <trkpt lat="45.73399" lon="6.62515">
        <ele>2209</ele>
        <time>2022-07-16T23:36:30Z</time>
      </trkpt>
      <trkpt lat="45.73397" lon="6.62515">
        <ele>2209</ele>
        <time>2022-07-16T23:36:32Z</time>
      </trkpt>
      <trkpt lat="45.73395" lon="6.62513">
        <ele>2208</ele>
        <time>2022-07-16T23:36:35Z</time>
      </trkpt>
      <trkpt lat="45.73393" lon="6.62512">
        <ele>2206</ele>
        <time>2022-07-16T23:36:38Z</time>
      </trkpt>
      <trkpt lat="45.73391" lon="6.62512">
        <ele>2206</ele>
        <time>2022-07-16T23:36:41Z</time>
      </trkpt>
      <trkpt lat="45.73388" lon="6.62512">
        <ele>2205</ele>
        <time>2022-07-16T23:36:44Z</time>
      </trkpt>
      <trkpt lat="45.73386" lon="6.62513">
        <ele>2203</ele>
        <time>2022-07-16T23:36:47Z</time>
      </trkpt>
      <trkpt lat="45.73383" lon="6.62515">
        <ele>2203</ele>
        <time>2022-07-16T23:36:50Z</time>
      </trkpt>
      <trkpt lat="45.73381" lon="6.62515">
        <ele>2203</ele>
        <time>2022-07-16T23:36:53Z</time>
      </trkpt>
      <trkpt lat="45.73378" lon="6.62516">
        <ele>2201</ele>
        <time>2022-07-16T23:37:01Z</time>
      </trkpt>
      <trkpt lat="45.73376" lon="6.62517">
        <ele>2201</ele>
        <time>2022-07-16T23:37:03Z</time>
      </trkpt>
      <trkpt lat="45.73373" lon="6.62519">
        <ele>2199</ele>
        <time>2022-07-16T23:37:05Z</time>
      </trkpt>
      <trkpt lat="45.73371" lon="6.62519">
        <ele>2199</ele>
        <time>2022-07-16T23:37:07Z</time>
      </trkpt>
      <trkpt lat="45.73368" lon="6.62518">
        <ele>2199</ele>
        <time>2022-07-16T23:37:09Z</time>
      </trkpt>
      <trkpt lat="45.73366" lon="6.62516">
        <ele>2199</ele>
        <time>2022-07-16T23:37:11Z</time>
      </trkpt>
      <trkpt lat="45.73364" lon="6.62515">
        <ele>2199</ele>
        <time>2022-07-16T23:37:13Z</time>
      </trkpt>
      <trkpt lat="45.73361" lon="6.62515">
        <ele>2198</ele>
        <time>2022-07-16T23:37:15Z</time>
      </trkpt>
      <trkpt lat="45.73357" lon="6.62515">
        <ele>2197</ele>
        <time>2022-07-16T23:37:17Z</time>
      </trkpt>
      <trkpt lat="45.73354" lon="6.62515">
        <ele>2197</ele>
        <time>2022-07-16T23:37:19Z</time>
      </trkpt>
      <trkpt lat="45.73351" lon="6.62516">
        <ele>2197</ele>
        <time>2022-07-16T23:37:21Z</time>
      </trkpt>
      <trkpt lat="45.73347" lon="6.62517">
        <ele>2196</ele>
        <time>2022-07-16T23:37:23Z</time>
      </trkpt>
      <trkpt lat="45.73344" lon="6.62519">
        <ele>2194</ele>
        <time>2022-07-16T23:37:25Z</time>
      </trkpt>
      <trkpt lat="45.73341" lon="6.6252">
        <ele>2194</ele>
        <time>2022-07-16T23:37:27Z</time>
      </trkpt>
      <trkpt lat="45.73338" lon="6.62521">
        <ele>2194</ele>
        <time>2022-07-16T23:37:29Z</time>
      </trkpt>
      <trkpt lat="45.73335" lon="6.62523">
        <ele>2194</ele>
        <time>2022-07-16T23:37:31Z</time>
      </trkpt>
      <trkpt lat="45.73332" lon="6.62524">
        <ele>2194</ele>
        <time>2022-07-16T23:37:33Z</time>
      </trkpt>
      <trkpt lat="45.7333" lon="6.62525">
        <ele>2194</ele>
        <time>2022-07-16T23:37:34Z</time>
      </trkpt>
      <trkpt lat="45.73328" lon="6.62524">
        <ele>2193</ele>
        <time>2022-07-16T23:37:35Z</time>
      </trkpt>
      <trkpt lat="45.73325" lon="6.62522">
        <ele>2193</ele>
        <time>2022-07-16T23:37:37Z</time>
      </trkpt>
      <trkpt lat="45.73322" lon="6.62519">
        <ele>2192</ele>
        <time>2022-07-16T23:37:39Z</time>
      </trkpt>
      <trkpt lat="45.7332" lon="6.62516">
        <ele>2192</ele>
        <time>2022-07-16T23:37:40Z</time>
      </trkpt>
      <trkpt lat="45.73317" lon="6.62513">
        <ele>2192</ele>
        <time>2022-07-16T23:37:43Z</time>
      </trkpt>
      <trkpt lat="45.73315" lon="6.6251">
        <ele>2192</ele>
        <time>2022-07-16T23:37:45Z</time>
      </trkpt>
      <trkpt lat="45.73313" lon="6.62507">
        <ele>2191</ele>
        <time>2022-07-16T23:37:47Z</time>
      </trkpt>
      <trkpt lat="45.73311" lon="6.62504">
        <ele>2191</ele>
        <time>2022-07-16T23:37:49Z</time>
      </trkpt>
      <trkpt lat="45.73308" lon="6.62501">
        <ele>2191</ele>
        <time>2022-07-16T23:37:51Z</time>
      </trkpt>
      <trkpt lat="45.73306" lon="6.62498">
        <ele>2191</ele>
        <time>2022-07-16T23:37:53Z</time>
      </trkpt>
      <trkpt lat="45.73304" lon="6.62495">
        <ele>2191</ele>
        <time>2022-07-16T23:37:55Z</time>
      </trkpt>
      <trkpt lat="45.73302" lon="6.62492">
        <ele>2191</ele>
        <time>2022-07-16T23:37:57Z</time>
      </trkpt>
      <trkpt lat="45.733" lon="6.6249">
        <ele>2191</ele>
        <time>2022-07-16T23:37:59Z</time>
      </trkpt>
      <trkpt lat="45.73298" lon="6.62487">
        <ele>2189</ele>
        <time>2022-07-16T23:38:01Z</time>
      </trkpt>
      <trkpt lat="45.73295" lon="6.62485">
        <ele>2189</ele>
        <time>2022-07-16T23:38:03Z</time>
      </trkpt>
      <trkpt lat="45.73294" lon="6.62482">
        <ele>2190</ele>
        <time>2022-07-16T23:38:05Z</time>
      </trkpt>
      <trkpt lat="45.73292" lon="6.62481">
        <ele>2190</ele>
        <time>2022-07-16T23:38:07Z</time>
      </trkpt>
      <trkpt lat="45.7329" lon="6.62479">
        <ele>2190</ele>
        <time>2022-07-16T23:38:09Z</time>
      </trkpt>
      <trkpt lat="45.73288" lon="6.62476">
        <ele>2189</ele>
        <time>2022-07-16T23:38:11Z</time>
      </trkpt>
      <trkpt lat="45.73287" lon="6.62474">
        <ele>2189</ele>
        <time>2022-07-16T23:38:13Z</time>
      </trkpt>
      <trkpt lat="45.73285" lon="6.62472">
        <ele>2189</ele>
        <time>2022-07-16T23:38:15Z</time>
      </trkpt>
      <trkpt lat="45.73283" lon="6.6247">
        <ele>2189</ele>
        <time>2022-07-16T23:38:17Z</time>
      </trkpt>
      <trkpt lat="45.73281" lon="6.6247">
        <ele>2189</ele>
        <time>2022-07-16T23:38:19Z</time>
      </trkpt>
      <trkpt lat="45.73279" lon="6.62468">
        <ele>2188</ele>
        <time>2022-07-16T23:38:22Z</time>
      </trkpt>
      <trkpt lat="45.73277" lon="6.62467">
        <ele>2188</ele>
        <time>2022-07-16T23:38:24Z</time>
      </trkpt>
      <trkpt lat="45.73275" lon="6.62465">
        <ele>2187</ele>
        <time>2022-07-16T23:38:26Z</time>
      </trkpt>
      <trkpt lat="45.73273" lon="6.62465">
        <ele>2187</ele>
        <time>2022-07-16T23:38:28Z</time>
      </trkpt>
      <trkpt lat="45.73271" lon="6.62463">
        <ele>2186</ele>
        <time>2022-07-16T23:38:30Z</time>
      </trkpt>
      <trkpt lat="45.7327" lon="6.62461">
        <ele>2186</ele>
        <time>2022-07-16T23:38:32Z</time>
      </trkpt>
      <trkpt lat="45.73269" lon="6.62458">
        <ele>2185</ele>
        <time>2022-07-16T23:38:34Z</time>
      </trkpt>
      <trkpt lat="45.73268" lon="6.62456">
        <ele>2185</ele>
        <time>2022-07-16T23:38:36Z</time>
      </trkpt>
      <trkpt lat="45.73266" lon="6.62454">
        <ele>2185</ele>
        <time>2022-07-16T23:38:37Z</time>
      </trkpt>
      <trkpt lat="45.73265" lon="6.62451">
        <ele>2185</ele>
        <time>2022-07-16T23:38:41Z</time>
      </trkpt>
      <trkpt lat="45.73264" lon="6.62448">
        <ele>2185</ele>
        <time>2022-07-16T23:38:44Z</time>
      </trkpt>
      <trkpt lat="45.73262" lon="6.62446">
        <ele>2184</ele>
        <time>2022-07-16T23:38:47Z</time>
      </trkpt>
      <trkpt lat="45.73259" lon="6.62446">
        <ele>2184</ele>
        <time>2022-07-16T23:38:50Z</time>
      </trkpt>
      <trkpt lat="45.73257" lon="6.62446">
        <ele>2184</ele>
        <time>2022-07-16T23:38:52Z</time>
      </trkpt>
      <trkpt lat="45.73254" lon="6.62447">
        <ele>2182</ele>
        <time>2022-07-16T23:38:56Z</time>
      </trkpt>
      <trkpt lat="45.73253" lon="6.62449">
        <ele>2182</ele>
        <time>2022-07-16T23:38:58Z</time>
      </trkpt>
      <trkpt lat="45.73252" lon="6.62451">
        <ele>2181</ele>
        <time>2022-07-16T23:39:00Z</time>
      </trkpt>
      <trkpt lat="45.73252" lon="6.62454">
        <ele>2180</ele>
        <time>2022-07-16T23:39:02Z</time>
      </trkpt>
      <trkpt lat="45.7325" lon="6.62457">
        <ele>2180</ele>
        <time>2022-07-16T23:39:05Z</time>
      </trkpt>
      <trkpt lat="45.73249" lon="6.62459">
        <ele>2180</ele>
        <time>2022-07-16T23:39:07Z</time>
      </trkpt>
      <trkpt lat="45.73248" lon="6.62461">
        <ele>2180</ele>
        <time>2022-07-16T23:39:09Z</time>
      </trkpt>
      <trkpt lat="45.73245" lon="6.62463">
        <ele>2179</ele>
        <time>2022-07-16T23:39:11Z</time>
      </trkpt>
      <trkpt lat="45.73243" lon="6.62464">
        <ele>2178</ele>
        <time>2022-07-16T23:39:13Z</time>
      </trkpt>
      <trkpt lat="45.73241" lon="6.62466">
        <ele>2178</ele>
        <time>2022-07-16T23:39:15Z</time>
      </trkpt>
      <trkpt lat="45.7324" lon="6.62467">
        <ele>2177</ele>
        <time>2022-07-16T23:39:17Z</time>
      </trkpt>
      <trkpt lat="45.73237" lon="6.62468">
        <ele>2177</ele>
        <time>2022-07-16T23:39:19Z</time>
      </trkpt>
      <trkpt lat="45.73235" lon="6.62467">
        <ele>2177</ele>
        <time>2022-07-16T23:39:20Z</time>
      </trkpt>
      <trkpt lat="45.73232" lon="6.62467">
        <ele>2177</ele>
        <time>2022-07-16T23:39:22Z</time>
      </trkpt>
      <trkpt lat="45.73229" lon="6.62469">
        <ele>2177</ele>
        <time>2022-07-16T23:39:24Z</time>
      </trkpt>
      <trkpt lat="45.73227" lon="6.6247">
        <ele>2176</ele>
        <time>2022-07-16T23:39:26Z</time>
      </trkpt>
      <trkpt lat="45.73224" lon="6.62472">
        <ele>2176</ele>
        <time>2022-07-16T23:39:28Z</time>
      </trkpt>
      <trkpt lat="45.73221" lon="6.62471">
        <ele>2176</ele>
        <time>2022-07-16T23:39:30Z</time>
      </trkpt>
      <trkpt lat="45.73219" lon="6.6247">
        <ele>2175</ele>
        <time>2022-07-16T23:39:32Z</time>
      </trkpt>
      <trkpt lat="45.73216" lon="6.62469">
        <ele>2175</ele>
        <time>2022-07-16T23:39:34Z</time>
      </trkpt>
      <trkpt lat="45.73214" lon="6.62468">
        <ele>2175</ele>
        <time>2022-07-16T23:39:36Z</time>
      </trkpt>
      <trkpt lat="45.73211" lon="6.62468">
        <ele>2174</ele>
        <time>2022-07-16T23:39:38Z</time>
      </trkpt>
      <trkpt lat="45.73209" lon="6.62467">
        <ele>2175</ele>
        <time>2022-07-16T23:39:40Z</time>
      </trkpt>
      <trkpt lat="45.73206" lon="6.62466">
        <ele>2176</ele>
        <time>2022-07-16T23:39:42Z</time>
      </trkpt>
      <trkpt lat="45.73204" lon="6.62465">
        <ele>2176</ele>
        <time>2022-07-16T23:39:44Z</time>
      </trkpt>
      <trkpt lat="45.73202" lon="6.62464">
        <ele>2176</ele>
        <time>2022-07-16T23:39:46Z</time>
      </trkpt>
      <trkpt lat="45.732" lon="6.62462">
        <ele>2176</ele>
        <time>2022-07-16T23:39:48Z</time>
      </trkpt>
      <trkpt lat="45.73199" lon="6.62461">
        <ele>2175</ele>
        <time>2022-07-16T23:39:50Z</time>
      </trkpt>
      <trkpt lat="45.73196" lon="6.62459">
        <ele>2174</ele>
        <time>2022-07-16T23:39:53Z</time>
      </trkpt>
      <trkpt lat="45.73194" lon="6.62457">
        <ele>2173</ele>
        <time>2022-07-16T23:39:56Z</time>
      </trkpt>
      <trkpt lat="45.73192" lon="6.62456">
        <ele>2173</ele>
        <time>2022-07-16T23:39:58Z</time>
      </trkpt>
      <trkpt lat="45.7319" lon="6.62456">
        <ele>2172</ele>
        <time>2022-07-16T23:40:01Z</time>
      </trkpt>
      <trkpt lat="45.73188" lon="6.62456">
        <ele>2172</ele>
        <time>2022-07-16T23:40:03Z</time>
      </trkpt>
      <trkpt lat="45.73186" lon="6.62456">
        <ele>2171</ele>
        <time>2022-07-16T23:40:05Z</time>
      </trkpt>
      <trkpt lat="45.73184" lon="6.62456">
        <ele>2171</ele>
        <time>2022-07-16T23:40:07Z</time>
      </trkpt>
      <trkpt lat="45.73182" lon="6.62456">
        <ele>2170</ele>
        <time>2022-07-16T23:40:10Z</time>
      </trkpt>
      <trkpt lat="45.7318" lon="6.62456">
        <ele>2168</ele>
        <time>2022-07-16T23:40:12Z</time>
      </trkpt>
      <trkpt lat="45.73178" lon="6.62457">
        <ele>2167</ele>
        <time>2022-07-16T23:40:14Z</time>
      </trkpt>
      <trkpt lat="45.73176" lon="6.62458">
        <ele>2166</ele>
        <time>2022-07-16T23:40:16Z</time>
      </trkpt>
      <trkpt lat="45.73174" lon="6.62459">
        <ele>2166</ele>
        <time>2022-07-16T23:40:19Z</time>
      </trkpt>
      <trkpt lat="45.73172" lon="6.62459">
        <ele>2165</ele>
        <time>2022-07-16T23:40:22Z</time>
      </trkpt>
      <trkpt lat="45.73169" lon="6.62457">
        <ele>2164</ele>
        <time>2022-07-16T23:40:24Z</time>
      </trkpt>
      <trkpt lat="45.73167" lon="6.62454">
        <ele>2163</ele>
        <time>2022-07-16T23:40:26Z</time>
      </trkpt>
      <trkpt lat="45.73166" lon="6.62451">
        <ele>2162</ele>
        <time>2022-07-16T23:40:28Z</time>
      </trkpt>
      <trkpt lat="45.73166" lon="6.62448">
        <ele>2162</ele>
        <time>2022-07-16T23:40:30Z</time>
      </trkpt>
      <trkpt lat="45.73166" lon="6.62444">
        <ele>2164</ele>
        <time>2022-07-16T23:40:34Z</time>
      </trkpt>
      <trkpt lat="45.73164" lon="6.62443">
        <ele>2164</ele>
        <time>2022-07-16T23:40:39Z</time>
      </trkpt>
      <trkpt lat="45.73162" lon="6.6244">
        <ele>2165</ele>
        <time>2022-07-16T23:40:42Z</time>
      </trkpt>
      <trkpt lat="45.7316" lon="6.62438">
        <ele>2165</ele>
        <time>2022-07-16T23:40:45Z</time>
      </trkpt>
      <trkpt lat="45.73158" lon="6.62437">
        <ele>2166</ele>
        <time>2022-07-16T23:40:47Z</time>
      </trkpt>
      <trkpt lat="45.73156" lon="6.62436">
        <ele>2166</ele>
        <time>2022-07-16T23:40:50Z</time>
      </trkpt>
      <trkpt lat="45.73154" lon="6.62436">
        <ele>2166</ele>
        <time>2022-07-16T23:40:52Z</time>
      </trkpt>
      <trkpt lat="45.73152" lon="6.62436">
        <ele>2166</ele>
        <time>2022-07-16T23:40:54Z</time>
      </trkpt>
      <trkpt lat="45.7315" lon="6.62436">
        <ele>2166</ele>
        <time>2022-07-16T23:40:56Z</time>
      </trkpt>
      <trkpt lat="45.73148" lon="6.62435">
        <ele>2166</ele>
        <time>2022-07-16T23:40:58Z</time>
      </trkpt>
      <trkpt lat="45.73146" lon="6.62435">
        <ele>2166</ele>
        <time>2022-07-16T23:41:00Z</time>
      </trkpt>
      <trkpt lat="45.73144" lon="6.62435">
        <ele>2166</ele>
        <time>2022-07-16T23:41:03Z</time>
      </trkpt>
      <trkpt lat="45.73141" lon="6.62434">
        <ele>2166</ele>
        <time>2022-07-16T23:41:06Z</time>
      </trkpt>
      <trkpt lat="45.7314" lon="6.62432">
        <ele>2166</ele>
        <time>2022-07-16T23:41:08Z</time>
      </trkpt>
      <trkpt lat="45.73138" lon="6.6243">
        <ele>2166</ele>
        <time>2022-07-16T23:41:10Z</time>
      </trkpt>
      <trkpt lat="45.73136" lon="6.62428">
        <ele>2165</ele>
        <time>2022-07-16T23:41:12Z</time>
      </trkpt>
      <trkpt lat="45.73134" lon="6.62426">
        <ele>2165</ele>
        <time>2022-07-16T23:41:14Z</time>
      </trkpt>
      <trkpt lat="45.73133" lon="6.62424">
        <ele>2164</ele>
        <time>2022-07-16T23:41:16Z</time>
      </trkpt>
      <trkpt lat="45.73132" lon="6.62421">
        <ele>2164</ele>
        <time>2022-07-16T23:41:18Z</time>
      </trkpt>
      <trkpt lat="45.7313" lon="6.62419">
        <ele>2164</ele>
        <time>2022-07-16T23:41:20Z</time>
      </trkpt>
      <trkpt lat="45.73129" lon="6.62417">
        <ele>2164</ele>
        <time>2022-07-16T23:41:22Z</time>
      </trkpt>
      <trkpt lat="45.73127" lon="6.62415">
        <ele>2164</ele>
        <time>2022-07-16T23:41:24Z</time>
      </trkpt>
      <trkpt lat="45.73125" lon="6.62413">
        <ele>2163</ele>
        <time>2022-07-16T23:41:26Z</time>
      </trkpt>
      <trkpt lat="45.73123" lon="6.62412">
        <ele>2163</ele>
        <time>2022-07-16T23:41:28Z</time>
      </trkpt>
      <trkpt lat="45.73121" lon="6.62409">
        <ele>2163</ele>
        <time>2022-07-16T23:41:30Z</time>
      </trkpt>
      <trkpt lat="45.7312" lon="6.62408">
        <ele>2163</ele>
        <time>2022-07-16T23:41:32Z</time>
      </trkpt>
      <trkpt lat="45.73118" lon="6.62406">
        <ele>2163</ele>
        <time>2022-07-16T23:41:34Z</time>
      </trkpt>
      <trkpt lat="45.73116" lon="6.62404">
        <ele>2163</ele>
        <time>2022-07-16T23:41:36Z</time>
      </trkpt>
      <trkpt lat="45.73114" lon="6.62402">
        <ele>2163</ele>
        <time>2022-07-16T23:41:38Z</time>
      </trkpt>
      <trkpt lat="45.73112" lon="6.624">
        <ele>2162</ele>
        <time>2022-07-16T23:41:40Z</time>
      </trkpt>
      <trkpt lat="45.7311" lon="6.62399">
        <ele>2162</ele>
        <time>2022-07-16T23:41:42Z</time>
      </trkpt>
      <trkpt lat="45.73108" lon="6.62397">
        <ele>2161</ele>
        <time>2022-07-16T23:41:44Z</time>
      </trkpt>
      <trkpt lat="45.73106" lon="6.62396">
        <ele>2161</ele>
        <time>2022-07-16T23:41:46Z</time>
      </trkpt>
      <trkpt lat="45.73104" lon="6.62395">
        <ele>2161</ele>
        <time>2022-07-16T23:41:48Z</time>
      </trkpt>
      <trkpt lat="45.73102" lon="6.62394">
        <ele>2161</ele>
        <time>2022-07-16T23:41:50Z</time>
      </trkpt>
      <trkpt lat="45.731" lon="6.62393">
        <ele>2161</ele>
        <time>2022-07-16T23:41:52Z</time>
      </trkpt>
      <trkpt lat="45.73098" lon="6.62391">
        <ele>2161</ele>
        <time>2022-07-16T23:41:54Z</time>
      </trkpt>
      <trkpt lat="45.73095" lon="6.6239">
        <ele>2161</ele>
        <time>2022-07-16T23:41:57Z</time>
      </trkpt>
      <trkpt lat="45.73093" lon="6.62388">
        <ele>2161</ele>
        <time>2022-07-16T23:41:59Z</time>
      </trkpt>
      <trkpt lat="45.73091" lon="6.62386">
        <ele>2161</ele>
        <time>2022-07-16T23:42:01Z</time>
      </trkpt>
      <trkpt lat="45.73089" lon="6.62384">
        <ele>2161</ele>
        <time>2022-07-16T23:42:03Z</time>
      </trkpt>
      <trkpt lat="45.73087" lon="6.62381">
        <ele>2161</ele>
        <time>2022-07-16T23:42:05Z</time>
      </trkpt>
      <trkpt lat="45.73086" lon="6.62379">
        <ele>2161</ele>
        <time>2022-07-16T23:42:07Z</time>
      </trkpt>
      <trkpt lat="45.73084" lon="6.62377">
        <ele>2161</ele>
        <time>2022-07-16T23:42:09Z</time>
      </trkpt>
      <trkpt lat="45.73082" lon="6.62375">
        <ele>2161</ele>
        <time>2022-07-16T23:42:11Z</time>
      </trkpt>
      <trkpt lat="45.73081" lon="6.62373">
        <ele>2161</ele>
        <time>2022-07-16T23:42:13Z</time>
      </trkpt>
      <trkpt lat="45.73079" lon="6.62371">
        <ele>2161</ele>
        <time>2022-07-16T23:42:16Z</time>
      </trkpt>
      <trkpt lat="45.73077" lon="6.62369">
        <ele>2161</ele>
        <time>2022-07-16T23:42:18Z</time>
      </trkpt>
      <trkpt lat="45.73075" lon="6.62367">
        <ele>2161</ele>
        <time>2022-07-16T23:42:20Z</time>
      </trkpt>
      <trkpt lat="45.73072" lon="6.62365">
        <ele>2161</ele>
        <time>2022-07-16T23:42:22Z</time>
      </trkpt>
      <trkpt lat="45.73069" lon="6.62363">
        <ele>2161</ele>
        <time>2022-07-16T23:42:24Z</time>
      </trkpt>
      <trkpt lat="45.73066" lon="6.62361">
        <ele>2161</ele>
        <time>2022-07-16T23:42:26Z</time>
      </trkpt>
      <trkpt lat="45.73064" lon="6.62359">
        <ele>2160</ele>
        <time>2022-07-16T23:42:28Z</time>
      </trkpt>
      <trkpt lat="45.73062" lon="6.62357">
        <ele>2161</ele>
        <time>2022-07-16T23:42:30Z</time>
      </trkpt>
      <trkpt lat="45.73061" lon="6.62356">
        <ele>2161</ele>
        <time>2022-07-16T23:42:32Z</time>
      </trkpt>
      <trkpt lat="45.73059" lon="6.62354">
        <ele>2161</ele>
        <time>2022-07-16T23:42:34Z</time>
      </trkpt>
      <trkpt lat="45.73057" lon="6.62353">
        <ele>2161</ele>
        <time>2022-07-16T23:42:36Z</time>
      </trkpt>
      <trkpt lat="45.73055" lon="6.62353">
        <ele>2161</ele>
        <time>2022-07-16T23:42:38Z</time>
      </trkpt>
      <trkpt lat="45.73052" lon="6.62351">
        <ele>2161</ele>
        <time>2022-07-16T23:42:40Z</time>
      </trkpt>
      <trkpt lat="45.7305" lon="6.62349">
        <ele>2160</ele>
        <time>2022-07-16T23:42:42Z</time>
      </trkpt>
      <trkpt lat="45.73049" lon="6.62347">
        <ele>2161</ele>
        <time>2022-07-16T23:42:44Z</time>
      </trkpt>
      <trkpt lat="45.73047" lon="6.62344">
        <ele>2161</ele>
        <time>2022-07-16T23:42:46Z</time>
      </trkpt>
      <trkpt lat="45.73046" lon="6.62342">
        <ele>2161</ele>
        <time>2022-07-16T23:42:48Z</time>
      </trkpt>
      <trkpt lat="45.73044" lon="6.6234">
        <ele>2161</ele>
        <time>2022-07-16T23:42:50Z</time>
      </trkpt>
      <trkpt lat="45.73042" lon="6.62337">
        <ele>2161</ele>
        <time>2022-07-16T23:42:52Z</time>
      </trkpt>
      <trkpt lat="45.73041" lon="6.62335">
        <ele>2161</ele>
        <time>2022-07-16T23:42:54Z</time>
      </trkpt>
      <trkpt lat="45.73039" lon="6.62334">
        <ele>2161</ele>
        <time>2022-07-16T23:42:56Z</time>
      </trkpt>
      <trkpt lat="45.73037" lon="6.62331">
        <ele>2161</ele>
        <time>2022-07-16T23:42:58Z</time>
      </trkpt>
      <trkpt lat="45.73036" lon="6.62329">
        <ele>2161</ele>
        <time>2022-07-16T23:43:00Z</time>
      </trkpt>
      <trkpt lat="45.73034" lon="6.62327">
        <ele>2161</ele>
        <time>2022-07-16T23:43:02Z</time>
      </trkpt>
      <trkpt lat="45.73032" lon="6.62325">
        <ele>2161</ele>
        <time>2022-07-16T23:43:03Z</time>
      </trkpt>
      <trkpt lat="45.7303" lon="6.62324">
        <ele>2161</ele>
        <time>2022-07-16T23:43:06Z</time>
      </trkpt>
      <trkpt lat="45.73028" lon="6.62322">
        <ele>2161</ele>
        <time>2022-07-16T23:43:08Z</time>
      </trkpt>
      <trkpt lat="45.73026" lon="6.6232">
        <ele>2160</ele>
        <time>2022-07-16T23:43:10Z</time>
      </trkpt>
      <trkpt lat="45.73024" lon="6.62318">
        <ele>2160</ele>
        <time>2022-07-16T23:43:12Z</time>
      </trkpt>
      <trkpt lat="45.73022" lon="6.62316">
        <ele>2160</ele>
        <time>2022-07-16T23:43:14Z</time>
      </trkpt>
      <trkpt lat="45.73021" lon="6.62313">
        <ele>2160</ele>
        <time>2022-07-16T23:43:16Z</time>
      </trkpt>
      <trkpt lat="45.7302" lon="6.62311">
        <ele>2160</ele>
        <time>2022-07-16T23:43:18Z</time>
      </trkpt>
      <trkpt lat="45.73019" lon="6.62309">
        <ele>2161</ele>
        <time>2022-07-16T23:43:20Z</time>
      </trkpt>
      <trkpt lat="45.73017" lon="6.62307">
        <ele>2161</ele>
        <time>2022-07-16T23:43:22Z</time>
      </trkpt>
      <trkpt lat="45.73016" lon="6.62304">
        <ele>2161</ele>
        <time>2022-07-16T23:43:24Z</time>
      </trkpt>
      <trkpt lat="45.73014" lon="6.62302">
        <ele>2161</ele>
        <time>2022-07-16T23:43:26Z</time>
      </trkpt>
      <trkpt lat="45.73013" lon="6.62301">
        <ele>2162</ele>
        <time>2022-07-16T23:43:28Z</time>
      </trkpt>
      <trkpt lat="45.73011" lon="6.62299">
        <ele>2161</ele>
        <time>2022-07-16T23:43:30Z</time>
      </trkpt>
      <trkpt lat="45.73009" lon="6.62296">
        <ele>2161</ele>
        <time>2022-07-16T23:43:33Z</time>
      </trkpt>
      <trkpt lat="45.73008" lon="6.62294">
        <ele>2162</ele>
        <time>2022-07-16T23:43:36Z</time>
      </trkpt>
      <trkpt lat="45.73006" lon="6.62291">
        <ele>2163</ele>
        <time>2022-07-16T23:43:39Z</time>
      </trkpt>
      <trkpt lat="45.73004" lon="6.62289">
        <ele>2163</ele>
        <time>2022-07-16T23:43:42Z</time>
      </trkpt>
      <trkpt lat="45.73002" lon="6.62287">
        <ele>2164</ele>
        <time>2022-07-16T23:43:45Z</time>
      </trkpt>
      <trkpt lat="45.73" lon="6.62284">
        <ele>2165</ele>
        <time>2022-07-16T23:43:48Z</time>
      </trkpt>
      <trkpt lat="45.72999" lon="6.62282">
        <ele>2165</ele>
        <time>2022-07-16T23:43:51Z</time>
      </trkpt>
      <trkpt lat="45.72998" lon="6.62279">
        <ele>2166</ele>
        <time>2022-07-16T23:43:54Z</time>
      </trkpt>
      <trkpt lat="45.72996" lon="6.62277">
        <ele>2166</ele>
        <time>2022-07-16T23:43:57Z</time>
      </trkpt>
      <trkpt lat="45.72994" lon="6.62275">
        <ele>2166</ele>
        <time>2022-07-16T23:44:00Z</time>
      </trkpt>
      <trkpt lat="45.72993" lon="6.62272">
        <ele>2167</ele>
        <time>2022-07-16T23:44:03Z</time>
      </trkpt>
      <trkpt lat="45.72991" lon="6.6227">
        <ele>2167</ele>
        <time>2022-07-16T23:44:06Z</time>
      </trkpt>
      <trkpt lat="45.7299" lon="6.62267">
        <ele>2168</ele>
        <time>2022-07-16T23:44:09Z</time>
      </trkpt>
      <trkpt lat="45.7299" lon="6.62264">
        <ele>2170</ele>
        <time>2022-07-16T23:44:12Z</time>
      </trkpt>
      <trkpt lat="45.72988" lon="6.62261">
        <ele>2170</ele>
        <time>2022-07-16T23:44:15Z</time>
      </trkpt>
      <trkpt lat="45.72986" lon="6.62259">
        <ele>2170</ele>
        <time>2022-07-16T23:44:17Z</time>
      </trkpt>
      <trkpt lat="45.72985" lon="6.62257">
        <ele>2170</ele>
        <time>2022-07-16T23:44:19Z</time>
      </trkpt>
      <trkpt lat="45.72983" lon="6.62255">
        <ele>2170</ele>
        <time>2022-07-16T23:44:21Z</time>
      </trkpt>
      <trkpt lat="45.72981" lon="6.62253">
        <ele>2168</ele>
        <time>2022-07-16T23:44:23Z</time>
      </trkpt>
      <trkpt lat="45.7298" lon="6.6225">
        <ele>2170</ele>
        <time>2022-07-16T23:44:25Z</time>
      </trkpt>
      <trkpt lat="45.72979" lon="6.62247">
        <ele>2170</ele>
        <time>2022-07-16T23:44:28Z</time>
      </trkpt>
      <trkpt lat="45.72977" lon="6.62244">
        <ele>2171</ele>
        <time>2022-07-16T23:44:31Z</time>
      </trkpt>
      <trkpt lat="45.72976" lon="6.62242">
        <ele>2171</ele>
        <time>2022-07-16T23:44:33Z</time>
      </trkpt>
      <trkpt lat="45.72975" lon="6.62239">
        <ele>2172</ele>
        <time>2022-07-16T23:44:36Z</time>
      </trkpt>
      <trkpt lat="45.72974" lon="6.62236">
        <ele>2172</ele>
        <time>2022-07-16T23:44:39Z</time>
      </trkpt>
      <trkpt lat="45.72973" lon="6.62233">
        <ele>2173</ele>
        <time>2022-07-16T23:44:42Z</time>
      </trkpt>
      <trkpt lat="45.72973" lon="6.6223">
        <ele>2173</ele>
        <time>2022-07-16T23:44:45Z</time>
      </trkpt>
      <trkpt lat="45.72972" lon="6.62227">
        <ele>2174</ele>
        <time>2022-07-16T23:44:48Z</time>
      </trkpt>
      <trkpt lat="45.7297" lon="6.62224">
        <ele>2174</ele>
        <time>2022-07-16T23:44:51Z</time>
      </trkpt>
      <trkpt lat="45.72969" lon="6.62221">
        <ele>2175</ele>
        <time>2022-07-16T23:44:54Z</time>
      </trkpt>
      <trkpt lat="45.72968" lon="6.62218">
        <ele>2175</ele>
        <time>2022-07-16T23:44:57Z</time>
      </trkpt>
      <trkpt lat="45.72968" lon="6.62215">
        <ele>2176</ele>
        <time>2022-07-16T23:45:00Z</time>
      </trkpt>
      <trkpt lat="45.72967" lon="6.62213">
        <ele>2177</ele>
        <time>2022-07-16T23:45:03Z</time>
      </trkpt>
      <trkpt lat="45.72965" lon="6.6221">
        <ele>2177</ele>
        <time>2022-07-16T23:45:07Z</time>
      </trkpt>
      <trkpt lat="45.72963" lon="6.62208">
        <ele>2177</ele>
        <time>2022-07-16T23:45:10Z</time>
      </trkpt>
      <trkpt lat="45.72962" lon="6.62205">
        <ele>2177</ele>
        <time>2022-07-16T23:45:13Z</time>
      </trkpt>
      <trkpt lat="45.72961" lon="6.62202">
        <ele>2178</ele>
        <time>2022-07-16T23:45:16Z</time>
      </trkpt>
      <trkpt lat="45.7296" lon="6.622">
        <ele>2178</ele>
        <time>2022-07-16T23:45:19Z</time>
      </trkpt>
      <trkpt lat="45.72959" lon="6.62196">
        <ele>2179</ele>
        <time>2022-07-16T23:45:22Z</time>
      </trkpt>
      <trkpt lat="45.72957" lon="6.62194">
        <ele>2179</ele>
        <time>2022-07-16T23:45:25Z</time>
      </trkpt>
      <trkpt lat="45.72955" lon="6.62191">
        <ele>2179</ele>
        <time>2022-07-16T23:45:28Z</time>
      </trkpt>
      <trkpt lat="45.72954" lon="6.62188">
        <ele>2180</ele>
        <time>2022-07-16T23:45:32Z</time>
      </trkpt>
      <trkpt lat="45.72953" lon="6.62186">
        <ele>2181</ele>
        <time>2022-07-16T23:45:35Z</time>
      </trkpt>
      <trkpt lat="45.72952" lon="6.62184">
        <ele>2181</ele>
        <time>2022-07-16T23:45:38Z</time>
      </trkpt>
      <trkpt lat="45.7295" lon="6.62182">
        <ele>2181</ele>
        <time>2022-07-16T23:45:41Z</time>
      </trkpt>
      <trkpt lat="45.72949" lon="6.62179">
        <ele>2182</ele>
        <time>2022-07-16T23:45:44Z</time>
      </trkpt>
      <trkpt lat="45.72948" lon="6.62176">
        <ele>2183</ele>
        <time>2022-07-16T23:45:47Z</time>
      </trkpt>
      <trkpt lat="45.72947" lon="6.62174">
        <ele>2183</ele>
        <time>2022-07-16T23:45:50Z</time>
      </trkpt>
      <trkpt lat="45.72946" lon="6.62171">
        <ele>2183</ele>
        <time>2022-07-16T23:45:53Z</time>
      </trkpt>
      <trkpt lat="45.72945" lon="6.62169">
        <ele>2184</ele>
        <time>2022-07-16T23:45:56Z</time>
      </trkpt>
      <trkpt lat="45.72944" lon="6.62166">
        <ele>2184</ele>
        <time>2022-07-16T23:45:59Z</time>
      </trkpt>
      <trkpt lat="45.72942" lon="6.62164">
        <ele>2184</ele>
        <time>2022-07-16T23:46:02Z</time>
      </trkpt>
      <trkpt lat="45.72941" lon="6.62162">
        <ele>2185</ele>
        <time>2022-07-16T23:46:05Z</time>
      </trkpt>
      <trkpt lat="45.7294" lon="6.6216">
        <ele>2185</ele>
        <time>2022-07-16T23:46:07Z</time>
      </trkpt>
      <trkpt lat="45.72938" lon="6.62157">
        <ele>2185</ele>
        <time>2022-07-16T23:46:10Z</time>
      </trkpt>
      <trkpt lat="45.72936" lon="6.62154">
        <ele>2185</ele>
        <time>2022-07-16T23:46:13Z</time>
      </trkpt>
      <trkpt lat="45.72935" lon="6.62151">
        <ele>2186</ele>
        <time>2022-07-16T23:46:16Z</time>
      </trkpt>
      <trkpt lat="45.72934" lon="6.62149">
        <ele>2186</ele>
        <time>2022-07-16T23:46:18Z</time>
      </trkpt>
      <trkpt lat="45.72932" lon="6.62147">
        <ele>2187</ele>
        <time>2022-07-16T23:46:21Z</time>
      </trkpt>
      <trkpt lat="45.72931" lon="6.62144">
        <ele>2187</ele>
        <time>2022-07-16T23:46:24Z</time>
      </trkpt>
      <trkpt lat="45.72929" lon="6.62141">
        <ele>2188</ele>
        <time>2022-07-16T23:46:27Z</time>
      </trkpt>
      <trkpt lat="45.72928" lon="6.62138">
        <ele>2188</ele>
        <time>2022-07-16T23:46:30Z</time>
      </trkpt>
      <trkpt lat="45.72927" lon="6.62135">
        <ele>2189</ele>
        <time>2022-07-16T23:46:33Z</time>
      </trkpt>
      <trkpt lat="45.72926" lon="6.62132">
        <ele>2189</ele>
        <time>2022-07-16T23:46:36Z</time>
      </trkpt>
      <trkpt lat="45.72925" lon="6.62129">
        <ele>2190</ele>
        <time>2022-07-16T23:46:39Z</time>
      </trkpt>
      <trkpt lat="45.72924" lon="6.62127">
        <ele>2190</ele>
        <time>2022-07-16T23:46:42Z</time>
      </trkpt>
      <trkpt lat="45.72922" lon="6.62125">
        <ele>2191</ele>
        <time>2022-07-16T23:46:45Z</time>
      </trkpt>
      <trkpt lat="45.72921" lon="6.62124">
        <ele>2191</ele>
        <time>2022-07-16T23:46:48Z</time>
      </trkpt>
      <trkpt lat="45.72919" lon="6.62121">
        <ele>2192</ele>
        <time>2022-07-16T23:46:51Z</time>
      </trkpt>
      <trkpt lat="45.72918" lon="6.62119">
        <ele>2193</ele>
        <time>2022-07-16T23:46:54Z</time>
      </trkpt>
      <trkpt lat="45.72917" lon="6.62116">
        <ele>2193</ele>
        <time>2022-07-16T23:46:57Z</time>
      </trkpt>
      <trkpt lat="45.72915" lon="6.62114">
        <ele>2193</ele>
        <time>2022-07-16T23:47:00Z</time>
      </trkpt>
      <trkpt lat="45.72914" lon="6.62112">
        <ele>2194</ele>
        <time>2022-07-16T23:47:03Z</time>
      </trkpt>
      <trkpt lat="45.72912" lon="6.62109">
        <ele>2194</ele>
        <time>2022-07-16T23:47:06Z</time>
      </trkpt>
      <trkpt lat="45.7291" lon="6.62107">
        <ele>2194</ele>
        <time>2022-07-16T23:47:09Z</time>
      </trkpt>
      <trkpt lat="45.72908" lon="6.62105">
        <ele>2194</ele>
        <time>2022-07-16T23:47:12Z</time>
      </trkpt>
      <trkpt lat="45.72906" lon="6.62104">
        <ele>2196</ele>
        <time>2022-07-16T23:47:15Z</time>
      </trkpt>
      <trkpt lat="45.72904" lon="6.62103">
        <ele>2197</ele>
        <time>2022-07-16T23:47:18Z</time>
      </trkpt>
      <trkpt lat="45.72902" lon="6.62101">
        <ele>2198</ele>
        <time>2022-07-16T23:47:21Z</time>
      </trkpt>
      <trkpt lat="45.72901" lon="6.621">
        <ele>2198</ele>
        <time>2022-07-16T23:47:24Z</time>
      </trkpt>
      <trkpt lat="45.72899" lon="6.621">
        <ele>2198</ele>
        <time>2022-07-16T23:47:27Z</time>
      </trkpt>
      <trkpt lat="45.72896" lon="6.621">
        <ele>2199</ele>
        <time>2022-07-16T23:47:29Z</time>
      </trkpt>
      <trkpt lat="45.72894" lon="6.62099">
        <ele>2199</ele>
        <time>2022-07-16T23:47:33Z</time>
      </trkpt>
      <trkpt lat="45.72893" lon="6.62097">
        <ele>2199</ele>
        <time>2022-07-16T23:47:36Z</time>
      </trkpt>
      <trkpt lat="45.72891" lon="6.62095">
        <ele>2200</ele>
        <time>2022-07-16T23:47:40Z</time>
      </trkpt>
      <trkpt lat="45.72889" lon="6.62094">
        <ele>2201</ele>
        <time>2022-07-16T23:47:44Z</time>
      </trkpt>
      <trkpt lat="45.72887" lon="6.62093">
        <ele>2201</ele>
        <time>2022-07-16T23:47:47Z</time>
      </trkpt>
      <trkpt lat="45.72885" lon="6.62092">
        <ele>2202</ele>
        <time>2022-07-16T23:47:50Z</time>
      </trkpt>
      <trkpt lat="45.72883" lon="6.62092">
        <ele>2202</ele>
        <time>2022-07-16T23:47:53Z</time>
      </trkpt>
      <trkpt lat="45.72881" lon="6.62092">
        <ele>2203</ele>
        <time>2022-07-16T23:47:56Z</time>
      </trkpt>
      <trkpt lat="45.72879" lon="6.62092">
        <ele>2204</ele>
        <time>2022-07-16T23:48:00Z</time>
      </trkpt>
      <trkpt lat="45.72877" lon="6.62092">
        <ele>2204</ele>
        <time>2022-07-16T23:48:04Z</time>
      </trkpt>
      <trkpt lat="45.72875" lon="6.62093">
        <ele>2204</ele>
        <time>2022-07-16T23:48:09Z</time>
      </trkpt>
      <trkpt lat="45.72872" lon="6.62093">
        <ele>2204</ele>
        <time>2022-07-16T23:48:13Z</time>
      </trkpt>
      <trkpt lat="45.7287" lon="6.62092">
        <ele>2206</ele>
        <time>2022-07-16T23:48:17Z</time>
      </trkpt>
      <trkpt lat="45.72869" lon="6.62091">
        <ele>2206</ele>
        <time>2022-07-16T23:48:22Z</time>
      </trkpt>
      <trkpt lat="45.72866" lon="6.6209">
        <ele>2207</ele>
        <time>2022-07-16T23:48:26Z</time>
      </trkpt>
      <trkpt lat="45.72864" lon="6.62089">
        <ele>2208</ele>
        <time>2022-07-16T23:48:29Z</time>
      </trkpt>
      <trkpt lat="45.72862" lon="6.62089">
        <ele>2208</ele>
        <time>2022-07-16T23:48:32Z</time>
      </trkpt>
      <trkpt lat="45.7286" lon="6.6209">
        <ele>2209</ele>
        <time>2022-07-16T23:48:35Z</time>
      </trkpt>
      <trkpt lat="45.72857" lon="6.62089">
        <ele>2209</ele>
        <time>2022-07-16T23:48:38Z</time>
      </trkpt>
      <trkpt lat="45.72856" lon="6.62088">
        <ele>2209</ele>
        <time>2022-07-16T23:48:40Z</time>
      </trkpt>
      <trkpt lat="45.72854" lon="6.62087">
        <ele>2209</ele>
        <time>2022-07-16T23:48:42Z</time>
      </trkpt>
      <trkpt lat="45.72853" lon="6.62086">
        <ele>2209</ele>
        <time>2022-07-16T23:48:44Z</time>
      </trkpt>
      <trkpt lat="45.72851" lon="6.62084">
        <ele>2209</ele>
        <time>2022-07-16T23:48:47Z</time>
      </trkpt>
      <trkpt lat="45.72849" lon="6.62081">
        <ele>2210</ele>
        <time>2022-07-16T23:48:50Z</time>
      </trkpt>
      <trkpt lat="45.72848" lon="6.62078">
        <ele>2211</ele>
        <time>2022-07-16T23:48:54Z</time>
      </trkpt>
      <trkpt lat="45.72847" lon="6.62076">
        <ele>2211</ele>
        <time>2022-07-16T23:48:57Z</time>
      </trkpt>
      <trkpt lat="45.72845" lon="6.62074">
        <ele>2211</ele>
        <time>2022-07-16T23:49:00Z</time>
      </trkpt>
      <trkpt lat="45.72845" lon="6.62071">
        <ele>2212</ele>
        <time>2022-07-16T23:49:03Z</time>
      </trkpt>
      <trkpt lat="45.72845" lon="6.62068">
        <ele>2212</ele>
        <time>2022-07-16T23:49:06Z</time>
      </trkpt>
      <trkpt lat="45.72847" lon="6.62066">
        <ele>2212</ele>
        <time>2022-07-16T23:49:08Z</time>
      </trkpt>
      <trkpt lat="45.72848" lon="6.62064">
        <ele>2212</ele>
        <time>2022-07-16T23:49:11Z</time>
      </trkpt>
      <trkpt lat="45.72849" lon="6.6206">
        <ele>2213</ele>
        <time>2022-07-16T23:49:14Z</time>
      </trkpt>
      <trkpt lat="45.72849" lon="6.62056">
        <ele>2214</ele>
        <time>2022-07-16T23:49:17Z</time>
      </trkpt>
      <trkpt lat="45.72848" lon="6.62054">
        <ele>2214</ele>
        <time>2022-07-16T23:49:19Z</time>
      </trkpt>
      <trkpt lat="45.72848" lon="6.62051">
        <ele>2214</ele>
        <time>2022-07-16T23:49:21Z</time>
      </trkpt>
      <trkpt lat="45.72846" lon="6.62048">
        <ele>2214</ele>
        <time>2022-07-16T23:49:23Z</time>
      </trkpt>
      <trkpt lat="45.72845" lon="6.62045">
        <ele>2214</ele>
        <time>2022-07-16T23:49:25Z</time>
      </trkpt>
      <trkpt lat="45.72845" lon="6.62042">
        <ele>2214</ele>
        <time>2022-07-16T23:49:27Z</time>
      </trkpt>
      <trkpt lat="45.72844" lon="6.62039">
        <ele>2214</ele>
        <time>2022-07-16T23:49:29Z</time>
      </trkpt>
      <trkpt lat="45.72843" lon="6.62036">
        <ele>2214</ele>
        <time>2022-07-16T23:49:31Z</time>
      </trkpt>
      <trkpt lat="45.72842" lon="6.62033">
        <ele>2214</ele>
        <time>2022-07-16T23:49:33Z</time>
      </trkpt>
      <trkpt lat="45.72842" lon="6.6203">
        <ele>2214</ele>
        <time>2022-07-16T23:49:36Z</time>
      </trkpt>
      <trkpt lat="45.72841" lon="6.62026">
        <ele>2214</ele>
        <time>2022-07-16T23:49:39Z</time>
      </trkpt>
      <trkpt lat="45.72839" lon="6.62024">
        <ele>2214</ele>
        <time>2022-07-16T23:49:41Z</time>
      </trkpt>
      <trkpt lat="45.72838" lon="6.62022">
        <ele>2214</ele>
        <time>2022-07-16T23:49:43Z</time>
      </trkpt>
      <trkpt lat="45.72837" lon="6.62019">
        <ele>2215</ele>
        <time>2022-07-16T23:49:45Z</time>
      </trkpt>
      <trkpt lat="45.72836" lon="6.62017">
        <ele>2215</ele>
        <time>2022-07-16T23:49:47Z</time>
      </trkpt>
      <trkpt lat="45.72834" lon="6.62015">
        <ele>2215</ele>
        <time>2022-07-16T23:49:49Z</time>
      </trkpt>
      <trkpt lat="45.72833" lon="6.62012">
        <ele>2215</ele>
        <time>2022-07-16T23:49:51Z</time>
      </trkpt>
      <trkpt lat="45.72832" lon="6.62008">
        <ele>2215</ele>
        <time>2022-07-16T23:49:53Z</time>
      </trkpt>
      <trkpt lat="45.72831" lon="6.62005">
        <ele>2216</ele>
        <time>2022-07-16T23:49:56Z</time>
      </trkpt>
      <trkpt lat="45.7283" lon="6.62002">
        <ele>2216</ele>
        <time>2022-07-16T23:49:58Z</time>
      </trkpt>
      <trkpt lat="45.72828" lon="6.62">
        <ele>2216</ele>
        <time>2022-07-16T23:50:00Z</time>
      </trkpt>
      <trkpt lat="45.72827" lon="6.61997">
        <ele>2216</ele>
        <time>2022-07-16T23:50:02Z</time>
      </trkpt>
      <trkpt lat="45.72826" lon="6.61994">
        <ele>2215</ele>
        <time>2022-07-16T23:50:04Z</time>
      </trkpt>
      <trkpt lat="45.72825" lon="6.61991">
        <ele>2216</ele>
        <time>2022-07-16T23:50:06Z</time>
      </trkpt>
      <trkpt lat="45.72824" lon="6.61987">
        <ele>2216</ele>
        <time>2022-07-16T23:50:08Z</time>
      </trkpt>
      <trkpt lat="45.72823" lon="6.61985">
        <ele>2216</ele>
        <time>2022-07-16T23:50:10Z</time>
      </trkpt>
      <trkpt lat="45.72821" lon="6.61982">
        <ele>2216</ele>
        <time>2022-07-16T23:50:12Z</time>
      </trkpt>
      <trkpt lat="45.7282" lon="6.61979">
        <ele>2216</ele>
        <time>2022-07-16T23:50:14Z</time>
      </trkpt>
      <trkpt lat="45.72819" lon="6.61976">
        <ele>2216</ele>
        <time>2022-07-16T23:50:16Z</time>
      </trkpt>
      <trkpt lat="45.72818" lon="6.61973">
        <ele>2216</ele>
        <time>2022-07-16T23:50:18Z</time>
      </trkpt>
      <trkpt lat="45.72818" lon="6.61969">
        <ele>2216</ele>
        <time>2022-07-16T23:50:20Z</time>
      </trkpt>
      <trkpt lat="45.72818" lon="6.61967">
        <ele>2216</ele>
        <time>2022-07-16T23:50:22Z</time>
      </trkpt>
      <trkpt lat="45.72817" lon="6.61964">
        <ele>2217</ele>
        <time>2022-07-16T23:50:25Z</time>
      </trkpt>
      <trkpt lat="45.72815" lon="6.6196">
        <ele>2217</ele>
        <time>2022-07-16T23:50:28Z</time>
      </trkpt>
      <trkpt lat="45.72814" lon="6.61958">
        <ele>2217</ele>
        <time>2022-07-16T23:50:30Z</time>
      </trkpt>
      <trkpt lat="45.72813" lon="6.61955">
        <ele>2217</ele>
        <time>2022-07-16T23:50:32Z</time>
      </trkpt>
      <trkpt lat="45.72811" lon="6.61953">
        <ele>2217</ele>
        <time>2022-07-16T23:50:34Z</time>
      </trkpt>
      <trkpt lat="45.7281" lon="6.61951">
        <ele>2217</ele>
        <time>2022-07-16T23:50:36Z</time>
      </trkpt>
      <trkpt lat="45.72809" lon="6.61948">
        <ele>2218</ele>
        <time>2022-07-16T23:50:38Z</time>
      </trkpt>
      <trkpt lat="45.72807" lon="6.61946">
        <ele>2218</ele>
        <time>2022-07-16T23:50:41Z</time>
      </trkpt>
      <trkpt lat="45.72806" lon="6.61944">
        <ele>2218</ele>
        <time>2022-07-16T23:50:47Z</time>
      </trkpt>
      <trkpt lat="45.72805" lon="6.61941">
        <ele>2218</ele>
        <time>2022-07-16T23:50:50Z</time>
      </trkpt>
      <trkpt lat="45.72803" lon="6.61939">
        <ele>2218</ele>
        <time>2022-07-16T23:50:53Z</time>
      </trkpt>
      <trkpt lat="45.72802" lon="6.61937">
        <ele>2218</ele>
        <time>2022-07-16T23:50:55Z</time>
      </trkpt>
      <trkpt lat="45.72801" lon="6.61935">
        <ele>2219</ele>
        <time>2022-07-16T23:50:57Z</time>
      </trkpt>
      <trkpt lat="45.72799" lon="6.61933">
        <ele>2219</ele>
        <time>2022-07-16T23:51:00Z</time>
      </trkpt>
      <trkpt lat="45.72797" lon="6.61932">
        <ele>2219</ele>
        <time>2022-07-16T23:51:03Z</time>
      </trkpt>
      <trkpt lat="45.72795" lon="6.6193">
        <ele>2219</ele>
        <time>2022-07-16T23:51:06Z</time>
      </trkpt>
      <trkpt lat="45.72792" lon="6.61929">
        <ele>2220</ele>
        <time>2022-07-16T23:51:09Z</time>
      </trkpt>
      <trkpt lat="45.72791" lon="6.61927">
        <ele>2220</ele>
        <time>2022-07-16T23:51:11Z</time>
      </trkpt>
      <trkpt lat="45.72789" lon="6.61925">
        <ele>2220</ele>
        <time>2022-07-16T23:51:14Z</time>
      </trkpt>
      <trkpt lat="45.72787" lon="6.61924">
        <ele>2222</ele>
        <time>2022-07-16T23:51:17Z</time>
      </trkpt>
      <trkpt lat="45.72785" lon="6.61922">
        <ele>2222</ele>
        <time>2022-07-16T23:51:20Z</time>
      </trkpt>
      <trkpt lat="45.72782" lon="6.61922">
        <ele>2223</ele>
        <time>2022-07-16T23:51:23Z</time>
      </trkpt>
      <trkpt lat="45.7278" lon="6.61922">
        <ele>2223</ele>
        <time>2022-07-16T23:51:25Z</time>
      </trkpt>
      <trkpt lat="45.72778" lon="6.61923">
        <ele>2223</ele>
        <time>2022-07-16T23:51:28Z</time>
      </trkpt>
      <trkpt lat="45.72775" lon="6.61924">
        <ele>2225</ele>
        <time>2022-07-16T23:51:31Z</time>
      </trkpt>
      <trkpt lat="45.72773" lon="6.61924">
        <ele>2225</ele>
        <time>2022-07-16T23:51:34Z</time>
      </trkpt>
      <trkpt lat="45.72771" lon="6.61923">
        <ele>2225</ele>
        <time>2022-07-16T23:51:37Z</time>
      </trkpt>
      <trkpt lat="45.72769" lon="6.61921">
        <ele>2225</ele>
        <time>2022-07-16T23:51:40Z</time>
      </trkpt>
      <trkpt lat="45.72768" lon="6.61919">
        <ele>2226</ele>
        <time>2022-07-16T23:51:43Z</time>
      </trkpt>
      <trkpt lat="45.72766" lon="6.61916">
        <ele>2226</ele>
        <time>2022-07-16T23:51:46Z</time>
      </trkpt>
      <trkpt lat="45.72765" lon="6.61915">
        <ele>2226</ele>
        <time>2022-07-16T23:51:48Z</time>
      </trkpt>
      <trkpt lat="45.72762" lon="6.61913">
        <ele>2227</ele>
        <time>2022-07-16T23:51:51Z</time>
      </trkpt>
      <trkpt lat="45.7276" lon="6.61912">
        <ele>2227</ele>
        <time>2022-07-16T23:51:54Z</time>
      </trkpt>
      <trkpt lat="45.72758" lon="6.6191">
        <ele>2227</ele>
        <time>2022-07-16T23:51:56Z</time>
      </trkpt>
      <trkpt lat="45.72757" lon="6.61909">
        <ele>2227</ele>
        <time>2022-07-16T23:51:58Z</time>
      </trkpt>
      <trkpt lat="45.72754" lon="6.61907">
        <ele>2228</ele>
        <time>2022-07-16T23:52:01Z</time>
      </trkpt>
      <trkpt lat="45.72752" lon="6.61906">
        <ele>2228</ele>
        <time>2022-07-16T23:52:05Z</time>
      </trkpt>
      <trkpt lat="45.7275" lon="6.61905">
        <ele>2229</ele>
        <time>2022-07-16T23:52:08Z</time>
      </trkpt>
      <trkpt lat="45.72748" lon="6.61905">
        <ele>2229</ele>
        <time>2022-07-16T23:52:11Z</time>
      </trkpt>
      <trkpt lat="45.72746" lon="6.61905">
        <ele>2230</ele>
        <time>2022-07-16T23:52:14Z</time>
      </trkpt>
      <trkpt lat="45.72743" lon="6.61907">
        <ele>2230</ele>
        <time>2022-07-16T23:52:17Z</time>
      </trkpt>
      <trkpt lat="45.72741" lon="6.61909">
        <ele>2230</ele>
        <time>2022-07-16T23:52:20Z</time>
      </trkpt>
      <trkpt lat="45.72739" lon="6.61911">
        <ele>2230</ele>
        <time>2022-07-16T23:52:22Z</time>
      </trkpt>
      <trkpt lat="45.72738" lon="6.61914">
        <ele>2230</ele>
        <time>2022-07-16T23:52:25Z</time>
      </trkpt>
      <trkpt lat="45.72736" lon="6.61916">
        <ele>2230</ele>
        <time>2022-07-16T23:52:27Z</time>
      </trkpt>
      <trkpt lat="45.72734" lon="6.61918">
        <ele>2231</ele>
        <time>2022-07-16T23:52:29Z</time>
      </trkpt>
      <trkpt lat="45.72733" lon="6.6192">
        <ele>2231</ele>
        <time>2022-07-16T23:52:32Z</time>
      </trkpt>
      <trkpt lat="45.72731" lon="6.61923">
        <ele>2231</ele>
        <time>2022-07-16T23:52:35Z</time>
      </trkpt>
      <trkpt lat="45.72729" lon="6.61925">
        <ele>2232</ele>
        <time>2022-07-16T23:52:37Z</time>
      </trkpt>
      <trkpt lat="45.72727" lon="6.61927">
        <ele>2232</ele>
        <time>2022-07-16T23:52:40Z</time>
      </trkpt>
      <trkpt lat="45.72725" lon="6.61926">
        <ele>2233</ele>
        <time>2022-07-16T23:52:43Z</time>
      </trkpt>
      <trkpt lat="45.72723" lon="6.61924">
        <ele>2233</ele>
        <time>2022-07-16T23:52:45Z</time>
      </trkpt>
      <trkpt lat="45.72722" lon="6.61922">
        <ele>2233</ele>
        <time>2022-07-16T23:52:47Z</time>
      </trkpt>
      <trkpt lat="45.72721" lon="6.6192">
        <ele>2234</ele>
        <time>2022-07-16T23:52:49Z</time>
      </trkpt>
      <trkpt lat="45.7272" lon="6.61917">
        <ele>2234</ele>
        <time>2022-07-16T23:52:51Z</time>
      </trkpt>
      <trkpt lat="45.72719" lon="6.61914">
        <ele>2234</ele>
        <time>2022-07-16T23:52:54Z</time>
      </trkpt>
      <trkpt lat="45.72718" lon="6.61911">
        <ele>2234</ele>
        <time>2022-07-16T23:52:56Z</time>
      </trkpt>
      <trkpt lat="45.72717" lon="6.61909">
        <ele>2235</ele>
        <time>2022-07-16T23:52:58Z</time>
      </trkpt>
      <trkpt lat="45.72716" lon="6.61905">
        <ele>2235</ele>
        <time>2022-07-16T23:53:01Z</time>
      </trkpt>
      <trkpt lat="45.72715" lon="6.61902">
        <ele>2235</ele>
        <time>2022-07-16T23:53:04Z</time>
      </trkpt>
      <trkpt lat="45.72714" lon="6.61898">
        <ele>2235</ele>
        <time>2022-07-16T23:53:07Z</time>
      </trkpt>
      <trkpt lat="45.72712" lon="6.61895">
        <ele>2236</ele>
        <time>2022-07-16T23:53:10Z</time>
      </trkpt>
      <trkpt lat="45.72711" lon="6.61893">
        <ele>2236</ele>
        <time>2022-07-16T23:53:12Z</time>
      </trkpt>
      <trkpt lat="45.7271" lon="6.61891">
        <ele>2236</ele>
        <time>2022-07-16T23:53:14Z</time>
      </trkpt>
      <trkpt lat="45.72709" lon="6.61888">
        <ele>2237</ele>
        <time>2022-07-16T23:53:16Z</time>
      </trkpt>
      <trkpt lat="45.72707" lon="6.61886">
        <ele>2237</ele>
        <time>2022-07-16T23:53:18Z</time>
      </trkpt>
      <trkpt lat="45.72706" lon="6.61884">
        <ele>2237</ele>
        <time>2022-07-16T23:53:20Z</time>
      </trkpt>
      <trkpt lat="45.72705" lon="6.61882">
        <ele>2237</ele>
        <time>2022-07-16T23:53:22Z</time>
      </trkpt>
      <trkpt lat="45.72704" lon="6.61879">
        <ele>2237</ele>
        <time>2022-07-16T23:53:25Z</time>
      </trkpt>
      <trkpt lat="45.72702" lon="6.61878">
        <ele>2237</ele>
        <time>2022-07-16T23:53:27Z</time>
      </trkpt>
      <trkpt lat="45.72701" lon="6.61876">
        <ele>2238</ele>
        <time>2022-07-16T23:53:29Z</time>
      </trkpt>
      <trkpt lat="45.72699" lon="6.61874">
        <ele>2238</ele>
        <time>2022-07-16T23:53:31Z</time>
      </trkpt>
      <trkpt lat="45.72698" lon="6.61872">
        <ele>2238</ele>
        <time>2022-07-16T23:53:34Z</time>
      </trkpt>
      <trkpt lat="45.72697" lon="6.61869">
        <ele>2238</ele>
        <time>2022-07-16T23:53:36Z</time>
      </trkpt>
      <trkpt lat="45.72695" lon="6.61866">
        <ele>2239</ele>
        <time>2022-07-16T23:53:39Z</time>
      </trkpt>
      <trkpt lat="45.72694" lon="6.61863">
        <ele>2239</ele>
        <time>2022-07-16T23:53:42Z</time>
      </trkpt>
      <trkpt lat="45.72693" lon="6.6186">
        <ele>2239</ele>
        <time>2022-07-16T23:53:45Z</time>
      </trkpt>
      <trkpt lat="45.72692" lon="6.61857">
        <ele>2239</ele>
        <time>2022-07-16T23:53:49Z</time>
      </trkpt>
      <trkpt lat="45.72691" lon="6.61854">
        <ele>2240</ele>
        <time>2022-07-16T23:53:52Z</time>
      </trkpt>
      <trkpt lat="45.72689" lon="6.61852">
        <ele>2241</ele>
        <time>2022-07-16T23:53:56Z</time>
      </trkpt>
      <trkpt lat="45.72687" lon="6.61852">
        <ele>2241</ele>
        <time>2022-07-16T23:53:58Z</time>
      </trkpt>
      <trkpt lat="45.72685" lon="6.6185">
        <ele>2241</ele>
        <time>2022-07-16T23:54:01Z</time>
      </trkpt>
      <trkpt lat="45.72683" lon="6.6185">
        <ele>2242</ele>
        <time>2022-07-16T23:54:04Z</time>
      </trkpt>
      <trkpt lat="45.72681" lon="6.6185">
        <ele>2242</ele>
        <time>2022-07-16T23:54:07Z</time>
      </trkpt>
      <trkpt lat="45.72679" lon="6.6185">
        <ele>2242</ele>
        <time>2022-07-16T23:54:09Z</time>
      </trkpt>
      <trkpt lat="45.72677" lon="6.61849">
        <ele>2243</ele>
        <time>2022-07-16T23:54:12Z</time>
      </trkpt>
      <trkpt lat="45.72675" lon="6.61848">
        <ele>2243</ele>
        <time>2022-07-16T23:54:15Z</time>
      </trkpt>
      <trkpt lat="45.72673" lon="6.61848">
        <ele>2244</ele>
        <time>2022-07-16T23:54:18Z</time>
      </trkpt>
      <trkpt lat="45.72671" lon="6.61846">
        <ele>2245</ele>
        <time>2022-07-16T23:54:21Z</time>
      </trkpt>
      <trkpt lat="45.72669" lon="6.61844">
        <ele>2245</ele>
        <time>2022-07-16T23:54:25Z</time>
      </trkpt>
      <trkpt lat="45.72668" lon="6.61842">
        <ele>2245</ele>
        <time>2022-07-16T23:54:29Z</time>
      </trkpt>
      <trkpt lat="45.72667" lon="6.6184">
        <ele>2246</ele>
        <time>2022-07-16T23:54:32Z</time>
      </trkpt>
      <trkpt lat="45.72665" lon="6.61839">
        <ele>2246</ele>
        <time>2022-07-16T23:54:34Z</time>
      </trkpt>
      <trkpt lat="45.72664" lon="6.61836">
        <ele>2248</ele>
        <time>2022-07-16T23:54:38Z</time>
      </trkpt>
      <trkpt lat="45.72663" lon="6.61834">
        <ele>2248</ele>
        <time>2022-07-16T23:54:41Z</time>
      </trkpt>
      <trkpt lat="45.72662" lon="6.61832">
        <ele>2249</ele>
        <time>2022-07-16T23:54:45Z</time>
      </trkpt>
      <trkpt lat="45.7266" lon="6.61829">
        <ele>2249</ele>
        <time>2022-07-16T23:54:48Z</time>
      </trkpt>
      <trkpt lat="45.72658" lon="6.61827">
        <ele>2250</ele>
        <time>2022-07-16T23:54:51Z</time>
      </trkpt>
      <trkpt lat="45.72656" lon="6.61825">
        <ele>2250</ele>
        <time>2022-07-16T23:54:53Z</time>
      </trkpt>
      <trkpt lat="45.72655" lon="6.61822">
        <ele>2251</ele>
        <time>2022-07-16T23:54:56Z</time>
      </trkpt>
      <trkpt lat="45.72654" lon="6.61819">
        <ele>2252</ele>
        <time>2022-07-16T23:54:59Z</time>
      </trkpt>
      <trkpt lat="45.72654" lon="6.61816">
        <ele>2253</ele>
        <time>2022-07-16T23:55:02Z</time>
      </trkpt>
      <trkpt lat="45.72653" lon="6.61813">
        <ele>2254</ele>
        <time>2022-07-16T23:55:05Z</time>
      </trkpt>
      <trkpt lat="45.72652" lon="6.61811">
        <ele>2254</ele>
        <time>2022-07-16T23:55:08Z</time>
      </trkpt>
      <trkpt lat="45.72651" lon="6.61808">
        <ele>2254</ele>
        <time>2022-07-16T23:55:11Z</time>
      </trkpt>
      <trkpt lat="45.7265" lon="6.61806">
        <ele>2255</ele>
        <time>2022-07-16T23:55:14Z</time>
      </trkpt>
      <trkpt lat="45.7265" lon="6.61803">
        <ele>2255</ele>
        <time>2022-07-16T23:55:17Z</time>
      </trkpt>
      <trkpt lat="45.7265" lon="6.618">
        <ele>2256</ele>
        <time>2022-07-16T23:55:20Z</time>
      </trkpt>
      <trkpt lat="45.7265" lon="6.61797">
        <ele>2257</ele>
        <time>2022-07-16T23:55:23Z</time>
      </trkpt>
      <trkpt lat="45.7265" lon="6.61794">
        <ele>2257</ele>
        <time>2022-07-16T23:55:26Z</time>
      </trkpt>
      <trkpt lat="45.7265" lon="6.61792">
        <ele>2257</ele>
        <time>2022-07-16T23:55:29Z</time>
      </trkpt>
      <trkpt lat="45.72649" lon="6.61788">
        <ele>2257</ele>
        <time>2022-07-16T23:55:32Z</time>
      </trkpt>
      <trkpt lat="45.72648" lon="6.61785">
        <ele>2258</ele>
        <time>2022-07-16T23:55:35Z</time>
      </trkpt>
      <trkpt lat="45.72647" lon="6.61783">
        <ele>2259</ele>
        <time>2022-07-16T23:55:38Z</time>
      </trkpt>
      <trkpt lat="45.72646" lon="6.6178">
        <ele>2259</ele>
        <time>2022-07-16T23:55:41Z</time>
      </trkpt>
      <trkpt lat="45.72644" lon="6.61779">
        <ele>2260</ele>
        <time>2022-07-16T23:55:44Z</time>
      </trkpt>
      <trkpt lat="45.72641" lon="6.61778">
        <ele>2260</ele>
        <time>2022-07-16T23:55:47Z</time>
      </trkpt>
      <trkpt lat="45.72639" lon="6.61778">
        <ele>2260</ele>
        <time>2022-07-16T23:55:50Z</time>
      </trkpt>
      <trkpt lat="45.72637" lon="6.61778">
        <ele>2261</ele>
        <time>2022-07-16T23:55:52Z</time>
      </trkpt>
      <trkpt lat="45.72635" lon="6.61779">
        <ele>2261</ele>
        <time>2022-07-16T23:55:54Z</time>
      </trkpt>
      <trkpt lat="45.72633" lon="6.61779">
        <ele>2261</ele>
        <time>2022-07-16T23:55:56Z</time>
      </trkpt>
      <trkpt lat="45.72632" lon="6.61776">
        <ele>2262</ele>
        <time>2022-07-16T23:55:58Z</time>
      </trkpt>
      <trkpt lat="45.72632" lon="6.61773">
        <ele>2262</ele>
        <time>2022-07-16T23:56:01Z</time>
      </trkpt>
      <trkpt lat="45.72633" lon="6.6177">
        <ele>2262</ele>
        <time>2022-07-16T23:56:03Z</time>
      </trkpt>
      <trkpt lat="45.72633" lon="6.61766">
        <ele>2263</ele>
        <time>2022-07-16T23:56:06Z</time>
      </trkpt>
      <trkpt lat="45.72633" lon="6.61763">
        <ele>2263</ele>
        <time>2022-07-16T23:56:08Z</time>
      </trkpt>
      <trkpt lat="45.72634" lon="6.6176">
        <ele>2264</ele>
        <time>2022-07-16T23:56:10Z</time>
      </trkpt>
      <trkpt lat="45.72635" lon="6.61758">
        <ele>2264</ele>
        <time>2022-07-16T23:56:12Z</time>
      </trkpt>
      <trkpt lat="45.72637" lon="6.61755">
        <ele>2264</ele>
        <time>2022-07-16T23:56:14Z</time>
      </trkpt>
      <trkpt lat="45.72638" lon="6.61752">
        <ele>2264</ele>
        <time>2022-07-16T23:56:16Z</time>
      </trkpt>
      <trkpt lat="45.7264" lon="6.6175">
        <ele>2264</ele>
        <time>2022-07-16T23:56:18Z</time>
      </trkpt>
      <trkpt lat="45.72642" lon="6.61749">
        <ele>2264</ele>
        <time>2022-07-16T23:56:20Z</time>
      </trkpt>
      <trkpt lat="45.72644" lon="6.61747">
        <ele>2263</ele>
        <time>2022-07-16T23:56:22Z</time>
      </trkpt>
      <trkpt lat="45.72646" lon="6.61745">
        <ele>2263</ele>
        <time>2022-07-16T23:56:25Z</time>
      </trkpt>
      <trkpt lat="45.72648" lon="6.61743">
        <ele>2264</ele>
        <time>2022-07-16T23:56:27Z</time>
      </trkpt>
      <trkpt lat="45.7265" lon="6.61742">
        <ele>2264</ele>
        <time>2022-07-16T23:56:29Z</time>
      </trkpt>
      <trkpt lat="45.72651" lon="6.6174">
        <ele>2265</ele>
        <time>2022-07-16T23:56:32Z</time>
      </trkpt>
      <trkpt lat="45.72653" lon="6.61738">
        <ele>2265</ele>
        <time>2022-07-16T23:56:33Z</time>
      </trkpt>
      <trkpt lat="45.72654" lon="6.61735">
        <ele>2265</ele>
        <time>2022-07-16T23:56:37Z</time>
      </trkpt>
      <trkpt lat="45.72656" lon="6.61733">
        <ele>2265</ele>
        <time>2022-07-16T23:56:39Z</time>
      </trkpt>
      <trkpt lat="45.72657" lon="6.6173">
        <ele>2266</ele>
        <time>2022-07-16T23:56:42Z</time>
      </trkpt>
      <trkpt lat="45.72659" lon="6.61728">
        <ele>2266</ele>
        <time>2022-07-16T23:56:44Z</time>
      </trkpt>
      <trkpt lat="45.7266" lon="6.61726">
        <ele>2266</ele>
        <time>2022-07-16T23:56:46Z</time>
      </trkpt>
      <trkpt lat="45.72662" lon="6.61723">
        <ele>2267</ele>
        <time>2022-07-16T23:56:49Z</time>
      </trkpt>
      <trkpt lat="45.72664" lon="6.61721">
        <ele>2267</ele>
        <time>2022-07-16T23:56:52Z</time>
      </trkpt>
      <trkpt lat="45.72665" lon="6.61718">
        <ele>2267</ele>
        <time>2022-07-16T23:56:54Z</time>
      </trkpt>
      <trkpt lat="45.72666" lon="6.61716">
        <ele>2267</ele>
        <time>2022-07-16T23:56:56Z</time>
      </trkpt>
      <trkpt lat="45.72667" lon="6.61713">
        <ele>2267</ele>
        <time>2022-07-16T23:56:58Z</time>
      </trkpt>
      <trkpt lat="45.72668" lon="6.61711">
        <ele>2267</ele>
        <time>2022-07-16T23:57:00Z</time>
      </trkpt>
      <trkpt lat="45.72668" lon="6.61707">
        <ele>2267</ele>
        <time>2022-07-16T23:57:03Z</time>
      </trkpt>
      <trkpt lat="45.72668" lon="6.61705">
        <ele>2267</ele>
        <time>2022-07-16T23:57:05Z</time>
      </trkpt>
      <trkpt lat="45.72669" lon="6.61702">
        <ele>2267</ele>
        <time>2022-07-16T23:57:07Z</time>
      </trkpt>
      <trkpt lat="45.7267" lon="6.617">
        <ele>2268</ele>
        <time>2022-07-16T23:57:09Z</time>
      </trkpt>
      <trkpt lat="45.72671" lon="6.61697">
        <ele>2268</ele>
        <time>2022-07-16T23:57:11Z</time>
      </trkpt>
      <trkpt lat="45.72672" lon="6.61694">
        <ele>2268</ele>
        <time>2022-07-16T23:57:13Z</time>
      </trkpt>
      <trkpt lat="45.72673" lon="6.61691">
        <ele>2268</ele>
        <time>2022-07-16T23:57:15Z</time>
      </trkpt>
      <trkpt lat="45.72673" lon="6.61688">
        <ele>2268</ele>
        <time>2022-07-16T23:57:17Z</time>
      </trkpt>
      <trkpt lat="45.72673" lon="6.61685">
        <ele>2268</ele>
        <time>2022-07-16T23:57:19Z</time>
      </trkpt>
      <trkpt lat="45.72674" lon="6.61683">
        <ele>2268</ele>
        <time>2022-07-16T23:57:21Z</time>
      </trkpt>
      <trkpt lat="45.72675" lon="6.6168">
        <ele>2268</ele>
        <time>2022-07-16T23:57:23Z</time>
      </trkpt>
      <trkpt lat="45.72676" lon="6.61678">
        <ele>2269</ele>
        <time>2022-07-16T23:57:25Z</time>
      </trkpt>
      <trkpt lat="45.72677" lon="6.61675">
        <ele>2269</ele>
        <time>2022-07-16T23:57:27Z</time>
      </trkpt>
      <trkpt lat="45.72679" lon="6.61673">
        <ele>2270</ele>
        <time>2022-07-16T23:57:29Z</time>
      </trkpt>
      <trkpt lat="45.7268" lon="6.61671">
        <ele>2270</ele>
        <time>2022-07-16T23:57:31Z</time>
      </trkpt>
      <trkpt lat="45.72681" lon="6.61668">
        <ele>2270</ele>
        <time>2022-07-16T23:57:34Z</time>
      </trkpt>
      <trkpt lat="45.72681" lon="6.61665">
        <ele>2270</ele>
        <time>2022-07-16T23:57:37Z</time>
      </trkpt>
      <trkpt lat="45.72681" lon="6.61662">
        <ele>2271</ele>
        <time>2022-07-16T23:57:40Z</time>
      </trkpt>
      <trkpt lat="45.72681" lon="6.61658">
        <ele>2271</ele>
        <time>2022-07-16T23:57:43Z</time>
      </trkpt>
      <trkpt lat="45.72682" lon="6.61656">
        <ele>2271</ele>
        <time>2022-07-16T23:57:45Z</time>
      </trkpt>
      <trkpt lat="45.72684" lon="6.61654">
        <ele>2271</ele>
        <time>2022-07-16T23:57:47Z</time>
      </trkpt>
      <trkpt lat="45.72685" lon="6.61653">
        <ele>2271</ele>
        <time>2022-07-16T23:57:48Z</time>
      </trkpt>
      <trkpt lat="45.72688" lon="6.61651">
        <ele>2271</ele>
        <time>2022-07-16T23:57:52Z</time>
      </trkpt>
      <trkpt lat="45.7269" lon="6.6165">
        <ele>2271</ele>
        <time>2022-07-16T23:57:55Z</time>
      </trkpt>
      <trkpt lat="45.72692" lon="6.61647">
        <ele>2272</ele>
        <time>2022-07-16T23:57:58Z</time>
      </trkpt>
      <trkpt lat="45.72693" lon="6.61645">
        <ele>2272</ele>
        <time>2022-07-16T23:58:00Z</time>
      </trkpt>
      <trkpt lat="45.72695" lon="6.61643">
        <ele>2272</ele>
        <time>2022-07-16T23:58:03Z</time>
      </trkpt>
      <trkpt lat="45.72697" lon="6.61642">
        <ele>2272</ele>
        <time>2022-07-16T23:58:06Z</time>
      </trkpt>
      <trkpt lat="45.72699" lon="6.61643">
        <ele>2274</ele>
        <time>2022-07-16T23:58:11Z</time>
      </trkpt>
      <trkpt lat="45.72701" lon="6.6164">
        <ele>2274</ele>
        <time>2022-07-16T23:58:15Z</time>
      </trkpt>
      <trkpt lat="45.72702" lon="6.61638">
        <ele>2274</ele>
        <time>2022-07-16T23:58:17Z</time>
      </trkpt>
      <trkpt lat="45.72705" lon="6.61637">
        <ele>2274</ele>
        <time>2022-07-16T23:58:19Z</time>
      </trkpt>
      <trkpt lat="45.72707" lon="6.61636">
        <ele>2274</ele>
        <time>2022-07-16T23:58:21Z</time>
      </trkpt>
      <trkpt lat="45.72708" lon="6.61634">
        <ele>2274</ele>
        <time>2022-07-16T23:58:23Z</time>
      </trkpt>
      <trkpt lat="45.7271" lon="6.61631">
        <ele>2274</ele>
        <time>2022-07-16T23:58:25Z</time>
      </trkpt>
      <trkpt lat="45.72712" lon="6.61629">
        <ele>2274</ele>
        <time>2022-07-16T23:58:27Z</time>
      </trkpt>
      <trkpt lat="45.72715" lon="6.61628">
        <ele>2274</ele>
        <time>2022-07-16T23:58:29Z</time>
      </trkpt>
      <trkpt lat="45.72717" lon="6.61626">
        <ele>2274</ele>
        <time>2022-07-16T23:58:31Z</time>
      </trkpt>
      <trkpt lat="45.72719" lon="6.61625">
        <ele>2274</ele>
        <time>2022-07-16T23:58:33Z</time>
      </trkpt>
      <trkpt lat="45.72721" lon="6.61622">
        <ele>2274</ele>
        <time>2022-07-16T23:58:36Z</time>
      </trkpt>
      <trkpt lat="45.72722" lon="6.61619">
        <ele>2274</ele>
        <time>2022-07-16T23:58:38Z</time>
      </trkpt>
      <trkpt lat="45.72724" lon="6.61616">
        <ele>2274</ele>
        <time>2022-07-16T23:58:40Z</time>
      </trkpt>
      <trkpt lat="45.72725" lon="6.61613">
        <ele>2274</ele>
        <time>2022-07-16T23:58:42Z</time>
      </trkpt>
      <trkpt lat="45.72727" lon="6.61612">
        <ele>2274</ele>
        <time>2022-07-16T23:58:44Z</time>
      </trkpt>
      <trkpt lat="45.72729" lon="6.61611">
        <ele>2274</ele>
        <time>2022-07-16T23:58:46Z</time>
      </trkpt>
      <trkpt lat="45.72732" lon="6.61609">
        <ele>2272</ele>
        <time>2022-07-16T23:58:48Z</time>
      </trkpt>
      <trkpt lat="45.72734" lon="6.61606">
        <ele>2272</ele>
        <time>2022-07-16T23:58:50Z</time>
      </trkpt>
      <trkpt lat="45.72736" lon="6.61604">
        <ele>2272</ele>
        <time>2022-07-16T23:58:52Z</time>
      </trkpt>
      <trkpt lat="45.72738" lon="6.61602">
        <ele>2272</ele>
        <time>2022-07-16T23:58:54Z</time>
      </trkpt>
      <trkpt lat="45.7274" lon="6.616">
        <ele>2271</ele>
        <time>2022-07-16T23:58:56Z</time>
      </trkpt>
      <trkpt lat="45.72742" lon="6.61598">
        <ele>2271</ele>
        <time>2022-07-16T23:58:58Z</time>
      </trkpt>
      <trkpt lat="45.72744" lon="6.61596">
        <ele>2271</ele>
        <time>2022-07-16T23:59:00Z</time>
      </trkpt>
      <trkpt lat="45.72746" lon="6.61593">
        <ele>2270</ele>
        <time>2022-07-16T23:59:02Z</time>
      </trkpt>
      <trkpt lat="45.72747" lon="6.6159">
        <ele>2269</ele>
        <time>2022-07-16T23:59:04Z</time>
      </trkpt>
      <trkpt lat="45.72748" lon="6.61587">
        <ele>2268</ele>
        <time>2022-07-16T23:59:06Z</time>
      </trkpt>
      <trkpt lat="45.7275" lon="6.61584">
        <ele>2268</ele>
        <time>2022-07-16T23:59:08Z</time>
      </trkpt>
      <trkpt lat="45.72752" lon="6.61581">
        <ele>2268</ele>
        <time>2022-07-16T23:59:10Z</time>
      </trkpt>
      <trkpt lat="45.72754" lon="6.61579">
        <ele>2267</ele>
        <time>2022-07-16T23:59:12Z</time>
      </trkpt>
      <trkpt lat="45.72755" lon="6.61576">
        <ele>2266</ele>
        <time>2022-07-16T23:59:14Z</time>
      </trkpt>
      <trkpt lat="45.72757" lon="6.61573">
        <ele>2265</ele>
        <time>2022-07-16T23:59:16Z</time>
      </trkpt>
      <trkpt lat="45.72759" lon="6.6157">
        <ele>2265</ele>
        <time>2022-07-16T23:59:18Z</time>
      </trkpt>
      <trkpt lat="45.72761" lon="6.61567">
        <ele>2265</ele>
        <time>2022-07-16T23:59:20Z</time>
      </trkpt>
      <trkpt lat="45.72762" lon="6.61565">
        <ele>2265</ele>
        <time>2022-07-16T23:59:22Z</time>
      </trkpt>
      <trkpt lat="45.72764" lon="6.61562">
        <ele>2265</ele>
        <time>2022-07-16T23:59:24Z</time>
      </trkpt>
      <trkpt lat="45.72765" lon="6.61559">
        <ele>2265</ele>
        <time>2022-07-16T23:59:26Z</time>
      </trkpt>
      <trkpt lat="45.72767" lon="6.61556">
        <ele>2265</ele>
        <time>2022-07-16T23:59:28Z</time>
      </trkpt>
      <trkpt lat="45.72769" lon="6.61553">
        <ele>2264</ele>
        <time>2022-07-16T23:59:30Z</time>
      </trkpt>
      <trkpt lat="45.72771" lon="6.6155">
        <ele>2264</ele>
        <time>2022-07-16T23:59:31Z</time>
      </trkpt>
      <trkpt lat="45.72773" lon="6.61547">
        <ele>2264</ele>
        <time>2022-07-16T23:59:34Z</time>
      </trkpt>
      <trkpt lat="45.72775" lon="6.61544">
        <ele>2264</ele>
        <time>2022-07-16T23:59:36Z</time>
      </trkpt>
      <trkpt lat="45.72776" lon="6.61542">
        <ele>2264</ele>
        <time>2022-07-16T23:59:38Z</time>
      </trkpt>
      <trkpt lat="45.72778" lon="6.61539">
        <ele>2264</ele>
        <time>2022-07-16T23:59:40Z</time>
      </trkpt>
      <trkpt lat="45.72779" lon="6.61537">
        <ele>2263</ele>
        <time>2022-07-16T23:59:42Z</time>
      </trkpt>
      <trkpt lat="45.72782" lon="6.61535">
        <ele>2263</ele>
        <time>2022-07-16T23:59:44Z</time>
      </trkpt>
      <trkpt lat="45.72783" lon="6.61533">
        <ele>2263</ele>
        <time>2022-07-16T23:59:46Z</time>
      </trkpt>
      <trkpt lat="45.72785" lon="6.6153">
        <ele>2263</ele>
        <time>2022-07-16T23:59:48Z</time>
      </trkpt>
      <trkpt lat="45.72786" lon="6.61527">
        <ele>2263</ele>
        <time>2022-07-16T23:59:50Z</time>
      </trkpt>
      <trkpt lat="45.72788" lon="6.61524">
        <ele>2263</ele>
        <time>2022-07-16T23:59:52Z</time>
      </trkpt>
      <trkpt lat="45.7279" lon="6.61522">
        <ele>2262</ele>
        <time>2022-07-16T23:59:54Z</time>
      </trkpt>
      <trkpt lat="45.72791" lon="6.61519">
        <ele>2262</ele>
        <time>2022-07-16T23:59:56Z</time>
      </trkpt>
      <trkpt lat="45.72792" lon="6.61516">
        <ele>2262</ele>
        <time>2022-07-16T23:59:58Z</time>
      </trkpt>
      <trkpt lat="45.72793" lon="6.61513">
        <ele>2262</ele>
        <time>2022-07-17T00:00:00Z</time>
      </trkpt>
      <trkpt lat="45.72794" lon="6.6151">
        <ele>2263</ele>
        <time>2022-07-17T00:00:02Z</time>
      </trkpt>
      <trkpt lat="45.72795" lon="6.61507">
        <ele>2263</ele>
        <time>2022-07-17T00:00:04Z</time>
      </trkpt>
      <trkpt lat="45.72795" lon="6.61504">
        <ele>2263</ele>
        <time>2022-07-17T00:00:06Z</time>
      </trkpt>
      <trkpt lat="45.72795" lon="6.61501">
        <ele>2263</ele>
        <time>2022-07-17T00:00:08Z</time>
      </trkpt>
      <trkpt lat="45.72795" lon="6.61497">
        <ele>2263</ele>
        <time>2022-07-17T00:00:10Z</time>
      </trkpt>
      <trkpt lat="45.72796" lon="6.61494">
        <ele>2263</ele>
        <time>2022-07-17T00:00:12Z</time>
      </trkpt>
      <trkpt lat="45.72796" lon="6.6149">
        <ele>2263</ele>
        <time>2022-07-17T00:00:14Z</time>
      </trkpt>
      <trkpt lat="45.72797" lon="6.61487">
        <ele>2264</ele>
        <time>2022-07-17T00:00:16Z</time>
      </trkpt>
      <trkpt lat="45.72798" lon="6.61484">
        <ele>2264</ele>
        <time>2022-07-17T00:00:18Z</time>
      </trkpt>
      <trkpt lat="45.728" lon="6.61481">
        <ele>2264</ele>
        <time>2022-07-17T00:00:20Z</time>
      </trkpt>
      <trkpt lat="45.72801" lon="6.61479">
        <ele>2265</ele>
        <time>2022-07-17T00:00:21Z</time>
      </trkpt>
      <trkpt lat="45.72801" lon="6.61475">
        <ele>2265</ele>
        <time>2022-07-17T00:00:24Z</time>
      </trkpt>
      <trkpt lat="45.72802" lon="6.61471">
        <ele>2265</ele>
        <time>2022-07-17T00:00:26Z</time>
      </trkpt>
      <trkpt lat="45.72802" lon="6.61468">
        <ele>2265</ele>
        <time>2022-07-17T00:00:28Z</time>
      </trkpt>
      <trkpt lat="45.72802" lon="6.61465">
        <ele>2265</ele>
        <time>2022-07-17T00:00:30Z</time>
      </trkpt>
      <trkpt lat="45.72802" lon="6.61461">
        <ele>2265</ele>
        <time>2022-07-17T00:00:32Z</time>
      </trkpt>
      <trkpt lat="45.72801" lon="6.61457">
        <ele>2265</ele>
        <time>2022-07-17T00:00:34Z</time>
      </trkpt>
      <trkpt lat="45.72801" lon="6.61454">
        <ele>2265</ele>
        <time>2022-07-17T00:00:36Z</time>
      </trkpt>
      <trkpt lat="45.72801" lon="6.61451">
        <ele>2265</ele>
        <time>2022-07-17T00:00:38Z</time>
      </trkpt>
      <trkpt lat="45.72801" lon="6.61447">
        <ele>2265</ele>
        <time>2022-07-17T00:00:40Z</time>
      </trkpt>
      <trkpt lat="45.72801" lon="6.61444">
        <ele>2265</ele>
        <time>2022-07-17T00:00:42Z</time>
      </trkpt>
      <trkpt lat="45.72801" lon="6.6144">
        <ele>2265</ele>
        <time>2022-07-17T00:00:44Z</time>
      </trkpt>
      <trkpt lat="45.728" lon="6.61437">
        <ele>2266</ele>
        <time>2022-07-17T00:00:46Z</time>
      </trkpt>
      <trkpt lat="45.728" lon="6.61434">
        <ele>2266</ele>
        <time>2022-07-17T00:00:47Z</time>
      </trkpt>
      <trkpt lat="45.728" lon="6.6143">
        <ele>2266</ele>
        <time>2022-07-17T00:00:51Z</time>
      </trkpt>
      <trkpt lat="45.728" lon="6.61427">
        <ele>2266</ele>
        <time>2022-07-17T00:00:53Z</time>
      </trkpt>
      <trkpt lat="45.72799" lon="6.61424">
        <ele>2266</ele>
        <time>2022-07-17T00:00:55Z</time>
      </trkpt>
      <trkpt lat="45.728" lon="6.61421">
        <ele>2266</ele>
        <time>2022-07-17T00:00:58Z</time>
      </trkpt>
      <trkpt lat="45.728" lon="6.61417">
        <ele>2266</ele>
        <time>2022-07-17T00:01:01Z</time>
      </trkpt>
      <trkpt lat="45.728" lon="6.61413">
        <ele>2266</ele>
        <time>2022-07-17T00:01:03Z</time>
      </trkpt>
      <trkpt lat="45.728" lon="6.6141">
        <ele>2266</ele>
        <time>2022-07-17T00:01:05Z</time>
      </trkpt>
      <trkpt lat="45.72801" lon="6.61408">
        <ele>2266</ele>
        <time>2022-07-17T00:01:07Z</time>
      </trkpt>
      <trkpt lat="45.72801" lon="6.61405">
        <ele>2267</ele>
        <time>2022-07-17T00:01:09Z</time>
      </trkpt>
      <trkpt lat="45.72802" lon="6.61402">
        <ele>2267</ele>
        <time>2022-07-17T00:01:11Z</time>
      </trkpt>
      <trkpt lat="45.72803" lon="6.61399">
        <ele>2267</ele>
        <time>2022-07-17T00:01:13Z</time>
      </trkpt>
      <trkpt lat="45.72803" lon="6.61396">
        <ele>2267</ele>
        <time>2022-07-17T00:01:15Z</time>
      </trkpt>
      <trkpt lat="45.72804" lon="6.61393">
        <ele>2267</ele>
        <time>2022-07-17T00:01:17Z</time>
      </trkpt>
      <trkpt lat="45.72804" lon="6.6139">
        <ele>2267</ele>
        <time>2022-07-17T00:01:19Z</time>
      </trkpt>
      <trkpt lat="45.72806" lon="6.61387">
        <ele>2268</ele>
        <time>2022-07-17T00:01:21Z</time>
      </trkpt>
      <trkpt lat="45.72806" lon="6.61385">
        <ele>2269</ele>
        <time>2022-07-17T00:01:24Z</time>
      </trkpt>
      <trkpt lat="45.72806" lon="6.61381">
        <ele>2268</ele>
        <time>2022-07-17T00:01:27Z</time>
      </trkpt>
      <trkpt lat="45.72807" lon="6.61378">
        <ele>2269</ele>
        <time>2022-07-17T00:01:29Z</time>
      </trkpt>
      <trkpt lat="45.72808" lon="6.61375">
        <ele>2269</ele>
        <time>2022-07-17T00:01:31Z</time>
      </trkpt>
      <trkpt lat="45.72809" lon="6.61371">
        <ele>2269</ele>
        <time>2022-07-17T00:01:33Z</time>
      </trkpt>
      <trkpt lat="45.7281" lon="6.61368">
        <ele>2269</ele>
        <time>2022-07-17T00:01:35Z</time>
      </trkpt>
      <trkpt lat="45.72811" lon="6.61365">
        <ele>2269</ele>
        <time>2022-07-17T00:01:37Z</time>
      </trkpt>
      <trkpt lat="45.72812" lon="6.61362">
        <ele>2269</ele>
        <time>2022-07-17T00:01:39Z</time>
      </trkpt>
      <trkpt lat="45.72813" lon="6.6136">
        <ele>2269</ele>
        <time>2022-07-17T00:01:41Z</time>
      </trkpt>
      <trkpt lat="45.72814" lon="6.61357">
        <ele>2269</ele>
        <time>2022-07-17T00:01:43Z</time>
      </trkpt>
      <trkpt lat="45.72814" lon="6.61353">
        <ele>2270</ele>
        <time>2022-07-17T00:01:46Z</time>
      </trkpt>
      <trkpt lat="45.72815" lon="6.6135">
        <ele>2270</ele>
        <time>2022-07-17T00:01:48Z</time>
      </trkpt>
      <trkpt lat="45.72816" lon="6.61348">
        <ele>2270</ele>
        <time>2022-07-17T00:01:50Z</time>
      </trkpt>
      <trkpt lat="45.72817" lon="6.61344">
        <ele>2270</ele>
        <time>2022-07-17T00:01:53Z</time>
      </trkpt>
      <trkpt lat="45.72818" lon="6.61342">
        <ele>2271</ele>
        <time>2022-07-17T00:01:55Z</time>
      </trkpt>
      <trkpt lat="45.7282" lon="6.61339">
        <ele>2272</ele>
        <time>2022-07-17T00:01:58Z</time>
      </trkpt>
      <trkpt lat="45.7282" lon="6.61336">
        <ele>2272</ele>
        <time>2022-07-17T00:02:01Z</time>
      </trkpt>
      <trkpt lat="45.72821" lon="6.61333">
        <ele>2272</ele>
        <time>2022-07-17T00:02:04Z</time>
      </trkpt>
      <trkpt lat="45.72822" lon="6.61331">
        <ele>2272</ele>
        <time>2022-07-17T00:02:07Z</time>
      </trkpt>
      <trkpt lat="45.72822" lon="6.61327">
        <ele>2272</ele>
        <time>2022-07-17T00:02:10Z</time>
      </trkpt>
      <trkpt lat="45.72822" lon="6.61325">
        <ele>2274</ele>
        <time>2022-07-17T00:02:12Z</time>
      </trkpt>
      <trkpt lat="45.72823" lon="6.61322">
        <ele>2274</ele>
        <time>2022-07-17T00:02:14Z</time>
      </trkpt>
      <trkpt lat="45.72825" lon="6.6132">
        <ele>2274</ele>
        <time>2022-07-17T00:02:16Z</time>
      </trkpt>
      <trkpt lat="45.72827" lon="6.61318">
        <ele>2275</ele>
        <time>2022-07-17T00:02:19Z</time>
      </trkpt>
      <trkpt lat="45.72829" lon="6.61316">
        <ele>2275</ele>
        <time>2022-07-17T00:02:22Z</time>
      </trkpt>
      <trkpt lat="45.72831" lon="6.61314">
        <ele>2274</ele>
        <time>2022-07-17T00:02:25Z</time>
      </trkpt>
      <trkpt lat="45.72833" lon="6.61312">
        <ele>2275</ele>
        <time>2022-07-17T00:02:27Z</time>
      </trkpt>
      <trkpt lat="45.72835" lon="6.61311">
        <ele>2275</ele>
        <time>2022-07-17T00:02:29Z</time>
      </trkpt>
      <trkpt lat="45.72837" lon="6.61309">
        <ele>2275</ele>
        <time>2022-07-17T00:02:31Z</time>
      </trkpt>
      <trkpt lat="45.72838" lon="6.61308">
        <ele>2276</ele>
        <time>2022-07-17T00:02:34Z</time>
      </trkpt>
      <trkpt lat="45.7284" lon="6.61306">
        <ele>2276</ele>
        <time>2022-07-17T00:02:36Z</time>
      </trkpt>
      <trkpt lat="45.72842" lon="6.61306">
        <ele>2276</ele>
        <time>2022-07-17T00:02:38Z</time>
      </trkpt>
      <trkpt lat="45.72844" lon="6.61307">
        <ele>2276</ele>
        <time>2022-07-17T00:02:40Z</time>
      </trkpt>
      <trkpt lat="45.72845" lon="6.61309">
        <ele>2275</ele>
        <time>2022-07-17T00:02:43Z</time>
      </trkpt>
      <trkpt lat="45.72847" lon="6.61311">
        <ele>2274</ele>
        <time>2022-07-17T00:02:46Z</time>
      </trkpt>
      <trkpt lat="45.72849" lon="6.61312">
        <ele>2272</ele>
        <time>2022-07-17T00:02:48Z</time>
      </trkpt>
      <trkpt lat="45.72851" lon="6.61314">
        <ele>2272</ele>
        <time>2022-07-17T00:02:51Z</time>
      </trkpt>
      <trkpt lat="45.72853" lon="6.61317">
        <ele>2271</ele>
        <time>2022-07-17T00:02:54Z</time>
      </trkpt>
      <trkpt lat="45.72855" lon="6.61317">
        <ele>2271</ele>
        <time>2022-07-17T00:02:56Z</time>
      </trkpt>
      <trkpt lat="45.72857" lon="6.61318">
        <ele>2271</ele>
        <time>2022-07-17T00:02:58Z</time>
      </trkpt>
      <trkpt lat="45.72859" lon="6.61319">
        <ele>2270</ele>
        <time>2022-07-17T00:03:00Z</time>
      </trkpt>
      <trkpt lat="45.72862" lon="6.6132">
        <ele>2270</ele>
        <time>2022-07-17T00:03:02Z</time>
      </trkpt>
      <trkpt lat="45.72864" lon="6.6132">
        <ele>2269</ele>
        <time>2022-07-17T00:03:04Z</time>
      </trkpt>
      <trkpt lat="45.72866" lon="6.61321">
        <ele>2269</ele>
        <time>2022-07-17T00:03:06Z</time>
      </trkpt>
      <trkpt lat="45.72868" lon="6.61321">
        <ele>2269</ele>
        <time>2022-07-17T00:03:08Z</time>
      </trkpt>
      <trkpt lat="45.7287" lon="6.61322">
        <ele>2269</ele>
        <time>2022-07-17T00:03:10Z</time>
      </trkpt>
      <trkpt lat="45.72872" lon="6.61323">
        <ele>2269</ele>
        <time>2022-07-17T00:03:12Z</time>
      </trkpt>
      <trkpt lat="45.72874" lon="6.61324">
        <ele>2268</ele>
        <time>2022-07-17T00:03:14Z</time>
      </trkpt>
      <trkpt lat="45.72875" lon="6.61326">
        <ele>2268</ele>
        <time>2022-07-17T00:03:18Z</time>
      </trkpt>
      <trkpt lat="45.72878" lon="6.61326">
        <ele>2268</ele>
        <time>2022-07-17T00:03:26Z</time>
      </trkpt>
      <trkpt lat="45.7288" lon="6.61327">
        <ele>2267</ele>
        <time>2022-07-17T00:03:29Z</time>
      </trkpt>
      <trkpt lat="45.72883" lon="6.61326">
        <ele>2267</ele>
        <time>2022-07-17T00:03:31Z</time>
      </trkpt>
      <trkpt lat="45.72885" lon="6.61325">
        <ele>2267</ele>
        <time>2022-07-17T00:03:33Z</time>
      </trkpt>
      <trkpt lat="45.72887" lon="6.61325">
        <ele>2267</ele>
        <time>2022-07-17T00:03:35Z</time>
      </trkpt>
      <trkpt lat="45.72888" lon="6.61326">
        <ele>2266</ele>
        <time>2022-07-17T00:03:37Z</time>
      </trkpt>
      <trkpt lat="45.7289" lon="6.61326">
        <ele>2265</ele>
        <time>2022-07-17T00:03:39Z</time>
      </trkpt>
      <trkpt lat="45.72892" lon="6.61328">
        <ele>2265</ele>
        <time>2022-07-17T00:03:42Z</time>
      </trkpt>
      <trkpt lat="45.72895" lon="6.61328">
        <ele>2264</ele>
        <time>2022-07-17T00:03:45Z</time>
      </trkpt>
      <trkpt lat="45.72898" lon="6.61328">
        <ele>2264</ele>
        <time>2022-07-17T00:03:48Z</time>
      </trkpt>
      <trkpt lat="45.72899" lon="6.6133">
        <ele>2264</ele>
        <time>2022-07-17T00:03:50Z</time>
      </trkpt>
      <trkpt lat="45.72902" lon="6.6133">
        <ele>2263</ele>
        <time>2022-07-17T00:03:53Z</time>
      </trkpt>
      <trkpt lat="45.72904" lon="6.6133">
        <ele>2263</ele>
        <time>2022-07-17T00:03:55Z</time>
      </trkpt>
      <trkpt lat="45.72906" lon="6.6133">
        <ele>2263</ele>
        <time>2022-07-17T00:03:57Z</time>
      </trkpt>
      <trkpt lat="45.72908" lon="6.6133">
        <ele>2262</ele>
        <time>2022-07-17T00:03:59Z</time>
      </trkpt>
      <trkpt lat="45.72911" lon="6.6133">
        <ele>2261</ele>
        <time>2022-07-17T00:04:01Z</time>
      </trkpt>
      <trkpt lat="45.72913" lon="6.6133">
        <ele>2261</ele>
        <time>2022-07-17T00:04:03Z</time>
      </trkpt>
      <trkpt lat="45.72916" lon="6.61332">
        <ele>2261</ele>
        <time>2022-07-17T00:04:07Z</time>
      </trkpt>
      <trkpt lat="45.72913" lon="6.61331">
        <ele>2259</ele>
        <time>2022-07-17T00:04:16Z</time>
      </trkpt>
      <trkpt lat="45.7291" lon="6.61331">
        <ele>2259</ele>
        <time>2022-07-17T00:04:18Z</time>
      </trkpt>
      <trkpt lat="45.72908" lon="6.61329">
        <ele>2259</ele>
        <time>2022-07-17T00:04:19Z</time>
      </trkpt>
      <trkpt lat="45.72907" lon="6.61329">
        <ele>2258</ele>
        <time>2022-07-17T00:04:20Z</time>
      </trkpt>
      <trkpt lat="45.72906" lon="6.61328">
        <ele>2258</ele>
        <time>2022-07-17T00:04:21Z</time>
      </trkpt>
      <trkpt lat="45.72904" lon="6.61328">
        <ele>2258</ele>
        <time>2022-07-17T00:04:22Z</time>
      </trkpt>
      <trkpt lat="45.72903" lon="6.61327">
        <ele>2258</ele>
        <time>2022-07-17T00:04:23Z</time>
      </trkpt>
      <trkpt lat="45.72902" lon="6.61327">
        <ele>2258</ele>
        <time>2022-07-17T00:04:24Z</time>
      </trkpt>
      <trkpt lat="45.729" lon="6.61326">
        <ele>2257</ele>
        <time>2022-07-17T00:04:26Z</time>
      </trkpt>
      <trkpt lat="45.72898" lon="6.61324">
        <ele>2257</ele>
        <time>2022-07-17T00:04:29Z</time>
      </trkpt>
      <trkpt lat="45.72896" lon="6.61322">
        <ele>2256</ele>
        <time>2022-07-17T00:04:31Z</time>
      </trkpt>
      <trkpt lat="45.72894" lon="6.61321">
        <ele>2256</ele>
        <time>2022-07-17T00:04:33Z</time>
      </trkpt>
      <trkpt lat="45.72892" lon="6.61318">
        <ele>2256</ele>
        <time>2022-07-17T00:04:35Z</time>
      </trkpt>
      <trkpt lat="45.72891" lon="6.61316">
        <ele>2255</ele>
        <time>2022-07-17T00:04:38Z</time>
      </trkpt>
      <trkpt lat="45.7289" lon="6.61315">
        <ele>2255</ele>
        <time>2022-07-17T00:04:39Z</time>
      </trkpt>
      <trkpt lat="45.7289" lon="6.61314">
        <ele>2255</ele>
        <time>2022-07-17T00:04:40Z</time>
      </trkpt>
      <trkpt lat="45.72889" lon="6.61313">
        <ele>2254</ele>
        <time>2022-07-17T00:04:41Z</time>
      </trkpt>
      <trkpt lat="45.72888" lon="6.61312">
        <ele>2254</ele>
        <time>2022-07-17T00:04:42Z</time>
      </trkpt>
      <trkpt lat="45.72887" lon="6.61311">
        <ele>2254</ele>
        <time>2022-07-17T00:04:44Z</time>
      </trkpt>
      <trkpt lat="45.72886" lon="6.6131">
        <ele>2254</ele>
        <time>2022-07-17T00:04:45Z</time>
      </trkpt>
      <trkpt lat="45.72886" lon="6.61309">
        <ele>2254</ele>
        <time>2022-07-17T00:04:46Z</time>
      </trkpt>
      <trkpt lat="45.72885" lon="6.61308">
        <ele>2254</ele>
        <time>2022-07-17T00:04:47Z</time>
      </trkpt>
      <trkpt lat="45.72884" lon="6.61307">
        <ele>2253</ele>
        <time>2022-07-17T00:04:48Z</time>
      </trkpt>
      <trkpt lat="45.72885" lon="6.61304">
        <ele>2252</ele>
        <time>2022-07-17T00:04:51Z</time>
      </trkpt>
      <trkpt lat="45.72887" lon="6.61303">
        <ele>2252</ele>
        <time>2022-07-17T00:04:54Z</time>
      </trkpt>
      <trkpt lat="45.72889" lon="6.61304">
        <ele>2252</ele>
        <time>2022-07-17T00:04:56Z</time>
      </trkpt>
      <trkpt lat="45.72891" lon="6.61306">
        <ele>2251</ele>
        <time>2022-07-17T00:04:58Z</time>
      </trkpt>
      <trkpt lat="45.72894" lon="6.61307">
        <ele>2250</ele>
        <time>2022-07-17T00:05:00Z</time>
      </trkpt>
      <trkpt lat="45.72896" lon="6.61308">
        <ele>2250</ele>
        <time>2022-07-17T00:05:02Z</time>
      </trkpt>
      <trkpt lat="45.72898" lon="6.61308">
        <ele>2249</ele>
        <time>2022-07-17T00:05:04Z</time>
      </trkpt>
      <trkpt lat="45.729" lon="6.61307">
        <ele>2248</ele>
        <time>2022-07-17T00:05:06Z</time>
      </trkpt>
      <trkpt lat="45.72902" lon="6.61306">
        <ele>2248</ele>
        <time>2022-07-17T00:05:08Z</time>
      </trkpt>
      <trkpt lat="45.72904" lon="6.61306">
        <ele>2246</ele>
        <time>2022-07-17T00:05:10Z</time>
      </trkpt>
      <trkpt lat="45.72906" lon="6.61307">
        <ele>2246</ele>
        <time>2022-07-17T00:05:12Z</time>
      </trkpt>
      <trkpt lat="45.72908" lon="6.61307">
        <ele>2245</ele>
        <time>2022-07-17T00:05:13Z</time>
      </trkpt>
      <trkpt lat="45.7291" lon="6.61308">
        <ele>2245</ele>
        <time>2022-07-17T00:05:17Z</time>
      </trkpt>
      <trkpt lat="45.72912" lon="6.61307">
        <ele>2244</ele>
        <time>2022-07-17T00:05:19Z</time>
      </trkpt>
      <trkpt lat="45.72914" lon="6.61306">
        <ele>2243</ele>
        <time>2022-07-17T00:05:22Z</time>
      </trkpt>
      <trkpt lat="45.72916" lon="6.61303">
        <ele>2242</ele>
        <time>2022-07-17T00:05:25Z</time>
      </trkpt>
      <trkpt lat="45.72918" lon="6.61301">
        <ele>2241</ele>
        <time>2022-07-17T00:05:29Z</time>
      </trkpt>
      <trkpt lat="45.72919" lon="6.61299">
        <ele>2241</ele>
        <time>2022-07-17T00:05:33Z</time>
      </trkpt>
      <trkpt lat="45.72921" lon="6.61297">
        <ele>2240</ele>
        <time>2022-07-17T00:05:36Z</time>
      </trkpt>
      <trkpt lat="45.72923" lon="6.61295">
        <ele>2239</ele>
        <time>2022-07-17T00:05:39Z</time>
      </trkpt>
      <trkpt lat="45.72925" lon="6.61292">
        <ele>2239</ele>
        <time>2022-07-17T00:05:42Z</time>
      </trkpt>
      <trkpt lat="45.72927" lon="6.6129">
        <ele>2238</ele>
        <time>2022-07-17T00:05:45Z</time>
      </trkpt>
      <trkpt lat="45.72929" lon="6.61289">
        <ele>2237</ele>
        <time>2022-07-17T00:05:48Z</time>
      </trkpt>
      <trkpt lat="45.72931" lon="6.61288">
        <ele>2236</ele>
        <time>2022-07-17T00:05:50Z</time>
      </trkpt>
      <trkpt lat="45.72933" lon="6.61286">
        <ele>2236</ele>
        <time>2022-07-17T00:05:53Z</time>
      </trkpt>
      <trkpt lat="45.72935" lon="6.61285">
        <ele>2235</ele>
        <time>2022-07-17T00:05:55Z</time>
      </trkpt>
      <trkpt lat="45.72937" lon="6.61284">
        <ele>2235</ele>
        <time>2022-07-17T00:05:58Z</time>
      </trkpt>
      <trkpt lat="45.72939" lon="6.61283">
        <ele>2234</ele>
        <time>2022-07-17T00:06:00Z</time>
      </trkpt>
      <trkpt lat="45.72941" lon="6.61282">
        <ele>2234</ele>
        <time>2022-07-17T00:06:02Z</time>
      </trkpt>
      <trkpt lat="45.72943" lon="6.61281">
        <ele>2233</ele>
        <time>2022-07-17T00:06:05Z</time>
      </trkpt>
      <trkpt lat="45.72946" lon="6.6128">
        <ele>2233</ele>
        <time>2022-07-17T00:06:08Z</time>
      </trkpt>
      <trkpt lat="45.72947" lon="6.61278">
        <ele>2232</ele>
        <time>2022-07-17T00:06:12Z</time>
      </trkpt>
      <trkpt lat="45.72949" lon="6.61276">
        <ele>2231</ele>
        <time>2022-07-17T00:06:14Z</time>
      </trkpt>
      <trkpt lat="45.7295" lon="6.61273">
        <ele>2230</ele>
        <time>2022-07-17T00:06:18Z</time>
      </trkpt>
      <trkpt lat="45.72951" lon="6.61271">
        <ele>2230</ele>
        <time>2022-07-17T00:06:20Z</time>
      </trkpt>
      <trkpt lat="45.72953" lon="6.61269">
        <ele>2229</ele>
        <time>2022-07-17T00:06:23Z</time>
      </trkpt>
      <trkpt lat="45.72954" lon="6.61267">
        <ele>2229</ele>
        <time>2022-07-17T00:06:26Z</time>
      </trkpt>
      <trkpt lat="45.72956" lon="6.61265">
        <ele>2228</ele>
        <time>2022-07-17T00:06:29Z</time>
      </trkpt>
      <trkpt lat="45.72958" lon="6.61263">
        <ele>2227</ele>
        <time>2022-07-17T00:06:32Z</time>
      </trkpt>
      <trkpt lat="45.72959" lon="6.61261">
        <ele>2227</ele>
        <time>2022-07-17T00:06:35Z</time>
      </trkpt>
      <trkpt lat="45.72961" lon="6.61258">
        <ele>2225</ele>
        <time>2022-07-17T00:06:38Z</time>
      </trkpt>
      <trkpt lat="45.72961" lon="6.61256">
        <ele>2225</ele>
        <time>2022-07-17T00:06:41Z</time>
      </trkpt>
      <trkpt lat="45.72962" lon="6.61253">
        <ele>2224</ele>
        <time>2022-07-17T00:06:44Z</time>
      </trkpt>
      <trkpt lat="45.72963" lon="6.6125">
        <ele>2224</ele>
        <time>2022-07-17T00:06:47Z</time>
      </trkpt>
      <trkpt lat="45.72964" lon="6.61247">
        <ele>2223</ele>
        <time>2022-07-17T00:06:50Z</time>
      </trkpt>
      <trkpt lat="45.72965" lon="6.61244">
        <ele>2222</ele>
        <time>2022-07-17T00:06:53Z</time>
      </trkpt>
      <trkpt lat="45.72966" lon="6.61241">
        <ele>2220</ele>
        <time>2022-07-17T00:06:56Z</time>
      </trkpt>
      <trkpt lat="45.72965" lon="6.61238">
        <ele>2219</ele>
        <time>2022-07-17T00:07:00Z</time>
      </trkpt>
      <trkpt lat="45.72963" lon="6.6124">
        <ele>2219</ele>
        <time>2022-07-17T00:07:03Z</time>
      </trkpt>
      <trkpt lat="45.72961" lon="6.61241">
        <ele>2218</ele>
        <time>2022-07-17T00:07:05Z</time>
      </trkpt>
      <trkpt lat="45.72959" lon="6.61242">
        <ele>2218</ele>
        <time>2022-07-17T00:07:07Z</time>
      </trkpt>
      <trkpt lat="45.72957" lon="6.61243">
        <ele>2217</ele>
        <time>2022-07-17T00:07:09Z</time>
      </trkpt>
      <trkpt lat="45.72956" lon="6.61244">
        <ele>2216</ele>
        <time>2022-07-17T00:07:11Z</time>
      </trkpt>
      <trkpt lat="45.72954" lon="6.61245">
        <ele>2215</ele>
        <time>2022-07-17T00:07:13Z</time>
      </trkpt>
      <trkpt lat="45.72952" lon="6.61247">
        <ele>2215</ele>
        <time>2022-07-17T00:07:15Z</time>
      </trkpt>
      <trkpt lat="45.72948" lon="6.61248">
        <ele>2214</ele>
        <time>2022-07-17T00:07:17Z</time>
      </trkpt>
      <trkpt lat="45.72945" lon="6.61248">
        <ele>2214</ele>
        <time>2022-07-17T00:07:19Z</time>
      </trkpt>
      <trkpt lat="45.72943" lon="6.61249">
        <ele>2214</ele>
        <time>2022-07-17T00:07:21Z</time>
      </trkpt>
      <trkpt lat="45.7294" lon="6.6125">
        <ele>2213</ele>
        <time>2022-07-17T00:07:23Z</time>
      </trkpt>
      <trkpt lat="45.72938" lon="6.61251">
        <ele>2213</ele>
        <time>2022-07-17T00:07:25Z</time>
      </trkpt>
      <trkpt lat="45.72935" lon="6.61252">
        <ele>2213</ele>
        <time>2022-07-17T00:07:26Z</time>
      </trkpt>
      <trkpt lat="45.72933" lon="6.61253">
        <ele>2213</ele>
        <time>2022-07-17T00:07:29Z</time>
      </trkpt>
      <trkpt lat="45.7293" lon="6.61252">
        <ele>2212</ele>
        <time>2022-07-17T00:07:31Z</time>
      </trkpt>
      <trkpt lat="45.72928" lon="6.61252">
        <ele>2212</ele>
        <time>2022-07-17T00:07:33Z</time>
      </trkpt>
      <trkpt lat="45.72926" lon="6.61251">
        <ele>2212</ele>
        <time>2022-07-17T00:07:35Z</time>
      </trkpt>
      <trkpt lat="45.72923" lon="6.61251">
        <ele>2212</ele>
        <time>2022-07-17T00:07:37Z</time>
      </trkpt>
      <trkpt lat="45.7292" lon="6.61251">
        <ele>2211</ele>
        <time>2022-07-17T00:07:40Z</time>
      </trkpt>
      <trkpt lat="45.72918" lon="6.6125">
        <ele>2211</ele>
        <time>2022-07-17T00:07:42Z</time>
      </trkpt>
      <trkpt lat="45.72915" lon="6.61249">
        <ele>2211</ele>
        <time>2022-07-17T00:07:44Z</time>
      </trkpt>
      <trkpt lat="45.72912" lon="6.61248">
        <ele>2211</ele>
        <time>2022-07-17T00:07:46Z</time>
      </trkpt>
      <trkpt lat="45.72909" lon="6.61247">
        <ele>2210</ele>
        <time>2022-07-17T00:07:48Z</time>
      </trkpt>
      <trkpt lat="45.72907" lon="6.61245">
        <ele>2210</ele>
        <time>2022-07-17T00:07:50Z</time>
      </trkpt>
      <trkpt lat="45.72904" lon="6.61245">
        <ele>2210</ele>
        <time>2022-07-17T00:07:53Z</time>
      </trkpt>
      <trkpt lat="45.72902" lon="6.61243">
        <ele>2209</ele>
        <time>2022-07-17T00:07:56Z</time>
      </trkpt>
      <trkpt lat="45.72899" lon="6.6124">
        <ele>2209</ele>
        <time>2022-07-17T00:07:59Z</time>
      </trkpt>
      <trkpt lat="45.72899" lon="6.61238">
        <ele>2209</ele>
        <time>2022-07-17T00:08:01Z</time>
      </trkpt>
      <trkpt lat="45.72901" lon="6.61235">
        <ele>2209</ele>
        <time>2022-07-17T00:08:03Z</time>
      </trkpt>
      <trkpt lat="45.72902" lon="6.61234">
        <ele>2207</ele>
        <time>2022-07-17T00:08:06Z</time>
      </trkpt>
      <trkpt lat="45.72904" lon="6.61234">
        <ele>2207</ele>
        <time>2022-07-17T00:08:08Z</time>
      </trkpt>
      <trkpt lat="45.72906" lon="6.61234">
        <ele>2207</ele>
        <time>2022-07-17T00:08:10Z</time>
      </trkpt>
      <trkpt lat="45.72909" lon="6.61233">
        <ele>2206</ele>
        <time>2022-07-17T00:08:13Z</time>
      </trkpt>
      <trkpt lat="45.72911" lon="6.61232">
        <ele>2205</ele>
        <time>2022-07-17T00:08:16Z</time>
      </trkpt>
      <trkpt lat="45.72913" lon="6.61232">
        <ele>2205</ele>
        <time>2022-07-17T00:08:18Z</time>
      </trkpt>
      <trkpt lat="45.72915" lon="6.61232">
        <ele>2204</ele>
        <time>2022-07-17T00:08:21Z</time>
      </trkpt>
      <trkpt lat="45.72913" lon="6.6123">
        <ele>2203</ele>
        <time>2022-07-17T00:08:26Z</time>
      </trkpt>
      <trkpt lat="45.72911" lon="6.61228">
        <ele>2202</ele>
        <time>2022-07-17T00:08:28Z</time>
      </trkpt>
      <trkpt lat="45.72909" lon="6.61226">
        <ele>2202</ele>
        <time>2022-07-17T00:08:32Z</time>
      </trkpt>
      <trkpt lat="45.72909" lon="6.61223">
        <ele>2201</ele>
        <time>2022-07-17T00:08:36Z</time>
      </trkpt>
      <trkpt lat="45.72907" lon="6.61221">
        <ele>2200</ele>
        <time>2022-07-17T00:08:39Z</time>
      </trkpt>
      <trkpt lat="45.72905" lon="6.61218">
        <ele>2200</ele>
        <time>2022-07-17T00:08:42Z</time>
      </trkpt>
      <trkpt lat="45.72904" lon="6.61215">
        <ele>2198</ele>
        <time>2022-07-17T00:08:45Z</time>
      </trkpt>
      <trkpt lat="45.72903" lon="6.61213">
        <ele>2197</ele>
        <time>2022-07-17T00:08:49Z</time>
      </trkpt>
      <trkpt lat="45.72902" lon="6.6121">
        <ele>2196</ele>
        <time>2022-07-17T00:08:53Z</time>
      </trkpt>
      <trkpt lat="45.72902" lon="6.61207">
        <ele>2194</ele>
        <time>2022-07-17T00:08:56Z</time>
      </trkpt>
      <trkpt lat="45.729" lon="6.61204">
        <ele>2194</ele>
        <time>2022-07-17T00:08:59Z</time>
      </trkpt>
      <trkpt lat="45.72898" lon="6.61203">
        <ele>2194</ele>
        <time>2022-07-17T00:09:01Z</time>
      </trkpt>
      <trkpt lat="45.72896" lon="6.61201">
        <ele>2192</ele>
        <time>2022-07-17T00:09:05Z</time>
      </trkpt>
      <trkpt lat="45.72894" lon="6.61199">
        <ele>2192</ele>
        <time>2022-07-17T00:09:07Z</time>
      </trkpt>
      <trkpt lat="45.72893" lon="6.61196">
        <ele>2191</ele>
        <time>2022-07-17T00:09:10Z</time>
      </trkpt>
      <trkpt lat="45.72891" lon="6.61193">
        <ele>2190</ele>
        <time>2022-07-17T00:09:13Z</time>
      </trkpt>
      <trkpt lat="45.72889" lon="6.6119">
        <ele>2189</ele>
        <time>2022-07-17T00:09:15Z</time>
      </trkpt>
      <trkpt lat="45.72887" lon="6.61188">
        <ele>2189</ele>
        <time>2022-07-17T00:09:17Z</time>
      </trkpt>
      <trkpt lat="45.72885" lon="6.61186">
        <ele>2189</ele>
        <time>2022-07-17T00:09:19Z</time>
      </trkpt>
      <trkpt lat="45.72884" lon="6.61183">
        <ele>2188</ele>
        <time>2022-07-17T00:09:21Z</time>
      </trkpt>
      <trkpt lat="45.72883" lon="6.61181">
        <ele>2187</ele>
        <time>2022-07-17T00:09:23Z</time>
      </trkpt>
      <trkpt lat="45.72881" lon="6.61177">
        <ele>2187</ele>
        <time>2022-07-17T00:09:27Z</time>
      </trkpt>
      <trkpt lat="45.72881" lon="6.61174">
        <ele>2186</ele>
        <time>2022-07-17T00:09:29Z</time>
      </trkpt>
      <trkpt lat="45.72882" lon="6.61171">
        <ele>2185</ele>
        <time>2022-07-17T00:09:31Z</time>
      </trkpt>
      <trkpt lat="45.72884" lon="6.61169">
        <ele>2185</ele>
        <time>2022-07-17T00:09:33Z</time>
      </trkpt>
      <trkpt lat="45.72886" lon="6.61168">
        <ele>2185</ele>
        <time>2022-07-17T00:09:35Z</time>
      </trkpt>
      <trkpt lat="45.72888" lon="6.61166">
        <ele>2184</ele>
        <time>2022-07-17T00:09:41Z</time>
      </trkpt>
      <trkpt lat="45.72887" lon="6.61163">
        <ele>2182</ele>
        <time>2022-07-17T00:09:45Z</time>
      </trkpt>
      <trkpt lat="45.72885" lon="6.61162">
        <ele>2182</ele>
        <time>2022-07-17T00:09:48Z</time>
      </trkpt>
      <trkpt lat="45.72885" lon="6.61159">
        <ele>2181</ele>
        <time>2022-07-17T00:09:50Z</time>
      </trkpt>
      <trkpt lat="45.72884" lon="6.61155">
        <ele>2180</ele>
        <time>2022-07-17T00:09:52Z</time>
      </trkpt>
      <trkpt lat="45.72882" lon="6.61152">
        <ele>2179</ele>
        <time>2022-07-17T00:09:55Z</time>
      </trkpt>
      <trkpt lat="45.72881" lon="6.61149">
        <ele>2179</ele>
        <time>2022-07-17T00:09:57Z</time>
      </trkpt>
      <trkpt lat="45.72881" lon="6.61146">
        <ele>2178</ele>
        <time>2022-07-17T00:10:00Z</time>
      </trkpt>
      <trkpt lat="45.7288" lon="6.61143">
        <ele>2176</ele>
        <time>2022-07-17T00:10:02Z</time>
      </trkpt>
      <trkpt lat="45.7288" lon="6.61141">
        <ele>2176</ele>
        <time>2022-07-17T00:10:04Z</time>
      </trkpt>
      <trkpt lat="45.72879" lon="6.61137">
        <ele>2175</ele>
        <time>2022-07-17T00:10:07Z</time>
      </trkpt>
      <trkpt lat="45.72879" lon="6.61133">
        <ele>2174</ele>
        <time>2022-07-17T00:10:10Z</time>
      </trkpt>
      <trkpt lat="45.72879" lon="6.6113">
        <ele>2173</ele>
        <time>2022-07-17T00:10:16Z</time>
      </trkpt>
      <trkpt lat="45.72878" lon="6.61127">
        <ele>2173</ele>
        <time>2022-07-17T00:10:17Z</time>
      </trkpt>
      <trkpt lat="45.72878" lon="6.61124">
        <ele>2173</ele>
        <time>2022-07-17T00:10:20Z</time>
      </trkpt>
      <trkpt lat="45.72878" lon="6.61121">
        <ele>2172</ele>
        <time>2022-07-17T00:10:22Z</time>
      </trkpt>
      <trkpt lat="45.72877" lon="6.61119">
        <ele>2172</ele>
        <time>2022-07-17T00:10:24Z</time>
      </trkpt>
      <trkpt lat="45.72877" lon="6.61116">
        <ele>2171</ele>
        <time>2022-07-17T00:10:26Z</time>
      </trkpt>
      <trkpt lat="45.72877" lon="6.61112">
        <ele>2170</ele>
        <time>2022-07-17T00:10:28Z</time>
      </trkpt>
      <trkpt lat="45.72877" lon="6.61109">
        <ele>2170</ele>
        <time>2022-07-17T00:10:30Z</time>
      </trkpt>
      <trkpt lat="45.72877" lon="6.61105">
        <ele>2168</ele>
        <time>2022-07-17T00:10:32Z</time>
      </trkpt>
      <trkpt lat="45.72875" lon="6.61102">
        <ele>2168</ele>
        <time>2022-07-17T00:10:34Z</time>
      </trkpt>
      <trkpt lat="45.72876" lon="6.61099">
        <ele>2167</ele>
        <time>2022-07-17T00:10:36Z</time>
      </trkpt>
      <trkpt lat="45.72876" lon="6.61096">
        <ele>2166</ele>
        <time>2022-07-17T00:10:38Z</time>
      </trkpt>
      <trkpt lat="45.72877" lon="6.61094">
        <ele>2165</ele>
        <time>2022-07-17T00:10:40Z</time>
      </trkpt>
      <trkpt lat="45.72877" lon="6.61091">
        <ele>2165</ele>
        <time>2022-07-17T00:10:42Z</time>
      </trkpt>
      <trkpt lat="45.72877" lon="6.61087">
        <ele>2165</ele>
        <time>2022-07-17T00:10:44Z</time>
      </trkpt>
      <trkpt lat="45.72877" lon="6.61083">
        <ele>2164</ele>
        <time>2022-07-17T00:10:46Z</time>
      </trkpt>
      <trkpt lat="45.72877" lon="6.61078">
        <ele>2164</ele>
        <time>2022-07-17T00:10:48Z</time>
      </trkpt>
      <trkpt lat="45.72877" lon="6.61074">
        <ele>2163</ele>
        <time>2022-07-17T00:10:50Z</time>
      </trkpt>
      <trkpt lat="45.72877" lon="6.61071">
        <ele>2163</ele>
        <time>2022-07-17T00:10:52Z</time>
      </trkpt>
      <trkpt lat="45.72877" lon="6.61068">
        <ele>2163</ele>
        <time>2022-07-17T00:10:54Z</time>
      </trkpt>
      <trkpt lat="45.72876" lon="6.61065">
        <ele>2163</ele>
        <time>2022-07-17T00:10:56Z</time>
      </trkpt>
      <trkpt lat="45.72876" lon="6.61061">
        <ele>2163</ele>
        <time>2022-07-17T00:10:58Z</time>
      </trkpt>
      <trkpt lat="45.72877" lon="6.61058">
        <ele>2162</ele>
        <time>2022-07-17T00:11:00Z</time>
      </trkpt>
      <trkpt lat="45.72878" lon="6.61055">
        <ele>2161</ele>
        <time>2022-07-17T00:11:02Z</time>
      </trkpt>
      <trkpt lat="45.72878" lon="6.61052">
        <ele>2161</ele>
        <time>2022-07-17T00:11:04Z</time>
      </trkpt>
      <trkpt lat="45.72878" lon="6.6105">
        <ele>2160</ele>
        <time>2022-07-17T00:11:06Z</time>
      </trkpt>
      <trkpt lat="45.72879" lon="6.61046">
        <ele>2160</ele>
        <time>2022-07-17T00:11:09Z</time>
      </trkpt>
      <trkpt lat="45.7288" lon="6.61044">
        <ele>2159</ele>
        <time>2022-07-17T00:11:11Z</time>
      </trkpt>
      <trkpt lat="45.72879" lon="6.61041">
        <ele>2158</ele>
        <time>2022-07-17T00:11:13Z</time>
      </trkpt>
      <trkpt lat="45.72879" lon="6.61038">
        <ele>2158</ele>
        <time>2022-07-17T00:11:14Z</time>
      </trkpt>
      <trkpt lat="45.72879" lon="6.61035">
        <ele>2156</ele>
        <time>2022-07-17T00:11:17Z</time>
      </trkpt>
      <trkpt lat="45.7288" lon="6.61033">
        <ele>2157</ele>
        <time>2022-07-17T00:11:19Z</time>
      </trkpt>
      <trkpt lat="45.72881" lon="6.6103">
        <ele>2156</ele>
        <time>2022-07-17T00:11:22Z</time>
      </trkpt>
      <trkpt lat="45.72881" lon="6.61026">
        <ele>2156</ele>
        <time>2022-07-17T00:11:25Z</time>
      </trkpt>
      <trkpt lat="45.7288" lon="6.61023">
        <ele>2154</ele>
        <time>2022-07-17T00:11:28Z</time>
      </trkpt>
      <trkpt lat="45.72879" lon="6.6102">
        <ele>2154</ele>
        <time>2022-07-17T00:11:31Z</time>
      </trkpt>
      <trkpt lat="45.72879" lon="6.61017">
        <ele>2154</ele>
        <time>2022-07-17T00:11:34Z</time>
      </trkpt>
      <trkpt lat="45.72879" lon="6.61013">
        <ele>2152</ele>
        <time>2022-07-17T00:11:37Z</time>
      </trkpt>
      <trkpt lat="45.72879" lon="6.61011">
        <ele>2152</ele>
        <time>2022-07-17T00:11:39Z</time>
      </trkpt>
      <trkpt lat="45.72878" lon="6.61007">
        <ele>2151</ele>
        <time>2022-07-17T00:11:42Z</time>
      </trkpt>
      <trkpt lat="45.72877" lon="6.61004">
        <ele>2150</ele>
        <time>2022-07-17T00:11:44Z</time>
      </trkpt>
      <trkpt lat="45.72877" lon="6.61001">
        <ele>2149</ele>
        <time>2022-07-17T00:11:46Z</time>
      </trkpt>
      <trkpt lat="45.72876" lon="6.60997">
        <ele>2149</ele>
        <time>2022-07-17T00:11:48Z</time>
      </trkpt>
      <trkpt lat="45.72875" lon="6.60994">
        <ele>2149</ele>
        <time>2022-07-17T00:11:50Z</time>
      </trkpt>
      <trkpt lat="45.72875" lon="6.6099">
        <ele>2149</ele>
        <time>2022-07-17T00:11:52Z</time>
      </trkpt>
      <trkpt lat="45.72875" lon="6.60987">
        <ele>2148</ele>
        <time>2022-07-17T00:11:54Z</time>
      </trkpt>
      <trkpt lat="45.72875" lon="6.60984">
        <ele>2147</ele>
        <time>2022-07-17T00:11:56Z</time>
      </trkpt>
      <trkpt lat="45.72873" lon="6.60981">
        <ele>2147</ele>
        <time>2022-07-17T00:11:59Z</time>
      </trkpt>
      <trkpt lat="45.72873" lon="6.60977">
        <ele>2147</ele>
        <time>2022-07-17T00:12:01Z</time>
      </trkpt>
      <trkpt lat="45.72873" lon="6.60975">
        <ele>2147</ele>
        <time>2022-07-17T00:12:03Z</time>
      </trkpt>
      <trkpt lat="45.72874" lon="6.60972">
        <ele>2146</ele>
        <time>2022-07-17T00:12:05Z</time>
      </trkpt>
      <trkpt lat="45.72875" lon="6.60969">
        <ele>2146</ele>
        <time>2022-07-17T00:12:07Z</time>
      </trkpt>
      <trkpt lat="45.72876" lon="6.60966">
        <ele>2145</ele>
        <time>2022-07-17T00:12:10Z</time>
      </trkpt>
      <trkpt lat="45.72876" lon="6.60964">
        <ele>2145</ele>
        <time>2022-07-17T00:12:11Z</time>
      </trkpt>
      <trkpt lat="45.72875" lon="6.60961">
        <ele>2145</ele>
        <time>2022-07-17T00:12:14Z</time>
      </trkpt>
      <trkpt lat="45.72875" lon="6.60958">
        <ele>2144</ele>
        <time>2022-07-17T00:12:16Z</time>
      </trkpt>
      <trkpt lat="45.72874" lon="6.60954">
        <ele>2144</ele>
        <time>2022-07-17T00:12:19Z</time>
      </trkpt>
      <trkpt lat="45.72874" lon="6.60952">
        <ele>2144</ele>
        <time>2022-07-17T00:12:21Z</time>
      </trkpt>
      <trkpt lat="45.72875" lon="6.60948">
        <ele>2141</ele>
        <time>2022-07-17T00:12:24Z</time>
      </trkpt>
      <trkpt lat="45.72874" lon="6.60944">
        <ele>2141</ele>
        <time>2022-07-17T00:12:27Z</time>
      </trkpt>
      <trkpt lat="45.72874" lon="6.60941">
        <ele>2141</ele>
        <time>2022-07-17T00:12:29Z</time>
      </trkpt>
      <trkpt lat="45.72875" lon="6.60938">
        <ele>2141</ele>
        <time>2022-07-17T00:12:32Z</time>
      </trkpt>
      <trkpt lat="45.72875" lon="6.60934">
        <ele>2140</ele>
        <time>2022-07-17T00:12:34Z</time>
      </trkpt>
      <trkpt lat="45.72875" lon="6.60931">
        <ele>2139</ele>
        <time>2022-07-17T00:12:36Z</time>
      </trkpt>
      <trkpt lat="45.72874" lon="6.60928">
        <ele>2139</ele>
        <time>2022-07-17T00:12:38Z</time>
      </trkpt>
      <trkpt lat="45.72875" lon="6.60925">
        <ele>2138</ele>
        <time>2022-07-17T00:12:40Z</time>
      </trkpt>
      <trkpt lat="45.72875" lon="6.60922">
        <ele>2137</ele>
        <time>2022-07-17T00:12:42Z</time>
      </trkpt>
      <trkpt lat="45.72876" lon="6.60919">
        <ele>2137</ele>
        <time>2022-07-17T00:12:44Z</time>
      </trkpt>
      <trkpt lat="45.72876" lon="6.60915">
        <ele>2137</ele>
        <time>2022-07-17T00:12:46Z</time>
      </trkpt>
      <trkpt lat="45.72877" lon="6.60912">
        <ele>2137</ele>
        <time>2022-07-17T00:12:48Z</time>
      </trkpt>
      <trkpt lat="45.72877" lon="6.60909">
        <ele>2137</ele>
        <time>2022-07-17T00:12:50Z</time>
      </trkpt>
      <trkpt lat="45.72878" lon="6.60906">
        <ele>2135</ele>
        <time>2022-07-17T00:12:53Z</time>
      </trkpt>
      <trkpt lat="45.72879" lon="6.60903">
        <ele>2134</ele>
        <time>2022-07-17T00:12:55Z</time>
      </trkpt>
      <trkpt lat="45.72878" lon="6.609">
        <ele>2134</ele>
        <time>2022-07-17T00:12:57Z</time>
      </trkpt>
      <trkpt lat="45.72878" lon="6.60897">
        <ele>2134</ele>
        <time>2022-07-17T00:12:59Z</time>
      </trkpt>
      <trkpt lat="45.72878" lon="6.60894">
        <ele>2133</ele>
        <time>2022-07-17T00:13:01Z</time>
      </trkpt>
      <trkpt lat="45.72879" lon="6.60892">
        <ele>2133</ele>
        <time>2022-07-17T00:13:03Z</time>
      </trkpt>
      <trkpt lat="45.72882" lon="6.60892">
        <ele>2133</ele>
        <time>2022-07-17T00:13:06Z</time>
      </trkpt>
      <trkpt lat="45.72883" lon="6.60895">
        <ele>2133</ele>
        <time>2022-07-17T00:13:09Z</time>
      </trkpt>
      <trkpt lat="45.72884" lon="6.60898">
        <ele>2131</ele>
        <time>2022-07-17T00:13:12Z</time>
      </trkpt>
      <trkpt lat="45.72886" lon="6.60901">
        <ele>2131</ele>
        <time>2022-07-17T00:13:15Z</time>
      </trkpt>
      <trkpt lat="45.72887" lon="6.60904">
        <ele>2130</ele>
        <time>2022-07-17T00:13:18Z</time>
      </trkpt>
      <trkpt lat="45.72889" lon="6.60903">
        <ele>2130</ele>
        <time>2022-07-17T00:13:21Z</time>
      </trkpt>
      <trkpt lat="45.7289" lon="6.609">
        <ele>2129</ele>
        <time>2022-07-17T00:13:24Z</time>
      </trkpt>
      <trkpt lat="45.72891" lon="6.60898">
        <ele>2128</ele>
        <time>2022-07-17T00:13:27Z</time>
      </trkpt>
      <trkpt lat="45.7289" lon="6.60895">
        <ele>2127</ele>
        <time>2022-07-17T00:13:30Z</time>
      </trkpt>
      <trkpt lat="45.72891" lon="6.60892">
        <ele>2127</ele>
        <time>2022-07-17T00:13:33Z</time>
      </trkpt>
      <trkpt lat="45.72892" lon="6.60889">
        <ele>2127</ele>
        <time>2022-07-17T00:13:36Z</time>
      </trkpt>
      <trkpt lat="45.72893" lon="6.60886">
        <ele>2127</ele>
        <time>2022-07-17T00:13:39Z</time>
      </trkpt>
      <trkpt lat="45.72894" lon="6.60883">
        <ele>2126</ele>
        <time>2022-07-17T00:13:42Z</time>
      </trkpt>
      <trkpt lat="45.72894" lon="6.6088">
        <ele>2125</ele>
        <time>2022-07-17T00:13:45Z</time>
      </trkpt>
      <trkpt lat="45.72893" lon="6.60877">
        <ele>2124</ele>
        <time>2022-07-17T00:13:48Z</time>
      </trkpt>
      <trkpt lat="45.72892" lon="6.60874">
        <ele>2123</ele>
        <time>2022-07-17T00:13:51Z</time>
      </trkpt>
      <trkpt lat="45.72891" lon="6.60873">
        <ele>2123</ele>
        <time>2022-07-17T00:13:53Z</time>
      </trkpt>
      <trkpt lat="45.7289" lon="6.60871">
        <ele>2122</ele>
        <time>2022-07-17T00:13:55Z</time>
      </trkpt>
      <trkpt lat="45.72888" lon="6.60868">
        <ele>2122</ele>
        <time>2022-07-17T00:13:58Z</time>
      </trkpt>
      <trkpt lat="45.72887" lon="6.60865">
        <ele>2121</ele>
        <time>2022-07-17T00:14:01Z</time>
      </trkpt>
      <trkpt lat="45.72886" lon="6.60862">
        <ele>2121</ele>
        <time>2022-07-17T00:14:03Z</time>
      </trkpt>
      <trkpt lat="45.72886" lon="6.6086">
        <ele>2120</ele>
        <time>2022-07-17T00:14:05Z</time>
      </trkpt>
      <trkpt lat="45.72885" lon="6.60857">
        <ele>2118</ele>
        <time>2022-07-17T00:14:07Z</time>
      </trkpt>
      <trkpt lat="45.72884" lon="6.60854">
        <ele>2116</ele>
        <time>2022-07-17T00:14:09Z</time>
      </trkpt>
      <trkpt lat="45.72883" lon="6.60852">
        <ele>2116</ele>
        <time>2022-07-17T00:14:11Z</time>
      </trkpt>
      <trkpt lat="45.72882" lon="6.60849">
        <ele>2116</ele>
        <time>2022-07-17T00:14:14Z</time>
      </trkpt>
      <trkpt lat="45.72881" lon="6.60846">
        <ele>2115</ele>
        <time>2022-07-17T00:14:16Z</time>
      </trkpt>
      <trkpt lat="45.72881" lon="6.60843">
        <ele>2115</ele>
        <time>2022-07-17T00:14:18Z</time>
      </trkpt>
      <trkpt lat="45.72882" lon="6.6084">
        <ele>2114</ele>
        <time>2022-07-17T00:14:21Z</time>
      </trkpt>
      <trkpt lat="45.72883" lon="6.60837">
        <ele>2114</ele>
        <time>2022-07-17T00:14:24Z</time>
      </trkpt>
      <trkpt lat="45.72883" lon="6.60834">
        <ele>2111</ele>
        <time>2022-07-17T00:14:27Z</time>
      </trkpt>
      <trkpt lat="45.72883" lon="6.60831">
        <ele>2111</ele>
        <time>2022-07-17T00:14:29Z</time>
      </trkpt>
      <trkpt lat="45.72884" lon="6.60827">
        <ele>2111</ele>
        <time>2022-07-17T00:14:32Z</time>
      </trkpt>
      <trkpt lat="45.72884" lon="6.60824">
        <ele>2110</ele>
        <time>2022-07-17T00:14:34Z</time>
      </trkpt>
      <trkpt lat="45.72885" lon="6.60822">
        <ele>2110</ele>
        <time>2022-07-17T00:14:36Z</time>
      </trkpt>
      <trkpt lat="45.72886" lon="6.60819">
        <ele>2110</ele>
        <time>2022-07-17T00:14:38Z</time>
      </trkpt>
      <trkpt lat="45.72888" lon="6.60816">
        <ele>2109</ele>
        <time>2022-07-17T00:14:40Z</time>
      </trkpt>
      <trkpt lat="45.72889" lon="6.60813">
        <ele>2109</ele>
        <time>2022-07-17T00:14:42Z</time>
      </trkpt>
      <trkpt lat="45.7289" lon="6.6081">
        <ele>2109</ele>
        <time>2022-07-17T00:14:44Z</time>
      </trkpt>
      <trkpt lat="45.72891" lon="6.60807">
        <ele>2107</ele>
        <time>2022-07-17T00:14:46Z</time>
      </trkpt>
      <trkpt lat="45.72892" lon="6.60805">
        <ele>2107</ele>
        <time>2022-07-17T00:14:48Z</time>
      </trkpt>
      <trkpt lat="45.72893" lon="6.60803">
        <ele>2106</ele>
        <time>2022-07-17T00:14:51Z</time>
      </trkpt>
      <trkpt lat="45.72894" lon="6.608">
        <ele>2106</ele>
        <time>2022-07-17T00:14:53Z</time>
      </trkpt>
      <trkpt lat="45.72895" lon="6.60797">
        <ele>2105</ele>
        <time>2022-07-17T00:14:55Z</time>
      </trkpt>
      <trkpt lat="45.72897" lon="6.60795">
        <ele>2105</ele>
        <time>2022-07-17T00:14:58Z</time>
      </trkpt>
      <trkpt lat="45.72899" lon="6.60795">
        <ele>2104</ele>
        <time>2022-07-17T00:15:01Z</time>
      </trkpt>
      <trkpt lat="45.72901" lon="6.60794">
        <ele>2102</ele>
        <time>2022-07-17T00:15:04Z</time>
      </trkpt>
      <trkpt lat="45.72903" lon="6.60793">
        <ele>2102</ele>
        <time>2022-07-17T00:15:06Z</time>
      </trkpt>
      <trkpt lat="45.72904" lon="6.60791">
        <ele>2102</ele>
        <time>2022-07-17T00:15:08Z</time>
      </trkpt>
      <trkpt lat="45.72906" lon="6.60788">
        <ele>2101</ele>
        <time>2022-07-17T00:15:10Z</time>
      </trkpt>
      <trkpt lat="45.72907" lon="6.60787">
        <ele>2101</ele>
        <time>2022-07-17T00:15:12Z</time>
      </trkpt>
      <trkpt lat="45.72909" lon="6.60785">
        <ele>2101</ele>
        <time>2022-07-17T00:15:14Z</time>
      </trkpt>
      <trkpt lat="45.72911" lon="6.60783">
        <ele>2100</ele>
        <time>2022-07-17T00:15:16Z</time>
      </trkpt>
      <trkpt lat="45.72912" lon="6.6078">
        <ele>2099</ele>
        <time>2022-07-17T00:15:18Z</time>
      </trkpt>
      <trkpt lat="45.72913" lon="6.60777">
        <ele>2099</ele>
        <time>2022-07-17T00:15:20Z</time>
      </trkpt>
      <trkpt lat="45.72914" lon="6.60774">
        <ele>2099</ele>
        <time>2022-07-17T00:15:22Z</time>
      </trkpt>
      <trkpt lat="45.72916" lon="6.60772">
        <ele>2098</ele>
        <time>2022-07-17T00:15:24Z</time>
      </trkpt>
      <trkpt lat="45.72919" lon="6.6077">
        <ele>2098</ele>
        <time>2022-07-17T00:15:26Z</time>
      </trkpt>
      <trkpt lat="45.72921" lon="6.60769">
        <ele>2097</ele>
        <time>2022-07-17T00:15:28Z</time>
      </trkpt>
      <trkpt lat="45.72923" lon="6.60767">
        <ele>2097</ele>
        <time>2022-07-17T00:15:30Z</time>
      </trkpt>
      <trkpt lat="45.72925" lon="6.60766">
        <ele>2096</ele>
        <time>2022-07-17T00:15:32Z</time>
      </trkpt>
      <trkpt lat="45.72928" lon="6.60768">
        <ele>2096</ele>
        <time>2022-07-17T00:15:34Z</time>
      </trkpt>
      <trkpt lat="45.72929" lon="6.60771">
        <ele>2096</ele>
        <time>2022-07-17T00:15:37Z</time>
      </trkpt>
      <trkpt lat="45.7293" lon="6.60775">
        <ele>2096</ele>
        <time>2022-07-17T00:15:40Z</time>
      </trkpt>
      <trkpt lat="45.7293" lon="6.60778">
        <ele>2095</ele>
        <time>2022-07-17T00:15:42Z</time>
      </trkpt>
      <trkpt lat="45.72931" lon="6.60781">
        <ele>2094</ele>
        <time>2022-07-17T00:15:45Z</time>
      </trkpt>
      <trkpt lat="45.72934" lon="6.6078">
        <ele>2094</ele>
        <time>2022-07-17T00:15:48Z</time>
      </trkpt>
      <trkpt lat="45.72936" lon="6.60779">
        <ele>2093</ele>
        <time>2022-07-17T00:15:50Z</time>
      </trkpt>
      <trkpt lat="45.72938" lon="6.60777">
        <ele>2093</ele>
        <time>2022-07-17T00:15:52Z</time>
      </trkpt>
      <trkpt lat="45.72941" lon="6.60776">
        <ele>2093</ele>
        <time>2022-07-17T00:15:54Z</time>
      </trkpt>
      <trkpt lat="45.72942" lon="6.60775">
        <ele>2093</ele>
        <time>2022-07-17T00:15:56Z</time>
      </trkpt>
      <trkpt lat="45.72944" lon="6.60774">
        <ele>2092</ele>
        <time>2022-07-17T00:15:58Z</time>
      </trkpt>
      <trkpt lat="45.72946" lon="6.60772">
        <ele>2092</ele>
        <time>2022-07-17T00:16:01Z</time>
      </trkpt>
      <trkpt lat="45.72948" lon="6.6077">
        <ele>2090</ele>
        <time>2022-07-17T00:16:04Z</time>
      </trkpt>
      <trkpt lat="45.7295" lon="6.60769">
        <ele>2089</ele>
        <time>2022-07-17T00:16:07Z</time>
      </trkpt>
      <trkpt lat="45.72952" lon="6.60769">
        <ele>2088</ele>
        <time>2022-07-17T00:16:10Z</time>
      </trkpt>
      <trkpt lat="45.72954" lon="6.60768">
        <ele>2088</ele>
        <time>2022-07-17T00:16:13Z</time>
      </trkpt>
      <trkpt lat="45.72956" lon="6.60767">
        <ele>2087</ele>
        <time>2022-07-17T00:16:17Z</time>
      </trkpt>
      <trkpt lat="45.72954" lon="6.60765">
        <ele>2085</ele>
        <time>2022-07-17T00:16:22Z</time>
      </trkpt>
      <trkpt lat="45.72952" lon="6.60764">
        <ele>2085</ele>
        <time>2022-07-17T00:16:25Z</time>
      </trkpt>
      <trkpt lat="45.7295" lon="6.60764">
        <ele>2085</ele>
        <time>2022-07-17T00:16:28Z</time>
      </trkpt>
      <trkpt lat="45.72948" lon="6.60762">
        <ele>2085</ele>
        <time>2022-07-17T00:16:31Z</time>
      </trkpt>
      <trkpt lat="45.72947" lon="6.60759">
        <ele>2084</ele>
        <time>2022-07-17T00:16:34Z</time>
      </trkpt>
      <trkpt lat="45.72947" lon="6.60756">
        <ele>2084</ele>
        <time>2022-07-17T00:16:37Z</time>
      </trkpt>
      <trkpt lat="45.72946" lon="6.60753">
        <ele>2083</ele>
        <time>2022-07-17T00:16:40Z</time>
      </trkpt>
      <trkpt lat="45.72945" lon="6.6075">
        <ele>2082</ele>
        <time>2022-07-17T00:16:42Z</time>
      </trkpt>
      <trkpt lat="45.72944" lon="6.60748">
        <ele>2082</ele>
        <time>2022-07-17T00:16:44Z</time>
      </trkpt>
      <trkpt lat="45.72943" lon="6.60746">
        <ele>2082</ele>
        <time>2022-07-17T00:16:46Z</time>
      </trkpt>
      <trkpt lat="45.72941" lon="6.60743">
        <ele>2082</ele>
        <time>2022-07-17T00:16:48Z</time>
      </trkpt>
      <trkpt lat="45.7294" lon="6.60741">
        <ele>2082</ele>
        <time>2022-07-17T00:16:50Z</time>
      </trkpt>
      <trkpt lat="45.72939" lon="6.60739">
        <ele>2082</ele>
        <time>2022-07-17T00:16:52Z</time>
      </trkpt>
      <trkpt lat="45.72938" lon="6.60737">
        <ele>2081</ele>
        <time>2022-07-17T00:16:54Z</time>
      </trkpt>
      <trkpt lat="45.72937" lon="6.60734">
        <ele>2080</ele>
        <time>2022-07-17T00:16:57Z</time>
      </trkpt>
      <trkpt lat="45.72936" lon="6.6073">
        <ele>2080</ele>
        <time>2022-07-17T00:17:00Z</time>
      </trkpt>
      <trkpt lat="45.72936" lon="6.60727">
        <ele>2080</ele>
        <time>2022-07-17T00:17:02Z</time>
      </trkpt>
      <trkpt lat="45.72937" lon="6.60724">
        <ele>2080</ele>
        <time>2022-07-17T00:17:04Z</time>
      </trkpt>
      <trkpt lat="45.72938" lon="6.60722">
        <ele>2078</ele>
        <time>2022-07-17T00:17:06Z</time>
      </trkpt>
      <trkpt lat="45.72939" lon="6.6072">
        <ele>2077</ele>
        <time>2022-07-17T00:17:08Z</time>
      </trkpt>
      <trkpt lat="45.72941" lon="6.60721">
        <ele>2077</ele>
        <time>2022-07-17T00:17:11Z</time>
      </trkpt>
      <trkpt lat="45.72943" lon="6.60722">
        <ele>2076</ele>
        <time>2022-07-17T00:17:14Z</time>
      </trkpt>
      <trkpt lat="45.72945" lon="6.60725">
        <ele>2076</ele>
        <time>2022-07-17T00:17:17Z</time>
      </trkpt>
      <trkpt lat="45.72947" lon="6.60726">
        <ele>2075</ele>
        <time>2022-07-17T00:17:20Z</time>
      </trkpt>
      <trkpt lat="45.7295" lon="6.60727">
        <ele>2074</ele>
        <time>2022-07-17T00:17:23Z</time>
      </trkpt>
      <trkpt lat="45.72951" lon="6.60724">
        <ele>2073</ele>
        <time>2022-07-17T00:17:27Z</time>
      </trkpt>
      <trkpt lat="45.7295" lon="6.60721">
        <ele>2072</ele>
        <time>2022-07-17T00:17:29Z</time>
      </trkpt>
      <trkpt lat="45.7295" lon="6.60718">
        <ele>2072</ele>
        <time>2022-07-17T00:17:31Z</time>
      </trkpt>
      <trkpt lat="45.7295" lon="6.60715">
        <ele>2071</ele>
        <time>2022-07-17T00:17:33Z</time>
      </trkpt>
      <trkpt lat="45.7295" lon="6.60712">
        <ele>2071</ele>
        <time>2022-07-17T00:17:35Z</time>
      </trkpt>
      <trkpt lat="45.7295" lon="6.60708">
        <ele>2069</ele>
        <time>2022-07-17T00:17:37Z</time>
      </trkpt>
      <trkpt lat="45.7295" lon="6.60706">
        <ele>2070</ele>
        <time>2022-07-17T00:17:39Z</time>
      </trkpt>
      <trkpt lat="45.7295" lon="6.60703">
        <ele>2069</ele>
        <time>2022-07-17T00:17:41Z</time>
      </trkpt>
      <trkpt lat="45.72951" lon="6.607">
        <ele>2069</ele>
        <time>2022-07-17T00:17:43Z</time>
      </trkpt>
      <trkpt lat="45.72952" lon="6.60697">
        <ele>2069</ele>
        <time>2022-07-17T00:17:46Z</time>
      </trkpt>
      <trkpt lat="45.72954" lon="6.60694">
        <ele>2068</ele>
        <time>2022-07-17T00:17:48Z</time>
      </trkpt>
      <trkpt lat="45.72955" lon="6.60692">
        <ele>2067</ele>
        <time>2022-07-17T00:17:50Z</time>
      </trkpt>
      <trkpt lat="45.72956" lon="6.6069">
        <ele>2066</ele>
        <time>2022-07-17T00:17:52Z</time>
      </trkpt>
      <trkpt lat="45.72957" lon="6.60687">
        <ele>2066</ele>
        <time>2022-07-17T00:17:55Z</time>
      </trkpt>
      <trkpt lat="45.72957" lon="6.60684">
        <ele>2064</ele>
        <time>2022-07-17T00:17:57Z</time>
      </trkpt>
      <trkpt lat="45.72958" lon="6.6068">
        <ele>2064</ele>
        <time>2022-07-17T00:18:00Z</time>
      </trkpt>
      <trkpt lat="45.7296" lon="6.60677">
        <ele>2064</ele>
        <time>2022-07-17T00:18:03Z</time>
      </trkpt>
      <trkpt lat="45.7296" lon="6.60675">
        <ele>2063</ele>
        <time>2022-07-17T00:18:05Z</time>
      </trkpt>
      <trkpt lat="45.7296" lon="6.60672">
        <ele>2063</ele>
        <time>2022-07-17T00:18:07Z</time>
      </trkpt>
      <trkpt lat="45.72961" lon="6.60668">
        <ele>2061</ele>
        <time>2022-07-17T00:18:09Z</time>
      </trkpt>
      <trkpt lat="45.72962" lon="6.60666">
        <ele>2061</ele>
        <time>2022-07-17T00:18:11Z</time>
      </trkpt>
      <trkpt lat="45.72964" lon="6.60664">
        <ele>2060</ele>
        <time>2022-07-17T00:18:14Z</time>
      </trkpt>
      <trkpt lat="45.72965" lon="6.6066">
        <ele>2059</ele>
        <time>2022-07-17T00:18:17Z</time>
      </trkpt>
      <trkpt lat="45.72966" lon="6.60658">
        <ele>2059</ele>
        <time>2022-07-17T00:18:19Z</time>
      </trkpt>
      <trkpt lat="45.72967" lon="6.60655">
        <ele>2059</ele>
        <time>2022-07-17T00:18:22Z</time>
      </trkpt>
      <trkpt lat="45.72969" lon="6.60653">
        <ele>2057</ele>
        <time>2022-07-17T00:18:26Z</time>
      </trkpt>
      <trkpt lat="45.72971" lon="6.60651">
        <ele>2056</ele>
        <time>2022-07-17T00:18:30Z</time>
      </trkpt>
      <trkpt lat="45.72972" lon="6.60649">
        <ele>2055</ele>
        <time>2022-07-17T00:18:34Z</time>
      </trkpt>
      <trkpt lat="45.72974" lon="6.60647">
        <ele>2055</ele>
        <time>2022-07-17T00:18:37Z</time>
      </trkpt>
      <trkpt lat="45.72976" lon="6.60645">
        <ele>2054</ele>
        <time>2022-07-17T00:18:40Z</time>
      </trkpt>
      <trkpt lat="45.72978" lon="6.60643">
        <ele>2052</ele>
        <time>2022-07-17T00:18:43Z</time>
      </trkpt>
      <trkpt lat="45.72979" lon="6.6064">
        <ele>2052</ele>
        <time>2022-07-17T00:18:45Z</time>
      </trkpt>
      <trkpt lat="45.72979" lon="6.60638">
        <ele>2052</ele>
        <time>2022-07-17T00:18:47Z</time>
      </trkpt>
      <trkpt lat="45.7298" lon="6.60634">
        <ele>2051</ele>
        <time>2022-07-17T00:18:50Z</time>
      </trkpt>
      <trkpt lat="45.72981" lon="6.60632">
        <ele>2050</ele>
        <time>2022-07-17T00:18:52Z</time>
      </trkpt>
      <trkpt lat="45.72983" lon="6.60631">
        <ele>2050</ele>
        <time>2022-07-17T00:18:54Z</time>
      </trkpt>
      <trkpt lat="45.72984" lon="6.60629">
        <ele>2050</ele>
        <time>2022-07-17T00:18:57Z</time>
      </trkpt>
      <trkpt lat="45.72985" lon="6.60626">
        <ele>2050</ele>
        <time>2022-07-17T00:18:59Z</time>
      </trkpt>
      <trkpt lat="45.72987" lon="6.60625">
        <ele>2048</ele>
        <time>2022-07-17T00:19:01Z</time>
      </trkpt>
      <trkpt lat="45.7299" lon="6.60623">
        <ele>2048</ele>
        <time>2022-07-17T00:19:03Z</time>
      </trkpt>
      <trkpt lat="45.72992" lon="6.60622">
        <ele>2048</ele>
        <time>2022-07-17T00:19:05Z</time>
      </trkpt>
      <trkpt lat="45.72994" lon="6.60621">
        <ele>2047</ele>
        <time>2022-07-17T00:19:07Z</time>
      </trkpt>
      <trkpt lat="45.72996" lon="6.60619">
        <ele>2047</ele>
        <time>2022-07-17T00:19:09Z</time>
      </trkpt>
      <trkpt lat="45.72997" lon="6.60617">
        <ele>2046</ele>
        <time>2022-07-17T00:19:11Z</time>
      </trkpt>
      <trkpt lat="45.72999" lon="6.60615">
        <ele>2045</ele>
        <time>2022-07-17T00:19:14Z</time>
      </trkpt>
      <trkpt lat="45.73002" lon="6.60614">
        <ele>2045</ele>
        <time>2022-07-17T00:19:17Z</time>
      </trkpt>
      <trkpt lat="45.73004" lon="6.60613">
        <ele>2044</ele>
        <time>2022-07-17T00:19:19Z</time>
      </trkpt>
      <trkpt lat="45.73006" lon="6.60613">
        <ele>2043</ele>
        <time>2022-07-17T00:19:21Z</time>
      </trkpt>
      <trkpt lat="45.73008" lon="6.60613">
        <ele>2043</ele>
        <time>2022-07-17T00:19:23Z</time>
      </trkpt>
      <trkpt lat="45.7301" lon="6.60614">
        <ele>2042</ele>
        <time>2022-07-17T00:19:26Z</time>
      </trkpt>
      <trkpt lat="45.73012" lon="6.60613">
        <ele>2041</ele>
        <time>2022-07-17T00:19:28Z</time>
      </trkpt>
      <trkpt lat="45.73014" lon="6.60612">
        <ele>2040</ele>
        <time>2022-07-17T00:19:31Z</time>
      </trkpt>
      <trkpt lat="45.73016" lon="6.6061">
        <ele>2040</ele>
        <time>2022-07-17T00:19:33Z</time>
      </trkpt>
      <trkpt lat="45.73018" lon="6.60609">
        <ele>2040</ele>
        <time>2022-07-17T00:19:35Z</time>
      </trkpt>
      <trkpt lat="45.73021" lon="6.60607">
        <ele>2038</ele>
        <time>2022-07-17T00:19:37Z</time>
      </trkpt>
      <trkpt lat="45.73023" lon="6.60604">
        <ele>2038</ele>
        <time>2022-07-17T00:19:39Z</time>
      </trkpt>
      <trkpt lat="45.73026" lon="6.60602">
        <ele>2038</ele>
        <time>2022-07-17T00:19:41Z</time>
      </trkpt>
      <trkpt lat="45.73028" lon="6.60601">
        <ele>2037</ele>
        <time>2022-07-17T00:19:43Z</time>
      </trkpt>
      <trkpt lat="45.73031" lon="6.606">
        <ele>2037</ele>
        <time>2022-07-17T00:19:45Z</time>
      </trkpt>
      <trkpt lat="45.73034" lon="6.60599">
        <ele>2036</ele>
        <time>2022-07-17T00:19:47Z</time>
      </trkpt>
      <trkpt lat="45.73037" lon="6.60599">
        <ele>2037</ele>
        <time>2022-07-17T00:19:49Z</time>
      </trkpt>
      <trkpt lat="45.7304" lon="6.606">
        <ele>2036</ele>
        <time>2022-07-17T00:19:51Z</time>
      </trkpt>
      <trkpt lat="45.73042" lon="6.60601">
        <ele>2036</ele>
        <time>2022-07-17T00:19:53Z</time>
      </trkpt>
      <trkpt lat="45.73045" lon="6.60602">
        <ele>2036</ele>
        <time>2022-07-17T00:19:55Z</time>
      </trkpt>
      <trkpt lat="45.73047" lon="6.60602">
        <ele>2036</ele>
        <time>2022-07-17T00:19:57Z</time>
      </trkpt>
      <trkpt lat="45.73049" lon="6.60604">
        <ele>2036</ele>
        <time>2022-07-17T00:19:59Z</time>
      </trkpt>
      <trkpt lat="45.73052" lon="6.60606">
        <ele>2035</ele>
        <time>2022-07-17T00:20:01Z</time>
      </trkpt>
      <trkpt lat="45.73054" lon="6.60608">
        <ele>2035</ele>
        <time>2022-07-17T00:20:03Z</time>
      </trkpt>
      <trkpt lat="45.73055" lon="6.6061">
        <ele>2035</ele>
        <time>2022-07-17T00:20:05Z</time>
      </trkpt>
      <trkpt lat="45.73056" lon="6.60613">
        <ele>2034</ele>
        <time>2022-07-17T00:20:06Z</time>
      </trkpt>
      <trkpt lat="45.73059" lon="6.60615">
        <ele>2034</ele>
        <time>2022-07-17T00:20:10Z</time>
      </trkpt>
      <trkpt lat="45.73061" lon="6.60616">
        <ele>2033</ele>
        <time>2022-07-17T00:20:12Z</time>
      </trkpt>
      <trkpt lat="45.73063" lon="6.60617">
        <ele>2033</ele>
        <time>2022-07-17T00:20:14Z</time>
      </trkpt>
      <trkpt lat="45.73066" lon="6.60619">
        <ele>2033</ele>
        <time>2022-07-17T00:20:16Z</time>
      </trkpt>
      <trkpt lat="45.73068" lon="6.60621">
        <ele>2033</ele>
        <time>2022-07-17T00:20:18Z</time>
      </trkpt>
      <trkpt lat="45.73071" lon="6.60622">
        <ele>2032</ele>
        <time>2022-07-17T00:20:20Z</time>
      </trkpt>
      <trkpt lat="45.73073" lon="6.60624">
        <ele>2031</ele>
        <time>2022-07-17T00:20:22Z</time>
      </trkpt>
      <trkpt lat="45.73075" lon="6.60625">
        <ele>2031</ele>
        <time>2022-07-17T00:20:24Z</time>
      </trkpt>
      <trkpt lat="45.73078" lon="6.60627">
        <ele>2031</ele>
        <time>2022-07-17T00:20:26Z</time>
      </trkpt>
      <trkpt lat="45.7308" lon="6.60628">
        <ele>2030</ele>
        <time>2022-07-17T00:20:28Z</time>
      </trkpt>
      <trkpt lat="45.73083" lon="6.60629">
        <ele>2030</ele>
        <time>2022-07-17T00:20:30Z</time>
      </trkpt>
      <trkpt lat="45.73085" lon="6.60631">
        <ele>2030</ele>
        <time>2022-07-17T00:20:32Z</time>
      </trkpt>
      <trkpt lat="45.73088" lon="6.60633">
        <ele>2030</ele>
        <time>2022-07-17T00:20:34Z</time>
      </trkpt>
      <trkpt lat="45.7309" lon="6.60635">
        <ele>2030</ele>
        <time>2022-07-17T00:20:36Z</time>
      </trkpt>
      <trkpt lat="45.73092" lon="6.60635">
        <ele>2030</ele>
        <time>2022-07-17T00:20:38Z</time>
      </trkpt>
      <trkpt lat="45.73094" lon="6.60634">
        <ele>2029</ele>
        <time>2022-07-17T00:20:40Z</time>
      </trkpt>
      <trkpt lat="45.73096" lon="6.60632">
        <ele>2029</ele>
        <time>2022-07-17T00:20:42Z</time>
      </trkpt>
      <trkpt lat="45.73098" lon="6.60632">
        <ele>2029</ele>
        <time>2022-07-17T00:20:44Z</time>
      </trkpt>
      <trkpt lat="45.73101" lon="6.60632">
        <ele>2029</ele>
        <time>2022-07-17T00:20:46Z</time>
      </trkpt>
      <trkpt lat="45.73103" lon="6.60633">
        <ele>2028</ele>
        <time>2022-07-17T00:20:49Z</time>
      </trkpt>
      <trkpt lat="45.73105" lon="6.60631">
        <ele>2027</ele>
        <time>2022-07-17T00:20:53Z</time>
      </trkpt>
      <trkpt lat="45.73106" lon="6.6063">
        <ele>2026</ele>
        <time>2022-07-17T00:20:55Z</time>
      </trkpt>
      <trkpt lat="45.73108" lon="6.60628">
        <ele>2026</ele>
        <time>2022-07-17T00:20:57Z</time>
      </trkpt>
      <trkpt lat="45.73111" lon="6.60627">
        <ele>2025</ele>
        <time>2022-07-17T00:20:59Z</time>
      </trkpt>
      <trkpt lat="45.73114" lon="6.60625">
        <ele>2024</ele>
        <time>2022-07-17T00:21:01Z</time>
      </trkpt>
      <trkpt lat="45.73115" lon="6.60623">
        <ele>2024</ele>
        <time>2022-07-17T00:21:03Z</time>
      </trkpt>
      <trkpt lat="45.73114" lon="6.60621">
        <ele>2023</ele>
        <time>2022-07-17T00:21:05Z</time>
      </trkpt>
      <trkpt lat="45.73113" lon="6.60618">
        <ele>2022</ele>
        <time>2022-07-17T00:21:07Z</time>
      </trkpt>
      <trkpt lat="45.73111" lon="6.60617">
        <ele>2022</ele>
        <time>2022-07-17T00:21:09Z</time>
      </trkpt>
      <trkpt lat="45.73108" lon="6.60617">
        <ele>2022</ele>
        <time>2022-07-17T00:21:11Z</time>
      </trkpt>
      <trkpt lat="45.73105" lon="6.60617">
        <ele>2022</ele>
        <time>2022-07-17T00:21:13Z</time>
      </trkpt>
      <trkpt lat="45.73102" lon="6.60617">
        <ele>2022</ele>
        <time>2022-07-17T00:21:15Z</time>
      </trkpt>
      <trkpt lat="45.731" lon="6.60616">
        <ele>2021</ele>
        <time>2022-07-17T00:21:17Z</time>
      </trkpt>
      <trkpt lat="45.73098" lon="6.60614">
        <ele>2020</ele>
        <time>2022-07-17T00:21:19Z</time>
      </trkpt>
      <trkpt lat="45.73096" lon="6.60613">
        <ele>2020</ele>
        <time>2022-07-17T00:21:21Z</time>
      </trkpt>
      <trkpt lat="45.73094" lon="6.60611">
        <ele>2020</ele>
        <time>2022-07-17T00:21:23Z</time>
      </trkpt>
      <trkpt lat="45.73092" lon="6.60609">
        <ele>2019</ele>
        <time>2022-07-17T00:21:25Z</time>
      </trkpt>
      <trkpt lat="45.7309" lon="6.60608">
        <ele>2018</ele>
        <time>2022-07-17T00:21:27Z</time>
      </trkpt>
      <trkpt lat="45.73088" lon="6.60606">
        <ele>2017</ele>
        <time>2022-07-17T00:21:29Z</time>
      </trkpt>
      <trkpt lat="45.73086" lon="6.60604">
        <ele>2017</ele>
        <time>2022-07-17T00:21:31Z</time>
      </trkpt>
      <trkpt lat="45.73084" lon="6.60601">
        <ele>2017</ele>
        <time>2022-07-17T00:21:33Z</time>
      </trkpt>
      <trkpt lat="45.73082" lon="6.60598">
        <ele>2016</ele>
        <time>2022-07-17T00:21:35Z</time>
      </trkpt>
      <trkpt lat="45.73082" lon="6.60595">
        <ele>2016</ele>
        <time>2022-07-17T00:21:37Z</time>
      </trkpt>
      <trkpt lat="45.73081" lon="6.60591">
        <ele>2015</ele>
        <time>2022-07-17T00:21:40Z</time>
      </trkpt>
      <trkpt lat="45.73081" lon="6.60588">
        <ele>2015</ele>
        <time>2022-07-17T00:21:42Z</time>
      </trkpt>
      <trkpt lat="45.7308" lon="6.60586">
        <ele>2014</ele>
        <time>2022-07-17T00:21:44Z</time>
      </trkpt>
      <trkpt lat="45.73079" lon="6.60583">
        <ele>2014</ele>
        <time>2022-07-17T00:21:46Z</time>
      </trkpt>
      <trkpt lat="45.73079" lon="6.6058">
        <ele>2014</ele>
        <time>2022-07-17T00:21:48Z</time>
      </trkpt>
      <trkpt lat="45.73079" lon="6.60576">
        <ele>2012</ele>
        <time>2022-07-17T00:21:50Z</time>
      </trkpt>
      <trkpt lat="45.73079" lon="6.60573">
        <ele>2012</ele>
        <time>2022-07-17T00:21:52Z</time>
      </trkpt>
      <trkpt lat="45.73079" lon="6.6057">
        <ele>2012</ele>
        <time>2022-07-17T00:21:54Z</time>
      </trkpt>
      <trkpt lat="45.73081" lon="6.60568">
        <ele>2011</ele>
        <time>2022-07-17T00:21:57Z</time>
      </trkpt>
      <trkpt lat="45.73083" lon="6.60568">
        <ele>2010</ele>
        <time>2022-07-17T00:21:59Z</time>
      </trkpt>
      <trkpt lat="45.73085" lon="6.60568">
        <ele>2010</ele>
        <time>2022-07-17T00:22:01Z</time>
      </trkpt>
      <trkpt lat="45.73087" lon="6.6057">
        <ele>2009</ele>
        <time>2022-07-17T00:22:04Z</time>
      </trkpt>
      <trkpt lat="45.73089" lon="6.6057">
        <ele>2008</ele>
        <time>2022-07-17T00:22:07Z</time>
      </trkpt>
      <trkpt lat="45.73091" lon="6.60571">
        <ele>2007</ele>
        <time>2022-07-17T00:22:09Z</time>
      </trkpt>
      <trkpt lat="45.73093" lon="6.60572">
        <ele>2008</ele>
        <time>2022-07-17T00:22:11Z</time>
      </trkpt>
      <trkpt lat="45.73095" lon="6.60572">
        <ele>2007</ele>
        <time>2022-07-17T00:22:13Z</time>
      </trkpt>
      <trkpt lat="45.73097" lon="6.60574">
        <ele>2007</ele>
        <time>2022-07-17T00:22:15Z</time>
      </trkpt>
      <trkpt lat="45.731" lon="6.60574">
        <ele>2006</ele>
        <time>2022-07-17T00:22:18Z</time>
      </trkpt>
      <trkpt lat="45.73101" lon="6.60571">
        <ele>2005</ele>
        <time>2022-07-17T00:22:21Z</time>
      </trkpt>
      <trkpt lat="45.73103" lon="6.6057">
        <ele>2004</ele>
        <time>2022-07-17T00:22:25Z</time>
      </trkpt>
      <trkpt lat="45.73105" lon="6.60568">
        <ele>2002</ele>
        <time>2022-07-17T00:22:28Z</time>
      </trkpt>
      <trkpt lat="45.73107" lon="6.60568">
        <ele>2002</ele>
        <time>2022-07-17T00:22:30Z</time>
      </trkpt>
      <trkpt lat="45.73109" lon="6.60569">
        <ele>2002</ele>
        <time>2022-07-17T00:22:33Z</time>
      </trkpt>
      <trkpt lat="45.73111" lon="6.6057">
        <ele>2001</ele>
        <time>2022-07-17T00:22:36Z</time>
      </trkpt>
      <trkpt lat="45.73114" lon="6.6057">
        <ele>2000</ele>
        <time>2022-07-17T00:22:39Z</time>
      </trkpt>
      <trkpt lat="45.73116" lon="6.6057">
        <ele>1998</ele>
        <time>2022-07-17T00:22:42Z</time>
      </trkpt>
      <trkpt lat="45.73118" lon="6.60569">
        <ele>1998</ele>
        <time>2022-07-17T00:22:45Z</time>
      </trkpt>
      <trkpt lat="45.73121" lon="6.60567">
        <ele>1997</ele>
        <time>2022-07-17T00:22:48Z</time>
      </trkpt>
      <trkpt lat="45.73123" lon="6.60565">
        <ele>1996</ele>
        <time>2022-07-17T00:22:51Z</time>
      </trkpt>
      <trkpt lat="45.73126" lon="6.60565">
        <ele>1996</ele>
        <time>2022-07-17T00:22:54Z</time>
      </trkpt>
      <trkpt lat="45.73127" lon="6.60566">
        <ele>1995</ele>
        <time>2022-07-17T00:22:56Z</time>
      </trkpt>
      <trkpt lat="45.73128" lon="6.60563">
        <ele>1993</ele>
        <time>2022-07-17T00:23:08Z</time>
      </trkpt>
      <trkpt lat="45.73128" lon="6.60563">
        <ele>1992</ele>
        <time>2022-07-17T00:23:09Z</time>
      </trkpt>
      <trkpt lat="45.73126" lon="6.6056">
        <ele>1992</ele>
        <time>2022-07-17T00:23:12Z</time>
      </trkpt>
      <trkpt lat="45.73124" lon="6.60559">
        <ele>1992</ele>
        <time>2022-07-17T00:23:14Z</time>
      </trkpt>
      <trkpt lat="45.73122" lon="6.60558">
        <ele>1991</ele>
        <time>2022-07-17T00:23:16Z</time>
      </trkpt>
      <trkpt lat="45.73121" lon="6.60556">
        <ele>1991</ele>
        <time>2022-07-17T00:23:19Z</time>
      </trkpt>
      <trkpt lat="45.73122" lon="6.60553">
        <ele>1990</ele>
        <time>2022-07-17T00:23:22Z</time>
      </trkpt>
      <trkpt lat="45.73124" lon="6.60553">
        <ele>1990</ele>
        <time>2022-07-17T00:23:25Z</time>
      </trkpt>
      <trkpt lat="45.73126" lon="6.60551">
        <ele>1989</ele>
        <time>2022-07-17T00:23:28Z</time>
      </trkpt>
      <trkpt lat="45.73127" lon="6.60549">
        <ele>1988</ele>
        <time>2022-07-17T00:23:30Z</time>
      </trkpt>
      <trkpt lat="45.73129" lon="6.60547">
        <ele>1986</ele>
        <time>2022-07-17T00:23:33Z</time>
      </trkpt>
      <trkpt lat="45.73132" lon="6.60546">
        <ele>1986</ele>
        <time>2022-07-17T00:23:35Z</time>
      </trkpt>
      <trkpt lat="45.73133" lon="6.60544">
        <ele>1985</ele>
        <time>2022-07-17T00:23:38Z</time>
      </trkpt>
      <trkpt lat="45.73135" lon="6.60542">
        <ele>1985</ele>
        <time>2022-07-17T00:23:40Z</time>
      </trkpt>
      <trkpt lat="45.73137" lon="6.60542">
        <ele>1984</ele>
        <time>2022-07-17T00:23:42Z</time>
      </trkpt>
      <trkpt lat="45.73139" lon="6.60542">
        <ele>1983</ele>
        <time>2022-07-17T00:23:44Z</time>
      </trkpt>
      <trkpt lat="45.73141" lon="6.60541">
        <ele>1982</ele>
        <time>2022-07-17T00:23:46Z</time>
      </trkpt>
      <trkpt lat="45.73144" lon="6.60541">
        <ele>1982</ele>
        <time>2022-07-17T00:23:48Z</time>
      </trkpt>
      <trkpt lat="45.73145" lon="6.60539">
        <ele>1980</ele>
        <time>2022-07-17T00:23:52Z</time>
      </trkpt>
      <trkpt lat="45.73147" lon="6.60538">
        <ele>1980</ele>
        <time>2022-07-17T00:23:54Z</time>
      </trkpt>
      <trkpt lat="45.73149" lon="6.60538">
        <ele>1980</ele>
        <time>2022-07-17T00:23:57Z</time>
      </trkpt>
      <trkpt lat="45.73151" lon="6.60536">
        <ele>1979</ele>
        <time>2022-07-17T00:24:01Z</time>
      </trkpt>
      <trkpt lat="45.73154" lon="6.60535">
        <ele>1978</ele>
        <time>2022-07-17T00:24:04Z</time>
      </trkpt>
      <trkpt lat="45.73156" lon="6.60535">
        <ele>1978</ele>
        <time>2022-07-17T00:24:06Z</time>
      </trkpt>
      <trkpt lat="45.73158" lon="6.60535">
        <ele>1977</ele>
        <time>2022-07-17T00:24:08Z</time>
      </trkpt>
      <trkpt lat="45.7316" lon="6.60535">
        <ele>1976</ele>
        <time>2022-07-17T00:24:10Z</time>
      </trkpt>
      <trkpt lat="45.73162" lon="6.60533">
        <ele>1976</ele>
        <time>2022-07-17T00:24:12Z</time>
      </trkpt>
      <trkpt lat="45.73164" lon="6.60531">
        <ele>1975</ele>
        <time>2022-07-17T00:24:14Z</time>
      </trkpt>
      <trkpt lat="45.73166" lon="6.60531">
        <ele>1974</ele>
        <time>2022-07-17T00:24:16Z</time>
      </trkpt>
      <trkpt lat="45.73168" lon="6.60532">
        <ele>1974</ele>
        <time>2022-07-17T00:24:18Z</time>
      </trkpt>
      <trkpt lat="45.7317" lon="6.60533">
        <ele>1974</ele>
        <time>2022-07-17T00:24:20Z</time>
      </trkpt>
      <trkpt lat="45.73172" lon="6.60533">
        <ele>1974</ele>
        <time>2022-07-17T00:24:22Z</time>
      </trkpt>
      <trkpt lat="45.73174" lon="6.60533">
        <ele>1973</ele>
        <time>2022-07-17T00:24:24Z</time>
      </trkpt>
      <trkpt lat="45.73176" lon="6.60534">
        <ele>1973</ele>
        <time>2022-07-17T00:24:26Z</time>
      </trkpt>
      <trkpt lat="45.73178" lon="6.60534">
        <ele>1972</ele>
        <time>2022-07-17T00:24:28Z</time>
      </trkpt>
      <trkpt lat="45.73181" lon="6.60534">
        <ele>1972</ele>
        <time>2022-07-17T00:24:30Z</time>
      </trkpt>
      <trkpt lat="45.73182" lon="6.60534">
        <ele>1972</ele>
        <time>2022-07-17T00:24:32Z</time>
      </trkpt>
      <trkpt lat="45.73184" lon="6.60534">
        <ele>1971</ele>
        <time>2022-07-17T00:24:34Z</time>
      </trkpt>
      <trkpt lat="45.73186" lon="6.60535">
        <ele>1970</ele>
        <time>2022-07-17T00:24:36Z</time>
      </trkpt>
      <trkpt lat="45.73188" lon="6.60532">
        <ele>1969</ele>
        <time>2022-07-17T00:24:40Z</time>
      </trkpt>
      <trkpt lat="45.73187" lon="6.60529">
        <ele>1968</ele>
        <time>2022-07-17T00:24:44Z</time>
      </trkpt>
      <trkpt lat="45.73187" lon="6.60527">
        <ele>1968</ele>
        <time>2022-07-17T00:24:47Z</time>
      </trkpt>
      <trkpt lat="45.73188" lon="6.60523">
        <ele>1967</ele>
        <time>2022-07-17T00:24:50Z</time>
      </trkpt>
      <trkpt lat="45.7319" lon="6.60521">
        <ele>1967</ele>
        <time>2022-07-17T00:24:52Z</time>
      </trkpt>
      <trkpt lat="45.73192" lon="6.60521">
        <ele>1966</ele>
        <time>2022-07-17T00:24:54Z</time>
      </trkpt>
      <trkpt lat="45.73195" lon="6.60521">
        <ele>1965</ele>
        <time>2022-07-17T00:24:56Z</time>
      </trkpt>
      <trkpt lat="45.73197" lon="6.60521">
        <ele>1965</ele>
        <time>2022-07-17T00:24:58Z</time>
      </trkpt>
      <trkpt lat="45.73199" lon="6.60521">
        <ele>1965</ele>
        <time>2022-07-17T00:25:00Z</time>
      </trkpt>
      <trkpt lat="45.73201" lon="6.60519">
        <ele>1965</ele>
        <time>2022-07-17T00:25:03Z</time>
      </trkpt>
      <trkpt lat="45.73199" lon="6.60517">
        <ele>1964</ele>
        <time>2022-07-17T00:25:07Z</time>
      </trkpt>
      <trkpt lat="45.73197" lon="6.60516">
        <ele>1964</ele>
        <time>2022-07-17T00:25:10Z</time>
      </trkpt>
      <trkpt lat="45.73194" lon="6.60515">
        <ele>1963</ele>
        <time>2022-07-17T00:25:12Z</time>
      </trkpt>
      <trkpt lat="45.73192" lon="6.60514">
        <ele>1963</ele>
        <time>2022-07-17T00:25:14Z</time>
      </trkpt>
      <trkpt lat="45.7319" lon="6.60513">
        <ele>1962</ele>
        <time>2022-07-17T00:25:16Z</time>
      </trkpt>
      <trkpt lat="45.73189" lon="6.60511">
        <ele>1962</ele>
        <time>2022-07-17T00:25:18Z</time>
      </trkpt>
      <trkpt lat="45.73187" lon="6.60509">
        <ele>1960</ele>
        <time>2022-07-17T00:25:20Z</time>
      </trkpt>
      <trkpt lat="45.73186" lon="6.60508">
        <ele>1960</ele>
        <time>2022-07-17T00:25:22Z</time>
      </trkpt>
      <trkpt lat="45.73184" lon="6.60506">
        <ele>1960</ele>
        <time>2022-07-17T00:25:24Z</time>
      </trkpt>
      <trkpt lat="45.73183" lon="6.60504">
        <ele>1960</ele>
        <time>2022-07-17T00:25:27Z</time>
      </trkpt>
      <trkpt lat="45.73182" lon="6.60501">
        <ele>1959</ele>
        <time>2022-07-17T00:25:30Z</time>
      </trkpt>
      <trkpt lat="45.73182" lon="6.60498">
        <ele>1958</ele>
        <time>2022-07-17T00:25:33Z</time>
      </trkpt>
      <trkpt lat="45.73182" lon="6.60496">
        <ele>1958</ele>
        <time>2022-07-17T00:25:35Z</time>
      </trkpt>
      <trkpt lat="45.73182" lon="6.60493">
        <ele>1958</ele>
        <time>2022-07-17T00:25:38Z</time>
      </trkpt>
      <trkpt lat="45.73185" lon="6.60491">
        <ele>1957</ele>
        <time>2022-07-17T00:25:41Z</time>
      </trkpt>
      <trkpt lat="45.73187" lon="6.60489">
        <ele>1956</ele>
        <time>2022-07-17T00:25:43Z</time>
      </trkpt>
      <trkpt lat="45.73189" lon="6.60488">
        <ele>1955</ele>
        <time>2022-07-17T00:25:45Z</time>
      </trkpt>
      <trkpt lat="45.73192" lon="6.60487">
        <ele>1953</ele>
        <time>2022-07-17T00:25:47Z</time>
      </trkpt>
      <trkpt lat="45.73196" lon="6.60486">
        <ele>1953</ele>
        <time>2022-07-17T00:25:48Z</time>
      </trkpt>
      <trkpt lat="45.73198" lon="6.60485">
        <ele>1953</ele>
        <time>2022-07-17T00:25:51Z</time>
      </trkpt>
      <trkpt lat="45.73201" lon="6.60483">
        <ele>1952</ele>
        <time>2022-07-17T00:25:53Z</time>
      </trkpt>
      <trkpt lat="45.73204" lon="6.60482">
        <ele>1952</ele>
        <time>2022-07-17T00:25:55Z</time>
      </trkpt>
      <trkpt lat="45.73207" lon="6.60481">
        <ele>1951</ele>
        <time>2022-07-17T00:25:57Z</time>
      </trkpt>
      <trkpt lat="45.7321" lon="6.6048">
        <ele>1951</ele>
        <time>2022-07-17T00:25:59Z</time>
      </trkpt>
      <trkpt lat="45.73213" lon="6.6048">
        <ele>1950</ele>
        <time>2022-07-17T00:26:01Z</time>
      </trkpt>
      <trkpt lat="45.73216" lon="6.6048">
        <ele>1950</ele>
        <time>2022-07-17T00:26:03Z</time>
      </trkpt>
      <trkpt lat="45.73219" lon="6.60479">
        <ele>1949</ele>
        <time>2022-07-17T00:26:05Z</time>
      </trkpt>
      <trkpt lat="45.73222" lon="6.60479">
        <ele>1949</ele>
        <time>2022-07-17T00:26:07Z</time>
      </trkpt>
      <trkpt lat="45.73224" lon="6.60479">
        <ele>1949</ele>
        <time>2022-07-17T00:26:09Z</time>
      </trkpt>
      <trkpt lat="45.73227" lon="6.60479">
        <ele>1948</ele>
        <time>2022-07-17T00:26:11Z</time>
      </trkpt>
      <trkpt lat="45.73229" lon="6.6048">
        <ele>1948</ele>
        <time>2022-07-17T00:26:14Z</time>
      </trkpt>
      <trkpt lat="45.73231" lon="6.6048">
        <ele>1948</ele>
        <time>2022-07-17T00:26:16Z</time>
      </trkpt>
      <trkpt lat="45.73234" lon="6.60481">
        <ele>1948</ele>
        <time>2022-07-17T00:26:18Z</time>
      </trkpt>
      <trkpt lat="45.73237" lon="6.60481">
        <ele>1948</ele>
        <time>2022-07-17T00:26:20Z</time>
      </trkpt>
      <trkpt lat="45.7324" lon="6.6048">
        <ele>1948</ele>
        <time>2022-07-17T00:26:22Z</time>
      </trkpt>
      <trkpt lat="45.73242" lon="6.60481">
        <ele>1947</ele>
        <time>2022-07-17T00:26:24Z</time>
      </trkpt>
      <trkpt lat="45.73244" lon="6.60484">
        <ele>1947</ele>
        <time>2022-07-17T00:26:26Z</time>
      </trkpt>
      <trkpt lat="45.73246" lon="6.60486">
        <ele>1947</ele>
        <time>2022-07-17T00:26:28Z</time>
      </trkpt>
      <trkpt lat="45.73248" lon="6.60488">
        <ele>1947</ele>
        <time>2022-07-17T00:26:30Z</time>
      </trkpt>
      <trkpt lat="45.73249" lon="6.6049">
        <ele>1946</ele>
        <time>2022-07-17T00:26:32Z</time>
      </trkpt>
      <trkpt lat="45.73251" lon="6.60492">
        <ele>1946</ele>
        <time>2022-07-17T00:26:34Z</time>
      </trkpt>
      <trkpt lat="45.73253" lon="6.60494">
        <ele>1945</ele>
        <time>2022-07-17T00:26:37Z</time>
      </trkpt>
      <trkpt lat="45.73254" lon="6.60495">
        <ele>1945</ele>
        <time>2022-07-17T00:26:39Z</time>
      </trkpt>
      <trkpt lat="45.73257" lon="6.60497">
        <ele>1944</ele>
        <time>2022-07-17T00:26:42Z</time>
      </trkpt>
      <trkpt lat="45.73259" lon="6.60497">
        <ele>1944</ele>
        <time>2022-07-17T00:26:44Z</time>
      </trkpt>
      <trkpt lat="45.73261" lon="6.60498">
        <ele>1943</ele>
        <time>2022-07-17T00:26:46Z</time>
      </trkpt>
      <trkpt lat="45.73262" lon="6.60499">
        <ele>1943</ele>
        <time>2022-07-17T00:26:48Z</time>
      </trkpt>
      <trkpt lat="45.73264" lon="6.60502">
        <ele>1943</ele>
        <time>2022-07-17T00:26:51Z</time>
      </trkpt>
      <trkpt lat="45.73266" lon="6.60503">
        <ele>1942</ele>
        <time>2022-07-17T00:26:53Z</time>
      </trkpt>
      <trkpt lat="45.73267" lon="6.60506">
        <ele>1941</ele>
        <time>2022-07-17T00:26:57Z</time>
      </trkpt>
      <trkpt lat="45.73269" lon="6.60508">
        <ele>1941</ele>
        <time>2022-07-17T00:27:00Z</time>
      </trkpt>
      <trkpt lat="45.73272" lon="6.60509">
        <ele>1941</ele>
        <time>2022-07-17T00:27:02Z</time>
      </trkpt>
      <trkpt lat="45.73274" lon="6.6051">
        <ele>1940</ele>
        <time>2022-07-17T00:27:04Z</time>
      </trkpt>
      <trkpt lat="45.73276" lon="6.60511">
        <ele>1940</ele>
        <time>2022-07-17T00:27:06Z</time>
      </trkpt>
      <trkpt lat="45.73278" lon="6.60512">
        <ele>1938</ele>
        <time>2022-07-17T00:27:08Z</time>
      </trkpt>
      <trkpt lat="45.73281" lon="6.60514">
        <ele>1938</ele>
        <time>2022-07-17T00:27:10Z</time>
      </trkpt>
      <trkpt lat="45.73283" lon="6.60515">
        <ele>1938</ele>
        <time>2022-07-17T00:27:12Z</time>
      </trkpt>
      <trkpt lat="45.73285" lon="6.60515">
        <ele>1937</ele>
        <time>2022-07-17T00:27:14Z</time>
      </trkpt>
      <trkpt lat="45.73288" lon="6.60516">
        <ele>1937</ele>
        <time>2022-07-17T00:27:16Z</time>
      </trkpt>
      <trkpt lat="45.7329" lon="6.60516">
        <ele>1936</ele>
        <time>2022-07-17T00:27:19Z</time>
      </trkpt>
      <trkpt lat="45.73292" lon="6.60517">
        <ele>1936</ele>
        <time>2022-07-17T00:27:21Z</time>
      </trkpt>
      <trkpt lat="45.73294" lon="6.60517">
        <ele>1935</ele>
        <time>2022-07-17T00:27:23Z</time>
      </trkpt>
      <trkpt lat="45.73297" lon="6.60518">
        <ele>1935</ele>
        <time>2022-07-17T00:27:26Z</time>
      </trkpt>
      <trkpt lat="45.73299" lon="6.60518">
        <ele>1935</ele>
        <time>2022-07-17T00:27:28Z</time>
      </trkpt>
      <trkpt lat="45.73301" lon="6.60518">
        <ele>1934</ele>
        <time>2022-07-17T00:27:30Z</time>
      </trkpt>
      <trkpt lat="45.73303" lon="6.60519">
        <ele>1933</ele>
        <time>2022-07-17T00:27:32Z</time>
      </trkpt>
      <trkpt lat="45.73305" lon="6.6052">
        <ele>1933</ele>
        <time>2022-07-17T00:27:34Z</time>
      </trkpt>
      <trkpt lat="45.73307" lon="6.60521">
        <ele>1932</ele>
        <time>2022-07-17T00:27:36Z</time>
      </trkpt>
      <trkpt lat="45.7331" lon="6.6052">
        <ele>1931</ele>
        <time>2022-07-17T00:27:38Z</time>
      </trkpt>
      <trkpt lat="45.73312" lon="6.60519">
        <ele>1930</ele>
        <time>2022-07-17T00:27:40Z</time>
      </trkpt>
      <trkpt lat="45.73314" lon="6.60519">
        <ele>1930</ele>
        <time>2022-07-17T00:27:42Z</time>
      </trkpt>
      <trkpt lat="45.73316" lon="6.6052">
        <ele>1930</ele>
        <time>2022-07-17T00:27:44Z</time>
      </trkpt>
      <trkpt lat="45.73318" lon="6.60522">
        <ele>1929</ele>
        <time>2022-07-17T00:27:46Z</time>
      </trkpt>
      <trkpt lat="45.7332" lon="6.60524">
        <ele>1929</ele>
        <time>2022-07-17T00:27:48Z</time>
      </trkpt>
      <trkpt lat="45.73322" lon="6.60525">
        <ele>1928</ele>
        <time>2022-07-17T00:27:50Z</time>
      </trkpt>
      <trkpt lat="45.73323" lon="6.60527">
        <ele>1927</ele>
        <time>2022-07-17T00:27:52Z</time>
      </trkpt>
      <trkpt lat="45.73325" lon="6.60528">
        <ele>1927</ele>
        <time>2022-07-17T00:27:54Z</time>
      </trkpt>
      <trkpt lat="45.73327" lon="6.60529">
        <ele>1925</ele>
        <time>2022-07-17T00:27:56Z</time>
      </trkpt>
      <trkpt lat="45.7333" lon="6.6053">
        <ele>1925</ele>
        <time>2022-07-17T00:27:58Z</time>
      </trkpt>
      <trkpt lat="45.73332" lon="6.6053">
        <ele>1925</ele>
        <time>2022-07-17T00:28:00Z</time>
      </trkpt>
      <trkpt lat="45.73334" lon="6.6053">
        <ele>1924</ele>
        <time>2022-07-17T00:28:03Z</time>
      </trkpt>
      <trkpt lat="45.73337" lon="6.60529">
        <ele>1924</ele>
        <time>2022-07-17T00:28:06Z</time>
      </trkpt>
      <trkpt lat="45.73339" lon="6.6053">
        <ele>1923</ele>
        <time>2022-07-17T00:28:08Z</time>
      </trkpt>
      <trkpt lat="45.73342" lon="6.60531">
        <ele>1923</ele>
        <time>2022-07-17T00:28:10Z</time>
      </trkpt>
      <trkpt lat="45.73344" lon="6.60533">
        <ele>1922</ele>
        <time>2022-07-17T00:28:12Z</time>
      </trkpt>
      <trkpt lat="45.73346" lon="6.60534">
        <ele>1921</ele>
        <time>2022-07-17T00:28:14Z</time>
      </trkpt>
      <trkpt lat="45.73348" lon="6.60535">
        <ele>1920</ele>
        <time>2022-07-17T00:28:16Z</time>
      </trkpt>
      <trkpt lat="45.7335" lon="6.60535">
        <ele>1920</ele>
        <time>2022-07-17T00:28:18Z</time>
      </trkpt>
      <trkpt lat="45.73352" lon="6.60537">
        <ele>1920</ele>
        <time>2022-07-17T00:28:20Z</time>
      </trkpt>
      <trkpt lat="45.73353" lon="6.60539">
        <ele>1920</ele>
        <time>2022-07-17T00:28:22Z</time>
      </trkpt>
      <trkpt lat="45.73355" lon="6.6054">
        <ele>1919</ele>
        <time>2022-07-17T00:28:25Z</time>
      </trkpt>
      <trkpt lat="45.73357" lon="6.60542">
        <ele>1918</ele>
        <time>2022-07-17T00:28:27Z</time>
      </trkpt>
      <trkpt lat="45.73359" lon="6.60544">
        <ele>1918</ele>
        <time>2022-07-17T00:28:29Z</time>
      </trkpt>
      <trkpt lat="45.73361" lon="6.60546">
        <ele>1917</ele>
        <time>2022-07-17T00:28:31Z</time>
      </trkpt>
      <trkpt lat="45.73362" lon="6.60547">
        <ele>1916</ele>
        <time>2022-07-17T00:28:33Z</time>
      </trkpt>
      <trkpt lat="45.73364" lon="6.60549">
        <ele>1916</ele>
        <time>2022-07-17T00:28:35Z</time>
      </trkpt>
      <trkpt lat="45.73367" lon="6.60549">
        <ele>1915</ele>
        <time>2022-07-17T00:28:38Z</time>
      </trkpt>
      <trkpt lat="45.73369" lon="6.6055">
        <ele>1914</ele>
        <time>2022-07-17T00:28:41Z</time>
      </trkpt>
      <trkpt lat="45.73372" lon="6.6055">
        <ele>1914</ele>
        <time>2022-07-17T00:28:43Z</time>
      </trkpt>
      <trkpt lat="45.73374" lon="6.60551">
        <ele>1912</ele>
        <time>2022-07-17T00:28:45Z</time>
      </trkpt>
      <trkpt lat="45.73376" lon="6.60551">
        <ele>1911</ele>
        <time>2022-07-17T00:28:47Z</time>
      </trkpt>
      <trkpt lat="45.73379" lon="6.60553">
        <ele>1911</ele>
        <time>2022-07-17T00:28:49Z</time>
      </trkpt>
      <trkpt lat="45.73381" lon="6.60554">
        <ele>1911</ele>
        <time>2022-07-17T00:28:51Z</time>
      </trkpt>
      <trkpt lat="45.73382" lon="6.60556">
        <ele>1911</ele>
        <time>2022-07-17T00:28:53Z</time>
      </trkpt>
      <trkpt lat="45.73384" lon="6.6056">
        <ele>1910</ele>
        <time>2022-07-17T00:28:56Z</time>
      </trkpt>
      <trkpt lat="45.73385" lon="6.60562">
        <ele>1910</ele>
        <time>2022-07-17T00:28:58Z</time>
      </trkpt>
      <trkpt lat="45.73386" lon="6.60564">
        <ele>1909</ele>
        <time>2022-07-17T00:29:00Z</time>
      </trkpt>
      <trkpt lat="45.73388" lon="6.60566">
        <ele>1908</ele>
        <time>2022-07-17T00:29:02Z</time>
      </trkpt>
      <trkpt lat="45.7339" lon="6.60567">
        <ele>1908</ele>
        <time>2022-07-17T00:29:04Z</time>
      </trkpt>
      <trkpt lat="45.73393" lon="6.60569">
        <ele>1907</ele>
        <time>2022-07-17T00:29:06Z</time>
      </trkpt>
      <trkpt lat="45.73395" lon="6.6057">
        <ele>1907</ele>
        <time>2022-07-17T00:29:08Z</time>
      </trkpt>
      <trkpt lat="45.73397" lon="6.60572">
        <ele>1907</ele>
        <time>2022-07-17T00:29:10Z</time>
      </trkpt>
      <trkpt lat="45.73399" lon="6.60574">
        <ele>1905</ele>
        <time>2022-07-17T00:29:12Z</time>
      </trkpt>
      <trkpt lat="45.73401" lon="6.60576">
        <ele>1905</ele>
        <time>2022-07-17T00:29:14Z</time>
      </trkpt>
      <trkpt lat="45.73402" lon="6.60579">
        <ele>1905</ele>
        <time>2022-07-17T00:29:16Z</time>
      </trkpt>
      <trkpt lat="45.73404" lon="6.60581">
        <ele>1905</ele>
        <time>2022-07-17T00:29:18Z</time>
      </trkpt>
      <trkpt lat="45.73406" lon="6.60584">
        <ele>1903</ele>
        <time>2022-07-17T00:29:20Z</time>
      </trkpt>
      <trkpt lat="45.73407" lon="6.60587">
        <ele>1903</ele>
        <time>2022-07-17T00:29:22Z</time>
      </trkpt>
      <trkpt lat="45.73409" lon="6.60589">
        <ele>1902</ele>
        <time>2022-07-17T00:29:24Z</time>
      </trkpt>
      <trkpt lat="45.73411" lon="6.60591">
        <ele>1902</ele>
        <time>2022-07-17T00:29:26Z</time>
      </trkpt>
      <trkpt lat="45.73412" lon="6.60593">
        <ele>1902</ele>
        <time>2022-07-17T00:29:28Z</time>
      </trkpt>
      <trkpt lat="45.73413" lon="6.60595">
        <ele>1901</ele>
        <time>2022-07-17T00:29:30Z</time>
      </trkpt>
      <trkpt lat="45.73415" lon="6.60597">
        <ele>1900</ele>
        <time>2022-07-17T00:29:32Z</time>
      </trkpt>
      <trkpt lat="45.73417" lon="6.60599">
        <ele>1899</ele>
        <time>2022-07-17T00:29:34Z</time>
      </trkpt>
      <trkpt lat="45.73419" lon="6.606">
        <ele>1899</ele>
        <time>2022-07-17T00:29:36Z</time>
      </trkpt>
      <trkpt lat="45.73421" lon="6.606">
        <ele>1899</ele>
        <time>2022-07-17T00:29:38Z</time>
      </trkpt>
      <trkpt lat="45.73423" lon="6.60601">
        <ele>1897</ele>
        <time>2022-07-17T00:29:40Z</time>
      </trkpt>
      <trkpt lat="45.73426" lon="6.60602">
        <ele>1897</ele>
        <time>2022-07-17T00:29:43Z</time>
      </trkpt>
      <trkpt lat="45.73428" lon="6.60602">
        <ele>1897</ele>
        <time>2022-07-17T00:29:45Z</time>
      </trkpt>
      <trkpt lat="45.7343" lon="6.60604">
        <ele>1896</ele>
        <time>2022-07-17T00:29:47Z</time>
      </trkpt>
      <trkpt lat="45.73432" lon="6.60606">
        <ele>1896</ele>
        <time>2022-07-17T00:29:49Z</time>
      </trkpt>
      <trkpt lat="45.73434" lon="6.60608">
        <ele>1895</ele>
        <time>2022-07-17T00:29:51Z</time>
      </trkpt>
      <trkpt lat="45.73436" lon="6.60611">
        <ele>1895</ele>
        <time>2022-07-17T00:29:53Z</time>
      </trkpt>
      <trkpt lat="45.73438" lon="6.60613">
        <ele>1894</ele>
        <time>2022-07-17T00:29:55Z</time>
      </trkpt>
      <trkpt lat="45.7344" lon="6.60615">
        <ele>1894</ele>
        <time>2022-07-17T00:29:57Z</time>
      </trkpt>
      <trkpt lat="45.73442" lon="6.60616">
        <ele>1893</ele>
        <time>2022-07-17T00:29:59Z</time>
      </trkpt>
      <trkpt lat="45.73444" lon="6.60619">
        <ele>1893</ele>
        <time>2022-07-17T00:30:01Z</time>
      </trkpt>
      <trkpt lat="45.73447" lon="6.60621">
        <ele>1892</ele>
        <time>2022-07-17T00:30:03Z</time>
      </trkpt>
      <trkpt lat="45.7345" lon="6.60623">
        <ele>1891</ele>
        <time>2022-07-17T00:30:05Z</time>
      </trkpt>
      <trkpt lat="45.73452" lon="6.60625">
        <ele>1891</ele>
        <time>2022-07-17T00:30:07Z</time>
      </trkpt>
      <trkpt lat="45.73455" lon="6.60627">
        <ele>1891</ele>
        <time>2022-07-17T00:30:09Z</time>
      </trkpt>
      <trkpt lat="45.73458" lon="6.60628">
        <ele>1891</ele>
        <time>2022-07-17T00:30:11Z</time>
      </trkpt>
      <trkpt lat="45.73461" lon="6.6063">
        <ele>1890</ele>
        <time>2022-07-17T00:30:13Z</time>
      </trkpt>
      <trkpt lat="45.73464" lon="6.60631">
        <ele>1890</ele>
        <time>2022-07-17T00:30:15Z</time>
      </trkpt>
      <trkpt lat="45.73467" lon="6.60632">
        <ele>1889</ele>
        <time>2022-07-17T00:30:17Z</time>
      </trkpt>
      <trkpt lat="45.73469" lon="6.60633">
        <ele>1889</ele>
        <time>2022-07-17T00:30:19Z</time>
      </trkpt>
      <trkpt lat="45.73471" lon="6.60634">
        <ele>1889</ele>
        <time>2022-07-17T00:30:21Z</time>
      </trkpt>
      <trkpt lat="45.73474" lon="6.60635">
        <ele>1889</ele>
        <time>2022-07-17T00:30:23Z</time>
      </trkpt>
      <trkpt lat="45.73476" lon="6.60636">
        <ele>1888</ele>
        <time>2022-07-17T00:30:25Z</time>
      </trkpt>
      <trkpt lat="45.73478" lon="6.60637">
        <ele>1888</ele>
        <time>2022-07-17T00:30:27Z</time>
      </trkpt>
      <trkpt lat="45.7348" lon="6.60639">
        <ele>1889</ele>
        <time>2022-07-17T00:30:29Z</time>
      </trkpt>
      <trkpt lat="45.73482" lon="6.60641">
        <ele>1889</ele>
        <time>2022-07-17T00:30:31Z</time>
      </trkpt>
      <trkpt lat="45.73484" lon="6.60642">
        <ele>1889</ele>
        <time>2022-07-17T00:30:33Z</time>
      </trkpt>
      <trkpt lat="45.73486" lon="6.60644">
        <ele>1889</ele>
        <time>2022-07-17T00:30:35Z</time>
      </trkpt>
      <trkpt lat="45.73487" lon="6.60646">
        <ele>1889</ele>
        <time>2022-07-17T00:30:37Z</time>
      </trkpt>
      <trkpt lat="45.73489" lon="6.60646">
        <ele>1889</ele>
        <time>2022-07-17T00:30:39Z</time>
      </trkpt>
      <trkpt lat="45.73491" lon="6.60647">
        <ele>1889</ele>
        <time>2022-07-17T00:30:41Z</time>
      </trkpt>
      <trkpt lat="45.73494" lon="6.60649">
        <ele>1889</ele>
        <time>2022-07-17T00:30:43Z</time>
      </trkpt>
      <trkpt lat="45.73496" lon="6.6065">
        <ele>1889</ele>
        <time>2022-07-17T00:30:45Z</time>
      </trkpt>
      <trkpt lat="45.73497" lon="6.60652">
        <ele>1889</ele>
        <time>2022-07-17T00:30:47Z</time>
      </trkpt>
      <trkpt lat="45.73499" lon="6.60654">
        <ele>1890</ele>
        <time>2022-07-17T00:30:49Z</time>
      </trkpt>
      <trkpt lat="45.735" lon="6.60656">
        <ele>1890</ele>
        <time>2022-07-17T00:30:51Z</time>
      </trkpt>
      <trkpt lat="45.73501" lon="6.60659">
        <ele>1890</ele>
        <time>2022-07-17T00:30:53Z</time>
      </trkpt>
      <trkpt lat="45.73503" lon="6.60661">
        <ele>1890</ele>
        <time>2022-07-17T00:30:55Z</time>
      </trkpt>
      <trkpt lat="45.73504" lon="6.60663">
        <ele>1890</ele>
        <time>2022-07-17T00:30:58Z</time>
      </trkpt>
      <trkpt lat="45.73506" lon="6.60665">
        <ele>1890</ele>
        <time>2022-07-17T00:31:01Z</time>
      </trkpt>
      <trkpt lat="45.73508" lon="6.60667">
        <ele>1890</ele>
        <time>2022-07-17T00:31:04Z</time>
      </trkpt>
      <trkpt lat="45.73509" lon="6.6067">
        <ele>1890</ele>
        <time>2022-07-17T00:31:06Z</time>
      </trkpt>
      <trkpt lat="45.7351" lon="6.60672">
        <ele>1890</ele>
        <time>2022-07-17T00:31:08Z</time>
      </trkpt>
      <trkpt lat="45.73511" lon="6.60674">
        <ele>1889</ele>
        <time>2022-07-17T00:31:10Z</time>
      </trkpt>
      <trkpt lat="45.73513" lon="6.60676">
        <ele>1889</ele>
        <time>2022-07-17T00:31:12Z</time>
      </trkpt>
      <trkpt lat="45.73514" lon="6.60678">
        <ele>1888</ele>
        <time>2022-07-17T00:31:14Z</time>
      </trkpt>
      <trkpt lat="45.73515" lon="6.6068">
        <ele>1887</ele>
        <time>2022-07-17T00:31:16Z</time>
      </trkpt>
      <trkpt lat="45.73515" lon="6.60683">
        <ele>1887</ele>
        <time>2022-07-17T00:31:18Z</time>
      </trkpt>
      <trkpt lat="45.73515" lon="6.60687">
        <ele>1886</ele>
        <time>2022-07-17T00:31:21Z</time>
      </trkpt>
      <trkpt lat="45.73514" lon="6.6069">
        <ele>1886</ele>
        <time>2022-07-17T00:31:23Z</time>
      </trkpt>
      <trkpt lat="45.73514" lon="6.60693">
        <ele>1886</ele>
        <time>2022-07-17T00:31:24Z</time>
      </trkpt>
      <trkpt lat="45.73514" lon="6.60696">
        <ele>1885</ele>
        <time>2022-07-17T00:31:27Z</time>
      </trkpt>
      <trkpt lat="45.73513" lon="6.60699">
        <ele>1884</ele>
        <time>2022-07-17T00:31:29Z</time>
      </trkpt>
      <trkpt lat="45.73512" lon="6.60702">
        <ele>1884</ele>
        <time>2022-07-17T00:31:31Z</time>
      </trkpt>
      <trkpt lat="45.73511" lon="6.60704">
        <ele>1884</ele>
        <time>2022-07-17T00:31:33Z</time>
      </trkpt>
      <trkpt lat="45.7351" lon="6.60708">
        <ele>1883</ele>
        <time>2022-07-17T00:31:36Z</time>
      </trkpt>
      <trkpt lat="45.73509" lon="6.60711">
        <ele>1883</ele>
        <time>2022-07-17T00:31:38Z</time>
      </trkpt>
      <trkpt lat="45.73508" lon="6.60713">
        <ele>1883</ele>
        <time>2022-07-17T00:31:40Z</time>
      </trkpt>
      <trkpt lat="45.73508" lon="6.60717">
        <ele>1882</ele>
        <time>2022-07-17T00:31:43Z</time>
      </trkpt>
      <trkpt lat="45.73508" lon="6.6072">
        <ele>1882</ele>
        <time>2022-07-17T00:31:45Z</time>
      </trkpt>
      <trkpt lat="45.73509" lon="6.60722">
        <ele>1881</ele>
        <time>2022-07-17T00:31:47Z</time>
      </trkpt>
      <trkpt lat="45.7351" lon="6.60725">
        <ele>1881</ele>
        <time>2022-07-17T00:31:49Z</time>
      </trkpt>
      <trkpt lat="45.73509" lon="6.60728">
        <ele>1881</ele>
        <time>2022-07-17T00:31:51Z</time>
      </trkpt>
      <trkpt lat="45.7351" lon="6.60732">
        <ele>1880</ele>
        <time>2022-07-17T00:31:54Z</time>
      </trkpt>
      <trkpt lat="45.7351" lon="6.60735">
        <ele>1879</ele>
        <time>2022-07-17T00:31:56Z</time>
      </trkpt>
      <trkpt lat="45.73511" lon="6.60738">
        <ele>1879</ele>
        <time>2022-07-17T00:31:58Z</time>
      </trkpt>
      <trkpt lat="45.73511" lon="6.60741">
        <ele>1879</ele>
        <time>2022-07-17T00:32:00Z</time>
      </trkpt>
      <trkpt lat="45.73511" lon="6.60745">
        <ele>1878</ele>
        <time>2022-07-17T00:32:02Z</time>
      </trkpt>
      <trkpt lat="45.73511" lon="6.60748">
        <ele>1878</ele>
        <time>2022-07-17T00:32:04Z</time>
      </trkpt>
      <trkpt lat="45.73512" lon="6.60751">
        <ele>1877</ele>
        <time>2022-07-17T00:32:06Z</time>
      </trkpt>
      <trkpt lat="45.73513" lon="6.60754">
        <ele>1877</ele>
        <time>2022-07-17T00:32:09Z</time>
      </trkpt>
      <trkpt lat="45.73516" lon="6.60755">
        <ele>1875</ele>
        <time>2022-07-17T00:32:12Z</time>
      </trkpt>
      <trkpt lat="45.73518" lon="6.60755">
        <ele>1875</ele>
        <time>2022-07-17T00:32:14Z</time>
      </trkpt>
      <trkpt lat="45.73519" lon="6.60754">
        <ele>1875</ele>
        <time>2022-07-17T00:32:16Z</time>
      </trkpt>
      <trkpt lat="45.73522" lon="6.60754">
        <ele>1874</ele>
        <time>2022-07-17T00:32:19Z</time>
      </trkpt>
      <trkpt lat="45.73523" lon="6.60755">
        <ele>1874</ele>
        <time>2022-07-17T00:32:21Z</time>
      </trkpt>
      <trkpt lat="45.73524" lon="6.60757">
        <ele>1874</ele>
        <time>2022-07-17T00:32:23Z</time>
      </trkpt>
      <trkpt lat="45.73526" lon="6.6076">
        <ele>1873</ele>
        <time>2022-07-17T00:32:26Z</time>
      </trkpt>
      <trkpt lat="45.73529" lon="6.6076">
        <ele>1872</ele>
        <time>2022-07-17T00:32:29Z</time>
      </trkpt>
      <trkpt lat="45.7353" lon="6.60759">
        <ele>1871</ele>
        <time>2022-07-17T00:32:31Z</time>
      </trkpt>
      <trkpt lat="45.73532" lon="6.60757">
        <ele>1871</ele>
        <time>2022-07-17T00:32:33Z</time>
      </trkpt>
      <trkpt lat="45.73533" lon="6.60755">
        <ele>1871</ele>
        <time>2022-07-17T00:32:35Z</time>
      </trkpt>
      <trkpt lat="45.73535" lon="6.60754">
        <ele>1870</ele>
        <time>2022-07-17T00:32:37Z</time>
      </trkpt>
      <trkpt lat="45.73536" lon="6.60753">
        <ele>1869</ele>
        <time>2022-07-17T00:32:39Z</time>
      </trkpt>
      <trkpt lat="45.73538" lon="6.60753">
        <ele>1869</ele>
        <time>2022-07-17T00:32:41Z</time>
      </trkpt>
      <trkpt lat="45.73541" lon="6.60752">
        <ele>1868</ele>
        <time>2022-07-17T00:32:44Z</time>
      </trkpt>
      <trkpt lat="45.73543" lon="6.60751">
        <ele>1868</ele>
        <time>2022-07-17T00:32:46Z</time>
      </trkpt>
      <trkpt lat="45.73544" lon="6.6075">
        <ele>1867</ele>
        <time>2022-07-17T00:32:48Z</time>
      </trkpt>
      <trkpt lat="45.73546" lon="6.60748">
        <ele>1867</ele>
        <time>2022-07-17T00:32:50Z</time>
      </trkpt>
      <trkpt lat="45.73548" lon="6.60749">
        <ele>1867</ele>
        <time>2022-07-17T00:32:52Z</time>
      </trkpt>
      <trkpt lat="45.7355" lon="6.60749">
        <ele>1866</ele>
        <time>2022-07-17T00:32:54Z</time>
      </trkpt>
      <trkpt lat="45.73552" lon="6.60749">
        <ele>1866</ele>
        <time>2022-07-17T00:32:56Z</time>
      </trkpt>
      <trkpt lat="45.73553" lon="6.60747">
        <ele>1865</ele>
        <time>2022-07-17T00:32:58Z</time>
      </trkpt>
      <trkpt lat="45.73555" lon="6.60744">
        <ele>1864</ele>
        <time>2022-07-17T00:33:01Z</time>
      </trkpt>
      <trkpt lat="45.73557" lon="6.60743">
        <ele>1864</ele>
        <time>2022-07-17T00:33:04Z</time>
      </trkpt>
      <trkpt lat="45.73559" lon="6.60745">
        <ele>1863</ele>
        <time>2022-07-17T00:33:07Z</time>
      </trkpt>
      <trkpt lat="45.73561" lon="6.60745">
        <ele>1862</ele>
        <time>2022-07-17T00:33:09Z</time>
      </trkpt>
      <trkpt lat="45.73563" lon="6.60746">
        <ele>1862</ele>
        <time>2022-07-17T00:33:12Z</time>
      </trkpt>
      <trkpt lat="45.73563" lon="6.60743">
        <ele>1861</ele>
        <time>2022-07-17T00:33:16Z</time>
      </trkpt>
      <trkpt lat="45.73564" lon="6.6074">
        <ele>1861</ele>
        <time>2022-07-17T00:33:18Z</time>
      </trkpt>
      <trkpt lat="45.73567" lon="6.60741">
        <ele>1860</ele>
        <time>2022-07-17T00:33:20Z</time>
      </trkpt>
      <trkpt lat="45.73568" lon="6.60743">
        <ele>1859</ele>
        <time>2022-07-17T00:33:23Z</time>
      </trkpt>
      <trkpt lat="45.7357" lon="6.60746">
        <ele>1859</ele>
        <time>2022-07-17T00:33:24Z</time>
      </trkpt>
      <trkpt lat="45.73571" lon="6.60747">
        <ele>1858</ele>
        <time>2022-07-17T00:33:27Z</time>
      </trkpt>
      <trkpt lat="45.73573" lon="6.60747">
        <ele>1857</ele>
        <time>2022-07-17T00:33:32Z</time>
      </trkpt>
      <trkpt lat="45.73573" lon="6.60743">
        <ele>1857</ele>
        <time>2022-07-17T00:33:34Z</time>
      </trkpt>
      <trkpt lat="45.73574" lon="6.6074">
        <ele>1857</ele>
        <time>2022-07-17T00:33:36Z</time>
      </trkpt>
      <trkpt lat="45.73575" lon="6.60737">
        <ele>1856</ele>
        <time>2022-07-17T00:33:38Z</time>
      </trkpt>
      <trkpt lat="45.73576" lon="6.60735">
        <ele>1855</ele>
        <time>2022-07-17T00:33:41Z</time>
      </trkpt>
      <trkpt lat="45.73578" lon="6.60734">
        <ele>1854</ele>
        <time>2022-07-17T00:33:44Z</time>
      </trkpt>
      <trkpt lat="45.7358" lon="6.60737">
        <ele>1853</ele>
        <time>2022-07-17T00:33:47Z</time>
      </trkpt>
      <trkpt lat="45.73582" lon="6.60739">
        <ele>1852</ele>
        <time>2022-07-17T00:33:50Z</time>
      </trkpt>
      <trkpt lat="45.73584" lon="6.60741">
        <ele>1852</ele>
        <time>2022-07-17T00:33:52Z</time>
      </trkpt>
      <trkpt lat="45.73586" lon="6.60742">
        <ele>1852</ele>
        <time>2022-07-17T00:33:54Z</time>
      </trkpt>
      <trkpt lat="45.73588" lon="6.60743">
        <ele>1851</ele>
        <time>2022-07-17T00:33:56Z</time>
      </trkpt>
      <trkpt lat="45.7359" lon="6.60743">
        <ele>1850</ele>
        <time>2022-07-17T00:33:58Z</time>
      </trkpt>
      <trkpt lat="45.73592" lon="6.60743">
        <ele>1849</ele>
        <time>2022-07-17T00:34:01Z</time>
      </trkpt>
      <trkpt lat="45.73593" lon="6.6074">
        <ele>1849</ele>
        <time>2022-07-17T00:34:04Z</time>
      </trkpt>
      <trkpt lat="45.73594" lon="6.60737">
        <ele>1848</ele>
        <time>2022-07-17T00:34:06Z</time>
      </trkpt>
      <trkpt lat="45.73595" lon="6.60734">
        <ele>1847</ele>
        <time>2022-07-17T00:34:08Z</time>
      </trkpt>
      <trkpt lat="45.73596" lon="6.60732">
        <ele>1847</ele>
        <time>2022-07-17T00:34:11Z</time>
      </trkpt>
      <trkpt lat="45.73598" lon="6.6073">
        <ele>1847</ele>
        <time>2022-07-17T00:34:14Z</time>
      </trkpt>
      <trkpt lat="45.736" lon="6.6073">
        <ele>1846</ele>
        <time>2022-07-17T00:34:17Z</time>
      </trkpt>
      <trkpt lat="45.73602" lon="6.60727">
        <ele>1845</ele>
        <time>2022-07-17T00:34:21Z</time>
      </trkpt>
      <trkpt lat="45.73603" lon="6.60726">
        <ele>1845</ele>
        <time>2022-07-17T00:34:23Z</time>
      </trkpt>
      <trkpt lat="45.73604" lon="6.60723">
        <ele>1844</ele>
        <time>2022-07-17T00:34:26Z</time>
      </trkpt>
      <trkpt lat="45.73606" lon="6.60721">
        <ele>1844</ele>
        <time>2022-07-17T00:34:28Z</time>
      </trkpt>
      <trkpt lat="45.73607" lon="6.60719">
        <ele>1842</ele>
        <time>2022-07-17T00:34:31Z</time>
      </trkpt>
      <trkpt lat="45.73609" lon="6.60717">
        <ele>1842</ele>
        <time>2022-07-17T00:34:34Z</time>
      </trkpt>
      <trkpt lat="45.73611" lon="6.60715">
        <ele>1840</ele>
        <time>2022-07-17T00:34:37Z</time>
      </trkpt>
      <trkpt lat="45.73613" lon="6.60714">
        <ele>1839</ele>
        <time>2022-07-17T00:34:40Z</time>
      </trkpt>
      <trkpt lat="45.73614" lon="6.60712">
        <ele>1838</ele>
        <time>2022-07-17T00:34:43Z</time>
      </trkpt>
      <trkpt lat="45.73616" lon="6.60709">
        <ele>1837</ele>
        <time>2022-07-17T00:34:46Z</time>
      </trkpt>
      <trkpt lat="45.73618" lon="6.60706">
        <ele>1837</ele>
        <time>2022-07-17T00:34:49Z</time>
      </trkpt>
      <trkpt lat="45.73619" lon="6.60704">
        <ele>1837</ele>
        <time>2022-07-17T00:34:51Z</time>
      </trkpt>
      <trkpt lat="45.73621" lon="6.60702">
        <ele>1837</ele>
        <time>2022-07-17T00:34:53Z</time>
      </trkpt>
      <trkpt lat="45.73623" lon="6.607">
        <ele>1836</ele>
        <time>2022-07-17T00:34:55Z</time>
      </trkpt>
      <trkpt lat="45.73626" lon="6.60699">
        <ele>1836</ele>
        <time>2022-07-17T00:34:57Z</time>
      </trkpt>
      <trkpt lat="45.73629" lon="6.60699">
        <ele>1835</ele>
        <time>2022-07-17T00:34:59Z</time>
      </trkpt>
      <trkpt lat="45.73631" lon="6.60699">
        <ele>1833</ele>
        <time>2022-07-17T00:35:01Z</time>
      </trkpt>
      <trkpt lat="45.73633" lon="6.60697">
        <ele>1833</ele>
        <time>2022-07-17T00:35:03Z</time>
      </trkpt>
      <trkpt lat="45.73635" lon="6.60694">
        <ele>1833</ele>
        <time>2022-07-17T00:35:05Z</time>
      </trkpt>
      <trkpt lat="45.73637" lon="6.6069">
        <ele>1833</ele>
        <time>2022-07-17T00:35:07Z</time>
      </trkpt>
      <trkpt lat="45.73639" lon="6.60688">
        <ele>1833</ele>
        <time>2022-07-17T00:35:09Z</time>
      </trkpt>
      <trkpt lat="45.73642" lon="6.60687">
        <ele>1833</ele>
        <time>2022-07-17T00:35:11Z</time>
      </trkpt>
      <trkpt lat="45.73645" lon="6.60685">
        <ele>1831</ele>
        <time>2022-07-17T00:35:13Z</time>
      </trkpt>
      <trkpt lat="45.73648" lon="6.60682">
        <ele>1831</ele>
        <time>2022-07-17T00:35:15Z</time>
      </trkpt>
      <trkpt lat="45.7365" lon="6.6068">
        <ele>1830</ele>
        <time>2022-07-17T00:35:17Z</time>
      </trkpt>
      <trkpt lat="45.73652" lon="6.60677">
        <ele>1830</ele>
        <time>2022-07-17T00:35:19Z</time>
      </trkpt>
      <trkpt lat="45.73655" lon="6.60676">
        <ele>1830</ele>
        <time>2022-07-17T00:35:21Z</time>
      </trkpt>
      <trkpt lat="45.73657" lon="6.60674">
        <ele>1829</ele>
        <time>2022-07-17T00:35:23Z</time>
      </trkpt>
      <trkpt lat="45.73659" lon="6.60671">
        <ele>1829</ele>
        <time>2022-07-17T00:35:25Z</time>
      </trkpt>
      <trkpt lat="45.73661" lon="6.60669">
        <ele>1829</ele>
        <time>2022-07-17T00:35:27Z</time>
      </trkpt>
      <trkpt lat="45.73663" lon="6.60667">
        <ele>1828</ele>
        <time>2022-07-17T00:35:29Z</time>
      </trkpt>
      <trkpt lat="45.73666" lon="6.60666">
        <ele>1827</ele>
        <time>2022-07-17T00:35:31Z</time>
      </trkpt>
      <trkpt lat="45.73668" lon="6.60665">
        <ele>1827</ele>
        <time>2022-07-17T00:35:33Z</time>
      </trkpt>
      <trkpt lat="45.7367" lon="6.60663">
        <ele>1827</ele>
        <time>2022-07-17T00:35:35Z</time>
      </trkpt>
      <trkpt lat="45.73673" lon="6.60662">
        <ele>1826</ele>
        <time>2022-07-17T00:35:37Z</time>
      </trkpt>
      <trkpt lat="45.73676" lon="6.60662">
        <ele>1826</ele>
        <time>2022-07-17T00:35:39Z</time>
      </trkpt>
      <trkpt lat="45.73679" lon="6.60662">
        <ele>1826</ele>
        <time>2022-07-17T00:35:41Z</time>
      </trkpt>
      <trkpt lat="45.73681" lon="6.60661">
        <ele>1825</ele>
        <time>2022-07-17T00:35:43Z</time>
      </trkpt>
      <trkpt lat="45.73684" lon="6.60661">
        <ele>1825</ele>
        <time>2022-07-17T00:35:45Z</time>
      </trkpt>
      <trkpt lat="45.73687" lon="6.6066">
        <ele>1824</ele>
        <time>2022-07-17T00:35:47Z</time>
      </trkpt>
      <trkpt lat="45.73689" lon="6.6066">
        <ele>1823</ele>
        <time>2022-07-17T00:35:49Z</time>
      </trkpt>
      <trkpt lat="45.73692" lon="6.60661">
        <ele>1823</ele>
        <time>2022-07-17T00:35:51Z</time>
      </trkpt>
      <trkpt lat="45.73694" lon="6.6066">
        <ele>1822</ele>
        <time>2022-07-17T00:35:53Z</time>
      </trkpt>
      <trkpt lat="45.73697" lon="6.60659">
        <ele>1822</ele>
        <time>2022-07-17T00:35:55Z</time>
      </trkpt>
      <trkpt lat="45.73699" lon="6.60659">
        <ele>1822</ele>
        <time>2022-07-17T00:35:57Z</time>
      </trkpt>
      <trkpt lat="45.73702" lon="6.60658">
        <ele>1821</ele>
        <time>2022-07-17T00:35:59Z</time>
      </trkpt>
      <trkpt lat="45.73704" lon="6.60657">
        <ele>1820</ele>
        <time>2022-07-17T00:36:01Z</time>
      </trkpt>
      <trkpt lat="45.73707" lon="6.60657">
        <ele>1820</ele>
        <time>2022-07-17T00:36:03Z</time>
      </trkpt>
      <trkpt lat="45.73709" lon="6.60657">
        <ele>1819</ele>
        <time>2022-07-17T00:36:05Z</time>
      </trkpt>
      <trkpt lat="45.73712" lon="6.60656">
        <ele>1819</ele>
        <time>2022-07-17T00:36:07Z</time>
      </trkpt>
      <trkpt lat="45.73714" lon="6.60655">
        <ele>1818</ele>
        <time>2022-07-17T00:36:09Z</time>
      </trkpt>
      <trkpt lat="45.73717" lon="6.60654">
        <ele>1818</ele>
        <time>2022-07-17T00:36:11Z</time>
      </trkpt>
      <trkpt lat="45.73719" lon="6.60654">
        <ele>1818</ele>
        <time>2022-07-17T00:36:13Z</time>
      </trkpt>
      <trkpt lat="45.73722" lon="6.60654">
        <ele>1818</ele>
        <time>2022-07-17T00:36:15Z</time>
      </trkpt>
      <trkpt lat="45.73724" lon="6.60654">
        <ele>1816</ele>
        <time>2022-07-17T00:36:17Z</time>
      </trkpt>
      <trkpt lat="45.73726" lon="6.60653">
        <ele>1816</ele>
        <time>2022-07-17T00:36:19Z</time>
      </trkpt>
      <trkpt lat="45.73729" lon="6.60653">
        <ele>1815</ele>
        <time>2022-07-17T00:36:21Z</time>
      </trkpt>
      <trkpt lat="45.73731" lon="6.60651">
        <ele>1815</ele>
        <time>2022-07-17T00:36:23Z</time>
      </trkpt>
      <trkpt lat="45.73734" lon="6.6065">
        <ele>1815</ele>
        <time>2022-07-17T00:36:25Z</time>
      </trkpt>
      <trkpt lat="45.73736" lon="6.60649">
        <ele>1814</ele>
        <time>2022-07-17T00:36:27Z</time>
      </trkpt>
      <trkpt lat="45.73739" lon="6.60648">
        <ele>1814</ele>
        <time>2022-07-17T00:36:29Z</time>
      </trkpt>
      <trkpt lat="45.73742" lon="6.60648">
        <ele>1813</ele>
        <time>2022-07-17T00:36:31Z</time>
      </trkpt>
      <trkpt lat="45.73745" lon="6.60647">
        <ele>1813</ele>
        <time>2022-07-17T00:36:33Z</time>
      </trkpt>
      <trkpt lat="45.73748" lon="6.60647">
        <ele>1813</ele>
        <time>2022-07-17T00:36:34Z</time>
      </trkpt>
      <trkpt lat="45.7375" lon="6.60647">
        <ele>1812</ele>
        <time>2022-07-17T00:36:37Z</time>
      </trkpt>
      <trkpt lat="45.73752" lon="6.60646">
        <ele>1811</ele>
        <time>2022-07-17T00:36:39Z</time>
      </trkpt>
      <trkpt lat="45.73755" lon="6.60646">
        <ele>1811</ele>
        <time>2022-07-17T00:36:41Z</time>
      </trkpt>
      <trkpt lat="45.73757" lon="6.60646">
        <ele>1811</ele>
        <time>2022-07-17T00:36:43Z</time>
      </trkpt>
      <trkpt lat="45.73759" lon="6.60648">
        <ele>1811</ele>
        <time>2022-07-17T00:36:45Z</time>
      </trkpt>
      <trkpt lat="45.73762" lon="6.60649">
        <ele>1810</ele>
        <time>2022-07-17T00:36:47Z</time>
      </trkpt>
      <trkpt lat="45.73764" lon="6.6065">
        <ele>1809</ele>
        <time>2022-07-17T00:36:49Z</time>
      </trkpt>
      <trkpt lat="45.73766" lon="6.60651">
        <ele>1808</ele>
        <time>2022-07-17T00:36:51Z</time>
      </trkpt>
      <trkpt lat="45.73769" lon="6.60651">
        <ele>1808</ele>
        <time>2022-07-17T00:36:53Z</time>
      </trkpt>
      <trkpt lat="45.73771" lon="6.60652">
        <ele>1808</ele>
        <time>2022-07-17T00:36:55Z</time>
      </trkpt>
      <trkpt lat="45.73773" lon="6.60654">
        <ele>1808</ele>
        <time>2022-07-17T00:36:57Z</time>
      </trkpt>
      <trkpt lat="45.73775" lon="6.60655">
        <ele>1807</ele>
        <time>2022-07-17T00:37:00Z</time>
      </trkpt>
      <trkpt lat="45.73777" lon="6.60654">
        <ele>1806</ele>
        <time>2022-07-17T00:37:03Z</time>
      </trkpt>
      <trkpt lat="45.73778" lon="6.60651">
        <ele>1804</ele>
        <time>2022-07-17T00:37:06Z</time>
      </trkpt>
      <trkpt lat="45.7378" lon="6.60651">
        <ele>1804</ele>
        <time>2022-07-17T00:37:08Z</time>
      </trkpt>
      <trkpt lat="45.73783" lon="6.60651">
        <ele>1803</ele>
        <time>2022-07-17T00:37:10Z</time>
      </trkpt>
      <trkpt lat="45.73784" lon="6.6065">
        <ele>1803</ele>
        <time>2022-07-17T00:37:12Z</time>
      </trkpt>
      <trkpt lat="45.73786" lon="6.60647">
        <ele>1801</ele>
        <time>2022-07-17T00:37:14Z</time>
      </trkpt>
      <trkpt lat="45.73787" lon="6.60646">
        <ele>1800</ele>
        <time>2022-07-17T00:37:16Z</time>
      </trkpt>
      <trkpt lat="45.73789" lon="6.60645">
        <ele>1800</ele>
        <time>2022-07-17T00:37:18Z</time>
      </trkpt>
      <trkpt lat="45.73791" lon="6.60645">
        <ele>1801</ele>
        <time>2022-07-17T00:37:20Z</time>
      </trkpt>
      <trkpt lat="45.73793" lon="6.60646">
        <ele>1800</ele>
        <time>2022-07-17T00:37:22Z</time>
      </trkpt>
      <trkpt lat="45.73795" lon="6.60647">
        <ele>1799</ele>
        <time>2022-07-17T00:37:24Z</time>
      </trkpt>
      <trkpt lat="45.73797" lon="6.60648">
        <ele>1798</ele>
        <time>2022-07-17T00:37:26Z</time>
      </trkpt>
      <trkpt lat="45.738" lon="6.60649">
        <ele>1798</ele>
        <time>2022-07-17T00:37:28Z</time>
      </trkpt>
      <trkpt lat="45.73802" lon="6.60651">
        <ele>1797</ele>
        <time>2022-07-17T00:37:30Z</time>
      </trkpt>
      <trkpt lat="45.73803" lon="6.60654">
        <ele>1797</ele>
        <time>2022-07-17T00:37:31Z</time>
      </trkpt>
      <trkpt lat="45.73805" lon="6.60655">
        <ele>1796</ele>
        <time>2022-07-17T00:37:34Z</time>
      </trkpt>
      <trkpt lat="45.73807" lon="6.60657">
        <ele>1796</ele>
        <time>2022-07-17T00:37:36Z</time>
      </trkpt>
      <trkpt lat="45.73809" lon="6.60658">
        <ele>1796</ele>
        <time>2022-07-17T00:37:38Z</time>
      </trkpt>
      <trkpt lat="45.73811" lon="6.60659">
        <ele>1796</ele>
        <time>2022-07-17T00:37:40Z</time>
      </trkpt>
      <trkpt lat="45.73813" lon="6.60662">
        <ele>1796</ele>
        <time>2022-07-17T00:37:43Z</time>
      </trkpt>
      <trkpt lat="45.73814" lon="6.60664">
        <ele>1795</ele>
        <time>2022-07-17T00:37:45Z</time>
      </trkpt>
      <trkpt lat="45.73816" lon="6.60666">
        <ele>1795</ele>
        <time>2022-07-17T00:37:47Z</time>
      </trkpt>
      <trkpt lat="45.73818" lon="6.60667">
        <ele>1795</ele>
        <time>2022-07-17T00:37:49Z</time>
      </trkpt>
      <trkpt lat="45.73819" lon="6.60669">
        <ele>1795</ele>
        <time>2022-07-17T00:37:51Z</time>
      </trkpt>
      <trkpt lat="45.73821" lon="6.60671">
        <ele>1794</ele>
        <time>2022-07-17T00:37:54Z</time>
      </trkpt>
      <trkpt lat="45.73823" lon="6.60673">
        <ele>1793</ele>
        <time>2022-07-17T00:37:57Z</time>
      </trkpt>
      <trkpt lat="45.73825" lon="6.60673">
        <ele>1793</ele>
        <time>2022-07-17T00:38:01Z</time>
      </trkpt>
      <trkpt lat="45.73826" lon="6.6067">
        <ele>1792</ele>
        <time>2022-07-17T00:38:04Z</time>
      </trkpt>
      <trkpt lat="45.73828" lon="6.60668">
        <ele>1791</ele>
        <time>2022-07-17T00:38:06Z</time>
      </trkpt>
      <trkpt lat="45.73831" lon="6.60667">
        <ele>1791</ele>
        <time>2022-07-17T00:38:08Z</time>
      </trkpt>
      <trkpt lat="45.73834" lon="6.60667">
        <ele>1791</ele>
        <time>2022-07-17T00:38:09Z</time>
      </trkpt>
      <trkpt lat="45.73836" lon="6.60667">
        <ele>1791</ele>
        <time>2022-07-17T00:38:12Z</time>
      </trkpt>
      <trkpt lat="45.73839" lon="6.60667">
        <ele>1791</ele>
        <time>2022-07-17T00:38:14Z</time>
      </trkpt>
      <trkpt lat="45.73842" lon="6.60668">
        <ele>1791</ele>
        <time>2022-07-17T00:38:16Z</time>
      </trkpt>
      <trkpt lat="45.73845" lon="6.60669">
        <ele>1791</ele>
        <time>2022-07-17T00:38:18Z</time>
      </trkpt>
      <trkpt lat="45.73847" lon="6.60669">
        <ele>1791</ele>
        <time>2022-07-17T00:38:20Z</time>
      </trkpt>
      <trkpt lat="45.7385" lon="6.6067">
        <ele>1790</ele>
        <time>2022-07-17T00:38:22Z</time>
      </trkpt>
      <trkpt lat="45.73852" lon="6.6067">
        <ele>1790</ele>
        <time>2022-07-17T00:38:24Z</time>
      </trkpt>
      <trkpt lat="45.73855" lon="6.60669">
        <ele>1790</ele>
        <time>2022-07-17T00:38:26Z</time>
      </trkpt>
      <trkpt lat="45.73858" lon="6.60669">
        <ele>1790</ele>
        <time>2022-07-17T00:38:28Z</time>
      </trkpt>
      <trkpt lat="45.73861" lon="6.60669">
        <ele>1790</ele>
        <time>2022-07-17T00:38:30Z</time>
      </trkpt>
      <trkpt lat="45.73863" lon="6.60667">
        <ele>1790</ele>
        <time>2022-07-17T00:38:32Z</time>
      </trkpt>
      <trkpt lat="45.73866" lon="6.60666">
        <ele>1790</ele>
        <time>2022-07-17T00:38:34Z</time>
      </trkpt>
      <trkpt lat="45.73868" lon="6.60664">
        <ele>1790</ele>
        <time>2022-07-17T00:38:36Z</time>
      </trkpt>
      <trkpt lat="45.73871" lon="6.60662">
        <ele>1791</ele>
        <time>2022-07-17T00:38:38Z</time>
      </trkpt>
      <trkpt lat="45.73873" lon="6.60661">
        <ele>1791</ele>
        <time>2022-07-17T00:38:40Z</time>
      </trkpt>
      <trkpt lat="45.73874" lon="6.60659">
        <ele>1791</ele>
        <time>2022-07-17T00:38:42Z</time>
      </trkpt>
      <trkpt lat="45.73876" lon="6.60657">
        <ele>1791</ele>
        <time>2022-07-17T00:38:44Z</time>
      </trkpt>
      <trkpt lat="45.73878" lon="6.60655">
        <ele>1791</ele>
        <time>2022-07-17T00:38:46Z</time>
      </trkpt>
      <trkpt lat="45.73879" lon="6.60653">
        <ele>1791</ele>
        <time>2022-07-17T00:38:48Z</time>
      </trkpt>
      <trkpt lat="45.73881" lon="6.60651">
        <ele>1791</ele>
        <time>2022-07-17T00:38:50Z</time>
      </trkpt>
      <trkpt lat="45.73883" lon="6.60649">
        <ele>1791</ele>
        <time>2022-07-17T00:38:52Z</time>
      </trkpt>
      <trkpt lat="45.73885" lon="6.60647">
        <ele>1791</ele>
        <time>2022-07-17T00:38:54Z</time>
      </trkpt>
      <trkpt lat="45.73887" lon="6.60646">
        <ele>1791</ele>
        <time>2022-07-17T00:38:56Z</time>
      </trkpt>
      <trkpt lat="45.7389" lon="6.60644">
        <ele>1792</ele>
        <time>2022-07-17T00:38:58Z</time>
      </trkpt>
      <trkpt lat="45.73892" lon="6.60643">
        <ele>1792</ele>
        <time>2022-07-17T00:39:00Z</time>
      </trkpt>
      <trkpt lat="45.73894" lon="6.60641">
        <ele>1792</ele>
        <time>2022-07-17T00:39:02Z</time>
      </trkpt>
      <trkpt lat="45.73896" lon="6.60639">
        <ele>1792</ele>
        <time>2022-07-17T00:39:04Z</time>
      </trkpt>
      <trkpt lat="45.73898" lon="6.60637">
        <ele>1792</ele>
        <time>2022-07-17T00:39:06Z</time>
      </trkpt>
      <trkpt lat="45.739" lon="6.60635">
        <ele>1792</ele>
        <time>2022-07-17T00:39:08Z</time>
      </trkpt>
      <trkpt lat="45.73903" lon="6.60634">
        <ele>1792</ele>
        <time>2022-07-17T00:39:10Z</time>
      </trkpt>
      <trkpt lat="45.73904" lon="6.60632">
        <ele>1792</ele>
        <time>2022-07-17T00:39:12Z</time>
      </trkpt>
      <trkpt lat="45.73906" lon="6.6063">
        <ele>1792</ele>
        <time>2022-07-17T00:39:14Z</time>
      </trkpt>
      <trkpt lat="45.73909" lon="6.60628">
        <ele>1792</ele>
        <time>2022-07-17T00:39:16Z</time>
      </trkpt>
      <trkpt lat="45.7391" lon="6.60625">
        <ele>1792</ele>
        <time>2022-07-17T00:39:18Z</time>
      </trkpt>
      <trkpt lat="45.73912" lon="6.60623">
        <ele>1792</ele>
        <time>2022-07-17T00:39:20Z</time>
      </trkpt>
      <trkpt lat="45.73913" lon="6.60622">
        <ele>1792</ele>
        <time>2022-07-17T00:39:22Z</time>
      </trkpt>
      <trkpt lat="45.73916" lon="6.6062">
        <ele>1792</ele>
        <time>2022-07-17T00:39:24Z</time>
      </trkpt>
      <trkpt lat="45.73918" lon="6.60618">
        <ele>1792</ele>
        <time>2022-07-17T00:39:26Z</time>
      </trkpt>
      <trkpt lat="45.73921" lon="6.60616">
        <ele>1792</ele>
        <time>2022-07-17T00:39:28Z</time>
      </trkpt>
      <trkpt lat="45.73923" lon="6.60614">
        <ele>1792</ele>
        <time>2022-07-17T00:39:30Z</time>
      </trkpt>
      <trkpt lat="45.73925" lon="6.60612">
        <ele>1792</ele>
        <time>2022-07-17T00:39:32Z</time>
      </trkpt>
      <trkpt lat="45.73928" lon="6.6061">
        <ele>1792</ele>
        <time>2022-07-17T00:39:34Z</time>
      </trkpt>
      <trkpt lat="45.7393" lon="6.60608">
        <ele>1792</ele>
        <time>2022-07-17T00:39:36Z</time>
      </trkpt>
      <trkpt lat="45.73932" lon="6.60606">
        <ele>1792</ele>
        <time>2022-07-17T00:39:38Z</time>
      </trkpt>
      <trkpt lat="45.73935" lon="6.60604">
        <ele>1793</ele>
        <time>2022-07-17T00:39:40Z</time>
      </trkpt>
      <trkpt lat="45.73937" lon="6.60602">
        <ele>1793</ele>
        <time>2022-07-17T00:39:42Z</time>
      </trkpt>
      <trkpt lat="45.7394" lon="6.60601">
        <ele>1793</ele>
        <time>2022-07-17T00:39:44Z</time>
      </trkpt>
      <trkpt lat="45.73942" lon="6.606">
        <ele>1793</ele>
        <time>2022-07-17T00:39:46Z</time>
      </trkpt>
      <trkpt lat="45.73945" lon="6.60598">
        <ele>1793</ele>
        <time>2022-07-17T00:39:48Z</time>
      </trkpt>
      <trkpt lat="45.73947" lon="6.60596">
        <ele>1793</ele>
        <time>2022-07-17T00:39:50Z</time>
      </trkpt>
      <trkpt lat="45.73949" lon="6.60594">
        <ele>1793</ele>
        <time>2022-07-17T00:39:52Z</time>
      </trkpt>
      <trkpt lat="45.73951" lon="6.60591">
        <ele>1795</ele>
        <time>2022-07-17T00:39:54Z</time>
      </trkpt>
      <trkpt lat="45.73954" lon="6.60589">
        <ele>1794</ele>
        <time>2022-07-17T00:39:56Z</time>
      </trkpt>
      <trkpt lat="45.73956" lon="6.60587">
        <ele>1794</ele>
        <time>2022-07-17T00:39:58Z</time>
      </trkpt>
      <trkpt lat="45.73958" lon="6.60585">
        <ele>1794</ele>
        <time>2022-07-17T00:40:00Z</time>
      </trkpt>
      <trkpt lat="45.7396" lon="6.60583">
        <ele>1794</ele>
        <time>2022-07-17T00:40:02Z</time>
      </trkpt>
      <trkpt lat="45.73962" lon="6.60581">
        <ele>1794</ele>
        <time>2022-07-17T00:40:04Z</time>
      </trkpt>
      <trkpt lat="45.73963" lon="6.60578">
        <ele>1794</ele>
        <time>2022-07-17T00:40:06Z</time>
      </trkpt>
      <trkpt lat="45.73965" lon="6.60576">
        <ele>1794</ele>
        <time>2022-07-17T00:40:08Z</time>
      </trkpt>
      <trkpt lat="45.73967" lon="6.60574">
        <ele>1794</ele>
        <time>2022-07-17T00:40:10Z</time>
      </trkpt>
      <trkpt lat="45.7397" lon="6.60571">
        <ele>1794</ele>
        <time>2022-07-17T00:40:12Z</time>
      </trkpt>
      <trkpt lat="45.73972" lon="6.60569">
        <ele>1794</ele>
        <time>2022-07-17T00:40:14Z</time>
      </trkpt>
      <trkpt lat="45.73974" lon="6.60567">
        <ele>1794</ele>
        <time>2022-07-17T00:40:16Z</time>
      </trkpt>
      <trkpt lat="45.73976" lon="6.60564">
        <ele>1794</ele>
        <time>2022-07-17T00:40:18Z</time>
      </trkpt>
      <trkpt lat="45.73978" lon="6.60562">
        <ele>1795</ele>
        <time>2022-07-17T00:40:20Z</time>
      </trkpt>
      <trkpt lat="45.7398" lon="6.60559">
        <ele>1795</ele>
        <time>2022-07-17T00:40:22Z</time>
      </trkpt>
      <trkpt lat="45.73982" lon="6.60556">
        <ele>1795</ele>
        <time>2022-07-17T00:40:24Z</time>
      </trkpt>
      <trkpt lat="45.73984" lon="6.60554">
        <ele>1795</ele>
        <time>2022-07-17T00:40:26Z</time>
      </trkpt>
      <trkpt lat="45.73987" lon="6.60552">
        <ele>1795</ele>
        <time>2022-07-17T00:40:28Z</time>
      </trkpt>
      <trkpt lat="45.73989" lon="6.60549">
        <ele>1795</ele>
        <time>2022-07-17T00:40:30Z</time>
      </trkpt>
      <trkpt lat="45.73991" lon="6.60547">
        <ele>1795</ele>
        <time>2022-07-17T00:40:32Z</time>
      </trkpt>
      <trkpt lat="45.73993" lon="6.60545">
        <ele>1795</ele>
        <time>2022-07-17T00:40:34Z</time>
      </trkpt>
      <trkpt lat="45.73995" lon="6.60543">
        <ele>1795</ele>
        <time>2022-07-17T00:40:36Z</time>
      </trkpt>
      <trkpt lat="45.73997" lon="6.60541">
        <ele>1795</ele>
        <time>2022-07-17T00:40:38Z</time>
      </trkpt>
      <trkpt lat="45.73999" lon="6.60538">
        <ele>1795</ele>
        <time>2022-07-17T00:40:40Z</time>
      </trkpt>
      <trkpt lat="45.74001" lon="6.60537">
        <ele>1795</ele>
        <time>2022-07-17T00:40:42Z</time>
      </trkpt>
      <trkpt lat="45.74003" lon="6.60535">
        <ele>1796</ele>
        <time>2022-07-17T00:40:44Z</time>
      </trkpt>
      <trkpt lat="45.74006" lon="6.60534">
        <ele>1796</ele>
        <time>2022-07-17T00:40:46Z</time>
      </trkpt>
      <trkpt lat="45.74009" lon="6.60532">
        <ele>1796</ele>
        <time>2022-07-17T00:40:48Z</time>
      </trkpt>
      <trkpt lat="45.74011" lon="6.60531">
        <ele>1796</ele>
        <time>2022-07-17T00:40:50Z</time>
      </trkpt>
      <trkpt lat="45.74014" lon="6.60531">
        <ele>1796</ele>
        <time>2022-07-17T00:40:52Z</time>
      </trkpt>
      <trkpt lat="45.74017" lon="6.60532">
        <ele>1796</ele>
        <time>2022-07-17T00:40:54Z</time>
      </trkpt>
      <trkpt lat="45.7402" lon="6.60533">
        <ele>1796</ele>
        <time>2022-07-17T00:40:56Z</time>
      </trkpt>
      <trkpt lat="45.74022" lon="6.60533">
        <ele>1796</ele>
        <time>2022-07-17T00:40:57Z</time>
      </trkpt>
      <trkpt lat="45.74025" lon="6.60534">
        <ele>1796</ele>
        <time>2022-07-17T00:41:00Z</time>
      </trkpt>
      <trkpt lat="45.74028" lon="6.60536">
        <ele>1796</ele>
        <time>2022-07-17T00:41:02Z</time>
      </trkpt>
      <trkpt lat="45.7403" lon="6.60538">
        <ele>1796</ele>
        <time>2022-07-17T00:41:04Z</time>
      </trkpt>
      <trkpt lat="45.74033" lon="6.6054">
        <ele>1796</ele>
        <time>2022-07-17T00:41:06Z</time>
      </trkpt>
      <trkpt lat="45.74035" lon="6.60543">
        <ele>1796</ele>
        <time>2022-07-17T00:41:08Z</time>
      </trkpt>
      <trkpt lat="45.74037" lon="6.60545">
        <ele>1796</ele>
        <time>2022-07-17T00:41:10Z</time>
      </trkpt>
      <trkpt lat="45.74039" lon="6.60547">
        <ele>1796</ele>
        <time>2022-07-17T00:41:12Z</time>
      </trkpt>
      <trkpt lat="45.74041" lon="6.60549">
        <ele>1796</ele>
        <time>2022-07-17T00:41:14Z</time>
      </trkpt>
      <trkpt lat="45.74044" lon="6.60552">
        <ele>1796</ele>
        <time>2022-07-17T00:41:16Z</time>
      </trkpt>
      <trkpt lat="45.74046" lon="6.60554">
        <ele>1796</ele>
        <time>2022-07-17T00:41:18Z</time>
      </trkpt>
      <trkpt lat="45.74048" lon="6.60556">
        <ele>1796</ele>
        <time>2022-07-17T00:41:20Z</time>
      </trkpt>
      <trkpt lat="45.7405" lon="6.60559">
        <ele>1795</ele>
        <time>2022-07-17T00:41:22Z</time>
      </trkpt>
      <trkpt lat="45.74052" lon="6.60562">
        <ele>1795</ele>
        <time>2022-07-17T00:41:24Z</time>
      </trkpt>
      <trkpt lat="45.74054" lon="6.60565">
        <ele>1795</ele>
        <time>2022-07-17T00:41:26Z</time>
      </trkpt>
      <trkpt lat="45.74056" lon="6.60567">
        <ele>1795</ele>
        <time>2022-07-17T00:41:28Z</time>
      </trkpt>
      <trkpt lat="45.74058" lon="6.6057">
        <ele>1795</ele>
        <time>2022-07-17T00:41:30Z</time>
      </trkpt>
      <trkpt lat="45.7406" lon="6.60572">
        <ele>1795</ele>
        <time>2022-07-17T00:41:32Z</time>
      </trkpt>
      <trkpt lat="45.74062" lon="6.60575">
        <ele>1795</ele>
        <time>2022-07-17T00:41:34Z</time>
      </trkpt>
      <trkpt lat="45.74064" lon="6.60578">
        <ele>1795</ele>
        <time>2022-07-17T00:41:36Z</time>
      </trkpt>
      <trkpt lat="45.74066" lon="6.60581">
        <ele>1795</ele>
        <time>2022-07-17T00:41:38Z</time>
      </trkpt>
      <trkpt lat="45.74068" lon="6.60584">
        <ele>1795</ele>
        <time>2022-07-17T00:41:40Z</time>
      </trkpt>
      <trkpt lat="45.7407" lon="6.60587">
        <ele>1795</ele>
        <time>2022-07-17T00:41:42Z</time>
      </trkpt>
      <trkpt lat="45.74073" lon="6.60589">
        <ele>1795</ele>
        <time>2022-07-17T00:41:44Z</time>
      </trkpt>
      <trkpt lat="45.74075" lon="6.60592">
        <ele>1795</ele>
        <time>2022-07-17T00:41:46Z</time>
      </trkpt>
      <trkpt lat="45.74077" lon="6.60595">
        <ele>1795</ele>
        <time>2022-07-17T00:41:48Z</time>
      </trkpt>
      <trkpt lat="45.74078" lon="6.60597">
        <ele>1795</ele>
        <time>2022-07-17T00:41:50Z</time>
      </trkpt>
      <trkpt lat="45.7408" lon="6.60599">
        <ele>1795</ele>
        <time>2022-07-17T00:41:52Z</time>
      </trkpt>
      <trkpt lat="45.74082" lon="6.60601">
        <ele>1794</ele>
        <time>2022-07-17T00:41:54Z</time>
      </trkpt>
      <trkpt lat="45.74085" lon="6.60603">
        <ele>1793</ele>
        <time>2022-07-17T00:41:56Z</time>
      </trkpt>
      <trkpt lat="45.74087" lon="6.60605">
        <ele>1793</ele>
        <time>2022-07-17T00:41:58Z</time>
      </trkpt>
      <trkpt lat="45.74089" lon="6.60607">
        <ele>1792</ele>
        <time>2022-07-17T00:42:00Z</time>
      </trkpt>
      <trkpt lat="45.74092" lon="6.60609">
        <ele>1793</ele>
        <time>2022-07-17T00:42:02Z</time>
      </trkpt>
      <trkpt lat="45.74094" lon="6.60611">
        <ele>1793</ele>
        <time>2022-07-17T00:42:04Z</time>
      </trkpt>
      <trkpt lat="45.74096" lon="6.60613">
        <ele>1793</ele>
        <time>2022-07-17T00:42:06Z</time>
      </trkpt>
      <trkpt lat="45.74098" lon="6.60615">
        <ele>1793</ele>
        <time>2022-07-17T00:42:08Z</time>
      </trkpt>
      <trkpt lat="45.74101" lon="6.60618">
        <ele>1793</ele>
        <time>2022-07-17T00:42:10Z</time>
      </trkpt>
      <trkpt lat="45.74103" lon="6.6062">
        <ele>1793</ele>
        <time>2022-07-17T00:42:12Z</time>
      </trkpt>
      <trkpt lat="45.74105" lon="6.60622">
        <ele>1793</ele>
        <time>2022-07-17T00:42:14Z</time>
      </trkpt>
      <trkpt lat="45.74107" lon="6.60625">
        <ele>1793</ele>
        <time>2022-07-17T00:42:16Z</time>
      </trkpt>
      <trkpt lat="45.74109" lon="6.60628">
        <ele>1793</ele>
        <time>2022-07-17T00:42:18Z</time>
      </trkpt>
      <trkpt lat="45.74111" lon="6.60631">
        <ele>1793</ele>
        <time>2022-07-17T00:42:20Z</time>
      </trkpt>
      <trkpt lat="45.74113" lon="6.60634">
        <ele>1792</ele>
        <time>2022-07-17T00:42:22Z</time>
      </trkpt>
      <trkpt lat="45.74115" lon="6.60637">
        <ele>1792</ele>
        <time>2022-07-17T00:42:24Z</time>
      </trkpt>
      <trkpt lat="45.74116" lon="6.6064">
        <ele>1792</ele>
        <time>2022-07-17T00:42:26Z</time>
      </trkpt>
      <trkpt lat="45.74118" lon="6.60643">
        <ele>1791</ele>
        <time>2022-07-17T00:42:28Z</time>
      </trkpt>
      <trkpt lat="45.7412" lon="6.60646">
        <ele>1791</ele>
        <time>2022-07-17T00:42:30Z</time>
      </trkpt>
      <trkpt lat="45.74122" lon="6.60648">
        <ele>1791</ele>
        <time>2022-07-17T00:42:32Z</time>
      </trkpt>
      <trkpt lat="45.74124" lon="6.60651">
        <ele>1791</ele>
        <time>2022-07-17T00:42:34Z</time>
      </trkpt>
      <trkpt lat="45.74126" lon="6.60653">
        <ele>1791</ele>
        <time>2022-07-17T00:42:36Z</time>
      </trkpt>
      <trkpt lat="45.74129" lon="6.60655">
        <ele>1790</ele>
        <time>2022-07-17T00:42:38Z</time>
      </trkpt>
      <trkpt lat="45.74131" lon="6.60656">
        <ele>1790</ele>
        <time>2022-07-17T00:42:40Z</time>
      </trkpt>
      <trkpt lat="45.74134" lon="6.60657">
        <ele>1790</ele>
        <time>2022-07-17T00:42:42Z</time>
      </trkpt>
      <trkpt lat="45.74136" lon="6.60657">
        <ele>1790</ele>
        <time>2022-07-17T00:42:44Z</time>
      </trkpt>
      <trkpt lat="45.74139" lon="6.60656">
        <ele>1789</ele>
        <time>2022-07-17T00:42:46Z</time>
      </trkpt>
      <trkpt lat="45.74142" lon="6.60657">
        <ele>1789</ele>
        <time>2022-07-17T00:42:48Z</time>
      </trkpt>
      <trkpt lat="45.74144" lon="6.60658">
        <ele>1788</ele>
        <time>2022-07-17T00:42:50Z</time>
      </trkpt>
      <trkpt lat="45.74147" lon="6.60658">
        <ele>1788</ele>
        <time>2022-07-17T00:42:52Z</time>
      </trkpt>
      <trkpt lat="45.74149" lon="6.60658">
        <ele>1788</ele>
        <time>2022-07-17T00:42:54Z</time>
      </trkpt>
      <trkpt lat="45.74151" lon="6.6066">
        <ele>1788</ele>
        <time>2022-07-17T00:42:56Z</time>
      </trkpt>
      <trkpt lat="45.74154" lon="6.60661">
        <ele>1788</ele>
        <time>2022-07-17T00:42:58Z</time>
      </trkpt>
      <trkpt lat="45.74156" lon="6.6066">
        <ele>1788</ele>
        <time>2022-07-17T00:43:00Z</time>
      </trkpt>
      <trkpt lat="45.74158" lon="6.60659">
        <ele>1787</ele>
        <time>2022-07-17T00:43:02Z</time>
      </trkpt>
      <trkpt lat="45.74161" lon="6.60658">
        <ele>1787</ele>
        <time>2022-07-17T00:43:04Z</time>
      </trkpt>
      <trkpt lat="45.74163" lon="6.60658">
        <ele>1787</ele>
        <time>2022-07-17T00:43:06Z</time>
      </trkpt>
      <trkpt lat="45.74166" lon="6.60658">
        <ele>1787</ele>
        <time>2022-07-17T00:43:08Z</time>
      </trkpt>
      <trkpt lat="45.74168" lon="6.60657">
        <ele>1786</ele>
        <time>2022-07-17T00:43:10Z</time>
      </trkpt>
      <trkpt lat="45.74171" lon="6.60657">
        <ele>1786</ele>
        <time>2022-07-17T00:43:12Z</time>
      </trkpt>
      <trkpt lat="45.74174" lon="6.60656">
        <ele>1786</ele>
        <time>2022-07-17T00:43:14Z</time>
      </trkpt>
      <trkpt lat="45.74176" lon="6.60656">
        <ele>1785</ele>
        <time>2022-07-17T00:43:16Z</time>
      </trkpt>
      <trkpt lat="45.74178" lon="6.60655">
        <ele>1785</ele>
        <time>2022-07-17T00:43:18Z</time>
      </trkpt>
      <trkpt lat="45.74181" lon="6.60655">
        <ele>1785</ele>
        <time>2022-07-17T00:43:20Z</time>
      </trkpt>
      <trkpt lat="45.74183" lon="6.60655">
        <ele>1785</ele>
        <time>2022-07-17T00:43:22Z</time>
      </trkpt>
      <trkpt lat="45.74186" lon="6.60655">
        <ele>1784</ele>
        <time>2022-07-17T00:43:24Z</time>
      </trkpt>
      <trkpt lat="45.74189" lon="6.60655">
        <ele>1784</ele>
        <time>2022-07-17T00:43:26Z</time>
      </trkpt>
      <trkpt lat="45.74192" lon="6.60655">
        <ele>1784</ele>
        <time>2022-07-17T00:43:28Z</time>
      </trkpt>
      <trkpt lat="45.74195" lon="6.60655">
        <ele>1784</ele>
        <time>2022-07-17T00:43:30Z</time>
      </trkpt>
      <trkpt lat="45.74197" lon="6.60655">
        <ele>1783</ele>
        <time>2022-07-17T00:43:32Z</time>
      </trkpt>
      <trkpt lat="45.74201" lon="6.60655">
        <ele>1783</ele>
        <time>2022-07-17T00:43:34Z</time>
      </trkpt>
      <trkpt lat="45.74204" lon="6.60656">
        <ele>1783</ele>
        <time>2022-07-17T00:43:36Z</time>
      </trkpt>
      <trkpt lat="45.74206" lon="6.60657">
        <ele>1783</ele>
        <time>2022-07-17T00:43:38Z</time>
      </trkpt>
      <trkpt lat="45.74209" lon="6.60657">
        <ele>1783</ele>
        <time>2022-07-17T00:43:40Z</time>
      </trkpt>
      <trkpt lat="45.74212" lon="6.60658">
        <ele>1782</ele>
        <time>2022-07-17T00:43:42Z</time>
      </trkpt>
      <trkpt lat="45.74215" lon="6.60659">
        <ele>1782</ele>
        <time>2022-07-17T00:43:44Z</time>
      </trkpt>
      <trkpt lat="45.74218" lon="6.60661">
        <ele>1782</ele>
        <time>2022-07-17T00:43:46Z</time>
      </trkpt>
      <trkpt lat="45.74221" lon="6.60662">
        <ele>1782</ele>
        <time>2022-07-17T00:43:48Z</time>
      </trkpt>
      <trkpt lat="45.74223" lon="6.60662">
        <ele>1781</ele>
        <time>2022-07-17T00:43:50Z</time>
      </trkpt>
      <trkpt lat="45.74226" lon="6.60662">
        <ele>1781</ele>
        <time>2022-07-17T00:43:51Z</time>
      </trkpt>
      <trkpt lat="45.74229" lon="6.60663">
        <ele>1781</ele>
        <time>2022-07-17T00:43:54Z</time>
      </trkpt>
      <trkpt lat="45.74231" lon="6.60664">
        <ele>1780</ele>
        <time>2022-07-17T00:43:56Z</time>
      </trkpt>
      <trkpt lat="45.74234" lon="6.60665">
        <ele>1780</ele>
        <time>2022-07-17T00:43:58Z</time>
      </trkpt>
      <trkpt lat="45.74237" lon="6.60665">
        <ele>1780</ele>
        <time>2022-07-17T00:44:00Z</time>
      </trkpt>
      <trkpt lat="45.7424" lon="6.60666">
        <ele>1779</ele>
        <time>2022-07-17T00:44:02Z</time>
      </trkpt>
      <trkpt lat="45.74242" lon="6.60667">
        <ele>1779</ele>
        <time>2022-07-17T00:44:04Z</time>
      </trkpt>
      <trkpt lat="45.74245" lon="6.60668">
        <ele>1779</ele>
        <time>2022-07-17T00:44:06Z</time>
      </trkpt>
      <trkpt lat="45.74247" lon="6.60668">
        <ele>1778</ele>
        <time>2022-07-17T00:44:08Z</time>
      </trkpt>
      <trkpt lat="45.7425" lon="6.60669">
        <ele>1778</ele>
        <time>2022-07-17T00:44:10Z</time>
      </trkpt>
      <trkpt lat="45.74252" lon="6.6067">
        <ele>1778</ele>
        <time>2022-07-17T00:44:12Z</time>
      </trkpt>
      <trkpt lat="45.74255" lon="6.60671">
        <ele>1777</ele>
        <time>2022-07-17T00:44:14Z</time>
      </trkpt>
      <trkpt lat="45.74257" lon="6.60674">
        <ele>1777</ele>
        <time>2022-07-17T00:44:16Z</time>
      </trkpt>
      <trkpt lat="45.7426" lon="6.60676">
        <ele>1777</ele>
        <time>2022-07-17T00:44:18Z</time>
      </trkpt>
      <trkpt lat="45.74263" lon="6.60677">
        <ele>1777</ele>
        <time>2022-07-17T00:44:20Z</time>
      </trkpt>
      <trkpt lat="45.74265" lon="6.60679">
        <ele>1777</ele>
        <time>2022-07-17T00:44:22Z</time>
      </trkpt>
      <trkpt lat="45.74267" lon="6.6068">
        <ele>1777</ele>
        <time>2022-07-17T00:44:24Z</time>
      </trkpt>
      <trkpt lat="45.7427" lon="6.60681">
        <ele>1777</ele>
        <time>2022-07-17T00:44:26Z</time>
      </trkpt>
      <trkpt lat="45.74272" lon="6.60683">
        <ele>1776</ele>
        <time>2022-07-17T00:44:28Z</time>
      </trkpt>
      <trkpt lat="45.74275" lon="6.60684">
        <ele>1776</ele>
        <time>2022-07-17T00:44:29Z</time>
      </trkpt>
      <trkpt lat="45.74277" lon="6.60686">
        <ele>1776</ele>
        <time>2022-07-17T00:44:32Z</time>
      </trkpt>
      <trkpt lat="45.7428" lon="6.60687">
        <ele>1776</ele>
        <time>2022-07-17T00:44:34Z</time>
      </trkpt>
      <trkpt lat="45.74282" lon="6.60689">
        <ele>1776</ele>
        <time>2022-07-17T00:44:36Z</time>
      </trkpt>
      <trkpt lat="45.74284" lon="6.60691">
        <ele>1776</ele>
        <time>2022-07-17T00:44:38Z</time>
      </trkpt>
      <trkpt lat="45.74287" lon="6.60691">
        <ele>1775</ele>
        <time>2022-07-17T00:44:40Z</time>
      </trkpt>
      <trkpt lat="45.7429" lon="6.60692">
        <ele>1775</ele>
        <time>2022-07-17T00:44:42Z</time>
      </trkpt>
      <trkpt lat="45.74293" lon="6.60693">
        <ele>1774</ele>
        <time>2022-07-17T00:44:44Z</time>
      </trkpt>
      <trkpt lat="45.74295" lon="6.60694">
        <ele>1774</ele>
        <time>2022-07-17T00:44:45Z</time>
      </trkpt>
      <trkpt lat="45.74298" lon="6.60696">
        <ele>1774</ele>
        <time>2022-07-17T00:44:47Z</time>
      </trkpt>
      <trkpt lat="45.74302" lon="6.60698">
        <ele>1774</ele>
        <time>2022-07-17T00:44:49Z</time>
      </trkpt>
      <trkpt lat="45.74303" lon="6.60699">
        <ele>1774</ele>
        <time>2022-07-17T00:44:50Z</time>
      </trkpt>
      <trkpt lat="45.74305" lon="6.607">
        <ele>1773</ele>
        <time>2022-07-17T00:44:51Z</time>
      </trkpt>
      <trkpt lat="45.74307" lon="6.60701">
        <ele>1773</ele>
        <time>2022-07-17T00:44:52Z</time>
      </trkpt>
      <trkpt lat="45.74309" lon="6.60703">
        <ele>1773</ele>
        <time>2022-07-17T00:44:53Z</time>
      </trkpt>
      <trkpt lat="45.7431" lon="6.60704">
        <ele>1773</ele>
        <time>2022-07-17T00:44:54Z</time>
      </trkpt>
      <trkpt lat="45.74312" lon="6.60705">
        <ele>1773</ele>
        <time>2022-07-17T00:44:55Z</time>
      </trkpt>
      <trkpt lat="45.74314" lon="6.60707">
        <ele>1773</ele>
        <time>2022-07-17T00:44:56Z</time>
      </trkpt>
      <trkpt lat="45.74315" lon="6.60708">
        <ele>1773</ele>
        <time>2022-07-17T00:44:57Z</time>
      </trkpt>
      <trkpt lat="45.74317" lon="6.60709">
        <ele>1773</ele>
        <time>2022-07-17T00:44:58Z</time>
      </trkpt>
      <trkpt lat="45.74319" lon="6.60711">
        <ele>1773</ele>
        <time>2022-07-17T00:44:59Z</time>
      </trkpt>
      <trkpt lat="45.74321" lon="6.60712">
        <ele>1772</ele>
        <time>2022-07-17T00:45:00Z</time>
      </trkpt>
      <trkpt lat="45.74324" lon="6.60714">
        <ele>1772</ele>
        <time>2022-07-17T00:45:01Z</time>
      </trkpt>
      <trkpt lat="45.74325" lon="6.60715">
        <ele>1771</ele>
        <time>2022-07-17T00:45:03Z</time>
      </trkpt>
      <trkpt lat="45.74328" lon="6.60718">
        <ele>1770</ele>
        <time>2022-07-17T00:45:05Z</time>
      </trkpt>
      <trkpt lat="45.7433" lon="6.6072">
        <ele>1770</ele>
        <time>2022-07-17T00:45:06Z</time>
      </trkpt>
      <trkpt lat="45.74333" lon="6.60722">
        <ele>1769</ele>
        <time>2022-07-17T00:45:07Z</time>
      </trkpt>
      <trkpt lat="45.74337" lon="6.60724">
        <ele>1769</ele>
        <time>2022-07-17T00:45:10Z</time>
      </trkpt>
      <trkpt lat="45.74339" lon="6.60725">
        <ele>1768</ele>
        <time>2022-07-17T00:45:12Z</time>
      </trkpt>
      <trkpt lat="45.74342" lon="6.60727">
        <ele>1768</ele>
        <time>2022-07-17T00:45:14Z</time>
      </trkpt>
      <trkpt lat="45.74345" lon="6.6073">
        <ele>1768</ele>
        <time>2022-07-17T00:45:16Z</time>
      </trkpt>
      <trkpt lat="45.74347" lon="6.60732">
        <ele>1768</ele>
        <time>2022-07-17T00:45:18Z</time>
      </trkpt>
      <trkpt lat="45.74349" lon="6.60735">
        <ele>1767</ele>
        <time>2022-07-17T00:45:20Z</time>
      </trkpt>
      <trkpt lat="45.74351" lon="6.60739">
        <ele>1767</ele>
        <time>2022-07-17T00:45:22Z</time>
      </trkpt>
      <trkpt lat="45.74354" lon="6.60741">
        <ele>1767</ele>
        <time>2022-07-17T00:45:24Z</time>
      </trkpt>
      <trkpt lat="45.74356" lon="6.60743">
        <ele>1767</ele>
        <time>2022-07-17T00:45:26Z</time>
      </trkpt>
      <trkpt lat="45.74359" lon="6.60746">
        <ele>1766</ele>
        <time>2022-07-17T00:45:28Z</time>
      </trkpt>
      <trkpt lat="45.74361" lon="6.60748">
        <ele>1764</ele>
        <time>2022-07-17T00:45:30Z</time>
      </trkpt>
      <trkpt lat="45.74363" lon="6.60751">
        <ele>1764</ele>
        <time>2022-07-17T00:45:32Z</time>
      </trkpt>
      <trkpt lat="45.74365" lon="6.60752">
        <ele>1764</ele>
        <time>2022-07-17T00:45:34Z</time>
      </trkpt>
      <trkpt lat="45.74367" lon="6.60754">
        <ele>1764</ele>
        <time>2022-07-17T00:45:36Z</time>
      </trkpt>
      <trkpt lat="45.7437" lon="6.60756">
        <ele>1764</ele>
        <time>2022-07-17T00:45:38Z</time>
      </trkpt>
      <trkpt lat="45.74372" lon="6.60757">
        <ele>1764</ele>
        <time>2022-07-17T00:45:40Z</time>
      </trkpt>
      <trkpt lat="45.74374" lon="6.6076">
        <ele>1763</ele>
        <time>2022-07-17T00:45:42Z</time>
      </trkpt>
      <trkpt lat="45.74376" lon="6.60762">
        <ele>1762</ele>
        <time>2022-07-17T00:45:44Z</time>
      </trkpt>
      <trkpt lat="45.74378" lon="6.60764">
        <ele>1762</ele>
        <time>2022-07-17T00:45:48Z</time>
      </trkpt>
      <trkpt lat="45.74381" lon="6.60765">
        <ele>1762</ele>
        <time>2022-07-17T00:45:50Z</time>
      </trkpt>
      <trkpt lat="45.74383" lon="6.60766">
        <ele>1762</ele>
        <time>2022-07-17T00:45:52Z</time>
      </trkpt>
      <trkpt lat="45.74385" lon="6.60767">
        <ele>1761</ele>
        <time>2022-07-17T00:45:54Z</time>
      </trkpt>
      <trkpt lat="45.74388" lon="6.60768">
        <ele>1761</ele>
        <time>2022-07-17T00:45:56Z</time>
      </trkpt>
      <trkpt lat="45.7439" lon="6.60769">
        <ele>1761</ele>
        <time>2022-07-17T00:45:58Z</time>
      </trkpt>
      <trkpt lat="45.74392" lon="6.6077">
        <ele>1761</ele>
        <time>2022-07-17T00:46:00Z</time>
      </trkpt>
      <trkpt lat="45.74394" lon="6.60771">
        <ele>1760</ele>
        <time>2022-07-17T00:46:02Z</time>
      </trkpt>
      <trkpt lat="45.74396" lon="6.60773">
        <ele>1759</ele>
        <time>2022-07-17T00:46:04Z</time>
      </trkpt>
      <trkpt lat="45.74398" lon="6.60774">
        <ele>1759</ele>
        <time>2022-07-17T00:46:06Z</time>
      </trkpt>
      <trkpt lat="45.74401" lon="6.60774">
        <ele>1759</ele>
        <time>2022-07-17T00:46:08Z</time>
      </trkpt>
      <trkpt lat="45.74403" lon="6.60774">
        <ele>1759</ele>
        <time>2022-07-17T00:46:10Z</time>
      </trkpt>
      <trkpt lat="45.74405" lon="6.60775">
        <ele>1759</ele>
        <time>2022-07-17T00:46:12Z</time>
      </trkpt>
      <trkpt lat="45.74407" lon="6.60777">
        <ele>1759</ele>
        <time>2022-07-17T00:46:14Z</time>
      </trkpt>
      <trkpt lat="45.74409" lon="6.60779">
        <ele>1759</ele>
        <time>2022-07-17T00:46:16Z</time>
      </trkpt>
      <trkpt lat="45.74411" lon="6.60781">
        <ele>1759</ele>
        <time>2022-07-17T00:46:18Z</time>
      </trkpt>
      <trkpt lat="45.74414" lon="6.60784">
        <ele>1758</ele>
        <time>2022-07-17T00:46:20Z</time>
      </trkpt>
      <trkpt lat="45.74417" lon="6.60787">
        <ele>1758</ele>
        <time>2022-07-17T00:46:22Z</time>
      </trkpt>
      <trkpt lat="45.7442" lon="6.6079">
        <ele>1758</ele>
        <time>2022-07-17T00:46:24Z</time>
      </trkpt>
      <trkpt lat="45.74422" lon="6.60792">
        <ele>1757</ele>
        <time>2022-07-17T00:46:26Z</time>
      </trkpt>
      <trkpt lat="45.74425" lon="6.60794">
        <ele>1757</ele>
        <time>2022-07-17T00:46:28Z</time>
      </trkpt>
      <trkpt lat="45.74428" lon="6.60796">
        <ele>1756</ele>
        <time>2022-07-17T00:46:30Z</time>
      </trkpt>
      <trkpt lat="45.7443" lon="6.60799">
        <ele>1756</ele>
        <time>2022-07-17T00:46:32Z</time>
      </trkpt>
      <trkpt lat="45.74432" lon="6.60802">
        <ele>1756</ele>
        <time>2022-07-17T00:46:34Z</time>
      </trkpt>
      <trkpt lat="45.74434" lon="6.60806">
        <ele>1756</ele>
        <time>2022-07-17T00:46:36Z</time>
      </trkpt>
      <trkpt lat="45.74436" lon="6.6081">
        <ele>1755</ele>
        <time>2022-07-17T00:46:38Z</time>
      </trkpt>
      <trkpt lat="45.74438" lon="6.60813">
        <ele>1755</ele>
        <time>2022-07-17T00:46:40Z</time>
      </trkpt>
      <trkpt lat="45.7444" lon="6.60816">
        <ele>1754</ele>
        <time>2022-07-17T00:46:42Z</time>
      </trkpt>
      <trkpt lat="45.74441" lon="6.6082">
        <ele>1754</ele>
        <time>2022-07-17T00:46:44Z</time>
      </trkpt>
      <trkpt lat="45.74443" lon="6.60823">
        <ele>1753</ele>
        <time>2022-07-17T00:46:46Z</time>
      </trkpt>
      <trkpt lat="45.74446" lon="6.60825">
        <ele>1753</ele>
        <time>2022-07-17T00:46:48Z</time>
      </trkpt>
      <trkpt lat="45.74448" lon="6.60828">
        <ele>1753</ele>
        <time>2022-07-17T00:46:50Z</time>
      </trkpt>
      <trkpt lat="45.7445" lon="6.60829">
        <ele>1753</ele>
        <time>2022-07-17T00:46:52Z</time>
      </trkpt>
      <trkpt lat="45.74452" lon="6.60831">
        <ele>1753</ele>
        <time>2022-07-17T00:46:54Z</time>
      </trkpt>
      <trkpt lat="45.74454" lon="6.60832">
        <ele>1753</ele>
        <time>2022-07-17T00:46:56Z</time>
      </trkpt>
      <trkpt lat="45.74456" lon="6.60835">
        <ele>1752</ele>
        <time>2022-07-17T00:46:58Z</time>
      </trkpt>
      <trkpt lat="45.74457" lon="6.60837">
        <ele>1752</ele>
        <time>2022-07-17T00:47:00Z</time>
      </trkpt>
      <trkpt lat="45.7446" lon="6.60839">
        <ele>1752</ele>
        <time>2022-07-17T00:47:01Z</time>
      </trkpt>
      <trkpt lat="45.74462" lon="6.60842">
        <ele>1751</ele>
        <time>2022-07-17T00:47:04Z</time>
      </trkpt>
      <trkpt lat="45.74463" lon="6.60845">
        <ele>1751</ele>
        <time>2022-07-17T00:47:06Z</time>
      </trkpt>
      <trkpt lat="45.74465" lon="6.60848">
        <ele>1751</ele>
        <time>2022-07-17T00:47:08Z</time>
      </trkpt>
      <trkpt lat="45.74467" lon="6.6085">
        <ele>1751</ele>
        <time>2022-07-17T00:47:10Z</time>
      </trkpt>
      <trkpt lat="45.74469" lon="6.60851">
        <ele>1750</ele>
        <time>2022-07-17T00:47:12Z</time>
      </trkpt>
      <trkpt lat="45.74471" lon="6.60855">
        <ele>1750</ele>
        <time>2022-07-17T00:47:14Z</time>
      </trkpt>
      <trkpt lat="45.74472" lon="6.60858">
        <ele>1750</ele>
        <time>2022-07-17T00:47:16Z</time>
      </trkpt>
      <trkpt lat="45.74474" lon="6.6086">
        <ele>1750</ele>
        <time>2022-07-17T00:47:18Z</time>
      </trkpt>
      <trkpt lat="45.74476" lon="6.60863">
        <ele>1750</ele>
        <time>2022-07-17T00:47:20Z</time>
      </trkpt>
      <trkpt lat="45.74479" lon="6.60866">
        <ele>1749</ele>
        <time>2022-07-17T00:47:22Z</time>
      </trkpt>
      <trkpt lat="45.74481" lon="6.60868">
        <ele>1748</ele>
        <time>2022-07-17T00:47:24Z</time>
      </trkpt>
      <trkpt lat="45.74483" lon="6.60871">
        <ele>1748</ele>
        <time>2022-07-17T00:47:26Z</time>
      </trkpt>
      <trkpt lat="45.74484" lon="6.60873">
        <ele>1748</ele>
        <time>2022-07-17T00:47:28Z</time>
      </trkpt>
      <trkpt lat="45.74486" lon="6.60875">
        <ele>1747</ele>
        <time>2022-07-17T00:47:30Z</time>
      </trkpt>
      <trkpt lat="45.74489" lon="6.60877">
        <ele>1747</ele>
        <time>2022-07-17T00:47:32Z</time>
      </trkpt>
      <trkpt lat="45.74491" lon="6.6088">
        <ele>1747</ele>
        <time>2022-07-17T00:47:34Z</time>
      </trkpt>
      <trkpt lat="45.74493" lon="6.60882">
        <ele>1747</ele>
        <time>2022-07-17T00:47:36Z</time>
      </trkpt>
      <trkpt lat="45.74495" lon="6.60885">
        <ele>1746</ele>
        <time>2022-07-17T00:47:38Z</time>
      </trkpt>
      <trkpt lat="45.74497" lon="6.60888">
        <ele>1746</ele>
        <time>2022-07-17T00:47:39Z</time>
      </trkpt>
      <trkpt lat="45.74499" lon="6.60891">
        <ele>1746</ele>
        <time>2022-07-17T00:47:42Z</time>
      </trkpt>
      <trkpt lat="45.74501" lon="6.60893">
        <ele>1745</ele>
        <time>2022-07-17T00:47:44Z</time>
      </trkpt>
      <trkpt lat="45.74502" lon="6.60896">
        <ele>1745</ele>
        <time>2022-07-17T00:47:46Z</time>
      </trkpt>
      <trkpt lat="45.74504" lon="6.60899">
        <ele>1745</ele>
        <time>2022-07-17T00:47:48Z</time>
      </trkpt>
      <trkpt lat="45.74506" lon="6.60902">
        <ele>1744</ele>
        <time>2022-07-17T00:47:50Z</time>
      </trkpt>
      <trkpt lat="45.74508" lon="6.60904">
        <ele>1744</ele>
        <time>2022-07-17T00:47:52Z</time>
      </trkpt>
      <trkpt lat="45.7451" lon="6.60904">
        <ele>1744</ele>
        <time>2022-07-17T00:47:55Z</time>
      </trkpt>
      <trkpt lat="45.74509" lon="6.60901">
        <ele>1743</ele>
        <time>2022-07-17T00:48:00Z</time>
      </trkpt>
      <trkpt lat="45.74509" lon="6.60898">
        <ele>1742</ele>
        <time>2022-07-17T00:48:03Z</time>
      </trkpt>
      <trkpt lat="45.74509" lon="6.60895">
        <ele>1741</ele>
        <time>2022-07-17T00:48:06Z</time>
      </trkpt>
      <trkpt lat="45.74509" lon="6.60892">
        <ele>1740</ele>
        <time>2022-07-17T00:48:08Z</time>
      </trkpt>
      <trkpt lat="45.74508" lon="6.60889">
        <ele>1740</ele>
        <time>2022-07-17T00:48:10Z</time>
      </trkpt>
      <trkpt lat="45.74507" lon="6.60886">
        <ele>1739</ele>
        <time>2022-07-17T00:48:12Z</time>
      </trkpt>
      <trkpt lat="45.74506" lon="6.60883">
        <ele>1738</ele>
        <time>2022-07-17T00:48:14Z</time>
      </trkpt>
      <trkpt lat="45.74505" lon="6.60881">
        <ele>1739</ele>
        <time>2022-07-17T00:48:17Z</time>
      </trkpt>
      <trkpt lat="45.74503" lon="6.60878">
        <ele>1739</ele>
        <time>2022-07-17T00:48:20Z</time>
      </trkpt>
      <trkpt lat="45.74501" lon="6.60875">
        <ele>1738</ele>
        <time>2022-07-17T00:48:22Z</time>
      </trkpt>
      <trkpt lat="45.745" lon="6.60871">
        <ele>1738</ele>
        <time>2022-07-17T00:48:24Z</time>
      </trkpt>
      <trkpt lat="45.74498" lon="6.60867">
        <ele>1737</ele>
        <time>2022-07-17T00:48:26Z</time>
      </trkpt>
      <trkpt lat="45.74496" lon="6.60863">
        <ele>1737</ele>
        <time>2022-07-17T00:48:28Z</time>
      </trkpt>
      <trkpt lat="45.74495" lon="6.6086">
        <ele>1736</ele>
        <time>2022-07-17T00:48:30Z</time>
      </trkpt>
      <trkpt lat="45.74494" lon="6.60856">
        <ele>1736</ele>
        <time>2022-07-17T00:48:32Z</time>
      </trkpt>
      <trkpt lat="45.74492" lon="6.60851">
        <ele>1735</ele>
        <time>2022-07-17T00:48:34Z</time>
      </trkpt>
      <trkpt lat="45.74492" lon="6.60847">
        <ele>1735</ele>
        <time>2022-07-17T00:48:36Z</time>
      </trkpt>
      <trkpt lat="45.74491" lon="6.60843">
        <ele>1735</ele>
        <time>2022-07-17T00:48:38Z</time>
      </trkpt>
      <trkpt lat="45.7449" lon="6.6084">
        <ele>1734</ele>
        <time>2022-07-17T00:48:40Z</time>
      </trkpt>
      <trkpt lat="45.74489" lon="6.60836">
        <ele>1734</ele>
        <time>2022-07-17T00:48:42Z</time>
      </trkpt>
      <trkpt lat="45.74488" lon="6.60833">
        <ele>1733</ele>
        <time>2022-07-17T00:48:44Z</time>
      </trkpt>
      <trkpt lat="45.74487" lon="6.6083">
        <ele>1733</ele>
        <time>2022-07-17T00:48:46Z</time>
      </trkpt>
      <trkpt lat="45.74486" lon="6.60827">
        <ele>1732</ele>
        <time>2022-07-17T00:48:48Z</time>
      </trkpt>
      <trkpt lat="45.74486" lon="6.60824">
        <ele>1732</ele>
        <time>2022-07-17T00:48:50Z</time>
      </trkpt>
      <trkpt lat="45.74485" lon="6.60821">
        <ele>1732</ele>
        <time>2022-07-17T00:48:52Z</time>
      </trkpt>
      <trkpt lat="45.74484" lon="6.60818">
        <ele>1731</ele>
        <time>2022-07-17T00:48:54Z</time>
      </trkpt>
      <trkpt lat="45.74484" lon="6.60816">
        <ele>1731</ele>
        <time>2022-07-17T00:48:56Z</time>
      </trkpt>
      <trkpt lat="45.74483" lon="6.60812">
        <ele>1730</ele>
        <time>2022-07-17T00:48:59Z</time>
      </trkpt>
      <trkpt lat="45.74483" lon="6.60809">
        <ele>1729</ele>
        <time>2022-07-17T00:49:01Z</time>
      </trkpt>
      <trkpt lat="45.74482" lon="6.60805">
        <ele>1728</ele>
        <time>2022-07-17T00:49:04Z</time>
      </trkpt>
      <trkpt lat="45.74481" lon="6.60802">
        <ele>1728</ele>
        <time>2022-07-17T00:49:06Z</time>
      </trkpt>
      <trkpt lat="45.74481" lon="6.60799">
        <ele>1728</ele>
        <time>2022-07-17T00:49:09Z</time>
      </trkpt>
      <trkpt lat="45.74481" lon="6.60797">
        <ele>1728</ele>
        <time>2022-07-17T00:49:12Z</time>
      </trkpt>
      <trkpt lat="45.74481" lon="6.60794">
        <ele>1728</ele>
        <time>2022-07-17T00:49:15Z</time>
      </trkpt>
      <trkpt lat="45.7448" lon="6.60791">
        <ele>1727</ele>
        <time>2022-07-17T00:49:17Z</time>
      </trkpt>
      <trkpt lat="45.7448" lon="6.60788">
        <ele>1727</ele>
        <time>2022-07-17T00:49:20Z</time>
      </trkpt>
      <trkpt lat="45.74478" lon="6.60786">
        <ele>1727</ele>
        <time>2022-07-17T00:49:22Z</time>
      </trkpt>
      <trkpt lat="45.74477" lon="6.60783">
        <ele>1726</ele>
        <time>2022-07-17T00:49:24Z</time>
      </trkpt>
      <trkpt lat="45.74476" lon="6.6078">
        <ele>1726</ele>
        <time>2022-07-17T00:49:26Z</time>
      </trkpt>
      <trkpt lat="45.74474" lon="6.60777">
        <ele>1726</ele>
        <time>2022-07-17T00:49:28Z</time>
      </trkpt>
      <trkpt lat="45.74473" lon="6.60774">
        <ele>1726</ele>
        <time>2022-07-17T00:49:30Z</time>
      </trkpt>
      <trkpt lat="45.74472" lon="6.60771">
        <ele>1726</ele>
        <time>2022-07-17T00:49:32Z</time>
      </trkpt>
      <trkpt lat="45.74472" lon="6.60768">
        <ele>1725</ele>
        <time>2022-07-17T00:49:34Z</time>
      </trkpt>
      <trkpt lat="45.74471" lon="6.60765">
        <ele>1723</ele>
        <time>2022-07-17T00:49:36Z</time>
      </trkpt>
      <trkpt lat="45.7447" lon="6.60762">
        <ele>1723</ele>
        <time>2022-07-17T00:49:38Z</time>
      </trkpt>
      <trkpt lat="45.74468" lon="6.60759">
        <ele>1723</ele>
        <time>2022-07-17T00:49:40Z</time>
      </trkpt>
      <trkpt lat="45.74467" lon="6.60757">
        <ele>1723</ele>
        <time>2022-07-17T00:49:42Z</time>
      </trkpt>
      <trkpt lat="45.74466" lon="6.60754">
        <ele>1722</ele>
        <time>2022-07-17T00:49:44Z</time>
      </trkpt>
      <trkpt lat="45.74465" lon="6.60751">
        <ele>1722</ele>
        <time>2022-07-17T00:49:46Z</time>
      </trkpt>
      <trkpt lat="45.74464" lon="6.60748">
        <ele>1721</ele>
        <time>2022-07-17T00:49:48Z</time>
      </trkpt>
      <trkpt lat="45.74464" lon="6.60744">
        <ele>1721</ele>
        <time>2022-07-17T00:49:51Z</time>
      </trkpt>
      <trkpt lat="45.74467" lon="6.60743">
        <ele>1720</ele>
        <time>2022-07-17T00:49:54Z</time>
      </trkpt>
      <trkpt lat="45.74469" lon="6.60743">
        <ele>1720</ele>
        <time>2022-07-17T00:49:56Z</time>
      </trkpt>
      <trkpt lat="45.74471" lon="6.60742">
        <ele>1720</ele>
        <time>2022-07-17T00:49:58Z</time>
      </trkpt>
      <trkpt lat="45.74473" lon="6.60743">
        <ele>1719</ele>
        <time>2022-07-17T00:50:00Z</time>
      </trkpt>
      <trkpt lat="45.74475" lon="6.60744">
        <ele>1719</ele>
        <time>2022-07-17T00:50:02Z</time>
      </trkpt>
      <trkpt lat="45.74476" lon="6.60745">
        <ele>1719</ele>
        <time>2022-07-17T00:50:04Z</time>
      </trkpt>
      <trkpt lat="45.74479" lon="6.60746">
        <ele>1718</ele>
        <time>2022-07-17T00:50:07Z</time>
      </trkpt>
      <trkpt lat="45.74481" lon="6.60746">
        <ele>1718</ele>
        <time>2022-07-17T00:50:09Z</time>
      </trkpt>
      <trkpt lat="45.74484" lon="6.60746">
        <ele>1717</ele>
        <time>2022-07-17T00:50:12Z</time>
      </trkpt>
      <trkpt lat="45.74486" lon="6.60748">
        <ele>1715</ele>
        <time>2022-07-17T00:50:14Z</time>
      </trkpt>
      <trkpt lat="45.74488" lon="6.6075">
        <ele>1715</ele>
        <time>2022-07-17T00:50:16Z</time>
      </trkpt>
      <trkpt lat="45.7449" lon="6.60751">
        <ele>1715</ele>
        <time>2022-07-17T00:50:18Z</time>
      </trkpt>
      <trkpt lat="45.74492" lon="6.60753">
        <ele>1714</ele>
        <time>2022-07-17T00:50:20Z</time>
      </trkpt>
      <trkpt lat="45.74494" lon="6.60755">
        <ele>1713</ele>
        <time>2022-07-17T00:50:22Z</time>
      </trkpt>
      <trkpt lat="45.74496" lon="6.60757">
        <ele>1713</ele>
        <time>2022-07-17T00:50:25Z</time>
      </trkpt>
      <trkpt lat="45.74498" lon="6.60758">
        <ele>1713</ele>
        <time>2022-07-17T00:50:27Z</time>
      </trkpt>
      <trkpt lat="45.745" lon="6.60759">
        <ele>1712</ele>
        <time>2022-07-17T00:50:29Z</time>
      </trkpt>
      <trkpt lat="45.74502" lon="6.60761">
        <ele>1712</ele>
        <time>2022-07-17T00:50:31Z</time>
      </trkpt>
      <trkpt lat="45.74504" lon="6.60763">
        <ele>1710</ele>
        <time>2022-07-17T00:50:33Z</time>
      </trkpt>
      <trkpt lat="45.74506" lon="6.60764">
        <ele>1710</ele>
        <time>2022-07-17T00:50:35Z</time>
      </trkpt>
      <trkpt lat="45.74508" lon="6.60765">
        <ele>1710</ele>
        <time>2022-07-17T00:50:37Z</time>
      </trkpt>
      <trkpt lat="45.74511" lon="6.60766">
        <ele>1710</ele>
        <time>2022-07-17T00:50:40Z</time>
      </trkpt>
      <trkpt lat="45.74513" lon="6.60767">
        <ele>1710</ele>
        <time>2022-07-17T00:50:42Z</time>
      </trkpt>
      <trkpt lat="45.74516" lon="6.60769">
        <ele>1709</ele>
        <time>2022-07-17T00:50:44Z</time>
      </trkpt>
      <trkpt lat="45.74518" lon="6.60771">
        <ele>1709</ele>
        <time>2022-07-17T00:50:46Z</time>
      </trkpt>
      <trkpt lat="45.74519" lon="6.60775">
        <ele>1709</ele>
        <time>2022-07-17T00:50:48Z</time>
      </trkpt>
      <trkpt lat="45.74519" lon="6.60779">
        <ele>1709</ele>
        <time>2022-07-17T00:50:50Z</time>
      </trkpt>
      <trkpt lat="45.7452" lon="6.60781">
        <ele>1709</ele>
        <time>2022-07-17T00:50:52Z</time>
      </trkpt>
      <trkpt lat="45.74522" lon="6.60784">
        <ele>1709</ele>
        <time>2022-07-17T00:50:55Z</time>
      </trkpt>
      <trkpt lat="45.74523" lon="6.60788">
        <ele>1709</ele>
        <time>2022-07-17T00:50:57Z</time>
      </trkpt>
      <trkpt lat="45.74525" lon="6.60791">
        <ele>1709</ele>
        <time>2022-07-17T00:51:00Z</time>
      </trkpt>
      <trkpt lat="45.74526" lon="6.60793">
        <ele>1708</ele>
        <time>2022-07-17T00:51:02Z</time>
      </trkpt>
      <trkpt lat="45.74528" lon="6.60795">
        <ele>1708</ele>
        <time>2022-07-17T00:51:04Z</time>
      </trkpt>
      <trkpt lat="45.74529" lon="6.60797">
        <ele>1708</ele>
        <time>2022-07-17T00:51:07Z</time>
      </trkpt>
      <trkpt lat="45.74529" lon="6.60794">
        <ele>1706</ele>
        <time>2022-07-17T00:51:11Z</time>
      </trkpt>
      <trkpt lat="45.74527" lon="6.6079">
        <ele>1705</ele>
        <time>2022-07-17T00:51:14Z</time>
      </trkpt>
      <trkpt lat="45.74525" lon="6.60789">
        <ele>1705</ele>
        <time>2022-07-17T00:51:16Z</time>
      </trkpt>
      <trkpt lat="45.74522" lon="6.60786">
        <ele>1705</ele>
        <time>2022-07-17T00:51:18Z</time>
      </trkpt>
      <trkpt lat="45.7452" lon="6.60783">
        <ele>1705</ele>
        <time>2022-07-17T00:51:20Z</time>
      </trkpt>
      <trkpt lat="45.74518" lon="6.6078">
        <ele>1704</ele>
        <time>2022-07-17T00:51:22Z</time>
      </trkpt>
      <trkpt lat="45.74515" lon="6.60777">
        <ele>1704</ele>
        <time>2022-07-17T00:51:24Z</time>
      </trkpt>
      <trkpt lat="45.74512" lon="6.60775">
        <ele>1704</ele>
        <time>2022-07-17T00:51:26Z</time>
      </trkpt>
      <trkpt lat="45.7451" lon="6.60773">
        <ele>1704</ele>
        <time>2022-07-17T00:51:28Z</time>
      </trkpt>
      <trkpt lat="45.74508" lon="6.60769">
        <ele>1703</ele>
        <time>2022-07-17T00:51:30Z</time>
      </trkpt>
      <trkpt lat="45.74506" lon="6.60766">
        <ele>1703</ele>
        <time>2022-07-17T00:51:32Z</time>
      </trkpt>
      <trkpt lat="45.74505" lon="6.60762">
        <ele>1703</ele>
        <time>2022-07-17T00:51:34Z</time>
      </trkpt>
      <trkpt lat="45.74503" lon="6.60759">
        <ele>1703</ele>
        <time>2022-07-17T00:51:36Z</time>
      </trkpt>
      <trkpt lat="45.74501" lon="6.60756">
        <ele>1703</ele>
        <time>2022-07-17T00:51:38Z</time>
      </trkpt>
      <trkpt lat="45.74499" lon="6.60753">
        <ele>1703</ele>
        <time>2022-07-17T00:51:40Z</time>
      </trkpt>
      <trkpt lat="45.74498" lon="6.60749">
        <ele>1703</ele>
        <time>2022-07-17T00:51:42Z</time>
      </trkpt>
      <trkpt lat="45.74496" lon="6.60745">
        <ele>1703</ele>
        <time>2022-07-17T00:51:44Z</time>
      </trkpt>
      <trkpt lat="45.74495" lon="6.60742">
        <ele>1702</ele>
        <time>2022-07-17T00:51:46Z</time>
      </trkpt>
      <trkpt lat="45.74493" lon="6.6074">
        <ele>1702</ele>
        <time>2022-07-17T00:51:48Z</time>
      </trkpt>
      <trkpt lat="45.74491" lon="6.60737">
        <ele>1702</ele>
        <time>2022-07-17T00:51:50Z</time>
      </trkpt>
      <trkpt lat="45.74489" lon="6.60736">
        <ele>1702</ele>
        <time>2022-07-17T00:51:52Z</time>
      </trkpt>
      <trkpt lat="45.74487" lon="6.60734">
        <ele>1702</ele>
        <time>2022-07-17T00:51:54Z</time>
      </trkpt>
      <trkpt lat="45.74485" lon="6.60732">
        <ele>1702</ele>
        <time>2022-07-17T00:51:56Z</time>
      </trkpt>
      <trkpt lat="45.74483" lon="6.60728">
        <ele>1701</ele>
        <time>2022-07-17T00:51:58Z</time>
      </trkpt>
      <trkpt lat="45.74482" lon="6.60724">
        <ele>1701</ele>
        <time>2022-07-17T00:52:00Z</time>
      </trkpt>
      <trkpt lat="45.74482" lon="6.60719">
        <ele>1701</ele>
        <time>2022-07-17T00:52:02Z</time>
      </trkpt>
      <trkpt lat="45.74484" lon="6.60715">
        <ele>1700</ele>
        <time>2022-07-17T00:52:04Z</time>
      </trkpt>
      <trkpt lat="45.74485" lon="6.60713">
        <ele>1700</ele>
        <time>2022-07-17T00:52:05Z</time>
      </trkpt>
      <trkpt lat="45.74487" lon="6.60712">
        <ele>1700</ele>
        <time>2022-07-17T00:52:06Z</time>
      </trkpt>
      <trkpt lat="45.74489" lon="6.60711">
        <ele>1700</ele>
        <time>2022-07-17T00:52:07Z</time>
      </trkpt>
      <trkpt lat="45.74491" lon="6.60711">
        <ele>1699</ele>
        <time>2022-07-17T00:52:08Z</time>
      </trkpt>
      <trkpt lat="45.74494" lon="6.60712">
        <ele>1699</ele>
        <time>2022-07-17T00:52:10Z</time>
      </trkpt>
      <trkpt lat="45.74497" lon="6.60714">
        <ele>1699</ele>
        <time>2022-07-17T00:52:12Z</time>
      </trkpt>
      <trkpt lat="45.74499" lon="6.60716">
        <ele>1699</ele>
        <time>2022-07-17T00:52:13Z</time>
      </trkpt>
      <trkpt lat="45.74501" lon="6.60719">
        <ele>1699</ele>
        <time>2022-07-17T00:52:15Z</time>
      </trkpt>
      <trkpt lat="45.74503" lon="6.60724">
        <ele>1699</ele>
        <time>2022-07-17T00:52:17Z</time>
      </trkpt>
      <trkpt lat="45.74504" lon="6.60727">
        <ele>1698</ele>
        <time>2022-07-17T00:52:19Z</time>
      </trkpt>
      <trkpt lat="45.74506" lon="6.6073">
        <ele>1698</ele>
        <time>2022-07-17T00:52:21Z</time>
      </trkpt>
      <trkpt lat="45.74507" lon="6.60734">
        <ele>1698</ele>
        <time>2022-07-17T00:52:23Z</time>
      </trkpt>
      <trkpt lat="45.74509" lon="6.60736">
        <ele>1697</ele>
        <time>2022-07-17T00:52:25Z</time>
      </trkpt>
      <trkpt lat="45.74511" lon="6.60738">
        <ele>1697</ele>
        <time>2022-07-17T00:52:27Z</time>
      </trkpt>
      <trkpt lat="45.74513" lon="6.60741">
        <ele>1697</ele>
        <time>2022-07-17T00:52:29Z</time>
      </trkpt>
      <trkpt lat="45.74515" lon="6.60744">
        <ele>1696</ele>
        <time>2022-07-17T00:52:31Z</time>
      </trkpt>
      <trkpt lat="45.74516" lon="6.60747">
        <ele>1696</ele>
        <time>2022-07-17T00:52:33Z</time>
      </trkpt>
      <trkpt lat="45.74518" lon="6.60749">
        <ele>1696</ele>
        <time>2022-07-17T00:52:35Z</time>
      </trkpt>
      <trkpt lat="45.7452" lon="6.60752">
        <ele>1695</ele>
        <time>2022-07-17T00:52:37Z</time>
      </trkpt>
      <trkpt lat="45.74522" lon="6.60755">
        <ele>1695</ele>
        <time>2022-07-17T00:52:39Z</time>
      </trkpt>
      <trkpt lat="45.74524" lon="6.60758">
        <ele>1695</ele>
        <time>2022-07-17T00:52:41Z</time>
      </trkpt>
      <trkpt lat="45.74526" lon="6.6076">
        <ele>1695</ele>
        <time>2022-07-17T00:52:43Z</time>
      </trkpt>
      <trkpt lat="45.74528" lon="6.60762">
        <ele>1695</ele>
        <time>2022-07-17T00:52:45Z</time>
      </trkpt>
      <trkpt lat="45.7453" lon="6.60763">
        <ele>1694</ele>
        <time>2022-07-17T00:52:47Z</time>
      </trkpt>
      <trkpt lat="45.74532" lon="6.60766">
        <ele>1694</ele>
        <time>2022-07-17T00:52:49Z</time>
      </trkpt>
      <trkpt lat="45.74535" lon="6.60767">
        <ele>1694</ele>
        <time>2022-07-17T00:52:51Z</time>
      </trkpt>
      <trkpt lat="45.74537" lon="6.60768">
        <ele>1694</ele>
        <time>2022-07-17T00:52:53Z</time>
      </trkpt>
      <trkpt lat="45.7454" lon="6.60769">
        <ele>1693</ele>
        <time>2022-07-17T00:52:55Z</time>
      </trkpt>
      <trkpt lat="45.74543" lon="6.60771">
        <ele>1693</ele>
        <time>2022-07-17T00:52:57Z</time>
      </trkpt>
      <trkpt lat="45.74545" lon="6.60772">
        <ele>1693</ele>
        <time>2022-07-17T00:52:59Z</time>
      </trkpt>
      <trkpt lat="45.74547" lon="6.60773">
        <ele>1692</ele>
        <time>2022-07-17T00:53:01Z</time>
      </trkpt>
      <trkpt lat="45.7455" lon="6.60774">
        <ele>1692</ele>
        <time>2022-07-17T00:53:03Z</time>
      </trkpt>
      <trkpt lat="45.74552" lon="6.60776">
        <ele>1691</ele>
        <time>2022-07-17T00:53:05Z</time>
      </trkpt>
      <trkpt lat="45.74555" lon="6.60776">
        <ele>1691</ele>
        <time>2022-07-17T00:53:08Z</time>
      </trkpt>
      <trkpt lat="45.74557" lon="6.60778">
        <ele>1691</ele>
        <time>2022-07-17T00:53:10Z</time>
      </trkpt>
      <trkpt lat="45.7456" lon="6.60779">
        <ele>1690</ele>
        <time>2022-07-17T00:53:12Z</time>
      </trkpt>
      <trkpt lat="45.74562" lon="6.6078">
        <ele>1690</ele>
        <time>2022-07-17T00:53:14Z</time>
      </trkpt>
      <trkpt lat="45.74565" lon="6.60781">
        <ele>1689</ele>
        <time>2022-07-17T00:53:16Z</time>
      </trkpt>
      <trkpt lat="45.74568" lon="6.60783">
        <ele>1689</ele>
        <time>2022-07-17T00:53:18Z</time>
      </trkpt>
      <trkpt lat="45.74571" lon="6.60783">
        <ele>1689</ele>
        <time>2022-07-17T00:53:20Z</time>
      </trkpt>
      <trkpt lat="45.74574" lon="6.60784">
        <ele>1689</ele>
        <time>2022-07-17T00:53:22Z</time>
      </trkpt>
      <trkpt lat="45.74576" lon="6.60787">
        <ele>1688</ele>
        <time>2022-07-17T00:53:24Z</time>
      </trkpt>
      <trkpt lat="45.74579" lon="6.60789">
        <ele>1688</ele>
        <time>2022-07-17T00:53:26Z</time>
      </trkpt>
      <trkpt lat="45.74581" lon="6.60791">
        <ele>1688</ele>
        <time>2022-07-17T00:53:27Z</time>
      </trkpt>
      <trkpt lat="45.74582" lon="6.60793">
        <ele>1688</ele>
        <time>2022-07-17T00:53:28Z</time>
      </trkpt>
      <trkpt lat="45.74584" lon="6.60794">
        <ele>1688</ele>
        <time>2022-07-17T00:53:29Z</time>
      </trkpt>
      <trkpt lat="45.74586" lon="6.60797">
        <ele>1687</ele>
        <time>2022-07-17T00:53:31Z</time>
      </trkpt>
      <trkpt lat="45.74589" lon="6.60801">
        <ele>1687</ele>
        <time>2022-07-17T00:53:33Z</time>
      </trkpt>
      <trkpt lat="45.74591" lon="6.60805">
        <ele>1687</ele>
        <time>2022-07-17T00:53:35Z</time>
      </trkpt>
      <trkpt lat="45.74592" lon="6.60808">
        <ele>1687</ele>
        <time>2022-07-17T00:53:36Z</time>
      </trkpt>
      <trkpt lat="45.74593" lon="6.6081">
        <ele>1686</ele>
        <time>2022-07-17T00:53:37Z</time>
      </trkpt>
      <trkpt lat="45.74595" lon="6.60814">
        <ele>1686</ele>
        <time>2022-07-17T00:53:39Z</time>
      </trkpt>
      <trkpt lat="45.74597" lon="6.60815">
        <ele>1686</ele>
        <time>2022-07-17T00:53:40Z</time>
      </trkpt>
      <trkpt lat="45.74599" lon="6.60819">
        <ele>1685</ele>
        <time>2022-07-17T00:53:42Z</time>
      </trkpt>
      <trkpt lat="45.74601" lon="6.60822">
        <ele>1685</ele>
        <time>2022-07-17T00:53:44Z</time>
      </trkpt>
      <trkpt lat="45.74602" lon="6.60826">
        <ele>1684</ele>
        <time>2022-07-17T00:53:46Z</time>
      </trkpt>
      <trkpt lat="45.74604" lon="6.60828">
        <ele>1684</ele>
        <time>2022-07-17T00:53:47Z</time>
      </trkpt>
      <trkpt lat="45.74605" lon="6.60832">
        <ele>1684</ele>
        <time>2022-07-17T00:53:49Z</time>
      </trkpt>
      <trkpt lat="45.74606" lon="6.60834">
        <ele>1683</ele>
        <time>2022-07-17T00:53:51Z</time>
      </trkpt>
      <trkpt lat="45.74608" lon="6.60837">
        <ele>1683</ele>
        <time>2022-07-17T00:53:53Z</time>
      </trkpt>
      <trkpt lat="45.74606" lon="6.60834">
        <ele>1682</ele>
        <time>2022-07-17T00:54:00Z</time>
      </trkpt>
      <trkpt lat="45.74605" lon="6.60831">
        <ele>1680</ele>
        <time>2022-07-17T00:54:03Z</time>
      </trkpt>
      <trkpt lat="45.74605" lon="6.60827">
        <ele>1680</ele>
        <time>2022-07-17T00:54:05Z</time>
      </trkpt>
      <trkpt lat="45.74604" lon="6.60824">
        <ele>1679</ele>
        <time>2022-07-17T00:54:08Z</time>
      </trkpt>
      <trkpt lat="45.74605" lon="6.60821">
        <ele>1678</ele>
        <time>2022-07-17T00:54:10Z</time>
      </trkpt>
      <trkpt lat="45.74607" lon="6.6082">
        <ele>1678</ele>
        <time>2022-07-17T00:54:12Z</time>
      </trkpt>
      <trkpt lat="45.7461" lon="6.60821">
        <ele>1678</ele>
        <time>2022-07-17T00:54:14Z</time>
      </trkpt>
      <trkpt lat="45.74611" lon="6.60819">
        <ele>1674</ele>
        <time>2022-07-17T00:54:24Z</time>
      </trkpt>
      <trkpt lat="45.7461" lon="6.60816">
        <ele>1673</ele>
        <time>2022-07-17T00:54:27Z</time>
      </trkpt>
      <trkpt lat="45.74609" lon="6.60814">
        <ele>1672</ele>
        <time>2022-07-17T00:54:30Z</time>
      </trkpt>
      <trkpt lat="45.74608" lon="6.60811">
        <ele>1671</ele>
        <time>2022-07-17T00:54:32Z</time>
      </trkpt>
      <trkpt lat="45.74607" lon="6.60809">
        <ele>1670</ele>
        <time>2022-07-17T00:54:34Z</time>
      </trkpt>
      <trkpt lat="45.74606" lon="6.60805">
        <ele>1670</ele>
        <time>2022-07-17T00:54:36Z</time>
      </trkpt>
      <trkpt lat="45.74606" lon="6.60802">
        <ele>1670</ele>
        <time>2022-07-17T00:54:39Z</time>
      </trkpt>
      <trkpt lat="45.74607" lon="6.60799">
        <ele>1669</ele>
        <time>2022-07-17T00:54:41Z</time>
      </trkpt>
      <trkpt lat="45.74607" lon="6.60796">
        <ele>1669</ele>
        <time>2022-07-17T00:54:43Z</time>
      </trkpt>
      <trkpt lat="45.74605" lon="6.60793">
        <ele>1668</ele>
        <time>2022-07-17T00:54:46Z</time>
      </trkpt>
      <trkpt lat="45.74604" lon="6.60789">
        <ele>1667</ele>
        <time>2022-07-17T00:54:49Z</time>
      </trkpt>
      <trkpt lat="45.74605" lon="6.60786">
        <ele>1667</ele>
        <time>2022-07-17T00:54:51Z</time>
      </trkpt>
      <trkpt lat="45.74605" lon="6.60782">
        <ele>1666</ele>
        <time>2022-07-17T00:54:53Z</time>
      </trkpt>
      <trkpt lat="45.74604" lon="6.60779">
        <ele>1666</ele>
        <time>2022-07-17T00:54:55Z</time>
      </trkpt>
      <trkpt lat="45.74603" lon="6.60776">
        <ele>1665</ele>
        <time>2022-07-17T00:54:57Z</time>
      </trkpt>
      <trkpt lat="45.74601" lon="6.60774">
        <ele>1665</ele>
        <time>2022-07-17T00:54:59Z</time>
      </trkpt>
      <trkpt lat="45.74599" lon="6.60771">
        <ele>1664</ele>
        <time>2022-07-17T00:55:01Z</time>
      </trkpt>
      <trkpt lat="45.74598" lon="6.60767">
        <ele>1664</ele>
        <time>2022-07-17T00:55:03Z</time>
      </trkpt>
      <trkpt lat="45.74597" lon="6.60764">
        <ele>1664</ele>
        <time>2022-07-17T00:55:05Z</time>
      </trkpt>
      <trkpt lat="45.74596" lon="6.6076">
        <ele>1663</ele>
        <time>2022-07-17T00:55:08Z</time>
      </trkpt>
      <trkpt lat="45.74595" lon="6.60758">
        <ele>1662</ele>
        <time>2022-07-17T00:55:10Z</time>
      </trkpt>
      <trkpt lat="45.74594" lon="6.60754">
        <ele>1661</ele>
        <time>2022-07-17T00:55:12Z</time>
      </trkpt>
      <trkpt lat="45.74594" lon="6.60751">
        <ele>1661</ele>
        <time>2022-07-17T00:55:14Z</time>
      </trkpt>
      <trkpt lat="45.74592" lon="6.60749">
        <ele>1661</ele>
        <time>2022-07-17T00:55:15Z</time>
      </trkpt>
      <trkpt lat="45.74591" lon="6.60746">
        <ele>1660</ele>
        <time>2022-07-17T00:55:18Z</time>
      </trkpt>
      <trkpt lat="45.7459" lon="6.60744">
        <ele>1660</ele>
        <time>2022-07-17T00:55:20Z</time>
      </trkpt>
      <trkpt lat="45.74588" lon="6.60741">
        <ele>1660</ele>
        <time>2022-07-17T00:55:22Z</time>
      </trkpt>
      <trkpt lat="45.74587" lon="6.60738">
        <ele>1660</ele>
        <time>2022-07-17T00:55:24Z</time>
      </trkpt>
      <trkpt lat="45.74585" lon="6.60735">
        <ele>1658</ele>
        <time>2022-07-17T00:55:26Z</time>
      </trkpt>
      <trkpt lat="45.74584" lon="6.60732">
        <ele>1658</ele>
        <time>2022-07-17T00:55:28Z</time>
      </trkpt>
      <trkpt lat="45.74583" lon="6.60728">
        <ele>1658</ele>
        <time>2022-07-17T00:55:30Z</time>
      </trkpt>
      <trkpt lat="45.74583" lon="6.60724">
        <ele>1657</ele>
        <time>2022-07-17T00:55:32Z</time>
      </trkpt>
      <trkpt lat="45.74582" lon="6.6072">
        <ele>1657</ele>
        <time>2022-07-17T00:55:34Z</time>
      </trkpt>
      <trkpt lat="45.74582" lon="6.60717">
        <ele>1656</ele>
        <time>2022-07-17T00:55:36Z</time>
      </trkpt>
      <trkpt lat="45.74581" lon="6.60714">
        <ele>1655</ele>
        <time>2022-07-17T00:55:38Z</time>
      </trkpt>
      <trkpt lat="45.74581" lon="6.6071">
        <ele>1655</ele>
        <time>2022-07-17T00:55:40Z</time>
      </trkpt>
      <trkpt lat="45.74581" lon="6.60706">
        <ele>1655</ele>
        <time>2022-07-17T00:55:42Z</time>
      </trkpt>
      <trkpt lat="45.7458" lon="6.60703">
        <ele>1654</ele>
        <time>2022-07-17T00:55:44Z</time>
      </trkpt>
      <trkpt lat="45.7458" lon="6.60699">
        <ele>1653</ele>
        <time>2022-07-17T00:55:46Z</time>
      </trkpt>
      <trkpt lat="45.74579" lon="6.60696">
        <ele>1652</ele>
        <time>2022-07-17T00:55:48Z</time>
      </trkpt>
      <trkpt lat="45.74578" lon="6.60692">
        <ele>1652</ele>
        <time>2022-07-17T00:55:50Z</time>
      </trkpt>
      <trkpt lat="45.74578" lon="6.60689">
        <ele>1652</ele>
        <time>2022-07-17T00:55:52Z</time>
      </trkpt>
      <trkpt lat="45.74577" lon="6.60686">
        <ele>1652</ele>
        <time>2022-07-17T00:55:54Z</time>
      </trkpt>
      <trkpt lat="45.74577" lon="6.60683">
        <ele>1651</ele>
        <time>2022-07-17T00:55:56Z</time>
      </trkpt>
      <trkpt lat="45.74577" lon="6.6068">
        <ele>1651</ele>
        <time>2022-07-17T00:55:58Z</time>
      </trkpt>
      <trkpt lat="45.74577" lon="6.60677">
        <ele>1650</ele>
        <time>2022-07-17T00:56:00Z</time>
      </trkpt>
      <trkpt lat="45.74576" lon="6.60674">
        <ele>1650</ele>
        <time>2022-07-17T00:56:02Z</time>
      </trkpt>
      <trkpt lat="45.74575" lon="6.6067">
        <ele>1649</ele>
        <time>2022-07-17T00:56:04Z</time>
      </trkpt>
      <trkpt lat="45.74577" lon="6.60667">
        <ele>1649</ele>
        <time>2022-07-17T00:56:06Z</time>
      </trkpt>
      <trkpt lat="45.7458" lon="6.60667">
        <ele>1648</ele>
        <time>2022-07-17T00:56:08Z</time>
      </trkpt>
      <trkpt lat="45.74582" lon="6.60668">
        <ele>1647</ele>
        <time>2022-07-17T00:56:10Z</time>
      </trkpt>
      <trkpt lat="45.74584" lon="6.60669">
        <ele>1647</ele>
        <time>2022-07-17T00:56:12Z</time>
      </trkpt>
      <trkpt lat="45.74585" lon="6.60671">
        <ele>1647</ele>
        <time>2022-07-17T00:56:14Z</time>
      </trkpt>
      <trkpt lat="45.74587" lon="6.60672">
        <ele>1646</ele>
        <time>2022-07-17T00:56:16Z</time>
      </trkpt>
      <trkpt lat="45.74589" lon="6.60674">
        <ele>1646</ele>
        <time>2022-07-17T00:56:18Z</time>
      </trkpt>
      <trkpt lat="45.74591" lon="6.60674">
        <ele>1646</ele>
        <time>2022-07-17T00:56:21Z</time>
      </trkpt>
      <trkpt lat="45.74593" lon="6.60675">
        <ele>1645</ele>
        <time>2022-07-17T00:56:23Z</time>
      </trkpt>
      <trkpt lat="45.74595" lon="6.60677">
        <ele>1645</ele>
        <time>2022-07-17T00:56:25Z</time>
      </trkpt>
      <trkpt lat="45.74597" lon="6.60678">
        <ele>1644</ele>
        <time>2022-07-17T00:56:27Z</time>
      </trkpt>
      <trkpt lat="45.74598" lon="6.60681">
        <ele>1644</ele>
        <time>2022-07-17T00:56:29Z</time>
      </trkpt>
      <trkpt lat="45.746" lon="6.60683">
        <ele>1644</ele>
        <time>2022-07-17T00:56:31Z</time>
      </trkpt>
      <trkpt lat="45.74602" lon="6.60685">
        <ele>1642</ele>
        <time>2022-07-17T00:56:33Z</time>
      </trkpt>
      <trkpt lat="45.74604" lon="6.60687">
        <ele>1642</ele>
        <time>2022-07-17T00:56:35Z</time>
      </trkpt>
      <trkpt lat="45.74605" lon="6.60688">
        <ele>1642</ele>
        <time>2022-07-17T00:56:37Z</time>
      </trkpt>
      <trkpt lat="45.74607" lon="6.6069">
        <ele>1642</ele>
        <time>2022-07-17T00:56:39Z</time>
      </trkpt>
      <trkpt lat="45.74609" lon="6.60691">
        <ele>1641</ele>
        <time>2022-07-17T00:56:41Z</time>
      </trkpt>
      <trkpt lat="45.74611" lon="6.60692">
        <ele>1641</ele>
        <time>2022-07-17T00:56:43Z</time>
      </trkpt>
      <trkpt lat="45.74613" lon="6.60694">
        <ele>1641</ele>
        <time>2022-07-17T00:56:45Z</time>
      </trkpt>
      <trkpt lat="45.74615" lon="6.60695">
        <ele>1640</ele>
        <time>2022-07-17T00:56:47Z</time>
      </trkpt>
      <trkpt lat="45.74617" lon="6.60697">
        <ele>1640</ele>
        <time>2022-07-17T00:56:49Z</time>
      </trkpt>
      <trkpt lat="45.7462" lon="6.60698">
        <ele>1640</ele>
        <time>2022-07-17T00:56:52Z</time>
      </trkpt>
      <trkpt lat="45.74622" lon="6.607">
        <ele>1639</ele>
        <time>2022-07-17T00:56:54Z</time>
      </trkpt>
      <trkpt lat="45.74624" lon="6.60702">
        <ele>1639</ele>
        <time>2022-07-17T00:56:56Z</time>
      </trkpt>
      <trkpt lat="45.74626" lon="6.60704">
        <ele>1638</ele>
        <time>2022-07-17T00:56:58Z</time>
      </trkpt>
      <trkpt lat="45.74627" lon="6.60705">
        <ele>1638</ele>
        <time>2022-07-17T00:57:00Z</time>
      </trkpt>
      <trkpt lat="45.74629" lon="6.60708">
        <ele>1638</ele>
        <time>2022-07-17T00:57:02Z</time>
      </trkpt>
      <trkpt lat="45.74631" lon="6.6071">
        <ele>1638</ele>
        <time>2022-07-17T00:57:04Z</time>
      </trkpt>
      <trkpt lat="45.74634" lon="6.6071">
        <ele>1638</ele>
        <time>2022-07-17T00:57:06Z</time>
      </trkpt>
      <trkpt lat="45.74636" lon="6.6071">
        <ele>1638</ele>
        <time>2022-07-17T00:57:08Z</time>
      </trkpt>
      <trkpt lat="45.74639" lon="6.6071">
        <ele>1638</ele>
        <time>2022-07-17T00:57:10Z</time>
      </trkpt>
      <trkpt lat="45.74641" lon="6.60712">
        <ele>1636</ele>
        <time>2022-07-17T00:57:12Z</time>
      </trkpt>
      <trkpt lat="45.74643" lon="6.60714">
        <ele>1636</ele>
        <time>2022-07-17T00:57:14Z</time>
      </trkpt>
      <trkpt lat="45.74645" lon="6.60716">
        <ele>1636</ele>
        <time>2022-07-17T00:57:16Z</time>
      </trkpt>
      <trkpt lat="45.74647" lon="6.60717">
        <ele>1636</ele>
        <time>2022-07-17T00:57:18Z</time>
      </trkpt>
      <trkpt lat="45.74649" lon="6.60719">
        <ele>1636</ele>
        <time>2022-07-17T00:57:20Z</time>
      </trkpt>
      <trkpt lat="45.74651" lon="6.60719">
        <ele>1636</ele>
        <time>2022-07-17T00:57:23Z</time>
      </trkpt>
      <trkpt lat="45.74653" lon="6.60721">
        <ele>1636</ele>
        <time>2022-07-17T00:57:26Z</time>
      </trkpt>
      <trkpt lat="45.74655" lon="6.60722">
        <ele>1636</ele>
        <time>2022-07-17T00:57:28Z</time>
      </trkpt>
      <trkpt lat="45.74658" lon="6.60723">
        <ele>1635</ele>
        <time>2022-07-17T00:57:30Z</time>
      </trkpt>
      <trkpt lat="45.7466" lon="6.60725">
        <ele>1635</ele>
        <time>2022-07-17T00:57:32Z</time>
      </trkpt>
      <trkpt lat="45.74662" lon="6.60726">
        <ele>1635</ele>
        <time>2022-07-17T00:57:34Z</time>
      </trkpt>
      <trkpt lat="45.74665" lon="6.60728">
        <ele>1635</ele>
        <time>2022-07-17T00:57:36Z</time>
      </trkpt>
      <trkpt lat="45.74667" lon="6.60731">
        <ele>1634</ele>
        <time>2022-07-17T00:57:38Z</time>
      </trkpt>
      <trkpt lat="45.74669" lon="6.60733">
        <ele>1634</ele>
        <time>2022-07-17T00:57:40Z</time>
      </trkpt>
      <trkpt lat="45.74672" lon="6.60735">
        <ele>1634</ele>
        <time>2022-07-17T00:57:42Z</time>
      </trkpt>
      <trkpt lat="45.74673" lon="6.60737">
        <ele>1634</ele>
        <time>2022-07-17T00:57:44Z</time>
      </trkpt>
      <trkpt lat="45.74675" lon="6.60739">
        <ele>1633</ele>
        <time>2022-07-17T00:57:46Z</time>
      </trkpt>
      <trkpt lat="45.74678" lon="6.60741">
        <ele>1633</ele>
        <time>2022-07-17T00:57:48Z</time>
      </trkpt>
      <trkpt lat="45.7468" lon="6.60743">
        <ele>1631</ele>
        <time>2022-07-17T00:57:50Z</time>
      </trkpt>
      <trkpt lat="45.74683" lon="6.60745">
        <ele>1630</ele>
        <time>2022-07-17T00:57:52Z</time>
      </trkpt>
      <trkpt lat="45.74686" lon="6.60747">
        <ele>1630</ele>
        <time>2022-07-17T00:57:54Z</time>
      </trkpt>
      <trkpt lat="45.74688" lon="6.60748">
        <ele>1630</ele>
        <time>2022-07-17T00:57:56Z</time>
      </trkpt>
      <trkpt lat="45.7469" lon="6.60748">
        <ele>1630</ele>
        <time>2022-07-17T00:57:58Z</time>
      </trkpt>
      <trkpt lat="45.74692" lon="6.60749">
        <ele>1630</ele>
        <time>2022-07-17T00:58:00Z</time>
      </trkpt>
      <trkpt lat="45.74694" lon="6.60749">
        <ele>1630</ele>
        <time>2022-07-17T00:58:02Z</time>
      </trkpt>
      <trkpt lat="45.74696" lon="6.6075">
        <ele>1630</ele>
        <time>2022-07-17T00:58:04Z</time>
      </trkpt>
      <trkpt lat="45.74696" lon="6.60753">
        <ele>1629</ele>
        <time>2022-07-17T00:58:08Z</time>
      </trkpt>
      <trkpt lat="45.74694" lon="6.60753">
        <ele>1627</ele>
        <time>2022-07-17T00:58:13Z</time>
      </trkpt>
      <trkpt lat="45.74692" lon="6.60752">
        <ele>1625</ele>
        <time>2022-07-17T00:58:18Z</time>
      </trkpt>
      <trkpt lat="45.7469" lon="6.6075">
        <ele>1625</ele>
        <time>2022-07-17T00:58:21Z</time>
      </trkpt>
      <trkpt lat="45.7469" lon="6.60747">
        <ele>1624</ele>
        <time>2022-07-17T00:58:24Z</time>
      </trkpt>
      <trkpt lat="45.74688" lon="6.60744">
        <ele>1624</ele>
        <time>2022-07-17T00:58:26Z</time>
      </trkpt>
      <trkpt lat="45.74689" lon="6.60741">
        <ele>1623</ele>
        <time>2022-07-17T00:58:28Z</time>
      </trkpt>
      <trkpt lat="45.7469" lon="6.60738">
        <ele>1623</ele>
        <time>2022-07-17T00:58:29Z</time>
      </trkpt>
      <trkpt lat="45.74693" lon="6.60737">
        <ele>1622</ele>
        <time>2022-07-17T00:58:31Z</time>
      </trkpt>
      <trkpt lat="45.74695" lon="6.60736">
        <ele>1621</ele>
        <time>2022-07-17T00:58:33Z</time>
      </trkpt>
      <trkpt lat="45.74697" lon="6.60736">
        <ele>1621</ele>
        <time>2022-07-17T00:58:35Z</time>
      </trkpt>
      <trkpt lat="45.74697" lon="6.60734">
        <ele>1619</ele>
        <time>2022-07-17T00:58:40Z</time>
      </trkpt>
      <trkpt lat="45.74696" lon="6.60731">
        <ele>1619</ele>
        <time>2022-07-17T00:58:42Z</time>
      </trkpt>
      <trkpt lat="45.74695" lon="6.60729">
        <ele>1619</ele>
        <time>2022-07-17T00:58:44Z</time>
      </trkpt>
      <trkpt lat="45.74695" lon="6.60725">
        <ele>1619</ele>
        <time>2022-07-17T00:58:46Z</time>
      </trkpt>
      <trkpt lat="45.74694" lon="6.60722">
        <ele>1618</ele>
        <time>2022-07-17T00:58:48Z</time>
      </trkpt>
      <trkpt lat="45.74692" lon="6.60719">
        <ele>1618</ele>
        <time>2022-07-17T00:58:50Z</time>
      </trkpt>
      <trkpt lat="45.74691" lon="6.60715">
        <ele>1617</ele>
        <time>2022-07-17T00:58:52Z</time>
      </trkpt>
      <trkpt lat="45.7469" lon="6.60711">
        <ele>1617</ele>
        <time>2022-07-17T00:58:54Z</time>
      </trkpt>
      <trkpt lat="45.74688" lon="6.60708">
        <ele>1617</ele>
        <time>2022-07-17T00:58:56Z</time>
      </trkpt>
      <trkpt lat="45.74686" lon="6.60704">
        <ele>1617</ele>
        <time>2022-07-17T00:58:58Z</time>
      </trkpt>
      <trkpt lat="45.74685" lon="6.607">
        <ele>1616</ele>
        <time>2022-07-17T00:59:00Z</time>
      </trkpt>
      <trkpt lat="45.74683" lon="6.60696">
        <ele>1616</ele>
        <time>2022-07-17T00:59:02Z</time>
      </trkpt>
      <trkpt lat="45.74681" lon="6.60692">
        <ele>1616</ele>
        <time>2022-07-17T00:59:04Z</time>
      </trkpt>
      <trkpt lat="45.7468" lon="6.6069">
        <ele>1615</ele>
        <time>2022-07-17T00:59:06Z</time>
      </trkpt>
      <trkpt lat="45.74678" lon="6.60687">
        <ele>1615</ele>
        <time>2022-07-17T00:59:08Z</time>
      </trkpt>
      <trkpt lat="45.74677" lon="6.60683">
        <ele>1615</ele>
        <time>2022-07-17T00:59:10Z</time>
      </trkpt>
      <trkpt lat="45.74675" lon="6.60682">
        <ele>1615</ele>
        <time>2022-07-17T00:59:11Z</time>
      </trkpt>
      <trkpt lat="45.74673" lon="6.6068">
        <ele>1614</ele>
        <time>2022-07-17T00:59:12Z</time>
      </trkpt>
      <trkpt lat="45.74672" lon="6.60677">
        <ele>1614</ele>
        <time>2022-07-17T00:59:14Z</time>
      </trkpt>
      <trkpt lat="45.7467" lon="6.60674">
        <ele>1613</ele>
        <time>2022-07-17T00:59:16Z</time>
      </trkpt>
      <trkpt lat="45.74668" lon="6.6067">
        <ele>1613</ele>
        <time>2022-07-17T00:59:18Z</time>
      </trkpt>
      <trkpt lat="45.74666" lon="6.60667">
        <ele>1613</ele>
        <time>2022-07-17T00:59:20Z</time>
      </trkpt>
      <trkpt lat="45.74666" lon="6.60663">
        <ele>1613</ele>
        <time>2022-07-17T00:59:22Z</time>
      </trkpt>
      <trkpt lat="45.74665" lon="6.6066">
        <ele>1613</ele>
        <time>2022-07-17T00:59:24Z</time>
      </trkpt>
      <trkpt lat="45.74664" lon="6.60656">
        <ele>1612</ele>
        <time>2022-07-17T00:59:26Z</time>
      </trkpt>
      <trkpt lat="45.74663" lon="6.60652">
        <ele>1612</ele>
        <time>2022-07-17T00:59:28Z</time>
      </trkpt>
      <trkpt lat="45.74662" lon="6.60649">
        <ele>1612</ele>
        <time>2022-07-17T00:59:30Z</time>
      </trkpt>
      <trkpt lat="45.74661" lon="6.60645">
        <ele>1612</ele>
        <time>2022-07-17T00:59:32Z</time>
      </trkpt>
      <trkpt lat="45.74661" lon="6.60641">
        <ele>1612</ele>
        <time>2022-07-17T00:59:34Z</time>
      </trkpt>
      <trkpt lat="45.74662" lon="6.60639">
        <ele>1612</ele>
        <time>2022-07-17T00:59:35Z</time>
      </trkpt>
      <trkpt lat="45.74661" lon="6.60635">
        <ele>1612</ele>
        <time>2022-07-17T00:59:37Z</time>
      </trkpt>
      <trkpt lat="45.7466" lon="6.60632">
        <ele>1611</ele>
        <time>2022-07-17T00:59:39Z</time>
      </trkpt>
      <trkpt lat="45.7466" lon="6.60629">
        <ele>1610</ele>
        <time>2022-07-17T00:59:41Z</time>
      </trkpt>
      <trkpt lat="45.74662" lon="6.60626">
        <ele>1610</ele>
        <time>2022-07-17T00:59:43Z</time>
      </trkpt>
      <trkpt lat="45.74666" lon="6.60625">
        <ele>1610</ele>
        <time>2022-07-17T00:59:45Z</time>
      </trkpt>
      <trkpt lat="45.74668" lon="6.60624">
        <ele>1609</ele>
        <time>2022-07-17T00:59:48Z</time>
      </trkpt>
      <trkpt lat="45.74669" lon="6.60622">
        <ele>1608</ele>
        <time>2022-07-17T00:59:51Z</time>
      </trkpt>
      <trkpt lat="45.7467" lon="6.60619">
        <ele>1607</ele>
        <time>2022-07-17T00:59:53Z</time>
      </trkpt>
      <trkpt lat="45.74672" lon="6.60616">
        <ele>1607</ele>
        <time>2022-07-17T00:59:55Z</time>
      </trkpt>
      <trkpt lat="45.74674" lon="6.60612">
        <ele>1606</ele>
        <time>2022-07-17T00:59:57Z</time>
      </trkpt>
      <trkpt lat="45.74675" lon="6.60609">
        <ele>1606</ele>
        <time>2022-07-17T00:59:59Z</time>
      </trkpt>
      <trkpt lat="45.74676" lon="6.60607">
        <ele>1605</ele>
        <time>2022-07-17T01:00:01Z</time>
      </trkpt>
      <trkpt lat="45.74679" lon="6.60605">
        <ele>1605</ele>
        <time>2022-07-17T01:00:03Z</time>
      </trkpt>
      <trkpt lat="45.74681" lon="6.60604">
        <ele>1604</ele>
        <time>2022-07-17T01:00:04Z</time>
      </trkpt>
      <trkpt lat="45.74684" lon="6.60603">
        <ele>1603</ele>
        <time>2022-07-17T01:00:06Z</time>
      </trkpt>
      <trkpt lat="45.74687" lon="6.60604">
        <ele>1602</ele>
        <time>2022-07-17T01:00:08Z</time>
      </trkpt>
      <trkpt lat="45.74689" lon="6.60605">
        <ele>1602</ele>
        <time>2022-07-17T01:00:10Z</time>
      </trkpt>
      <trkpt lat="45.74691" lon="6.60606">
        <ele>1602</ele>
        <time>2022-07-17T01:00:12Z</time>
      </trkpt>
      <trkpt lat="45.74693" lon="6.60606">
        <ele>1601</ele>
        <time>2022-07-17T01:00:15Z</time>
      </trkpt>
      <trkpt lat="45.74692" lon="6.60604">
        <ele>1601</ele>
        <time>2022-07-17T01:00:18Z</time>
      </trkpt>
      <trkpt lat="45.74691" lon="6.60601">
        <ele>1601</ele>
        <time>2022-07-17T01:00:21Z</time>
      </trkpt>
      <trkpt lat="45.7469" lon="6.60599">
        <ele>1599</ele>
        <time>2022-07-17T01:00:23Z</time>
      </trkpt>
      <trkpt lat="45.7469" lon="6.60596">
        <ele>1598</ele>
        <time>2022-07-17T01:00:25Z</time>
      </trkpt>
      <trkpt lat="45.74689" lon="6.60593">
        <ele>1598</ele>
        <time>2022-07-17T01:00:28Z</time>
      </trkpt>
      <trkpt lat="45.74687" lon="6.60589">
        <ele>1597</ele>
        <time>2022-07-17T01:00:31Z</time>
      </trkpt>
      <trkpt lat="45.74686" lon="6.60587">
        <ele>1597</ele>
        <time>2022-07-17T01:00:33Z</time>
      </trkpt>
      <trkpt lat="45.74685" lon="6.60585">
        <ele>1597</ele>
        <time>2022-07-17T01:00:35Z</time>
      </trkpt>
      <trkpt lat="45.74684" lon="6.60581">
        <ele>1596</ele>
        <time>2022-07-17T01:00:37Z</time>
      </trkpt>
      <trkpt lat="45.74683" lon="6.60579">
        <ele>1596</ele>
        <time>2022-07-17T01:00:39Z</time>
      </trkpt>
      <trkpt lat="45.74681" lon="6.60576">
        <ele>1594</ele>
        <time>2022-07-17T01:00:41Z</time>
      </trkpt>
      <trkpt lat="45.7468" lon="6.60574">
        <ele>1594</ele>
        <time>2022-07-17T01:00:43Z</time>
      </trkpt>
      <trkpt lat="45.74678" lon="6.60572">
        <ele>1594</ele>
        <time>2022-07-17T01:00:45Z</time>
      </trkpt>
      <trkpt lat="45.74677" lon="6.60569">
        <ele>1594</ele>
        <time>2022-07-17T01:00:47Z</time>
      </trkpt>
      <trkpt lat="45.74676" lon="6.60566">
        <ele>1592</ele>
        <time>2022-07-17T01:00:49Z</time>
      </trkpt>
      <trkpt lat="45.74675" lon="6.60564">
        <ele>1592</ele>
        <time>2022-07-17T01:00:51Z</time>
      </trkpt>
      <trkpt lat="45.74675" lon="6.60561">
        <ele>1592</ele>
        <time>2022-07-17T01:00:53Z</time>
      </trkpt>
      <trkpt lat="45.74674" lon="6.60558">
        <ele>1591</ele>
        <time>2022-07-17T01:00:55Z</time>
      </trkpt>
      <trkpt lat="45.74673" lon="6.60554">
        <ele>1590</ele>
        <time>2022-07-17T01:00:57Z</time>
      </trkpt>
      <trkpt lat="45.74673" lon="6.60551">
        <ele>1589</ele>
        <time>2022-07-17T01:00:59Z</time>
      </trkpt>
      <trkpt lat="45.74672" lon="6.60548">
        <ele>1588</ele>
        <time>2022-07-17T01:01:01Z</time>
      </trkpt>
      <trkpt lat="45.74671" lon="6.60545">
        <ele>1588</ele>
        <time>2022-07-17T01:01:03Z</time>
      </trkpt>
      <trkpt lat="45.74671" lon="6.60542">
        <ele>1588</ele>
        <time>2022-07-17T01:01:05Z</time>
      </trkpt>
      <trkpt lat="45.74671" lon="6.60539">
        <ele>1587</ele>
        <time>2022-07-17T01:01:07Z</time>
      </trkpt>
      <trkpt lat="45.7467" lon="6.60536">
        <ele>1586</ele>
        <time>2022-07-17T01:01:09Z</time>
      </trkpt>
      <trkpt lat="45.74669" lon="6.60533">
        <ele>1586</ele>
        <time>2022-07-17T01:01:10Z</time>
      </trkpt>
      <trkpt lat="45.74668" lon="6.60529">
        <ele>1586</ele>
        <time>2022-07-17T01:01:12Z</time>
      </trkpt>
      <trkpt lat="45.74667" lon="6.60526">
        <ele>1585</ele>
        <time>2022-07-17T01:01:13Z</time>
      </trkpt>
      <trkpt lat="45.74666" lon="6.60522">
        <ele>1585</ele>
        <time>2022-07-17T01:01:15Z</time>
      </trkpt>
      <trkpt lat="45.74665" lon="6.60518">
        <ele>1585</ele>
        <time>2022-07-17T01:01:17Z</time>
      </trkpt>
      <trkpt lat="45.74663" lon="6.60515">
        <ele>1583</ele>
        <time>2022-07-17T01:01:19Z</time>
      </trkpt>
      <trkpt lat="45.74661" lon="6.60512">
        <ele>1583</ele>
        <time>2022-07-17T01:01:21Z</time>
      </trkpt>
      <trkpt lat="45.74659" lon="6.60509">
        <ele>1582</ele>
        <time>2022-07-17T01:01:23Z</time>
      </trkpt>
      <trkpt lat="45.74659" lon="6.60504">
        <ele>1582</ele>
        <time>2022-07-17T01:01:25Z</time>
      </trkpt>
      <trkpt lat="45.74659" lon="6.60502">
        <ele>1582</ele>
        <time>2022-07-17T01:01:26Z</time>
      </trkpt>
      <trkpt lat="45.74661" lon="6.60498">
        <ele>1581</ele>
        <time>2022-07-17T01:01:28Z</time>
      </trkpt>
      <trkpt lat="45.74664" lon="6.60496">
        <ele>1581</ele>
        <time>2022-07-17T01:01:30Z</time>
      </trkpt>
      <trkpt lat="45.74667" lon="6.60493">
        <ele>1581</ele>
        <time>2022-07-17T01:01:32Z</time>
      </trkpt>
      <trkpt lat="45.74669" lon="6.6049">
        <ele>1581</ele>
        <time>2022-07-17T01:01:34Z</time>
      </trkpt>
      <trkpt lat="45.74671" lon="6.60488">
        <ele>1581</ele>
        <time>2022-07-17T01:01:36Z</time>
      </trkpt>
      <trkpt lat="45.74674" lon="6.60486">
        <ele>1579</ele>
        <time>2022-07-17T01:01:38Z</time>
      </trkpt>
      <trkpt lat="45.74677" lon="6.60483">
        <ele>1579</ele>
        <time>2022-07-17T01:01:40Z</time>
      </trkpt>
      <trkpt lat="45.74679" lon="6.60483">
        <ele>1578</ele>
        <time>2022-07-17T01:01:41Z</time>
      </trkpt>
      <trkpt lat="45.74681" lon="6.60482">
        <ele>1578</ele>
        <time>2022-07-17T01:01:43Z</time>
      </trkpt>
      <trkpt lat="45.74683" lon="6.60481">
        <ele>1578</ele>
        <time>2022-07-17T01:01:45Z</time>
      </trkpt>
      <trkpt lat="45.74686" lon="6.60478">
        <ele>1578</ele>
        <time>2022-07-17T01:01:47Z</time>
      </trkpt>
      <trkpt lat="45.74688" lon="6.60478">
        <ele>1577</ele>
        <time>2022-07-17T01:01:49Z</time>
      </trkpt>
      <trkpt lat="45.7469" lon="6.60478">
        <ele>1576</ele>
        <time>2022-07-17T01:01:51Z</time>
      </trkpt>
      <trkpt lat="45.74692" lon="6.60479">
        <ele>1575</ele>
        <time>2022-07-17T01:01:53Z</time>
      </trkpt>
      <trkpt lat="45.74695" lon="6.60478">
        <ele>1575</ele>
        <time>2022-07-17T01:01:56Z</time>
      </trkpt>
      <trkpt lat="45.74697" lon="6.60478">
        <ele>1574</ele>
        <time>2022-07-17T01:01:58Z</time>
      </trkpt>
      <trkpt lat="45.74699" lon="6.60477">
        <ele>1574</ele>
        <time>2022-07-17T01:02:00Z</time>
      </trkpt>
      <trkpt lat="45.74701" lon="6.60477">
        <ele>1573</ele>
        <time>2022-07-17T01:02:02Z</time>
      </trkpt>
      <trkpt lat="45.74702" lon="6.60477">
        <ele>1572</ele>
        <time>2022-07-17T01:02:04Z</time>
      </trkpt>
      <trkpt lat="45.74704" lon="6.60476">
        <ele>1572</ele>
        <time>2022-07-17T01:02:06Z</time>
      </trkpt>
      <trkpt lat="45.74707" lon="6.60475">
        <ele>1571</ele>
        <time>2022-07-17T01:02:08Z</time>
      </trkpt>
      <trkpt lat="45.7471" lon="6.60475">
        <ele>1569</ele>
        <time>2022-07-17T01:02:10Z</time>
      </trkpt>
      <trkpt lat="45.74712" lon="6.60476">
        <ele>1569</ele>
        <time>2022-07-17T01:02:12Z</time>
      </trkpt>
      <trkpt lat="45.74714" lon="6.60477">
        <ele>1569</ele>
        <time>2022-07-17T01:02:13Z</time>
      </trkpt>
      <trkpt lat="45.74716" lon="6.60479">
        <ele>1569</ele>
        <time>2022-07-17T01:02:15Z</time>
      </trkpt>
      <trkpt lat="45.74718" lon="6.60481">
        <ele>1569</ele>
        <time>2022-07-17T01:02:17Z</time>
      </trkpt>
      <trkpt lat="45.7472" lon="6.60482">
        <ele>1568</ele>
        <time>2022-07-17T01:02:19Z</time>
      </trkpt>
      <trkpt lat="45.74722" lon="6.60484">
        <ele>1568</ele>
        <time>2022-07-17T01:02:21Z</time>
      </trkpt>
      <trkpt lat="45.74725" lon="6.60485">
        <ele>1567</ele>
        <time>2022-07-17T01:02:24Z</time>
      </trkpt>
      <trkpt lat="45.74728" lon="6.60487">
        <ele>1566</ele>
        <time>2022-07-17T01:02:26Z</time>
      </trkpt>
      <trkpt lat="45.7473" lon="6.60489">
        <ele>1566</ele>
        <time>2022-07-17T01:02:28Z</time>
      </trkpt>
      <trkpt lat="45.74733" lon="6.60492">
        <ele>1565</ele>
        <time>2022-07-17T01:02:30Z</time>
      </trkpt>
      <trkpt lat="45.74735" lon="6.60494">
        <ele>1564</ele>
        <time>2022-07-17T01:02:32Z</time>
      </trkpt>
      <trkpt lat="45.74737" lon="6.60497">
        <ele>1564</ele>
        <time>2022-07-17T01:02:34Z</time>
      </trkpt>
      <trkpt lat="45.7474" lon="6.605">
        <ele>1563</ele>
        <time>2022-07-17T01:02:36Z</time>
      </trkpt>
      <trkpt lat="45.74742" lon="6.60503">
        <ele>1563</ele>
        <time>2022-07-17T01:02:38Z</time>
      </trkpt>
      <trkpt lat="45.74744" lon="6.60506">
        <ele>1563</ele>
        <time>2022-07-17T01:02:40Z</time>
      </trkpt>
      <trkpt lat="45.74746" lon="6.60507">
        <ele>1563</ele>
        <time>2022-07-17T01:02:42Z</time>
      </trkpt>
      <trkpt lat="45.74748" lon="6.60509">
        <ele>1561</ele>
        <time>2022-07-17T01:02:44Z</time>
      </trkpt>
      <trkpt lat="45.7475" lon="6.60512">
        <ele>1561</ele>
        <time>2022-07-17T01:02:46Z</time>
      </trkpt>
      <trkpt lat="45.74752" lon="6.60514">
        <ele>1560</ele>
        <time>2022-07-17T01:02:48Z</time>
      </trkpt>
      <trkpt lat="45.74755" lon="6.60515">
        <ele>1560</ele>
        <time>2022-07-17T01:02:50Z</time>
      </trkpt>
      <trkpt lat="45.74758" lon="6.60517">
        <ele>1559</ele>
        <time>2022-07-17T01:02:52Z</time>
      </trkpt>
      <trkpt lat="45.74759" lon="6.60518">
        <ele>1558</ele>
        <time>2022-07-17T01:02:54Z</time>
      </trkpt>
      <trkpt lat="45.74762" lon="6.60519">
        <ele>1558</ele>
        <time>2022-07-17T01:02:57Z</time>
      </trkpt>
      <trkpt lat="45.74764" lon="6.60521">
        <ele>1557</ele>
        <time>2022-07-17T01:02:59Z</time>
      </trkpt>
      <trkpt lat="45.74766" lon="6.60523">
        <ele>1556</ele>
        <time>2022-07-17T01:03:01Z</time>
      </trkpt>
      <trkpt lat="45.74769" lon="6.60527">
        <ele>1556</ele>
        <time>2022-07-17T01:03:03Z</time>
      </trkpt>
      <trkpt lat="45.7477" lon="6.6053">
        <ele>1556</ele>
        <time>2022-07-17T01:03:05Z</time>
      </trkpt>
      <trkpt lat="45.74772" lon="6.60533">
        <ele>1555</ele>
        <time>2022-07-17T01:03:07Z</time>
      </trkpt>
      <trkpt lat="45.74774" lon="6.60536">
        <ele>1554</ele>
        <time>2022-07-17T01:03:09Z</time>
      </trkpt>
      <trkpt lat="45.74775" lon="6.60538">
        <ele>1554</ele>
        <time>2022-07-17T01:03:11Z</time>
      </trkpt>
      <trkpt lat="45.74777" lon="6.6054">
        <ele>1552</ele>
        <time>2022-07-17T01:03:13Z</time>
      </trkpt>
      <trkpt lat="45.74779" lon="6.60542">
        <ele>1552</ele>
        <time>2022-07-17T01:03:15Z</time>
      </trkpt>
      <trkpt lat="45.7478" lon="6.60545">
        <ele>1552</ele>
        <time>2022-07-17T01:03:17Z</time>
      </trkpt>
      <trkpt lat="45.74782" lon="6.60547">
        <ele>1552</ele>
        <time>2022-07-17T01:03:19Z</time>
      </trkpt>
      <trkpt lat="45.74783" lon="6.60549">
        <ele>1551</ele>
        <time>2022-07-17T01:03:21Z</time>
      </trkpt>
      <trkpt lat="45.74785" lon="6.60551">
        <ele>1551</ele>
        <time>2022-07-17T01:03:23Z</time>
      </trkpt>
      <trkpt lat="45.74786" lon="6.60553">
        <ele>1551</ele>
        <time>2022-07-17T01:03:25Z</time>
      </trkpt>
      <trkpt lat="45.74788" lon="6.60556">
        <ele>1550</ele>
        <time>2022-07-17T01:03:27Z</time>
      </trkpt>
      <trkpt lat="45.7479" lon="6.60558">
        <ele>1550</ele>
        <time>2022-07-17T01:03:30Z</time>
      </trkpt>
      <trkpt lat="45.74791" lon="6.6056">
        <ele>1550</ele>
        <time>2022-07-17T01:03:32Z</time>
      </trkpt>
      <trkpt lat="45.74793" lon="6.60564">
        <ele>1550</ele>
        <time>2022-07-17T01:03:34Z</time>
      </trkpt>
      <trkpt lat="45.74794" lon="6.60566">
        <ele>1549</ele>
        <time>2022-07-17T01:03:37Z</time>
      </trkpt>
      <trkpt lat="45.74795" lon="6.60568">
        <ele>1549</ele>
        <time>2022-07-17T01:03:39Z</time>
      </trkpt>
      <trkpt lat="45.74797" lon="6.6057">
        <ele>1548</ele>
        <time>2022-07-17T01:03:41Z</time>
      </trkpt>
      <trkpt lat="45.74799" lon="6.60572">
        <ele>1548</ele>
        <time>2022-07-17T01:03:43Z</time>
      </trkpt>
      <trkpt lat="45.74801" lon="6.60574">
        <ele>1547</ele>
        <time>2022-07-17T01:03:46Z</time>
      </trkpt>
      <trkpt lat="45.74803" lon="6.60574">
        <ele>1546</ele>
        <time>2022-07-17T01:03:48Z</time>
      </trkpt>
      <trkpt lat="45.74805" lon="6.60575">
        <ele>1545</ele>
        <time>2022-07-17T01:03:50Z</time>
      </trkpt>
      <trkpt lat="45.74807" lon="6.60576">
        <ele>1544</ele>
        <time>2022-07-17T01:03:52Z</time>
      </trkpt>
      <trkpt lat="45.74809" lon="6.60578">
        <ele>1544</ele>
        <time>2022-07-17T01:03:54Z</time>
      </trkpt>
      <trkpt lat="45.74811" lon="6.60581">
        <ele>1543</ele>
        <time>2022-07-17T01:03:56Z</time>
      </trkpt>
      <trkpt lat="45.74812" lon="6.60583">
        <ele>1543</ele>
        <time>2022-07-17T01:03:58Z</time>
      </trkpt>
      <trkpt lat="45.74815" lon="6.60583">
        <ele>1542</ele>
        <time>2022-07-17T01:04:00Z</time>
      </trkpt>
      <trkpt lat="45.74817" lon="6.60585">
        <ele>1542</ele>
        <time>2022-07-17T01:04:02Z</time>
      </trkpt>
      <trkpt lat="45.74818" lon="6.60587">
        <ele>1542</ele>
        <time>2022-07-17T01:04:04Z</time>
      </trkpt>
      <trkpt lat="45.74819" lon="6.6059">
        <ele>1541</ele>
        <time>2022-07-17T01:04:06Z</time>
      </trkpt>
      <trkpt lat="45.74821" lon="6.60592">
        <ele>1539</ele>
        <time>2022-07-17T01:04:10Z</time>
      </trkpt>
      <trkpt lat="45.74822" lon="6.60594">
        <ele>1539</ele>
        <time>2022-07-17T01:04:12Z</time>
      </trkpt>
      <trkpt lat="45.74824" lon="6.60595">
        <ele>1538</ele>
        <time>2022-07-17T01:04:14Z</time>
      </trkpt>
      <trkpt lat="45.74825" lon="6.60598">
        <ele>1538</ele>
        <time>2022-07-17T01:04:16Z</time>
      </trkpt>
      <trkpt lat="45.74827" lon="6.60599">
        <ele>1538</ele>
        <time>2022-07-17T01:04:18Z</time>
      </trkpt>
      <trkpt lat="45.74829" lon="6.60601">
        <ele>1537</ele>
        <time>2022-07-17T01:04:20Z</time>
      </trkpt>
      <trkpt lat="45.74831" lon="6.60602">
        <ele>1536</ele>
        <time>2022-07-17T01:04:22Z</time>
      </trkpt>
      <trkpt lat="45.74834" lon="6.60603">
        <ele>1535</ele>
        <time>2022-07-17T01:04:24Z</time>
      </trkpt>
      <trkpt lat="45.74836" lon="6.60604">
        <ele>1535</ele>
        <time>2022-07-17T01:04:26Z</time>
      </trkpt>
      <trkpt lat="45.74838" lon="6.60604">
        <ele>1535</ele>
        <time>2022-07-17T01:04:28Z</time>
      </trkpt>
      <trkpt lat="45.7484" lon="6.60604">
        <ele>1534</ele>
        <time>2022-07-17T01:04:30Z</time>
      </trkpt>
      <trkpt lat="45.74842" lon="6.60603">
        <ele>1533</ele>
        <time>2022-07-17T01:04:34Z</time>
      </trkpt>
      <trkpt lat="45.74842" lon="6.606">
        <ele>1532</ele>
        <time>2022-07-17T01:04:39Z</time>
      </trkpt>
      <trkpt lat="45.74844" lon="6.60599">
        <ele>1532</ele>
        <time>2022-07-17T01:04:41Z</time>
      </trkpt>
      <trkpt lat="45.74847" lon="6.60599">
        <ele>1532</ele>
        <time>2022-07-17T01:04:43Z</time>
      </trkpt>
      <trkpt lat="45.74849" lon="6.606">
        <ele>1531</ele>
        <time>2022-07-17T01:04:45Z</time>
      </trkpt>
      <trkpt lat="45.7485" lon="6.60603">
        <ele>1530</ele>
        <time>2022-07-17T01:04:47Z</time>
      </trkpt>
      <trkpt lat="45.74852" lon="6.60606">
        <ele>1529</ele>
        <time>2022-07-17T01:04:49Z</time>
      </trkpt>
      <trkpt lat="45.74854" lon="6.60608">
        <ele>1529</ele>
        <time>2022-07-17T01:04:51Z</time>
      </trkpt>
      <trkpt lat="45.74855" lon="6.60611">
        <ele>1528</ele>
        <time>2022-07-17T01:04:54Z</time>
      </trkpt>
      <trkpt lat="45.74852" lon="6.6061">
        <ele>1527</ele>
        <time>2022-07-17T01:04:59Z</time>
      </trkpt>
      <trkpt lat="45.74851" lon="6.60608">
        <ele>1527</ele>
        <time>2022-07-17T01:05:01Z</time>
      </trkpt>
      <trkpt lat="45.74849" lon="6.60605">
        <ele>1526</ele>
        <time>2022-07-17T01:05:03Z</time>
      </trkpt>
      <trkpt lat="45.74848" lon="6.60603">
        <ele>1526</ele>
        <time>2022-07-17T01:05:04Z</time>
      </trkpt>
      <trkpt lat="45.74847" lon="6.60599">
        <ele>1526</ele>
        <time>2022-07-17T01:05:07Z</time>
      </trkpt>
      <trkpt lat="45.74846" lon="6.60596">
        <ele>1526</ele>
        <time>2022-07-17T01:05:09Z</time>
      </trkpt>
      <trkpt lat="45.74844" lon="6.60593">
        <ele>1526</ele>
        <time>2022-07-17T01:05:11Z</time>
      </trkpt>
      <trkpt lat="45.74842" lon="6.6059">
        <ele>1526</ele>
        <time>2022-07-17T01:05:13Z</time>
      </trkpt>
      <trkpt lat="45.7484" lon="6.60588">
        <ele>1525</ele>
        <time>2022-07-17T01:05:15Z</time>
      </trkpt>
      <trkpt lat="45.74839" lon="6.60585">
        <ele>1525</ele>
        <time>2022-07-17T01:05:17Z</time>
      </trkpt>
      <trkpt lat="45.74837" lon="6.60582">
        <ele>1525</ele>
        <time>2022-07-17T01:05:19Z</time>
      </trkpt>
      <trkpt lat="45.74837" lon="6.60578">
        <ele>1524</ele>
        <time>2022-07-17T01:05:21Z</time>
      </trkpt>
      <trkpt lat="45.74834" lon="6.60572">
        <ele>1524</ele>
        <time>2022-07-17T01:05:23Z</time>
      </trkpt>
      <trkpt lat="45.74833" lon="6.60569">
        <ele>1524</ele>
        <time>2022-07-17T01:05:25Z</time>
      </trkpt>
      <trkpt lat="45.74832" lon="6.60566">
        <ele>1524</ele>
        <time>2022-07-17T01:05:26Z</time>
      </trkpt>
      <trkpt lat="45.74831" lon="6.60564">
        <ele>1523</ele>
        <time>2022-07-17T01:05:27Z</time>
      </trkpt>
      <trkpt lat="45.7483" lon="6.60562">
        <ele>1523</ele>
        <time>2022-07-17T01:05:28Z</time>
      </trkpt>
      <trkpt lat="45.74829" lon="6.60559">
        <ele>1523</ele>
        <time>2022-07-17T01:05:29Z</time>
      </trkpt>
      <trkpt lat="45.74828" lon="6.60557">
        <ele>1522</ele>
        <time>2022-07-17T01:05:30Z</time>
      </trkpt>
      <trkpt lat="45.74826" lon="6.60553">
        <ele>1521</ele>
        <time>2022-07-17T01:05:32Z</time>
      </trkpt>
      <trkpt lat="45.74826" lon="6.60551">
        <ele>1521</ele>
        <time>2022-07-17T01:05:33Z</time>
      </trkpt>
      <trkpt lat="45.74825" lon="6.60548">
        <ele>1521</ele>
        <time>2022-07-17T01:05:34Z</time>
      </trkpt>
      <trkpt lat="45.74823" lon="6.60544">
        <ele>1521</ele>
        <time>2022-07-17T01:05:36Z</time>
      </trkpt>
      <trkpt lat="45.74821" lon="6.6054">
        <ele>1521</ele>
        <time>2022-07-17T01:05:38Z</time>
      </trkpt>
      <trkpt lat="45.7482" lon="6.60537">
        <ele>1520</ele>
        <time>2022-07-17T01:05:40Z</time>
      </trkpt>
      <trkpt lat="45.74819" lon="6.60533">
        <ele>1520</ele>
        <time>2022-07-17T01:05:42Z</time>
      </trkpt>
      <trkpt lat="45.74817" lon="6.60529">
        <ele>1520</ele>
        <time>2022-07-17T01:05:44Z</time>
      </trkpt>
      <trkpt lat="45.74815" lon="6.60525">
        <ele>1519</ele>
        <time>2022-07-17T01:05:46Z</time>
      </trkpt>
      <trkpt lat="45.74814" lon="6.60522">
        <ele>1518</ele>
        <time>2022-07-17T01:05:48Z</time>
      </trkpt>
      <trkpt lat="45.74814" lon="6.60519">
        <ele>1518</ele>
        <time>2022-07-17T01:05:50Z</time>
      </trkpt>
      <trkpt lat="45.74814" lon="6.60515">
        <ele>1518</ele>
        <time>2022-07-17T01:05:52Z</time>
      </trkpt>
      <trkpt lat="45.74813" lon="6.60512">
        <ele>1517</ele>
        <time>2022-07-17T01:05:54Z</time>
      </trkpt>
      <trkpt lat="45.74811" lon="6.60509">
        <ele>1517</ele>
        <time>2022-07-17T01:05:56Z</time>
      </trkpt>
      <trkpt lat="45.74809" lon="6.60506">
        <ele>1517</ele>
        <time>2022-07-17T01:05:58Z</time>
      </trkpt>
      <trkpt lat="45.74807" lon="6.60505">
        <ele>1517</ele>
        <time>2022-07-17T01:05:59Z</time>
      </trkpt>
      <trkpt lat="45.74805" lon="6.60504">
        <ele>1517</ele>
        <time>2022-07-17T01:06:00Z</time>
      </trkpt>
      <trkpt lat="45.74803" lon="6.605">
        <ele>1517</ele>
        <time>2022-07-17T01:06:02Z</time>
      </trkpt>
      <trkpt lat="45.74803" lon="6.60496">
        <ele>1516</ele>
        <time>2022-07-17T01:06:04Z</time>
      </trkpt>
      <trkpt lat="45.74801" lon="6.60493">
        <ele>1515</ele>
        <time>2022-07-17T01:06:06Z</time>
      </trkpt>
      <trkpt lat="45.748" lon="6.6049">
        <ele>1514</ele>
        <time>2022-07-17T01:06:08Z</time>
      </trkpt>
      <trkpt lat="45.74799" lon="6.60487">
        <ele>1514</ele>
        <time>2022-07-17T01:06:10Z</time>
      </trkpt>
      <trkpt lat="45.74796" lon="6.60484">
        <ele>1514</ele>
        <time>2022-07-17T01:06:12Z</time>
      </trkpt>
      <trkpt lat="45.74794" lon="6.60481">
        <ele>1514</ele>
        <time>2022-07-17T01:06:14Z</time>
      </trkpt>
      <trkpt lat="45.74795" lon="6.60478">
        <ele>1514</ele>
        <time>2022-07-17T01:06:15Z</time>
      </trkpt>
      <trkpt lat="45.74795" lon="6.60474">
        <ele>1514</ele>
        <time>2022-07-17T01:06:17Z</time>
      </trkpt>
      <trkpt lat="45.74794" lon="6.6047">
        <ele>1513</ele>
        <time>2022-07-17T01:06:19Z</time>
      </trkpt>
      <trkpt lat="45.74793" lon="6.60466">
        <ele>1513</ele>
        <time>2022-07-17T01:06:21Z</time>
      </trkpt>
      <trkpt lat="45.74795" lon="6.60465">
        <ele>1513</ele>
        <time>2022-07-17T01:06:23Z</time>
      </trkpt>
      <trkpt lat="45.74798" lon="6.60465">
        <ele>1512</ele>
        <time>2022-07-17T01:06:25Z</time>
      </trkpt>
      <trkpt lat="45.748" lon="6.60465">
        <ele>1511</ele>
        <time>2022-07-17T01:06:27Z</time>
      </trkpt>
      <trkpt lat="45.74802" lon="6.60467">
        <ele>1510</ele>
        <time>2022-07-17T01:06:29Z</time>
      </trkpt>
      <trkpt lat="45.74804" lon="6.60467">
        <ele>1510</ele>
        <time>2022-07-17T01:06:31Z</time>
      </trkpt>
      <trkpt lat="45.74806" lon="6.60468">
        <ele>1509</ele>
        <time>2022-07-17T01:06:33Z</time>
      </trkpt>
      <trkpt lat="45.74809" lon="6.60468">
        <ele>1508</ele>
        <time>2022-07-17T01:06:35Z</time>
      </trkpt>
      <trkpt lat="45.74811" lon="6.60469">
        <ele>1507</ele>
        <time>2022-07-17T01:06:37Z</time>
      </trkpt>
      <trkpt lat="45.74813" lon="6.60469">
        <ele>1507</ele>
        <time>2022-07-17T01:06:39Z</time>
      </trkpt>
      <trkpt lat="45.74816" lon="6.6047">
        <ele>1506</ele>
        <time>2022-07-17T01:06:41Z</time>
      </trkpt>
      <trkpt lat="45.74817" lon="6.6047">
        <ele>1505</ele>
        <time>2022-07-17T01:06:44Z</time>
      </trkpt>
      <trkpt lat="45.74817" lon="6.60467">
        <ele>1504</ele>
        <time>2022-07-17T01:06:47Z</time>
      </trkpt>
      <trkpt lat="45.74817" lon="6.60464">
        <ele>1503</ele>
        <time>2022-07-17T01:06:49Z</time>
      </trkpt>
      <trkpt lat="45.74818" lon="6.60461">
        <ele>1502</ele>
        <time>2022-07-17T01:06:51Z</time>
      </trkpt>
      <trkpt lat="45.74817" lon="6.60458">
        <ele>1501</ele>
        <time>2022-07-17T01:06:53Z</time>
      </trkpt>
      <trkpt lat="45.74817" lon="6.60455">
        <ele>1501</ele>
        <time>2022-07-17T01:06:56Z</time>
      </trkpt>
      <trkpt lat="45.74816" lon="6.60451">
        <ele>1501</ele>
        <time>2022-07-17T01:06:58Z</time>
      </trkpt>
      <trkpt lat="45.74816" lon="6.60448">
        <ele>1500</ele>
        <time>2022-07-17T01:07:01Z</time>
      </trkpt>
      <trkpt lat="45.74817" lon="6.60445">
        <ele>1499</ele>
        <time>2022-07-17T01:07:03Z</time>
      </trkpt>
      <trkpt lat="45.74817" lon="6.60442">
        <ele>1499</ele>
        <time>2022-07-17T01:07:05Z</time>
      </trkpt>
      <trkpt lat="45.74816" lon="6.60439">
        <ele>1499</ele>
        <time>2022-07-17T01:07:07Z</time>
      </trkpt>
      <trkpt lat="45.74817" lon="6.60436">
        <ele>1498</ele>
        <time>2022-07-17T01:07:10Z</time>
      </trkpt>
      <trkpt lat="45.74819" lon="6.60435">
        <ele>1498</ele>
        <time>2022-07-17T01:07:12Z</time>
      </trkpt>
      <trkpt lat="45.74821" lon="6.60434">
        <ele>1496</ele>
        <time>2022-07-17T01:07:15Z</time>
      </trkpt>
      <trkpt lat="45.74823" lon="6.60434">
        <ele>1495</ele>
        <time>2022-07-17T01:07:18Z</time>
      </trkpt>
      <trkpt lat="45.74825" lon="6.60436">
        <ele>1493</ele>
        <time>2022-07-17T01:07:21Z</time>
      </trkpt>
      <trkpt lat="45.74828" lon="6.60437">
        <ele>1493</ele>
        <time>2022-07-17T01:07:24Z</time>
      </trkpt>
      <trkpt lat="45.7483" lon="6.60437">
        <ele>1492</ele>
        <time>2022-07-17T01:07:27Z</time>
      </trkpt>
      <trkpt lat="45.74832" lon="6.60438">
        <ele>1492</ele>
        <time>2022-07-17T01:07:30Z</time>
      </trkpt>
      <trkpt lat="45.74834" lon="6.60439">
        <ele>1492</ele>
        <time>2022-07-17T01:07:32Z</time>
      </trkpt>
      <trkpt lat="45.74835" lon="6.60441">
        <ele>1491</ele>
        <time>2022-07-17T01:07:34Z</time>
      </trkpt>
      <trkpt lat="45.74837" lon="6.60443">
        <ele>1491</ele>
        <time>2022-07-17T01:07:36Z</time>
      </trkpt>
      <trkpt lat="45.74838" lon="6.60447">
        <ele>1491</ele>
        <time>2022-07-17T01:07:38Z</time>
      </trkpt>
      <trkpt lat="45.74839" lon="6.60449">
        <ele>1490</ele>
        <time>2022-07-17T01:07:40Z</time>
      </trkpt>
      <trkpt lat="45.74841" lon="6.60454">
        <ele>1490</ele>
        <time>2022-07-17T01:07:42Z</time>
      </trkpt>
      <trkpt lat="45.74841" lon="6.60458">
        <ele>1490</ele>
        <time>2022-07-17T01:07:44Z</time>
      </trkpt>
      <trkpt lat="45.74842" lon="6.6046">
        <ele>1490</ele>
        <time>2022-07-17T01:07:46Z</time>
      </trkpt>
      <trkpt lat="45.74844" lon="6.60463">
        <ele>1490</ele>
        <time>2022-07-17T01:07:48Z</time>
      </trkpt>
      <trkpt lat="45.74847" lon="6.60463">
        <ele>1489</ele>
        <time>2022-07-17T01:07:50Z</time>
      </trkpt>
      <trkpt lat="45.74849" lon="6.60464">
        <ele>1489</ele>
        <time>2022-07-17T01:07:52Z</time>
      </trkpt>
      <trkpt lat="45.74851" lon="6.60465">
        <ele>1488</ele>
        <time>2022-07-17T01:07:54Z</time>
      </trkpt>
      <trkpt lat="45.74853" lon="6.60467">
        <ele>1488</ele>
        <time>2022-07-17T01:07:56Z</time>
      </trkpt>
      <trkpt lat="45.74855" lon="6.60468">
        <ele>1487</ele>
        <time>2022-07-17T01:07:58Z</time>
      </trkpt>
      <trkpt lat="45.74857" lon="6.6047">
        <ele>1486</ele>
        <time>2022-07-17T01:08:00Z</time>
      </trkpt>
      <trkpt lat="45.74859" lon="6.60472">
        <ele>1486</ele>
        <time>2022-07-17T01:08:02Z</time>
      </trkpt>
      <trkpt lat="45.7486" lon="6.60475">
        <ele>1486</ele>
        <time>2022-07-17T01:08:04Z</time>
      </trkpt>
      <trkpt lat="45.74862" lon="6.60478">
        <ele>1485</ele>
        <time>2022-07-17T01:08:06Z</time>
      </trkpt>
      <trkpt lat="45.74863" lon="6.6048">
        <ele>1485</ele>
        <time>2022-07-17T01:08:07Z</time>
      </trkpt>
      <trkpt lat="45.74865" lon="6.60483">
        <ele>1484</ele>
        <time>2022-07-17T01:08:09Z</time>
      </trkpt>
      <trkpt lat="45.74867" lon="6.60487">
        <ele>1484</ele>
        <time>2022-07-17T01:08:11Z</time>
      </trkpt>
      <trkpt lat="45.74869" lon="6.6049">
        <ele>1484</ele>
        <time>2022-07-17T01:08:13Z</time>
      </trkpt>
      <trkpt lat="45.7487" lon="6.60491">
        <ele>1484</ele>
        <time>2022-07-17T01:08:14Z</time>
      </trkpt>
      <trkpt lat="45.74872" lon="6.60491">
        <ele>1483</ele>
        <time>2022-07-17T01:08:19Z</time>
      </trkpt>
      <trkpt lat="45.74874" lon="6.60488">
        <ele>1483</ele>
        <time>2022-07-17T01:08:23Z</time>
      </trkpt>
      <trkpt lat="45.74874" lon="6.60486">
        <ele>1482</ele>
        <time>2022-07-17T01:08:27Z</time>
      </trkpt>
      <trkpt lat="45.74874" lon="6.60483">
        <ele>1481</ele>
        <time>2022-07-17T01:08:29Z</time>
      </trkpt>
      <trkpt lat="45.74873" lon="6.60481">
        <ele>1480</ele>
        <time>2022-07-17T01:08:32Z</time>
      </trkpt>
      <trkpt lat="45.74872" lon="6.60478">
        <ele>1480</ele>
        <time>2022-07-17T01:08:35Z</time>
      </trkpt>
      <trkpt lat="45.74871" lon="6.60475">
        <ele>1479</ele>
        <time>2022-07-17T01:08:37Z</time>
      </trkpt>
      <trkpt lat="45.74871" lon="6.60472">
        <ele>1478</ele>
        <time>2022-07-17T01:08:39Z</time>
      </trkpt>
      <trkpt lat="45.74871" lon="6.60469">
        <ele>1478</ele>
        <time>2022-07-17T01:08:41Z</time>
      </trkpt>
      <trkpt lat="45.7487" lon="6.60468">
        <ele>1477</ele>
        <time>2022-07-17T01:08:42Z</time>
      </trkpt>
      <trkpt lat="45.74869" lon="6.60466">
        <ele>1477</ele>
        <time>2022-07-17T01:08:43Z</time>
      </trkpt>
      <trkpt lat="45.74868" lon="6.60465">
        <ele>1477</ele>
        <time>2022-07-17T01:08:44Z</time>
      </trkpt>
      <trkpt lat="45.74867" lon="6.60463">
        <ele>1477</ele>
        <time>2022-07-17T01:08:45Z</time>
      </trkpt>
      <trkpt lat="45.74867" lon="6.60462">
        <ele>1477</ele>
        <time>2022-07-17T01:08:46Z</time>
      </trkpt>
      <trkpt lat="45.74866" lon="6.6046">
        <ele>1477</ele>
        <time>2022-07-17T01:08:47Z</time>
      </trkpt>
      <trkpt lat="45.74865" lon="6.60459">
        <ele>1477</ele>
        <time>2022-07-17T01:08:48Z</time>
      </trkpt>
      <trkpt lat="45.74864" lon="6.60457">
        <ele>1476</ele>
        <time>2022-07-17T01:08:50Z</time>
      </trkpt>
      <trkpt lat="45.74863" lon="6.60454">
        <ele>1475</ele>
        <time>2022-07-17T01:08:53Z</time>
      </trkpt>
      <trkpt lat="45.74863" lon="6.6045">
        <ele>1475</ele>
        <time>2022-07-17T01:08:56Z</time>
      </trkpt>
      <trkpt lat="45.74863" lon="6.60447">
        <ele>1475</ele>
        <time>2022-07-17T01:08:58Z</time>
      </trkpt>
      <trkpt lat="45.74862" lon="6.60444">
        <ele>1475</ele>
        <time>2022-07-17T01:09:00Z</time>
      </trkpt>
      <trkpt lat="45.74861" lon="6.60442">
        <ele>1474</ele>
        <time>2022-07-17T01:09:02Z</time>
      </trkpt>
      <trkpt lat="45.7486" lon="6.60439">
        <ele>1474</ele>
        <time>2022-07-17T01:09:04Z</time>
      </trkpt>
      <trkpt lat="45.74859" lon="6.60435">
        <ele>1473</ele>
        <time>2022-07-17T01:09:06Z</time>
      </trkpt>
      <trkpt lat="45.74858" lon="6.60433">
        <ele>1472</ele>
        <time>2022-07-17T01:09:08Z</time>
      </trkpt>
      <trkpt lat="45.74857" lon="6.6043">
        <ele>1472</ele>
        <time>2022-07-17T01:09:10Z</time>
      </trkpt>
      <trkpt lat="45.74856" lon="6.60427">
        <ele>1471</ele>
        <time>2022-07-17T01:09:13Z</time>
      </trkpt>
      <trkpt lat="45.74856" lon="6.60424">
        <ele>1471</ele>
        <time>2022-07-17T01:09:15Z</time>
      </trkpt>
      <trkpt lat="45.74857" lon="6.60421">
        <ele>1470</ele>
        <time>2022-07-17T01:09:17Z</time>
      </trkpt>
      <trkpt lat="45.74859" lon="6.60419">
        <ele>1469</ele>
        <time>2022-07-17T01:09:19Z</time>
      </trkpt>
      <trkpt lat="45.74862" lon="6.60418">
        <ele>1469</ele>
        <time>2022-07-17T01:09:21Z</time>
      </trkpt>
      <trkpt lat="45.74864" lon="6.60418">
        <ele>1468</ele>
        <time>2022-07-17T01:09:23Z</time>
      </trkpt>
      <trkpt lat="45.74866" lon="6.60419">
        <ele>1468</ele>
        <time>2022-07-17T01:09:25Z</time>
      </trkpt>
      <trkpt lat="45.74869" lon="6.6042">
        <ele>1467</ele>
        <time>2022-07-17T01:09:28Z</time>
      </trkpt>
      <trkpt lat="45.74871" lon="6.6042">
        <ele>1466</ele>
        <time>2022-07-17T01:09:30Z</time>
      </trkpt>
      <trkpt lat="45.74873" lon="6.60422">
        <ele>1466</ele>
        <time>2022-07-17T01:09:32Z</time>
      </trkpt>
      <trkpt lat="45.74875" lon="6.60424">
        <ele>1465</ele>
        <time>2022-07-17T01:09:34Z</time>
      </trkpt>
      <trkpt lat="45.74877" lon="6.60427">
        <ele>1465</ele>
        <time>2022-07-17T01:09:36Z</time>
      </trkpt>
      <trkpt lat="45.74879" lon="6.60429">
        <ele>1464</ele>
        <time>2022-07-17T01:09:38Z</time>
      </trkpt>
      <trkpt lat="45.7488" lon="6.60432">
        <ele>1463</ele>
        <time>2022-07-17T01:09:40Z</time>
      </trkpt>
      <trkpt lat="45.74882" lon="6.60433">
        <ele>1463</ele>
        <time>2022-07-17T01:09:42Z</time>
      </trkpt>
      <trkpt lat="45.74884" lon="6.60435">
        <ele>1462</ele>
        <time>2022-07-17T01:09:45Z</time>
      </trkpt>
      <trkpt lat="45.74886" lon="6.60438">
        <ele>1462</ele>
        <time>2022-07-17T01:09:47Z</time>
      </trkpt>
      <trkpt lat="45.74888" lon="6.6044">
        <ele>1461</ele>
        <time>2022-07-17T01:09:49Z</time>
      </trkpt>
      <trkpt lat="45.7489" lon="6.60441">
        <ele>1461</ele>
        <time>2022-07-17T01:09:51Z</time>
      </trkpt>
      <trkpt lat="45.74892" lon="6.60441">
        <ele>1460</ele>
        <time>2022-07-17T01:09:53Z</time>
      </trkpt>
      <trkpt lat="45.74894" lon="6.60442">
        <ele>1460</ele>
        <time>2022-07-17T01:09:55Z</time>
      </trkpt>
      <trkpt lat="45.74896" lon="6.60445">
        <ele>1460</ele>
        <time>2022-07-17T01:09:57Z</time>
      </trkpt>
      <trkpt lat="45.74898" lon="6.60447">
        <ele>1460</ele>
        <time>2022-07-17T01:09:59Z</time>
      </trkpt>
      <trkpt lat="45.74899" lon="6.60449">
        <ele>1460</ele>
        <time>2022-07-17T01:10:03Z</time>
      </trkpt>
      <trkpt lat="45.74901" lon="6.6045">
        <ele>1459</ele>
        <time>2022-07-17T01:10:05Z</time>
      </trkpt>
      <trkpt lat="45.74903" lon="6.60452">
        <ele>1458</ele>
        <time>2022-07-17T01:10:07Z</time>
      </trkpt>
      <trkpt lat="45.74906" lon="6.60453">
        <ele>1458</ele>
        <time>2022-07-17T01:10:09Z</time>
      </trkpt>
      <trkpt lat="45.74908" lon="6.60454">
        <ele>1456</ele>
        <time>2022-07-17T01:10:11Z</time>
      </trkpt>
      <trkpt lat="45.7491" lon="6.60455">
        <ele>1455</ele>
        <time>2022-07-17T01:10:13Z</time>
      </trkpt>
      <trkpt lat="45.74912" lon="6.60456">
        <ele>1455</ele>
        <time>2022-07-17T01:10:15Z</time>
      </trkpt>
      <trkpt lat="45.74915" lon="6.60458">
        <ele>1454</ele>
        <time>2022-07-17T01:10:17Z</time>
      </trkpt>
      <trkpt lat="45.74917" lon="6.6046">
        <ele>1454</ele>
        <time>2022-07-17T01:10:19Z</time>
      </trkpt>
      <trkpt lat="45.74918" lon="6.60462">
        <ele>1454</ele>
        <time>2022-07-17T01:10:21Z</time>
      </trkpt>
      <trkpt lat="45.74921" lon="6.60465">
        <ele>1452</ele>
        <time>2022-07-17T01:10:24Z</time>
      </trkpt>
      <trkpt lat="45.74922" lon="6.60468">
        <ele>1452</ele>
        <time>2022-07-17T01:10:26Z</time>
      </trkpt>
      <trkpt lat="45.74924" lon="6.6047">
        <ele>1452</ele>
        <time>2022-07-17T01:10:28Z</time>
      </trkpt>
      <trkpt lat="45.74925" lon="6.60473">
        <ele>1450</ele>
        <time>2022-07-17T01:10:30Z</time>
      </trkpt>
      <trkpt lat="45.74927" lon="6.60475">
        <ele>1450</ele>
        <time>2022-07-17T01:10:32Z</time>
      </trkpt>
      <trkpt lat="45.74928" lon="6.60478">
        <ele>1450</ele>
        <time>2022-07-17T01:10:34Z</time>
      </trkpt>
      <trkpt lat="45.74929" lon="6.60481">
        <ele>1449</ele>
        <time>2022-07-17T01:10:36Z</time>
      </trkpt>
      <trkpt lat="45.7493" lon="6.60484">
        <ele>1449</ele>
        <time>2022-07-17T01:10:39Z</time>
      </trkpt>
      <trkpt lat="45.74932" lon="6.60487">
        <ele>1448</ele>
        <time>2022-07-17T01:10:41Z</time>
      </trkpt>
      <trkpt lat="45.74934" lon="6.60489">
        <ele>1447</ele>
        <time>2022-07-17T01:10:43Z</time>
      </trkpt>
      <trkpt lat="45.74935" lon="6.60491">
        <ele>1446</ele>
        <time>2022-07-17T01:10:45Z</time>
      </trkpt>
      <trkpt lat="45.74936" lon="6.60493">
        <ele>1446</ele>
        <time>2022-07-17T01:10:48Z</time>
      </trkpt>
      <trkpt lat="45.74939" lon="6.60495">
        <ele>1446</ele>
        <time>2022-07-17T01:10:52Z</time>
      </trkpt>
      <trkpt lat="45.74941" lon="6.60497">
        <ele>1444</ele>
        <time>2022-07-17T01:10:55Z</time>
      </trkpt>
      <trkpt lat="45.74943" lon="6.60498">
        <ele>1444</ele>
        <time>2022-07-17T01:10:58Z</time>
      </trkpt>
      <trkpt lat="45.74945" lon="6.60496">
        <ele>1442</ele>
        <time>2022-07-17T01:11:01Z</time>
      </trkpt>
      <trkpt lat="45.74947" lon="6.60496">
        <ele>1442</ele>
        <time>2022-07-17T01:11:04Z</time>
      </trkpt>
      <trkpt lat="45.7495" lon="6.60494">
        <ele>1440</ele>
        <time>2022-07-17T01:11:12Z</time>
      </trkpt>
      <trkpt lat="45.74952" lon="6.60494">
        <ele>1439</ele>
        <time>2022-07-17T01:11:15Z</time>
      </trkpt>
      <trkpt lat="45.74952" lon="6.60496">
        <ele>1438</ele>
        <time>2022-07-17T01:11:21Z</time>
      </trkpt>
      <trkpt lat="45.74954" lon="6.60496">
        <ele>1437</ele>
        <time>2022-07-17T01:11:24Z</time>
      </trkpt>
      <trkpt lat="45.74957" lon="6.60496">
        <ele>1436</ele>
        <time>2022-07-17T01:11:28Z</time>
      </trkpt>
      <trkpt lat="45.74959" lon="6.60495">
        <ele>1435</ele>
        <time>2022-07-17T01:11:33Z</time>
      </trkpt>
      <trkpt lat="45.74961" lon="6.60494">
        <ele>1435</ele>
        <time>2022-07-17T01:11:35Z</time>
      </trkpt>
      <trkpt lat="45.74963" lon="6.60494">
        <ele>1434</ele>
        <time>2022-07-17T01:11:38Z</time>
      </trkpt>
      <trkpt lat="45.74966" lon="6.60494">
        <ele>1434</ele>
        <time>2022-07-17T01:11:41Z</time>
      </trkpt>
      <trkpt lat="45.74968" lon="6.60493">
        <ele>1432</ele>
        <time>2022-07-17T01:11:46Z</time>
      </trkpt>
      <trkpt lat="45.74971" lon="6.60492">
        <ele>1432</ele>
        <time>2022-07-17T01:11:48Z</time>
      </trkpt>
      <trkpt lat="45.74974" lon="6.60492">
        <ele>1432</ele>
        <time>2022-07-17T01:11:50Z</time>
      </trkpt>
      <trkpt lat="45.74976" lon="6.6049">
        <ele>1432</ele>
        <time>2022-07-17T01:11:52Z</time>
      </trkpt>
      <trkpt lat="45.74979" lon="6.6049">
        <ele>1431</ele>
        <time>2022-07-17T01:11:54Z</time>
      </trkpt>
      <trkpt lat="45.74982" lon="6.6049">
        <ele>1431</ele>
        <time>2022-07-17T01:11:56Z</time>
      </trkpt>
      <trkpt lat="45.74984" lon="6.60491">
        <ele>1430</ele>
        <time>2022-07-17T01:11:58Z</time>
      </trkpt>
      <trkpt lat="45.74987" lon="6.60491">
        <ele>1429</ele>
        <time>2022-07-17T01:12:00Z</time>
      </trkpt>
      <trkpt lat="45.7499" lon="6.60493">
        <ele>1429</ele>
        <time>2022-07-17T01:12:02Z</time>
      </trkpt>
      <trkpt lat="45.74992" lon="6.60494">
        <ele>1428</ele>
        <time>2022-07-17T01:12:04Z</time>
      </trkpt>
      <trkpt lat="45.74994" lon="6.60494">
        <ele>1427</ele>
        <time>2022-07-17T01:12:06Z</time>
      </trkpt>
      <trkpt lat="45.74996" lon="6.60494">
        <ele>1427</ele>
        <time>2022-07-17T01:12:08Z</time>
      </trkpt>
      <trkpt lat="45.74999" lon="6.60494">
        <ele>1427</ele>
        <time>2022-07-17T01:12:10Z</time>
      </trkpt>
      <trkpt lat="45.75002" lon="6.60496">
        <ele>1426</ele>
        <time>2022-07-17T01:12:12Z</time>
      </trkpt>
      <trkpt lat="45.75004" lon="6.60498">
        <ele>1425</ele>
        <time>2022-07-17T01:12:14Z</time>
      </trkpt>
      <trkpt lat="45.75007" lon="6.60499">
        <ele>1424</ele>
        <time>2022-07-17T01:12:16Z</time>
      </trkpt>
      <trkpt lat="45.75009" lon="6.60501">
        <ele>1424</ele>
        <time>2022-07-17T01:12:18Z</time>
      </trkpt>
      <trkpt lat="45.7501" lon="6.60504">
        <ele>1424</ele>
        <time>2022-07-17T01:12:20Z</time>
      </trkpt>
      <trkpt lat="45.75013" lon="6.60507">
        <ele>1423</ele>
        <time>2022-07-17T01:12:23Z</time>
      </trkpt>
      <trkpt lat="45.75015" lon="6.6051">
        <ele>1423</ele>
        <time>2022-07-17T01:12:25Z</time>
      </trkpt>
      <trkpt lat="45.75017" lon="6.60513">
        <ele>1422</ele>
        <time>2022-07-17T01:12:27Z</time>
      </trkpt>
      <trkpt lat="45.75019" lon="6.60515">
        <ele>1422</ele>
        <time>2022-07-17T01:12:28Z</time>
      </trkpt>
      <trkpt lat="45.75021" lon="6.60518">
        <ele>1422</ele>
        <time>2022-07-17T01:12:30Z</time>
      </trkpt>
      <trkpt lat="45.75022" lon="6.60521">
        <ele>1422</ele>
        <time>2022-07-17T01:12:32Z</time>
      </trkpt>
      <trkpt lat="45.75022" lon="6.60524">
        <ele>1421</ele>
        <time>2022-07-17T01:12:34Z</time>
      </trkpt>
      <trkpt lat="45.75021" lon="6.60521">
        <ele>1419</ele>
        <time>2022-07-17T01:12:40Z</time>
      </trkpt>
      <trkpt lat="45.75021" lon="6.60518">
        <ele>1418</ele>
        <time>2022-07-17T01:12:43Z</time>
      </trkpt>
      <trkpt lat="45.75019" lon="6.60515">
        <ele>1419</ele>
        <time>2022-07-17T01:12:47Z</time>
      </trkpt>
      <trkpt lat="45.75017" lon="6.60514">
        <ele>1418</ele>
        <time>2022-07-17T01:12:50Z</time>
      </trkpt>
      <trkpt lat="45.75016" lon="6.60511">
        <ele>1418</ele>
        <time>2022-07-17T01:12:53Z</time>
      </trkpt>
      <trkpt lat="45.75016" lon="6.60508">
        <ele>1418</ele>
        <time>2022-07-17T01:12:55Z</time>
      </trkpt>
      <trkpt lat="45.75016" lon="6.60503">
        <ele>1417</ele>
        <time>2022-07-17T01:12:58Z</time>
      </trkpt>
      <trkpt lat="45.75017" lon="6.60502">
        <ele>1416</ele>
        <time>2022-07-17T01:12:59Z</time>
      </trkpt>
      <trkpt lat="45.75017" lon="6.605">
        <ele>1416</ele>
        <time>2022-07-17T01:13:00Z</time>
      </trkpt>
      <trkpt lat="45.75017" lon="6.60498">
        <ele>1416</ele>
        <time>2022-07-17T01:13:01Z</time>
      </trkpt>
      <trkpt lat="45.75018" lon="6.60497">
        <ele>1415</ele>
        <time>2022-07-17T01:13:02Z</time>
      </trkpt>
      <trkpt lat="45.75021" lon="6.60496">
        <ele>1415</ele>
        <time>2022-07-17T01:13:03Z</time>
      </trkpt>
      <trkpt lat="45.75024" lon="6.60498">
        <ele>1415</ele>
        <time>2022-07-17T01:13:06Z</time>
      </trkpt>
      <trkpt lat="45.75027" lon="6.60498">
        <ele>1414</ele>
        <time>2022-07-17T01:13:08Z</time>
      </trkpt>
      <trkpt lat="45.7503" lon="6.60498">
        <ele>1414</ele>
        <time>2022-07-17T01:13:10Z</time>
      </trkpt>
      <trkpt lat="45.75032" lon="6.60498">
        <ele>1414</ele>
        <time>2022-07-17T01:13:12Z</time>
      </trkpt>
      <trkpt lat="45.75034" lon="6.60498">
        <ele>1413</ele>
        <time>2022-07-17T01:13:14Z</time>
      </trkpt>
      <trkpt lat="45.75037" lon="6.60498">
        <ele>1413</ele>
        <time>2022-07-17T01:13:16Z</time>
      </trkpt>
      <trkpt lat="45.75039" lon="6.60499">
        <ele>1413</ele>
        <time>2022-07-17T01:13:18Z</time>
      </trkpt>
      <trkpt lat="45.75042" lon="6.605">
        <ele>1412</ele>
        <time>2022-07-17T01:13:20Z</time>
      </trkpt>
      <trkpt lat="45.75044" lon="6.60501">
        <ele>1411</ele>
        <time>2022-07-17T01:13:22Z</time>
      </trkpt>
      <trkpt lat="45.75045" lon="6.60504">
        <ele>1411</ele>
        <time>2022-07-17T01:13:24Z</time>
      </trkpt>
      <trkpt lat="45.75045" lon="6.60508">
        <ele>1411</ele>
        <time>2022-07-17T01:13:26Z</time>
      </trkpt>
      <trkpt lat="45.75046" lon="6.60511">
        <ele>1410</ele>
        <time>2022-07-17T01:13:28Z</time>
      </trkpt>
      <trkpt lat="45.75048" lon="6.60515">
        <ele>1410</ele>
        <time>2022-07-17T01:13:30Z</time>
      </trkpt>
      <trkpt lat="45.75048" lon="6.60518">
        <ele>1410</ele>
        <time>2022-07-17T01:13:31Z</time>
      </trkpt>
      <trkpt lat="45.75049" lon="6.60521">
        <ele>1410</ele>
        <time>2022-07-17T01:13:33Z</time>
      </trkpt>
      <trkpt lat="45.75051" lon="6.60521">
        <ele>1408</ele>
        <time>2022-07-17T01:13:37Z</time>
      </trkpt>
      <trkpt lat="45.75053" lon="6.60522">
        <ele>1408</ele>
        <time>2022-07-17T01:13:39Z</time>
      </trkpt>
      <trkpt lat="45.75055" lon="6.60524">
        <ele>1407</ele>
        <time>2022-07-17T01:13:41Z</time>
      </trkpt>
      <trkpt lat="45.75058" lon="6.60526">
        <ele>1407</ele>
        <time>2022-07-17T01:13:43Z</time>
      </trkpt>
      <trkpt lat="45.75059" lon="6.60528">
        <ele>1407</ele>
        <time>2022-07-17T01:13:45Z</time>
      </trkpt>
      <trkpt lat="45.75061" lon="6.6053">
        <ele>1404</ele>
        <time>2022-07-17T01:13:48Z</time>
      </trkpt>
      <trkpt lat="45.75063" lon="6.60531">
        <ele>1404</ele>
        <time>2022-07-17T01:13:50Z</time>
      </trkpt>
      <trkpt lat="45.75065" lon="6.60533">
        <ele>1403</ele>
        <time>2022-07-17T01:13:52Z</time>
      </trkpt>
      <trkpt lat="45.75067" lon="6.60535">
        <ele>1403</ele>
        <time>2022-07-17T01:13:54Z</time>
      </trkpt>
      <trkpt lat="45.7507" lon="6.60535">
        <ele>1403</ele>
        <time>2022-07-17T01:13:57Z</time>
      </trkpt>
      <trkpt lat="45.75072" lon="6.60537">
        <ele>1402</ele>
        <time>2022-07-17T01:14:00Z</time>
      </trkpt>
      <trkpt lat="45.75073" lon="6.60538">
        <ele>1402</ele>
        <time>2022-07-17T01:14:02Z</time>
      </trkpt>
      <trkpt lat="45.75075" lon="6.6054">
        <ele>1401</ele>
        <time>2022-07-17T01:14:04Z</time>
      </trkpt>
      <trkpt lat="45.75076" lon="6.60543">
        <ele>1400</ele>
        <time>2022-07-17T01:14:07Z</time>
      </trkpt>
      <trkpt lat="45.75078" lon="6.60545">
        <ele>1399</ele>
        <time>2022-07-17T01:14:09Z</time>
      </trkpt>
      <trkpt lat="45.7508" lon="6.60545">
        <ele>1399</ele>
        <time>2022-07-17T01:14:11Z</time>
      </trkpt>
      <trkpt lat="45.75082" lon="6.60546">
        <ele>1397</ele>
        <time>2022-07-17T01:14:14Z</time>
      </trkpt>
      <trkpt lat="45.75083" lon="6.60545">
        <ele>1397</ele>
        <time>2022-07-17T01:14:17Z</time>
      </trkpt>
      <trkpt lat="45.75087" lon="6.60544">
        <ele>1395</ele>
        <time>2022-07-17T01:14:20Z</time>
      </trkpt>
      <trkpt lat="45.75089" lon="6.60544">
        <ele>1394</ele>
        <time>2022-07-17T01:14:22Z</time>
      </trkpt>
      <trkpt lat="45.75092" lon="6.60544">
        <ele>1393</ele>
        <time>2022-07-17T01:14:25Z</time>
      </trkpt>
      <trkpt lat="45.75094" lon="6.60544">
        <ele>1392</ele>
        <time>2022-07-17T01:14:27Z</time>
      </trkpt>
      <trkpt lat="45.75096" lon="6.60544">
        <ele>1392</ele>
        <time>2022-07-17T01:14:28Z</time>
      </trkpt>
      <trkpt lat="45.75097" lon="6.60545">
        <ele>1392</ele>
        <time>2022-07-17T01:14:29Z</time>
      </trkpt>
      <trkpt lat="45.75099" lon="6.60545">
        <ele>1391</ele>
        <time>2022-07-17T01:14:30Z</time>
      </trkpt>
      <trkpt lat="45.75101" lon="6.60548">
        <ele>1390</ele>
        <time>2022-07-17T01:14:32Z</time>
      </trkpt>
      <trkpt lat="45.75103" lon="6.60549">
        <ele>1390</ele>
        <time>2022-07-17T01:14:34Z</time>
      </trkpt>
      <trkpt lat="45.75106" lon="6.60549">
        <ele>1388</ele>
        <time>2022-07-17T01:14:36Z</time>
      </trkpt>
      <trkpt lat="45.75108" lon="6.60549">
        <ele>1388</ele>
        <time>2022-07-17T01:14:38Z</time>
      </trkpt>
      <trkpt lat="45.7511" lon="6.6055">
        <ele>1388</ele>
        <time>2022-07-17T01:14:40Z</time>
      </trkpt>
      <trkpt lat="45.75113" lon="6.60551">
        <ele>1387</ele>
        <time>2022-07-17T01:14:42Z</time>
      </trkpt>
      <trkpt lat="45.75116" lon="6.60553">
        <ele>1387</ele>
        <time>2022-07-17T01:14:44Z</time>
      </trkpt>
      <trkpt lat="45.75118" lon="6.60556">
        <ele>1385</ele>
        <time>2022-07-17T01:14:46Z</time>
      </trkpt>
      <trkpt lat="45.7512" lon="6.60558">
        <ele>1385</ele>
        <time>2022-07-17T01:14:48Z</time>
      </trkpt>
      <trkpt lat="45.75122" lon="6.60559">
        <ele>1385</ele>
        <time>2022-07-17T01:14:50Z</time>
      </trkpt>
      <trkpt lat="45.75125" lon="6.6056">
        <ele>1384</ele>
        <time>2022-07-17T01:14:52Z</time>
      </trkpt>
      <trkpt lat="45.75127" lon="6.6056">
        <ele>1383</ele>
        <time>2022-07-17T01:14:55Z</time>
      </trkpt>
      <trkpt lat="45.75129" lon="6.6056">
        <ele>1382</ele>
        <time>2022-07-17T01:14:57Z</time>
      </trkpt>
      <trkpt lat="45.75132" lon="6.60562">
        <ele>1380</ele>
        <time>2022-07-17T01:14:59Z</time>
      </trkpt>
      <trkpt lat="45.75134" lon="6.60563">
        <ele>1380</ele>
        <time>2022-07-17T01:15:00Z</time>
      </trkpt>
      <trkpt lat="45.75136" lon="6.60563">
        <ele>1380</ele>
        <time>2022-07-17T01:15:01Z</time>
      </trkpt>
      <trkpt lat="45.75138" lon="6.60564">
        <ele>1380</ele>
        <time>2022-07-17T01:15:02Z</time>
      </trkpt>
      <trkpt lat="45.75141" lon="6.60564">
        <ele>1379</ele>
        <time>2022-07-17T01:15:03Z</time>
      </trkpt>
      <trkpt lat="45.75143" lon="6.60565">
        <ele>1379</ele>
        <time>2022-07-17T01:15:04Z</time>
      </trkpt>
      <trkpt lat="45.75145" lon="6.60567">
        <ele>1379</ele>
        <time>2022-07-17T01:15:05Z</time>
      </trkpt>
      <trkpt lat="45.75146" lon="6.6057">
        <ele>1377</ele>
        <time>2022-07-17T01:15:08Z</time>
      </trkpt>
      <trkpt lat="45.75148" lon="6.60572">
        <ele>1377</ele>
        <time>2022-07-17T01:15:09Z</time>
      </trkpt>
      <trkpt lat="45.7515" lon="6.60574">
        <ele>1377</ele>
        <time>2022-07-17T01:15:10Z</time>
      </trkpt>
      <trkpt lat="45.75151" lon="6.60575">
        <ele>1377</ele>
        <time>2022-07-17T01:15:11Z</time>
      </trkpt>
      <trkpt lat="45.75153" lon="6.60577">
        <ele>1377</ele>
        <time>2022-07-17T01:15:12Z</time>
      </trkpt>
      <trkpt lat="45.75154" lon="6.60578">
        <ele>1377</ele>
        <time>2022-07-17T01:15:13Z</time>
      </trkpt>
      <trkpt lat="45.75156" lon="6.6058">
        <ele>1377</ele>
        <time>2022-07-17T01:15:14Z</time>
      </trkpt>
      <trkpt lat="45.75158" lon="6.60582">
        <ele>1377</ele>
        <time>2022-07-17T01:15:15Z</time>
      </trkpt>
      <trkpt lat="45.75159" lon="6.60584">
        <ele>1377</ele>
        <time>2022-07-17T01:15:16Z</time>
      </trkpt>
      <trkpt lat="45.7516" lon="6.60585">
        <ele>1377</ele>
        <time>2022-07-17T01:15:17Z</time>
      </trkpt>
      <trkpt lat="45.75163" lon="6.60588">
        <ele>1377</ele>
        <time>2022-07-17T01:15:19Z</time>
      </trkpt>
      <trkpt lat="45.75165" lon="6.6059">
        <ele>1377</ele>
        <time>2022-07-17T01:15:20Z</time>
      </trkpt>
      <trkpt lat="45.75167" lon="6.60593">
        <ele>1376</ele>
        <time>2022-07-17T01:15:22Z</time>
      </trkpt>
      <trkpt lat="45.7517" lon="6.60593">
        <ele>1376</ele>
        <time>2022-07-17T01:15:24Z</time>
      </trkpt>
      <trkpt lat="45.75172" lon="6.60592">
        <ele>1376</ele>
        <time>2022-07-17T01:15:26Z</time>
      </trkpt>
      <trkpt lat="45.75174" lon="6.60591">
        <ele>1376</ele>
        <time>2022-07-17T01:15:29Z</time>
      </trkpt>
      <trkpt lat="45.75176" lon="6.60591">
        <ele>1376</ele>
        <time>2022-07-17T01:15:32Z</time>
      </trkpt>
      <trkpt lat="45.75178" lon="6.60591">
        <ele>1376</ele>
        <time>2022-07-17T01:15:36Z</time>
      </trkpt>
      <trkpt lat="45.7518" lon="6.60593">
        <ele>1375</ele>
        <time>2022-07-17T01:15:38Z</time>
      </trkpt>
      <trkpt lat="45.7518" lon="6.60596">
        <ele>1375</ele>
        <time>2022-07-17T01:15:41Z</time>
      </trkpt>
      <trkpt lat="45.7518" lon="6.60601">
        <ele>1374</ele>
        <time>2022-07-17T01:15:43Z</time>
      </trkpt>
      <trkpt lat="45.75182" lon="6.60604">
        <ele>1374</ele>
        <time>2022-07-17T01:15:45Z</time>
      </trkpt>
      <trkpt lat="45.75183" lon="6.60607">
        <ele>1373</ele>
        <time>2022-07-17T01:15:47Z</time>
      </trkpt>
      <trkpt lat="45.75184" lon="6.6061">
        <ele>1372</ele>
        <time>2022-07-17T01:15:49Z</time>
      </trkpt>
      <trkpt lat="45.75186" lon="6.6061">
        <ele>1371</ele>
        <time>2022-07-17T01:15:57Z</time>
      </trkpt>
      <trkpt lat="45.75188" lon="6.6061">
        <ele>1369</ele>
        <time>2022-07-17T01:15:59Z</time>
      </trkpt>
      <trkpt lat="45.7519" lon="6.6061">
        <ele>1366</ele>
        <time>2022-07-17T01:16:05Z</time>
      </trkpt>
      <trkpt lat="45.75192" lon="6.60609">
        <ele>1366</ele>
        <time>2022-07-17T01:16:07Z</time>
      </trkpt>
      <trkpt lat="45.75194" lon="6.60608">
        <ele>1366</ele>
        <time>2022-07-17T01:16:09Z</time>
      </trkpt>
      <trkpt lat="45.75197" lon="6.60606">
        <ele>1365</ele>
        <time>2022-07-17T01:16:12Z</time>
      </trkpt>
      <trkpt lat="45.75199" lon="6.60603">
        <ele>1364</ele>
        <time>2022-07-17T01:16:15Z</time>
      </trkpt>
      <trkpt lat="45.752" lon="6.60601">
        <ele>1363</ele>
        <time>2022-07-17T01:16:17Z</time>
      </trkpt>
      <trkpt lat="45.75203" lon="6.606">
        <ele>1363</ele>
        <time>2022-07-17T01:16:19Z</time>
      </trkpt>
      <trkpt lat="45.75205" lon="6.60599">
        <ele>1362</ele>
        <time>2022-07-17T01:16:21Z</time>
      </trkpt>
      <trkpt lat="45.75207" lon="6.60599">
        <ele>1361</ele>
        <time>2022-07-17T01:16:23Z</time>
      </trkpt>
      <trkpt lat="45.75209" lon="6.60599">
        <ele>1360</ele>
        <time>2022-07-17T01:16:27Z</time>
      </trkpt>
      <trkpt lat="45.75211" lon="6.60597">
        <ele>1358</ele>
        <time>2022-07-17T01:16:30Z</time>
      </trkpt>
      <trkpt lat="45.75213" lon="6.60596">
        <ele>1357</ele>
        <time>2022-07-17T01:16:32Z</time>
      </trkpt>
      <trkpt lat="45.75216" lon="6.60595">
        <ele>1357</ele>
        <time>2022-07-17T01:16:34Z</time>
      </trkpt>
      <trkpt lat="45.75218" lon="6.60593">
        <ele>1356</ele>
        <time>2022-07-17T01:16:36Z</time>
      </trkpt>
      <trkpt lat="45.7522" lon="6.60592">
        <ele>1356</ele>
        <time>2022-07-17T01:16:38Z</time>
      </trkpt>
      <trkpt lat="45.75222" lon="6.6059">
        <ele>1356</ele>
        <time>2022-07-17T01:16:40Z</time>
      </trkpt>
      <trkpt lat="45.75224" lon="6.60588">
        <ele>1355</ele>
        <time>2022-07-17T01:16:42Z</time>
      </trkpt>
      <trkpt lat="45.75225" lon="6.60586">
        <ele>1354</ele>
        <time>2022-07-17T01:16:44Z</time>
      </trkpt>
      <trkpt lat="45.75226" lon="6.60583">
        <ele>1353</ele>
        <time>2022-07-17T01:16:47Z</time>
      </trkpt>
      <trkpt lat="45.75228" lon="6.60579">
        <ele>1351</ele>
        <time>2022-07-17T01:16:50Z</time>
      </trkpt>
      <trkpt lat="45.75229" lon="6.60578">
        <ele>1351</ele>
        <time>2022-07-17T01:16:52Z</time>
      </trkpt>
      <trkpt lat="45.75232" lon="6.6058">
        <ele>1351</ele>
        <time>2022-07-17T01:16:54Z</time>
      </trkpt>
      <trkpt lat="45.75234" lon="6.60583">
        <ele>1350</ele>
        <time>2022-07-17T01:16:56Z</time>
      </trkpt>
      <trkpt lat="45.75236" lon="6.60583">
        <ele>1349</ele>
        <time>2022-07-17T01:16:59Z</time>
      </trkpt>
      <trkpt lat="45.75236" lon="6.6058">
        <ele>1349</ele>
        <time>2022-07-17T01:17:02Z</time>
      </trkpt>
      <trkpt lat="45.75237" lon="6.60579">
        <ele>1349</ele>
        <time>2022-07-17T01:17:06Z</time>
      </trkpt>
      <trkpt lat="45.75239" lon="6.6058">
        <ele>1347</ele>
        <time>2022-07-17T01:17:09Z</time>
      </trkpt>
      <trkpt lat="45.75241" lon="6.6058">
        <ele>1346</ele>
        <time>2022-07-17T01:17:16Z</time>
      </trkpt>
      <trkpt lat="45.75243" lon="6.60581">
        <ele>1344</ele>
        <time>2022-07-17T01:17:19Z</time>
      </trkpt>
      <trkpt lat="45.75245" lon="6.60581">
        <ele>1343</ele>
        <time>2022-07-17T01:17:21Z</time>
      </trkpt>
      <trkpt lat="45.75247" lon="6.60579">
        <ele>1342</ele>
        <time>2022-07-17T01:17:24Z</time>
      </trkpt>
      <trkpt lat="45.75249" lon="6.60577">
        <ele>1342</ele>
        <time>2022-07-17T01:17:26Z</time>
      </trkpt>
      <trkpt lat="45.75251" lon="6.60577">
        <ele>1341</ele>
        <time>2022-07-17T01:17:28Z</time>
      </trkpt>
      <trkpt lat="45.75253" lon="6.60578">
        <ele>1341</ele>
        <time>2022-07-17T01:17:30Z</time>
      </trkpt>
      <trkpt lat="45.75255" lon="6.60578">
        <ele>1338</ele>
        <time>2022-07-17T01:17:36Z</time>
      </trkpt>
      <trkpt lat="45.75257" lon="6.60578">
        <ele>1337</ele>
        <time>2022-07-17T01:17:40Z</time>
      </trkpt>
      <trkpt lat="45.75259" lon="6.60577">
        <ele>1337</ele>
        <time>2022-07-17T01:17:42Z</time>
      </trkpt>
      <trkpt lat="45.75262" lon="6.60576">
        <ele>1336</ele>
        <time>2022-07-17T01:17:44Z</time>
      </trkpt>
      <trkpt lat="45.75264" lon="6.60575">
        <ele>1335</ele>
        <time>2022-07-17T01:17:46Z</time>
      </trkpt>
      <trkpt lat="45.75265" lon="6.60574">
        <ele>1334</ele>
        <time>2022-07-17T01:17:48Z</time>
      </trkpt>
      <trkpt lat="45.75267" lon="6.60573">
        <ele>1334</ele>
        <time>2022-07-17T01:17:50Z</time>
      </trkpt>
      <trkpt lat="45.75269" lon="6.60572">
        <ele>1334</ele>
        <time>2022-07-17T01:17:52Z</time>
      </trkpt>
      <trkpt lat="45.75271" lon="6.60571">
        <ele>1333</ele>
        <time>2022-07-17T01:17:54Z</time>
      </trkpt>
      <trkpt lat="45.75273" lon="6.6057">
        <ele>1331</ele>
        <time>2022-07-17T01:17:56Z</time>
      </trkpt>
      <trkpt lat="45.75275" lon="6.60569">
        <ele>1331</ele>
        <time>2022-07-17T01:18:00Z</time>
      </trkpt>
      <trkpt lat="45.75277" lon="6.60569">
        <ele>1330</ele>
        <time>2022-07-17T01:18:02Z</time>
      </trkpt>
      <trkpt lat="45.75279" lon="6.60568">
        <ele>1329</ele>
        <time>2022-07-17T01:18:04Z</time>
      </trkpt>
      <trkpt lat="45.75282" lon="6.60568">
        <ele>1329</ele>
        <time>2022-07-17T01:18:06Z</time>
      </trkpt>
      <trkpt lat="45.75283" lon="6.60568">
        <ele>1328</ele>
        <time>2022-07-17T01:18:08Z</time>
      </trkpt>
      <trkpt lat="45.75286" lon="6.60567">
        <ele>1327</ele>
        <time>2022-07-17T01:18:10Z</time>
      </trkpt>
      <trkpt lat="45.75288" lon="6.60566">
        <ele>1326</ele>
        <time>2022-07-17T01:18:12Z</time>
      </trkpt>
      <trkpt lat="45.7529" lon="6.60566">
        <ele>1325</ele>
        <time>2022-07-17T01:18:14Z</time>
      </trkpt>
      <trkpt lat="45.75292" lon="6.60565">
        <ele>1325</ele>
        <time>2022-07-17T01:18:16Z</time>
      </trkpt>
      <trkpt lat="45.75294" lon="6.60564">
        <ele>1324</ele>
        <time>2022-07-17T01:18:18Z</time>
      </trkpt>
      <trkpt lat="45.75296" lon="6.60564">
        <ele>1324</ele>
        <time>2022-07-17T01:18:20Z</time>
      </trkpt>
      <trkpt lat="45.75299" lon="6.60563">
        <ele>1324</ele>
        <time>2022-07-17T01:18:22Z</time>
      </trkpt>
      <trkpt lat="45.75301" lon="6.60563">
        <ele>1323</ele>
        <time>2022-07-17T01:18:24Z</time>
      </trkpt>
      <trkpt lat="45.75303" lon="6.60562">
        <ele>1322</ele>
        <time>2022-07-17T01:18:26Z</time>
      </trkpt>
      <trkpt lat="45.75305" lon="6.60561">
        <ele>1322</ele>
        <time>2022-07-17T01:18:28Z</time>
      </trkpt>
      <trkpt lat="45.75307" lon="6.60562">
        <ele>1321</ele>
        <time>2022-07-17T01:18:31Z</time>
      </trkpt>
      <trkpt lat="45.75309" lon="6.60561">
        <ele>1319</ele>
        <time>2022-07-17T01:18:35Z</time>
      </trkpt>
      <trkpt lat="45.7531" lon="6.60558">
        <ele>1318</ele>
        <time>2022-07-17T01:18:38Z</time>
      </trkpt>
      <trkpt lat="45.75311" lon="6.60555">
        <ele>1318</ele>
        <time>2022-07-17T01:18:41Z</time>
      </trkpt>
      <trkpt lat="45.75312" lon="6.60552">
        <ele>1315</ele>
        <time>2022-07-17T01:18:44Z</time>
      </trkpt>
      <trkpt lat="45.75313" lon="6.6055">
        <ele>1315</ele>
        <time>2022-07-17T01:18:47Z</time>
      </trkpt>
      <trkpt lat="45.75313" lon="6.60547">
        <ele>1314</ele>
        <time>2022-07-17T01:18:50Z</time>
      </trkpt>
      <trkpt lat="45.75314" lon="6.60544">
        <ele>1314</ele>
        <time>2022-07-17T01:18:52Z</time>
      </trkpt>
      <trkpt lat="45.75314" lon="6.60542">
        <ele>1313</ele>
        <time>2022-07-17T01:18:54Z</time>
      </trkpt>
      <trkpt lat="45.75314" lon="6.60538">
        <ele>1313</ele>
        <time>2022-07-17T01:18:56Z</time>
      </trkpt>
      <trkpt lat="45.75313" lon="6.60535">
        <ele>1313</ele>
        <time>2022-07-17T01:18:58Z</time>
      </trkpt>
      <trkpt lat="45.75313" lon="6.60532">
        <ele>1313</ele>
        <time>2022-07-17T01:19:00Z</time>
      </trkpt>
      <trkpt lat="45.75313" lon="6.60528">
        <ele>1311</ele>
        <time>2022-07-17T01:19:02Z</time>
      </trkpt>
      <trkpt lat="45.75313" lon="6.60524">
        <ele>1310</ele>
        <time>2022-07-17T01:19:04Z</time>
      </trkpt>
      <trkpt lat="45.75313" lon="6.60521">
        <ele>1310</ele>
        <time>2022-07-17T01:19:06Z</time>
      </trkpt>
      <trkpt lat="45.75314" lon="6.60516">
        <ele>1310</ele>
        <time>2022-07-17T01:19:08Z</time>
      </trkpt>
      <trkpt lat="45.75314" lon="6.60514">
        <ele>1309</ele>
        <time>2022-07-17T01:19:09Z</time>
      </trkpt>
      <trkpt lat="45.75314" lon="6.6051">
        <ele>1309</ele>
        <time>2022-07-17T01:19:11Z</time>
      </trkpt>
      <trkpt lat="45.75315" lon="6.60507">
        <ele>1309</ele>
        <time>2022-07-17T01:19:14Z</time>
      </trkpt>
      <trkpt lat="45.75317" lon="6.60506">
        <ele>1309</ele>
        <time>2022-07-17T01:19:16Z</time>
      </trkpt>
      <trkpt lat="45.75318" lon="6.60503">
        <ele>1308</ele>
        <time>2022-07-17T01:19:18Z</time>
      </trkpt>
      <trkpt lat="45.75319" lon="6.60501">
        <ele>1307</ele>
        <time>2022-07-17T01:19:19Z</time>
      </trkpt>
      <trkpt lat="45.75321" lon="6.60499">
        <ele>1306</ele>
        <time>2022-07-17T01:19:22Z</time>
      </trkpt>
      <trkpt lat="45.75324" lon="6.60498">
        <ele>1305</ele>
        <time>2022-07-17T01:19:24Z</time>
      </trkpt>
      <trkpt lat="45.75326" lon="6.60496">
        <ele>1305</ele>
        <time>2022-07-17T01:19:26Z</time>
      </trkpt>
      <trkpt lat="45.75328" lon="6.60494">
        <ele>1305</ele>
        <time>2022-07-17T01:19:28Z</time>
      </trkpt>
      <trkpt lat="45.7533" lon="6.60492">
        <ele>1303</ele>
        <time>2022-07-17T01:19:30Z</time>
      </trkpt>
      <trkpt lat="45.75332" lon="6.60491">
        <ele>1302</ele>
        <time>2022-07-17T01:19:32Z</time>
      </trkpt>
      <trkpt lat="45.75333" lon="6.60488">
        <ele>1301</ele>
        <time>2022-07-17T01:19:35Z</time>
      </trkpt>
      <trkpt lat="45.75333" lon="6.60485">
        <ele>1300</ele>
        <time>2022-07-17T01:19:38Z</time>
      </trkpt>
      <trkpt lat="45.75335" lon="6.60484">
        <ele>1299</ele>
        <time>2022-07-17T01:19:41Z</time>
      </trkpt>
      <trkpt lat="45.75336" lon="6.60481">
        <ele>1299</ele>
        <time>2022-07-17T01:19:44Z</time>
      </trkpt>
      <trkpt lat="45.75339" lon="6.6048">
        <ele>1298</ele>
        <time>2022-07-17T01:19:47Z</time>
      </trkpt>
      <trkpt lat="45.75341" lon="6.6048">
        <ele>1297</ele>
        <time>2022-07-17T01:19:50Z</time>
      </trkpt>
      <trkpt lat="45.75344" lon="6.60478">
        <ele>1296</ele>
        <time>2022-07-17T01:19:52Z</time>
      </trkpt>
      <trkpt lat="45.75346" lon="6.60476">
        <ele>1295</ele>
        <time>2022-07-17T01:19:55Z</time>
      </trkpt>
      <trkpt lat="45.75348" lon="6.60474">
        <ele>1295</ele>
        <time>2022-07-17T01:19:57Z</time>
      </trkpt>
      <trkpt lat="45.7535" lon="6.60473">
        <ele>1295</ele>
        <time>2022-07-17T01:20:01Z</time>
      </trkpt>
      <trkpt lat="45.75351" lon="6.60471">
        <ele>1294</ele>
        <time>2022-07-17T01:20:04Z</time>
      </trkpt>
      <trkpt lat="45.75353" lon="6.60469">
        <ele>1293</ele>
        <time>2022-07-17T01:20:07Z</time>
      </trkpt>
      <trkpt lat="45.75355" lon="6.60466">
        <ele>1293</ele>
        <time>2022-07-17T01:20:10Z</time>
      </trkpt>
      <trkpt lat="45.75356" lon="6.60463">
        <ele>1292</ele>
        <time>2022-07-17T01:20:13Z</time>
      </trkpt>
      <trkpt lat="45.75358" lon="6.60461">
        <ele>1291</ele>
        <time>2022-07-17T01:20:15Z</time>
      </trkpt>
      <trkpt lat="45.7536" lon="6.60458">
        <ele>1291</ele>
        <time>2022-07-17T01:20:17Z</time>
      </trkpt>
      <trkpt lat="45.75362" lon="6.60456">
        <ele>1289</ele>
        <time>2022-07-17T01:20:19Z</time>
      </trkpt>
      <trkpt lat="45.75363" lon="6.60452">
        <ele>1288</ele>
        <time>2022-07-17T01:20:22Z</time>
      </trkpt>
      <trkpt lat="45.75365" lon="6.6045">
        <ele>1288</ele>
        <time>2022-07-17T01:20:25Z</time>
      </trkpt>
      <trkpt lat="45.75366" lon="6.60448">
        <ele>1287</ele>
        <time>2022-07-17T01:20:27Z</time>
      </trkpt>
      <trkpt lat="45.75367" lon="6.60445">
        <ele>1287</ele>
        <time>2022-07-17T01:20:29Z</time>
      </trkpt>
      <trkpt lat="45.75369" lon="6.60442">
        <ele>1286</ele>
        <time>2022-07-17T01:20:31Z</time>
      </trkpt>
      <trkpt lat="45.75371" lon="6.6044">
        <ele>1286</ele>
        <time>2022-07-17T01:20:33Z</time>
      </trkpt>
      <trkpt lat="45.75372" lon="6.60438">
        <ele>1285</ele>
        <time>2022-07-17T01:20:35Z</time>
      </trkpt>
      <trkpt lat="45.75374" lon="6.60435">
        <ele>1285</ele>
        <time>2022-07-17T01:20:37Z</time>
      </trkpt>
      <trkpt lat="45.75376" lon="6.60432">
        <ele>1284</ele>
        <time>2022-07-17T01:20:39Z</time>
      </trkpt>
      <trkpt lat="45.75378" lon="6.60432">
        <ele>1282</ele>
        <time>2022-07-17T01:20:41Z</time>
      </trkpt>
      <trkpt lat="45.7538" lon="6.6043">
        <ele>1282</ele>
        <time>2022-07-17T01:20:43Z</time>
      </trkpt>
      <trkpt lat="45.75381" lon="6.60427">
        <ele>1281</ele>
        <time>2022-07-17T01:20:45Z</time>
      </trkpt>
      <trkpt lat="45.75383" lon="6.60425">
        <ele>1280</ele>
        <time>2022-07-17T01:20:47Z</time>
      </trkpt>
      <trkpt lat="45.75385" lon="6.60424">
        <ele>1280</ele>
        <time>2022-07-17T01:20:49Z</time>
      </trkpt>
      <trkpt lat="45.75386" lon="6.60422">
        <ele>1279</ele>
        <time>2022-07-17T01:20:51Z</time>
      </trkpt>
      <trkpt lat="45.75388" lon="6.60418">
        <ele>1278</ele>
        <time>2022-07-17T01:20:53Z</time>
      </trkpt>
      <trkpt lat="45.75391" lon="6.60415">
        <ele>1278</ele>
        <time>2022-07-17T01:20:55Z</time>
      </trkpt>
      <trkpt lat="45.75393" lon="6.60415">
        <ele>1278</ele>
        <time>2022-07-17T01:20:57Z</time>
      </trkpt>
      <trkpt lat="45.75395" lon="6.60414">
        <ele>1277</ele>
        <time>2022-07-17T01:20:59Z</time>
      </trkpt>
      <trkpt lat="45.75397" lon="6.60411">
        <ele>1276</ele>
        <time>2022-07-17T01:21:03Z</time>
      </trkpt>
      <trkpt lat="45.75399" lon="6.60409">
        <ele>1275</ele>
        <time>2022-07-17T01:21:06Z</time>
      </trkpt>
      <trkpt lat="45.754" lon="6.60406">
        <ele>1274</ele>
        <time>2022-07-17T01:21:08Z</time>
      </trkpt>
      <trkpt lat="45.75401" lon="6.60404">
        <ele>1274</ele>
        <time>2022-07-17T01:21:11Z</time>
      </trkpt>
      <trkpt lat="45.75403" lon="6.60402">
        <ele>1273</ele>
        <time>2022-07-17T01:21:13Z</time>
      </trkpt>
      <trkpt lat="45.75405" lon="6.60399">
        <ele>1272</ele>
        <time>2022-07-17T01:21:15Z</time>
      </trkpt>
      <trkpt lat="45.75407" lon="6.60397">
        <ele>1271</ele>
        <time>2022-07-17T01:21:17Z</time>
      </trkpt>
      <trkpt lat="45.75409" lon="6.60395">
        <ele>1270</ele>
        <time>2022-07-17T01:21:19Z</time>
      </trkpt>
      <trkpt lat="45.75411" lon="6.60395">
        <ele>1270</ele>
        <time>2022-07-17T01:21:21Z</time>
      </trkpt>
      <trkpt lat="45.75413" lon="6.60393">
        <ele>1270</ele>
        <time>2022-07-17T01:21:23Z</time>
      </trkpt>
      <trkpt lat="45.75415" lon="6.60392">
        <ele>1269</ele>
        <time>2022-07-17T01:21:26Z</time>
      </trkpt>
      <trkpt lat="45.75417" lon="6.6039">
        <ele>1268</ele>
        <time>2022-07-17T01:21:29Z</time>
      </trkpt>
      <trkpt lat="45.75419" lon="6.60388">
        <ele>1267</ele>
        <time>2022-07-17T01:21:31Z</time>
      </trkpt>
      <trkpt lat="45.7542" lon="6.60386">
        <ele>1267</ele>
        <time>2022-07-17T01:21:33Z</time>
      </trkpt>
      <trkpt lat="45.75422" lon="6.60384">
        <ele>1266</ele>
        <time>2022-07-17T01:21:35Z</time>
      </trkpt>
      <trkpt lat="45.75424" lon="6.60382">
        <ele>1265</ele>
        <time>2022-07-17T01:21:37Z</time>
      </trkpt>
      <trkpt lat="45.75425" lon="6.6038">
        <ele>1265</ele>
        <time>2022-07-17T01:21:39Z</time>
      </trkpt>
      <trkpt lat="45.75426" lon="6.60377">
        <ele>1264</ele>
        <time>2022-07-17T01:21:41Z</time>
      </trkpt>
      <trkpt lat="45.75427" lon="6.60375">
        <ele>1264</ele>
        <time>2022-07-17T01:21:43Z</time>
      </trkpt>
      <trkpt lat="45.75429" lon="6.60373">
        <ele>1263</ele>
        <time>2022-07-17T01:21:45Z</time>
      </trkpt>
      <trkpt lat="45.7543" lon="6.60371">
        <ele>1262</ele>
        <time>2022-07-17T01:21:47Z</time>
      </trkpt>
      <trkpt lat="45.75432" lon="6.60369">
        <ele>1262</ele>
        <time>2022-07-17T01:21:50Z</time>
      </trkpt>
      <trkpt lat="45.75434" lon="6.60367">
        <ele>1262</ele>
        <time>2022-07-17T01:21:52Z</time>
      </trkpt>
      <trkpt lat="45.75438" lon="6.60366">
        <ele>1260</ele>
        <time>2022-07-17T01:21:54Z</time>
      </trkpt>
      <trkpt lat="45.75441" lon="6.60365">
        <ele>1260</ele>
        <time>2022-07-17T01:21:56Z</time>
      </trkpt>
      <trkpt lat="45.75443" lon="6.60364">
        <ele>1260</ele>
        <time>2022-07-17T01:21:58Z</time>
      </trkpt>
      <trkpt lat="45.75446" lon="6.60362">
        <ele>1259</ele>
        <time>2022-07-17T01:22:00Z</time>
      </trkpt>
      <trkpt lat="45.75448" lon="6.60361">
        <ele>1258</ele>
        <time>2022-07-17T01:22:02Z</time>
      </trkpt>
      <trkpt lat="45.75449" lon="6.6036">
        <ele>1257</ele>
        <time>2022-07-17T01:22:04Z</time>
      </trkpt>
      <trkpt lat="45.75452" lon="6.60359">
        <ele>1257</ele>
        <time>2022-07-17T01:22:06Z</time>
      </trkpt>
      <trkpt lat="45.75454" lon="6.60357">
        <ele>1256</ele>
        <time>2022-07-17T01:22:08Z</time>
      </trkpt>
      <trkpt lat="45.75457" lon="6.60354">
        <ele>1255</ele>
        <time>2022-07-17T01:22:10Z</time>
      </trkpt>
      <trkpt lat="45.7546" lon="6.60354">
        <ele>1253</ele>
        <time>2022-07-17T01:22:12Z</time>
      </trkpt>
      <trkpt lat="45.75463" lon="6.60355">
        <ele>1252</ele>
        <time>2022-07-17T01:22:14Z</time>
      </trkpt>
      <trkpt lat="45.75465" lon="6.60356">
        <ele>1252</ele>
        <time>2022-07-17T01:22:16Z</time>
      </trkpt>
      <trkpt lat="45.75468" lon="6.60359">
        <ele>1252</ele>
        <time>2022-07-17T01:22:18Z</time>
      </trkpt>
      <trkpt lat="45.7547" lon="6.60362">
        <ele>1252</ele>
        <time>2022-07-17T01:22:20Z</time>
      </trkpt>
      <trkpt lat="45.75472" lon="6.60365">
        <ele>1252</ele>
        <time>2022-07-17T01:22:22Z</time>
      </trkpt>
      <trkpt lat="45.75475" lon="6.60368">
        <ele>1252</ele>
        <time>2022-07-17T01:22:24Z</time>
      </trkpt>
      <trkpt lat="45.75477" lon="6.6037">
        <ele>1252</ele>
        <time>2022-07-17T01:22:26Z</time>
      </trkpt>
      <trkpt lat="45.75479" lon="6.60372">
        <ele>1252</ele>
        <time>2022-07-17T01:22:28Z</time>
      </trkpt>
      <trkpt lat="45.75481" lon="6.60374">
        <ele>1252</ele>
        <time>2022-07-17T01:22:30Z</time>
      </trkpt>
      <trkpt lat="45.75484" lon="6.60376">
        <ele>1252</ele>
        <time>2022-07-17T01:22:32Z</time>
      </trkpt>
      <trkpt lat="45.75486" lon="6.60377">
        <ele>1252</ele>
        <time>2022-07-17T01:22:34Z</time>
      </trkpt>
      <trkpt lat="45.75487" lon="6.60379">
        <ele>1252</ele>
        <time>2022-07-17T01:22:36Z</time>
      </trkpt>
      <trkpt lat="45.7549" lon="6.60379">
        <ele>1250</ele>
        <time>2022-07-17T01:22:39Z</time>
      </trkpt>
      <trkpt lat="45.75492" lon="6.60379">
        <ele>1249</ele>
        <time>2022-07-17T01:22:41Z</time>
      </trkpt>
      <trkpt lat="45.75495" lon="6.60379">
        <ele>1248</ele>
        <time>2022-07-17T01:22:43Z</time>
      </trkpt>
      <trkpt lat="45.75496" lon="6.6038">
        <ele>1248</ele>
        <time>2022-07-17T01:22:44Z</time>
      </trkpt>
      <trkpt lat="45.75499" lon="6.60383">
        <ele>1248</ele>
        <time>2022-07-17T01:22:46Z</time>
      </trkpt>
      <trkpt lat="45.75502" lon="6.60384">
        <ele>1248</ele>
        <time>2022-07-17T01:22:48Z</time>
      </trkpt>
      <trkpt lat="45.75505" lon="6.60386">
        <ele>1247</ele>
        <time>2022-07-17T01:22:50Z</time>
      </trkpt>
      <trkpt lat="45.75507" lon="6.60388">
        <ele>1246</ele>
        <time>2022-07-17T01:22:52Z</time>
      </trkpt>
      <trkpt lat="45.75509" lon="6.60391">
        <ele>1246</ele>
        <time>2022-07-17T01:22:54Z</time>
      </trkpt>
      <trkpt lat="45.75511" lon="6.60393">
        <ele>1246</ele>
        <time>2022-07-17T01:22:56Z</time>
      </trkpt>
      <trkpt lat="45.75512" lon="6.60395">
        <ele>1246</ele>
        <time>2022-07-17T01:22:58Z</time>
      </trkpt>
      <trkpt lat="45.75514" lon="6.60397">
        <ele>1246</ele>
        <time>2022-07-17T01:23:00Z</time>
      </trkpt>
      <trkpt lat="45.75515" lon="6.604">
        <ele>1246</ele>
        <time>2022-07-17T01:23:02Z</time>
      </trkpt>
      <trkpt lat="45.75516" lon="6.60403">
        <ele>1247</ele>
        <time>2022-07-17T01:23:05Z</time>
      </trkpt>
      <trkpt lat="45.75517" lon="6.60405">
        <ele>1246</ele>
        <time>2022-07-17T01:23:07Z</time>
      </trkpt>
      <trkpt lat="45.75519" lon="6.60407">
        <ele>1247</ele>
        <time>2022-07-17T01:23:09Z</time>
      </trkpt>
      <trkpt lat="45.7552" lon="6.60409">
        <ele>1247</ele>
        <time>2022-07-17T01:23:11Z</time>
      </trkpt>
      <trkpt lat="45.75521" lon="6.60411">
        <ele>1247</ele>
        <time>2022-07-17T01:23:13Z</time>
      </trkpt>
      <trkpt lat="45.75523" lon="6.60413">
        <ele>1246</ele>
        <time>2022-07-17T01:23:16Z</time>
      </trkpt>
      <trkpt lat="45.75526" lon="6.60414">
        <ele>1246</ele>
        <time>2022-07-17T01:23:19Z</time>
      </trkpt>
      <trkpt lat="45.75527" lon="6.60416">
        <ele>1245</ele>
        <time>2022-07-17T01:23:21Z</time>
      </trkpt>
      <trkpt lat="45.75528" lon="6.60419">
        <ele>1245</ele>
        <time>2022-07-17T01:23:23Z</time>
      </trkpt>
      <trkpt lat="45.75528" lon="6.60422">
        <ele>1245</ele>
        <time>2022-07-17T01:23:25Z</time>
      </trkpt>
      <trkpt lat="45.75529" lon="6.60425">
        <ele>1245</ele>
        <time>2022-07-17T01:23:26Z</time>
      </trkpt>
      <trkpt lat="45.7553" lon="6.60429">
        <ele>1244</ele>
        <time>2022-07-17T01:23:29Z</time>
      </trkpt>
      <trkpt lat="45.7553" lon="6.60433">
        <ele>1244</ele>
        <time>2022-07-17T01:23:31Z</time>
      </trkpt>
      <trkpt lat="45.75529" lon="6.60436">
        <ele>1244</ele>
        <time>2022-07-17T01:23:33Z</time>
      </trkpt>
      <trkpt lat="45.7553" lon="6.60437">
        <ele>1244</ele>
        <time>2022-07-17T01:23:35Z</time>
      </trkpt>
      <trkpt lat="45.75533" lon="6.60439">
        <ele>1244</ele>
        <time>2022-07-17T01:23:38Z</time>
      </trkpt>
      <trkpt lat="45.75535" lon="6.6044">
        <ele>1244</ele>
        <time>2022-07-17T01:23:41Z</time>
      </trkpt>
      <trkpt lat="45.75537" lon="6.60442">
        <ele>1244</ele>
        <time>2022-07-17T01:23:44Z</time>
      </trkpt>
      <trkpt lat="45.75538" lon="6.60444">
        <ele>1244</ele>
        <time>2022-07-17T01:23:47Z</time>
      </trkpt>
      <trkpt lat="45.7554" lon="6.60446">
        <ele>1245</ele>
        <time>2022-07-17T01:23:50Z</time>
      </trkpt>
      <trkpt lat="45.75542" lon="6.60448">
        <ele>1246</ele>
        <time>2022-07-17T01:23:52Z</time>
      </trkpt>
      <trkpt lat="45.75544" lon="6.6045">
        <ele>1246</ele>
        <time>2022-07-17T01:23:54Z</time>
      </trkpt>
      <trkpt lat="45.75545" lon="6.60454">
        <ele>1246</ele>
        <time>2022-07-17T01:23:56Z</time>
      </trkpt>
      <trkpt lat="45.75546" lon="6.60457">
        <ele>1246</ele>
        <time>2022-07-17T01:23:58Z</time>
      </trkpt>
      <trkpt lat="45.75547" lon="6.60459">
        <ele>1246</ele>
        <time>2022-07-17T01:24:01Z</time>
      </trkpt>
      <trkpt lat="45.75548" lon="6.60462">
        <ele>1246</ele>
        <time>2022-07-17T01:24:03Z</time>
      </trkpt>
      <trkpt lat="45.75549" lon="6.60464">
        <ele>1246</ele>
        <time>2022-07-17T01:24:04Z</time>
      </trkpt>
      <trkpt lat="45.7555" lon="6.60467">
        <ele>1246</ele>
        <time>2022-07-17T01:24:07Z</time>
      </trkpt>
      <trkpt lat="45.75551" lon="6.6047">
        <ele>1246</ele>
        <time>2022-07-17T01:24:09Z</time>
      </trkpt>
      <trkpt lat="45.75553" lon="6.60472">
        <ele>1246</ele>
        <time>2022-07-17T01:24:11Z</time>
      </trkpt>
      <trkpt lat="45.75553" lon="6.60474">
        <ele>1246</ele>
        <time>2022-07-17T01:24:13Z</time>
      </trkpt>
      <trkpt lat="45.75555" lon="6.60477">
        <ele>1246</ele>
        <time>2022-07-17T01:24:15Z</time>
      </trkpt>
      <trkpt lat="45.75555" lon="6.60479">
        <ele>1246</ele>
        <time>2022-07-17T01:24:17Z</time>
      </trkpt>
      <trkpt lat="45.75557" lon="6.60483">
        <ele>1246</ele>
        <time>2022-07-17T01:24:20Z</time>
      </trkpt>
      <trkpt lat="45.75557" lon="6.60486">
        <ele>1246</ele>
        <time>2022-07-17T01:24:22Z</time>
      </trkpt>
      <trkpt lat="45.75558" lon="6.60489">
        <ele>1246</ele>
        <time>2022-07-17T01:24:24Z</time>
      </trkpt>
      <trkpt lat="45.75559" lon="6.60492">
        <ele>1246</ele>
        <time>2022-07-17T01:24:26Z</time>
      </trkpt>
      <trkpt lat="45.7556" lon="6.60496">
        <ele>1246</ele>
        <time>2022-07-17T01:24:28Z</time>
      </trkpt>
      <trkpt lat="45.7556" lon="6.60499">
        <ele>1245</ele>
        <time>2022-07-17T01:24:30Z</time>
      </trkpt>
      <trkpt lat="45.7556" lon="6.60503">
        <ele>1244</ele>
        <time>2022-07-17T01:24:33Z</time>
      </trkpt>
      <trkpt lat="45.7556" lon="6.60507">
        <ele>1243</ele>
        <time>2022-07-17T01:24:36Z</time>
      </trkpt>
      <trkpt lat="45.75561" lon="6.6051">
        <ele>1243</ele>
        <time>2022-07-17T01:24:38Z</time>
      </trkpt>
      <trkpt lat="45.75561" lon="6.60513">
        <ele>1242</ele>
        <time>2022-07-17T01:24:40Z</time>
      </trkpt>
      <trkpt lat="45.75561" lon="6.60516">
        <ele>1242</ele>
        <time>2022-07-17T01:24:42Z</time>
      </trkpt>
      <trkpt lat="45.7556" lon="6.60519">
        <ele>1242</ele>
        <time>2022-07-17T01:24:44Z</time>
      </trkpt>
      <trkpt lat="45.75559" lon="6.60521">
        <ele>1241</ele>
        <time>2022-07-17T01:24:46Z</time>
      </trkpt>
      <trkpt lat="45.75561" lon="6.60526">
        <ele>1241</ele>
        <time>2022-07-17T01:24:54Z</time>
      </trkpt>
      <trkpt lat="45.75562" lon="6.60526">
        <ele>1241</ele>
        <time>2022-07-17T01:24:56Z</time>
      </trkpt>
      <trkpt lat="45.75563" lon="6.60527">
        <ele>1241</ele>
        <time>2022-07-17T01:24:59Z</time>
      </trkpt>
      <trkpt lat="45.75564" lon="6.60527">
        <ele>1241</ele>
        <time>2022-07-17T01:25:01Z</time>
      </trkpt>
      <trkpt lat="45.75566" lon="6.60529">
        <ele>1241</ele>
        <time>2022-07-17T01:25:05Z</time>
      </trkpt>
      <trkpt lat="45.75567" lon="6.60532">
        <ele>1242</ele>
        <time>2022-07-17T01:25:08Z</time>
      </trkpt>
      <trkpt lat="45.75568" lon="6.60532">
        <ele>1242</ele>
        <time>2022-07-17T01:25:09Z</time>
      </trkpt>
      <trkpt lat="45.75568" lon="6.60533">
        <ele>1242</ele>
        <time>2022-07-17T01:25:10Z</time>
      </trkpt>
      <trkpt lat="45.75569" lon="6.60533">
        <ele>1242</ele>
        <time>2022-07-17T01:25:11Z</time>
      </trkpt>
      <trkpt lat="45.7557" lon="6.60534">
        <ele>1242</ele>
        <time>2022-07-17T01:25:12Z</time>
      </trkpt>
      <trkpt lat="45.75571" lon="6.60534">
        <ele>1242</ele>
        <time>2022-07-17T01:25:13Z</time>
      </trkpt>
      <trkpt lat="45.75571" lon="6.60535">
        <ele>1242</ele>
        <time>2022-07-17T01:25:14Z</time>
      </trkpt>
      <trkpt lat="45.75572" lon="6.60535">
        <ele>1242</ele>
        <time>2022-07-17T01:25:15Z</time>
      </trkpt>
      <trkpt lat="45.75573" lon="6.60537">
        <ele>1242</ele>
        <time>2022-07-17T01:25:16Z</time>
      </trkpt>
      <trkpt lat="45.75574" lon="6.60538">
        <ele>1242</ele>
        <time>2022-07-17T01:25:17Z</time>
      </trkpt>
      <trkpt lat="45.75575" lon="6.60539">
        <ele>1242</ele>
        <time>2022-07-17T01:25:18Z</time>
      </trkpt>
      <trkpt lat="45.75576" lon="6.6054">
        <ele>1243</ele>
        <time>2022-07-17T01:25:19Z</time>
      </trkpt>
      <trkpt lat="45.75577" lon="6.60543">
        <ele>1243</ele>
        <time>2022-07-17T01:25:21Z</time>
      </trkpt>
      <trkpt lat="45.75578" lon="6.60544">
        <ele>1243</ele>
        <time>2022-07-17T01:25:22Z</time>
      </trkpt>
      <trkpt lat="45.75578" lon="6.60545">
        <ele>1243</ele>
        <time>2022-07-17T01:25:23Z</time>
      </trkpt>
      <trkpt lat="45.75579" lon="6.60546">
        <ele>1243</ele>
        <time>2022-07-17T01:25:24Z</time>
      </trkpt>
      <trkpt lat="45.7558" lon="6.60547">
        <ele>1243</ele>
        <time>2022-07-17T01:25:25Z</time>
      </trkpt>
      <trkpt lat="45.7558" lon="6.60548">
        <ele>1243</ele>
        <time>2022-07-17T01:25:26Z</time>
      </trkpt>
      <trkpt lat="45.75581" lon="6.60549">
        <ele>1243</ele>
        <time>2022-07-17T01:25:27Z</time>
      </trkpt>
      <trkpt lat="45.75582" lon="6.60553">
        <ele>1244</ele>
        <time>2022-07-17T01:25:29Z</time>
      </trkpt>
      <trkpt lat="45.75583" lon="6.60556">
        <ele>1244</ele>
        <time>2022-07-17T01:25:31Z</time>
      </trkpt>
      <trkpt lat="45.75584" lon="6.60559">
        <ele>1243</ele>
        <time>2022-07-17T01:25:35Z</time>
      </trkpt>
      <trkpt lat="45.75585" lon="6.60561">
        <ele>1242</ele>
        <time>2022-07-17T01:25:38Z</time>
      </trkpt>
      <trkpt lat="45.75586" lon="6.60564">
        <ele>1242</ele>
        <time>2022-07-17T01:25:40Z</time>
      </trkpt>
      <trkpt lat="45.75587" lon="6.60566">
        <ele>1241</ele>
        <time>2022-07-17T01:25:42Z</time>
      </trkpt>
      <trkpt lat="45.75587" lon="6.6057">
        <ele>1241</ele>
        <time>2022-07-17T01:25:44Z</time>
      </trkpt>
      <trkpt lat="45.75587" lon="6.60573">
        <ele>1241</ele>
        <time>2022-07-17T01:25:46Z</time>
      </trkpt>
      <trkpt lat="45.75587" lon="6.60576">
        <ele>1240</ele>
        <time>2022-07-17T01:25:48Z</time>
      </trkpt>
      <trkpt lat="45.75588" lon="6.60579">
        <ele>1240</ele>
        <time>2022-07-17T01:25:49Z</time>
      </trkpt>
      <trkpt lat="45.75589" lon="6.60581">
        <ele>1239</ele>
        <time>2022-07-17T01:25:50Z</time>
      </trkpt>
      <trkpt lat="45.7559" lon="6.60585">
        <ele>1239</ele>
        <time>2022-07-17T01:25:52Z</time>
      </trkpt>
      <trkpt lat="45.75591" lon="6.60586">
        <ele>1239</ele>
        <time>2022-07-17T01:25:53Z</time>
      </trkpt>
      <trkpt lat="45.75592" lon="6.60588">
        <ele>1238</ele>
        <time>2022-07-17T01:25:54Z</time>
      </trkpt>
      <trkpt lat="45.75593" lon="6.60589">
        <ele>1238</ele>
        <time>2022-07-17T01:25:55Z</time>
      </trkpt>
      <trkpt lat="45.75594" lon="6.60591">
        <ele>1238</ele>
        <time>2022-07-17T01:25:56Z</time>
      </trkpt>
      <trkpt lat="45.75595" lon="6.60592">
        <ele>1237</ele>
        <time>2022-07-17T01:25:57Z</time>
      </trkpt>
      <trkpt lat="45.75596" lon="6.60594">
        <ele>1237</ele>
        <time>2022-07-17T01:25:58Z</time>
      </trkpt>
      <trkpt lat="45.75597" lon="6.60597">
        <ele>1236</ele>
        <time>2022-07-17T01:26:01Z</time>
      </trkpt>
      <trkpt lat="45.75598" lon="6.60599">
        <ele>1236</ele>
        <time>2022-07-17T01:26:04Z</time>
      </trkpt>
      <trkpt lat="45.75597" lon="6.60603">
        <ele>1235</ele>
        <time>2022-07-17T01:26:07Z</time>
      </trkpt>
      <trkpt lat="45.75599" lon="6.60605">
        <ele>1234</ele>
        <time>2022-07-17T01:26:10Z</time>
      </trkpt>
      <trkpt lat="45.756" lon="6.60607">
        <ele>1234</ele>
        <time>2022-07-17T01:26:12Z</time>
      </trkpt>
      <trkpt lat="45.75602" lon="6.6061">
        <ele>1233</ele>
        <time>2022-07-17T01:26:14Z</time>
      </trkpt>
      <trkpt lat="45.75605" lon="6.60612">
        <ele>1232</ele>
        <time>2022-07-17T01:26:16Z</time>
      </trkpt>
      <trkpt lat="45.75607" lon="6.60614">
        <ele>1232</ele>
        <time>2022-07-17T01:26:18Z</time>
      </trkpt>
      <trkpt lat="45.75608" lon="6.60616">
        <ele>1231</ele>
        <time>2022-07-17T01:26:19Z</time>
      </trkpt>
      <trkpt lat="45.75609" lon="6.60617">
        <ele>1231</ele>
        <time>2022-07-17T01:26:20Z</time>
      </trkpt>
      <trkpt lat="45.7561" lon="6.60617">
        <ele>1231</ele>
        <time>2022-07-17T01:26:21Z</time>
      </trkpt>
      <trkpt lat="45.75611" lon="6.60618">
        <ele>1231</ele>
        <time>2022-07-17T01:26:22Z</time>
      </trkpt>
      <trkpt lat="45.75612" lon="6.60619">
        <ele>1231</ele>
        <time>2022-07-17T01:26:23Z</time>
      </trkpt>
      <trkpt lat="45.75613" lon="6.60619">
        <ele>1231</ele>
        <time>2022-07-17T01:26:24Z</time>
      </trkpt>
      <trkpt lat="45.75613" lon="6.6062">
        <ele>1231</ele>
        <time>2022-07-17T01:26:25Z</time>
      </trkpt>
      <trkpt lat="45.75614" lon="6.60621">
        <ele>1231</ele>
        <time>2022-07-17T01:26:26Z</time>
      </trkpt>
      <trkpt lat="45.75615" lon="6.60621">
        <ele>1231</ele>
        <time>2022-07-17T01:26:27Z</time>
      </trkpt>
      <trkpt lat="45.75616" lon="6.60622">
        <ele>1231</ele>
        <time>2022-07-17T01:26:28Z</time>
      </trkpt>
      <trkpt lat="45.75617" lon="6.60623">
        <ele>1230</ele>
        <time>2022-07-17T01:26:29Z</time>
      </trkpt>
      <trkpt lat="45.75618" lon="6.60623">
        <ele>1230</ele>
        <time>2022-07-17T01:26:30Z</time>
      </trkpt>
      <trkpt lat="45.7562" lon="6.60624">
        <ele>1229</ele>
        <time>2022-07-17T01:26:31Z</time>
      </trkpt>
      <trkpt lat="45.75622" lon="6.60625">
        <ele>1229</ele>
        <time>2022-07-17T01:26:32Z</time>
      </trkpt>
      <trkpt lat="45.75624" lon="6.60626">
        <ele>1228</ele>
        <time>2022-07-17T01:26:33Z</time>
      </trkpt>
      <trkpt lat="45.75625" lon="6.60627">
        <ele>1228</ele>
        <time>2022-07-17T01:26:34Z</time>
      </trkpt>
      <trkpt lat="45.75626" lon="6.60627">
        <ele>1228</ele>
        <time>2022-07-17T01:26:35Z</time>
      </trkpt>
      <trkpt lat="45.75627" lon="6.60627">
        <ele>1228</ele>
        <time>2022-07-17T01:26:36Z</time>
      </trkpt>
      <trkpt lat="45.75628" lon="6.60628">
        <ele>1228</ele>
        <time>2022-07-17T01:26:37Z</time>
      </trkpt>
      <trkpt lat="45.7563" lon="6.60628">
        <ele>1228</ele>
        <time>2022-07-17T01:26:38Z</time>
      </trkpt>
      <trkpt lat="45.75631" lon="6.60629">
        <ele>1227</ele>
        <time>2022-07-17T01:26:39Z</time>
      </trkpt>
      <trkpt lat="45.75638" lon="6.60632">
        <ele>1227</ele>
        <time>2022-07-17T01:26:40Z</time>
      </trkpt>
      <trkpt lat="45.75639" lon="6.60633">
        <ele>1227</ele>
        <time>2022-07-17T01:26:41Z</time>
      </trkpt>
      <trkpt lat="45.75641" lon="6.60634">
        <ele>1227</ele>
        <time>2022-07-17T01:26:42Z</time>
      </trkpt>
      <trkpt lat="45.75643" lon="6.60635">
        <ele>1227</ele>
        <time>2022-07-17T01:26:43Z</time>
      </trkpt>
      <trkpt lat="45.75644" lon="6.60636">
        <ele>1227</ele>
        <time>2022-07-17T01:26:44Z</time>
      </trkpt>
      <trkpt lat="45.75647" lon="6.60638">
        <ele>1227</ele>
        <time>2022-07-17T01:26:46Z</time>
      </trkpt>
      <trkpt lat="45.75649" lon="6.60638">
        <ele>1227</ele>
        <time>2022-07-17T01:26:49Z</time>
      </trkpt>
      <trkpt lat="45.75652" lon="6.60637">
        <ele>1226</ele>
        <time>2022-07-17T01:26:52Z</time>
      </trkpt>
      <trkpt lat="45.75654" lon="6.60639">
        <ele>1225</ele>
        <time>2022-07-17T01:26:54Z</time>
      </trkpt>
      <trkpt lat="45.75656" lon="6.60641">
        <ele>1225</ele>
        <time>2022-07-17T01:26:57Z</time>
      </trkpt>
      <trkpt lat="45.75658" lon="6.60644">
        <ele>1224</ele>
        <time>2022-07-17T01:26:59Z</time>
      </trkpt>
      <trkpt lat="45.75661" lon="6.60645">
        <ele>1223</ele>
        <time>2022-07-17T01:27:01Z</time>
      </trkpt>
      <trkpt lat="45.75663" lon="6.60647">
        <ele>1223</ele>
        <time>2022-07-17T01:27:03Z</time>
      </trkpt>
      <trkpt lat="45.75664" lon="6.6065">
        <ele>1223</ele>
        <time>2022-07-17T01:27:05Z</time>
      </trkpt>
      <trkpt lat="45.75667" lon="6.60653">
        <ele>1222</ele>
        <time>2022-07-17T01:27:07Z</time>
      </trkpt>
      <trkpt lat="45.75668" lon="6.60655">
        <ele>1222</ele>
        <time>2022-07-17T01:27:09Z</time>
      </trkpt>
      <trkpt lat="45.7567" lon="6.60658">
        <ele>1222</ele>
        <time>2022-07-17T01:27:11Z</time>
      </trkpt>
      <trkpt lat="45.75672" lon="6.6066">
        <ele>1222</ele>
        <time>2022-07-17T01:27:13Z</time>
      </trkpt>
      <trkpt lat="45.75673" lon="6.60663">
        <ele>1221</ele>
        <time>2022-07-17T01:27:15Z</time>
      </trkpt>
      <trkpt lat="45.75675" lon="6.60665">
        <ele>1221</ele>
        <time>2022-07-17T01:27:17Z</time>
      </trkpt>
      <trkpt lat="45.75677" lon="6.60667">
        <ele>1221</ele>
        <time>2022-07-17T01:27:19Z</time>
      </trkpt>
      <trkpt lat="45.75679" lon="6.6067">
        <ele>1220</ele>
        <time>2022-07-17T01:27:21Z</time>
      </trkpt>
      <trkpt lat="45.7568" lon="6.60672">
        <ele>1219</ele>
        <time>2022-07-17T01:27:23Z</time>
      </trkpt>
      <trkpt lat="45.75681" lon="6.60675">
        <ele>1219</ele>
        <time>2022-07-17T01:27:25Z</time>
      </trkpt>
      <trkpt lat="45.75681" lon="6.60679">
        <ele>1219</ele>
        <time>2022-07-17T01:27:27Z</time>
      </trkpt>
      <trkpt lat="45.75682" lon="6.60683">
        <ele>1219</ele>
        <time>2022-07-17T01:27:29Z</time>
      </trkpt>
      <trkpt lat="45.75683" lon="6.60686">
        <ele>1219</ele>
        <time>2022-07-17T01:27:31Z</time>
      </trkpt>
      <trkpt lat="45.75685" lon="6.6069">
        <ele>1218</ele>
        <time>2022-07-17T01:27:33Z</time>
      </trkpt>
      <trkpt lat="45.75686" lon="6.60694">
        <ele>1217</ele>
        <time>2022-07-17T01:27:35Z</time>
      </trkpt>
      <trkpt lat="45.75688" lon="6.60696">
        <ele>1216</ele>
        <time>2022-07-17T01:27:36Z</time>
      </trkpt>
      <trkpt lat="45.75689" lon="6.607">
        <ele>1216</ele>
        <time>2022-07-17T01:27:38Z</time>
      </trkpt>
      <trkpt lat="45.7569" lon="6.60704">
        <ele>1216</ele>
        <time>2022-07-17T01:27:40Z</time>
      </trkpt>
      <trkpt lat="45.7569" lon="6.60706">
        <ele>1216</ele>
        <time>2022-07-17T01:27:41Z</time>
      </trkpt>
      <trkpt lat="45.75691" lon="6.60708">
        <ele>1216</ele>
        <time>2022-07-17T01:27:42Z</time>
      </trkpt>
      <trkpt lat="45.75691" lon="6.6071">
        <ele>1216</ele>
        <time>2022-07-17T01:27:43Z</time>
      </trkpt>
      <trkpt lat="45.75692" lon="6.60714">
        <ele>1215</ele>
        <time>2022-07-17T01:27:45Z</time>
      </trkpt>
      <trkpt lat="45.75693" lon="6.60717">
        <ele>1215</ele>
        <time>2022-07-17T01:27:47Z</time>
      </trkpt>
      <trkpt lat="45.75693" lon="6.60721">
        <ele>1215</ele>
        <time>2022-07-17T01:27:48Z</time>
      </trkpt>
      <trkpt lat="45.75694" lon="6.60724">
        <ele>1215</ele>
        <time>2022-07-17T01:27:51Z</time>
      </trkpt>
      <trkpt lat="45.75695" lon="6.60727">
        <ele>1215</ele>
        <time>2022-07-17T01:27:53Z</time>
      </trkpt>
      <trkpt lat="45.75696" lon="6.60731">
        <ele>1215</ele>
        <time>2022-07-17T01:27:57Z</time>
      </trkpt>
      <trkpt lat="45.75697" lon="6.60734">
        <ele>1215</ele>
        <time>2022-07-17T01:28:00Z</time>
      </trkpt>
      <trkpt lat="45.75699" lon="6.60736">
        <ele>1215</ele>
        <time>2022-07-17T01:28:02Z</time>
      </trkpt>
      <trkpt lat="45.75701" lon="6.60738">
        <ele>1215</ele>
        <time>2022-07-17T01:28:04Z</time>
      </trkpt>
      <trkpt lat="45.75703" lon="6.60741">
        <ele>1215</ele>
        <time>2022-07-17T01:28:06Z</time>
      </trkpt>
      <trkpt lat="45.75705" lon="6.60743">
        <ele>1215</ele>
        <time>2022-07-17T01:28:08Z</time>
      </trkpt>
      <trkpt lat="45.75706" lon="6.60744">
        <ele>1215</ele>
        <time>2022-07-17T01:28:10Z</time>
      </trkpt>
      <trkpt lat="45.75708" lon="6.60745">
        <ele>1215</ele>
        <time>2022-07-17T01:28:12Z</time>
      </trkpt>
      <trkpt lat="45.7571" lon="6.60747">
        <ele>1215</ele>
        <time>2022-07-17T01:28:15Z</time>
      </trkpt>
      <trkpt lat="45.75712" lon="6.60749">
        <ele>1215</ele>
        <time>2022-07-17T01:28:17Z</time>
      </trkpt>
      <trkpt lat="45.75714" lon="6.60751">
        <ele>1215</ele>
        <time>2022-07-17T01:28:19Z</time>
      </trkpt>
      <trkpt lat="45.75716" lon="6.60754">
        <ele>1215</ele>
        <time>2022-07-17T01:28:21Z</time>
      </trkpt>
      <trkpt lat="45.75718" lon="6.60755">
        <ele>1215</ele>
        <time>2022-07-17T01:28:22Z</time>
      </trkpt>
      <trkpt lat="45.75719" lon="6.60757">
        <ele>1215</ele>
        <time>2022-07-17T01:28:24Z</time>
      </trkpt>
      <trkpt lat="45.75721" lon="6.60759">
        <ele>1215</ele>
        <time>2022-07-17T01:28:26Z</time>
      </trkpt>
      <trkpt lat="45.75721" lon="6.6076">
        <ele>1215</ele>
        <time>2022-07-17T01:28:27Z</time>
      </trkpt>
      <trkpt lat="45.75722" lon="6.60761">
        <ele>1215</ele>
        <time>2022-07-17T01:28:28Z</time>
      </trkpt>
      <trkpt lat="45.75723" lon="6.60762">
        <ele>1215</ele>
        <time>2022-07-17T01:28:29Z</time>
      </trkpt>
      <trkpt lat="45.75723" lon="6.60764">
        <ele>1215</ele>
        <time>2022-07-17T01:28:30Z</time>
      </trkpt>
      <trkpt lat="45.75724" lon="6.60765">
        <ele>1215</ele>
        <time>2022-07-17T01:28:31Z</time>
      </trkpt>
      <trkpt lat="45.75725" lon="6.60769">
        <ele>1215</ele>
        <time>2022-07-17T01:28:34Z</time>
      </trkpt>
      <trkpt lat="45.75725" lon="6.6077">
        <ele>1215</ele>
        <time>2022-07-17T01:28:35Z</time>
      </trkpt>
      <trkpt lat="45.75726" lon="6.60772">
        <ele>1215</ele>
        <time>2022-07-17T01:28:36Z</time>
      </trkpt>
      <trkpt lat="45.75727" lon="6.60773">
        <ele>1215</ele>
        <time>2022-07-17T01:28:37Z</time>
      </trkpt>
      <trkpt lat="45.75727" lon="6.60775">
        <ele>1215</ele>
        <time>2022-07-17T01:28:38Z</time>
      </trkpt>
      <trkpt lat="45.75728" lon="6.60776">
        <ele>1215</ele>
        <time>2022-07-17T01:28:39Z</time>
      </trkpt>
      <trkpt lat="45.75729" lon="6.60778">
        <ele>1215</ele>
        <time>2022-07-17T01:28:40Z</time>
      </trkpt>
      <trkpt lat="45.75729" lon="6.60779">
        <ele>1215</ele>
        <time>2022-07-17T01:28:41Z</time>
      </trkpt>
      <trkpt lat="45.7573" lon="6.60781">
        <ele>1215</ele>
        <time>2022-07-17T01:28:42Z</time>
      </trkpt>
      <trkpt lat="45.75731" lon="6.60782">
        <ele>1215</ele>
        <time>2022-07-17T01:28:43Z</time>
      </trkpt>
      <trkpt lat="45.75732" lon="6.60784">
        <ele>1215</ele>
        <time>2022-07-17T01:28:44Z</time>
      </trkpt>
      <trkpt lat="45.75732" lon="6.60785">
        <ele>1216</ele>
        <time>2022-07-17T01:28:45Z</time>
      </trkpt>
      <trkpt lat="45.75733" lon="6.60787">
        <ele>1216</ele>
        <time>2022-07-17T01:28:46Z</time>
      </trkpt>
      <trkpt lat="45.75734" lon="6.60789">
        <ele>1216</ele>
        <time>2022-07-17T01:28:47Z</time>
      </trkpt>
      <trkpt lat="45.75734" lon="6.6079">
        <ele>1216</ele>
        <time>2022-07-17T01:28:48Z</time>
      </trkpt>
      <trkpt lat="45.75735" lon="6.60791">
        <ele>1216</ele>
        <time>2022-07-17T01:28:49Z</time>
      </trkpt>
      <trkpt lat="45.75736" lon="6.60793">
        <ele>1216</ele>
        <time>2022-07-17T01:28:50Z</time>
      </trkpt>
      <trkpt lat="45.75737" lon="6.60794">
        <ele>1216</ele>
        <time>2022-07-17T01:28:51Z</time>
      </trkpt>
      <trkpt lat="45.75737" lon="6.60796">
        <ele>1216</ele>
        <time>2022-07-17T01:28:52Z</time>
      </trkpt>
      <trkpt lat="45.75738" lon="6.60797">
        <ele>1216</ele>
        <time>2022-07-17T01:28:53Z</time>
      </trkpt>
      <trkpt lat="45.75739" lon="6.60798">
        <ele>1216</ele>
        <time>2022-07-17T01:28:54Z</time>
      </trkpt>
      <trkpt lat="45.7574" lon="6.608">
        <ele>1216</ele>
        <time>2022-07-17T01:28:55Z</time>
      </trkpt>
      <trkpt lat="45.7574" lon="6.60801">
        <ele>1217</ele>
        <time>2022-07-17T01:28:56Z</time>
      </trkpt>
      <trkpt lat="45.75741" lon="6.60803">
        <ele>1217</ele>
        <time>2022-07-17T01:28:57Z</time>
      </trkpt>
      <trkpt lat="45.75741" lon="6.60804">
        <ele>1217</ele>
        <time>2022-07-17T01:28:58Z</time>
      </trkpt>
      <trkpt lat="45.75742" lon="6.60806">
        <ele>1217</ele>
        <time>2022-07-17T01:28:59Z</time>
      </trkpt>
      <trkpt lat="45.75742" lon="6.60808">
        <ele>1217</ele>
        <time>2022-07-17T01:29:00Z</time>
      </trkpt>
      <trkpt lat="45.75743" lon="6.60809">
        <ele>1217</ele>
        <time>2022-07-17T01:29:01Z</time>
      </trkpt>
      <trkpt lat="45.75744" lon="6.60811">
        <ele>1217</ele>
        <time>2022-07-17T01:29:02Z</time>
      </trkpt>
      <trkpt lat="45.75744" lon="6.60812">
        <ele>1217</ele>
        <time>2022-07-17T01:29:03Z</time>
      </trkpt>
      <trkpt lat="45.75745" lon="6.60814">
        <ele>1217</ele>
        <time>2022-07-17T01:29:04Z</time>
      </trkpt>
      <trkpt lat="45.75745" lon="6.60815">
        <ele>1217</ele>
        <time>2022-07-17T01:29:05Z</time>
      </trkpt>
      <trkpt lat="45.75746" lon="6.60817">
        <ele>1217</ele>
        <time>2022-07-17T01:29:06Z</time>
      </trkpt>
      <trkpt lat="45.75746" lon="6.60818">
        <ele>1217</ele>
        <time>2022-07-17T01:29:07Z</time>
      </trkpt>
      <trkpt lat="45.75748" lon="6.60822">
        <ele>1217</ele>
        <time>2022-07-17T01:29:09Z</time>
      </trkpt>
      <trkpt lat="45.75749" lon="6.60823">
        <ele>1218</ele>
        <time>2022-07-17T01:29:10Z</time>
      </trkpt>
      <trkpt lat="45.75749" lon="6.60825">
        <ele>1218</ele>
        <time>2022-07-17T01:29:11Z</time>
      </trkpt>
      <trkpt lat="45.7575" lon="6.60826">
        <ele>1218</ele>
        <time>2022-07-17T01:29:12Z</time>
      </trkpt>
      <trkpt lat="45.75751" lon="6.60827">
        <ele>1218</ele>
        <time>2022-07-17T01:29:13Z</time>
      </trkpt>
      <trkpt lat="45.75751" lon="6.60828">
        <ele>1218</ele>
        <time>2022-07-17T01:29:14Z</time>
      </trkpt>
      <trkpt lat="45.75752" lon="6.60829">
        <ele>1218</ele>
        <time>2022-07-17T01:29:15Z</time>
      </trkpt>
      <trkpt lat="45.75753" lon="6.6083">
        <ele>1218</ele>
        <time>2022-07-17T01:29:16Z</time>
      </trkpt>
      <trkpt lat="45.75754" lon="6.60833">
        <ele>1218</ele>
        <time>2022-07-17T01:29:18Z</time>
      </trkpt>
      <trkpt lat="45.75757" lon="6.60836">
        <ele>1218</ele>
        <time>2022-07-17T01:29:21Z</time>
      </trkpt>
      <trkpt lat="45.75759" lon="6.60839">
        <ele>1219</ele>
        <time>2022-07-17T01:29:23Z</time>
      </trkpt>
      <trkpt lat="45.7576" lon="6.60841">
        <ele>1219</ele>
        <time>2022-07-17T01:29:25Z</time>
      </trkpt>
      <trkpt lat="45.75762" lon="6.60844">
        <ele>1219</ele>
        <time>2022-07-17T01:29:27Z</time>
      </trkpt>
      <trkpt lat="45.75764" lon="6.60846">
        <ele>1219</ele>
        <time>2022-07-17T01:29:29Z</time>
      </trkpt>
      <trkpt lat="45.75766" lon="6.60847">
        <ele>1219</ele>
        <time>2022-07-17T01:29:31Z</time>
      </trkpt>
      <trkpt lat="45.75769" lon="6.60848">
        <ele>1219</ele>
        <time>2022-07-17T01:29:33Z</time>
      </trkpt>
      <trkpt lat="45.75772" lon="6.60849">
        <ele>1219</ele>
        <time>2022-07-17T01:29:35Z</time>
      </trkpt>
      <trkpt lat="45.75773" lon="6.60849">
        <ele>1219</ele>
        <time>2022-07-17T01:29:36Z</time>
      </trkpt>
      <trkpt lat="45.75774" lon="6.6085">
        <ele>1219</ele>
        <time>2022-07-17T01:29:37Z</time>
      </trkpt>
      <trkpt lat="45.75775" lon="6.60851">
        <ele>1219</ele>
        <time>2022-07-17T01:29:38Z</time>
      </trkpt>
      <trkpt lat="45.75777" lon="6.60852">
        <ele>1218</ele>
        <time>2022-07-17T01:29:39Z</time>
      </trkpt>
      <trkpt lat="45.75779" lon="6.60853">
        <ele>1219</ele>
        <time>2022-07-17T01:29:41Z</time>
      </trkpt>
      <trkpt lat="45.7578" lon="6.60855">
        <ele>1219</ele>
        <time>2022-07-17T01:29:43Z</time>
      </trkpt>
      <trkpt lat="45.75782" lon="6.60857">
        <ele>1219</ele>
        <time>2022-07-17T01:29:45Z</time>
      </trkpt>
      <trkpt lat="45.75783" lon="6.60858">
        <ele>1219</ele>
        <time>2022-07-17T01:29:47Z</time>
      </trkpt>
      <trkpt lat="45.75784" lon="6.60859">
        <ele>1219</ele>
        <time>2022-07-17T01:29:48Z</time>
      </trkpt>
      <trkpt lat="45.75786" lon="6.6086">
        <ele>1219</ele>
        <time>2022-07-17T01:29:49Z</time>
      </trkpt>
      <trkpt lat="45.75787" lon="6.60861">
        <ele>1219</ele>
        <time>2022-07-17T01:29:50Z</time>
      </trkpt>
      <trkpt lat="45.75788" lon="6.60862">
        <ele>1219</ele>
        <time>2022-07-17T01:29:51Z</time>
      </trkpt>
      <trkpt lat="45.7579" lon="6.60863">
        <ele>1220</ele>
        <time>2022-07-17T01:29:52Z</time>
      </trkpt>
      <trkpt lat="45.7579" lon="6.60864">
        <ele>1220</ele>
        <time>2022-07-17T01:29:53Z</time>
      </trkpt>
      <trkpt lat="45.75791" lon="6.60865">
        <ele>1220</ele>
        <time>2022-07-17T01:29:54Z</time>
      </trkpt>
      <trkpt lat="45.75792" lon="6.60866">
        <ele>1220</ele>
        <time>2022-07-17T01:29:55Z</time>
      </trkpt>
      <trkpt lat="45.75792" lon="6.60867">
        <ele>1220</ele>
        <time>2022-07-17T01:29:56Z</time>
      </trkpt>
      <trkpt lat="45.75793" lon="6.60868">
        <ele>1220</ele>
        <time>2022-07-17T01:29:57Z</time>
      </trkpt>
      <trkpt lat="45.75794" lon="6.60868">
        <ele>1220</ele>
        <time>2022-07-17T01:29:58Z</time>
      </trkpt>
      <trkpt lat="45.75794" lon="6.60869">
        <ele>1220</ele>
        <time>2022-07-17T01:29:59Z</time>
      </trkpt>
      <trkpt lat="45.75795" lon="6.6087">
        <ele>1220</ele>
        <time>2022-07-17T01:30:00Z</time>
      </trkpt>
      <trkpt lat="45.75796" lon="6.60871">
        <ele>1220</ele>
        <time>2022-07-17T01:30:01Z</time>
      </trkpt>
      <trkpt lat="45.75797" lon="6.60872">
        <ele>1220</ele>
        <time>2022-07-17T01:30:02Z</time>
      </trkpt>
      <trkpt lat="45.75797" lon="6.60873">
        <ele>1220</ele>
        <time>2022-07-17T01:30:03Z</time>
      </trkpt>
      <trkpt lat="45.75798" lon="6.60874">
        <ele>1220</ele>
        <time>2022-07-17T01:30:04Z</time>
      </trkpt>
      <trkpt lat="45.75799" lon="6.60875">
        <ele>1221</ele>
        <time>2022-07-17T01:30:05Z</time>
      </trkpt>
      <trkpt lat="45.758" lon="6.60876">
        <ele>1221</ele>
        <time>2022-07-17T01:30:06Z</time>
      </trkpt>
      <trkpt lat="45.75801" lon="6.60876">
        <ele>1221</ele>
        <time>2022-07-17T01:30:07Z</time>
      </trkpt>
      <trkpt lat="45.75802" lon="6.60877">
        <ele>1221</ele>
        <time>2022-07-17T01:30:08Z</time>
      </trkpt>
      <trkpt lat="45.75803" lon="6.60878">
        <ele>1221</ele>
        <time>2022-07-17T01:30:09Z</time>
      </trkpt>
      <trkpt lat="45.75804" lon="6.60879">
        <ele>1221</ele>
        <time>2022-07-17T01:30:10Z</time>
      </trkpt>
      <trkpt lat="45.75805" lon="6.6088">
        <ele>1221</ele>
        <time>2022-07-17T01:30:11Z</time>
      </trkpt>
      <trkpt lat="45.75805" lon="6.60881">
        <ele>1221</ele>
        <time>2022-07-17T01:30:12Z</time>
      </trkpt>
      <trkpt lat="45.75805" lon="6.60883">
        <ele>1222</ele>
        <time>2022-07-17T01:30:13Z</time>
      </trkpt>
      <trkpt lat="45.75804" lon="6.60885">
        <ele>1223</ele>
        <time>2022-07-17T01:30:14Z</time>
      </trkpt>
      <trkpt lat="45.75804" lon="6.60886">
        <ele>1223</ele>
        <time>2022-07-17T01:30:15Z</time>
      </trkpt>
      <trkpt lat="45.75804" lon="6.60888">
        <ele>1223</ele>
        <time>2022-07-17T01:30:16Z</time>
      </trkpt>
      <trkpt lat="45.75804" lon="6.6089">
        <ele>1223</ele>
        <time>2022-07-17T01:30:17Z</time>
      </trkpt>
      <trkpt lat="45.75804" lon="6.60891">
        <ele>1223</ele>
        <time>2022-07-17T01:30:18Z</time>
      </trkpt>
      <trkpt lat="45.75804" lon="6.60893">
        <ele>1224</ele>
        <time>2022-07-17T01:30:19Z</time>
      </trkpt>
      <trkpt lat="45.75803" lon="6.60894">
        <ele>1224</ele>
        <time>2022-07-17T01:30:20Z</time>
      </trkpt>
      <trkpt lat="45.75803" lon="6.60895">
        <ele>1224</ele>
        <time>2022-07-17T01:30:21Z</time>
      </trkpt>
      <trkpt lat="45.75803" lon="6.60897">
        <ele>1224</ele>
        <time>2022-07-17T01:30:22Z</time>
      </trkpt>
      <trkpt lat="45.75803" lon="6.60898">
        <ele>1224</ele>
        <time>2022-07-17T01:30:23Z</time>
      </trkpt>
      <trkpt lat="45.75802" lon="6.60899">
        <ele>1224</ele>
        <time>2022-07-17T01:30:25Z</time>
      </trkpt>
      <trkpt lat="45.75802" lon="6.60901">
        <ele>1224</ele>
        <time>2022-07-17T01:30:26Z</time>
      </trkpt>
      <trkpt lat="45.75802" lon="6.60902">
        <ele>1224</ele>
        <time>2022-07-17T01:30:27Z</time>
      </trkpt>
      <trkpt lat="45.75801" lon="6.60903">
        <ele>1224</ele>
        <time>2022-07-17T01:30:28Z</time>
      </trkpt>
      <trkpt lat="45.75801" lon="6.60905">
        <ele>1224</ele>
        <time>2022-07-17T01:30:29Z</time>
      </trkpt>
      <trkpt lat="45.75801" lon="6.60906">
        <ele>1224</ele>
        <time>2022-07-17T01:30:30Z</time>
      </trkpt>
      <trkpt lat="45.75802" lon="6.60906">
        <ele>1224</ele>
        <time>2022-07-17T01:30:31Z</time>
      </trkpt>
      <trkpt lat="45.75803" lon="6.60906">
        <ele>1224</ele>
        <time>2022-07-17T01:30:32Z</time>
      </trkpt>
      <trkpt lat="45.75804" lon="6.60906">
        <ele>1224</ele>
        <time>2022-07-17T01:30:33Z</time>
      </trkpt>
      <trkpt lat="45.75805" lon="6.60906">
        <ele>1224</ele>
        <time>2022-07-17T01:30:34Z</time>
      </trkpt>
      <trkpt lat="45.75806" lon="6.60905">
        <ele>1225</ele>
        <time>2022-07-17T01:30:35Z</time>
      </trkpt>
      <trkpt lat="45.75807" lon="6.60905">
        <ele>1225</ele>
        <time>2022-07-17T01:30:36Z</time>
      </trkpt>
      <trkpt lat="45.75808" lon="6.60905">
        <ele>1225</ele>
        <time>2022-07-17T01:30:37Z</time>
      </trkpt>
      <trkpt lat="45.75809" lon="6.60905">
        <ele>1225</ele>
        <time>2022-07-17T01:30:38Z</time>
      </trkpt>
      <trkpt lat="45.7581" lon="6.60905">
        <ele>1225</ele>
        <time>2022-07-17T01:30:39Z</time>
      </trkpt>
      <trkpt lat="45.75812" lon="6.60905">
        <ele>1224</ele>
        <time>2022-07-17T01:30:41Z</time>
      </trkpt>
      <trkpt lat="45.75813" lon="6.60905">
        <ele>1224</ele>
        <time>2022-07-17T01:30:42Z</time>
      </trkpt>
      <trkpt lat="45.75815" lon="6.60905">
        <ele>1224</ele>
        <time>2022-07-17T01:30:44Z</time>
      </trkpt>
      <trkpt lat="45.75816" lon="6.60906">
        <ele>1224</ele>
        <time>2022-07-17T01:30:45Z</time>
      </trkpt>
      <trkpt lat="45.75824" lon="6.60906">
        <ele>1224</ele>
        <time>2022-07-17T01:30:46Z</time>
      </trkpt>
      <trkpt lat="45.75826" lon="6.60906">
        <ele>1224</ele>
        <time>2022-07-17T01:30:47Z</time>
      </trkpt>
      <trkpt lat="45.75828" lon="6.60905">
        <ele>1224</ele>
        <time>2022-07-17T01:30:48Z</time>
      </trkpt>
      <trkpt lat="45.7583" lon="6.60905">
        <ele>1224</ele>
        <time>2022-07-17T01:30:49Z</time>
      </trkpt>
      <trkpt lat="45.75831" lon="6.60905">
        <ele>1224</ele>
        <time>2022-07-17T01:30:50Z</time>
      </trkpt>
      <trkpt lat="45.75834" lon="6.60903">
        <ele>1224</ele>
        <time>2022-07-17T01:30:51Z</time>
      </trkpt>
      <trkpt lat="45.75836" lon="6.60902">
        <ele>1224</ele>
        <time>2022-07-17T01:30:52Z</time>
      </trkpt>
      <trkpt lat="45.75838" lon="6.609">
        <ele>1224</ele>
        <time>2022-07-17T01:30:53Z</time>
      </trkpt>
      <trkpt lat="45.7584" lon="6.60899">
        <ele>1224</ele>
        <time>2022-07-17T01:30:54Z</time>
      </trkpt>
      <trkpt lat="45.75841" lon="6.60899">
        <ele>1224</ele>
        <time>2022-07-17T01:30:55Z</time>
      </trkpt>
      <trkpt lat="45.75842" lon="6.60898">
        <ele>1224</ele>
        <time>2022-07-17T01:30:56Z</time>
      </trkpt>
      <trkpt lat="45.75843" lon="6.60898">
        <ele>1224</ele>
        <time>2022-07-17T01:30:57Z</time>
      </trkpt>
      <trkpt lat="45.75844" lon="6.60898">
        <ele>1224</ele>
        <time>2022-07-17T01:30:58Z</time>
      </trkpt>
      <trkpt lat="45.75845" lon="6.60898">
        <ele>1224</ele>
        <time>2022-07-17T01:30:59Z</time>
      </trkpt>
      <trkpt lat="45.75846" lon="6.60898">
        <ele>1224</ele>
        <time>2022-07-17T01:31:00Z</time>
      </trkpt>
      <trkpt lat="45.75847" lon="6.60898">
        <ele>1224</ele>
        <time>2022-07-17T01:31:01Z</time>
      </trkpt>
      <trkpt lat="45.75854" lon="6.60897">
        <ele>1224</ele>
        <time>2022-07-17T01:31:02Z</time>
      </trkpt>
      <trkpt lat="45.75856" lon="6.60897">
        <ele>1224</ele>
        <time>2022-07-17T01:31:05Z</time>
      </trkpt>
      <trkpt lat="45.75859" lon="6.60897">
        <ele>1224</ele>
        <time>2022-07-17T01:31:07Z</time>
      </trkpt>
      <trkpt lat="45.75862" lon="6.60896">
        <ele>1224</ele>
        <time>2022-07-17T01:31:10Z</time>
      </trkpt>
      <trkpt lat="45.75864" lon="6.60895">
        <ele>1224</ele>
        <time>2022-07-17T01:31:12Z</time>
      </trkpt>
      <trkpt lat="45.75867" lon="6.60894">
        <ele>1224</ele>
        <time>2022-07-17T01:31:14Z</time>
      </trkpt>
      <trkpt lat="45.7587" lon="6.60893">
        <ele>1224</ele>
        <time>2022-07-17T01:31:16Z</time>
      </trkpt>
      <trkpt lat="45.75873" lon="6.60893">
        <ele>1224</ele>
        <time>2022-07-17T01:31:18Z</time>
      </trkpt>
      <trkpt lat="45.75875" lon="6.60894">
        <ele>1224</ele>
        <time>2022-07-17T01:31:19Z</time>
      </trkpt>
      <trkpt lat="45.75877" lon="6.60894">
        <ele>1224</ele>
        <time>2022-07-17T01:31:20Z</time>
      </trkpt>
      <trkpt lat="45.7588" lon="6.60895">
        <ele>1224</ele>
        <time>2022-07-17T01:31:22Z</time>
      </trkpt>
      <trkpt lat="45.75883" lon="6.60897">
        <ele>1224</ele>
        <time>2022-07-17T01:31:26Z</time>
      </trkpt>
      <trkpt lat="45.75886" lon="6.60898">
        <ele>1225</ele>
        <time>2022-07-17T01:31:28Z</time>
      </trkpt>
      <trkpt lat="45.75889" lon="6.60898">
        <ele>1225</ele>
        <time>2022-07-17T01:31:30Z</time>
      </trkpt>
      <trkpt lat="45.75892" lon="6.60898">
        <ele>1225</ele>
        <time>2022-07-17T01:31:32Z</time>
      </trkpt>
      <trkpt lat="45.75895" lon="6.60898">
        <ele>1225</ele>
        <time>2022-07-17T01:31:34Z</time>
      </trkpt>
      <trkpt lat="45.75898" lon="6.60897">
        <ele>1225</ele>
        <time>2022-07-17T01:31:36Z</time>
      </trkpt>
      <trkpt lat="45.759" lon="6.60895">
        <ele>1225</ele>
        <time>2022-07-17T01:31:39Z</time>
      </trkpt>
      <trkpt lat="45.759" lon="6.60892">
        <ele>1225</ele>
        <time>2022-07-17T01:31:42Z</time>
      </trkpt>
      <trkpt lat="45.759" lon="6.60889">
        <ele>1225</ele>
        <time>2022-07-17T01:31:44Z</time>
      </trkpt>
      <trkpt lat="45.759" lon="6.60885">
        <ele>1225</ele>
        <time>2022-07-17T01:31:46Z</time>
      </trkpt>
      <trkpt lat="45.75899" lon="6.60882">
        <ele>1225</ele>
        <time>2022-07-17T01:31:49Z</time>
      </trkpt>
      <trkpt lat="45.759" lon="6.60879">
        <ele>1225</ele>
        <time>2022-07-17T01:31:51Z</time>
      </trkpt>
      <trkpt lat="45.75899" lon="6.60878">
        <ele>1225</ele>
        <time>2022-07-17T01:31:52Z</time>
      </trkpt>
      <trkpt lat="45.75898" lon="6.60876">
        <ele>1225</ele>
        <time>2022-07-17T01:31:53Z</time>
      </trkpt>
      <trkpt lat="45.75897" lon="6.60875">
        <ele>1225</ele>
        <time>2022-07-17T01:31:54Z</time>
      </trkpt>
      <trkpt lat="45.75897" lon="6.60874">
        <ele>1225</ele>
        <time>2022-07-17T01:31:55Z</time>
      </trkpt>
      <trkpt lat="45.75896" lon="6.60873">
        <ele>1225</ele>
        <time>2022-07-17T01:31:56Z</time>
      </trkpt>
      <trkpt lat="45.75889" lon="6.60873">
        <ele>1225</ele>
        <time>2022-07-17T01:31:59Z</time>
      </trkpt>
      <trkpt lat="45.75886" lon="6.60872">
        <ele>1225</ele>
        <time>2022-07-17T01:32:02Z</time>
      </trkpt>
      <trkpt lat="45.75883" lon="6.6087">
        <ele>1225</ele>
        <time>2022-07-17T01:32:04Z</time>
      </trkpt>
      <trkpt lat="45.7588" lon="6.60868">
        <ele>1225</ele>
        <time>2022-07-17T01:32:06Z</time>
      </trkpt>
      <trkpt lat="45.75878" lon="6.60866">
        <ele>1225</ele>
        <time>2022-07-17T01:32:08Z</time>
      </trkpt>
      <trkpt lat="45.75877" lon="6.60864">
        <ele>1225</ele>
        <time>2022-07-17T01:32:10Z</time>
      </trkpt>
      <trkpt lat="45.75875" lon="6.60862">
        <ele>1225</ele>
        <time>2022-07-17T01:32:12Z</time>
      </trkpt>
      <trkpt lat="45.75874" lon="6.60858">
        <ele>1226</ele>
        <time>2022-07-17T01:32:14Z</time>
      </trkpt>
      <trkpt lat="45.75874" lon="6.60854">
        <ele>1226</ele>
        <time>2022-07-17T01:32:16Z</time>
      </trkpt>
      <trkpt lat="45.75873" lon="6.60851">
        <ele>1226</ele>
        <time>2022-07-17T01:32:18Z</time>
      </trkpt>
      <trkpt lat="45.75871" lon="6.60849">
        <ele>1226</ele>
        <time>2022-07-17T01:32:20Z</time>
      </trkpt>
      <trkpt lat="45.7587" lon="6.60846">
        <ele>1227</ele>
        <time>2022-07-17T01:32:22Z</time>
      </trkpt>
      <trkpt lat="45.75869" lon="6.60842">
        <ele>1227</ele>
        <time>2022-07-17T01:32:24Z</time>
      </trkpt>
      <trkpt lat="45.75868" lon="6.6084">
        <ele>1227</ele>
        <time>2022-07-17T01:32:26Z</time>
      </trkpt>
      <trkpt lat="45.75867" lon="6.60838">
        <ele>1227</ele>
        <time>2022-07-17T01:32:28Z</time>
      </trkpt>
      <trkpt lat="45.75866" lon="6.60835">
        <ele>1227</ele>
        <time>2022-07-17T01:32:30Z</time>
      </trkpt>
      <trkpt lat="45.75864" lon="6.60833">
        <ele>1227</ele>
        <time>2022-07-17T01:32:32Z</time>
      </trkpt>
      <trkpt lat="45.75863" lon="6.6083">
        <ele>1227</ele>
        <time>2022-07-17T01:32:34Z</time>
      </trkpt>
      <trkpt lat="45.75861" lon="6.60828">
        <ele>1227</ele>
        <time>2022-07-17T01:32:36Z</time>
      </trkpt>
      <trkpt lat="45.7586" lon="6.60826">
        <ele>1227</ele>
        <time>2022-07-17T01:32:38Z</time>
      </trkpt>
      <trkpt lat="45.75859" lon="6.60823">
        <ele>1228</ele>
        <time>2022-07-17T01:32:40Z</time>
      </trkpt>
      <trkpt lat="45.75857" lon="6.60821">
        <ele>1229</ele>
        <time>2022-07-17T01:32:42Z</time>
      </trkpt>
      <trkpt lat="45.75856" lon="6.60818">
        <ele>1229</ele>
        <time>2022-07-17T01:32:44Z</time>
      </trkpt>
      <trkpt lat="45.75855" lon="6.60816">
        <ele>1229</ele>
        <time>2022-07-17T01:32:46Z</time>
      </trkpt>
      <trkpt lat="45.75853" lon="6.60814">
        <ele>1229</ele>
        <time>2022-07-17T01:32:48Z</time>
      </trkpt>
      <trkpt lat="45.75852" lon="6.60811">
        <ele>1229</ele>
        <time>2022-07-17T01:32:50Z</time>
      </trkpt>
      <trkpt lat="45.75849" lon="6.60809">
        <ele>1229</ele>
        <time>2022-07-17T01:32:53Z</time>
      </trkpt>
      <trkpt lat="45.75849" lon="6.60806">
        <ele>1230</ele>
        <time>2022-07-17T01:32:56Z</time>
      </trkpt>
      <trkpt lat="45.75847" lon="6.60804">
        <ele>1231</ele>
        <time>2022-07-17T01:32:58Z</time>
      </trkpt>
      <trkpt lat="45.75847" lon="6.608">
        <ele>1231</ele>
        <time>2022-07-17T01:33:01Z</time>
      </trkpt>
      <trkpt lat="45.75847" lon="6.60797">
        <ele>1231</ele>
        <time>2022-07-17T01:33:04Z</time>
      </trkpt>
      <trkpt lat="45.75846" lon="6.60794">
        <ele>1231</ele>
        <time>2022-07-17T01:33:07Z</time>
      </trkpt>
      <trkpt lat="45.75846" lon="6.6079">
        <ele>1232</ele>
        <time>2022-07-17T01:33:09Z</time>
      </trkpt>
      <trkpt lat="45.75844" lon="6.60788">
        <ele>1232</ele>
        <time>2022-07-17T01:33:12Z</time>
      </trkpt>
      <trkpt lat="45.75844" lon="6.60784">
        <ele>1232</ele>
        <time>2022-07-17T01:33:15Z</time>
      </trkpt>
      <trkpt lat="45.75844" lon="6.60781">
        <ele>1233</ele>
        <time>2022-07-17T01:33:17Z</time>
      </trkpt>
      <trkpt lat="45.75844" lon="6.60778">
        <ele>1233</ele>
        <time>2022-07-17T01:33:19Z</time>
      </trkpt>
      <trkpt lat="45.75845" lon="6.60776">
        <ele>1233</ele>
        <time>2022-07-17T01:33:21Z</time>
      </trkpt>
      <trkpt lat="45.75846" lon="6.60773">
        <ele>1234</ele>
        <time>2022-07-17T01:33:23Z</time>
      </trkpt>
      <trkpt lat="45.75846" lon="6.6077">
        <ele>1234</ele>
        <time>2022-07-17T01:33:25Z</time>
      </trkpt>
      <trkpt lat="45.75847" lon="6.60768">
        <ele>1234</ele>
        <time>2022-07-17T01:33:27Z</time>
      </trkpt>
      <trkpt lat="45.75848" lon="6.60764">
        <ele>1235</ele>
        <time>2022-07-17T01:33:30Z</time>
      </trkpt>
      <trkpt lat="45.75849" lon="6.60762">
        <ele>1236</ele>
        <time>2022-07-17T01:33:33Z</time>
      </trkpt>
      <trkpt lat="45.75851" lon="6.60759">
        <ele>1236</ele>
        <time>2022-07-17T01:33:36Z</time>
      </trkpt>
      <trkpt lat="45.75852" lon="6.60757">
        <ele>1237</ele>
        <time>2022-07-17T01:33:39Z</time>
      </trkpt>
      <trkpt lat="45.75852" lon="6.60754">
        <ele>1237</ele>
        <time>2022-07-17T01:33:40Z</time>
      </trkpt>
      <trkpt lat="45.75854" lon="6.60752">
        <ele>1237</ele>
        <time>2022-07-17T01:33:42Z</time>
      </trkpt>
      <trkpt lat="45.75854" lon="6.60749">
        <ele>1237</ele>
        <time>2022-07-17T01:33:45Z</time>
      </trkpt>
      <trkpt lat="45.75855" lon="6.60745">
        <ele>1238</ele>
        <time>2022-07-17T01:33:47Z</time>
      </trkpt>
      <trkpt lat="45.75856" lon="6.60742">
        <ele>1238</ele>
        <time>2022-07-17T01:33:50Z</time>
      </trkpt>
      <trkpt lat="45.75857" lon="6.60739">
        <ele>1239</ele>
        <time>2022-07-17T01:33:54Z</time>
      </trkpt>
      <trkpt lat="45.75857" lon="6.60736">
        <ele>1239</ele>
        <time>2022-07-17T01:33:56Z</time>
      </trkpt>
      <trkpt lat="45.75858" lon="6.60733">
        <ele>1239</ele>
        <time>2022-07-17T01:33:58Z</time>
      </trkpt>
      <trkpt lat="45.7586" lon="6.6073">
        <ele>1240</ele>
        <time>2022-07-17T01:34:00Z</time>
      </trkpt>
      <trkpt lat="45.7586" lon="6.60728">
        <ele>1240</ele>
        <time>2022-07-17T01:34:02Z</time>
      </trkpt>
      <trkpt lat="45.7586" lon="6.60725">
        <ele>1241</ele>
        <time>2022-07-17T01:34:05Z</time>
      </trkpt>
      <trkpt lat="45.7586" lon="6.60722">
        <ele>1241</ele>
        <time>2022-07-17T01:34:07Z</time>
      </trkpt>
      <trkpt lat="45.75858" lon="6.60719">
        <ele>1242</ele>
        <time>2022-07-17T01:34:09Z</time>
      </trkpt>
      <trkpt lat="45.75858" lon="6.60717">
        <ele>1242</ele>
        <time>2022-07-17T01:34:11Z</time>
      </trkpt>
      <trkpt lat="45.75856" lon="6.60714">
        <ele>1242</ele>
        <time>2022-07-17T01:34:12Z</time>
      </trkpt>
      <trkpt lat="45.75856" lon="6.60711">
        <ele>1242</ele>
        <time>2022-07-17T01:34:15Z</time>
      </trkpt>
      <trkpt lat="45.75856" lon="6.60707">
        <ele>1243</ele>
        <time>2022-07-17T01:34:17Z</time>
      </trkpt>
      <trkpt lat="45.75856" lon="6.60704">
        <ele>1243</ele>
        <time>2022-07-17T01:34:19Z</time>
      </trkpt>
      <trkpt lat="45.75857" lon="6.60701">
        <ele>1243</ele>
        <time>2022-07-17T01:34:21Z</time>
      </trkpt>
      <trkpt lat="45.75857" lon="6.60698">
        <ele>1243</ele>
        <time>2022-07-17T01:34:23Z</time>
      </trkpt>
      <trkpt lat="45.75858" lon="6.60694">
        <ele>1244</ele>
        <time>2022-07-17T01:34:25Z</time>
      </trkpt>
      <trkpt lat="45.75858" lon="6.6069">
        <ele>1244</ele>
        <time>2022-07-17T01:34:27Z</time>
      </trkpt>
      <trkpt lat="45.75859" lon="6.60687">
        <ele>1245</ele>
        <time>2022-07-17T01:34:29Z</time>
      </trkpt>
      <trkpt lat="45.75859" lon="6.60684">
        <ele>1245</ele>
        <time>2022-07-17T01:34:31Z</time>
      </trkpt>
      <trkpt lat="45.7586" lon="6.6068">
        <ele>1245</ele>
        <time>2022-07-17T01:34:33Z</time>
      </trkpt>
      <trkpt lat="45.7586" lon="6.60677">
        <ele>1245</ele>
        <time>2022-07-17T01:34:35Z</time>
      </trkpt>
      <trkpt lat="45.75861" lon="6.60674">
        <ele>1245</ele>
        <time>2022-07-17T01:34:37Z</time>
      </trkpt>
      <trkpt lat="45.75861" lon="6.60671">
        <ele>1245</ele>
        <time>2022-07-17T01:34:39Z</time>
      </trkpt>
      <trkpt lat="45.75862" lon="6.60669">
        <ele>1246</ele>
        <time>2022-07-17T01:34:41Z</time>
      </trkpt>
      <trkpt lat="45.75863" lon="6.60665">
        <ele>1246</ele>
        <time>2022-07-17T01:34:44Z</time>
      </trkpt>
      <trkpt lat="45.75864" lon="6.60663">
        <ele>1247</ele>
        <time>2022-07-17T01:34:46Z</time>
      </trkpt>
      <trkpt lat="45.75866" lon="6.60661">
        <ele>1247</ele>
        <time>2022-07-17T01:34:48Z</time>
      </trkpt>
      <trkpt lat="45.75868" lon="6.60658">
        <ele>1247</ele>
        <time>2022-07-17T01:34:51Z</time>
      </trkpt>
      <trkpt lat="45.75869" lon="6.60655">
        <ele>1248</ele>
        <time>2022-07-17T01:34:54Z</time>
      </trkpt>
      <trkpt lat="45.75871" lon="6.60653">
        <ele>1248</ele>
        <time>2022-07-17T01:34:57Z</time>
      </trkpt>
      <trkpt lat="45.75873" lon="6.6065">
        <ele>1249</ele>
        <time>2022-07-17T01:35:00Z</time>
      </trkpt>
      <trkpt lat="45.75874" lon="6.60648">
        <ele>1249</ele>
        <time>2022-07-17T01:35:02Z</time>
      </trkpt>
      <trkpt lat="45.75876" lon="6.60646">
        <ele>1250</ele>
        <time>2022-07-17T01:35:05Z</time>
      </trkpt>
      <trkpt lat="45.75877" lon="6.60643">
        <ele>1250</ele>
        <time>2022-07-17T01:35:08Z</time>
      </trkpt>
      <trkpt lat="45.75877" lon="6.6064">
        <ele>1250</ele>
        <time>2022-07-17T01:35:11Z</time>
      </trkpt>
      <trkpt lat="45.75879" lon="6.60637">
        <ele>1251</ele>
        <time>2022-07-17T01:35:14Z</time>
      </trkpt>
      <trkpt lat="45.7588" lon="6.60634">
        <ele>1252</ele>
        <time>2022-07-17T01:35:17Z</time>
      </trkpt>
      <trkpt lat="45.75881" lon="6.60631">
        <ele>1252</ele>
        <time>2022-07-17T01:35:20Z</time>
      </trkpt>
      <trkpt lat="45.75882" lon="6.60628">
        <ele>1253</ele>
        <time>2022-07-17T01:35:23Z</time>
      </trkpt>
      <trkpt lat="45.75884" lon="6.60627">
        <ele>1253</ele>
        <time>2022-07-17T01:35:26Z</time>
      </trkpt>
      <trkpt lat="45.75886" lon="6.60624">
        <ele>1254</ele>
        <time>2022-07-17T01:35:29Z</time>
      </trkpt>
      <trkpt lat="45.75888" lon="6.60622">
        <ele>1255</ele>
        <time>2022-07-17T01:35:32Z</time>
      </trkpt>
      <trkpt lat="45.7589" lon="6.60619">
        <ele>1256</ele>
        <time>2022-07-17T01:35:35Z</time>
      </trkpt>
      <trkpt lat="45.75891" lon="6.60617">
        <ele>1256</ele>
        <time>2022-07-17T01:35:38Z</time>
      </trkpt>
      <trkpt lat="45.75893" lon="6.60614">
        <ele>1257</ele>
        <time>2022-07-17T01:35:41Z</time>
      </trkpt>
      <trkpt lat="45.75894" lon="6.6061">
        <ele>1257</ele>
        <time>2022-07-17T01:35:44Z</time>
      </trkpt>
      <trkpt lat="45.75896" lon="6.60607">
        <ele>1257</ele>
        <time>2022-07-17T01:35:47Z</time>
      </trkpt>
      <trkpt lat="45.75897" lon="6.60605">
        <ele>1258</ele>
        <time>2022-07-17T01:35:49Z</time>
      </trkpt>
      <trkpt lat="45.75898" lon="6.60602">
        <ele>1258</ele>
        <time>2022-07-17T01:35:52Z</time>
      </trkpt>
      <trkpt lat="45.75899" lon="6.60599">
        <ele>1259</ele>
        <time>2022-07-17T01:35:55Z</time>
      </trkpt>
      <trkpt lat="45.75901" lon="6.60597">
        <ele>1260</ele>
        <time>2022-07-17T01:35:58Z</time>
      </trkpt>
      <trkpt lat="45.75902" lon="6.60595">
        <ele>1261</ele>
        <time>2022-07-17T01:36:01Z</time>
      </trkpt>
      <trkpt lat="45.75903" lon="6.60592">
        <ele>1261</ele>
        <time>2022-07-17T01:36:04Z</time>
      </trkpt>
      <trkpt lat="45.75904" lon="6.60589">
        <ele>1262</ele>
        <time>2022-07-17T01:36:07Z</time>
      </trkpt>
      <trkpt lat="45.75905" lon="6.60586">
        <ele>1262</ele>
        <time>2022-07-17T01:36:10Z</time>
      </trkpt>
      <trkpt lat="45.75906" lon="6.60583">
        <ele>1262</ele>
        <time>2022-07-17T01:36:13Z</time>
      </trkpt>
      <trkpt lat="45.75906" lon="6.6058">
        <ele>1262</ele>
        <time>2022-07-17T01:36:15Z</time>
      </trkpt>
      <trkpt lat="45.75906" lon="6.60577">
        <ele>1262</ele>
        <time>2022-07-17T01:36:17Z</time>
      </trkpt>
      <trkpt lat="45.75907" lon="6.60575">
        <ele>1262</ele>
        <time>2022-07-17T01:36:19Z</time>
      </trkpt>
      <trkpt lat="45.75909" lon="6.60572">
        <ele>1262</ele>
        <time>2022-07-17T01:36:21Z</time>
      </trkpt>
      <trkpt lat="45.75912" lon="6.60569">
        <ele>1263</ele>
        <time>2022-07-17T01:36:25Z</time>
      </trkpt>
      <trkpt lat="45.75913" lon="6.60567">
        <ele>1264</ele>
        <time>2022-07-17T01:36:27Z</time>
      </trkpt>
      <trkpt lat="45.75915" lon="6.60564">
        <ele>1265</ele>
        <time>2022-07-17T01:36:30Z</time>
      </trkpt>
      <trkpt lat="45.75917" lon="6.60562">
        <ele>1265</ele>
        <time>2022-07-17T01:36:33Z</time>
      </trkpt>
      <trkpt lat="45.75917" lon="6.60561">
        <ele>1265</ele>
        <time>2022-07-17T01:36:34Z</time>
      </trkpt>
      <trkpt lat="45.75918" lon="6.6056">
        <ele>1265</ele>
        <time>2022-07-17T01:36:35Z</time>
      </trkpt>
      <trkpt lat="45.75918" lon="6.60559">
        <ele>1265</ele>
        <time>2022-07-17T01:36:36Z</time>
      </trkpt>
      <trkpt lat="45.75919" lon="6.60558">
        <ele>1265</ele>
        <time>2022-07-17T01:36:37Z</time>
      </trkpt>
      <trkpt lat="45.75919" lon="6.60557">
        <ele>1265</ele>
        <time>2022-07-17T01:36:38Z</time>
      </trkpt>
      <trkpt lat="45.7592" lon="6.60555">
        <ele>1266</ele>
        <time>2022-07-17T01:36:39Z</time>
      </trkpt>
      <trkpt lat="45.7592" lon="6.60554">
        <ele>1266</ele>
        <time>2022-07-17T01:36:40Z</time>
      </trkpt>
      <trkpt lat="45.75921" lon="6.60553">
        <ele>1266</ele>
        <time>2022-07-17T01:36:41Z</time>
      </trkpt>
      <trkpt lat="45.75921" lon="6.60552">
        <ele>1266</ele>
        <time>2022-07-17T01:36:42Z</time>
      </trkpt>
      <trkpt lat="45.75922" lon="6.60551">
        <ele>1267</ele>
        <time>2022-07-17T01:36:43Z</time>
      </trkpt>
      <trkpt lat="45.75922" lon="6.60549">
        <ele>1267</ele>
        <time>2022-07-17T01:36:45Z</time>
      </trkpt>
      <trkpt lat="45.75922" lon="6.60547">
        <ele>1267</ele>
        <time>2022-07-17T01:36:46Z</time>
      </trkpt>
      <trkpt lat="45.75923" lon="6.60545">
        <ele>1267</ele>
        <time>2022-07-17T01:36:47Z</time>
      </trkpt>
      <trkpt lat="45.75923" lon="6.60543">
        <ele>1267</ele>
        <time>2022-07-17T01:36:48Z</time>
      </trkpt>
      <trkpt lat="45.75923" lon="6.60541">
        <ele>1267</ele>
        <time>2022-07-17T01:36:49Z</time>
      </trkpt>
      <trkpt lat="45.75924" lon="6.60539">
        <ele>1268</ele>
        <time>2022-07-17T01:36:50Z</time>
      </trkpt>
      <trkpt lat="45.75924" lon="6.60537">
        <ele>1268</ele>
        <time>2022-07-17T01:36:51Z</time>
      </trkpt>
      <trkpt lat="45.75923" lon="6.60537">
        <ele>1268</ele>
        <time>2022-07-17T01:36:52Z</time>
      </trkpt>
      <trkpt lat="45.75922" lon="6.60536">
        <ele>1268</ele>
        <time>2022-07-17T01:36:53Z</time>
      </trkpt>
      <trkpt lat="45.75921" lon="6.60535">
        <ele>1268</ele>
        <time>2022-07-17T01:36:54Z</time>
      </trkpt>
      <trkpt lat="45.7592" lon="6.60535">
        <ele>1269</ele>
        <time>2022-07-17T01:36:55Z</time>
      </trkpt>
      <trkpt lat="45.75919" lon="6.60534">
        <ele>1269</ele>
        <time>2022-07-17T01:36:56Z</time>
      </trkpt>
      <trkpt lat="45.75918" lon="6.60533">
        <ele>1269</ele>
        <time>2022-07-17T01:36:57Z</time>
      </trkpt>
      <trkpt lat="45.75917" lon="6.60533">
        <ele>1269</ele>
        <time>2022-07-17T01:36:58Z</time>
      </trkpt>
      <trkpt lat="45.75916" lon="6.60532">
        <ele>1269</ele>
        <time>2022-07-17T01:36:59Z</time>
      </trkpt>
      <trkpt lat="45.75914" lon="6.60531">
        <ele>1269</ele>
        <time>2022-07-17T01:37:00Z</time>
      </trkpt>
      <trkpt lat="45.75912" lon="6.6053">
        <ele>1270</ele>
        <time>2022-07-17T01:37:02Z</time>
      </trkpt>
      <trkpt lat="45.7591" lon="6.60528">
        <ele>1270</ele>
        <time>2022-07-17T01:37:04Z</time>
      </trkpt>
      <trkpt lat="45.75908" lon="6.60527">
        <ele>1270</ele>
        <time>2022-07-17T01:37:05Z</time>
      </trkpt>
      <trkpt lat="45.75907" lon="6.60527">
        <ele>1270</ele>
        <time>2022-07-17T01:37:06Z</time>
      </trkpt>
      <trkpt lat="45.75906" lon="6.60526">
        <ele>1270</ele>
        <time>2022-07-17T01:37:07Z</time>
      </trkpt>
      <trkpt lat="45.75905" lon="6.60525">
        <ele>1270</ele>
        <time>2022-07-17T01:37:08Z</time>
      </trkpt>
      <trkpt lat="45.75904" lon="6.60524">
        <ele>1270</ele>
        <time>2022-07-17T01:37:09Z</time>
      </trkpt>
      <trkpt lat="45.75902" lon="6.60523">
        <ele>1271</ele>
        <time>2022-07-17T01:37:11Z</time>
      </trkpt>
      <trkpt lat="45.759" lon="6.60521">
        <ele>1271</ele>
        <time>2022-07-17T01:37:13Z</time>
      </trkpt>
      <trkpt lat="45.75898" lon="6.6052">
        <ele>1271</ele>
        <time>2022-07-17T01:37:15Z</time>
      </trkpt>
      <trkpt lat="45.75895" lon="6.60518">
        <ele>1271</ele>
        <time>2022-07-17T01:37:17Z</time>
      </trkpt>
      <trkpt lat="45.75894" lon="6.60515">
        <ele>1272</ele>
        <time>2022-07-17T01:37:19Z</time>
      </trkpt>
      <trkpt lat="45.75893" lon="6.60514">
        <ele>1272</ele>
        <time>2022-07-17T01:37:20Z</time>
      </trkpt>
      <trkpt lat="45.75892" lon="6.60513">
        <ele>1272</ele>
        <time>2022-07-17T01:37:21Z</time>
      </trkpt>
      <trkpt lat="45.75891" lon="6.60512">
        <ele>1272</ele>
        <time>2022-07-17T01:37:23Z</time>
      </trkpt>
      <trkpt lat="45.75889" lon="6.60509">
        <ele>1272</ele>
        <time>2022-07-17T01:37:24Z</time>
      </trkpt>
      <trkpt lat="45.75887" lon="6.60507">
        <ele>1271</ele>
        <time>2022-07-17T01:37:26Z</time>
      </trkpt>
      <trkpt lat="45.75885" lon="6.60505">
        <ele>1271</ele>
        <time>2022-07-17T01:37:28Z</time>
      </trkpt>
      <trkpt lat="45.75883" lon="6.60502">
        <ele>1271</ele>
        <time>2022-07-17T01:37:30Z</time>
      </trkpt>
      <trkpt lat="45.75882" lon="6.60499">
        <ele>1272</ele>
        <time>2022-07-17T01:37:32Z</time>
      </trkpt>
      <trkpt lat="45.7588" lon="6.60496">
        <ele>1272</ele>
        <time>2022-07-17T01:37:34Z</time>
      </trkpt>
      <trkpt lat="45.75879" lon="6.60494">
        <ele>1272</ele>
        <time>2022-07-17T01:37:36Z</time>
      </trkpt>
      <trkpt lat="45.75878" lon="6.60491">
        <ele>1272</ele>
        <time>2022-07-17T01:37:38Z</time>
      </trkpt>
      <trkpt lat="45.75877" lon="6.60489">
        <ele>1272</ele>
        <time>2022-07-17T01:37:40Z</time>
      </trkpt>
      <trkpt lat="45.75876" lon="6.60486">
        <ele>1272</ele>
        <time>2022-07-17T01:37:42Z</time>
      </trkpt>
      <trkpt lat="45.75874" lon="6.60483">
        <ele>1272</ele>
        <time>2022-07-17T01:37:44Z</time>
      </trkpt>
      <trkpt lat="45.75873" lon="6.60481">
        <ele>1272</ele>
        <time>2022-07-17T01:37:46Z</time>
      </trkpt>
      <trkpt lat="45.75872" lon="6.60478">
        <ele>1273</ele>
        <time>2022-07-17T01:37:48Z</time>
      </trkpt>
      <trkpt lat="45.7587" lon="6.60476">
        <ele>1273</ele>
        <time>2022-07-17T01:37:50Z</time>
      </trkpt>
      <trkpt lat="45.7587" lon="6.60472">
        <ele>1274</ele>
        <time>2022-07-17T01:37:53Z</time>
      </trkpt>
      <trkpt lat="45.75872" lon="6.60469">
        <ele>1274</ele>
        <time>2022-07-17T01:37:55Z</time>
      </trkpt>
      <trkpt lat="45.75873" lon="6.60465">
        <ele>1274</ele>
        <time>2022-07-17T01:37:57Z</time>
      </trkpt>
      <trkpt lat="45.75874" lon="6.60461">
        <ele>1274</ele>
        <time>2022-07-17T01:37:59Z</time>
      </trkpt>
      <trkpt lat="45.75874" lon="6.60457">
        <ele>1275</ele>
        <time>2022-07-17T01:38:01Z</time>
      </trkpt>
      <trkpt lat="45.75875" lon="6.60453">
        <ele>1276</ele>
        <time>2022-07-17T01:38:04Z</time>
      </trkpt>
      <trkpt lat="45.75874" lon="6.6045">
        <ele>1276</ele>
        <time>2022-07-17T01:38:06Z</time>
      </trkpt>
      <trkpt lat="45.75873" lon="6.60447">
        <ele>1276</ele>
        <time>2022-07-17T01:38:08Z</time>
      </trkpt>
      <trkpt lat="45.75872" lon="6.60444">
        <ele>1276</ele>
        <time>2022-07-17T01:38:10Z</time>
      </trkpt>
      <trkpt lat="45.75871" lon="6.60442">
        <ele>1276</ele>
        <time>2022-07-17T01:38:12Z</time>
      </trkpt>
      <trkpt lat="45.75871" lon="6.60439">
        <ele>1276</ele>
        <time>2022-07-17T01:38:14Z</time>
      </trkpt>
      <trkpt lat="45.7587" lon="6.60436">
        <ele>1277</ele>
        <time>2022-07-17T01:38:16Z</time>
      </trkpt>
      <trkpt lat="45.7587" lon="6.60433">
        <ele>1278</ele>
        <time>2022-07-17T01:38:18Z</time>
      </trkpt>
      <trkpt lat="45.75869" lon="6.6043">
        <ele>1278</ele>
        <time>2022-07-17T01:38:20Z</time>
      </trkpt>
      <trkpt lat="45.75869" lon="6.60426">
        <ele>1278</ele>
        <time>2022-07-17T01:38:22Z</time>
      </trkpt>
      <trkpt lat="45.75867" lon="6.60423">
        <ele>1278</ele>
        <time>2022-07-17T01:38:24Z</time>
      </trkpt>
      <trkpt lat="45.75867" lon="6.6042">
        <ele>1278</ele>
        <time>2022-07-17T01:38:26Z</time>
      </trkpt>
      <trkpt lat="45.75866" lon="6.60417">
        <ele>1278</ele>
        <time>2022-07-17T01:38:28Z</time>
      </trkpt>
      <trkpt lat="45.75865" lon="6.60414">
        <ele>1278</ele>
        <time>2022-07-17T01:38:30Z</time>
      </trkpt>
      <trkpt lat="45.75864" lon="6.60411">
        <ele>1278</ele>
        <time>2022-07-17T01:38:32Z</time>
      </trkpt>
      <trkpt lat="45.75865" lon="6.60408">
        <ele>1278</ele>
        <time>2022-07-17T01:38:34Z</time>
      </trkpt>
      <trkpt lat="45.75865" lon="6.60405">
        <ele>1278</ele>
        <time>2022-07-17T01:38:36Z</time>
      </trkpt>
      <trkpt lat="45.75865" lon="6.60402">
        <ele>1278</ele>
        <time>2022-07-17T01:38:38Z</time>
      </trkpt>
      <trkpt lat="45.75865" lon="6.60399">
        <ele>1278</ele>
        <time>2022-07-17T01:38:41Z</time>
      </trkpt>
      <trkpt lat="45.75864" lon="6.60396">
        <ele>1279</ele>
        <time>2022-07-17T01:38:43Z</time>
      </trkpt>
      <trkpt lat="45.75863" lon="6.60393">
        <ele>1279</ele>
        <time>2022-07-17T01:38:45Z</time>
      </trkpt>
      <trkpt lat="45.75862" lon="6.60391">
        <ele>1280</ele>
        <time>2022-07-17T01:38:47Z</time>
      </trkpt>
      <trkpt lat="45.75861" lon="6.60389">
        <ele>1280</ele>
        <time>2022-07-17T01:38:49Z</time>
      </trkpt>
      <trkpt lat="45.75859" lon="6.60387">
        <ele>1280</ele>
        <time>2022-07-17T01:38:51Z</time>
      </trkpt>
      <trkpt lat="45.75857" lon="6.60385">
        <ele>1280</ele>
        <time>2022-07-17T01:38:53Z</time>
      </trkpt>
      <trkpt lat="45.75855" lon="6.60383">
        <ele>1279</ele>
        <time>2022-07-17T01:38:55Z</time>
      </trkpt>
      <trkpt lat="45.75853" lon="6.60382">
        <ele>1279</ele>
        <time>2022-07-17T01:38:57Z</time>
      </trkpt>
      <trkpt lat="45.7585" lon="6.60379">
        <ele>1279</ele>
        <time>2022-07-17T01:38:59Z</time>
      </trkpt>
      <trkpt lat="45.75848" lon="6.60377">
        <ele>1278</ele>
        <time>2022-07-17T01:39:00Z</time>
      </trkpt>
      <trkpt lat="45.75847" lon="6.60375">
        <ele>1278</ele>
        <time>2022-07-17T01:39:01Z</time>
      </trkpt>
      <trkpt lat="45.75845" lon="6.60373">
        <ele>1278</ele>
        <time>2022-07-17T01:39:02Z</time>
      </trkpt>
      <trkpt lat="45.75843" lon="6.60371">
        <ele>1278</ele>
        <time>2022-07-17T01:39:03Z</time>
      </trkpt>
      <trkpt lat="45.75841" lon="6.60369">
        <ele>1278</ele>
        <time>2022-07-17T01:39:04Z</time>
      </trkpt>
      <trkpt lat="45.7584" lon="6.60368">
        <ele>1278</ele>
        <time>2022-07-17T01:39:05Z</time>
      </trkpt>
      <trkpt lat="45.75838" lon="6.60366">
        <ele>1278</ele>
        <time>2022-07-17T01:39:06Z</time>
      </trkpt>
      <trkpt lat="45.75836" lon="6.60364">
        <ele>1278</ele>
        <time>2022-07-17T01:39:07Z</time>
      </trkpt>
      <trkpt lat="45.75835" lon="6.60362">
        <ele>1278</ele>
        <time>2022-07-17T01:39:08Z</time>
      </trkpt>
      <trkpt lat="45.75834" lon="6.60361">
        <ele>1278</ele>
        <time>2022-07-17T01:39:09Z</time>
      </trkpt>
      <trkpt lat="45.75832" lon="6.60359">
        <ele>1278</ele>
        <time>2022-07-17T01:39:10Z</time>
      </trkpt>
      <trkpt lat="45.75831" lon="6.60357">
        <ele>1278</ele>
        <time>2022-07-17T01:39:11Z</time>
      </trkpt>
      <trkpt lat="45.75829" lon="6.60355">
        <ele>1278</ele>
        <time>2022-07-17T01:39:12Z</time>
      </trkpt>
      <trkpt lat="45.75828" lon="6.60354">
        <ele>1278</ele>
        <time>2022-07-17T01:39:13Z</time>
      </trkpt>
      <trkpt lat="45.75826" lon="6.60352">
        <ele>1278</ele>
        <time>2022-07-17T01:39:14Z</time>
      </trkpt>
      <trkpt lat="45.75825" lon="6.6035">
        <ele>1278</ele>
        <time>2022-07-17T01:39:15Z</time>
      </trkpt>
      <trkpt lat="45.75822" lon="6.60347">
        <ele>1278</ele>
        <time>2022-07-17T01:39:16Z</time>
      </trkpt>
      <trkpt lat="45.7582" lon="6.60343">
        <ele>1278</ele>
        <time>2022-07-17T01:39:19Z</time>
      </trkpt>
      <trkpt lat="45.75817" lon="6.6034">
        <ele>1278</ele>
        <time>2022-07-17T01:39:21Z</time>
      </trkpt>
      <trkpt lat="45.75816" lon="6.60338">
        <ele>1278</ele>
        <time>2022-07-17T01:39:22Z</time>
      </trkpt>
      <trkpt lat="45.75815" lon="6.60336">
        <ele>1278</ele>
        <time>2022-07-17T01:39:23Z</time>
      </trkpt>
      <trkpt lat="45.75813" lon="6.60334">
        <ele>1278</ele>
        <time>2022-07-17T01:39:24Z</time>
      </trkpt>
      <trkpt lat="45.75812" lon="6.60332">
        <ele>1278</ele>
        <time>2022-07-17T01:39:25Z</time>
      </trkpt>
      <trkpt lat="45.75811" lon="6.60329">
        <ele>1277</ele>
        <time>2022-07-17T01:39:26Z</time>
      </trkpt>
      <trkpt lat="45.7581" lon="6.60327">
        <ele>1277</ele>
        <time>2022-07-17T01:39:27Z</time>
      </trkpt>
      <trkpt lat="45.75809" lon="6.60325">
        <ele>1277</ele>
        <time>2022-07-17T01:39:28Z</time>
      </trkpt>
      <trkpt lat="45.75808" lon="6.60323">
        <ele>1277</ele>
        <time>2022-07-17T01:39:29Z</time>
      </trkpt>
      <trkpt lat="45.75807" lon="6.6032">
        <ele>1277</ele>
        <time>2022-07-17T01:39:30Z</time>
      </trkpt>
      <trkpt lat="45.75805" lon="6.60316">
        <ele>1277</ele>
        <time>2022-07-17T01:39:32Z</time>
      </trkpt>
      <trkpt lat="45.75803" lon="6.60312">
        <ele>1277</ele>
        <time>2022-07-17T01:39:34Z</time>
      </trkpt>
      <trkpt lat="45.75802" lon="6.60308">
        <ele>1277</ele>
        <time>2022-07-17T01:39:36Z</time>
      </trkpt>
      <trkpt lat="45.758" lon="6.60304">
        <ele>1277</ele>
        <time>2022-07-17T01:39:38Z</time>
      </trkpt>
      <trkpt lat="45.75799" lon="6.60301">
        <ele>1277</ele>
        <time>2022-07-17T01:39:39Z</time>
      </trkpt>
      <trkpt lat="45.75798" lon="6.60299">
        <ele>1276</ele>
        <time>2022-07-17T01:39:40Z</time>
      </trkpt>
      <trkpt lat="45.75798" lon="6.60296">
        <ele>1276</ele>
        <time>2022-07-17T01:39:41Z</time>
      </trkpt>
      <trkpt lat="45.75797" lon="6.60293">
        <ele>1276</ele>
        <time>2022-07-17T01:39:42Z</time>
      </trkpt>
      <trkpt lat="45.75796" lon="6.60289">
        <ele>1276</ele>
        <time>2022-07-17T01:39:44Z</time>
      </trkpt>
      <trkpt lat="45.75795" lon="6.60284">
        <ele>1275</ele>
        <time>2022-07-17T01:39:46Z</time>
      </trkpt>
      <trkpt lat="45.75793" lon="6.6028">
        <ele>1275</ele>
        <time>2022-07-17T01:39:48Z</time>
      </trkpt>
      <trkpt lat="45.75792" lon="6.60278">
        <ele>1275</ele>
        <time>2022-07-17T01:39:49Z</time>
      </trkpt>
      <trkpt lat="45.75791" lon="6.60276">
        <ele>1275</ele>
        <time>2022-07-17T01:39:50Z</time>
      </trkpt>
      <trkpt lat="45.7579" lon="6.60273">
        <ele>1275</ele>
        <time>2022-07-17T01:39:51Z</time>
      </trkpt>
      <trkpt lat="45.75789" lon="6.60271">
        <ele>1275</ele>
        <time>2022-07-17T01:39:52Z</time>
      </trkpt>
      <trkpt lat="45.75788" lon="6.60269">
        <ele>1275</ele>
        <time>2022-07-17T01:39:53Z</time>
      </trkpt>
      <trkpt lat="45.75787" lon="6.60267">
        <ele>1275</ele>
        <time>2022-07-17T01:39:54Z</time>
      </trkpt>
      <trkpt lat="45.75787" lon="6.60265">
        <ele>1275</ele>
        <time>2022-07-17T01:39:55Z</time>
      </trkpt>
      <trkpt lat="45.75786" lon="6.60262">
        <ele>1273</ele>
        <time>2022-07-17T01:39:56Z</time>
      </trkpt>
      <trkpt lat="45.75785" lon="6.60258">
        <ele>1273</ele>
        <time>2022-07-17T01:39:58Z</time>
      </trkpt>
      <trkpt lat="45.75784" lon="6.60253">
        <ele>1273</ele>
        <time>2022-07-17T01:40:00Z</time>
      </trkpt>
      <trkpt lat="45.75783" lon="6.60249">
        <ele>1273</ele>
        <time>2022-07-17T01:40:02Z</time>
      </trkpt>
      <trkpt lat="45.75781" lon="6.60244">
        <ele>1272</ele>
        <time>2022-07-17T01:40:04Z</time>
      </trkpt>
      <trkpt lat="45.7578" lon="6.60242">
        <ele>1272</ele>
        <time>2022-07-17T01:40:05Z</time>
      </trkpt>
      <trkpt lat="45.75779" lon="6.60239">
        <ele>1272</ele>
        <time>2022-07-17T01:40:06Z</time>
      </trkpt>
      <trkpt lat="45.75779" lon="6.60237">
        <ele>1272</ele>
        <time>2022-07-17T01:40:07Z</time>
      </trkpt>
      <trkpt lat="45.75778" lon="6.60234">
        <ele>1272</ele>
        <time>2022-07-17T01:40:08Z</time>
      </trkpt>
      <trkpt lat="45.75777" lon="6.60231">
        <ele>1272</ele>
        <time>2022-07-17T01:40:09Z</time>
      </trkpt>
      <trkpt lat="45.75777" lon="6.60228">
        <ele>1271</ele>
        <time>2022-07-17T01:40:10Z</time>
      </trkpt>
      <trkpt lat="45.75776" lon="6.60226">
        <ele>1271</ele>
        <time>2022-07-17T01:40:11Z</time>
      </trkpt>
      <trkpt lat="45.75775" lon="6.60221">
        <ele>1271</ele>
        <time>2022-07-17T01:40:13Z</time>
      </trkpt>
      <trkpt lat="45.75775" lon="6.60216">
        <ele>1271</ele>
        <time>2022-07-17T01:40:15Z</time>
      </trkpt>
      <trkpt lat="45.75774" lon="6.60212">
        <ele>1271</ele>
        <time>2022-07-17T01:40:17Z</time>
      </trkpt>
      <trkpt lat="45.75774" lon="6.60206">
        <ele>1271</ele>
        <time>2022-07-17T01:40:19Z</time>
      </trkpt>
      <trkpt lat="45.75773" lon="6.60202">
        <ele>1271</ele>
        <time>2022-07-17T01:40:21Z</time>
      </trkpt>
      <trkpt lat="45.75772" lon="6.60197">
        <ele>1270</ele>
        <time>2022-07-17T01:40:23Z</time>
      </trkpt>
      <trkpt lat="45.75772" lon="6.60194">
        <ele>1270</ele>
        <time>2022-07-17T01:40:24Z</time>
      </trkpt>
      <trkpt lat="45.75772" lon="6.60192">
        <ele>1269</ele>
        <time>2022-07-17T01:40:25Z</time>
      </trkpt>
      <trkpt lat="45.75771" lon="6.60187">
        <ele>1269</ele>
        <time>2022-07-17T01:40:27Z</time>
      </trkpt>
      <trkpt lat="45.7577" lon="6.60184">
        <ele>1269</ele>
        <time>2022-07-17T01:40:28Z</time>
      </trkpt>
      <trkpt lat="45.75769" lon="6.60182">
        <ele>1268</ele>
        <time>2022-07-17T01:40:29Z</time>
      </trkpt>
      <trkpt lat="45.75768" lon="6.60178">
        <ele>1268</ele>
        <time>2022-07-17T01:40:31Z</time>
      </trkpt>
      <trkpt lat="45.75766" lon="6.60174">
        <ele>1268</ele>
        <time>2022-07-17T01:40:32Z</time>
      </trkpt>
      <trkpt lat="45.75766" lon="6.60173">
        <ele>1268</ele>
        <time>2022-07-17T01:40:33Z</time>
      </trkpt>
      <trkpt lat="45.75764" lon="6.60169">
        <ele>1267</ele>
        <time>2022-07-17T01:40:35Z</time>
      </trkpt>
      <trkpt lat="45.75763" lon="6.60166">
        <ele>1267</ele>
        <time>2022-07-17T01:40:36Z</time>
      </trkpt>
      <trkpt lat="45.75761" lon="6.60164">
        <ele>1267</ele>
        <time>2022-07-17T01:40:37Z</time>
      </trkpt>
      <trkpt lat="45.7576" lon="6.60163">
        <ele>1267</ele>
        <time>2022-07-17T01:40:38Z</time>
      </trkpt>
      <trkpt lat="45.75758" lon="6.60159">
        <ele>1267</ele>
        <time>2022-07-17T01:40:40Z</time>
      </trkpt>
      <trkpt lat="45.75757" lon="6.60156">
        <ele>1267</ele>
        <time>2022-07-17T01:40:41Z</time>
      </trkpt>
      <trkpt lat="45.75755" lon="6.60154">
        <ele>1266</ele>
        <time>2022-07-17T01:40:42Z</time>
      </trkpt>
      <trkpt lat="45.75753" lon="6.60152">
        <ele>1266</ele>
        <time>2022-07-17T01:40:44Z</time>
      </trkpt>
      <trkpt lat="45.75751" lon="6.6015">
        <ele>1266</ele>
        <time>2022-07-17T01:40:45Z</time>
      </trkpt>
      <trkpt lat="45.75748" lon="6.60147">
        <ele>1266</ele>
        <time>2022-07-17T01:40:47Z</time>
      </trkpt>
      <trkpt lat="45.75746" lon="6.60144">
        <ele>1265</ele>
        <time>2022-07-17T01:40:49Z</time>
      </trkpt>
      <trkpt lat="45.75744" lon="6.60143">
        <ele>1265</ele>
        <time>2022-07-17T01:40:50Z</time>
      </trkpt>
      <trkpt lat="45.75741" lon="6.60141">
        <ele>1265</ele>
        <time>2022-07-17T01:40:52Z</time>
      </trkpt>
      <trkpt lat="45.75738" lon="6.60138">
        <ele>1265</ele>
        <time>2022-07-17T01:40:54Z</time>
      </trkpt>
      <trkpt lat="45.75737" lon="6.60136">
        <ele>1265</ele>
        <time>2022-07-17T01:40:55Z</time>
      </trkpt>
      <trkpt lat="45.75734" lon="6.60133">
        <ele>1265</ele>
        <time>2022-07-17T01:40:57Z</time>
      </trkpt>
      <trkpt lat="45.75731" lon="6.6013">
        <ele>1265</ele>
        <time>2022-07-17T01:40:59Z</time>
      </trkpt>
      <trkpt lat="45.75728" lon="6.60127">
        <ele>1265</ele>
        <time>2022-07-17T01:41:01Z</time>
      </trkpt>
      <trkpt lat="45.75725" lon="6.60125">
        <ele>1265</ele>
        <time>2022-07-17T01:41:03Z</time>
      </trkpt>
      <trkpt lat="45.75723" lon="6.60121">
        <ele>1264</ele>
        <time>2022-07-17T01:41:05Z</time>
      </trkpt>
      <trkpt lat="45.7572" lon="6.60119">
        <ele>1264</ele>
        <time>2022-07-17T01:41:07Z</time>
      </trkpt>
      <trkpt lat="45.75718" lon="6.60117">
        <ele>1264</ele>
        <time>2022-07-17T01:41:08Z</time>
      </trkpt>
      <trkpt lat="45.75717" lon="6.60115">
        <ele>1264</ele>
        <time>2022-07-17T01:41:09Z</time>
      </trkpt>
      <trkpt lat="45.75714" lon="6.60112">
        <ele>1264</ele>
        <time>2022-07-17T01:41:10Z</time>
      </trkpt>
      <trkpt lat="45.75712" lon="6.60108">
        <ele>1263</ele>
        <time>2022-07-17T01:41:13Z</time>
      </trkpt>
      <trkpt lat="45.7571" lon="6.60106">
        <ele>1263</ele>
        <time>2022-07-17T01:41:14Z</time>
      </trkpt>
      <trkpt lat="45.75708" lon="6.60103">
        <ele>1263</ele>
        <time>2022-07-17T01:41:16Z</time>
      </trkpt>
      <trkpt lat="45.75706" lon="6.60101">
        <ele>1263</ele>
        <time>2022-07-17T01:41:17Z</time>
      </trkpt>
      <trkpt lat="45.75704" lon="6.60097">
        <ele>1263</ele>
        <time>2022-07-17T01:41:19Z</time>
      </trkpt>
      <trkpt lat="45.75702" lon="6.60094">
        <ele>1263</ele>
        <time>2022-07-17T01:41:21Z</time>
      </trkpt>
      <trkpt lat="45.75701" lon="6.60092">
        <ele>1263</ele>
        <time>2022-07-17T01:41:22Z</time>
      </trkpt>
      <trkpt lat="45.75699" lon="6.60089">
        <ele>1263</ele>
        <time>2022-07-17T01:41:23Z</time>
      </trkpt>
      <trkpt lat="45.75698" lon="6.60087">
        <ele>1263</ele>
        <time>2022-07-17T01:41:24Z</time>
      </trkpt>
      <trkpt lat="45.75696" lon="6.60082">
        <ele>1263</ele>
        <time>2022-07-17T01:41:26Z</time>
      </trkpt>
      <trkpt lat="45.75694" lon="6.60079">
        <ele>1263</ele>
        <time>2022-07-17T01:41:28Z</time>
      </trkpt>
      <trkpt lat="45.75692" lon="6.60075">
        <ele>1263</ele>
        <time>2022-07-17T01:41:29Z</time>
      </trkpt>
      <trkpt lat="45.75691" lon="6.60073">
        <ele>1263</ele>
        <time>2022-07-17T01:41:31Z</time>
      </trkpt>
      <trkpt lat="45.7569" lon="6.6007">
        <ele>1262</ele>
        <time>2022-07-17T01:41:32Z</time>
      </trkpt>
      <trkpt lat="45.75689" lon="6.60068">
        <ele>1262</ele>
        <time>2022-07-17T01:41:33Z</time>
      </trkpt>
      <trkpt lat="45.75688" lon="6.60066">
        <ele>1262</ele>
        <time>2022-07-17T01:41:34Z</time>
      </trkpt>
      <trkpt lat="45.75687" lon="6.60064">
        <ele>1262</ele>
        <time>2022-07-17T01:41:35Z</time>
      </trkpt>
      <trkpt lat="45.75686" lon="6.60061">
        <ele>1262</ele>
        <time>2022-07-17T01:41:36Z</time>
      </trkpt>
      <trkpt lat="45.75685" lon="6.60059">
        <ele>1262</ele>
        <time>2022-07-17T01:41:37Z</time>
      </trkpt>
      <trkpt lat="45.75684" lon="6.60057">
        <ele>1262</ele>
        <time>2022-07-17T01:41:38Z</time>
      </trkpt>
      <trkpt lat="45.75683" lon="6.60055">
        <ele>1262</ele>
        <time>2022-07-17T01:41:39Z</time>
      </trkpt>
      <trkpt lat="45.75682" lon="6.60052">
        <ele>1262</ele>
        <time>2022-07-17T01:41:40Z</time>
      </trkpt>
      <trkpt lat="45.75681" lon="6.6005">
        <ele>1262</ele>
        <time>2022-07-17T01:41:41Z</time>
      </trkpt>
      <trkpt lat="45.75679" lon="6.60048">
        <ele>1262</ele>
        <time>2022-07-17T01:41:42Z</time>
      </trkpt>
      <trkpt lat="45.75678" lon="6.60046">
        <ele>1262</ele>
        <time>2022-07-17T01:41:43Z</time>
      </trkpt>
      <trkpt lat="45.75676" lon="6.60042">
        <ele>1262</ele>
        <time>2022-07-17T01:41:45Z</time>
      </trkpt>
      <trkpt lat="45.75674" lon="6.60038">
        <ele>1262</ele>
        <time>2022-07-17T01:41:47Z</time>
      </trkpt>
      <trkpt lat="45.75672" lon="6.60034">
        <ele>1262</ele>
        <time>2022-07-17T01:41:49Z</time>
      </trkpt>
      <trkpt lat="45.75671" lon="6.6003">
        <ele>1262</ele>
        <time>2022-07-17T01:41:50Z</time>
      </trkpt>
      <trkpt lat="45.75671" lon="6.60029">
        <ele>1262</ele>
        <time>2022-07-17T01:41:51Z</time>
      </trkpt>
      <trkpt lat="45.7567" lon="6.60026">
        <ele>1261</ele>
        <time>2022-07-17T01:41:52Z</time>
      </trkpt>
      <trkpt lat="45.75669" lon="6.60024">
        <ele>1261</ele>
        <time>2022-07-17T01:41:53Z</time>
      </trkpt>
      <trkpt lat="45.75669" lon="6.6002">
        <ele>1261</ele>
        <time>2022-07-17T01:41:54Z</time>
      </trkpt>
      <trkpt lat="45.75668" lon="6.60018">
        <ele>1261</ele>
        <time>2022-07-17T01:41:55Z</time>
      </trkpt>
      <trkpt lat="45.75667" lon="6.60014">
        <ele>1261</ele>
        <time>2022-07-17T01:41:57Z</time>
      </trkpt>
      <trkpt lat="45.75667" lon="6.60011">
        <ele>1261</ele>
        <time>2022-07-17T01:41:58Z</time>
      </trkpt>
      <trkpt lat="45.75668" lon="6.60008">
        <ele>1261</ele>
        <time>2022-07-17T01:41:59Z</time>
      </trkpt>
      <trkpt lat="45.75667" lon="6.6">
        <ele>1261</ele>
        <time>2022-07-17T01:42:01Z</time>
      </trkpt>
      <trkpt lat="45.75667" lon="6.59998">
        <ele>1261</ele>
        <time>2022-07-17T01:42:03Z</time>
      </trkpt>
      <trkpt lat="45.75667" lon="6.59995">
        <ele>1260</ele>
        <time>2022-07-17T01:42:04Z</time>
      </trkpt>
      <trkpt lat="45.75667" lon="6.59992">
        <ele>1260</ele>
        <time>2022-07-17T01:42:05Z</time>
      </trkpt>
      <trkpt lat="45.75667" lon="6.5999">
        <ele>1260</ele>
        <time>2022-07-17T01:42:06Z</time>
      </trkpt>
      <trkpt lat="45.75666" lon="6.59987">
        <ele>1260</ele>
        <time>2022-07-17T01:42:07Z</time>
      </trkpt>
      <trkpt lat="45.75665" lon="6.59984">
        <ele>1260</ele>
        <time>2022-07-17T01:42:08Z</time>
      </trkpt>
      <trkpt lat="45.75664" lon="6.59982">
        <ele>1260</ele>
        <time>2022-07-17T01:42:09Z</time>
      </trkpt>
      <trkpt lat="45.75663" lon="6.59978">
        <ele>1259</ele>
        <time>2022-07-17T01:42:11Z</time>
      </trkpt>
      <trkpt lat="45.75662" lon="6.59974">
        <ele>1259</ele>
        <time>2022-07-17T01:42:13Z</time>
      </trkpt>
      <trkpt lat="45.7566" lon="6.5997">
        <ele>1259</ele>
        <time>2022-07-17T01:42:15Z</time>
      </trkpt>
      <trkpt lat="45.75659" lon="6.59966">
        <ele>1258</ele>
        <time>2022-07-17T01:42:17Z</time>
      </trkpt>
      <trkpt lat="45.75657" lon="6.59963">
        <ele>1258</ele>
        <time>2022-07-17T01:42:19Z</time>
      </trkpt>
      <trkpt lat="45.75656" lon="6.5996">
        <ele>1258</ele>
        <time>2022-07-17T01:42:21Z</time>
      </trkpt>
      <trkpt lat="45.75654" lon="6.59959">
        <ele>1258</ele>
        <time>2022-07-17T01:42:23Z</time>
      </trkpt>
      <trkpt lat="45.75653" lon="6.59956">
        <ele>1258</ele>
        <time>2022-07-17T01:42:25Z</time>
      </trkpt>
      <trkpt lat="45.75651" lon="6.59954">
        <ele>1257</ele>
        <time>2022-07-17T01:42:27Z</time>
      </trkpt>
      <trkpt lat="45.7565" lon="6.5995">
        <ele>1257</ele>
        <time>2022-07-17T01:42:29Z</time>
      </trkpt>
      <trkpt lat="45.75648" lon="6.59947">
        <ele>1257</ele>
        <time>2022-07-17T01:42:31Z</time>
      </trkpt>
      <trkpt lat="45.75647" lon="6.59944">
        <ele>1257</ele>
        <time>2022-07-17T01:42:33Z</time>
      </trkpt>
      <trkpt lat="45.75645" lon="6.59941">
        <ele>1257</ele>
        <time>2022-07-17T01:42:35Z</time>
      </trkpt>
      <trkpt lat="45.75644" lon="6.59939">
        <ele>1257</ele>
        <time>2022-07-17T01:42:37Z</time>
      </trkpt>
      <trkpt lat="45.75642" lon="6.59936">
        <ele>1257</ele>
        <time>2022-07-17T01:42:39Z</time>
      </trkpt>
      <trkpt lat="45.75641" lon="6.59932">
        <ele>1257</ele>
        <time>2022-07-17T01:42:41Z</time>
      </trkpt>
      <trkpt lat="45.75639" lon="6.59929">
        <ele>1257</ele>
        <time>2022-07-17T01:42:43Z</time>
      </trkpt>
      <trkpt lat="45.75638" lon="6.59926">
        <ele>1257</ele>
        <time>2022-07-17T01:42:45Z</time>
      </trkpt>
      <trkpt lat="45.75636" lon="6.59922">
        <ele>1256</ele>
        <time>2022-07-17T01:42:47Z</time>
      </trkpt>
      <trkpt lat="45.75635" lon="6.59919">
        <ele>1256</ele>
        <time>2022-07-17T01:42:48Z</time>
      </trkpt>
      <trkpt lat="45.75633" lon="6.59915">
        <ele>1256</ele>
        <time>2022-07-17T01:42:51Z</time>
      </trkpt>
      <trkpt lat="45.75631" lon="6.59911">
        <ele>1256</ele>
        <time>2022-07-17T01:42:53Z</time>
      </trkpt>
      <trkpt lat="45.7563" lon="6.59908">
        <ele>1256</ele>
        <time>2022-07-17T01:42:55Z</time>
      </trkpt>
      <trkpt lat="45.7563" lon="6.59905">
        <ele>1255</ele>
        <time>2022-07-17T01:42:57Z</time>
      </trkpt>
      <trkpt lat="45.75629" lon="6.59901">
        <ele>1255</ele>
        <time>2022-07-17T01:42:59Z</time>
      </trkpt>
      <trkpt lat="45.75628" lon="6.59898">
        <ele>1255</ele>
        <time>2022-07-17T01:43:01Z</time>
      </trkpt>
      <trkpt lat="45.75627" lon="6.59893">
        <ele>1255</ele>
        <time>2022-07-17T01:43:03Z</time>
      </trkpt>
      <trkpt lat="45.75626" lon="6.5989">
        <ele>1255</ele>
        <time>2022-07-17T01:43:05Z</time>
      </trkpt>
      <trkpt lat="45.75625" lon="6.59887">
        <ele>1254</ele>
        <time>2022-07-17T01:43:07Z</time>
      </trkpt>
      <trkpt lat="45.75624" lon="6.59884">
        <ele>1254</ele>
        <time>2022-07-17T01:43:09Z</time>
      </trkpt>
      <trkpt lat="45.75623" lon="6.5988">
        <ele>1254</ele>
        <time>2022-07-17T01:43:11Z</time>
      </trkpt>
      <trkpt lat="45.75622" lon="6.59877">
        <ele>1254</ele>
        <time>2022-07-17T01:43:13Z</time>
      </trkpt>
      <trkpt lat="45.75622" lon="6.59873">
        <ele>1254</ele>
        <time>2022-07-17T01:43:15Z</time>
      </trkpt>
      <trkpt lat="45.75621" lon="6.59869">
        <ele>1254</ele>
        <time>2022-07-17T01:43:17Z</time>
      </trkpt>
      <trkpt lat="45.7562" lon="6.59865">
        <ele>1254</ele>
        <time>2022-07-17T01:43:19Z</time>
      </trkpt>
      <trkpt lat="45.75619" lon="6.59862">
        <ele>1254</ele>
        <time>2022-07-17T01:43:21Z</time>
      </trkpt>
      <trkpt lat="45.75618" lon="6.59857">
        <ele>1254</ele>
        <time>2022-07-17T01:43:23Z</time>
      </trkpt>
      <trkpt lat="45.75617" lon="6.59855">
        <ele>1254</ele>
        <time>2022-07-17T01:43:25Z</time>
      </trkpt>
      <trkpt lat="45.75616" lon="6.59852">
        <ele>1254</ele>
        <time>2022-07-17T01:43:27Z</time>
      </trkpt>
      <trkpt lat="45.75615" lon="6.59849">
        <ele>1254</ele>
        <time>2022-07-17T01:43:29Z</time>
      </trkpt>
      <trkpt lat="45.75614" lon="6.59846">
        <ele>1254</ele>
        <time>2022-07-17T01:43:31Z</time>
      </trkpt>
      <trkpt lat="45.75613" lon="6.59843">
        <ele>1254</ele>
        <time>2022-07-17T01:43:33Z</time>
      </trkpt>
      <trkpt lat="45.75611" lon="6.59839">
        <ele>1254</ele>
        <time>2022-07-17T01:43:35Z</time>
      </trkpt>
      <trkpt lat="45.7561" lon="6.59836">
        <ele>1254</ele>
        <time>2022-07-17T01:43:37Z</time>
      </trkpt>
      <trkpt lat="45.75609" lon="6.59832">
        <ele>1254</ele>
        <time>2022-07-17T01:43:39Z</time>
      </trkpt>
      <trkpt lat="45.75607" lon="6.59828">
        <ele>1254</ele>
        <time>2022-07-17T01:43:41Z</time>
      </trkpt>
      <trkpt lat="45.75606" lon="6.59823">
        <ele>1254</ele>
        <time>2022-07-17T01:43:42Z</time>
      </trkpt>
      <trkpt lat="45.75605" lon="6.5982">
        <ele>1253</ele>
        <time>2022-07-17T01:43:44Z</time>
      </trkpt>
      <trkpt lat="45.75604" lon="6.59815">
        <ele>1252</ele>
        <time>2022-07-17T01:43:46Z</time>
      </trkpt>
      <trkpt lat="45.75603" lon="6.59812">
        <ele>1252</ele>
        <time>2022-07-17T01:43:47Z</time>
      </trkpt>
      <trkpt lat="45.75601" lon="6.5981">
        <ele>1252</ele>
        <time>2022-07-17T01:43:48Z</time>
      </trkpt>
      <trkpt lat="45.756" lon="6.59808">
        <ele>1252</ele>
        <time>2022-07-17T01:43:49Z</time>
      </trkpt>
      <trkpt lat="45.75597" lon="6.59805">
        <ele>1252</ele>
        <time>2022-07-17T01:43:51Z</time>
      </trkpt>
      <trkpt lat="45.75595" lon="6.59802">
        <ele>1252</ele>
        <time>2022-07-17T01:43:53Z</time>
      </trkpt>
      <trkpt lat="45.75594" lon="6.59798">
        <ele>1252</ele>
        <time>2022-07-17T01:43:55Z</time>
      </trkpt>
      <trkpt lat="45.75592" lon="6.59794">
        <ele>1252</ele>
        <time>2022-07-17T01:43:57Z</time>
      </trkpt>
      <trkpt lat="45.75591" lon="6.59791">
        <ele>1251</ele>
        <time>2022-07-17T01:43:58Z</time>
      </trkpt>
      <trkpt lat="45.7559" lon="6.59789">
        <ele>1251</ele>
        <time>2022-07-17T01:43:59Z</time>
      </trkpt>
      <trkpt lat="45.75588" lon="6.59787">
        <ele>1251</ele>
        <time>2022-07-17T01:44:00Z</time>
      </trkpt>
      <trkpt lat="45.75587" lon="6.59785">
        <ele>1250</ele>
        <time>2022-07-17T01:44:01Z</time>
      </trkpt>
      <trkpt lat="45.75586" lon="6.59782">
        <ele>1250</ele>
        <time>2022-07-17T01:44:02Z</time>
      </trkpt>
      <trkpt lat="45.75585" lon="6.59778">
        <ele>1250</ele>
        <time>2022-07-17T01:44:03Z</time>
      </trkpt>
      <trkpt lat="45.75585" lon="6.59777">
        <ele>1250</ele>
        <time>2022-07-17T01:44:04Z</time>
      </trkpt>
      <trkpt lat="45.75583" lon="6.59772">
        <ele>1250</ele>
        <time>2022-07-17T01:44:06Z</time>
      </trkpt>
      <trkpt lat="45.75582" lon="6.5977">
        <ele>1250</ele>
        <time>2022-07-17T01:44:07Z</time>
      </trkpt>
      <trkpt lat="45.75581" lon="6.59767">
        <ele>1250</ele>
        <time>2022-07-17T01:44:08Z</time>
      </trkpt>
      <trkpt lat="45.7558" lon="6.59765">
        <ele>1249</ele>
        <time>2022-07-17T01:44:09Z</time>
      </trkpt>
      <trkpt lat="45.75579" lon="6.59761">
        <ele>1249</ele>
        <time>2022-07-17T01:44:11Z</time>
      </trkpt>
      <trkpt lat="45.75577" lon="6.59757">
        <ele>1248</ele>
        <time>2022-07-17T01:44:13Z</time>
      </trkpt>
      <trkpt lat="45.75576" lon="6.59754">
        <ele>1248</ele>
        <time>2022-07-17T01:44:15Z</time>
      </trkpt>
      <trkpt lat="45.75575" lon="6.59752">
        <ele>1248</ele>
        <time>2022-07-17T01:44:17Z</time>
      </trkpt>
      <trkpt lat="45.75574" lon="6.59748">
        <ele>1248</ele>
        <time>2022-07-17T01:44:19Z</time>
      </trkpt>
      <trkpt lat="45.75572" lon="6.59745">
        <ele>1248</ele>
        <time>2022-07-17T01:44:20Z</time>
      </trkpt>
      <trkpt lat="45.75571" lon="6.59742">
        <ele>1248</ele>
        <time>2022-07-17T01:44:22Z</time>
      </trkpt>
      <trkpt lat="45.7557" lon="6.5974">
        <ele>1247</ele>
        <time>2022-07-17T01:44:23Z</time>
      </trkpt>
      <trkpt lat="45.75569" lon="6.59737">
        <ele>1247</ele>
        <time>2022-07-17T01:44:24Z</time>
      </trkpt>
      <trkpt lat="45.75568" lon="6.59735">
        <ele>1247</ele>
        <time>2022-07-17T01:44:25Z</time>
      </trkpt>
      <trkpt lat="45.75567" lon="6.59732">
        <ele>1247</ele>
        <time>2022-07-17T01:44:26Z</time>
      </trkpt>
      <trkpt lat="45.75566" lon="6.5973">
        <ele>1247</ele>
        <time>2022-07-17T01:44:27Z</time>
      </trkpt>
      <trkpt lat="45.75565" lon="6.59728">
        <ele>1247</ele>
        <time>2022-07-17T01:44:28Z</time>
      </trkpt>
      <trkpt lat="45.75564" lon="6.59725">
        <ele>1247</ele>
        <time>2022-07-17T01:44:29Z</time>
      </trkpt>
      <trkpt lat="45.75562" lon="6.59721">
        <ele>1247</ele>
        <time>2022-07-17T01:44:31Z</time>
      </trkpt>
      <trkpt lat="45.75562" lon="6.59719">
        <ele>1247</ele>
        <time>2022-07-17T01:44:32Z</time>
      </trkpt>
      <trkpt lat="45.75561" lon="6.59716">
        <ele>1246</ele>
        <time>2022-07-17T01:44:33Z</time>
      </trkpt>
      <trkpt lat="45.7556" lon="6.59713">
        <ele>1246</ele>
        <time>2022-07-17T01:44:34Z</time>
      </trkpt>
      <trkpt lat="45.75559" lon="6.59711">
        <ele>1246</ele>
        <time>2022-07-17T01:44:35Z</time>
      </trkpt>
      <trkpt lat="45.75558" lon="6.59708">
        <ele>1246</ele>
        <time>2022-07-17T01:44:36Z</time>
      </trkpt>
      <trkpt lat="45.75557" lon="6.59706">
        <ele>1246</ele>
        <time>2022-07-17T01:44:37Z</time>
      </trkpt>
      <trkpt lat="45.75557" lon="6.59703">
        <ele>1246</ele>
        <time>2022-07-17T01:44:38Z</time>
      </trkpt>
      <trkpt lat="45.75556" lon="6.597">
        <ele>1246</ele>
        <time>2022-07-17T01:44:39Z</time>
      </trkpt>
      <trkpt lat="45.75555" lon="6.59698">
        <ele>1246</ele>
        <time>2022-07-17T01:44:40Z</time>
      </trkpt>
      <trkpt lat="45.75553" lon="6.59693">
        <ele>1246</ele>
        <time>2022-07-17T01:44:42Z</time>
      </trkpt>
      <trkpt lat="45.75552" lon="6.5969">
        <ele>1245</ele>
        <time>2022-07-17T01:44:43Z</time>
      </trkpt>
      <trkpt lat="45.75551" lon="6.59688">
        <ele>1245</ele>
        <time>2022-07-17T01:44:44Z</time>
      </trkpt>
      <trkpt lat="45.75549" lon="6.59684">
        <ele>1245</ele>
        <time>2022-07-17T01:44:46Z</time>
      </trkpt>
      <trkpt lat="45.75549" lon="6.59681">
        <ele>1244</ele>
        <time>2022-07-17T01:44:47Z</time>
      </trkpt>
      <trkpt lat="45.75548" lon="6.59679">
        <ele>1244</ele>
        <time>2022-07-17T01:44:48Z</time>
      </trkpt>
      <trkpt lat="45.75547" lon="6.59676">
        <ele>1244</ele>
        <time>2022-07-17T01:44:49Z</time>
      </trkpt>
      <trkpt lat="45.75547" lon="6.59673">
        <ele>1244</ele>
        <time>2022-07-17T01:44:50Z</time>
      </trkpt>
      <trkpt lat="45.75546" lon="6.5967">
        <ele>1244</ele>
        <time>2022-07-17T01:44:51Z</time>
      </trkpt>
      <trkpt lat="45.75545" lon="6.59667">
        <ele>1244</ele>
        <time>2022-07-17T01:44:52Z</time>
      </trkpt>
      <trkpt lat="45.75545" lon="6.59664">
        <ele>1244</ele>
        <time>2022-07-17T01:44:53Z</time>
      </trkpt>
      <trkpt lat="45.75544" lon="6.59662">
        <ele>1244</ele>
        <time>2022-07-17T01:44:54Z</time>
      </trkpt>
      <trkpt lat="45.75544" lon="6.59658">
        <ele>1243</ele>
        <time>2022-07-17T01:44:55Z</time>
      </trkpt>
      <trkpt lat="45.75544" lon="6.59655">
        <ele>1243</ele>
        <time>2022-07-17T01:44:56Z</time>
      </trkpt>
      <trkpt lat="45.75544" lon="6.59653">
        <ele>1243</ele>
        <time>2022-07-17T01:44:57Z</time>
      </trkpt>
      <trkpt lat="45.75544" lon="6.59648">
        <ele>1243</ele>
        <time>2022-07-17T01:44:59Z</time>
      </trkpt>
      <trkpt lat="45.75544" lon="6.59645">
        <ele>1242</ele>
        <time>2022-07-17T01:45:00Z</time>
      </trkpt>
      <trkpt lat="45.75545" lon="6.59642">
        <ele>1242</ele>
        <time>2022-07-17T01:45:01Z</time>
      </trkpt>
      <trkpt lat="45.75545" lon="6.5964">
        <ele>1242</ele>
        <time>2022-07-17T01:45:02Z</time>
      </trkpt>
      <trkpt lat="45.75545" lon="6.59635">
        <ele>1242</ele>
        <time>2022-07-17T01:45:04Z</time>
      </trkpt>
      <trkpt lat="45.75546" lon="6.59631">
        <ele>1242</ele>
        <time>2022-07-17T01:45:06Z</time>
      </trkpt>
      <trkpt lat="45.75546" lon="6.59625">
        <ele>1242</ele>
        <time>2022-07-17T01:45:08Z</time>
      </trkpt>
      <trkpt lat="45.75547" lon="6.59621">
        <ele>1241</ele>
        <time>2022-07-17T01:45:10Z</time>
      </trkpt>
      <trkpt lat="45.75548" lon="6.59617">
        <ele>1241</ele>
        <time>2022-07-17T01:45:12Z</time>
      </trkpt>
      <trkpt lat="45.75549" lon="6.59612">
        <ele>1241</ele>
        <time>2022-07-17T01:45:14Z</time>
      </trkpt>
      <trkpt lat="45.75549" lon="6.59608">
        <ele>1241</ele>
        <time>2022-07-17T01:45:16Z</time>
      </trkpt>
      <trkpt lat="45.7555" lon="6.59604">
        <ele>1241</ele>
        <time>2022-07-17T01:45:18Z</time>
      </trkpt>
      <trkpt lat="45.75551" lon="6.596">
        <ele>1240</ele>
        <time>2022-07-17T01:45:20Z</time>
      </trkpt>
      <trkpt lat="45.75552" lon="6.59596">
        <ele>1239</ele>
        <time>2022-07-17T01:45:22Z</time>
      </trkpt>
      <trkpt lat="45.75554" lon="6.59593">
        <ele>1239</ele>
        <time>2022-07-17T01:45:24Z</time>
      </trkpt>
      <trkpt lat="45.75554" lon="6.59589">
        <ele>1239</ele>
        <time>2022-07-17T01:45:26Z</time>
      </trkpt>
      <trkpt lat="45.75555" lon="6.59585">
        <ele>1239</ele>
        <time>2022-07-17T01:45:28Z</time>
      </trkpt>
      <trkpt lat="45.75555" lon="6.59582">
        <ele>1239</ele>
        <time>2022-07-17T01:45:30Z</time>
      </trkpt>
      <trkpt lat="45.75556" lon="6.59578">
        <ele>1239</ele>
        <time>2022-07-17T01:45:32Z</time>
      </trkpt>
      <trkpt lat="45.75558" lon="6.59575">
        <ele>1239</ele>
        <time>2022-07-17T01:45:34Z</time>
      </trkpt>
      <trkpt lat="45.75559" lon="6.59572">
        <ele>1239</ele>
        <time>2022-07-17T01:45:36Z</time>
      </trkpt>
      <trkpt lat="45.75561" lon="6.59569">
        <ele>1239</ele>
        <time>2022-07-17T01:45:38Z</time>
      </trkpt>
      <trkpt lat="45.75563" lon="6.59565">
        <ele>1238</ele>
        <time>2022-07-17T01:45:40Z</time>
      </trkpt>
      <trkpt lat="45.75565" lon="6.59562">
        <ele>1238</ele>
        <time>2022-07-17T01:45:42Z</time>
      </trkpt>
      <trkpt lat="45.75565" lon="6.5956">
        <ele>1238</ele>
        <time>2022-07-17T01:45:43Z</time>
      </trkpt>
      <trkpt lat="45.75566" lon="6.59559">
        <ele>1238</ele>
        <time>2022-07-17T01:45:44Z</time>
      </trkpt>
      <trkpt lat="45.75567" lon="6.59557">
        <ele>1238</ele>
        <time>2022-07-17T01:45:45Z</time>
      </trkpt>
      <trkpt lat="45.75568" lon="6.59555">
        <ele>1238</ele>
        <time>2022-07-17T01:45:46Z</time>
      </trkpt>
      <trkpt lat="45.75569" lon="6.59553">
        <ele>1238</ele>
        <time>2022-07-17T01:45:47Z</time>
      </trkpt>
      <trkpt lat="45.7557" lon="6.59552">
        <ele>1238</ele>
        <time>2022-07-17T01:45:48Z</time>
      </trkpt>
      <trkpt lat="45.75571" lon="6.59551">
        <ele>1238</ele>
        <time>2022-07-17T01:45:49Z</time>
      </trkpt>
      <trkpt lat="45.75572" lon="6.5955">
        <ele>1238</ele>
        <time>2022-07-17T01:45:50Z</time>
      </trkpt>
      <trkpt lat="45.75573" lon="6.59548">
        <ele>1238</ele>
        <time>2022-07-17T01:45:51Z</time>
      </trkpt>
      <trkpt lat="45.75574" lon="6.59547">
        <ele>1238</ele>
        <time>2022-07-17T01:45:52Z</time>
      </trkpt>
      <trkpt lat="45.75575" lon="6.59546">
        <ele>1238</ele>
        <time>2022-07-17T01:45:53Z</time>
      </trkpt>
      <trkpt lat="45.75575" lon="6.59545">
        <ele>1238</ele>
        <time>2022-07-17T01:45:54Z</time>
      </trkpt>
      <trkpt lat="45.75576" lon="6.59544">
        <ele>1238</ele>
        <time>2022-07-17T01:45:55Z</time>
      </trkpt>
      <trkpt lat="45.75577" lon="6.59543">
        <ele>1238</ele>
        <time>2022-07-17T01:45:56Z</time>
      </trkpt>
      <trkpt lat="45.75577" lon="6.59542">
        <ele>1238</ele>
        <time>2022-07-17T01:45:57Z</time>
      </trkpt>
      <trkpt lat="45.75578" lon="6.59542">
        <ele>1237</ele>
        <time>2022-07-17T01:45:58Z</time>
      </trkpt>
      <trkpt lat="45.75578" lon="6.59541">
        <ele>1237</ele>
        <time>2022-07-17T01:45:59Z</time>
      </trkpt>
      <trkpt lat="45.75578" lon="6.5954">
        <ele>1237</ele>
        <time>2022-07-17T01:46:00Z</time>
      </trkpt>
      <trkpt lat="45.75578" lon="6.59539">
        <ele>1237</ele>
        <time>2022-07-17T01:46:01Z</time>
      </trkpt>
      <trkpt lat="45.75579" lon="6.59539">
        <ele>1237</ele>
        <time>2022-07-17T01:46:02Z</time>
      </trkpt>
      <trkpt lat="45.75579" lon="6.59538">
        <ele>1237</ele>
        <time>2022-07-17T01:46:03Z</time>
      </trkpt>
      <trkpt lat="45.75579" lon="6.59537">
        <ele>1237</ele>
        <time>2022-07-17T01:46:04Z</time>
      </trkpt>
      <trkpt lat="45.75579" lon="6.59536">
        <ele>1237</ele>
        <time>2022-07-17T01:46:05Z</time>
      </trkpt>
      <trkpt lat="45.7558" lon="6.59536">
        <ele>1237</ele>
        <time>2022-07-17T01:46:06Z</time>
      </trkpt>
      <trkpt lat="45.7558" lon="6.59535">
        <ele>1237</ele>
        <time>2022-07-17T01:46:07Z</time>
      </trkpt>
      <trkpt lat="45.7558" lon="6.59534">
        <ele>1237</ele>
        <time>2022-07-17T01:46:08Z</time>
      </trkpt>
      <trkpt lat="45.7558" lon="6.59533">
        <ele>1237</ele>
        <time>2022-07-17T01:46:09Z</time>
      </trkpt>
      <trkpt lat="45.75581" lon="6.59533">
        <ele>1238</ele>
        <time>2022-07-17T01:46:10Z</time>
      </trkpt>
      <trkpt lat="45.75581" lon="6.59532">
        <ele>1238</ele>
        <time>2022-07-17T01:46:11Z</time>
      </trkpt>
      <trkpt lat="45.75581" lon="6.59531">
        <ele>1238</ele>
        <time>2022-07-17T01:46:12Z</time>
      </trkpt>
      <trkpt lat="45.75581" lon="6.59529">
        <ele>1238</ele>
        <time>2022-07-17T01:46:14Z</time>
      </trkpt>
      <trkpt lat="45.7558" lon="6.59528">
        <ele>1238</ele>
        <time>2022-07-17T01:46:15Z</time>
      </trkpt>
      <trkpt lat="45.7558" lon="6.59526">
        <ele>1238</ele>
        <time>2022-07-17T01:46:16Z</time>
      </trkpt>
      <trkpt lat="45.75579" lon="6.59525">
        <ele>1238</ele>
        <time>2022-07-17T01:46:17Z</time>
      </trkpt>
      <trkpt lat="45.75579" lon="6.59524">
        <ele>1237</ele>
        <time>2022-07-17T01:46:18Z</time>
      </trkpt>
      <trkpt lat="45.75578" lon="6.59522">
        <ele>1236</ele>
        <time>2022-07-17T01:46:19Z</time>
      </trkpt>
      <trkpt lat="45.75578" lon="6.59521">
        <ele>1236</ele>
        <time>2022-07-17T01:46:20Z</time>
      </trkpt>
      <trkpt lat="45.75577" lon="6.5952">
        <ele>1236</ele>
        <time>2022-07-17T01:46:21Z</time>
      </trkpt>
      <trkpt lat="45.75577" lon="6.59518">
        <ele>1236</ele>
        <time>2022-07-17T01:46:22Z</time>
      </trkpt>
      <trkpt lat="45.75577" lon="6.59517">
        <ele>1236</ele>
        <time>2022-07-17T01:46:23Z</time>
      </trkpt>
      <trkpt lat="45.75576" lon="6.59516">
        <ele>1236</ele>
        <time>2022-07-17T01:46:24Z</time>
      </trkpt>
      <trkpt lat="45.75576" lon="6.59515">
        <ele>1236</ele>
        <time>2022-07-17T01:46:25Z</time>
      </trkpt>
      <trkpt lat="45.75576" lon="6.59514">
        <ele>1236</ele>
        <time>2022-07-17T01:46:26Z</time>
      </trkpt>
      <trkpt lat="45.75576" lon="6.59513">
        <ele>1236</ele>
        <time>2022-07-17T01:46:27Z</time>
      </trkpt>
      <trkpt lat="45.75575" lon="6.59512">
        <ele>1236</ele>
        <time>2022-07-17T01:46:28Z</time>
      </trkpt>
      <trkpt lat="45.75575" lon="6.59511">
        <ele>1236</ele>
        <time>2022-07-17T01:46:29Z</time>
      </trkpt>
      <trkpt lat="45.75575" lon="6.59509">
        <ele>1236</ele>
        <time>2022-07-17T01:46:30Z</time>
      </trkpt>
      <trkpt lat="45.75575" lon="6.59508">
        <ele>1236</ele>
        <time>2022-07-17T01:46:31Z</time>
      </trkpt>
      <trkpt lat="45.75573" lon="6.59508">
        <ele>1236</ele>
        <time>2022-07-17T01:46:32Z</time>
      </trkpt>
      <trkpt lat="45.7557" lon="6.59506">
        <ele>1236</ele>
        <time>2022-07-17T01:46:34Z</time>
      </trkpt>
      <trkpt lat="45.75567" lon="6.59504">
        <ele>1235</ele>
        <time>2022-07-17T01:46:36Z</time>
      </trkpt>
      <trkpt lat="45.75565" lon="6.59503">
        <ele>1235</ele>
        <time>2022-07-17T01:46:37Z</time>
      </trkpt>
      <trkpt lat="45.75563" lon="6.59502">
        <ele>1235</ele>
        <time>2022-07-17T01:46:38Z</time>
      </trkpt>
      <trkpt lat="45.75561" lon="6.59502">
        <ele>1235</ele>
        <time>2022-07-17T01:46:39Z</time>
      </trkpt>
      <trkpt lat="45.75558" lon="6.595">
        <ele>1235</ele>
        <time>2022-07-17T01:46:41Z</time>
      </trkpt>
      <trkpt lat="45.75556" lon="6.59499">
        <ele>1234</ele>
        <time>2022-07-17T01:46:42Z</time>
      </trkpt>
      <trkpt lat="45.75554" lon="6.59497">
        <ele>1234</ele>
        <time>2022-07-17T01:46:43Z</time>
      </trkpt>
      <trkpt lat="45.75552" lon="6.59495">
        <ele>1234</ele>
        <time>2022-07-17T01:46:44Z</time>
      </trkpt>
      <trkpt lat="45.75551" lon="6.59492">
        <ele>1234</ele>
        <time>2022-07-17T01:46:45Z</time>
      </trkpt>
      <trkpt lat="45.75549" lon="6.5949">
        <ele>1234</ele>
        <time>2022-07-17T01:46:46Z</time>
      </trkpt>
      <trkpt lat="45.75547" lon="6.59488">
        <ele>1234</ele>
        <time>2022-07-17T01:46:47Z</time>
      </trkpt>
      <trkpt lat="45.75546" lon="6.59486">
        <ele>1234</ele>
        <time>2022-07-17T01:46:48Z</time>
      </trkpt>
      <trkpt lat="45.75544" lon="6.59484">
        <ele>1233</ele>
        <time>2022-07-17T01:46:49Z</time>
      </trkpt>
      <trkpt lat="45.75542" lon="6.59482">
        <ele>1233</ele>
        <time>2022-07-17T01:46:50Z</time>
      </trkpt>
      <trkpt lat="45.75541" lon="6.5948">
        <ele>1233</ele>
        <time>2022-07-17T01:46:51Z</time>
      </trkpt>
      <trkpt lat="45.75539" lon="6.59478">
        <ele>1233</ele>
        <time>2022-07-17T01:46:52Z</time>
      </trkpt>
      <trkpt lat="45.75537" lon="6.59477">
        <ele>1233</ele>
        <time>2022-07-17T01:46:53Z</time>
      </trkpt>
      <trkpt lat="45.75536" lon="6.59474">
        <ele>1233</ele>
        <time>2022-07-17T01:46:54Z</time>
      </trkpt>
      <trkpt lat="45.75535" lon="6.59473">
        <ele>1232</ele>
        <time>2022-07-17T01:46:55Z</time>
      </trkpt>
      <trkpt lat="45.75533" lon="6.5947">
        <ele>1232</ele>
        <time>2022-07-17T01:46:56Z</time>
      </trkpt>
      <trkpt lat="45.75532" lon="6.59468">
        <ele>1232</ele>
        <time>2022-07-17T01:46:57Z</time>
      </trkpt>
      <trkpt lat="45.75529" lon="6.59465">
        <ele>1232</ele>
        <time>2022-07-17T01:46:59Z</time>
      </trkpt>
      <trkpt lat="45.75527" lon="6.59463">
        <ele>1232</ele>
        <time>2022-07-17T01:47:00Z</time>
      </trkpt>
      <trkpt lat="45.75526" lon="6.59461">
        <ele>1231</ele>
        <time>2022-07-17T01:47:01Z</time>
      </trkpt>
      <trkpt lat="45.75525" lon="6.59459">
        <ele>1231</ele>
        <time>2022-07-17T01:47:02Z</time>
      </trkpt>
      <trkpt lat="45.75523" lon="6.59456">
        <ele>1231</ele>
        <time>2022-07-17T01:47:03Z</time>
      </trkpt>
      <trkpt lat="45.75522" lon="6.59454">
        <ele>1231</ele>
        <time>2022-07-17T01:47:04Z</time>
      </trkpt>
      <trkpt lat="45.75521" lon="6.59451">
        <ele>1231</ele>
        <time>2022-07-17T01:47:05Z</time>
      </trkpt>
      <trkpt lat="45.7552" lon="6.59448">
        <ele>1231</ele>
        <time>2022-07-17T01:47:06Z</time>
      </trkpt>
      <trkpt lat="45.75519" lon="6.59445">
        <ele>1231</ele>
        <time>2022-07-17T01:47:07Z</time>
      </trkpt>
      <trkpt lat="45.75517" lon="6.59443">
        <ele>1231</ele>
        <time>2022-07-17T01:47:08Z</time>
      </trkpt>
      <trkpt lat="45.75516" lon="6.5944">
        <ele>1231</ele>
        <time>2022-07-17T01:47:09Z</time>
      </trkpt>
      <trkpt lat="45.75515" lon="6.59438">
        <ele>1231</ele>
        <time>2022-07-17T01:47:10Z</time>
      </trkpt>
      <trkpt lat="45.75514" lon="6.59435">
        <ele>1231</ele>
        <time>2022-07-17T01:47:11Z</time>
      </trkpt>
      <trkpt lat="45.75513" lon="6.59433">
        <ele>1231</ele>
        <time>2022-07-17T01:47:12Z</time>
      </trkpt>
      <trkpt lat="45.75512" lon="6.5943">
        <ele>1231</ele>
        <time>2022-07-17T01:47:13Z</time>
      </trkpt>
      <trkpt lat="45.75511" lon="6.59427">
        <ele>1230</ele>
        <time>2022-07-17T01:47:14Z</time>
      </trkpt>
      <trkpt lat="45.75511" lon="6.59424">
        <ele>1230</ele>
        <time>2022-07-17T01:47:15Z</time>
      </trkpt>
      <trkpt lat="45.7551" lon="6.59421">
        <ele>1230</ele>
        <time>2022-07-17T01:47:16Z</time>
      </trkpt>
      <trkpt lat="45.75509" lon="6.59418">
        <ele>1230</ele>
        <time>2022-07-17T01:47:17Z</time>
      </trkpt>
      <trkpt lat="45.75509" lon="6.59416">
        <ele>1230</ele>
        <time>2022-07-17T01:47:18Z</time>
      </trkpt>
      <trkpt lat="45.75509" lon="6.59413">
        <ele>1230</ele>
        <time>2022-07-17T01:47:19Z</time>
      </trkpt>
      <trkpt lat="45.75508" lon="6.5941">
        <ele>1230</ele>
        <time>2022-07-17T01:47:20Z</time>
      </trkpt>
      <trkpt lat="45.75508" lon="6.59407">
        <ele>1230</ele>
        <time>2022-07-17T01:47:21Z</time>
      </trkpt>
      <trkpt lat="45.75507" lon="6.59404">
        <ele>1230</ele>
        <time>2022-07-17T01:47:22Z</time>
      </trkpt>
      <trkpt lat="45.75507" lon="6.59401">
        <ele>1230</ele>
        <time>2022-07-17T01:47:23Z</time>
      </trkpt>
      <trkpt lat="45.75507" lon="6.59398">
        <ele>1230</ele>
        <time>2022-07-17T01:47:24Z</time>
      </trkpt>
      <trkpt lat="45.75507" lon="6.59395">
        <ele>1230</ele>
        <time>2022-07-17T01:47:25Z</time>
      </trkpt>
      <trkpt lat="45.75506" lon="6.59392">
        <ele>1229</ele>
        <time>2022-07-17T01:47:26Z</time>
      </trkpt>
      <trkpt lat="45.75505" lon="6.5939">
        <ele>1229</ele>
        <time>2022-07-17T01:47:27Z</time>
      </trkpt>
      <trkpt lat="45.75505" lon="6.59387">
        <ele>1229</ele>
        <time>2022-07-17T01:47:28Z</time>
      </trkpt>
      <trkpt lat="45.75504" lon="6.59384">
        <ele>1229</ele>
        <time>2022-07-17T01:47:29Z</time>
      </trkpt>
      <trkpt lat="45.75504" lon="6.5938">
        <ele>1229</ele>
        <time>2022-07-17T01:47:30Z</time>
      </trkpt>
      <trkpt lat="45.75504" lon="6.59379">
        <ele>1229</ele>
        <time>2022-07-17T01:47:31Z</time>
      </trkpt>
      <trkpt lat="45.75504" lon="6.59376">
        <ele>1228</ele>
        <time>2022-07-17T01:47:32Z</time>
      </trkpt>
      <trkpt lat="45.75503" lon="6.59371">
        <ele>1228</ele>
        <time>2022-07-17T01:47:34Z</time>
      </trkpt>
      <trkpt lat="45.75501" lon="6.59367">
        <ele>1228</ele>
        <time>2022-07-17T01:47:36Z</time>
      </trkpt>
      <trkpt lat="45.755" lon="6.59364">
        <ele>1228</ele>
        <time>2022-07-17T01:47:37Z</time>
      </trkpt>
      <trkpt lat="45.75498" lon="6.59362">
        <ele>1228</ele>
        <time>2022-07-17T01:47:38Z</time>
      </trkpt>
      <trkpt lat="45.75497" lon="6.59359">
        <ele>1228</ele>
        <time>2022-07-17T01:47:39Z</time>
      </trkpt>
      <trkpt lat="45.75496" lon="6.59357">
        <ele>1228</ele>
        <time>2022-07-17T01:47:40Z</time>
      </trkpt>
      <trkpt lat="45.75494" lon="6.59354">
        <ele>1228</ele>
        <time>2022-07-17T01:47:41Z</time>
      </trkpt>
      <trkpt lat="45.75494" lon="6.59352">
        <ele>1228</ele>
        <time>2022-07-17T01:47:42Z</time>
      </trkpt>
      <trkpt lat="45.75492" lon="6.59348">
        <ele>1227</ele>
        <time>2022-07-17T01:47:44Z</time>
      </trkpt>
      <trkpt lat="45.75491" lon="6.59345">
        <ele>1227</ele>
        <time>2022-07-17T01:47:45Z</time>
      </trkpt>
      <trkpt lat="45.7549" lon="6.59341">
        <ele>1227</ele>
        <time>2022-07-17T01:47:47Z</time>
      </trkpt>
      <trkpt lat="45.75489" lon="6.59338">
        <ele>1227</ele>
        <time>2022-07-17T01:47:48Z</time>
      </trkpt>
      <trkpt lat="45.75489" lon="6.59336">
        <ele>1227</ele>
        <time>2022-07-17T01:47:49Z</time>
      </trkpt>
      <trkpt lat="45.75488" lon="6.59333">
        <ele>1227</ele>
        <time>2022-07-17T01:47:50Z</time>
      </trkpt>
      <trkpt lat="45.75487" lon="6.5933">
        <ele>1226</ele>
        <time>2022-07-17T01:47:51Z</time>
      </trkpt>
      <trkpt lat="45.75487" lon="6.59328">
        <ele>1225</ele>
        <time>2022-07-17T01:47:52Z</time>
      </trkpt>
      <trkpt lat="45.75485" lon="6.59326">
        <ele>1225</ele>
        <time>2022-07-17T01:47:53Z</time>
      </trkpt>
      <trkpt lat="45.75485" lon="6.59323">
        <ele>1225</ele>
        <time>2022-07-17T01:47:54Z</time>
      </trkpt>
      <trkpt lat="45.75484" lon="6.5932">
        <ele>1225</ele>
        <time>2022-07-17T01:47:55Z</time>
      </trkpt>
      <trkpt lat="45.75483" lon="6.59318">
        <ele>1225</ele>
        <time>2022-07-17T01:47:56Z</time>
      </trkpt>
      <trkpt lat="45.75483" lon="6.59315">
        <ele>1225</ele>
        <time>2022-07-17T01:47:57Z</time>
      </trkpt>
      <trkpt lat="45.75482" lon="6.59312">
        <ele>1225</ele>
        <time>2022-07-17T01:47:58Z</time>
      </trkpt>
      <trkpt lat="45.75481" lon="6.5931">
        <ele>1225</ele>
        <time>2022-07-17T01:47:59Z</time>
      </trkpt>
      <trkpt lat="45.7548" lon="6.59308">
        <ele>1224</ele>
        <time>2022-07-17T01:48:00Z</time>
      </trkpt>
      <trkpt lat="45.75478" lon="6.59304">
        <ele>1224</ele>
        <time>2022-07-17T01:48:02Z</time>
      </trkpt>
      <trkpt lat="45.75477" lon="6.59302">
        <ele>1224</ele>
        <time>2022-07-17T01:48:03Z</time>
      </trkpt>
      <trkpt lat="45.75476" lon="6.593">
        <ele>1224</ele>
        <time>2022-07-17T01:48:04Z</time>
      </trkpt>
      <trkpt lat="45.75475" lon="6.59298">
        <ele>1224</ele>
        <time>2022-07-17T01:48:05Z</time>
      </trkpt>
      <trkpt lat="45.75473" lon="6.59294">
        <ele>1224</ele>
        <time>2022-07-17T01:48:07Z</time>
      </trkpt>
      <trkpt lat="45.75472" lon="6.5929">
        <ele>1224</ele>
        <time>2022-07-17T01:48:09Z</time>
      </trkpt>
      <trkpt lat="45.75471" lon="6.59287">
        <ele>1224</ele>
        <time>2022-07-17T01:48:11Z</time>
      </trkpt>
      <trkpt lat="45.7547" lon="6.59284">
        <ele>1224</ele>
        <time>2022-07-17T01:48:13Z</time>
      </trkpt>
      <trkpt lat="45.75469" lon="6.59282">
        <ele>1224</ele>
        <time>2022-07-17T01:48:15Z</time>
      </trkpt>
      <trkpt lat="45.75468" lon="6.59279">
        <ele>1223</ele>
        <time>2022-07-17T01:48:17Z</time>
      </trkpt>
      <trkpt lat="45.75467" lon="6.59275">
        <ele>1223</ele>
        <time>2022-07-17T01:48:19Z</time>
      </trkpt>
      <trkpt lat="45.75466" lon="6.59272">
        <ele>1223</ele>
        <time>2022-07-17T01:48:21Z</time>
      </trkpt>
      <trkpt lat="45.75465" lon="6.59269">
        <ele>1223</ele>
        <time>2022-07-17T01:48:23Z</time>
      </trkpt>
      <trkpt lat="45.75464" lon="6.59266">
        <ele>1223</ele>
        <time>2022-07-17T01:48:25Z</time>
      </trkpt>
      <trkpt lat="45.75462" lon="6.59263">
        <ele>1223</ele>
        <time>2022-07-17T01:48:27Z</time>
      </trkpt>
      <trkpt lat="45.75461" lon="6.5926">
        <ele>1222</ele>
        <time>2022-07-17T01:48:29Z</time>
      </trkpt>
      <trkpt lat="45.7546" lon="6.59256">
        <ele>1222</ele>
        <time>2022-07-17T01:48:31Z</time>
      </trkpt>
      <trkpt lat="45.7546" lon="6.59254">
        <ele>1222</ele>
        <time>2022-07-17T01:48:33Z</time>
      </trkpt>
      <trkpt lat="45.75458" lon="6.59251">
        <ele>1222</ele>
        <time>2022-07-17T01:48:35Z</time>
      </trkpt>
      <trkpt lat="45.75456" lon="6.59247">
        <ele>1222</ele>
        <time>2022-07-17T01:48:37Z</time>
      </trkpt>
      <trkpt lat="45.75454" lon="6.59244">
        <ele>1222</ele>
        <time>2022-07-17T01:48:39Z</time>
      </trkpt>
      <trkpt lat="45.75452" lon="6.59242">
        <ele>1222</ele>
        <time>2022-07-17T01:48:41Z</time>
      </trkpt>
      <trkpt lat="45.75451" lon="6.5924">
        <ele>1222</ele>
        <time>2022-07-17T01:48:43Z</time>
      </trkpt>
      <trkpt lat="45.75448" lon="6.59238">
        <ele>1222</ele>
        <time>2022-07-17T01:48:45Z</time>
      </trkpt>
      <trkpt lat="45.75446" lon="6.59237">
        <ele>1222</ele>
        <time>2022-07-17T01:48:47Z</time>
      </trkpt>
      <trkpt lat="45.75444" lon="6.59235">
        <ele>1222</ele>
        <time>2022-07-17T01:48:49Z</time>
      </trkpt>
      <trkpt lat="45.75441" lon="6.59233">
        <ele>1222</ele>
        <time>2022-07-17T01:48:51Z</time>
      </trkpt>
      <trkpt lat="45.75439" lon="6.5923">
        <ele>1222</ele>
        <time>2022-07-17T01:48:53Z</time>
      </trkpt>
      <trkpt lat="45.75437" lon="6.59229">
        <ele>1223</ele>
        <time>2022-07-17T01:48:55Z</time>
      </trkpt>
      <trkpt lat="45.75434" lon="6.59228">
        <ele>1223</ele>
        <time>2022-07-17T01:48:57Z</time>
      </trkpt>
      <trkpt lat="45.75432" lon="6.59226">
        <ele>1223</ele>
        <time>2022-07-17T01:48:59Z</time>
      </trkpt>
      <trkpt lat="45.7543" lon="6.59224">
        <ele>1223</ele>
        <time>2022-07-17T01:49:01Z</time>
      </trkpt>
      <trkpt lat="45.75428" lon="6.59222">
        <ele>1224</ele>
        <time>2022-07-17T01:49:03Z</time>
      </trkpt>
      <trkpt lat="45.75427" lon="6.59218">
        <ele>1224</ele>
        <time>2022-07-17T01:49:05Z</time>
      </trkpt>
      <trkpt lat="45.75425" lon="6.59215">
        <ele>1224</ele>
        <time>2022-07-17T01:49:07Z</time>
      </trkpt>
      <trkpt lat="45.75424" lon="6.59211">
        <ele>1224</ele>
        <time>2022-07-17T01:49:09Z</time>
      </trkpt>
      <trkpt lat="45.75423" lon="6.59207">
        <ele>1224</ele>
        <time>2022-07-17T01:49:11Z</time>
      </trkpt>
      <trkpt lat="45.75423" lon="6.59204">
        <ele>1224</ele>
        <time>2022-07-17T01:49:13Z</time>
      </trkpt>
      <trkpt lat="45.75421" lon="6.59201">
        <ele>1224</ele>
        <time>2022-07-17T01:49:15Z</time>
      </trkpt>
      <trkpt lat="45.7542" lon="6.59197">
        <ele>1224</ele>
        <time>2022-07-17T01:49:17Z</time>
      </trkpt>
      <trkpt lat="45.75418" lon="6.59195">
        <ele>1225</ele>
        <time>2022-07-17T01:49:19Z</time>
      </trkpt>
      <trkpt lat="45.75417" lon="6.59192">
        <ele>1225</ele>
        <time>2022-07-17T01:49:21Z</time>
      </trkpt>
      <trkpt lat="45.75416" lon="6.59189">
        <ele>1225</ele>
        <time>2022-07-17T01:49:23Z</time>
      </trkpt>
      <trkpt lat="45.75415" lon="6.59186">
        <ele>1226</ele>
        <time>2022-07-17T01:49:25Z</time>
      </trkpt>
      <trkpt lat="45.75414" lon="6.59183">
        <ele>1226</ele>
        <time>2022-07-17T01:49:27Z</time>
      </trkpt>
      <trkpt lat="45.75413" lon="6.5918">
        <ele>1227</ele>
        <time>2022-07-17T01:49:29Z</time>
      </trkpt>
      <trkpt lat="45.75411" lon="6.59177">
        <ele>1227</ele>
        <time>2022-07-17T01:49:31Z</time>
      </trkpt>
      <trkpt lat="45.7541" lon="6.59175">
        <ele>1228</ele>
        <time>2022-07-17T01:49:33Z</time>
      </trkpt>
      <trkpt lat="45.75408" lon="6.59172">
        <ele>1228</ele>
        <time>2022-07-17T01:49:35Z</time>
      </trkpt>
      <trkpt lat="45.75407" lon="6.5917">
        <ele>1228</ele>
        <time>2022-07-17T01:49:37Z</time>
      </trkpt>
      <trkpt lat="45.75406" lon="6.59167">
        <ele>1228</ele>
        <time>2022-07-17T01:49:39Z</time>
      </trkpt>
      <trkpt lat="45.75405" lon="6.59164">
        <ele>1228</ele>
        <time>2022-07-17T01:49:41Z</time>
      </trkpt>
      <trkpt lat="45.75404" lon="6.59161">
        <ele>1229</ele>
        <time>2022-07-17T01:49:43Z</time>
      </trkpt>
      <trkpt lat="45.75403" lon="6.59158">
        <ele>1229</ele>
        <time>2022-07-17T01:49:45Z</time>
      </trkpt>
      <trkpt lat="45.75402" lon="6.59156">
        <ele>1229</ele>
        <time>2022-07-17T01:49:50Z</time>
      </trkpt>
      <trkpt lat="45.75401" lon="6.59154">
        <ele>1229</ele>
        <time>2022-07-17T01:49:52Z</time>
      </trkpt>
      <trkpt lat="45.75399" lon="6.59152">
        <ele>1229</ele>
        <time>2022-07-17T01:49:54Z</time>
      </trkpt>
      <trkpt lat="45.75397" lon="6.5915">
        <ele>1229</ele>
        <time>2022-07-17T01:49:56Z</time>
      </trkpt>
      <trkpt lat="45.75396" lon="6.59147">
        <ele>1229</ele>
        <time>2022-07-17T01:49:58Z</time>
      </trkpt>
      <trkpt lat="45.75396" lon="6.59144">
        <ele>1229</ele>
        <time>2022-07-17T01:50:00Z</time>
      </trkpt>
      <trkpt lat="45.75396" lon="6.59141">
        <ele>1229</ele>
        <time>2022-07-17T01:50:02Z</time>
      </trkpt>
      <trkpt lat="45.75395" lon="6.59138">
        <ele>1230</ele>
        <time>2022-07-17T01:50:04Z</time>
      </trkpt>
      <trkpt lat="45.75395" lon="6.59134">
        <ele>1230</ele>
        <time>2022-07-17T01:50:06Z</time>
      </trkpt>
      <trkpt lat="45.75394" lon="6.59131">
        <ele>1231</ele>
        <time>2022-07-17T01:50:08Z</time>
      </trkpt>
      <trkpt lat="45.75394" lon="6.59128">
        <ele>1231</ele>
        <time>2022-07-17T01:50:10Z</time>
      </trkpt>
      <trkpt lat="45.75393" lon="6.59125">
        <ele>1231</ele>
        <time>2022-07-17T01:50:12Z</time>
      </trkpt>
      <trkpt lat="45.75393" lon="6.59122">
        <ele>1231</ele>
        <time>2022-07-17T01:50:14Z</time>
      </trkpt>
      <trkpt lat="45.75393" lon="6.59118">
        <ele>1231</ele>
        <time>2022-07-17T01:50:16Z</time>
      </trkpt>
      <trkpt lat="45.75393" lon="6.59115">
        <ele>1231</ele>
        <time>2022-07-17T01:50:18Z</time>
      </trkpt>
      <trkpt lat="45.75392" lon="6.59112">
        <ele>1231</ele>
        <time>2022-07-17T01:50:20Z</time>
      </trkpt>
      <trkpt lat="45.75391" lon="6.5911">
        <ele>1231</ele>
        <time>2022-07-17T01:50:21Z</time>
      </trkpt>
      <trkpt lat="45.75389" lon="6.59107">
        <ele>1231</ele>
        <time>2022-07-17T01:50:24Z</time>
      </trkpt>
      <trkpt lat="45.75388" lon="6.59105">
        <ele>1231</ele>
        <time>2022-07-17T01:50:26Z</time>
      </trkpt>
      <trkpt lat="45.75386" lon="6.59103">
        <ele>1231</ele>
        <time>2022-07-17T01:50:28Z</time>
      </trkpt>
      <trkpt lat="45.75385" lon="6.591">
        <ele>1232</ele>
        <time>2022-07-17T01:50:30Z</time>
      </trkpt>
      <trkpt lat="45.75383" lon="6.59098">
        <ele>1232</ele>
        <time>2022-07-17T01:50:32Z</time>
      </trkpt>
      <trkpt lat="45.75382" lon="6.59096">
        <ele>1232</ele>
        <time>2022-07-17T01:50:34Z</time>
      </trkpt>
      <trkpt lat="45.75379" lon="6.59094">
        <ele>1232</ele>
        <time>2022-07-17T01:50:36Z</time>
      </trkpt>
      <trkpt lat="45.75377" lon="6.59092">
        <ele>1232</ele>
        <time>2022-07-17T01:50:38Z</time>
      </trkpt>
      <trkpt lat="45.75375" lon="6.5909">
        <ele>1233</ele>
        <time>2022-07-17T01:50:40Z</time>
      </trkpt>
      <trkpt lat="45.75374" lon="6.59088">
        <ele>1233</ele>
        <time>2022-07-17T01:50:42Z</time>
      </trkpt>
      <trkpt lat="45.75372" lon="6.59087">
        <ele>1233</ele>
        <time>2022-07-17T01:50:44Z</time>
      </trkpt>
      <trkpt lat="45.75371" lon="6.59085">
        <ele>1234</ele>
        <time>2022-07-17T01:50:46Z</time>
      </trkpt>
      <trkpt lat="45.75369" lon="6.59084">
        <ele>1234</ele>
        <time>2022-07-17T01:50:48Z</time>
      </trkpt>
      <trkpt lat="45.75367" lon="6.59082">
        <ele>1234</ele>
        <time>2022-07-17T01:50:50Z</time>
      </trkpt>
      <trkpt lat="45.75366" lon="6.5908">
        <ele>1234</ele>
        <time>2022-07-17T01:50:52Z</time>
      </trkpt>
      <trkpt lat="45.75364" lon="6.59078">
        <ele>1234</ele>
        <time>2022-07-17T01:50:54Z</time>
      </trkpt>
      <trkpt lat="45.75362" lon="6.59077">
        <ele>1235</ele>
        <time>2022-07-17T01:50:56Z</time>
      </trkpt>
      <trkpt lat="45.7536" lon="6.59075">
        <ele>1235</ele>
        <time>2022-07-17T01:50:58Z</time>
      </trkpt>
      <trkpt lat="45.75358" lon="6.59074">
        <ele>1236</ele>
        <time>2022-07-17T01:50:59Z</time>
      </trkpt>
      <trkpt lat="45.75357" lon="6.59071">
        <ele>1236</ele>
        <time>2022-07-17T01:51:02Z</time>
      </trkpt>
      <trkpt lat="45.75355" lon="6.5907">
        <ele>1236</ele>
        <time>2022-07-17T01:51:04Z</time>
      </trkpt>
      <trkpt lat="45.75354" lon="6.59067">
        <ele>1236</ele>
        <time>2022-07-17T01:51:06Z</time>
      </trkpt>
      <trkpt lat="45.75352" lon="6.59065">
        <ele>1236</ele>
        <time>2022-07-17T01:51:08Z</time>
      </trkpt>
      <trkpt lat="45.75351" lon="6.59063">
        <ele>1237</ele>
        <time>2022-07-17T01:51:10Z</time>
      </trkpt>
      <trkpt lat="45.75349" lon="6.59061">
        <ele>1237</ele>
        <time>2022-07-17T01:51:12Z</time>
      </trkpt>
      <trkpt lat="45.75347" lon="6.59059">
        <ele>1238</ele>
        <time>2022-07-17T01:51:14Z</time>
      </trkpt>
      <trkpt lat="45.75346" lon="6.59057">
        <ele>1238</ele>
        <time>2022-07-17T01:51:16Z</time>
      </trkpt>
      <trkpt lat="45.75344" lon="6.59056">
        <ele>1238</ele>
        <time>2022-07-17T01:51:18Z</time>
      </trkpt>
      <trkpt lat="45.75342" lon="6.59054">
        <ele>1238</ele>
        <time>2022-07-17T01:51:20Z</time>
      </trkpt>
      <trkpt lat="45.75341" lon="6.59052">
        <ele>1238</ele>
        <time>2022-07-17T01:51:22Z</time>
      </trkpt>
      <trkpt lat="45.75339" lon="6.59049">
        <ele>1238</ele>
        <time>2022-07-17T01:51:24Z</time>
      </trkpt>
      <trkpt lat="45.75338" lon="6.59047">
        <ele>1238</ele>
        <time>2022-07-17T01:51:26Z</time>
      </trkpt>
      <trkpt lat="45.75336" lon="6.59044">
        <ele>1238</ele>
        <time>2022-07-17T01:51:28Z</time>
      </trkpt>
      <trkpt lat="45.75335" lon="6.59042">
        <ele>1239</ele>
        <time>2022-07-17T01:51:30Z</time>
      </trkpt>
      <trkpt lat="45.75333" lon="6.5904">
        <ele>1239</ele>
        <time>2022-07-17T01:51:32Z</time>
      </trkpt>
      <trkpt lat="45.75332" lon="6.59038">
        <ele>1239</ele>
        <time>2022-07-17T01:51:34Z</time>
      </trkpt>
      <trkpt lat="45.75331" lon="6.59035">
        <ele>1239</ele>
        <time>2022-07-17T01:51:36Z</time>
      </trkpt>
      <trkpt lat="45.75329" lon="6.59033">
        <ele>1239</ele>
        <time>2022-07-17T01:51:37Z</time>
      </trkpt>
      <trkpt lat="45.75328" lon="6.5903">
        <ele>1240</ele>
        <time>2022-07-17T01:51:40Z</time>
      </trkpt>
      <trkpt lat="45.75326" lon="6.59028">
        <ele>1240</ele>
        <time>2022-07-17T01:51:42Z</time>
      </trkpt>
      <trkpt lat="45.75325" lon="6.59025">
        <ele>1240</ele>
        <time>2022-07-17T01:51:44Z</time>
      </trkpt>
      <trkpt lat="45.75324" lon="6.59022">
        <ele>1241</ele>
        <time>2022-07-17T01:51:46Z</time>
      </trkpt>
      <trkpt lat="45.75323" lon="6.5902">
        <ele>1241</ele>
        <time>2022-07-17T01:51:48Z</time>
      </trkpt>
      <trkpt lat="45.75322" lon="6.59017">
        <ele>1241</ele>
        <time>2022-07-17T01:51:50Z</time>
      </trkpt>
      <trkpt lat="45.75321" lon="6.59014">
        <ele>1241</ele>
        <time>2022-07-17T01:51:52Z</time>
      </trkpt>
      <trkpt lat="45.7532" lon="6.59011">
        <ele>1241</ele>
        <time>2022-07-17T01:51:54Z</time>
      </trkpt>
      <trkpt lat="45.75319" lon="6.59008">
        <ele>1242</ele>
        <time>2022-07-17T01:51:56Z</time>
      </trkpt>
      <trkpt lat="45.75318" lon="6.59006">
        <ele>1242</ele>
        <time>2022-07-17T01:51:58Z</time>
      </trkpt>
      <trkpt lat="45.75317" lon="6.59003">
        <ele>1242</ele>
        <time>2022-07-17T01:52:00Z</time>
      </trkpt>
      <trkpt lat="45.75315" lon="6.59001">
        <ele>1242</ele>
        <time>2022-07-17T01:52:02Z</time>
      </trkpt>
      <trkpt lat="45.75314" lon="6.58998">
        <ele>1243</ele>
        <time>2022-07-17T01:52:04Z</time>
      </trkpt>
      <trkpt lat="45.75312" lon="6.58996">
        <ele>1243</ele>
        <time>2022-07-17T01:52:06Z</time>
      </trkpt>
      <trkpt lat="45.75311" lon="6.58994">
        <ele>1243</ele>
        <time>2022-07-17T01:52:08Z</time>
      </trkpt>
      <trkpt lat="45.7531" lon="6.58991">
        <ele>1243</ele>
        <time>2022-07-17T01:52:10Z</time>
      </trkpt>
      <trkpt lat="45.75309" lon="6.58988">
        <ele>1244</ele>
        <time>2022-07-17T01:52:12Z</time>
      </trkpt>
      <trkpt lat="45.75308" lon="6.58986">
        <ele>1244</ele>
        <time>2022-07-17T01:52:15Z</time>
      </trkpt>
      <trkpt lat="45.75306" lon="6.58983">
        <ele>1244</ele>
        <time>2022-07-17T01:52:18Z</time>
      </trkpt>
      <trkpt lat="45.75305" lon="6.5898">
        <ele>1244</ele>
        <time>2022-07-17T01:52:20Z</time>
      </trkpt>
      <trkpt lat="45.75303" lon="6.58978">
        <ele>1245</ele>
        <time>2022-07-17T01:52:22Z</time>
      </trkpt>
      <trkpt lat="45.75302" lon="6.58976">
        <ele>1245</ele>
        <time>2022-07-17T01:52:24Z</time>
      </trkpt>
      <trkpt lat="45.75301" lon="6.58973">
        <ele>1246</ele>
        <time>2022-07-17T01:52:26Z</time>
      </trkpt>
      <trkpt lat="45.75299" lon="6.58972">
        <ele>1246</ele>
        <time>2022-07-17T01:52:28Z</time>
      </trkpt>
      <trkpt lat="45.75298" lon="6.5897">
        <ele>1246</ele>
        <time>2022-07-17T01:52:30Z</time>
      </trkpt>
      <trkpt lat="45.75296" lon="6.58967">
        <ele>1246</ele>
        <time>2022-07-17T01:52:32Z</time>
      </trkpt>
      <trkpt lat="45.75295" lon="6.58965">
        <ele>1246</ele>
        <time>2022-07-17T01:52:34Z</time>
      </trkpt>
      <trkpt lat="45.75293" lon="6.58963">
        <ele>1247</ele>
        <time>2022-07-17T01:52:36Z</time>
      </trkpt>
      <trkpt lat="45.75292" lon="6.58961">
        <ele>1247</ele>
        <time>2022-07-17T01:52:38Z</time>
      </trkpt>
      <trkpt lat="45.75291" lon="6.58958">
        <ele>1247</ele>
        <time>2022-07-17T01:52:40Z</time>
      </trkpt>
      <trkpt lat="45.75289" lon="6.58956">
        <ele>1247</ele>
        <time>2022-07-17T01:52:42Z</time>
      </trkpt>
      <trkpt lat="45.75287" lon="6.58954">
        <ele>1247</ele>
        <time>2022-07-17T01:52:44Z</time>
      </trkpt>
      <trkpt lat="45.75285" lon="6.58952">
        <ele>1247</ele>
        <time>2022-07-17T01:52:46Z</time>
      </trkpt>
      <trkpt lat="45.75285" lon="6.58949">
        <ele>1247</ele>
        <time>2022-07-17T01:52:48Z</time>
      </trkpt>
      <trkpt lat="45.75284" lon="6.58947">
        <ele>1247</ele>
        <time>2022-07-17T01:52:50Z</time>
      </trkpt>
      <trkpt lat="45.75283" lon="6.58944">
        <ele>1247</ele>
        <time>2022-07-17T01:52:52Z</time>
      </trkpt>
      <trkpt lat="45.75281" lon="6.58942">
        <ele>1247</ele>
        <time>2022-07-17T01:52:54Z</time>
      </trkpt>
      <trkpt lat="45.75279" lon="6.5894">
        <ele>1247</ele>
        <time>2022-07-17T01:52:56Z</time>
      </trkpt>
      <trkpt lat="45.75278" lon="6.58937">
        <ele>1247</ele>
        <time>2022-07-17T01:52:58Z</time>
      </trkpt>
      <trkpt lat="45.75277" lon="6.58934">
        <ele>1248</ele>
        <time>2022-07-17T01:53:01Z</time>
      </trkpt>
      <trkpt lat="45.75275" lon="6.58932">
        <ele>1248</ele>
        <time>2022-07-17T01:53:03Z</time>
      </trkpt>
      <trkpt lat="45.75273" lon="6.58929">
        <ele>1248</ele>
        <time>2022-07-17T01:53:05Z</time>
      </trkpt>
      <trkpt lat="45.75271" lon="6.58926">
        <ele>1248</ele>
        <time>2022-07-17T01:53:07Z</time>
      </trkpt>
      <trkpt lat="45.75269" lon="6.58923">
        <ele>1248</ele>
        <time>2022-07-17T01:53:09Z</time>
      </trkpt>
      <trkpt lat="45.75268" lon="6.5892">
        <ele>1249</ele>
        <time>2022-07-17T01:53:11Z</time>
      </trkpt>
      <trkpt lat="45.75266" lon="6.58917">
        <ele>1249</ele>
        <time>2022-07-17T01:53:12Z</time>
      </trkpt>
      <trkpt lat="45.75265" lon="6.58914">
        <ele>1249</ele>
        <time>2022-07-17T01:53:15Z</time>
      </trkpt>
      <trkpt lat="45.75264" lon="6.58911">
        <ele>1249</ele>
        <time>2022-07-17T01:53:17Z</time>
      </trkpt>
      <trkpt lat="45.75263" lon="6.58908">
        <ele>1249</ele>
        <time>2022-07-17T01:53:19Z</time>
      </trkpt>
      <trkpt lat="45.75262" lon="6.58906">
        <ele>1249</ele>
        <time>2022-07-17T01:53:20Z</time>
      </trkpt>
      <trkpt lat="45.75261" lon="6.58904">
        <ele>1249</ele>
        <time>2022-07-17T01:53:21Z</time>
      </trkpt>
      <trkpt lat="45.75261" lon="6.58902">
        <ele>1250</ele>
        <time>2022-07-17T01:53:22Z</time>
      </trkpt>
      <trkpt lat="45.7526" lon="6.589">
        <ele>1250</ele>
        <time>2022-07-17T01:53:23Z</time>
      </trkpt>
      <trkpt lat="45.75259" lon="6.58896">
        <ele>1250</ele>
        <time>2022-07-17T01:53:25Z</time>
      </trkpt>
      <trkpt lat="45.75257" lon="6.58894">
        <ele>1250</ele>
        <time>2022-07-17T01:53:27Z</time>
      </trkpt>
      <trkpt lat="45.75255" lon="6.58891">
        <ele>1250</ele>
        <time>2022-07-17T01:53:29Z</time>
      </trkpt>
      <trkpt lat="45.75252" lon="6.58889">
        <ele>1250</ele>
        <time>2022-07-17T01:53:31Z</time>
      </trkpt>
      <trkpt lat="45.75251" lon="6.58886">
        <ele>1250</ele>
        <time>2022-07-17T01:53:33Z</time>
      </trkpt>
      <trkpt lat="45.75249" lon="6.58884">
        <ele>1250</ele>
        <time>2022-07-17T01:53:35Z</time>
      </trkpt>
      <trkpt lat="45.75248" lon="6.58881">
        <ele>1250</ele>
        <time>2022-07-17T01:53:37Z</time>
      </trkpt>
      <trkpt lat="45.75246" lon="6.58879">
        <ele>1251</ele>
        <time>2022-07-17T01:53:39Z</time>
      </trkpt>
      <trkpt lat="45.75245" lon="6.58876">
        <ele>1251</ele>
        <time>2022-07-17T01:53:41Z</time>
      </trkpt>
      <trkpt lat="45.75243" lon="6.58873">
        <ele>1251</ele>
        <time>2022-07-17T01:53:43Z</time>
      </trkpt>
      <trkpt lat="45.75242" lon="6.5887">
        <ele>1251</ele>
        <time>2022-07-17T01:53:45Z</time>
      </trkpt>
      <trkpt lat="45.75241" lon="6.58868">
        <ele>1251</ele>
        <time>2022-07-17T01:53:47Z</time>
      </trkpt>
      <trkpt lat="45.75239" lon="6.58865">
        <ele>1251</ele>
        <time>2022-07-17T01:53:49Z</time>
      </trkpt>
      <trkpt lat="45.75238" lon="6.58863">
        <ele>1251</ele>
        <time>2022-07-17T01:53:51Z</time>
      </trkpt>
      <trkpt lat="45.75236" lon="6.58861">
        <ele>1251</ele>
        <time>2022-07-17T01:53:53Z</time>
      </trkpt>
      <trkpt lat="45.75234" lon="6.58858">
        <ele>1251</ele>
        <time>2022-07-17T01:53:55Z</time>
      </trkpt>
      <trkpt lat="45.75233" lon="6.58856">
        <ele>1251</ele>
        <time>2022-07-17T01:53:57Z</time>
      </trkpt>
      <trkpt lat="45.75231" lon="6.58853">
        <ele>1251</ele>
        <time>2022-07-17T01:53:59Z</time>
      </trkpt>
      <trkpt lat="45.7523" lon="6.5885">
        <ele>1251</ele>
        <time>2022-07-17T01:54:01Z</time>
      </trkpt>
      <trkpt lat="45.75228" lon="6.58848">
        <ele>1251</ele>
        <time>2022-07-17T01:54:03Z</time>
      </trkpt>
      <trkpt lat="45.75226" lon="6.58845">
        <ele>1251</ele>
        <time>2022-07-17T01:54:05Z</time>
      </trkpt>
      <trkpt lat="45.75224" lon="6.58843">
        <ele>1251</ele>
        <time>2022-07-17T01:54:07Z</time>
      </trkpt>
      <trkpt lat="45.75223" lon="6.58841">
        <ele>1251</ele>
        <time>2022-07-17T01:54:09Z</time>
      </trkpt>
      <trkpt lat="45.75221" lon="6.58838">
        <ele>1252</ele>
        <time>2022-07-17T01:54:11Z</time>
      </trkpt>
      <trkpt lat="45.7522" lon="6.58836">
        <ele>1251</ele>
        <time>2022-07-17T01:54:13Z</time>
      </trkpt>
      <trkpt lat="45.75218" lon="6.58833">
        <ele>1251</ele>
        <time>2022-07-17T01:54:15Z</time>
      </trkpt>
      <trkpt lat="45.75217" lon="6.5883">
        <ele>1251</ele>
        <time>2022-07-17T01:54:17Z</time>
      </trkpt>
      <trkpt lat="45.75215" lon="6.58827">
        <ele>1251</ele>
        <time>2022-07-17T01:54:19Z</time>
      </trkpt>
      <trkpt lat="45.75214" lon="6.58825">
        <ele>1251</ele>
        <time>2022-07-17T01:54:21Z</time>
      </trkpt>
      <trkpt lat="45.75212" lon="6.58823">
        <ele>1251</ele>
        <time>2022-07-17T01:54:23Z</time>
      </trkpt>
      <trkpt lat="45.7521" lon="6.5882">
        <ele>1251</ele>
        <time>2022-07-17T01:54:25Z</time>
      </trkpt>
      <trkpt lat="45.75208" lon="6.58818">
        <ele>1251</ele>
        <time>2022-07-17T01:54:27Z</time>
      </trkpt>
      <trkpt lat="45.75207" lon="6.58816">
        <ele>1251</ele>
        <time>2022-07-17T01:54:29Z</time>
      </trkpt>
      <trkpt lat="45.75205" lon="6.58813">
        <ele>1251</ele>
        <time>2022-07-17T01:54:31Z</time>
      </trkpt>
      <trkpt lat="45.75204" lon="6.58811">
        <ele>1252</ele>
        <time>2022-07-17T01:54:33Z</time>
      </trkpt>
      <trkpt lat="45.75202" lon="6.58808">
        <ele>1252</ele>
        <time>2022-07-17T01:54:35Z</time>
      </trkpt>
      <trkpt lat="45.752" lon="6.58806">
        <ele>1252</ele>
        <time>2022-07-17T01:54:37Z</time>
      </trkpt>
      <trkpt lat="45.75199" lon="6.58803">
        <ele>1252</ele>
        <time>2022-07-17T01:54:39Z</time>
      </trkpt>
      <trkpt lat="45.75197" lon="6.58801">
        <ele>1252</ele>
        <time>2022-07-17T01:54:41Z</time>
      </trkpt>
      <trkpt lat="45.75195" lon="6.58798">
        <ele>1252</ele>
        <time>2022-07-17T01:54:43Z</time>
      </trkpt>
      <trkpt lat="45.75193" lon="6.58796">
        <ele>1252</ele>
        <time>2022-07-17T01:54:45Z</time>
      </trkpt>
      <trkpt lat="45.75192" lon="6.58794">
        <ele>1252</ele>
        <time>2022-07-17T01:54:47Z</time>
      </trkpt>
      <trkpt lat="45.7519" lon="6.58791">
        <ele>1252</ele>
        <time>2022-07-17T01:54:49Z</time>
      </trkpt>
      <trkpt lat="45.75189" lon="6.58788">
        <ele>1252</ele>
        <time>2022-07-17T01:54:51Z</time>
      </trkpt>
      <trkpt lat="45.75187" lon="6.58786">
        <ele>1252</ele>
        <time>2022-07-17T01:54:53Z</time>
      </trkpt>
      <trkpt lat="45.75186" lon="6.58784">
        <ele>1252</ele>
        <time>2022-07-17T01:54:55Z</time>
      </trkpt>
      <trkpt lat="45.75184" lon="6.58781">
        <ele>1252</ele>
        <time>2022-07-17T01:54:57Z</time>
      </trkpt>
      <trkpt lat="45.75183" lon="6.58778">
        <ele>1252</ele>
        <time>2022-07-17T01:54:59Z</time>
      </trkpt>
      <trkpt lat="45.75181" lon="6.58776">
        <ele>1252</ele>
        <time>2022-07-17T01:55:01Z</time>
      </trkpt>
      <trkpt lat="45.7518" lon="6.58774">
        <ele>1252</ele>
        <time>2022-07-17T01:55:03Z</time>
      </trkpt>
      <trkpt lat="45.75179" lon="6.58771">
        <ele>1253</ele>
        <time>2022-07-17T01:55:05Z</time>
      </trkpt>
      <trkpt lat="45.75177" lon="6.58769">
        <ele>1253</ele>
        <time>2022-07-17T01:55:06Z</time>
      </trkpt>
      <trkpt lat="45.75176" lon="6.58766">
        <ele>1253</ele>
        <time>2022-07-17T01:55:09Z</time>
      </trkpt>
      <trkpt lat="45.75174" lon="6.58763">
        <ele>1253</ele>
        <time>2022-07-17T01:55:11Z</time>
      </trkpt>
      <trkpt lat="45.75173" lon="6.5876">
        <ele>1253</ele>
        <time>2022-07-17T01:55:13Z</time>
      </trkpt>
      <trkpt lat="45.75171" lon="6.58758">
        <ele>1253</ele>
        <time>2022-07-17T01:55:15Z</time>
      </trkpt>
      <trkpt lat="45.7517" lon="6.58755">
        <ele>1253</ele>
        <time>2022-07-17T01:55:17Z</time>
      </trkpt>
      <trkpt lat="45.75169" lon="6.58752">
        <ele>1253</ele>
        <time>2022-07-17T01:55:19Z</time>
      </trkpt>
      <trkpt lat="45.75167" lon="6.58749">
        <ele>1253</ele>
        <time>2022-07-17T01:55:21Z</time>
      </trkpt>
      <trkpt lat="45.75166" lon="6.58746">
        <ele>1253</ele>
        <time>2022-07-17T01:55:23Z</time>
      </trkpt>
      <trkpt lat="45.75165" lon="6.58743">
        <ele>1254</ele>
        <time>2022-07-17T01:55:25Z</time>
      </trkpt>
      <trkpt lat="45.75163" lon="6.5874">
        <ele>1254</ele>
        <time>2022-07-17T01:55:27Z</time>
      </trkpt>
      <trkpt lat="45.75162" lon="6.58738">
        <ele>1254</ele>
        <time>2022-07-17T01:55:29Z</time>
      </trkpt>
      <trkpt lat="45.75161" lon="6.58735">
        <ele>1254</ele>
        <time>2022-07-17T01:55:31Z</time>
      </trkpt>
      <trkpt lat="45.75159" lon="6.58733">
        <ele>1254</ele>
        <time>2022-07-17T01:55:33Z</time>
      </trkpt>
      <trkpt lat="45.75158" lon="6.5873">
        <ele>1254</ele>
        <time>2022-07-17T01:55:35Z</time>
      </trkpt>
      <trkpt lat="45.75157" lon="6.58727">
        <ele>1254</ele>
        <time>2022-07-17T01:55:37Z</time>
      </trkpt>
      <trkpt lat="45.75156" lon="6.58724">
        <ele>1254</ele>
        <time>2022-07-17T01:55:39Z</time>
      </trkpt>
      <trkpt lat="45.75155" lon="6.58722">
        <ele>1254</ele>
        <time>2022-07-17T01:55:41Z</time>
      </trkpt>
      <trkpt lat="45.75153" lon="6.5872">
        <ele>1255</ele>
        <time>2022-07-17T01:55:43Z</time>
      </trkpt>
      <trkpt lat="45.75151" lon="6.58718">
        <ele>1255</ele>
        <time>2022-07-17T01:55:45Z</time>
      </trkpt>
      <trkpt lat="45.7515" lon="6.58715">
        <ele>1255</ele>
        <time>2022-07-17T01:55:47Z</time>
      </trkpt>
      <trkpt lat="45.75149" lon="6.58712">
        <ele>1255</ele>
        <time>2022-07-17T01:55:49Z</time>
      </trkpt>
      <trkpt lat="45.75148" lon="6.5871">
        <ele>1256</ele>
        <time>2022-07-17T01:55:51Z</time>
      </trkpt>
      <trkpt lat="45.75146" lon="6.58707">
        <ele>1256</ele>
        <time>2022-07-17T01:55:53Z</time>
      </trkpt>
      <trkpt lat="45.75145" lon="6.58703">
        <ele>1256</ele>
        <time>2022-07-17T01:55:55Z</time>
      </trkpt>
      <trkpt lat="45.75145" lon="6.587">
        <ele>1256</ele>
        <time>2022-07-17T01:55:57Z</time>
      </trkpt>
      <trkpt lat="45.75144" lon="6.58697">
        <ele>1256</ele>
        <time>2022-07-17T01:55:59Z</time>
      </trkpt>
      <trkpt lat="45.75141" lon="6.58695">
        <ele>1256</ele>
        <time>2022-07-17T01:56:01Z</time>
      </trkpt>
      <trkpt lat="45.7514" lon="6.58693">
        <ele>1256</ele>
        <time>2022-07-17T01:56:03Z</time>
      </trkpt>
      <trkpt lat="45.75139" lon="6.5869">
        <ele>1256</ele>
        <time>2022-07-17T01:56:05Z</time>
      </trkpt>
      <trkpt lat="45.75137" lon="6.58688">
        <ele>1256</ele>
        <time>2022-07-17T01:56:07Z</time>
      </trkpt>
      <trkpt lat="45.75136" lon="6.58687">
        <ele>1256</ele>
        <time>2022-07-17T01:56:08Z</time>
      </trkpt>
      <trkpt lat="45.75135" lon="6.58687">
        <ele>1256</ele>
        <time>2022-07-17T01:56:09Z</time>
      </trkpt>
      <trkpt lat="45.75134" lon="6.58686">
        <ele>1256</ele>
        <time>2022-07-17T01:56:10Z</time>
      </trkpt>
      <trkpt lat="45.75133" lon="6.58686">
        <ele>1256</ele>
        <time>2022-07-17T01:56:11Z</time>
      </trkpt>
      <trkpt lat="45.75132" lon="6.58685">
        <ele>1257</ele>
        <time>2022-07-17T01:56:12Z</time>
      </trkpt>
      <trkpt lat="45.7513" lon="6.58684">
        <ele>1257</ele>
        <time>2022-07-17T01:56:14Z</time>
      </trkpt>
      <trkpt lat="45.75128" lon="6.58682">
        <ele>1257</ele>
        <time>2022-07-17T01:56:16Z</time>
      </trkpt>
      <trkpt lat="45.75127" lon="6.5868">
        <ele>1257</ele>
        <time>2022-07-17T01:56:18Z</time>
      </trkpt>
      <trkpt lat="45.75125" lon="6.58678">
        <ele>1258</ele>
        <time>2022-07-17T01:56:20Z</time>
      </trkpt>
      <trkpt lat="45.75123" lon="6.58674">
        <ele>1258</ele>
        <time>2022-07-17T01:56:23Z</time>
      </trkpt>
      <trkpt lat="45.75121" lon="6.58674">
        <ele>1257</ele>
        <time>2022-07-17T01:56:25Z</time>
      </trkpt>
      <trkpt lat="45.75119" lon="6.58671">
        <ele>1258</ele>
        <time>2022-07-17T01:56:28Z</time>
      </trkpt>
      <trkpt lat="45.75117" lon="6.58669">
        <ele>1258</ele>
        <time>2022-07-17T01:56:30Z</time>
      </trkpt>
      <trkpt lat="45.75115" lon="6.58667">
        <ele>1259</ele>
        <time>2022-07-17T01:56:33Z</time>
      </trkpt>
      <trkpt lat="45.75114" lon="6.58664">
        <ele>1259</ele>
        <time>2022-07-17T01:56:35Z</time>
      </trkpt>
      <trkpt lat="45.75113" lon="6.58661">
        <ele>1259</ele>
        <time>2022-07-17T01:56:37Z</time>
      </trkpt>
      <trkpt lat="45.75111" lon="6.58659">
        <ele>1259</ele>
        <time>2022-07-17T01:56:39Z</time>
      </trkpt>
      <trkpt lat="45.7511" lon="6.58656">
        <ele>1259</ele>
        <time>2022-07-17T01:56:41Z</time>
      </trkpt>
      <trkpt lat="45.75108" lon="6.58654">
        <ele>1260</ele>
        <time>2022-07-17T01:56:43Z</time>
      </trkpt>
      <trkpt lat="45.75108" lon="6.58651">
        <ele>1260</ele>
        <time>2022-07-17T01:56:45Z</time>
      </trkpt>
      <trkpt lat="45.75107" lon="6.58648">
        <ele>1260</ele>
        <time>2022-07-17T01:56:47Z</time>
      </trkpt>
      <trkpt lat="45.75106" lon="6.58646">
        <ele>1260</ele>
        <time>2022-07-17T01:56:49Z</time>
      </trkpt>
      <trkpt lat="45.75105" lon="6.58643">
        <ele>1260</ele>
        <time>2022-07-17T01:56:51Z</time>
      </trkpt>
      <trkpt lat="45.75103" lon="6.5864">
        <ele>1260</ele>
        <time>2022-07-17T01:56:53Z</time>
      </trkpt>
      <trkpt lat="45.75102" lon="6.58637">
        <ele>1261</ele>
        <time>2022-07-17T01:56:55Z</time>
      </trkpt>
      <trkpt lat="45.75101" lon="6.58634">
        <ele>1261</ele>
        <time>2022-07-17T01:56:58Z</time>
      </trkpt>
      <trkpt lat="45.75099" lon="6.58631">
        <ele>1260</ele>
        <time>2022-07-17T01:57:00Z</time>
      </trkpt>
      <trkpt lat="45.75098" lon="6.58628">
        <ele>1260</ele>
        <time>2022-07-17T01:57:02Z</time>
      </trkpt>
      <trkpt lat="45.75097" lon="6.58625">
        <ele>1260</ele>
        <time>2022-07-17T01:57:04Z</time>
      </trkpt>
      <trkpt lat="45.75095" lon="6.58622">
        <ele>1261</ele>
        <time>2022-07-17T01:57:06Z</time>
      </trkpt>
      <trkpt lat="45.75093" lon="6.58619">
        <ele>1261</ele>
        <time>2022-07-17T01:57:08Z</time>
      </trkpt>
      <trkpt lat="45.75092" lon="6.58616">
        <ele>1261</ele>
        <time>2022-07-17T01:57:10Z</time>
      </trkpt>
      <trkpt lat="45.75091" lon="6.58614">
        <ele>1261</ele>
        <time>2022-07-17T01:57:12Z</time>
      </trkpt>
      <trkpt lat="45.75091" lon="6.58611">
        <ele>1262</ele>
        <time>2022-07-17T01:57:14Z</time>
      </trkpt>
      <trkpt lat="45.75089" lon="6.58608">
        <ele>1262</ele>
        <time>2022-07-17T01:57:16Z</time>
      </trkpt>
      <trkpt lat="45.75088" lon="6.58605">
        <ele>1262</ele>
        <time>2022-07-17T01:57:18Z</time>
      </trkpt>
      <trkpt lat="45.75086" lon="6.58602">
        <ele>1262</ele>
        <time>2022-07-17T01:57:20Z</time>
      </trkpt>
      <trkpt lat="45.75084" lon="6.58599">
        <ele>1262</ele>
        <time>2022-07-17T01:57:22Z</time>
      </trkpt>
      <trkpt lat="45.75082" lon="6.58595">
        <ele>1262</ele>
        <time>2022-07-17T01:57:24Z</time>
      </trkpt>
      <trkpt lat="45.7508" lon="6.58592">
        <ele>1262</ele>
        <time>2022-07-17T01:57:26Z</time>
      </trkpt>
      <trkpt lat="45.75079" lon="6.58589">
        <ele>1262</ele>
        <time>2022-07-17T01:57:28Z</time>
      </trkpt>
      <trkpt lat="45.75077" lon="6.58587">
        <ele>1262</ele>
        <time>2022-07-17T01:57:30Z</time>
      </trkpt>
      <trkpt lat="45.75076" lon="6.58584">
        <ele>1262</ele>
        <time>2022-07-17T01:57:32Z</time>
      </trkpt>
      <trkpt lat="45.75076" lon="6.5858">
        <ele>1262</ele>
        <time>2022-07-17T01:57:35Z</time>
      </trkpt>
      <trkpt lat="45.75075" lon="6.58577">
        <ele>1262</ele>
        <time>2022-07-17T01:57:38Z</time>
      </trkpt>
      <trkpt lat="45.75074" lon="6.58574">
        <ele>1262</ele>
        <time>2022-07-17T01:57:40Z</time>
      </trkpt>
      <trkpt lat="45.75073" lon="6.58571">
        <ele>1262</ele>
        <time>2022-07-17T01:57:42Z</time>
      </trkpt>
      <trkpt lat="45.75072" lon="6.58568">
        <ele>1262</ele>
        <time>2022-07-17T01:57:44Z</time>
      </trkpt>
      <trkpt lat="45.7507" lon="6.58564">
        <ele>1262</ele>
        <time>2022-07-17T01:57:46Z</time>
      </trkpt>
      <trkpt lat="45.75068" lon="6.58561">
        <ele>1262</ele>
        <time>2022-07-17T01:57:48Z</time>
      </trkpt>
      <trkpt lat="45.75067" lon="6.58557">
        <ele>1262</ele>
        <time>2022-07-17T01:57:50Z</time>
      </trkpt>
      <trkpt lat="45.75066" lon="6.58554">
        <ele>1262</ele>
        <time>2022-07-17T01:57:52Z</time>
      </trkpt>
      <trkpt lat="45.75065" lon="6.5855">
        <ele>1262</ele>
        <time>2022-07-17T01:57:54Z</time>
      </trkpt>
      <trkpt lat="45.75064" lon="6.58547">
        <ele>1262</ele>
        <time>2022-07-17T01:57:56Z</time>
      </trkpt>
      <trkpt lat="45.75063" lon="6.58545">
        <ele>1262</ele>
        <time>2022-07-17T01:57:58Z</time>
      </trkpt>
      <trkpt lat="45.75062" lon="6.58541">
        <ele>1263</ele>
        <time>2022-07-17T01:58:01Z</time>
      </trkpt>
      <trkpt lat="45.75061" lon="6.58538">
        <ele>1263</ele>
        <time>2022-07-17T01:58:03Z</time>
      </trkpt>
      <trkpt lat="45.75061" lon="6.58534">
        <ele>1264</ele>
        <time>2022-07-17T01:58:06Z</time>
      </trkpt>
      <trkpt lat="45.75061" lon="6.58532">
        <ele>1264</ele>
        <time>2022-07-17T01:58:08Z</time>
      </trkpt>
      <trkpt lat="45.75063" lon="6.58529">
        <ele>1265</ele>
        <time>2022-07-17T01:58:10Z</time>
      </trkpt>
      <trkpt lat="45.75064" lon="6.58526">
        <ele>1265</ele>
        <time>2022-07-17T01:58:13Z</time>
      </trkpt>
      <trkpt lat="45.75064" lon="6.58522">
        <ele>1265</ele>
        <time>2022-07-17T01:58:15Z</time>
      </trkpt>
      <trkpt lat="45.75064" lon="6.58518">
        <ele>1265</ele>
        <time>2022-07-17T01:58:17Z</time>
      </trkpt>
      <trkpt lat="45.75064" lon="6.58517">
        <ele>1265</ele>
        <time>2022-07-17T01:58:18Z</time>
      </trkpt>
      <trkpt lat="45.75063" lon="6.58515">
        <ele>1265</ele>
        <time>2022-07-17T01:58:19Z</time>
      </trkpt>
      <trkpt lat="45.75063" lon="6.58514">
        <ele>1265</ele>
        <time>2022-07-17T01:58:20Z</time>
      </trkpt>
      <trkpt lat="45.75062" lon="6.58513">
        <ele>1264</ele>
        <time>2022-07-17T01:58:21Z</time>
      </trkpt>
      <trkpt lat="45.75061" lon="6.58511">
        <ele>1264</ele>
        <time>2022-07-17T01:58:22Z</time>
      </trkpt>
      <trkpt lat="45.75061" lon="6.5851">
        <ele>1264</ele>
        <time>2022-07-17T01:58:23Z</time>
      </trkpt>
      <trkpt lat="45.7506" lon="6.58508">
        <ele>1264</ele>
        <time>2022-07-17T01:58:24Z</time>
      </trkpt>
      <trkpt lat="45.7506" lon="6.58507">
        <ele>1264</ele>
        <time>2022-07-17T01:58:25Z</time>
      </trkpt>
      <trkpt lat="45.75058" lon="6.58504">
        <ele>1264</ele>
        <time>2022-07-17T01:58:27Z</time>
      </trkpt>
      <trkpt lat="45.75058" lon="6.58501">
        <ele>1264</ele>
        <time>2022-07-17T01:58:29Z</time>
      </trkpt>
      <trkpt lat="45.75057" lon="6.58498">
        <ele>1264</ele>
        <time>2022-07-17T01:58:31Z</time>
      </trkpt>
      <trkpt lat="45.75056" lon="6.58495">
        <ele>1264</ele>
        <time>2022-07-17T01:58:33Z</time>
      </trkpt>
      <trkpt lat="45.75054" lon="6.58492">
        <ele>1264</ele>
        <time>2022-07-17T01:58:35Z</time>
      </trkpt>
      <trkpt lat="45.75052" lon="6.5849">
        <ele>1263</ele>
        <time>2022-07-17T01:58:37Z</time>
      </trkpt>
      <trkpt lat="45.7505" lon="6.58488">
        <ele>1262</ele>
        <time>2022-07-17T01:58:39Z</time>
      </trkpt>
      <trkpt lat="45.75047" lon="6.58488">
        <ele>1262</ele>
        <time>2022-07-17T01:58:41Z</time>
      </trkpt>
      <trkpt lat="45.75045" lon="6.58487">
        <ele>1262</ele>
        <time>2022-07-17T01:58:43Z</time>
      </trkpt>
      <trkpt lat="45.75043" lon="6.58489">
        <ele>1262</ele>
        <time>2022-07-17T01:58:46Z</time>
      </trkpt>
      <trkpt lat="45.75041" lon="6.58491">
        <ele>1262</ele>
        <time>2022-07-17T01:58:49Z</time>
      </trkpt>
      <trkpt lat="45.7504" lon="6.58493">
        <ele>1262</ele>
        <time>2022-07-17T01:58:51Z</time>
      </trkpt>
      <trkpt lat="45.75038" lon="6.58496">
        <ele>1261</ele>
        <time>2022-07-17T01:58:53Z</time>
      </trkpt>
      <trkpt lat="45.75037" lon="6.585">
        <ele>1260</ele>
        <time>2022-07-17T01:58:56Z</time>
      </trkpt>
      <trkpt lat="45.75036" lon="6.58499">
        <ele>1259</ele>
        <time>2022-07-17T01:58:57Z</time>
      </trkpt>
      <trkpt lat="45.75035" lon="6.58499">
        <ele>1259</ele>
        <time>2022-07-17T01:58:58Z</time>
      </trkpt>
      <trkpt lat="45.75034" lon="6.58498">
        <ele>1259</ele>
        <time>2022-07-17T01:58:59Z</time>
      </trkpt>
      <trkpt lat="45.75033" lon="6.58498">
        <ele>1259</ele>
        <time>2022-07-17T01:59:00Z</time>
      </trkpt>
      <trkpt lat="45.75033" lon="6.58497">
        <ele>1259</ele>
        <time>2022-07-17T01:59:01Z</time>
      </trkpt>
      <trkpt lat="45.75032" lon="6.58496">
        <ele>1259</ele>
        <time>2022-07-17T01:59:02Z</time>
      </trkpt>
      <trkpt lat="45.75031" lon="6.58496">
        <ele>1259</ele>
        <time>2022-07-17T01:59:03Z</time>
      </trkpt>
      <trkpt lat="45.7503" lon="6.58495">
        <ele>1259</ele>
        <time>2022-07-17T01:59:04Z</time>
      </trkpt>
      <trkpt lat="45.75029" lon="6.58495">
        <ele>1259</ele>
        <time>2022-07-17T01:59:05Z</time>
      </trkpt>
      <trkpt lat="45.75028" lon="6.58494">
        <ele>1259</ele>
        <time>2022-07-17T01:59:06Z</time>
      </trkpt>
      <trkpt lat="45.75028" lon="6.58493">
        <ele>1259</ele>
        <time>2022-07-17T01:59:07Z</time>
      </trkpt>
      <trkpt lat="45.75027" lon="6.58492">
        <ele>1259</ele>
        <time>2022-07-17T01:59:08Z</time>
      </trkpt>
      <trkpt lat="45.75027" lon="6.58491">
        <ele>1259</ele>
        <time>2022-07-17T01:59:09Z</time>
      </trkpt>
      <trkpt lat="45.75026" lon="6.5849">
        <ele>1259</ele>
        <time>2022-07-17T01:59:10Z</time>
      </trkpt>
      <trkpt lat="45.75026" lon="6.58488">
        <ele>1259</ele>
        <time>2022-07-17T01:59:11Z</time>
      </trkpt>
      <trkpt lat="45.75026" lon="6.58487">
        <ele>1259</ele>
        <time>2022-07-17T01:59:12Z</time>
      </trkpt>
      <trkpt lat="45.75025" lon="6.58486">
        <ele>1259</ele>
        <time>2022-07-17T01:59:13Z</time>
      </trkpt>
      <trkpt lat="45.75025" lon="6.58485">
        <ele>1259</ele>
        <time>2022-07-17T01:59:14Z</time>
      </trkpt>
      <trkpt lat="45.75024" lon="6.58483">
        <ele>1259</ele>
        <time>2022-07-17T01:59:15Z</time>
      </trkpt>
      <trkpt lat="45.75024" lon="6.58482">
        <ele>1259</ele>
        <time>2022-07-17T01:59:16Z</time>
      </trkpt>
      <trkpt lat="45.75024" lon="6.58481">
        <ele>1259</ele>
        <time>2022-07-17T01:59:17Z</time>
      </trkpt>
      <trkpt lat="45.75023" lon="6.5848">
        <ele>1258</ele>
        <time>2022-07-17T01:59:18Z</time>
      </trkpt>
      <trkpt lat="45.75022" lon="6.58479">
        <ele>1258</ele>
        <time>2022-07-17T01:59:19Z</time>
      </trkpt>
      <trkpt lat="45.75021" lon="6.58478">
        <ele>1258</ele>
        <time>2022-07-17T01:59:21Z</time>
      </trkpt>
      <trkpt lat="45.7502" lon="6.58477">
        <ele>1258</ele>
        <time>2022-07-17T01:59:22Z</time>
      </trkpt>
      <trkpt lat="45.75019" lon="6.58476">
        <ele>1258</ele>
        <time>2022-07-17T01:59:23Z</time>
      </trkpt>
      <trkpt lat="45.75014" lon="6.58471">
        <ele>1258</ele>
        <time>2022-07-17T01:59:24Z</time>
      </trkpt>
      <trkpt lat="45.75013" lon="6.5847">
        <ele>1258</ele>
        <time>2022-07-17T01:59:25Z</time>
      </trkpt>
      <trkpt lat="45.75012" lon="6.58469">
        <ele>1258</ele>
        <time>2022-07-17T01:59:26Z</time>
      </trkpt>
      <trkpt lat="45.7501" lon="6.58469">
        <ele>1258</ele>
        <time>2022-07-17T01:59:27Z</time>
      </trkpt>
      <trkpt lat="45.75009" lon="6.58468">
        <ele>1258</ele>
        <time>2022-07-17T01:59:28Z</time>
      </trkpt>
      <trkpt lat="45.75008" lon="6.58467">
        <ele>1258</ele>
        <time>2022-07-17T01:59:29Z</time>
      </trkpt>
      <trkpt lat="45.75007" lon="6.58466">
        <ele>1258</ele>
        <time>2022-07-17T01:59:30Z</time>
      </trkpt>
      <trkpt lat="45.75005" lon="6.58464">
        <ele>1258</ele>
        <time>2022-07-17T01:59:31Z</time>
      </trkpt>
      <trkpt lat="45.75004" lon="6.58459">
        <ele>1258</ele>
        <time>2022-07-17T01:59:33Z</time>
      </trkpt>
      <trkpt lat="45.75004" lon="6.58455">
        <ele>1257</ele>
        <time>2022-07-17T01:59:35Z</time>
      </trkpt>
      <trkpt lat="45.75002" lon="6.58452">
        <ele>1257</ele>
        <time>2022-07-17T01:59:37Z</time>
      </trkpt>
      <trkpt lat="45.75002" lon="6.58449">
        <ele>1257</ele>
        <time>2022-07-17T01:59:39Z</time>
      </trkpt>
      <trkpt lat="45.75" lon="6.58446">
        <ele>1257</ele>
        <time>2022-07-17T01:59:42Z</time>
      </trkpt>
      <trkpt lat="45.74999" lon="6.58444">
        <ele>1257</ele>
        <time>2022-07-17T01:59:44Z</time>
      </trkpt>
      <trkpt lat="45.74997" lon="6.58443">
        <ele>1257</ele>
        <time>2022-07-17T01:59:46Z</time>
      </trkpt>
      <trkpt lat="45.74996" lon="6.58441">
        <ele>1257</ele>
        <time>2022-07-17T01:59:47Z</time>
      </trkpt>
      <trkpt lat="45.74994" lon="6.5844">
        <ele>1257</ele>
        <time>2022-07-17T01:59:48Z</time>
      </trkpt>
      <trkpt lat="45.74993" lon="6.58439">
        <ele>1257</ele>
        <time>2022-07-17T01:59:49Z</time>
      </trkpt>
      <trkpt lat="45.74991" lon="6.58437">
        <ele>1257</ele>
        <time>2022-07-17T01:59:50Z</time>
      </trkpt>
      <trkpt lat="45.74987" lon="6.58435">
        <ele>1257</ele>
        <time>2022-07-17T01:59:51Z</time>
      </trkpt>
      <trkpt lat="45.74986" lon="6.58433">
        <ele>1257</ele>
        <time>2022-07-17T01:59:53Z</time>
      </trkpt>
      <trkpt lat="45.74984" lon="6.58431">
        <ele>1257</ele>
        <time>2022-07-17T01:59:55Z</time>
      </trkpt>
      <trkpt lat="45.74982" lon="6.58429">
        <ele>1256</ele>
        <time>2022-07-17T01:59:57Z</time>
      </trkpt>
      <trkpt lat="45.74981" lon="6.58426">
        <ele>1256</ele>
        <time>2022-07-17T01:59:59Z</time>
      </trkpt>
      <trkpt lat="45.7498" lon="6.58423">
        <ele>1256</ele>
        <time>2022-07-17T02:00:01Z</time>
      </trkpt>
      <trkpt lat="45.74979" lon="6.58419">
        <ele>1255</ele>
        <time>2022-07-17T02:00:03Z</time>
      </trkpt>
      <trkpt lat="45.74978" lon="6.58415">
        <ele>1255</ele>
        <time>2022-07-17T02:00:05Z</time>
      </trkpt>
      <trkpt lat="45.74977" lon="6.58411">
        <ele>1255</ele>
        <time>2022-07-17T02:00:07Z</time>
      </trkpt>
      <trkpt lat="45.74975" lon="6.58407">
        <ele>1255</ele>
        <time>2022-07-17T02:00:09Z</time>
      </trkpt>
      <trkpt lat="45.74973" lon="6.58404">
        <ele>1255</ele>
        <time>2022-07-17T02:00:11Z</time>
      </trkpt>
      <trkpt lat="45.74972" lon="6.58401">
        <ele>1255</ele>
        <time>2022-07-17T02:00:13Z</time>
      </trkpt>
      <trkpt lat="45.74971" lon="6.58397">
        <ele>1255</ele>
        <time>2022-07-17T02:00:15Z</time>
      </trkpt>
      <trkpt lat="45.7497" lon="6.58395">
        <ele>1255</ele>
        <time>2022-07-17T02:00:17Z</time>
      </trkpt>
      <trkpt lat="45.74968" lon="6.58392">
        <ele>1255</ele>
        <time>2022-07-17T02:00:19Z</time>
      </trkpt>
      <trkpt lat="45.74966" lon="6.58391">
        <ele>1255</ele>
        <time>2022-07-17T02:00:21Z</time>
      </trkpt>
      <trkpt lat="45.74964" lon="6.5839">
        <ele>1255</ele>
        <time>2022-07-17T02:00:23Z</time>
      </trkpt>
      <trkpt lat="45.74961" lon="6.58388">
        <ele>1255</ele>
        <time>2022-07-17T02:00:25Z</time>
      </trkpt>
      <trkpt lat="45.74959" lon="6.58387">
        <ele>1255</ele>
        <time>2022-07-17T02:00:27Z</time>
      </trkpt>
      <trkpt lat="45.74957" lon="6.58385">
        <ele>1255</ele>
        <time>2022-07-17T02:00:29Z</time>
      </trkpt>
      <trkpt lat="45.74955" lon="6.58384">
        <ele>1256</ele>
        <time>2022-07-17T02:00:31Z</time>
      </trkpt>
      <trkpt lat="45.74954" lon="6.58382">
        <ele>1256</ele>
        <time>2022-07-17T02:00:37Z</time>
      </trkpt>
      <trkpt lat="45.74951" lon="6.58379">
        <ele>1256</ele>
        <time>2022-07-17T02:00:39Z</time>
      </trkpt>
      <trkpt lat="45.74949" lon="6.58376">
        <ele>1257</ele>
        <time>2022-07-17T02:00:41Z</time>
      </trkpt>
      <trkpt lat="45.74947" lon="6.58374">
        <ele>1257</ele>
        <time>2022-07-17T02:00:43Z</time>
      </trkpt>
      <trkpt lat="45.74944" lon="6.58371">
        <ele>1257</ele>
        <time>2022-07-17T02:00:45Z</time>
      </trkpt>
      <trkpt lat="45.74942" lon="6.58369">
        <ele>1257</ele>
        <time>2022-07-17T02:00:47Z</time>
      </trkpt>
      <trkpt lat="45.7494" lon="6.58366">
        <ele>1257</ele>
        <time>2022-07-17T02:00:48Z</time>
      </trkpt>
      <trkpt lat="45.74938" lon="6.58364">
        <ele>1257</ele>
        <time>2022-07-17T02:00:51Z</time>
      </trkpt>
      <trkpt lat="45.74937" lon="6.58361">
        <ele>1257</ele>
        <time>2022-07-17T02:00:53Z</time>
      </trkpt>
      <trkpt lat="45.74935" lon="6.58357">
        <ele>1257</ele>
        <time>2022-07-17T02:00:55Z</time>
      </trkpt>
      <trkpt lat="45.74933" lon="6.58354">
        <ele>1257</ele>
        <time>2022-07-17T02:00:57Z</time>
      </trkpt>
      <trkpt lat="45.74931" lon="6.58351">
        <ele>1257</ele>
        <time>2022-07-17T02:00:59Z</time>
      </trkpt>
      <trkpt lat="45.74929" lon="6.58348">
        <ele>1257</ele>
        <time>2022-07-17T02:01:01Z</time>
      </trkpt>
      <trkpt lat="45.74928" lon="6.58345">
        <ele>1257</ele>
        <time>2022-07-17T02:01:03Z</time>
      </trkpt>
      <trkpt lat="45.74926" lon="6.58343">
        <ele>1257</ele>
        <time>2022-07-17T02:01:05Z</time>
      </trkpt>
      <trkpt lat="45.74924" lon="6.5834">
        <ele>1258</ele>
        <time>2022-07-17T02:01:07Z</time>
      </trkpt>
      <trkpt lat="45.74923" lon="6.58338">
        <ele>1258</ele>
        <time>2022-07-17T02:01:09Z</time>
      </trkpt>
      <trkpt lat="45.74921" lon="6.58336">
        <ele>1258</ele>
        <time>2022-07-17T02:01:11Z</time>
      </trkpt>
      <trkpt lat="45.74919" lon="6.58333">
        <ele>1258</ele>
        <time>2022-07-17T02:01:13Z</time>
      </trkpt>
      <trkpt lat="45.74918" lon="6.5833">
        <ele>1258</ele>
        <time>2022-07-17T02:01:15Z</time>
      </trkpt>
      <trkpt lat="45.74916" lon="6.58328">
        <ele>1258</ele>
        <time>2022-07-17T02:01:17Z</time>
      </trkpt>
      <trkpt lat="45.74915" lon="6.58325">
        <ele>1258</ele>
        <time>2022-07-17T02:01:19Z</time>
      </trkpt>
      <trkpt lat="45.74914" lon="6.58322">
        <ele>1259</ele>
        <time>2022-07-17T02:01:21Z</time>
      </trkpt>
      <trkpt lat="45.74912" lon="6.58319">
        <ele>1259</ele>
        <time>2022-07-17T02:01:23Z</time>
      </trkpt>
      <trkpt lat="45.74911" lon="6.58316">
        <ele>1259</ele>
        <time>2022-07-17T02:01:25Z</time>
      </trkpt>
      <trkpt lat="45.7491" lon="6.58314">
        <ele>1259</ele>
        <time>2022-07-17T02:01:27Z</time>
      </trkpt>
      <trkpt lat="45.74909" lon="6.58311">
        <ele>1259</ele>
        <time>2022-07-17T02:01:29Z</time>
      </trkpt>
      <trkpt lat="45.74908" lon="6.58309">
        <ele>1259</ele>
        <time>2022-07-17T02:01:31Z</time>
      </trkpt>
      <trkpt lat="45.74906" lon="6.58306">
        <ele>1259</ele>
        <time>2022-07-17T02:01:33Z</time>
      </trkpt>
      <trkpt lat="45.74904" lon="6.58304">
        <ele>1260</ele>
        <time>2022-07-17T02:01:35Z</time>
      </trkpt>
      <trkpt lat="45.74903" lon="6.58302">
        <ele>1259</ele>
        <time>2022-07-17T02:01:37Z</time>
      </trkpt>
      <trkpt lat="45.74902" lon="6.583">
        <ele>1259</ele>
        <time>2022-07-17T02:01:39Z</time>
      </trkpt>
      <trkpt lat="45.749" lon="6.58298">
        <ele>1259</ele>
        <time>2022-07-17T02:01:41Z</time>
      </trkpt>
      <trkpt lat="45.74898" lon="6.58297">
        <ele>1260</ele>
        <time>2022-07-17T02:01:43Z</time>
      </trkpt>
      <trkpt lat="45.74897" lon="6.58294">
        <ele>1260</ele>
        <time>2022-07-17T02:01:45Z</time>
      </trkpt>
      <trkpt lat="45.74897" lon="6.58291">
        <ele>1260</ele>
        <time>2022-07-17T02:01:48Z</time>
      </trkpt>
      <trkpt lat="45.74896" lon="6.58288">
        <ele>1260</ele>
        <time>2022-07-17T02:01:52Z</time>
      </trkpt>
      <trkpt lat="45.74896" lon="6.58288">
        <ele>1260</ele>
        <time>2022-07-17T02:02:02Z</time>
      </trkpt>
      <trkpt lat="45.74896" lon="6.58285">
        <ele>1260</ele>
        <time>2022-07-17T02:02:07Z</time>
      </trkpt>
      <trkpt lat="45.74896" lon="6.58285">
        <ele>1261</ele>
        <time>2022-07-17T02:02:19Z</time>
      </trkpt>
      <trkpt lat="45.74895" lon="6.58283">
        <ele>1261</ele>
        <time>2022-07-17T02:02:24Z</time>
      </trkpt>
      <trkpt lat="45.74894" lon="6.5828">
        <ele>1261</ele>
        <time>2022-07-17T02:02:36Z</time>
      </trkpt>
      <trkpt lat="45.74894" lon="6.5828">
        <ele>1261</ele>
        <time>2022-07-17T02:02:38Z</time>
      </trkpt>
      <trkpt lat="45.74894" lon="6.5828">
        <ele>1260</ele>
        <time>2022-07-17T02:02:54Z</time>
      </trkpt>
      <trkpt lat="45.74896" lon="6.5828">
        <ele>1261</ele>
        <time>2022-07-17T02:03:09Z</time>
      </trkpt>
      <trkpt lat="45.74896" lon="6.5828">
        <ele>1261</ele>
        <time>2022-07-17T02:03:11Z</time>
      </trkpt>
      <trkpt lat="45.74896" lon="6.5828">
        <ele>1261</ele>
        <time>2022-07-17T02:03:27Z</time>
      </trkpt>
      <trkpt lat="45.74896" lon="6.5828">
        <ele>1260</ele>
        <time>2022-07-17T02:03:43Z</time>
      </trkpt>
      <trkpt lat="45.74895" lon="6.58282">
        <ele>1261</ele>
        <time>2022-07-17T02:03:51Z</time>
      </trkpt>
      <trkpt lat="45.74895" lon="6.58282">
        <ele>1261</ele>
        <time>2022-07-17T02:04:01Z</time>
      </trkpt>
      <trkpt lat="45.74895" lon="6.58282">
        <ele>1261</ele>
        <time>2022-07-17T02:04:17Z</time>
      </trkpt>
      <trkpt lat="45.74895" lon="6.58282">
        <ele>1261</ele>
        <time>2022-07-17T02:04:33Z</time>
      </trkpt>
      <trkpt lat="45.74895" lon="6.58282">
        <ele>1261</ele>
        <time>2022-07-17T02:04:49Z</time>
      </trkpt>
      <trkpt lat="45.74895" lon="6.58282">
        <ele>1261</ele>
        <time>2022-07-17T02:05:05Z</time>
      </trkpt>
      <trkpt lat="45.74895" lon="6.58282">
        <ele>1261</ele>
        <time>2022-07-17T02:05:21Z</time>
      </trkpt>
      <trkpt lat="45.74895" lon="6.58282">
        <ele>1262</ele>
        <time>2022-07-17T02:05:37Z</time>
      </trkpt>
      <trkpt lat="45.74895" lon="6.58282">
        <ele>1262</ele>
        <time>2022-07-17T02:05:53Z</time>
      </trkpt>
      <trkpt lat="45.74895" lon="6.58282">
        <ele>1261</ele>
        <time>2022-07-17T02:06:09Z</time>
      </trkpt>
      <trkpt lat="45.74895" lon="6.58282">
        <ele>1261</ele>
        <time>2022-07-17T02:06:25Z</time>
      </trkpt>
      <trkpt lat="45.74895" lon="6.58282">
        <ele>1261</ele>
        <time>2022-07-17T02:06:41Z</time>
      </trkpt>
      <trkpt lat="45.74897" lon="6.58281">
        <ele>1261</ele>
        <time>2022-07-17T02:06:56Z</time>
      </trkpt>
      <trkpt lat="45.74897" lon="6.58281">
        <ele>1261</ele>
        <time>2022-07-17T02:06:58Z</time>
      </trkpt>
      <trkpt lat="45.74897" lon="6.58281">
        <ele>1262</ele>
        <time>2022-07-17T02:07:14Z</time>
      </trkpt>
      <trkpt lat="45.74897" lon="6.58281">
        <ele>1261</ele>
        <time>2022-07-17T02:07:30Z</time>
      </trkpt>
      <trkpt lat="45.74897" lon="6.58281">
        <ele>1261</ele>
        <time>2022-07-17T02:07:46Z</time>
      </trkpt>
      <trkpt lat="45.74897" lon="6.58281">
        <ele>1261</ele>
        <time>2022-07-17T02:08:02Z</time>
      </trkpt>
      <trkpt lat="45.74897" lon="6.58281">
        <ele>1261</ele>
        <time>2022-07-17T02:08:18Z</time>
      </trkpt>
      <trkpt lat="45.74897" lon="6.58281">
        <ele>1261</ele>
        <time>2022-07-17T02:08:34Z</time>
      </trkpt>
      <trkpt lat="45.74897" lon="6.58281">
        <ele>1262</ele>
        <time>2022-07-17T02:08:50Z</time>
      </trkpt>
      <trkpt lat="45.74897" lon="6.58281">
        <ele>1261</ele>
        <time>2022-07-17T02:09:06Z</time>
      </trkpt>
      <trkpt lat="45.74897" lon="6.58281">
        <ele>1261</ele>
        <time>2022-07-17T02:09:22Z</time>
      </trkpt>
      <trkpt lat="45.74897" lon="6.58281">
        <ele>1262</ele>
        <time>2022-07-17T02:09:38Z</time>
      </trkpt>
      <trkpt lat="45.74895" lon="6.58283">
        <ele>1262</ele>
        <time>2022-07-17T02:09:39Z</time>
      </trkpt>
      <trkpt lat="45.74895" lon="6.58283">
        <ele>1262</ele>
        <time>2022-07-17T02:09:55Z</time>
      </trkpt>
      <trkpt lat="45.74895" lon="6.58283">
        <ele>1261</ele>
        <time>2022-07-17T02:10:11Z</time>
      </trkpt>
      <trkpt lat="45.74895" lon="6.58283">
        <ele>1262</ele>
        <time>2022-07-17T02:10:27Z</time>
      </trkpt>
      <trkpt lat="45.74894" lon="6.58282">
        <ele>1262</ele>
        <time>2022-07-17T02:10:37Z</time>
      </trkpt>
      <trkpt lat="45.74894" lon="6.58282">
        <ele>1262</ele>
        <time>2022-07-17T02:10:44Z</time>
      </trkpt>
      <trkpt lat="45.74892" lon="6.58281">
        <ele>1262</ele>
        <time>2022-07-17T02:10:46Z</time>
      </trkpt>
      <trkpt lat="45.74891" lon="6.58278">
        <ele>1262</ele>
        <time>2022-07-17T02:10:56Z</time>
      </trkpt>
      <trkpt lat="45.74892" lon="6.58276">
        <ele>1262</ele>
        <time>2022-07-17T02:11:01Z</time>
      </trkpt>
      <trkpt lat="45.74893" lon="6.58273">
        <ele>1262</ele>
        <time>2022-07-17T02:11:04Z</time>
      </trkpt>
      <trkpt lat="45.74895" lon="6.58271">
        <ele>1262</ele>
        <time>2022-07-17T02:11:06Z</time>
      </trkpt>
      <trkpt lat="45.74897" lon="6.58269">
        <ele>1262</ele>
        <time>2022-07-17T02:11:08Z</time>
      </trkpt>
      <trkpt lat="45.74898" lon="6.58267">
        <ele>1262</ele>
        <time>2022-07-17T02:11:10Z</time>
      </trkpt>
      <trkpt lat="45.74899" lon="6.58265">
        <ele>1262</ele>
        <time>2022-07-17T02:11:12Z</time>
      </trkpt>
      <trkpt lat="45.74899" lon="6.58262">
        <ele>1262</ele>
        <time>2022-07-17T02:11:14Z</time>
      </trkpt>
      <trkpt lat="45.74899" lon="6.58258">
        <ele>1262</ele>
        <time>2022-07-17T02:11:17Z</time>
      </trkpt>
      <trkpt lat="45.74899" lon="6.58254">
        <ele>1262</ele>
        <time>2022-07-17T02:11:20Z</time>
      </trkpt>
      <trkpt lat="45.74898" lon="6.58251">
        <ele>1262</ele>
        <time>2022-07-17T02:11:22Z</time>
      </trkpt>
      <trkpt lat="45.74898" lon="6.58248">
        <ele>1262</ele>
        <time>2022-07-17T02:11:25Z</time>
      </trkpt>
      <trkpt lat="45.74898" lon="6.58244">
        <ele>1262</ele>
        <time>2022-07-17T02:11:28Z</time>
      </trkpt>
      <trkpt lat="45.74897" lon="6.58242">
        <ele>1263</ele>
        <time>2022-07-17T02:11:30Z</time>
      </trkpt>
      <trkpt lat="45.74896" lon="6.58239">
        <ele>1264</ele>
        <time>2022-07-17T02:11:32Z</time>
      </trkpt>
      <trkpt lat="45.74896" lon="6.58236">
        <ele>1264</ele>
        <time>2022-07-17T02:11:34Z</time>
      </trkpt>
      <trkpt lat="45.74895" lon="6.58234">
        <ele>1264</ele>
        <time>2022-07-17T02:11:36Z</time>
      </trkpt>
      <trkpt lat="45.74894" lon="6.58231">
        <ele>1264</ele>
        <time>2022-07-17T02:11:38Z</time>
      </trkpt>
      <trkpt lat="45.74892" lon="6.58228">
        <ele>1264</ele>
        <time>2022-07-17T02:11:40Z</time>
      </trkpt>
      <trkpt lat="45.74891" lon="6.58225">
        <ele>1264</ele>
        <time>2022-07-17T02:11:42Z</time>
      </trkpt>
      <trkpt lat="45.7489" lon="6.58222">
        <ele>1265</ele>
        <time>2022-07-17T02:11:44Z</time>
      </trkpt>
      <trkpt lat="45.7489" lon="6.58219">
        <ele>1265</ele>
        <time>2022-07-17T02:11:46Z</time>
      </trkpt>
      <trkpt lat="45.74889" lon="6.58216">
        <ele>1265</ele>
        <time>2022-07-17T02:11:48Z</time>
      </trkpt>
      <trkpt lat="45.74889" lon="6.58214">
        <ele>1265</ele>
        <time>2022-07-17T02:11:50Z</time>
      </trkpt>
      <trkpt lat="45.74888" lon="6.58211">
        <ele>1265</ele>
        <time>2022-07-17T02:11:52Z</time>
      </trkpt>
      <trkpt lat="45.74888" lon="6.58208">
        <ele>1265</ele>
        <time>2022-07-17T02:11:54Z</time>
      </trkpt>
      <trkpt lat="45.74888" lon="6.58205">
        <ele>1265</ele>
        <time>2022-07-17T02:11:56Z</time>
      </trkpt>
      <trkpt lat="45.74887" lon="6.58202">
        <ele>1265</ele>
        <time>2022-07-17T02:11:58Z</time>
      </trkpt>
      <trkpt lat="45.74886" lon="6.58199">
        <ele>1266</ele>
        <time>2022-07-17T02:12:00Z</time>
      </trkpt>
      <trkpt lat="45.74886" lon="6.58196">
        <ele>1266</ele>
        <time>2022-07-17T02:12:02Z</time>
      </trkpt>
      <trkpt lat="45.74885" lon="6.58193">
        <ele>1266</ele>
        <time>2022-07-17T02:12:04Z</time>
      </trkpt>
      <trkpt lat="45.74884" lon="6.58191">
        <ele>1266</ele>
        <time>2022-07-17T02:12:06Z</time>
      </trkpt>
      <trkpt lat="45.74884" lon="6.58187">
        <ele>1266</ele>
        <time>2022-07-17T02:12:08Z</time>
      </trkpt>
      <trkpt lat="45.74883" lon="6.58184">
        <ele>1266</ele>
        <time>2022-07-17T02:12:10Z</time>
      </trkpt>
      <trkpt lat="45.74883" lon="6.58181">
        <ele>1266</ele>
        <time>2022-07-17T02:12:12Z</time>
      </trkpt>
      <trkpt lat="45.74883" lon="6.58178">
        <ele>1267</ele>
        <time>2022-07-17T02:12:14Z</time>
      </trkpt>
      <trkpt lat="45.74884" lon="6.58175">
        <ele>1267</ele>
        <time>2022-07-17T02:12:16Z</time>
      </trkpt>
      <trkpt lat="45.74884" lon="6.58172">
        <ele>1268</ele>
        <time>2022-07-17T02:12:18Z</time>
      </trkpt>
      <trkpt lat="45.74884" lon="6.58169">
        <ele>1268</ele>
        <time>2022-07-17T02:12:20Z</time>
      </trkpt>
      <trkpt lat="45.74884" lon="6.58166">
        <ele>1268</ele>
        <time>2022-07-17T02:12:22Z</time>
      </trkpt>
      <trkpt lat="45.74884" lon="6.58163">
        <ele>1268</ele>
        <time>2022-07-17T02:12:24Z</time>
      </trkpt>
      <trkpt lat="45.74884" lon="6.5816">
        <ele>1268</ele>
        <time>2022-07-17T02:12:26Z</time>
      </trkpt>
      <trkpt lat="45.74883" lon="6.58157">
        <ele>1268</ele>
        <time>2022-07-17T02:12:28Z</time>
      </trkpt>
      <trkpt lat="45.74883" lon="6.58154">
        <ele>1268</ele>
        <time>2022-07-17T02:12:30Z</time>
      </trkpt>
      <trkpt lat="45.74883" lon="6.5815">
        <ele>1268</ele>
        <time>2022-07-17T02:12:32Z</time>
      </trkpt>
      <trkpt lat="45.74882" lon="6.58147">
        <ele>1267</ele>
        <time>2022-07-17T02:12:34Z</time>
      </trkpt>
      <trkpt lat="45.74882" lon="6.58144">
        <ele>1267</ele>
        <time>2022-07-17T02:12:36Z</time>
      </trkpt>
      <trkpt lat="45.74882" lon="6.58141">
        <ele>1268</ele>
        <time>2022-07-17T02:12:38Z</time>
      </trkpt>
      <trkpt lat="45.74882" lon="6.58138">
        <ele>1268</ele>
        <time>2022-07-17T02:12:40Z</time>
      </trkpt>
      <trkpt lat="45.74882" lon="6.58135">
        <ele>1269</ele>
        <time>2022-07-17T02:12:42Z</time>
      </trkpt>
      <trkpt lat="45.74882" lon="6.58132">
        <ele>1269</ele>
        <time>2022-07-17T02:12:44Z</time>
      </trkpt>
      <trkpt lat="45.74882" lon="6.58129">
        <ele>1269</ele>
        <time>2022-07-17T02:12:46Z</time>
      </trkpt>
      <trkpt lat="45.74881" lon="6.58126">
        <ele>1269</ele>
        <time>2022-07-17T02:12:48Z</time>
      </trkpt>
      <trkpt lat="45.74881" lon="6.58123">
        <ele>1269</ele>
        <time>2022-07-17T02:12:50Z</time>
      </trkpt>
      <trkpt lat="45.74881" lon="6.5812">
        <ele>1270</ele>
        <time>2022-07-17T02:12:53Z</time>
      </trkpt>
      <trkpt lat="45.74881" lon="6.58117">
        <ele>1270</ele>
        <time>2022-07-17T02:12:55Z</time>
      </trkpt>
      <trkpt lat="45.7488" lon="6.58114">
        <ele>1271</ele>
        <time>2022-07-17T02:12:57Z</time>
      </trkpt>
      <trkpt lat="45.7488" lon="6.58111">
        <ele>1271</ele>
        <time>2022-07-17T02:12:59Z</time>
      </trkpt>
      <trkpt lat="45.74879" lon="6.58108">
        <ele>1271</ele>
        <time>2022-07-17T02:13:01Z</time>
      </trkpt>
      <trkpt lat="45.74878" lon="6.58104">
        <ele>1271</ele>
        <time>2022-07-17T02:13:03Z</time>
      </trkpt>
      <trkpt lat="45.74878" lon="6.58101">
        <ele>1271</ele>
        <time>2022-07-17T02:13:05Z</time>
      </trkpt>
      <trkpt lat="45.74877" lon="6.58097">
        <ele>1271</ele>
        <time>2022-07-17T02:13:07Z</time>
      </trkpt>
      <trkpt lat="45.74875" lon="6.58094">
        <ele>1271</ele>
        <time>2022-07-17T02:13:09Z</time>
      </trkpt>
      <trkpt lat="45.74875" lon="6.58091">
        <ele>1271</ele>
        <time>2022-07-17T02:13:11Z</time>
      </trkpt>
      <trkpt lat="45.74874" lon="6.58088">
        <ele>1271</ele>
        <time>2022-07-17T02:13:13Z</time>
      </trkpt>
      <trkpt lat="45.74874" lon="6.58085">
        <ele>1272</ele>
        <time>2022-07-17T02:13:15Z</time>
      </trkpt>
      <trkpt lat="45.74873" lon="6.58083">
        <ele>1273</ele>
        <time>2022-07-17T02:13:17Z</time>
      </trkpt>
      <trkpt lat="45.74873" lon="6.58079">
        <ele>1273</ele>
        <time>2022-07-17T02:13:19Z</time>
      </trkpt>
      <trkpt lat="45.74872" lon="6.58076">
        <ele>1273</ele>
        <time>2022-07-17T02:13:21Z</time>
      </trkpt>
      <trkpt lat="45.74872" lon="6.58073">
        <ele>1273</ele>
        <time>2022-07-17T02:13:23Z</time>
      </trkpt>
      <trkpt lat="45.74871" lon="6.5807">
        <ele>1273</ele>
        <time>2022-07-17T02:13:25Z</time>
      </trkpt>
      <trkpt lat="45.7487" lon="6.58067">
        <ele>1273</ele>
        <time>2022-07-17T02:13:27Z</time>
      </trkpt>
      <trkpt lat="45.74869" lon="6.58064">
        <ele>1273</ele>
        <time>2022-07-17T02:13:29Z</time>
      </trkpt>
      <trkpt lat="45.74869" lon="6.58061">
        <ele>1275</ele>
        <time>2022-07-17T02:13:31Z</time>
      </trkpt>
      <trkpt lat="45.74868" lon="6.58058">
        <ele>1274</ele>
        <time>2022-07-17T02:13:33Z</time>
      </trkpt>
      <trkpt lat="45.74867" lon="6.58055">
        <ele>1274</ele>
        <time>2022-07-17T02:13:35Z</time>
      </trkpt>
      <trkpt lat="45.74866" lon="6.58052">
        <ele>1274</ele>
        <time>2022-07-17T02:13:37Z</time>
      </trkpt>
      <trkpt lat="45.74864" lon="6.58049">
        <ele>1274</ele>
        <time>2022-07-17T02:13:39Z</time>
      </trkpt>
      <trkpt lat="45.74863" lon="6.58046">
        <ele>1274</ele>
        <time>2022-07-17T02:13:41Z</time>
      </trkpt>
      <trkpt lat="45.74863" lon="6.58043">
        <ele>1274</ele>
        <time>2022-07-17T02:13:43Z</time>
      </trkpt>
      <trkpt lat="45.74862" lon="6.58039">
        <ele>1274</ele>
        <time>2022-07-17T02:13:45Z</time>
      </trkpt>
      <trkpt lat="45.74861" lon="6.58037">
        <ele>1274</ele>
        <time>2022-07-17T02:13:47Z</time>
      </trkpt>
      <trkpt lat="45.74861" lon="6.58033">
        <ele>1274</ele>
        <time>2022-07-17T02:13:49Z</time>
      </trkpt>
      <trkpt lat="45.74862" lon="6.5803">
        <ele>1275</ele>
        <time>2022-07-17T02:13:51Z</time>
      </trkpt>
      <trkpt lat="45.74863" lon="6.58027">
        <ele>1275</ele>
        <time>2022-07-17T02:13:53Z</time>
      </trkpt>
      <trkpt lat="45.74863" lon="6.58024">
        <ele>1276</ele>
        <time>2022-07-17T02:13:55Z</time>
      </trkpt>
      <trkpt lat="45.74864" lon="6.58022">
        <ele>1276</ele>
        <time>2022-07-17T02:13:57Z</time>
      </trkpt>
      <trkpt lat="45.74865" lon="6.58019">
        <ele>1276</ele>
        <time>2022-07-17T02:13:59Z</time>
      </trkpt>
      <trkpt lat="45.74865" lon="6.58016">
        <ele>1277</ele>
        <time>2022-07-17T02:14:01Z</time>
      </trkpt>
      <trkpt lat="45.74866" lon="6.58012">
        <ele>1277</ele>
        <time>2022-07-17T02:14:03Z</time>
      </trkpt>
      <trkpt lat="45.74866" lon="6.58009">
        <ele>1277</ele>
        <time>2022-07-17T02:14:06Z</time>
      </trkpt>
      <trkpt lat="45.74869" lon="6.58005">
        <ele>1277</ele>
        <time>2022-07-17T02:14:08Z</time>
      </trkpt>
      <trkpt lat="45.74869" lon="6.58003">
        <ele>1277</ele>
        <time>2022-07-17T02:14:10Z</time>
      </trkpt>
      <trkpt lat="45.7487" lon="6.58">
        <ele>1277</ele>
        <time>2022-07-17T02:14:12Z</time>
      </trkpt>
      <trkpt lat="45.74872" lon="6.57998">
        <ele>1277</ele>
        <time>2022-07-17T02:14:14Z</time>
      </trkpt>
      <trkpt lat="45.74872" lon="6.57995">
        <ele>1277</ele>
        <time>2022-07-17T02:14:16Z</time>
      </trkpt>
      <trkpt lat="45.74873" lon="6.57991">
        <ele>1278</ele>
        <time>2022-07-17T02:14:19Z</time>
      </trkpt>
      <trkpt lat="45.74873" lon="6.57989">
        <ele>1278</ele>
        <time>2022-07-17T02:14:21Z</time>
      </trkpt>
      <trkpt lat="45.74874" lon="6.57985">
        <ele>1278</ele>
        <time>2022-07-17T02:14:23Z</time>
      </trkpt>
      <trkpt lat="45.74875" lon="6.57981">
        <ele>1278</ele>
        <time>2022-07-17T02:14:25Z</time>
      </trkpt>
      <trkpt lat="45.74876" lon="6.57977">
        <ele>1278</ele>
        <time>2022-07-17T02:14:27Z</time>
      </trkpt>
      <trkpt lat="45.74876" lon="6.57974">
        <ele>1278</ele>
        <time>2022-07-17T02:14:29Z</time>
      </trkpt>
      <trkpt lat="45.74878" lon="6.57971">
        <ele>1278</ele>
        <time>2022-07-17T02:14:31Z</time>
      </trkpt>
      <trkpt lat="45.74879" lon="6.57967">
        <ele>1278</ele>
        <time>2022-07-17T02:14:33Z</time>
      </trkpt>
      <trkpt lat="45.7488" lon="6.57965">
        <ele>1278</ele>
        <time>2022-07-17T02:14:35Z</time>
      </trkpt>
      <trkpt lat="45.74882" lon="6.57962">
        <ele>1278</ele>
        <time>2022-07-17T02:14:37Z</time>
      </trkpt>
      <trkpt lat="45.74884" lon="6.5796">
        <ele>1279</ele>
        <time>2022-07-17T02:14:39Z</time>
      </trkpt>
      <trkpt lat="45.74886" lon="6.57959">
        <ele>1279</ele>
        <time>2022-07-17T02:14:41Z</time>
      </trkpt>
      <trkpt lat="45.74888" lon="6.57957">
        <ele>1280</ele>
        <time>2022-07-17T02:14:43Z</time>
      </trkpt>
      <trkpt lat="45.7489" lon="6.57955">
        <ele>1280</ele>
        <time>2022-07-17T02:14:46Z</time>
      </trkpt>
      <trkpt lat="45.74892" lon="6.57954">
        <ele>1281</ele>
        <time>2022-07-17T02:14:48Z</time>
      </trkpt>
      <trkpt lat="45.74894" lon="6.57953">
        <ele>1281</ele>
        <time>2022-07-17T02:14:50Z</time>
      </trkpt>
      <trkpt lat="45.74896" lon="6.57953">
        <ele>1281</ele>
        <time>2022-07-17T02:14:52Z</time>
      </trkpt>
      <trkpt lat="45.74897" lon="6.57952">
        <ele>1281</ele>
        <time>2022-07-17T02:14:54Z</time>
      </trkpt>
      <trkpt lat="45.74899" lon="6.57951">
        <ele>1281</ele>
        <time>2022-07-17T02:14:56Z</time>
      </trkpt>
      <trkpt lat="45.74902" lon="6.5795">
        <ele>1282</ele>
        <time>2022-07-17T02:14:59Z</time>
      </trkpt>
      <trkpt lat="45.74904" lon="6.57948">
        <ele>1283</ele>
        <time>2022-07-17T02:15:02Z</time>
      </trkpt>
      <trkpt lat="45.74907" lon="6.57947">
        <ele>1283</ele>
        <time>2022-07-17T02:15:05Z</time>
      </trkpt>
      <trkpt lat="45.74909" lon="6.57946">
        <ele>1283</ele>
        <time>2022-07-17T02:15:08Z</time>
      </trkpt>
      <trkpt lat="45.74911" lon="6.57945">
        <ele>1283</ele>
        <time>2022-07-17T02:15:10Z</time>
      </trkpt>
      <trkpt lat="45.74913" lon="6.57944">
        <ele>1285</ele>
        <time>2022-07-17T02:15:12Z</time>
      </trkpt>
      <trkpt lat="45.74915" lon="6.57941">
        <ele>1285</ele>
        <time>2022-07-17T02:15:15Z</time>
      </trkpt>
      <trkpt lat="45.74916" lon="6.57939">
        <ele>1285</ele>
        <time>2022-07-17T02:15:17Z</time>
      </trkpt>
      <trkpt lat="45.74919" lon="6.57939">
        <ele>1285</ele>
        <time>2022-07-17T02:15:20Z</time>
      </trkpt>
      <trkpt lat="45.7492" lon="6.57941">
        <ele>1285</ele>
        <time>2022-07-17T02:15:22Z</time>
      </trkpt>
      <trkpt lat="45.74922" lon="6.57942">
        <ele>1286</ele>
        <time>2022-07-17T02:15:26Z</time>
      </trkpt>
      <trkpt lat="45.74925" lon="6.57942">
        <ele>1287</ele>
        <time>2022-07-17T02:15:29Z</time>
      </trkpt>
      <trkpt lat="45.74927" lon="6.5794">
        <ele>1288</ele>
        <time>2022-07-17T02:15:32Z</time>
      </trkpt>
      <trkpt lat="45.74929" lon="6.57939">
        <ele>1288</ele>
        <time>2022-07-17T02:15:34Z</time>
      </trkpt>
      <trkpt lat="45.74931" lon="6.57938">
        <ele>1289</ele>
        <time>2022-07-17T02:15:36Z</time>
      </trkpt>
      <trkpt lat="45.74933" lon="6.57936">
        <ele>1289</ele>
        <time>2022-07-17T02:15:39Z</time>
      </trkpt>
      <trkpt lat="45.74935" lon="6.57935">
        <ele>1290</ele>
        <time>2022-07-17T02:15:41Z</time>
      </trkpt>
      <trkpt lat="45.74937" lon="6.57935">
        <ele>1290</ele>
        <time>2022-07-17T02:15:43Z</time>
      </trkpt>
      <trkpt lat="45.74938" lon="6.57935">
        <ele>1290</ele>
        <time>2022-07-17T02:15:45Z</time>
      </trkpt>
      <trkpt lat="45.74941" lon="6.57937">
        <ele>1291</ele>
        <time>2022-07-17T02:15:48Z</time>
      </trkpt>
      <trkpt lat="45.74943" lon="6.57937">
        <ele>1291</ele>
        <time>2022-07-17T02:15:51Z</time>
      </trkpt>
      <trkpt lat="45.74945" lon="6.57938">
        <ele>1292</ele>
        <time>2022-07-17T02:15:54Z</time>
      </trkpt>
      <trkpt lat="45.74947" lon="6.57938">
        <ele>1293</ele>
        <time>2022-07-17T02:15:56Z</time>
      </trkpt>
      <trkpt lat="45.74949" lon="6.57938">
        <ele>1293</ele>
        <time>2022-07-17T02:15:59Z</time>
      </trkpt>
      <trkpt lat="45.74951" lon="6.57937">
        <ele>1294</ele>
        <time>2022-07-17T02:16:03Z</time>
      </trkpt>
      <trkpt lat="45.74954" lon="6.57938">
        <ele>1294</ele>
        <time>2022-07-17T02:16:06Z</time>
      </trkpt>
      <trkpt lat="45.74956" lon="6.57937">
        <ele>1294</ele>
        <time>2022-07-17T02:16:09Z</time>
      </trkpt>
      <trkpt lat="45.74959" lon="6.57938">
        <ele>1294</ele>
        <time>2022-07-17T02:16:12Z</time>
      </trkpt>
      <trkpt lat="45.74961" lon="6.57938">
        <ele>1294</ele>
        <time>2022-07-17T02:16:14Z</time>
      </trkpt>
      <trkpt lat="45.74963" lon="6.57937">
        <ele>1294</ele>
        <time>2022-07-17T02:16:16Z</time>
      </trkpt>
      <trkpt lat="45.74965" lon="6.57936">
        <ele>1295</ele>
        <time>2022-07-17T02:16:19Z</time>
      </trkpt>
      <trkpt lat="45.74967" lon="6.57936">
        <ele>1295</ele>
        <time>2022-07-17T02:16:22Z</time>
      </trkpt>
      <trkpt lat="45.74969" lon="6.57935">
        <ele>1296</ele>
        <time>2022-07-17T02:16:25Z</time>
      </trkpt>
      <trkpt lat="45.74972" lon="6.57936">
        <ele>1297</ele>
        <time>2022-07-17T02:16:28Z</time>
      </trkpt>
      <trkpt lat="45.74974" lon="6.57937">
        <ele>1298</ele>
        <time>2022-07-17T02:16:32Z</time>
      </trkpt>
      <trkpt lat="45.74976" lon="6.57937">
        <ele>1299</ele>
        <time>2022-07-17T02:16:35Z</time>
      </trkpt>
      <trkpt lat="45.74978" lon="6.57937">
        <ele>1299</ele>
        <time>2022-07-17T02:16:38Z</time>
      </trkpt>
      <trkpt lat="45.7498" lon="6.57937">
        <ele>1300</ele>
        <time>2022-07-17T02:16:41Z</time>
      </trkpt>
      <trkpt lat="45.74982" lon="6.57937">
        <ele>1300</ele>
        <time>2022-07-17T02:16:44Z</time>
      </trkpt>
      <trkpt lat="45.74984" lon="6.57937">
        <ele>1300</ele>
        <time>2022-07-17T02:16:47Z</time>
      </trkpt>
      <trkpt lat="45.74986" lon="6.57937">
        <ele>1300</ele>
        <time>2022-07-17T02:16:50Z</time>
      </trkpt>
      <trkpt lat="45.74989" lon="6.57938">
        <ele>1301</ele>
        <time>2022-07-17T02:16:53Z</time>
      </trkpt>
      <trkpt lat="45.74991" lon="6.57939">
        <ele>1301</ele>
        <time>2022-07-17T02:16:55Z</time>
      </trkpt>
      <trkpt lat="45.74993" lon="6.5794">
        <ele>1301</ele>
        <time>2022-07-17T02:16:57Z</time>
      </trkpt>
      <trkpt lat="45.74995" lon="6.57941">
        <ele>1301</ele>
        <time>2022-07-17T02:17:00Z</time>
      </trkpt>
      <trkpt lat="45.74997" lon="6.57942">
        <ele>1302</ele>
        <time>2022-07-17T02:17:02Z</time>
      </trkpt>
      <trkpt lat="45.74999" lon="6.57944">
        <ele>1303</ele>
        <time>2022-07-17T02:17:04Z</time>
      </trkpt>
      <trkpt lat="45.75001" lon="6.57945">
        <ele>1304</ele>
        <time>2022-07-17T02:17:06Z</time>
      </trkpt>
      <trkpt lat="45.75003" lon="6.57947">
        <ele>1304</ele>
        <time>2022-07-17T02:17:08Z</time>
      </trkpt>
      <trkpt lat="45.75004" lon="6.57949">
        <ele>1304</ele>
        <time>2022-07-17T02:17:10Z</time>
      </trkpt>
      <trkpt lat="45.75007" lon="6.5795">
        <ele>1304</ele>
        <time>2022-07-17T02:17:13Z</time>
      </trkpt>
      <trkpt lat="45.75009" lon="6.57951">
        <ele>1304</ele>
        <time>2022-07-17T02:17:15Z</time>
      </trkpt>
      <trkpt lat="45.75011" lon="6.57952">
        <ele>1305</ele>
        <time>2022-07-17T02:17:18Z</time>
      </trkpt>
      <trkpt lat="45.75013" lon="6.57953">
        <ele>1305</ele>
        <time>2022-07-17T02:17:20Z</time>
      </trkpt>
      <trkpt lat="45.75016" lon="6.57955">
        <ele>1306</ele>
        <time>2022-07-17T02:17:23Z</time>
      </trkpt>
      <trkpt lat="45.75018" lon="6.57955">
        <ele>1306</ele>
        <time>2022-07-17T02:17:26Z</time>
      </trkpt>
      <trkpt lat="45.7502" lon="6.57956">
        <ele>1306</ele>
        <time>2022-07-17T02:17:29Z</time>
      </trkpt>
      <trkpt lat="45.75023" lon="6.57956">
        <ele>1307</ele>
        <time>2022-07-17T02:17:32Z</time>
      </trkpt>
      <trkpt lat="45.75025" lon="6.57955">
        <ele>1307</ele>
        <time>2022-07-17T02:17:35Z</time>
      </trkpt>
      <trkpt lat="45.75027" lon="6.57954">
        <ele>1307</ele>
        <time>2022-07-17T02:17:37Z</time>
      </trkpt>
      <trkpt lat="45.75029" lon="6.57952">
        <ele>1308</ele>
        <time>2022-07-17T02:17:42Z</time>
      </trkpt>
      <trkpt lat="45.75031" lon="6.5795">
        <ele>1309</ele>
        <time>2022-07-17T02:17:44Z</time>
      </trkpt>
      <trkpt lat="45.75033" lon="6.57948">
        <ele>1309</ele>
        <time>2022-07-17T02:17:47Z</time>
      </trkpt>
      <trkpt lat="45.75035" lon="6.57948">
        <ele>1309</ele>
        <time>2022-07-17T02:17:50Z</time>
      </trkpt>
      <trkpt lat="45.75037" lon="6.57946">
        <ele>1309</ele>
        <time>2022-07-17T02:17:53Z</time>
      </trkpt>
      <trkpt lat="45.75038" lon="6.57944">
        <ele>1309</ele>
        <time>2022-07-17T02:17:55Z</time>
      </trkpt>
      <trkpt lat="45.75041" lon="6.57942">
        <ele>1311</ele>
        <time>2022-07-17T02:17:58Z</time>
      </trkpt>
      <trkpt lat="45.75042" lon="6.57939">
        <ele>1311</ele>
        <time>2022-07-17T02:18:01Z</time>
      </trkpt>
      <trkpt lat="45.75045" lon="6.57938">
        <ele>1312</ele>
        <time>2022-07-17T02:18:04Z</time>
      </trkpt>
      <trkpt lat="45.75047" lon="6.57937">
        <ele>1313</ele>
        <time>2022-07-17T02:18:07Z</time>
      </trkpt>
      <trkpt lat="45.75049" lon="6.57936">
        <ele>1313</ele>
        <time>2022-07-17T02:18:10Z</time>
      </trkpt>
      <trkpt lat="45.75051" lon="6.57934">
        <ele>1313</ele>
        <time>2022-07-17T02:18:13Z</time>
      </trkpt>
      <trkpt lat="45.75053" lon="6.57933">
        <ele>1314</ele>
        <time>2022-07-17T02:18:15Z</time>
      </trkpt>
      <trkpt lat="45.75054" lon="6.57931">
        <ele>1314</ele>
        <time>2022-07-17T02:18:17Z</time>
      </trkpt>
      <trkpt lat="45.75056" lon="6.5793">
        <ele>1314</ele>
        <time>2022-07-17T02:18:19Z</time>
      </trkpt>
      <trkpt lat="45.75058" lon="6.57929">
        <ele>1315</ele>
        <time>2022-07-17T02:18:21Z</time>
      </trkpt>
      <trkpt lat="45.75061" lon="6.57927">
        <ele>1315</ele>
        <time>2022-07-17T02:18:24Z</time>
      </trkpt>
      <trkpt lat="45.75063" lon="6.57926">
        <ele>1316</ele>
        <time>2022-07-17T02:18:27Z</time>
      </trkpt>
      <trkpt lat="45.75065" lon="6.57925">
        <ele>1316</ele>
        <time>2022-07-17T02:18:31Z</time>
      </trkpt>
      <trkpt lat="45.75067" lon="6.57924">
        <ele>1317</ele>
        <time>2022-07-17T02:18:34Z</time>
      </trkpt>
      <trkpt lat="45.75068" lon="6.57924">
        <ele>1318</ele>
        <time>2022-07-17T02:18:37Z</time>
      </trkpt>
      <trkpt lat="45.7507" lon="6.57924">
        <ele>1318</ele>
        <time>2022-07-17T02:18:39Z</time>
      </trkpt>
      <trkpt lat="45.75073" lon="6.57923">
        <ele>1318</ele>
        <time>2022-07-17T02:18:42Z</time>
      </trkpt>
      <trkpt lat="45.75074" lon="6.57922">
        <ele>1318</ele>
        <time>2022-07-17T02:18:45Z</time>
      </trkpt>
      <trkpt lat="45.75077" lon="6.57922">
        <ele>1319</ele>
        <time>2022-07-17T02:18:48Z</time>
      </trkpt>
      <trkpt lat="45.75079" lon="6.57922">
        <ele>1320</ele>
        <time>2022-07-17T02:18:50Z</time>
      </trkpt>
      <trkpt lat="45.75081" lon="6.57922">
        <ele>1320</ele>
        <time>2022-07-17T02:18:52Z</time>
      </trkpt>
      <trkpt lat="45.75084" lon="6.5792">
        <ele>1320</ele>
        <time>2022-07-17T02:18:55Z</time>
      </trkpt>
      <trkpt lat="45.75086" lon="6.57919">
        <ele>1320</ele>
        <time>2022-07-17T02:18:57Z</time>
      </trkpt>
      <trkpt lat="45.75088" lon="6.57918">
        <ele>1321</ele>
        <time>2022-07-17T02:18:59Z</time>
      </trkpt>
      <trkpt lat="45.75089" lon="6.57916">
        <ele>1321</ele>
        <time>2022-07-17T02:19:02Z</time>
      </trkpt>
      <trkpt lat="45.75091" lon="6.57915">
        <ele>1322</ele>
        <time>2022-07-17T02:19:05Z</time>
      </trkpt>
      <trkpt lat="45.75093" lon="6.57914">
        <ele>1322</ele>
        <time>2022-07-17T02:19:08Z</time>
      </trkpt>
      <trkpt lat="45.75095" lon="6.57914">
        <ele>1323</ele>
        <time>2022-07-17T02:19:11Z</time>
      </trkpt>
      <trkpt lat="45.75098" lon="6.57914">
        <ele>1323</ele>
        <time>2022-07-17T02:19:13Z</time>
      </trkpt>
      <trkpt lat="45.751" lon="6.57913">
        <ele>1323</ele>
        <time>2022-07-17T02:19:16Z</time>
      </trkpt>
      <trkpt lat="45.75102" lon="6.57914">
        <ele>1325</ele>
        <time>2022-07-17T02:19:19Z</time>
      </trkpt>
      <trkpt lat="45.75104" lon="6.57915">
        <ele>1325</ele>
        <time>2022-07-17T02:19:22Z</time>
      </trkpt>
      <trkpt lat="45.75106" lon="6.57916">
        <ele>1325</ele>
        <time>2022-07-17T02:19:25Z</time>
      </trkpt>
      <trkpt lat="45.75109" lon="6.57917">
        <ele>1325</ele>
        <time>2022-07-17T02:19:28Z</time>
      </trkpt>
      <trkpt lat="45.7511" lon="6.57917">
        <ele>1325</ele>
        <time>2022-07-17T02:19:30Z</time>
      </trkpt>
      <trkpt lat="45.75113" lon="6.57918">
        <ele>1326</ele>
        <time>2022-07-17T02:19:33Z</time>
      </trkpt>
      <trkpt lat="45.75115" lon="6.57919">
        <ele>1327</ele>
        <time>2022-07-17T02:19:36Z</time>
      </trkpt>
      <trkpt lat="45.75117" lon="6.5792">
        <ele>1327</ele>
        <time>2022-07-17T02:19:39Z</time>
      </trkpt>
      <trkpt lat="45.75119" lon="6.57921">
        <ele>1328</ele>
        <time>2022-07-17T02:19:43Z</time>
      </trkpt>
      <trkpt lat="45.75121" lon="6.57922">
        <ele>1329</ele>
        <time>2022-07-17T02:19:46Z</time>
      </trkpt>
      <trkpt lat="45.75122" lon="6.57924">
        <ele>1331</ele>
        <time>2022-07-17T02:19:49Z</time>
      </trkpt>
      <trkpt lat="45.75124" lon="6.57926">
        <ele>1331</ele>
        <time>2022-07-17T02:19:52Z</time>
      </trkpt>
      <trkpt lat="45.75126" lon="6.57927">
        <ele>1331</ele>
        <time>2022-07-17T02:19:55Z</time>
      </trkpt>
      <trkpt lat="45.75129" lon="6.57928">
        <ele>1332</ele>
        <time>2022-07-17T02:19:58Z</time>
      </trkpt>
      <trkpt lat="45.75131" lon="6.57927">
        <ele>1332</ele>
        <time>2022-07-17T02:20:01Z</time>
      </trkpt>
      <trkpt lat="45.75133" lon="6.57927">
        <ele>1332</ele>
        <time>2022-07-17T02:20:04Z</time>
      </trkpt>
      <trkpt lat="45.75135" lon="6.57926">
        <ele>1332</ele>
        <time>2022-07-17T02:20:07Z</time>
      </trkpt>
      <trkpt lat="45.75137" lon="6.57925">
        <ele>1333</ele>
        <time>2022-07-17T02:20:16Z</time>
      </trkpt>
      <trkpt lat="45.75139" lon="6.57923">
        <ele>1333</ele>
        <time>2022-07-17T02:20:19Z</time>
      </trkpt>
      <trkpt lat="45.75141" lon="6.57921">
        <ele>1333</ele>
        <time>2022-07-17T02:20:22Z</time>
      </trkpt>
      <trkpt lat="45.75143" lon="6.57919">
        <ele>1333</ele>
        <time>2022-07-17T02:20:25Z</time>
      </trkpt>
      <trkpt lat="45.75144" lon="6.57917">
        <ele>1333</ele>
        <time>2022-07-17T02:20:28Z</time>
      </trkpt>
      <trkpt lat="45.75147" lon="6.57915">
        <ele>1334</ele>
        <time>2022-07-17T02:20:31Z</time>
      </trkpt>
      <trkpt lat="45.75148" lon="6.57914">
        <ele>1334</ele>
        <time>2022-07-17T02:20:33Z</time>
      </trkpt>
      <trkpt lat="45.7515" lon="6.57913">
        <ele>1335</ele>
        <time>2022-07-17T02:20:35Z</time>
      </trkpt>
      <trkpt lat="45.75152" lon="6.57912">
        <ele>1335</ele>
        <time>2022-07-17T02:20:37Z</time>
      </trkpt>
      <trkpt lat="45.75154" lon="6.5791">
        <ele>1335</ele>
        <time>2022-07-17T02:20:39Z</time>
      </trkpt>
      <trkpt lat="45.75156" lon="6.57909">
        <ele>1335</ele>
        <time>2022-07-17T02:20:41Z</time>
      </trkpt>
      <trkpt lat="45.75157" lon="6.57908">
        <ele>1335</ele>
        <time>2022-07-17T02:20:43Z</time>
      </trkpt>
      <trkpt lat="45.7516" lon="6.57906">
        <ele>1336</ele>
        <time>2022-07-17T02:20:46Z</time>
      </trkpt>
      <trkpt lat="45.75161" lon="6.57905">
        <ele>1336</ele>
        <time>2022-07-17T02:20:48Z</time>
      </trkpt>
      <trkpt lat="45.75164" lon="6.57903">
        <ele>1336</ele>
        <time>2022-07-17T02:20:50Z</time>
      </trkpt>
      <trkpt lat="45.75166" lon="6.57902">
        <ele>1337</ele>
        <time>2022-07-17T02:20:52Z</time>
      </trkpt>
      <trkpt lat="45.75168" lon="6.57901">
        <ele>1337</ele>
        <time>2022-07-17T02:20:55Z</time>
      </trkpt>
      <trkpt lat="45.7517" lon="6.57901">
        <ele>1337</ele>
        <time>2022-07-17T02:20:57Z</time>
      </trkpt>
      <trkpt lat="45.75172" lon="6.579">
        <ele>1337</ele>
        <time>2022-07-17T02:20:59Z</time>
      </trkpt>
      <trkpt lat="45.75174" lon="6.57898">
        <ele>1337</ele>
        <time>2022-07-17T02:21:02Z</time>
      </trkpt>
      <trkpt lat="45.75177" lon="6.57898">
        <ele>1337</ele>
        <time>2022-07-17T02:21:04Z</time>
      </trkpt>
      <trkpt lat="45.75178" lon="6.57897">
        <ele>1338</ele>
        <time>2022-07-17T02:21:06Z</time>
      </trkpt>
      <trkpt lat="45.75181" lon="6.57896">
        <ele>1338</ele>
        <time>2022-07-17T02:21:08Z</time>
      </trkpt>
      <trkpt lat="45.75183" lon="6.57895">
        <ele>1338</ele>
        <time>2022-07-17T02:21:10Z</time>
      </trkpt>
      <trkpt lat="45.75186" lon="6.57894">
        <ele>1338</ele>
        <time>2022-07-17T02:21:12Z</time>
      </trkpt>
      <trkpt lat="45.75188" lon="6.57894">
        <ele>1338</ele>
        <time>2022-07-17T02:21:14Z</time>
      </trkpt>
      <trkpt lat="45.7519" lon="6.57894">
        <ele>1339</ele>
        <time>2022-07-17T02:21:16Z</time>
      </trkpt>
      <trkpt lat="45.75192" lon="6.57894">
        <ele>1339</ele>
        <time>2022-07-17T02:21:18Z</time>
      </trkpt>
      <trkpt lat="45.75194" lon="6.57895">
        <ele>1339</ele>
        <time>2022-07-17T02:21:20Z</time>
      </trkpt>
      <trkpt lat="45.75197" lon="6.57895">
        <ele>1339</ele>
        <time>2022-07-17T02:21:22Z</time>
      </trkpt>
      <trkpt lat="45.75199" lon="6.57896">
        <ele>1339</ele>
        <time>2022-07-17T02:21:24Z</time>
      </trkpt>
      <trkpt lat="45.75202" lon="6.57897">
        <ele>1340</ele>
        <time>2022-07-17T02:21:26Z</time>
      </trkpt>
      <trkpt lat="45.75204" lon="6.57898">
        <ele>1340</ele>
        <time>2022-07-17T02:21:28Z</time>
      </trkpt>
      <trkpt lat="45.75206" lon="6.579">
        <ele>1340</ele>
        <time>2022-07-17T02:21:30Z</time>
      </trkpt>
      <trkpt lat="45.75209" lon="6.579">
        <ele>1340</ele>
        <time>2022-07-17T02:21:32Z</time>
      </trkpt>
      <trkpt lat="45.75211" lon="6.57902">
        <ele>1340</ele>
        <time>2022-07-17T02:21:34Z</time>
      </trkpt>
      <trkpt lat="45.75214" lon="6.57903">
        <ele>1340</ele>
        <time>2022-07-17T02:21:36Z</time>
      </trkpt>
      <trkpt lat="45.75216" lon="6.57904">
        <ele>1341</ele>
        <time>2022-07-17T02:21:38Z</time>
      </trkpt>
      <trkpt lat="45.75219" lon="6.57906">
        <ele>1341</ele>
        <time>2022-07-17T02:21:40Z</time>
      </trkpt>
      <trkpt lat="45.75221" lon="6.57907">
        <ele>1341</ele>
        <time>2022-07-17T02:21:42Z</time>
      </trkpt>
      <trkpt lat="45.75223" lon="6.57908">
        <ele>1341</ele>
        <time>2022-07-17T02:21:44Z</time>
      </trkpt>
      <trkpt lat="45.75226" lon="6.5791">
        <ele>1341</ele>
        <time>2022-07-17T02:21:46Z</time>
      </trkpt>
      <trkpt lat="45.75228" lon="6.57912">
        <ele>1341</ele>
        <time>2022-07-17T02:21:48Z</time>
      </trkpt>
      <trkpt lat="45.75231" lon="6.57914">
        <ele>1341</ele>
        <time>2022-07-17T02:21:50Z</time>
      </trkpt>
      <trkpt lat="45.75233" lon="6.57916">
        <ele>1341</ele>
        <time>2022-07-17T02:21:52Z</time>
      </trkpt>
      <trkpt lat="45.75235" lon="6.57918">
        <ele>1341</ele>
        <time>2022-07-17T02:21:54Z</time>
      </trkpt>
      <trkpt lat="45.75238" lon="6.5792">
        <ele>1341</ele>
        <time>2022-07-17T02:21:57Z</time>
      </trkpt>
      <trkpt lat="45.75241" lon="6.57922">
        <ele>1341</ele>
        <time>2022-07-17T02:21:59Z</time>
      </trkpt>
      <trkpt lat="45.75243" lon="6.57923">
        <ele>1341</ele>
        <time>2022-07-17T02:22:01Z</time>
      </trkpt>
      <trkpt lat="45.75245" lon="6.57925">
        <ele>1341</ele>
        <time>2022-07-17T02:22:03Z</time>
      </trkpt>
      <trkpt lat="45.75247" lon="6.57926">
        <ele>1342</ele>
        <time>2022-07-17T02:22:05Z</time>
      </trkpt>
      <trkpt lat="45.7525" lon="6.57927">
        <ele>1342</ele>
        <time>2022-07-17T02:22:07Z</time>
      </trkpt>
      <trkpt lat="45.75252" lon="6.57929">
        <ele>1342</ele>
        <time>2022-07-17T02:22:09Z</time>
      </trkpt>
      <trkpt lat="45.75253" lon="6.5793">
        <ele>1342</ele>
        <time>2022-07-17T02:22:10Z</time>
      </trkpt>
      <trkpt lat="45.75254" lon="6.5793">
        <ele>1342</ele>
        <time>2022-07-17T02:22:11Z</time>
      </trkpt>
      <trkpt lat="45.75255" lon="6.57931">
        <ele>1342</ele>
        <time>2022-07-17T02:22:12Z</time>
      </trkpt>
      <trkpt lat="45.75255" lon="6.57932">
        <ele>1342</ele>
        <time>2022-07-17T02:22:13Z</time>
      </trkpt>
      <trkpt lat="45.75256" lon="6.57933">
        <ele>1342</ele>
        <time>2022-07-17T02:22:14Z</time>
      </trkpt>
      <trkpt lat="45.75257" lon="6.57934">
        <ele>1342</ele>
        <time>2022-07-17T02:22:15Z</time>
      </trkpt>
      <trkpt lat="45.75258" lon="6.57934">
        <ele>1342</ele>
        <time>2022-07-17T02:22:16Z</time>
      </trkpt>
      <trkpt lat="45.7526" lon="6.57937">
        <ele>1342</ele>
        <time>2022-07-17T02:22:18Z</time>
      </trkpt>
      <trkpt lat="45.75261" lon="6.57938">
        <ele>1342</ele>
        <time>2022-07-17T02:22:20Z</time>
      </trkpt>
      <trkpt lat="45.75264" lon="6.57939">
        <ele>1343</ele>
        <time>2022-07-17T02:22:22Z</time>
      </trkpt>
      <trkpt lat="45.75265" lon="6.57939">
        <ele>1344</ele>
        <time>2022-07-17T02:22:24Z</time>
      </trkpt>
      <trkpt lat="45.75267" lon="6.5794">
        <ele>1344</ele>
        <time>2022-07-17T02:22:26Z</time>
      </trkpt>
      <trkpt lat="45.75269" lon="6.57941">
        <ele>1344</ele>
        <time>2022-07-17T02:22:28Z</time>
      </trkpt>
      <trkpt lat="45.75272" lon="6.57943">
        <ele>1344</ele>
        <time>2022-07-17T02:22:30Z</time>
      </trkpt>
      <trkpt lat="45.75274" lon="6.57944">
        <ele>1345</ele>
        <time>2022-07-17T02:22:32Z</time>
      </trkpt>
      <trkpt lat="45.75276" lon="6.57944">
        <ele>1345</ele>
        <time>2022-07-17T02:22:34Z</time>
      </trkpt>
      <trkpt lat="45.75278" lon="6.57946">
        <ele>1346</ele>
        <time>2022-07-17T02:22:36Z</time>
      </trkpt>
      <trkpt lat="45.75281" lon="6.57946">
        <ele>1346</ele>
        <time>2022-07-17T02:22:38Z</time>
      </trkpt>
      <trkpt lat="45.75283" lon="6.57946">
        <ele>1346</ele>
        <time>2022-07-17T02:22:40Z</time>
      </trkpt>
      <trkpt lat="45.75285" lon="6.57947">
        <ele>1346</ele>
        <time>2022-07-17T02:22:42Z</time>
      </trkpt>
      <trkpt lat="45.75288" lon="6.57947">
        <ele>1347</ele>
        <time>2022-07-17T02:22:44Z</time>
      </trkpt>
      <trkpt lat="45.7529" lon="6.57947">
        <ele>1347</ele>
        <time>2022-07-17T02:22:46Z</time>
      </trkpt>
      <trkpt lat="45.75292" lon="6.57945">
        <ele>1347</ele>
        <time>2022-07-17T02:22:48Z</time>
      </trkpt>
      <trkpt lat="45.75295" lon="6.57943">
        <ele>1347</ele>
        <time>2022-07-17T02:22:50Z</time>
      </trkpt>
      <trkpt lat="45.75296" lon="6.5794">
        <ele>1347</ele>
        <time>2022-07-17T02:22:52Z</time>
      </trkpt>
      <trkpt lat="45.75298" lon="6.57938">
        <ele>1347</ele>
        <time>2022-07-17T02:22:54Z</time>
      </trkpt>
      <trkpt lat="45.75301" lon="6.57935">
        <ele>1346</ele>
        <time>2022-07-17T02:22:56Z</time>
      </trkpt>
      <trkpt lat="45.75303" lon="6.57932">
        <ele>1346</ele>
        <time>2022-07-17T02:22:58Z</time>
      </trkpt>
      <trkpt lat="45.75305" lon="6.57929">
        <ele>1345</ele>
        <time>2022-07-17T02:23:00Z</time>
      </trkpt>
      <trkpt lat="45.75306" lon="6.57928">
        <ele>1346</ele>
        <time>2022-07-17T02:23:02Z</time>
      </trkpt>
      <trkpt lat="45.75308" lon="6.57927">
        <ele>1346</ele>
        <time>2022-07-17T02:23:06Z</time>
      </trkpt>
      <trkpt lat="45.75309" lon="6.57927">
        <ele>1346</ele>
        <time>2022-07-17T02:23:07Z</time>
      </trkpt>
      <trkpt lat="45.7531" lon="6.57926">
        <ele>1346</ele>
        <time>2022-07-17T02:23:08Z</time>
      </trkpt>
      <trkpt lat="45.75311" lon="6.57926">
        <ele>1347</ele>
        <time>2022-07-17T02:23:09Z</time>
      </trkpt>
      <trkpt lat="45.75312" lon="6.57926">
        <ele>1347</ele>
        <time>2022-07-17T02:23:11Z</time>
      </trkpt>
      <trkpt lat="45.75313" lon="6.57925">
        <ele>1347</ele>
        <time>2022-07-17T02:23:12Z</time>
      </trkpt>
      <trkpt lat="45.75314" lon="6.57925">
        <ele>1347</ele>
        <time>2022-07-17T02:23:13Z</time>
      </trkpt>
      <trkpt lat="45.75315" lon="6.57925">
        <ele>1347</ele>
        <time>2022-07-17T02:23:15Z</time>
      </trkpt>
      <trkpt lat="45.75316" lon="6.57925">
        <ele>1347</ele>
        <time>2022-07-17T02:23:16Z</time>
      </trkpt>
      <trkpt lat="45.75317" lon="6.57924">
        <ele>1347</ele>
        <time>2022-07-17T02:23:17Z</time>
      </trkpt>
      <trkpt lat="45.75319" lon="6.57924">
        <ele>1347</ele>
        <time>2022-07-17T02:23:19Z</time>
      </trkpt>
      <trkpt lat="45.7532" lon="6.57924">
        <ele>1346</ele>
        <time>2022-07-17T02:23:20Z</time>
      </trkpt>
      <trkpt lat="45.75321" lon="6.57924">
        <ele>1346</ele>
        <time>2022-07-17T02:23:21Z</time>
      </trkpt>
      <trkpt lat="45.75322" lon="6.57923">
        <ele>1346</ele>
        <time>2022-07-17T02:23:22Z</time>
      </trkpt>
      <trkpt lat="45.75323" lon="6.57923">
        <ele>1346</ele>
        <time>2022-07-17T02:23:23Z</time>
      </trkpt>
      <trkpt lat="45.75324" lon="6.57923">
        <ele>1346</ele>
        <time>2022-07-17T02:23:24Z</time>
      </trkpt>
      <trkpt lat="45.75326" lon="6.57923">
        <ele>1347</ele>
        <time>2022-07-17T02:23:25Z</time>
      </trkpt>
      <trkpt lat="45.75327" lon="6.57923">
        <ele>1347</ele>
        <time>2022-07-17T02:23:26Z</time>
      </trkpt>
      <trkpt lat="45.75328" lon="6.57922">
        <ele>1348</ele>
        <time>2022-07-17T02:23:27Z</time>
      </trkpt>
      <trkpt lat="45.75329" lon="6.57922">
        <ele>1348</ele>
        <time>2022-07-17T02:23:28Z</time>
      </trkpt>
      <trkpt lat="45.7533" lon="6.57922">
        <ele>1348</ele>
        <time>2022-07-17T02:23:29Z</time>
      </trkpt>
      <trkpt lat="45.75331" lon="6.57922">
        <ele>1348</ele>
        <time>2022-07-17T02:23:30Z</time>
      </trkpt>
      <trkpt lat="45.75332" lon="6.57921">
        <ele>1349</ele>
        <time>2022-07-17T02:23:31Z</time>
      </trkpt>
      <trkpt lat="45.75333" lon="6.57921">
        <ele>1349</ele>
        <time>2022-07-17T02:23:32Z</time>
      </trkpt>
      <trkpt lat="45.75334" lon="6.57921">
        <ele>1349</ele>
        <time>2022-07-17T02:23:33Z</time>
      </trkpt>
      <trkpt lat="45.75335" lon="6.57921">
        <ele>1349</ele>
        <time>2022-07-17T02:23:34Z</time>
      </trkpt>
      <trkpt lat="45.75336" lon="6.5792">
        <ele>1349</ele>
        <time>2022-07-17T02:23:35Z</time>
      </trkpt>
      <trkpt lat="45.75337" lon="6.57921">
        <ele>1349</ele>
        <time>2022-07-17T02:23:36Z</time>
      </trkpt>
      <trkpt lat="45.75338" lon="6.57922">
        <ele>1349</ele>
        <time>2022-07-17T02:23:38Z</time>
      </trkpt>
      <trkpt lat="45.75339" lon="6.57922">
        <ele>1350</ele>
        <time>2022-07-17T02:23:39Z</time>
      </trkpt>
      <trkpt lat="45.7534" lon="6.57923">
        <ele>1350</ele>
        <time>2022-07-17T02:23:41Z</time>
      </trkpt>
      <trkpt lat="45.75341" lon="6.57923">
        <ele>1350</ele>
        <time>2022-07-17T02:23:42Z</time>
      </trkpt>
      <trkpt lat="45.75347" lon="6.57927">
        <ele>1350</ele>
        <time>2022-07-17T02:23:43Z</time>
      </trkpt>
      <trkpt lat="45.75348" lon="6.57927">
        <ele>1351</ele>
        <time>2022-07-17T02:23:44Z</time>
      </trkpt>
      <trkpt lat="45.75349" lon="6.57928">
        <ele>1351</ele>
        <time>2022-07-17T02:23:45Z</time>
      </trkpt>
      <trkpt lat="45.7535" lon="6.57928">
        <ele>1351</ele>
        <time>2022-07-17T02:23:46Z</time>
      </trkpt>
      <trkpt lat="45.75352" lon="6.57928">
        <ele>1351</ele>
        <time>2022-07-17T02:23:47Z</time>
      </trkpt>
      <trkpt lat="45.75353" lon="6.57929">
        <ele>1352</ele>
        <time>2022-07-17T02:23:48Z</time>
      </trkpt>
      <trkpt lat="45.75354" lon="6.57929">
        <ele>1352</ele>
        <time>2022-07-17T02:23:49Z</time>
      </trkpt>
      <trkpt lat="45.75355" lon="6.5793">
        <ele>1352</ele>
        <time>2022-07-17T02:23:50Z</time>
      </trkpt>
      <trkpt lat="45.75356" lon="6.57929">
        <ele>1352</ele>
        <time>2022-07-17T02:23:51Z</time>
      </trkpt>
      <trkpt lat="45.75357" lon="6.57929">
        <ele>1352</ele>
        <time>2022-07-17T02:23:52Z</time>
      </trkpt>
      <trkpt lat="45.75358" lon="6.57928">
        <ele>1352</ele>
        <time>2022-07-17T02:23:53Z</time>
      </trkpt>
      <trkpt lat="45.75359" lon="6.57928">
        <ele>1352</ele>
        <time>2022-07-17T02:23:54Z</time>
      </trkpt>
      <trkpt lat="45.7536" lon="6.57927">
        <ele>1353</ele>
        <time>2022-07-17T02:23:55Z</time>
      </trkpt>
      <trkpt lat="45.75361" lon="6.57927">
        <ele>1353</ele>
        <time>2022-07-17T02:23:56Z</time>
      </trkpt>
      <trkpt lat="45.75362" lon="6.57926">
        <ele>1353</ele>
        <time>2022-07-17T02:23:57Z</time>
      </trkpt>
      <trkpt lat="45.75363" lon="6.57926">
        <ele>1353</ele>
        <time>2022-07-17T02:23:58Z</time>
      </trkpt>
      <trkpt lat="45.75364" lon="6.57925">
        <ele>1354</ele>
        <time>2022-07-17T02:23:59Z</time>
      </trkpt>
      <trkpt lat="45.75366" lon="6.57926">
        <ele>1355</ele>
        <time>2022-07-17T02:24:00Z</time>
      </trkpt>
      <trkpt lat="45.75367" lon="6.57927">
        <ele>1355</ele>
        <time>2022-07-17T02:24:01Z</time>
      </trkpt>
      <trkpt lat="45.75369" lon="6.57927">
        <ele>1355</ele>
        <time>2022-07-17T02:24:02Z</time>
      </trkpt>
      <trkpt lat="45.7537" lon="6.57928">
        <ele>1355</ele>
        <time>2022-07-17T02:24:03Z</time>
      </trkpt>
      <trkpt lat="45.75372" lon="6.57929">
        <ele>1355</ele>
        <time>2022-07-17T02:24:04Z</time>
      </trkpt>
      <trkpt lat="45.75373" lon="6.57929">
        <ele>1356</ele>
        <time>2022-07-17T02:24:05Z</time>
      </trkpt>
      <trkpt lat="45.75374" lon="6.57929">
        <ele>1356</ele>
        <time>2022-07-17T02:24:06Z</time>
      </trkpt>
      <trkpt lat="45.75375" lon="6.5793">
        <ele>1356</ele>
        <time>2022-07-17T02:24:07Z</time>
      </trkpt>
      <trkpt lat="45.75376" lon="6.5793">
        <ele>1356</ele>
        <time>2022-07-17T02:24:08Z</time>
      </trkpt>
      <trkpt lat="45.75377" lon="6.5793">
        <ele>1356</ele>
        <time>2022-07-17T02:24:09Z</time>
      </trkpt>
      <trkpt lat="45.75378" lon="6.5793">
        <ele>1357</ele>
        <time>2022-07-17T02:24:11Z</time>
      </trkpt>
      <trkpt lat="45.75379" lon="6.5793">
        <ele>1357</ele>
        <time>2022-07-17T02:24:12Z</time>
      </trkpt>
      <trkpt lat="45.7538" lon="6.5793">
        <ele>1357</ele>
        <time>2022-07-17T02:24:13Z</time>
      </trkpt>
      <trkpt lat="45.75381" lon="6.5793">
        <ele>1357</ele>
        <time>2022-07-17T02:24:15Z</time>
      </trkpt>
      <trkpt lat="45.75382" lon="6.57931">
        <ele>1357</ele>
        <time>2022-07-17T02:24:16Z</time>
      </trkpt>
      <trkpt lat="45.75383" lon="6.5793">
        <ele>1357</ele>
        <time>2022-07-17T02:24:18Z</time>
      </trkpt>
      <trkpt lat="45.75384" lon="6.57929">
        <ele>1357</ele>
        <time>2022-07-17T02:24:19Z</time>
      </trkpt>
      <trkpt lat="45.75384" lon="6.57928">
        <ele>1357</ele>
        <time>2022-07-17T02:24:20Z</time>
      </trkpt>
      <trkpt lat="45.75385" lon="6.57927">
        <ele>1357</ele>
        <time>2022-07-17T02:24:21Z</time>
      </trkpt>
      <trkpt lat="45.75386" lon="6.57926">
        <ele>1357</ele>
        <time>2022-07-17T02:24:22Z</time>
      </trkpt>
      <trkpt lat="45.75386" lon="6.57925">
        <ele>1357</ele>
        <time>2022-07-17T02:24:23Z</time>
      </trkpt>
      <trkpt lat="45.75387" lon="6.57924">
        <ele>1358</ele>
        <time>2022-07-17T02:24:24Z</time>
      </trkpt>
      <trkpt lat="45.75388" lon="6.57923">
        <ele>1358</ele>
        <time>2022-07-17T02:24:25Z</time>
      </trkpt>
      <trkpt lat="45.75388" lon="6.57922">
        <ele>1358</ele>
        <time>2022-07-17T02:24:26Z</time>
      </trkpt>
      <trkpt lat="45.75389" lon="6.57922">
        <ele>1358</ele>
        <time>2022-07-17T02:24:27Z</time>
      </trkpt>
      <trkpt lat="45.75389" lon="6.57921">
        <ele>1359</ele>
        <time>2022-07-17T02:24:28Z</time>
      </trkpt>
      <trkpt lat="45.7539" lon="6.5792">
        <ele>1359</ele>
        <time>2022-07-17T02:24:29Z</time>
      </trkpt>
      <trkpt lat="45.7539" lon="6.57919">
        <ele>1359</ele>
        <time>2022-07-17T02:24:30Z</time>
      </trkpt>
      <trkpt lat="45.7539" lon="6.57918">
        <ele>1359</ele>
        <time>2022-07-17T02:24:31Z</time>
      </trkpt>
      <trkpt lat="45.7539" lon="6.57917">
        <ele>1360</ele>
        <time>2022-07-17T02:24:32Z</time>
      </trkpt>
      <trkpt lat="45.75391" lon="6.57916">
        <ele>1360</ele>
        <time>2022-07-17T02:24:33Z</time>
      </trkpt>
      <trkpt lat="45.75391" lon="6.57915">
        <ele>1360</ele>
        <time>2022-07-17T02:24:34Z</time>
      </trkpt>
      <trkpt lat="45.75394" lon="6.57907">
        <ele>1360</ele>
        <time>2022-07-17T02:24:36Z</time>
      </trkpt>
      <trkpt lat="45.75394" lon="6.57906">
        <ele>1360</ele>
        <time>2022-07-17T02:24:37Z</time>
      </trkpt>
      <trkpt lat="45.75394" lon="6.57905">
        <ele>1361</ele>
        <time>2022-07-17T02:24:39Z</time>
      </trkpt>
      <trkpt lat="45.75394" lon="6.57904">
        <ele>1361</ele>
        <time>2022-07-17T02:24:40Z</time>
      </trkpt>
      <trkpt lat="45.75394" lon="6.57903">
        <ele>1361</ele>
        <time>2022-07-17T02:24:41Z</time>
      </trkpt>
      <trkpt lat="45.75395" lon="6.57903">
        <ele>1361</ele>
        <time>2022-07-17T02:24:42Z</time>
      </trkpt>
      <trkpt lat="45.75395" lon="6.57902">
        <ele>1361</ele>
        <time>2022-07-17T02:24:43Z</time>
      </trkpt>
      <trkpt lat="45.75395" lon="6.57901">
        <ele>1361</ele>
        <time>2022-07-17T02:24:44Z</time>
      </trkpt>
      <trkpt lat="45.75397" lon="6.5789">
        <ele>1360</ele>
        <time>2022-07-17T02:24:46Z</time>
      </trkpt>
      <trkpt lat="45.75396" lon="6.57887">
        <ele>1360</ele>
        <time>2022-07-17T02:24:47Z</time>
      </trkpt>
      <trkpt lat="45.75396" lon="6.57883">
        <ele>1360</ele>
        <time>2022-07-17T02:24:48Z</time>
      </trkpt>
      <trkpt lat="45.75396" lon="6.5788">
        <ele>1360</ele>
        <time>2022-07-17T02:24:49Z</time>
      </trkpt>
      <trkpt lat="45.75397" lon="6.57879">
        <ele>1360</ele>
        <time>2022-07-17T02:24:50Z</time>
      </trkpt>
      <trkpt lat="45.75398" lon="6.57878">
        <ele>1360</ele>
        <time>2022-07-17T02:24:51Z</time>
      </trkpt>
      <trkpt lat="45.75399" lon="6.57878">
        <ele>1360</ele>
        <time>2022-07-17T02:24:53Z</time>
      </trkpt>
      <trkpt lat="45.754" lon="6.57877">
        <ele>1360</ele>
        <time>2022-07-17T02:24:54Z</time>
      </trkpt>
      <trkpt lat="45.75401" lon="6.57877">
        <ele>1359</ele>
        <time>2022-07-17T02:24:55Z</time>
      </trkpt>
      <trkpt lat="45.75402" lon="6.57876">
        <ele>1359</ele>
        <time>2022-07-17T02:24:56Z</time>
      </trkpt>
      <trkpt lat="45.75403" lon="6.57875">
        <ele>1359</ele>
        <time>2022-07-17T02:24:57Z</time>
      </trkpt>
      <trkpt lat="45.75404" lon="6.57875">
        <ele>1359</ele>
        <time>2022-07-17T02:24:58Z</time>
      </trkpt>
      <trkpt lat="45.75405" lon="6.57874">
        <ele>1359</ele>
        <time>2022-07-17T02:24:59Z</time>
      </trkpt>
      <trkpt lat="45.75406" lon="6.57873">
        <ele>1359</ele>
        <time>2022-07-17T02:25:00Z</time>
      </trkpt>
      <trkpt lat="45.75407" lon="6.57872">
        <ele>1359</ele>
        <time>2022-07-17T02:25:01Z</time>
      </trkpt>
      <trkpt lat="45.75408" lon="6.57871">
        <ele>1359</ele>
        <time>2022-07-17T02:25:02Z</time>
      </trkpt>
      <trkpt lat="45.75409" lon="6.5787">
        <ele>1359</ele>
        <time>2022-07-17T02:25:03Z</time>
      </trkpt>
      <trkpt lat="45.7541" lon="6.57869">
        <ele>1360</ele>
        <time>2022-07-17T02:25:04Z</time>
      </trkpt>
      <trkpt lat="45.75411" lon="6.57868">
        <ele>1360</ele>
        <time>2022-07-17T02:25:05Z</time>
      </trkpt>
      <trkpt lat="45.75411" lon="6.57867">
        <ele>1360</ele>
        <time>2022-07-17T02:25:06Z</time>
      </trkpt>
      <trkpt lat="45.75412" lon="6.57866">
        <ele>1360</ele>
        <time>2022-07-17T02:25:07Z</time>
      </trkpt>
      <trkpt lat="45.75413" lon="6.57866">
        <ele>1360</ele>
        <time>2022-07-17T02:25:08Z</time>
      </trkpt>
      <trkpt lat="45.75414" lon="6.57866">
        <ele>1361</ele>
        <time>2022-07-17T02:25:09Z</time>
      </trkpt>
      <trkpt lat="45.75415" lon="6.57866">
        <ele>1361</ele>
        <time>2022-07-17T02:25:10Z</time>
      </trkpt>
      <trkpt lat="45.75416" lon="6.57865">
        <ele>1361</ele>
        <time>2022-07-17T02:25:11Z</time>
      </trkpt>
      <trkpt lat="45.75417" lon="6.57865">
        <ele>1361</ele>
        <time>2022-07-17T02:25:12Z</time>
      </trkpt>
      <trkpt lat="45.75418" lon="6.57865">
        <ele>1361</ele>
        <time>2022-07-17T02:25:13Z</time>
      </trkpt>
      <trkpt lat="45.75419" lon="6.57865">
        <ele>1362</ele>
        <time>2022-07-17T02:25:14Z</time>
      </trkpt>
      <trkpt lat="45.7542" lon="6.57864">
        <ele>1362</ele>
        <time>2022-07-17T02:25:15Z</time>
      </trkpt>
      <trkpt lat="45.75421" lon="6.57864">
        <ele>1362</ele>
        <time>2022-07-17T02:25:16Z</time>
      </trkpt>
      <trkpt lat="45.75422" lon="6.57864">
        <ele>1362</ele>
        <time>2022-07-17T02:25:17Z</time>
      </trkpt>
      <trkpt lat="45.75423" lon="6.57864">
        <ele>1363</ele>
        <time>2022-07-17T02:25:18Z</time>
      </trkpt>
      <trkpt lat="45.75424" lon="6.57864">
        <ele>1363</ele>
        <time>2022-07-17T02:25:19Z</time>
      </trkpt>
      <trkpt lat="45.75425" lon="6.57863">
        <ele>1363</ele>
        <time>2022-07-17T02:25:20Z</time>
      </trkpt>
      <trkpt lat="45.75426" lon="6.57863">
        <ele>1363</ele>
        <time>2022-07-17T02:25:22Z</time>
      </trkpt>
      <trkpt lat="45.75427" lon="6.57863">
        <ele>1364</ele>
        <time>2022-07-17T02:25:23Z</time>
      </trkpt>
      <trkpt lat="45.75428" lon="6.57863">
        <ele>1365</ele>
        <time>2022-07-17T02:25:24Z</time>
      </trkpt>
      <trkpt lat="45.75429" lon="6.57862">
        <ele>1365</ele>
        <time>2022-07-17T02:25:25Z</time>
      </trkpt>
      <trkpt lat="45.7543" lon="6.57862">
        <ele>1365</ele>
        <time>2022-07-17T02:25:26Z</time>
      </trkpt>
      <trkpt lat="45.75431" lon="6.57862">
        <ele>1366</ele>
        <time>2022-07-17T02:25:28Z</time>
      </trkpt>
      <trkpt lat="45.75432" lon="6.5786">
        <ele>1366</ele>
        <time>2022-07-17T02:25:29Z</time>
      </trkpt>
      <trkpt lat="45.75432" lon="6.57859">
        <ele>1366</ele>
        <time>2022-07-17T02:25:31Z</time>
      </trkpt>
      <trkpt lat="45.75433" lon="6.57858">
        <ele>1366</ele>
        <time>2022-07-17T02:25:32Z</time>
      </trkpt>
      <trkpt lat="45.75433" lon="6.57856">
        <ele>1366</ele>
        <time>2022-07-17T02:25:33Z</time>
      </trkpt>
      <trkpt lat="45.75434" lon="6.57855">
        <ele>1366</ele>
        <time>2022-07-17T02:25:34Z</time>
      </trkpt>
      <trkpt lat="45.75434" lon="6.57854">
        <ele>1366</ele>
        <time>2022-07-17T02:25:35Z</time>
      </trkpt>
      <trkpt lat="45.75435" lon="6.57852">
        <ele>1367</ele>
        <time>2022-07-17T02:25:36Z</time>
      </trkpt>
      <trkpt lat="45.75435" lon="6.57851">
        <ele>1367</ele>
        <time>2022-07-17T02:25:37Z</time>
      </trkpt>
      <trkpt lat="45.75436" lon="6.5785">
        <ele>1367</ele>
        <time>2022-07-17T02:25:38Z</time>
      </trkpt>
      <trkpt lat="45.75436" lon="6.57849">
        <ele>1367</ele>
        <time>2022-07-17T02:25:39Z</time>
      </trkpt>
      <trkpt lat="45.75437" lon="6.57848">
        <ele>1367</ele>
        <time>2022-07-17T02:25:40Z</time>
      </trkpt>
      <trkpt lat="45.75438" lon="6.57848">
        <ele>1368</ele>
        <time>2022-07-17T02:25:41Z</time>
      </trkpt>
      <trkpt lat="45.75438" lon="6.57847">
        <ele>1368</ele>
        <time>2022-07-17T02:25:42Z</time>
      </trkpt>
      <trkpt lat="45.75439" lon="6.57846">
        <ele>1368</ele>
        <time>2022-07-17T02:25:43Z</time>
      </trkpt>
      <trkpt lat="45.7544" lon="6.57846">
        <ele>1368</ele>
        <time>2022-07-17T02:25:44Z</time>
      </trkpt>
      <trkpt lat="45.7544" lon="6.57845">
        <ele>1368</ele>
        <time>2022-07-17T02:25:45Z</time>
      </trkpt>
      <trkpt lat="45.75441" lon="6.57844">
        <ele>1368</ele>
        <time>2022-07-17T02:25:46Z</time>
      </trkpt>
      <trkpt lat="45.75442" lon="6.57844">
        <ele>1368</ele>
        <time>2022-07-17T02:25:47Z</time>
      </trkpt>
      <trkpt lat="45.75442" lon="6.57843">
        <ele>1369</ele>
        <time>2022-07-17T02:25:48Z</time>
      </trkpt>
      <trkpt lat="45.75443" lon="6.57842">
        <ele>1369</ele>
        <time>2022-07-17T02:25:49Z</time>
      </trkpt>
      <trkpt lat="45.75444" lon="6.57842">
        <ele>1369</ele>
        <time>2022-07-17T02:25:50Z</time>
      </trkpt>
      <trkpt lat="45.75444" lon="6.5784">
        <ele>1369</ele>
        <time>2022-07-17T02:25:51Z</time>
      </trkpt>
      <trkpt lat="45.75444" lon="6.57839">
        <ele>1369</ele>
        <time>2022-07-17T02:25:52Z</time>
      </trkpt>
      <trkpt lat="45.75444" lon="6.57838">
        <ele>1370</ele>
        <time>2022-07-17T02:25:53Z</time>
      </trkpt>
      <trkpt lat="45.75445" lon="6.57836">
        <ele>1370</ele>
        <time>2022-07-17T02:25:54Z</time>
      </trkpt>
      <trkpt lat="45.75445" lon="6.57835">
        <ele>1370</ele>
        <time>2022-07-17T02:25:55Z</time>
      </trkpt>
      <trkpt lat="45.75445" lon="6.57834">
        <ele>1370</ele>
        <time>2022-07-17T02:25:56Z</time>
      </trkpt>
      <trkpt lat="45.75445" lon="6.57833">
        <ele>1370</ele>
        <time>2022-07-17T02:25:57Z</time>
      </trkpt>
      <trkpt lat="45.75446" lon="6.57831">
        <ele>1371</ele>
        <time>2022-07-17T02:25:58Z</time>
      </trkpt>
      <trkpt lat="45.75446" lon="6.5783">
        <ele>1371</ele>
        <time>2022-07-17T02:25:59Z</time>
      </trkpt>
      <trkpt lat="45.75446" lon="6.57829">
        <ele>1371</ele>
        <time>2022-07-17T02:26:00Z</time>
      </trkpt>
      <trkpt lat="45.75446" lon="6.57827">
        <ele>1372</ele>
        <time>2022-07-17T02:26:01Z</time>
      </trkpt>
      <trkpt lat="45.75446" lon="6.57826">
        <ele>1372</ele>
        <time>2022-07-17T02:26:02Z</time>
      </trkpt>
      <trkpt lat="45.75446" lon="6.57825">
        <ele>1372</ele>
        <time>2022-07-17T02:26:03Z</time>
      </trkpt>
      <trkpt lat="45.75445" lon="6.57824">
        <ele>1372</ele>
        <time>2022-07-17T02:26:04Z</time>
      </trkpt>
      <trkpt lat="45.75445" lon="6.57823">
        <ele>1372</ele>
        <time>2022-07-17T02:26:05Z</time>
      </trkpt>
      <trkpt lat="45.75445" lon="6.57821">
        <ele>1372</ele>
        <time>2022-07-17T02:26:06Z</time>
      </trkpt>
      <trkpt lat="45.75445" lon="6.5782">
        <ele>1372</ele>
        <time>2022-07-17T02:26:07Z</time>
      </trkpt>
      <trkpt lat="45.75445" lon="6.57819">
        <ele>1372</ele>
        <time>2022-07-17T02:26:08Z</time>
      </trkpt>
      <trkpt lat="45.75444" lon="6.57818">
        <ele>1372</ele>
        <time>2022-07-17T02:26:09Z</time>
      </trkpt>
      <trkpt lat="45.75444" lon="6.57816">
        <ele>1372</ele>
        <time>2022-07-17T02:26:10Z</time>
      </trkpt>
      <trkpt lat="45.75444" lon="6.57815">
        <ele>1373</ele>
        <time>2022-07-17T02:26:11Z</time>
      </trkpt>
      <trkpt lat="45.75445" lon="6.57815">
        <ele>1373</ele>
        <time>2022-07-17T02:26:12Z</time>
      </trkpt>
      <trkpt lat="45.75445" lon="6.57814">
        <ele>1373</ele>
        <time>2022-07-17T02:26:13Z</time>
      </trkpt>
      <trkpt lat="45.75446" lon="6.57814">
        <ele>1373</ele>
        <time>2022-07-17T02:26:14Z</time>
      </trkpt>
      <trkpt lat="45.75447" lon="6.57813">
        <ele>1373</ele>
        <time>2022-07-17T02:26:15Z</time>
      </trkpt>
      <trkpt lat="45.75448" lon="6.57812">
        <ele>1373</ele>
        <time>2022-07-17T02:26:17Z</time>
      </trkpt>
      <trkpt lat="45.75449" lon="6.57812">
        <ele>1373</ele>
        <time>2022-07-17T02:26:18Z</time>
      </trkpt>
      <trkpt lat="45.7545" lon="6.57811">
        <ele>1373</ele>
        <time>2022-07-17T02:26:19Z</time>
      </trkpt>
      <trkpt lat="45.7545" lon="6.5781">
        <ele>1373</ele>
        <time>2022-07-17T02:26:20Z</time>
      </trkpt>
      <trkpt lat="45.75451" lon="6.5781">
        <ele>1373</ele>
        <time>2022-07-17T02:26:21Z</time>
      </trkpt>
      <trkpt lat="45.75452" lon="6.57809">
        <ele>1373</ele>
        <time>2022-07-17T02:26:22Z</time>
      </trkpt>
      <trkpt lat="45.75453" lon="6.57808">
        <ele>1373</ele>
        <time>2022-07-17T02:26:24Z</time>
      </trkpt>
      <trkpt lat="45.75454" lon="6.57808">
        <ele>1373</ele>
        <time>2022-07-17T02:26:25Z</time>
      </trkpt>
      <trkpt lat="45.75455" lon="6.57807">
        <ele>1373</ele>
        <time>2022-07-17T02:26:26Z</time>
      </trkpt>
      <trkpt lat="45.75456" lon="6.57807">
        <ele>1373</ele>
        <time>2022-07-17T02:26:27Z</time>
      </trkpt>
      <trkpt lat="45.75458" lon="6.57806">
        <ele>1373</ele>
        <time>2022-07-17T02:26:28Z</time>
      </trkpt>
      <trkpt lat="45.75465" lon="6.57802">
        <ele>1373</ele>
        <time>2022-07-17T02:26:29Z</time>
      </trkpt>
      <trkpt lat="45.75467" lon="6.57801">
        <ele>1373</ele>
        <time>2022-07-17T02:26:30Z</time>
      </trkpt>
      <trkpt lat="45.75469" lon="6.578">
        <ele>1373</ele>
        <time>2022-07-17T02:26:31Z</time>
      </trkpt>
      <trkpt lat="45.75471" lon="6.57798">
        <ele>1373</ele>
        <time>2022-07-17T02:26:32Z</time>
      </trkpt>
      <trkpt lat="45.75472" lon="6.57797">
        <ele>1373</ele>
        <time>2022-07-17T02:26:33Z</time>
      </trkpt>
      <trkpt lat="45.75473" lon="6.57796">
        <ele>1373</ele>
        <time>2022-07-17T02:26:34Z</time>
      </trkpt>
      <trkpt lat="45.75474" lon="6.57795">
        <ele>1373</ele>
        <time>2022-07-17T02:26:35Z</time>
      </trkpt>
      <trkpt lat="45.75476" lon="6.57794">
        <ele>1373</ele>
        <time>2022-07-17T02:26:36Z</time>
      </trkpt>
      <trkpt lat="45.75477" lon="6.57794">
        <ele>1373</ele>
        <time>2022-07-17T02:26:37Z</time>
      </trkpt>
      <trkpt lat="45.75478" lon="6.57793">
        <ele>1373</ele>
        <time>2022-07-17T02:26:38Z</time>
      </trkpt>
      <trkpt lat="45.75479" lon="6.57792">
        <ele>1373</ele>
        <time>2022-07-17T02:26:39Z</time>
      </trkpt>
      <trkpt lat="45.7548" lon="6.57791">
        <ele>1373</ele>
        <time>2022-07-17T02:26:40Z</time>
      </trkpt>
      <trkpt lat="45.7548" lon="6.57789">
        <ele>1373</ele>
        <time>2022-07-17T02:26:41Z</time>
      </trkpt>
      <trkpt lat="45.75481" lon="6.57787">
        <ele>1373</ele>
        <time>2022-07-17T02:26:42Z</time>
      </trkpt>
      <trkpt lat="45.75481" lon="6.57785">
        <ele>1373</ele>
        <time>2022-07-17T02:26:43Z</time>
      </trkpt>
      <trkpt lat="45.75482" lon="6.57783">
        <ele>1373</ele>
        <time>2022-07-17T02:26:44Z</time>
      </trkpt>
      <trkpt lat="45.75482" lon="6.57781">
        <ele>1373</ele>
        <time>2022-07-17T02:26:45Z</time>
      </trkpt>
      <trkpt lat="45.75482" lon="6.5778">
        <ele>1373</ele>
        <time>2022-07-17T02:26:46Z</time>
      </trkpt>
      <trkpt lat="45.75483" lon="6.57778">
        <ele>1373</ele>
        <time>2022-07-17T02:26:47Z</time>
      </trkpt>
      <trkpt lat="45.75484" lon="6.57778">
        <ele>1374</ele>
        <time>2022-07-17T02:26:51Z</time>
      </trkpt>
      <trkpt lat="45.75485" lon="6.57778">
        <ele>1375</ele>
        <time>2022-07-17T02:26:56Z</time>
      </trkpt>
      <trkpt lat="45.75486" lon="6.57778">
        <ele>1376</ele>
        <time>2022-07-17T02:27:02Z</time>
      </trkpt>
      <trkpt lat="45.75486" lon="6.57778">
        <ele>1377</ele>
        <time>2022-07-17T02:27:07Z</time>
      </trkpt>
      <trkpt lat="45.75487" lon="6.57778">
        <ele>1378</ele>
        <time>2022-07-17T02:27:08Z</time>
      </trkpt>
      <trkpt lat="45.75488" lon="6.57778">
        <ele>1379</ele>
        <time>2022-07-17T02:27:13Z</time>
      </trkpt>
      <trkpt lat="45.75489" lon="6.57778">
        <ele>1380</ele>
        <time>2022-07-17T02:27:18Z</time>
      </trkpt>
      <trkpt lat="45.7549" lon="6.57778">
        <ele>1381</ele>
        <time>2022-07-17T02:27:23Z</time>
      </trkpt>
      <trkpt lat="45.7549" lon="6.57779">
        <ele>1383</ele>
        <time>2022-07-17T02:27:28Z</time>
      </trkpt>
      <trkpt lat="45.75491" lon="6.57779">
        <ele>1383</ele>
        <time>2022-07-17T02:27:29Z</time>
      </trkpt>
      <trkpt lat="45.75492" lon="6.57779">
        <ele>1384</ele>
        <time>2022-07-17T02:27:35Z</time>
      </trkpt>
      <trkpt lat="45.75493" lon="6.57779">
        <ele>1384</ele>
        <time>2022-07-17T02:27:37Z</time>
      </trkpt>
      <trkpt lat="45.75494" lon="6.5778">
        <ele>1384</ele>
        <time>2022-07-17T02:27:38Z</time>
      </trkpt>
      <trkpt lat="45.75496" lon="6.5778">
        <ele>1384</ele>
        <time>2022-07-17T02:27:39Z</time>
      </trkpt>
      <trkpt lat="45.75497" lon="6.57781">
        <ele>1385</ele>
        <time>2022-07-17T02:27:40Z</time>
      </trkpt>
      <trkpt lat="45.75498" lon="6.57782">
        <ele>1385</ele>
        <time>2022-07-17T02:27:41Z</time>
      </trkpt>
      <trkpt lat="45.75499" lon="6.57782">
        <ele>1385</ele>
        <time>2022-07-17T02:27:42Z</time>
      </trkpt>
      <trkpt lat="45.755" lon="6.57783">
        <ele>1386</ele>
        <time>2022-07-17T02:27:43Z</time>
      </trkpt>
      <trkpt lat="45.75501" lon="6.57782">
        <ele>1386</ele>
        <time>2022-07-17T02:27:44Z</time>
      </trkpt>
      <trkpt lat="45.75502" lon="6.57782">
        <ele>1386</ele>
        <time>2022-07-17T02:27:45Z</time>
      </trkpt>
      <trkpt lat="45.75502" lon="6.57781">
        <ele>1386</ele>
        <time>2022-07-17T02:27:46Z</time>
      </trkpt>
      <trkpt lat="45.75503" lon="6.57781">
        <ele>1386</ele>
        <time>2022-07-17T02:27:47Z</time>
      </trkpt>
      <trkpt lat="45.75503" lon="6.5778">
        <ele>1386</ele>
        <time>2022-07-17T02:27:48Z</time>
      </trkpt>
      <trkpt lat="45.75504" lon="6.5778">
        <ele>1386</ele>
        <time>2022-07-17T02:27:49Z</time>
      </trkpt>
      <trkpt lat="45.75504" lon="6.57779">
        <ele>1387</ele>
        <time>2022-07-17T02:27:50Z</time>
      </trkpt>
      <trkpt lat="45.75505" lon="6.57779">
        <ele>1388</ele>
        <time>2022-07-17T02:27:51Z</time>
      </trkpt>
      <trkpt lat="45.75505" lon="6.57778">
        <ele>1388</ele>
        <time>2022-07-17T02:27:52Z</time>
      </trkpt>
      <trkpt lat="45.75506" lon="6.57778">
        <ele>1388</ele>
        <time>2022-07-17T02:27:53Z</time>
      </trkpt>
      <trkpt lat="45.75506" lon="6.57777">
        <ele>1388</ele>
        <time>2022-07-17T02:27:54Z</time>
      </trkpt>
      <trkpt lat="45.75507" lon="6.57777">
        <ele>1388</ele>
        <time>2022-07-17T02:27:55Z</time>
      </trkpt>
      <trkpt lat="45.75507" lon="6.57776">
        <ele>1388</ele>
        <time>2022-07-17T02:27:56Z</time>
      </trkpt>
      <trkpt lat="45.75508" lon="6.57776">
        <ele>1388</ele>
        <time>2022-07-17T02:27:57Z</time>
      </trkpt>
      <trkpt lat="45.75508" lon="6.57775">
        <ele>1388</ele>
        <time>2022-07-17T02:27:58Z</time>
      </trkpt>
      <trkpt lat="45.75509" lon="6.57776">
        <ele>1388</ele>
        <time>2022-07-17T02:27:59Z</time>
      </trkpt>
      <trkpt lat="45.75509" lon="6.57777">
        <ele>1388</ele>
        <time>2022-07-17T02:28:00Z</time>
      </trkpt>
      <trkpt lat="45.7551" lon="6.57777">
        <ele>1388</ele>
        <time>2022-07-17T02:28:01Z</time>
      </trkpt>
      <trkpt lat="45.7551" lon="6.57778">
        <ele>1388</ele>
        <time>2022-07-17T02:28:02Z</time>
      </trkpt>
      <trkpt lat="45.7551" lon="6.57779">
        <ele>1388</ele>
        <time>2022-07-17T02:28:03Z</time>
      </trkpt>
      <trkpt lat="45.75511" lon="6.5778">
        <ele>1388</ele>
        <time>2022-07-17T02:28:04Z</time>
      </trkpt>
      <trkpt lat="45.75512" lon="6.57781">
        <ele>1389</ele>
        <time>2022-07-17T02:28:06Z</time>
      </trkpt>
      <trkpt lat="45.75512" lon="6.57782">
        <ele>1389</ele>
        <time>2022-07-17T02:28:07Z</time>
      </trkpt>
      <trkpt lat="45.75512" lon="6.57783">
        <ele>1389</ele>
        <time>2022-07-17T02:28:08Z</time>
      </trkpt>
      <trkpt lat="45.75513" lon="6.57783">
        <ele>1390</ele>
        <time>2022-07-17T02:28:09Z</time>
      </trkpt>
      <trkpt lat="45.75513" lon="6.57784">
        <ele>1390</ele>
        <time>2022-07-17T02:28:10Z</time>
      </trkpt>
      <trkpt lat="45.75514" lon="6.57785">
        <ele>1390</ele>
        <time>2022-07-17T02:28:11Z</time>
      </trkpt>
      <trkpt lat="45.75514" lon="6.57786">
        <ele>1390</ele>
        <time>2022-07-17T02:28:12Z</time>
      </trkpt>
      <trkpt lat="45.75514" lon="6.57787">
        <ele>1390</ele>
        <time>2022-07-17T02:28:14Z</time>
      </trkpt>
      <trkpt lat="45.75514" lon="6.57788">
        <ele>1390</ele>
        <time>2022-07-17T02:28:16Z</time>
      </trkpt>
      <trkpt lat="45.75514" lon="6.57789">
        <ele>1390</ele>
        <time>2022-07-17T02:28:17Z</time>
      </trkpt>
      <trkpt lat="45.75514" lon="6.5779">
        <ele>1391</ele>
        <time>2022-07-17T02:28:19Z</time>
      </trkpt>
      <trkpt lat="45.75514" lon="6.57791">
        <ele>1392</ele>
        <time>2022-07-17T02:28:22Z</time>
      </trkpt>
      <trkpt lat="45.75514" lon="6.57792">
        <ele>1392</ele>
        <time>2022-07-17T02:28:23Z</time>
      </trkpt>
      <trkpt lat="45.75514" lon="6.57793">
        <ele>1393</ele>
        <time>2022-07-17T02:28:25Z</time>
      </trkpt>
      <trkpt lat="45.75514" lon="6.57794">
        <ele>1393</ele>
        <time>2022-07-17T02:28:27Z</time>
      </trkpt>
      <trkpt lat="45.75514" lon="6.57795">
        <ele>1393</ele>
        <time>2022-07-17T02:28:28Z</time>
      </trkpt>
      <trkpt lat="45.75514" lon="6.57796">
        <ele>1393</ele>
        <time>2022-07-17T02:28:30Z</time>
      </trkpt>
      <trkpt lat="45.75514" lon="6.57797">
        <ele>1394</ele>
        <time>2022-07-17T02:28:32Z</time>
      </trkpt>
      <trkpt lat="45.75513" lon="6.57798">
        <ele>1394</ele>
        <time>2022-07-17T02:28:33Z</time>
      </trkpt>
      <trkpt lat="45.75513" lon="6.57799">
        <ele>1395</ele>
        <time>2022-07-17T02:28:35Z</time>
      </trkpt>
      <trkpt lat="45.75513" lon="6.578">
        <ele>1395</ele>
        <time>2022-07-17T02:28:36Z</time>
      </trkpt>
      <trkpt lat="45.75513" lon="6.57801">
        <ele>1395</ele>
        <time>2022-07-17T02:28:37Z</time>
      </trkpt>
      <trkpt lat="45.75513" lon="6.57802">
        <ele>1395</ele>
        <time>2022-07-17T02:28:38Z</time>
      </trkpt>
      <trkpt lat="45.75513" lon="6.57803">
        <ele>1395</ele>
        <time>2022-07-17T02:28:39Z</time>
      </trkpt>
      <trkpt lat="45.75514" lon="6.57804">
        <ele>1395</ele>
        <time>2022-07-17T02:28:40Z</time>
      </trkpt>
      <trkpt lat="45.75514" lon="6.57805">
        <ele>1395</ele>
        <time>2022-07-17T02:28:41Z</time>
      </trkpt>
      <trkpt lat="45.75514" lon="6.57806">
        <ele>1396</ele>
        <time>2022-07-17T02:28:42Z</time>
      </trkpt>
      <trkpt lat="45.75514" lon="6.57807">
        <ele>1396</ele>
        <time>2022-07-17T02:28:43Z</time>
      </trkpt>
      <trkpt lat="45.75514" lon="6.57808">
        <ele>1396</ele>
        <time>2022-07-17T02:28:44Z</time>
      </trkpt>
      <trkpt lat="45.75514" lon="6.57809">
        <ele>1397</ele>
        <time>2022-07-17T02:28:45Z</time>
      </trkpt>
      <trkpt lat="45.75514" lon="6.5781">
        <ele>1397</ele>
        <time>2022-07-17T02:28:46Z</time>
      </trkpt>
      <trkpt lat="45.75514" lon="6.57811">
        <ele>1397</ele>
        <time>2022-07-17T02:28:47Z</time>
      </trkpt>
      <trkpt lat="45.75514" lon="6.57812">
        <ele>1398</ele>
        <time>2022-07-17T02:28:48Z</time>
      </trkpt>
      <trkpt lat="45.75514" lon="6.57813">
        <ele>1398</ele>
        <time>2022-07-17T02:28:49Z</time>
      </trkpt>
      <trkpt lat="45.75513" lon="6.57813">
        <ele>1398</ele>
        <time>2022-07-17T02:28:50Z</time>
      </trkpt>
      <trkpt lat="45.75513" lon="6.57814">
        <ele>1399</ele>
        <time>2022-07-17T02:28:52Z</time>
      </trkpt>
      <trkpt lat="45.75512" lon="6.57814">
        <ele>1399</ele>
        <time>2022-07-17T02:28:53Z</time>
      </trkpt>
      <trkpt lat="45.75511" lon="6.57815">
        <ele>1399</ele>
        <time>2022-07-17T02:28:55Z</time>
      </trkpt>
      <trkpt lat="45.7551" lon="6.57815">
        <ele>1401</ele>
        <time>2022-07-17T02:28:58Z</time>
      </trkpt>
      <trkpt lat="45.7551" lon="6.57816">
        <ele>1401</ele>
        <time>2022-07-17T02:29:00Z</time>
      </trkpt>
      <trkpt lat="45.75509" lon="6.57816">
        <ele>1401</ele>
        <time>2022-07-17T02:29:02Z</time>
      </trkpt>
      <trkpt lat="45.75509" lon="6.57817">
        <ele>1401</ele>
        <time>2022-07-17T02:29:03Z</time>
      </trkpt>
      <trkpt lat="45.75508" lon="6.57817">
        <ele>1401</ele>
        <time>2022-07-17T02:29:04Z</time>
      </trkpt>
      <trkpt lat="45.75508" lon="6.57818">
        <ele>1401</ele>
        <time>2022-07-17T02:29:06Z</time>
      </trkpt>
      <trkpt lat="45.75509" lon="6.57817">
        <ele>1402</ele>
        <time>2022-07-17T02:29:08Z</time>
      </trkpt>
      <trkpt lat="45.75509" lon="6.57816">
        <ele>1402</ele>
        <time>2022-07-17T02:29:09Z</time>
      </trkpt>
      <trkpt lat="45.7551" lon="6.57816">
        <ele>1402</ele>
        <time>2022-07-17T02:29:10Z</time>
      </trkpt>
      <trkpt lat="45.75511" lon="6.57815">
        <ele>1402</ele>
        <time>2022-07-17T02:29:12Z</time>
      </trkpt>
      <trkpt lat="45.75512" lon="6.57814">
        <ele>1403</ele>
        <time>2022-07-17T02:29:14Z</time>
      </trkpt>
      <trkpt lat="45.75513" lon="6.57814">
        <ele>1403</ele>
        <time>2022-07-17T02:29:15Z</time>
      </trkpt>
      <trkpt lat="45.75513" lon="6.57813">
        <ele>1403</ele>
        <time>2022-07-17T02:29:16Z</time>
      </trkpt>
      <trkpt lat="45.75514" lon="6.57813">
        <ele>1403</ele>
        <time>2022-07-17T02:29:17Z</time>
      </trkpt>
      <trkpt lat="45.75515" lon="6.57812">
        <ele>1403</ele>
        <time>2022-07-17T02:29:20Z</time>
      </trkpt>
      <trkpt lat="45.75516" lon="6.57811">
        <ele>1404</ele>
        <time>2022-07-17T02:29:22Z</time>
      </trkpt>
      <trkpt lat="45.75517" lon="6.57811">
        <ele>1404</ele>
        <time>2022-07-17T02:29:23Z</time>
      </trkpt>
      <trkpt lat="45.75518" lon="6.57811">
        <ele>1405</ele>
        <time>2022-07-17T02:29:25Z</time>
      </trkpt>
      <trkpt lat="45.75519" lon="6.57811">
        <ele>1405</ele>
        <time>2022-07-17T02:29:26Z</time>
      </trkpt>
      <trkpt lat="45.7552" lon="6.57811">
        <ele>1406</ele>
        <time>2022-07-17T02:29:27Z</time>
      </trkpt>
      <trkpt lat="45.75521" lon="6.57811">
        <ele>1406</ele>
        <time>2022-07-17T02:29:28Z</time>
      </trkpt>
      <trkpt lat="45.75522" lon="6.57811">
        <ele>1406</ele>
        <time>2022-07-17T02:29:30Z</time>
      </trkpt>
      <trkpt lat="45.75523" lon="6.57811">
        <ele>1406</ele>
        <time>2022-07-17T02:29:31Z</time>
      </trkpt>
      <trkpt lat="45.75524" lon="6.57811">
        <ele>1406</ele>
        <time>2022-07-17T02:29:32Z</time>
      </trkpt>
      <trkpt lat="45.75525" lon="6.57811">
        <ele>1406</ele>
        <time>2022-07-17T02:29:33Z</time>
      </trkpt>
      <trkpt lat="45.75526" lon="6.57811">
        <ele>1407</ele>
        <time>2022-07-17T02:29:34Z</time>
      </trkpt>
      <trkpt lat="45.75527" lon="6.57811">
        <ele>1408</ele>
        <time>2022-07-17T02:29:36Z</time>
      </trkpt>
      <trkpt lat="45.75528" lon="6.57811">
        <ele>1408</ele>
        <time>2022-07-17T02:29:37Z</time>
      </trkpt>
      <trkpt lat="45.75529" lon="6.57811">
        <ele>1408</ele>
        <time>2022-07-17T02:29:38Z</time>
      </trkpt>
      <trkpt lat="45.7553" lon="6.5781">
        <ele>1408</ele>
        <time>2022-07-17T02:29:39Z</time>
      </trkpt>
      <trkpt lat="45.75531" lon="6.5781">
        <ele>1408</ele>
        <time>2022-07-17T02:29:41Z</time>
      </trkpt>
      <trkpt lat="45.75532" lon="6.5781">
        <ele>1409</ele>
        <time>2022-07-17T02:29:42Z</time>
      </trkpt>
      <trkpt lat="45.75533" lon="6.57809">
        <ele>1409</ele>
        <time>2022-07-17T02:29:43Z</time>
      </trkpt>
      <trkpt lat="45.75534" lon="6.57809">
        <ele>1409</ele>
        <time>2022-07-17T02:29:44Z</time>
      </trkpt>
      <trkpt lat="45.75535" lon="6.57809">
        <ele>1409</ele>
        <time>2022-07-17T02:29:46Z</time>
      </trkpt>
      <trkpt lat="45.75535" lon="6.5781">
        <ele>1409</ele>
        <time>2022-07-17T02:29:47Z</time>
      </trkpt>
      <trkpt lat="45.75536" lon="6.5781">
        <ele>1410</ele>
        <time>2022-07-17T02:29:48Z</time>
      </trkpt>
      <trkpt lat="45.75536" lon="6.57811">
        <ele>1410</ele>
        <time>2022-07-17T02:29:49Z</time>
      </trkpt>
      <trkpt lat="45.75536" lon="6.57812">
        <ele>1410</ele>
        <time>2022-07-17T02:29:50Z</time>
      </trkpt>
      <trkpt lat="45.75536" lon="6.57813">
        <ele>1410</ele>
        <time>2022-07-17T02:29:51Z</time>
      </trkpt>
      <trkpt lat="45.75536" lon="6.57814">
        <ele>1410</ele>
        <time>2022-07-17T02:29:52Z</time>
      </trkpt>
      <trkpt lat="45.75537" lon="6.57814">
        <ele>1410</ele>
        <time>2022-07-17T02:29:53Z</time>
      </trkpt>
      <trkpt lat="45.75537" lon="6.57815">
        <ele>1411</ele>
        <time>2022-07-17T02:29:54Z</time>
      </trkpt>
      <trkpt lat="45.75537" lon="6.57816">
        <ele>1411</ele>
        <time>2022-07-17T02:29:55Z</time>
      </trkpt>
      <trkpt lat="45.75537" lon="6.57817">
        <ele>1411</ele>
        <time>2022-07-17T02:29:56Z</time>
      </trkpt>
      <trkpt lat="45.75538" lon="6.57817">
        <ele>1411</ele>
        <time>2022-07-17T02:29:57Z</time>
      </trkpt>
      <trkpt lat="45.75538" lon="6.57818">
        <ele>1411</ele>
        <time>2022-07-17T02:29:58Z</time>
      </trkpt>
      <trkpt lat="45.75538" lon="6.57819">
        <ele>1411</ele>
        <time>2022-07-17T02:29:59Z</time>
      </trkpt>
      <trkpt lat="45.75538" lon="6.5782">
        <ele>1412</ele>
        <time>2022-07-17T02:30:00Z</time>
      </trkpt>
      <trkpt lat="45.75538" lon="6.57821">
        <ele>1412</ele>
        <time>2022-07-17T02:30:01Z</time>
      </trkpt>
      <trkpt lat="45.75539" lon="6.57821">
        <ele>1412</ele>
        <time>2022-07-17T02:30:02Z</time>
      </trkpt>
      <trkpt lat="45.75538" lon="6.57822">
        <ele>1412</ele>
        <time>2022-07-17T02:30:03Z</time>
      </trkpt>
      <trkpt lat="45.75538" lon="6.57823">
        <ele>1412</ele>
        <time>2022-07-17T02:30:04Z</time>
      </trkpt>
      <trkpt lat="45.75537" lon="6.57824">
        <ele>1413</ele>
        <time>2022-07-17T02:30:05Z</time>
      </trkpt>
      <trkpt lat="45.75536" lon="6.57825">
        <ele>1413</ele>
        <time>2022-07-17T02:30:06Z</time>
      </trkpt>
      <trkpt lat="45.75536" lon="6.57826">
        <ele>1413</ele>
        <time>2022-07-17T02:30:07Z</time>
      </trkpt>
      <trkpt lat="45.75535" lon="6.57826">
        <ele>1413</ele>
        <time>2022-07-17T02:30:08Z</time>
      </trkpt>
      <trkpt lat="45.75535" lon="6.57827">
        <ele>1414</ele>
        <time>2022-07-17T02:30:09Z</time>
      </trkpt>
      <trkpt lat="45.75534" lon="6.57828">
        <ele>1414</ele>
        <time>2022-07-17T02:30:10Z</time>
      </trkpt>
      <trkpt lat="45.75533" lon="6.57829">
        <ele>1414</ele>
        <time>2022-07-17T02:30:11Z</time>
      </trkpt>
      <trkpt lat="45.75533" lon="6.5783">
        <ele>1414</ele>
        <time>2022-07-17T02:30:12Z</time>
      </trkpt>
      <trkpt lat="45.75532" lon="6.57831">
        <ele>1414</ele>
        <time>2022-07-17T02:30:13Z</time>
      </trkpt>
      <trkpt lat="45.75533" lon="6.57831">
        <ele>1414</ele>
        <time>2022-07-17T02:30:14Z</time>
      </trkpt>
      <trkpt lat="45.75534" lon="6.57832">
        <ele>1415</ele>
        <time>2022-07-17T02:30:16Z</time>
      </trkpt>
      <trkpt lat="45.75535" lon="6.57833">
        <ele>1416</ele>
        <time>2022-07-17T02:30:19Z</time>
      </trkpt>
      <trkpt lat="45.75536" lon="6.57833">
        <ele>1416</ele>
        <time>2022-07-17T02:30:21Z</time>
      </trkpt>
      <trkpt lat="45.75536" lon="6.57834">
        <ele>1416</ele>
        <time>2022-07-17T02:30:22Z</time>
      </trkpt>
      <trkpt lat="45.75537" lon="6.57834">
        <ele>1416</ele>
        <time>2022-07-17T02:30:24Z</time>
      </trkpt>
      <trkpt lat="45.75537" lon="6.57835">
        <ele>1417</ele>
        <time>2022-07-17T02:30:25Z</time>
      </trkpt>
      <trkpt lat="45.75538" lon="6.57835">
        <ele>1417</ele>
        <time>2022-07-17T02:30:26Z</time>
      </trkpt>
      <trkpt lat="45.75538" lon="6.57836">
        <ele>1417</ele>
        <time>2022-07-17T02:30:28Z</time>
      </trkpt>
      <trkpt lat="45.75539" lon="6.57836">
        <ele>1417</ele>
        <time>2022-07-17T02:30:29Z</time>
      </trkpt>
      <trkpt lat="45.7554" lon="6.57837">
        <ele>1417</ele>
        <time>2022-07-17T02:30:31Z</time>
      </trkpt>
      <trkpt lat="45.7554" lon="6.57838">
        <ele>1418</ele>
        <time>2022-07-17T02:30:35Z</time>
      </trkpt>
      <trkpt lat="45.75541" lon="6.57838">
        <ele>1418</ele>
        <time>2022-07-17T02:30:36Z</time>
      </trkpt>
      <trkpt lat="45.75541" lon="6.57839">
        <ele>1419</ele>
        <time>2022-07-17T02:30:37Z</time>
      </trkpt>
      <trkpt lat="45.75541" lon="6.5784">
        <ele>1419</ele>
        <time>2022-07-17T02:30:39Z</time>
      </trkpt>
      <trkpt lat="45.75541" lon="6.57841">
        <ele>1419</ele>
        <time>2022-07-17T02:30:42Z</time>
      </trkpt>
      <trkpt lat="45.75541" lon="6.57842">
        <ele>1420</ele>
        <time>2022-07-17T02:30:44Z</time>
      </trkpt>
      <trkpt lat="45.75541" lon="6.57843">
        <ele>1421</ele>
        <time>2022-07-17T02:30:46Z</time>
      </trkpt>
      <trkpt lat="45.75541" lon="6.57844">
        <ele>1421</ele>
        <time>2022-07-17T02:30:49Z</time>
      </trkpt>
      <trkpt lat="45.75542" lon="6.57844">
        <ele>1421</ele>
        <time>2022-07-17T02:30:50Z</time>
      </trkpt>
      <trkpt lat="45.75542" lon="6.57845">
        <ele>1421</ele>
        <time>2022-07-17T02:30:51Z</time>
      </trkpt>
      <trkpt lat="45.75542" lon="6.57846">
        <ele>1421</ele>
        <time>2022-07-17T02:30:53Z</time>
      </trkpt>
      <trkpt lat="45.75542" lon="6.57847">
        <ele>1421</ele>
        <time>2022-07-17T02:30:55Z</time>
      </trkpt>
      <trkpt lat="45.75541" lon="6.57851">
        <ele>1422</ele>
        <time>2022-07-17T02:31:00Z</time>
      </trkpt>
      <trkpt lat="45.75541" lon="6.57852">
        <ele>1422</ele>
        <time>2022-07-17T02:31:01Z</time>
      </trkpt>
      <trkpt lat="45.75541" lon="6.57853">
        <ele>1423</ele>
        <time>2022-07-17T02:31:03Z</time>
      </trkpt>
      <trkpt lat="45.7554" lon="6.57854">
        <ele>1423</ele>
        <time>2022-07-17T02:31:04Z</time>
      </trkpt>
      <trkpt lat="45.7554" lon="6.57855">
        <ele>1423</ele>
        <time>2022-07-17T02:31:05Z</time>
      </trkpt>
      <trkpt lat="45.7554" lon="6.57856">
        <ele>1423</ele>
        <time>2022-07-17T02:31:07Z</time>
      </trkpt>
      <trkpt lat="45.75539" lon="6.57857">
        <ele>1423</ele>
        <time>2022-07-17T02:31:08Z</time>
      </trkpt>
      <trkpt lat="45.75539" lon="6.57858">
        <ele>1424</ele>
        <time>2022-07-17T02:31:09Z</time>
      </trkpt>
      <trkpt lat="45.75539" lon="6.57859">
        <ele>1424</ele>
        <time>2022-07-17T02:31:11Z</time>
      </trkpt>
      <trkpt lat="45.75538" lon="6.5786">
        <ele>1425</ele>
        <time>2022-07-17T02:31:12Z</time>
      </trkpt>
      <trkpt lat="45.75537" lon="6.57863">
        <ele>1425</ele>
        <time>2022-07-17T02:31:15Z</time>
      </trkpt>
      <trkpt lat="45.75535" lon="6.57865">
        <ele>1426</ele>
        <time>2022-07-17T02:31:18Z</time>
      </trkpt>
      <trkpt lat="45.75533" lon="6.57867">
        <ele>1427</ele>
        <time>2022-07-17T02:31:21Z</time>
      </trkpt>
      <trkpt lat="45.75531" lon="6.57869">
        <ele>1427</ele>
        <time>2022-07-17T02:31:24Z</time>
      </trkpt>
      <trkpt lat="45.75531" lon="6.57872">
        <ele>1428</ele>
        <time>2022-07-17T02:31:28Z</time>
      </trkpt>
      <trkpt lat="45.75529" lon="6.57874">
        <ele>1429</ele>
        <time>2022-07-17T02:31:32Z</time>
      </trkpt>
      <trkpt lat="45.75526" lon="6.57874">
        <ele>1429</ele>
        <time>2022-07-17T02:31:35Z</time>
      </trkpt>
      <trkpt lat="45.75525" lon="6.57878">
        <ele>1430</ele>
        <time>2022-07-17T02:31:39Z</time>
      </trkpt>
      <trkpt lat="45.75524" lon="6.5788">
        <ele>1430</ele>
        <time>2022-07-17T02:31:40Z</time>
      </trkpt>
      <trkpt lat="45.75523" lon="6.57883">
        <ele>1430</ele>
        <time>2022-07-17T02:31:42Z</time>
      </trkpt>
      <trkpt lat="45.75522" lon="6.57885">
        <ele>1430</ele>
        <time>2022-07-17T02:31:44Z</time>
      </trkpt>
      <trkpt lat="45.7552" lon="6.57887">
        <ele>1431</ele>
        <time>2022-07-17T02:31:46Z</time>
      </trkpt>
      <trkpt lat="45.75518" lon="6.57889">
        <ele>1431</ele>
        <time>2022-07-17T02:31:49Z</time>
      </trkpt>
      <trkpt lat="45.75516" lon="6.57891">
        <ele>1432</ele>
        <time>2022-07-17T02:31:52Z</time>
      </trkpt>
      <trkpt lat="45.75513" lon="6.57892">
        <ele>1432</ele>
        <time>2022-07-17T02:31:54Z</time>
      </trkpt>
      <trkpt lat="45.75512" lon="6.57895">
        <ele>1432</ele>
        <time>2022-07-17T02:31:56Z</time>
      </trkpt>
      <trkpt lat="45.75512" lon="6.57897">
        <ele>1433</ele>
        <time>2022-07-17T02:31:59Z</time>
      </trkpt>
      <trkpt lat="45.7551" lon="6.579">
        <ele>1434</ele>
        <time>2022-07-17T02:32:02Z</time>
      </trkpt>
      <trkpt lat="45.7551" lon="6.57903">
        <ele>1434</ele>
        <time>2022-07-17T02:32:05Z</time>
      </trkpt>
      <trkpt lat="45.75509" lon="6.57905">
        <ele>1435</ele>
        <time>2022-07-17T02:32:08Z</time>
      </trkpt>
      <trkpt lat="45.75507" lon="6.57908">
        <ele>1435</ele>
        <time>2022-07-17T02:32:12Z</time>
      </trkpt>
      <trkpt lat="45.75506" lon="6.5791">
        <ele>1436</ele>
        <time>2022-07-17T02:32:18Z</time>
      </trkpt>
      <trkpt lat="45.75504" lon="6.57909">
        <ele>1438</ele>
        <time>2022-07-17T02:32:26Z</time>
      </trkpt>
      <trkpt lat="45.75505" lon="6.57907">
        <ele>1440</ele>
        <time>2022-07-17T02:32:31Z</time>
      </trkpt>
      <trkpt lat="45.75507" lon="6.57906">
        <ele>1440</ele>
        <time>2022-07-17T02:32:35Z</time>
      </trkpt>
      <trkpt lat="45.75509" lon="6.57905">
        <ele>1440</ele>
        <time>2022-07-17T02:32:41Z</time>
      </trkpt>
      <trkpt lat="45.75511" lon="6.57904">
        <ele>1440</ele>
        <time>2022-07-17T02:32:45Z</time>
      </trkpt>
      <trkpt lat="45.75512" lon="6.57902">
        <ele>1440</ele>
        <time>2022-07-17T02:32:48Z</time>
      </trkpt>
      <trkpt lat="45.75514" lon="6.57902">
        <ele>1441</ele>
        <time>2022-07-17T02:32:51Z</time>
      </trkpt>
      <trkpt lat="45.75517" lon="6.57901">
        <ele>1441</ele>
        <time>2022-07-17T02:32:54Z</time>
      </trkpt>
      <trkpt lat="45.75518" lon="6.57899">
        <ele>1442</ele>
        <time>2022-07-17T02:32:57Z</time>
      </trkpt>
      <trkpt lat="45.75521" lon="6.57898">
        <ele>1442</ele>
        <time>2022-07-17T02:32:59Z</time>
      </trkpt>
      <trkpt lat="45.75523" lon="6.57897">
        <ele>1442</ele>
        <time>2022-07-17T02:33:01Z</time>
      </trkpt>
      <trkpt lat="45.75526" lon="6.57897">
        <ele>1442</ele>
        <time>2022-07-17T02:33:03Z</time>
      </trkpt>
      <trkpt lat="45.75527" lon="6.57896">
        <ele>1442</ele>
        <time>2022-07-17T02:33:05Z</time>
      </trkpt>
      <trkpt lat="45.7553" lon="6.57896">
        <ele>1442</ele>
        <time>2022-07-17T02:33:08Z</time>
      </trkpt>
      <trkpt lat="45.75532" lon="6.57894">
        <ele>1442</ele>
        <time>2022-07-17T02:33:12Z</time>
      </trkpt>
      <trkpt lat="45.75533" lon="6.57892">
        <ele>1442</ele>
        <time>2022-07-17T02:33:15Z</time>
      </trkpt>
      <trkpt lat="45.75536" lon="6.57892">
        <ele>1442</ele>
        <time>2022-07-17T02:33:18Z</time>
      </trkpt>
      <trkpt lat="45.75538" lon="6.5789">
        <ele>1442</ele>
        <time>2022-07-17T02:33:20Z</time>
      </trkpt>
      <trkpt lat="45.75541" lon="6.57888">
        <ele>1442</ele>
        <time>2022-07-17T02:33:23Z</time>
      </trkpt>
      <trkpt lat="45.75542" lon="6.57886">
        <ele>1442</ele>
        <time>2022-07-17T02:33:25Z</time>
      </trkpt>
      <trkpt lat="45.75544" lon="6.57884">
        <ele>1442</ele>
        <time>2022-07-17T02:33:28Z</time>
      </trkpt>
      <trkpt lat="45.75545" lon="6.57881">
        <ele>1444</ele>
        <time>2022-07-17T02:33:31Z</time>
      </trkpt>
      <trkpt lat="45.75548" lon="6.57881">
        <ele>1444</ele>
        <time>2022-07-17T02:33:34Z</time>
      </trkpt>
      <trkpt lat="45.7555" lon="6.5788">
        <ele>1444</ele>
        <time>2022-07-17T02:33:37Z</time>
      </trkpt>
      <trkpt lat="45.75552" lon="6.57879">
        <ele>1444</ele>
        <time>2022-07-17T02:33:40Z</time>
      </trkpt>
      <trkpt lat="45.75554" lon="6.57876">
        <ele>1445</ele>
        <time>2022-07-17T02:33:43Z</time>
      </trkpt>
      <trkpt lat="45.75556" lon="6.57875">
        <ele>1445</ele>
        <time>2022-07-17T02:33:45Z</time>
      </trkpt>
      <trkpt lat="45.75557" lon="6.57873">
        <ele>1445</ele>
        <time>2022-07-17T02:33:47Z</time>
      </trkpt>
      <trkpt lat="45.75559" lon="6.57871">
        <ele>1446</ele>
        <time>2022-07-17T02:33:49Z</time>
      </trkpt>
      <trkpt lat="45.75561" lon="6.57868">
        <ele>1446</ele>
        <time>2022-07-17T02:33:51Z</time>
      </trkpt>
      <trkpt lat="45.75562" lon="6.57866">
        <ele>1446</ele>
        <time>2022-07-17T02:33:53Z</time>
      </trkpt>
      <trkpt lat="45.75563" lon="6.57863">
        <ele>1446</ele>
        <time>2022-07-17T02:33:55Z</time>
      </trkpt>
      <trkpt lat="45.75563" lon="6.57861">
        <ele>1446</ele>
        <time>2022-07-17T02:33:57Z</time>
      </trkpt>
      <trkpt lat="45.75564" lon="6.57858">
        <ele>1446</ele>
        <time>2022-07-17T02:34:00Z</time>
      </trkpt>
      <trkpt lat="45.75565" lon="6.57856">
        <ele>1445</ele>
        <time>2022-07-17T02:34:03Z</time>
      </trkpt>
      <trkpt lat="45.75566" lon="6.57854">
        <ele>1444</ele>
        <time>2022-07-17T02:34:05Z</time>
      </trkpt>
      <trkpt lat="45.75568" lon="6.57851">
        <ele>1443</ele>
        <time>2022-07-17T02:34:07Z</time>
      </trkpt>
      <trkpt lat="45.7557" lon="6.5785">
        <ele>1443</ele>
        <time>2022-07-17T02:34:09Z</time>
      </trkpt>
      <trkpt lat="45.75572" lon="6.57848">
        <ele>1442</ele>
        <time>2022-07-17T02:34:11Z</time>
      </trkpt>
      <trkpt lat="45.75574" lon="6.57845">
        <ele>1443</ele>
        <time>2022-07-17T02:34:13Z</time>
      </trkpt>
      <trkpt lat="45.75576" lon="6.57843">
        <ele>1443</ele>
        <time>2022-07-17T02:34:15Z</time>
      </trkpt>
      <trkpt lat="45.75578" lon="6.57841">
        <ele>1444</ele>
        <time>2022-07-17T02:34:17Z</time>
      </trkpt>
      <trkpt lat="45.7558" lon="6.57839">
        <ele>1444</ele>
        <time>2022-07-17T02:34:19Z</time>
      </trkpt>
      <trkpt lat="45.75583" lon="6.57837">
        <ele>1443</ele>
        <time>2022-07-17T02:34:21Z</time>
      </trkpt>
      <trkpt lat="45.75585" lon="6.57835">
        <ele>1443</ele>
        <time>2022-07-17T02:34:23Z</time>
      </trkpt>
      <trkpt lat="45.75586" lon="6.57833">
        <ele>1443</ele>
        <time>2022-07-17T02:34:25Z</time>
      </trkpt>
      <trkpt lat="45.75587" lon="6.57831">
        <ele>1442</ele>
        <time>2022-07-17T02:34:27Z</time>
      </trkpt>
      <trkpt lat="45.75589" lon="6.57828">
        <ele>1442</ele>
        <time>2022-07-17T02:34:30Z</time>
      </trkpt>
      <trkpt lat="45.75591" lon="6.57826">
        <ele>1442</ele>
        <time>2022-07-17T02:34:32Z</time>
      </trkpt>
      <trkpt lat="45.75593" lon="6.57825">
        <ele>1443</ele>
        <time>2022-07-17T02:34:34Z</time>
      </trkpt>
      <trkpt lat="45.75594" lon="6.57822">
        <ele>1443</ele>
        <time>2022-07-17T02:34:37Z</time>
      </trkpt>
      <trkpt lat="45.75596" lon="6.5782">
        <ele>1444</ele>
        <time>2022-07-17T02:34:39Z</time>
      </trkpt>
      <trkpt lat="45.75596" lon="6.57817">
        <ele>1444</ele>
        <time>2022-07-17T02:34:42Z</time>
      </trkpt>
      <trkpt lat="45.75597" lon="6.57814">
        <ele>1444</ele>
        <time>2022-07-17T02:34:45Z</time>
      </trkpt>
      <trkpt lat="45.75597" lon="6.57811">
        <ele>1444</ele>
        <time>2022-07-17T02:34:47Z</time>
      </trkpt>
      <trkpt lat="45.75598" lon="6.57808">
        <ele>1444</ele>
        <time>2022-07-17T02:34:49Z</time>
      </trkpt>
      <trkpt lat="45.75599" lon="6.57804">
        <ele>1444</ele>
        <time>2022-07-17T02:34:51Z</time>
      </trkpt>
      <trkpt lat="45.75601" lon="6.578">
        <ele>1444</ele>
        <time>2022-07-17T02:34:53Z</time>
      </trkpt>
      <trkpt lat="45.75602" lon="6.57798">
        <ele>1443</ele>
        <time>2022-07-17T02:34:55Z</time>
      </trkpt>
      <trkpt lat="45.75604" lon="6.57794">
        <ele>1443</ele>
        <time>2022-07-17T02:34:57Z</time>
      </trkpt>
      <trkpt lat="45.75607" lon="6.5779">
        <ele>1443</ele>
        <time>2022-07-17T02:35:01Z</time>
      </trkpt>
      <trkpt lat="45.75607" lon="6.57787">
        <ele>1442</ele>
        <time>2022-07-17T02:35:04Z</time>
      </trkpt>
      <trkpt lat="45.75607" lon="6.57784">
        <ele>1442</ele>
        <time>2022-07-17T02:35:06Z</time>
      </trkpt>
      <trkpt lat="45.75608" lon="6.57781">
        <ele>1442</ele>
        <time>2022-07-17T02:35:09Z</time>
      </trkpt>
      <trkpt lat="45.75607" lon="6.57779">
        <ele>1443</ele>
        <time>2022-07-17T02:35:11Z</time>
      </trkpt>
      <trkpt lat="45.75606" lon="6.57776">
        <ele>1443</ele>
        <time>2022-07-17T02:35:15Z</time>
      </trkpt>
      <trkpt lat="45.75604" lon="6.57777">
        <ele>1443</ele>
        <time>2022-07-17T02:35:18Z</time>
      </trkpt>
      <trkpt lat="45.75601" lon="6.57775">
        <ele>1443</ele>
        <time>2022-07-17T02:35:26Z</time>
      </trkpt>
      <trkpt lat="45.75601" lon="6.57772">
        <ele>1443</ele>
        <time>2022-07-17T02:35:29Z</time>
      </trkpt>
      <trkpt lat="45.756" lon="6.57769">
        <ele>1443</ele>
        <time>2022-07-17T02:35:31Z</time>
      </trkpt>
      <trkpt lat="45.75599" lon="6.57766">
        <ele>1443</ele>
        <time>2022-07-17T02:35:33Z</time>
      </trkpt>
      <trkpt lat="45.75599" lon="6.57763">
        <ele>1443</ele>
        <time>2022-07-17T02:35:36Z</time>
      </trkpt>
      <trkpt lat="45.75596" lon="6.57759">
        <ele>1443</ele>
        <time>2022-07-17T02:35:39Z</time>
      </trkpt>
      <trkpt lat="45.75595" lon="6.57757">
        <ele>1443</ele>
        <time>2022-07-17T02:35:40Z</time>
      </trkpt>
      <trkpt lat="45.75594" lon="6.57755">
        <ele>1444</ele>
        <time>2022-07-17T02:35:41Z</time>
      </trkpt>
      <trkpt lat="45.75593" lon="6.57752">
        <ele>1444</ele>
        <time>2022-07-17T02:35:42Z</time>
      </trkpt>
      <trkpt lat="45.75592" lon="6.5775">
        <ele>1444</ele>
        <time>2022-07-17T02:35:43Z</time>
      </trkpt>
      <trkpt lat="45.75591" lon="6.57748">
        <ele>1445</ele>
        <time>2022-07-17T02:35:44Z</time>
      </trkpt>
      <trkpt lat="45.75592" lon="6.57745">
        <ele>1445</ele>
        <time>2022-07-17T02:35:46Z</time>
      </trkpt>
      <trkpt lat="45.75592" lon="6.57741">
        <ele>1445</ele>
        <time>2022-07-17T02:35:48Z</time>
      </trkpt>
      <trkpt lat="45.75593" lon="6.57738">
        <ele>1445</ele>
        <time>2022-07-17T02:35:50Z</time>
      </trkpt>
      <trkpt lat="45.75594" lon="6.57736">
        <ele>1445</ele>
        <time>2022-07-17T02:35:53Z</time>
      </trkpt>
      <trkpt lat="45.75595" lon="6.57733">
        <ele>1446</ele>
        <time>2022-07-17T02:35:57Z</time>
      </trkpt>
      <trkpt lat="45.75594" lon="6.5773">
        <ele>1447</ele>
        <time>2022-07-17T02:36:00Z</time>
      </trkpt>
      <trkpt lat="45.75592" lon="6.57728">
        <ele>1447</ele>
        <time>2022-07-17T02:36:03Z</time>
      </trkpt>
      <trkpt lat="45.75591" lon="6.57725">
        <ele>1448</ele>
        <time>2022-07-17T02:36:06Z</time>
      </trkpt>
      <trkpt lat="45.75589" lon="6.57722">
        <ele>1448</ele>
        <time>2022-07-17T02:36:09Z</time>
      </trkpt>
      <trkpt lat="45.75589" lon="6.57719">
        <ele>1449</ele>
        <time>2022-07-17T02:36:11Z</time>
      </trkpt>
      <trkpt lat="45.7559" lon="6.57716">
        <ele>1449</ele>
        <time>2022-07-17T02:36:14Z</time>
      </trkpt>
      <trkpt lat="45.7559" lon="6.57712">
        <ele>1450</ele>
        <time>2022-07-17T02:36:16Z</time>
      </trkpt>
      <trkpt lat="45.7559" lon="6.57709">
        <ele>1450</ele>
        <time>2022-07-17T02:36:18Z</time>
      </trkpt>
      <trkpt lat="45.7559" lon="6.57706">
        <ele>1450</ele>
        <time>2022-07-17T02:36:21Z</time>
      </trkpt>
      <trkpt lat="45.75591" lon="6.57703">
        <ele>1451</ele>
        <time>2022-07-17T02:36:23Z</time>
      </trkpt>
      <trkpt lat="45.75592" lon="6.57701">
        <ele>1450</ele>
        <time>2022-07-17T02:36:26Z</time>
      </trkpt>
      <trkpt lat="45.75593" lon="6.57698">
        <ele>1451</ele>
        <time>2022-07-17T02:36:30Z</time>
      </trkpt>
      <trkpt lat="45.75593" lon="6.57695">
        <ele>1452</ele>
        <time>2022-07-17T02:36:33Z</time>
      </trkpt>
      <trkpt lat="45.75593" lon="6.57692">
        <ele>1454</ele>
        <time>2022-07-17T02:36:41Z</time>
      </trkpt>
      <trkpt lat="45.75592" lon="6.57689">
        <ele>1454</ele>
        <time>2022-07-17T02:36:47Z</time>
      </trkpt>
      <trkpt lat="45.7559" lon="6.57687">
        <ele>1455</ele>
        <time>2022-07-17T02:36:50Z</time>
      </trkpt>
      <trkpt lat="45.75589" lon="6.57684">
        <ele>1456</ele>
        <time>2022-07-17T02:36:53Z</time>
      </trkpt>
      <trkpt lat="45.7559" lon="6.57681">
        <ele>1456</ele>
        <time>2022-07-17T02:36:55Z</time>
      </trkpt>
      <trkpt lat="45.75591" lon="6.57678">
        <ele>1456</ele>
        <time>2022-07-17T02:36:58Z</time>
      </trkpt>
      <trkpt lat="45.75592" lon="6.57676">
        <ele>1456</ele>
        <time>2022-07-17T02:36:59Z</time>
      </trkpt>
      <trkpt lat="45.75593" lon="6.57675">
        <ele>1456</ele>
        <time>2022-07-17T02:37:00Z</time>
      </trkpt>
      <trkpt lat="45.75593" lon="6.57673">
        <ele>1457</ele>
        <time>2022-07-17T02:37:01Z</time>
      </trkpt>
      <trkpt lat="45.75594" lon="6.57672">
        <ele>1457</ele>
        <time>2022-07-17T02:37:02Z</time>
      </trkpt>
      <trkpt lat="45.75595" lon="6.57671">
        <ele>1457</ele>
        <time>2022-07-17T02:37:03Z</time>
      </trkpt>
      <trkpt lat="45.75595" lon="6.57669">
        <ele>1457</ele>
        <time>2022-07-17T02:37:04Z</time>
      </trkpt>
      <trkpt lat="45.75598" lon="6.57667">
        <ele>1458</ele>
        <time>2022-07-17T02:37:06Z</time>
      </trkpt>
      <trkpt lat="45.75599" lon="6.57666">
        <ele>1458</ele>
        <time>2022-07-17T02:37:08Z</time>
      </trkpt>
      <trkpt lat="45.75602" lon="6.57666">
        <ele>1458</ele>
        <time>2022-07-17T02:37:10Z</time>
      </trkpt>
      <trkpt lat="45.75604" lon="6.57667">
        <ele>1458</ele>
        <time>2022-07-17T02:37:13Z</time>
      </trkpt>
      <trkpt lat="45.75606" lon="6.57668">
        <ele>1459</ele>
        <time>2022-07-17T02:37:16Z</time>
      </trkpt>
      <trkpt lat="45.75606" lon="6.57668">
        <ele>1461</ele>
        <time>2022-07-17T02:37:27Z</time>
      </trkpt>
      <trkpt lat="45.75604" lon="6.57668">
        <ele>1461</ele>
        <time>2022-07-17T02:37:31Z</time>
      </trkpt>
      <trkpt lat="45.75604" lon="6.57665">
        <ele>1462</ele>
        <time>2022-07-17T02:37:35Z</time>
      </trkpt>
      <trkpt lat="45.75603" lon="6.57661">
        <ele>1463</ele>
        <time>2022-07-17T02:37:38Z</time>
      </trkpt>
      <trkpt lat="45.75603" lon="6.57658">
        <ele>1463</ele>
        <time>2022-07-17T02:37:41Z</time>
      </trkpt>
      <trkpt lat="45.75604" lon="6.57655">
        <ele>1464</ele>
        <time>2022-07-17T02:37:44Z</time>
      </trkpt>
      <trkpt lat="45.75603" lon="6.57652">
        <ele>1465</ele>
        <time>2022-07-17T02:37:46Z</time>
      </trkpt>
      <trkpt lat="45.75603" lon="6.57649">
        <ele>1465</ele>
        <time>2022-07-17T02:37:49Z</time>
      </trkpt>
      <trkpt lat="45.75603" lon="6.57647">
        <ele>1465</ele>
        <time>2022-07-17T02:37:52Z</time>
      </trkpt>
      <trkpt lat="45.75603" lon="6.57644">
        <ele>1467</ele>
        <time>2022-07-17T02:37:55Z</time>
      </trkpt>
      <trkpt lat="45.75604" lon="6.57641">
        <ele>1468</ele>
        <time>2022-07-17T02:37:59Z</time>
      </trkpt>
      <trkpt lat="45.75604" lon="6.57638">
        <ele>1469</ele>
        <time>2022-07-17T02:38:06Z</time>
      </trkpt>
      <trkpt lat="45.75604" lon="6.57634">
        <ele>1469</ele>
        <time>2022-07-17T02:38:10Z</time>
      </trkpt>
      <trkpt lat="45.75605" lon="6.57632">
        <ele>1470</ele>
        <time>2022-07-17T02:38:13Z</time>
      </trkpt>
      <trkpt lat="45.75606" lon="6.57629">
        <ele>1470</ele>
        <time>2022-07-17T02:38:16Z</time>
      </trkpt>
      <trkpt lat="45.75607" lon="6.57628">
        <ele>1471</ele>
        <time>2022-07-17T02:38:18Z</time>
      </trkpt>
      <trkpt lat="45.75609" lon="6.57625">
        <ele>1472</ele>
        <time>2022-07-17T02:38:20Z</time>
      </trkpt>
      <trkpt lat="45.7561" lon="6.57623">
        <ele>1472</ele>
        <time>2022-07-17T02:38:23Z</time>
      </trkpt>
      <trkpt lat="45.75613" lon="6.57622">
        <ele>1473</ele>
        <time>2022-07-17T02:38:26Z</time>
      </trkpt>
      <trkpt lat="45.75614" lon="6.57624">
        <ele>1473</ele>
        <time>2022-07-17T02:38:29Z</time>
      </trkpt>
      <trkpt lat="45.75616" lon="6.57625">
        <ele>1474</ele>
        <time>2022-07-17T02:38:34Z</time>
      </trkpt>
      <trkpt lat="45.75617" lon="6.57627">
        <ele>1474</ele>
        <time>2022-07-17T02:38:38Z</time>
      </trkpt>
      <trkpt lat="45.75619" lon="6.57629">
        <ele>1476</ele>
        <time>2022-07-17T02:38:42Z</time>
      </trkpt>
      <trkpt lat="45.75621" lon="6.57631">
        <ele>1477</ele>
        <time>2022-07-17T02:38:45Z</time>
      </trkpt>
      <trkpt lat="45.75621" lon="6.57631">
        <ele>1478</ele>
        <time>2022-07-17T02:38:53Z</time>
      </trkpt>
      <trkpt lat="45.75622" lon="6.57629">
        <ele>1479</ele>
        <time>2022-07-17T02:38:55Z</time>
      </trkpt>
      <trkpt lat="45.75623" lon="6.57627">
        <ele>1479</ele>
        <time>2022-07-17T02:38:58Z</time>
      </trkpt>
      <trkpt lat="45.75625" lon="6.57625">
        <ele>1480</ele>
        <time>2022-07-17T02:39:01Z</time>
      </trkpt>
      <trkpt lat="45.75626" lon="6.57623">
        <ele>1481</ele>
        <time>2022-07-17T02:39:05Z</time>
      </trkpt>
      <trkpt lat="45.75629" lon="6.57623">
        <ele>1482</ele>
        <time>2022-07-17T02:39:08Z</time>
      </trkpt>
      <trkpt lat="45.75631" lon="6.57624">
        <ele>1482</ele>
        <time>2022-07-17T02:39:11Z</time>
      </trkpt>
      <trkpt lat="45.75633" lon="6.57625">
        <ele>1483</ele>
        <time>2022-07-17T02:39:15Z</time>
      </trkpt>
      <trkpt lat="45.75635" lon="6.57625">
        <ele>1483</ele>
        <time>2022-07-17T02:39:18Z</time>
      </trkpt>
      <trkpt lat="45.75637" lon="6.57625">
        <ele>1483</ele>
        <time>2022-07-17T02:39:22Z</time>
      </trkpt>
      <trkpt lat="45.75639" lon="6.57624">
        <ele>1484</ele>
        <time>2022-07-17T02:39:28Z</time>
      </trkpt>
      <trkpt lat="45.75641" lon="6.57623">
        <ele>1484</ele>
        <time>2022-07-17T02:39:31Z</time>
      </trkpt>
      <trkpt lat="45.75643" lon="6.57622">
        <ele>1484</ele>
        <time>2022-07-17T02:39:33Z</time>
      </trkpt>
      <trkpt lat="45.75645" lon="6.57622">
        <ele>1484</ele>
        <time>2022-07-17T02:39:35Z</time>
      </trkpt>
      <trkpt lat="45.75649" lon="6.57622">
        <ele>1483</ele>
        <time>2022-07-17T02:39:37Z</time>
      </trkpt>
      <trkpt lat="45.75651" lon="6.57621">
        <ele>1483</ele>
        <time>2022-07-17T02:39:39Z</time>
      </trkpt>
      <trkpt lat="45.75654" lon="6.57619">
        <ele>1483</ele>
        <time>2022-07-17T02:39:44Z</time>
      </trkpt>
      <trkpt lat="45.75655" lon="6.57616">
        <ele>1483</ele>
        <time>2022-07-17T02:39:46Z</time>
      </trkpt>
      <trkpt lat="45.75656" lon="6.57612">
        <ele>1482</ele>
        <time>2022-07-17T02:39:48Z</time>
      </trkpt>
      <trkpt lat="45.75657" lon="6.57609">
        <ele>1482</ele>
        <time>2022-07-17T02:39:50Z</time>
      </trkpt>
      <trkpt lat="45.75657" lon="6.57605">
        <ele>1482</ele>
        <time>2022-07-17T02:39:52Z</time>
      </trkpt>
      <trkpt lat="45.75658" lon="6.57602">
        <ele>1482</ele>
        <time>2022-07-17T02:39:54Z</time>
      </trkpt>
      <trkpt lat="45.75659" lon="6.57599">
        <ele>1482</ele>
        <time>2022-07-17T02:39:56Z</time>
      </trkpt>
      <trkpt lat="45.7566" lon="6.57597">
        <ele>1483</ele>
        <time>2022-07-17T02:39:58Z</time>
      </trkpt>
      <trkpt lat="45.75661" lon="6.57594">
        <ele>1483</ele>
        <time>2022-07-17T02:40:01Z</time>
      </trkpt>
      <trkpt lat="45.75662" lon="6.57591">
        <ele>1484</ele>
        <time>2022-07-17T02:40:04Z</time>
      </trkpt>
      <trkpt lat="45.75663" lon="6.57589">
        <ele>1484</ele>
        <time>2022-07-17T02:40:07Z</time>
      </trkpt>
      <trkpt lat="45.75663" lon="6.57586">
        <ele>1484</ele>
        <time>2022-07-17T02:40:10Z</time>
      </trkpt>
      <trkpt lat="45.75664" lon="6.57583">
        <ele>1484</ele>
        <time>2022-07-17T02:40:13Z</time>
      </trkpt>
      <trkpt lat="45.75666" lon="6.57581">
        <ele>1484</ele>
        <time>2022-07-17T02:40:16Z</time>
      </trkpt>
      <trkpt lat="45.75668" lon="6.57579">
        <ele>1484</ele>
        <time>2022-07-17T02:40:18Z</time>
      </trkpt>
      <trkpt lat="45.7567" lon="6.57578">
        <ele>1483</ele>
        <time>2022-07-17T02:40:20Z</time>
      </trkpt>
      <trkpt lat="45.75672" lon="6.57577">
        <ele>1483</ele>
        <time>2022-07-17T02:40:22Z</time>
      </trkpt>
      <trkpt lat="45.75674" lon="6.57575">
        <ele>1483</ele>
        <time>2022-07-17T02:40:24Z</time>
      </trkpt>
      <trkpt lat="45.75675" lon="6.57574">
        <ele>1483</ele>
        <time>2022-07-17T02:40:25Z</time>
      </trkpt>
      <trkpt lat="45.75677" lon="6.57572">
        <ele>1482</ele>
        <time>2022-07-17T02:40:26Z</time>
      </trkpt>
      <trkpt lat="45.75679" lon="6.57571">
        <ele>1482</ele>
        <time>2022-07-17T02:40:27Z</time>
      </trkpt>
      <trkpt lat="45.7568" lon="6.5757">
        <ele>1482</ele>
        <time>2022-07-17T02:40:28Z</time>
      </trkpt>
      <trkpt lat="45.75682" lon="6.57568">
        <ele>1481</ele>
        <time>2022-07-17T02:40:29Z</time>
      </trkpt>
      <trkpt lat="45.75683" lon="6.57567">
        <ele>1481</ele>
        <time>2022-07-17T02:40:30Z</time>
      </trkpt>
      <trkpt lat="45.75685" lon="6.57566">
        <ele>1481</ele>
        <time>2022-07-17T02:40:31Z</time>
      </trkpt>
      <trkpt lat="45.75687" lon="6.57565">
        <ele>1481</ele>
        <time>2022-07-17T02:40:32Z</time>
      </trkpt>
      <trkpt lat="45.75688" lon="6.57564">
        <ele>1480</ele>
        <time>2022-07-17T02:40:33Z</time>
      </trkpt>
      <trkpt lat="45.7569" lon="6.57563">
        <ele>1480</ele>
        <time>2022-07-17T02:40:34Z</time>
      </trkpt>
      <trkpt lat="45.75691" lon="6.57562">
        <ele>1480</ele>
        <time>2022-07-17T02:40:35Z</time>
      </trkpt>
      <trkpt lat="45.75692" lon="6.5756">
        <ele>1480</ele>
        <time>2022-07-17T02:40:36Z</time>
      </trkpt>
      <trkpt lat="45.75692" lon="6.57559">
        <ele>1480</ele>
        <time>2022-07-17T02:40:37Z</time>
      </trkpt>
      <trkpt lat="45.75693" lon="6.57557">
        <ele>1480</ele>
        <time>2022-07-17T02:40:38Z</time>
      </trkpt>
      <trkpt lat="45.75694" lon="6.57556">
        <ele>1480</ele>
        <time>2022-07-17T02:40:39Z</time>
      </trkpt>
      <trkpt lat="45.75695" lon="6.57554">
        <ele>1480</ele>
        <time>2022-07-17T02:40:40Z</time>
      </trkpt>
      <trkpt lat="45.75696" lon="6.57553">
        <ele>1480</ele>
        <time>2022-07-17T02:40:41Z</time>
      </trkpt>
      <trkpt lat="45.75697" lon="6.57551">
        <ele>1480</ele>
        <time>2022-07-17T02:40:42Z</time>
      </trkpt>
      <trkpt lat="45.75699" lon="6.5755">
        <ele>1480</ele>
        <time>2022-07-17T02:40:43Z</time>
      </trkpt>
      <trkpt lat="45.757" lon="6.57549">
        <ele>1479</ele>
        <time>2022-07-17T02:40:44Z</time>
      </trkpt>
      <trkpt lat="45.75702" lon="6.57548">
        <ele>1479</ele>
        <time>2022-07-17T02:40:45Z</time>
      </trkpt>
      <trkpt lat="45.75703" lon="6.57546">
        <ele>1478</ele>
        <time>2022-07-17T02:40:46Z</time>
      </trkpt>
      <trkpt lat="45.75705" lon="6.57545">
        <ele>1478</ele>
        <time>2022-07-17T02:40:47Z</time>
      </trkpt>
      <trkpt lat="45.75704" lon="6.57546">
        <ele>1478</ele>
        <time>2022-07-17T02:40:48Z</time>
      </trkpt>
      <trkpt lat="45.75704" lon="6.57547">
        <ele>1478</ele>
        <time>2022-07-17T02:40:50Z</time>
      </trkpt>
      <trkpt lat="45.75704" lon="6.57548">
        <ele>1478</ele>
        <time>2022-07-17T02:40:51Z</time>
      </trkpt>
      <trkpt lat="45.75703" lon="6.57548">
        <ele>1478</ele>
        <time>2022-07-17T02:40:52Z</time>
      </trkpt>
      <trkpt lat="45.75703" lon="6.57549">
        <ele>1478</ele>
        <time>2022-07-17T02:40:53Z</time>
      </trkpt>
      <trkpt lat="45.75703" lon="6.5755">
        <ele>1477</ele>
        <time>2022-07-17T02:40:54Z</time>
      </trkpt>
      <trkpt lat="45.75702" lon="6.5755">
        <ele>1477</ele>
        <time>2022-07-17T02:40:55Z</time>
      </trkpt>
      <trkpt lat="45.75702" lon="6.57551">
        <ele>1477</ele>
        <time>2022-07-17T02:40:56Z</time>
      </trkpt>
      <trkpt lat="45.75702" lon="6.57552">
        <ele>1477</ele>
        <time>2022-07-17T02:40:57Z</time>
      </trkpt>
      <trkpt lat="45.75701" lon="6.57553">
        <ele>1478</ele>
        <time>2022-07-17T02:40:59Z</time>
      </trkpt>
      <trkpt lat="45.75701" lon="6.57554">
        <ele>1478</ele>
        <time>2022-07-17T02:41:00Z</time>
      </trkpt>
      <trkpt lat="45.75701" lon="6.57555">
        <ele>1478</ele>
        <time>2022-07-17T02:41:01Z</time>
      </trkpt>
      <trkpt lat="45.757" lon="6.57556">
        <ele>1479</ele>
        <time>2022-07-17T02:41:03Z</time>
      </trkpt>
      <trkpt lat="45.757" lon="6.57557">
        <ele>1479</ele>
        <time>2022-07-17T02:41:04Z</time>
      </trkpt>
      <trkpt lat="45.75699" lon="6.5756">
        <ele>1480</ele>
        <time>2022-07-17T02:41:09Z</time>
      </trkpt>
      <trkpt lat="45.75701" lon="6.57557">
        <ele>1481</ele>
        <time>2022-07-17T02:41:14Z</time>
      </trkpt>
      <trkpt lat="45.75703" lon="6.57556">
        <ele>1482</ele>
        <time>2022-07-17T02:41:19Z</time>
      </trkpt>
      <trkpt lat="45.75704" lon="6.57555">
        <ele>1482</ele>
        <time>2022-07-17T02:41:21Z</time>
      </trkpt>
      <trkpt lat="45.75705" lon="6.57555">
        <ele>1482</ele>
        <time>2022-07-17T02:41:22Z</time>
      </trkpt>
      <trkpt lat="45.75706" lon="6.57554">
        <ele>1482</ele>
        <time>2022-07-17T02:41:23Z</time>
      </trkpt>
      <trkpt lat="45.75707" lon="6.57553">
        <ele>1482</ele>
        <time>2022-07-17T02:41:24Z</time>
      </trkpt>
      <trkpt lat="45.75708" lon="6.57552">
        <ele>1483</ele>
        <time>2022-07-17T02:41:25Z</time>
      </trkpt>
      <trkpt lat="45.75709" lon="6.57551">
        <ele>1483</ele>
        <time>2022-07-17T02:41:26Z</time>
      </trkpt>
      <trkpt lat="45.7571" lon="6.57551">
        <ele>1483</ele>
        <time>2022-07-17T02:41:27Z</time>
      </trkpt>
      <trkpt lat="45.75711" lon="6.5755">
        <ele>1483</ele>
        <time>2022-07-17T02:41:28Z</time>
      </trkpt>
      <trkpt lat="45.75712" lon="6.57549">
        <ele>1483</ele>
        <time>2022-07-17T02:41:29Z</time>
      </trkpt>
      <trkpt lat="45.75713" lon="6.57549">
        <ele>1483</ele>
        <time>2022-07-17T02:41:30Z</time>
      </trkpt>
      <trkpt lat="45.75713" lon="6.57548">
        <ele>1483</ele>
        <time>2022-07-17T02:41:31Z</time>
      </trkpt>
      <trkpt lat="45.75714" lon="6.57548">
        <ele>1483</ele>
        <time>2022-07-17T02:41:32Z</time>
      </trkpt>
      <trkpt lat="45.75715" lon="6.57547">
        <ele>1483</ele>
        <time>2022-07-17T02:41:33Z</time>
      </trkpt>
      <trkpt lat="45.75716" lon="6.57546">
        <ele>1483</ele>
        <time>2022-07-17T02:41:35Z</time>
      </trkpt>
      <trkpt lat="45.75717" lon="6.57545">
        <ele>1483</ele>
        <time>2022-07-17T02:41:37Z</time>
      </trkpt>
      <trkpt lat="45.75718" lon="6.57544">
        <ele>1483</ele>
        <time>2022-07-17T02:41:38Z</time>
      </trkpt>
      <trkpt lat="45.75719" lon="6.57543">
        <ele>1483</ele>
        <time>2022-07-17T02:41:40Z</time>
      </trkpt>
      <trkpt lat="45.75719" lon="6.57544">
        <ele>1484</ele>
        <time>2022-07-17T02:41:41Z</time>
      </trkpt>
      <trkpt lat="45.75718" lon="6.57544">
        <ele>1484</ele>
        <time>2022-07-17T02:41:42Z</time>
      </trkpt>
      <trkpt lat="45.75718" lon="6.57545">
        <ele>1485</ele>
        <time>2022-07-17T02:41:44Z</time>
      </trkpt>
      <trkpt lat="45.75717" lon="6.57545">
        <ele>1485</ele>
        <time>2022-07-17T02:41:45Z</time>
      </trkpt>
      <trkpt lat="45.75717" lon="6.57546">
        <ele>1486</ele>
        <time>2022-07-17T02:41:46Z</time>
      </trkpt>
      <trkpt lat="45.75716" lon="6.57546">
        <ele>1486</ele>
        <time>2022-07-17T02:41:47Z</time>
      </trkpt>
      <trkpt lat="45.75716" lon="6.57547">
        <ele>1486</ele>
        <time>2022-07-17T02:41:49Z</time>
      </trkpt>
      <trkpt lat="45.75715" lon="6.57547">
        <ele>1486</ele>
        <time>2022-07-17T02:41:50Z</time>
      </trkpt>
      <trkpt lat="45.75715" lon="6.57548">
        <ele>1486</ele>
        <time>2022-07-17T02:41:52Z</time>
      </trkpt>
      <trkpt lat="45.75714" lon="6.57548">
        <ele>1486</ele>
        <time>2022-07-17T02:41:53Z</time>
      </trkpt>
      <trkpt lat="45.75713" lon="6.57549">
        <ele>1486</ele>
        <time>2022-07-17T02:41:55Z</time>
      </trkpt>
      <trkpt lat="45.75713" lon="6.5755">
        <ele>1487</ele>
        <time>2022-07-17T02:41:57Z</time>
      </trkpt>
      <trkpt lat="45.75712" lon="6.5755">
        <ele>1487</ele>
        <time>2022-07-17T02:41:59Z</time>
      </trkpt>
      <trkpt lat="45.75713" lon="6.57549">
        <ele>1488</ele>
        <time>2022-07-17T02:42:01Z</time>
      </trkpt>
      <trkpt lat="45.75713" lon="6.57548">
        <ele>1488</ele>
        <time>2022-07-17T02:42:02Z</time>
      </trkpt>
      <trkpt lat="45.75714" lon="6.57547">
        <ele>1488</ele>
        <time>2022-07-17T02:42:03Z</time>
      </trkpt>
      <trkpt lat="45.75715" lon="6.57546">
        <ele>1488</ele>
        <time>2022-07-17T02:42:04Z</time>
      </trkpt>
      <trkpt lat="45.75716" lon="6.57544">
        <ele>1488</ele>
        <time>2022-07-17T02:42:05Z</time>
      </trkpt>
      <trkpt lat="45.75716" lon="6.57543">
        <ele>1489</ele>
        <time>2022-07-17T02:42:06Z</time>
      </trkpt>
      <trkpt lat="45.75717" lon="6.57542">
        <ele>1489</ele>
        <time>2022-07-17T02:42:07Z</time>
      </trkpt>
      <trkpt lat="45.75718" lon="6.57541">
        <ele>1489</ele>
        <time>2022-07-17T02:42:08Z</time>
      </trkpt>
      <trkpt lat="45.75718" lon="6.57539">
        <ele>1489</ele>
        <time>2022-07-17T02:42:09Z</time>
      </trkpt>
      <trkpt lat="45.75719" lon="6.57539">
        <ele>1489</ele>
        <time>2022-07-17T02:42:10Z</time>
      </trkpt>
      <trkpt lat="45.75719" lon="6.57538">
        <ele>1489</ele>
        <time>2022-07-17T02:42:11Z</time>
      </trkpt>
      <trkpt lat="45.75719" lon="6.57537">
        <ele>1490</ele>
        <time>2022-07-17T02:42:12Z</time>
      </trkpt>
      <trkpt lat="45.7572" lon="6.57537">
        <ele>1490</ele>
        <time>2022-07-17T02:42:13Z</time>
      </trkpt>
      <trkpt lat="45.7572" lon="6.57536">
        <ele>1490</ele>
        <time>2022-07-17T02:42:14Z</time>
      </trkpt>
      <trkpt lat="45.7572" lon="6.57535">
        <ele>1490</ele>
        <time>2022-07-17T02:42:15Z</time>
      </trkpt>
      <trkpt lat="45.75721" lon="6.57534">
        <ele>1490</ele>
        <time>2022-07-17T02:42:18Z</time>
      </trkpt>
      <trkpt lat="45.75721" lon="6.57533">
        <ele>1491</ele>
        <time>2022-07-17T02:42:19Z</time>
      </trkpt>
      <trkpt lat="45.75721" lon="6.57532">
        <ele>1491</ele>
        <time>2022-07-17T02:42:20Z</time>
      </trkpt>
      <trkpt lat="45.75722" lon="6.57532">
        <ele>1491</ele>
        <time>2022-07-17T02:42:21Z</time>
      </trkpt>
      <trkpt lat="45.75722" lon="6.57531">
        <ele>1491</ele>
        <time>2022-07-17T02:42:22Z</time>
      </trkpt>
      <trkpt lat="45.75722" lon="6.5753">
        <ele>1492</ele>
        <time>2022-07-17T02:42:23Z</time>
      </trkpt>
      <trkpt lat="45.75723" lon="6.5753">
        <ele>1492</ele>
        <time>2022-07-17T02:42:24Z</time>
      </trkpt>
      <trkpt lat="45.75723" lon="6.57529">
        <ele>1492</ele>
        <time>2022-07-17T02:42:25Z</time>
      </trkpt>
      <trkpt lat="45.75722" lon="6.57529">
        <ele>1493</ele>
        <time>2022-07-17T02:42:26Z</time>
      </trkpt>
      <trkpt lat="45.75721" lon="6.57529">
        <ele>1493</ele>
        <time>2022-07-17T02:42:28Z</time>
      </trkpt>
      <trkpt lat="45.7572" lon="6.57529">
        <ele>1493</ele>
        <time>2022-07-17T02:42:30Z</time>
      </trkpt>
      <trkpt lat="45.7572" lon="6.5753">
        <ele>1494</ele>
        <time>2022-07-17T02:42:31Z</time>
      </trkpt>
      <trkpt lat="45.75719" lon="6.5753">
        <ele>1494</ele>
        <time>2022-07-17T02:42:32Z</time>
      </trkpt>
      <trkpt lat="45.75718" lon="6.5753">
        <ele>1494</ele>
        <time>2022-07-17T02:42:34Z</time>
      </trkpt>
      <trkpt lat="45.75717" lon="6.5753">
        <ele>1494</ele>
        <time>2022-07-17T02:42:36Z</time>
      </trkpt>
      <trkpt lat="45.75716" lon="6.5753">
        <ele>1494</ele>
        <time>2022-07-17T02:42:38Z</time>
      </trkpt>
      <trkpt lat="45.75715" lon="6.5753">
        <ele>1494</ele>
        <time>2022-07-17T02:42:40Z</time>
      </trkpt>
      <trkpt lat="45.75714" lon="6.5753">
        <ele>1494</ele>
        <time>2022-07-17T02:42:42Z</time>
      </trkpt>
      <trkpt lat="45.75713" lon="6.5753">
        <ele>1495</ele>
        <time>2022-07-17T02:42:44Z</time>
      </trkpt>
      <trkpt lat="45.75712" lon="6.5753">
        <ele>1495</ele>
        <time>2022-07-17T02:42:47Z</time>
      </trkpt>
      <trkpt lat="45.75712" lon="6.57531">
        <ele>1495</ele>
        <time>2022-07-17T02:42:49Z</time>
      </trkpt>
      <trkpt lat="45.75711" lon="6.57531">
        <ele>1495</ele>
        <time>2022-07-17T02:42:50Z</time>
      </trkpt>
      <trkpt lat="45.7571" lon="6.57531">
        <ele>1496</ele>
        <time>2022-07-17T02:42:52Z</time>
      </trkpt>
      <trkpt lat="45.75709" lon="6.57531">
        <ele>1496</ele>
        <time>2022-07-17T02:42:54Z</time>
      </trkpt>
      <trkpt lat="45.75707" lon="6.57531">
        <ele>1496</ele>
        <time>2022-07-17T02:42:56Z</time>
      </trkpt>
      <trkpt lat="45.75705" lon="6.57532">
        <ele>1496</ele>
        <time>2022-07-17T02:42:58Z</time>
      </trkpt>
      <trkpt lat="45.75704" lon="6.57531">
        <ele>1496</ele>
        <time>2022-07-17T02:42:59Z</time>
      </trkpt>
      <trkpt lat="45.75704" lon="6.57529">
        <ele>1497</ele>
        <time>2022-07-17T02:43:00Z</time>
      </trkpt>
      <trkpt lat="45.75703" lon="6.57528">
        <ele>1497</ele>
        <time>2022-07-17T02:43:01Z</time>
      </trkpt>
      <trkpt lat="45.75702" lon="6.57527">
        <ele>1497</ele>
        <time>2022-07-17T02:43:02Z</time>
      </trkpt>
      <trkpt lat="45.75701" lon="6.57526">
        <ele>1497</ele>
        <time>2022-07-17T02:43:03Z</time>
      </trkpt>
      <trkpt lat="45.757" lon="6.57525">
        <ele>1497</ele>
        <time>2022-07-17T02:43:04Z</time>
      </trkpt>
      <trkpt lat="45.757" lon="6.57524">
        <ele>1497</ele>
        <time>2022-07-17T02:43:05Z</time>
      </trkpt>
      <trkpt lat="45.75699" lon="6.57523">
        <ele>1497</ele>
        <time>2022-07-17T02:43:06Z</time>
      </trkpt>
      <trkpt lat="45.75698" lon="6.57522">
        <ele>1497</ele>
        <time>2022-07-17T02:43:07Z</time>
      </trkpt>
      <trkpt lat="45.75695" lon="6.5752">
        <ele>1497</ele>
        <time>2022-07-17T02:43:09Z</time>
      </trkpt>
      <trkpt lat="45.75692" lon="6.57519">
        <ele>1497</ele>
        <time>2022-07-17T02:43:11Z</time>
      </trkpt>
      <trkpt lat="45.75691" lon="6.57517">
        <ele>1497</ele>
        <time>2022-07-17T02:43:12Z</time>
      </trkpt>
      <trkpt lat="45.75691" lon="6.57516">
        <ele>1497</ele>
        <time>2022-07-17T02:43:13Z</time>
      </trkpt>
      <trkpt lat="45.7569" lon="6.57515">
        <ele>1498</ele>
        <time>2022-07-17T02:43:14Z</time>
      </trkpt>
      <trkpt lat="45.75689" lon="6.57514">
        <ele>1498</ele>
        <time>2022-07-17T02:43:15Z</time>
      </trkpt>
      <trkpt lat="45.75687" lon="6.57513">
        <ele>1498</ele>
        <time>2022-07-17T02:43:17Z</time>
      </trkpt>
      <trkpt lat="45.75685" lon="6.57513">
        <ele>1498</ele>
        <time>2022-07-17T02:43:20Z</time>
      </trkpt>
      <trkpt lat="45.75683" lon="6.57512">
        <ele>1498</ele>
        <time>2022-07-17T02:43:23Z</time>
      </trkpt>
      <trkpt lat="45.7568" lon="6.5751">
        <ele>1499</ele>
        <time>2022-07-17T02:43:26Z</time>
      </trkpt>
      <trkpt lat="45.75678" lon="6.57509">
        <ele>1499</ele>
        <time>2022-07-17T02:43:29Z</time>
      </trkpt>
      <trkpt lat="45.75676" lon="6.57509">
        <ele>1500</ele>
        <time>2022-07-17T02:43:32Z</time>
      </trkpt>
      <trkpt lat="45.75674" lon="6.5751">
        <ele>1500</ele>
        <time>2022-07-17T02:43:34Z</time>
      </trkpt>
      <trkpt lat="45.75672" lon="6.57511">
        <ele>1500</ele>
        <time>2022-07-17T02:43:36Z</time>
      </trkpt>
      <trkpt lat="45.7567" lon="6.57511">
        <ele>1501</ele>
        <time>2022-07-17T02:43:39Z</time>
      </trkpt>
      <trkpt lat="45.75668" lon="6.57512">
        <ele>1501</ele>
        <time>2022-07-17T02:43:44Z</time>
      </trkpt>
      <trkpt lat="45.75666" lon="6.57512">
        <ele>1501</ele>
        <time>2022-07-17T02:43:48Z</time>
      </trkpt>
      <trkpt lat="45.75663" lon="6.57511">
        <ele>1502</ele>
        <time>2022-07-17T02:43:50Z</time>
      </trkpt>
      <trkpt lat="45.75661" lon="6.57511">
        <ele>1502</ele>
        <time>2022-07-17T02:43:52Z</time>
      </trkpt>
      <trkpt lat="45.75659" lon="6.5751">
        <ele>1503</ele>
        <time>2022-07-17T02:43:54Z</time>
      </trkpt>
      <trkpt lat="45.75658" lon="6.57509">
        <ele>1503</ele>
        <time>2022-07-17T02:43:57Z</time>
      </trkpt>
      <trkpt lat="45.75656" lon="6.57506">
        <ele>1503</ele>
        <time>2022-07-17T02:43:59Z</time>
      </trkpt>
      <trkpt lat="45.75655" lon="6.57504">
        <ele>1504</ele>
        <time>2022-07-17T02:44:01Z</time>
      </trkpt>
      <trkpt lat="45.75655" lon="6.575">
        <ele>1504</ele>
        <time>2022-07-17T02:44:03Z</time>
      </trkpt>
      <trkpt lat="45.75654" lon="6.57498">
        <ele>1505</ele>
        <time>2022-07-17T02:44:06Z</time>
      </trkpt>
      <trkpt lat="45.75652" lon="6.57495">
        <ele>1506</ele>
        <time>2022-07-17T02:44:09Z</time>
      </trkpt>
      <trkpt lat="45.7565" lon="6.57495">
        <ele>1508</ele>
        <time>2022-07-17T02:44:18Z</time>
      </trkpt>
      <trkpt lat="45.75649" lon="6.57492">
        <ele>1510</ele>
        <time>2022-07-17T02:44:25Z</time>
      </trkpt>
      <trkpt lat="45.75647" lon="6.57491">
        <ele>1510</ele>
        <time>2022-07-17T02:44:30Z</time>
      </trkpt>
      <trkpt lat="45.75646" lon="6.57488">
        <ele>1511</ele>
        <time>2022-07-17T02:44:33Z</time>
      </trkpt>
      <trkpt lat="45.75643" lon="6.57487">
        <ele>1512</ele>
        <time>2022-07-17T02:44:36Z</time>
      </trkpt>
      <trkpt lat="45.75642" lon="6.57485">
        <ele>1513</ele>
        <time>2022-07-17T02:44:38Z</time>
      </trkpt>
      <trkpt lat="45.7564" lon="6.57483">
        <ele>1513</ele>
        <time>2022-07-17T02:44:42Z</time>
      </trkpt>
      <trkpt lat="45.75637" lon="6.57481">
        <ele>1514</ele>
        <time>2022-07-17T02:44:46Z</time>
      </trkpt>
      <trkpt lat="45.75635" lon="6.57481">
        <ele>1515</ele>
        <time>2022-07-17T02:44:49Z</time>
      </trkpt>
      <trkpt lat="45.75634" lon="6.57479">
        <ele>1515</ele>
        <time>2022-07-17T02:44:52Z</time>
      </trkpt>
      <trkpt lat="45.75632" lon="6.57478">
        <ele>1515</ele>
        <time>2022-07-17T02:44:56Z</time>
      </trkpt>
      <trkpt lat="45.7563" lon="6.57476">
        <ele>1516</ele>
        <time>2022-07-17T02:44:59Z</time>
      </trkpt>
      <trkpt lat="45.75629" lon="6.57473">
        <ele>1516</ele>
        <time>2022-07-17T02:45:02Z</time>
      </trkpt>
      <trkpt lat="45.75629" lon="6.57469">
        <ele>1517</ele>
        <time>2022-07-17T02:45:05Z</time>
      </trkpt>
      <trkpt lat="45.7563" lon="6.57466">
        <ele>1517</ele>
        <time>2022-07-17T02:45:08Z</time>
      </trkpt>
      <trkpt lat="45.75632" lon="6.57463">
        <ele>1518</ele>
        <time>2022-07-17T02:45:11Z</time>
      </trkpt>
      <trkpt lat="45.75634" lon="6.57461">
        <ele>1518</ele>
        <time>2022-07-17T02:45:15Z</time>
      </trkpt>
      <trkpt lat="45.75636" lon="6.5746">
        <ele>1518</ele>
        <time>2022-07-17T02:45:19Z</time>
      </trkpt>
      <trkpt lat="45.75637" lon="6.57458">
        <ele>1519</ele>
        <time>2022-07-17T02:45:21Z</time>
      </trkpt>
      <trkpt lat="45.75639" lon="6.57456">
        <ele>1520</ele>
        <time>2022-07-17T02:45:24Z</time>
      </trkpt>
      <trkpt lat="45.75641" lon="6.57453">
        <ele>1520</ele>
        <time>2022-07-17T02:45:27Z</time>
      </trkpt>
      <trkpt lat="45.75643" lon="6.57451">
        <ele>1521</ele>
        <time>2022-07-17T02:45:30Z</time>
      </trkpt>
      <trkpt lat="45.75644" lon="6.57449">
        <ele>1521</ele>
        <time>2022-07-17T02:45:34Z</time>
      </trkpt>
      <trkpt lat="45.75646" lon="6.57447">
        <ele>1522</ele>
        <time>2022-07-17T02:45:36Z</time>
      </trkpt>
      <trkpt lat="45.75648" lon="6.57444">
        <ele>1523</ele>
        <time>2022-07-17T02:45:41Z</time>
      </trkpt>
      <trkpt lat="45.7565" lon="6.57447">
        <ele>1524</ele>
        <time>2022-07-17T02:45:48Z</time>
      </trkpt>
      <trkpt lat="45.75648" lon="6.57446">
        <ele>1524</ele>
        <time>2022-07-17T02:45:52Z</time>
      </trkpt>
      <trkpt lat="45.75645" lon="6.57444">
        <ele>1525</ele>
        <time>2022-07-17T02:45:55Z</time>
      </trkpt>
      <trkpt lat="45.75643" lon="6.57444">
        <ele>1526</ele>
        <time>2022-07-17T02:45:58Z</time>
      </trkpt>
      <trkpt lat="45.75641" lon="6.57445">
        <ele>1526</ele>
        <time>2022-07-17T02:46:01Z</time>
      </trkpt>
      <trkpt lat="45.75639" lon="6.57443">
        <ele>1527</ele>
        <time>2022-07-17T02:46:05Z</time>
      </trkpt>
      <trkpt lat="45.75637" lon="6.57442">
        <ele>1527</ele>
        <time>2022-07-17T02:46:08Z</time>
      </trkpt>
      <trkpt lat="45.75635" lon="6.57442">
        <ele>1528</ele>
        <time>2022-07-17T02:46:10Z</time>
      </trkpt>
      <trkpt lat="45.75632" lon="6.57442">
        <ele>1528</ele>
        <time>2022-07-17T02:46:13Z</time>
      </trkpt>
      <trkpt lat="45.75631" lon="6.57439">
        <ele>1528</ele>
        <time>2022-07-17T02:46:16Z</time>
      </trkpt>
      <trkpt lat="45.75632" lon="6.57437">
        <ele>1529</ele>
        <time>2022-07-17T02:46:19Z</time>
      </trkpt>
      <trkpt lat="45.75634" lon="6.57435">
        <ele>1529</ele>
        <time>2022-07-17T02:46:22Z</time>
      </trkpt>
      <trkpt lat="45.75635" lon="6.57435">
        <ele>1530</ele>
        <time>2022-07-17T02:46:25Z</time>
      </trkpt>
      <trkpt lat="45.75638" lon="6.57434">
        <ele>1531</ele>
        <time>2022-07-17T02:46:29Z</time>
      </trkpt>
      <trkpt lat="45.7564" lon="6.57431">
        <ele>1532</ele>
        <time>2022-07-17T02:46:34Z</time>
      </trkpt>
      <trkpt lat="45.75641" lon="6.5743">
        <ele>1532</ele>
        <time>2022-07-17T02:46:37Z</time>
      </trkpt>
      <trkpt lat="45.75644" lon="6.5743">
        <ele>1532</ele>
        <time>2022-07-17T02:46:40Z</time>
      </trkpt>
      <trkpt lat="45.75646" lon="6.5743">
        <ele>1532</ele>
        <time>2022-07-17T02:46:43Z</time>
      </trkpt>
      <trkpt lat="45.75648" lon="6.5743">
        <ele>1533</ele>
        <time>2022-07-17T02:46:46Z</time>
      </trkpt>
      <trkpt lat="45.75649" lon="6.57429">
        <ele>1534</ele>
        <time>2022-07-17T02:46:49Z</time>
      </trkpt>
      <trkpt lat="45.75651" lon="6.57428">
        <ele>1535</ele>
        <time>2022-07-17T02:46:54Z</time>
      </trkpt>
      <trkpt lat="45.75654" lon="6.57427">
        <ele>1535</ele>
        <time>2022-07-17T02:46:57Z</time>
      </trkpt>
      <trkpt lat="45.75656" lon="6.57427">
        <ele>1536</ele>
        <time>2022-07-17T02:47:00Z</time>
      </trkpt>
      <trkpt lat="45.75658" lon="6.57427">
        <ele>1536</ele>
        <time>2022-07-17T02:47:02Z</time>
      </trkpt>
      <trkpt lat="45.7566" lon="6.57428">
        <ele>1534</ele>
        <time>2022-07-17T02:47:05Z</time>
      </trkpt>
      <trkpt lat="45.75663" lon="6.57428">
        <ele>1534</ele>
        <time>2022-07-17T02:47:07Z</time>
      </trkpt>
      <trkpt lat="45.75666" lon="6.57427">
        <ele>1533</ele>
        <time>2022-07-17T02:47:09Z</time>
      </trkpt>
      <trkpt lat="45.75669" lon="6.57426">
        <ele>1533</ele>
        <time>2022-07-17T02:47:11Z</time>
      </trkpt>
      <trkpt lat="45.75671" lon="6.57426">
        <ele>1533</ele>
        <time>2022-07-17T02:47:13Z</time>
      </trkpt>
      <trkpt lat="45.75673" lon="6.57426">
        <ele>1533</ele>
        <time>2022-07-17T02:47:15Z</time>
      </trkpt>
      <trkpt lat="45.75675" lon="6.57426">
        <ele>1534</ele>
        <time>2022-07-17T02:47:18Z</time>
      </trkpt>
      <trkpt lat="45.75677" lon="6.57424">
        <ele>1534</ele>
        <time>2022-07-17T02:47:21Z</time>
      </trkpt>
      <trkpt lat="45.7568" lon="6.57423">
        <ele>1535</ele>
        <time>2022-07-17T02:47:25Z</time>
      </trkpt>
      <trkpt lat="45.75681" lon="6.57422">
        <ele>1536</ele>
        <time>2022-07-17T02:47:29Z</time>
      </trkpt>
      <trkpt lat="45.75683" lon="6.5742">
        <ele>1536</ele>
        <time>2022-07-17T02:47:32Z</time>
      </trkpt>
      <trkpt lat="45.75686" lon="6.5742">
        <ele>1536</ele>
        <time>2022-07-17T02:47:34Z</time>
      </trkpt>
      <trkpt lat="45.75687" lon="6.5742">
        <ele>1536</ele>
        <time>2022-07-17T02:47:36Z</time>
      </trkpt>
      <trkpt lat="45.7569" lon="6.57419">
        <ele>1536</ele>
        <time>2022-07-17T02:47:38Z</time>
      </trkpt>
      <trkpt lat="45.75692" lon="6.5742">
        <ele>1536</ele>
        <time>2022-07-17T02:47:40Z</time>
      </trkpt>
      <trkpt lat="45.75695" lon="6.5742">
        <ele>1536</ele>
        <time>2022-07-17T02:47:42Z</time>
      </trkpt>
      <trkpt lat="45.75697" lon="6.5742">
        <ele>1535</ele>
        <time>2022-07-17T02:47:43Z</time>
      </trkpt>
      <trkpt lat="45.757" lon="6.57419">
        <ele>1536</ele>
        <time>2022-07-17T02:47:45Z</time>
      </trkpt>
      <trkpt lat="45.75701" lon="6.57418">
        <ele>1536</ele>
        <time>2022-07-17T02:47:46Z</time>
      </trkpt>
      <trkpt lat="45.75702" lon="6.57417">
        <ele>1536</ele>
        <time>2022-07-17T02:47:47Z</time>
      </trkpt>
      <trkpt lat="45.75703" lon="6.57416">
        <ele>1536</ele>
        <time>2022-07-17T02:47:48Z</time>
      </trkpt>
      <trkpt lat="45.75704" lon="6.57415">
        <ele>1536</ele>
        <time>2022-07-17T02:47:49Z</time>
      </trkpt>
      <trkpt lat="45.75705" lon="6.57414">
        <ele>1536</ele>
        <time>2022-07-17T02:47:50Z</time>
      </trkpt>
      <trkpt lat="45.75706" lon="6.57413">
        <ele>1536</ele>
        <time>2022-07-17T02:47:51Z</time>
      </trkpt>
      <trkpt lat="45.75707" lon="6.57412">
        <ele>1536</ele>
        <time>2022-07-17T02:47:52Z</time>
      </trkpt>
      <trkpt lat="45.7571" lon="6.5741">
        <ele>1536</ele>
        <time>2022-07-17T02:47:54Z</time>
      </trkpt>
      <trkpt lat="45.75711" lon="6.57409">
        <ele>1536</ele>
        <time>2022-07-17T02:47:57Z</time>
      </trkpt>
      <trkpt lat="45.75714" lon="6.57411">
        <ele>1537</ele>
        <time>2022-07-17T02:47:59Z</time>
      </trkpt>
      <trkpt lat="45.75716" lon="6.5741">
        <ele>1537</ele>
        <time>2022-07-17T02:48:01Z</time>
      </trkpt>
      <trkpt lat="45.75718" lon="6.57407">
        <ele>1538</ele>
        <time>2022-07-17T02:48:04Z</time>
      </trkpt>
      <trkpt lat="45.7572" lon="6.57406">
        <ele>1538</ele>
        <time>2022-07-17T02:48:07Z</time>
      </trkpt>
      <trkpt lat="45.75722" lon="6.57405">
        <ele>1539</ele>
        <time>2022-07-17T02:48:10Z</time>
      </trkpt>
      <trkpt lat="45.75723" lon="6.57402">
        <ele>1540</ele>
        <time>2022-07-17T02:48:14Z</time>
      </trkpt>
      <trkpt lat="45.75724" lon="6.574">
        <ele>1541</ele>
        <time>2022-07-17T02:48:16Z</time>
      </trkpt>
      <trkpt lat="45.75725" lon="6.57397">
        <ele>1541</ele>
        <time>2022-07-17T02:48:18Z</time>
      </trkpt>
      <trkpt lat="45.75725" lon="6.57395">
        <ele>1542</ele>
        <time>2022-07-17T02:48:22Z</time>
      </trkpt>
      <trkpt lat="45.75726" lon="6.57392">
        <ele>1542</ele>
        <time>2022-07-17T02:48:26Z</time>
      </trkpt>
      <trkpt lat="45.75728" lon="6.57391">
        <ele>1543</ele>
        <time>2022-07-17T02:48:28Z</time>
      </trkpt>
      <trkpt lat="45.7573" lon="6.57389">
        <ele>1544</ele>
        <time>2022-07-17T02:48:31Z</time>
      </trkpt>
      <trkpt lat="45.75731" lon="6.57387">
        <ele>1545</ele>
        <time>2022-07-17T02:48:34Z</time>
      </trkpt>
      <trkpt lat="45.75733" lon="6.57385">
        <ele>1545</ele>
        <time>2022-07-17T02:48:36Z</time>
      </trkpt>
      <trkpt lat="45.75734" lon="6.57382">
        <ele>1546</ele>
        <time>2022-07-17T02:48:39Z</time>
      </trkpt>
      <trkpt lat="45.75734" lon="6.57379">
        <ele>1546</ele>
        <time>2022-07-17T02:48:42Z</time>
      </trkpt>
      <trkpt lat="45.75735" lon="6.57377">
        <ele>1547</ele>
        <time>2022-07-17T02:48:45Z</time>
      </trkpt>
      <trkpt lat="45.75738" lon="6.57377">
        <ele>1547</ele>
        <time>2022-07-17T02:48:47Z</time>
      </trkpt>
      <trkpt lat="45.7574" lon="6.57376">
        <ele>1547</ele>
        <time>2022-07-17T02:48:49Z</time>
      </trkpt>
      <trkpt lat="45.75742" lon="6.57375">
        <ele>1547</ele>
        <time>2022-07-17T02:48:51Z</time>
      </trkpt>
      <trkpt lat="45.75744" lon="6.57374">
        <ele>1548</ele>
        <time>2022-07-17T02:48:54Z</time>
      </trkpt>
      <trkpt lat="45.75746" lon="6.57373">
        <ele>1549</ele>
        <time>2022-07-17T02:48:57Z</time>
      </trkpt>
      <trkpt lat="45.75749" lon="6.57373">
        <ele>1549</ele>
        <time>2022-07-17T02:48:59Z</time>
      </trkpt>
      <trkpt lat="45.7575" lon="6.57372">
        <ele>1550</ele>
        <time>2022-07-17T02:49:01Z</time>
      </trkpt>
      <trkpt lat="45.75753" lon="6.57371">
        <ele>1550</ele>
        <time>2022-07-17T02:49:03Z</time>
      </trkpt>
      <trkpt lat="45.75754" lon="6.57369">
        <ele>1551</ele>
        <time>2022-07-17T02:49:07Z</time>
      </trkpt>
      <trkpt lat="45.75755" lon="6.57366">
        <ele>1552</ele>
        <time>2022-07-17T02:49:11Z</time>
      </trkpt>
      <trkpt lat="45.75755" lon="6.57364">
        <ele>1552</ele>
        <time>2022-07-17T02:49:13Z</time>
      </trkpt>
      <trkpt lat="45.75756" lon="6.57361">
        <ele>1552</ele>
        <time>2022-07-17T02:49:16Z</time>
      </trkpt>
      <trkpt lat="45.75758" lon="6.5736">
        <ele>1552</ele>
        <time>2022-07-17T02:49:19Z</time>
      </trkpt>
      <trkpt lat="45.7576" lon="6.57359">
        <ele>1553</ele>
        <time>2022-07-17T02:49:22Z</time>
      </trkpt>
      <trkpt lat="45.75762" lon="6.57356">
        <ele>1554</ele>
        <time>2022-07-17T02:49:25Z</time>
      </trkpt>
      <trkpt lat="45.75763" lon="6.57354">
        <ele>1554</ele>
        <time>2022-07-17T02:49:28Z</time>
      </trkpt>
      <trkpt lat="45.75764" lon="6.57352">
        <ele>1555</ele>
        <time>2022-07-17T02:49:30Z</time>
      </trkpt>
      <trkpt lat="45.75766" lon="6.5735">
        <ele>1556</ele>
        <time>2022-07-17T02:49:35Z</time>
      </trkpt>
      <trkpt lat="45.75767" lon="6.57348">
        <ele>1556</ele>
        <time>2022-07-17T02:49:37Z</time>
      </trkpt>
      <trkpt lat="45.75769" lon="6.57346">
        <ele>1556</ele>
        <time>2022-07-17T02:49:41Z</time>
      </trkpt>
      <trkpt lat="45.7577" lon="6.57344">
        <ele>1557</ele>
        <time>2022-07-17T02:49:45Z</time>
      </trkpt>
      <trkpt lat="45.75771" lon="6.5734">
        <ele>1558</ele>
        <time>2022-07-17T02:49:49Z</time>
      </trkpt>
      <trkpt lat="45.75773" lon="6.57339">
        <ele>1558</ele>
        <time>2022-07-17T02:49:52Z</time>
      </trkpt>
      <trkpt lat="45.75773" lon="6.57339">
        <ele>1561</ele>
        <time>2022-07-17T02:50:01Z</time>
      </trkpt>
      <trkpt lat="45.75771" lon="6.5734">
        <ele>1562</ele>
        <time>2022-07-17T02:50:07Z</time>
      </trkpt>
      <trkpt lat="45.75769" lon="6.5734">
        <ele>1564</ele>
        <time>2022-07-17T02:50:16Z</time>
      </trkpt>
      <trkpt lat="45.75767" lon="6.57341">
        <ele>1565</ele>
        <time>2022-07-17T02:50:19Z</time>
      </trkpt>
      <trkpt lat="45.75765" lon="6.57342">
        <ele>1565</ele>
        <time>2022-07-17T02:50:24Z</time>
      </trkpt>
      <trkpt lat="45.75763" lon="6.57343">
        <ele>1566</ele>
        <time>2022-07-17T02:50:29Z</time>
      </trkpt>
      <trkpt lat="45.75761" lon="6.57343">
        <ele>1567</ele>
        <time>2022-07-17T02:50:32Z</time>
      </trkpt>
      <trkpt lat="45.75759" lon="6.57345">
        <ele>1567</ele>
        <time>2022-07-17T02:50:35Z</time>
      </trkpt>
      <trkpt lat="45.75756" lon="6.57346">
        <ele>1567</ele>
        <time>2022-07-17T02:50:38Z</time>
      </trkpt>
      <trkpt lat="45.75755" lon="6.57344">
        <ele>1567</ele>
        <time>2022-07-17T02:50:40Z</time>
      </trkpt>
      <trkpt lat="45.75754" lon="6.57341">
        <ele>1568</ele>
        <time>2022-07-17T02:50:42Z</time>
      </trkpt>
      <trkpt lat="45.75755" lon="6.57338">
        <ele>1568</ele>
        <time>2022-07-17T02:50:46Z</time>
      </trkpt>
      <trkpt lat="45.75756" lon="6.57335">
        <ele>1569</ele>
        <time>2022-07-17T02:50:50Z</time>
      </trkpt>
      <trkpt lat="45.75756" lon="6.57332">
        <ele>1570</ele>
        <time>2022-07-17T02:50:53Z</time>
      </trkpt>
      <trkpt lat="45.75756" lon="6.57329">
        <ele>1571</ele>
        <time>2022-07-17T02:50:56Z</time>
      </trkpt>
      <trkpt lat="45.75756" lon="6.57327">
        <ele>1572</ele>
        <time>2022-07-17T02:51:01Z</time>
      </trkpt>
      <trkpt lat="45.75757" lon="6.57324">
        <ele>1573</ele>
        <time>2022-07-17T02:51:04Z</time>
      </trkpt>
      <trkpt lat="45.75758" lon="6.57322">
        <ele>1574</ele>
        <time>2022-07-17T02:51:07Z</time>
      </trkpt>
      <trkpt lat="45.75759" lon="6.57319">
        <ele>1574</ele>
        <time>2022-07-17T02:51:10Z</time>
      </trkpt>
      <trkpt lat="45.7576" lon="6.57316">
        <ele>1574</ele>
        <time>2022-07-17T02:51:13Z</time>
      </trkpt>
      <trkpt lat="45.75761" lon="6.57313">
        <ele>1574</ele>
        <time>2022-07-17T02:51:16Z</time>
      </trkpt>
      <trkpt lat="45.75763" lon="6.57311">
        <ele>1575</ele>
        <time>2022-07-17T02:51:19Z</time>
      </trkpt>
      <trkpt lat="45.75764" lon="6.57308">
        <ele>1575</ele>
        <time>2022-07-17T02:51:22Z</time>
      </trkpt>
      <trkpt lat="45.75765" lon="6.57305">
        <ele>1575</ele>
        <time>2022-07-17T02:51:24Z</time>
      </trkpt>
      <trkpt lat="45.75766" lon="6.57301">
        <ele>1575</ele>
        <time>2022-07-17T02:51:26Z</time>
      </trkpt>
      <trkpt lat="45.75767" lon="6.57299">
        <ele>1575</ele>
        <time>2022-07-17T02:51:28Z</time>
      </trkpt>
      <trkpt lat="45.75769" lon="6.57297">
        <ele>1575</ele>
        <time>2022-07-17T02:51:30Z</time>
      </trkpt>
      <trkpt lat="45.75771" lon="6.57295">
        <ele>1574</ele>
        <time>2022-07-17T02:51:32Z</time>
      </trkpt>
      <trkpt lat="45.75774" lon="6.57294">
        <ele>1575</ele>
        <time>2022-07-17T02:51:34Z</time>
      </trkpt>
      <trkpt lat="45.75775" lon="6.5729">
        <ele>1575</ele>
        <time>2022-07-17T02:51:36Z</time>
      </trkpt>
      <trkpt lat="45.75776" lon="6.57288">
        <ele>1575</ele>
        <time>2022-07-17T02:51:38Z</time>
      </trkpt>
      <trkpt lat="45.75778" lon="6.57287">
        <ele>1575</ele>
        <time>2022-07-17T02:51:41Z</time>
      </trkpt>
      <trkpt lat="45.75779" lon="6.57284">
        <ele>1575</ele>
        <time>2022-07-17T02:51:44Z</time>
      </trkpt>
      <trkpt lat="45.75779" lon="6.57281">
        <ele>1576</ele>
        <time>2022-07-17T02:51:47Z</time>
      </trkpt>
      <trkpt lat="45.75779" lon="6.57279">
        <ele>1577</ele>
        <time>2022-07-17T02:51:51Z</time>
      </trkpt>
      <trkpt lat="45.75779" lon="6.57276">
        <ele>1577</ele>
        <time>2022-07-17T02:51:53Z</time>
      </trkpt>
      <trkpt lat="45.7578" lon="6.57273">
        <ele>1578</ele>
        <time>2022-07-17T02:51:57Z</time>
      </trkpt>
      <trkpt lat="45.75779" lon="6.57271">
        <ele>1580</ele>
        <time>2022-07-17T02:52:02Z</time>
      </trkpt>
      <trkpt lat="45.7578" lon="6.57267">
        <ele>1580</ele>
        <time>2022-07-17T02:52:06Z</time>
      </trkpt>
      <trkpt lat="45.75781" lon="6.57265">
        <ele>1581</ele>
        <time>2022-07-17T02:52:08Z</time>
      </trkpt>
      <trkpt lat="45.75783" lon="6.57264">
        <ele>1581</ele>
        <time>2022-07-17T02:52:10Z</time>
      </trkpt>
      <trkpt lat="45.75785" lon="6.57263">
        <ele>1581</ele>
        <time>2022-07-17T02:52:12Z</time>
      </trkpt>
      <trkpt lat="45.75784" lon="6.57265">
        <ele>1582</ele>
        <time>2022-07-17T02:52:24Z</time>
      </trkpt>
      <trkpt lat="45.75782" lon="6.57265">
        <ele>1582</ele>
        <time>2022-07-17T02:52:26Z</time>
      </trkpt>
      <trkpt lat="45.7578" lon="6.57265">
        <ele>1583</ele>
        <time>2022-07-17T02:52:29Z</time>
      </trkpt>
      <trkpt lat="45.75778" lon="6.57265">
        <ele>1583</ele>
        <time>2022-07-17T02:52:33Z</time>
      </trkpt>
      <trkpt lat="45.75776" lon="6.57266">
        <ele>1584</ele>
        <time>2022-07-17T02:52:35Z</time>
      </trkpt>
      <trkpt lat="45.75773" lon="6.57267">
        <ele>1584</ele>
        <time>2022-07-17T02:52:37Z</time>
      </trkpt>
      <trkpt lat="45.75771" lon="6.57269">
        <ele>1584</ele>
        <time>2022-07-17T02:52:39Z</time>
      </trkpt>
      <trkpt lat="45.75769" lon="6.57271">
        <ele>1584</ele>
        <time>2022-07-17T02:52:41Z</time>
      </trkpt>
      <trkpt lat="45.75767" lon="6.57272">
        <ele>1585</ele>
        <time>2022-07-17T02:52:43Z</time>
      </trkpt>
      <trkpt lat="45.75765" lon="6.57272">
        <ele>1586</ele>
        <time>2022-07-17T02:52:46Z</time>
      </trkpt>
      <trkpt lat="45.75763" lon="6.57271">
        <ele>1587</ele>
        <time>2022-07-17T02:52:50Z</time>
      </trkpt>
      <trkpt lat="45.75761" lon="6.57272">
        <ele>1587</ele>
        <time>2022-07-17T02:52:53Z</time>
      </trkpt>
      <trkpt lat="45.75759" lon="6.57272">
        <ele>1589</ele>
        <time>2022-07-17T02:52:57Z</time>
      </trkpt>
      <trkpt lat="45.75757" lon="6.57273">
        <ele>1588</ele>
        <time>2022-07-17T02:53:00Z</time>
      </trkpt>
      <trkpt lat="45.75755" lon="6.57275">
        <ele>1588</ele>
        <time>2022-07-17T02:53:03Z</time>
      </trkpt>
      <trkpt lat="45.75753" lon="6.57276">
        <ele>1589</ele>
        <time>2022-07-17T02:53:06Z</time>
      </trkpt>
      <trkpt lat="45.75751" lon="6.57277">
        <ele>1589</ele>
        <time>2022-07-17T02:53:08Z</time>
      </trkpt>
      <trkpt lat="45.75749" lon="6.57278">
        <ele>1589</ele>
        <time>2022-07-17T02:53:10Z</time>
      </trkpt>
      <trkpt lat="45.75747" lon="6.57279">
        <ele>1589</ele>
        <time>2022-07-17T02:53:12Z</time>
      </trkpt>
      <trkpt lat="45.75745" lon="6.5728">
        <ele>1589</ele>
        <time>2022-07-17T02:53:14Z</time>
      </trkpt>
      <trkpt lat="45.75742" lon="6.57279">
        <ele>1588</ele>
        <time>2022-07-17T02:53:16Z</time>
      </trkpt>
      <trkpt lat="45.75739" lon="6.57278">
        <ele>1589</ele>
        <time>2022-07-17T02:53:18Z</time>
      </trkpt>
      <trkpt lat="45.75737" lon="6.57277">
        <ele>1589</ele>
        <time>2022-07-17T02:53:20Z</time>
      </trkpt>
      <trkpt lat="45.75735" lon="6.57276">
        <ele>1589</ele>
        <time>2022-07-17T02:53:22Z</time>
      </trkpt>
      <trkpt lat="45.75733" lon="6.57274">
        <ele>1589</ele>
        <time>2022-07-17T02:53:24Z</time>
      </trkpt>
      <trkpt lat="45.75731" lon="6.57272">
        <ele>1589</ele>
        <time>2022-07-17T02:53:26Z</time>
      </trkpt>
      <trkpt lat="45.7573" lon="6.57269">
        <ele>1589</ele>
        <time>2022-07-17T02:53:28Z</time>
      </trkpt>
      <trkpt lat="45.75729" lon="6.57267">
        <ele>1590</ele>
        <time>2022-07-17T02:53:30Z</time>
      </trkpt>
      <trkpt lat="45.75728" lon="6.57263">
        <ele>1590</ele>
        <time>2022-07-17T02:53:32Z</time>
      </trkpt>
      <trkpt lat="45.75729" lon="6.5726">
        <ele>1590</ele>
        <time>2022-07-17T02:53:34Z</time>
      </trkpt>
      <trkpt lat="45.75729" lon="6.57257">
        <ele>1590</ele>
        <time>2022-07-17T02:53:36Z</time>
      </trkpt>
      <trkpt lat="45.7573" lon="6.57255">
        <ele>1590</ele>
        <time>2022-07-17T02:53:38Z</time>
      </trkpt>
      <trkpt lat="45.7573" lon="6.57252">
        <ele>1591</ele>
        <time>2022-07-17T02:53:40Z</time>
      </trkpt>
      <trkpt lat="45.75731" lon="6.57248">
        <ele>1591</ele>
        <time>2022-07-17T02:53:43Z</time>
      </trkpt>
      <trkpt lat="45.75731" lon="6.57246">
        <ele>1591</ele>
        <time>2022-07-17T02:53:46Z</time>
      </trkpt>
      <trkpt lat="45.75732" lon="6.57242">
        <ele>1592</ele>
        <time>2022-07-17T02:53:49Z</time>
      </trkpt>
      <trkpt lat="45.75733" lon="6.57239">
        <ele>1592</ele>
        <time>2022-07-17T02:53:52Z</time>
      </trkpt>
      <trkpt lat="45.75734" lon="6.57237">
        <ele>1593</ele>
        <time>2022-07-17T02:53:55Z</time>
      </trkpt>
      <trkpt lat="45.75736" lon="6.57235">
        <ele>1593</ele>
        <time>2022-07-17T02:53:58Z</time>
      </trkpt>
      <trkpt lat="45.75737" lon="6.57233">
        <ele>1594</ele>
        <time>2022-07-17T02:54:01Z</time>
      </trkpt>
      <trkpt lat="45.75738" lon="6.5723">
        <ele>1594</ele>
        <time>2022-07-17T02:54:04Z</time>
      </trkpt>
      <trkpt lat="45.7574" lon="6.57228">
        <ele>1595</ele>
        <time>2022-07-17T02:54:07Z</time>
      </trkpt>
      <trkpt lat="45.75742" lon="6.57227">
        <ele>1595</ele>
        <time>2022-07-17T02:54:11Z</time>
      </trkpt>
      <trkpt lat="45.75744" lon="6.57227">
        <ele>1596</ele>
        <time>2022-07-17T02:54:14Z</time>
      </trkpt>
      <trkpt lat="45.75746" lon="6.57226">
        <ele>1596</ele>
        <time>2022-07-17T02:54:17Z</time>
      </trkpt>
      <trkpt lat="45.75748" lon="6.57225">
        <ele>1596</ele>
        <time>2022-07-17T02:54:20Z</time>
      </trkpt>
      <trkpt lat="45.75751" lon="6.57224">
        <ele>1596</ele>
        <time>2022-07-17T02:54:23Z</time>
      </trkpt>
      <trkpt lat="45.75753" lon="6.57223">
        <ele>1597</ele>
        <time>2022-07-17T02:54:26Z</time>
      </trkpt>
      <trkpt lat="45.75755" lon="6.57223">
        <ele>1597</ele>
        <time>2022-07-17T02:54:29Z</time>
      </trkpt>
      <trkpt lat="45.75758" lon="6.57223">
        <ele>1597</ele>
        <time>2022-07-17T02:54:32Z</time>
      </trkpt>
      <trkpt lat="45.7576" lon="6.57222">
        <ele>1598</ele>
        <time>2022-07-17T02:54:35Z</time>
      </trkpt>
      <trkpt lat="45.75762" lon="6.57222">
        <ele>1598</ele>
        <time>2022-07-17T02:54:38Z</time>
      </trkpt>
      <trkpt lat="45.75765" lon="6.57222">
        <ele>1599</ele>
        <time>2022-07-17T02:54:41Z</time>
      </trkpt>
      <trkpt lat="45.75767" lon="6.57221">
        <ele>1600</ele>
        <time>2022-07-17T02:54:44Z</time>
      </trkpt>
      <trkpt lat="45.75769" lon="6.5722">
        <ele>1600</ele>
        <time>2022-07-17T02:54:47Z</time>
      </trkpt>
      <trkpt lat="45.75771" lon="6.57219">
        <ele>1600</ele>
        <time>2022-07-17T02:54:50Z</time>
      </trkpt>
      <trkpt lat="45.75772" lon="6.57218">
        <ele>1601</ele>
        <time>2022-07-17T02:54:53Z</time>
      </trkpt>
      <trkpt lat="45.75773" lon="6.57215">
        <ele>1601</ele>
        <time>2022-07-17T02:54:56Z</time>
      </trkpt>
      <trkpt lat="45.75773" lon="6.57212">
        <ele>1602</ele>
        <time>2022-07-17T02:55:00Z</time>
      </trkpt>
      <trkpt lat="45.75772" lon="6.57209">
        <ele>1602</ele>
        <time>2022-07-17T02:55:03Z</time>
      </trkpt>
      <trkpt lat="45.75771" lon="6.57207">
        <ele>1602</ele>
        <time>2022-07-17T02:55:06Z</time>
      </trkpt>
      <trkpt lat="45.75768" lon="6.57206">
        <ele>1602</ele>
        <time>2022-07-17T02:55:09Z</time>
      </trkpt>
      <trkpt lat="45.75766" lon="6.57205">
        <ele>1603</ele>
        <time>2022-07-17T02:55:12Z</time>
      </trkpt>
      <trkpt lat="45.75764" lon="6.57205">
        <ele>1603</ele>
        <time>2022-07-17T02:55:14Z</time>
      </trkpt>
      <trkpt lat="45.75761" lon="6.57206">
        <ele>1603</ele>
        <time>2022-07-17T02:55:17Z</time>
      </trkpt>
      <trkpt lat="45.75759" lon="6.57206">
        <ele>1603</ele>
        <time>2022-07-17T02:55:20Z</time>
      </trkpt>
      <trkpt lat="45.75757" lon="6.57206">
        <ele>1603</ele>
        <time>2022-07-17T02:55:22Z</time>
      </trkpt>
      <trkpt lat="45.75755" lon="6.57206">
        <ele>1603</ele>
        <time>2022-07-17T02:55:24Z</time>
      </trkpt>
      <trkpt lat="45.75753" lon="6.57206">
        <ele>1604</ele>
        <time>2022-07-17T02:55:27Z</time>
      </trkpt>
      <trkpt lat="45.7575" lon="6.57205">
        <ele>1604</ele>
        <time>2022-07-17T02:55:30Z</time>
      </trkpt>
      <trkpt lat="45.75748" lon="6.57204">
        <ele>1605</ele>
        <time>2022-07-17T02:55:33Z</time>
      </trkpt>
      <trkpt lat="45.75746" lon="6.57204">
        <ele>1605</ele>
        <time>2022-07-17T02:55:36Z</time>
      </trkpt>
      <trkpt lat="45.75744" lon="6.57203">
        <ele>1606</ele>
        <time>2022-07-17T02:55:39Z</time>
      </trkpt>
      <trkpt lat="45.75741" lon="6.57202">
        <ele>1606</ele>
        <time>2022-07-17T02:55:42Z</time>
      </trkpt>
      <trkpt lat="45.7574" lon="6.57201">
        <ele>1606</ele>
        <time>2022-07-17T02:55:44Z</time>
      </trkpt>
      <trkpt lat="45.75738" lon="6.572">
        <ele>1607</ele>
        <time>2022-07-17T02:55:46Z</time>
      </trkpt>
      <trkpt lat="45.75736" lon="6.57199">
        <ele>1607</ele>
        <time>2022-07-17T02:55:48Z</time>
      </trkpt>
      <trkpt lat="45.75734" lon="6.57198">
        <ele>1607</ele>
        <time>2022-07-17T02:55:51Z</time>
      </trkpt>
      <trkpt lat="45.75732" lon="6.57197">
        <ele>1608</ele>
        <time>2022-07-17T02:55:53Z</time>
      </trkpt>
      <trkpt lat="45.75729" lon="6.57197">
        <ele>1608</ele>
        <time>2022-07-17T02:55:55Z</time>
      </trkpt>
      <trkpt lat="45.75727" lon="6.57197">
        <ele>1608</ele>
        <time>2022-07-17T02:55:57Z</time>
      </trkpt>
      <trkpt lat="45.75726" lon="6.57196">
        <ele>1608</ele>
        <time>2022-07-17T02:55:59Z</time>
      </trkpt>
      <trkpt lat="45.75724" lon="6.57196">
        <ele>1608</ele>
        <time>2022-07-17T02:56:01Z</time>
      </trkpt>
      <trkpt lat="45.75721" lon="6.57195">
        <ele>1609</ele>
        <time>2022-07-17T02:56:04Z</time>
      </trkpt>
      <trkpt lat="45.75719" lon="6.57195">
        <ele>1609</ele>
        <time>2022-07-17T02:56:06Z</time>
      </trkpt>
      <trkpt lat="45.75717" lon="6.57194">
        <ele>1609</ele>
        <time>2022-07-17T02:56:08Z</time>
      </trkpt>
      <trkpt lat="45.75715" lon="6.57194">
        <ele>1609</ele>
        <time>2022-07-17T02:56:10Z</time>
      </trkpt>
      <trkpt lat="45.75714" lon="6.57194">
        <ele>1609</ele>
        <time>2022-07-17T02:56:12Z</time>
      </trkpt>
      <trkpt lat="45.75711" lon="6.57194">
        <ele>1609</ele>
        <time>2022-07-17T02:56:14Z</time>
      </trkpt>
      <trkpt lat="45.75709" lon="6.57194">
        <ele>1610</ele>
        <time>2022-07-17T02:56:16Z</time>
      </trkpt>
      <trkpt lat="45.75707" lon="6.57194">
        <ele>1610</ele>
        <time>2022-07-17T02:56:18Z</time>
      </trkpt>
      <trkpt lat="45.75705" lon="6.57194">
        <ele>1610</ele>
        <time>2022-07-17T02:56:20Z</time>
      </trkpt>
      <trkpt lat="45.75704" lon="6.57194">
        <ele>1610</ele>
        <time>2022-07-17T02:56:22Z</time>
      </trkpt>
      <trkpt lat="45.75701" lon="6.57194">
        <ele>1610</ele>
        <time>2022-07-17T02:56:24Z</time>
      </trkpt>
      <trkpt lat="45.75699" lon="6.57195">
        <ele>1610</ele>
        <time>2022-07-17T02:56:26Z</time>
      </trkpt>
      <trkpt lat="45.75697" lon="6.57195">
        <ele>1611</ele>
        <time>2022-07-17T02:56:28Z</time>
      </trkpt>
      <trkpt lat="45.75695" lon="6.57195">
        <ele>1611</ele>
        <time>2022-07-17T02:56:30Z</time>
      </trkpt>
      <trkpt lat="45.75693" lon="6.57195">
        <ele>1611</ele>
        <time>2022-07-17T02:56:32Z</time>
      </trkpt>
      <trkpt lat="45.75691" lon="6.57195">
        <ele>1611</ele>
        <time>2022-07-17T02:56:34Z</time>
      </trkpt>
      <trkpt lat="45.75689" lon="6.57195">
        <ele>1611</ele>
        <time>2022-07-17T02:56:36Z</time>
      </trkpt>
      <trkpt lat="45.75686" lon="6.57195">
        <ele>1611</ele>
        <time>2022-07-17T02:56:38Z</time>
      </trkpt>
      <trkpt lat="45.75684" lon="6.57195">
        <ele>1612</ele>
        <time>2022-07-17T02:56:40Z</time>
      </trkpt>
      <trkpt lat="45.75682" lon="6.57195">
        <ele>1612</ele>
        <time>2022-07-17T02:56:42Z</time>
      </trkpt>
      <trkpt lat="45.7568" lon="6.57195">
        <ele>1612</ele>
        <time>2022-07-17T02:56:44Z</time>
      </trkpt>
      <trkpt lat="45.75678" lon="6.57194">
        <ele>1612</ele>
        <time>2022-07-17T02:56:46Z</time>
      </trkpt>
      <trkpt lat="45.75676" lon="6.57194">
        <ele>1612</ele>
        <time>2022-07-17T02:56:48Z</time>
      </trkpt>
      <trkpt lat="45.75673" lon="6.57194">
        <ele>1613</ele>
        <time>2022-07-17T02:56:51Z</time>
      </trkpt>
      <trkpt lat="45.75672" lon="6.57193">
        <ele>1613</ele>
        <time>2022-07-17T02:56:53Z</time>
      </trkpt>
      <trkpt lat="45.7567" lon="6.57193">
        <ele>1613</ele>
        <time>2022-07-17T02:56:56Z</time>
      </trkpt>
      <trkpt lat="45.75668" lon="6.57192">
        <ele>1614</ele>
        <time>2022-07-17T02:56:58Z</time>
      </trkpt>
      <trkpt lat="45.75666" lon="6.57192">
        <ele>1614</ele>
        <time>2022-07-17T02:57:00Z</time>
      </trkpt>
      <trkpt lat="45.75664" lon="6.57191">
        <ele>1614</ele>
        <time>2022-07-17T02:57:02Z</time>
      </trkpt>
      <trkpt lat="45.75662" lon="6.5719">
        <ele>1614</ele>
        <time>2022-07-17T02:57:04Z</time>
      </trkpt>
      <trkpt lat="45.7566" lon="6.5719">
        <ele>1614</ele>
        <time>2022-07-17T02:57:06Z</time>
      </trkpt>
      <trkpt lat="45.75658" lon="6.57189">
        <ele>1615</ele>
        <time>2022-07-17T02:57:08Z</time>
      </trkpt>
      <trkpt lat="45.75656" lon="6.57189">
        <ele>1615</ele>
        <time>2022-07-17T02:57:10Z</time>
      </trkpt>
      <trkpt lat="45.75654" lon="6.57188">
        <ele>1615</ele>
        <time>2022-07-17T02:57:12Z</time>
      </trkpt>
      <trkpt lat="45.75652" lon="6.57187">
        <ele>1616</ele>
        <time>2022-07-17T02:57:14Z</time>
      </trkpt>
      <trkpt lat="45.7565" lon="6.57187">
        <ele>1616</ele>
        <time>2022-07-17T02:57:16Z</time>
      </trkpt>
      <trkpt lat="45.75648" lon="6.57186">
        <ele>1616</ele>
        <time>2022-07-17T02:57:18Z</time>
      </trkpt>
      <trkpt lat="45.75646" lon="6.57185">
        <ele>1616</ele>
        <time>2022-07-17T02:57:20Z</time>
      </trkpt>
      <trkpt lat="45.75644" lon="6.57185">
        <ele>1616</ele>
        <time>2022-07-17T02:57:22Z</time>
      </trkpt>
      <trkpt lat="45.75642" lon="6.57184">
        <ele>1616</ele>
        <time>2022-07-17T02:57:24Z</time>
      </trkpt>
      <trkpt lat="45.7564" lon="6.57184">
        <ele>1616</ele>
        <time>2022-07-17T02:57:26Z</time>
      </trkpt>
      <trkpt lat="45.75638" lon="6.57183">
        <ele>1616</ele>
        <time>2022-07-17T02:57:28Z</time>
      </trkpt>
      <trkpt lat="45.75635" lon="6.57183">
        <ele>1616</ele>
        <time>2022-07-17T02:57:31Z</time>
      </trkpt>
      <trkpt lat="45.75633" lon="6.57182">
        <ele>1617</ele>
        <time>2022-07-17T02:57:33Z</time>
      </trkpt>
      <trkpt lat="45.75631" lon="6.57182">
        <ele>1617</ele>
        <time>2022-07-17T02:57:35Z</time>
      </trkpt>
      <trkpt lat="45.75629" lon="6.57181">
        <ele>1617</ele>
        <time>2022-07-17T02:57:37Z</time>
      </trkpt>
      <trkpt lat="45.75627" lon="6.5718">
        <ele>1617</ele>
        <time>2022-07-17T02:57:39Z</time>
      </trkpt>
      <trkpt lat="45.75625" lon="6.57179">
        <ele>1618</ele>
        <time>2022-07-17T02:57:41Z</time>
      </trkpt>
      <trkpt lat="45.75624" lon="6.57177">
        <ele>1618</ele>
        <time>2022-07-17T02:57:43Z</time>
      </trkpt>
      <trkpt lat="45.75622" lon="6.57176">
        <ele>1618</ele>
        <time>2022-07-17T02:57:45Z</time>
      </trkpt>
      <trkpt lat="45.7562" lon="6.57175">
        <ele>1618</ele>
        <time>2022-07-17T02:57:47Z</time>
      </trkpt>
      <trkpt lat="45.75618" lon="6.57173">
        <ele>1619</ele>
        <time>2022-07-17T02:57:50Z</time>
      </trkpt>
      <trkpt lat="45.75616" lon="6.57171">
        <ele>1620</ele>
        <time>2022-07-17T02:57:53Z</time>
      </trkpt>
      <trkpt lat="45.75614" lon="6.57168">
        <ele>1620</ele>
        <time>2022-07-17T02:57:56Z</time>
      </trkpt>
      <trkpt lat="45.75613" lon="6.57165">
        <ele>1621</ele>
        <time>2022-07-17T02:57:59Z</time>
      </trkpt>
      <trkpt lat="45.75612" lon="6.57162">
        <ele>1621</ele>
        <time>2022-07-17T02:58:02Z</time>
      </trkpt>
      <trkpt lat="45.75613" lon="6.57158">
        <ele>1622</ele>
        <time>2022-07-17T02:58:05Z</time>
      </trkpt>
      <trkpt lat="45.75615" lon="6.57157">
        <ele>1622</ele>
        <time>2022-07-17T02:58:08Z</time>
      </trkpt>
      <trkpt lat="45.75617" lon="6.57155">
        <ele>1622</ele>
        <time>2022-07-17T02:58:11Z</time>
      </trkpt>
      <trkpt lat="45.75619" lon="6.57152">
        <ele>1623</ele>
        <time>2022-07-17T02:58:14Z</time>
      </trkpt>
      <trkpt lat="45.7562" lon="6.57151">
        <ele>1624</ele>
        <time>2022-07-17T02:58:17Z</time>
      </trkpt>
      <trkpt lat="45.75622" lon="6.57149">
        <ele>1624</ele>
        <time>2022-07-17T02:58:20Z</time>
      </trkpt>
      <trkpt lat="45.75624" lon="6.57148">
        <ele>1624</ele>
        <time>2022-07-17T02:58:22Z</time>
      </trkpt>
      <trkpt lat="45.75626" lon="6.57146">
        <ele>1624</ele>
        <time>2022-07-17T02:58:25Z</time>
      </trkpt>
      <trkpt lat="45.75628" lon="6.57145">
        <ele>1625</ele>
        <time>2022-07-17T02:58:28Z</time>
      </trkpt>
      <trkpt lat="45.7563" lon="6.57143">
        <ele>1626</ele>
        <time>2022-07-17T02:58:31Z</time>
      </trkpt>
      <trkpt lat="45.75632" lon="6.57142">
        <ele>1627</ele>
        <time>2022-07-17T02:58:34Z</time>
      </trkpt>
      <trkpt lat="45.75634" lon="6.57141">
        <ele>1627</ele>
        <time>2022-07-17T02:58:37Z</time>
      </trkpt>
      <trkpt lat="45.75636" lon="6.57139">
        <ele>1627</ele>
        <time>2022-07-17T02:58:40Z</time>
      </trkpt>
      <trkpt lat="45.75638" lon="6.57139">
        <ele>1627</ele>
        <time>2022-07-17T02:58:43Z</time>
      </trkpt>
      <trkpt lat="45.7564" lon="6.57138">
        <ele>1628</ele>
        <time>2022-07-17T02:58:46Z</time>
      </trkpt>
      <trkpt lat="45.75643" lon="6.57137">
        <ele>1628</ele>
        <time>2022-07-17T02:58:49Z</time>
      </trkpt>
      <trkpt lat="45.75645" lon="6.57137">
        <ele>1629</ele>
        <time>2022-07-17T02:58:52Z</time>
      </trkpt>
      <trkpt lat="45.75647" lon="6.57136">
        <ele>1630</ele>
        <time>2022-07-17T02:58:55Z</time>
      </trkpt>
      <trkpt lat="45.75649" lon="6.57136">
        <ele>1630</ele>
        <time>2022-07-17T02:58:58Z</time>
      </trkpt>
      <trkpt lat="45.75651" lon="6.57136">
        <ele>1630</ele>
        <time>2022-07-17T02:59:02Z</time>
      </trkpt>
      <trkpt lat="45.75653" lon="6.57136">
        <ele>1630</ele>
        <time>2022-07-17T02:59:05Z</time>
      </trkpt>
      <trkpt lat="45.75655" lon="6.57136">
        <ele>1630</ele>
        <time>2022-07-17T02:59:08Z</time>
      </trkpt>
      <trkpt lat="45.75657" lon="6.57135">
        <ele>1631</ele>
        <time>2022-07-17T02:59:11Z</time>
      </trkpt>
      <trkpt lat="45.75659" lon="6.57135">
        <ele>1631</ele>
        <time>2022-07-17T02:59:14Z</time>
      </trkpt>
      <trkpt lat="45.75662" lon="6.57135">
        <ele>1631</ele>
        <time>2022-07-17T02:59:17Z</time>
      </trkpt>
      <trkpt lat="45.75664" lon="6.57134">
        <ele>1632</ele>
        <time>2022-07-17T02:59:20Z</time>
      </trkpt>
      <trkpt lat="45.75666" lon="6.57133">
        <ele>1633</ele>
        <time>2022-07-17T02:59:23Z</time>
      </trkpt>
      <trkpt lat="45.75668" lon="6.57133">
        <ele>1633</ele>
        <time>2022-07-17T02:59:26Z</time>
      </trkpt>
      <trkpt lat="45.7567" lon="6.57133">
        <ele>1634</ele>
        <time>2022-07-17T02:59:29Z</time>
      </trkpt>
      <trkpt lat="45.75672" lon="6.57132">
        <ele>1635</ele>
        <time>2022-07-17T02:59:32Z</time>
      </trkpt>
      <trkpt lat="45.75674" lon="6.57132">
        <ele>1635</ele>
        <time>2022-07-17T02:59:35Z</time>
      </trkpt>
      <trkpt lat="45.75676" lon="6.57131">
        <ele>1635</ele>
        <time>2022-07-17T02:59:38Z</time>
      </trkpt>
      <trkpt lat="45.75678" lon="6.5713">
        <ele>1636</ele>
        <time>2022-07-17T02:59:41Z</time>
      </trkpt>
      <trkpt lat="45.75681" lon="6.5713">
        <ele>1636</ele>
        <time>2022-07-17T02:59:44Z</time>
      </trkpt>
      <trkpt lat="45.75683" lon="6.57129">
        <ele>1637</ele>
        <time>2022-07-17T02:59:47Z</time>
      </trkpt>
      <trkpt lat="45.75685" lon="6.57129">
        <ele>1638</ele>
        <time>2022-07-17T02:59:50Z</time>
      </trkpt>
      <trkpt lat="45.75687" lon="6.57128">
        <ele>1638</ele>
        <time>2022-07-17T02:59:52Z</time>
      </trkpt>
      <trkpt lat="45.75689" lon="6.57128">
        <ele>1639</ele>
        <time>2022-07-17T02:59:55Z</time>
      </trkpt>
      <trkpt lat="45.75691" lon="6.57127">
        <ele>1640</ele>
        <time>2022-07-17T02:59:58Z</time>
      </trkpt>
      <trkpt lat="45.75693" lon="6.57125">
        <ele>1640</ele>
        <time>2022-07-17T03:00:01Z</time>
      </trkpt>
      <trkpt lat="45.75695" lon="6.57124">
        <ele>1640</ele>
        <time>2022-07-17T03:00:04Z</time>
      </trkpt>
      <trkpt lat="45.75697" lon="6.57122">
        <ele>1641</ele>
        <time>2022-07-17T03:00:07Z</time>
      </trkpt>
      <trkpt lat="45.75699" lon="6.57121">
        <ele>1641</ele>
        <time>2022-07-17T03:00:10Z</time>
      </trkpt>
      <trkpt lat="45.75701" lon="6.5712">
        <ele>1642</ele>
        <time>2022-07-17T03:00:13Z</time>
      </trkpt>
      <trkpt lat="45.75702" lon="6.57118">
        <ele>1642</ele>
        <time>2022-07-17T03:00:16Z</time>
      </trkpt>
      <trkpt lat="45.75705" lon="6.57117">
        <ele>1643</ele>
        <time>2022-07-17T03:00:19Z</time>
      </trkpt>
      <trkpt lat="45.75706" lon="6.57116">
        <ele>1643</ele>
        <time>2022-07-17T03:00:22Z</time>
      </trkpt>
      <trkpt lat="45.75708" lon="6.57114">
        <ele>1644</ele>
        <time>2022-07-17T03:00:25Z</time>
      </trkpt>
      <trkpt lat="45.7571" lon="6.57113">
        <ele>1645</ele>
        <time>2022-07-17T03:00:28Z</time>
      </trkpt>
      <trkpt lat="45.75712" lon="6.57111">
        <ele>1646</ele>
        <time>2022-07-17T03:00:31Z</time>
      </trkpt>
      <trkpt lat="45.75714" lon="6.5711">
        <ele>1646</ele>
        <time>2022-07-17T03:00:34Z</time>
      </trkpt>
      <trkpt lat="45.75716" lon="6.57109">
        <ele>1646</ele>
        <time>2022-07-17T03:00:37Z</time>
      </trkpt>
      <trkpt lat="45.75717" lon="6.57107">
        <ele>1647</ele>
        <time>2022-07-17T03:00:40Z</time>
      </trkpt>
      <trkpt lat="45.75719" lon="6.57105">
        <ele>1648</ele>
        <time>2022-07-17T03:00:43Z</time>
      </trkpt>
      <trkpt lat="45.75721" lon="6.57104">
        <ele>1648</ele>
        <time>2022-07-17T03:00:46Z</time>
      </trkpt>
      <trkpt lat="45.75723" lon="6.57102">
        <ele>1649</ele>
        <time>2022-07-17T03:00:50Z</time>
      </trkpt>
      <trkpt lat="45.75724" lon="6.571">
        <ele>1649</ele>
        <time>2022-07-17T03:00:53Z</time>
      </trkpt>
      <trkpt lat="45.75726" lon="6.57098">
        <ele>1650</ele>
        <time>2022-07-17T03:00:56Z</time>
      </trkpt>
      <trkpt lat="45.75728" lon="6.57096">
        <ele>1650</ele>
        <time>2022-07-17T03:00:59Z</time>
      </trkpt>
      <trkpt lat="45.75729" lon="6.57093">
        <ele>1651</ele>
        <time>2022-07-17T03:01:02Z</time>
      </trkpt>
      <trkpt lat="45.7573" lon="6.57091">
        <ele>1651</ele>
        <time>2022-07-17T03:01:05Z</time>
      </trkpt>
      <trkpt lat="45.75731" lon="6.57088">
        <ele>1652</ele>
        <time>2022-07-17T03:01:08Z</time>
      </trkpt>
      <trkpt lat="45.75733" lon="6.57086">
        <ele>1652</ele>
        <time>2022-07-17T03:01:11Z</time>
      </trkpt>
      <trkpt lat="45.75734" lon="6.57084">
        <ele>1653</ele>
        <time>2022-07-17T03:01:14Z</time>
      </trkpt>
      <trkpt lat="45.75735" lon="6.57081">
        <ele>1653</ele>
        <time>2022-07-17T03:01:17Z</time>
      </trkpt>
      <trkpt lat="45.75736" lon="6.57077">
        <ele>1654</ele>
        <time>2022-07-17T03:01:20Z</time>
      </trkpt>
      <trkpt lat="45.75737" lon="6.57074">
        <ele>1654</ele>
        <time>2022-07-17T03:01:23Z</time>
      </trkpt>
      <trkpt lat="45.75738" lon="6.57071">
        <ele>1655</ele>
        <time>2022-07-17T03:01:26Z</time>
      </trkpt>
      <trkpt lat="45.75739" lon="6.57068">
        <ele>1655</ele>
        <time>2022-07-17T03:01:29Z</time>
      </trkpt>
      <trkpt lat="45.7574" lon="6.57065">
        <ele>1655</ele>
        <time>2022-07-17T03:01:32Z</time>
      </trkpt>
      <trkpt lat="45.75741" lon="6.57062">
        <ele>1656</ele>
        <time>2022-07-17T03:01:34Z</time>
      </trkpt>
      <trkpt lat="45.75741" lon="6.57059">
        <ele>1656</ele>
        <time>2022-07-17T03:01:37Z</time>
      </trkpt>
      <trkpt lat="45.75742" lon="6.57056">
        <ele>1657</ele>
        <time>2022-07-17T03:01:40Z</time>
      </trkpt>
      <trkpt lat="45.75742" lon="6.57052">
        <ele>1657</ele>
        <time>2022-07-17T03:01:43Z</time>
      </trkpt>
      <trkpt lat="45.75742" lon="6.57049">
        <ele>1658</ele>
        <time>2022-07-17T03:01:46Z</time>
      </trkpt>
      <trkpt lat="45.75742" lon="6.57045">
        <ele>1658</ele>
        <time>2022-07-17T03:01:49Z</time>
      </trkpt>
      <trkpt lat="45.75741" lon="6.57042">
        <ele>1660</ele>
        <time>2022-07-17T03:01:52Z</time>
      </trkpt>
      <trkpt lat="45.7574" lon="6.57039">
        <ele>1660</ele>
        <time>2022-07-17T03:01:55Z</time>
      </trkpt>
      <trkpt lat="45.75738" lon="6.57037">
        <ele>1660</ele>
        <time>2022-07-17T03:01:58Z</time>
      </trkpt>
      <trkpt lat="45.75736" lon="6.57036">
        <ele>1660</ele>
        <time>2022-07-17T03:02:01Z</time>
      </trkpt>
      <trkpt lat="45.75734" lon="6.57035">
        <ele>1660</ele>
        <time>2022-07-17T03:02:03Z</time>
      </trkpt>
      <trkpt lat="45.75731" lon="6.57034">
        <ele>1662</ele>
        <time>2022-07-17T03:02:06Z</time>
      </trkpt>
      <trkpt lat="45.75729" lon="6.57033">
        <ele>1662</ele>
        <time>2022-07-17T03:02:09Z</time>
      </trkpt>
      <trkpt lat="45.75727" lon="6.57032">
        <ele>1662</ele>
        <time>2022-07-17T03:02:12Z</time>
      </trkpt>
      <trkpt lat="45.75725" lon="6.57031">
        <ele>1663</ele>
        <time>2022-07-17T03:02:15Z</time>
      </trkpt>
      <trkpt lat="45.75723" lon="6.5703">
        <ele>1664</ele>
        <time>2022-07-17T03:02:18Z</time>
      </trkpt>
      <trkpt lat="45.75721" lon="6.57028">
        <ele>1664</ele>
        <time>2022-07-17T03:02:21Z</time>
      </trkpt>
      <trkpt lat="45.75719" lon="6.57026">
        <ele>1664</ele>
        <time>2022-07-17T03:02:24Z</time>
      </trkpt>
      <trkpt lat="45.75718" lon="6.57023">
        <ele>1665</ele>
        <time>2022-07-17T03:02:27Z</time>
      </trkpt>
      <trkpt lat="45.75716" lon="6.5702">
        <ele>1666</ele>
        <time>2022-07-17T03:02:30Z</time>
      </trkpt>
      <trkpt lat="45.75715" lon="6.57018">
        <ele>1666</ele>
        <time>2022-07-17T03:02:33Z</time>
      </trkpt>
      <trkpt lat="45.75714" lon="6.57015">
        <ele>1666</ele>
        <time>2022-07-17T03:02:36Z</time>
      </trkpt>
      <trkpt lat="45.75713" lon="6.57011">
        <ele>1666</ele>
        <time>2022-07-17T03:02:39Z</time>
      </trkpt>
      <trkpt lat="45.75712" lon="6.57008">
        <ele>1667</ele>
        <time>2022-07-17T03:02:42Z</time>
      </trkpt>
      <trkpt lat="45.75711" lon="6.57005">
        <ele>1667</ele>
        <time>2022-07-17T03:02:44Z</time>
      </trkpt>
      <trkpt lat="45.7571" lon="6.57002">
        <ele>1667</ele>
        <time>2022-07-17T03:02:47Z</time>
      </trkpt>
      <trkpt lat="45.75709" lon="6.56999">
        <ele>1668</ele>
        <time>2022-07-17T03:02:50Z</time>
      </trkpt>
      <trkpt lat="45.75707" lon="6.56996">
        <ele>1668</ele>
        <time>2022-07-17T03:02:53Z</time>
      </trkpt>
      <trkpt lat="45.75706" lon="6.56993">
        <ele>1669</ele>
        <time>2022-07-17T03:02:56Z</time>
      </trkpt>
      <trkpt lat="45.75707" lon="6.56989">
        <ele>1670</ele>
        <time>2022-07-17T03:02:59Z</time>
      </trkpt>
      <trkpt lat="45.75707" lon="6.56986">
        <ele>1670</ele>
        <time>2022-07-17T03:03:02Z</time>
      </trkpt>
      <trkpt lat="45.75707" lon="6.56983">
        <ele>1671</ele>
        <time>2022-07-17T03:03:05Z</time>
      </trkpt>
      <trkpt lat="45.75706" lon="6.5698">
        <ele>1671</ele>
        <time>2022-07-17T03:03:08Z</time>
      </trkpt>
      <trkpt lat="45.75706" lon="6.56977">
        <ele>1672</ele>
        <time>2022-07-17T03:03:11Z</time>
      </trkpt>
      <trkpt lat="45.75706" lon="6.56974">
        <ele>1672</ele>
        <time>2022-07-17T03:03:14Z</time>
      </trkpt>
      <trkpt lat="45.75705" lon="6.56971">
        <ele>1673</ele>
        <time>2022-07-17T03:03:17Z</time>
      </trkpt>
      <trkpt lat="45.75704" lon="6.56968">
        <ele>1673</ele>
        <time>2022-07-17T03:03:20Z</time>
      </trkpt>
      <trkpt lat="45.75704" lon="6.56965">
        <ele>1674</ele>
        <time>2022-07-17T03:03:23Z</time>
      </trkpt>
      <trkpt lat="45.75703" lon="6.56962">
        <ele>1675</ele>
        <time>2022-07-17T03:03:27Z</time>
      </trkpt>
      <trkpt lat="45.75702" lon="6.56959">
        <ele>1675</ele>
        <time>2022-07-17T03:03:30Z</time>
      </trkpt>
      <trkpt lat="45.75701" lon="6.56955">
        <ele>1675</ele>
        <time>2022-07-17T03:03:33Z</time>
      </trkpt>
      <trkpt lat="45.757" lon="6.56952">
        <ele>1676</ele>
        <time>2022-07-17T03:03:36Z</time>
      </trkpt>
      <trkpt lat="45.757" lon="6.56949">
        <ele>1678</ele>
        <time>2022-07-17T03:03:39Z</time>
      </trkpt>
      <trkpt lat="45.75699" lon="6.56947">
        <ele>1678</ele>
        <time>2022-07-17T03:03:42Z</time>
      </trkpt>
      <trkpt lat="45.75698" lon="6.56944">
        <ele>1679</ele>
        <time>2022-07-17T03:03:46Z</time>
      </trkpt>
      <trkpt lat="45.75697" lon="6.56941">
        <ele>1679</ele>
        <time>2022-07-17T03:03:50Z</time>
      </trkpt>
      <trkpt lat="45.75696" lon="6.56938">
        <ele>1680</ele>
        <time>2022-07-17T03:03:54Z</time>
      </trkpt>
      <trkpt lat="45.75695" lon="6.56936">
        <ele>1681</ele>
        <time>2022-07-17T03:03:59Z</time>
      </trkpt>
      <trkpt lat="45.75694" lon="6.56933">
        <ele>1682</ele>
        <time>2022-07-17T03:04:03Z</time>
      </trkpt>
      <trkpt lat="45.75694" lon="6.5693">
        <ele>1682</ele>
        <time>2022-07-17T03:04:08Z</time>
      </trkpt>
      <trkpt lat="45.75693" lon="6.56928">
        <ele>1683</ele>
        <time>2022-07-17T03:04:13Z</time>
      </trkpt>
      <trkpt lat="45.75692" lon="6.56925">
        <ele>1684</ele>
        <time>2022-07-17T03:04:18Z</time>
      </trkpt>
      <trkpt lat="45.75691" lon="6.56922">
        <ele>1685</ele>
        <time>2022-07-17T03:04:22Z</time>
      </trkpt>
      <trkpt lat="45.7569" lon="6.56919">
        <ele>1686</ele>
        <time>2022-07-17T03:04:26Z</time>
      </trkpt>
      <trkpt lat="45.75689" lon="6.56916">
        <ele>1686</ele>
        <time>2022-07-17T03:04:30Z</time>
      </trkpt>
      <trkpt lat="45.75688" lon="6.56914">
        <ele>1687</ele>
        <time>2022-07-17T03:04:33Z</time>
      </trkpt>
      <trkpt lat="45.75687" lon="6.56911">
        <ele>1688</ele>
        <time>2022-07-17T03:04:36Z</time>
      </trkpt>
      <trkpt lat="45.75686" lon="6.56909">
        <ele>1688</ele>
        <time>2022-07-17T03:04:39Z</time>
      </trkpt>
      <trkpt lat="45.75685" lon="6.56906">
        <ele>1688</ele>
        <time>2022-07-17T03:04:42Z</time>
      </trkpt>
      <trkpt lat="45.75684" lon="6.56903">
        <ele>1689</ele>
        <time>2022-07-17T03:04:46Z</time>
      </trkpt>
      <trkpt lat="45.75683" lon="6.56901">
        <ele>1689</ele>
        <time>2022-07-17T03:04:49Z</time>
      </trkpt>
      <trkpt lat="45.75683" lon="6.56898">
        <ele>1690</ele>
        <time>2022-07-17T03:04:52Z</time>
      </trkpt>
      <trkpt lat="45.75682" lon="6.56896">
        <ele>1691</ele>
        <time>2022-07-17T03:04:55Z</time>
      </trkpt>
      <trkpt lat="45.75681" lon="6.56893">
        <ele>1692</ele>
        <time>2022-07-17T03:04:58Z</time>
      </trkpt>
      <trkpt lat="45.7568" lon="6.5689">
        <ele>1693</ele>
        <time>2022-07-17T03:05:02Z</time>
      </trkpt>
      <trkpt lat="45.75679" lon="6.56887">
        <ele>1694</ele>
        <time>2022-07-17T03:05:06Z</time>
      </trkpt>
      <trkpt lat="45.75678" lon="6.56885">
        <ele>1694</ele>
        <time>2022-07-17T03:05:10Z</time>
      </trkpt>
      <trkpt lat="45.75678" lon="6.56882">
        <ele>1695</ele>
        <time>2022-07-17T03:05:13Z</time>
      </trkpt>
      <trkpt lat="45.75676" lon="6.5688">
        <ele>1695</ele>
        <time>2022-07-17T03:05:17Z</time>
      </trkpt>
      <trkpt lat="45.75675" lon="6.56878">
        <ele>1697</ele>
        <time>2022-07-17T03:05:22Z</time>
      </trkpt>
      <trkpt lat="45.75674" lon="6.56876">
        <ele>1697</ele>
        <time>2022-07-17T03:05:25Z</time>
      </trkpt>
      <trkpt lat="45.75672" lon="6.56873">
        <ele>1698</ele>
        <time>2022-07-17T03:05:29Z</time>
      </trkpt>
      <trkpt lat="45.75671" lon="6.5687">
        <ele>1699</ele>
        <time>2022-07-17T03:05:33Z</time>
      </trkpt>
      <trkpt lat="45.7567" lon="6.56867">
        <ele>1699</ele>
        <time>2022-07-17T03:05:37Z</time>
      </trkpt>
      <trkpt lat="45.75669" lon="6.56865">
        <ele>1699</ele>
        <time>2022-07-17T03:05:40Z</time>
      </trkpt>
      <trkpt lat="45.75668" lon="6.56862">
        <ele>1699</ele>
        <time>2022-07-17T03:05:43Z</time>
      </trkpt>
      <trkpt lat="45.75667" lon="6.5686">
        <ele>1701</ele>
        <time>2022-07-17T03:05:47Z</time>
      </trkpt>
      <trkpt lat="45.75665" lon="6.56857">
        <ele>1701</ele>
        <time>2022-07-17T03:05:52Z</time>
      </trkpt>
      <trkpt lat="45.75664" lon="6.56855">
        <ele>1702</ele>
        <time>2022-07-17T03:05:55Z</time>
      </trkpt>
      <trkpt lat="45.75663" lon="6.56853">
        <ele>1702</ele>
        <time>2022-07-17T03:05:58Z</time>
      </trkpt>
      <trkpt lat="45.75662" lon="6.5685">
        <ele>1703</ele>
        <time>2022-07-17T03:06:01Z</time>
      </trkpt>
      <trkpt lat="45.75661" lon="6.56847">
        <ele>1703</ele>
        <time>2022-07-17T03:06:04Z</time>
      </trkpt>
      <trkpt lat="45.75661" lon="6.56844">
        <ele>1704</ele>
        <time>2022-07-17T03:06:08Z</time>
      </trkpt>
      <trkpt lat="45.75661" lon="6.56841">
        <ele>1705</ele>
        <time>2022-07-17T03:06:12Z</time>
      </trkpt>
      <trkpt lat="45.7566" lon="6.56838">
        <ele>1706</ele>
        <time>2022-07-17T03:06:16Z</time>
      </trkpt>
      <trkpt lat="45.7566" lon="6.56835">
        <ele>1707</ele>
        <time>2022-07-17T03:06:24Z</time>
      </trkpt>
      <trkpt lat="45.7566" lon="6.56835">
        <ele>1707</ele>
        <time>2022-07-17T03:06:27Z</time>
      </trkpt>
      <trkpt lat="45.75659" lon="6.56833">
        <ele>1708</ele>
        <time>2022-07-17T03:06:38Z</time>
      </trkpt>
      <trkpt lat="45.75659" lon="6.5683">
        <ele>1708</ele>
        <time>2022-07-17T03:06:40Z</time>
      </trkpt>
      <trkpt lat="45.75658" lon="6.56827">
        <ele>1708</ele>
        <time>2022-07-17T03:06:43Z</time>
      </trkpt>
      <trkpt lat="45.75657" lon="6.56824">
        <ele>1708</ele>
        <time>2022-07-17T03:06:45Z</time>
      </trkpt>
      <trkpt lat="45.75656" lon="6.56821">
        <ele>1709</ele>
        <time>2022-07-17T03:06:48Z</time>
      </trkpt>
      <trkpt lat="45.75655" lon="6.56819">
        <ele>1710</ele>
        <time>2022-07-17T03:06:51Z</time>
      </trkpt>
      <trkpt lat="45.75655" lon="6.56816">
        <ele>1710</ele>
        <time>2022-07-17T03:06:54Z</time>
      </trkpt>
      <trkpt lat="45.75654" lon="6.56813">
        <ele>1711</ele>
        <time>2022-07-17T03:06:57Z</time>
      </trkpt>
      <trkpt lat="45.75653" lon="6.56811">
        <ele>1712</ele>
        <time>2022-07-17T03:07:00Z</time>
      </trkpt>
      <trkpt lat="45.75652" lon="6.56808">
        <ele>1712</ele>
        <time>2022-07-17T03:07:03Z</time>
      </trkpt>
      <trkpt lat="45.75651" lon="6.56805">
        <ele>1713</ele>
        <time>2022-07-17T03:07:07Z</time>
      </trkpt>
      <trkpt lat="45.7565" lon="6.56802">
        <ele>1713</ele>
        <time>2022-07-17T03:07:10Z</time>
      </trkpt>
      <trkpt lat="45.75649" lon="6.56799">
        <ele>1714</ele>
        <time>2022-07-17T03:07:14Z</time>
      </trkpt>
      <trkpt lat="45.75648" lon="6.56797">
        <ele>1715</ele>
        <time>2022-07-17T03:07:17Z</time>
      </trkpt>
      <trkpt lat="45.75647" lon="6.56794">
        <ele>1715</ele>
        <time>2022-07-17T03:07:20Z</time>
      </trkpt>
      <trkpt lat="45.75646" lon="6.56791">
        <ele>1716</ele>
        <time>2022-07-17T03:07:23Z</time>
      </trkpt>
      <trkpt lat="45.75646" lon="6.56788">
        <ele>1717</ele>
        <time>2022-07-17T03:07:26Z</time>
      </trkpt>
      <trkpt lat="45.75645" lon="6.56784">
        <ele>1717</ele>
        <time>2022-07-17T03:07:29Z</time>
      </trkpt>
      <trkpt lat="45.75644" lon="6.56781">
        <ele>1717</ele>
        <time>2022-07-17T03:07:32Z</time>
      </trkpt>
      <trkpt lat="45.75643" lon="6.56779">
        <ele>1719</ele>
        <time>2022-07-17T03:07:35Z</time>
      </trkpt>
      <trkpt lat="45.75643" lon="6.56776">
        <ele>1719</ele>
        <time>2022-07-17T03:07:38Z</time>
      </trkpt>
      <trkpt lat="45.75642" lon="6.56773">
        <ele>1719</ele>
        <time>2022-07-17T03:07:41Z</time>
      </trkpt>
      <trkpt lat="45.75641" lon="6.5677">
        <ele>1720</ele>
        <time>2022-07-17T03:07:44Z</time>
      </trkpt>
      <trkpt lat="45.75641" lon="6.56767">
        <ele>1720</ele>
        <time>2022-07-17T03:07:47Z</time>
      </trkpt>
      <trkpt lat="45.7564" lon="6.56764">
        <ele>1721</ele>
        <time>2022-07-17T03:07:50Z</time>
      </trkpt>
      <trkpt lat="45.7564" lon="6.56761">
        <ele>1721</ele>
        <time>2022-07-17T03:07:53Z</time>
      </trkpt>
      <trkpt lat="45.75639" lon="6.56758">
        <ele>1722</ele>
        <time>2022-07-17T03:07:56Z</time>
      </trkpt>
      <trkpt lat="45.75638" lon="6.56754">
        <ele>1722</ele>
        <time>2022-07-17T03:07:59Z</time>
      </trkpt>
      <trkpt lat="45.75638" lon="6.56751">
        <ele>1722</ele>
        <time>2022-07-17T03:08:02Z</time>
      </trkpt>
      <trkpt lat="45.75637" lon="6.56749">
        <ele>1723</ele>
        <time>2022-07-17T03:08:05Z</time>
      </trkpt>
      <trkpt lat="45.75636" lon="6.56746">
        <ele>1723</ele>
        <time>2022-07-17T03:08:08Z</time>
      </trkpt>
      <trkpt lat="45.75636" lon="6.56743">
        <ele>1724</ele>
        <time>2022-07-17T03:08:11Z</time>
      </trkpt>
      <trkpt lat="45.75635" lon="6.5674">
        <ele>1724</ele>
        <time>2022-07-17T03:08:14Z</time>
      </trkpt>
      <trkpt lat="45.75635" lon="6.56737">
        <ele>1725</ele>
        <time>2022-07-17T03:08:17Z</time>
      </trkpt>
      <trkpt lat="45.75635" lon="6.56734">
        <ele>1725</ele>
        <time>2022-07-17T03:08:20Z</time>
      </trkpt>
      <trkpt lat="45.75635" lon="6.56731">
        <ele>1725</ele>
        <time>2022-07-17T03:08:23Z</time>
      </trkpt>
      <trkpt lat="45.75635" lon="6.56727">
        <ele>1726</ele>
        <time>2022-07-17T03:08:26Z</time>
      </trkpt>
      <trkpt lat="45.75635" lon="6.56724">
        <ele>1726</ele>
        <time>2022-07-17T03:08:29Z</time>
      </trkpt>
      <trkpt lat="45.75635" lon="6.56721">
        <ele>1727</ele>
        <time>2022-07-17T03:08:32Z</time>
      </trkpt>
      <trkpt lat="45.75635" lon="6.56717">
        <ele>1727</ele>
        <time>2022-07-17T03:08:35Z</time>
      </trkpt>
      <trkpt lat="45.75635" lon="6.56714">
        <ele>1727</ele>
        <time>2022-07-17T03:08:38Z</time>
      </trkpt>
      <trkpt lat="45.75635" lon="6.56711">
        <ele>1728</ele>
        <time>2022-07-17T03:08:41Z</time>
      </trkpt>
      <trkpt lat="45.75634" lon="6.56708">
        <ele>1728</ele>
        <time>2022-07-17T03:08:44Z</time>
      </trkpt>
      <trkpt lat="45.75634" lon="6.56705">
        <ele>1728</ele>
        <time>2022-07-17T03:08:46Z</time>
      </trkpt>
      <trkpt lat="45.75634" lon="6.56701">
        <ele>1728</ele>
        <time>2022-07-17T03:08:49Z</time>
      </trkpt>
      <trkpt lat="45.75635" lon="6.56698">
        <ele>1728</ele>
        <time>2022-07-17T03:08:52Z</time>
      </trkpt>
      <trkpt lat="45.75635" lon="6.56695">
        <ele>1728</ele>
        <time>2022-07-17T03:08:54Z</time>
      </trkpt>
      <trkpt lat="45.75635" lon="6.56692">
        <ele>1729</ele>
        <time>2022-07-17T03:08:57Z</time>
      </trkpt>
      <trkpt lat="45.75635" lon="6.56688">
        <ele>1730</ele>
        <time>2022-07-17T03:09:00Z</time>
      </trkpt>
      <trkpt lat="45.75635" lon="6.56685">
        <ele>1730</ele>
        <time>2022-07-17T03:09:02Z</time>
      </trkpt>
      <trkpt lat="45.75635" lon="6.56682">
        <ele>1731</ele>
        <time>2022-07-17T03:09:05Z</time>
      </trkpt>
      <trkpt lat="45.75635" lon="6.56678">
        <ele>1731</ele>
        <time>2022-07-17T03:09:08Z</time>
      </trkpt>
      <trkpt lat="45.75635" lon="6.56675">
        <ele>1731</ele>
        <time>2022-07-17T03:09:11Z</time>
      </trkpt>
      <trkpt lat="45.75635" lon="6.56672">
        <ele>1732</ele>
        <time>2022-07-17T03:09:14Z</time>
      </trkpt>
      <trkpt lat="45.75635" lon="6.56669">
        <ele>1733</ele>
        <time>2022-07-17T03:09:17Z</time>
      </trkpt>
      <trkpt lat="45.75634" lon="6.56666">
        <ele>1733</ele>
        <time>2022-07-17T03:09:20Z</time>
      </trkpt>
      <trkpt lat="45.75633" lon="6.56663">
        <ele>1733</ele>
        <time>2022-07-17T03:09:23Z</time>
      </trkpt>
      <trkpt lat="45.75632" lon="6.5666">
        <ele>1733</ele>
        <time>2022-07-17T03:09:25Z</time>
      </trkpt>
      <trkpt lat="45.75631" lon="6.56657">
        <ele>1734</ele>
        <time>2022-07-17T03:09:28Z</time>
      </trkpt>
      <trkpt lat="45.75629" lon="6.56654">
        <ele>1734</ele>
        <time>2022-07-17T03:09:30Z</time>
      </trkpt>
      <trkpt lat="45.75628" lon="6.56651">
        <ele>1734</ele>
        <time>2022-07-17T03:09:33Z</time>
      </trkpt>
      <trkpt lat="45.75626" lon="6.56649">
        <ele>1734</ele>
        <time>2022-07-17T03:09:35Z</time>
      </trkpt>
      <trkpt lat="45.75625" lon="6.56646">
        <ele>1735</ele>
        <time>2022-07-17T03:09:38Z</time>
      </trkpt>
      <trkpt lat="45.75623" lon="6.56644">
        <ele>1735</ele>
        <time>2022-07-17T03:09:41Z</time>
      </trkpt>
      <trkpt lat="45.75622" lon="6.56641">
        <ele>1736</ele>
        <time>2022-07-17T03:09:44Z</time>
      </trkpt>
      <trkpt lat="45.75621" lon="6.56639">
        <ele>1736</ele>
        <time>2022-07-17T03:09:47Z</time>
      </trkpt>
      <trkpt lat="45.7562" lon="6.56636">
        <ele>1737</ele>
        <time>2022-07-17T03:09:50Z</time>
      </trkpt>
      <trkpt lat="45.75619" lon="6.56634">
        <ele>1738</ele>
        <time>2022-07-17T03:09:53Z</time>
      </trkpt>
      <trkpt lat="45.75618" lon="6.56632">
        <ele>1738</ele>
        <time>2022-07-17T03:09:56Z</time>
      </trkpt>
      <trkpt lat="45.75616" lon="6.56629">
        <ele>1739</ele>
        <time>2022-07-17T03:09:59Z</time>
      </trkpt>
      <trkpt lat="45.75615" lon="6.56626">
        <ele>1739</ele>
        <time>2022-07-17T03:10:01Z</time>
      </trkpt>
      <trkpt lat="45.75614" lon="6.56623">
        <ele>1740</ele>
        <time>2022-07-17T03:10:04Z</time>
      </trkpt>
      <trkpt lat="45.75614" lon="6.5662">
        <ele>1740</ele>
        <time>2022-07-17T03:10:07Z</time>
      </trkpt>
      <trkpt lat="45.75613" lon="6.56617">
        <ele>1740</ele>
        <time>2022-07-17T03:10:10Z</time>
      </trkpt>
      <trkpt lat="45.75613" lon="6.56614">
        <ele>1741</ele>
        <time>2022-07-17T03:10:13Z</time>
      </trkpt>
      <trkpt lat="45.75613" lon="6.5661">
        <ele>1741</ele>
        <time>2022-07-17T03:10:16Z</time>
      </trkpt>
      <trkpt lat="45.75613" lon="6.56607">
        <ele>1742</ele>
        <time>2022-07-17T03:10:19Z</time>
      </trkpt>
      <trkpt lat="45.75614" lon="6.56604">
        <ele>1743</ele>
        <time>2022-07-17T03:10:22Z</time>
      </trkpt>
      <trkpt lat="45.75614" lon="6.56601">
        <ele>1743</ele>
        <time>2022-07-17T03:10:24Z</time>
      </trkpt>
      <trkpt lat="45.75613" lon="6.56597">
        <ele>1743</ele>
        <time>2022-07-17T03:10:27Z</time>
      </trkpt>
      <trkpt lat="45.75613" lon="6.56594">
        <ele>1743</ele>
        <time>2022-07-17T03:10:30Z</time>
      </trkpt>
      <trkpt lat="45.75614" lon="6.5659">
        <ele>1743</ele>
        <time>2022-07-17T03:10:33Z</time>
      </trkpt>
      <trkpt lat="45.75614" lon="6.56588">
        <ele>1744</ele>
        <time>2022-07-17T03:10:35Z</time>
      </trkpt>
      <trkpt lat="45.75613" lon="6.56584">
        <ele>1744</ele>
        <time>2022-07-17T03:10:38Z</time>
      </trkpt>
      <trkpt lat="45.75613" lon="6.56581">
        <ele>1744</ele>
        <time>2022-07-17T03:10:40Z</time>
      </trkpt>
      <trkpt lat="45.75612" lon="6.56579">
        <ele>1745</ele>
        <time>2022-07-17T03:10:42Z</time>
      </trkpt>
      <trkpt lat="45.7561" lon="6.56576">
        <ele>1745</ele>
        <time>2022-07-17T03:10:45Z</time>
      </trkpt>
      <trkpt lat="45.75609" lon="6.56574">
        <ele>1746</ele>
        <time>2022-07-17T03:10:47Z</time>
      </trkpt>
      <trkpt lat="45.75607" lon="6.56573">
        <ele>1746</ele>
        <time>2022-07-17T03:10:49Z</time>
      </trkpt>
      <trkpt lat="45.75605" lon="6.56571">
        <ele>1746</ele>
        <time>2022-07-17T03:10:51Z</time>
      </trkpt>
      <trkpt lat="45.75603" lon="6.56569">
        <ele>1747</ele>
        <time>2022-07-17T03:10:54Z</time>
      </trkpt>
      <trkpt lat="45.75601" lon="6.56568">
        <ele>1747</ele>
        <time>2022-07-17T03:10:57Z</time>
      </trkpt>
      <trkpt lat="45.75599" lon="6.56566">
        <ele>1747</ele>
        <time>2022-07-17T03:11:00Z</time>
      </trkpt>
      <trkpt lat="45.75597" lon="6.56565">
        <ele>1748</ele>
        <time>2022-07-17T03:11:03Z</time>
      </trkpt>
      <trkpt lat="45.75595" lon="6.56564">
        <ele>1748</ele>
        <time>2022-07-17T03:11:06Z</time>
      </trkpt>
      <trkpt lat="45.75593" lon="6.56563">
        <ele>1748</ele>
        <time>2022-07-17T03:11:09Z</time>
      </trkpt>
      <trkpt lat="45.75591" lon="6.56562">
        <ele>1750</ele>
        <time>2022-07-17T03:11:12Z</time>
      </trkpt>
      <trkpt lat="45.75589" lon="6.5656">
        <ele>1750</ele>
        <time>2022-07-17T03:11:15Z</time>
      </trkpt>
      <trkpt lat="45.75587" lon="6.5656">
        <ele>1750</ele>
        <time>2022-07-17T03:11:18Z</time>
      </trkpt>
      <trkpt lat="45.75584" lon="6.56559">
        <ele>1751</ele>
        <time>2022-07-17T03:11:21Z</time>
      </trkpt>
      <trkpt lat="45.75582" lon="6.56559">
        <ele>1751</ele>
        <time>2022-07-17T03:11:24Z</time>
      </trkpt>
      <trkpt lat="45.7558" lon="6.56559">
        <ele>1752</ele>
        <time>2022-07-17T03:11:27Z</time>
      </trkpt>
      <trkpt lat="45.75578" lon="6.56559">
        <ele>1752</ele>
        <time>2022-07-17T03:11:30Z</time>
      </trkpt>
      <trkpt lat="45.75576" lon="6.56558">
        <ele>1753</ele>
        <time>2022-07-17T03:11:33Z</time>
      </trkpt>
      <trkpt lat="45.75574" lon="6.56558">
        <ele>1754</ele>
        <time>2022-07-17T03:11:36Z</time>
      </trkpt>
      <trkpt lat="45.75572" lon="6.56558">
        <ele>1754</ele>
        <time>2022-07-17T03:11:39Z</time>
      </trkpt>
      <trkpt lat="45.7557" lon="6.56559">
        <ele>1754</ele>
        <time>2022-07-17T03:11:42Z</time>
      </trkpt>
      <trkpt lat="45.75568" lon="6.56559">
        <ele>1754</ele>
        <time>2022-07-17T03:11:45Z</time>
      </trkpt>
      <trkpt lat="45.75565" lon="6.5656">
        <ele>1755</ele>
        <time>2022-07-17T03:11:48Z</time>
      </trkpt>
      <trkpt lat="45.75563" lon="6.5656">
        <ele>1755</ele>
        <time>2022-07-17T03:11:51Z</time>
      </trkpt>
      <trkpt lat="45.75561" lon="6.56561">
        <ele>1756</ele>
        <time>2022-07-17T03:11:54Z</time>
      </trkpt>
      <trkpt lat="45.75559" lon="6.56561">
        <ele>1756</ele>
        <time>2022-07-17T03:11:57Z</time>
      </trkpt>
      <trkpt lat="45.75557" lon="6.56561">
        <ele>1758</ele>
        <time>2022-07-17T03:12:00Z</time>
      </trkpt>
      <trkpt lat="45.75555" lon="6.56562">
        <ele>1758</ele>
        <time>2022-07-17T03:12:03Z</time>
      </trkpt>
      <trkpt lat="45.75553" lon="6.56563">
        <ele>1758</ele>
        <time>2022-07-17T03:12:06Z</time>
      </trkpt>
      <trkpt lat="45.75551" lon="6.56564">
        <ele>1758</ele>
        <time>2022-07-17T03:12:09Z</time>
      </trkpt>
      <trkpt lat="45.75549" lon="6.56565">
        <ele>1759</ele>
        <time>2022-07-17T03:12:12Z</time>
      </trkpt>
      <trkpt lat="45.75547" lon="6.56566">
        <ele>1759</ele>
        <time>2022-07-17T03:12:16Z</time>
      </trkpt>
      <trkpt lat="45.75545" lon="6.56566">
        <ele>1760</ele>
        <time>2022-07-17T03:12:19Z</time>
      </trkpt>
      <trkpt lat="45.75543" lon="6.56566">
        <ele>1760</ele>
        <time>2022-07-17T03:12:22Z</time>
      </trkpt>
      <trkpt lat="45.75541" lon="6.56563">
        <ele>1761</ele>
        <time>2022-07-17T03:12:25Z</time>
      </trkpt>
      <trkpt lat="45.7554" lon="6.56561">
        <ele>1761</ele>
        <time>2022-07-17T03:12:27Z</time>
      </trkpt>
      <trkpt lat="45.75539" lon="6.56558">
        <ele>1761</ele>
        <time>2022-07-17T03:12:29Z</time>
      </trkpt>
      <trkpt lat="45.75538" lon="6.56555">
        <ele>1762</ele>
        <time>2022-07-17T03:12:32Z</time>
      </trkpt>
      <trkpt lat="45.75538" lon="6.56551">
        <ele>1762</ele>
        <time>2022-07-17T03:12:35Z</time>
      </trkpt>
      <trkpt lat="45.75539" lon="6.56548">
        <ele>1762</ele>
        <time>2022-07-17T03:12:37Z</time>
      </trkpt>
      <trkpt lat="45.75539" lon="6.56545">
        <ele>1763</ele>
        <time>2022-07-17T03:12:40Z</time>
      </trkpt>
      <trkpt lat="45.75541" lon="6.56542">
        <ele>1763</ele>
        <time>2022-07-17T03:12:43Z</time>
      </trkpt>
      <trkpt lat="45.75541" lon="6.56539">
        <ele>1764</ele>
        <time>2022-07-17T03:12:46Z</time>
      </trkpt>
      <trkpt lat="45.75542" lon="6.56536">
        <ele>1764</ele>
        <time>2022-07-17T03:12:49Z</time>
      </trkpt>
      <trkpt lat="45.75544" lon="6.56533">
        <ele>1764</ele>
        <time>2022-07-17T03:12:52Z</time>
      </trkpt>
      <trkpt lat="45.75545" lon="6.5653">
        <ele>1764</ele>
        <time>2022-07-17T03:12:55Z</time>
      </trkpt>
      <trkpt lat="45.75546" lon="6.56527">
        <ele>1765</ele>
        <time>2022-07-17T03:12:58Z</time>
      </trkpt>
      <trkpt lat="45.75546" lon="6.56523">
        <ele>1765</ele>
        <time>2022-07-17T03:13:01Z</time>
      </trkpt>
      <trkpt lat="45.75545" lon="6.5652">
        <ele>1766</ele>
        <time>2022-07-17T03:13:04Z</time>
      </trkpt>
      <trkpt lat="45.75544" lon="6.56516">
        <ele>1766</ele>
        <time>2022-07-17T03:13:07Z</time>
      </trkpt>
      <trkpt lat="45.75543" lon="6.56514">
        <ele>1768</ele>
        <time>2022-07-17T03:13:10Z</time>
      </trkpt>
      <trkpt lat="45.75542" lon="6.56511">
        <ele>1768</ele>
        <time>2022-07-17T03:13:13Z</time>
      </trkpt>
      <trkpt lat="45.7554" lon="6.56508">
        <ele>1768</ele>
        <time>2022-07-17T03:13:16Z</time>
      </trkpt>
      <trkpt lat="45.75539" lon="6.56505">
        <ele>1768</ele>
        <time>2022-07-17T03:13:19Z</time>
      </trkpt>
      <trkpt lat="45.75538" lon="6.56502">
        <ele>1768</ele>
        <time>2022-07-17T03:13:21Z</time>
      </trkpt>
      <trkpt lat="45.75537" lon="6.56499">
        <ele>1769</ele>
        <time>2022-07-17T03:13:24Z</time>
      </trkpt>
      <trkpt lat="45.75537" lon="6.56495">
        <ele>1769</ele>
        <time>2022-07-17T03:13:27Z</time>
      </trkpt>
      <trkpt lat="45.75536" lon="6.56492">
        <ele>1770</ele>
        <time>2022-07-17T03:13:30Z</time>
      </trkpt>
      <trkpt lat="45.75536" lon="6.56488">
        <ele>1770</ele>
        <time>2022-07-17T03:13:33Z</time>
      </trkpt>
      <trkpt lat="45.75535" lon="6.56484">
        <ele>1771</ele>
        <time>2022-07-17T03:13:36Z</time>
      </trkpt>
      <trkpt lat="45.75535" lon="6.56481">
        <ele>1771</ele>
        <time>2022-07-17T03:13:39Z</time>
      </trkpt>
      <trkpt lat="45.75535" lon="6.56477">
        <ele>1771</ele>
        <time>2022-07-17T03:13:42Z</time>
      </trkpt>
      <trkpt lat="45.75535" lon="6.56474">
        <ele>1772</ele>
        <time>2022-07-17T03:13:45Z</time>
      </trkpt>
      <trkpt lat="45.75534" lon="6.56471">
        <ele>1773</ele>
        <time>2022-07-17T03:13:48Z</time>
      </trkpt>
      <trkpt lat="45.75534" lon="6.56468">
        <ele>1773</ele>
        <time>2022-07-17T03:13:51Z</time>
      </trkpt>
      <trkpt lat="45.75534" lon="6.56464">
        <ele>1773</ele>
        <time>2022-07-17T03:13:54Z</time>
      </trkpt>
      <trkpt lat="45.75534" lon="6.56461">
        <ele>1774</ele>
        <time>2022-07-17T03:13:57Z</time>
      </trkpt>
      <trkpt lat="45.75534" lon="6.56458">
        <ele>1774</ele>
        <time>2022-07-17T03:14:00Z</time>
      </trkpt>
      <trkpt lat="45.75533" lon="6.56456">
        <ele>1774</ele>
        <time>2022-07-17T03:14:03Z</time>
      </trkpt>
      <trkpt lat="45.75532" lon="6.56453">
        <ele>1774</ele>
        <time>2022-07-17T03:14:06Z</time>
      </trkpt>
      <trkpt lat="45.75532" lon="6.5645">
        <ele>1776</ele>
        <time>2022-07-17T03:14:10Z</time>
      </trkpt>
      <trkpt lat="45.75532" lon="6.56447">
        <ele>1776</ele>
        <time>2022-07-17T03:14:13Z</time>
      </trkpt>
      <trkpt lat="45.75532" lon="6.56444">
        <ele>1776</ele>
        <time>2022-07-17T03:14:17Z</time>
      </trkpt>
      <trkpt lat="45.75532" lon="6.5644">
        <ele>1777</ele>
        <time>2022-07-17T03:14:19Z</time>
      </trkpt>
      <trkpt lat="45.75532" lon="6.56437">
        <ele>1777</ele>
        <time>2022-07-17T03:14:22Z</time>
      </trkpt>
      <trkpt lat="45.75534" lon="6.56434">
        <ele>1777</ele>
        <time>2022-07-17T03:14:25Z</time>
      </trkpt>
      <trkpt lat="45.75535" lon="6.56432">
        <ele>1777</ele>
        <time>2022-07-17T03:14:27Z</time>
      </trkpt>
      <trkpt lat="45.75536" lon="6.5643">
        <ele>1778</ele>
        <time>2022-07-17T03:14:29Z</time>
      </trkpt>
      <trkpt lat="45.75538" lon="6.56428">
        <ele>1778</ele>
        <time>2022-07-17T03:14:31Z</time>
      </trkpt>
      <trkpt lat="45.7554" lon="6.56428">
        <ele>1779</ele>
        <time>2022-07-17T03:14:33Z</time>
      </trkpt>
      <trkpt lat="45.75543" lon="6.56428">
        <ele>1778</ele>
        <time>2022-07-17T03:14:36Z</time>
      </trkpt>
      <trkpt lat="45.75545" lon="6.56428">
        <ele>1779</ele>
        <time>2022-07-17T03:14:39Z</time>
      </trkpt>
      <trkpt lat="45.75548" lon="6.56428">
        <ele>1779</ele>
        <time>2022-07-17T03:14:42Z</time>
      </trkpt>
      <trkpt lat="45.75549" lon="6.56428">
        <ele>1779</ele>
        <time>2022-07-17T03:14:44Z</time>
      </trkpt>
      <trkpt lat="45.75552" lon="6.56427">
        <ele>1779</ele>
        <time>2022-07-17T03:14:46Z</time>
      </trkpt>
      <trkpt lat="45.75554" lon="6.56426">
        <ele>1779</ele>
        <time>2022-07-17T03:14:48Z</time>
      </trkpt>
      <trkpt lat="45.75557" lon="6.56426">
        <ele>1780</ele>
        <time>2022-07-17T03:14:50Z</time>
      </trkpt>
      <trkpt lat="45.75559" lon="6.56426">
        <ele>1781</ele>
        <time>2022-07-17T03:14:53Z</time>
      </trkpt>
      <trkpt lat="45.75562" lon="6.56426">
        <ele>1781</ele>
        <time>2022-07-17T03:14:56Z</time>
      </trkpt>
      <trkpt lat="45.75564" lon="6.56427">
        <ele>1781</ele>
        <time>2022-07-17T03:14:59Z</time>
      </trkpt>
      <trkpt lat="45.75566" lon="6.56427">
        <ele>1781</ele>
        <time>2022-07-17T03:15:01Z</time>
      </trkpt>
      <trkpt lat="45.75568" lon="6.56428">
        <ele>1781</ele>
        <time>2022-07-17T03:15:03Z</time>
      </trkpt>
      <trkpt lat="45.7557" lon="6.56428">
        <ele>1781</ele>
        <time>2022-07-17T03:15:05Z</time>
      </trkpt>
      <trkpt lat="45.7557" lon="6.56428">
        <ele>1781</ele>
        <time>2022-07-17T03:15:20Z</time>
      </trkpt>
      <trkpt lat="45.7557" lon="6.56431">
        <ele>1781</ele>
        <time>2022-07-17T03:15:21Z</time>
      </trkpt>
      <trkpt lat="45.7557" lon="6.56434">
        <ele>1782</ele>
        <time>2022-07-17T03:15:23Z</time>
      </trkpt>
      <trkpt lat="45.75569" lon="6.56437">
        <ele>1781</ele>
        <time>2022-07-17T03:15:25Z</time>
      </trkpt>
      <trkpt lat="45.75569" lon="6.56437">
        <ele>1780</ele>
        <time>2022-07-17T03:15:40Z</time>
      </trkpt>
      <trkpt lat="45.75569" lon="6.56437">
        <ele>1780</ele>
        <time>2022-07-17T03:15:56Z</time>
      </trkpt>
      <trkpt lat="45.75569" lon="6.56437">
        <ele>1781</ele>
        <time>2022-07-17T03:16:12Z</time>
      </trkpt>
      <trkpt lat="45.75569" lon="6.56437">
        <ele>1781</ele>
        <time>2022-07-17T03:16:28Z</time>
      </trkpt>
      <trkpt lat="45.75569" lon="6.56437">
        <ele>1781</ele>
        <time>2022-07-17T03:16:44Z</time>
      </trkpt>
      <trkpt lat="45.75569" lon="6.56437">
        <ele>1782</ele>
        <time>2022-07-17T03:17:00Z</time>
      </trkpt>
      <trkpt lat="45.75569" lon="6.56437">
        <ele>1782</ele>
        <time>2022-07-17T03:17:16Z</time>
      </trkpt>
      <trkpt lat="45.75569" lon="6.56437">
        <ele>1780</ele>
        <time>2022-07-17T03:17:32Z</time>
      </trkpt>
      <trkpt lat="45.75569" lon="6.56437">
        <ele>1782</ele>
        <time>2022-07-17T03:17:49Z</time>
      </trkpt>
      <trkpt lat="45.75569" lon="6.56434">
        <ele>1782</ele>
        <time>2022-07-17T03:17:50Z</time>
      </trkpt>
      <trkpt lat="45.7557" lon="6.56431">
        <ele>1782</ele>
        <time>2022-07-17T03:17:53Z</time>
      </trkpt>
      <trkpt lat="45.75572" lon="6.5643">
        <ele>1782</ele>
        <time>2022-07-17T03:17:56Z</time>
      </trkpt>
      <trkpt lat="45.75572" lon="6.5643">
        <ele>1781</ele>
        <time>2022-07-17T03:18:09Z</time>
      </trkpt>
      <trkpt lat="45.75573" lon="6.56431">
        <ele>1782</ele>
        <time>2022-07-17T03:18:24Z</time>
      </trkpt>
      <trkpt lat="45.75576" lon="6.56431">
        <ele>1782</ele>
        <time>2022-07-17T03:18:27Z</time>
      </trkpt>
      <trkpt lat="45.75577" lon="6.56431">
        <ele>1782</ele>
        <time>2022-07-17T03:18:29Z</time>
      </trkpt>
      <trkpt lat="45.75579" lon="6.56431">
        <ele>1782</ele>
        <time>2022-07-17T03:18:31Z</time>
      </trkpt>
      <trkpt lat="45.75582" lon="6.56432">
        <ele>1782</ele>
        <time>2022-07-17T03:18:34Z</time>
      </trkpt>
      <trkpt lat="45.75584" lon="6.56432">
        <ele>1784</ele>
        <time>2022-07-17T03:18:37Z</time>
      </trkpt>
      <trkpt lat="45.75587" lon="6.56432">
        <ele>1785</ele>
        <time>2022-07-17T03:18:39Z</time>
      </trkpt>
      <trkpt lat="45.75589" lon="6.56432">
        <ele>1785</ele>
        <time>2022-07-17T03:18:41Z</time>
      </trkpt>
      <trkpt lat="45.75591" lon="6.56431">
        <ele>1785</ele>
        <time>2022-07-17T03:18:44Z</time>
      </trkpt>
      <trkpt lat="45.75593" lon="6.56431">
        <ele>1785</ele>
        <time>2022-07-17T03:18:46Z</time>
      </trkpt>
      <trkpt lat="45.75595" lon="6.56429">
        <ele>1785</ele>
        <time>2022-07-17T03:18:49Z</time>
      </trkpt>
      <trkpt lat="45.75597" lon="6.56428">
        <ele>1785</ele>
        <time>2022-07-17T03:18:51Z</time>
      </trkpt>
      <trkpt lat="45.75599" lon="6.56427">
        <ele>1786</ele>
        <time>2022-07-17T03:18:54Z</time>
      </trkpt>
      <trkpt lat="45.75601" lon="6.56426">
        <ele>1787</ele>
        <time>2022-07-17T03:18:57Z</time>
      </trkpt>
      <trkpt lat="45.75603" lon="6.56426">
        <ele>1787</ele>
        <time>2022-07-17T03:18:59Z</time>
      </trkpt>
      <trkpt lat="45.75605" lon="6.56425">
        <ele>1787</ele>
        <time>2022-07-17T03:19:02Z</time>
      </trkpt>
      <trkpt lat="45.75607" lon="6.56425">
        <ele>1787</ele>
        <time>2022-07-17T03:19:04Z</time>
      </trkpt>
      <trkpt lat="45.7561" lon="6.56425">
        <ele>1789</ele>
        <time>2022-07-17T03:19:07Z</time>
      </trkpt>
      <trkpt lat="45.75612" lon="6.56424">
        <ele>1789</ele>
        <time>2022-07-17T03:19:09Z</time>
      </trkpt>
      <trkpt lat="45.75615" lon="6.56424">
        <ele>1789</ele>
        <time>2022-07-17T03:19:12Z</time>
      </trkpt>
      <trkpt lat="45.75617" lon="6.56423">
        <ele>1789</ele>
        <time>2022-07-17T03:19:15Z</time>
      </trkpt>
      <trkpt lat="45.75619" lon="6.56421">
        <ele>1791</ele>
        <time>2022-07-17T03:19:18Z</time>
      </trkpt>
      <trkpt lat="45.75621" lon="6.5642">
        <ele>1792</ele>
        <time>2022-07-17T03:19:21Z</time>
      </trkpt>
      <trkpt lat="45.75624" lon="6.56419">
        <ele>1791</ele>
        <time>2022-07-17T03:19:24Z</time>
      </trkpt>
      <trkpt lat="45.75626" lon="6.56417">
        <ele>1792</ele>
        <time>2022-07-17T03:19:27Z</time>
      </trkpt>
      <trkpt lat="45.75628" lon="6.56416">
        <ele>1792</ele>
        <time>2022-07-17T03:19:30Z</time>
      </trkpt>
      <trkpt lat="45.75631" lon="6.56415">
        <ele>1793</ele>
        <time>2022-07-17T03:19:33Z</time>
      </trkpt>
      <trkpt lat="45.75633" lon="6.56414">
        <ele>1793</ele>
        <time>2022-07-17T03:19:36Z</time>
      </trkpt>
      <trkpt lat="45.75635" lon="6.56413">
        <ele>1793</ele>
        <time>2022-07-17T03:19:39Z</time>
      </trkpt>
      <trkpt lat="45.75637" lon="6.56411">
        <ele>1794</ele>
        <time>2022-07-17T03:19:42Z</time>
      </trkpt>
      <trkpt lat="45.75639" lon="6.56409">
        <ele>1794</ele>
        <time>2022-07-17T03:19:45Z</time>
      </trkpt>
      <trkpt lat="45.75641" lon="6.56408">
        <ele>1795</ele>
        <time>2022-07-17T03:19:47Z</time>
      </trkpt>
      <trkpt lat="45.75643" lon="6.56407">
        <ele>1795</ele>
        <time>2022-07-17T03:19:50Z</time>
      </trkpt>
      <trkpt lat="45.75646" lon="6.56406">
        <ele>1796</ele>
        <time>2022-07-17T03:19:53Z</time>
      </trkpt>
      <trkpt lat="45.75648" lon="6.56405">
        <ele>1796</ele>
        <time>2022-07-17T03:19:55Z</time>
      </trkpt>
      <trkpt lat="45.7565" lon="6.56405">
        <ele>1796</ele>
        <time>2022-07-17T03:19:58Z</time>
      </trkpt>
      <trkpt lat="45.75652" lon="6.56404">
        <ele>1796</ele>
        <time>2022-07-17T03:20:00Z</time>
      </trkpt>
      <trkpt lat="45.75654" lon="6.56404">
        <ele>1797</ele>
        <time>2022-07-17T03:20:02Z</time>
      </trkpt>
      <trkpt lat="45.75656" lon="6.56404">
        <ele>1797</ele>
        <time>2022-07-17T03:20:05Z</time>
      </trkpt>
      <trkpt lat="45.75658" lon="6.56403">
        <ele>1798</ele>
        <time>2022-07-17T03:20:08Z</time>
      </trkpt>
      <trkpt lat="45.75661" lon="6.56402">
        <ele>1798</ele>
        <time>2022-07-17T03:20:11Z</time>
      </trkpt>
      <trkpt lat="45.75663" lon="6.56402">
        <ele>1800</ele>
        <time>2022-07-17T03:20:14Z</time>
      </trkpt>
      <trkpt lat="45.75666" lon="6.56401">
        <ele>1800</ele>
        <time>2022-07-17T03:20:17Z</time>
      </trkpt>
      <trkpt lat="45.75668" lon="6.564">
        <ele>1800</ele>
        <time>2022-07-17T03:20:20Z</time>
      </trkpt>
      <trkpt lat="45.75671" lon="6.56399">
        <ele>1800</ele>
        <time>2022-07-17T03:20:23Z</time>
      </trkpt>
      <trkpt lat="45.75673" lon="6.56399">
        <ele>1801</ele>
        <time>2022-07-17T03:20:26Z</time>
      </trkpt>
      <trkpt lat="45.75675" lon="6.56398">
        <ele>1802</ele>
        <time>2022-07-17T03:20:29Z</time>
      </trkpt>
      <trkpt lat="45.75677" lon="6.56398">
        <ele>1803</ele>
        <time>2022-07-17T03:20:32Z</time>
      </trkpt>
      <trkpt lat="45.75679" lon="6.56397">
        <ele>1803</ele>
        <time>2022-07-17T03:20:35Z</time>
      </trkpt>
      <trkpt lat="45.75682" lon="6.56397">
        <ele>1803</ele>
        <time>2022-07-17T03:20:38Z</time>
      </trkpt>
      <trkpt lat="45.75684" lon="6.56397">
        <ele>1803</ele>
        <time>2022-07-17T03:20:40Z</time>
      </trkpt>
      <trkpt lat="45.75686" lon="6.56397">
        <ele>1804</ele>
        <time>2022-07-17T03:20:42Z</time>
      </trkpt>
      <trkpt lat="45.75688" lon="6.56398">
        <ele>1805</ele>
        <time>2022-07-17T03:20:44Z</time>
      </trkpt>
      <trkpt lat="45.7569" lon="6.56397">
        <ele>1805</ele>
        <time>2022-07-17T03:20:46Z</time>
      </trkpt>
      <trkpt lat="45.75692" lon="6.56398">
        <ele>1805</ele>
        <time>2022-07-17T03:20:48Z</time>
      </trkpt>
      <trkpt lat="45.75694" lon="6.56398">
        <ele>1806</ele>
        <time>2022-07-17T03:20:50Z</time>
      </trkpt>
      <trkpt lat="45.75696" lon="6.56399">
        <ele>1806</ele>
        <time>2022-07-17T03:20:53Z</time>
      </trkpt>
      <trkpt lat="45.75699" lon="6.564">
        <ele>1806</ele>
        <time>2022-07-17T03:20:56Z</time>
      </trkpt>
      <trkpt lat="45.75701" lon="6.56401">
        <ele>1807</ele>
        <time>2022-07-17T03:20:59Z</time>
      </trkpt>
      <trkpt lat="45.75703" lon="6.56402">
        <ele>1807</ele>
        <time>2022-07-17T03:21:01Z</time>
      </trkpt>
      <trkpt lat="45.75705" lon="6.56402">
        <ele>1808</ele>
        <time>2022-07-17T03:21:04Z</time>
      </trkpt>
      <trkpt lat="45.75708" lon="6.56403">
        <ele>1808</ele>
        <time>2022-07-17T03:21:07Z</time>
      </trkpt>
      <trkpt lat="45.7571" lon="6.56403">
        <ele>1809</ele>
        <time>2022-07-17T03:21:10Z</time>
      </trkpt>
      <trkpt lat="45.75712" lon="6.56403">
        <ele>1809</ele>
        <time>2022-07-17T03:21:13Z</time>
      </trkpt>
      <trkpt lat="45.75715" lon="6.56402">
        <ele>1810</ele>
        <time>2022-07-17T03:21:16Z</time>
      </trkpt>
      <trkpt lat="45.75717" lon="6.56401">
        <ele>1811</ele>
        <time>2022-07-17T03:21:19Z</time>
      </trkpt>
      <trkpt lat="45.75719" lon="6.56401">
        <ele>1811</ele>
        <time>2022-07-17T03:21:22Z</time>
      </trkpt>
      <trkpt lat="45.75721" lon="6.564">
        <ele>1812</ele>
        <time>2022-07-17T03:21:25Z</time>
      </trkpt>
      <trkpt lat="45.75723" lon="6.56399">
        <ele>1812</ele>
        <time>2022-07-17T03:21:28Z</time>
      </trkpt>
      <trkpt lat="45.75725" lon="6.56399">
        <ele>1813</ele>
        <time>2022-07-17T03:21:31Z</time>
      </trkpt>
      <trkpt lat="45.75728" lon="6.56398">
        <ele>1813</ele>
        <time>2022-07-17T03:21:34Z</time>
      </trkpt>
      <trkpt lat="45.7573" lon="6.56397">
        <ele>1813</ele>
        <time>2022-07-17T03:21:37Z</time>
      </trkpt>
      <trkpt lat="45.75732" lon="6.56396">
        <ele>1814</ele>
        <time>2022-07-17T03:21:40Z</time>
      </trkpt>
      <trkpt lat="45.75734" lon="6.56395">
        <ele>1815</ele>
        <time>2022-07-17T03:21:43Z</time>
      </trkpt>
      <trkpt lat="45.75737" lon="6.56395">
        <ele>1815</ele>
        <time>2022-07-17T03:21:46Z</time>
      </trkpt>
      <trkpt lat="45.75739" lon="6.56393">
        <ele>1816</ele>
        <time>2022-07-17T03:21:49Z</time>
      </trkpt>
      <trkpt lat="45.75742" lon="6.56393">
        <ele>1817</ele>
        <time>2022-07-17T03:21:52Z</time>
      </trkpt>
      <trkpt lat="45.75744" lon="6.56392">
        <ele>1817</ele>
        <time>2022-07-17T03:21:55Z</time>
      </trkpt>
      <trkpt lat="45.75746" lon="6.56391">
        <ele>1817</ele>
        <time>2022-07-17T03:21:57Z</time>
      </trkpt>
      <trkpt lat="45.75747" lon="6.5639">
        <ele>1818</ele>
        <time>2022-07-17T03:21:59Z</time>
      </trkpt>
      <trkpt lat="45.7575" lon="6.56389">
        <ele>1819</ele>
        <time>2022-07-17T03:22:01Z</time>
      </trkpt>
      <trkpt lat="45.75751" lon="6.56388">
        <ele>1819</ele>
        <time>2022-07-17T03:22:03Z</time>
      </trkpt>
      <trkpt lat="45.75754" lon="6.56387">
        <ele>1819</ele>
        <time>2022-07-17T03:22:06Z</time>
      </trkpt>
      <trkpt lat="45.75756" lon="6.56385">
        <ele>1820</ele>
        <time>2022-07-17T03:22:09Z</time>
      </trkpt>
      <trkpt lat="45.75758" lon="6.56385">
        <ele>1821</ele>
        <time>2022-07-17T03:22:12Z</time>
      </trkpt>
      <trkpt lat="45.75761" lon="6.56383">
        <ele>1821</ele>
        <time>2022-07-17T03:22:15Z</time>
      </trkpt>
      <trkpt lat="45.75763" lon="6.56383">
        <ele>1821</ele>
        <time>2022-07-17T03:22:17Z</time>
      </trkpt>
      <trkpt lat="45.75765" lon="6.56382">
        <ele>1822</ele>
        <time>2022-07-17T03:22:19Z</time>
      </trkpt>
      <trkpt lat="45.75767" lon="6.5638">
        <ele>1823</ele>
        <time>2022-07-17T03:22:22Z</time>
      </trkpt>
      <trkpt lat="45.75769" lon="6.56379">
        <ele>1823</ele>
        <time>2022-07-17T03:22:24Z</time>
      </trkpt>
      <trkpt lat="45.75771" lon="6.56378">
        <ele>1824</ele>
        <time>2022-07-17T03:22:27Z</time>
      </trkpt>
      <trkpt lat="45.75773" lon="6.56377">
        <ele>1824</ele>
        <time>2022-07-17T03:22:30Z</time>
      </trkpt>
      <trkpt lat="45.75776" lon="6.56375">
        <ele>1825</ele>
        <time>2022-07-17T03:22:33Z</time>
      </trkpt>
      <trkpt lat="45.75778" lon="6.56375">
        <ele>1825</ele>
        <time>2022-07-17T03:22:35Z</time>
      </trkpt>
      <trkpt lat="45.7578" lon="6.56373">
        <ele>1825</ele>
        <time>2022-07-17T03:22:38Z</time>
      </trkpt>
      <trkpt lat="45.75783" lon="6.56373">
        <ele>1826</ele>
        <time>2022-07-17T03:22:41Z</time>
      </trkpt>
      <trkpt lat="45.75785" lon="6.56372">
        <ele>1826</ele>
        <time>2022-07-17T03:22:44Z</time>
      </trkpt>
      <trkpt lat="45.75787" lon="6.56371">
        <ele>1826</ele>
        <time>2022-07-17T03:22:47Z</time>
      </trkpt>
      <trkpt lat="45.75788" lon="6.56369">
        <ele>1826</ele>
        <time>2022-07-17T03:22:52Z</time>
      </trkpt>
      <trkpt lat="45.75787" lon="6.56366">
        <ele>1827</ele>
        <time>2022-07-17T03:22:55Z</time>
      </trkpt>
      <trkpt lat="45.75785" lon="6.56365">
        <ele>1828</ele>
        <time>2022-07-17T03:22:57Z</time>
      </trkpt>
      <trkpt lat="45.75783" lon="6.56363">
        <ele>1828</ele>
        <time>2022-07-17T03:22:59Z</time>
      </trkpt>
      <trkpt lat="45.75781" lon="6.5636">
        <ele>1828</ele>
        <time>2022-07-17T03:23:02Z</time>
      </trkpt>
      <trkpt lat="45.7578" lon="6.56359">
        <ele>1828</ele>
        <time>2022-07-17T03:23:04Z</time>
      </trkpt>
      <trkpt lat="45.75778" lon="6.56358">
        <ele>1829</ele>
        <time>2022-07-17T03:23:06Z</time>
      </trkpt>
      <trkpt lat="45.75776" lon="6.56357">
        <ele>1829</ele>
        <time>2022-07-17T03:23:08Z</time>
      </trkpt>
      <trkpt lat="45.75774" lon="6.56356">
        <ele>1829</ele>
        <time>2022-07-17T03:23:10Z</time>
      </trkpt>
      <trkpt lat="45.75773" lon="6.56355">
        <ele>1830</ele>
        <time>2022-07-17T03:23:12Z</time>
      </trkpt>
      <trkpt lat="45.75771" lon="6.56354">
        <ele>1831</ele>
        <time>2022-07-17T03:23:14Z</time>
      </trkpt>
      <trkpt lat="45.75769" lon="6.56353">
        <ele>1831</ele>
        <time>2022-07-17T03:23:17Z</time>
      </trkpt>
      <trkpt lat="45.75766" lon="6.56352">
        <ele>1832</ele>
        <time>2022-07-17T03:23:20Z</time>
      </trkpt>
      <trkpt lat="45.75764" lon="6.56353">
        <ele>1832</ele>
        <time>2022-07-17T03:23:22Z</time>
      </trkpt>
      <trkpt lat="45.75761" lon="6.56353">
        <ele>1832</ele>
        <time>2022-07-17T03:23:24Z</time>
      </trkpt>
      <trkpt lat="45.75759" lon="6.56352">
        <ele>1832</ele>
        <time>2022-07-17T03:23:26Z</time>
      </trkpt>
      <trkpt lat="45.75756" lon="6.56351">
        <ele>1832</ele>
        <time>2022-07-17T03:23:28Z</time>
      </trkpt>
      <trkpt lat="45.75754" lon="6.5635">
        <ele>1833</ele>
        <time>2022-07-17T03:23:30Z</time>
      </trkpt>
      <trkpt lat="45.75751" lon="6.56349">
        <ele>1833</ele>
        <time>2022-07-17T03:23:32Z</time>
      </trkpt>
      <trkpt lat="45.75749" lon="6.56348">
        <ele>1833</ele>
        <time>2022-07-17T03:23:34Z</time>
      </trkpt>
      <trkpt lat="45.75746" lon="6.56347">
        <ele>1833</ele>
        <time>2022-07-17T03:23:36Z</time>
      </trkpt>
      <trkpt lat="45.75744" lon="6.56346">
        <ele>1834</ele>
        <time>2022-07-17T03:23:38Z</time>
      </trkpt>
      <trkpt lat="45.75742" lon="6.56345">
        <ele>1834</ele>
        <time>2022-07-17T03:23:40Z</time>
      </trkpt>
      <trkpt lat="45.7574" lon="6.56344">
        <ele>1834</ele>
        <time>2022-07-17T03:23:42Z</time>
      </trkpt>
      <trkpt lat="45.75737" lon="6.56343">
        <ele>1834</ele>
        <time>2022-07-17T03:23:44Z</time>
      </trkpt>
      <trkpt lat="45.75734" lon="6.56342">
        <ele>1835</ele>
        <time>2022-07-17T03:23:46Z</time>
      </trkpt>
      <trkpt lat="45.75732" lon="6.56342">
        <ele>1835</ele>
        <time>2022-07-17T03:23:48Z</time>
      </trkpt>
      <trkpt lat="45.75729" lon="6.56341">
        <ele>1835</ele>
        <time>2022-07-17T03:23:50Z</time>
      </trkpt>
      <trkpt lat="45.75727" lon="6.56339">
        <ele>1835</ele>
        <time>2022-07-17T03:23:52Z</time>
      </trkpt>
      <trkpt lat="45.75724" lon="6.56338">
        <ele>1835</ele>
        <time>2022-07-17T03:23:54Z</time>
      </trkpt>
      <trkpt lat="45.75722" lon="6.56337">
        <ele>1835</ele>
        <time>2022-07-17T03:23:56Z</time>
      </trkpt>
      <trkpt lat="45.7572" lon="6.56337">
        <ele>1835</ele>
        <time>2022-07-17T03:23:58Z</time>
      </trkpt>
      <trkpt lat="45.75717" lon="6.56336">
        <ele>1835</ele>
        <time>2022-07-17T03:24:00Z</time>
      </trkpt>
      <trkpt lat="45.75715" lon="6.56334">
        <ele>1835</ele>
        <time>2022-07-17T03:24:02Z</time>
      </trkpt>
      <trkpt lat="45.75712" lon="6.56333">
        <ele>1835</ele>
        <time>2022-07-17T03:24:04Z</time>
      </trkpt>
      <trkpt lat="45.7571" lon="6.56331">
        <ele>1835</ele>
        <time>2022-07-17T03:24:06Z</time>
      </trkpt>
      <trkpt lat="45.75707" lon="6.56329">
        <ele>1835</ele>
        <time>2022-07-17T03:24:08Z</time>
      </trkpt>
      <trkpt lat="45.75704" lon="6.56327">
        <ele>1835</ele>
        <time>2022-07-17T03:24:10Z</time>
      </trkpt>
      <trkpt lat="45.75702" lon="6.56325">
        <ele>1835</ele>
        <time>2022-07-17T03:24:12Z</time>
      </trkpt>
      <trkpt lat="45.75699" lon="6.56323">
        <ele>1836</ele>
        <time>2022-07-17T03:24:14Z</time>
      </trkpt>
      <trkpt lat="45.75696" lon="6.56321">
        <ele>1836</ele>
        <time>2022-07-17T03:24:16Z</time>
      </trkpt>
      <trkpt lat="45.75694" lon="6.5632">
        <ele>1836</ele>
        <time>2022-07-17T03:24:18Z</time>
      </trkpt>
      <trkpt lat="45.75691" lon="6.56318">
        <ele>1836</ele>
        <time>2022-07-17T03:24:20Z</time>
      </trkpt>
      <trkpt lat="45.75689" lon="6.56317">
        <ele>1836</ele>
        <time>2022-07-17T03:24:22Z</time>
      </trkpt>
      <trkpt lat="45.75687" lon="6.56316">
        <ele>1836</ele>
        <time>2022-07-17T03:24:24Z</time>
      </trkpt>
      <trkpt lat="45.75684" lon="6.56315">
        <ele>1837</ele>
        <time>2022-07-17T03:24:26Z</time>
      </trkpt>
      <trkpt lat="45.75682" lon="6.56313">
        <ele>1837</ele>
        <time>2022-07-17T03:24:28Z</time>
      </trkpt>
      <trkpt lat="45.7568" lon="6.56312">
        <ele>1837</ele>
        <time>2022-07-17T03:24:30Z</time>
      </trkpt>
      <trkpt lat="45.75678" lon="6.56312">
        <ele>1837</ele>
        <time>2022-07-17T03:24:32Z</time>
      </trkpt>
      <trkpt lat="45.75675" lon="6.56311">
        <ele>1837</ele>
        <time>2022-07-17T03:24:34Z</time>
      </trkpt>
      <trkpt lat="45.75673" lon="6.56311">
        <ele>1838</ele>
        <time>2022-07-17T03:24:36Z</time>
      </trkpt>
      <trkpt lat="45.75671" lon="6.56311">
        <ele>1838</ele>
        <time>2022-07-17T03:24:38Z</time>
      </trkpt>
      <trkpt lat="45.75669" lon="6.5631">
        <ele>1838</ele>
        <time>2022-07-17T03:24:40Z</time>
      </trkpt>
      <trkpt lat="45.75666" lon="6.5631">
        <ele>1838</ele>
        <time>2022-07-17T03:24:42Z</time>
      </trkpt>
      <trkpt lat="45.75663" lon="6.5631">
        <ele>1838</ele>
        <time>2022-07-17T03:24:44Z</time>
      </trkpt>
      <trkpt lat="45.75661" lon="6.56309">
        <ele>1837</ele>
        <time>2022-07-17T03:24:46Z</time>
      </trkpt>
      <trkpt lat="45.75658" lon="6.56308">
        <ele>1838</ele>
        <time>2022-07-17T03:24:48Z</time>
      </trkpt>
      <trkpt lat="45.75656" lon="6.56307">
        <ele>1838</ele>
        <time>2022-07-17T03:24:50Z</time>
      </trkpt>
      <trkpt lat="45.75653" lon="6.56307">
        <ele>1838</ele>
        <time>2022-07-17T03:24:52Z</time>
      </trkpt>
      <trkpt lat="45.75651" lon="6.56306">
        <ele>1838</ele>
        <time>2022-07-17T03:24:54Z</time>
      </trkpt>
      <trkpt lat="45.75649" lon="6.56306">
        <ele>1839</ele>
        <time>2022-07-17T03:24:56Z</time>
      </trkpt>
      <trkpt lat="45.75646" lon="6.56305">
        <ele>1840</ele>
        <time>2022-07-17T03:24:58Z</time>
      </trkpt>
      <trkpt lat="45.75643" lon="6.56305">
        <ele>1840</ele>
        <time>2022-07-17T03:25:00Z</time>
      </trkpt>
      <trkpt lat="45.75641" lon="6.56305">
        <ele>1840</ele>
        <time>2022-07-17T03:25:02Z</time>
      </trkpt>
      <trkpt lat="45.75638" lon="6.56304">
        <ele>1840</ele>
        <time>2022-07-17T03:25:04Z</time>
      </trkpt>
      <trkpt lat="45.75636" lon="6.56304">
        <ele>1840</ele>
        <time>2022-07-17T03:25:06Z</time>
      </trkpt>
      <trkpt lat="45.75633" lon="6.56303">
        <ele>1840</ele>
        <time>2022-07-17T03:25:08Z</time>
      </trkpt>
      <trkpt lat="45.75631" lon="6.56302">
        <ele>1840</ele>
        <time>2022-07-17T03:25:10Z</time>
      </trkpt>
      <trkpt lat="45.75628" lon="6.56302">
        <ele>1840</ele>
        <time>2022-07-17T03:25:12Z</time>
      </trkpt>
      <trkpt lat="45.75625" lon="6.56301">
        <ele>1840</ele>
        <time>2022-07-17T03:25:14Z</time>
      </trkpt>
      <trkpt lat="45.75623" lon="6.563">
        <ele>1840</ele>
        <time>2022-07-17T03:25:16Z</time>
      </trkpt>
      <trkpt lat="45.7562" lon="6.56299">
        <ele>1840</ele>
        <time>2022-07-17T03:25:18Z</time>
      </trkpt>
      <trkpt lat="45.75618" lon="6.56299">
        <ele>1840</ele>
        <time>2022-07-17T03:25:19Z</time>
      </trkpt>
      <trkpt lat="45.75616" lon="6.56298">
        <ele>1840</ele>
        <time>2022-07-17T03:25:20Z</time>
      </trkpt>
      <trkpt lat="45.75613" lon="6.56297">
        <ele>1840</ele>
        <time>2022-07-17T03:25:21Z</time>
      </trkpt>
      <trkpt lat="45.75612" lon="6.56297">
        <ele>1840</ele>
        <time>2022-07-17T03:25:22Z</time>
      </trkpt>
      <trkpt lat="45.7561" lon="6.56296">
        <ele>1840</ele>
        <time>2022-07-17T03:25:23Z</time>
      </trkpt>
      <trkpt lat="45.75608" lon="6.56295">
        <ele>1839</ele>
        <time>2022-07-17T03:25:24Z</time>
      </trkpt>
      <trkpt lat="45.75606" lon="6.56294">
        <ele>1839</ele>
        <time>2022-07-17T03:25:25Z</time>
      </trkpt>
      <trkpt lat="45.75603" lon="6.56293">
        <ele>1840</ele>
        <time>2022-07-17T03:25:26Z</time>
      </trkpt>
      <trkpt lat="45.75602" lon="6.56293">
        <ele>1840</ele>
        <time>2022-07-17T03:25:27Z</time>
      </trkpt>
      <trkpt lat="45.756" lon="6.56292">
        <ele>1840</ele>
        <time>2022-07-17T03:25:28Z</time>
      </trkpt>
      <trkpt lat="45.75598" lon="6.56292">
        <ele>1839</ele>
        <time>2022-07-17T03:25:29Z</time>
      </trkpt>
      <trkpt lat="45.75596" lon="6.56291">
        <ele>1839</ele>
        <time>2022-07-17T03:25:30Z</time>
      </trkpt>
      <trkpt lat="45.75593" lon="6.5629">
        <ele>1839</ele>
        <time>2022-07-17T03:25:31Z</time>
      </trkpt>
      <trkpt lat="45.75592" lon="6.5629">
        <ele>1840</ele>
        <time>2022-07-17T03:25:32Z</time>
      </trkpt>
      <trkpt lat="45.7559" lon="6.56289">
        <ele>1840</ele>
        <time>2022-07-17T03:25:33Z</time>
      </trkpt>
      <trkpt lat="45.75588" lon="6.56288">
        <ele>1839</ele>
        <time>2022-07-17T03:25:34Z</time>
      </trkpt>
      <trkpt lat="45.75586" lon="6.56287">
        <ele>1839</ele>
        <time>2022-07-17T03:25:35Z</time>
      </trkpt>
      <trkpt lat="45.75583" lon="6.56285">
        <ele>1839</ele>
        <time>2022-07-17T03:25:37Z</time>
      </trkpt>
      <trkpt lat="45.7558" lon="6.56283">
        <ele>1839</ele>
        <time>2022-07-17T03:25:39Z</time>
      </trkpt>
      <trkpt lat="45.75578" lon="6.56282">
        <ele>1839</ele>
        <time>2022-07-17T03:25:40Z</time>
      </trkpt>
      <trkpt lat="45.75576" lon="6.5628">
        <ele>1839</ele>
        <time>2022-07-17T03:25:41Z</time>
      </trkpt>
      <trkpt lat="45.75574" lon="6.56279">
        <ele>1839</ele>
        <time>2022-07-17T03:25:42Z</time>
      </trkpt>
      <trkpt lat="45.75573" lon="6.56278">
        <ele>1839</ele>
        <time>2022-07-17T03:25:43Z</time>
      </trkpt>
      <trkpt lat="45.75569" lon="6.56276">
        <ele>1839</ele>
        <time>2022-07-17T03:25:45Z</time>
      </trkpt>
      <trkpt lat="45.75567" lon="6.56275">
        <ele>1839</ele>
        <time>2022-07-17T03:25:46Z</time>
      </trkpt>
      <trkpt lat="45.75565" lon="6.56274">
        <ele>1839</ele>
        <time>2022-07-17T03:25:47Z</time>
      </trkpt>
      <trkpt lat="45.75563" lon="6.56273">
        <ele>1839</ele>
        <time>2022-07-17T03:25:48Z</time>
      </trkpt>
      <trkpt lat="45.75562" lon="6.56272">
        <ele>1839</ele>
        <time>2022-07-17T03:25:49Z</time>
      </trkpt>
      <trkpt lat="45.75558" lon="6.56271">
        <ele>1839</ele>
        <time>2022-07-17T03:25:51Z</time>
      </trkpt>
      <trkpt lat="45.75555" lon="6.56269">
        <ele>1839</ele>
        <time>2022-07-17T03:25:53Z</time>
      </trkpt>
      <trkpt lat="45.75552" lon="6.56267">
        <ele>1838</ele>
        <time>2022-07-17T03:25:55Z</time>
      </trkpt>
      <trkpt lat="45.7555" lon="6.56266">
        <ele>1838</ele>
        <time>2022-07-17T03:25:56Z</time>
      </trkpt>
      <trkpt lat="45.75547" lon="6.56264">
        <ele>1838</ele>
        <time>2022-07-17T03:25:58Z</time>
      </trkpt>
      <trkpt lat="45.75544" lon="6.56263">
        <ele>1838</ele>
        <time>2022-07-17T03:26:00Z</time>
      </trkpt>
      <trkpt lat="45.75541" lon="6.56261">
        <ele>1838</ele>
        <time>2022-07-17T03:26:02Z</time>
      </trkpt>
      <trkpt lat="45.75539" lon="6.5626">
        <ele>1838</ele>
        <time>2022-07-17T03:26:04Z</time>
      </trkpt>
      <trkpt lat="45.75536" lon="6.56259">
        <ele>1838</ele>
        <time>2022-07-17T03:26:06Z</time>
      </trkpt>
      <trkpt lat="45.75534" lon="6.56257">
        <ele>1838</ele>
        <time>2022-07-17T03:26:08Z</time>
      </trkpt>
      <trkpt lat="45.75532" lon="6.56255">
        <ele>1838</ele>
        <time>2022-07-17T03:26:10Z</time>
      </trkpt>
      <trkpt lat="45.75529" lon="6.56253">
        <ele>1838</ele>
        <time>2022-07-17T03:26:12Z</time>
      </trkpt>
      <trkpt lat="45.75527" lon="6.56252">
        <ele>1838</ele>
        <time>2022-07-17T03:26:14Z</time>
      </trkpt>
      <trkpt lat="45.75524" lon="6.5625">
        <ele>1838</ele>
        <time>2022-07-17T03:26:16Z</time>
      </trkpt>
      <trkpt lat="45.75521" lon="6.56249">
        <ele>1839</ele>
        <time>2022-07-17T03:26:18Z</time>
      </trkpt>
      <trkpt lat="45.75519" lon="6.56248">
        <ele>1839</ele>
        <time>2022-07-17T03:26:20Z</time>
      </trkpt>
      <trkpt lat="45.75516" lon="6.56247">
        <ele>1839</ele>
        <time>2022-07-17T03:26:22Z</time>
      </trkpt>
      <trkpt lat="45.75514" lon="6.56245">
        <ele>1839</ele>
        <time>2022-07-17T03:26:24Z</time>
      </trkpt>
      <trkpt lat="45.75512" lon="6.56244">
        <ele>1839</ele>
        <time>2022-07-17T03:26:26Z</time>
      </trkpt>
      <trkpt lat="45.75509" lon="6.56242">
        <ele>1839</ele>
        <time>2022-07-17T03:26:28Z</time>
      </trkpt>
      <trkpt lat="45.75507" lon="6.5624">
        <ele>1839</ele>
        <time>2022-07-17T03:26:30Z</time>
      </trkpt>
      <trkpt lat="45.75505" lon="6.56238">
        <ele>1839</ele>
        <time>2022-07-17T03:26:32Z</time>
      </trkpt>
      <trkpt lat="45.75503" lon="6.56236">
        <ele>1840</ele>
        <time>2022-07-17T03:26:34Z</time>
      </trkpt>
      <trkpt lat="45.755" lon="6.56236">
        <ele>1840</ele>
        <time>2022-07-17T03:26:36Z</time>
      </trkpt>
      <trkpt lat="45.75496" lon="6.56235">
        <ele>1840</ele>
        <time>2022-07-17T03:26:38Z</time>
      </trkpt>
      <trkpt lat="45.75493" lon="6.56234">
        <ele>1839</ele>
        <time>2022-07-17T03:26:40Z</time>
      </trkpt>
      <trkpt lat="45.75489" lon="6.56233">
        <ele>1839</ele>
        <time>2022-07-17T03:26:42Z</time>
      </trkpt>
      <trkpt lat="45.75488" lon="6.56232">
        <ele>1839</ele>
        <time>2022-07-17T03:26:43Z</time>
      </trkpt>
      <trkpt lat="45.75484" lon="6.5623">
        <ele>1839</ele>
        <time>2022-07-17T03:26:45Z</time>
      </trkpt>
      <trkpt lat="45.75481" lon="6.5623">
        <ele>1838</ele>
        <time>2022-07-17T03:26:47Z</time>
      </trkpt>
      <trkpt lat="45.75478" lon="6.56229">
        <ele>1838</ele>
        <time>2022-07-17T03:26:49Z</time>
      </trkpt>
      <trkpt lat="45.75475" lon="6.56228">
        <ele>1838</ele>
        <time>2022-07-17T03:26:51Z</time>
      </trkpt>
      <trkpt lat="45.75472" lon="6.56227">
        <ele>1838</ele>
        <time>2022-07-17T03:26:53Z</time>
      </trkpt>
      <trkpt lat="45.75469" lon="6.56226">
        <ele>1837</ele>
        <time>2022-07-17T03:26:55Z</time>
      </trkpt>
      <trkpt lat="45.75465" lon="6.56225">
        <ele>1837</ele>
        <time>2022-07-17T03:26:57Z</time>
      </trkpt>
      <trkpt lat="45.75464" lon="6.56225">
        <ele>1837</ele>
        <time>2022-07-17T03:26:58Z</time>
      </trkpt>
      <trkpt lat="45.75462" lon="6.56224">
        <ele>1837</ele>
        <time>2022-07-17T03:26:59Z</time>
      </trkpt>
      <trkpt lat="45.75458" lon="6.56223">
        <ele>1837</ele>
        <time>2022-07-17T03:27:01Z</time>
      </trkpt>
      <trkpt lat="45.75455" lon="6.56222">
        <ele>1837</ele>
        <time>2022-07-17T03:27:03Z</time>
      </trkpt>
      <trkpt lat="45.75452" lon="6.5622">
        <ele>1837</ele>
        <time>2022-07-17T03:27:05Z</time>
      </trkpt>
      <trkpt lat="45.7545" lon="6.56219">
        <ele>1836</ele>
        <time>2022-07-17T03:27:06Z</time>
      </trkpt>
      <trkpt lat="45.75449" lon="6.56217">
        <ele>1836</ele>
        <time>2022-07-17T03:27:07Z</time>
      </trkpt>
      <trkpt lat="45.75447" lon="6.56215">
        <ele>1836</ele>
        <time>2022-07-17T03:27:08Z</time>
      </trkpt>
      <trkpt lat="45.75446" lon="6.56213">
        <ele>1836</ele>
        <time>2022-07-17T03:27:09Z</time>
      </trkpt>
      <trkpt lat="45.75443" lon="6.5621">
        <ele>1836</ele>
        <time>2022-07-17T03:27:11Z</time>
      </trkpt>
      <trkpt lat="45.75442" lon="6.56208">
        <ele>1836</ele>
        <time>2022-07-17T03:27:12Z</time>
      </trkpt>
      <trkpt lat="45.75441" lon="6.56207">
        <ele>1836</ele>
        <time>2022-07-17T03:27:13Z</time>
      </trkpt>
      <trkpt lat="45.75439" lon="6.56205">
        <ele>1836</ele>
        <time>2022-07-17T03:27:14Z</time>
      </trkpt>
      <trkpt lat="45.75437" lon="6.56203">
        <ele>1836</ele>
        <time>2022-07-17T03:27:16Z</time>
      </trkpt>
      <trkpt lat="45.75435" lon="6.56201">
        <ele>1836</ele>
        <time>2022-07-17T03:27:17Z</time>
      </trkpt>
      <trkpt lat="45.75432" lon="6.56199">
        <ele>1836</ele>
        <time>2022-07-17T03:27:19Z</time>
      </trkpt>
      <trkpt lat="45.75429" lon="6.56198">
        <ele>1836</ele>
        <time>2022-07-17T03:27:20Z</time>
      </trkpt>
      <trkpt lat="45.75428" lon="6.56197">
        <ele>1836</ele>
        <time>2022-07-17T03:27:21Z</time>
      </trkpt>
      <trkpt lat="45.75426" lon="6.56196">
        <ele>1836</ele>
        <time>2022-07-17T03:27:22Z</time>
      </trkpt>
      <trkpt lat="45.75424" lon="6.56194">
        <ele>1836</ele>
        <time>2022-07-17T03:27:23Z</time>
      </trkpt>
      <trkpt lat="45.75423" lon="6.56192">
        <ele>1836</ele>
        <time>2022-07-17T03:27:24Z</time>
      </trkpt>
      <trkpt lat="45.75421" lon="6.5619">
        <ele>1836</ele>
        <time>2022-07-17T03:27:25Z</time>
      </trkpt>
      <trkpt lat="45.75419" lon="6.56187">
        <ele>1835</ele>
        <time>2022-07-17T03:27:27Z</time>
      </trkpt>
      <trkpt lat="45.75417" lon="6.56186">
        <ele>1835</ele>
        <time>2022-07-17T03:27:28Z</time>
      </trkpt>
      <trkpt lat="45.75416" lon="6.56184">
        <ele>1835</ele>
        <time>2022-07-17T03:27:29Z</time>
      </trkpt>
      <trkpt lat="45.75413" lon="6.56181">
        <ele>1835</ele>
        <time>2022-07-17T03:27:31Z</time>
      </trkpt>
      <trkpt lat="45.75411" lon="6.56179">
        <ele>1835</ele>
        <time>2022-07-17T03:27:33Z</time>
      </trkpt>
      <trkpt lat="45.75408" lon="6.56177">
        <ele>1835</ele>
        <time>2022-07-17T03:27:35Z</time>
      </trkpt>
      <trkpt lat="45.75405" lon="6.56174">
        <ele>1834</ele>
        <time>2022-07-17T03:27:37Z</time>
      </trkpt>
      <trkpt lat="45.75403" lon="6.56172">
        <ele>1834</ele>
        <time>2022-07-17T03:27:39Z</time>
      </trkpt>
      <trkpt lat="45.75401" lon="6.5617">
        <ele>1834</ele>
        <time>2022-07-17T03:27:41Z</time>
      </trkpt>
      <trkpt lat="45.75399" lon="6.56168">
        <ele>1834</ele>
        <time>2022-07-17T03:27:42Z</time>
      </trkpt>
      <trkpt lat="45.75397" lon="6.56164">
        <ele>1834</ele>
        <time>2022-07-17T03:27:44Z</time>
      </trkpt>
      <trkpt lat="45.75396" lon="6.5616">
        <ele>1835</ele>
        <time>2022-07-17T03:27:46Z</time>
      </trkpt>
      <trkpt lat="45.75395" lon="6.56156">
        <ele>1835</ele>
        <time>2022-07-17T03:27:48Z</time>
      </trkpt>
      <trkpt lat="45.75393" lon="6.56152">
        <ele>1835</ele>
        <time>2022-07-17T03:27:50Z</time>
      </trkpt>
      <trkpt lat="45.75392" lon="6.56148">
        <ele>1836</ele>
        <time>2022-07-17T03:27:52Z</time>
      </trkpt>
      <trkpt lat="45.75392" lon="6.56145">
        <ele>1836</ele>
        <time>2022-07-17T03:27:54Z</time>
      </trkpt>
      <trkpt lat="45.75392" lon="6.56141">
        <ele>1836</ele>
        <time>2022-07-17T03:27:56Z</time>
      </trkpt>
      <trkpt lat="45.75392" lon="6.56136">
        <ele>1836</ele>
        <time>2022-07-17T03:27:58Z</time>
      </trkpt>
      <trkpt lat="45.75392" lon="6.56133">
        <ele>1836</ele>
        <time>2022-07-17T03:28:00Z</time>
      </trkpt>
      <trkpt lat="45.75392" lon="6.56129">
        <ele>1836</ele>
        <time>2022-07-17T03:28:02Z</time>
      </trkpt>
      <trkpt lat="45.75393" lon="6.56126">
        <ele>1836</ele>
        <time>2022-07-17T03:28:04Z</time>
      </trkpt>
      <trkpt lat="45.75394" lon="6.56122">
        <ele>1836</ele>
        <time>2022-07-17T03:28:06Z</time>
      </trkpt>
      <trkpt lat="45.75395" lon="6.56118">
        <ele>1836</ele>
        <time>2022-07-17T03:28:08Z</time>
      </trkpt>
      <trkpt lat="45.75395" lon="6.56114">
        <ele>1836</ele>
        <time>2022-07-17T03:28:10Z</time>
      </trkpt>
      <trkpt lat="45.75396" lon="6.56109">
        <ele>1837</ele>
        <time>2022-07-17T03:28:12Z</time>
      </trkpt>
      <trkpt lat="45.75396" lon="6.56104">
        <ele>1837</ele>
        <time>2022-07-17T03:28:14Z</time>
      </trkpt>
      <trkpt lat="45.75397" lon="6.56101">
        <ele>1837</ele>
        <time>2022-07-17T03:28:15Z</time>
      </trkpt>
      <trkpt lat="45.75398" lon="6.56097">
        <ele>1837</ele>
        <time>2022-07-17T03:28:17Z</time>
      </trkpt>
      <trkpt lat="45.75399" lon="6.56095">
        <ele>1837</ele>
        <time>2022-07-17T03:28:18Z</time>
      </trkpt>
      <trkpt lat="45.754" lon="6.5609">
        <ele>1837</ele>
        <time>2022-07-17T03:28:20Z</time>
      </trkpt>
      <trkpt lat="45.75401" lon="6.56087">
        <ele>1837</ele>
        <time>2022-07-17T03:28:21Z</time>
      </trkpt>
      <trkpt lat="45.75402" lon="6.56084">
        <ele>1837</ele>
        <time>2022-07-17T03:28:22Z</time>
      </trkpt>
      <trkpt lat="45.75403" lon="6.56082">
        <ele>1837</ele>
        <time>2022-07-17T03:28:23Z</time>
      </trkpt>
      <trkpt lat="45.75404" lon="6.5608">
        <ele>1837</ele>
        <time>2022-07-17T03:28:24Z</time>
      </trkpt>
      <trkpt lat="45.75405" lon="6.56077">
        <ele>1837</ele>
        <time>2022-07-17T03:28:25Z</time>
      </trkpt>
      <trkpt lat="45.75405" lon="6.56075">
        <ele>1837</ele>
        <time>2022-07-17T03:28:26Z</time>
      </trkpt>
      <trkpt lat="45.75406" lon="6.5607">
        <ele>1837</ele>
        <time>2022-07-17T03:28:28Z</time>
      </trkpt>
      <trkpt lat="45.75407" lon="6.56067">
        <ele>1837</ele>
        <time>2022-07-17T03:28:30Z</time>
      </trkpt>
      <trkpt lat="45.75408" lon="6.56063">
        <ele>1837</ele>
        <time>2022-07-17T03:28:32Z</time>
      </trkpt>
      <trkpt lat="45.75409" lon="6.56059">
        <ele>1837</ele>
        <time>2022-07-17T03:28:34Z</time>
      </trkpt>
      <trkpt lat="45.75409" lon="6.56055">
        <ele>1837</ele>
        <time>2022-07-17T03:28:36Z</time>
      </trkpt>
      <trkpt lat="45.75409" lon="6.56051">
        <ele>1837</ele>
        <time>2022-07-17T03:28:38Z</time>
      </trkpt>
      <trkpt lat="45.75409" lon="6.56048">
        <ele>1837</ele>
        <time>2022-07-17T03:28:40Z</time>
      </trkpt>
      <trkpt lat="45.75409" lon="6.56045">
        <ele>1837</ele>
        <time>2022-07-17T03:28:41Z</time>
      </trkpt>
      <trkpt lat="45.7541" lon="6.5604">
        <ele>1837</ele>
        <time>2022-07-17T03:28:43Z</time>
      </trkpt>
      <trkpt lat="45.7541" lon="6.56038">
        <ele>1837</ele>
        <time>2022-07-17T03:28:44Z</time>
      </trkpt>
      <trkpt lat="45.7541" lon="6.56034">
        <ele>1837</ele>
        <time>2022-07-17T03:28:46Z</time>
      </trkpt>
      <trkpt lat="45.7541" lon="6.5603">
        <ele>1837</ele>
        <time>2022-07-17T03:28:47Z</time>
      </trkpt>
      <trkpt lat="45.7541" lon="6.56027">
        <ele>1837</ele>
        <time>2022-07-17T03:28:48Z</time>
      </trkpt>
      <trkpt lat="45.75409" lon="6.56023">
        <ele>1837</ele>
        <time>2022-07-17T03:28:49Z</time>
      </trkpt>
      <trkpt lat="45.7541" lon="6.56021">
        <ele>1837</ele>
        <time>2022-07-17T03:28:50Z</time>
      </trkpt>
      <trkpt lat="45.7541" lon="6.56018">
        <ele>1837</ele>
        <time>2022-07-17T03:28:51Z</time>
      </trkpt>
      <trkpt lat="45.7541" lon="6.56015">
        <ele>1837</ele>
        <time>2022-07-17T03:28:52Z</time>
      </trkpt>
      <trkpt lat="45.7541" lon="6.56013">
        <ele>1837</ele>
        <time>2022-07-17T03:28:53Z</time>
      </trkpt>
      <trkpt lat="45.7541" lon="6.5601">
        <ele>1837</ele>
        <time>2022-07-17T03:28:54Z</time>
      </trkpt>
      <trkpt lat="45.7541" lon="6.56007">
        <ele>1837</ele>
        <time>2022-07-17T03:28:55Z</time>
      </trkpt>
      <trkpt lat="45.7541" lon="6.56005">
        <ele>1837</ele>
        <time>2022-07-17T03:28:56Z</time>
      </trkpt>
      <trkpt lat="45.75411" lon="6.56002">
        <ele>1836</ele>
        <time>2022-07-17T03:28:57Z</time>
      </trkpt>
      <trkpt lat="45.75411" lon="6.55999">
        <ele>1836</ele>
        <time>2022-07-17T03:28:58Z</time>
      </trkpt>
      <trkpt lat="45.75411" lon="6.55996">
        <ele>1836</ele>
        <time>2022-07-17T03:28:59Z</time>
      </trkpt>
      <trkpt lat="45.75411" lon="6.55994">
        <ele>1836</ele>
        <time>2022-07-17T03:29:00Z</time>
      </trkpt>
      <trkpt lat="45.75412" lon="6.55991">
        <ele>1836</ele>
        <time>2022-07-17T03:29:01Z</time>
      </trkpt>
      <trkpt lat="45.75413" lon="6.55989">
        <ele>1836</ele>
        <time>2022-07-17T03:29:02Z</time>
      </trkpt>
      <trkpt lat="45.75413" lon="6.55986">
        <ele>1836</ele>
        <time>2022-07-17T03:29:03Z</time>
      </trkpt>
      <trkpt lat="45.75414" lon="6.55984">
        <ele>1836</ele>
        <time>2022-07-17T03:29:04Z</time>
      </trkpt>
      <trkpt lat="45.75413" lon="6.55981">
        <ele>1836</ele>
        <time>2022-07-17T03:29:05Z</time>
      </trkpt>
      <trkpt lat="45.75413" lon="6.55979">
        <ele>1836</ele>
        <time>2022-07-17T03:29:06Z</time>
      </trkpt>
      <trkpt lat="45.75413" lon="6.55977">
        <ele>1836</ele>
        <time>2022-07-17T03:29:07Z</time>
      </trkpt>
      <trkpt lat="45.75413" lon="6.55974">
        <ele>1836</ele>
        <time>2022-07-17T03:29:08Z</time>
      </trkpt>
      <trkpt lat="45.75413" lon="6.55972">
        <ele>1836</ele>
        <time>2022-07-17T03:29:09Z</time>
      </trkpt>
      <trkpt lat="45.75413" lon="6.55969">
        <ele>1836</ele>
        <time>2022-07-17T03:29:10Z</time>
      </trkpt>
      <trkpt lat="45.75412" lon="6.55968">
        <ele>1836</ele>
        <time>2022-07-17T03:29:11Z</time>
      </trkpt>
      <trkpt lat="45.75411" lon="6.55966">
        <ele>1836</ele>
        <time>2022-07-17T03:29:12Z</time>
      </trkpt>
      <trkpt lat="45.7541" lon="6.55964">
        <ele>1836</ele>
        <time>2022-07-17T03:29:13Z</time>
      </trkpt>
      <trkpt lat="45.75409" lon="6.55962">
        <ele>1836</ele>
        <time>2022-07-17T03:29:14Z</time>
      </trkpt>
      <trkpt lat="45.75409" lon="6.55961">
        <ele>1836</ele>
        <time>2022-07-17T03:29:15Z</time>
      </trkpt>
      <trkpt lat="45.75408" lon="6.55959">
        <ele>1836</ele>
        <time>2022-07-17T03:29:16Z</time>
      </trkpt>
      <trkpt lat="45.75407" lon="6.55957">
        <ele>1836</ele>
        <time>2022-07-17T03:29:17Z</time>
      </trkpt>
      <trkpt lat="45.75406" lon="6.55957">
        <ele>1836</ele>
        <time>2022-07-17T03:29:18Z</time>
      </trkpt>
      <trkpt lat="45.75406" lon="6.55956">
        <ele>1836</ele>
        <time>2022-07-17T03:29:19Z</time>
      </trkpt>
      <trkpt lat="45.75405" lon="6.55955">
        <ele>1836</ele>
        <time>2022-07-17T03:29:20Z</time>
      </trkpt>
      <trkpt lat="45.75404" lon="6.55954">
        <ele>1836</ele>
        <time>2022-07-17T03:29:21Z</time>
      </trkpt>
      <trkpt lat="45.75403" lon="6.55954">
        <ele>1836</ele>
        <time>2022-07-17T03:29:22Z</time>
      </trkpt>
      <trkpt lat="45.75402" lon="6.55952">
        <ele>1836</ele>
        <time>2022-07-17T03:29:23Z</time>
      </trkpt>
      <trkpt lat="45.75401" lon="6.55951">
        <ele>1836</ele>
        <time>2022-07-17T03:29:24Z</time>
      </trkpt>
      <trkpt lat="45.754" lon="6.5595">
        <ele>1836</ele>
        <time>2022-07-17T03:29:25Z</time>
      </trkpt>
      <trkpt lat="45.75398" lon="6.55947">
        <ele>1836</ele>
        <time>2022-07-17T03:29:28Z</time>
      </trkpt>
      <trkpt lat="45.75398" lon="6.55945">
        <ele>1836</ele>
        <time>2022-07-17T03:29:29Z</time>
      </trkpt>
      <trkpt lat="45.75397" lon="6.55944">
        <ele>1836</ele>
        <time>2022-07-17T03:29:30Z</time>
      </trkpt>
      <trkpt lat="45.75397" lon="6.55943">
        <ele>1836</ele>
        <time>2022-07-17T03:29:31Z</time>
      </trkpt>
      <trkpt lat="45.75396" lon="6.55941">
        <ele>1836</ele>
        <time>2022-07-17T03:29:32Z</time>
      </trkpt>
      <trkpt lat="45.75396" lon="6.5594">
        <ele>1836</ele>
        <time>2022-07-17T03:29:33Z</time>
      </trkpt>
      <trkpt lat="45.75396" lon="6.55935">
        <ele>1836</ele>
        <time>2022-07-17T03:29:35Z</time>
      </trkpt>
      <trkpt lat="45.75396" lon="6.55933">
        <ele>1836</ele>
        <time>2022-07-17T03:29:37Z</time>
      </trkpt>
      <trkpt lat="45.75395" lon="6.55931">
        <ele>1836</ele>
        <time>2022-07-17T03:29:38Z</time>
      </trkpt>
      <trkpt lat="45.75395" lon="6.55929">
        <ele>1836</ele>
        <time>2022-07-17T03:29:39Z</time>
      </trkpt>
      <trkpt lat="45.75395" lon="6.55925">
        <ele>1836</ele>
        <time>2022-07-17T03:29:40Z</time>
      </trkpt>
      <trkpt lat="45.75395" lon="6.55924">
        <ele>1836</ele>
        <time>2022-07-17T03:29:41Z</time>
      </trkpt>
      <trkpt lat="45.75395" lon="6.55922">
        <ele>1836</ele>
        <time>2022-07-17T03:29:42Z</time>
      </trkpt>
      <trkpt lat="45.75395" lon="6.55921">
        <ele>1836</ele>
        <time>2022-07-17T03:29:43Z</time>
      </trkpt>
      <trkpt lat="45.75395" lon="6.55919">
        <ele>1836</ele>
        <time>2022-07-17T03:29:44Z</time>
      </trkpt>
      <trkpt lat="45.75396" lon="6.55917">
        <ele>1836</ele>
        <time>2022-07-17T03:29:45Z</time>
      </trkpt>
      <trkpt lat="45.75396" lon="6.55916">
        <ele>1836</ele>
        <time>2022-07-17T03:29:46Z</time>
      </trkpt>
      <trkpt lat="45.75395" lon="6.55912">
        <ele>1836</ele>
        <time>2022-07-17T03:29:47Z</time>
      </trkpt>
      <trkpt lat="45.75395" lon="6.55908">
        <ele>1837</ele>
        <time>2022-07-17T03:29:49Z</time>
      </trkpt>
      <trkpt lat="45.75394" lon="6.55904">
        <ele>1837</ele>
        <time>2022-07-17T03:29:51Z</time>
      </trkpt>
      <trkpt lat="45.75394" lon="6.55901">
        <ele>1838</ele>
        <time>2022-07-17T03:29:54Z</time>
      </trkpt>
      <trkpt lat="45.75394" lon="6.55898">
        <ele>1838</ele>
        <time>2022-07-17T03:29:56Z</time>
      </trkpt>
      <trkpt lat="45.75394" lon="6.55897">
        <ele>1838</ele>
        <time>2022-07-17T03:29:57Z</time>
      </trkpt>
      <trkpt lat="45.75393" lon="6.55896">
        <ele>1839</ele>
        <time>2022-07-17T03:29:58Z</time>
      </trkpt>
      <trkpt lat="45.75393" lon="6.55895">
        <ele>1839</ele>
        <time>2022-07-17T03:29:59Z</time>
      </trkpt>
      <trkpt lat="45.75393" lon="6.55893">
        <ele>1839</ele>
        <time>2022-07-17T03:30:00Z</time>
      </trkpt>
      <trkpt lat="45.75393" lon="6.55892">
        <ele>1839</ele>
        <time>2022-07-17T03:30:01Z</time>
      </trkpt>
      <trkpt lat="45.75392" lon="6.55891">
        <ele>1839</ele>
        <time>2022-07-17T03:30:02Z</time>
      </trkpt>
      <trkpt lat="45.75392" lon="6.5589">
        <ele>1839</ele>
        <time>2022-07-17T03:30:03Z</time>
      </trkpt>
      <trkpt lat="45.75392" lon="6.55889">
        <ele>1839</ele>
        <time>2022-07-17T03:30:04Z</time>
      </trkpt>
      <trkpt lat="45.75392" lon="6.55888">
        <ele>1840</ele>
        <time>2022-07-17T03:30:05Z</time>
      </trkpt>
      <trkpt lat="45.75391" lon="6.55884">
        <ele>1840</ele>
        <time>2022-07-17T03:30:07Z</time>
      </trkpt>
      <trkpt lat="45.7539" lon="6.55882">
        <ele>1840</ele>
        <time>2022-07-17T03:30:09Z</time>
      </trkpt>
      <trkpt lat="45.75389" lon="6.55879">
        <ele>1841</ele>
        <time>2022-07-17T03:30:11Z</time>
      </trkpt>
      <trkpt lat="45.75388" lon="6.55877">
        <ele>1841</ele>
        <time>2022-07-17T03:30:13Z</time>
      </trkpt>
      <trkpt lat="45.75387" lon="6.55874">
        <ele>1841</ele>
        <time>2022-07-17T03:30:15Z</time>
      </trkpt>
      <trkpt lat="45.75385" lon="6.55872">
        <ele>1841</ele>
        <time>2022-07-17T03:30:17Z</time>
      </trkpt>
      <trkpt lat="45.75384" lon="6.5587">
        <ele>1842</ele>
        <time>2022-07-17T03:30:19Z</time>
      </trkpt>
      <trkpt lat="45.75383" lon="6.55867">
        <ele>1842</ele>
        <time>2022-07-17T03:30:21Z</time>
      </trkpt>
      <trkpt lat="45.75382" lon="6.55865">
        <ele>1843</ele>
        <time>2022-07-17T03:30:23Z</time>
      </trkpt>
      <trkpt lat="45.7538" lon="6.55862">
        <ele>1843</ele>
        <time>2022-07-17T03:30:25Z</time>
      </trkpt>
      <trkpt lat="45.75379" lon="6.5586">
        <ele>1843</ele>
        <time>2022-07-17T03:30:27Z</time>
      </trkpt>
      <trkpt lat="45.75377" lon="6.55857">
        <ele>1844</ele>
        <time>2022-07-17T03:30:29Z</time>
      </trkpt>
      <trkpt lat="45.75377" lon="6.55855">
        <ele>1845</ele>
        <time>2022-07-17T03:30:31Z</time>
      </trkpt>
      <trkpt lat="45.75376" lon="6.55852">
        <ele>1845</ele>
        <time>2022-07-17T03:30:33Z</time>
      </trkpt>
      <trkpt lat="45.75375" lon="6.5585">
        <ele>1845</ele>
        <time>2022-07-17T03:30:35Z</time>
      </trkpt>
      <trkpt lat="45.75375" lon="6.55847">
        <ele>1845</ele>
        <time>2022-07-17T03:30:37Z</time>
      </trkpt>
      <trkpt lat="45.75374" lon="6.55844">
        <ele>1845</ele>
        <time>2022-07-17T03:30:39Z</time>
      </trkpt>
      <trkpt lat="45.75373" lon="6.55842">
        <ele>1845</ele>
        <time>2022-07-17T03:30:41Z</time>
      </trkpt>
      <trkpt lat="45.75372" lon="6.55838">
        <ele>1846</ele>
        <time>2022-07-17T03:30:43Z</time>
      </trkpt>
      <trkpt lat="45.75371" lon="6.55835">
        <ele>1846</ele>
        <time>2022-07-17T03:30:45Z</time>
      </trkpt>
      <trkpt lat="45.7537" lon="6.55833">
        <ele>1846</ele>
        <time>2022-07-17T03:30:47Z</time>
      </trkpt>
      <trkpt lat="45.75368" lon="6.5583">
        <ele>1846</ele>
        <time>2022-07-17T03:30:49Z</time>
      </trkpt>
      <trkpt lat="45.75367" lon="6.55826">
        <ele>1846</ele>
        <time>2022-07-17T03:30:51Z</time>
      </trkpt>
      <trkpt lat="45.75366" lon="6.55823">
        <ele>1846</ele>
        <time>2022-07-17T03:30:53Z</time>
      </trkpt>
      <trkpt lat="45.75364" lon="6.55821">
        <ele>1846</ele>
        <time>2022-07-17T03:30:55Z</time>
      </trkpt>
      <trkpt lat="45.75363" lon="6.55818">
        <ele>1846</ele>
        <time>2022-07-17T03:30:57Z</time>
      </trkpt>
      <trkpt lat="45.75362" lon="6.55815">
        <ele>1847</ele>
        <time>2022-07-17T03:30:59Z</time>
      </trkpt>
      <trkpt lat="45.7536" lon="6.55813">
        <ele>1847</ele>
        <time>2022-07-17T03:31:01Z</time>
      </trkpt>
      <trkpt lat="45.75359" lon="6.5581">
        <ele>1847</ele>
        <time>2022-07-17T03:31:03Z</time>
      </trkpt>
      <trkpt lat="45.75358" lon="6.55807">
        <ele>1847</ele>
        <time>2022-07-17T03:31:05Z</time>
      </trkpt>
      <trkpt lat="45.75357" lon="6.55804">
        <ele>1847</ele>
        <time>2022-07-17T03:31:07Z</time>
      </trkpt>
      <trkpt lat="45.75356" lon="6.558">
        <ele>1847</ele>
        <time>2022-07-17T03:31:09Z</time>
      </trkpt>
      <trkpt lat="45.75355" lon="6.55796">
        <ele>1847</ele>
        <time>2022-07-17T03:31:11Z</time>
      </trkpt>
      <trkpt lat="45.75354" lon="6.55793">
        <ele>1847</ele>
        <time>2022-07-17T03:31:13Z</time>
      </trkpt>
      <trkpt lat="45.75352" lon="6.5579">
        <ele>1847</ele>
        <time>2022-07-17T03:31:15Z</time>
      </trkpt>
      <trkpt lat="45.75351" lon="6.55788">
        <ele>1848</ele>
        <time>2022-07-17T03:31:17Z</time>
      </trkpt>
      <trkpt lat="45.7535" lon="6.55785">
        <ele>1848</ele>
        <time>2022-07-17T03:31:19Z</time>
      </trkpt>
      <trkpt lat="45.75348" lon="6.55783">
        <ele>1849</ele>
        <time>2022-07-17T03:31:21Z</time>
      </trkpt>
      <trkpt lat="45.75347" lon="6.5578">
        <ele>1849</ele>
        <time>2022-07-17T03:31:23Z</time>
      </trkpt>
      <trkpt lat="45.75345" lon="6.55778">
        <ele>1849</ele>
        <time>2022-07-17T03:31:25Z</time>
      </trkpt>
      <trkpt lat="45.75344" lon="6.55776">
        <ele>1850</ele>
        <time>2022-07-17T03:31:27Z</time>
      </trkpt>
      <trkpt lat="45.75342" lon="6.55773">
        <ele>1850</ele>
        <time>2022-07-17T03:31:29Z</time>
      </trkpt>
      <trkpt lat="45.75341" lon="6.55771">
        <ele>1850</ele>
        <time>2022-07-17T03:31:31Z</time>
      </trkpt>
      <trkpt lat="45.75339" lon="6.55768">
        <ele>1850</ele>
        <time>2022-07-17T03:31:33Z</time>
      </trkpt>
      <trkpt lat="45.75337" lon="6.55766">
        <ele>1850</ele>
        <time>2022-07-17T03:31:35Z</time>
      </trkpt>
      <trkpt lat="45.75335" lon="6.55763">
        <ele>1850</ele>
        <time>2022-07-17T03:31:37Z</time>
      </trkpt>
      <trkpt lat="45.75334" lon="6.55761">
        <ele>1850</ele>
        <time>2022-07-17T03:31:39Z</time>
      </trkpt>
      <trkpt lat="45.75332" lon="6.55759">
        <ele>1850</ele>
        <time>2022-07-17T03:31:41Z</time>
      </trkpt>
      <trkpt lat="45.7533" lon="6.55757">
        <ele>1851</ele>
        <time>2022-07-17T03:31:43Z</time>
      </trkpt>
      <trkpt lat="45.75329" lon="6.55754">
        <ele>1851</ele>
        <time>2022-07-17T03:31:45Z</time>
      </trkpt>
      <trkpt lat="45.75327" lon="6.55752">
        <ele>1851</ele>
        <time>2022-07-17T03:31:47Z</time>
      </trkpt>
      <trkpt lat="45.75325" lon="6.55749">
        <ele>1851</ele>
        <time>2022-07-17T03:31:49Z</time>
      </trkpt>
      <trkpt lat="45.75323" lon="6.55747">
        <ele>1851</ele>
        <time>2022-07-17T03:31:51Z</time>
      </trkpt>
      <trkpt lat="45.75321" lon="6.55745">
        <ele>1851</ele>
        <time>2022-07-17T03:31:53Z</time>
      </trkpt>
      <trkpt lat="45.75319" lon="6.55742">
        <ele>1851</ele>
        <time>2022-07-17T03:31:55Z</time>
      </trkpt>
      <trkpt lat="45.75318" lon="6.5574">
        <ele>1851</ele>
        <time>2022-07-17T03:31:57Z</time>
      </trkpt>
      <trkpt lat="45.75316" lon="6.55737">
        <ele>1851</ele>
        <time>2022-07-17T03:31:59Z</time>
      </trkpt>
      <trkpt lat="45.75314" lon="6.55735">
        <ele>1852</ele>
        <time>2022-07-17T03:32:02Z</time>
      </trkpt>
      <trkpt lat="45.75313" lon="6.55733">
        <ele>1853</ele>
        <time>2022-07-17T03:32:04Z</time>
      </trkpt>
      <trkpt lat="45.75311" lon="6.5573">
        <ele>1853</ele>
        <time>2022-07-17T03:32:06Z</time>
      </trkpt>
      <trkpt lat="45.75309" lon="6.55728">
        <ele>1852</ele>
        <time>2022-07-17T03:32:08Z</time>
      </trkpt>
      <trkpt lat="45.75307" lon="6.55726">
        <ele>1852</ele>
        <time>2022-07-17T03:32:10Z</time>
      </trkpt>
      <trkpt lat="45.75305" lon="6.55724">
        <ele>1852</ele>
        <time>2022-07-17T03:32:12Z</time>
      </trkpt>
      <trkpt lat="45.75303" lon="6.55723">
        <ele>1853</ele>
        <time>2022-07-17T03:32:14Z</time>
      </trkpt>
      <trkpt lat="45.75302" lon="6.55721">
        <ele>1853</ele>
        <time>2022-07-17T03:32:16Z</time>
      </trkpt>
      <trkpt lat="45.753" lon="6.5572">
        <ele>1853</ele>
        <time>2022-07-17T03:32:18Z</time>
      </trkpt>
      <trkpt lat="45.75298" lon="6.55718">
        <ele>1853</ele>
        <time>2022-07-17T03:32:20Z</time>
      </trkpt>
      <trkpt lat="45.75296" lon="6.55716">
        <ele>1854</ele>
        <time>2022-07-17T03:32:22Z</time>
      </trkpt>
      <trkpt lat="45.75294" lon="6.55714">
        <ele>1854</ele>
        <time>2022-07-17T03:32:24Z</time>
      </trkpt>
      <trkpt lat="45.75292" lon="6.55711">
        <ele>1854</ele>
        <time>2022-07-17T03:32:26Z</time>
      </trkpt>
      <trkpt lat="45.75291" lon="6.55709">
        <ele>1854</ele>
        <time>2022-07-17T03:32:28Z</time>
      </trkpt>
      <trkpt lat="45.75289" lon="6.55708">
        <ele>1855</ele>
        <time>2022-07-17T03:32:30Z</time>
      </trkpt>
      <trkpt lat="45.75287" lon="6.55706">
        <ele>1855</ele>
        <time>2022-07-17T03:32:32Z</time>
      </trkpt>
      <trkpt lat="45.75285" lon="6.55703">
        <ele>1855</ele>
        <time>2022-07-17T03:32:34Z</time>
      </trkpt>
      <trkpt lat="45.75283" lon="6.55701">
        <ele>1855</ele>
        <time>2022-07-17T03:32:36Z</time>
      </trkpt>
      <trkpt lat="45.75282" lon="6.55699">
        <ele>1855</ele>
        <time>2022-07-17T03:32:39Z</time>
      </trkpt>
      <trkpt lat="45.75279" lon="6.55698">
        <ele>1855</ele>
        <time>2022-07-17T03:32:40Z</time>
      </trkpt>
      <trkpt lat="45.75278" lon="6.55696">
        <ele>1855</ele>
        <time>2022-07-17T03:32:42Z</time>
      </trkpt>
      <trkpt lat="45.75276" lon="6.55694">
        <ele>1855</ele>
        <time>2022-07-17T03:32:44Z</time>
      </trkpt>
      <trkpt lat="45.75274" lon="6.55692">
        <ele>1855</ele>
        <time>2022-07-17T03:32:46Z</time>
      </trkpt>
      <trkpt lat="45.75273" lon="6.5569">
        <ele>1855</ele>
        <time>2022-07-17T03:32:48Z</time>
      </trkpt>
      <trkpt lat="45.75271" lon="6.55688">
        <ele>1855</ele>
        <time>2022-07-17T03:32:50Z</time>
      </trkpt>
      <trkpt lat="45.75269" lon="6.55687">
        <ele>1856</ele>
        <time>2022-07-17T03:32:52Z</time>
      </trkpt>
      <trkpt lat="45.75266" lon="6.55685">
        <ele>1856</ele>
        <time>2022-07-17T03:32:54Z</time>
      </trkpt>
      <trkpt lat="45.75265" lon="6.55683">
        <ele>1856</ele>
        <time>2022-07-17T03:32:56Z</time>
      </trkpt>
      <trkpt lat="45.75263" lon="6.55681">
        <ele>1856</ele>
        <time>2022-07-17T03:32:58Z</time>
      </trkpt>
      <trkpt lat="45.75261" lon="6.55679">
        <ele>1856</ele>
        <time>2022-07-17T03:33:00Z</time>
      </trkpt>
      <trkpt lat="45.75259" lon="6.55677">
        <ele>1856</ele>
        <time>2022-07-17T03:33:02Z</time>
      </trkpt>
      <trkpt lat="45.75257" lon="6.55675">
        <ele>1856</ele>
        <time>2022-07-17T03:33:04Z</time>
      </trkpt>
      <trkpt lat="45.75254" lon="6.55673">
        <ele>1856</ele>
        <time>2022-07-17T03:33:06Z</time>
      </trkpt>
      <trkpt lat="45.75252" lon="6.55671">
        <ele>1856</ele>
        <time>2022-07-17T03:33:08Z</time>
      </trkpt>
      <trkpt lat="45.75249" lon="6.55668">
        <ele>1856</ele>
        <time>2022-07-17T03:33:10Z</time>
      </trkpt>
      <trkpt lat="45.75247" lon="6.55666">
        <ele>1856</ele>
        <time>2022-07-17T03:33:12Z</time>
      </trkpt>
      <trkpt lat="45.75245" lon="6.55664">
        <ele>1856</ele>
        <time>2022-07-17T03:33:14Z</time>
      </trkpt>
      <trkpt lat="45.75243" lon="6.55662">
        <ele>1856</ele>
        <time>2022-07-17T03:33:16Z</time>
      </trkpt>
      <trkpt lat="45.75241" lon="6.5566">
        <ele>1857</ele>
        <time>2022-07-17T03:33:18Z</time>
      </trkpt>
      <trkpt lat="45.75239" lon="6.55659">
        <ele>1857</ele>
        <time>2022-07-17T03:33:20Z</time>
      </trkpt>
      <trkpt lat="45.75237" lon="6.55657">
        <ele>1858</ele>
        <time>2022-07-17T03:33:22Z</time>
      </trkpt>
      <trkpt lat="45.75235" lon="6.55655">
        <ele>1858</ele>
        <time>2022-07-17T03:33:24Z</time>
      </trkpt>
      <trkpt lat="45.75233" lon="6.55652">
        <ele>1858</ele>
        <time>2022-07-17T03:33:26Z</time>
      </trkpt>
      <trkpt lat="45.75231" lon="6.5565">
        <ele>1858</ele>
        <time>2022-07-17T03:33:28Z</time>
      </trkpt>
      <trkpt lat="45.75229" lon="6.55648">
        <ele>1858</ele>
        <time>2022-07-17T03:33:30Z</time>
      </trkpt>
      <trkpt lat="45.75227" lon="6.55646">
        <ele>1858</ele>
        <time>2022-07-17T03:33:32Z</time>
      </trkpt>
      <trkpt lat="45.75224" lon="6.55643">
        <ele>1858</ele>
        <time>2022-07-17T03:33:34Z</time>
      </trkpt>
      <trkpt lat="45.75222" lon="6.5564">
        <ele>1858</ele>
        <time>2022-07-17T03:33:36Z</time>
      </trkpt>
      <trkpt lat="45.7522" lon="6.55638">
        <ele>1858</ele>
        <time>2022-07-17T03:33:38Z</time>
      </trkpt>
      <trkpt lat="45.75218" lon="6.55636">
        <ele>1858</ele>
        <time>2022-07-17T03:33:40Z</time>
      </trkpt>
      <trkpt lat="45.75216" lon="6.55634">
        <ele>1858</ele>
        <time>2022-07-17T03:33:42Z</time>
      </trkpt>
      <trkpt lat="45.75215" lon="6.55632">
        <ele>1859</ele>
        <time>2022-07-17T03:33:44Z</time>
      </trkpt>
      <trkpt lat="45.75213" lon="6.5563">
        <ele>1859</ele>
        <time>2022-07-17T03:33:46Z</time>
      </trkpt>
      <trkpt lat="45.75211" lon="6.55628">
        <ele>1859</ele>
        <time>2022-07-17T03:33:48Z</time>
      </trkpt>
      <trkpt lat="45.75209" lon="6.55626">
        <ele>1859</ele>
        <time>2022-07-17T03:33:50Z</time>
      </trkpt>
      <trkpt lat="45.75207" lon="6.55624">
        <ele>1859</ele>
        <time>2022-07-17T03:33:52Z</time>
      </trkpt>
      <trkpt lat="45.75205" lon="6.55622">
        <ele>1859</ele>
        <time>2022-07-17T03:33:54Z</time>
      </trkpt>
      <trkpt lat="45.75203" lon="6.5562">
        <ele>1859</ele>
        <time>2022-07-17T03:33:56Z</time>
      </trkpt>
      <trkpt lat="45.75201" lon="6.55618">
        <ele>1859</ele>
        <time>2022-07-17T03:33:58Z</time>
      </trkpt>
      <trkpt lat="45.75199" lon="6.55616">
        <ele>1860</ele>
        <time>2022-07-17T03:34:00Z</time>
      </trkpt>
      <trkpt lat="45.75197" lon="6.55613">
        <ele>1860</ele>
        <time>2022-07-17T03:34:02Z</time>
      </trkpt>
      <trkpt lat="45.75195" lon="6.55612">
        <ele>1860</ele>
        <time>2022-07-17T03:34:04Z</time>
      </trkpt>
      <trkpt lat="45.75193" lon="6.5561">
        <ele>1861</ele>
        <time>2022-07-17T03:34:06Z</time>
      </trkpt>
      <trkpt lat="45.75191" lon="6.55608">
        <ele>1861</ele>
        <time>2022-07-17T03:34:08Z</time>
      </trkpt>
      <trkpt lat="45.75188" lon="6.55606">
        <ele>1861</ele>
        <time>2022-07-17T03:34:10Z</time>
      </trkpt>
      <trkpt lat="45.75186" lon="6.55604">
        <ele>1861</ele>
        <time>2022-07-17T03:34:12Z</time>
      </trkpt>
      <trkpt lat="45.75184" lon="6.55603">
        <ele>1861</ele>
        <time>2022-07-17T03:34:14Z</time>
      </trkpt>
      <trkpt lat="45.75182" lon="6.55601">
        <ele>1861</ele>
        <time>2022-07-17T03:34:16Z</time>
      </trkpt>
      <trkpt lat="45.75179" lon="6.55599">
        <ele>1861</ele>
        <time>2022-07-17T03:34:18Z</time>
      </trkpt>
      <trkpt lat="45.75177" lon="6.55597">
        <ele>1861</ele>
        <time>2022-07-17T03:34:20Z</time>
      </trkpt>
      <trkpt lat="45.75175" lon="6.55595">
        <ele>1862</ele>
        <time>2022-07-17T03:34:22Z</time>
      </trkpt>
      <trkpt lat="45.75172" lon="6.55593">
        <ele>1862</ele>
        <time>2022-07-17T03:34:24Z</time>
      </trkpt>
      <trkpt lat="45.7517" lon="6.55591">
        <ele>1862</ele>
        <time>2022-07-17T03:34:26Z</time>
      </trkpt>
      <trkpt lat="45.75167" lon="6.5559">
        <ele>1862</ele>
        <time>2022-07-17T03:34:28Z</time>
      </trkpt>
      <trkpt lat="45.75164" lon="6.55588">
        <ele>1862</ele>
        <time>2022-07-17T03:34:30Z</time>
      </trkpt>
      <trkpt lat="45.75162" lon="6.55586">
        <ele>1862</ele>
        <time>2022-07-17T03:34:32Z</time>
      </trkpt>
      <trkpt lat="45.7516" lon="6.55585">
        <ele>1862</ele>
        <time>2022-07-17T03:34:34Z</time>
      </trkpt>
      <trkpt lat="45.75157" lon="6.55583">
        <ele>1862</ele>
        <time>2022-07-17T03:34:36Z</time>
      </trkpt>
      <trkpt lat="45.75154" lon="6.5558">
        <ele>1862</ele>
        <time>2022-07-17T03:34:38Z</time>
      </trkpt>
      <trkpt lat="45.75152" lon="6.55578">
        <ele>1862</ele>
        <time>2022-07-17T03:34:40Z</time>
      </trkpt>
      <trkpt lat="45.7515" lon="6.55576">
        <ele>1862</ele>
        <time>2022-07-17T03:34:42Z</time>
      </trkpt>
      <trkpt lat="45.75149" lon="6.55574">
        <ele>1862</ele>
        <time>2022-07-17T03:34:44Z</time>
      </trkpt>
      <trkpt lat="45.75147" lon="6.55571">
        <ele>1863</ele>
        <time>2022-07-17T03:34:46Z</time>
      </trkpt>
      <trkpt lat="45.75145" lon="6.55569">
        <ele>1863</ele>
        <time>2022-07-17T03:34:48Z</time>
      </trkpt>
      <trkpt lat="45.75143" lon="6.55567">
        <ele>1863</ele>
        <time>2022-07-17T03:34:50Z</time>
      </trkpt>
      <trkpt lat="45.75141" lon="6.55565">
        <ele>1863</ele>
        <time>2022-07-17T03:34:52Z</time>
      </trkpt>
      <trkpt lat="45.75139" lon="6.55563">
        <ele>1863</ele>
        <time>2022-07-17T03:34:54Z</time>
      </trkpt>
      <trkpt lat="45.75137" lon="6.55562">
        <ele>1863</ele>
        <time>2022-07-17T03:34:56Z</time>
      </trkpt>
      <trkpt lat="45.75134" lon="6.5556">
        <ele>1863</ele>
        <time>2022-07-17T03:34:58Z</time>
      </trkpt>
      <trkpt lat="45.75132" lon="6.55559">
        <ele>1863</ele>
        <time>2022-07-17T03:35:00Z</time>
      </trkpt>
      <trkpt lat="45.75131" lon="6.55557">
        <ele>1863</ele>
        <time>2022-07-17T03:35:02Z</time>
      </trkpt>
      <trkpt lat="45.75129" lon="6.55555">
        <ele>1863</ele>
        <time>2022-07-17T03:35:04Z</time>
      </trkpt>
      <trkpt lat="45.75127" lon="6.55553">
        <ele>1863</ele>
        <time>2022-07-17T03:35:06Z</time>
      </trkpt>
      <trkpt lat="45.75125" lon="6.5555">
        <ele>1863</ele>
        <time>2022-07-17T03:35:08Z</time>
      </trkpt>
      <trkpt lat="45.75123" lon="6.55549">
        <ele>1863</ele>
        <time>2022-07-17T03:35:10Z</time>
      </trkpt>
      <trkpt lat="45.75121" lon="6.55547">
        <ele>1863</ele>
        <time>2022-07-17T03:35:12Z</time>
      </trkpt>
      <trkpt lat="45.75119" lon="6.55546">
        <ele>1863</ele>
        <time>2022-07-17T03:35:14Z</time>
      </trkpt>
      <trkpt lat="45.75117" lon="6.55543">
        <ele>1863</ele>
        <time>2022-07-17T03:35:16Z</time>
      </trkpt>
      <trkpt lat="45.75116" lon="6.5554">
        <ele>1863</ele>
        <time>2022-07-17T03:35:18Z</time>
      </trkpt>
      <trkpt lat="45.75113" lon="6.55538">
        <ele>1863</ele>
        <time>2022-07-17T03:35:20Z</time>
      </trkpt>
      <trkpt lat="45.75111" lon="6.55536">
        <ele>1863</ele>
        <time>2022-07-17T03:35:22Z</time>
      </trkpt>
      <trkpt lat="45.7511" lon="6.55532">
        <ele>1863</ele>
        <time>2022-07-17T03:35:24Z</time>
      </trkpt>
      <trkpt lat="45.75109" lon="6.55528">
        <ele>1863</ele>
        <time>2022-07-17T03:35:26Z</time>
      </trkpt>
      <trkpt lat="45.75108" lon="6.55524">
        <ele>1863</ele>
        <time>2022-07-17T03:35:28Z</time>
      </trkpt>
      <trkpt lat="45.75107" lon="6.55521">
        <ele>1863</ele>
        <time>2022-07-17T03:35:29Z</time>
      </trkpt>
      <trkpt lat="45.75107" lon="6.55519">
        <ele>1863</ele>
        <time>2022-07-17T03:35:30Z</time>
      </trkpt>
      <trkpt lat="45.75106" lon="6.55518">
        <ele>1863</ele>
        <time>2022-07-17T03:35:31Z</time>
      </trkpt>
      <trkpt lat="45.75106" lon="6.55516">
        <ele>1863</ele>
        <time>2022-07-17T03:35:32Z</time>
      </trkpt>
      <trkpt lat="45.75106" lon="6.55514">
        <ele>1863</ele>
        <time>2022-07-17T03:35:33Z</time>
      </trkpt>
      <trkpt lat="45.75105" lon="6.55512">
        <ele>1863</ele>
        <time>2022-07-17T03:35:34Z</time>
      </trkpt>
      <trkpt lat="45.75105" lon="6.5551">
        <ele>1863</ele>
        <time>2022-07-17T03:35:35Z</time>
      </trkpt>
      <trkpt lat="45.75103" lon="6.55505">
        <ele>1863</ele>
        <time>2022-07-17T03:35:37Z</time>
      </trkpt>
      <trkpt lat="45.75102" lon="6.55504">
        <ele>1863</ele>
        <time>2022-07-17T03:35:38Z</time>
      </trkpt>
      <trkpt lat="45.75102" lon="6.55502">
        <ele>1863</ele>
        <time>2022-07-17T03:35:39Z</time>
      </trkpt>
      <trkpt lat="45.75101" lon="6.55501">
        <ele>1863</ele>
        <time>2022-07-17T03:35:40Z</time>
      </trkpt>
      <trkpt lat="45.751" lon="6.555">
        <ele>1863</ele>
        <time>2022-07-17T03:35:41Z</time>
      </trkpt>
      <trkpt lat="45.751" lon="6.55498">
        <ele>1863</ele>
        <time>2022-07-17T03:35:42Z</time>
      </trkpt>
      <trkpt lat="45.75096" lon="6.5549">
        <ele>1863</ele>
        <time>2022-07-17T03:35:43Z</time>
      </trkpt>
      <trkpt lat="45.75095" lon="6.55488">
        <ele>1862</ele>
        <time>2022-07-17T03:35:44Z</time>
      </trkpt>
      <trkpt lat="45.75095" lon="6.55486">
        <ele>1862</ele>
        <time>2022-07-17T03:35:45Z</time>
      </trkpt>
      <trkpt lat="45.75094" lon="6.55485">
        <ele>1862</ele>
        <time>2022-07-17T03:35:46Z</time>
      </trkpt>
      <trkpt lat="45.75092" lon="6.55476">
        <ele>1862</ele>
        <time>2022-07-17T03:35:47Z</time>
      </trkpt>
      <trkpt lat="45.75092" lon="6.55473">
        <ele>1862</ele>
        <time>2022-07-17T03:35:48Z</time>
      </trkpt>
      <trkpt lat="45.75091" lon="6.55471">
        <ele>1862</ele>
        <time>2022-07-17T03:35:49Z</time>
      </trkpt>
      <trkpt lat="45.75091" lon="6.55469">
        <ele>1862</ele>
        <time>2022-07-17T03:35:50Z</time>
      </trkpt>
      <trkpt lat="45.7509" lon="6.55466">
        <ele>1861</ele>
        <time>2022-07-17T03:35:51Z</time>
      </trkpt>
      <trkpt lat="45.7509" lon="6.55464">
        <ele>1861</ele>
        <time>2022-07-17T03:35:52Z</time>
      </trkpt>
      <trkpt lat="45.75089" lon="6.55461">
        <ele>1861</ele>
        <time>2022-07-17T03:35:53Z</time>
      </trkpt>
      <trkpt lat="45.75089" lon="6.55458">
        <ele>1861</ele>
        <time>2022-07-17T03:35:54Z</time>
      </trkpt>
      <trkpt lat="45.75088" lon="6.55456">
        <ele>1861</ele>
        <time>2022-07-17T03:35:55Z</time>
      </trkpt>
      <trkpt lat="45.75087" lon="6.55453">
        <ele>1861</ele>
        <time>2022-07-17T03:35:56Z</time>
      </trkpt>
      <trkpt lat="45.75087" lon="6.55451">
        <ele>1861</ele>
        <time>2022-07-17T03:35:57Z</time>
      </trkpt>
      <trkpt lat="45.75086" lon="6.55448">
        <ele>1861</ele>
        <time>2022-07-17T03:35:58Z</time>
      </trkpt>
      <trkpt lat="45.75086" lon="6.55444">
        <ele>1861</ele>
        <time>2022-07-17T03:36:00Z</time>
      </trkpt>
      <trkpt lat="45.75085" lon="6.5544">
        <ele>1861</ele>
        <time>2022-07-17T03:36:02Z</time>
      </trkpt>
      <trkpt lat="45.75085" lon="6.55435">
        <ele>1861</ele>
        <time>2022-07-17T03:36:04Z</time>
      </trkpt>
      <trkpt lat="45.75086" lon="6.55432">
        <ele>1861</ele>
        <time>2022-07-17T03:36:05Z</time>
      </trkpt>
      <trkpt lat="45.75086" lon="6.55428">
        <ele>1861</ele>
        <time>2022-07-17T03:36:06Z</time>
      </trkpt>
      <trkpt lat="45.75086" lon="6.55425">
        <ele>1861</ele>
        <time>2022-07-17T03:36:08Z</time>
      </trkpt>
      <trkpt lat="45.75087" lon="6.55421">
        <ele>1861</ele>
        <time>2022-07-17T03:36:09Z</time>
      </trkpt>
      <trkpt lat="45.75087" lon="6.55419">
        <ele>1861</ele>
        <time>2022-07-17T03:36:10Z</time>
      </trkpt>
      <trkpt lat="45.75087" lon="6.55417">
        <ele>1861</ele>
        <time>2022-07-17T03:36:11Z</time>
      </trkpt>
      <trkpt lat="45.75087" lon="6.55414">
        <ele>1861</ele>
        <time>2022-07-17T03:36:12Z</time>
      </trkpt>
      <trkpt lat="45.75087" lon="6.55412">
        <ele>1861</ele>
        <time>2022-07-17T03:36:13Z</time>
      </trkpt>
      <trkpt lat="45.75087" lon="6.5541">
        <ele>1861</ele>
        <time>2022-07-17T03:36:14Z</time>
      </trkpt>
      <trkpt lat="45.75088" lon="6.55407">
        <ele>1861</ele>
        <time>2022-07-17T03:36:15Z</time>
      </trkpt>
      <trkpt lat="45.75088" lon="6.55405">
        <ele>1861</ele>
        <time>2022-07-17T03:36:16Z</time>
      </trkpt>
      <trkpt lat="45.75089" lon="6.55403">
        <ele>1862</ele>
        <time>2022-07-17T03:36:17Z</time>
      </trkpt>
      <trkpt lat="45.75089" lon="6.55401">
        <ele>1862</ele>
        <time>2022-07-17T03:36:18Z</time>
      </trkpt>
      <trkpt lat="45.7509" lon="6.55399">
        <ele>1862</ele>
        <time>2022-07-17T03:36:19Z</time>
      </trkpt>
      <trkpt lat="45.75091" lon="6.55397">
        <ele>1862</ele>
        <time>2022-07-17T03:36:20Z</time>
      </trkpt>
      <trkpt lat="45.75091" lon="6.55395">
        <ele>1862</ele>
        <time>2022-07-17T03:36:21Z</time>
      </trkpt>
      <trkpt lat="45.75092" lon="6.55394">
        <ele>1862</ele>
        <time>2022-07-17T03:36:22Z</time>
      </trkpt>
      <trkpt lat="45.75092" lon="6.55393">
        <ele>1863</ele>
        <time>2022-07-17T03:36:23Z</time>
      </trkpt>
      <trkpt lat="45.75092" lon="6.55392">
        <ele>1863</ele>
        <time>2022-07-17T03:36:24Z</time>
      </trkpt>
      <trkpt lat="45.75093" lon="6.55391">
        <ele>1863</ele>
        <time>2022-07-17T03:36:25Z</time>
      </trkpt>
      <trkpt lat="45.75093" lon="6.5539">
        <ele>1863</ele>
        <time>2022-07-17T03:36:26Z</time>
      </trkpt>
      <trkpt lat="45.75093" lon="6.55389">
        <ele>1863</ele>
        <time>2022-07-17T03:36:27Z</time>
      </trkpt>
      <trkpt lat="45.75096" lon="6.5538">
        <ele>1863</ele>
        <time>2022-07-17T03:36:28Z</time>
      </trkpt>
      <trkpt lat="45.75097" lon="6.55377">
        <ele>1863</ele>
        <time>2022-07-17T03:36:29Z</time>
      </trkpt>
      <trkpt lat="45.75098" lon="6.55375">
        <ele>1863</ele>
        <time>2022-07-17T03:36:30Z</time>
      </trkpt>
      <trkpt lat="45.75098" lon="6.55372">
        <ele>1863</ele>
        <time>2022-07-17T03:36:31Z</time>
      </trkpt>
      <trkpt lat="45.75099" lon="6.5537">
        <ele>1863</ele>
        <time>2022-07-17T03:36:32Z</time>
      </trkpt>
      <trkpt lat="45.751" lon="6.55369">
        <ele>1863</ele>
        <time>2022-07-17T03:36:33Z</time>
      </trkpt>
      <trkpt lat="45.75101" lon="6.55367">
        <ele>1863</ele>
        <time>2022-07-17T03:36:34Z</time>
      </trkpt>
      <trkpt lat="45.75102" lon="6.55366">
        <ele>1863</ele>
        <time>2022-07-17T03:36:35Z</time>
      </trkpt>
      <trkpt lat="45.75103" lon="6.55364">
        <ele>1863</ele>
        <time>2022-07-17T03:36:36Z</time>
      </trkpt>
      <trkpt lat="45.75104" lon="6.55363">
        <ele>1863</ele>
        <time>2022-07-17T03:36:37Z</time>
      </trkpt>
      <trkpt lat="45.75105" lon="6.55361">
        <ele>1863</ele>
        <time>2022-07-17T03:36:38Z</time>
      </trkpt>
      <trkpt lat="45.75106" lon="6.5536">
        <ele>1863</ele>
        <time>2022-07-17T03:36:39Z</time>
      </trkpt>
      <trkpt lat="45.75107" lon="6.55358">
        <ele>1863</ele>
        <time>2022-07-17T03:36:40Z</time>
      </trkpt>
      <trkpt lat="45.75108" lon="6.55355">
        <ele>1863</ele>
        <time>2022-07-17T03:36:41Z</time>
      </trkpt>
      <trkpt lat="45.75109" lon="6.55353">
        <ele>1862</ele>
        <time>2022-07-17T03:36:42Z</time>
      </trkpt>
      <trkpt lat="45.7511" lon="6.5535">
        <ele>1862</ele>
        <time>2022-07-17T03:36:43Z</time>
      </trkpt>
      <trkpt lat="45.75111" lon="6.55348">
        <ele>1862</ele>
        <time>2022-07-17T03:36:44Z</time>
      </trkpt>
      <trkpt lat="45.75112" lon="6.55345">
        <ele>1862</ele>
        <time>2022-07-17T03:36:46Z</time>
      </trkpt>
      <trkpt lat="45.75114" lon="6.55343">
        <ele>1862</ele>
        <time>2022-07-17T03:36:47Z</time>
      </trkpt>
      <trkpt lat="45.75116" lon="6.5534">
        <ele>1861</ele>
        <time>2022-07-17T03:36:48Z</time>
      </trkpt>
      <trkpt lat="45.75117" lon="6.55338">
        <ele>1862</ele>
        <time>2022-07-17T03:36:49Z</time>
      </trkpt>
      <trkpt lat="45.75118" lon="6.55335">
        <ele>1862</ele>
        <time>2022-07-17T03:36:50Z</time>
      </trkpt>
      <trkpt lat="45.75119" lon="6.55333">
        <ele>1862</ele>
        <time>2022-07-17T03:36:51Z</time>
      </trkpt>
      <trkpt lat="45.7512" lon="6.55331">
        <ele>1862</ele>
        <time>2022-07-17T03:36:52Z</time>
      </trkpt>
      <trkpt lat="45.75121" lon="6.55328">
        <ele>1862</ele>
        <time>2022-07-17T03:36:53Z</time>
      </trkpt>
      <trkpt lat="45.75122" lon="6.55325">
        <ele>1862</ele>
        <time>2022-07-17T03:36:54Z</time>
      </trkpt>
      <trkpt lat="45.75123" lon="6.55322">
        <ele>1862</ele>
        <time>2022-07-17T03:36:55Z</time>
      </trkpt>
      <trkpt lat="45.75123" lon="6.55318">
        <ele>1862</ele>
        <time>2022-07-17T03:36:57Z</time>
      </trkpt>
      <trkpt lat="45.75124" lon="6.55316">
        <ele>1862</ele>
        <time>2022-07-17T03:36:59Z</time>
      </trkpt>
      <trkpt lat="45.75125" lon="6.55314">
        <ele>1862</ele>
        <time>2022-07-17T03:37:00Z</time>
      </trkpt>
      <trkpt lat="45.75126" lon="6.55312">
        <ele>1862</ele>
        <time>2022-07-17T03:37:01Z</time>
      </trkpt>
      <trkpt lat="45.75127" lon="6.5531">
        <ele>1862</ele>
        <time>2022-07-17T03:37:02Z</time>
      </trkpt>
      <trkpt lat="45.75128" lon="6.55308">
        <ele>1862</ele>
        <time>2022-07-17T03:37:03Z</time>
      </trkpt>
      <trkpt lat="45.7513" lon="6.55299">
        <ele>1861</ele>
        <time>2022-07-17T03:37:05Z</time>
      </trkpt>
      <trkpt lat="45.75131" lon="6.55298">
        <ele>1860</ele>
        <time>2022-07-17T03:37:06Z</time>
      </trkpt>
      <trkpt lat="45.75131" lon="6.55295">
        <ele>1859</ele>
        <time>2022-07-17T03:37:07Z</time>
      </trkpt>
      <trkpt lat="45.75132" lon="6.55293">
        <ele>1859</ele>
        <time>2022-07-17T03:37:08Z</time>
      </trkpt>
      <trkpt lat="45.75133" lon="6.55288">
        <ele>1859</ele>
        <time>2022-07-17T03:37:10Z</time>
      </trkpt>
      <trkpt lat="45.75134" lon="6.55285">
        <ele>1859</ele>
        <time>2022-07-17T03:37:11Z</time>
      </trkpt>
      <trkpt lat="45.75135" lon="6.55281">
        <ele>1859</ele>
        <time>2022-07-17T03:37:13Z</time>
      </trkpt>
      <trkpt lat="45.75138" lon="6.55278">
        <ele>1859</ele>
        <time>2022-07-17T03:37:15Z</time>
      </trkpt>
      <trkpt lat="45.7514" lon="6.55275">
        <ele>1858</ele>
        <time>2022-07-17T03:37:17Z</time>
      </trkpt>
      <trkpt lat="45.75142" lon="6.55274">
        <ele>1858</ele>
        <time>2022-07-17T03:37:18Z</time>
      </trkpt>
      <trkpt lat="45.75143" lon="6.55273">
        <ele>1858</ele>
        <time>2022-07-17T03:37:19Z</time>
      </trkpt>
      <trkpt lat="45.75145" lon="6.55272">
        <ele>1858</ele>
        <time>2022-07-17T03:37:20Z</time>
      </trkpt>
      <trkpt lat="45.75146" lon="6.55271">
        <ele>1857</ele>
        <time>2022-07-17T03:37:21Z</time>
      </trkpt>
      <trkpt lat="45.75149" lon="6.5527">
        <ele>1857</ele>
        <time>2022-07-17T03:37:24Z</time>
      </trkpt>
      <trkpt lat="45.75152" lon="6.5527">
        <ele>1857</ele>
        <time>2022-07-17T03:37:25Z</time>
      </trkpt>
      <trkpt lat="45.75156" lon="6.55269">
        <ele>1855</ele>
        <time>2022-07-17T03:37:27Z</time>
      </trkpt>
      <trkpt lat="45.75158" lon="6.55268">
        <ele>1855</ele>
        <time>2022-07-17T03:37:28Z</time>
      </trkpt>
      <trkpt lat="45.7516" lon="6.55267">
        <ele>1855</ele>
        <time>2022-07-17T03:37:29Z</time>
      </trkpt>
      <trkpt lat="45.75163" lon="6.55266">
        <ele>1855</ele>
        <time>2022-07-17T03:37:30Z</time>
      </trkpt>
      <trkpt lat="45.75165" lon="6.55266">
        <ele>1855</ele>
        <time>2022-07-17T03:37:31Z</time>
      </trkpt>
      <trkpt lat="45.75169" lon="6.55266">
        <ele>1855</ele>
        <time>2022-07-17T03:37:34Z</time>
      </trkpt>
      <trkpt lat="45.75173" lon="6.55266">
        <ele>1856</ele>
        <time>2022-07-17T03:37:36Z</time>
      </trkpt>
      <trkpt lat="45.75175" lon="6.55267">
        <ele>1856</ele>
        <time>2022-07-17T03:37:38Z</time>
      </trkpt>
      <trkpt lat="45.75178" lon="6.55268">
        <ele>1856</ele>
        <time>2022-07-17T03:37:40Z</time>
      </trkpt>
      <trkpt lat="45.7518" lon="6.55268">
        <ele>1856</ele>
        <time>2022-07-17T03:37:41Z</time>
      </trkpt>
      <trkpt lat="45.75183" lon="6.55268">
        <ele>1856</ele>
        <time>2022-07-17T03:37:42Z</time>
      </trkpt>
      <trkpt lat="45.75185" lon="6.55268">
        <ele>1856</ele>
        <time>2022-07-17T03:37:43Z</time>
      </trkpt>
      <trkpt lat="45.75187" lon="6.55268">
        <ele>1856</ele>
        <time>2022-07-17T03:37:44Z</time>
      </trkpt>
      <trkpt lat="45.7519" lon="6.55268">
        <ele>1856</ele>
        <time>2022-07-17T03:37:45Z</time>
      </trkpt>
      <trkpt lat="45.75193" lon="6.5527">
        <ele>1856</ele>
        <time>2022-07-17T03:37:47Z</time>
      </trkpt>
      <trkpt lat="45.75194" lon="6.5527">
        <ele>1856</ele>
        <time>2022-07-17T03:37:48Z</time>
      </trkpt>
      <trkpt lat="45.75197" lon="6.55271">
        <ele>1856</ele>
        <time>2022-07-17T03:37:50Z</time>
      </trkpt>
      <trkpt lat="45.75199" lon="6.55272">
        <ele>1856</ele>
        <time>2022-07-17T03:37:52Z</time>
      </trkpt>
      <trkpt lat="45.75201" lon="6.55273">
        <ele>1856</ele>
        <time>2022-07-17T03:37:54Z</time>
      </trkpt>
      <trkpt lat="45.75203" lon="6.55273">
        <ele>1856</ele>
        <time>2022-07-17T03:37:56Z</time>
      </trkpt>
      <trkpt lat="45.75206" lon="6.55273">
        <ele>1856</ele>
        <time>2022-07-17T03:37:58Z</time>
      </trkpt>
      <trkpt lat="45.75208" lon="6.55275">
        <ele>1856</ele>
        <time>2022-07-17T03:38:00Z</time>
      </trkpt>
      <trkpt lat="45.75211" lon="6.55276">
        <ele>1856</ele>
        <time>2022-07-17T03:38:03Z</time>
      </trkpt>
      <trkpt lat="45.75213" lon="6.55278">
        <ele>1856</ele>
        <time>2022-07-17T03:38:05Z</time>
      </trkpt>
      <trkpt lat="45.75216" lon="6.55279">
        <ele>1857</ele>
        <time>2022-07-17T03:38:07Z</time>
      </trkpt>
      <trkpt lat="45.75217" lon="6.5528">
        <ele>1857</ele>
        <time>2022-07-17T03:38:09Z</time>
      </trkpt>
      <trkpt lat="45.7522" lon="6.55282">
        <ele>1857</ele>
        <time>2022-07-17T03:38:12Z</time>
      </trkpt>
      <trkpt lat="45.75222" lon="6.55283">
        <ele>1857</ele>
        <time>2022-07-17T03:38:14Z</time>
      </trkpt>
      <trkpt lat="45.75224" lon="6.55285">
        <ele>1857</ele>
        <time>2022-07-17T03:38:16Z</time>
      </trkpt>
      <trkpt lat="45.75226" lon="6.55286">
        <ele>1857</ele>
        <time>2022-07-17T03:38:18Z</time>
      </trkpt>
      <trkpt lat="45.75228" lon="6.55287">
        <ele>1857</ele>
        <time>2022-07-17T03:38:21Z</time>
      </trkpt>
      <trkpt lat="45.7523" lon="6.55288">
        <ele>1857</ele>
        <time>2022-07-17T03:38:22Z</time>
      </trkpt>
      <trkpt lat="45.75231" lon="6.55289">
        <ele>1857</ele>
        <time>2022-07-17T03:38:24Z</time>
      </trkpt>
      <trkpt lat="45.75233" lon="6.5529">
        <ele>1858</ele>
        <time>2022-07-17T03:38:26Z</time>
      </trkpt>
      <trkpt lat="45.75235" lon="6.55291">
        <ele>1858</ele>
        <time>2022-07-17T03:38:28Z</time>
      </trkpt>
      <trkpt lat="45.75237" lon="6.55292">
        <ele>1858</ele>
        <time>2022-07-17T03:38:30Z</time>
      </trkpt>
      <trkpt lat="45.75239" lon="6.55293">
        <ele>1858</ele>
        <time>2022-07-17T03:38:32Z</time>
      </trkpt>
      <trkpt lat="45.75241" lon="6.55295">
        <ele>1858</ele>
        <time>2022-07-17T03:38:34Z</time>
      </trkpt>
      <trkpt lat="45.75243" lon="6.55296">
        <ele>1858</ele>
        <time>2022-07-17T03:38:36Z</time>
      </trkpt>
      <trkpt lat="45.75246" lon="6.55297">
        <ele>1858</ele>
        <time>2022-07-17T03:38:40Z</time>
      </trkpt>
      <trkpt lat="45.75248" lon="6.55297">
        <ele>1858</ele>
        <time>2022-07-17T03:38:41Z</time>
      </trkpt>
      <trkpt lat="45.75249" lon="6.55298">
        <ele>1858</ele>
        <time>2022-07-17T03:38:42Z</time>
      </trkpt>
      <trkpt lat="45.7525" lon="6.55299">
        <ele>1858</ele>
        <time>2022-07-17T03:38:43Z</time>
      </trkpt>
      <trkpt lat="45.75251" lon="6.55299">
        <ele>1858</ele>
        <time>2022-07-17T03:38:44Z</time>
      </trkpt>
      <trkpt lat="45.75253" lon="6.553">
        <ele>1858</ele>
        <time>2022-07-17T03:38:45Z</time>
      </trkpt>
      <trkpt lat="45.75254" lon="6.553">
        <ele>1859</ele>
        <time>2022-07-17T03:38:46Z</time>
      </trkpt>
      <trkpt lat="45.75255" lon="6.55301">
        <ele>1859</ele>
        <time>2022-07-17T03:38:47Z</time>
      </trkpt>
      <trkpt lat="45.75257" lon="6.55301">
        <ele>1859</ele>
        <time>2022-07-17T03:38:48Z</time>
      </trkpt>
      <trkpt lat="45.75259" lon="6.55302">
        <ele>1859</ele>
        <time>2022-07-17T03:38:49Z</time>
      </trkpt>
      <trkpt lat="45.7526" lon="6.55302">
        <ele>1859</ele>
        <time>2022-07-17T03:38:50Z</time>
      </trkpt>
      <trkpt lat="45.75262" lon="6.55302">
        <ele>1859</ele>
        <time>2022-07-17T03:38:51Z</time>
      </trkpt>
      <trkpt lat="45.75265" lon="6.55303">
        <ele>1859</ele>
        <time>2022-07-17T03:38:53Z</time>
      </trkpt>
      <trkpt lat="45.75268" lon="6.55303">
        <ele>1859</ele>
        <time>2022-07-17T03:38:54Z</time>
      </trkpt>
      <trkpt lat="45.7527" lon="6.55303">
        <ele>1859</ele>
        <time>2022-07-17T03:38:55Z</time>
      </trkpt>
      <trkpt lat="45.75272" lon="6.55304">
        <ele>1859</ele>
        <time>2022-07-17T03:38:56Z</time>
      </trkpt>
      <trkpt lat="45.75274" lon="6.55304">
        <ele>1859</ele>
        <time>2022-07-17T03:38:57Z</time>
      </trkpt>
      <trkpt lat="45.75276" lon="6.55304">
        <ele>1859</ele>
        <time>2022-07-17T03:38:59Z</time>
      </trkpt>
      <trkpt lat="45.75278" lon="6.55305">
        <ele>1860</ele>
        <time>2022-07-17T03:39:00Z</time>
      </trkpt>
      <trkpt lat="45.7528" lon="6.55305">
        <ele>1860</ele>
        <time>2022-07-17T03:39:01Z</time>
      </trkpt>
      <trkpt lat="45.75282" lon="6.55305">
        <ele>1859</ele>
        <time>2022-07-17T03:39:02Z</time>
      </trkpt>
      <trkpt lat="45.75283" lon="6.55305">
        <ele>1859</ele>
        <time>2022-07-17T03:39:03Z</time>
      </trkpt>
      <trkpt lat="45.75286" lon="6.55305">
        <ele>1859</ele>
        <time>2022-07-17T03:39:04Z</time>
      </trkpt>
      <trkpt lat="45.7529" lon="6.55306">
        <ele>1860</ele>
        <time>2022-07-17T03:39:06Z</time>
      </trkpt>
      <trkpt lat="45.75291" lon="6.55306">
        <ele>1860</ele>
        <time>2022-07-17T03:39:07Z</time>
      </trkpt>
      <trkpt lat="45.75293" lon="6.55305">
        <ele>1860</ele>
        <time>2022-07-17T03:39:08Z</time>
      </trkpt>
      <trkpt lat="45.75296" lon="6.55305">
        <ele>1860</ele>
        <time>2022-07-17T03:39:10Z</time>
      </trkpt>
      <trkpt lat="45.75298" lon="6.55305">
        <ele>1860</ele>
        <time>2022-07-17T03:39:12Z</time>
      </trkpt>
      <trkpt lat="45.75301" lon="6.55306">
        <ele>1860</ele>
        <time>2022-07-17T03:39:14Z</time>
      </trkpt>
      <trkpt lat="45.75302" lon="6.55305">
        <ele>1860</ele>
        <time>2022-07-17T03:39:15Z</time>
      </trkpt>
      <trkpt lat="45.75303" lon="6.55305">
        <ele>1860</ele>
        <time>2022-07-17T03:39:16Z</time>
      </trkpt>
      <trkpt lat="45.75304" lon="6.55305">
        <ele>1860</ele>
        <time>2022-07-17T03:39:17Z</time>
      </trkpt>
      <trkpt lat="45.75306" lon="6.55305">
        <ele>1860</ele>
        <time>2022-07-17T03:39:18Z</time>
      </trkpt>
      <trkpt lat="45.75307" lon="6.55305">
        <ele>1860</ele>
        <time>2022-07-17T03:39:19Z</time>
      </trkpt>
      <trkpt lat="45.75308" lon="6.55305">
        <ele>1860</ele>
        <time>2022-07-17T03:39:20Z</time>
      </trkpt>
      <trkpt lat="45.75309" lon="6.55304">
        <ele>1860</ele>
        <time>2022-07-17T03:39:21Z</time>
      </trkpt>
      <trkpt lat="45.75311" lon="6.55304">
        <ele>1861</ele>
        <time>2022-07-17T03:39:22Z</time>
      </trkpt>
      <trkpt lat="45.75312" lon="6.55304">
        <ele>1861</ele>
        <time>2022-07-17T03:39:24Z</time>
      </trkpt>
      <trkpt lat="45.75313" lon="6.55303">
        <ele>1861</ele>
        <time>2022-07-17T03:39:25Z</time>
      </trkpt>
      <trkpt lat="45.75314" lon="6.55303">
        <ele>1861</ele>
        <time>2022-07-17T03:39:27Z</time>
      </trkpt>
      <trkpt lat="45.75315" lon="6.55302">
        <ele>1861</ele>
        <time>2022-07-17T03:39:29Z</time>
      </trkpt>
      <trkpt lat="45.75316" lon="6.55302">
        <ele>1861</ele>
        <time>2022-07-17T03:39:30Z</time>
      </trkpt>
      <trkpt lat="45.75321" lon="6.553">
        <ele>1861</ele>
        <time>2022-07-17T03:39:31Z</time>
      </trkpt>
      <trkpt lat="45.7533" lon="6.55296">
        <ele>1861</ele>
        <time>2022-07-17T03:39:37Z</time>
      </trkpt>
      <trkpt lat="45.75331" lon="6.55296">
        <ele>1861</ele>
        <time>2022-07-17T03:39:38Z</time>
      </trkpt>
      <trkpt lat="45.75332" lon="6.55295">
        <ele>1861</ele>
        <time>2022-07-17T03:39:39Z</time>
      </trkpt>
      <trkpt lat="45.75333" lon="6.55295">
        <ele>1861</ele>
        <time>2022-07-17T03:39:40Z</time>
      </trkpt>
      <trkpt lat="45.75334" lon="6.55295">
        <ele>1861</ele>
        <time>2022-07-17T03:39:41Z</time>
      </trkpt>
      <trkpt lat="45.75335" lon="6.55295">
        <ele>1861</ele>
        <time>2022-07-17T03:39:42Z</time>
      </trkpt>
      <trkpt lat="45.75336" lon="6.55294">
        <ele>1862</ele>
        <time>2022-07-17T03:39:43Z</time>
      </trkpt>
      <trkpt lat="45.75337" lon="6.55294">
        <ele>1862</ele>
        <time>2022-07-17T03:39:44Z</time>
      </trkpt>
      <trkpt lat="45.75338" lon="6.55294">
        <ele>1862</ele>
        <time>2022-07-17T03:39:45Z</time>
      </trkpt>
      <trkpt lat="45.75339" lon="6.55294">
        <ele>1862</ele>
        <time>2022-07-17T03:39:46Z</time>
      </trkpt>
      <trkpt lat="45.7534" lon="6.55293">
        <ele>1862</ele>
        <time>2022-07-17T03:39:47Z</time>
      </trkpt>
      <trkpt lat="45.75341" lon="6.55292">
        <ele>1862</ele>
        <time>2022-07-17T03:39:48Z</time>
      </trkpt>
      <trkpt lat="45.75342" lon="6.55292">
        <ele>1862</ele>
        <time>2022-07-17T03:39:49Z</time>
      </trkpt>
      <trkpt lat="45.75343" lon="6.55291">
        <ele>1862</ele>
        <time>2022-07-17T03:39:50Z</time>
      </trkpt>
      <trkpt lat="45.75344" lon="6.55291">
        <ele>1862</ele>
        <time>2022-07-17T03:39:51Z</time>
      </trkpt>
      <trkpt lat="45.75349" lon="6.55288">
        <ele>1862</ele>
        <time>2022-07-17T03:39:52Z</time>
      </trkpt>
      <trkpt lat="45.75353" lon="6.55286">
        <ele>1862</ele>
        <time>2022-07-17T03:39:53Z</time>
      </trkpt>
      <trkpt lat="45.75356" lon="6.55284">
        <ele>1862</ele>
        <time>2022-07-17T03:39:55Z</time>
      </trkpt>
      <trkpt lat="45.75358" lon="6.55282">
        <ele>1862</ele>
        <time>2022-07-17T03:39:57Z</time>
      </trkpt>
      <trkpt lat="45.7536" lon="6.5528">
        <ele>1862</ele>
        <time>2022-07-17T03:39:59Z</time>
      </trkpt>
      <trkpt lat="45.75364" lon="6.55279">
        <ele>1862</ele>
        <time>2022-07-17T03:40:01Z</time>
      </trkpt>
      <trkpt lat="45.75367" lon="6.55276">
        <ele>1863</ele>
        <time>2022-07-17T03:40:04Z</time>
      </trkpt>
      <trkpt lat="45.75369" lon="6.55275">
        <ele>1863</ele>
        <time>2022-07-17T03:40:06Z</time>
      </trkpt>
      <trkpt lat="45.7537" lon="6.55273">
        <ele>1863</ele>
        <time>2022-07-17T03:40:08Z</time>
      </trkpt>
      <trkpt lat="45.75372" lon="6.55271">
        <ele>1863</ele>
        <time>2022-07-17T03:40:10Z</time>
      </trkpt>
      <trkpt lat="45.75374" lon="6.55268">
        <ele>1863</ele>
        <time>2022-07-17T03:40:12Z</time>
      </trkpt>
      <trkpt lat="45.75375" lon="6.55265">
        <ele>1863</ele>
        <time>2022-07-17T03:40:14Z</time>
      </trkpt>
      <trkpt lat="45.75376" lon="6.55263">
        <ele>1863</ele>
        <time>2022-07-17T03:40:16Z</time>
      </trkpt>
      <trkpt lat="45.75378" lon="6.55262">
        <ele>1863</ele>
        <time>2022-07-17T03:40:18Z</time>
      </trkpt>
      <trkpt lat="45.7538" lon="6.55259">
        <ele>1863</ele>
        <time>2022-07-17T03:40:20Z</time>
      </trkpt>
      <trkpt lat="45.75382" lon="6.55256">
        <ele>1863</ele>
        <time>2022-07-17T03:40:22Z</time>
      </trkpt>
      <trkpt lat="45.75383" lon="6.55254">
        <ele>1864</ele>
        <time>2022-07-17T03:40:24Z</time>
      </trkpt>
      <trkpt lat="45.75384" lon="6.55251">
        <ele>1864</ele>
        <time>2022-07-17T03:40:26Z</time>
      </trkpt>
      <trkpt lat="45.75386" lon="6.55249">
        <ele>1864</ele>
        <time>2022-07-17T03:40:29Z</time>
      </trkpt>
      <trkpt lat="45.75388" lon="6.55248">
        <ele>1864</ele>
        <time>2022-07-17T03:40:31Z</time>
      </trkpt>
      <trkpt lat="45.7539" lon="6.55246">
        <ele>1864</ele>
        <time>2022-07-17T03:40:33Z</time>
      </trkpt>
      <trkpt lat="45.75392" lon="6.55245">
        <ele>1864</ele>
        <time>2022-07-17T03:40:35Z</time>
      </trkpt>
      <trkpt lat="45.75394" lon="6.55242">
        <ele>1864</ele>
        <time>2022-07-17T03:40:37Z</time>
      </trkpt>
      <trkpt lat="45.75396" lon="6.5524">
        <ele>1865</ele>
        <time>2022-07-17T03:40:39Z</time>
      </trkpt>
      <trkpt lat="45.75398" lon="6.55239">
        <ele>1865</ele>
        <time>2022-07-17T03:40:41Z</time>
      </trkpt>
      <trkpt lat="45.75401" lon="6.55237">
        <ele>1865</ele>
        <time>2022-07-17T03:40:43Z</time>
      </trkpt>
      <trkpt lat="45.75403" lon="6.55235">
        <ele>1865</ele>
        <time>2022-07-17T03:40:45Z</time>
      </trkpt>
      <trkpt lat="45.75404" lon="6.55233">
        <ele>1865</ele>
        <time>2022-07-17T03:40:47Z</time>
      </trkpt>
      <trkpt lat="45.75406" lon="6.55232">
        <ele>1865</ele>
        <time>2022-07-17T03:40:49Z</time>
      </trkpt>
      <trkpt lat="45.75406" lon="6.55231">
        <ele>1865</ele>
        <time>2022-07-17T03:40:50Z</time>
      </trkpt>
      <trkpt lat="45.75407" lon="6.5523">
        <ele>1865</ele>
        <time>2022-07-17T03:40:51Z</time>
      </trkpt>
      <trkpt lat="45.75408" lon="6.55229">
        <ele>1865</ele>
        <time>2022-07-17T03:40:52Z</time>
      </trkpt>
      <trkpt lat="45.75409" lon="6.55228">
        <ele>1865</ele>
        <time>2022-07-17T03:40:53Z</time>
      </trkpt>
      <trkpt lat="45.75411" lon="6.55227">
        <ele>1865</ele>
        <time>2022-07-17T03:40:54Z</time>
      </trkpt>
      <trkpt lat="45.75415" lon="6.55225">
        <ele>1865</ele>
        <time>2022-07-17T03:40:56Z</time>
      </trkpt>
      <trkpt lat="45.75418" lon="6.55223">
        <ele>1866</ele>
        <time>2022-07-17T03:40:58Z</time>
      </trkpt>
      <trkpt lat="45.7542" lon="6.55223">
        <ele>1866</ele>
        <time>2022-07-17T03:41:00Z</time>
      </trkpt>
      <trkpt lat="45.75423" lon="6.55222">
        <ele>1865</ele>
        <time>2022-07-17T03:41:02Z</time>
      </trkpt>
      <trkpt lat="45.75426" lon="6.55219">
        <ele>1865</ele>
        <time>2022-07-17T03:41:04Z</time>
      </trkpt>
      <trkpt lat="45.75428" lon="6.55217">
        <ele>1865</ele>
        <time>2022-07-17T03:41:06Z</time>
      </trkpt>
      <trkpt lat="45.7543" lon="6.55216">
        <ele>1865</ele>
        <time>2022-07-17T03:41:07Z</time>
      </trkpt>
      <trkpt lat="45.75432" lon="6.55214">
        <ele>1865</ele>
        <time>2022-07-17T03:41:09Z</time>
      </trkpt>
      <trkpt lat="45.75435" lon="6.55213">
        <ele>1865</ele>
        <time>2022-07-17T03:41:11Z</time>
      </trkpt>
      <trkpt lat="45.75437" lon="6.55213">
        <ele>1865</ele>
        <time>2022-07-17T03:41:13Z</time>
      </trkpt>
      <trkpt lat="45.75439" lon="6.55213">
        <ele>1865</ele>
        <time>2022-07-17T03:41:15Z</time>
      </trkpt>
      <trkpt lat="45.75441" lon="6.55212">
        <ele>1866</ele>
        <time>2022-07-17T03:41:17Z</time>
      </trkpt>
      <trkpt lat="45.75444" lon="6.55212">
        <ele>1866</ele>
        <time>2022-07-17T03:41:20Z</time>
      </trkpt>
      <trkpt lat="45.75446" lon="6.55211">
        <ele>1866</ele>
        <time>2022-07-17T03:41:23Z</time>
      </trkpt>
      <trkpt lat="45.75449" lon="6.55211">
        <ele>1866</ele>
        <time>2022-07-17T03:41:25Z</time>
      </trkpt>
      <trkpt lat="45.75452" lon="6.55211">
        <ele>1866</ele>
        <time>2022-07-17T03:41:27Z</time>
      </trkpt>
      <trkpt lat="45.75454" lon="6.55211">
        <ele>1867</ele>
        <time>2022-07-17T03:41:29Z</time>
      </trkpt>
      <trkpt lat="45.75457" lon="6.55211">
        <ele>1867</ele>
        <time>2022-07-17T03:41:31Z</time>
      </trkpt>
      <trkpt lat="45.75459" lon="6.55211">
        <ele>1867</ele>
        <time>2022-07-17T03:41:33Z</time>
      </trkpt>
      <trkpt lat="45.75461" lon="6.55211">
        <ele>1867</ele>
        <time>2022-07-17T03:41:35Z</time>
      </trkpt>
      <trkpt lat="45.75463" lon="6.55211">
        <ele>1868</ele>
        <time>2022-07-17T03:41:37Z</time>
      </trkpt>
      <trkpt lat="45.75465" lon="6.55211">
        <ele>1867</ele>
        <time>2022-07-17T03:41:39Z</time>
      </trkpt>
      <trkpt lat="45.75467" lon="6.55211">
        <ele>1867</ele>
        <time>2022-07-17T03:41:40Z</time>
      </trkpt>
      <trkpt lat="45.7547" lon="6.55211">
        <ele>1867</ele>
        <time>2022-07-17T03:41:42Z</time>
      </trkpt>
      <trkpt lat="45.75473" lon="6.55211">
        <ele>1867</ele>
        <time>2022-07-17T03:41:44Z</time>
      </trkpt>
      <trkpt lat="45.75475" lon="6.55211">
        <ele>1867</ele>
        <time>2022-07-17T03:41:46Z</time>
      </trkpt>
      <trkpt lat="45.75478" lon="6.55211">
        <ele>1867</ele>
        <time>2022-07-17T03:41:48Z</time>
      </trkpt>
      <trkpt lat="45.75481" lon="6.55211">
        <ele>1867</ele>
        <time>2022-07-17T03:41:50Z</time>
      </trkpt>
      <trkpt lat="45.75484" lon="6.55211">
        <ele>1867</ele>
        <time>2022-07-17T03:41:52Z</time>
      </trkpt>
      <trkpt lat="45.75486" lon="6.5521">
        <ele>1867</ele>
        <time>2022-07-17T03:41:54Z</time>
      </trkpt>
      <trkpt lat="45.75489" lon="6.5521">
        <ele>1869</ele>
        <time>2022-07-17T03:41:56Z</time>
      </trkpt>
      <trkpt lat="45.75491" lon="6.5521">
        <ele>1868</ele>
        <time>2022-07-17T03:41:58Z</time>
      </trkpt>
      <trkpt lat="45.75493" lon="6.5521">
        <ele>1868</ele>
        <time>2022-07-17T03:41:59Z</time>
      </trkpt>
      <trkpt lat="45.75496" lon="6.55211">
        <ele>1869</ele>
        <time>2022-07-17T03:42:01Z</time>
      </trkpt>
      <trkpt lat="45.75499" lon="6.5521">
        <ele>1869</ele>
        <time>2022-07-17T03:42:03Z</time>
      </trkpt>
      <trkpt lat="45.75501" lon="6.55211">
        <ele>1870</ele>
        <time>2022-07-17T03:42:05Z</time>
      </trkpt>
      <trkpt lat="45.75503" lon="6.55211">
        <ele>1870</ele>
        <time>2022-07-17T03:42:07Z</time>
      </trkpt>
      <trkpt lat="45.75505" lon="6.55212">
        <ele>1870</ele>
        <time>2022-07-17T03:42:09Z</time>
      </trkpt>
      <trkpt lat="45.75509" lon="6.55213">
        <ele>1870</ele>
        <time>2022-07-17T03:42:11Z</time>
      </trkpt>
      <trkpt lat="45.75511" lon="6.55213">
        <ele>1870</ele>
        <time>2022-07-17T03:42:12Z</time>
      </trkpt>
      <trkpt lat="45.75514" lon="6.55213">
        <ele>1870</ele>
        <time>2022-07-17T03:42:14Z</time>
      </trkpt>
      <trkpt lat="45.75516" lon="6.55214">
        <ele>1870</ele>
        <time>2022-07-17T03:42:15Z</time>
      </trkpt>
      <trkpt lat="45.75519" lon="6.55214">
        <ele>1870</ele>
        <time>2022-07-17T03:42:17Z</time>
      </trkpt>
      <trkpt lat="45.75521" lon="6.55215">
        <ele>1870</ele>
        <time>2022-07-17T03:42:19Z</time>
      </trkpt>
      <trkpt lat="45.75524" lon="6.55216">
        <ele>1871</ele>
        <time>2022-07-17T03:42:21Z</time>
      </trkpt>
      <trkpt lat="45.75527" lon="6.55216">
        <ele>1871</ele>
        <time>2022-07-17T03:42:23Z</time>
      </trkpt>
      <trkpt lat="45.7553" lon="6.55216">
        <ele>1871</ele>
        <time>2022-07-17T03:42:25Z</time>
      </trkpt>
      <trkpt lat="45.75532" lon="6.55217">
        <ele>1871</ele>
        <time>2022-07-17T03:42:27Z</time>
      </trkpt>
      <trkpt lat="45.75535" lon="6.55218">
        <ele>1871</ele>
        <time>2022-07-17T03:42:29Z</time>
      </trkpt>
      <trkpt lat="45.75538" lon="6.55218">
        <ele>1871</ele>
        <time>2022-07-17T03:42:31Z</time>
      </trkpt>
      <trkpt lat="45.7554" lon="6.55219">
        <ele>1871</ele>
        <time>2022-07-17T03:42:33Z</time>
      </trkpt>
      <trkpt lat="45.75543" lon="6.5522">
        <ele>1871</ele>
        <time>2022-07-17T03:42:35Z</time>
      </trkpt>
      <trkpt lat="45.75545" lon="6.55222">
        <ele>1871</ele>
        <time>2022-07-17T03:42:37Z</time>
      </trkpt>
      <trkpt lat="45.75548" lon="6.55223">
        <ele>1871</ele>
        <time>2022-07-17T03:42:39Z</time>
      </trkpt>
      <trkpt lat="45.75551" lon="6.55225">
        <ele>1871</ele>
        <time>2022-07-17T03:42:41Z</time>
      </trkpt>
      <trkpt lat="45.75553" lon="6.55227">
        <ele>1871</ele>
        <time>2022-07-17T03:42:43Z</time>
      </trkpt>
      <trkpt lat="45.75556" lon="6.55229">
        <ele>1871</ele>
        <time>2022-07-17T03:42:45Z</time>
      </trkpt>
      <trkpt lat="45.75558" lon="6.55231">
        <ele>1871</ele>
        <time>2022-07-17T03:42:47Z</time>
      </trkpt>
      <trkpt lat="45.75559" lon="6.55232">
        <ele>1871</ele>
        <time>2022-07-17T03:42:49Z</time>
      </trkpt>
      <trkpt lat="45.75561" lon="6.55234">
        <ele>1871</ele>
        <time>2022-07-17T03:42:51Z</time>
      </trkpt>
      <trkpt lat="45.75563" lon="6.55235">
        <ele>1871</ele>
        <time>2022-07-17T03:42:53Z</time>
      </trkpt>
      <trkpt lat="45.75565" lon="6.55237">
        <ele>1871</ele>
        <time>2022-07-17T03:42:55Z</time>
      </trkpt>
      <trkpt lat="45.75567" lon="6.55238">
        <ele>1871</ele>
        <time>2022-07-17T03:42:57Z</time>
      </trkpt>
      <trkpt lat="45.7557" lon="6.5524">
        <ele>1871</ele>
        <time>2022-07-17T03:42:59Z</time>
      </trkpt>
      <trkpt lat="45.75571" lon="6.55241">
        <ele>1872</ele>
        <time>2022-07-17T03:43:00Z</time>
      </trkpt>
      <trkpt lat="45.75574" lon="6.55243">
        <ele>1872</ele>
        <time>2022-07-17T03:43:02Z</time>
      </trkpt>
      <trkpt lat="45.75577" lon="6.55246">
        <ele>1872</ele>
        <time>2022-07-17T03:43:04Z</time>
      </trkpt>
      <trkpt lat="45.75578" lon="6.55248">
        <ele>1872</ele>
        <time>2022-07-17T03:43:06Z</time>
      </trkpt>
      <trkpt lat="45.75579" lon="6.5525">
        <ele>1872</ele>
        <time>2022-07-17T03:43:08Z</time>
      </trkpt>
      <trkpt lat="45.75581" lon="6.55253">
        <ele>1872</ele>
        <time>2022-07-17T03:43:10Z</time>
      </trkpt>
      <trkpt lat="45.75584" lon="6.55256">
        <ele>1872</ele>
        <time>2022-07-17T03:43:12Z</time>
      </trkpt>
      <trkpt lat="45.75585" lon="6.55258">
        <ele>1872</ele>
        <time>2022-07-17T03:43:14Z</time>
      </trkpt>
      <trkpt lat="45.75587" lon="6.55259">
        <ele>1872</ele>
        <time>2022-07-17T03:43:16Z</time>
      </trkpt>
      <trkpt lat="45.75591" lon="6.55261">
        <ele>1873</ele>
        <time>2022-07-17T03:43:18Z</time>
      </trkpt>
      <trkpt lat="45.75592" lon="6.55263">
        <ele>1873</ele>
        <time>2022-07-17T03:43:19Z</time>
      </trkpt>
      <trkpt lat="45.75594" lon="6.55264">
        <ele>1873</ele>
        <time>2022-07-17T03:43:20Z</time>
      </trkpt>
      <trkpt lat="45.75596" lon="6.55265">
        <ele>1873</ele>
        <time>2022-07-17T03:43:21Z</time>
      </trkpt>
      <trkpt lat="45.75598" lon="6.55266">
        <ele>1873</ele>
        <time>2022-07-17T03:43:22Z</time>
      </trkpt>
      <trkpt lat="45.756" lon="6.55267">
        <ele>1873</ele>
        <time>2022-07-17T03:43:23Z</time>
      </trkpt>
      <trkpt lat="45.75603" lon="6.55269">
        <ele>1873</ele>
        <time>2022-07-17T03:43:25Z</time>
      </trkpt>
      <trkpt lat="45.75604" lon="6.5527">
        <ele>1873</ele>
        <time>2022-07-17T03:43:26Z</time>
      </trkpt>
      <trkpt lat="45.75607" lon="6.55273">
        <ele>1873</ele>
        <time>2022-07-17T03:43:28Z</time>
      </trkpt>
      <trkpt lat="45.75609" lon="6.55277">
        <ele>1873</ele>
        <time>2022-07-17T03:43:30Z</time>
      </trkpt>
      <trkpt lat="45.7561" lon="6.5528">
        <ele>1872</ele>
        <time>2022-07-17T03:43:32Z</time>
      </trkpt>
      <trkpt lat="45.75612" lon="6.55283">
        <ele>1872</ele>
        <time>2022-07-17T03:43:34Z</time>
      </trkpt>
      <trkpt lat="45.75613" lon="6.55288">
        <ele>1872</ele>
        <time>2022-07-17T03:43:36Z</time>
      </trkpt>
      <trkpt lat="45.75614" lon="6.55291">
        <ele>1872</ele>
        <time>2022-07-17T03:43:38Z</time>
      </trkpt>
      <trkpt lat="45.75616" lon="6.55292">
        <ele>1872</ele>
        <time>2022-07-17T03:43:40Z</time>
      </trkpt>
      <trkpt lat="45.75619" lon="6.55295">
        <ele>1871</ele>
        <time>2022-07-17T03:43:42Z</time>
      </trkpt>
      <trkpt lat="45.75622" lon="6.55298">
        <ele>1871</ele>
        <time>2022-07-17T03:43:43Z</time>
      </trkpt>
      <trkpt lat="45.75623" lon="6.55298">
        <ele>1871</ele>
        <time>2022-07-17T03:43:44Z</time>
      </trkpt>
      <trkpt lat="45.75624" lon="6.553">
        <ele>1871</ele>
        <time>2022-07-17T03:43:45Z</time>
      </trkpt>
      <trkpt lat="45.75625" lon="6.55301">
        <ele>1870</ele>
        <time>2022-07-17T03:43:46Z</time>
      </trkpt>
      <trkpt lat="45.75627" lon="6.55303">
        <ele>1870</ele>
        <time>2022-07-17T03:43:47Z</time>
      </trkpt>
      <trkpt lat="45.75629" lon="6.55304">
        <ele>1870</ele>
        <time>2022-07-17T03:43:48Z</time>
      </trkpt>
      <trkpt lat="45.7563" lon="6.55305">
        <ele>1870</ele>
        <time>2022-07-17T03:43:50Z</time>
      </trkpt>
      <trkpt lat="45.75633" lon="6.55307">
        <ele>1869</ele>
        <time>2022-07-17T03:43:52Z</time>
      </trkpt>
      <trkpt lat="45.75636" lon="6.55307">
        <ele>1869</ele>
        <time>2022-07-17T03:43:54Z</time>
      </trkpt>
      <trkpt lat="45.75639" lon="6.55308">
        <ele>1869</ele>
        <time>2022-07-17T03:43:56Z</time>
      </trkpt>
      <trkpt lat="45.75643" lon="6.55309">
        <ele>1869</ele>
        <time>2022-07-17T03:43:58Z</time>
      </trkpt>
      <trkpt lat="45.75644" lon="6.5531">
        <ele>1869</ele>
        <time>2022-07-17T03:43:59Z</time>
      </trkpt>
      <trkpt lat="45.75647" lon="6.55311">
        <ele>1868</ele>
        <time>2022-07-17T03:44:01Z</time>
      </trkpt>
      <trkpt lat="45.75649" lon="6.55312">
        <ele>1868</ele>
        <time>2022-07-17T03:44:02Z</time>
      </trkpt>
      <trkpt lat="45.75651" lon="6.55314">
        <ele>1868</ele>
        <time>2022-07-17T03:44:03Z</time>
      </trkpt>
      <trkpt lat="45.75653" lon="6.55315">
        <ele>1867</ele>
        <time>2022-07-17T03:44:04Z</time>
      </trkpt>
      <trkpt lat="45.75656" lon="6.55317">
        <ele>1866</ele>
        <time>2022-07-17T03:44:06Z</time>
      </trkpt>
      <trkpt lat="45.75658" lon="6.5532">
        <ele>1864</ele>
        <time>2022-07-17T03:44:08Z</time>
      </trkpt>
      <trkpt lat="45.75661" lon="6.55319">
        <ele>1864</ele>
        <time>2022-07-17T03:44:10Z</time>
      </trkpt>
      <trkpt lat="45.75663" lon="6.55317">
        <ele>1865</ele>
        <time>2022-07-17T03:44:12Z</time>
      </trkpt>
      <trkpt lat="45.75664" lon="6.55314">
        <ele>1865</ele>
        <time>2022-07-17T03:44:15Z</time>
      </trkpt>
      <trkpt lat="45.75664" lon="6.5531">
        <ele>1865</ele>
        <time>2022-07-17T03:44:18Z</time>
      </trkpt>
      <trkpt lat="45.75664" lon="6.55308">
        <ele>1865</ele>
        <time>2022-07-17T03:44:22Z</time>
      </trkpt>
      <trkpt lat="45.75664" lon="6.55304">
        <ele>1866</ele>
        <time>2022-07-17T03:44:24Z</time>
      </trkpt>
      <trkpt lat="45.75666" lon="6.55301">
        <ele>1867</ele>
        <time>2022-07-17T03:44:26Z</time>
      </trkpt>
      <trkpt lat="45.75668" lon="6.55298">
        <ele>1867</ele>
        <time>2022-07-17T03:44:28Z</time>
      </trkpt>
      <trkpt lat="45.75669" lon="6.55294">
        <ele>1868</ele>
        <time>2022-07-17T03:44:31Z</time>
      </trkpt>
      <trkpt lat="45.75671" lon="6.5529">
        <ele>1868</ele>
        <time>2022-07-17T03:44:33Z</time>
      </trkpt>
      <trkpt lat="45.75673" lon="6.55288">
        <ele>1868</ele>
        <time>2022-07-17T03:44:35Z</time>
      </trkpt>
      <trkpt lat="45.75675" lon="6.55285">
        <ele>1868</ele>
        <time>2022-07-17T03:44:37Z</time>
      </trkpt>
      <trkpt lat="45.75676" lon="6.55282">
        <ele>1868</ele>
        <time>2022-07-17T03:44:39Z</time>
      </trkpt>
      <trkpt lat="45.75677" lon="6.55279">
        <ele>1868</ele>
        <time>2022-07-17T03:44:41Z</time>
      </trkpt>
      <trkpt lat="45.75678" lon="6.55277">
        <ele>1869</ele>
        <time>2022-07-17T03:44:43Z</time>
      </trkpt>
      <trkpt lat="45.7568" lon="6.55274">
        <ele>1869</ele>
        <time>2022-07-17T03:44:46Z</time>
      </trkpt>
      <trkpt lat="45.75682" lon="6.55272">
        <ele>1869</ele>
        <time>2022-07-17T03:44:49Z</time>
      </trkpt>
      <trkpt lat="45.75684" lon="6.5527">
        <ele>1870</ele>
        <time>2022-07-17T03:44:51Z</time>
      </trkpt>
      <trkpt lat="45.75686" lon="6.55269">
        <ele>1871</ele>
        <time>2022-07-17T03:44:53Z</time>
      </trkpt>
      <trkpt lat="45.75688" lon="6.55269">
        <ele>1871</ele>
        <time>2022-07-17T03:44:55Z</time>
      </trkpt>
      <trkpt lat="45.75691" lon="6.55268">
        <ele>1871</ele>
        <time>2022-07-17T03:44:58Z</time>
      </trkpt>
      <trkpt lat="45.75693" lon="6.55267">
        <ele>1872</ele>
        <time>2022-07-17T03:45:01Z</time>
      </trkpt>
      <trkpt lat="45.75695" lon="6.55264">
        <ele>1873</ele>
        <time>2022-07-17T03:45:03Z</time>
      </trkpt>
      <trkpt lat="45.75697" lon="6.55263">
        <ele>1873</ele>
        <time>2022-07-17T03:45:05Z</time>
      </trkpt>
      <trkpt lat="45.75699" lon="6.55261">
        <ele>1873</ele>
        <time>2022-07-17T03:45:07Z</time>
      </trkpt>
      <trkpt lat="45.75701" lon="6.5526">
        <ele>1873</ele>
        <time>2022-07-17T03:45:09Z</time>
      </trkpt>
      <trkpt lat="45.75702" lon="6.55259">
        <ele>1874</ele>
        <time>2022-07-17T03:45:12Z</time>
      </trkpt>
      <trkpt lat="45.75704" lon="6.55257">
        <ele>1874</ele>
        <time>2022-07-17T03:45:14Z</time>
      </trkpt>
      <trkpt lat="45.75707" lon="6.55255">
        <ele>1875</ele>
        <time>2022-07-17T03:45:16Z</time>
      </trkpt>
      <trkpt lat="45.75709" lon="6.55254">
        <ele>1875</ele>
        <time>2022-07-17T03:45:18Z</time>
      </trkpt>
      <trkpt lat="45.75711" lon="6.55252">
        <ele>1875</ele>
        <time>2022-07-17T03:45:20Z</time>
      </trkpt>
      <trkpt lat="45.75713" lon="6.55251">
        <ele>1875</ele>
        <time>2022-07-17T03:45:22Z</time>
      </trkpt>
      <trkpt lat="45.75715" lon="6.55251">
        <ele>1875</ele>
        <time>2022-07-17T03:45:24Z</time>
      </trkpt>
      <trkpt lat="45.75717" lon="6.55249">
        <ele>1875</ele>
        <time>2022-07-17T03:45:29Z</time>
      </trkpt>
      <trkpt lat="45.75719" lon="6.55248">
        <ele>1875</ele>
        <time>2022-07-17T03:45:31Z</time>
      </trkpt>
      <trkpt lat="45.75721" lon="6.55248">
        <ele>1875</ele>
        <time>2022-07-17T03:45:33Z</time>
      </trkpt>
      <trkpt lat="45.75724" lon="6.55246">
        <ele>1876</ele>
        <time>2022-07-17T03:45:35Z</time>
      </trkpt>
      <trkpt lat="45.75727" lon="6.55245">
        <ele>1876</ele>
        <time>2022-07-17T03:45:37Z</time>
      </trkpt>
      <trkpt lat="45.75729" lon="6.55244">
        <ele>1876</ele>
        <time>2022-07-17T03:45:39Z</time>
      </trkpt>
      <trkpt lat="45.75732" lon="6.55243">
        <ele>1876</ele>
        <time>2022-07-17T03:45:41Z</time>
      </trkpt>
      <trkpt lat="45.75735" lon="6.55243">
        <ele>1877</ele>
        <time>2022-07-17T03:45:44Z</time>
      </trkpt>
      <trkpt lat="45.75737" lon="6.55242">
        <ele>1877</ele>
        <time>2022-07-17T03:45:46Z</time>
      </trkpt>
      <trkpt lat="45.75739" lon="6.55242">
        <ele>1877</ele>
        <time>2022-07-17T03:45:51Z</time>
      </trkpt>
      <trkpt lat="45.75741" lon="6.55241">
        <ele>1878</ele>
        <time>2022-07-17T03:45:53Z</time>
      </trkpt>
      <trkpt lat="45.75743" lon="6.55239">
        <ele>1878</ele>
        <time>2022-07-17T03:45:55Z</time>
      </trkpt>
      <trkpt lat="45.75746" lon="6.55238">
        <ele>1878</ele>
        <time>2022-07-17T03:45:57Z</time>
      </trkpt>
      <trkpt lat="45.75747" lon="6.55235">
        <ele>1878</ele>
        <time>2022-07-17T03:45:59Z</time>
      </trkpt>
      <trkpt lat="45.75749" lon="6.55234">
        <ele>1878</ele>
        <time>2022-07-17T03:46:01Z</time>
      </trkpt>
      <trkpt lat="45.75751" lon="6.55232">
        <ele>1879</ele>
        <time>2022-07-17T03:46:03Z</time>
      </trkpt>
      <trkpt lat="45.75753" lon="6.55231">
        <ele>1879</ele>
        <time>2022-07-17T03:46:05Z</time>
      </trkpt>
      <trkpt lat="45.75755" lon="6.55229">
        <ele>1880</ele>
        <time>2022-07-17T03:46:07Z</time>
      </trkpt>
      <trkpt lat="45.75757" lon="6.55227">
        <ele>1880</ele>
        <time>2022-07-17T03:46:09Z</time>
      </trkpt>
      <trkpt lat="45.75759" lon="6.55225">
        <ele>1880</ele>
        <time>2022-07-17T03:46:11Z</time>
      </trkpt>
      <trkpt lat="45.75761" lon="6.55223">
        <ele>1880</ele>
        <time>2022-07-17T03:46:13Z</time>
      </trkpt>
      <trkpt lat="45.75762" lon="6.5522">
        <ele>1880</ele>
        <time>2022-07-17T03:46:15Z</time>
      </trkpt>
      <trkpt lat="45.75765" lon="6.55218">
        <ele>1880</ele>
        <time>2022-07-17T03:46:17Z</time>
      </trkpt>
      <trkpt lat="45.75766" lon="6.55216">
        <ele>1880</ele>
        <time>2022-07-17T03:46:19Z</time>
      </trkpt>
      <trkpt lat="45.75768" lon="6.55213">
        <ele>1881</ele>
        <time>2022-07-17T03:46:21Z</time>
      </trkpt>
      <trkpt lat="45.75769" lon="6.55211">
        <ele>1881</ele>
        <time>2022-07-17T03:46:23Z</time>
      </trkpt>
      <trkpt lat="45.7577" lon="6.55208">
        <ele>1882</ele>
        <time>2022-07-17T03:46:25Z</time>
      </trkpt>
      <trkpt lat="45.75772" lon="6.55205">
        <ele>1882</ele>
        <time>2022-07-17T03:46:27Z</time>
      </trkpt>
      <trkpt lat="45.75773" lon="6.55202">
        <ele>1882</ele>
        <time>2022-07-17T03:46:29Z</time>
      </trkpt>
      <trkpt lat="45.75775" lon="6.55199">
        <ele>1882</ele>
        <time>2022-07-17T03:46:31Z</time>
      </trkpt>
      <trkpt lat="45.75776" lon="6.55197">
        <ele>1882</ele>
        <time>2022-07-17T03:46:33Z</time>
      </trkpt>
      <trkpt lat="45.75778" lon="6.55194">
        <ele>1881</ele>
        <time>2022-07-17T03:46:35Z</time>
      </trkpt>
      <trkpt lat="45.75779" lon="6.55191">
        <ele>1881</ele>
        <time>2022-07-17T03:46:37Z</time>
      </trkpt>
      <trkpt lat="45.75779" lon="6.55188">
        <ele>1881</ele>
        <time>2022-07-17T03:46:39Z</time>
      </trkpt>
      <trkpt lat="45.75781" lon="6.55185">
        <ele>1881</ele>
        <time>2022-07-17T03:46:41Z</time>
      </trkpt>
      <trkpt lat="45.75782" lon="6.55181">
        <ele>1881</ele>
        <time>2022-07-17T03:46:43Z</time>
      </trkpt>
      <trkpt lat="45.75783" lon="6.55179">
        <ele>1881</ele>
        <time>2022-07-17T03:46:44Z</time>
      </trkpt>
      <trkpt lat="45.75784" lon="6.55177">
        <ele>1881</ele>
        <time>2022-07-17T03:46:45Z</time>
      </trkpt>
      <trkpt lat="45.75786" lon="6.55173">
        <ele>1881</ele>
        <time>2022-07-17T03:46:47Z</time>
      </trkpt>
      <trkpt lat="45.75788" lon="6.55169">
        <ele>1881</ele>
        <time>2022-07-17T03:46:49Z</time>
      </trkpt>
      <trkpt lat="45.75789" lon="6.55166">
        <ele>1881</ele>
        <time>2022-07-17T03:46:51Z</time>
      </trkpt>
      <trkpt lat="45.75791" lon="6.55162">
        <ele>1881</ele>
        <time>2022-07-17T03:46:53Z</time>
      </trkpt>
      <trkpt lat="45.75792" lon="6.55159">
        <ele>1881</ele>
        <time>2022-07-17T03:46:55Z</time>
      </trkpt>
      <trkpt lat="45.75794" lon="6.55156">
        <ele>1881</ele>
        <time>2022-07-17T03:46:57Z</time>
      </trkpt>
      <trkpt lat="45.75796" lon="6.55153">
        <ele>1880</ele>
        <time>2022-07-17T03:46:59Z</time>
      </trkpt>
      <trkpt lat="45.75798" lon="6.5515">
        <ele>1880</ele>
        <time>2022-07-17T03:47:01Z</time>
      </trkpt>
      <trkpt lat="45.75799" lon="6.55148">
        <ele>1880</ele>
        <time>2022-07-17T03:47:03Z</time>
      </trkpt>
      <trkpt lat="45.758" lon="6.55145">
        <ele>1880</ele>
        <time>2022-07-17T03:47:05Z</time>
      </trkpt>
      <trkpt lat="45.75801" lon="6.55142">
        <ele>1880</ele>
        <time>2022-07-17T03:47:07Z</time>
      </trkpt>
      <trkpt lat="45.75804" lon="6.5514">
        <ele>1880</ele>
        <time>2022-07-17T03:47:09Z</time>
      </trkpt>
      <trkpt lat="45.75806" lon="6.55137">
        <ele>1880</ele>
        <time>2022-07-17T03:47:11Z</time>
      </trkpt>
      <trkpt lat="45.75809" lon="6.55136">
        <ele>1880</ele>
        <time>2022-07-17T03:47:13Z</time>
      </trkpt>
      <trkpt lat="45.75811" lon="6.55136">
        <ele>1880</ele>
        <time>2022-07-17T03:47:15Z</time>
      </trkpt>
      <trkpt lat="45.75814" lon="6.55135">
        <ele>1881</ele>
        <time>2022-07-17T03:47:17Z</time>
      </trkpt>
      <trkpt lat="45.75816" lon="6.55134">
        <ele>1881</ele>
        <time>2022-07-17T03:47:19Z</time>
      </trkpt>
      <trkpt lat="45.75818" lon="6.55133">
        <ele>1881</ele>
        <time>2022-07-17T03:47:21Z</time>
      </trkpt>
      <trkpt lat="45.7582" lon="6.55132">
        <ele>1881</ele>
        <time>2022-07-17T03:47:23Z</time>
      </trkpt>
      <trkpt lat="45.75822" lon="6.55131">
        <ele>1881</ele>
        <time>2022-07-17T03:47:25Z</time>
      </trkpt>
      <trkpt lat="45.75824" lon="6.5513">
        <ele>1881</ele>
        <time>2022-07-17T03:47:27Z</time>
      </trkpt>
      <trkpt lat="45.75827" lon="6.55128">
        <ele>1881</ele>
        <time>2022-07-17T03:47:29Z</time>
      </trkpt>
      <trkpt lat="45.75829" lon="6.55126">
        <ele>1881</ele>
        <time>2022-07-17T03:47:31Z</time>
      </trkpt>
      <trkpt lat="45.75831" lon="6.55124">
        <ele>1881</ele>
        <time>2022-07-17T03:47:33Z</time>
      </trkpt>
      <trkpt lat="45.75833" lon="6.55122">
        <ele>1881</ele>
        <time>2022-07-17T03:47:35Z</time>
      </trkpt>
      <trkpt lat="45.75835" lon="6.5512">
        <ele>1881</ele>
        <time>2022-07-17T03:47:37Z</time>
      </trkpt>
      <trkpt lat="45.75837" lon="6.55119">
        <ele>1881</ele>
        <time>2022-07-17T03:47:39Z</time>
      </trkpt>
      <trkpt lat="45.75839" lon="6.55117">
        <ele>1881</ele>
        <time>2022-07-17T03:47:41Z</time>
      </trkpt>
      <trkpt lat="45.75841" lon="6.55115">
        <ele>1881</ele>
        <time>2022-07-17T03:47:43Z</time>
      </trkpt>
      <trkpt lat="45.75842" lon="6.55112">
        <ele>1881</ele>
        <time>2022-07-17T03:47:45Z</time>
      </trkpt>
      <trkpt lat="45.75844" lon="6.55109">
        <ele>1881</ele>
        <time>2022-07-17T03:47:47Z</time>
      </trkpt>
      <trkpt lat="45.75845" lon="6.55107">
        <ele>1881</ele>
        <time>2022-07-17T03:47:48Z</time>
      </trkpt>
      <trkpt lat="45.75847" lon="6.55104">
        <ele>1881</ele>
        <time>2022-07-17T03:47:49Z</time>
      </trkpt>
      <trkpt lat="45.75848" lon="6.55102">
        <ele>1881</ele>
        <time>2022-07-17T03:47:50Z</time>
      </trkpt>
      <trkpt lat="45.75849" lon="6.551">
        <ele>1881</ele>
        <time>2022-07-17T03:47:51Z</time>
      </trkpt>
      <trkpt lat="45.75849" lon="6.55097">
        <ele>1881</ele>
        <time>2022-07-17T03:47:52Z</time>
      </trkpt>
      <trkpt lat="45.75851" lon="6.55094">
        <ele>1880</ele>
        <time>2022-07-17T03:47:54Z</time>
      </trkpt>
      <trkpt lat="45.75852" lon="6.55091">
        <ele>1880</ele>
        <time>2022-07-17T03:47:56Z</time>
      </trkpt>
      <trkpt lat="45.75854" lon="6.55089">
        <ele>1880</ele>
        <time>2022-07-17T03:47:58Z</time>
      </trkpt>
      <trkpt lat="45.75856" lon="6.55086">
        <ele>1880</ele>
        <time>2022-07-17T03:48:00Z</time>
      </trkpt>
      <trkpt lat="45.75858" lon="6.55083">
        <ele>1880</ele>
        <time>2022-07-17T03:48:02Z</time>
      </trkpt>
      <trkpt lat="45.7586" lon="6.5508">
        <ele>1880</ele>
        <time>2022-07-17T03:48:04Z</time>
      </trkpt>
      <trkpt lat="45.75862" lon="6.55078">
        <ele>1880</ele>
        <time>2022-07-17T03:48:06Z</time>
      </trkpt>
      <trkpt lat="45.75863" lon="6.55075">
        <ele>1880</ele>
        <time>2022-07-17T03:48:08Z</time>
      </trkpt>
      <trkpt lat="45.75865" lon="6.55072">
        <ele>1880</ele>
        <time>2022-07-17T03:48:10Z</time>
      </trkpt>
      <trkpt lat="45.75867" lon="6.55069">
        <ele>1880</ele>
        <time>2022-07-17T03:48:12Z</time>
      </trkpt>
      <trkpt lat="45.75869" lon="6.55066">
        <ele>1880</ele>
        <time>2022-07-17T03:48:14Z</time>
      </trkpt>
      <trkpt lat="45.75871" lon="6.55063">
        <ele>1880</ele>
        <time>2022-07-17T03:48:16Z</time>
      </trkpt>
      <trkpt lat="45.75873" lon="6.5506">
        <ele>1880</ele>
        <time>2022-07-17T03:48:18Z</time>
      </trkpt>
      <trkpt lat="45.75874" lon="6.55058">
        <ele>1880</ele>
        <time>2022-07-17T03:48:20Z</time>
      </trkpt>
      <trkpt lat="45.75876" lon="6.55055">
        <ele>1880</ele>
        <time>2022-07-17T03:48:22Z</time>
      </trkpt>
      <trkpt lat="45.75878" lon="6.55053">
        <ele>1880</ele>
        <time>2022-07-17T03:48:24Z</time>
      </trkpt>
      <trkpt lat="45.7588" lon="6.5505">
        <ele>1880</ele>
        <time>2022-07-17T03:48:26Z</time>
      </trkpt>
      <trkpt lat="45.75883" lon="6.55048">
        <ele>1880</ele>
        <time>2022-07-17T03:48:28Z</time>
      </trkpt>
      <trkpt lat="45.75885" lon="6.55047">
        <ele>1880</ele>
        <time>2022-07-17T03:48:30Z</time>
      </trkpt>
      <trkpt lat="45.75888" lon="6.55046">
        <ele>1880</ele>
        <time>2022-07-17T03:48:32Z</time>
      </trkpt>
      <trkpt lat="45.7589" lon="6.55044">
        <ele>1880</ele>
        <time>2022-07-17T03:48:34Z</time>
      </trkpt>
      <trkpt lat="45.75892" lon="6.55043">
        <ele>1880</ele>
        <time>2022-07-17T03:48:36Z</time>
      </trkpt>
      <trkpt lat="45.75894" lon="6.55042">
        <ele>1880</ele>
        <time>2022-07-17T03:48:38Z</time>
      </trkpt>
      <trkpt lat="45.75897" lon="6.55041">
        <ele>1880</ele>
        <time>2022-07-17T03:48:40Z</time>
      </trkpt>
      <trkpt lat="45.75899" lon="6.5504">
        <ele>1880</ele>
        <time>2022-07-17T03:48:42Z</time>
      </trkpt>
      <trkpt lat="45.75902" lon="6.55038">
        <ele>1880</ele>
        <time>2022-07-17T03:48:46Z</time>
      </trkpt>
      <trkpt lat="45.75905" lon="6.55036">
        <ele>1880</ele>
        <time>2022-07-17T03:48:48Z</time>
      </trkpt>
      <trkpt lat="45.75909" lon="6.55035">
        <ele>1880</ele>
        <time>2022-07-17T03:48:50Z</time>
      </trkpt>
      <trkpt lat="45.75912" lon="6.55034">
        <ele>1880</ele>
        <time>2022-07-17T03:48:52Z</time>
      </trkpt>
      <trkpt lat="45.75915" lon="6.55034">
        <ele>1880</ele>
        <time>2022-07-17T03:48:54Z</time>
      </trkpt>
      <trkpt lat="45.75918" lon="6.55035">
        <ele>1880</ele>
        <time>2022-07-17T03:48:56Z</time>
      </trkpt>
      <trkpt lat="45.75921" lon="6.55036">
        <ele>1880</ele>
        <time>2022-07-17T03:48:58Z</time>
      </trkpt>
      <trkpt lat="45.75924" lon="6.55036">
        <ele>1879</ele>
        <time>2022-07-17T03:49:00Z</time>
      </trkpt>
      <trkpt lat="45.75927" lon="6.55037">
        <ele>1878</ele>
        <time>2022-07-17T03:49:02Z</time>
      </trkpt>
      <trkpt lat="45.75931" lon="6.55038">
        <ele>1878</ele>
        <time>2022-07-17T03:49:04Z</time>
      </trkpt>
      <trkpt lat="45.75933" lon="6.55039">
        <ele>1878</ele>
        <time>2022-07-17T03:49:05Z</time>
      </trkpt>
      <trkpt lat="45.75936" lon="6.5504">
        <ele>1878</ele>
        <time>2022-07-17T03:49:07Z</time>
      </trkpt>
      <trkpt lat="45.75939" lon="6.5504">
        <ele>1878</ele>
        <time>2022-07-17T03:49:09Z</time>
      </trkpt>
      <trkpt lat="45.75942" lon="6.55041">
        <ele>1878</ele>
        <time>2022-07-17T03:49:11Z</time>
      </trkpt>
      <trkpt lat="45.75945" lon="6.55041">
        <ele>1878</ele>
        <time>2022-07-17T03:49:13Z</time>
      </trkpt>
      <trkpt lat="45.75948" lon="6.55041">
        <ele>1877</ele>
        <time>2022-07-17T03:49:15Z</time>
      </trkpt>
      <trkpt lat="45.75951" lon="6.55041">
        <ele>1877</ele>
        <time>2022-07-17T03:49:17Z</time>
      </trkpt>
      <trkpt lat="45.75954" lon="6.55042">
        <ele>1877</ele>
        <time>2022-07-17T03:49:19Z</time>
      </trkpt>
      <trkpt lat="45.75957" lon="6.55042">
        <ele>1877</ele>
        <time>2022-07-17T03:49:21Z</time>
      </trkpt>
      <trkpt lat="45.7596" lon="6.55042">
        <ele>1877</ele>
        <time>2022-07-17T03:49:23Z</time>
      </trkpt>
      <trkpt lat="45.75962" lon="6.55042">
        <ele>1877</ele>
        <time>2022-07-17T03:49:26Z</time>
      </trkpt>
      <trkpt lat="45.75965" lon="6.55043">
        <ele>1876</ele>
        <time>2022-07-17T03:49:27Z</time>
      </trkpt>
      <trkpt lat="45.75968" lon="6.55043">
        <ele>1876</ele>
        <time>2022-07-17T03:49:29Z</time>
      </trkpt>
      <trkpt lat="45.7597" lon="6.55043">
        <ele>1876</ele>
        <time>2022-07-17T03:49:31Z</time>
      </trkpt>
      <trkpt lat="45.75973" lon="6.55042">
        <ele>1876</ele>
        <time>2022-07-17T03:49:33Z</time>
      </trkpt>
      <trkpt lat="45.75976" lon="6.55042">
        <ele>1876</ele>
        <time>2022-07-17T03:49:35Z</time>
      </trkpt>
      <trkpt lat="45.75978" lon="6.5504">
        <ele>1876</ele>
        <time>2022-07-17T03:49:37Z</time>
      </trkpt>
      <trkpt lat="45.75979" lon="6.55037">
        <ele>1876</ele>
        <time>2022-07-17T03:49:39Z</time>
      </trkpt>
      <trkpt lat="45.75981" lon="6.55034">
        <ele>1876</ele>
        <time>2022-07-17T03:49:41Z</time>
      </trkpt>
      <trkpt lat="45.75982" lon="6.55031">
        <ele>1876</ele>
        <time>2022-07-17T03:49:43Z</time>
      </trkpt>
      <trkpt lat="45.75983" lon="6.55028">
        <ele>1876</ele>
        <time>2022-07-17T03:49:45Z</time>
      </trkpt>
      <trkpt lat="45.75985" lon="6.55025">
        <ele>1875</ele>
        <time>2022-07-17T03:49:47Z</time>
      </trkpt>
      <trkpt lat="45.75987" lon="6.55023">
        <ele>1876</ele>
        <time>2022-07-17T03:49:49Z</time>
      </trkpt>
      <trkpt lat="45.75989" lon="6.55022">
        <ele>1876</ele>
        <time>2022-07-17T03:49:51Z</time>
      </trkpt>
      <trkpt lat="45.75991" lon="6.55019">
        <ele>1876</ele>
        <time>2022-07-17T03:49:53Z</time>
      </trkpt>
      <trkpt lat="45.75993" lon="6.55017">
        <ele>1876</ele>
        <time>2022-07-17T03:49:55Z</time>
      </trkpt>
      <trkpt lat="45.75996" lon="6.55016">
        <ele>1876</ele>
        <time>2022-07-17T03:49:57Z</time>
      </trkpt>
      <trkpt lat="45.75998" lon="6.55014">
        <ele>1876</ele>
        <time>2022-07-17T03:49:59Z</time>
      </trkpt>
      <trkpt lat="45.76" lon="6.5501">
        <ele>1876</ele>
        <time>2022-07-17T03:50:01Z</time>
      </trkpt>
      <trkpt lat="45.76001" lon="6.55006">
        <ele>1876</ele>
        <time>2022-07-17T03:50:03Z</time>
      </trkpt>
      <trkpt lat="45.76002" lon="6.55002">
        <ele>1876</ele>
        <time>2022-07-17T03:50:05Z</time>
      </trkpt>
      <trkpt lat="45.76003" lon="6.54999">
        <ele>1876</ele>
        <time>2022-07-17T03:50:07Z</time>
      </trkpt>
      <trkpt lat="45.76004" lon="6.54995">
        <ele>1876</ele>
        <time>2022-07-17T03:50:09Z</time>
      </trkpt>
      <trkpt lat="45.76005" lon="6.54991">
        <ele>1876</ele>
        <time>2022-07-17T03:50:11Z</time>
      </trkpt>
      <trkpt lat="45.76006" lon="6.54987">
        <ele>1876</ele>
        <time>2022-07-17T03:50:13Z</time>
      </trkpt>
      <trkpt lat="45.76006" lon="6.54983">
        <ele>1877</ele>
        <time>2022-07-17T03:50:15Z</time>
      </trkpt>
      <trkpt lat="45.76007" lon="6.54979">
        <ele>1877</ele>
        <time>2022-07-17T03:50:17Z</time>
      </trkpt>
      <trkpt lat="45.76008" lon="6.54976">
        <ele>1877</ele>
        <time>2022-07-17T03:50:19Z</time>
      </trkpt>
      <trkpt lat="45.76008" lon="6.54971">
        <ele>1877</ele>
        <time>2022-07-17T03:50:21Z</time>
      </trkpt>
      <trkpt lat="45.76009" lon="6.54966">
        <ele>1877</ele>
        <time>2022-07-17T03:50:23Z</time>
      </trkpt>
      <trkpt lat="45.76009" lon="6.54964">
        <ele>1877</ele>
        <time>2022-07-17T03:50:24Z</time>
      </trkpt>
      <trkpt lat="45.76009" lon="6.5496">
        <ele>1876</ele>
        <time>2022-07-17T03:50:25Z</time>
      </trkpt>
      <trkpt lat="45.76009" lon="6.54958">
        <ele>1876</ele>
        <time>2022-07-17T03:50:26Z</time>
      </trkpt>
      <trkpt lat="45.76009" lon="6.54955">
        <ele>1876</ele>
        <time>2022-07-17T03:50:27Z</time>
      </trkpt>
      <trkpt lat="45.76009" lon="6.54952">
        <ele>1876</ele>
        <time>2022-07-17T03:50:28Z</time>
      </trkpt>
      <trkpt lat="45.76009" lon="6.54949">
        <ele>1876</ele>
        <time>2022-07-17T03:50:29Z</time>
      </trkpt>
      <trkpt lat="45.76009" lon="6.54946">
        <ele>1876</ele>
        <time>2022-07-17T03:50:30Z</time>
      </trkpt>
      <trkpt lat="45.76009" lon="6.54944">
        <ele>1876</ele>
        <time>2022-07-17T03:50:31Z</time>
      </trkpt>
      <trkpt lat="45.7601" lon="6.54939">
        <ele>1876</ele>
        <time>2022-07-17T03:50:33Z</time>
      </trkpt>
      <trkpt lat="45.7601" lon="6.54935">
        <ele>1876</ele>
        <time>2022-07-17T03:50:35Z</time>
      </trkpt>
      <trkpt lat="45.7601" lon="6.5493">
        <ele>1876</ele>
        <time>2022-07-17T03:50:37Z</time>
      </trkpt>
      <trkpt lat="45.76011" lon="6.54925">
        <ele>1876</ele>
        <time>2022-07-17T03:50:39Z</time>
      </trkpt>
      <trkpt lat="45.76012" lon="6.5492">
        <ele>1876</ele>
        <time>2022-07-17T03:50:41Z</time>
      </trkpt>
      <trkpt lat="45.76012" lon="6.54916">
        <ele>1875</ele>
        <time>2022-07-17T03:50:43Z</time>
      </trkpt>
      <trkpt lat="45.76012" lon="6.54912">
        <ele>1875</ele>
        <time>2022-07-17T03:50:45Z</time>
      </trkpt>
      <trkpt lat="45.76012" lon="6.54908">
        <ele>1875</ele>
        <time>2022-07-17T03:50:47Z</time>
      </trkpt>
      <trkpt lat="45.76011" lon="6.54905">
        <ele>1875</ele>
        <time>2022-07-17T03:50:48Z</time>
      </trkpt>
      <trkpt lat="45.7601" lon="6.54901">
        <ele>1875</ele>
        <time>2022-07-17T03:50:50Z</time>
      </trkpt>
      <trkpt lat="45.7601" lon="6.54897">
        <ele>1875</ele>
        <time>2022-07-17T03:50:52Z</time>
      </trkpt>
      <trkpt lat="45.7601" lon="6.54892">
        <ele>1874</ele>
        <time>2022-07-17T03:50:54Z</time>
      </trkpt>
      <trkpt lat="45.76009" lon="6.54888">
        <ele>1874</ele>
        <time>2022-07-17T03:50:56Z</time>
      </trkpt>
      <trkpt lat="45.76008" lon="6.54883">
        <ele>1874</ele>
        <time>2022-07-17T03:50:58Z</time>
      </trkpt>
      <trkpt lat="45.76007" lon="6.54878">
        <ele>1874</ele>
        <time>2022-07-17T03:51:00Z</time>
      </trkpt>
      <trkpt lat="45.76007" lon="6.54876">
        <ele>1874</ele>
        <time>2022-07-17T03:51:01Z</time>
      </trkpt>
      <trkpt lat="45.76006" lon="6.54872">
        <ele>1873</ele>
        <time>2022-07-17T03:51:03Z</time>
      </trkpt>
      <trkpt lat="45.76005" lon="6.54867">
        <ele>1873</ele>
        <time>2022-07-17T03:51:05Z</time>
      </trkpt>
      <trkpt lat="45.76004" lon="6.54863">
        <ele>1873</ele>
        <time>2022-07-17T03:51:07Z</time>
      </trkpt>
      <trkpt lat="45.76002" lon="6.54859">
        <ele>1873</ele>
        <time>2022-07-17T03:51:09Z</time>
      </trkpt>
      <trkpt lat="45.76001" lon="6.54857">
        <ele>1873</ele>
        <time>2022-07-17T03:51:10Z</time>
      </trkpt>
      <trkpt lat="45.76" lon="6.54852">
        <ele>1873</ele>
        <time>2022-07-17T03:51:12Z</time>
      </trkpt>
      <trkpt lat="45.75998" lon="6.54848">
        <ele>1873</ele>
        <time>2022-07-17T03:51:14Z</time>
      </trkpt>
      <trkpt lat="45.75997" lon="6.54846">
        <ele>1873</ele>
        <time>2022-07-17T03:51:15Z</time>
      </trkpt>
      <trkpt lat="45.75996" lon="6.54843">
        <ele>1872</ele>
        <time>2022-07-17T03:51:16Z</time>
      </trkpt>
      <trkpt lat="45.75996" lon="6.54841">
        <ele>1872</ele>
        <time>2022-07-17T03:51:17Z</time>
      </trkpt>
      <trkpt lat="45.75995" lon="6.54838">
        <ele>1872</ele>
        <time>2022-07-17T03:51:18Z</time>
      </trkpt>
      <trkpt lat="45.75993" lon="6.54832">
        <ele>1872</ele>
        <time>2022-07-17T03:51:20Z</time>
      </trkpt>
      <trkpt lat="45.75993" lon="6.54831">
        <ele>1872</ele>
        <time>2022-07-17T03:51:21Z</time>
      </trkpt>
      <trkpt lat="45.75991" lon="6.54826">
        <ele>1872</ele>
        <time>2022-07-17T03:51:23Z</time>
      </trkpt>
      <trkpt lat="45.75991" lon="6.54823">
        <ele>1872</ele>
        <time>2022-07-17T03:51:24Z</time>
      </trkpt>
      <trkpt lat="45.75989" lon="6.54819">
        <ele>1872</ele>
        <time>2022-07-17T03:51:26Z</time>
      </trkpt>
      <trkpt lat="45.75988" lon="6.54814">
        <ele>1872</ele>
        <time>2022-07-17T03:51:28Z</time>
      </trkpt>
      <trkpt lat="45.75987" lon="6.54812">
        <ele>1871</ele>
        <time>2022-07-17T03:51:29Z</time>
      </trkpt>
      <trkpt lat="45.75985" lon="6.54807">
        <ele>1871</ele>
        <time>2022-07-17T03:51:31Z</time>
      </trkpt>
      <trkpt lat="45.75983" lon="6.54803">
        <ele>1870</ele>
        <time>2022-07-17T03:51:33Z</time>
      </trkpt>
      <trkpt lat="45.75982" lon="6.54799">
        <ele>1869</ele>
        <time>2022-07-17T03:51:35Z</time>
      </trkpt>
      <trkpt lat="45.75981" lon="6.54794">
        <ele>1869</ele>
        <time>2022-07-17T03:51:37Z</time>
      </trkpt>
      <trkpt lat="45.75979" lon="6.5479">
        <ele>1868</ele>
        <time>2022-07-17T03:51:39Z</time>
      </trkpt>
      <trkpt lat="45.75978" lon="6.54786">
        <ele>1868</ele>
        <time>2022-07-17T03:51:41Z</time>
      </trkpt>
      <trkpt lat="45.75977" lon="6.54782">
        <ele>1868</ele>
        <time>2022-07-17T03:51:43Z</time>
      </trkpt>
      <trkpt lat="45.75976" lon="6.54778">
        <ele>1868</ele>
        <time>2022-07-17T03:51:45Z</time>
      </trkpt>
      <trkpt lat="45.75975" lon="6.54774">
        <ele>1867</ele>
        <time>2022-07-17T03:51:47Z</time>
      </trkpt>
      <trkpt lat="45.75974" lon="6.54769">
        <ele>1867</ele>
        <time>2022-07-17T03:51:49Z</time>
      </trkpt>
      <trkpt lat="45.75973" lon="6.54764">
        <ele>1866</ele>
        <time>2022-07-17T03:51:51Z</time>
      </trkpt>
      <trkpt lat="45.75972" lon="6.54759">
        <ele>1866</ele>
        <time>2022-07-17T03:51:53Z</time>
      </trkpt>
      <trkpt lat="45.7597" lon="6.54755">
        <ele>1866</ele>
        <time>2022-07-17T03:51:55Z</time>
      </trkpt>
      <trkpt lat="45.75968" lon="6.54751">
        <ele>1865</ele>
        <time>2022-07-17T03:51:57Z</time>
      </trkpt>
      <trkpt lat="45.75967" lon="6.54749">
        <ele>1865</ele>
        <time>2022-07-17T03:51:58Z</time>
      </trkpt>
      <trkpt lat="45.75966" lon="6.54747">
        <ele>1865</ele>
        <time>2022-07-17T03:51:59Z</time>
      </trkpt>
      <trkpt lat="45.75965" lon="6.54742">
        <ele>1865</ele>
        <time>2022-07-17T03:52:01Z</time>
      </trkpt>
      <trkpt lat="45.75964" lon="6.5474">
        <ele>1865</ele>
        <time>2022-07-17T03:52:02Z</time>
      </trkpt>
      <trkpt lat="45.75962" lon="6.54735">
        <ele>1865</ele>
        <time>2022-07-17T03:52:04Z</time>
      </trkpt>
      <trkpt lat="45.75961" lon="6.54732">
        <ele>1864</ele>
        <time>2022-07-17T03:52:05Z</time>
      </trkpt>
      <trkpt lat="45.75961" lon="6.5473">
        <ele>1864</ele>
        <time>2022-07-17T03:52:06Z</time>
      </trkpt>
      <trkpt lat="45.7596" lon="6.54726">
        <ele>1864</ele>
        <time>2022-07-17T03:52:08Z</time>
      </trkpt>
      <trkpt lat="45.75959" lon="6.54722">
        <ele>1863</ele>
        <time>2022-07-17T03:52:10Z</time>
      </trkpt>
      <trkpt lat="45.75958" lon="6.54718">
        <ele>1862</ele>
        <time>2022-07-17T03:52:12Z</time>
      </trkpt>
      <trkpt lat="45.75957" lon="6.54714">
        <ele>1862</ele>
        <time>2022-07-17T03:52:14Z</time>
      </trkpt>
      <trkpt lat="45.75956" lon="6.5471">
        <ele>1861</ele>
        <time>2022-07-17T03:52:16Z</time>
      </trkpt>
      <trkpt lat="45.75956" lon="6.54706">
        <ele>1861</ele>
        <time>2022-07-17T03:52:18Z</time>
      </trkpt>
      <trkpt lat="45.75955" lon="6.54702">
        <ele>1860</ele>
        <time>2022-07-17T03:52:20Z</time>
      </trkpt>
      <trkpt lat="45.75956" lon="6.54697">
        <ele>1859</ele>
        <time>2022-07-17T03:52:22Z</time>
      </trkpt>
      <trkpt lat="45.75956" lon="6.54693">
        <ele>1859</ele>
        <time>2022-07-17T03:52:24Z</time>
      </trkpt>
      <trkpt lat="45.75956" lon="6.54689">
        <ele>1858</ele>
        <time>2022-07-17T03:52:26Z</time>
      </trkpt>
      <trkpt lat="45.75956" lon="6.54685">
        <ele>1858</ele>
        <time>2022-07-17T03:52:28Z</time>
      </trkpt>
      <trkpt lat="45.75956" lon="6.54681">
        <ele>1857</ele>
        <time>2022-07-17T03:52:30Z</time>
      </trkpt>
      <trkpt lat="45.75955" lon="6.54677">
        <ele>1856</ele>
        <time>2022-07-17T03:52:32Z</time>
      </trkpt>
      <trkpt lat="45.75954" lon="6.54673">
        <ele>1855</ele>
        <time>2022-07-17T03:52:34Z</time>
      </trkpt>
      <trkpt lat="45.75954" lon="6.5467">
        <ele>1855</ele>
        <time>2022-07-17T03:52:36Z</time>
      </trkpt>
      <trkpt lat="45.75954" lon="6.54666">
        <ele>1855</ele>
        <time>2022-07-17T03:52:38Z</time>
      </trkpt>
      <trkpt lat="45.75954" lon="6.54661">
        <ele>1854</ele>
        <time>2022-07-17T03:52:40Z</time>
      </trkpt>
      <trkpt lat="45.75954" lon="6.54657">
        <ele>1854</ele>
        <time>2022-07-17T03:52:42Z</time>
      </trkpt>
      <trkpt lat="45.75954" lon="6.54653">
        <ele>1854</ele>
        <time>2022-07-17T03:52:44Z</time>
      </trkpt>
      <trkpt lat="45.75954" lon="6.54649">
        <ele>1854</ele>
        <time>2022-07-17T03:52:46Z</time>
      </trkpt>
      <trkpt lat="45.75955" lon="6.54646">
        <ele>1853</ele>
        <time>2022-07-17T03:52:48Z</time>
      </trkpt>
      <trkpt lat="45.75955" lon="6.54643">
        <ele>1853</ele>
        <time>2022-07-17T03:52:50Z</time>
      </trkpt>
      <trkpt lat="45.75956" lon="6.54638">
        <ele>1852</ele>
        <time>2022-07-17T03:52:52Z</time>
      </trkpt>
      <trkpt lat="45.75956" lon="6.54634">
        <ele>1852</ele>
        <time>2022-07-17T03:52:55Z</time>
      </trkpt>
      <trkpt lat="45.75957" lon="6.5463">
        <ele>1851</ele>
        <time>2022-07-17T03:52:56Z</time>
      </trkpt>
      <trkpt lat="45.75957" lon="6.54627">
        <ele>1850</ele>
        <time>2022-07-17T03:52:58Z</time>
      </trkpt>
      <trkpt lat="45.75957" lon="6.54624">
        <ele>1850</ele>
        <time>2022-07-17T03:53:00Z</time>
      </trkpt>
      <trkpt lat="45.75957" lon="6.5462">
        <ele>1850</ele>
        <time>2022-07-17T03:53:02Z</time>
      </trkpt>
      <trkpt lat="45.75958" lon="6.54617">
        <ele>1849</ele>
        <time>2022-07-17T03:53:04Z</time>
      </trkpt>
      <trkpt lat="45.75959" lon="6.54614">
        <ele>1849</ele>
        <time>2022-07-17T03:53:06Z</time>
      </trkpt>
      <trkpt lat="45.7596" lon="6.54611">
        <ele>1849</ele>
        <time>2022-07-17T03:53:08Z</time>
      </trkpt>
      <trkpt lat="45.75959" lon="6.54607">
        <ele>1848</ele>
        <time>2022-07-17T03:53:10Z</time>
      </trkpt>
      <trkpt lat="45.75958" lon="6.54603">
        <ele>1847</ele>
        <time>2022-07-17T03:53:12Z</time>
      </trkpt>
      <trkpt lat="45.75958" lon="6.54599">
        <ele>1847</ele>
        <time>2022-07-17T03:53:14Z</time>
      </trkpt>
      <trkpt lat="45.75959" lon="6.54596">
        <ele>1847</ele>
        <time>2022-07-17T03:53:15Z</time>
      </trkpt>
      <trkpt lat="45.7596" lon="6.54592">
        <ele>1846</ele>
        <time>2022-07-17T03:53:17Z</time>
      </trkpt>
      <trkpt lat="45.7596" lon="6.54589">
        <ele>1846</ele>
        <time>2022-07-17T03:53:18Z</time>
      </trkpt>
      <trkpt lat="45.7596" lon="6.54586">
        <ele>1846</ele>
        <time>2022-07-17T03:53:19Z</time>
      </trkpt>
      <trkpt lat="45.7596" lon="6.54583">
        <ele>1846</ele>
        <time>2022-07-17T03:53:20Z</time>
      </trkpt>
      <trkpt lat="45.75961" lon="6.54576">
        <ele>1846</ele>
        <time>2022-07-17T03:53:22Z</time>
      </trkpt>
      <trkpt lat="45.7596" lon="6.54573">
        <ele>1845</ele>
        <time>2022-07-17T03:53:23Z</time>
      </trkpt>
      <trkpt lat="45.7596" lon="6.54569">
        <ele>1845</ele>
        <time>2022-07-17T03:53:25Z</time>
      </trkpt>
      <trkpt lat="45.7596" lon="6.54565">
        <ele>1845</ele>
        <time>2022-07-17T03:53:27Z</time>
      </trkpt>
      <trkpt lat="45.75959" lon="6.54561">
        <ele>1844</ele>
        <time>2022-07-17T03:53:29Z</time>
      </trkpt>
      <trkpt lat="45.75959" lon="6.54558">
        <ele>1843</ele>
        <time>2022-07-17T03:53:31Z</time>
      </trkpt>
      <trkpt lat="45.75959" lon="6.54554">
        <ele>1843</ele>
        <time>2022-07-17T03:53:33Z</time>
      </trkpt>
      <trkpt lat="45.75959" lon="6.5455">
        <ele>1841</ele>
        <time>2022-07-17T03:53:35Z</time>
      </trkpt>
      <trkpt lat="45.75959" lon="6.54546">
        <ele>1841</ele>
        <time>2022-07-17T03:53:37Z</time>
      </trkpt>
      <trkpt lat="45.75959" lon="6.54542">
        <ele>1841</ele>
        <time>2022-07-17T03:53:39Z</time>
      </trkpt>
      <trkpt lat="45.75959" lon="6.54539">
        <ele>1841</ele>
        <time>2022-07-17T03:53:41Z</time>
      </trkpt>
      <trkpt lat="45.7596" lon="6.54535">
        <ele>1841</ele>
        <time>2022-07-17T03:53:44Z</time>
      </trkpt>
      <trkpt lat="45.7596" lon="6.54532">
        <ele>1840</ele>
        <time>2022-07-17T03:53:46Z</time>
      </trkpt>
      <trkpt lat="45.7596" lon="6.54528">
        <ele>1840</ele>
        <time>2022-07-17T03:53:48Z</time>
      </trkpt>
      <trkpt lat="45.7596" lon="6.54523">
        <ele>1840</ele>
        <time>2022-07-17T03:53:50Z</time>
      </trkpt>
      <trkpt lat="45.7596" lon="6.54519">
        <ele>1839</ele>
        <time>2022-07-17T03:53:52Z</time>
      </trkpt>
      <trkpt lat="45.7596" lon="6.54514">
        <ele>1839</ele>
        <time>2022-07-17T03:53:54Z</time>
      </trkpt>
      <trkpt lat="45.75959" lon="6.54509">
        <ele>1838</ele>
        <time>2022-07-17T03:53:56Z</time>
      </trkpt>
      <trkpt lat="45.75959" lon="6.54506">
        <ele>1838</ele>
        <time>2022-07-17T03:53:58Z</time>
      </trkpt>
      <trkpt lat="45.75959" lon="6.54502">
        <ele>1837</ele>
        <time>2022-07-17T03:54:00Z</time>
      </trkpt>
      <trkpt lat="45.75958" lon="6.54499">
        <ele>1837</ele>
        <time>2022-07-17T03:54:02Z</time>
      </trkpt>
      <trkpt lat="45.75958" lon="6.54495">
        <ele>1837</ele>
        <time>2022-07-17T03:54:04Z</time>
      </trkpt>
      <trkpt lat="45.75957" lon="6.54491">
        <ele>1837</ele>
        <time>2022-07-17T03:54:06Z</time>
      </trkpt>
      <trkpt lat="45.75957" lon="6.54489">
        <ele>1836</ele>
        <time>2022-07-17T03:54:08Z</time>
      </trkpt>
      <trkpt lat="45.75957" lon="6.54485">
        <ele>1836</ele>
        <time>2022-07-17T03:54:10Z</time>
      </trkpt>
      <trkpt lat="45.75957" lon="6.54481">
        <ele>1836</ele>
        <time>2022-07-17T03:54:12Z</time>
      </trkpt>
      <trkpt lat="45.75957" lon="6.54477">
        <ele>1835</ele>
        <time>2022-07-17T03:54:14Z</time>
      </trkpt>
      <trkpt lat="45.75957" lon="6.54473">
        <ele>1835</ele>
        <time>2022-07-17T03:54:16Z</time>
      </trkpt>
      <trkpt lat="45.75957" lon="6.54468">
        <ele>1834</ele>
        <time>2022-07-17T03:54:18Z</time>
      </trkpt>
      <trkpt lat="45.75958" lon="6.54463">
        <ele>1834</ele>
        <time>2022-07-17T03:54:20Z</time>
      </trkpt>
      <trkpt lat="45.75959" lon="6.54459">
        <ele>1833</ele>
        <time>2022-07-17T03:54:22Z</time>
      </trkpt>
      <trkpt lat="45.75958" lon="6.54454">
        <ele>1833</ele>
        <time>2022-07-17T03:54:24Z</time>
      </trkpt>
      <trkpt lat="45.75958" lon="6.54451">
        <ele>1832</ele>
        <time>2022-07-17T03:54:26Z</time>
      </trkpt>
      <trkpt lat="45.75957" lon="6.54446">
        <ele>1832</ele>
        <time>2022-07-17T03:54:28Z</time>
      </trkpt>
      <trkpt lat="45.75956" lon="6.54444">
        <ele>1832</ele>
        <time>2022-07-17T03:54:29Z</time>
      </trkpt>
      <trkpt lat="45.75956" lon="6.54441">
        <ele>1832</ele>
        <time>2022-07-17T03:54:30Z</time>
      </trkpt>
      <trkpt lat="45.75956" lon="6.54439">
        <ele>1831</ele>
        <time>2022-07-17T03:54:31Z</time>
      </trkpt>
      <trkpt lat="45.75956" lon="6.54437">
        <ele>1830</ele>
        <time>2022-07-17T03:54:32Z</time>
      </trkpt>
      <trkpt lat="45.75956" lon="6.54435">
        <ele>1830</ele>
        <time>2022-07-17T03:54:33Z</time>
      </trkpt>
      <trkpt lat="45.75955" lon="6.54431">
        <ele>1830</ele>
        <time>2022-07-17T03:54:35Z</time>
      </trkpt>
      <trkpt lat="45.75954" lon="6.54426">
        <ele>1830</ele>
        <time>2022-07-17T03:54:37Z</time>
      </trkpt>
      <trkpt lat="45.75952" lon="6.54423">
        <ele>1830</ele>
        <time>2022-07-17T03:54:39Z</time>
      </trkpt>
      <trkpt lat="45.75951" lon="6.5442">
        <ele>1830</ele>
        <time>2022-07-17T03:54:41Z</time>
      </trkpt>
      <trkpt lat="45.7595" lon="6.54417">
        <ele>1829</ele>
        <time>2022-07-17T03:54:43Z</time>
      </trkpt>
      <trkpt lat="45.75948" lon="6.54414">
        <ele>1828</ele>
        <time>2022-07-17T03:54:45Z</time>
      </trkpt>
      <trkpt lat="45.75947" lon="6.54411">
        <ele>1828</ele>
        <time>2022-07-17T03:54:47Z</time>
      </trkpt>
      <trkpt lat="45.75946" lon="6.54406">
        <ele>1828</ele>
        <time>2022-07-17T03:54:49Z</time>
      </trkpt>
      <trkpt lat="45.75945" lon="6.54402">
        <ele>1827</ele>
        <time>2022-07-17T03:54:51Z</time>
      </trkpt>
      <trkpt lat="45.75945" lon="6.54399">
        <ele>1827</ele>
        <time>2022-07-17T03:54:53Z</time>
      </trkpt>
      <trkpt lat="45.75944" lon="6.54395">
        <ele>1826</ele>
        <time>2022-07-17T03:54:55Z</time>
      </trkpt>
      <trkpt lat="45.75944" lon="6.54391">
        <ele>1826</ele>
        <time>2022-07-17T03:54:57Z</time>
      </trkpt>
      <trkpt lat="45.75945" lon="6.54386">
        <ele>1826</ele>
        <time>2022-07-17T03:54:59Z</time>
      </trkpt>
      <trkpt lat="45.75944" lon="6.54381">
        <ele>1826</ele>
        <time>2022-07-17T03:55:01Z</time>
      </trkpt>
      <trkpt lat="45.75944" lon="6.54378">
        <ele>1826</ele>
        <time>2022-07-17T03:55:02Z</time>
      </trkpt>
      <trkpt lat="45.75943" lon="6.54376">
        <ele>1825</ele>
        <time>2022-07-17T03:55:03Z</time>
      </trkpt>
      <trkpt lat="45.75943" lon="6.54373">
        <ele>1825</ele>
        <time>2022-07-17T03:55:04Z</time>
      </trkpt>
      <trkpt lat="45.75943" lon="6.5437">
        <ele>1825</ele>
        <time>2022-07-17T03:55:05Z</time>
      </trkpt>
      <trkpt lat="45.75943" lon="6.54368">
        <ele>1825</ele>
        <time>2022-07-17T03:55:06Z</time>
      </trkpt>
      <trkpt lat="45.75942" lon="6.54365">
        <ele>1825</ele>
        <time>2022-07-17T03:55:07Z</time>
      </trkpt>
      <trkpt lat="45.75942" lon="6.54361">
        <ele>1825</ele>
        <time>2022-07-17T03:55:09Z</time>
      </trkpt>
      <trkpt lat="45.75942" lon="6.54357">
        <ele>1824</ele>
        <time>2022-07-17T03:55:11Z</time>
      </trkpt>
      <trkpt lat="45.75941" lon="6.54353">
        <ele>1824</ele>
        <time>2022-07-17T03:55:13Z</time>
      </trkpt>
      <trkpt lat="45.75941" lon="6.54348">
        <ele>1824</ele>
        <time>2022-07-17T03:55:15Z</time>
      </trkpt>
      <trkpt lat="45.7594" lon="6.54346">
        <ele>1824</ele>
        <time>2022-07-17T03:55:16Z</time>
      </trkpt>
      <trkpt lat="45.7594" lon="6.54344">
        <ele>1824</ele>
        <time>2022-07-17T03:55:17Z</time>
      </trkpt>
      <trkpt lat="45.7594" lon="6.54342">
        <ele>1823</ele>
        <time>2022-07-17T03:55:18Z</time>
      </trkpt>
      <trkpt lat="45.75939" lon="6.54339">
        <ele>1823</ele>
        <time>2022-07-17T03:55:19Z</time>
      </trkpt>
      <trkpt lat="45.75939" lon="6.54337">
        <ele>1823</ele>
        <time>2022-07-17T03:55:20Z</time>
      </trkpt>
      <trkpt lat="45.75939" lon="6.54335">
        <ele>1823</ele>
        <time>2022-07-17T03:55:21Z</time>
      </trkpt>
      <trkpt lat="45.75938" lon="6.54331">
        <ele>1823</ele>
        <time>2022-07-17T03:55:23Z</time>
      </trkpt>
      <trkpt lat="45.75938" lon="6.54327">
        <ele>1822</ele>
        <time>2022-07-17T03:55:25Z</time>
      </trkpt>
      <trkpt lat="45.75938" lon="6.54324">
        <ele>1822</ele>
        <time>2022-07-17T03:55:27Z</time>
      </trkpt>
      <trkpt lat="45.75937" lon="6.54318">
        <ele>1822</ele>
        <time>2022-07-17T03:55:28Z</time>
      </trkpt>
      <trkpt lat="45.75936" lon="6.54314">
        <ele>1821</ele>
        <time>2022-07-17T03:55:30Z</time>
      </trkpt>
      <trkpt lat="45.75936" lon="6.54311">
        <ele>1821</ele>
        <time>2022-07-17T03:55:31Z</time>
      </trkpt>
      <trkpt lat="45.75935" lon="6.54308">
        <ele>1821</ele>
        <time>2022-07-17T03:55:32Z</time>
      </trkpt>
      <trkpt lat="45.75935" lon="6.54304">
        <ele>1821</ele>
        <time>2022-07-17T03:55:34Z</time>
      </trkpt>
      <trkpt lat="45.75935" lon="6.54299">
        <ele>1821</ele>
        <time>2022-07-17T03:55:36Z</time>
      </trkpt>
      <trkpt lat="45.75934" lon="6.54296">
        <ele>1820</ele>
        <time>2022-07-17T03:55:37Z</time>
      </trkpt>
      <trkpt lat="45.75934" lon="6.54293">
        <ele>1820</ele>
        <time>2022-07-17T03:55:38Z</time>
      </trkpt>
      <trkpt lat="45.75934" lon="6.54287">
        <ele>1820</ele>
        <time>2022-07-17T03:55:40Z</time>
      </trkpt>
      <trkpt lat="45.75934" lon="6.54284">
        <ele>1820</ele>
        <time>2022-07-17T03:55:41Z</time>
      </trkpt>
      <trkpt lat="45.75934" lon="6.54281">
        <ele>1820</ele>
        <time>2022-07-17T03:55:42Z</time>
      </trkpt>
      <trkpt lat="45.75933" lon="6.54278">
        <ele>1820</ele>
        <time>2022-07-17T03:55:43Z</time>
      </trkpt>
      <trkpt lat="45.75933" lon="6.54274">
        <ele>1820</ele>
        <time>2022-07-17T03:55:44Z</time>
      </trkpt>
      <trkpt lat="45.75932" lon="6.54269">
        <ele>1820</ele>
        <time>2022-07-17T03:55:45Z</time>
      </trkpt>
      <trkpt lat="45.75932" lon="6.54267">
        <ele>1820</ele>
        <time>2022-07-17T03:55:46Z</time>
      </trkpt>
      <trkpt lat="45.75932" lon="6.54263">
        <ele>1819</ele>
        <time>2022-07-17T03:55:47Z</time>
      </trkpt>
      <trkpt lat="45.75932" lon="6.54259">
        <ele>1818</ele>
        <time>2022-07-17T03:55:48Z</time>
      </trkpt>
      <trkpt lat="45.75932" lon="6.54257">
        <ele>1818</ele>
        <time>2022-07-17T03:55:49Z</time>
      </trkpt>
      <trkpt lat="45.75932" lon="6.54254">
        <ele>1818</ele>
        <time>2022-07-17T03:55:50Z</time>
      </trkpt>
      <trkpt lat="45.75932" lon="6.54252">
        <ele>1818</ele>
        <time>2022-07-17T03:55:51Z</time>
      </trkpt>
      <trkpt lat="45.75932" lon="6.54249">
        <ele>1818</ele>
        <time>2022-07-17T03:55:52Z</time>
      </trkpt>
      <trkpt lat="45.75932" lon="6.54246">
        <ele>1818</ele>
        <time>2022-07-17T03:55:53Z</time>
      </trkpt>
      <trkpt lat="45.75931" lon="6.54243">
        <ele>1818</ele>
        <time>2022-07-17T03:55:54Z</time>
      </trkpt>
      <trkpt lat="45.75932" lon="6.54238">
        <ele>1818</ele>
        <time>2022-07-17T03:55:56Z</time>
      </trkpt>
      <trkpt lat="45.75932" lon="6.54233">
        <ele>1818</ele>
        <time>2022-07-17T03:55:58Z</time>
      </trkpt>
      <trkpt lat="45.75932" lon="6.54228">
        <ele>1818</ele>
        <time>2022-07-17T03:56:00Z</time>
      </trkpt>
      <trkpt lat="45.75932" lon="6.54224">
        <ele>1818</ele>
        <time>2022-07-17T03:56:02Z</time>
      </trkpt>
      <trkpt lat="45.75933" lon="6.54219">
        <ele>1818</ele>
        <time>2022-07-17T03:56:04Z</time>
      </trkpt>
      <trkpt lat="45.75934" lon="6.54215">
        <ele>1818</ele>
        <time>2022-07-17T03:56:06Z</time>
      </trkpt>
      <trkpt lat="45.75934" lon="6.54212">
        <ele>1817</ele>
        <time>2022-07-17T03:56:07Z</time>
      </trkpt>
      <trkpt lat="45.75935" lon="6.54207">
        <ele>1817</ele>
        <time>2022-07-17T03:56:09Z</time>
      </trkpt>
      <trkpt lat="45.75935" lon="6.54203">
        <ele>1817</ele>
        <time>2022-07-17T03:56:11Z</time>
      </trkpt>
      <trkpt lat="45.75935" lon="6.54199">
        <ele>1817</ele>
        <time>2022-07-17T03:56:13Z</time>
      </trkpt>
      <trkpt lat="45.75935" lon="6.54194">
        <ele>1817</ele>
        <time>2022-07-17T03:56:15Z</time>
      </trkpt>
      <trkpt lat="45.75934" lon="6.54189">
        <ele>1816</ele>
        <time>2022-07-17T03:56:17Z</time>
      </trkpt>
      <trkpt lat="45.75934" lon="6.54187">
        <ele>1816</ele>
        <time>2022-07-17T03:56:18Z</time>
      </trkpt>
      <trkpt lat="45.75934" lon="6.54184">
        <ele>1816</ele>
        <time>2022-07-17T03:56:19Z</time>
      </trkpt>
      <trkpt lat="45.75934" lon="6.54181">
        <ele>1816</ele>
        <time>2022-07-17T03:56:20Z</time>
      </trkpt>
      <trkpt lat="45.75934" lon="6.54179">
        <ele>1816</ele>
        <time>2022-07-17T03:56:21Z</time>
      </trkpt>
      <trkpt lat="45.75934" lon="6.54174">
        <ele>1815</ele>
        <time>2022-07-17T03:56:23Z</time>
      </trkpt>
      <trkpt lat="45.75934" lon="6.54172">
        <ele>1815</ele>
        <time>2022-07-17T03:56:24Z</time>
      </trkpt>
      <trkpt lat="45.75934" lon="6.54169">
        <ele>1815</ele>
        <time>2022-07-17T03:56:25Z</time>
      </trkpt>
      <trkpt lat="45.75934" lon="6.54166">
        <ele>1815</ele>
        <time>2022-07-17T03:56:26Z</time>
      </trkpt>
      <trkpt lat="45.75934" lon="6.54164">
        <ele>1814</ele>
        <time>2022-07-17T03:56:27Z</time>
      </trkpt>
      <trkpt lat="45.75935" lon="6.54161">
        <ele>1813</ele>
        <time>2022-07-17T03:56:28Z</time>
      </trkpt>
      <trkpt lat="45.75935" lon="6.54158">
        <ele>1813</ele>
        <time>2022-07-17T03:56:29Z</time>
      </trkpt>
      <trkpt lat="45.75935" lon="6.54155">
        <ele>1813</ele>
        <time>2022-07-17T03:56:30Z</time>
      </trkpt>
      <trkpt lat="45.75935" lon="6.54152">
        <ele>1813</ele>
        <time>2022-07-17T03:56:31Z</time>
      </trkpt>
      <trkpt lat="45.75935" lon="6.54149">
        <ele>1813</ele>
        <time>2022-07-17T03:56:32Z</time>
      </trkpt>
      <trkpt lat="45.75935" lon="6.54144">
        <ele>1813</ele>
        <time>2022-07-17T03:56:34Z</time>
      </trkpt>
      <trkpt lat="45.75936" lon="6.5414">
        <ele>1812</ele>
        <time>2022-07-17T03:56:36Z</time>
      </trkpt>
      <trkpt lat="45.75937" lon="6.54135">
        <ele>1812</ele>
        <time>2022-07-17T03:56:38Z</time>
      </trkpt>
      <trkpt lat="45.75937" lon="6.5413">
        <ele>1812</ele>
        <time>2022-07-17T03:56:40Z</time>
      </trkpt>
      <trkpt lat="45.75937" lon="6.54127">
        <ele>1812</ele>
        <time>2022-07-17T03:56:41Z</time>
      </trkpt>
      <trkpt lat="45.75938" lon="6.54123">
        <ele>1812</ele>
        <time>2022-07-17T03:56:43Z</time>
      </trkpt>
      <trkpt lat="45.75937" lon="6.54119">
        <ele>1811</ele>
        <time>2022-07-17T03:56:45Z</time>
      </trkpt>
      <trkpt lat="45.75936" lon="6.54115">
        <ele>1811</ele>
        <time>2022-07-17T03:56:47Z</time>
      </trkpt>
      <trkpt lat="45.75936" lon="6.54111">
        <ele>1811</ele>
        <time>2022-07-17T03:56:49Z</time>
      </trkpt>
      <trkpt lat="45.75935" lon="6.54107">
        <ele>1811</ele>
        <time>2022-07-17T03:56:51Z</time>
      </trkpt>
      <trkpt lat="45.75934" lon="6.54104">
        <ele>1810</ele>
        <time>2022-07-17T03:56:53Z</time>
      </trkpt>
      <trkpt lat="45.75933" lon="6.54101">
        <ele>1809</ele>
        <time>2022-07-17T03:56:55Z</time>
      </trkpt>
      <trkpt lat="45.75932" lon="6.54097">
        <ele>1809</ele>
        <time>2022-07-17T03:56:57Z</time>
      </trkpt>
      <trkpt lat="45.75931" lon="6.54094">
        <ele>1808</ele>
        <time>2022-07-17T03:56:59Z</time>
      </trkpt>
      <trkpt lat="45.7593" lon="6.5409">
        <ele>1808</ele>
        <time>2022-07-17T03:57:01Z</time>
      </trkpt>
      <trkpt lat="45.75929" lon="6.54085">
        <ele>1808</ele>
        <time>2022-07-17T03:57:03Z</time>
      </trkpt>
      <trkpt lat="45.75929" lon="6.54081">
        <ele>1808</ele>
        <time>2022-07-17T03:57:05Z</time>
      </trkpt>
      <trkpt lat="45.75928" lon="6.54077">
        <ele>1807</ele>
        <time>2022-07-17T03:57:07Z</time>
      </trkpt>
      <trkpt lat="45.75927" lon="6.54072">
        <ele>1806</ele>
        <time>2022-07-17T03:57:09Z</time>
      </trkpt>
      <trkpt lat="45.75926" lon="6.54068">
        <ele>1806</ele>
        <time>2022-07-17T03:57:11Z</time>
      </trkpt>
      <trkpt lat="45.75925" lon="6.54065">
        <ele>1805</ele>
        <time>2022-07-17T03:57:13Z</time>
      </trkpt>
      <trkpt lat="45.75924" lon="6.54061">
        <ele>1805</ele>
        <time>2022-07-17T03:57:15Z</time>
      </trkpt>
      <trkpt lat="45.75923" lon="6.54056">
        <ele>1805</ele>
        <time>2022-07-17T03:57:17Z</time>
      </trkpt>
      <trkpt lat="45.75922" lon="6.54052">
        <ele>1805</ele>
        <time>2022-07-17T03:57:19Z</time>
      </trkpt>
      <trkpt lat="45.75922" lon="6.54047">
        <ele>1805</ele>
        <time>2022-07-17T03:57:21Z</time>
      </trkpt>
      <trkpt lat="45.75921" lon="6.54042">
        <ele>1805</ele>
        <time>2022-07-17T03:57:23Z</time>
      </trkpt>
      <trkpt lat="45.75921" lon="6.54037">
        <ele>1805</ele>
        <time>2022-07-17T03:57:25Z</time>
      </trkpt>
      <trkpt lat="45.75921" lon="6.54034">
        <ele>1804</ele>
        <time>2022-07-17T03:57:26Z</time>
      </trkpt>
      <trkpt lat="45.75921" lon="6.54031">
        <ele>1804</ele>
        <time>2022-07-17T03:57:27Z</time>
      </trkpt>
      <trkpt lat="45.75921" lon="6.54028">
        <ele>1804</ele>
        <time>2022-07-17T03:57:28Z</time>
      </trkpt>
      <trkpt lat="45.75921" lon="6.54025">
        <ele>1804</ele>
        <time>2022-07-17T03:57:29Z</time>
      </trkpt>
      <trkpt lat="45.75922" lon="6.54022">
        <ele>1804</ele>
        <time>2022-07-17T03:57:30Z</time>
      </trkpt>
      <trkpt lat="45.75922" lon="6.5402">
        <ele>1804</ele>
        <time>2022-07-17T03:57:31Z</time>
      </trkpt>
      <trkpt lat="45.75922" lon="6.54015">
        <ele>1802</ele>
        <time>2022-07-17T03:57:33Z</time>
      </trkpt>
      <trkpt lat="45.75922" lon="6.54012">
        <ele>1802</ele>
        <time>2022-07-17T03:57:34Z</time>
      </trkpt>
      <trkpt lat="45.75922" lon="6.54009">
        <ele>1802</ele>
        <time>2022-07-17T03:57:35Z</time>
      </trkpt>
      <trkpt lat="45.75922" lon="6.54006">
        <ele>1802</ele>
        <time>2022-07-17T03:57:36Z</time>
      </trkpt>
      <trkpt lat="45.75922" lon="6.54004">
        <ele>1802</ele>
        <time>2022-07-17T03:57:37Z</time>
      </trkpt>
      <trkpt lat="45.75922" lon="6.53999">
        <ele>1802</ele>
        <time>2022-07-17T03:57:39Z</time>
      </trkpt>
      <trkpt lat="45.75922" lon="6.53994">
        <ele>1801</ele>
        <time>2022-07-17T03:57:41Z</time>
      </trkpt>
      <trkpt lat="45.75922" lon="6.53989">
        <ele>1801</ele>
        <time>2022-07-17T03:57:43Z</time>
      </trkpt>
      <trkpt lat="45.75921" lon="6.53985">
        <ele>1801</ele>
        <time>2022-07-17T03:57:45Z</time>
      </trkpt>
      <trkpt lat="45.75921" lon="6.53981">
        <ele>1800</ele>
        <time>2022-07-17T03:57:47Z</time>
      </trkpt>
      <trkpt lat="45.75921" lon="6.53977">
        <ele>1800</ele>
        <time>2022-07-17T03:57:49Z</time>
      </trkpt>
      <trkpt lat="45.75922" lon="6.53973">
        <ele>1798</ele>
        <time>2022-07-17T03:57:51Z</time>
      </trkpt>
      <trkpt lat="45.75921" lon="6.53969">
        <ele>1798</ele>
        <time>2022-07-17T03:57:53Z</time>
      </trkpt>
      <trkpt lat="45.75921" lon="6.53965">
        <ele>1798</ele>
        <time>2022-07-17T03:57:55Z</time>
      </trkpt>
      <trkpt lat="45.75921" lon="6.5396">
        <ele>1798</ele>
        <time>2022-07-17T03:57:57Z</time>
      </trkpt>
      <trkpt lat="45.75921" lon="6.53956">
        <ele>1797</ele>
        <time>2022-07-17T03:57:59Z</time>
      </trkpt>
      <trkpt lat="45.7592" lon="6.53953">
        <ele>1797</ele>
        <time>2022-07-17T03:58:00Z</time>
      </trkpt>
      <trkpt lat="45.7592" lon="6.53948">
        <ele>1797</ele>
        <time>2022-07-17T03:58:02Z</time>
      </trkpt>
      <trkpt lat="45.7592" lon="6.53945">
        <ele>1796</ele>
        <time>2022-07-17T03:58:03Z</time>
      </trkpt>
      <trkpt lat="45.7592" lon="6.53942">
        <ele>1796</ele>
        <time>2022-07-17T03:58:04Z</time>
      </trkpt>
      <trkpt lat="45.7592" lon="6.53939">
        <ele>1795</ele>
        <time>2022-07-17T03:58:05Z</time>
      </trkpt>
      <trkpt lat="45.7592" lon="6.53936">
        <ele>1794</ele>
        <time>2022-07-17T03:58:06Z</time>
      </trkpt>
      <trkpt lat="45.7592" lon="6.53932">
        <ele>1794</ele>
        <time>2022-07-17T03:58:07Z</time>
      </trkpt>
      <trkpt lat="45.7592" lon="6.53927">
        <ele>1794</ele>
        <time>2022-07-17T03:58:09Z</time>
      </trkpt>
      <trkpt lat="45.7592" lon="6.53925">
        <ele>1794</ele>
        <time>2022-07-17T03:58:10Z</time>
      </trkpt>
      <trkpt lat="45.75921" lon="6.5392">
        <ele>1793</ele>
        <time>2022-07-17T03:58:12Z</time>
      </trkpt>
      <trkpt lat="45.75921" lon="6.53916">
        <ele>1793</ele>
        <time>2022-07-17T03:58:13Z</time>
      </trkpt>
      <trkpt lat="45.75921" lon="6.53914">
        <ele>1793</ele>
        <time>2022-07-17T03:58:14Z</time>
      </trkpt>
      <trkpt lat="45.75922" lon="6.53912">
        <ele>1793</ele>
        <time>2022-07-17T03:58:15Z</time>
      </trkpt>
      <trkpt lat="45.75923" lon="6.53909">
        <ele>1793</ele>
        <time>2022-07-17T03:58:16Z</time>
      </trkpt>
      <trkpt lat="45.75924" lon="6.53905">
        <ele>1793</ele>
        <time>2022-07-17T03:58:18Z</time>
      </trkpt>
      <trkpt lat="45.75926" lon="6.539">
        <ele>1793</ele>
        <time>2022-07-17T03:58:20Z</time>
      </trkpt>
      <trkpt lat="45.75926" lon="6.53898">
        <ele>1793</ele>
        <time>2022-07-17T03:58:21Z</time>
      </trkpt>
      <trkpt lat="45.75927" lon="6.53895">
        <ele>1793</ele>
        <time>2022-07-17T03:58:22Z</time>
      </trkpt>
      <trkpt lat="45.75928" lon="6.53893">
        <ele>1793</ele>
        <time>2022-07-17T03:58:23Z</time>
      </trkpt>
      <trkpt lat="45.75929" lon="6.5389">
        <ele>1793</ele>
        <time>2022-07-17T03:58:24Z</time>
      </trkpt>
      <trkpt lat="45.7593" lon="6.53886">
        <ele>1792</ele>
        <time>2022-07-17T03:58:26Z</time>
      </trkpt>
      <trkpt lat="45.75931" lon="6.53883">
        <ele>1792</ele>
        <time>2022-07-17T03:58:27Z</time>
      </trkpt>
      <trkpt lat="45.75932" lon="6.53879">
        <ele>1792</ele>
        <time>2022-07-17T03:58:29Z</time>
      </trkpt>
      <trkpt lat="45.75932" lon="6.53875">
        <ele>1792</ele>
        <time>2022-07-17T03:58:31Z</time>
      </trkpt>
      <trkpt lat="45.75933" lon="6.5387">
        <ele>1792</ele>
        <time>2022-07-17T03:58:33Z</time>
      </trkpt>
      <trkpt lat="45.75933" lon="6.53866">
        <ele>1792</ele>
        <time>2022-07-17T03:58:35Z</time>
      </trkpt>
      <trkpt lat="45.75935" lon="6.53861">
        <ele>1792</ele>
        <time>2022-07-17T03:58:37Z</time>
      </trkpt>
      <trkpt lat="45.75935" lon="6.53857">
        <ele>1792</ele>
        <time>2022-07-17T03:58:39Z</time>
      </trkpt>
      <trkpt lat="45.75936" lon="6.53852">
        <ele>1792</ele>
        <time>2022-07-17T03:58:41Z</time>
      </trkpt>
      <trkpt lat="45.75937" lon="6.53847">
        <ele>1792</ele>
        <time>2022-07-17T03:58:43Z</time>
      </trkpt>
      <trkpt lat="45.75938" lon="6.53843">
        <ele>1791</ele>
        <time>2022-07-17T03:58:45Z</time>
      </trkpt>
      <trkpt lat="45.75939" lon="6.53838">
        <ele>1791</ele>
        <time>2022-07-17T03:58:47Z</time>
      </trkpt>
      <trkpt lat="45.7594" lon="6.53836">
        <ele>1790</ele>
        <time>2022-07-17T03:58:48Z</time>
      </trkpt>
      <trkpt lat="45.75941" lon="6.53834">
        <ele>1790</ele>
        <time>2022-07-17T03:58:49Z</time>
      </trkpt>
      <trkpt lat="45.75941" lon="6.53831">
        <ele>1790</ele>
        <time>2022-07-17T03:58:50Z</time>
      </trkpt>
      <trkpt lat="45.75942" lon="6.53829">
        <ele>1789</ele>
        <time>2022-07-17T03:58:51Z</time>
      </trkpt>
      <trkpt lat="45.75943" lon="6.53827">
        <ele>1789</ele>
        <time>2022-07-17T03:58:52Z</time>
      </trkpt>
      <trkpt lat="45.75943" lon="6.53824">
        <ele>1789</ele>
        <time>2022-07-17T03:58:53Z</time>
      </trkpt>
      <trkpt lat="45.75944" lon="6.53822">
        <ele>1789</ele>
        <time>2022-07-17T03:58:54Z</time>
      </trkpt>
      <trkpt lat="45.75944" lon="6.53819">
        <ele>1789</ele>
        <time>2022-07-17T03:58:55Z</time>
      </trkpt>
      <trkpt lat="45.75945" lon="6.53816">
        <ele>1789</ele>
        <time>2022-07-17T03:58:56Z</time>
      </trkpt>
      <trkpt lat="45.75945" lon="6.53814">
        <ele>1789</ele>
        <time>2022-07-17T03:58:57Z</time>
      </trkpt>
      <trkpt lat="45.75946" lon="6.53811">
        <ele>1789</ele>
        <time>2022-07-17T03:58:58Z</time>
      </trkpt>
      <trkpt lat="45.75946" lon="6.53808">
        <ele>1788</ele>
        <time>2022-07-17T03:58:59Z</time>
      </trkpt>
      <trkpt lat="45.75947" lon="6.53804">
        <ele>1788</ele>
        <time>2022-07-17T03:59:01Z</time>
      </trkpt>
      <trkpt lat="45.75947" lon="6.53799">
        <ele>1788</ele>
        <time>2022-07-17T03:59:03Z</time>
      </trkpt>
      <trkpt lat="45.75947" lon="6.53795">
        <ele>1787</ele>
        <time>2022-07-17T03:59:05Z</time>
      </trkpt>
      <trkpt lat="45.75947" lon="6.53793">
        <ele>1787</ele>
        <time>2022-07-17T03:59:06Z</time>
      </trkpt>
      <trkpt lat="45.75947" lon="6.53787">
        <ele>1787</ele>
        <time>2022-07-17T03:59:08Z</time>
      </trkpt>
      <trkpt lat="45.75947" lon="6.53785">
        <ele>1787</ele>
        <time>2022-07-17T03:59:09Z</time>
      </trkpt>
      <trkpt lat="45.75947" lon="6.5378">
        <ele>1787</ele>
        <time>2022-07-17T03:59:11Z</time>
      </trkpt>
      <trkpt lat="45.75946" lon="6.53775">
        <ele>1786</ele>
        <time>2022-07-17T03:59:13Z</time>
      </trkpt>
      <trkpt lat="45.75947" lon="6.53769">
        <ele>1785</ele>
        <time>2022-07-17T03:59:15Z</time>
      </trkpt>
      <trkpt lat="45.75947" lon="6.53766">
        <ele>1785</ele>
        <time>2022-07-17T03:59:16Z</time>
      </trkpt>
      <trkpt lat="45.75946" lon="6.53761">
        <ele>1784</ele>
        <time>2022-07-17T03:59:18Z</time>
      </trkpt>
      <trkpt lat="45.75947" lon="6.53757">
        <ele>1784</ele>
        <time>2022-07-17T03:59:20Z</time>
      </trkpt>
      <trkpt lat="45.75948" lon="6.53753">
        <ele>1783</ele>
        <time>2022-07-17T03:59:22Z</time>
      </trkpt>
      <trkpt lat="45.75949" lon="6.53749">
        <ele>1783</ele>
        <time>2022-07-17T03:59:24Z</time>
      </trkpt>
      <trkpt lat="45.75949" lon="6.53744">
        <ele>1783</ele>
        <time>2022-07-17T03:59:26Z</time>
      </trkpt>
      <trkpt lat="45.75949" lon="6.5374">
        <ele>1783</ele>
        <time>2022-07-17T03:59:28Z</time>
      </trkpt>
      <trkpt lat="45.7595" lon="6.53736">
        <ele>1783</ele>
        <time>2022-07-17T03:59:30Z</time>
      </trkpt>
      <trkpt lat="45.75951" lon="6.53733">
        <ele>1783</ele>
        <time>2022-07-17T03:59:32Z</time>
      </trkpt>
      <trkpt lat="45.75952" lon="6.5373">
        <ele>1783</ele>
        <time>2022-07-17T03:59:34Z</time>
      </trkpt>
      <trkpt lat="45.75952" lon="6.53727">
        <ele>1781</ele>
        <time>2022-07-17T03:59:36Z</time>
      </trkpt>
      <trkpt lat="45.75951" lon="6.53724">
        <ele>1781</ele>
        <time>2022-07-17T03:59:38Z</time>
      </trkpt>
      <trkpt lat="45.7595" lon="6.53722">
        <ele>1781</ele>
        <time>2022-07-17T03:59:40Z</time>
      </trkpt>
      <trkpt lat="45.75948" lon="6.53718">
        <ele>1780</ele>
        <time>2022-07-17T03:59:42Z</time>
      </trkpt>
      <trkpt lat="45.75946" lon="6.53716">
        <ele>1780</ele>
        <time>2022-07-17T03:59:44Z</time>
      </trkpt>
      <trkpt lat="45.75945" lon="6.53713">
        <ele>1780</ele>
        <time>2022-07-17T03:59:46Z</time>
      </trkpt>
      <trkpt lat="45.75943" lon="6.5371">
        <ele>1780</ele>
        <time>2022-07-17T03:59:48Z</time>
      </trkpt>
      <trkpt lat="45.75941" lon="6.53707">
        <ele>1780</ele>
        <time>2022-07-17T03:59:50Z</time>
      </trkpt>
      <trkpt lat="45.7594" lon="6.53703">
        <ele>1780</ele>
        <time>2022-07-17T03:59:52Z</time>
      </trkpt>
      <trkpt lat="45.7594" lon="6.537">
        <ele>1780</ele>
        <time>2022-07-17T03:59:54Z</time>
      </trkpt>
      <trkpt lat="45.75939" lon="6.53696">
        <ele>1779</ele>
        <time>2022-07-17T03:59:56Z</time>
      </trkpt>
      <trkpt lat="45.75939" lon="6.53692">
        <ele>1779</ele>
        <time>2022-07-17T03:59:58Z</time>
      </trkpt>
      <trkpt lat="45.75938" lon="6.53688">
        <ele>1779</ele>
        <time>2022-07-17T04:00:00Z</time>
      </trkpt>
      <trkpt lat="45.75938" lon="6.53683">
        <ele>1779</ele>
        <time>2022-07-17T04:00:02Z</time>
      </trkpt>
      <trkpt lat="45.75938" lon="6.5368">
        <ele>1778</ele>
        <time>2022-07-17T04:00:04Z</time>
      </trkpt>
      <trkpt lat="45.75938" lon="6.53676">
        <ele>1778</ele>
        <time>2022-07-17T04:00:06Z</time>
      </trkpt>
      <trkpt lat="45.75938" lon="6.53672">
        <ele>1778</ele>
        <time>2022-07-17T04:00:08Z</time>
      </trkpt>
      <trkpt lat="45.75938" lon="6.53668">
        <ele>1778</ele>
        <time>2022-07-17T04:00:10Z</time>
      </trkpt>
      <trkpt lat="45.75938" lon="6.53665">
        <ele>1778</ele>
        <time>2022-07-17T04:00:12Z</time>
      </trkpt>
      <trkpt lat="45.75937" lon="6.53661">
        <ele>1778</ele>
        <time>2022-07-17T04:00:14Z</time>
      </trkpt>
      <trkpt lat="45.75936" lon="6.53658">
        <ele>1777</ele>
        <time>2022-07-17T04:00:16Z</time>
      </trkpt>
      <trkpt lat="45.75936" lon="6.53654">
        <ele>1777</ele>
        <time>2022-07-17T04:00:18Z</time>
      </trkpt>
      <trkpt lat="45.75935" lon="6.5365">
        <ele>1777</ele>
        <time>2022-07-17T04:00:20Z</time>
      </trkpt>
      <trkpt lat="45.75934" lon="6.53647">
        <ele>1777</ele>
        <time>2022-07-17T04:00:22Z</time>
      </trkpt>
      <trkpt lat="45.75933" lon="6.53644">
        <ele>1776</ele>
        <time>2022-07-17T04:00:24Z</time>
      </trkpt>
      <trkpt lat="45.75932" lon="6.5364">
        <ele>1776</ele>
        <time>2022-07-17T04:00:26Z</time>
      </trkpt>
      <trkpt lat="45.75932" lon="6.53636">
        <ele>1775</ele>
        <time>2022-07-17T04:00:28Z</time>
      </trkpt>
      <trkpt lat="45.75932" lon="6.53631">
        <ele>1775</ele>
        <time>2022-07-17T04:00:30Z</time>
      </trkpt>
      <trkpt lat="45.75932" lon="6.53626">
        <ele>1774</ele>
        <time>2022-07-17T04:00:32Z</time>
      </trkpt>
      <trkpt lat="45.75932" lon="6.53623">
        <ele>1774</ele>
        <time>2022-07-17T04:00:33Z</time>
      </trkpt>
      <trkpt lat="45.75932" lon="6.53619">
        <ele>1774</ele>
        <time>2022-07-17T04:00:34Z</time>
      </trkpt>
      <trkpt lat="45.75931" lon="6.53617">
        <ele>1773</ele>
        <time>2022-07-17T04:00:35Z</time>
      </trkpt>
      <trkpt lat="45.7593" lon="6.53612">
        <ele>1773</ele>
        <time>2022-07-17T04:00:37Z</time>
      </trkpt>
      <trkpt lat="45.75928" lon="6.53607">
        <ele>1773</ele>
        <time>2022-07-17T04:00:39Z</time>
      </trkpt>
      <trkpt lat="45.75927" lon="6.53605">
        <ele>1773</ele>
        <time>2022-07-17T04:00:40Z</time>
      </trkpt>
      <trkpt lat="45.75926" lon="6.53602">
        <ele>1773</ele>
        <time>2022-07-17T04:00:41Z</time>
      </trkpt>
      <trkpt lat="45.75925" lon="6.536">
        <ele>1773</ele>
        <time>2022-07-17T04:00:42Z</time>
      </trkpt>
      <trkpt lat="45.75924" lon="6.53597">
        <ele>1773</ele>
        <time>2022-07-17T04:00:43Z</time>
      </trkpt>
      <trkpt lat="45.75923" lon="6.53593">
        <ele>1773</ele>
        <time>2022-07-17T04:00:44Z</time>
      </trkpt>
      <trkpt lat="45.75925" lon="6.53591">
        <ele>1773</ele>
        <time>2022-07-17T04:00:45Z</time>
      </trkpt>
      <trkpt lat="45.75925" lon="6.53586">
        <ele>1773</ele>
        <time>2022-07-17T04:00:47Z</time>
      </trkpt>
      <trkpt lat="45.75925" lon="6.53582">
        <ele>1772</ele>
        <time>2022-07-17T04:00:49Z</time>
      </trkpt>
      <trkpt lat="45.75924" lon="6.53579">
        <ele>1772</ele>
        <time>2022-07-17T04:00:50Z</time>
      </trkpt>
      <trkpt lat="45.75923" lon="6.53577">
        <ele>1771</ele>
        <time>2022-07-17T04:00:51Z</time>
      </trkpt>
      <trkpt lat="45.75922" lon="6.53574">
        <ele>1771</ele>
        <time>2022-07-17T04:00:52Z</time>
      </trkpt>
      <trkpt lat="45.75921" lon="6.5357">
        <ele>1771</ele>
        <time>2022-07-17T04:00:54Z</time>
      </trkpt>
      <trkpt lat="45.7592" lon="6.53566">
        <ele>1771</ele>
        <time>2022-07-17T04:00:56Z</time>
      </trkpt>
      <trkpt lat="45.7592" lon="6.53563">
        <ele>1771</ele>
        <time>2022-07-17T04:00:58Z</time>
      </trkpt>
      <trkpt lat="45.7592" lon="6.53559">
        <ele>1771</ele>
        <time>2022-07-17T04:01:00Z</time>
      </trkpt>
      <trkpt lat="45.7592" lon="6.53555">
        <ele>1771</ele>
        <time>2022-07-17T04:01:02Z</time>
      </trkpt>
      <trkpt lat="45.75919" lon="6.53552">
        <ele>1770</ele>
        <time>2022-07-17T04:01:03Z</time>
      </trkpt>
      <trkpt lat="45.75918" lon="6.5355">
        <ele>1770</ele>
        <time>2022-07-17T04:01:04Z</time>
      </trkpt>
      <trkpt lat="45.75916" lon="6.53547">
        <ele>1770</ele>
        <time>2022-07-17T04:01:06Z</time>
      </trkpt>
      <trkpt lat="45.75914" lon="6.53542">
        <ele>1770</ele>
        <time>2022-07-17T04:01:09Z</time>
      </trkpt>
      <trkpt lat="45.75914" lon="6.53538">
        <ele>1770</ele>
        <time>2022-07-17T04:01:11Z</time>
      </trkpt>
      <trkpt lat="45.75915" lon="6.53534">
        <ele>1769</ele>
        <time>2022-07-17T04:01:13Z</time>
      </trkpt>
      <trkpt lat="45.75915" lon="6.5353">
        <ele>1769</ele>
        <time>2022-07-17T04:01:15Z</time>
      </trkpt>
      <trkpt lat="45.75916" lon="6.53527">
        <ele>1770</ele>
        <time>2022-07-17T04:01:17Z</time>
      </trkpt>
      <trkpt lat="45.75917" lon="6.53523">
        <ele>1770</ele>
        <time>2022-07-17T04:01:19Z</time>
      </trkpt>
      <trkpt lat="45.75919" lon="6.5352">
        <ele>1770</ele>
        <time>2022-07-17T04:01:21Z</time>
      </trkpt>
      <trkpt lat="45.7592" lon="6.53518">
        <ele>1770</ele>
        <time>2022-07-17T04:01:23Z</time>
      </trkpt>
      <trkpt lat="45.75922" lon="6.53515">
        <ele>1771</ele>
        <time>2022-07-17T04:01:25Z</time>
      </trkpt>
      <trkpt lat="45.75924" lon="6.53513">
        <ele>1771</ele>
        <time>2022-07-17T04:01:27Z</time>
      </trkpt>
      <trkpt lat="45.75925" lon="6.5351">
        <ele>1771</ele>
        <time>2022-07-17T04:01:29Z</time>
      </trkpt>
      <trkpt lat="45.75926" lon="6.53507">
        <ele>1771</ele>
        <time>2022-07-17T04:01:31Z</time>
      </trkpt>
      <trkpt lat="45.75927" lon="6.53504">
        <ele>1771</ele>
        <time>2022-07-17T04:01:33Z</time>
      </trkpt>
      <trkpt lat="45.75928" lon="6.53501">
        <ele>1771</ele>
        <time>2022-07-17T04:01:35Z</time>
      </trkpt>
      <trkpt lat="45.75929" lon="6.53499">
        <ele>1771</ele>
        <time>2022-07-17T04:01:37Z</time>
      </trkpt>
      <trkpt lat="45.75927" lon="6.53497">
        <ele>1772</ele>
        <time>2022-07-17T04:01:40Z</time>
      </trkpt>
      <trkpt lat="45.75924" lon="6.53495">
        <ele>1772</ele>
        <time>2022-07-17T04:01:42Z</time>
      </trkpt>
      <trkpt lat="45.75922" lon="6.53495">
        <ele>1772</ele>
        <time>2022-07-17T04:01:44Z</time>
      </trkpt>
      <trkpt lat="45.75919" lon="6.53494">
        <ele>1772</ele>
        <time>2022-07-17T04:01:46Z</time>
      </trkpt>
      <trkpt lat="45.75917" lon="6.53492">
        <ele>1772</ele>
        <time>2022-07-17T04:01:48Z</time>
      </trkpt>
      <trkpt lat="45.75915" lon="6.53491">
        <ele>1772</ele>
        <time>2022-07-17T04:01:50Z</time>
      </trkpt>
      <trkpt lat="45.75913" lon="6.5349">
        <ele>1772</ele>
        <time>2022-07-17T04:01:52Z</time>
      </trkpt>
      <trkpt lat="45.75911" lon="6.53489">
        <ele>1772</ele>
        <time>2022-07-17T04:01:54Z</time>
      </trkpt>
      <trkpt lat="45.75908" lon="6.53487">
        <ele>1772</ele>
        <time>2022-07-17T04:01:56Z</time>
      </trkpt>
      <trkpt lat="45.75906" lon="6.53486">
        <ele>1772</ele>
        <time>2022-07-17T04:01:58Z</time>
      </trkpt>
      <trkpt lat="45.75905" lon="6.53484">
        <ele>1771</ele>
        <time>2022-07-17T04:02:00Z</time>
      </trkpt>
      <trkpt lat="45.75903" lon="6.53483">
        <ele>1771</ele>
        <time>2022-07-17T04:02:02Z</time>
      </trkpt>
      <trkpt lat="45.75901" lon="6.53481">
        <ele>1770</ele>
        <time>2022-07-17T04:02:04Z</time>
      </trkpt>
      <trkpt lat="45.759" lon="6.53478">
        <ele>1770</ele>
        <time>2022-07-17T04:02:06Z</time>
      </trkpt>
      <trkpt lat="45.75897" lon="6.53476">
        <ele>1769</ele>
        <time>2022-07-17T04:02:08Z</time>
      </trkpt>
      <trkpt lat="45.75894" lon="6.53475">
        <ele>1769</ele>
        <time>2022-07-17T04:02:10Z</time>
      </trkpt>
      <trkpt lat="45.75891" lon="6.53475">
        <ele>1769</ele>
        <time>2022-07-17T04:02:12Z</time>
      </trkpt>
      <trkpt lat="45.75889" lon="6.53474">
        <ele>1768</ele>
        <time>2022-07-17T04:02:14Z</time>
      </trkpt>
      <trkpt lat="45.75886" lon="6.53473">
        <ele>1767</ele>
        <time>2022-07-17T04:02:16Z</time>
      </trkpt>
      <trkpt lat="45.75883" lon="6.53474">
        <ele>1767</ele>
        <time>2022-07-17T04:02:18Z</time>
      </trkpt>
      <trkpt lat="45.7588" lon="6.53476">
        <ele>1766</ele>
        <time>2022-07-17T04:02:20Z</time>
      </trkpt>
      <trkpt lat="45.75877" lon="6.53477">
        <ele>1766</ele>
        <time>2022-07-17T04:02:22Z</time>
      </trkpt>
      <trkpt lat="45.75875" lon="6.53479">
        <ele>1765</ele>
        <time>2022-07-17T04:02:24Z</time>
      </trkpt>
      <trkpt lat="45.75872" lon="6.5348">
        <ele>1764</ele>
        <time>2022-07-17T04:02:26Z</time>
      </trkpt>
      <trkpt lat="45.7587" lon="6.53483">
        <ele>1764</ele>
        <time>2022-07-17T04:02:28Z</time>
      </trkpt>
      <trkpt lat="45.75868" lon="6.53486">
        <ele>1764</ele>
        <time>2022-07-17T04:02:30Z</time>
      </trkpt>
      <trkpt lat="45.75866" lon="6.53489">
        <ele>1763</ele>
        <time>2022-07-17T04:02:32Z</time>
      </trkpt>
      <trkpt lat="45.75864" lon="6.53492">
        <ele>1763</ele>
        <time>2022-07-17T04:02:34Z</time>
      </trkpt>
      <trkpt lat="45.75863" lon="6.53495">
        <ele>1762</ele>
        <time>2022-07-17T04:02:36Z</time>
      </trkpt>
      <trkpt lat="45.75862" lon="6.53498">
        <ele>1762</ele>
        <time>2022-07-17T04:02:38Z</time>
      </trkpt>
      <trkpt lat="45.7586" lon="6.53501">
        <ele>1762</ele>
        <time>2022-07-17T04:02:40Z</time>
      </trkpt>
      <trkpt lat="45.75858" lon="6.53504">
        <ele>1762</ele>
        <time>2022-07-17T04:02:42Z</time>
      </trkpt>
      <trkpt lat="45.75858" lon="6.53508">
        <ele>1762</ele>
        <time>2022-07-17T04:02:44Z</time>
      </trkpt>
      <trkpt lat="45.75859" lon="6.53512">
        <ele>1762</ele>
        <time>2022-07-17T04:02:46Z</time>
      </trkpt>
      <trkpt lat="45.75859" lon="6.53516">
        <ele>1762</ele>
        <time>2022-07-17T04:02:48Z</time>
      </trkpt>
      <trkpt lat="45.75859" lon="6.53519">
        <ele>1763</ele>
        <time>2022-07-17T04:02:50Z</time>
      </trkpt>
      <trkpt lat="45.75859" lon="6.53523">
        <ele>1763</ele>
        <time>2022-07-17T04:02:52Z</time>
      </trkpt>
      <trkpt lat="45.75859" lon="6.53526">
        <ele>1763</ele>
        <time>2022-07-17T04:02:54Z</time>
      </trkpt>
      <trkpt lat="45.7586" lon="6.53529">
        <ele>1763</ele>
        <time>2022-07-17T04:02:56Z</time>
      </trkpt>
      <trkpt lat="45.75861" lon="6.53532">
        <ele>1763</ele>
        <time>2022-07-17T04:02:58Z</time>
      </trkpt>
      <trkpt lat="45.75862" lon="6.53535">
        <ele>1763</ele>
        <time>2022-07-17T04:03:00Z</time>
      </trkpt>
      <trkpt lat="45.75864" lon="6.53537">
        <ele>1763</ele>
        <time>2022-07-17T04:03:02Z</time>
      </trkpt>
      <trkpt lat="45.75865" lon="6.53539">
        <ele>1763</ele>
        <time>2022-07-17T04:03:04Z</time>
      </trkpt>
      <trkpt lat="45.75865" lon="6.53543">
        <ele>1764</ele>
        <time>2022-07-17T04:03:07Z</time>
      </trkpt>
      <trkpt lat="45.75864" lon="6.53546">
        <ele>1764</ele>
        <time>2022-07-17T04:03:09Z</time>
      </trkpt>
      <trkpt lat="45.75863" lon="6.53549">
        <ele>1764</ele>
        <time>2022-07-17T04:03:13Z</time>
      </trkpt>
      <trkpt lat="45.75862" lon="6.53551">
        <ele>1764</ele>
        <time>2022-07-17T04:03:14Z</time>
      </trkpt>
      <trkpt lat="45.7586" lon="6.53554">
        <ele>1764</ele>
        <time>2022-07-17T04:03:16Z</time>
      </trkpt>
      <trkpt lat="45.75857" lon="6.53558">
        <ele>1764</ele>
        <time>2022-07-17T04:03:18Z</time>
      </trkpt>
      <trkpt lat="45.75855" lon="6.53561">
        <ele>1763</ele>
        <time>2022-07-17T04:03:20Z</time>
      </trkpt>
      <trkpt lat="45.75853" lon="6.53564">
        <ele>1763</ele>
        <time>2022-07-17T04:03:22Z</time>
      </trkpt>
      <trkpt lat="45.75851" lon="6.53567">
        <ele>1762</ele>
        <time>2022-07-17T04:03:24Z</time>
      </trkpt>
      <trkpt lat="45.75848" lon="6.53571">
        <ele>1762</ele>
        <time>2022-07-17T04:03:26Z</time>
      </trkpt>
      <trkpt lat="45.75846" lon="6.53575">
        <ele>1763</ele>
        <time>2022-07-17T04:03:28Z</time>
      </trkpt>
      <trkpt lat="45.75845" lon="6.53577">
        <ele>1763</ele>
        <time>2022-07-17T04:03:29Z</time>
      </trkpt>
      <trkpt lat="45.75843" lon="6.5358">
        <ele>1763</ele>
        <time>2022-07-17T04:03:31Z</time>
      </trkpt>
      <trkpt lat="45.75841" lon="6.53584">
        <ele>1763</ele>
        <time>2022-07-17T04:03:33Z</time>
      </trkpt>
      <trkpt lat="45.75839" lon="6.53586">
        <ele>1763</ele>
        <time>2022-07-17T04:03:35Z</time>
      </trkpt>
      <trkpt lat="45.75837" lon="6.53588">
        <ele>1763</ele>
        <time>2022-07-17T04:03:37Z</time>
      </trkpt>
      <trkpt lat="45.75835" lon="6.53591">
        <ele>1762</ele>
        <time>2022-07-17T04:03:39Z</time>
      </trkpt>
      <trkpt lat="45.75833" lon="6.53594">
        <ele>1762</ele>
        <time>2022-07-17T04:03:41Z</time>
      </trkpt>
      <trkpt lat="45.75832" lon="6.53596">
        <ele>1762</ele>
        <time>2022-07-17T04:03:43Z</time>
      </trkpt>
      <trkpt lat="45.7583" lon="6.53599">
        <ele>1762</ele>
        <time>2022-07-17T04:03:45Z</time>
      </trkpt>
      <trkpt lat="45.75828" lon="6.53603">
        <ele>1762</ele>
        <time>2022-07-17T04:03:47Z</time>
      </trkpt>
      <trkpt lat="45.75827" lon="6.53607">
        <ele>1762</ele>
        <time>2022-07-17T04:03:49Z</time>
      </trkpt>
      <trkpt lat="45.75825" lon="6.5361">
        <ele>1761</ele>
        <time>2022-07-17T04:03:54Z</time>
      </trkpt>
      <trkpt lat="45.75824" lon="6.53614">
        <ele>1761</ele>
        <time>2022-07-17T04:03:56Z</time>
      </trkpt>
      <trkpt lat="45.75823" lon="6.53616">
        <ele>1761</ele>
        <time>2022-07-17T04:03:57Z</time>
      </trkpt>
      <trkpt lat="45.75822" lon="6.53619">
        <ele>1761</ele>
        <time>2022-07-17T04:03:58Z</time>
      </trkpt>
      <trkpt lat="45.75821" lon="6.53623">
        <ele>1760</ele>
        <time>2022-07-17T04:04:04Z</time>
      </trkpt>
      <trkpt lat="45.75819" lon="6.53627">
        <ele>1760</ele>
        <time>2022-07-17T04:04:06Z</time>
      </trkpt>
      <trkpt lat="45.75819" lon="6.53629">
        <ele>1760</ele>
        <time>2022-07-17T04:04:07Z</time>
      </trkpt>
      <trkpt lat="45.75817" lon="6.53634">
        <ele>1760</ele>
        <time>2022-07-17T04:04:09Z</time>
      </trkpt>
      <trkpt lat="45.75816" lon="6.53638">
        <ele>1760</ele>
        <time>2022-07-17T04:04:11Z</time>
      </trkpt>
      <trkpt lat="45.75815" lon="6.53641">
        <ele>1760</ele>
        <time>2022-07-17T04:04:12Z</time>
      </trkpt>
      <trkpt lat="45.75813" lon="6.53645">
        <ele>1759</ele>
        <time>2022-07-17T04:04:14Z</time>
      </trkpt>
      <trkpt lat="45.75811" lon="6.53648">
        <ele>1759</ele>
        <time>2022-07-17T04:04:16Z</time>
      </trkpt>
      <trkpt lat="45.75809" lon="6.53652">
        <ele>1759</ele>
        <time>2022-07-17T04:04:18Z</time>
      </trkpt>
      <trkpt lat="45.75808" lon="6.53656">
        <ele>1759</ele>
        <time>2022-07-17T04:04:20Z</time>
      </trkpt>
      <trkpt lat="45.75807" lon="6.53659">
        <ele>1758</ele>
        <time>2022-07-17T04:04:22Z</time>
      </trkpt>
      <trkpt lat="45.75806" lon="6.53663">
        <ele>1758</ele>
        <time>2022-07-17T04:04:24Z</time>
      </trkpt>
      <trkpt lat="45.75805" lon="6.53666">
        <ele>1758</ele>
        <time>2022-07-17T04:04:26Z</time>
      </trkpt>
      <trkpt lat="45.75803" lon="6.5367">
        <ele>1758</ele>
        <time>2022-07-17T04:04:28Z</time>
      </trkpt>
      <trkpt lat="45.75802" lon="6.53674">
        <ele>1758</ele>
        <time>2022-07-17T04:04:30Z</time>
      </trkpt>
      <trkpt lat="45.758" lon="6.53676">
        <ele>1758</ele>
        <time>2022-07-17T04:04:32Z</time>
      </trkpt>
      <trkpt lat="45.75798" lon="6.53679">
        <ele>1758</ele>
        <time>2022-07-17T04:04:34Z</time>
      </trkpt>
      <trkpt lat="45.75797" lon="6.53681">
        <ele>1757</ele>
        <time>2022-07-17T04:04:36Z</time>
      </trkpt>
      <trkpt lat="45.75795" lon="6.53684">
        <ele>1757</ele>
        <time>2022-07-17T04:04:38Z</time>
      </trkpt>
      <trkpt lat="45.75795" lon="6.53686">
        <ele>1757</ele>
        <time>2022-07-17T04:04:42Z</time>
      </trkpt>
      <trkpt lat="45.75794" lon="6.53691">
        <ele>1756</ele>
        <time>2022-07-17T04:04:46Z</time>
      </trkpt>
      <trkpt lat="45.75794" lon="6.53695">
        <ele>1756</ele>
        <time>2022-07-17T04:04:52Z</time>
      </trkpt>
      <trkpt lat="45.75794" lon="6.53697">
        <ele>1756</ele>
        <time>2022-07-17T04:04:53Z</time>
      </trkpt>
      <trkpt lat="45.75794" lon="6.53698">
        <ele>1756</ele>
        <time>2022-07-17T04:04:54Z</time>
      </trkpt>
      <trkpt lat="45.75794" lon="6.537">
        <ele>1756</ele>
        <time>2022-07-17T04:04:55Z</time>
      </trkpt>
      <trkpt lat="45.75794" lon="6.53701">
        <ele>1756</ele>
        <time>2022-07-17T04:04:56Z</time>
      </trkpt>
      <trkpt lat="45.75794" lon="6.53703">
        <ele>1756</ele>
        <time>2022-07-17T04:04:57Z</time>
      </trkpt>
      <trkpt lat="45.75795" lon="6.53712">
        <ele>1756</ele>
        <time>2022-07-17T04:04:58Z</time>
      </trkpt>
      <trkpt lat="45.75795" lon="6.53714">
        <ele>1755</ele>
        <time>2022-07-17T04:04:59Z</time>
      </trkpt>
      <trkpt lat="45.75795" lon="6.53716">
        <ele>1755</ele>
        <time>2022-07-17T04:05:00Z</time>
      </trkpt>
      <trkpt lat="45.75796" lon="6.53718">
        <ele>1755</ele>
        <time>2022-07-17T04:05:01Z</time>
      </trkpt>
      <trkpt lat="45.75796" lon="6.53719">
        <ele>1755</ele>
        <time>2022-07-17T04:05:02Z</time>
      </trkpt>
      <trkpt lat="45.75796" lon="6.53725">
        <ele>1755</ele>
        <time>2022-07-17T04:05:06Z</time>
      </trkpt>
      <trkpt lat="45.75795" lon="6.53727">
        <ele>1755</ele>
        <time>2022-07-17T04:05:07Z</time>
      </trkpt>
      <trkpt lat="45.75794" lon="6.53731">
        <ele>1755</ele>
        <time>2022-07-17T04:05:10Z</time>
      </trkpt>
      <trkpt lat="45.75794" lon="6.53735">
        <ele>1755</ele>
        <time>2022-07-17T04:05:12Z</time>
      </trkpt>
      <trkpt lat="45.75793" lon="6.53739">
        <ele>1755</ele>
        <time>2022-07-17T04:05:14Z</time>
      </trkpt>
      <trkpt lat="45.75792" lon="6.53744">
        <ele>1755</ele>
        <time>2022-07-17T04:05:16Z</time>
      </trkpt>
      <trkpt lat="45.75791" lon="6.53746">
        <ele>1755</ele>
        <time>2022-07-17T04:05:17Z</time>
      </trkpt>
      <trkpt lat="45.75791" lon="6.53747">
        <ele>1754</ele>
        <time>2022-07-17T04:05:18Z</time>
      </trkpt>
      <trkpt lat="45.75791" lon="6.53748">
        <ele>1754</ele>
        <time>2022-07-17T04:05:20Z</time>
      </trkpt>
      <trkpt lat="45.75791" lon="6.53749">
        <ele>1754</ele>
        <time>2022-07-17T04:05:21Z</time>
      </trkpt>
      <trkpt lat="45.75791" lon="6.5375">
        <ele>1754</ele>
        <time>2022-07-17T04:05:23Z</time>
      </trkpt>
      <trkpt lat="45.75791" lon="6.53751">
        <ele>1754</ele>
        <time>2022-07-17T04:05:24Z</time>
      </trkpt>
      <trkpt lat="45.7579" lon="6.53752">
        <ele>1754</ele>
        <time>2022-07-17T04:05:25Z</time>
      </trkpt>
      <trkpt lat="45.7579" lon="6.53753">
        <ele>1754</ele>
        <time>2022-07-17T04:05:27Z</time>
      </trkpt>
      <trkpt lat="45.7579" lon="6.53754">
        <ele>1754</ele>
        <time>2022-07-17T04:05:28Z</time>
      </trkpt>
      <trkpt lat="45.75789" lon="6.53763">
        <ele>1754</ele>
        <time>2022-07-17T04:05:29Z</time>
      </trkpt>
      <trkpt lat="45.75787" lon="6.53764">
        <ele>1754</ele>
        <time>2022-07-17T04:05:30Z</time>
      </trkpt>
      <trkpt lat="45.75786" lon="6.53765">
        <ele>1754</ele>
        <time>2022-07-17T04:05:31Z</time>
      </trkpt>
      <trkpt lat="45.75785" lon="6.53766">
        <ele>1754</ele>
        <time>2022-07-17T04:05:32Z</time>
      </trkpt>
      <trkpt lat="45.75777" lon="6.53773">
        <ele>1753</ele>
        <time>2022-07-17T04:05:33Z</time>
      </trkpt>
      <trkpt lat="45.75774" lon="6.53776">
        <ele>1753</ele>
        <time>2022-07-17T04:05:34Z</time>
      </trkpt>
      <trkpt lat="45.75773" lon="6.53779">
        <ele>1753</ele>
        <time>2022-07-17T04:05:35Z</time>
      </trkpt>
      <trkpt lat="45.75771" lon="6.53781">
        <ele>1753</ele>
        <time>2022-07-17T04:05:36Z</time>
      </trkpt>
      <trkpt lat="45.7577" lon="6.53784">
        <ele>1753</ele>
        <time>2022-07-17T04:05:37Z</time>
      </trkpt>
      <trkpt lat="45.75769" lon="6.53786">
        <ele>1753</ele>
        <time>2022-07-17T04:05:38Z</time>
      </trkpt>
      <trkpt lat="45.75767" lon="6.5379">
        <ele>1753</ele>
        <time>2022-07-17T04:05:40Z</time>
      </trkpt>
      <trkpt lat="45.75767" lon="6.53793">
        <ele>1752</ele>
        <time>2022-07-17T04:05:43Z</time>
      </trkpt>
      <trkpt lat="45.75767" lon="6.53795">
        <ele>1752</ele>
        <time>2022-07-17T04:05:44Z</time>
      </trkpt>
      <trkpt lat="45.75766" lon="6.53801">
        <ele>1752</ele>
        <time>2022-07-17T04:05:46Z</time>
      </trkpt>
      <trkpt lat="45.75765" lon="6.53805">
        <ele>1751</ele>
        <time>2022-07-17T04:05:48Z</time>
      </trkpt>
      <trkpt lat="45.75763" lon="6.53809">
        <ele>1751</ele>
        <time>2022-07-17T04:05:50Z</time>
      </trkpt>
      <trkpt lat="45.75761" lon="6.53813">
        <ele>1751</ele>
        <time>2022-07-17T04:05:51Z</time>
      </trkpt>
      <trkpt lat="45.75761" lon="6.53814">
        <ele>1751</ele>
        <time>2022-07-17T04:05:52Z</time>
      </trkpt>
      <trkpt lat="45.75759" lon="6.53818">
        <ele>1751</ele>
        <time>2022-07-17T04:05:54Z</time>
      </trkpt>
      <trkpt lat="45.75756" lon="6.5382">
        <ele>1751</ele>
        <time>2022-07-17T04:05:56Z</time>
      </trkpt>
      <trkpt lat="45.75754" lon="6.53819">
        <ele>1751</ele>
        <time>2022-07-17T04:05:57Z</time>
      </trkpt>
      <trkpt lat="45.75752" lon="6.53819">
        <ele>1751</ele>
        <time>2022-07-17T04:05:59Z</time>
      </trkpt>
      <trkpt lat="45.75753" lon="6.53816">
        <ele>1749</ele>
        <time>2022-07-17T04:06:08Z</time>
      </trkpt>
      <trkpt lat="45.75754" lon="6.53811">
        <ele>1749</ele>
        <time>2022-07-17T04:06:10Z</time>
      </trkpt>
      <trkpt lat="45.75754" lon="6.53807">
        <ele>1749</ele>
        <time>2022-07-17T04:06:11Z</time>
      </trkpt>
      <trkpt lat="45.75754" lon="6.53801">
        <ele>1749</ele>
        <time>2022-07-17T04:06:13Z</time>
      </trkpt>
      <trkpt lat="45.75753" lon="6.53798">
        <ele>1749</ele>
        <time>2022-07-17T04:06:14Z</time>
      </trkpt>
      <trkpt lat="45.75753" lon="6.53793">
        <ele>1748</ele>
        <time>2022-07-17T04:06:16Z</time>
      </trkpt>
      <trkpt lat="45.75751" lon="6.53789">
        <ele>1748</ele>
        <time>2022-07-17T04:06:18Z</time>
      </trkpt>
      <trkpt lat="45.7575" lon="6.53785">
        <ele>1747</ele>
        <time>2022-07-17T04:06:22Z</time>
      </trkpt>
      <trkpt lat="45.75749" lon="6.53783">
        <ele>1747</ele>
        <time>2022-07-17T04:06:23Z</time>
      </trkpt>
      <trkpt lat="45.75747" lon="6.53782">
        <ele>1747</ele>
        <time>2022-07-17T04:06:25Z</time>
      </trkpt>
      <trkpt lat="45.75747" lon="6.53785">
        <ele>1745</ele>
        <time>2022-07-17T04:06:28Z</time>
      </trkpt>
      <trkpt lat="45.75746" lon="6.53788">
        <ele>1745</ele>
        <time>2022-07-17T04:06:30Z</time>
      </trkpt>
      <trkpt lat="45.75745" lon="6.53792">
        <ele>1745</ele>
        <time>2022-07-17T04:06:32Z</time>
      </trkpt>
      <trkpt lat="45.75744" lon="6.53796">
        <ele>1744</ele>
        <time>2022-07-17T04:06:34Z</time>
      </trkpt>
      <trkpt lat="45.75744" lon="6.538">
        <ele>1744</ele>
        <time>2022-07-17T04:06:36Z</time>
      </trkpt>
      <trkpt lat="45.75744" lon="6.53804">
        <ele>1745</ele>
        <time>2022-07-17T04:06:38Z</time>
      </trkpt>
      <trkpt lat="45.75743" lon="6.53807">
        <ele>1745</ele>
        <time>2022-07-17T04:06:39Z</time>
      </trkpt>
      <trkpt lat="45.75742" lon="6.5381">
        <ele>1745</ele>
        <time>2022-07-17T04:06:40Z</time>
      </trkpt>
      <trkpt lat="45.75742" lon="6.53813">
        <ele>1745</ele>
        <time>2022-07-17T04:06:41Z</time>
      </trkpt>
      <trkpt lat="45.75741" lon="6.53818">
        <ele>1745</ele>
        <time>2022-07-17T04:06:43Z</time>
      </trkpt>
      <trkpt lat="45.75741" lon="6.53822">
        <ele>1745</ele>
        <time>2022-07-17T04:06:45Z</time>
      </trkpt>
      <trkpt lat="45.7574" lon="6.53826">
        <ele>1745</ele>
        <time>2022-07-17T04:06:47Z</time>
      </trkpt>
      <trkpt lat="45.75737" lon="6.5383">
        <ele>1744</ele>
        <time>2022-07-17T04:06:49Z</time>
      </trkpt>
      <trkpt lat="45.75735" lon="6.53831">
        <ele>1744</ele>
        <time>2022-07-17T04:06:50Z</time>
      </trkpt>
      <trkpt lat="45.75733" lon="6.53834">
        <ele>1744</ele>
        <time>2022-07-17T04:06:52Z</time>
      </trkpt>
      <trkpt lat="45.75732" lon="6.53837">
        <ele>1744</ele>
        <time>2022-07-17T04:06:54Z</time>
      </trkpt>
      <trkpt lat="45.75731" lon="6.53839">
        <ele>1744</ele>
        <time>2022-07-17T04:06:56Z</time>
      </trkpt>
      <trkpt lat="45.7573" lon="6.53843">
        <ele>1744</ele>
        <time>2022-07-17T04:06:59Z</time>
      </trkpt>
      <trkpt lat="45.75729" lon="6.53845">
        <ele>1744</ele>
        <time>2022-07-17T04:07:01Z</time>
      </trkpt>
      <trkpt lat="45.75727" lon="6.53847">
        <ele>1744</ele>
        <time>2022-07-17T04:07:04Z</time>
      </trkpt>
      <trkpt lat="45.75725" lon="6.53846">
        <ele>1744</ele>
        <time>2022-07-17T04:07:08Z</time>
      </trkpt>
      <trkpt lat="45.75724" lon="6.53846">
        <ele>1745</ele>
        <time>2022-07-17T04:07:10Z</time>
      </trkpt>
      <trkpt lat="45.75723" lon="6.53846">
        <ele>1745</ele>
        <time>2022-07-17T04:07:11Z</time>
      </trkpt>
      <trkpt lat="45.75722" lon="6.53846">
        <ele>1745</ele>
        <time>2022-07-17T04:07:12Z</time>
      </trkpt>
      <trkpt lat="45.75721" lon="6.53846">
        <ele>1745</ele>
        <time>2022-07-17T04:07:13Z</time>
      </trkpt>
      <trkpt lat="45.7572" lon="6.53845">
        <ele>1745</ele>
        <time>2022-07-17T04:07:14Z</time>
      </trkpt>
      <trkpt lat="45.75719" lon="6.53845">
        <ele>1745</ele>
        <time>2022-07-17T04:07:15Z</time>
      </trkpt>
      <trkpt lat="45.75718" lon="6.53845">
        <ele>1745</ele>
        <time>2022-07-17T04:07:16Z</time>
      </trkpt>
      <trkpt lat="45.75717" lon="6.53845">
        <ele>1745</ele>
        <time>2022-07-17T04:07:17Z</time>
      </trkpt>
      <trkpt lat="45.75716" lon="6.53845">
        <ele>1745</ele>
        <time>2022-07-17T04:07:18Z</time>
      </trkpt>
      <trkpt lat="45.75716" lon="6.53846">
        <ele>1745</ele>
        <time>2022-07-17T04:07:19Z</time>
      </trkpt>
      <trkpt lat="45.75717" lon="6.53847">
        <ele>1744</ele>
        <time>2022-07-17T04:07:21Z</time>
      </trkpt>
      <trkpt lat="45.75717" lon="6.53848">
        <ele>1744</ele>
        <time>2022-07-17T04:07:22Z</time>
      </trkpt>
      <trkpt lat="45.75717" lon="6.53849">
        <ele>1744</ele>
        <time>2022-07-17T04:07:24Z</time>
      </trkpt>
      <trkpt lat="45.75717" lon="6.5385">
        <ele>1744</ele>
        <time>2022-07-17T04:07:25Z</time>
      </trkpt>
      <trkpt lat="45.75717" lon="6.53851">
        <ele>1745</ele>
        <time>2022-07-17T04:07:26Z</time>
      </trkpt>
      <trkpt lat="45.75717" lon="6.53852">
        <ele>1745</ele>
        <time>2022-07-17T04:07:28Z</time>
      </trkpt>
      <trkpt lat="45.75718" lon="6.53853">
        <ele>1745</ele>
        <time>2022-07-17T04:07:29Z</time>
      </trkpt>
      <trkpt lat="45.75718" lon="6.53854">
        <ele>1745</ele>
        <time>2022-07-17T04:07:31Z</time>
      </trkpt>
      <trkpt lat="45.75718" lon="6.53855">
        <ele>1745</ele>
        <time>2022-07-17T04:07:32Z</time>
      </trkpt>
      <trkpt lat="45.75718" lon="6.53856">
        <ele>1744</ele>
        <time>2022-07-17T04:07:33Z</time>
      </trkpt>
      <trkpt lat="45.75718" lon="6.53857">
        <ele>1745</ele>
        <time>2022-07-17T04:07:35Z</time>
      </trkpt>
      <trkpt lat="45.75718" lon="6.53858">
        <ele>1745</ele>
        <time>2022-07-17T04:07:36Z</time>
      </trkpt>
      <trkpt lat="45.75719" lon="6.53858">
        <ele>1745</ele>
        <time>2022-07-17T04:07:37Z</time>
      </trkpt>
      <trkpt lat="45.75719" lon="6.53859">
        <ele>1745</ele>
        <time>2022-07-17T04:07:38Z</time>
      </trkpt>
      <trkpt lat="45.7572" lon="6.5386">
        <ele>1745</ele>
        <time>2022-07-17T04:07:39Z</time>
      </trkpt>
      <trkpt lat="45.75721" lon="6.53861">
        <ele>1745</ele>
        <time>2022-07-17T04:07:41Z</time>
      </trkpt>
      <trkpt lat="45.75722" lon="6.53862">
        <ele>1745</ele>
        <time>2022-07-17T04:07:43Z</time>
      </trkpt>
      <trkpt lat="45.75722" lon="6.53863">
        <ele>1745</ele>
        <time>2022-07-17T04:07:44Z</time>
      </trkpt>
      <trkpt lat="45.75723" lon="6.53864">
        <ele>1745</ele>
        <time>2022-07-17T04:07:46Z</time>
      </trkpt>
      <trkpt lat="45.75723" lon="6.53865">
        <ele>1745</ele>
        <time>2022-07-17T04:07:47Z</time>
      </trkpt>
      <trkpt lat="45.75724" lon="6.53865">
        <ele>1745</ele>
        <time>2022-07-17T04:07:48Z</time>
      </trkpt>
      <trkpt lat="45.75724" lon="6.53866">
        <ele>1745</ele>
        <time>2022-07-17T04:07:49Z</time>
      </trkpt>
      <trkpt lat="45.75725" lon="6.53866">
        <ele>1745</ele>
        <time>2022-07-17T04:07:50Z</time>
      </trkpt>
      <trkpt lat="45.75725" lon="6.53867">
        <ele>1745</ele>
        <time>2022-07-17T04:07:51Z</time>
      </trkpt>
      <trkpt lat="45.75725" lon="6.53868">
        <ele>1745</ele>
        <time>2022-07-17T04:07:52Z</time>
      </trkpt>
      <trkpt lat="45.75726" lon="6.53868">
        <ele>1745</ele>
        <time>2022-07-17T04:07:53Z</time>
      </trkpt>
      <trkpt lat="45.75726" lon="6.53869">
        <ele>1745</ele>
        <time>2022-07-17T04:07:54Z</time>
      </trkpt>
      <trkpt lat="45.75727" lon="6.5387">
        <ele>1745</ele>
        <time>2022-07-17T04:07:55Z</time>
      </trkpt>
      <trkpt lat="45.75728" lon="6.53871">
        <ele>1745</ele>
        <time>2022-07-17T04:07:57Z</time>
      </trkpt>
      <trkpt lat="45.75729" lon="6.53872">
        <ele>1745</ele>
        <time>2022-07-17T04:07:59Z</time>
      </trkpt>
      <trkpt lat="45.7573" lon="6.53872">
        <ele>1745</ele>
        <time>2022-07-17T04:08:00Z</time>
      </trkpt>
      <trkpt lat="45.75732" lon="6.53872">
        <ele>1744</ele>
        <time>2022-07-17T04:08:01Z</time>
      </trkpt>
      <trkpt lat="45.75734" lon="6.53873">
        <ele>1745</ele>
        <time>2022-07-17T04:08:02Z</time>
      </trkpt>
      <trkpt lat="45.75736" lon="6.53873">
        <ele>1745</ele>
        <time>2022-07-17T04:08:03Z</time>
      </trkpt>
      <trkpt lat="45.75742" lon="6.53874">
        <ele>1745</ele>
        <time>2022-07-17T04:08:04Z</time>
      </trkpt>
      <trkpt lat="45.75741" lon="6.53874">
        <ele>1745</ele>
        <time>2022-07-17T04:08:05Z</time>
      </trkpt>
      <trkpt lat="45.7574" lon="6.53874">
        <ele>1745</ele>
        <time>2022-07-17T04:08:06Z</time>
      </trkpt>
      <trkpt lat="45.75739" lon="6.53874">
        <ele>1745</ele>
        <time>2022-07-17T04:08:07Z</time>
      </trkpt>
      <trkpt lat="45.75738" lon="6.53874">
        <ele>1745</ele>
        <time>2022-07-17T04:08:08Z</time>
      </trkpt>
      <trkpt lat="45.75737" lon="6.53874">
        <ele>1745</ele>
        <time>2022-07-17T04:08:09Z</time>
      </trkpt>
      <trkpt lat="45.75736" lon="6.53874">
        <ele>1745</ele>
        <time>2022-07-17T04:08:10Z</time>
      </trkpt>
      <trkpt lat="45.75735" lon="6.53875">
        <ele>1745</ele>
        <time>2022-07-17T04:08:11Z</time>
      </trkpt>
      <trkpt lat="45.75734" lon="6.53875">
        <ele>1745</ele>
        <time>2022-07-17T04:08:12Z</time>
      </trkpt>
      <trkpt lat="45.75733" lon="6.53875">
        <ele>1745</ele>
        <time>2022-07-17T04:08:13Z</time>
      </trkpt>
      <trkpt lat="45.75731" lon="6.53875">
        <ele>1745</ele>
        <time>2022-07-17T04:08:14Z</time>
      </trkpt>
      <trkpt lat="45.7573" lon="6.53875">
        <ele>1745</ele>
        <time>2022-07-17T04:08:15Z</time>
      </trkpt>
      <trkpt lat="45.75729" lon="6.53875">
        <ele>1745</ele>
        <time>2022-07-17T04:08:16Z</time>
      </trkpt>
      <trkpt lat="45.75728" lon="6.53875">
        <ele>1745</ele>
        <time>2022-07-17T04:08:17Z</time>
      </trkpt>
      <trkpt lat="45.75727" lon="6.53875">
        <ele>1745</ele>
        <time>2022-07-17T04:08:18Z</time>
      </trkpt>
      <trkpt lat="45.75726" lon="6.53876">
        <ele>1745</ele>
        <time>2022-07-17T04:08:19Z</time>
      </trkpt>
      <trkpt lat="45.75725" lon="6.53876">
        <ele>1745</ele>
        <time>2022-07-17T04:08:20Z</time>
      </trkpt>
      <trkpt lat="45.75731" lon="6.53876">
        <ele>1745</ele>
        <time>2022-07-17T04:08:21Z</time>
      </trkpt>
      <trkpt lat="45.75737" lon="6.53876">
        <ele>1745</ele>
        <time>2022-07-17T04:08:22Z</time>
      </trkpt>
      <trkpt lat="45.75744" lon="6.53877">
        <ele>1745</ele>
        <time>2022-07-17T04:08:24Z</time>
      </trkpt>
      <trkpt lat="45.75743" lon="6.53876">
        <ele>1745</ele>
        <time>2022-07-17T04:08:26Z</time>
      </trkpt>
      <trkpt lat="45.75742" lon="6.53875">
        <ele>1745</ele>
        <time>2022-07-17T04:08:27Z</time>
      </trkpt>
      <trkpt lat="45.75741" lon="6.53875">
        <ele>1744</ele>
        <time>2022-07-17T04:08:28Z</time>
      </trkpt>
      <trkpt lat="45.7574" lon="6.53874">
        <ele>1744</ele>
        <time>2022-07-17T04:08:29Z</time>
      </trkpt>
      <trkpt lat="45.75739" lon="6.53873">
        <ele>1745</ele>
        <time>2022-07-17T04:08:30Z</time>
      </trkpt>
      <trkpt lat="45.75738" lon="6.53873">
        <ele>1745</ele>
        <time>2022-07-17T04:08:31Z</time>
      </trkpt>
      <trkpt lat="45.75737" lon="6.53872">
        <ele>1745</ele>
        <time>2022-07-17T04:08:32Z</time>
      </trkpt>
      <trkpt lat="45.7573" lon="6.53864">
        <ele>1745</ele>
        <time>2022-07-17T04:08:33Z</time>
      </trkpt>
      <trkpt lat="45.7573" lon="6.5386">
        <ele>1745</ele>
        <time>2022-07-17T04:08:34Z</time>
      </trkpt>
      <trkpt lat="45.7573" lon="6.53856">
        <ele>1745</ele>
        <time>2022-07-17T04:08:35Z</time>
      </trkpt>
      <trkpt lat="45.75729" lon="6.53853">
        <ele>1745</ele>
        <time>2022-07-17T04:08:36Z</time>
      </trkpt>
      <trkpt lat="45.75728" lon="6.5385">
        <ele>1745</ele>
        <time>2022-07-17T04:08:37Z</time>
      </trkpt>
      <trkpt lat="45.75727" lon="6.53848">
        <ele>1745</ele>
        <time>2022-07-17T04:08:38Z</time>
      </trkpt>
      <trkpt lat="45.75726" lon="6.53846">
        <ele>1745</ele>
        <time>2022-07-17T04:08:39Z</time>
      </trkpt>
      <trkpt lat="45.75725" lon="6.53843">
        <ele>1745</ele>
        <time>2022-07-17T04:08:40Z</time>
      </trkpt>
      <trkpt lat="45.75724" lon="6.53841">
        <ele>1745</ele>
        <time>2022-07-17T04:08:41Z</time>
      </trkpt>
      <trkpt lat="45.75724" lon="6.5384">
        <ele>1745</ele>
        <time>2022-07-17T04:08:42Z</time>
      </trkpt>
      <trkpt lat="45.75724" lon="6.53839">
        <ele>1745</ele>
        <time>2022-07-17T04:08:43Z</time>
      </trkpt>
      <trkpt lat="45.75725" lon="6.53838">
        <ele>1745</ele>
        <time>2022-07-17T04:08:44Z</time>
      </trkpt>
      <trkpt lat="45.75725" lon="6.53837">
        <ele>1745</ele>
        <time>2022-07-17T04:08:46Z</time>
      </trkpt>
      <trkpt lat="45.75725" lon="6.53836">
        <ele>1745</ele>
        <time>2022-07-17T04:08:47Z</time>
      </trkpt>
      <trkpt lat="45.75725" lon="6.53835">
        <ele>1744</ele>
        <time>2022-07-17T04:08:48Z</time>
      </trkpt>
      <trkpt lat="45.75725" lon="6.53834">
        <ele>1744</ele>
        <time>2022-07-17T04:08:49Z</time>
      </trkpt>
      <trkpt lat="45.75725" lon="6.53833">
        <ele>1744</ele>
        <time>2022-07-17T04:08:50Z</time>
      </trkpt>
      <trkpt lat="45.75725" lon="6.53832">
        <ele>1744</ele>
        <time>2022-07-17T04:08:51Z</time>
      </trkpt>
      <trkpt lat="45.75725" lon="6.53831">
        <ele>1744</ele>
        <time>2022-07-17T04:08:52Z</time>
      </trkpt>
      <trkpt lat="45.75725" lon="6.5383">
        <ele>1744</ele>
        <time>2022-07-17T04:08:53Z</time>
      </trkpt>
      <trkpt lat="45.75725" lon="6.53829">
        <ele>1744</ele>
        <time>2022-07-17T04:08:56Z</time>
      </trkpt>
      <trkpt lat="45.75725" lon="6.53828">
        <ele>1744</ele>
        <time>2022-07-17T04:08:59Z</time>
      </trkpt>
      <trkpt lat="45.75725" lon="6.53827">
        <ele>1744</ele>
        <time>2022-07-17T04:09:01Z</time>
      </trkpt>
      <trkpt lat="45.75725" lon="6.53826">
        <ele>1744</ele>
        <time>2022-07-17T04:09:04Z</time>
      </trkpt>
      <trkpt lat="45.75725" lon="6.53825">
        <ele>1744</ele>
        <time>2022-07-17T04:09:07Z</time>
      </trkpt>
      <trkpt lat="45.75725" lon="6.53824">
        <ele>1744</ele>
        <time>2022-07-17T04:09:10Z</time>
      </trkpt>
      <trkpt lat="45.75725" lon="6.53823">
        <ele>1744</ele>
        <time>2022-07-17T04:09:12Z</time>
      </trkpt>
      <trkpt lat="45.75725" lon="6.53822">
        <ele>1744</ele>
        <time>2022-07-17T04:09:15Z</time>
      </trkpt>
      <trkpt lat="45.75725" lon="6.53821">
        <ele>1745</ele>
        <time>2022-07-17T04:09:18Z</time>
      </trkpt>
      <trkpt lat="45.75725" lon="6.5382">
        <ele>1744</ele>
        <time>2022-07-17T04:09:21Z</time>
      </trkpt>
      <trkpt lat="45.75725" lon="6.53819">
        <ele>1744</ele>
        <time>2022-07-17T04:09:23Z</time>
      </trkpt>
      <trkpt lat="45.75725" lon="6.53818">
        <ele>1744</ele>
        <time>2022-07-17T04:09:26Z</time>
      </trkpt>
      <trkpt lat="45.75725" lon="6.53817">
        <ele>1745</ele>
        <time>2022-07-17T04:09:29Z</time>
      </trkpt>
      <trkpt lat="45.75724" lon="6.53818">
        <ele>1745</ele>
        <time>2022-07-17T04:09:33Z</time>
      </trkpt>
      <trkpt lat="45.75723" lon="6.53818">
        <ele>1744</ele>
        <time>2022-07-17T04:09:36Z</time>
      </trkpt>
      <trkpt lat="45.75723" lon="6.53819">
        <ele>1744</ele>
        <time>2022-07-17T04:09:38Z</time>
      </trkpt>
      <trkpt lat="45.75722" lon="6.53819">
        <ele>1744</ele>
        <time>2022-07-17T04:09:40Z</time>
      </trkpt>
      <trkpt lat="45.75721" lon="6.53819">
        <ele>1745</ele>
        <time>2022-07-17T04:09:43Z</time>
      </trkpt>
      <trkpt lat="45.75721" lon="6.5382">
        <ele>1745</ele>
        <time>2022-07-17T04:09:44Z</time>
      </trkpt>
      <trkpt lat="45.7572" lon="6.5382">
        <ele>1745</ele>
        <time>2022-07-17T04:09:46Z</time>
      </trkpt>
      <trkpt lat="45.75715" lon="6.53824">
        <ele>1745</ele>
        <time>2022-07-17T04:09:47Z</time>
      </trkpt>
      <trkpt lat="45.75714" lon="6.53825">
        <ele>1745</ele>
        <time>2022-07-17T04:09:48Z</time>
      </trkpt>
      <trkpt lat="45.75713" lon="6.53827">
        <ele>1745</ele>
        <time>2022-07-17T04:09:49Z</time>
      </trkpt>
      <trkpt lat="45.75712" lon="6.53828">
        <ele>1745</ele>
        <time>2022-07-17T04:09:50Z</time>
      </trkpt>
      <trkpt lat="45.75711" lon="6.5383">
        <ele>1745</ele>
        <time>2022-07-17T04:09:51Z</time>
      </trkpt>
      <trkpt lat="45.7571" lon="6.53831">
        <ele>1745</ele>
        <time>2022-07-17T04:09:52Z</time>
      </trkpt>
      <trkpt lat="45.75709" lon="6.53832">
        <ele>1745</ele>
        <time>2022-07-17T04:09:53Z</time>
      </trkpt>
      <trkpt lat="45.75707" lon="6.53834">
        <ele>1745</ele>
        <time>2022-07-17T04:09:54Z</time>
      </trkpt>
      <trkpt lat="45.75705" lon="6.53836">
        <ele>1745</ele>
        <time>2022-07-17T04:09:55Z</time>
      </trkpt>
      <trkpt lat="45.75703" lon="6.53837">
        <ele>1745</ele>
        <time>2022-07-17T04:09:56Z</time>
      </trkpt>
      <trkpt lat="45.75701" lon="6.53839">
        <ele>1745</ele>
        <time>2022-07-17T04:09:57Z</time>
      </trkpt>
      <trkpt lat="45.757" lon="6.5384">
        <ele>1745</ele>
        <time>2022-07-17T04:09:58Z</time>
      </trkpt>
      <trkpt lat="45.75699" lon="6.5384">
        <ele>1745</ele>
        <time>2022-07-17T04:09:59Z</time>
      </trkpt>
      <trkpt lat="45.75698" lon="6.53841">
        <ele>1745</ele>
        <time>2022-07-17T04:10:01Z</time>
      </trkpt>
      <trkpt lat="45.75697" lon="6.53841">
        <ele>1745</ele>
        <time>2022-07-17T04:10:02Z</time>
      </trkpt>
      <trkpt lat="45.75697" lon="6.53842">
        <ele>1745</ele>
        <time>2022-07-17T04:10:03Z</time>
      </trkpt>
      <trkpt lat="45.75696" lon="6.53842">
        <ele>1745</ele>
        <time>2022-07-17T04:10:04Z</time>
      </trkpt>
      <trkpt lat="45.75695" lon="6.53842">
        <ele>1745</ele>
        <time>2022-07-17T04:10:05Z</time>
      </trkpt>
      <trkpt lat="45.75695" lon="6.53843">
        <ele>1745</ele>
        <time>2022-07-17T04:10:06Z</time>
      </trkpt>
      <trkpt lat="45.75694" lon="6.53843">
        <ele>1745</ele>
        <time>2022-07-17T04:10:07Z</time>
      </trkpt>
      <trkpt lat="45.75693" lon="6.53844">
        <ele>1745</ele>
        <time>2022-07-17T04:10:08Z</time>
      </trkpt>
      <trkpt lat="45.75692" lon="6.53844">
        <ele>1745</ele>
        <time>2022-07-17T04:10:10Z</time>
      </trkpt>
      <trkpt lat="45.75692" lon="6.53845">
        <ele>1744</ele>
        <time>2022-07-17T04:10:16Z</time>
      </trkpt>
      <trkpt lat="45.75693" lon="6.53845">
        <ele>1744</ele>
        <time>2022-07-17T04:10:18Z</time>
      </trkpt>
      <trkpt lat="45.75694" lon="6.53845">
        <ele>1745</ele>
        <time>2022-07-17T04:10:32Z</time>
      </trkpt>
      <trkpt lat="45.75694" lon="6.53845">
        <ele>1745</ele>
        <time>2022-07-17T04:10:34Z</time>
      </trkpt>
      <trkpt lat="45.75695" lon="6.53845">
        <ele>1745</ele>
        <time>2022-07-17T04:10:47Z</time>
      </trkpt>
      <trkpt lat="45.75695" lon="6.53846">
        <ele>1745</ele>
        <time>2022-07-17T04:10:49Z</time>
      </trkpt>
      <trkpt lat="45.75696" lon="6.53846">
        <ele>1745</ele>
        <time>2022-07-17T04:11:01Z</time>
      </trkpt>
      <trkpt lat="45.75696" lon="6.53846">
        <ele>1745</ele>
        <time>2022-07-17T04:11:05Z</time>
      </trkpt>
      <trkpt lat="45.75697" lon="6.53846">
        <ele>1744</ele>
        <time>2022-07-17T04:11:16Z</time>
      </trkpt>
      <trkpt lat="45.75697" lon="6.53847">
        <ele>1744</ele>
        <time>2022-07-17T04:11:22Z</time>
      </trkpt>
      <trkpt lat="45.75701" lon="6.53848">
        <ele>1744</ele>
        <time>2022-07-17T04:11:24Z</time>
      </trkpt>
      <trkpt lat="45.757" lon="6.53848">
        <ele>1744</ele>
        <time>2022-07-17T04:11:25Z</time>
      </trkpt>
      <trkpt lat="45.75699" lon="6.53848">
        <ele>1744</ele>
        <time>2022-07-17T04:11:26Z</time>
      </trkpt>
      <trkpt lat="45.75698" lon="6.53848">
        <ele>1744</ele>
        <time>2022-07-17T04:11:27Z</time>
      </trkpt>
      <trkpt lat="45.75697" lon="6.53847">
        <ele>1744</ele>
        <time>2022-07-17T04:11:28Z</time>
      </trkpt>
      <trkpt lat="45.75696" lon="6.53847">
        <ele>1744</ele>
        <time>2022-07-17T04:11:29Z</time>
      </trkpt>
      <trkpt lat="45.75695" lon="6.53847">
        <ele>1744</ele>
        <time>2022-07-17T04:11:30Z</time>
      </trkpt>
      <trkpt lat="45.75694" lon="6.53847">
        <ele>1744</ele>
        <time>2022-07-17T04:11:31Z</time>
      </trkpt>
      <trkpt lat="45.75693" lon="6.53846">
        <ele>1744</ele>
        <time>2022-07-17T04:11:32Z</time>
      </trkpt>
      <trkpt lat="45.75692" lon="6.53846">
        <ele>1744</ele>
        <time>2022-07-17T04:11:33Z</time>
      </trkpt>
      <trkpt lat="45.75693" lon="6.53846">
        <ele>1744</ele>
        <time>2022-07-17T04:11:36Z</time>
      </trkpt>
      <trkpt lat="45.75694" lon="6.53846">
        <ele>1744</ele>
        <time>2022-07-17T04:11:48Z</time>
      </trkpt>
      <trkpt lat="45.75694" lon="6.53846">
        <ele>1744</ele>
        <time>2022-07-17T04:11:51Z</time>
      </trkpt>
      <trkpt lat="45.75695" lon="6.53846">
        <ele>1744</ele>
        <time>2022-07-17T04:12:00Z</time>
      </trkpt>
      <trkpt lat="45.75695" lon="6.53846">
        <ele>1744</ele>
        <time>2022-07-17T04:12:08Z</time>
      </trkpt>
      <trkpt lat="45.75696" lon="6.53846">
        <ele>1744</ele>
        <time>2022-07-17T04:12:11Z</time>
      </trkpt>
      <trkpt lat="45.75697" lon="6.53846">
        <ele>1745</ele>
        <time>2022-07-17T04:12:23Z</time>
      </trkpt>
      <trkpt lat="45.75697" lon="6.53846">
        <ele>1745</ele>
        <time>2022-07-17T04:12:26Z</time>
      </trkpt>
      <trkpt lat="45.75698" lon="6.53846">
        <ele>1745</ele>
        <time>2022-07-17T04:12:35Z</time>
      </trkpt>
      <trkpt lat="45.75704" lon="6.53845">
        <ele>1744</ele>
        <time>2022-07-17T04:12:37Z</time>
      </trkpt>
      <trkpt lat="45.75705" lon="6.53845">
        <ele>1744</ele>
        <time>2022-07-17T04:12:38Z</time>
      </trkpt>
      <trkpt lat="45.75706" lon="6.53845">
        <ele>1744</ele>
        <time>2022-07-17T04:12:39Z</time>
      </trkpt>
      <trkpt lat="45.75707" lon="6.53845">
        <ele>1744</ele>
        <time>2022-07-17T04:12:40Z</time>
      </trkpt>
      <trkpt lat="45.75708" lon="6.53845">
        <ele>1744</ele>
        <time>2022-07-17T04:12:41Z</time>
      </trkpt>
      <trkpt lat="45.75709" lon="6.53845">
        <ele>1744</ele>
        <time>2022-07-17T04:12:42Z</time>
      </trkpt>
      <trkpt lat="45.7571" lon="6.53845">
        <ele>1744</ele>
        <time>2022-07-17T04:12:43Z</time>
      </trkpt>
      <trkpt lat="45.75711" lon="6.53845">
        <ele>1744</ele>
        <time>2022-07-17T04:12:44Z</time>
      </trkpt>
      <trkpt lat="45.75712" lon="6.53845">
        <ele>1744</ele>
        <time>2022-07-17T04:12:45Z</time>
      </trkpt>
      <trkpt lat="45.75713" lon="6.53845">
        <ele>1744</ele>
        <time>2022-07-17T04:12:46Z</time>
      </trkpt>
      <trkpt lat="45.75713" lon="6.53846">
        <ele>1744</ele>
        <time>2022-07-17T04:12:47Z</time>
      </trkpt>
      <trkpt lat="45.75714" lon="6.53847">
        <ele>1744</ele>
        <time>2022-07-17T04:12:48Z</time>
      </trkpt>
      <trkpt lat="45.75714" lon="6.53848">
        <ele>1744</ele>
        <time>2022-07-17T04:12:49Z</time>
      </trkpt>
      <trkpt lat="45.75715" lon="6.53849">
        <ele>1744</ele>
        <time>2022-07-17T04:12:50Z</time>
      </trkpt>
      <trkpt lat="45.75715" lon="6.5385">
        <ele>1744</ele>
        <time>2022-07-17T04:12:51Z</time>
      </trkpt>
      <trkpt lat="45.75716" lon="6.5385">
        <ele>1744</ele>
        <time>2022-07-17T04:12:52Z</time>
      </trkpt>
      <trkpt lat="45.75716" lon="6.53851">
        <ele>1744</ele>
        <time>2022-07-17T04:12:53Z</time>
      </trkpt>
      <trkpt lat="45.75717" lon="6.53852">
        <ele>1744</ele>
        <time>2022-07-17T04:12:54Z</time>
      </trkpt>
      <trkpt lat="45.75717" lon="6.53853">
        <ele>1744</ele>
        <time>2022-07-17T04:12:55Z</time>
      </trkpt>
      <trkpt lat="45.75718" lon="6.53854">
        <ele>1744</ele>
        <time>2022-07-17T04:12:56Z</time>
      </trkpt>
      <trkpt lat="45.75718" lon="6.53855">
        <ele>1744</ele>
        <time>2022-07-17T04:12:57Z</time>
      </trkpt>
      <trkpt lat="45.75719" lon="6.53856">
        <ele>1744</ele>
        <time>2022-07-17T04:12:58Z</time>
      </trkpt>
      <trkpt lat="45.75719" lon="6.53856">
        <ele>1745</ele>
        <time>2022-07-17T04:13:14Z</time>
      </trkpt>
      <trkpt lat="45.75724" lon="6.5386">
        <ele>1745</ele>
        <time>2022-07-17T04:13:27Z</time>
      </trkpt>
      <trkpt lat="45.75729" lon="6.53865">
        <ele>1745</ele>
        <time>2022-07-17T04:13:28Z</time>
      </trkpt>
      <trkpt lat="45.75735" lon="6.5387">
        <ele>1745</ele>
        <time>2022-07-17T04:13:29Z</time>
      </trkpt>
      <trkpt lat="45.75734" lon="6.53869">
        <ele>1745</ele>
        <time>2022-07-17T04:13:30Z</time>
      </trkpt>
      <trkpt lat="45.75733" lon="6.53868">
        <ele>1745</ele>
        <time>2022-07-17T04:13:31Z</time>
      </trkpt>
      <trkpt lat="45.75732" lon="6.53867">
        <ele>1745</ele>
        <time>2022-07-17T04:13:32Z</time>
      </trkpt>
      <trkpt lat="45.75731" lon="6.53867">
        <ele>1745</ele>
        <time>2022-07-17T04:13:33Z</time>
      </trkpt>
      <trkpt lat="45.75731" lon="6.53866">
        <ele>1745</ele>
        <time>2022-07-17T04:13:34Z</time>
      </trkpt>
      <trkpt lat="45.7573" lon="6.53865">
        <ele>1745</ele>
        <time>2022-07-17T04:13:35Z</time>
      </trkpt>
      <trkpt lat="45.75723" lon="6.53859">
        <ele>1745</ele>
        <time>2022-07-17T04:13:36Z</time>
      </trkpt>
      <trkpt lat="45.75722" lon="6.53857">
        <ele>1745</ele>
        <time>2022-07-17T04:13:37Z</time>
      </trkpt>
      <trkpt lat="45.7572" lon="6.53855">
        <ele>1745</ele>
        <time>2022-07-17T04:13:38Z</time>
      </trkpt>
      <trkpt lat="45.75713" lon="6.53848">
        <ele>1745</ele>
        <time>2022-07-17T04:13:39Z</time>
      </trkpt>
      <trkpt lat="45.7571" lon="6.53847">
        <ele>1745</ele>
        <time>2022-07-17T04:13:40Z</time>
      </trkpt>
      <trkpt lat="45.75707" lon="6.53846">
        <ele>1745</ele>
        <time>2022-07-17T04:13:41Z</time>
      </trkpt>
      <trkpt lat="45.75707" lon="6.53845">
        <ele>1745</ele>
        <time>2022-07-17T04:13:44Z</time>
      </trkpt>
      <trkpt lat="45.75708" lon="6.53845">
        <ele>1745</ele>
        <time>2022-07-17T04:13:46Z</time>
      </trkpt>
      <trkpt lat="45.75708" lon="6.53844">
        <ele>1746</ele>
        <time>2022-07-17T04:13:47Z</time>
      </trkpt>
      <trkpt lat="45.75709" lon="6.53843">
        <ele>1746</ele>
        <time>2022-07-17T04:13:50Z</time>
      </trkpt>
      <trkpt lat="45.75709" lon="6.53842">
        <ele>1746</ele>
        <time>2022-07-17T04:13:54Z</time>
      </trkpt>
      <trkpt lat="45.7571" lon="6.53842">
        <ele>1746</ele>
        <time>2022-07-17T04:13:55Z</time>
      </trkpt>
      <trkpt lat="45.7571" lon="6.53841">
        <ele>1746</ele>
        <time>2022-07-17T04:13:57Z</time>
      </trkpt>
      <trkpt lat="45.75711" lon="6.5384">
        <ele>1746</ele>
        <time>2022-07-17T04:14:00Z</time>
      </trkpt>
      <trkpt lat="45.75711" lon="6.53839">
        <ele>1746</ele>
        <time>2022-07-17T04:14:03Z</time>
      </trkpt>
      <trkpt lat="45.75712" lon="6.53839">
        <ele>1746</ele>
        <time>2022-07-17T04:14:04Z</time>
      </trkpt>
      <trkpt lat="45.75712" lon="6.53838">
        <ele>1746</ele>
        <time>2022-07-17T04:14:07Z</time>
      </trkpt>
      <trkpt lat="45.75713" lon="6.53838">
        <ele>1746</ele>
        <time>2022-07-17T04:14:09Z</time>
      </trkpt>
      <trkpt lat="45.75713" lon="6.53837">
        <ele>1746</ele>
        <time>2022-07-17T04:14:10Z</time>
      </trkpt>
      <trkpt lat="45.75713" lon="6.53836">
        <ele>1746</ele>
        <time>2022-07-17T04:14:13Z</time>
      </trkpt>
      <trkpt lat="45.75712" lon="6.53836">
        <ele>1746</ele>
        <time>2022-07-17T04:14:17Z</time>
      </trkpt>
      <trkpt lat="45.75711" lon="6.53836">
        <ele>1746</ele>
        <time>2022-07-17T04:14:22Z</time>
      </trkpt>
      <trkpt lat="45.7571" lon="6.53836">
        <ele>1746</ele>
        <time>2022-07-17T04:14:26Z</time>
      </trkpt>
      <trkpt lat="45.75709" lon="6.53836">
        <ele>1746</ele>
        <time>2022-07-17T04:14:30Z</time>
      </trkpt>
      <trkpt lat="45.75708" lon="6.53836">
        <ele>1746</ele>
        <time>2022-07-17T04:14:34Z</time>
      </trkpt>
      <trkpt lat="45.75707" lon="6.53836">
        <ele>1745</ele>
        <time>2022-07-17T04:14:38Z</time>
      </trkpt>
      <trkpt lat="45.75706" lon="6.53836">
        <ele>1745</ele>
        <time>2022-07-17T04:14:42Z</time>
      </trkpt>
      <trkpt lat="45.75705" lon="6.53836">
        <ele>1746</ele>
        <time>2022-07-17T04:14:46Z</time>
      </trkpt>
      <trkpt lat="45.75704" lon="6.53836">
        <ele>1746</ele>
        <time>2022-07-17T04:14:50Z</time>
      </trkpt>
      <trkpt lat="45.75703" lon="6.53836">
        <ele>1746</ele>
        <time>2022-07-17T04:14:58Z</time>
      </trkpt>
      <trkpt lat="45.75703" lon="6.53837">
        <ele>1746</ele>
        <time>2022-07-17T04:15:00Z</time>
      </trkpt>
      <trkpt lat="45.75702" lon="6.53837">
        <ele>1746</ele>
        <time>2022-07-17T04:15:05Z</time>
      </trkpt>
      <trkpt lat="45.75702" lon="6.53838">
        <ele>1746</ele>
        <time>2022-07-17T04:15:10Z</time>
      </trkpt>
      <trkpt lat="45.75701" lon="6.53838">
        <ele>1746</ele>
        <time>2022-07-17T04:15:12Z</time>
      </trkpt>
      <trkpt lat="45.757" lon="6.53839">
        <ele>1746</ele>
        <time>2022-07-17T04:15:20Z</time>
      </trkpt>
      <trkpt lat="45.75699" lon="6.53839">
        <ele>1746</ele>
        <time>2022-07-17T04:15:27Z</time>
      </trkpt>
      <trkpt lat="45.75699" lon="6.5384">
        <ele>1746</ele>
        <time>2022-07-17T04:15:30Z</time>
      </trkpt>
      <trkpt lat="45.75698" lon="6.5384">
        <ele>1745</ele>
        <time>2022-07-17T04:15:35Z</time>
      </trkpt>
      <trkpt lat="45.75698" lon="6.53841">
        <ele>1745</ele>
        <time>2022-07-17T04:15:39Z</time>
      </trkpt>
      <trkpt lat="45.75697" lon="6.53841">
        <ele>1746</ele>
        <time>2022-07-17T04:15:42Z</time>
      </trkpt>
      <trkpt lat="45.75696" lon="6.53842">
        <ele>1746</ele>
        <time>2022-07-17T04:15:49Z</time>
      </trkpt>
      <trkpt lat="45.75696" lon="6.53842">
        <ele>1746</ele>
        <time>2022-07-17T04:15:54Z</time>
      </trkpt>
      <trkpt lat="45.75695" lon="6.53842">
        <ele>1746</ele>
        <time>2022-07-17T04:15:57Z</time>
      </trkpt>
      <trkpt lat="45.75695" lon="6.53843">
        <ele>1746</ele>
        <time>2022-07-17T04:15:58Z</time>
      </trkpt>
      <trkpt lat="45.75694" lon="6.53844">
        <ele>1746</ele>
        <time>2022-07-17T04:15:59Z</time>
      </trkpt>
      <trkpt lat="45.75694" lon="6.53845">
        <ele>1746</ele>
        <time>2022-07-17T04:16:00Z</time>
      </trkpt>
      <trkpt lat="45.75693" lon="6.53847">
        <ele>1746</ele>
        <time>2022-07-17T04:16:01Z</time>
      </trkpt>
      <trkpt lat="45.75693" lon="6.53848">
        <ele>1746</ele>
        <time>2022-07-17T04:16:02Z</time>
      </trkpt>
      <trkpt lat="45.75692" lon="6.53849">
        <ele>1746</ele>
        <time>2022-07-17T04:16:03Z</time>
      </trkpt>
      <trkpt lat="45.75692" lon="6.5385">
        <ele>1746</ele>
        <time>2022-07-17T04:16:04Z</time>
      </trkpt>
      <trkpt lat="45.75691" lon="6.53851">
        <ele>1746</ele>
        <time>2022-07-17T04:16:05Z</time>
      </trkpt>
      <trkpt lat="45.75691" lon="6.53852">
        <ele>1746</ele>
        <time>2022-07-17T04:16:06Z</time>
      </trkpt>
      <trkpt lat="45.7569" lon="6.53853">
        <ele>1746</ele>
        <time>2022-07-17T04:16:07Z</time>
      </trkpt>
      <trkpt lat="45.7569" lon="6.53854">
        <ele>1746</ele>
        <time>2022-07-17T04:16:08Z</time>
      </trkpt>
      <trkpt lat="45.75691" lon="6.53853">
        <ele>1746</ele>
        <time>2022-07-17T04:16:11Z</time>
      </trkpt>
      <trkpt lat="45.75692" lon="6.53853">
        <ele>1746</ele>
        <time>2022-07-17T04:16:14Z</time>
      </trkpt>
      <trkpt lat="45.75693" lon="6.53852">
        <ele>1746</ele>
        <time>2022-07-17T04:16:17Z</time>
      </trkpt>
      <trkpt lat="45.75694" lon="6.53852">
        <ele>1746</ele>
        <time>2022-07-17T04:16:21Z</time>
      </trkpt>
      <trkpt lat="45.75694" lon="6.53851">
        <ele>1746</ele>
        <time>2022-07-17T04:16:23Z</time>
      </trkpt>
      <trkpt lat="45.75695" lon="6.53851">
        <ele>1746</ele>
        <time>2022-07-17T04:16:24Z</time>
      </trkpt>
      <trkpt lat="45.75702" lon="6.53848">
        <ele>1746</ele>
        <time>2022-07-17T04:16:26Z</time>
      </trkpt>
      <trkpt lat="45.75703" lon="6.53848">
        <ele>1746</ele>
        <time>2022-07-17T04:16:27Z</time>
      </trkpt>
      <trkpt lat="45.75705" lon="6.53848">
        <ele>1746</ele>
        <time>2022-07-17T04:16:28Z</time>
      </trkpt>
      <trkpt lat="45.75706" lon="6.53848">
        <ele>1746</ele>
        <time>2022-07-17T04:16:29Z</time>
      </trkpt>
      <trkpt lat="45.75708" lon="6.53847">
        <ele>1746</ele>
        <time>2022-07-17T04:16:30Z</time>
      </trkpt>
      <trkpt lat="45.7571" lon="6.53847">
        <ele>1746</ele>
        <time>2022-07-17T04:16:31Z</time>
      </trkpt>
      <trkpt lat="45.75709" lon="6.53848">
        <ele>1746</ele>
        <time>2022-07-17T04:16:32Z</time>
      </trkpt>
      <trkpt lat="45.75709" lon="6.53849">
        <ele>1746</ele>
        <time>2022-07-17T04:16:33Z</time>
      </trkpt>
      <trkpt lat="45.75708" lon="6.5385">
        <ele>1746</ele>
        <time>2022-07-17T04:16:35Z</time>
      </trkpt>
      <trkpt lat="45.75708" lon="6.53851">
        <ele>1746</ele>
        <time>2022-07-17T04:16:37Z</time>
      </trkpt>
      <trkpt lat="45.75708" lon="6.53852">
        <ele>1746</ele>
        <time>2022-07-17T04:16:38Z</time>
      </trkpt>
      <trkpt lat="45.75707" lon="6.53852">
        <ele>1746</ele>
        <time>2022-07-17T04:16:39Z</time>
      </trkpt>
      <trkpt lat="45.75707" lon="6.53853">
        <ele>1746</ele>
        <time>2022-07-17T04:16:40Z</time>
      </trkpt>
      <trkpt lat="45.75707" lon="6.53854">
        <ele>1746</ele>
        <time>2022-07-17T04:16:41Z</time>
      </trkpt>
      <trkpt lat="45.75706" lon="6.53854">
        <ele>1746</ele>
        <time>2022-07-17T04:16:42Z</time>
      </trkpt>
      <trkpt lat="45.75706" lon="6.53855">
        <ele>1746</ele>
        <time>2022-07-17T04:16:43Z</time>
      </trkpt>
      <trkpt lat="45.75706" lon="6.53856">
        <ele>1746</ele>
        <time>2022-07-17T04:16:44Z</time>
      </trkpt>
      <trkpt lat="45.75705" lon="6.53857">
        <ele>1746</ele>
        <time>2022-07-17T04:16:46Z</time>
      </trkpt>
      <trkpt lat="45.75705" lon="6.53858">
        <ele>1746</ele>
        <time>2022-07-17T04:16:47Z</time>
      </trkpt>
      <trkpt lat="45.75705" lon="6.53859">
        <ele>1746</ele>
        <time>2022-07-17T04:16:49Z</time>
      </trkpt>
      <trkpt lat="45.75704" lon="6.53859">
        <ele>1746</ele>
        <time>2022-07-17T04:16:50Z</time>
      </trkpt>
      <trkpt lat="45.75704" lon="6.53859">
        <ele>1746</ele>
        <time>2022-07-17T04:17:06Z</time>
      </trkpt>
      <trkpt lat="45.75713" lon="6.53853">
        <ele>1746</ele>
        <time>2022-07-17T04:17:14Z</time>
      </trkpt>
      <trkpt lat="45.75712" lon="6.53853">
        <ele>1746</ele>
        <time>2022-07-17T04:17:18Z</time>
      </trkpt>
      <trkpt lat="45.75711" lon="6.53853">
        <ele>1746</ele>
        <time>2022-07-17T04:17:22Z</time>
      </trkpt>
      <trkpt lat="45.75711" lon="6.53852">
        <ele>1746</ele>
        <time>2022-07-17T04:17:24Z</time>
      </trkpt>
      <trkpt lat="45.7571" lon="6.53852">
        <ele>1746</ele>
        <time>2022-07-17T04:17:26Z</time>
      </trkpt>
      <trkpt lat="45.75709" lon="6.53852">
        <ele>1746</ele>
        <time>2022-07-17T04:17:30Z</time>
      </trkpt>
      <trkpt lat="45.75708" lon="6.53852">
        <ele>1746</ele>
        <time>2022-07-17T04:17:34Z</time>
      </trkpt>
      <trkpt lat="45.75707" lon="6.53852">
        <ele>1746</ele>
        <time>2022-07-17T04:17:38Z</time>
      </trkpt>
      <trkpt lat="45.75706" lon="6.53852">
        <ele>1745</ele>
        <time>2022-07-17T04:17:42Z</time>
      </trkpt>
      <trkpt lat="45.75705" lon="6.53852">
        <ele>1745</ele>
        <time>2022-07-17T04:17:46Z</time>
      </trkpt>
      <trkpt lat="45.75704" lon="6.53852">
        <ele>1745</ele>
        <time>2022-07-17T04:17:49Z</time>
      </trkpt>
      <trkpt lat="45.75704" lon="6.53851">
        <ele>1746</ele>
        <time>2022-07-17T04:17:52Z</time>
      </trkpt>
      <trkpt lat="45.75702" lon="6.53852">
        <ele>1746</ele>
        <time>2022-07-17T04:17:53Z</time>
      </trkpt>
      <trkpt lat="45.75701" lon="6.53852">
        <ele>1746</ele>
        <time>2022-07-17T04:17:54Z</time>
      </trkpt>
      <trkpt lat="45.757" lon="6.53853">
        <ele>1746</ele>
        <time>2022-07-17T04:17:55Z</time>
      </trkpt>
      <trkpt lat="45.75698" lon="6.53853">
        <ele>1746</ele>
        <time>2022-07-17T04:17:56Z</time>
      </trkpt>
      <trkpt lat="45.75697" lon="6.53853">
        <ele>1746</ele>
        <time>2022-07-17T04:17:57Z</time>
      </trkpt>
      <trkpt lat="45.75696" lon="6.53854">
        <ele>1746</ele>
        <time>2022-07-17T04:17:58Z</time>
      </trkpt>
      <trkpt lat="45.75694" lon="6.53854">
        <ele>1746</ele>
        <time>2022-07-17T04:17:59Z</time>
      </trkpt>
      <trkpt lat="45.75695" lon="6.53854">
        <ele>1746</ele>
        <time>2022-07-17T04:18:00Z</time>
      </trkpt>
      <trkpt lat="45.75695" lon="6.53855">
        <ele>1746</ele>
        <time>2022-07-17T04:18:01Z</time>
      </trkpt>
      <trkpt lat="45.75695" lon="6.53856">
        <ele>1746</ele>
        <time>2022-07-17T04:18:04Z</time>
      </trkpt>
      <trkpt lat="45.75696" lon="6.53856">
        <ele>1746</ele>
        <time>2022-07-17T04:18:05Z</time>
      </trkpt>
      <trkpt lat="45.75696" lon="6.53857">
        <ele>1746</ele>
        <time>2022-07-17T04:18:06Z</time>
      </trkpt>
      <trkpt lat="45.75696" lon="6.53858">
        <ele>1746</ele>
        <time>2022-07-17T04:18:09Z</time>
      </trkpt>
      <trkpt lat="45.75697" lon="6.53858">
        <ele>1745</ele>
        <time>2022-07-17T04:18:10Z</time>
      </trkpt>
      <trkpt lat="45.75697" lon="6.53859">
        <ele>1746</ele>
        <time>2022-07-17T04:18:12Z</time>
      </trkpt>
      <trkpt lat="45.75697" lon="6.5386">
        <ele>1747</ele>
        <time>2022-07-17T04:18:14Z</time>
      </trkpt>
      <trkpt lat="45.75698" lon="6.5386">
        <ele>1747</ele>
        <time>2022-07-17T04:18:15Z</time>
      </trkpt>
      <trkpt lat="45.75698" lon="6.53861">
        <ele>1746</ele>
        <time>2022-07-17T04:18:17Z</time>
      </trkpt>
      <trkpt lat="45.75699" lon="6.53862">
        <ele>1746</ele>
        <time>2022-07-17T04:18:20Z</time>
      </trkpt>
      <trkpt lat="45.75699" lon="6.53863">
        <ele>1746</ele>
        <time>2022-07-17T04:18:22Z</time>
      </trkpt>
      <trkpt lat="45.757" lon="6.53864">
        <ele>1746</ele>
        <time>2022-07-17T04:18:25Z</time>
      </trkpt>
      <trkpt lat="45.757" lon="6.53865">
        <ele>1745</ele>
        <time>2022-07-17T04:18:28Z</time>
      </trkpt>
      <trkpt lat="45.757" lon="6.53866">
        <ele>1745</ele>
        <time>2022-07-17T04:18:29Z</time>
      </trkpt>
      <trkpt lat="45.757" lon="6.53867">
        <ele>1745</ele>
        <time>2022-07-17T04:18:30Z</time>
      </trkpt>
      <trkpt lat="45.757" lon="6.53868">
        <ele>1745</ele>
        <time>2022-07-17T04:18:31Z</time>
      </trkpt>
      <trkpt lat="45.757" lon="6.53869">
        <ele>1745</ele>
        <time>2022-07-17T04:18:32Z</time>
      </trkpt>
      <trkpt lat="45.757" lon="6.5387">
        <ele>1745</ele>
        <time>2022-07-17T04:18:34Z</time>
      </trkpt>
      <trkpt lat="45.757" lon="6.53871">
        <ele>1745</ele>
        <time>2022-07-17T04:18:35Z</time>
      </trkpt>
      <trkpt lat="45.757" lon="6.53872">
        <ele>1745</ele>
        <time>2022-07-17T04:18:36Z</time>
      </trkpt>
      <trkpt lat="45.757" lon="6.53873">
        <ele>1745</ele>
        <time>2022-07-17T04:18:37Z</time>
      </trkpt>
      <trkpt lat="45.757" lon="6.53874">
        <ele>1745</ele>
        <time>2022-07-17T04:18:38Z</time>
      </trkpt>
      <trkpt lat="45.757" lon="6.53875">
        <ele>1745</ele>
        <time>2022-07-17T04:18:39Z</time>
      </trkpt>
      <trkpt lat="45.75699" lon="6.53875">
        <ele>1745</ele>
        <time>2022-07-17T04:18:40Z</time>
      </trkpt>
      <trkpt lat="45.75699" lon="6.53876">
        <ele>1745</ele>
        <time>2022-07-17T04:18:41Z</time>
      </trkpt>
      <trkpt lat="45.75701" lon="6.53878">
        <ele>1745</ele>
        <time>2022-07-17T04:18:42Z</time>
      </trkpt>
      <trkpt lat="45.75701" lon="6.53874">
        <ele>1745</ele>
        <time>2022-07-17T04:18:49Z</time>
      </trkpt>
      <trkpt lat="45.75701" lon="6.53872">
        <ele>1744</ele>
        <time>2022-07-17T04:18:51Z</time>
      </trkpt>
      <trkpt lat="45.757" lon="6.53869">
        <ele>1744</ele>
        <time>2022-07-17T04:18:53Z</time>
      </trkpt>
      <trkpt lat="45.757" lon="6.53865">
        <ele>1744</ele>
        <time>2022-07-17T04:18:55Z</time>
      </trkpt>
      <trkpt lat="45.75699" lon="6.53862">
        <ele>1743</ele>
        <time>2022-07-17T04:18:57Z</time>
      </trkpt>
      <trkpt lat="45.75699" lon="6.53859">
        <ele>1743</ele>
        <time>2022-07-17T04:18:59Z</time>
      </trkpt>
      <trkpt lat="45.75698" lon="6.53856">
        <ele>1743</ele>
        <time>2022-07-17T04:19:01Z</time>
      </trkpt>
      <trkpt lat="45.75697" lon="6.53854">
        <ele>1743</ele>
        <time>2022-07-17T04:19:03Z</time>
      </trkpt>
      <trkpt lat="45.75696" lon="6.5385">
        <ele>1743</ele>
        <time>2022-07-17T04:19:06Z</time>
      </trkpt>
      <trkpt lat="45.75695" lon="6.53846">
        <ele>1742</ele>
        <time>2022-07-17T04:19:08Z</time>
      </trkpt>
      <trkpt lat="45.75694" lon="6.53844">
        <ele>1742</ele>
        <time>2022-07-17T04:19:09Z</time>
      </trkpt>
      <trkpt lat="45.75692" lon="6.53842">
        <ele>1742</ele>
        <time>2022-07-17T04:19:11Z</time>
      </trkpt>
      <trkpt lat="45.75691" lon="6.5384">
        <ele>1742</ele>
        <time>2022-07-17T04:19:13Z</time>
      </trkpt>
      <trkpt lat="45.75689" lon="6.53838">
        <ele>1742</ele>
        <time>2022-07-17T04:19:15Z</time>
      </trkpt>
      <trkpt lat="45.75688" lon="6.53835">
        <ele>1742</ele>
        <time>2022-07-17T04:19:17Z</time>
      </trkpt>
      <trkpt lat="45.75686" lon="6.53832">
        <ele>1741</ele>
        <time>2022-07-17T04:19:19Z</time>
      </trkpt>
      <trkpt lat="45.75684" lon="6.53829">
        <ele>1741</ele>
        <time>2022-07-17T04:19:21Z</time>
      </trkpt>
      <trkpt lat="45.75683" lon="6.53826">
        <ele>1741</ele>
        <time>2022-07-17T04:19:26Z</time>
      </trkpt>
      <trkpt lat="45.75682" lon="6.53823">
        <ele>1740</ele>
        <time>2022-07-17T04:19:28Z</time>
      </trkpt>
      <trkpt lat="45.75679" lon="6.53817">
        <ele>1740</ele>
        <time>2022-07-17T04:19:31Z</time>
      </trkpt>
      <trkpt lat="45.75678" lon="6.53814">
        <ele>1739</ele>
        <time>2022-07-17T04:19:33Z</time>
      </trkpt>
      <trkpt lat="45.75677" lon="6.53811">
        <ele>1739</ele>
        <time>2022-07-17T04:19:35Z</time>
      </trkpt>
      <trkpt lat="45.75676" lon="6.53809">
        <ele>1739</ele>
        <time>2022-07-17T04:19:37Z</time>
      </trkpt>
      <trkpt lat="45.75675" lon="6.53806">
        <ele>1739</ele>
        <time>2022-07-17T04:19:39Z</time>
      </trkpt>
      <trkpt lat="45.75674" lon="6.53803">
        <ele>1739</ele>
        <time>2022-07-17T04:19:41Z</time>
      </trkpt>
      <trkpt lat="45.75673" lon="6.53799">
        <ele>1738</ele>
        <time>2022-07-17T04:19:43Z</time>
      </trkpt>
      <trkpt lat="45.75673" lon="6.53796">
        <ele>1738</ele>
        <time>2022-07-17T04:19:45Z</time>
      </trkpt>
      <trkpt lat="45.75672" lon="6.53792">
        <ele>1738</ele>
        <time>2022-07-17T04:19:47Z</time>
      </trkpt>
      <trkpt lat="45.75671" lon="6.53789">
        <ele>1738</ele>
        <time>2022-07-17T04:19:50Z</time>
      </trkpt>
      <trkpt lat="45.75671" lon="6.53786">
        <ele>1738</ele>
        <time>2022-07-17T04:19:51Z</time>
      </trkpt>
      <trkpt lat="45.75671" lon="6.53783">
        <ele>1737</ele>
        <time>2022-07-17T04:19:54Z</time>
      </trkpt>
      <trkpt lat="45.75671" lon="6.53779">
        <ele>1737</ele>
        <time>2022-07-17T04:19:57Z</time>
      </trkpt>
      <trkpt lat="45.7567" lon="6.53776">
        <ele>1737</ele>
        <time>2022-07-17T04:19:58Z</time>
      </trkpt>
      <trkpt lat="45.75669" lon="6.53774">
        <ele>1737</ele>
        <time>2022-07-17T04:19:59Z</time>
      </trkpt>
      <trkpt lat="45.75668" lon="6.53771">
        <ele>1737</ele>
        <time>2022-07-17T04:20:00Z</time>
      </trkpt>
      <trkpt lat="45.75668" lon="6.53769">
        <ele>1736</ele>
        <time>2022-07-17T04:20:01Z</time>
      </trkpt>
      <trkpt lat="45.75667" lon="6.53764">
        <ele>1736</ele>
        <time>2022-07-17T04:20:03Z</time>
      </trkpt>
      <trkpt lat="45.75667" lon="6.53761">
        <ele>1736</ele>
        <time>2022-07-17T04:20:04Z</time>
      </trkpt>
      <trkpt lat="45.75667" lon="6.53758">
        <ele>1736</ele>
        <time>2022-07-17T04:20:05Z</time>
      </trkpt>
      <trkpt lat="45.75667" lon="6.53755">
        <ele>1736</ele>
        <time>2022-07-17T04:20:06Z</time>
      </trkpt>
      <trkpt lat="45.75667" lon="6.53748">
        <ele>1736</ele>
        <time>2022-07-17T04:20:09Z</time>
      </trkpt>
      <trkpt lat="45.75666" lon="6.53744">
        <ele>1736</ele>
        <time>2022-07-17T04:20:11Z</time>
      </trkpt>
      <trkpt lat="45.75665" lon="6.53739">
        <ele>1735</ele>
        <time>2022-07-17T04:20:13Z</time>
      </trkpt>
      <trkpt lat="45.75665" lon="6.53734">
        <ele>1734</ele>
        <time>2022-07-17T04:20:15Z</time>
      </trkpt>
      <trkpt lat="45.75664" lon="6.53729">
        <ele>1734</ele>
        <time>2022-07-17T04:20:17Z</time>
      </trkpt>
      <trkpt lat="45.75663" lon="6.53725">
        <ele>1734</ele>
        <time>2022-07-17T04:20:19Z</time>
      </trkpt>
      <trkpt lat="45.75661" lon="6.53721">
        <ele>1734</ele>
        <time>2022-07-17T04:20:21Z</time>
      </trkpt>
      <trkpt lat="45.7566" lon="6.53719">
        <ele>1733</ele>
        <time>2022-07-17T04:20:22Z</time>
      </trkpt>
      <trkpt lat="45.75658" lon="6.53716">
        <ele>1733</ele>
        <time>2022-07-17T04:20:24Z</time>
      </trkpt>
      <trkpt lat="45.75657" lon="6.53714">
        <ele>1733</ele>
        <time>2022-07-17T04:20:25Z</time>
      </trkpt>
      <trkpt lat="45.75655" lon="6.53712">
        <ele>1733</ele>
        <time>2022-07-17T04:20:26Z</time>
      </trkpt>
      <trkpt lat="45.75653" lon="6.5371">
        <ele>1733</ele>
        <time>2022-07-17T04:20:27Z</time>
      </trkpt>
      <trkpt lat="45.75651" lon="6.53708">
        <ele>1733</ele>
        <time>2022-07-17T04:20:29Z</time>
      </trkpt>
      <trkpt lat="45.7565" lon="6.53706">
        <ele>1733</ele>
        <time>2022-07-17T04:20:30Z</time>
      </trkpt>
      <trkpt lat="45.75648" lon="6.53705">
        <ele>1733</ele>
        <time>2022-07-17T04:20:31Z</time>
      </trkpt>
      <trkpt lat="45.75646" lon="6.53702">
        <ele>1732</ele>
        <time>2022-07-17T04:20:33Z</time>
      </trkpt>
      <trkpt lat="45.75643" lon="6.537">
        <ele>1732</ele>
        <time>2022-07-17T04:20:35Z</time>
      </trkpt>
      <trkpt lat="45.75641" lon="6.53698">
        <ele>1732</ele>
        <time>2022-07-17T04:20:36Z</time>
      </trkpt>
      <trkpt lat="45.75639" lon="6.53695">
        <ele>1732</ele>
        <time>2022-07-17T04:20:38Z</time>
      </trkpt>
      <trkpt lat="45.75636" lon="6.53692">
        <ele>1731</ele>
        <time>2022-07-17T04:20:40Z</time>
      </trkpt>
      <trkpt lat="45.75635" lon="6.5369">
        <ele>1731</ele>
        <time>2022-07-17T04:20:41Z</time>
      </trkpt>
      <trkpt lat="45.75633" lon="6.53687">
        <ele>1731</ele>
        <time>2022-07-17T04:20:43Z</time>
      </trkpt>
      <trkpt lat="45.75633" lon="6.53684">
        <ele>1731</ele>
        <time>2022-07-17T04:20:45Z</time>
      </trkpt>
      <trkpt lat="45.75633" lon="6.53681">
        <ele>1731</ele>
        <time>2022-07-17T04:20:47Z</time>
      </trkpt>
      <trkpt lat="45.75633" lon="6.53678">
        <ele>1732</ele>
        <time>2022-07-17T04:20:49Z</time>
      </trkpt>
      <trkpt lat="45.75632" lon="6.53675">
        <ele>1732</ele>
        <time>2022-07-17T04:20:51Z</time>
      </trkpt>
      <trkpt lat="45.7563" lon="6.53672">
        <ele>1732</ele>
        <time>2022-07-17T04:20:53Z</time>
      </trkpt>
      <trkpt lat="45.75629" lon="6.53669">
        <ele>1732</ele>
        <time>2022-07-17T04:20:55Z</time>
      </trkpt>
      <trkpt lat="45.75628" lon="6.53666">
        <ele>1732</ele>
        <time>2022-07-17T04:20:57Z</time>
      </trkpt>
      <trkpt lat="45.75627" lon="6.53663">
        <ele>1732</ele>
        <time>2022-07-17T04:20:59Z</time>
      </trkpt>
      <trkpt lat="45.75626" lon="6.5366">
        <ele>1732</ele>
        <time>2022-07-17T04:21:01Z</time>
      </trkpt>
      <trkpt lat="45.75625" lon="6.53658">
        <ele>1732</ele>
        <time>2022-07-17T04:21:03Z</time>
      </trkpt>
      <trkpt lat="45.75622" lon="6.53655">
        <ele>1732</ele>
        <time>2022-07-17T04:21:06Z</time>
      </trkpt>
      <trkpt lat="45.7562" lon="6.53652">
        <ele>1732</ele>
        <time>2022-07-17T04:21:08Z</time>
      </trkpt>
      <trkpt lat="45.75618" lon="6.5365">
        <ele>1732</ele>
        <time>2022-07-17T04:21:10Z</time>
      </trkpt>
      <trkpt lat="45.75616" lon="6.53649">
        <ele>1731</ele>
        <time>2022-07-17T04:21:12Z</time>
      </trkpt>
      <trkpt lat="45.75613" lon="6.53648">
        <ele>1731</ele>
        <time>2022-07-17T04:21:14Z</time>
      </trkpt>
      <trkpt lat="45.75611" lon="6.53647">
        <ele>1731</ele>
        <time>2022-07-17T04:21:16Z</time>
      </trkpt>
      <trkpt lat="45.75608" lon="6.53645">
        <ele>1731</ele>
        <time>2022-07-17T04:21:18Z</time>
      </trkpt>
      <trkpt lat="45.75606" lon="6.53643">
        <ele>1731</ele>
        <time>2022-07-17T04:21:20Z</time>
      </trkpt>
      <trkpt lat="45.75603" lon="6.53641">
        <ele>1731</ele>
        <time>2022-07-17T04:21:22Z</time>
      </trkpt>
      <trkpt lat="45.75601" lon="6.53638">
        <ele>1731</ele>
        <time>2022-07-17T04:21:24Z</time>
      </trkpt>
      <trkpt lat="45.756" lon="6.53636">
        <ele>1731</ele>
        <time>2022-07-17T04:21:26Z</time>
      </trkpt>
      <trkpt lat="45.75598" lon="6.53633">
        <ele>1730</ele>
        <time>2022-07-17T04:21:28Z</time>
      </trkpt>
      <trkpt lat="45.75597" lon="6.5363">
        <ele>1730</ele>
        <time>2022-07-17T04:21:30Z</time>
      </trkpt>
      <trkpt lat="45.75595" lon="6.53628">
        <ele>1730</ele>
        <time>2022-07-17T04:21:32Z</time>
      </trkpt>
      <trkpt lat="45.75593" lon="6.53626">
        <ele>1729</ele>
        <time>2022-07-17T04:21:34Z</time>
      </trkpt>
      <trkpt lat="45.75591" lon="6.53623">
        <ele>1729</ele>
        <time>2022-07-17T04:21:36Z</time>
      </trkpt>
      <trkpt lat="45.75589" lon="6.53621">
        <ele>1729</ele>
        <time>2022-07-17T04:21:38Z</time>
      </trkpt>
      <trkpt lat="45.75588" lon="6.53617">
        <ele>1729</ele>
        <time>2022-07-17T04:21:40Z</time>
      </trkpt>
      <trkpt lat="45.75586" lon="6.53614">
        <ele>1729</ele>
        <time>2022-07-17T04:21:41Z</time>
      </trkpt>
      <trkpt lat="45.75585" lon="6.53612">
        <ele>1729</ele>
        <time>2022-07-17T04:21:42Z</time>
      </trkpt>
      <trkpt lat="45.75584" lon="6.5361">
        <ele>1729</ele>
        <time>2022-07-17T04:21:43Z</time>
      </trkpt>
      <trkpt lat="45.75583" lon="6.53607">
        <ele>1729</ele>
        <time>2022-07-17T04:21:44Z</time>
      </trkpt>
      <trkpt lat="45.75581" lon="6.53604">
        <ele>1729</ele>
        <time>2022-07-17T04:21:45Z</time>
      </trkpt>
      <trkpt lat="45.7558" lon="6.53603">
        <ele>1729</ele>
        <time>2022-07-17T04:21:46Z</time>
      </trkpt>
      <trkpt lat="45.75578" lon="6.53602">
        <ele>1728</ele>
        <time>2022-07-17T04:21:47Z</time>
      </trkpt>
      <trkpt lat="45.75577" lon="6.536">
        <ele>1728</ele>
        <time>2022-07-17T04:21:48Z</time>
      </trkpt>
      <trkpt lat="45.75575" lon="6.53598">
        <ele>1728</ele>
        <time>2022-07-17T04:21:49Z</time>
      </trkpt>
      <trkpt lat="45.75574" lon="6.53596">
        <ele>1728</ele>
        <time>2022-07-17T04:21:50Z</time>
      </trkpt>
      <trkpt lat="45.75572" lon="6.53594">
        <ele>1728</ele>
        <time>2022-07-17T04:21:51Z</time>
      </trkpt>
      <trkpt lat="45.75571" lon="6.53592">
        <ele>1728</ele>
        <time>2022-07-17T04:21:52Z</time>
      </trkpt>
      <trkpt lat="45.75569" lon="6.53588">
        <ele>1728</ele>
        <time>2022-07-17T04:21:54Z</time>
      </trkpt>
      <trkpt lat="45.75566" lon="6.53586">
        <ele>1728</ele>
        <time>2022-07-17T04:21:56Z</time>
      </trkpt>
      <trkpt lat="45.75564" lon="6.53583">
        <ele>1728</ele>
        <time>2022-07-17T04:21:58Z</time>
      </trkpt>
      <trkpt lat="45.75562" lon="6.5358">
        <ele>1728</ele>
        <time>2022-07-17T04:22:00Z</time>
      </trkpt>
      <trkpt lat="45.75561" lon="6.53578">
        <ele>1728</ele>
        <time>2022-07-17T04:22:02Z</time>
      </trkpt>
      <trkpt lat="45.75559" lon="6.53574">
        <ele>1728</ele>
        <time>2022-07-17T04:22:04Z</time>
      </trkpt>
      <trkpt lat="45.75557" lon="6.53571">
        <ele>1728</ele>
        <time>2022-07-17T04:22:06Z</time>
      </trkpt>
      <trkpt lat="45.75555" lon="6.53568">
        <ele>1728</ele>
        <time>2022-07-17T04:22:08Z</time>
      </trkpt>
      <trkpt lat="45.75553" lon="6.53565">
        <ele>1728</ele>
        <time>2022-07-17T04:22:10Z</time>
      </trkpt>
      <trkpt lat="45.75551" lon="6.53562">
        <ele>1728</ele>
        <time>2022-07-17T04:22:12Z</time>
      </trkpt>
      <trkpt lat="45.75549" lon="6.53559">
        <ele>1728</ele>
        <time>2022-07-17T04:22:14Z</time>
      </trkpt>
      <trkpt lat="45.75548" lon="6.53556">
        <ele>1728</ele>
        <time>2022-07-17T04:22:16Z</time>
      </trkpt>
      <trkpt lat="45.75546" lon="6.53554">
        <ele>1728</ele>
        <time>2022-07-17T04:22:18Z</time>
      </trkpt>
      <trkpt lat="45.75544" lon="6.53551">
        <ele>1728</ele>
        <time>2022-07-17T04:22:20Z</time>
      </trkpt>
      <trkpt lat="45.75543" lon="6.53547">
        <ele>1728</ele>
        <time>2022-07-17T04:22:22Z</time>
      </trkpt>
      <trkpt lat="45.75541" lon="6.53545">
        <ele>1728</ele>
        <time>2022-07-17T04:22:23Z</time>
      </trkpt>
      <trkpt lat="45.7554" lon="6.53543">
        <ele>1728</ele>
        <time>2022-07-17T04:22:24Z</time>
      </trkpt>
      <trkpt lat="45.75539" lon="6.53541">
        <ele>1728</ele>
        <time>2022-07-17T04:22:25Z</time>
      </trkpt>
      <trkpt lat="45.75537" lon="6.53539">
        <ele>1728</ele>
        <time>2022-07-17T04:22:26Z</time>
      </trkpt>
      <trkpt lat="45.75536" lon="6.53537">
        <ele>1728</ele>
        <time>2022-07-17T04:22:27Z</time>
      </trkpt>
      <trkpt lat="45.75535" lon="6.53534">
        <ele>1728</ele>
        <time>2022-07-17T04:22:28Z</time>
      </trkpt>
      <trkpt lat="45.75533" lon="6.53532">
        <ele>1728</ele>
        <time>2022-07-17T04:22:29Z</time>
      </trkpt>
      <trkpt lat="45.75532" lon="6.5353">
        <ele>1728</ele>
        <time>2022-07-17T04:22:30Z</time>
      </trkpt>
      <trkpt lat="45.75531" lon="6.53528">
        <ele>1728</ele>
        <time>2022-07-17T04:22:31Z</time>
      </trkpt>
      <trkpt lat="45.75528" lon="6.53524">
        <ele>1728</ele>
        <time>2022-07-17T04:22:33Z</time>
      </trkpt>
      <trkpt lat="45.75527" lon="6.53522">
        <ele>1728</ele>
        <time>2022-07-17T04:22:34Z</time>
      </trkpt>
      <trkpt lat="45.75526" lon="6.5352">
        <ele>1728</ele>
        <time>2022-07-17T04:22:35Z</time>
      </trkpt>
      <trkpt lat="45.75524" lon="6.53516">
        <ele>1728</ele>
        <time>2022-07-17T04:22:37Z</time>
      </trkpt>
      <trkpt lat="45.75522" lon="6.53514">
        <ele>1728</ele>
        <time>2022-07-17T04:22:38Z</time>
      </trkpt>
      <trkpt lat="45.75521" lon="6.53512">
        <ele>1728</ele>
        <time>2022-07-17T04:22:39Z</time>
      </trkpt>
      <trkpt lat="45.7552" lon="6.5351">
        <ele>1728</ele>
        <time>2022-07-17T04:22:40Z</time>
      </trkpt>
      <trkpt lat="45.75519" lon="6.53508">
        <ele>1728</ele>
        <time>2022-07-17T04:22:41Z</time>
      </trkpt>
      <trkpt lat="45.75516" lon="6.53504">
        <ele>1728</ele>
        <time>2022-07-17T04:22:43Z</time>
      </trkpt>
      <trkpt lat="45.75515" lon="6.53502">
        <ele>1728</ele>
        <time>2022-07-17T04:22:44Z</time>
      </trkpt>
      <trkpt lat="45.75512" lon="6.535">
        <ele>1728</ele>
        <time>2022-07-17T04:22:46Z</time>
      </trkpt>
      <trkpt lat="45.7551" lon="6.53498">
        <ele>1728</ele>
        <time>2022-07-17T04:22:47Z</time>
      </trkpt>
      <trkpt lat="45.75508" lon="6.53497">
        <ele>1728</ele>
        <time>2022-07-17T04:22:48Z</time>
      </trkpt>
      <trkpt lat="45.75505" lon="6.53495">
        <ele>1728</ele>
        <time>2022-07-17T04:22:50Z</time>
      </trkpt>
      <trkpt lat="45.75503" lon="6.53494">
        <ele>1728</ele>
        <time>2022-07-17T04:22:51Z</time>
      </trkpt>
      <trkpt lat="45.75501" lon="6.53493">
        <ele>1728</ele>
        <time>2022-07-17T04:22:52Z</time>
      </trkpt>
      <trkpt lat="45.75497" lon="6.53491">
        <ele>1728</ele>
        <time>2022-07-17T04:22:54Z</time>
      </trkpt>
      <trkpt lat="45.75496" lon="6.53491">
        <ele>1728</ele>
        <time>2022-07-17T04:22:55Z</time>
      </trkpt>
      <trkpt lat="45.75494" lon="6.5349">
        <ele>1727</ele>
        <time>2022-07-17T04:22:56Z</time>
      </trkpt>
      <trkpt lat="45.75492" lon="6.53489">
        <ele>1727</ele>
        <time>2022-07-17T04:22:57Z</time>
      </trkpt>
      <trkpt lat="45.75489" lon="6.53489">
        <ele>1726</ele>
        <time>2022-07-17T04:22:59Z</time>
      </trkpt>
      <trkpt lat="45.75487" lon="6.53488">
        <ele>1726</ele>
        <time>2022-07-17T04:23:01Z</time>
      </trkpt>
      <trkpt lat="45.75485" lon="6.53486">
        <ele>1726</ele>
        <time>2022-07-17T04:23:03Z</time>
      </trkpt>
      <trkpt lat="45.75482" lon="6.53485">
        <ele>1726</ele>
        <time>2022-07-17T04:23:05Z</time>
      </trkpt>
      <trkpt lat="45.7548" lon="6.53484">
        <ele>1725</ele>
        <time>2022-07-17T04:23:07Z</time>
      </trkpt>
      <trkpt lat="45.75477" lon="6.53483">
        <ele>1725</ele>
        <time>2022-07-17T04:23:09Z</time>
      </trkpt>
      <trkpt lat="45.75474" lon="6.53482">
        <ele>1725</ele>
        <time>2022-07-17T04:23:11Z</time>
      </trkpt>
      <trkpt lat="45.75471" lon="6.5348">
        <ele>1724</ele>
        <time>2022-07-17T04:23:13Z</time>
      </trkpt>
      <trkpt lat="45.75469" lon="6.53478">
        <ele>1724</ele>
        <time>2022-07-17T04:23:15Z</time>
      </trkpt>
      <trkpt lat="45.75467" lon="6.53475">
        <ele>1723</ele>
        <time>2022-07-17T04:23:17Z</time>
      </trkpt>
      <trkpt lat="45.75465" lon="6.53471">
        <ele>1723</ele>
        <time>2022-07-17T04:23:19Z</time>
      </trkpt>
      <trkpt lat="45.75463" lon="6.53468">
        <ele>1722</ele>
        <time>2022-07-17T04:23:21Z</time>
      </trkpt>
      <trkpt lat="45.75463" lon="6.53464">
        <ele>1722</ele>
        <time>2022-07-17T04:23:23Z</time>
      </trkpt>
      <trkpt lat="45.75462" lon="6.5346">
        <ele>1722</ele>
        <time>2022-07-17T04:23:25Z</time>
      </trkpt>
      <trkpt lat="45.75462" lon="6.53456">
        <ele>1722</ele>
        <time>2022-07-17T04:23:27Z</time>
      </trkpt>
      <trkpt lat="45.75461" lon="6.53452">
        <ele>1722</ele>
        <time>2022-07-17T04:23:29Z</time>
      </trkpt>
      <trkpt lat="45.75461" lon="6.53448">
        <ele>1722</ele>
        <time>2022-07-17T04:23:31Z</time>
      </trkpt>
      <trkpt lat="45.75461" lon="6.53444">
        <ele>1722</ele>
        <time>2022-07-17T04:23:33Z</time>
      </trkpt>
      <trkpt lat="45.75461" lon="6.5344">
        <ele>1722</ele>
        <time>2022-07-17T04:23:35Z</time>
      </trkpt>
      <trkpt lat="45.7546" lon="6.53436">
        <ele>1722</ele>
        <time>2022-07-17T04:23:37Z</time>
      </trkpt>
      <trkpt lat="45.7546" lon="6.53432">
        <ele>1722</ele>
        <time>2022-07-17T04:23:39Z</time>
      </trkpt>
      <trkpt lat="45.7546" lon="6.53428">
        <ele>1722</ele>
        <time>2022-07-17T04:23:41Z</time>
      </trkpt>
      <trkpt lat="45.7546" lon="6.53424">
        <ele>1722</ele>
        <time>2022-07-17T04:23:43Z</time>
      </trkpt>
      <trkpt lat="45.7546" lon="6.5342">
        <ele>1722</ele>
        <time>2022-07-17T04:23:45Z</time>
      </trkpt>
      <trkpt lat="45.7546" lon="6.53416">
        <ele>1722</ele>
        <time>2022-07-17T04:23:47Z</time>
      </trkpt>
      <trkpt lat="45.7546" lon="6.53412">
        <ele>1722</ele>
        <time>2022-07-17T04:23:49Z</time>
      </trkpt>
      <trkpt lat="45.75459" lon="6.53409">
        <ele>1722</ele>
        <time>2022-07-17T04:23:51Z</time>
      </trkpt>
      <trkpt lat="45.7546" lon="6.53405">
        <ele>1722</ele>
        <time>2022-07-17T04:23:53Z</time>
      </trkpt>
      <trkpt lat="45.7546" lon="6.53401">
        <ele>1722</ele>
        <time>2022-07-17T04:23:55Z</time>
      </trkpt>
      <trkpt lat="45.7546" lon="6.53398">
        <ele>1722</ele>
        <time>2022-07-17T04:23:57Z</time>
      </trkpt>
      <trkpt lat="45.7546" lon="6.53394">
        <ele>1722</ele>
        <time>2022-07-17T04:23:59Z</time>
      </trkpt>
      <trkpt lat="45.75461" lon="6.5339">
        <ele>1723</ele>
        <time>2022-07-17T04:24:01Z</time>
      </trkpt>
      <trkpt lat="45.75461" lon="6.53386">
        <ele>1723</ele>
        <time>2022-07-17T04:24:03Z</time>
      </trkpt>
      <trkpt lat="45.75462" lon="6.53383">
        <ele>1723</ele>
        <time>2022-07-17T04:24:05Z</time>
      </trkpt>
      <trkpt lat="45.75462" lon="6.53379">
        <ele>1723</ele>
        <time>2022-07-17T04:24:07Z</time>
      </trkpt>
      <trkpt lat="45.75462" lon="6.53375">
        <ele>1723</ele>
        <time>2022-07-17T04:24:09Z</time>
      </trkpt>
      <trkpt lat="45.75462" lon="6.53372">
        <ele>1723</ele>
        <time>2022-07-17T04:24:11Z</time>
      </trkpt>
      <trkpt lat="45.75462" lon="6.53368">
        <ele>1723</ele>
        <time>2022-07-17T04:24:13Z</time>
      </trkpt>
      <trkpt lat="45.75462" lon="6.53364">
        <ele>1723</ele>
        <time>2022-07-17T04:24:15Z</time>
      </trkpt>
      <trkpt lat="45.75462" lon="6.53361">
        <ele>1724</ele>
        <time>2022-07-17T04:24:17Z</time>
      </trkpt>
      <trkpt lat="45.75463" lon="6.53357">
        <ele>1724</ele>
        <time>2022-07-17T04:24:19Z</time>
      </trkpt>
      <trkpt lat="45.75463" lon="6.53354">
        <ele>1724</ele>
        <time>2022-07-17T04:24:21Z</time>
      </trkpt>
      <trkpt lat="45.75463" lon="6.5335">
        <ele>1723</ele>
        <time>2022-07-17T04:24:23Z</time>
      </trkpt>
      <trkpt lat="45.75462" lon="6.53348">
        <ele>1723</ele>
        <time>2022-07-17T04:24:25Z</time>
      </trkpt>
      <trkpt lat="45.7546" lon="6.53347">
        <ele>1723</ele>
        <time>2022-07-17T04:24:28Z</time>
      </trkpt>
      <trkpt lat="45.75458" lon="6.53345">
        <ele>1723</ele>
        <time>2022-07-17T04:24:30Z</time>
      </trkpt>
      <trkpt lat="45.75456" lon="6.53343">
        <ele>1724</ele>
        <time>2022-07-17T04:24:32Z</time>
      </trkpt>
      <trkpt lat="45.75454" lon="6.53341">
        <ele>1724</ele>
        <time>2022-07-17T04:24:34Z</time>
      </trkpt>
      <trkpt lat="45.75451" lon="6.5334">
        <ele>1724</ele>
        <time>2022-07-17T04:24:36Z</time>
      </trkpt>
      <trkpt lat="45.75449" lon="6.53339">
        <ele>1724</ele>
        <time>2022-07-17T04:24:38Z</time>
      </trkpt>
      <trkpt lat="45.75447" lon="6.53338">
        <ele>1724</ele>
        <time>2022-07-17T04:24:40Z</time>
      </trkpt>
      <trkpt lat="45.75445" lon="6.53337">
        <ele>1725</ele>
        <time>2022-07-17T04:24:42Z</time>
      </trkpt>
      <trkpt lat="45.75443" lon="6.53336">
        <ele>1725</ele>
        <time>2022-07-17T04:24:44Z</time>
      </trkpt>
      <trkpt lat="45.7544" lon="6.53336">
        <ele>1725</ele>
        <time>2022-07-17T04:24:46Z</time>
      </trkpt>
      <trkpt lat="45.75438" lon="6.53335">
        <ele>1725</ele>
        <time>2022-07-17T04:24:48Z</time>
      </trkpt>
      <trkpt lat="45.75436" lon="6.53333">
        <ele>1725</ele>
        <time>2022-07-17T04:24:50Z</time>
      </trkpt>
      <trkpt lat="45.75433" lon="6.53333">
        <ele>1725</ele>
        <time>2022-07-17T04:24:52Z</time>
      </trkpt>
      <trkpt lat="45.75431" lon="6.53332">
        <ele>1725</ele>
        <time>2022-07-17T04:24:54Z</time>
      </trkpt>
      <trkpt lat="45.75429" lon="6.53331">
        <ele>1726</ele>
        <time>2022-07-17T04:24:56Z</time>
      </trkpt>
      <trkpt lat="45.75427" lon="6.5333">
        <ele>1726</ele>
        <time>2022-07-17T04:24:58Z</time>
      </trkpt>
      <trkpt lat="45.75425" lon="6.53329">
        <ele>1727</ele>
        <time>2022-07-17T04:25:00Z</time>
      </trkpt>
      <trkpt lat="45.75423" lon="6.53327">
        <ele>1727</ele>
        <time>2022-07-17T04:25:02Z</time>
      </trkpt>
      <trkpt lat="45.75421" lon="6.53326">
        <ele>1727</ele>
        <time>2022-07-17T04:25:04Z</time>
      </trkpt>
      <trkpt lat="45.75419" lon="6.53324">
        <ele>1727</ele>
        <time>2022-07-17T04:25:06Z</time>
      </trkpt>
      <trkpt lat="45.75417" lon="6.53323">
        <ele>1727</ele>
        <time>2022-07-17T04:25:08Z</time>
      </trkpt>
      <trkpt lat="45.75415" lon="6.53321">
        <ele>1728</ele>
        <time>2022-07-17T04:25:10Z</time>
      </trkpt>
      <trkpt lat="45.75413" lon="6.5332">
        <ele>1728</ele>
        <time>2022-07-17T04:25:12Z</time>
      </trkpt>
      <trkpt lat="45.75411" lon="6.53319">
        <ele>1728</ele>
        <time>2022-07-17T04:25:14Z</time>
      </trkpt>
      <trkpt lat="45.7541" lon="6.53318">
        <ele>1728</ele>
        <time>2022-07-17T04:25:16Z</time>
      </trkpt>
      <trkpt lat="45.75408" lon="6.53318">
        <ele>1728</ele>
        <time>2022-07-17T04:25:18Z</time>
      </trkpt>
      <trkpt lat="45.75405" lon="6.53317">
        <ele>1729</ele>
        <time>2022-07-17T04:25:21Z</time>
      </trkpt>
      <trkpt lat="45.75403" lon="6.53317">
        <ele>1729</ele>
        <time>2022-07-17T04:25:23Z</time>
      </trkpt>
      <trkpt lat="45.75401" lon="6.53316">
        <ele>1729</ele>
        <time>2022-07-17T04:25:25Z</time>
      </trkpt>
      <trkpt lat="45.75399" lon="6.53315">
        <ele>1730</ele>
        <time>2022-07-17T04:25:27Z</time>
      </trkpt>
      <trkpt lat="45.75398" lon="6.53314">
        <ele>1730</ele>
        <time>2022-07-17T04:25:29Z</time>
      </trkpt>
      <trkpt lat="45.75396" lon="6.53312">
        <ele>1731</ele>
        <time>2022-07-17T04:25:31Z</time>
      </trkpt>
      <trkpt lat="45.75394" lon="6.53311">
        <ele>1731</ele>
        <time>2022-07-17T04:25:34Z</time>
      </trkpt>
      <trkpt lat="45.75392" lon="6.53309">
        <ele>1731</ele>
        <time>2022-07-17T04:25:36Z</time>
      </trkpt>
      <trkpt lat="45.7539" lon="6.53308">
        <ele>1732</ele>
        <time>2022-07-17T04:25:38Z</time>
      </trkpt>
      <trkpt lat="45.75388" lon="6.53307">
        <ele>1732</ele>
        <time>2022-07-17T04:25:40Z</time>
      </trkpt>
      <trkpt lat="45.75386" lon="6.53306">
        <ele>1732</ele>
        <time>2022-07-17T04:25:42Z</time>
      </trkpt>
      <trkpt lat="45.75384" lon="6.53305">
        <ele>1732</ele>
        <time>2022-07-17T04:25:44Z</time>
      </trkpt>
      <trkpt lat="45.75382" lon="6.53303">
        <ele>1733</ele>
        <time>2022-07-17T04:25:46Z</time>
      </trkpt>
      <trkpt lat="45.75381" lon="6.53302">
        <ele>1733</ele>
        <time>2022-07-17T04:25:48Z</time>
      </trkpt>
      <trkpt lat="45.75377" lon="6.533">
        <ele>1733</ele>
        <time>2022-07-17T04:25:51Z</time>
      </trkpt>
      <trkpt lat="45.75375" lon="6.533">
        <ele>1733</ele>
        <time>2022-07-17T04:25:53Z</time>
      </trkpt>
      <trkpt lat="45.75373" lon="6.53298">
        <ele>1734</ele>
        <time>2022-07-17T04:25:55Z</time>
      </trkpt>
      <trkpt lat="45.75371" lon="6.53297">
        <ele>1734</ele>
        <time>2022-07-17T04:25:57Z</time>
      </trkpt>
      <trkpt lat="45.7537" lon="6.53296">
        <ele>1734</ele>
        <time>2022-07-17T04:25:59Z</time>
      </trkpt>
      <trkpt lat="45.75368" lon="6.53295">
        <ele>1735</ele>
        <time>2022-07-17T04:26:01Z</time>
      </trkpt>
      <trkpt lat="45.75366" lon="6.53294">
        <ele>1735</ele>
        <time>2022-07-17T04:26:03Z</time>
      </trkpt>
      <trkpt lat="45.75364" lon="6.53293">
        <ele>1735</ele>
        <time>2022-07-17T04:26:05Z</time>
      </trkpt>
      <trkpt lat="45.75362" lon="6.53291">
        <ele>1736</ele>
        <time>2022-07-17T04:26:07Z</time>
      </trkpt>
      <trkpt lat="45.7536" lon="6.5329">
        <ele>1736</ele>
        <time>2022-07-17T04:26:09Z</time>
      </trkpt>
      <trkpt lat="45.75358" lon="6.53289">
        <ele>1736</ele>
        <time>2022-07-17T04:26:11Z</time>
      </trkpt>
      <trkpt lat="45.75356" lon="6.53288">
        <ele>1736</ele>
        <time>2022-07-17T04:26:13Z</time>
      </trkpt>
      <trkpt lat="45.75354" lon="6.53286">
        <ele>1736</ele>
        <time>2022-07-17T04:26:15Z</time>
      </trkpt>
      <trkpt lat="45.75352" lon="6.53285">
        <ele>1736</ele>
        <time>2022-07-17T04:26:17Z</time>
      </trkpt>
      <trkpt lat="45.7535" lon="6.53284">
        <ele>1736</ele>
        <time>2022-07-17T04:26:19Z</time>
      </trkpt>
      <trkpt lat="45.75348" lon="6.53282">
        <ele>1736</ele>
        <time>2022-07-17T04:26:21Z</time>
      </trkpt>
      <trkpt lat="45.75347" lon="6.53281">
        <ele>1737</ele>
        <time>2022-07-17T04:26:23Z</time>
      </trkpt>
      <trkpt lat="45.75345" lon="6.5328">
        <ele>1737</ele>
        <time>2022-07-17T04:26:25Z</time>
      </trkpt>
      <trkpt lat="45.75343" lon="6.53278">
        <ele>1737</ele>
        <time>2022-07-17T04:26:27Z</time>
      </trkpt>
      <trkpt lat="45.75341" lon="6.53277">
        <ele>1737</ele>
        <time>2022-07-17T04:26:29Z</time>
      </trkpt>
      <trkpt lat="45.75339" lon="6.53275">
        <ele>1738</ele>
        <time>2022-07-17T04:26:31Z</time>
      </trkpt>
      <trkpt lat="45.75337" lon="6.53274">
        <ele>1739</ele>
        <time>2022-07-17T04:26:33Z</time>
      </trkpt>
      <trkpt lat="45.75335" lon="6.53272">
        <ele>1739</ele>
        <time>2022-07-17T04:26:35Z</time>
      </trkpt>
      <trkpt lat="45.75334" lon="6.5327">
        <ele>1739</ele>
        <time>2022-07-17T04:26:37Z</time>
      </trkpt>
      <trkpt lat="45.75332" lon="6.53269">
        <ele>1739</ele>
        <time>2022-07-17T04:26:39Z</time>
      </trkpt>
      <trkpt lat="45.7533" lon="6.53267">
        <ele>1739</ele>
        <time>2022-07-17T04:26:41Z</time>
      </trkpt>
      <trkpt lat="45.75328" lon="6.53265">
        <ele>1739</ele>
        <time>2022-07-17T04:26:43Z</time>
      </trkpt>
      <trkpt lat="45.75326" lon="6.53263">
        <ele>1739</ele>
        <time>2022-07-17T04:26:45Z</time>
      </trkpt>
      <trkpt lat="45.75324" lon="6.5326">
        <ele>1739</ele>
        <time>2022-07-17T04:26:48Z</time>
      </trkpt>
      <trkpt lat="45.75322" lon="6.53259">
        <ele>1739</ele>
        <time>2022-07-17T04:26:50Z</time>
      </trkpt>
      <trkpt lat="45.75319" lon="6.53257">
        <ele>1740</ele>
        <time>2022-07-17T04:26:53Z</time>
      </trkpt>
      <trkpt lat="45.75317" lon="6.53256">
        <ele>1740</ele>
        <time>2022-07-17T04:26:55Z</time>
      </trkpt>
      <trkpt lat="45.75316" lon="6.53255">
        <ele>1741</ele>
        <time>2022-07-17T04:26:57Z</time>
      </trkpt>
      <trkpt lat="45.75313" lon="6.53252">
        <ele>1741</ele>
        <time>2022-07-17T04:27:00Z</time>
      </trkpt>
      <trkpt lat="45.75311" lon="6.53251">
        <ele>1742</ele>
        <time>2022-07-17T04:27:03Z</time>
      </trkpt>
      <trkpt lat="45.75309" lon="6.53249">
        <ele>1742</ele>
        <time>2022-07-17T04:27:05Z</time>
      </trkpt>
      <trkpt lat="45.75307" lon="6.53248">
        <ele>1742</ele>
        <time>2022-07-17T04:27:07Z</time>
      </trkpt>
      <trkpt lat="45.75305" lon="6.53247">
        <ele>1742</ele>
        <time>2022-07-17T04:27:09Z</time>
      </trkpt>
      <trkpt lat="45.75303" lon="6.53246">
        <ele>1743</ele>
        <time>2022-07-17T04:27:11Z</time>
      </trkpt>
      <trkpt lat="45.75301" lon="6.53245">
        <ele>1743</ele>
        <time>2022-07-17T04:27:13Z</time>
      </trkpt>
      <trkpt lat="45.75299" lon="6.53243">
        <ele>1743</ele>
        <time>2022-07-17T04:27:15Z</time>
      </trkpt>
      <trkpt lat="45.75297" lon="6.53242">
        <ele>1743</ele>
        <time>2022-07-17T04:27:17Z</time>
      </trkpt>
      <trkpt lat="45.75295" lon="6.53241">
        <ele>1743</ele>
        <time>2022-07-17T04:27:19Z</time>
      </trkpt>
      <trkpt lat="45.75293" lon="6.5324">
        <ele>1743</ele>
        <time>2022-07-17T04:27:21Z</time>
      </trkpt>
      <trkpt lat="45.75291" lon="6.53238">
        <ele>1743</ele>
        <time>2022-07-17T04:27:23Z</time>
      </trkpt>
      <trkpt lat="45.75289" lon="6.53237">
        <ele>1743</ele>
        <time>2022-07-17T04:27:25Z</time>
      </trkpt>
      <trkpt lat="45.75287" lon="6.53236">
        <ele>1743</ele>
        <time>2022-07-17T04:27:27Z</time>
      </trkpt>
      <trkpt lat="45.75285" lon="6.53236">
        <ele>1743</ele>
        <time>2022-07-17T04:27:29Z</time>
      </trkpt>
      <trkpt lat="45.75282" lon="6.53237">
        <ele>1743</ele>
        <time>2022-07-17T04:27:31Z</time>
      </trkpt>
      <trkpt lat="45.75281" lon="6.53238">
        <ele>1744</ele>
        <time>2022-07-17T04:27:33Z</time>
      </trkpt>
      <trkpt lat="45.75279" lon="6.5324">
        <ele>1744</ele>
        <time>2022-07-17T04:27:35Z</time>
      </trkpt>
      <trkpt lat="45.75277" lon="6.53242">
        <ele>1744</ele>
        <time>2022-07-17T04:27:37Z</time>
      </trkpt>
      <trkpt lat="45.75275" lon="6.53244">
        <ele>1744</ele>
        <time>2022-07-17T04:27:39Z</time>
      </trkpt>
      <trkpt lat="45.75274" lon="6.53246">
        <ele>1746</ele>
        <time>2022-07-17T04:27:41Z</time>
      </trkpt>
      <trkpt lat="45.75272" lon="6.53248">
        <ele>1746</ele>
        <time>2022-07-17T04:27:43Z</time>
      </trkpt>
      <trkpt lat="45.75271" lon="6.5325">
        <ele>1746</ele>
        <time>2022-07-17T04:27:45Z</time>
      </trkpt>
      <trkpt lat="45.7527" lon="6.53252">
        <ele>1746</ele>
        <time>2022-07-17T04:27:47Z</time>
      </trkpt>
      <trkpt lat="45.75268" lon="6.53254">
        <ele>1746</ele>
        <time>2022-07-17T04:27:49Z</time>
      </trkpt>
      <trkpt lat="45.75266" lon="6.53256">
        <ele>1746</ele>
        <time>2022-07-17T04:27:52Z</time>
      </trkpt>
      <trkpt lat="45.75264" lon="6.53258">
        <ele>1746</ele>
        <time>2022-07-17T04:27:54Z</time>
      </trkpt>
      <trkpt lat="45.75263" lon="6.53259">
        <ele>1746</ele>
        <time>2022-07-17T04:27:56Z</time>
      </trkpt>
      <trkpt lat="45.75261" lon="6.53261">
        <ele>1746</ele>
        <time>2022-07-17T04:27:58Z</time>
      </trkpt>
      <trkpt lat="45.75259" lon="6.53263">
        <ele>1746</ele>
        <time>2022-07-17T04:28:00Z</time>
      </trkpt>
      <trkpt lat="45.75257" lon="6.53263">
        <ele>1747</ele>
        <time>2022-07-17T04:28:02Z</time>
      </trkpt>
      <trkpt lat="45.75255" lon="6.53265">
        <ele>1747</ele>
        <time>2022-07-17T04:28:04Z</time>
      </trkpt>
      <trkpt lat="45.75254" lon="6.53266">
        <ele>1748</ele>
        <time>2022-07-17T04:28:06Z</time>
      </trkpt>
      <trkpt lat="45.75252" lon="6.53267">
        <ele>1748</ele>
        <time>2022-07-17T04:28:08Z</time>
      </trkpt>
      <trkpt lat="45.7525" lon="6.53269">
        <ele>1748</ele>
        <time>2022-07-17T04:28:10Z</time>
      </trkpt>
      <trkpt lat="45.75248" lon="6.5327">
        <ele>1748</ele>
        <time>2022-07-17T04:28:12Z</time>
      </trkpt>
      <trkpt lat="45.75246" lon="6.53272">
        <ele>1748</ele>
        <time>2022-07-17T04:28:14Z</time>
      </trkpt>
      <trkpt lat="45.75244" lon="6.53273">
        <ele>1749</ele>
        <time>2022-07-17T04:28:16Z</time>
      </trkpt>
      <trkpt lat="45.75242" lon="6.53274">
        <ele>1749</ele>
        <time>2022-07-17T04:28:18Z</time>
      </trkpt>
      <trkpt lat="45.7524" lon="6.53275">
        <ele>1749</ele>
        <time>2022-07-17T04:28:20Z</time>
      </trkpt>
      <trkpt lat="45.75239" lon="6.53277">
        <ele>1749</ele>
        <time>2022-07-17T04:28:23Z</time>
      </trkpt>
      <trkpt lat="45.75237" lon="6.53278">
        <ele>1749</ele>
        <time>2022-07-17T04:28:24Z</time>
      </trkpt>
      <trkpt lat="45.75235" lon="6.53281">
        <ele>1750</ele>
        <time>2022-07-17T04:28:26Z</time>
      </trkpt>
      <trkpt lat="45.75234" lon="6.53283">
        <ele>1750</ele>
        <time>2022-07-17T04:28:28Z</time>
      </trkpt>
      <trkpt lat="45.75233" lon="6.53285">
        <ele>1751</ele>
        <time>2022-07-17T04:28:30Z</time>
      </trkpt>
      <trkpt lat="45.75231" lon="6.53287">
        <ele>1751</ele>
        <time>2022-07-17T04:28:32Z</time>
      </trkpt>
      <trkpt lat="45.75229" lon="6.53289">
        <ele>1751</ele>
        <time>2022-07-17T04:28:34Z</time>
      </trkpt>
      <trkpt lat="45.75227" lon="6.5329">
        <ele>1751</ele>
        <time>2022-07-17T04:28:36Z</time>
      </trkpt>
      <trkpt lat="45.75225" lon="6.53291">
        <ele>1752</ele>
        <time>2022-07-17T04:28:38Z</time>
      </trkpt>
      <trkpt lat="45.75222" lon="6.53292">
        <ele>1752</ele>
        <time>2022-07-17T04:28:40Z</time>
      </trkpt>
      <trkpt lat="45.75221" lon="6.53293">
        <ele>1752</ele>
        <time>2022-07-17T04:28:42Z</time>
      </trkpt>
      <trkpt lat="45.75218" lon="6.53295">
        <ele>1753</ele>
        <time>2022-07-17T04:28:44Z</time>
      </trkpt>
      <trkpt lat="45.75216" lon="6.53296">
        <ele>1753</ele>
        <time>2022-07-17T04:28:46Z</time>
      </trkpt>
      <trkpt lat="45.75215" lon="6.53297">
        <ele>1754</ele>
        <time>2022-07-17T04:28:48Z</time>
      </trkpt>
      <trkpt lat="45.75212" lon="6.53298">
        <ele>1754</ele>
        <time>2022-07-17T04:28:50Z</time>
      </trkpt>
      <trkpt lat="45.7521" lon="6.53299">
        <ele>1754</ele>
        <time>2022-07-17T04:28:52Z</time>
      </trkpt>
      <trkpt lat="45.75207" lon="6.533">
        <ele>1754</ele>
        <time>2022-07-17T04:28:54Z</time>
      </trkpt>
      <trkpt lat="45.75205" lon="6.53301">
        <ele>1754</ele>
        <time>2022-07-17T04:28:56Z</time>
      </trkpt>
      <trkpt lat="45.75202" lon="6.53302">
        <ele>1754</ele>
        <time>2022-07-17T04:28:58Z</time>
      </trkpt>
      <trkpt lat="45.752" lon="6.53303">
        <ele>1754</ele>
        <time>2022-07-17T04:29:01Z</time>
      </trkpt>
      <trkpt lat="45.75198" lon="6.53305">
        <ele>1754</ele>
        <time>2022-07-17T04:29:02Z</time>
      </trkpt>
      <trkpt lat="45.75196" lon="6.53306">
        <ele>1753</ele>
        <time>2022-07-17T04:29:04Z</time>
      </trkpt>
      <trkpt lat="45.75193" lon="6.53307">
        <ele>1754</ele>
        <time>2022-07-17T04:29:06Z</time>
      </trkpt>
      <trkpt lat="45.75191" lon="6.53309">
        <ele>1754</ele>
        <time>2022-07-17T04:29:08Z</time>
      </trkpt>
      <trkpt lat="45.75188" lon="6.5331">
        <ele>1754</ele>
        <time>2022-07-17T04:29:10Z</time>
      </trkpt>
      <trkpt lat="45.75186" lon="6.53311">
        <ele>1754</ele>
        <time>2022-07-17T04:29:12Z</time>
      </trkpt>
      <trkpt lat="45.75183" lon="6.53312">
        <ele>1754</ele>
        <time>2022-07-17T04:29:14Z</time>
      </trkpt>
      <trkpt lat="45.75181" lon="6.53312">
        <ele>1754</ele>
        <time>2022-07-17T04:29:16Z</time>
      </trkpt>
      <trkpt lat="45.75179" lon="6.53314">
        <ele>1755</ele>
        <time>2022-07-17T04:29:18Z</time>
      </trkpt>
      <trkpt lat="45.75176" lon="6.53315">
        <ele>1755</ele>
        <time>2022-07-17T04:29:20Z</time>
      </trkpt>
      <trkpt lat="45.75173" lon="6.53317">
        <ele>1755</ele>
        <time>2022-07-17T04:29:22Z</time>
      </trkpt>
      <trkpt lat="45.7517" lon="6.53319">
        <ele>1755</ele>
        <time>2022-07-17T04:29:24Z</time>
      </trkpt>
      <trkpt lat="45.75168" lon="6.5332">
        <ele>1755</ele>
        <time>2022-07-17T04:29:26Z</time>
      </trkpt>
      <trkpt lat="45.75165" lon="6.53321">
        <ele>1755</ele>
        <time>2022-07-17T04:29:28Z</time>
      </trkpt>
      <trkpt lat="45.75163" lon="6.53322">
        <ele>1755</ele>
        <time>2022-07-17T04:29:30Z</time>
      </trkpt>
      <trkpt lat="45.7516" lon="6.53323">
        <ele>1755</ele>
        <time>2022-07-17T04:29:32Z</time>
      </trkpt>
      <trkpt lat="45.75158" lon="6.53323">
        <ele>1755</ele>
        <time>2022-07-17T04:29:34Z</time>
      </trkpt>
      <trkpt lat="45.75156" lon="6.53324">
        <ele>1755</ele>
        <time>2022-07-17T04:29:36Z</time>
      </trkpt>
      <trkpt lat="45.75153" lon="6.53325">
        <ele>1755</ele>
        <time>2022-07-17T04:29:38Z</time>
      </trkpt>
      <trkpt lat="45.7515" lon="6.53326">
        <ele>1755</ele>
        <time>2022-07-17T04:29:40Z</time>
      </trkpt>
      <trkpt lat="45.75148" lon="6.53327">
        <ele>1755</ele>
        <time>2022-07-17T04:29:42Z</time>
      </trkpt>
      <trkpt lat="45.75146" lon="6.53327">
        <ele>1755</ele>
        <time>2022-07-17T04:29:44Z</time>
      </trkpt>
      <trkpt lat="45.75144" lon="6.53328">
        <ele>1755</ele>
        <time>2022-07-17T04:29:46Z</time>
      </trkpt>
      <trkpt lat="45.75142" lon="6.53329">
        <ele>1755</ele>
        <time>2022-07-17T04:29:48Z</time>
      </trkpt>
      <trkpt lat="45.7514" lon="6.53329">
        <ele>1755</ele>
        <time>2022-07-17T04:29:50Z</time>
      </trkpt>
      <trkpt lat="45.75138" lon="6.5333">
        <ele>1755</ele>
        <time>2022-07-17T04:29:52Z</time>
      </trkpt>
      <trkpt lat="45.75136" lon="6.53331">
        <ele>1756</ele>
        <time>2022-07-17T04:29:54Z</time>
      </trkpt>
      <trkpt lat="45.75134" lon="6.53332">
        <ele>1757</ele>
        <time>2022-07-17T04:29:56Z</time>
      </trkpt>
      <trkpt lat="45.75133" lon="6.53333">
        <ele>1757</ele>
        <time>2022-07-17T04:29:58Z</time>
      </trkpt>
      <trkpt lat="45.75131" lon="6.53335">
        <ele>1758</ele>
        <time>2022-07-17T04:30:00Z</time>
      </trkpt>
      <trkpt lat="45.75129" lon="6.53335">
        <ele>1758</ele>
        <time>2022-07-17T04:30:02Z</time>
      </trkpt>
      <trkpt lat="45.75126" lon="6.53336">
        <ele>1758</ele>
        <time>2022-07-17T04:30:04Z</time>
      </trkpt>
      <trkpt lat="45.75124" lon="6.53337">
        <ele>1758</ele>
        <time>2022-07-17T04:30:06Z</time>
      </trkpt>
      <trkpt lat="45.75122" lon="6.53337">
        <ele>1758</ele>
        <time>2022-07-17T04:30:08Z</time>
      </trkpt>
      <trkpt lat="45.75119" lon="6.53338">
        <ele>1758</ele>
        <time>2022-07-17T04:30:10Z</time>
      </trkpt>
      <trkpt lat="45.75117" lon="6.53339">
        <ele>1758</ele>
        <time>2022-07-17T04:30:12Z</time>
      </trkpt>
      <trkpt lat="45.75115" lon="6.5334">
        <ele>1758</ele>
        <time>2022-07-17T04:30:14Z</time>
      </trkpt>
      <trkpt lat="45.75112" lon="6.53341">
        <ele>1758</ele>
        <time>2022-07-17T04:30:16Z</time>
      </trkpt>
      <trkpt lat="45.7511" lon="6.53342">
        <ele>1758</ele>
        <time>2022-07-17T04:30:18Z</time>
      </trkpt>
      <trkpt lat="45.75108" lon="6.53343">
        <ele>1758</ele>
        <time>2022-07-17T04:30:20Z</time>
      </trkpt>
      <trkpt lat="45.75105" lon="6.53344">
        <ele>1758</ele>
        <time>2022-07-17T04:30:22Z</time>
      </trkpt>
      <trkpt lat="45.75103" lon="6.53345">
        <ele>1758</ele>
        <time>2022-07-17T04:30:24Z</time>
      </trkpt>
      <trkpt lat="45.75101" lon="6.53346">
        <ele>1758</ele>
        <time>2022-07-17T04:30:26Z</time>
      </trkpt>
      <trkpt lat="45.75098" lon="6.53347">
        <ele>1758</ele>
        <time>2022-07-17T04:30:28Z</time>
      </trkpt>
      <trkpt lat="45.75096" lon="6.53348">
        <ele>1758</ele>
        <time>2022-07-17T04:30:30Z</time>
      </trkpt>
      <trkpt lat="45.75094" lon="6.53349">
        <ele>1758</ele>
        <time>2022-07-17T04:30:32Z</time>
      </trkpt>
      <trkpt lat="45.75091" lon="6.5335">
        <ele>1758</ele>
        <time>2022-07-17T04:30:34Z</time>
      </trkpt>
      <trkpt lat="45.75089" lon="6.53351">
        <ele>1758</ele>
        <time>2022-07-17T04:30:36Z</time>
      </trkpt>
      <trkpt lat="45.75087" lon="6.53352">
        <ele>1758</ele>
        <time>2022-07-17T04:30:38Z</time>
      </trkpt>
      <trkpt lat="45.75084" lon="6.53352">
        <ele>1759</ele>
        <time>2022-07-17T04:30:40Z</time>
      </trkpt>
      <trkpt lat="45.75082" lon="6.53352">
        <ele>1759</ele>
        <time>2022-07-17T04:30:42Z</time>
      </trkpt>
      <trkpt lat="45.7508" lon="6.53352">
        <ele>1760</ele>
        <time>2022-07-17T04:30:44Z</time>
      </trkpt>
      <trkpt lat="45.75078" lon="6.53353">
        <ele>1759</ele>
        <time>2022-07-17T04:30:46Z</time>
      </trkpt>
      <trkpt lat="45.75076" lon="6.53352">
        <ele>1760</ele>
        <time>2022-07-17T04:30:48Z</time>
      </trkpt>
      <trkpt lat="45.75073" lon="6.53352">
        <ele>1761</ele>
        <time>2022-07-17T04:30:51Z</time>
      </trkpt>
      <trkpt lat="45.75071" lon="6.53353">
        <ele>1761</ele>
        <time>2022-07-17T04:30:53Z</time>
      </trkpt>
      <trkpt lat="45.75069" lon="6.53354">
        <ele>1761</ele>
        <time>2022-07-17T04:30:55Z</time>
      </trkpt>
      <trkpt lat="45.75066" lon="6.53354">
        <ele>1762</ele>
        <time>2022-07-17T04:30:58Z</time>
      </trkpt>
      <trkpt lat="45.75064" lon="6.53355">
        <ele>1762</ele>
        <time>2022-07-17T04:31:01Z</time>
      </trkpt>
      <trkpt lat="45.75062" lon="6.53356">
        <ele>1762</ele>
        <time>2022-07-17T04:31:03Z</time>
      </trkpt>
      <trkpt lat="45.7506" lon="6.53357">
        <ele>1762</ele>
        <time>2022-07-17T04:31:05Z</time>
      </trkpt>
      <trkpt lat="45.75058" lon="6.53358">
        <ele>1762</ele>
        <time>2022-07-17T04:31:07Z</time>
      </trkpt>
      <trkpt lat="45.75056" lon="6.53358">
        <ele>1763</ele>
        <time>2022-07-17T04:31:09Z</time>
      </trkpt>
      <trkpt lat="45.75054" lon="6.53359">
        <ele>1764</ele>
        <time>2022-07-17T04:31:12Z</time>
      </trkpt>
      <trkpt lat="45.75051" lon="6.53359">
        <ele>1764</ele>
        <time>2022-07-17T04:31:14Z</time>
      </trkpt>
      <trkpt lat="45.7505" lon="6.53358">
        <ele>1764</ele>
        <time>2022-07-17T04:31:16Z</time>
      </trkpt>
      <trkpt lat="45.75048" lon="6.53358">
        <ele>1764</ele>
        <time>2022-07-17T04:31:18Z</time>
      </trkpt>
      <trkpt lat="45.75046" lon="6.53357">
        <ele>1764</ele>
        <time>2022-07-17T04:31:20Z</time>
      </trkpt>
      <trkpt lat="45.75044" lon="6.53357">
        <ele>1765</ele>
        <time>2022-07-17T04:31:22Z</time>
      </trkpt>
      <trkpt lat="45.75041" lon="6.53357">
        <ele>1765</ele>
        <time>2022-07-17T04:31:24Z</time>
      </trkpt>
      <trkpt lat="45.75039" lon="6.53357">
        <ele>1765</ele>
        <time>2022-07-17T04:31:26Z</time>
      </trkpt>
      <trkpt lat="45.75037" lon="6.53357">
        <ele>1765</ele>
        <time>2022-07-17T04:31:28Z</time>
      </trkpt>
      <trkpt lat="45.75034" lon="6.53357">
        <ele>1765</ele>
        <time>2022-07-17T04:31:30Z</time>
      </trkpt>
      <trkpt lat="45.75033" lon="6.53357">
        <ele>1765</ele>
        <time>2022-07-17T04:31:32Z</time>
      </trkpt>
      <trkpt lat="45.7503" lon="6.53357">
        <ele>1766</ele>
        <time>2022-07-17T04:31:34Z</time>
      </trkpt>
      <trkpt lat="45.75028" lon="6.53357">
        <ele>1766</ele>
        <time>2022-07-17T04:31:36Z</time>
      </trkpt>
      <trkpt lat="45.75026" lon="6.53357">
        <ele>1766</ele>
        <time>2022-07-17T04:31:38Z</time>
      </trkpt>
      <trkpt lat="45.75024" lon="6.53357">
        <ele>1766</ele>
        <time>2022-07-17T04:31:40Z</time>
      </trkpt>
      <trkpt lat="45.75022" lon="6.53357">
        <ele>1766</ele>
        <time>2022-07-17T04:31:42Z</time>
      </trkpt>
      <trkpt lat="45.7502" lon="6.53356">
        <ele>1766</ele>
        <time>2022-07-17T04:31:44Z</time>
      </trkpt>
      <trkpt lat="45.75018" lon="6.53356">
        <ele>1767</ele>
        <time>2022-07-17T04:31:46Z</time>
      </trkpt>
      <trkpt lat="45.75016" lon="6.53356">
        <ele>1767</ele>
        <time>2022-07-17T04:31:48Z</time>
      </trkpt>
      <trkpt lat="45.75014" lon="6.53356">
        <ele>1768</ele>
        <time>2022-07-17T04:31:50Z</time>
      </trkpt>
      <trkpt lat="45.75012" lon="6.53356">
        <ele>1768</ele>
        <time>2022-07-17T04:31:52Z</time>
      </trkpt>
      <trkpt lat="45.7501" lon="6.53356">
        <ele>1768</ele>
        <time>2022-07-17T04:31:54Z</time>
      </trkpt>
      <trkpt lat="45.75008" lon="6.53356">
        <ele>1768</ele>
        <time>2022-07-17T04:31:56Z</time>
      </trkpt>
      <trkpt lat="45.75005" lon="6.53355">
        <ele>1768</ele>
        <time>2022-07-17T04:31:58Z</time>
      </trkpt>
      <trkpt lat="45.75003" lon="6.53355">
        <ele>1769</ele>
        <time>2022-07-17T04:32:00Z</time>
      </trkpt>
      <trkpt lat="45.75001" lon="6.53355">
        <ele>1769</ele>
        <time>2022-07-17T04:32:02Z</time>
      </trkpt>
      <trkpt lat="45.74998" lon="6.53355">
        <ele>1769</ele>
        <time>2022-07-17T04:32:04Z</time>
      </trkpt>
      <trkpt lat="45.74996" lon="6.53355">
        <ele>1769</ele>
        <time>2022-07-17T04:32:06Z</time>
      </trkpt>
      <trkpt lat="45.74994" lon="6.53354">
        <ele>1769</ele>
        <time>2022-07-17T04:32:08Z</time>
      </trkpt>
      <trkpt lat="45.74992" lon="6.53355">
        <ele>1770</ele>
        <time>2022-07-17T04:32:10Z</time>
      </trkpt>
      <trkpt lat="45.74989" lon="6.53355">
        <ele>1770</ele>
        <time>2022-07-17T04:32:12Z</time>
      </trkpt>
      <trkpt lat="45.74987" lon="6.53354">
        <ele>1770</ele>
        <time>2022-07-17T04:32:14Z</time>
      </trkpt>
      <trkpt lat="45.74985" lon="6.53354">
        <ele>1771</ele>
        <time>2022-07-17T04:32:16Z</time>
      </trkpt>
      <trkpt lat="45.74983" lon="6.53354">
        <ele>1771</ele>
        <time>2022-07-17T04:32:18Z</time>
      </trkpt>
      <trkpt lat="45.74981" lon="6.53354">
        <ele>1772</ele>
        <time>2022-07-17T04:32:21Z</time>
      </trkpt>
      <trkpt lat="45.74978" lon="6.53354">
        <ele>1773</ele>
        <time>2022-07-17T04:32:24Z</time>
      </trkpt>
      <trkpt lat="45.74976" lon="6.53355">
        <ele>1773</ele>
        <time>2022-07-17T04:32:27Z</time>
      </trkpt>
      <trkpt lat="45.74973" lon="6.53355">
        <ele>1773</ele>
        <time>2022-07-17T04:32:30Z</time>
      </trkpt>
      <trkpt lat="45.7497" lon="6.53354">
        <ele>1774</ele>
        <time>2022-07-17T04:32:33Z</time>
      </trkpt>
      <trkpt lat="45.74969" lon="6.53354">
        <ele>1775</ele>
        <time>2022-07-17T04:32:35Z</time>
      </trkpt>
      <trkpt lat="45.74966" lon="6.53354">
        <ele>1775</ele>
        <time>2022-07-17T04:32:38Z</time>
      </trkpt>
      <trkpt lat="45.74964" lon="6.53353">
        <ele>1775</ele>
        <time>2022-07-17T04:32:41Z</time>
      </trkpt>
      <trkpt lat="45.74961" lon="6.53354">
        <ele>1776</ele>
        <time>2022-07-17T04:32:44Z</time>
      </trkpt>
      <trkpt lat="45.74959" lon="6.53355">
        <ele>1776</ele>
        <time>2022-07-17T04:32:46Z</time>
      </trkpt>
      <trkpt lat="45.74957" lon="6.53356">
        <ele>1776</ele>
        <time>2022-07-17T04:32:48Z</time>
      </trkpt>
      <trkpt lat="45.74955" lon="6.53357">
        <ele>1776</ele>
        <time>2022-07-17T04:32:50Z</time>
      </trkpt>
      <trkpt lat="45.74953" lon="6.53357">
        <ele>1777</ele>
        <time>2022-07-17T04:32:52Z</time>
      </trkpt>
      <trkpt lat="45.74953" lon="6.53354">
        <ele>1777</ele>
        <time>2022-07-17T04:32:55Z</time>
      </trkpt>
      <trkpt lat="45.74955" lon="6.53352">
        <ele>1777</ele>
        <time>2022-07-17T04:32:57Z</time>
      </trkpt>
      <trkpt lat="45.74955" lon="6.53349">
        <ele>1777</ele>
        <time>2022-07-17T04:32:59Z</time>
      </trkpt>
      <trkpt lat="45.74954" lon="6.53346">
        <ele>1777</ele>
        <time>2022-07-17T04:33:01Z</time>
      </trkpt>
      <trkpt lat="45.74954" lon="6.53343">
        <ele>1777</ele>
        <time>2022-07-17T04:33:03Z</time>
      </trkpt>
      <trkpt lat="45.74953" lon="6.5334">
        <ele>1777</ele>
        <time>2022-07-17T04:33:06Z</time>
      </trkpt>
      <trkpt lat="45.74953" lon="6.53336">
        <ele>1778</ele>
        <time>2022-07-17T04:33:09Z</time>
      </trkpt>
      <trkpt lat="45.74951" lon="6.53333">
        <ele>1778</ele>
        <time>2022-07-17T04:33:12Z</time>
      </trkpt>
      <trkpt lat="45.7495" lon="6.5333">
        <ele>1778</ele>
        <time>2022-07-17T04:33:14Z</time>
      </trkpt>
      <trkpt lat="45.7495" lon="6.53328">
        <ele>1778</ele>
        <time>2022-07-17T04:33:16Z</time>
      </trkpt>
      <trkpt lat="45.74949" lon="6.53324">
        <ele>1779</ele>
        <time>2022-07-17T04:33:19Z</time>
      </trkpt>
      <trkpt lat="45.74948" lon="6.53321">
        <ele>1780</ele>
        <time>2022-07-17T04:33:22Z</time>
      </trkpt>
      <trkpt lat="45.74947" lon="6.53318">
        <ele>1780</ele>
        <time>2022-07-17T04:33:25Z</time>
      </trkpt>
      <trkpt lat="45.74946" lon="6.53315">
        <ele>1781</ele>
        <time>2022-07-17T04:33:28Z</time>
      </trkpt>
      <trkpt lat="45.74946" lon="6.53312">
        <ele>1781</ele>
        <time>2022-07-17T04:33:31Z</time>
      </trkpt>
      <trkpt lat="45.74946" lon="6.53308">
        <ele>1782</ele>
        <time>2022-07-17T04:33:34Z</time>
      </trkpt>
      <trkpt lat="45.74945" lon="6.53305">
        <ele>1782</ele>
        <time>2022-07-17T04:33:37Z</time>
      </trkpt>
      <trkpt lat="45.74943" lon="6.53303">
        <ele>1783</ele>
        <time>2022-07-17T04:33:40Z</time>
      </trkpt>
      <trkpt lat="45.74941" lon="6.53302">
        <ele>1784</ele>
        <time>2022-07-17T04:33:42Z</time>
      </trkpt>
      <trkpt lat="45.7494" lon="6.53301">
        <ele>1784</ele>
        <time>2022-07-17T04:33:44Z</time>
      </trkpt>
      <trkpt lat="45.74937" lon="6.533">
        <ele>1784</ele>
        <time>2022-07-17T04:33:47Z</time>
      </trkpt>
      <trkpt lat="45.74935" lon="6.53299">
        <ele>1785</ele>
        <time>2022-07-17T04:33:50Z</time>
      </trkpt>
      <trkpt lat="45.74933" lon="6.53299">
        <ele>1785</ele>
        <time>2022-07-17T04:33:53Z</time>
      </trkpt>
      <trkpt lat="45.74931" lon="6.53298">
        <ele>1786</ele>
        <time>2022-07-17T04:33:56Z</time>
      </trkpt>
      <trkpt lat="45.74929" lon="6.53298">
        <ele>1786</ele>
        <time>2022-07-17T04:33:59Z</time>
      </trkpt>
      <trkpt lat="45.74927" lon="6.53298">
        <ele>1786</ele>
        <time>2022-07-17T04:34:02Z</time>
      </trkpt>
      <trkpt lat="45.74925" lon="6.53297">
        <ele>1787</ele>
        <time>2022-07-17T04:34:05Z</time>
      </trkpt>
      <trkpt lat="45.74923" lon="6.53296">
        <ele>1788</ele>
        <time>2022-07-17T04:34:08Z</time>
      </trkpt>
      <trkpt lat="45.74921" lon="6.53296">
        <ele>1788</ele>
        <time>2022-07-17T04:34:11Z</time>
      </trkpt>
      <trkpt lat="45.74918" lon="6.53295">
        <ele>1789</ele>
        <time>2022-07-17T04:34:14Z</time>
      </trkpt>
      <trkpt lat="45.74916" lon="6.53294">
        <ele>1790</ele>
        <time>2022-07-17T04:34:17Z</time>
      </trkpt>
      <trkpt lat="45.74913" lon="6.53292">
        <ele>1790</ele>
        <time>2022-07-17T04:34:20Z</time>
      </trkpt>
      <trkpt lat="45.74912" lon="6.53291">
        <ele>1790</ele>
        <time>2022-07-17T04:34:25Z</time>
      </trkpt>
      <trkpt lat="45.7491" lon="6.5329">
        <ele>1790</ele>
        <time>2022-07-17T04:34:27Z</time>
      </trkpt>
      <trkpt lat="45.74909" lon="6.53288">
        <ele>1790</ele>
        <time>2022-07-17T04:34:29Z</time>
      </trkpt>
      <trkpt lat="45.74908" lon="6.53285">
        <ele>1791</ele>
        <time>2022-07-17T04:34:31Z</time>
      </trkpt>
      <trkpt lat="45.74907" lon="6.53282">
        <ele>1791</ele>
        <time>2022-07-17T04:34:34Z</time>
      </trkpt>
      <trkpt lat="45.74905" lon="6.53279">
        <ele>1792</ele>
        <time>2022-07-17T04:34:37Z</time>
      </trkpt>
      <trkpt lat="45.74903" lon="6.53276">
        <ele>1792</ele>
        <time>2022-07-17T04:34:40Z</time>
      </trkpt>
      <trkpt lat="45.74902" lon="6.53274">
        <ele>1792</ele>
        <time>2022-07-17T04:34:43Z</time>
      </trkpt>
      <trkpt lat="45.74901" lon="6.53271">
        <ele>1792</ele>
        <time>2022-07-17T04:34:46Z</time>
      </trkpt>
      <trkpt lat="45.74899" lon="6.53268">
        <ele>1793</ele>
        <time>2022-07-17T04:34:49Z</time>
      </trkpt>
      <trkpt lat="45.74897" lon="6.53267">
        <ele>1793</ele>
        <time>2022-07-17T04:34:51Z</time>
      </trkpt>
      <trkpt lat="45.74895" lon="6.53264">
        <ele>1794</ele>
        <time>2022-07-17T04:34:54Z</time>
      </trkpt>
      <trkpt lat="45.74893" lon="6.53262">
        <ele>1794</ele>
        <time>2022-07-17T04:34:57Z</time>
      </trkpt>
      <trkpt lat="45.74892" lon="6.53261">
        <ele>1795</ele>
        <time>2022-07-17T04:35:00Z</time>
      </trkpt>
      <trkpt lat="45.7489" lon="6.53258">
        <ele>1795</ele>
        <time>2022-07-17T04:35:03Z</time>
      </trkpt>
      <trkpt lat="45.74888" lon="6.53257">
        <ele>1796</ele>
        <time>2022-07-17T04:35:06Z</time>
      </trkpt>
      <trkpt lat="45.74887" lon="6.53255">
        <ele>1796</ele>
        <time>2022-07-17T04:35:08Z</time>
      </trkpt>
      <trkpt lat="45.74885" lon="6.53253">
        <ele>1796</ele>
        <time>2022-07-17T04:35:10Z</time>
      </trkpt>
      <trkpt lat="45.74884" lon="6.53251">
        <ele>1796</ele>
        <time>2022-07-17T04:35:12Z</time>
      </trkpt>
      <trkpt lat="45.74883" lon="6.53249">
        <ele>1796</ele>
        <time>2022-07-17T04:35:14Z</time>
      </trkpt>
      <trkpt lat="45.74881" lon="6.53247">
        <ele>1797</ele>
        <time>2022-07-17T04:35:16Z</time>
      </trkpt>
      <trkpt lat="45.7488" lon="6.53245">
        <ele>1797</ele>
        <time>2022-07-17T04:35:19Z</time>
      </trkpt>
      <trkpt lat="45.74879" lon="6.53241">
        <ele>1797</ele>
        <time>2022-07-17T04:35:21Z</time>
      </trkpt>
      <trkpt lat="45.74878" lon="6.53239">
        <ele>1799</ele>
        <time>2022-07-17T04:35:24Z</time>
      </trkpt>
      <trkpt lat="45.74875" lon="6.53239">
        <ele>1799</ele>
        <time>2022-07-17T04:35:28Z</time>
      </trkpt>
      <trkpt lat="45.74873" lon="6.53237">
        <ele>1799</ele>
        <time>2022-07-17T04:35:31Z</time>
      </trkpt>
      <trkpt lat="45.74872" lon="6.53234">
        <ele>1800</ele>
        <time>2022-07-17T04:35:35Z</time>
      </trkpt>
      <trkpt lat="45.74871" lon="6.53233">
        <ele>1800</ele>
        <time>2022-07-17T04:35:37Z</time>
      </trkpt>
      <trkpt lat="45.74869" lon="6.53231">
        <ele>1800</ele>
        <time>2022-07-17T04:35:40Z</time>
      </trkpt>
      <trkpt lat="45.74867" lon="6.53229">
        <ele>1800</ele>
        <time>2022-07-17T04:35:41Z</time>
      </trkpt>
      <trkpt lat="45.74866" lon="6.53227">
        <ele>1801</ele>
        <time>2022-07-17T04:35:44Z</time>
      </trkpt>
      <trkpt lat="45.74864" lon="6.53226">
        <ele>1801</ele>
        <time>2022-07-17T04:35:47Z</time>
      </trkpt>
      <trkpt lat="45.74862" lon="6.53226">
        <ele>1802</ele>
        <time>2022-07-17T04:35:49Z</time>
      </trkpt>
      <trkpt lat="45.7486" lon="6.53226">
        <ele>1802</ele>
        <time>2022-07-17T04:35:51Z</time>
      </trkpt>
      <trkpt lat="45.74857" lon="6.53226">
        <ele>1803</ele>
        <time>2022-07-17T04:35:53Z</time>
      </trkpt>
      <trkpt lat="45.74854" lon="6.53225">
        <ele>1803</ele>
        <time>2022-07-17T04:35:55Z</time>
      </trkpt>
      <trkpt lat="45.74852" lon="6.53223">
        <ele>1803</ele>
        <time>2022-07-17T04:35:57Z</time>
      </trkpt>
      <trkpt lat="45.74851" lon="6.53219">
        <ele>1803</ele>
        <time>2022-07-17T04:35:59Z</time>
      </trkpt>
      <trkpt lat="45.74851" lon="6.53216">
        <ele>1802</ele>
        <time>2022-07-17T04:36:01Z</time>
      </trkpt>
      <trkpt lat="45.74852" lon="6.53212">
        <ele>1802</ele>
        <time>2022-07-17T04:36:03Z</time>
      </trkpt>
      <trkpt lat="45.74852" lon="6.53209">
        <ele>1803</ele>
        <time>2022-07-17T04:36:05Z</time>
      </trkpt>
      <trkpt lat="45.74853" lon="6.53207">
        <ele>1804</ele>
        <time>2022-07-17T04:36:07Z</time>
      </trkpt>
      <trkpt lat="45.74854" lon="6.53204">
        <ele>1804</ele>
        <time>2022-07-17T04:36:10Z</time>
      </trkpt>
      <trkpt lat="45.74855" lon="6.532">
        <ele>1804</ele>
        <time>2022-07-17T04:36:13Z</time>
      </trkpt>
      <trkpt lat="45.74856" lon="6.53198">
        <ele>1805</ele>
        <time>2022-07-17T04:36:15Z</time>
      </trkpt>
      <trkpt lat="45.74858" lon="6.53196">
        <ele>1805</ele>
        <time>2022-07-17T04:36:17Z</time>
      </trkpt>
      <trkpt lat="45.74858" lon="6.53193">
        <ele>1805</ele>
        <time>2022-07-17T04:36:20Z</time>
      </trkpt>
      <trkpt lat="45.7486" lon="6.5319">
        <ele>1805</ele>
        <time>2022-07-17T04:36:23Z</time>
      </trkpt>
      <trkpt lat="45.74861" lon="6.53187">
        <ele>1805</ele>
        <time>2022-07-17T04:36:25Z</time>
      </trkpt>
      <trkpt lat="45.74862" lon="6.53184">
        <ele>1806</ele>
        <time>2022-07-17T04:36:27Z</time>
      </trkpt>
      <trkpt lat="45.74863" lon="6.53182">
        <ele>1806</ele>
        <time>2022-07-17T04:36:29Z</time>
      </trkpt>
      <trkpt lat="45.74864" lon="6.53179">
        <ele>1807</ele>
        <time>2022-07-17T04:36:31Z</time>
      </trkpt>
      <trkpt lat="45.74865" lon="6.53175">
        <ele>1807</ele>
        <time>2022-07-17T04:36:34Z</time>
      </trkpt>
      <trkpt lat="45.74867" lon="6.53172">
        <ele>1807</ele>
        <time>2022-07-17T04:36:37Z</time>
      </trkpt>
      <trkpt lat="45.74868" lon="6.53169">
        <ele>1807</ele>
        <time>2022-07-17T04:36:39Z</time>
      </trkpt>
      <trkpt lat="45.74868" lon="6.53167">
        <ele>1807</ele>
        <time>2022-07-17T04:36:41Z</time>
      </trkpt>
      <trkpt lat="45.74868" lon="6.53164">
        <ele>1808</ele>
        <time>2022-07-17T04:36:44Z</time>
      </trkpt>
      <trkpt lat="45.74867" lon="6.53161">
        <ele>1809</ele>
        <time>2022-07-17T04:36:47Z</time>
      </trkpt>
      <trkpt lat="45.74866" lon="6.53158">
        <ele>1809</ele>
        <time>2022-07-17T04:36:50Z</time>
      </trkpt>
      <trkpt lat="45.74865" lon="6.53155">
        <ele>1810</ele>
        <time>2022-07-17T04:36:53Z</time>
      </trkpt>
      <trkpt lat="45.74863" lon="6.53152">
        <ele>1810</ele>
        <time>2022-07-17T04:36:56Z</time>
      </trkpt>
      <trkpt lat="45.74862" lon="6.53149">
        <ele>1810</ele>
        <time>2022-07-17T04:36:59Z</time>
      </trkpt>
      <trkpt lat="45.7486" lon="6.53147">
        <ele>1810</ele>
        <time>2022-07-17T04:37:01Z</time>
      </trkpt>
      <trkpt lat="45.74859" lon="6.53145">
        <ele>1810</ele>
        <time>2022-07-17T04:37:03Z</time>
      </trkpt>
      <trkpt lat="45.74858" lon="6.53142">
        <ele>1811</ele>
        <time>2022-07-17T04:37:05Z</time>
      </trkpt>
      <trkpt lat="45.74858" lon="6.53139">
        <ele>1811</ele>
        <time>2022-07-17T04:37:07Z</time>
      </trkpt>
      <trkpt lat="45.74857" lon="6.53137">
        <ele>1811</ele>
        <time>2022-07-17T04:37:09Z</time>
      </trkpt>
      <trkpt lat="45.74856" lon="6.53134">
        <ele>1811</ele>
        <time>2022-07-17T04:37:11Z</time>
      </trkpt>
      <trkpt lat="45.74855" lon="6.53131">
        <ele>1812</ele>
        <time>2022-07-17T04:37:13Z</time>
      </trkpt>
      <trkpt lat="45.74854" lon="6.53128">
        <ele>1813</ele>
        <time>2022-07-17T04:37:16Z</time>
      </trkpt>
      <trkpt lat="45.74853" lon="6.53124">
        <ele>1813</ele>
        <time>2022-07-17T04:37:19Z</time>
      </trkpt>
      <trkpt lat="45.74853" lon="6.53122">
        <ele>1813</ele>
        <time>2022-07-17T04:37:21Z</time>
      </trkpt>
      <trkpt lat="45.74852" lon="6.53119">
        <ele>1813</ele>
        <time>2022-07-17T04:37:23Z</time>
      </trkpt>
      <trkpt lat="45.74851" lon="6.53117">
        <ele>1813</ele>
        <time>2022-07-17T04:37:26Z</time>
      </trkpt>
      <trkpt lat="45.74849" lon="6.53116">
        <ele>1813</ele>
        <time>2022-07-17T04:37:28Z</time>
      </trkpt>
      <trkpt lat="45.74846" lon="6.53114">
        <ele>1814</ele>
        <time>2022-07-17T04:37:31Z</time>
      </trkpt>
      <trkpt lat="45.74844" lon="6.53112">
        <ele>1815</ele>
        <time>2022-07-17T04:37:34Z</time>
      </trkpt>
      <trkpt lat="45.74842" lon="6.5311">
        <ele>1816</ele>
        <time>2022-07-17T04:37:37Z</time>
      </trkpt>
      <trkpt lat="45.7484" lon="6.53109">
        <ele>1817</ele>
        <time>2022-07-17T04:37:40Z</time>
      </trkpt>
      <trkpt lat="45.74839" lon="6.53106">
        <ele>1817</ele>
        <time>2022-07-17T04:37:42Z</time>
      </trkpt>
      <trkpt lat="45.74838" lon="6.53104">
        <ele>1817</ele>
        <time>2022-07-17T04:37:44Z</time>
      </trkpt>
      <trkpt lat="45.74838" lon="6.53101">
        <ele>1817</ele>
        <time>2022-07-17T04:37:46Z</time>
      </trkpt>
      <trkpt lat="45.74836" lon="6.53098">
        <ele>1817</ele>
        <time>2022-07-17T04:37:49Z</time>
      </trkpt>
      <trkpt lat="45.74834" lon="6.53094">
        <ele>1817</ele>
        <time>2022-07-17T04:37:53Z</time>
      </trkpt>
      <trkpt lat="45.74832" lon="6.53092">
        <ele>1817</ele>
        <time>2022-07-17T04:37:55Z</time>
      </trkpt>
      <trkpt lat="45.74831" lon="6.5309">
        <ele>1817</ele>
        <time>2022-07-17T04:37:57Z</time>
      </trkpt>
      <trkpt lat="45.74829" lon="6.53088">
        <ele>1818</ele>
        <time>2022-07-17T04:37:59Z</time>
      </trkpt>
      <trkpt lat="45.74827" lon="6.53086">
        <ele>1818</ele>
        <time>2022-07-17T04:38:01Z</time>
      </trkpt>
      <trkpt lat="45.74826" lon="6.53084">
        <ele>1818</ele>
        <time>2022-07-17T04:38:04Z</time>
      </trkpt>
      <trkpt lat="45.74824" lon="6.53081">
        <ele>1819</ele>
        <time>2022-07-17T04:38:07Z</time>
      </trkpt>
      <trkpt lat="45.74822" lon="6.53079">
        <ele>1819</ele>
        <time>2022-07-17T04:38:10Z</time>
      </trkpt>
      <trkpt lat="45.74821" lon="6.53077">
        <ele>1821</ele>
        <time>2022-07-17T04:38:13Z</time>
      </trkpt>
      <trkpt lat="45.74819" lon="6.53075">
        <ele>1821</ele>
        <time>2022-07-17T04:38:16Z</time>
      </trkpt>
      <trkpt lat="45.74818" lon="6.53072">
        <ele>1821</ele>
        <time>2022-07-17T04:38:18Z</time>
      </trkpt>
      <trkpt lat="45.74817" lon="6.5307">
        <ele>1821</ele>
        <time>2022-07-17T04:38:20Z</time>
      </trkpt>
      <trkpt lat="45.74817" lon="6.53067">
        <ele>1821</ele>
        <time>2022-07-17T04:38:22Z</time>
      </trkpt>
      <trkpt lat="45.74817" lon="6.53064">
        <ele>1821</ele>
        <time>2022-07-17T04:38:24Z</time>
      </trkpt>
      <trkpt lat="45.74816" lon="6.5306">
        <ele>1822</ele>
        <time>2022-07-17T04:38:27Z</time>
      </trkpt>
      <trkpt lat="45.74814" lon="6.53057">
        <ele>1822</ele>
        <time>2022-07-17T04:38:30Z</time>
      </trkpt>
      <trkpt lat="45.74813" lon="6.53054">
        <ele>1822</ele>
        <time>2022-07-17T04:38:33Z</time>
      </trkpt>
      <trkpt lat="45.74812" lon="6.53051">
        <ele>1822</ele>
        <time>2022-07-17T04:38:35Z</time>
      </trkpt>
      <trkpt lat="45.74812" lon="6.53048">
        <ele>1822</ele>
        <time>2022-07-17T04:38:37Z</time>
      </trkpt>
      <trkpt lat="45.74812" lon="6.53045">
        <ele>1822</ele>
        <time>2022-07-17T04:38:39Z</time>
      </trkpt>
      <trkpt lat="45.74812" lon="6.53042">
        <ele>1822</ele>
        <time>2022-07-17T04:38:41Z</time>
      </trkpt>
      <trkpt lat="45.74812" lon="6.53039">
        <ele>1823</ele>
        <time>2022-07-17T04:38:43Z</time>
      </trkpt>
      <trkpt lat="45.74812" lon="6.53036">
        <ele>1823</ele>
        <time>2022-07-17T04:38:45Z</time>
      </trkpt>
      <trkpt lat="45.74811" lon="6.53032">
        <ele>1823</ele>
        <time>2022-07-17T04:38:48Z</time>
      </trkpt>
      <trkpt lat="45.74811" lon="6.53028">
        <ele>1824</ele>
        <time>2022-07-17T04:38:51Z</time>
      </trkpt>
      <trkpt lat="45.7481" lon="6.53025">
        <ele>1824</ele>
        <time>2022-07-17T04:38:54Z</time>
      </trkpt>
      <trkpt lat="45.74809" lon="6.53021">
        <ele>1825</ele>
        <time>2022-07-17T04:38:57Z</time>
      </trkpt>
      <trkpt lat="45.74808" lon="6.53019">
        <ele>1825</ele>
        <time>2022-07-17T04:38:59Z</time>
      </trkpt>
      <trkpt lat="45.74807" lon="6.53016">
        <ele>1825</ele>
        <time>2022-07-17T04:39:01Z</time>
      </trkpt>
      <trkpt lat="45.74806" lon="6.53014">
        <ele>1825</ele>
        <time>2022-07-17T04:39:03Z</time>
      </trkpt>
      <trkpt lat="45.74805" lon="6.53011">
        <ele>1826</ele>
        <time>2022-07-17T04:39:06Z</time>
      </trkpt>
      <trkpt lat="45.74803" lon="6.53009">
        <ele>1826</ele>
        <time>2022-07-17T04:39:09Z</time>
      </trkpt>
      <trkpt lat="45.74801" lon="6.53007">
        <ele>1826</ele>
        <time>2022-07-17T04:39:11Z</time>
      </trkpt>
      <trkpt lat="45.748" lon="6.53004">
        <ele>1826</ele>
        <time>2022-07-17T04:39:14Z</time>
      </trkpt>
      <trkpt lat="45.74799" lon="6.53">
        <ele>1826</ele>
        <time>2022-07-17T04:39:17Z</time>
      </trkpt>
      <trkpt lat="45.74799" lon="6.52997">
        <ele>1827</ele>
        <time>2022-07-17T04:39:19Z</time>
      </trkpt>
      <trkpt lat="45.74798" lon="6.52994">
        <ele>1828</ele>
        <time>2022-07-17T04:39:22Z</time>
      </trkpt>
      <trkpt lat="45.74797" lon="6.52991">
        <ele>1828</ele>
        <time>2022-07-17T04:39:24Z</time>
      </trkpt>
      <trkpt lat="45.74796" lon="6.52988">
        <ele>1828</ele>
        <time>2022-07-17T04:39:26Z</time>
      </trkpt>
      <trkpt lat="45.74796" lon="6.52984">
        <ele>1828</ele>
        <time>2022-07-17T04:39:28Z</time>
      </trkpt>
      <trkpt lat="45.74797" lon="6.52981">
        <ele>1828</ele>
        <time>2022-07-17T04:39:30Z</time>
      </trkpt>
      <trkpt lat="45.74798" lon="6.52978">
        <ele>1828</ele>
        <time>2022-07-17T04:39:32Z</time>
      </trkpt>
      <trkpt lat="45.74798" lon="6.52974">
        <ele>1828</ele>
        <time>2022-07-17T04:39:34Z</time>
      </trkpt>
      <trkpt lat="45.74798" lon="6.52971">
        <ele>1829</ele>
        <time>2022-07-17T04:39:36Z</time>
      </trkpt>
      <trkpt lat="45.74798" lon="6.52968">
        <ele>1829</ele>
        <time>2022-07-17T04:39:38Z</time>
      </trkpt>
      <trkpt lat="45.74797" lon="6.52965">
        <ele>1829</ele>
        <time>2022-07-17T04:39:40Z</time>
      </trkpt>
      <trkpt lat="45.74796" lon="6.52963">
        <ele>1829</ele>
        <time>2022-07-17T04:39:42Z</time>
      </trkpt>
      <trkpt lat="45.74794" lon="6.52961">
        <ele>1829</ele>
        <time>2022-07-17T04:39:44Z</time>
      </trkpt>
      <trkpt lat="45.74792" lon="6.52959">
        <ele>1829</ele>
        <time>2022-07-17T04:39:47Z</time>
      </trkpt>
      <trkpt lat="45.7479" lon="6.52957">
        <ele>1829</ele>
        <time>2022-07-17T04:39:48Z</time>
      </trkpt>
      <trkpt lat="45.74789" lon="6.52954">
        <ele>1829</ele>
        <time>2022-07-17T04:39:50Z</time>
      </trkpt>
      <trkpt lat="45.74788" lon="6.52952">
        <ele>1829</ele>
        <time>2022-07-17T04:39:52Z</time>
      </trkpt>
      <trkpt lat="45.74786" lon="6.52949">
        <ele>1829</ele>
        <time>2022-07-17T04:39:54Z</time>
      </trkpt>
      <trkpt lat="45.74784" lon="6.52946">
        <ele>1830</ele>
        <time>2022-07-17T04:39:56Z</time>
      </trkpt>
      <trkpt lat="45.74783" lon="6.52944">
        <ele>1830</ele>
        <time>2022-07-17T04:39:58Z</time>
      </trkpt>
      <trkpt lat="45.74781" lon="6.52942">
        <ele>1830</ele>
        <time>2022-07-17T04:40:00Z</time>
      </trkpt>
      <trkpt lat="45.7478" lon="6.52939">
        <ele>1831</ele>
        <time>2022-07-17T04:40:02Z</time>
      </trkpt>
      <trkpt lat="45.74779" lon="6.52936">
        <ele>1831</ele>
        <time>2022-07-17T04:40:04Z</time>
      </trkpt>
      <trkpt lat="45.74778" lon="6.52933">
        <ele>1831</ele>
        <time>2022-07-17T04:40:06Z</time>
      </trkpt>
      <trkpt lat="45.74779" lon="6.5293">
        <ele>1831</ele>
        <time>2022-07-17T04:40:08Z</time>
      </trkpt>
      <trkpt lat="45.74779" lon="6.52926">
        <ele>1831</ele>
        <time>2022-07-17T04:40:10Z</time>
      </trkpt>
      <trkpt lat="45.74779" lon="6.52922">
        <ele>1831</ele>
        <time>2022-07-17T04:40:12Z</time>
      </trkpt>
      <trkpt lat="45.7478" lon="6.52919">
        <ele>1831</ele>
        <time>2022-07-17T04:40:14Z</time>
      </trkpt>
      <trkpt lat="45.7478" lon="6.52915">
        <ele>1831</ele>
        <time>2022-07-17T04:40:16Z</time>
      </trkpt>
      <trkpt lat="45.74781" lon="6.52911">
        <ele>1831</ele>
        <time>2022-07-17T04:40:18Z</time>
      </trkpt>
      <trkpt lat="45.74781" lon="6.52907">
        <ele>1832</ele>
        <time>2022-07-17T04:40:20Z</time>
      </trkpt>
      <trkpt lat="45.74782" lon="6.52904">
        <ele>1832</ele>
        <time>2022-07-17T04:40:22Z</time>
      </trkpt>
      <trkpt lat="45.74783" lon="6.529">
        <ele>1832</ele>
        <time>2022-07-17T04:40:25Z</time>
      </trkpt>
      <trkpt lat="45.74783" lon="6.52897">
        <ele>1832</ele>
        <time>2022-07-17T04:40:26Z</time>
      </trkpt>
      <trkpt lat="45.74784" lon="6.52893">
        <ele>1831</ele>
        <time>2022-07-17T04:40:28Z</time>
      </trkpt>
      <trkpt lat="45.74784" lon="6.5289">
        <ele>1832</ele>
        <time>2022-07-17T04:40:30Z</time>
      </trkpt>
      <trkpt lat="45.74784" lon="6.52887">
        <ele>1832</ele>
        <time>2022-07-17T04:40:32Z</time>
      </trkpt>
      <trkpt lat="45.74783" lon="6.52883">
        <ele>1832</ele>
        <time>2022-07-17T04:40:34Z</time>
      </trkpt>
      <trkpt lat="45.74783" lon="6.5288">
        <ele>1832</ele>
        <time>2022-07-17T04:40:36Z</time>
      </trkpt>
      <trkpt lat="45.74782" lon="6.52877">
        <ele>1832</ele>
        <time>2022-07-17T04:40:38Z</time>
      </trkpt>
      <trkpt lat="45.74782" lon="6.52874">
        <ele>1832</ele>
        <time>2022-07-17T04:40:40Z</time>
      </trkpt>
      <trkpt lat="45.74781" lon="6.52871">
        <ele>1832</ele>
        <time>2022-07-17T04:40:42Z</time>
      </trkpt>
      <trkpt lat="45.74781" lon="6.52868">
        <ele>1832</ele>
        <time>2022-07-17T04:40:44Z</time>
      </trkpt>
      <trkpt lat="45.74781" lon="6.52865">
        <ele>1833</ele>
        <time>2022-07-17T04:40:46Z</time>
      </trkpt>
      <trkpt lat="45.7478" lon="6.52863">
        <ele>1833</ele>
        <time>2022-07-17T04:40:48Z</time>
      </trkpt>
      <trkpt lat="45.7478" lon="6.5286">
        <ele>1833</ele>
        <time>2022-07-17T04:40:50Z</time>
      </trkpt>
      <trkpt lat="45.7478" lon="6.52857">
        <ele>1833</ele>
        <time>2022-07-17T04:40:52Z</time>
      </trkpt>
      <trkpt lat="45.74779" lon="6.52854">
        <ele>1834</ele>
        <time>2022-07-17T04:40:54Z</time>
      </trkpt>
      <trkpt lat="45.74778" lon="6.52852">
        <ele>1834</ele>
        <time>2022-07-17T04:40:56Z</time>
      </trkpt>
      <trkpt lat="45.74778" lon="6.52848">
        <ele>1834</ele>
        <time>2022-07-17T04:40:58Z</time>
      </trkpt>
      <trkpt lat="45.74777" lon="6.52845">
        <ele>1835</ele>
        <time>2022-07-17T04:41:00Z</time>
      </trkpt>
      <trkpt lat="45.74777" lon="6.52843">
        <ele>1835</ele>
        <time>2022-07-17T04:41:03Z</time>
      </trkpt>
      <trkpt lat="45.74776" lon="6.52839">
        <ele>1834</ele>
        <time>2022-07-17T04:41:05Z</time>
      </trkpt>
      <trkpt lat="45.74776" lon="6.52836">
        <ele>1834</ele>
        <time>2022-07-17T04:41:07Z</time>
      </trkpt>
      <trkpt lat="45.74776" lon="6.52833">
        <ele>1835</ele>
        <time>2022-07-17T04:41:09Z</time>
      </trkpt>
      <trkpt lat="45.74776" lon="6.5283">
        <ele>1836</ele>
        <time>2022-07-17T04:41:11Z</time>
      </trkpt>
      <trkpt lat="45.74776" lon="6.52827">
        <ele>1836</ele>
        <time>2022-07-17T04:41:13Z</time>
      </trkpt>
      <trkpt lat="45.74776" lon="6.52824">
        <ele>1836</ele>
        <time>2022-07-17T04:41:15Z</time>
      </trkpt>
      <trkpt lat="45.74776" lon="6.52821">
        <ele>1836</ele>
        <time>2022-07-17T04:41:17Z</time>
      </trkpt>
      <trkpt lat="45.74776" lon="6.52818">
        <ele>1836</ele>
        <time>2022-07-17T04:41:19Z</time>
      </trkpt>
      <trkpt lat="45.74776" lon="6.52815">
        <ele>1836</ele>
        <time>2022-07-17T04:41:21Z</time>
      </trkpt>
      <trkpt lat="45.74776" lon="6.52812">
        <ele>1836</ele>
        <time>2022-07-17T04:41:23Z</time>
      </trkpt>
      <trkpt lat="45.74776" lon="6.52809">
        <ele>1836</ele>
        <time>2022-07-17T04:41:25Z</time>
      </trkpt>
      <trkpt lat="45.74775" lon="6.52806">
        <ele>1836</ele>
        <time>2022-07-17T04:41:27Z</time>
      </trkpt>
      <trkpt lat="45.74775" lon="6.52803">
        <ele>1837</ele>
        <time>2022-07-17T04:41:30Z</time>
      </trkpt>
      <trkpt lat="45.74774" lon="6.52799">
        <ele>1837</ele>
        <time>2022-07-17T04:41:33Z</time>
      </trkpt>
      <trkpt lat="45.74773" lon="6.52796">
        <ele>1837</ele>
        <time>2022-07-17T04:41:35Z</time>
      </trkpt>
      <trkpt lat="45.74771" lon="6.52793">
        <ele>1837</ele>
        <time>2022-07-17T04:41:38Z</time>
      </trkpt>
      <trkpt lat="45.7477" lon="6.52791">
        <ele>1838</ele>
        <time>2022-07-17T04:41:40Z</time>
      </trkpt>
      <trkpt lat="45.74769" lon="6.52789">
        <ele>1838</ele>
        <time>2022-07-17T04:41:42Z</time>
      </trkpt>
      <trkpt lat="45.74768" lon="6.52786">
        <ele>1838</ele>
        <time>2022-07-17T04:41:44Z</time>
      </trkpt>
      <trkpt lat="45.74767" lon="6.52783">
        <ele>1839</ele>
        <time>2022-07-17T04:41:47Z</time>
      </trkpt>
      <trkpt lat="45.74766" lon="6.52781">
        <ele>1840</ele>
        <time>2022-07-17T04:41:49Z</time>
      </trkpt>
      <trkpt lat="45.74764" lon="6.52779">
        <ele>1840</ele>
        <time>2022-07-17T04:41:51Z</time>
      </trkpt>
      <trkpt lat="45.74763" lon="6.52777">
        <ele>1840</ele>
        <time>2022-07-17T04:41:53Z</time>
      </trkpt>
      <trkpt lat="45.74762" lon="6.52774">
        <ele>1840</ele>
        <time>2022-07-17T04:41:55Z</time>
      </trkpt>
      <trkpt lat="45.74761" lon="6.52772">
        <ele>1841</ele>
        <time>2022-07-17T04:41:57Z</time>
      </trkpt>
      <trkpt lat="45.74761" lon="6.52767">
        <ele>1840</ele>
        <time>2022-07-17T04:42:00Z</time>
      </trkpt>
      <trkpt lat="45.74762" lon="6.52764">
        <ele>1841</ele>
        <time>2022-07-17T04:42:03Z</time>
      </trkpt>
      <trkpt lat="45.74764" lon="6.52762">
        <ele>1841</ele>
        <time>2022-07-17T04:42:06Z</time>
      </trkpt>
      <trkpt lat="45.74766" lon="6.52763">
        <ele>1841</ele>
        <time>2022-07-17T04:42:08Z</time>
      </trkpt>
      <trkpt lat="45.74769" lon="6.52763">
        <ele>1842</ele>
        <time>2022-07-17T04:42:10Z</time>
      </trkpt>
      <trkpt lat="45.74771" lon="6.52765">
        <ele>1842</ele>
        <time>2022-07-17T04:42:12Z</time>
      </trkpt>
      <trkpt lat="45.74773" lon="6.52766">
        <ele>1842</ele>
        <time>2022-07-17T04:42:14Z</time>
      </trkpt>
      <trkpt lat="45.74776" lon="6.52767">
        <ele>1843</ele>
        <time>2022-07-17T04:42:16Z</time>
      </trkpt>
      <trkpt lat="45.74778" lon="6.52767">
        <ele>1843</ele>
        <time>2022-07-17T04:42:18Z</time>
      </trkpt>
      <trkpt lat="45.7478" lon="6.52768">
        <ele>1843</ele>
        <time>2022-07-17T04:42:20Z</time>
      </trkpt>
      <trkpt lat="45.74783" lon="6.52768">
        <ele>1843</ele>
        <time>2022-07-17T04:42:22Z</time>
      </trkpt>
      <trkpt lat="45.74785" lon="6.52769">
        <ele>1843</ele>
        <time>2022-07-17T04:42:24Z</time>
      </trkpt>
      <trkpt lat="45.74788" lon="6.52769">
        <ele>1844</ele>
        <time>2022-07-17T04:42:26Z</time>
      </trkpt>
      <trkpt lat="45.7479" lon="6.5277">
        <ele>1845</ele>
        <time>2022-07-17T04:42:28Z</time>
      </trkpt>
      <trkpt lat="45.74792" lon="6.52771">
        <ele>1844</ele>
        <time>2022-07-17T04:42:30Z</time>
      </trkpt>
      <trkpt lat="45.74794" lon="6.52772">
        <ele>1845</ele>
        <time>2022-07-17T04:42:32Z</time>
      </trkpt>
      <trkpt lat="45.74796" lon="6.52773">
        <ele>1845</ele>
        <time>2022-07-17T04:42:34Z</time>
      </trkpt>
      <trkpt lat="45.74798" lon="6.52773">
        <ele>1845</ele>
        <time>2022-07-17T04:42:36Z</time>
      </trkpt>
      <trkpt lat="45.748" lon="6.52775">
        <ele>1845</ele>
        <time>2022-07-17T04:42:38Z</time>
      </trkpt>
      <trkpt lat="45.74802" lon="6.52775">
        <ele>1844</ele>
        <time>2022-07-17T04:42:40Z</time>
      </trkpt>
      <trkpt lat="45.74804" lon="6.52776">
        <ele>1845</ele>
        <time>2022-07-17T04:42:42Z</time>
      </trkpt>
      <trkpt lat="45.74806" lon="6.52777">
        <ele>1845</ele>
        <time>2022-07-17T04:42:44Z</time>
      </trkpt>
      <trkpt lat="45.74808" lon="6.52777">
        <ele>1845</ele>
        <time>2022-07-17T04:42:46Z</time>
      </trkpt>
      <trkpt lat="45.7481" lon="6.52777">
        <ele>1845</ele>
        <time>2022-07-17T04:42:48Z</time>
      </trkpt>
      <trkpt lat="45.74813" lon="6.52778">
        <ele>1846</ele>
        <time>2022-07-17T04:42:50Z</time>
      </trkpt>
      <trkpt lat="45.74815" lon="6.52778">
        <ele>1846</ele>
        <time>2022-07-17T04:42:52Z</time>
      </trkpt>
      <trkpt lat="45.74817" lon="6.52778">
        <ele>1846</ele>
        <time>2022-07-17T04:42:54Z</time>
      </trkpt>
      <trkpt lat="45.74819" lon="6.52778">
        <ele>1846</ele>
        <time>2022-07-17T04:42:56Z</time>
      </trkpt>
      <trkpt lat="45.74821" lon="6.52778">
        <ele>1846</ele>
        <time>2022-07-17T04:42:58Z</time>
      </trkpt>
      <trkpt lat="45.74823" lon="6.52778">
        <ele>1847</ele>
        <time>2022-07-17T04:43:00Z</time>
      </trkpt>
      <trkpt lat="45.74826" lon="6.52778">
        <ele>1847</ele>
        <time>2022-07-17T04:43:02Z</time>
      </trkpt>
      <trkpt lat="45.74828" lon="6.52778">
        <ele>1847</ele>
        <time>2022-07-17T04:43:04Z</time>
      </trkpt>
      <trkpt lat="45.7483" lon="6.52778">
        <ele>1847</ele>
        <time>2022-07-17T04:43:06Z</time>
      </trkpt>
      <trkpt lat="45.74832" lon="6.52777">
        <ele>1848</ele>
        <time>2022-07-17T04:43:08Z</time>
      </trkpt>
      <trkpt lat="45.74835" lon="6.52776">
        <ele>1848</ele>
        <time>2022-07-17T04:43:10Z</time>
      </trkpt>
      <trkpt lat="45.74837" lon="6.52775">
        <ele>1848</ele>
        <time>2022-07-17T04:43:12Z</time>
      </trkpt>
      <trkpt lat="45.74839" lon="6.52775">
        <ele>1848</ele>
        <time>2022-07-17T04:43:14Z</time>
      </trkpt>
      <trkpt lat="45.74841" lon="6.52775">
        <ele>1848</ele>
        <time>2022-07-17T04:43:16Z</time>
      </trkpt>
      <trkpt lat="45.74843" lon="6.52774">
        <ele>1849</ele>
        <time>2022-07-17T04:43:18Z</time>
      </trkpt>
      <trkpt lat="45.74846" lon="6.52774">
        <ele>1849</ele>
        <time>2022-07-17T04:43:20Z</time>
      </trkpt>
      <trkpt lat="45.74848" lon="6.52774">
        <ele>1849</ele>
        <time>2022-07-17T04:43:22Z</time>
      </trkpt>
      <trkpt lat="45.7485" lon="6.52773">
        <ele>1849</ele>
        <time>2022-07-17T04:43:24Z</time>
      </trkpt>
      <trkpt lat="45.74852" lon="6.52772">
        <ele>1849</ele>
        <time>2022-07-17T04:43:26Z</time>
      </trkpt>
      <trkpt lat="45.74854" lon="6.5277">
        <ele>1849</ele>
        <time>2022-07-17T04:43:28Z</time>
      </trkpt>
      <trkpt lat="45.74855" lon="6.52769">
        <ele>1849</ele>
        <time>2022-07-17T04:43:30Z</time>
      </trkpt>
      <trkpt lat="45.74857" lon="6.52767">
        <ele>1850</ele>
        <time>2022-07-17T04:43:32Z</time>
      </trkpt>
      <trkpt lat="45.74859" lon="6.52766">
        <ele>1849</ele>
        <time>2022-07-17T04:43:34Z</time>
      </trkpt>
      <trkpt lat="45.7486" lon="6.52763">
        <ele>1849</ele>
        <time>2022-07-17T04:43:36Z</time>
      </trkpt>
      <trkpt lat="45.74862" lon="6.52762">
        <ele>1850</ele>
        <time>2022-07-17T04:43:38Z</time>
      </trkpt>
      <trkpt lat="45.74864" lon="6.52759">
        <ele>1850</ele>
        <time>2022-07-17T04:43:40Z</time>
      </trkpt>
      <trkpt lat="45.74866" lon="6.52757">
        <ele>1850</ele>
        <time>2022-07-17T04:43:42Z</time>
      </trkpt>
      <trkpt lat="45.74867" lon="6.52755">
        <ele>1850</ele>
        <time>2022-07-17T04:43:44Z</time>
      </trkpt>
      <trkpt lat="45.74869" lon="6.52753">
        <ele>1850</ele>
        <time>2022-07-17T04:43:46Z</time>
      </trkpt>
      <trkpt lat="45.74871" lon="6.5275">
        <ele>1850</ele>
        <time>2022-07-17T04:43:48Z</time>
      </trkpt>
      <trkpt lat="45.74873" lon="6.52748">
        <ele>1850</ele>
        <time>2022-07-17T04:43:50Z</time>
      </trkpt>
      <trkpt lat="45.74874" lon="6.52746">
        <ele>1851</ele>
        <time>2022-07-17T04:43:52Z</time>
      </trkpt>
      <trkpt lat="45.74877" lon="6.52744">
        <ele>1851</ele>
        <time>2022-07-17T04:43:54Z</time>
      </trkpt>
      <trkpt lat="45.74878" lon="6.52743">
        <ele>1851</ele>
        <time>2022-07-17T04:43:56Z</time>
      </trkpt>
      <trkpt lat="45.7488" lon="6.52741">
        <ele>1851</ele>
        <time>2022-07-17T04:43:58Z</time>
      </trkpt>
      <trkpt lat="45.74881" lon="6.52738">
        <ele>1851</ele>
        <time>2022-07-17T04:44:00Z</time>
      </trkpt>
      <trkpt lat="45.74881" lon="6.52734">
        <ele>1851</ele>
        <time>2022-07-17T04:44:02Z</time>
      </trkpt>
      <trkpt lat="45.74882" lon="6.52731">
        <ele>1851</ele>
        <time>2022-07-17T04:44:04Z</time>
      </trkpt>
      <trkpt lat="45.74882" lon="6.52727">
        <ele>1851</ele>
        <time>2022-07-17T04:44:06Z</time>
      </trkpt>
      <trkpt lat="45.74883" lon="6.52725">
        <ele>1852</ele>
        <time>2022-07-17T04:44:08Z</time>
      </trkpt>
      <trkpt lat="45.74884" lon="6.52722">
        <ele>1852</ele>
        <time>2022-07-17T04:44:10Z</time>
      </trkpt>
      <trkpt lat="45.74885" lon="6.52718">
        <ele>1852</ele>
        <time>2022-07-17T04:44:13Z</time>
      </trkpt>
      <trkpt lat="45.74886" lon="6.52715">
        <ele>1852</ele>
        <time>2022-07-17T04:44:15Z</time>
      </trkpt>
      <trkpt lat="45.74886" lon="6.52713">
        <ele>1854</ele>
        <time>2022-07-17T04:44:17Z</time>
      </trkpt>
      <trkpt lat="45.74886" lon="6.52709">
        <ele>1854</ele>
        <time>2022-07-17T04:44:20Z</time>
      </trkpt>
      <trkpt lat="45.74885" lon="6.52705">
        <ele>1855</ele>
        <time>2022-07-17T04:44:23Z</time>
      </trkpt>
      <trkpt lat="45.74885" lon="6.52703">
        <ele>1856</ele>
        <time>2022-07-17T04:44:26Z</time>
      </trkpt>
      <trkpt lat="45.74884" lon="6.527">
        <ele>1856</ele>
        <time>2022-07-17T04:44:28Z</time>
      </trkpt>
      <trkpt lat="45.74883" lon="6.52697">
        <ele>1856</ele>
        <time>2022-07-17T04:44:31Z</time>
      </trkpt>
      <trkpt lat="45.74881" lon="6.52696">
        <ele>1856</ele>
        <time>2022-07-17T04:44:33Z</time>
      </trkpt>
      <trkpt lat="45.7488" lon="6.52693">
        <ele>1856</ele>
        <time>2022-07-17T04:44:35Z</time>
      </trkpt>
      <trkpt lat="45.74879" lon="6.5269">
        <ele>1857</ele>
        <time>2022-07-17T04:44:38Z</time>
      </trkpt>
      <trkpt lat="45.74878" lon="6.52688">
        <ele>1858</ele>
        <time>2022-07-17T04:44:41Z</time>
      </trkpt>
      <trkpt lat="45.74878" lon="6.52685">
        <ele>1859</ele>
        <time>2022-07-17T04:44:45Z</time>
      </trkpt>
      <trkpt lat="45.74878" lon="6.52682">
        <ele>1860</ele>
        <time>2022-07-17T04:44:49Z</time>
      </trkpt>
      <trkpt lat="45.74878" lon="6.52679">
        <ele>1860</ele>
        <time>2022-07-17T04:44:59Z</time>
      </trkpt>
      <trkpt lat="45.74878" lon="6.52679">
        <ele>1860</ele>
        <time>2022-07-17T04:45:03Z</time>
      </trkpt>
      <trkpt lat="45.74878" lon="6.52676">
        <ele>1860</ele>
        <time>2022-07-17T04:45:04Z</time>
      </trkpt>
      <trkpt lat="45.74879" lon="6.52673">
        <ele>1860</ele>
        <time>2022-07-17T04:45:06Z</time>
      </trkpt>
      <trkpt lat="45.7488" lon="6.52671">
        <ele>1861</ele>
        <time>2022-07-17T04:45:08Z</time>
      </trkpt>
      <trkpt lat="45.74881" lon="6.52669">
        <ele>1861</ele>
        <time>2022-07-17T04:45:10Z</time>
      </trkpt>
      <trkpt lat="45.74882" lon="6.52666">
        <ele>1861</ele>
        <time>2022-07-17T04:45:12Z</time>
      </trkpt>
      <trkpt lat="45.74883" lon="6.52663">
        <ele>1861</ele>
        <time>2022-07-17T04:45:14Z</time>
      </trkpt>
      <trkpt lat="45.74884" lon="6.5266">
        <ele>1861</ele>
        <time>2022-07-17T04:45:16Z</time>
      </trkpt>
      <trkpt lat="45.74884" lon="6.52657">
        <ele>1862</ele>
        <time>2022-07-17T04:45:19Z</time>
      </trkpt>
      <trkpt lat="45.74885" lon="6.52654">
        <ele>1862</ele>
        <time>2022-07-17T04:45:21Z</time>
      </trkpt>
      <trkpt lat="45.74885" lon="6.52651">
        <ele>1863</ele>
        <time>2022-07-17T04:45:24Z</time>
      </trkpt>
      <trkpt lat="45.74886" lon="6.52648">
        <ele>1863</ele>
        <time>2022-07-17T04:45:27Z</time>
      </trkpt>
      <trkpt lat="45.74887" lon="6.52645">
        <ele>1863</ele>
        <time>2022-07-17T04:45:30Z</time>
      </trkpt>
      <trkpt lat="45.74885" lon="6.52643">
        <ele>1864</ele>
        <time>2022-07-17T04:45:33Z</time>
      </trkpt>
      <trkpt lat="45.74883" lon="6.52645">
        <ele>1865</ele>
        <time>2022-07-17T04:45:36Z</time>
      </trkpt>
      <trkpt lat="45.74881" lon="6.52646">
        <ele>1865</ele>
        <time>2022-07-17T04:45:39Z</time>
      </trkpt>
      <trkpt lat="45.74878" lon="6.52647">
        <ele>1865</ele>
        <time>2022-07-17T04:45:42Z</time>
      </trkpt>
      <trkpt lat="45.74876" lon="6.52646">
        <ele>1865</ele>
        <time>2022-07-17T04:45:45Z</time>
      </trkpt>
      <trkpt lat="45.74875" lon="6.52644">
        <ele>1866</ele>
        <time>2022-07-17T04:45:48Z</time>
      </trkpt>
      <trkpt lat="45.74875" lon="6.5264">
        <ele>1867</ele>
        <time>2022-07-17T04:45:51Z</time>
      </trkpt>
      <trkpt lat="45.74876" lon="6.52636">
        <ele>1867</ele>
        <time>2022-07-17T04:45:54Z</time>
      </trkpt>
      <trkpt lat="45.74876" lon="6.52634">
        <ele>1867</ele>
        <time>2022-07-17T04:45:56Z</time>
      </trkpt>
      <trkpt lat="45.74877" lon="6.52631">
        <ele>1867</ele>
        <time>2022-07-17T04:45:58Z</time>
      </trkpt>
      <trkpt lat="45.74877" lon="6.52628">
        <ele>1867</ele>
        <time>2022-07-17T04:46:00Z</time>
      </trkpt>
      <trkpt lat="45.74878" lon="6.52625">
        <ele>1868</ele>
        <time>2022-07-17T04:46:02Z</time>
      </trkpt>
      <trkpt lat="45.74878" lon="6.52622">
        <ele>1868</ele>
        <time>2022-07-17T04:46:04Z</time>
      </trkpt>
      <trkpt lat="45.74879" lon="6.52619">
        <ele>1868</ele>
        <time>2022-07-17T04:46:07Z</time>
      </trkpt>
      <trkpt lat="45.74879" lon="6.52616">
        <ele>1868</ele>
        <time>2022-07-17T04:46:08Z</time>
      </trkpt>
      <trkpt lat="45.74879" lon="6.52613">
        <ele>1868</ele>
        <time>2022-07-17T04:46:10Z</time>
      </trkpt>
      <trkpt lat="45.74879" lon="6.52611">
        <ele>1868</ele>
        <time>2022-07-17T04:46:12Z</time>
      </trkpt>
      <trkpt lat="45.74879" lon="6.52608">
        <ele>1868</ele>
        <time>2022-07-17T04:46:14Z</time>
      </trkpt>
      <trkpt lat="45.74878" lon="6.52606">
        <ele>1868</ele>
        <time>2022-07-17T04:46:16Z</time>
      </trkpt>
      <trkpt lat="45.74877" lon="6.52603">
        <ele>1869</ele>
        <time>2022-07-17T04:46:18Z</time>
      </trkpt>
      <trkpt lat="45.74876" lon="6.526">
        <ele>1869</ele>
        <time>2022-07-17T04:46:20Z</time>
      </trkpt>
      <trkpt lat="45.74876" lon="6.52597">
        <ele>1869</ele>
        <time>2022-07-17T04:46:22Z</time>
      </trkpt>
      <trkpt lat="45.74876" lon="6.52594">
        <ele>1869</ele>
        <time>2022-07-17T04:46:24Z</time>
      </trkpt>
      <trkpt lat="45.74877" lon="6.52591">
        <ele>1869</ele>
        <time>2022-07-17T04:46:26Z</time>
      </trkpt>
      <trkpt lat="45.74878" lon="6.52588">
        <ele>1869</ele>
        <time>2022-07-17T04:46:28Z</time>
      </trkpt>
      <trkpt lat="45.74879" lon="6.52585">
        <ele>1869</ele>
        <time>2022-07-17T04:46:30Z</time>
      </trkpt>
      <trkpt lat="45.74881" lon="6.52583">
        <ele>1870</ele>
        <time>2022-07-17T04:46:32Z</time>
      </trkpt>
      <trkpt lat="45.74882" lon="6.52581">
        <ele>1870</ele>
        <time>2022-07-17T04:46:34Z</time>
      </trkpt>
      <trkpt lat="45.74884" lon="6.52579">
        <ele>1871</ele>
        <time>2022-07-17T04:46:36Z</time>
      </trkpt>
      <trkpt lat="45.74886" lon="6.52576">
        <ele>1871</ele>
        <time>2022-07-17T04:46:38Z</time>
      </trkpt>
      <trkpt lat="45.74887" lon="6.52574">
        <ele>1871</ele>
        <time>2022-07-17T04:46:40Z</time>
      </trkpt>
      <trkpt lat="45.74888" lon="6.52571">
        <ele>1871</ele>
        <time>2022-07-17T04:46:42Z</time>
      </trkpt>
      <trkpt lat="45.74889" lon="6.52568">
        <ele>1871</ele>
        <time>2022-07-17T04:46:45Z</time>
      </trkpt>
      <trkpt lat="45.74891" lon="6.52567">
        <ele>1871</ele>
        <time>2022-07-17T04:46:47Z</time>
      </trkpt>
      <trkpt lat="45.74893" lon="6.52565">
        <ele>1872</ele>
        <time>2022-07-17T04:46:50Z</time>
      </trkpt>
      <trkpt lat="45.74895" lon="6.52562">
        <ele>1873</ele>
        <time>2022-07-17T04:46:53Z</time>
      </trkpt>
      <trkpt lat="45.74896" lon="6.5256">
        <ele>1874</ele>
        <time>2022-07-17T04:46:56Z</time>
      </trkpt>
      <trkpt lat="45.74897" lon="6.52557">
        <ele>1874</ele>
        <time>2022-07-17T04:46:59Z</time>
      </trkpt>
      <trkpt lat="45.74898" lon="6.52554">
        <ele>1874</ele>
        <time>2022-07-17T04:47:01Z</time>
      </trkpt>
      <trkpt lat="45.74898" lon="6.52551">
        <ele>1874</ele>
        <time>2022-07-17T04:47:04Z</time>
      </trkpt>
      <trkpt lat="45.74897" lon="6.52548">
        <ele>1875</ele>
        <time>2022-07-17T04:47:07Z</time>
      </trkpt>
      <trkpt lat="45.74896" lon="6.52545">
        <ele>1875</ele>
        <time>2022-07-17T04:47:10Z</time>
      </trkpt>
      <trkpt lat="45.74896" lon="6.52542">
        <ele>1875</ele>
        <time>2022-07-17T04:47:13Z</time>
      </trkpt>
      <trkpt lat="45.74896" lon="6.52539">
        <ele>1875</ele>
        <time>2022-07-17T04:47:16Z</time>
      </trkpt>
      <trkpt lat="45.74896" lon="6.52536">
        <ele>1876</ele>
        <time>2022-07-17T04:47:19Z</time>
      </trkpt>
      <trkpt lat="45.74895" lon="6.52533">
        <ele>1876</ele>
        <time>2022-07-17T04:47:22Z</time>
      </trkpt>
      <trkpt lat="45.74894" lon="6.5253">
        <ele>1876</ele>
        <time>2022-07-17T04:47:24Z</time>
      </trkpt>
      <trkpt lat="45.74894" lon="6.52528">
        <ele>1876</ele>
        <time>2022-07-17T04:47:26Z</time>
      </trkpt>
      <trkpt lat="45.74895" lon="6.52525">
        <ele>1876</ele>
        <time>2022-07-17T04:47:28Z</time>
      </trkpt>
      <trkpt lat="45.74896" lon="6.52522">
        <ele>1877</ele>
        <time>2022-07-17T04:47:30Z</time>
      </trkpt>
      <trkpt lat="45.74898" lon="6.5252">
        <ele>1877</ele>
        <time>2022-07-17T04:47:32Z</time>
      </trkpt>
      <trkpt lat="45.74899" lon="6.52517">
        <ele>1877</ele>
        <time>2022-07-17T04:47:34Z</time>
      </trkpt>
      <trkpt lat="45.74899" lon="6.52514">
        <ele>1877</ele>
        <time>2022-07-17T04:47:36Z</time>
      </trkpt>
      <trkpt lat="45.749" lon="6.52512">
        <ele>1878</ele>
        <time>2022-07-17T04:47:38Z</time>
      </trkpt>
      <trkpt lat="45.74901" lon="6.52509">
        <ele>1878</ele>
        <time>2022-07-17T04:47:40Z</time>
      </trkpt>
      <trkpt lat="45.74901" lon="6.52506">
        <ele>1879</ele>
        <time>2022-07-17T04:47:43Z</time>
      </trkpt>
      <trkpt lat="45.749" lon="6.52503">
        <ele>1880</ele>
        <time>2022-07-17T04:47:46Z</time>
      </trkpt>
      <trkpt lat="45.74898" lon="6.52501">
        <ele>1880</ele>
        <time>2022-07-17T04:47:49Z</time>
      </trkpt>
      <trkpt lat="45.74896" lon="6.52499">
        <ele>1880</ele>
        <time>2022-07-17T04:47:51Z</time>
      </trkpt>
      <trkpt lat="45.74894" lon="6.52496">
        <ele>1880</ele>
        <time>2022-07-17T04:47:53Z</time>
      </trkpt>
      <trkpt lat="45.74893" lon="6.52494">
        <ele>1880</ele>
        <time>2022-07-17T04:47:55Z</time>
      </trkpt>
      <trkpt lat="45.74892" lon="6.52491">
        <ele>1881</ele>
        <time>2022-07-17T04:47:57Z</time>
      </trkpt>
      <trkpt lat="45.74892" lon="6.52489">
        <ele>1881</ele>
        <time>2022-07-17T04:47:59Z</time>
      </trkpt>
      <trkpt lat="45.74892" lon="6.52486">
        <ele>1881</ele>
        <time>2022-07-17T04:48:01Z</time>
      </trkpt>
      <trkpt lat="45.74893" lon="6.52483">
        <ele>1881</ele>
        <time>2022-07-17T04:48:03Z</time>
      </trkpt>
      <trkpt lat="45.74894" lon="6.5248">
        <ele>1882</ele>
        <time>2022-07-17T04:48:06Z</time>
      </trkpt>
      <trkpt lat="45.74895" lon="6.52477">
        <ele>1882</ele>
        <time>2022-07-17T04:48:08Z</time>
      </trkpt>
      <trkpt lat="45.74896" lon="6.52475">
        <ele>1882</ele>
        <time>2022-07-17T04:48:10Z</time>
      </trkpt>
      <trkpt lat="45.74897" lon="6.52472">
        <ele>1882</ele>
        <time>2022-07-17T04:48:12Z</time>
      </trkpt>
      <trkpt lat="45.74897" lon="6.52468">
        <ele>1882</ele>
        <time>2022-07-17T04:48:15Z</time>
      </trkpt>
      <trkpt lat="45.74897" lon="6.52465">
        <ele>1883</ele>
        <time>2022-07-17T04:48:17Z</time>
      </trkpt>
      <trkpt lat="45.74895" lon="6.52462">
        <ele>1883</ele>
        <time>2022-07-17T04:48:20Z</time>
      </trkpt>
      <trkpt lat="45.74894" lon="6.5246">
        <ele>1883</ele>
        <time>2022-07-17T04:48:22Z</time>
      </trkpt>
      <trkpt lat="45.74892" lon="6.52459">
        <ele>1883</ele>
        <time>2022-07-17T04:48:24Z</time>
      </trkpt>
      <trkpt lat="45.74889" lon="6.52458">
        <ele>1883</ele>
        <time>2022-07-17T04:48:26Z</time>
      </trkpt>
      <trkpt lat="45.74887" lon="6.52457">
        <ele>1883</ele>
        <time>2022-07-17T04:48:28Z</time>
      </trkpt>
      <trkpt lat="45.74885" lon="6.52455">
        <ele>1883</ele>
        <time>2022-07-17T04:48:30Z</time>
      </trkpt>
      <trkpt lat="45.74884" lon="6.52453">
        <ele>1883</ele>
        <time>2022-07-17T04:48:32Z</time>
      </trkpt>
      <trkpt lat="45.74882" lon="6.52452">
        <ele>1883</ele>
        <time>2022-07-17T04:48:34Z</time>
      </trkpt>
      <trkpt lat="45.7488" lon="6.52451">
        <ele>1883</ele>
        <time>2022-07-17T04:48:36Z</time>
      </trkpt>
      <trkpt lat="45.74878" lon="6.5245">
        <ele>1884</ele>
        <time>2022-07-17T04:48:38Z</time>
      </trkpt>
      <trkpt lat="45.74876" lon="6.52448">
        <ele>1884</ele>
        <time>2022-07-17T04:48:40Z</time>
      </trkpt>
      <trkpt lat="45.74874" lon="6.52446">
        <ele>1884</ele>
        <time>2022-07-17T04:48:42Z</time>
      </trkpt>
      <trkpt lat="45.74872" lon="6.52444">
        <ele>1884</ele>
        <time>2022-07-17T04:48:44Z</time>
      </trkpt>
      <trkpt lat="45.74871" lon="6.52441">
        <ele>1885</ele>
        <time>2022-07-17T04:48:46Z</time>
      </trkpt>
      <trkpt lat="45.7487" lon="6.52437">
        <ele>1885</ele>
        <time>2022-07-17T04:48:49Z</time>
      </trkpt>
      <trkpt lat="45.7487" lon="6.52433">
        <ele>1885</ele>
        <time>2022-07-17T04:48:52Z</time>
      </trkpt>
      <trkpt lat="45.7487" lon="6.5243">
        <ele>1885</ele>
        <time>2022-07-17T04:48:54Z</time>
      </trkpt>
      <trkpt lat="45.7487" lon="6.52428">
        <ele>1885</ele>
        <time>2022-07-17T04:48:56Z</time>
      </trkpt>
      <trkpt lat="45.74871" lon="6.52425">
        <ele>1885</ele>
        <time>2022-07-17T04:48:58Z</time>
      </trkpt>
      <trkpt lat="45.74871" lon="6.52422">
        <ele>1886</ele>
        <time>2022-07-17T04:49:00Z</time>
      </trkpt>
      <trkpt lat="45.74871" lon="6.52419">
        <ele>1886</ele>
        <time>2022-07-17T04:49:02Z</time>
      </trkpt>
      <trkpt lat="45.74871" lon="6.52416">
        <ele>1886</ele>
        <time>2022-07-17T04:49:04Z</time>
      </trkpt>
      <trkpt lat="45.74871" lon="6.52413">
        <ele>1887</ele>
        <time>2022-07-17T04:49:06Z</time>
      </trkpt>
      <trkpt lat="45.74872" lon="6.52409">
        <ele>1887</ele>
        <time>2022-07-17T04:49:09Z</time>
      </trkpt>
      <trkpt lat="45.74872" lon="6.52405">
        <ele>1887</ele>
        <time>2022-07-17T04:49:12Z</time>
      </trkpt>
      <trkpt lat="45.74872" lon="6.52402">
        <ele>1888</ele>
        <time>2022-07-17T04:49:14Z</time>
      </trkpt>
      <trkpt lat="45.74872" lon="6.524">
        <ele>1888</ele>
        <time>2022-07-17T04:49:17Z</time>
      </trkpt>
      <trkpt lat="45.74872" lon="6.52397">
        <ele>1888</ele>
        <time>2022-07-17T04:49:18Z</time>
      </trkpt>
      <trkpt lat="45.74872" lon="6.52393">
        <ele>1888</ele>
        <time>2022-07-17T04:49:20Z</time>
      </trkpt>
      <trkpt lat="45.74873" lon="6.52391">
        <ele>1889</ele>
        <time>2022-07-17T04:49:22Z</time>
      </trkpt>
      <trkpt lat="45.74874" lon="6.52388">
        <ele>1889</ele>
        <time>2022-07-17T04:49:24Z</time>
      </trkpt>
      <trkpt lat="45.74873" lon="6.52385">
        <ele>1889</ele>
        <time>2022-07-17T04:49:26Z</time>
      </trkpt>
      <trkpt lat="45.74873" lon="6.52382">
        <ele>1889</ele>
        <time>2022-07-17T04:49:28Z</time>
      </trkpt>
      <trkpt lat="45.74873" lon="6.52379">
        <ele>1889</ele>
        <time>2022-07-17T04:49:30Z</time>
      </trkpt>
      <trkpt lat="45.74872" lon="6.52376">
        <ele>1889</ele>
        <time>2022-07-17T04:49:32Z</time>
      </trkpt>
      <trkpt lat="45.74872" lon="6.52372">
        <ele>1890</ele>
        <time>2022-07-17T04:49:34Z</time>
      </trkpt>
      <trkpt lat="45.74871" lon="6.52369">
        <ele>1890</ele>
        <time>2022-07-17T04:49:36Z</time>
      </trkpt>
      <trkpt lat="45.7487" lon="6.52366">
        <ele>1889</ele>
        <time>2022-07-17T04:49:38Z</time>
      </trkpt>
      <trkpt lat="45.7487" lon="6.52363">
        <ele>1890</ele>
        <time>2022-07-17T04:49:40Z</time>
      </trkpt>
      <trkpt lat="45.74869" lon="6.5236">
        <ele>1890</ele>
        <time>2022-07-17T04:49:42Z</time>
      </trkpt>
      <trkpt lat="45.74869" lon="6.52357">
        <ele>1890</ele>
        <time>2022-07-17T04:49:44Z</time>
      </trkpt>
      <trkpt lat="45.74869" lon="6.52353">
        <ele>1890</ele>
        <time>2022-07-17T04:49:46Z</time>
      </trkpt>
      <trkpt lat="45.7487" lon="6.5235">
        <ele>1890</ele>
        <time>2022-07-17T04:49:48Z</time>
      </trkpt>
      <trkpt lat="45.7487" lon="6.52347">
        <ele>1890</ele>
        <time>2022-07-17T04:49:50Z</time>
      </trkpt>
      <trkpt lat="45.74871" lon="6.52344">
        <ele>1890</ele>
        <time>2022-07-17T04:49:52Z</time>
      </trkpt>
      <trkpt lat="45.74871" lon="6.52342">
        <ele>1890</ele>
        <time>2022-07-17T04:49:54Z</time>
      </trkpt>
      <trkpt lat="45.74871" lon="6.52339">
        <ele>1891</ele>
        <time>2022-07-17T04:49:56Z</time>
      </trkpt>
      <trkpt lat="45.74872" lon="6.52335">
        <ele>1892</ele>
        <time>2022-07-17T04:49:59Z</time>
      </trkpt>
      <trkpt lat="45.74873" lon="6.52333">
        <ele>1892</ele>
        <time>2022-07-17T04:50:01Z</time>
      </trkpt>
      <trkpt lat="45.74873" lon="6.5233">
        <ele>1893</ele>
        <time>2022-07-17T04:50:04Z</time>
      </trkpt>
      <trkpt lat="45.74874" lon="6.52327">
        <ele>1893</ele>
        <time>2022-07-17T04:50:06Z</time>
      </trkpt>
      <trkpt lat="45.74875" lon="6.52324">
        <ele>1894</ele>
        <time>2022-07-17T04:50:09Z</time>
      </trkpt>
      <trkpt lat="45.74876" lon="6.52322">
        <ele>1894</ele>
        <time>2022-07-17T04:50:11Z</time>
      </trkpt>
      <trkpt lat="45.74877" lon="6.52319">
        <ele>1894</ele>
        <time>2022-07-17T04:50:14Z</time>
      </trkpt>
      <trkpt lat="45.74876" lon="6.52316">
        <ele>1895</ele>
        <time>2022-07-17T04:50:16Z</time>
      </trkpt>
      <trkpt lat="45.74875" lon="6.52314">
        <ele>1895</ele>
        <time>2022-07-17T04:50:18Z</time>
      </trkpt>
      <trkpt lat="45.74873" lon="6.52313">
        <ele>1895</ele>
        <time>2022-07-17T04:50:20Z</time>
      </trkpt>
      <trkpt lat="45.74871" lon="6.52313">
        <ele>1895</ele>
        <time>2022-07-17T04:50:22Z</time>
      </trkpt>
      <trkpt lat="45.74868" lon="6.52313">
        <ele>1895</ele>
        <time>2022-07-17T04:50:24Z</time>
      </trkpt>
      <trkpt lat="45.74866" lon="6.52313">
        <ele>1895</ele>
        <time>2022-07-17T04:50:26Z</time>
      </trkpt>
      <trkpt lat="45.74864" lon="6.52313">
        <ele>1895</ele>
        <time>2022-07-17T04:50:28Z</time>
      </trkpt>
      <trkpt lat="45.74862" lon="6.52313">
        <ele>1895</ele>
        <time>2022-07-17T04:50:30Z</time>
      </trkpt>
      <trkpt lat="45.7486" lon="6.52314">
        <ele>1895</ele>
        <time>2022-07-17T04:50:33Z</time>
      </trkpt>
      <trkpt lat="45.74858" lon="6.52314">
        <ele>1895</ele>
        <time>2022-07-17T04:50:34Z</time>
      </trkpt>
      <trkpt lat="45.74855" lon="6.52315">
        <ele>1895</ele>
        <time>2022-07-17T04:50:36Z</time>
      </trkpt>
      <trkpt lat="45.74853" lon="6.52315">
        <ele>1896</ele>
        <time>2022-07-17T04:50:38Z</time>
      </trkpt>
      <trkpt lat="45.7485" lon="6.52315">
        <ele>1896</ele>
        <time>2022-07-17T04:50:40Z</time>
      </trkpt>
      <trkpt lat="45.74848" lon="6.52315">
        <ele>1896</ele>
        <time>2022-07-17T04:50:42Z</time>
      </trkpt>
      <trkpt lat="45.74846" lon="6.52315">
        <ele>1896</ele>
        <time>2022-07-17T04:50:44Z</time>
      </trkpt>
      <trkpt lat="45.74844" lon="6.52315">
        <ele>1896</ele>
        <time>2022-07-17T04:50:46Z</time>
      </trkpt>
      <trkpt lat="45.74842" lon="6.52315">
        <ele>1896</ele>
        <time>2022-07-17T04:50:48Z</time>
      </trkpt>
      <trkpt lat="45.7484" lon="6.52315">
        <ele>1896</ele>
        <time>2022-07-17T04:50:50Z</time>
      </trkpt>
      <trkpt lat="45.74838" lon="6.52313">
        <ele>1896</ele>
        <time>2022-07-17T04:50:52Z</time>
      </trkpt>
      <trkpt lat="45.74837" lon="6.5231">
        <ele>1896</ele>
        <time>2022-07-17T04:50:54Z</time>
      </trkpt>
      <trkpt lat="45.74838" lon="6.52307">
        <ele>1896</ele>
        <time>2022-07-17T04:50:56Z</time>
      </trkpt>
      <trkpt lat="45.74838" lon="6.52303">
        <ele>1896</ele>
        <time>2022-07-17T04:50:58Z</time>
      </trkpt>
      <trkpt lat="45.74839" lon="6.52299">
        <ele>1896</ele>
        <time>2022-07-17T04:51:00Z</time>
      </trkpt>
      <trkpt lat="45.7484" lon="6.52295">
        <ele>1896</ele>
        <time>2022-07-17T04:51:02Z</time>
      </trkpt>
      <trkpt lat="45.74841" lon="6.52292">
        <ele>1897</ele>
        <time>2022-07-17T04:51:04Z</time>
      </trkpt>
      <trkpt lat="45.74842" lon="6.52288">
        <ele>1897</ele>
        <time>2022-07-17T04:51:06Z</time>
      </trkpt>
      <trkpt lat="45.74843" lon="6.52284">
        <ele>1896</ele>
        <time>2022-07-17T04:51:08Z</time>
      </trkpt>
      <trkpt lat="45.74844" lon="6.52279">
        <ele>1896</ele>
        <time>2022-07-17T04:51:11Z</time>
      </trkpt>
      <trkpt lat="45.74845" lon="6.52275">
        <ele>1896</ele>
        <time>2022-07-17T04:51:13Z</time>
      </trkpt>
      <trkpt lat="45.74847" lon="6.52272">
        <ele>1896</ele>
        <time>2022-07-17T04:51:15Z</time>
      </trkpt>
      <trkpt lat="45.74848" lon="6.52268">
        <ele>1896</ele>
        <time>2022-07-17T04:51:17Z</time>
      </trkpt>
      <trkpt lat="45.74848" lon="6.52265">
        <ele>1896</ele>
        <time>2022-07-17T04:51:19Z</time>
      </trkpt>
      <trkpt lat="45.74848" lon="6.52261">
        <ele>1896</ele>
        <time>2022-07-17T04:51:21Z</time>
      </trkpt>
      <trkpt lat="45.74849" lon="6.52257">
        <ele>1896</ele>
        <time>2022-07-17T04:51:23Z</time>
      </trkpt>
      <trkpt lat="45.74849" lon="6.52254">
        <ele>1896</ele>
        <time>2022-07-17T04:51:25Z</time>
      </trkpt>
      <trkpt lat="45.74849" lon="6.5225">
        <ele>1896</ele>
        <time>2022-07-17T04:51:27Z</time>
      </trkpt>
      <trkpt lat="45.7485" lon="6.52247">
        <ele>1896</ele>
        <time>2022-07-17T04:51:29Z</time>
      </trkpt>
      <trkpt lat="45.7485" lon="6.52244">
        <ele>1896</ele>
        <time>2022-07-17T04:51:31Z</time>
      </trkpt>
      <trkpt lat="45.74851" lon="6.5224">
        <ele>1897</ele>
        <time>2022-07-17T04:51:33Z</time>
      </trkpt>
      <trkpt lat="45.74851" lon="6.52237">
        <ele>1897</ele>
        <time>2022-07-17T04:51:35Z</time>
      </trkpt>
      <trkpt lat="45.74851" lon="6.52234">
        <ele>1897</ele>
        <time>2022-07-17T04:51:37Z</time>
      </trkpt>
      <trkpt lat="45.74851" lon="6.52231">
        <ele>1897</ele>
        <time>2022-07-17T04:51:39Z</time>
      </trkpt>
      <trkpt lat="45.74851" lon="6.52228">
        <ele>1897</ele>
        <time>2022-07-17T04:51:41Z</time>
      </trkpt>
      <trkpt lat="45.74851" lon="6.52224">
        <ele>1897</ele>
        <time>2022-07-17T04:51:43Z</time>
      </trkpt>
      <trkpt lat="45.74852" lon="6.52221">
        <ele>1898</ele>
        <time>2022-07-17T04:51:45Z</time>
      </trkpt>
      <trkpt lat="45.74852" lon="6.52217">
        <ele>1898</ele>
        <time>2022-07-17T04:51:47Z</time>
      </trkpt>
      <trkpt lat="45.74852" lon="6.52214">
        <ele>1898</ele>
        <time>2022-07-17T04:51:49Z</time>
      </trkpt>
      <trkpt lat="45.74852" lon="6.52211">
        <ele>1897</ele>
        <time>2022-07-17T04:51:51Z</time>
      </trkpt>
      <trkpt lat="45.74852" lon="6.52207">
        <ele>1898</ele>
        <time>2022-07-17T04:51:53Z</time>
      </trkpt>
      <trkpt lat="45.74852" lon="6.52203">
        <ele>1898</ele>
        <time>2022-07-17T04:51:55Z</time>
      </trkpt>
      <trkpt lat="45.74852" lon="6.522">
        <ele>1898</ele>
        <time>2022-07-17T04:51:57Z</time>
      </trkpt>
      <trkpt lat="45.74852" lon="6.52197">
        <ele>1898</ele>
        <time>2022-07-17T04:51:59Z</time>
      </trkpt>
      <trkpt lat="45.74852" lon="6.52193">
        <ele>1898</ele>
        <time>2022-07-17T04:52:01Z</time>
      </trkpt>
      <trkpt lat="45.74853" lon="6.5219">
        <ele>1898</ele>
        <time>2022-07-17T04:52:03Z</time>
      </trkpt>
      <trkpt lat="45.74852" lon="6.52187">
        <ele>1898</ele>
        <time>2022-07-17T04:52:05Z</time>
      </trkpt>
      <trkpt lat="45.74852" lon="6.52183">
        <ele>1898</ele>
        <time>2022-07-17T04:52:07Z</time>
      </trkpt>
      <trkpt lat="45.74852" lon="6.5218">
        <ele>1898</ele>
        <time>2022-07-17T04:52:09Z</time>
      </trkpt>
      <trkpt lat="45.74852" lon="6.52177">
        <ele>1899</ele>
        <time>2022-07-17T04:52:11Z</time>
      </trkpt>
      <trkpt lat="45.74852" lon="6.52173">
        <ele>1899</ele>
        <time>2022-07-17T04:52:13Z</time>
      </trkpt>
      <trkpt lat="45.74852" lon="6.5217">
        <ele>1899</ele>
        <time>2022-07-17T04:52:15Z</time>
      </trkpt>
      <trkpt lat="45.74853" lon="6.52167">
        <ele>1899</ele>
        <time>2022-07-17T04:52:17Z</time>
      </trkpt>
      <trkpt lat="45.74855" lon="6.52164">
        <ele>1899</ele>
        <time>2022-07-17T04:52:21Z</time>
      </trkpt>
      <trkpt lat="45.74855" lon="6.52161">
        <ele>1899</ele>
        <time>2022-07-17T04:52:23Z</time>
      </trkpt>
      <trkpt lat="45.74855" lon="6.52158">
        <ele>1899</ele>
        <time>2022-07-17T04:52:25Z</time>
      </trkpt>
      <trkpt lat="45.74856" lon="6.52155">
        <ele>1899</ele>
        <time>2022-07-17T04:52:27Z</time>
      </trkpt>
      <trkpt lat="45.74856" lon="6.52152">
        <ele>1899</ele>
        <time>2022-07-17T04:52:29Z</time>
      </trkpt>
      <trkpt lat="45.74857" lon="6.52149">
        <ele>1899</ele>
        <time>2022-07-17T04:52:31Z</time>
      </trkpt>
      <trkpt lat="45.74857" lon="6.52146">
        <ele>1899</ele>
        <time>2022-07-17T04:52:33Z</time>
      </trkpt>
      <trkpt lat="45.74857" lon="6.52143">
        <ele>1899</ele>
        <time>2022-07-17T04:52:35Z</time>
      </trkpt>
      <trkpt lat="45.74858" lon="6.5214">
        <ele>1900</ele>
        <time>2022-07-17T04:52:37Z</time>
      </trkpt>
      <trkpt lat="45.74858" lon="6.52137">
        <ele>1900</ele>
        <time>2022-07-17T04:52:39Z</time>
      </trkpt>
      <trkpt lat="45.74858" lon="6.52134">
        <ele>1900</ele>
        <time>2022-07-17T04:52:41Z</time>
      </trkpt>
      <trkpt lat="45.74859" lon="6.52131">
        <ele>1900</ele>
        <time>2022-07-17T04:52:43Z</time>
      </trkpt>
      <trkpt lat="45.74859" lon="6.52128">
        <ele>1900</ele>
        <time>2022-07-17T04:52:45Z</time>
      </trkpt>
      <trkpt lat="45.74859" lon="6.52125">
        <ele>1900</ele>
        <time>2022-07-17T04:52:47Z</time>
      </trkpt>
      <trkpt lat="45.7486" lon="6.52122">
        <ele>1900</ele>
        <time>2022-07-17T04:52:49Z</time>
      </trkpt>
      <trkpt lat="45.7486" lon="6.52119">
        <ele>1900</ele>
        <time>2022-07-17T04:52:51Z</time>
      </trkpt>
      <trkpt lat="45.7486" lon="6.52115">
        <ele>1901</ele>
        <time>2022-07-17T04:52:54Z</time>
      </trkpt>
      <trkpt lat="45.7486" lon="6.52112">
        <ele>1901</ele>
        <time>2022-07-17T04:52:56Z</time>
      </trkpt>
      <trkpt lat="45.7486" lon="6.52109">
        <ele>1902</ele>
        <time>2022-07-17T04:52:59Z</time>
      </trkpt>
      <trkpt lat="45.7486" lon="6.52105">
        <ele>1902</ele>
        <time>2022-07-17T04:53:02Z</time>
      </trkpt>
      <trkpt lat="45.7486" lon="6.52102">
        <ele>1903</ele>
        <time>2022-07-17T04:53:05Z</time>
      </trkpt>
      <trkpt lat="45.7486" lon="6.52099">
        <ele>1903</ele>
        <time>2022-07-17T04:53:07Z</time>
      </trkpt>
      <trkpt lat="45.7486" lon="6.52097">
        <ele>1903</ele>
        <time>2022-07-17T04:53:09Z</time>
      </trkpt>
      <trkpt lat="45.7486" lon="6.52093">
        <ele>1905</ele>
        <time>2022-07-17T04:53:12Z</time>
      </trkpt>
      <trkpt lat="45.7486" lon="6.5209">
        <ele>1905</ele>
        <time>2022-07-17T04:53:15Z</time>
      </trkpt>
      <trkpt lat="45.74861" lon="6.52086">
        <ele>1905</ele>
        <time>2022-07-17T04:53:18Z</time>
      </trkpt>
      <trkpt lat="45.74861" lon="6.52083">
        <ele>1905</ele>
        <time>2022-07-17T04:53:20Z</time>
      </trkpt>
      <trkpt lat="45.74861" lon="6.52078">
        <ele>1905</ele>
        <time>2022-07-17T04:53:24Z</time>
      </trkpt>
      <trkpt lat="45.74861" lon="6.52075">
        <ele>1906</ele>
        <time>2022-07-17T04:53:26Z</time>
      </trkpt>
      <trkpt lat="45.74862" lon="6.52072">
        <ele>1906</ele>
        <time>2022-07-17T04:53:28Z</time>
      </trkpt>
      <trkpt lat="45.74862" lon="6.52069">
        <ele>1906</ele>
        <time>2022-07-17T04:53:30Z</time>
      </trkpt>
      <trkpt lat="45.74862" lon="6.52067">
        <ele>1907</ele>
        <time>2022-07-17T04:53:32Z</time>
      </trkpt>
      <trkpt lat="45.74862" lon="6.52063">
        <ele>1907</ele>
        <time>2022-07-17T04:53:34Z</time>
      </trkpt>
      <trkpt lat="45.74862" lon="6.5206">
        <ele>1908</ele>
        <time>2022-07-17T04:53:36Z</time>
      </trkpt>
      <trkpt lat="45.74862" lon="6.52057">
        <ele>1908</ele>
        <time>2022-07-17T04:53:38Z</time>
      </trkpt>
      <trkpt lat="45.74863" lon="6.52053">
        <ele>1908</ele>
        <time>2022-07-17T04:53:40Z</time>
      </trkpt>
      <trkpt lat="45.74863" lon="6.5205">
        <ele>1908</ele>
        <time>2022-07-17T04:53:42Z</time>
      </trkpt>
      <trkpt lat="45.74863" lon="6.52046">
        <ele>1908</ele>
        <time>2022-07-17T04:53:44Z</time>
      </trkpt>
      <trkpt lat="45.74863" lon="6.52043">
        <ele>1908</ele>
        <time>2022-07-17T04:53:46Z</time>
      </trkpt>
      <trkpt lat="45.74863" lon="6.52039">
        <ele>1908</ele>
        <time>2022-07-17T04:53:48Z</time>
      </trkpt>
      <trkpt lat="45.74863" lon="6.52036">
        <ele>1908</ele>
        <time>2022-07-17T04:53:50Z</time>
      </trkpt>
      <trkpt lat="45.74863" lon="6.52032">
        <ele>1908</ele>
        <time>2022-07-17T04:53:52Z</time>
      </trkpt>
      <trkpt lat="45.74863" lon="6.52029">
        <ele>1908</ele>
        <time>2022-07-17T04:53:54Z</time>
      </trkpt>
      <trkpt lat="45.74862" lon="6.52025">
        <ele>1908</ele>
        <time>2022-07-17T04:53:56Z</time>
      </trkpt>
      <trkpt lat="45.74862" lon="6.52021">
        <ele>1908</ele>
        <time>2022-07-17T04:53:58Z</time>
      </trkpt>
      <trkpt lat="45.74862" lon="6.52018">
        <ele>1909</ele>
        <time>2022-07-17T04:54:00Z</time>
      </trkpt>
      <trkpt lat="45.74862" lon="6.52014">
        <ele>1909</ele>
        <time>2022-07-17T04:54:03Z</time>
      </trkpt>
      <trkpt lat="45.74862" lon="6.52011">
        <ele>1908</ele>
        <time>2022-07-17T04:54:04Z</time>
      </trkpt>
      <trkpt lat="45.74862" lon="6.52008">
        <ele>1908</ele>
        <time>2022-07-17T04:54:06Z</time>
      </trkpt>
      <trkpt lat="45.74862" lon="6.52004">
        <ele>1908</ele>
        <time>2022-07-17T04:54:08Z</time>
      </trkpt>
      <trkpt lat="45.74862" lon="6.52001">
        <ele>1909</ele>
        <time>2022-07-17T04:54:10Z</time>
      </trkpt>
      <trkpt lat="45.74862" lon="6.51998">
        <ele>1909</ele>
        <time>2022-07-17T04:54:12Z</time>
      </trkpt>
      <trkpt lat="45.74863" lon="6.51995">
        <ele>1909</ele>
        <time>2022-07-17T04:54:14Z</time>
      </trkpt>
      <trkpt lat="45.74863" lon="6.51992">
        <ele>1910</ele>
        <time>2022-07-17T04:54:16Z</time>
      </trkpt>
      <trkpt lat="45.74863" lon="6.51988">
        <ele>1910</ele>
        <time>2022-07-17T04:54:19Z</time>
      </trkpt>
      <trkpt lat="45.74864" lon="6.51984">
        <ele>1910</ele>
        <time>2022-07-17T04:54:22Z</time>
      </trkpt>
      <trkpt lat="45.74864" lon="6.5198">
        <ele>1910</ele>
        <time>2022-07-17T04:54:25Z</time>
      </trkpt>
      <trkpt lat="45.74865" lon="6.51977">
        <ele>1911</ele>
        <time>2022-07-17T04:54:28Z</time>
      </trkpt>
      <trkpt lat="45.74865" lon="6.51973">
        <ele>1911</ele>
        <time>2022-07-17T04:54:31Z</time>
      </trkpt>
      <trkpt lat="45.74866" lon="6.5197">
        <ele>1912</ele>
        <time>2022-07-17T04:54:33Z</time>
      </trkpt>
      <trkpt lat="45.74866" lon="6.51967">
        <ele>1912</ele>
        <time>2022-07-17T04:54:35Z</time>
      </trkpt>
      <trkpt lat="45.74866" lon="6.51964">
        <ele>1912</ele>
        <time>2022-07-17T04:54:37Z</time>
      </trkpt>
      <trkpt lat="45.74866" lon="6.51959">
        <ele>1912</ele>
        <time>2022-07-17T04:54:40Z</time>
      </trkpt>
      <trkpt lat="45.74866" lon="6.51956">
        <ele>1912</ele>
        <time>2022-07-17T04:54:42Z</time>
      </trkpt>
      <trkpt lat="45.74866" lon="6.51953">
        <ele>1912</ele>
        <time>2022-07-17T04:54:44Z</time>
      </trkpt>
      <trkpt lat="45.74866" lon="6.51949">
        <ele>1912</ele>
        <time>2022-07-17T04:54:46Z</time>
      </trkpt>
      <trkpt lat="45.74867" lon="6.51946">
        <ele>1912</ele>
        <time>2022-07-17T04:54:48Z</time>
      </trkpt>
      <trkpt lat="45.74866" lon="6.51943">
        <ele>1912</ele>
        <time>2022-07-17T04:54:50Z</time>
      </trkpt>
      <trkpt lat="45.74867" lon="6.51941">
        <ele>1913</ele>
        <time>2022-07-17T04:54:52Z</time>
      </trkpt>
      <trkpt lat="45.74867" lon="6.51938">
        <ele>1913</ele>
        <time>2022-07-17T04:54:54Z</time>
      </trkpt>
      <trkpt lat="45.74867" lon="6.51935">
        <ele>1913</ele>
        <time>2022-07-17T04:54:56Z</time>
      </trkpt>
      <trkpt lat="45.74867" lon="6.51932">
        <ele>1913</ele>
        <time>2022-07-17T04:54:59Z</time>
      </trkpt>
      <trkpt lat="45.74867" lon="6.51929">
        <ele>1913</ele>
        <time>2022-07-17T04:55:01Z</time>
      </trkpt>
      <trkpt lat="45.74867" lon="6.51925">
        <ele>1913</ele>
        <time>2022-07-17T04:55:03Z</time>
      </trkpt>
      <trkpt lat="45.74867" lon="6.51922">
        <ele>1913</ele>
        <time>2022-07-17T04:55:05Z</time>
      </trkpt>
      <trkpt lat="45.74867" lon="6.51919">
        <ele>1913</ele>
        <time>2022-07-17T04:55:07Z</time>
      </trkpt>
      <trkpt lat="45.74867" lon="6.51916">
        <ele>1913</ele>
        <time>2022-07-17T04:55:09Z</time>
      </trkpt>
      <trkpt lat="45.74866" lon="6.51912">
        <ele>1913</ele>
        <time>2022-07-17T04:55:11Z</time>
      </trkpt>
      <trkpt lat="45.74866" lon="6.51909">
        <ele>1914</ele>
        <time>2022-07-17T04:55:13Z</time>
      </trkpt>
      <trkpt lat="45.74866" lon="6.51906">
        <ele>1914</ele>
        <time>2022-07-17T04:55:15Z</time>
      </trkpt>
      <trkpt lat="45.74866" lon="6.51903">
        <ele>1914</ele>
        <time>2022-07-17T04:55:18Z</time>
      </trkpt>
      <trkpt lat="45.74866" lon="6.51899">
        <ele>1915</ele>
        <time>2022-07-17T04:55:19Z</time>
      </trkpt>
      <trkpt lat="45.74866" lon="6.51896">
        <ele>1915</ele>
        <time>2022-07-17T04:55:21Z</time>
      </trkpt>
      <trkpt lat="45.74867" lon="6.51893">
        <ele>1915</ele>
        <time>2022-07-17T04:55:23Z</time>
      </trkpt>
      <trkpt lat="45.74867" lon="6.5189">
        <ele>1915</ele>
        <time>2022-07-17T04:55:25Z</time>
      </trkpt>
      <trkpt lat="45.74867" lon="6.51887">
        <ele>1915</ele>
        <time>2022-07-17T04:55:27Z</time>
      </trkpt>
      <trkpt lat="45.74867" lon="6.51884">
        <ele>1916</ele>
        <time>2022-07-17T04:55:29Z</time>
      </trkpt>
      <trkpt lat="45.74867" lon="6.51882">
        <ele>1916</ele>
        <time>2022-07-17T04:55:31Z</time>
      </trkpt>
      <trkpt lat="45.74868" lon="6.51879">
        <ele>1917</ele>
        <time>2022-07-17T04:55:36Z</time>
      </trkpt>
      <trkpt lat="45.74869" lon="6.51876">
        <ele>1917</ele>
        <time>2022-07-17T04:55:38Z</time>
      </trkpt>
      <trkpt lat="45.74869" lon="6.51872">
        <ele>1917</ele>
        <time>2022-07-17T04:55:40Z</time>
      </trkpt>
      <trkpt lat="45.74868" lon="6.51869">
        <ele>1918</ele>
        <time>2022-07-17T04:55:42Z</time>
      </trkpt>
      <trkpt lat="45.74868" lon="6.51867">
        <ele>1918</ele>
        <time>2022-07-17T04:55:44Z</time>
      </trkpt>
      <trkpt lat="45.74867" lon="6.51864">
        <ele>1919</ele>
        <time>2022-07-17T04:55:50Z</time>
      </trkpt>
      <trkpt lat="45.74867" lon="6.51862">
        <ele>1919</ele>
        <time>2022-07-17T04:55:53Z</time>
      </trkpt>
      <trkpt lat="45.74867" lon="6.51857">
        <ele>1919</ele>
        <time>2022-07-17T04:55:56Z</time>
      </trkpt>
      <trkpt lat="45.74868" lon="6.51854">
        <ele>1919</ele>
        <time>2022-07-17T04:55:58Z</time>
      </trkpt>
      <trkpt lat="45.74868" lon="6.51851">
        <ele>1920</ele>
        <time>2022-07-17T04:56:01Z</time>
      </trkpt>
      <trkpt lat="45.74869" lon="6.51848">
        <ele>1920</ele>
        <time>2022-07-17T04:56:03Z</time>
      </trkpt>
      <trkpt lat="45.74869" lon="6.51845">
        <ele>1920</ele>
        <time>2022-07-17T04:56:05Z</time>
      </trkpt>
      <trkpt lat="45.7487" lon="6.51842">
        <ele>1920</ele>
        <time>2022-07-17T04:56:08Z</time>
      </trkpt>
      <trkpt lat="45.74871" lon="6.51838">
        <ele>1921</ele>
        <time>2022-07-17T04:56:11Z</time>
      </trkpt>
      <trkpt lat="45.74871" lon="6.51834">
        <ele>1922</ele>
        <time>2022-07-17T04:56:15Z</time>
      </trkpt>
      <trkpt lat="45.74872" lon="6.5183">
        <ele>1922</ele>
        <time>2022-07-17T04:56:17Z</time>
      </trkpt>
      <trkpt lat="45.74872" lon="6.51828">
        <ele>1923</ele>
        <time>2022-07-17T04:56:19Z</time>
      </trkpt>
      <trkpt lat="45.74873" lon="6.51824">
        <ele>1923</ele>
        <time>2022-07-17T04:56:22Z</time>
      </trkpt>
      <trkpt lat="45.74873" lon="6.51821">
        <ele>1924</ele>
        <time>2022-07-17T04:56:25Z</time>
      </trkpt>
      <trkpt lat="45.74874" lon="6.51818">
        <ele>1924</ele>
        <time>2022-07-17T04:56:27Z</time>
      </trkpt>
      <trkpt lat="45.74874" lon="6.51816">
        <ele>1924</ele>
        <time>2022-07-17T04:56:29Z</time>
      </trkpt>
      <trkpt lat="45.74874" lon="6.51813">
        <ele>1924</ele>
        <time>2022-07-17T04:56:31Z</time>
      </trkpt>
      <trkpt lat="45.74875" lon="6.5181">
        <ele>1924</ele>
        <time>2022-07-17T04:56:34Z</time>
      </trkpt>
      <trkpt lat="45.74875" lon="6.51807">
        <ele>1924</ele>
        <time>2022-07-17T04:56:35Z</time>
      </trkpt>
      <trkpt lat="45.74876" lon="6.51804">
        <ele>1924</ele>
        <time>2022-07-17T04:56:38Z</time>
      </trkpt>
      <trkpt lat="45.74876" lon="6.51801">
        <ele>1924</ele>
        <time>2022-07-17T04:56:41Z</time>
      </trkpt>
      <trkpt lat="45.74877" lon="6.51798">
        <ele>1925</ele>
        <time>2022-07-17T04:56:44Z</time>
      </trkpt>
      <trkpt lat="45.74877" lon="6.51795">
        <ele>1925</ele>
        <time>2022-07-17T04:56:47Z</time>
      </trkpt>
      <trkpt lat="45.74876" lon="6.51792">
        <ele>1926</ele>
        <time>2022-07-17T04:56:49Z</time>
      </trkpt>
      <trkpt lat="45.74876" lon="6.51788">
        <ele>1927</ele>
        <time>2022-07-17T04:56:53Z</time>
      </trkpt>
      <trkpt lat="45.74876" lon="6.51785">
        <ele>1927</ele>
        <time>2022-07-17T04:56:56Z</time>
      </trkpt>
      <trkpt lat="45.74876" lon="6.51782">
        <ele>1927</ele>
        <time>2022-07-17T04:56:59Z</time>
      </trkpt>
      <trkpt lat="45.74876" lon="6.51779">
        <ele>1928</ele>
        <time>2022-07-17T04:57:02Z</time>
      </trkpt>
      <trkpt lat="45.74876" lon="6.51775">
        <ele>1929</ele>
        <time>2022-07-17T04:57:05Z</time>
      </trkpt>
      <trkpt lat="45.74876" lon="6.51772">
        <ele>1929</ele>
        <time>2022-07-17T04:57:08Z</time>
      </trkpt>
      <trkpt lat="45.74876" lon="6.51769">
        <ele>1929</ele>
        <time>2022-07-17T04:57:11Z</time>
      </trkpt>
      <trkpt lat="45.74877" lon="6.51765">
        <ele>1929</ele>
        <time>2022-07-17T04:57:14Z</time>
      </trkpt>
      <trkpt lat="45.74877" lon="6.51762">
        <ele>1930</ele>
        <time>2022-07-17T04:57:17Z</time>
      </trkpt>
      <trkpt lat="45.74877" lon="6.51759">
        <ele>1930</ele>
        <time>2022-07-17T04:57:20Z</time>
      </trkpt>
      <trkpt lat="45.74877" lon="6.51757">
        <ele>1931</ele>
        <time>2022-07-17T04:57:22Z</time>
      </trkpt>
      <trkpt lat="45.74877" lon="6.51753">
        <ele>1932</ele>
        <time>2022-07-17T04:57:25Z</time>
      </trkpt>
      <trkpt lat="45.74877" lon="6.5175">
        <ele>1933</ele>
        <time>2022-07-17T04:57:29Z</time>
      </trkpt>
      <trkpt lat="45.74877" lon="6.51747">
        <ele>1933</ele>
        <time>2022-07-17T04:57:32Z</time>
      </trkpt>
      <trkpt lat="45.74877" lon="6.51745">
        <ele>1934</ele>
        <time>2022-07-17T04:57:35Z</time>
      </trkpt>
      <trkpt lat="45.74876" lon="6.51742">
        <ele>1934</ele>
        <time>2022-07-17T04:57:38Z</time>
      </trkpt>
      <trkpt lat="45.74876" lon="6.51739">
        <ele>1934</ele>
        <time>2022-07-17T04:57:41Z</time>
      </trkpt>
      <trkpt lat="45.74876" lon="6.51736">
        <ele>1934</ele>
        <time>2022-07-17T04:57:44Z</time>
      </trkpt>
      <trkpt lat="45.74876" lon="6.51733">
        <ele>1935</ele>
        <time>2022-07-17T04:57:47Z</time>
      </trkpt>
      <trkpt lat="45.74876" lon="6.5173">
        <ele>1936</ele>
        <time>2022-07-17T04:57:50Z</time>
      </trkpt>
      <trkpt lat="45.74876" lon="6.51727">
        <ele>1936</ele>
        <time>2022-07-17T04:57:53Z</time>
      </trkpt>
      <trkpt lat="45.74876" lon="6.51724">
        <ele>1937</ele>
        <time>2022-07-17T04:57:56Z</time>
      </trkpt>
      <trkpt lat="45.74876" lon="6.51721">
        <ele>1938</ele>
        <time>2022-07-17T04:58:00Z</time>
      </trkpt>
      <trkpt lat="45.74876" lon="6.51718">
        <ele>1938</ele>
        <time>2022-07-17T04:58:03Z</time>
      </trkpt>
      <trkpt lat="45.74876" lon="6.51715">
        <ele>1939</ele>
        <time>2022-07-17T04:58:06Z</time>
      </trkpt>
      <trkpt lat="45.74876" lon="6.51711">
        <ele>1939</ele>
        <time>2022-07-17T04:58:09Z</time>
      </trkpt>
      <trkpt lat="45.74876" lon="6.51709">
        <ele>1939</ele>
        <time>2022-07-17T04:58:12Z</time>
      </trkpt>
      <trkpt lat="45.74876" lon="6.51706">
        <ele>1940</ele>
        <time>2022-07-17T04:58:15Z</time>
      </trkpt>
      <trkpt lat="45.74875" lon="6.51703">
        <ele>1940</ele>
        <time>2022-07-17T04:58:18Z</time>
      </trkpt>
      <trkpt lat="45.74875" lon="6.51699">
        <ele>1941</ele>
        <time>2022-07-17T04:58:21Z</time>
      </trkpt>
      <trkpt lat="45.74875" lon="6.51697">
        <ele>1941</ele>
        <time>2022-07-17T04:58:24Z</time>
      </trkpt>
      <trkpt lat="45.74875" lon="6.51694">
        <ele>1942</ele>
        <time>2022-07-17T04:58:28Z</time>
      </trkpt>
      <trkpt lat="45.74874" lon="6.51691">
        <ele>1942</ele>
        <time>2022-07-17T04:58:30Z</time>
      </trkpt>
      <trkpt lat="45.74874" lon="6.51687">
        <ele>1942</ele>
        <time>2022-07-17T04:58:33Z</time>
      </trkpt>
      <trkpt lat="45.74874" lon="6.51684">
        <ele>1943</ele>
        <time>2022-07-17T04:58:36Z</time>
      </trkpt>
      <trkpt lat="45.74874" lon="6.51681">
        <ele>1944</ele>
        <time>2022-07-17T04:58:39Z</time>
      </trkpt>
      <trkpt lat="45.74875" lon="6.51678">
        <ele>1943</ele>
        <time>2022-07-17T04:58:42Z</time>
      </trkpt>
      <trkpt lat="45.74875" lon="6.51675">
        <ele>1944</ele>
        <time>2022-07-17T04:58:45Z</time>
      </trkpt>
      <trkpt lat="45.74875" lon="6.51672">
        <ele>1944</ele>
        <time>2022-07-17T04:58:48Z</time>
      </trkpt>
      <trkpt lat="45.74875" lon="6.51669">
        <ele>1945</ele>
        <time>2022-07-17T04:58:51Z</time>
      </trkpt>
      <trkpt lat="45.74875" lon="6.51666">
        <ele>1946</ele>
        <time>2022-07-17T04:58:54Z</time>
      </trkpt>
      <trkpt lat="45.74874" lon="6.51663">
        <ele>1947</ele>
        <time>2022-07-17T04:58:57Z</time>
      </trkpt>
      <trkpt lat="45.74874" lon="6.51661">
        <ele>1947</ele>
        <time>2022-07-17T04:59:00Z</time>
      </trkpt>
      <trkpt lat="45.74874" lon="6.51657">
        <ele>1947</ele>
        <time>2022-07-17T04:59:03Z</time>
      </trkpt>
      <trkpt lat="45.74873" lon="6.51654">
        <ele>1948</ele>
        <time>2022-07-17T04:59:06Z</time>
      </trkpt>
      <trkpt lat="45.74873" lon="6.51651">
        <ele>1949</ele>
        <time>2022-07-17T04:59:09Z</time>
      </trkpt>
      <trkpt lat="45.74872" lon="6.51648">
        <ele>1949</ele>
        <time>2022-07-17T04:59:12Z</time>
      </trkpt>
      <trkpt lat="45.74872" lon="6.51645">
        <ele>1949</ele>
        <time>2022-07-17T04:59:15Z</time>
      </trkpt>
      <trkpt lat="45.74872" lon="6.51641">
        <ele>1950</ele>
        <time>2022-07-17T04:59:18Z</time>
      </trkpt>
      <trkpt lat="45.74872" lon="6.51639">
        <ele>1950</ele>
        <time>2022-07-17T04:59:20Z</time>
      </trkpt>
      <trkpt lat="45.74871" lon="6.51635">
        <ele>1950</ele>
        <time>2022-07-17T04:59:23Z</time>
      </trkpt>
      <trkpt lat="45.74871" lon="6.51631">
        <ele>1951</ele>
        <time>2022-07-17T04:59:26Z</time>
      </trkpt>
      <trkpt lat="45.7487" lon="6.51628">
        <ele>1951</ele>
        <time>2022-07-17T04:59:29Z</time>
      </trkpt>
      <trkpt lat="45.74869" lon="6.51625">
        <ele>1952</ele>
        <time>2022-07-17T04:59:31Z</time>
      </trkpt>
      <trkpt lat="45.74868" lon="6.51622">
        <ele>1952</ele>
        <time>2022-07-17T04:59:34Z</time>
      </trkpt>
      <trkpt lat="45.74867" lon="6.51619">
        <ele>1952</ele>
        <time>2022-07-17T04:59:36Z</time>
      </trkpt>
      <trkpt lat="45.74866" lon="6.51617">
        <ele>1952</ele>
        <time>2022-07-17T04:59:38Z</time>
      </trkpt>
      <trkpt lat="45.74866" lon="6.51614">
        <ele>1953</ele>
        <time>2022-07-17T04:59:40Z</time>
      </trkpt>
      <trkpt lat="45.74866" lon="6.51611">
        <ele>1953</ele>
        <time>2022-07-17T04:59:42Z</time>
      </trkpt>
      <trkpt lat="45.74865" lon="6.51607">
        <ele>1953</ele>
        <time>2022-07-17T04:59:45Z</time>
      </trkpt>
      <trkpt lat="45.74865" lon="6.51604">
        <ele>1954</ele>
        <time>2022-07-17T04:59:48Z</time>
      </trkpt>
      <trkpt lat="45.74864" lon="6.51601">
        <ele>1954</ele>
        <time>2022-07-17T04:59:51Z</time>
      </trkpt>
      <trkpt lat="45.74864" lon="6.51597">
        <ele>1954</ele>
        <time>2022-07-17T04:59:54Z</time>
      </trkpt>
      <trkpt lat="45.74864" lon="6.51594">
        <ele>1954</ele>
        <time>2022-07-17T04:59:56Z</time>
      </trkpt>
      <trkpt lat="45.74864" lon="6.51591">
        <ele>1954</ele>
        <time>2022-07-17T04:59:58Z</time>
      </trkpt>
      <trkpt lat="45.74863" lon="6.51587">
        <ele>1954</ele>
        <time>2022-07-17T05:00:01Z</time>
      </trkpt>
      <trkpt lat="45.74863" lon="6.51585">
        <ele>1954</ele>
        <time>2022-07-17T05:00:03Z</time>
      </trkpt>
      <trkpt lat="45.74862" lon="6.51582">
        <ele>1955</ele>
        <time>2022-07-17T05:00:05Z</time>
      </trkpt>
      <trkpt lat="45.74862" lon="6.51579">
        <ele>1955</ele>
        <time>2022-07-17T05:00:07Z</time>
      </trkpt>
      <trkpt lat="45.74861" lon="6.51577">
        <ele>1956</ele>
        <time>2022-07-17T05:00:09Z</time>
      </trkpt>
      <trkpt lat="45.7486" lon="6.51574">
        <ele>1956</ele>
        <time>2022-07-17T05:00:11Z</time>
      </trkpt>
      <trkpt lat="45.7486" lon="6.51571">
        <ele>1957</ele>
        <time>2022-07-17T05:00:13Z</time>
      </trkpt>
      <trkpt lat="45.74859" lon="6.51569">
        <ele>1957</ele>
        <time>2022-07-17T05:00:15Z</time>
      </trkpt>
      <trkpt lat="45.74859" lon="6.51566">
        <ele>1957</ele>
        <time>2022-07-17T05:00:17Z</time>
      </trkpt>
      <trkpt lat="45.74858" lon="6.51563">
        <ele>1957</ele>
        <time>2022-07-17T05:00:20Z</time>
      </trkpt>
      <trkpt lat="45.74857" lon="6.51559">
        <ele>1958</ele>
        <time>2022-07-17T05:00:23Z</time>
      </trkpt>
      <trkpt lat="45.74856" lon="6.51556">
        <ele>1958</ele>
        <time>2022-07-17T05:00:25Z</time>
      </trkpt>
      <trkpt lat="45.74856" lon="6.51553">
        <ele>1958</ele>
        <time>2022-07-17T05:00:28Z</time>
      </trkpt>
      <trkpt lat="45.74855" lon="6.5155">
        <ele>1959</ele>
        <time>2022-07-17T05:00:30Z</time>
      </trkpt>
      <trkpt lat="45.74855" lon="6.51547">
        <ele>1959</ele>
        <time>2022-07-17T05:00:33Z</time>
      </trkpt>
      <trkpt lat="45.74854" lon="6.51543">
        <ele>1959</ele>
        <time>2022-07-17T05:00:36Z</time>
      </trkpt>
      <trkpt lat="45.74853" lon="6.5154">
        <ele>1959</ele>
        <time>2022-07-17T05:00:39Z</time>
      </trkpt>
      <trkpt lat="45.74853" lon="6.51536">
        <ele>1960</ele>
        <time>2022-07-17T05:00:42Z</time>
      </trkpt>
      <trkpt lat="45.74852" lon="6.51532">
        <ele>1962</ele>
        <time>2022-07-17T05:00:45Z</time>
      </trkpt>
      <trkpt lat="45.74851" lon="6.51529">
        <ele>1962</ele>
        <time>2022-07-17T05:00:48Z</time>
      </trkpt>
      <trkpt lat="45.74851" lon="6.51525">
        <ele>1963</ele>
        <time>2022-07-17T05:00:51Z</time>
      </trkpt>
      <trkpt lat="45.7485" lon="6.51522">
        <ele>1964</ele>
        <time>2022-07-17T05:00:54Z</time>
      </trkpt>
      <trkpt lat="45.7485" lon="6.51519">
        <ele>1963</ele>
        <time>2022-07-17T05:00:56Z</time>
      </trkpt>
      <trkpt lat="45.7485" lon="6.51517">
        <ele>1964</ele>
        <time>2022-07-17T05:00:58Z</time>
      </trkpt>
      <trkpt lat="45.74849" lon="6.51513">
        <ele>1964</ele>
        <time>2022-07-17T05:01:01Z</time>
      </trkpt>
      <trkpt lat="45.74849" lon="6.5151">
        <ele>1965</ele>
        <time>2022-07-17T05:01:04Z</time>
      </trkpt>
      <trkpt lat="45.74848" lon="6.51507">
        <ele>1965</ele>
        <time>2022-07-17T05:01:07Z</time>
      </trkpt>
      <trkpt lat="45.74848" lon="6.51503">
        <ele>1966</ele>
        <time>2022-07-17T05:01:10Z</time>
      </trkpt>
      <trkpt lat="45.74848" lon="6.515">
        <ele>1966</ele>
        <time>2022-07-17T05:01:12Z</time>
      </trkpt>
      <trkpt lat="45.74848" lon="6.51498">
        <ele>1966</ele>
        <time>2022-07-17T05:01:14Z</time>
      </trkpt>
      <trkpt lat="45.74848" lon="6.51494">
        <ele>1967</ele>
        <time>2022-07-17T05:01:17Z</time>
      </trkpt>
      <trkpt lat="45.74848" lon="6.51491">
        <ele>1967</ele>
        <time>2022-07-17T05:01:19Z</time>
      </trkpt>
      <trkpt lat="45.74847" lon="6.51488">
        <ele>1967</ele>
        <time>2022-07-17T05:01:22Z</time>
      </trkpt>
      <trkpt lat="45.74846" lon="6.51485">
        <ele>1967</ele>
        <time>2022-07-17T05:01:24Z</time>
      </trkpt>
      <trkpt lat="45.74846" lon="6.51481">
        <ele>1967</ele>
        <time>2022-07-17T05:01:26Z</time>
      </trkpt>
      <trkpt lat="45.74845" lon="6.51478">
        <ele>1967</ele>
        <time>2022-07-17T05:01:28Z</time>
      </trkpt>
      <trkpt lat="45.74845" lon="6.51475">
        <ele>1967</ele>
        <time>2022-07-17T05:01:30Z</time>
      </trkpt>
      <trkpt lat="45.74844" lon="6.51472">
        <ele>1967</ele>
        <time>2022-07-17T05:01:32Z</time>
      </trkpt>
      <trkpt lat="45.74844" lon="6.51469">
        <ele>1967</ele>
        <time>2022-07-17T05:01:34Z</time>
      </trkpt>
      <trkpt lat="45.74844" lon="6.51465">
        <ele>1967</ele>
        <time>2022-07-17T05:01:36Z</time>
      </trkpt>
      <trkpt lat="45.74843" lon="6.51462">
        <ele>1967</ele>
        <time>2022-07-17T05:01:39Z</time>
      </trkpt>
      <trkpt lat="45.74843" lon="6.51459">
        <ele>1967</ele>
        <time>2022-07-17T05:01:40Z</time>
      </trkpt>
      <trkpt lat="45.74842" lon="6.51456">
        <ele>1967</ele>
        <time>2022-07-17T05:01:42Z</time>
      </trkpt>
      <trkpt lat="45.74842" lon="6.51453">
        <ele>1967</ele>
        <time>2022-07-17T05:01:44Z</time>
      </trkpt>
      <trkpt lat="45.74841" lon="6.51449">
        <ele>1967</ele>
        <time>2022-07-17T05:01:46Z</time>
      </trkpt>
      <trkpt lat="45.74841" lon="6.51446">
        <ele>1967</ele>
        <time>2022-07-17T05:01:48Z</time>
      </trkpt>
      <trkpt lat="45.7484" lon="6.51443">
        <ele>1967</ele>
        <time>2022-07-17T05:01:50Z</time>
      </trkpt>
      <trkpt lat="45.7484" lon="6.5144">
        <ele>1967</ele>
        <time>2022-07-17T05:01:52Z</time>
      </trkpt>
      <trkpt lat="45.74839" lon="6.51437">
        <ele>1967</ele>
        <time>2022-07-17T05:01:54Z</time>
      </trkpt>
      <trkpt lat="45.74839" lon="6.51433">
        <ele>1967</ele>
        <time>2022-07-17T05:01:57Z</time>
      </trkpt>
      <trkpt lat="45.74838" lon="6.51429">
        <ele>1967</ele>
        <time>2022-07-17T05:02:00Z</time>
      </trkpt>
      <trkpt lat="45.74838" lon="6.51426">
        <ele>1967</ele>
        <time>2022-07-17T05:02:02Z</time>
      </trkpt>
      <trkpt lat="45.74837" lon="6.51423">
        <ele>1967</ele>
        <time>2022-07-17T05:02:04Z</time>
      </trkpt>
      <trkpt lat="45.74837" lon="6.5142">
        <ele>1967</ele>
        <time>2022-07-17T05:02:06Z</time>
      </trkpt>
      <trkpt lat="45.74836" lon="6.51417">
        <ele>1967</ele>
        <time>2022-07-17T05:02:08Z</time>
      </trkpt>
      <trkpt lat="45.74836" lon="6.51414">
        <ele>1967</ele>
        <time>2022-07-17T05:02:10Z</time>
      </trkpt>
      <trkpt lat="45.74836" lon="6.51411">
        <ele>1968</ele>
        <time>2022-07-17T05:02:12Z</time>
      </trkpt>
      <trkpt lat="45.74835" lon="6.51407">
        <ele>1968</ele>
        <time>2022-07-17T05:02:14Z</time>
      </trkpt>
      <trkpt lat="45.74835" lon="6.51404">
        <ele>1967</ele>
        <time>2022-07-17T05:02:17Z</time>
      </trkpt>
      <trkpt lat="45.74834" lon="6.51401">
        <ele>1967</ele>
        <time>2022-07-17T05:02:18Z</time>
      </trkpt>
      <trkpt lat="45.74834" lon="6.51398">
        <ele>1967</ele>
        <time>2022-07-17T05:02:20Z</time>
      </trkpt>
      <trkpt lat="45.74834" lon="6.51395">
        <ele>1967</ele>
        <time>2022-07-17T05:02:22Z</time>
      </trkpt>
      <trkpt lat="45.74834" lon="6.51393">
        <ele>1967</ele>
        <time>2022-07-17T05:02:24Z</time>
      </trkpt>
      <trkpt lat="45.74833" lon="6.5139">
        <ele>1968</ele>
        <time>2022-07-17T05:02:26Z</time>
      </trkpt>
      <trkpt lat="45.74833" lon="6.51387">
        <ele>1968</ele>
        <time>2022-07-17T05:02:28Z</time>
      </trkpt>
      <trkpt lat="45.74833" lon="6.51384">
        <ele>1968</ele>
        <time>2022-07-17T05:02:30Z</time>
      </trkpt>
      <trkpt lat="45.74833" lon="6.51382">
        <ele>1969</ele>
        <time>2022-07-17T05:02:32Z</time>
      </trkpt>
      <trkpt lat="45.74832" lon="6.51379">
        <ele>1969</ele>
        <time>2022-07-17T05:02:34Z</time>
      </trkpt>
      <trkpt lat="45.74832" lon="6.51375">
        <ele>1969</ele>
        <time>2022-07-17T05:02:37Z</time>
      </trkpt>
      <trkpt lat="45.74832" lon="6.51371">
        <ele>1969</ele>
        <time>2022-07-17T05:02:40Z</time>
      </trkpt>
      <trkpt lat="45.74831" lon="6.51369">
        <ele>1969</ele>
        <time>2022-07-17T05:02:42Z</time>
      </trkpt>
      <trkpt lat="45.7483" lon="6.51366">
        <ele>1969</ele>
        <time>2022-07-17T05:02:44Z</time>
      </trkpt>
      <trkpt lat="45.7483" lon="6.51363">
        <ele>1969</ele>
        <time>2022-07-17T05:02:46Z</time>
      </trkpt>
      <trkpt lat="45.74829" lon="6.5136">
        <ele>1970</ele>
        <time>2022-07-17T05:02:49Z</time>
      </trkpt>
      <trkpt lat="45.74828" lon="6.51357">
        <ele>1970</ele>
        <time>2022-07-17T05:02:51Z</time>
      </trkpt>
      <trkpt lat="45.74827" lon="6.51354">
        <ele>1970</ele>
        <time>2022-07-17T05:02:54Z</time>
      </trkpt>
      <trkpt lat="45.74827" lon="6.5135">
        <ele>1971</ele>
        <time>2022-07-17T05:02:57Z</time>
      </trkpt>
      <trkpt lat="45.74826" lon="6.51347">
        <ele>1971</ele>
        <time>2022-07-17T05:03:00Z</time>
      </trkpt>
      <trkpt lat="45.74825" lon="6.51344">
        <ele>1971</ele>
        <time>2022-07-17T05:03:02Z</time>
      </trkpt>
      <trkpt lat="45.74825" lon="6.51341">
        <ele>1971</ele>
        <time>2022-07-17T05:03:04Z</time>
      </trkpt>
      <trkpt lat="45.74824" lon="6.51338">
        <ele>1971</ele>
        <time>2022-07-17T05:03:06Z</time>
      </trkpt>
      <trkpt lat="45.74823" lon="6.51335">
        <ele>1971</ele>
        <time>2022-07-17T05:03:08Z</time>
      </trkpt>
      <trkpt lat="45.74823" lon="6.51332">
        <ele>1971</ele>
        <time>2022-07-17T05:03:10Z</time>
      </trkpt>
      <trkpt lat="45.74822" lon="6.51329">
        <ele>1971</ele>
        <time>2022-07-17T05:03:12Z</time>
      </trkpt>
      <trkpt lat="45.74822" lon="6.51326">
        <ele>1971</ele>
        <time>2022-07-17T05:03:14Z</time>
      </trkpt>
      <trkpt lat="45.74822" lon="6.51324">
        <ele>1971</ele>
        <time>2022-07-17T05:03:16Z</time>
      </trkpt>
      <trkpt lat="45.74821" lon="6.51321">
        <ele>1971</ele>
        <time>2022-07-17T05:03:18Z</time>
      </trkpt>
      <trkpt lat="45.74821" lon="6.51318">
        <ele>1972</ele>
        <time>2022-07-17T05:03:20Z</time>
      </trkpt>
      <trkpt lat="45.7482" lon="6.51314">
        <ele>1972</ele>
        <time>2022-07-17T05:03:23Z</time>
      </trkpt>
      <trkpt lat="45.7482" lon="6.51311">
        <ele>1973</ele>
        <time>2022-07-17T05:03:26Z</time>
      </trkpt>
      <trkpt lat="45.7482" lon="6.51308">
        <ele>1973</ele>
        <time>2022-07-17T05:03:28Z</time>
      </trkpt>
      <trkpt lat="45.74819" lon="6.51306">
        <ele>1973</ele>
        <time>2022-07-17T05:03:30Z</time>
      </trkpt>
      <trkpt lat="45.74819" lon="6.51302">
        <ele>1974</ele>
        <time>2022-07-17T05:03:33Z</time>
      </trkpt>
      <trkpt lat="45.74818" lon="6.51299">
        <ele>1974</ele>
        <time>2022-07-17T05:03:35Z</time>
      </trkpt>
      <trkpt lat="45.74818" lon="6.51296">
        <ele>1975</ele>
        <time>2022-07-17T05:03:37Z</time>
      </trkpt>
      <trkpt lat="45.74818" lon="6.51293">
        <ele>1974</ele>
        <time>2022-07-17T05:03:40Z</time>
      </trkpt>
      <trkpt lat="45.74818" lon="6.51289">
        <ele>1975</ele>
        <time>2022-07-17T05:03:43Z</time>
      </trkpt>
      <trkpt lat="45.74817" lon="6.51285">
        <ele>1975</ele>
        <time>2022-07-17T05:03:46Z</time>
      </trkpt>
      <trkpt lat="45.74817" lon="6.51281">
        <ele>1975</ele>
        <time>2022-07-17T05:03:49Z</time>
      </trkpt>
      <trkpt lat="45.74816" lon="6.51278">
        <ele>1975</ele>
        <time>2022-07-17T05:03:52Z</time>
      </trkpt>
      <trkpt lat="45.74816" lon="6.51274">
        <ele>1976</ele>
        <time>2022-07-17T05:03:55Z</time>
      </trkpt>
      <trkpt lat="45.74815" lon="6.51271">
        <ele>1976</ele>
        <time>2022-07-17T05:03:57Z</time>
      </trkpt>
      <trkpt lat="45.74815" lon="6.51269">
        <ele>1976</ele>
        <time>2022-07-17T05:03:59Z</time>
      </trkpt>
      <trkpt lat="45.74815" lon="6.51265">
        <ele>1977</ele>
        <time>2022-07-17T05:04:02Z</time>
      </trkpt>
      <trkpt lat="45.74814" lon="6.51261">
        <ele>1977</ele>
        <time>2022-07-17T05:04:05Z</time>
      </trkpt>
      <trkpt lat="45.74814" lon="6.51259">
        <ele>1978</ele>
        <time>2022-07-17T05:04:07Z</time>
      </trkpt>
      <trkpt lat="45.74814" lon="6.51256">
        <ele>1978</ele>
        <time>2022-07-17T05:04:09Z</time>
      </trkpt>
      <trkpt lat="45.74813" lon="6.51254">
        <ele>1978</ele>
        <time>2022-07-17T05:04:11Z</time>
      </trkpt>
      <trkpt lat="45.74813" lon="6.51251">
        <ele>1978</ele>
        <time>2022-07-17T05:04:13Z</time>
      </trkpt>
      <trkpt lat="45.74813" lon="6.51248">
        <ele>1979</ele>
        <time>2022-07-17T05:04:15Z</time>
      </trkpt>
      <trkpt lat="45.74813" lon="6.51245">
        <ele>1979</ele>
        <time>2022-07-17T05:04:17Z</time>
      </trkpt>
      <trkpt lat="45.74812" lon="6.51242">
        <ele>1979</ele>
        <time>2022-07-17T05:04:19Z</time>
      </trkpt>
      <trkpt lat="45.74812" lon="6.51239">
        <ele>1979</ele>
        <time>2022-07-17T05:04:21Z</time>
      </trkpt>
      <trkpt lat="45.74812" lon="6.51236">
        <ele>1979</ele>
        <time>2022-07-17T05:04:23Z</time>
      </trkpt>
      <trkpt lat="45.74812" lon="6.51233">
        <ele>1979</ele>
        <time>2022-07-17T05:04:25Z</time>
      </trkpt>
      <trkpt lat="45.74811" lon="6.51231">
        <ele>1980</ele>
        <time>2022-07-17T05:04:27Z</time>
      </trkpt>
      <trkpt lat="45.74811" lon="6.51227">
        <ele>1980</ele>
        <time>2022-07-17T05:04:29Z</time>
      </trkpt>
      <trkpt lat="45.74811" lon="6.51224">
        <ele>1979</ele>
        <time>2022-07-17T05:04:31Z</time>
      </trkpt>
      <trkpt lat="45.7481" lon="6.51221">
        <ele>1979</ele>
        <time>2022-07-17T05:04:33Z</time>
      </trkpt>
      <trkpt lat="45.7481" lon="6.51219">
        <ele>1980</ele>
        <time>2022-07-17T05:04:35Z</time>
      </trkpt>
      <trkpt lat="45.7481" lon="6.51216">
        <ele>1980</ele>
        <time>2022-07-17T05:04:37Z</time>
      </trkpt>
      <trkpt lat="45.7481" lon="6.51213">
        <ele>1980</ele>
        <time>2022-07-17T05:04:39Z</time>
      </trkpt>
      <trkpt lat="45.7481" lon="6.5121">
        <ele>1980</ele>
        <time>2022-07-17T05:04:41Z</time>
      </trkpt>
      <trkpt lat="45.74809" lon="6.51207">
        <ele>1980</ele>
        <time>2022-07-17T05:04:43Z</time>
      </trkpt>
      <trkpt lat="45.74809" lon="6.51205">
        <ele>1980</ele>
        <time>2022-07-17T05:04:45Z</time>
      </trkpt>
      <trkpt lat="45.74809" lon="6.51202">
        <ele>1980</ele>
        <time>2022-07-17T05:04:47Z</time>
      </trkpt>
      <trkpt lat="45.74809" lon="6.51199">
        <ele>1980</ele>
        <time>2022-07-17T05:04:49Z</time>
      </trkpt>
      <trkpt lat="45.74809" lon="6.51196">
        <ele>1982</ele>
        <time>2022-07-17T05:04:52Z</time>
      </trkpt>
      <trkpt lat="45.74809" lon="6.51193">
        <ele>1982</ele>
        <time>2022-07-17T05:04:55Z</time>
      </trkpt>
      <trkpt lat="45.74809" lon="6.5119">
        <ele>1982</ele>
        <time>2022-07-17T05:04:58Z</time>
      </trkpt>
      <trkpt lat="45.74808" lon="6.51186">
        <ele>1983</ele>
        <time>2022-07-17T05:05:01Z</time>
      </trkpt>
      <trkpt lat="45.74808" lon="6.51183">
        <ele>1983</ele>
        <time>2022-07-17T05:05:04Z</time>
      </trkpt>
      <trkpt lat="45.74808" lon="6.5118">
        <ele>1984</ele>
        <time>2022-07-17T05:05:08Z</time>
      </trkpt>
      <trkpt lat="45.74808" lon="6.51177">
        <ele>1985</ele>
        <time>2022-07-17T05:05:11Z</time>
      </trkpt>
      <trkpt lat="45.74807" lon="6.51174">
        <ele>1986</ele>
        <time>2022-07-17T05:05:14Z</time>
      </trkpt>
      <trkpt lat="45.74807" lon="6.51171">
        <ele>1986</ele>
        <time>2022-07-17T05:05:17Z</time>
      </trkpt>
      <trkpt lat="45.74807" lon="6.51168">
        <ele>1986</ele>
        <time>2022-07-17T05:05:20Z</time>
      </trkpt>
      <trkpt lat="45.74807" lon="6.51165">
        <ele>1988</ele>
        <time>2022-07-17T05:05:23Z</time>
      </trkpt>
      <trkpt lat="45.74806" lon="6.51162">
        <ele>1989</ele>
        <time>2022-07-17T05:05:26Z</time>
      </trkpt>
      <trkpt lat="45.74806" lon="6.51159">
        <ele>1990</ele>
        <time>2022-07-17T05:05:30Z</time>
      </trkpt>
      <trkpt lat="45.74805" lon="6.51156">
        <ele>1990</ele>
        <time>2022-07-17T05:05:34Z</time>
      </trkpt>
      <trkpt lat="45.74805" lon="6.51154">
        <ele>1990</ele>
        <time>2022-07-17T05:05:38Z</time>
      </trkpt>
      <trkpt lat="45.74804" lon="6.51151">
        <ele>1991</ele>
        <time>2022-07-17T05:05:42Z</time>
      </trkpt>
      <trkpt lat="45.74805" lon="6.51148">
        <ele>1992</ele>
        <time>2022-07-17T05:05:46Z</time>
      </trkpt>
      <trkpt lat="45.74805" lon="6.51145">
        <ele>1993</ele>
        <time>2022-07-17T05:05:50Z</time>
      </trkpt>
      <trkpt lat="45.74804" lon="6.51142">
        <ele>1994</ele>
        <time>2022-07-17T05:05:54Z</time>
      </trkpt>
      <trkpt lat="45.74804" lon="6.51139">
        <ele>1995</ele>
        <time>2022-07-17T05:05:57Z</time>
      </trkpt>
      <trkpt lat="45.74803" lon="6.51136">
        <ele>1996</ele>
        <time>2022-07-17T05:06:00Z</time>
      </trkpt>
      <trkpt lat="45.74803" lon="6.51133">
        <ele>1996</ele>
        <time>2022-07-17T05:06:04Z</time>
      </trkpt>
      <trkpt lat="45.74803" lon="6.51131">
        <ele>1997</ele>
        <time>2022-07-17T05:06:06Z</time>
      </trkpt>
      <trkpt lat="45.74802" lon="6.51128">
        <ele>1997</ele>
        <time>2022-07-17T05:06:10Z</time>
      </trkpt>
      <trkpt lat="45.74802" lon="6.51125">
        <ele>1998</ele>
        <time>2022-07-17T05:06:13Z</time>
      </trkpt>
      <trkpt lat="45.74802" lon="6.51121">
        <ele>1999</ele>
        <time>2022-07-17T05:06:16Z</time>
      </trkpt>
      <trkpt lat="45.74802" lon="6.51118">
        <ele>1999</ele>
        <time>2022-07-17T05:06:19Z</time>
      </trkpt>
      <trkpt lat="45.74802" lon="6.51114">
        <ele>1999</ele>
        <time>2022-07-17T05:06:22Z</time>
      </trkpt>
      <trkpt lat="45.74801" lon="6.5111">
        <ele>2000</ele>
        <time>2022-07-17T05:06:25Z</time>
      </trkpt>
      <trkpt lat="45.74801" lon="6.51107">
        <ele>2001</ele>
        <time>2022-07-17T05:06:28Z</time>
      </trkpt>
      <trkpt lat="45.748" lon="6.51104">
        <ele>2001</ele>
        <time>2022-07-17T05:06:31Z</time>
      </trkpt>
      <trkpt lat="45.74799" lon="6.51101">
        <ele>2002</ele>
        <time>2022-07-17T05:06:34Z</time>
      </trkpt>
      <trkpt lat="45.74798" lon="6.51098">
        <ele>2002</ele>
        <time>2022-07-17T05:06:37Z</time>
      </trkpt>
      <trkpt lat="45.74796" lon="6.51096">
        <ele>2002</ele>
        <time>2022-07-17T05:06:40Z</time>
      </trkpt>
      <trkpt lat="45.74794" lon="6.51095">
        <ele>2002</ele>
        <time>2022-07-17T05:06:43Z</time>
      </trkpt>
      <trkpt lat="45.74793" lon="6.51092">
        <ele>2003</ele>
        <time>2022-07-17T05:06:46Z</time>
      </trkpt>
      <trkpt lat="45.74791" lon="6.51089">
        <ele>2004</ele>
        <time>2022-07-17T05:06:49Z</time>
      </trkpt>
      <trkpt lat="45.7479" lon="6.51086">
        <ele>2004</ele>
        <time>2022-07-17T05:06:52Z</time>
      </trkpt>
      <trkpt lat="45.7479" lon="6.51083">
        <ele>2005</ele>
        <time>2022-07-17T05:06:55Z</time>
      </trkpt>
      <trkpt lat="45.7479" lon="6.5108">
        <ele>2005</ele>
        <time>2022-07-17T05:06:58Z</time>
      </trkpt>
      <trkpt lat="45.7479" lon="6.51077">
        <ele>2005</ele>
        <time>2022-07-17T05:07:02Z</time>
      </trkpt>
      <trkpt lat="45.74791" lon="6.51074">
        <ele>2005</ele>
        <time>2022-07-17T05:07:03Z</time>
      </trkpt>
      <trkpt lat="45.74792" lon="6.51072">
        <ele>2006</ele>
        <time>2022-07-17T05:07:05Z</time>
      </trkpt>
      <trkpt lat="45.74794" lon="6.51069">
        <ele>2006</ele>
        <time>2022-07-17T05:07:07Z</time>
      </trkpt>
      <trkpt lat="45.74795" lon="6.51067">
        <ele>2006</ele>
        <time>2022-07-17T05:07:09Z</time>
      </trkpt>
      <trkpt lat="45.74796" lon="6.51065">
        <ele>2006</ele>
        <time>2022-07-17T05:07:11Z</time>
      </trkpt>
      <trkpt lat="45.74797" lon="6.51062">
        <ele>2007</ele>
        <time>2022-07-17T05:07:14Z</time>
      </trkpt>
      <trkpt lat="45.74797" lon="6.51059">
        <ele>2007</ele>
        <time>2022-07-17T05:07:16Z</time>
      </trkpt>
      <trkpt lat="45.74798" lon="6.51056">
        <ele>2007</ele>
        <time>2022-07-17T05:07:18Z</time>
      </trkpt>
      <trkpt lat="45.74798" lon="6.51053">
        <ele>2008</ele>
        <time>2022-07-17T05:07:20Z</time>
      </trkpt>
      <trkpt lat="45.74797" lon="6.51051">
        <ele>2008</ele>
        <time>2022-07-17T05:07:22Z</time>
      </trkpt>
      <trkpt lat="45.74797" lon="6.51047">
        <ele>2008</ele>
        <time>2022-07-17T05:07:25Z</time>
      </trkpt>
      <trkpt lat="45.74796" lon="6.51043">
        <ele>2008</ele>
        <time>2022-07-17T05:07:28Z</time>
      </trkpt>
      <trkpt lat="45.74796" lon="6.5104">
        <ele>2009</ele>
        <time>2022-07-17T05:07:31Z</time>
      </trkpt>
      <trkpt lat="45.74795" lon="6.51036">
        <ele>2009</ele>
        <time>2022-07-17T05:07:34Z</time>
      </trkpt>
      <trkpt lat="45.74795" lon="6.51033">
        <ele>2010</ele>
        <time>2022-07-17T05:07:37Z</time>
      </trkpt>
      <trkpt lat="45.74795" lon="6.5103">
        <ele>2010</ele>
        <time>2022-07-17T05:07:40Z</time>
      </trkpt>
      <trkpt lat="45.74794" lon="6.51026">
        <ele>2010</ele>
        <time>2022-07-17T05:07:43Z</time>
      </trkpt>
      <trkpt lat="45.74794" lon="6.51023">
        <ele>2011</ele>
        <time>2022-07-17T05:07:46Z</time>
      </trkpt>
      <trkpt lat="45.74794" lon="6.5102">
        <ele>2011</ele>
        <time>2022-07-17T05:07:48Z</time>
      </trkpt>
      <trkpt lat="45.74794" lon="6.51017">
        <ele>2014</ele>
        <time>2022-07-17T05:07:52Z</time>
      </trkpt>
      <trkpt lat="45.74794" lon="6.51015">
        <ele>2015</ele>
        <time>2022-07-17T05:07:55Z</time>
      </trkpt>
      <trkpt lat="45.74793" lon="6.51011">
        <ele>2014</ele>
        <time>2022-07-17T05:07:59Z</time>
      </trkpt>
      <trkpt lat="45.74793" lon="6.51009">
        <ele>2015</ele>
        <time>2022-07-17T05:08:02Z</time>
      </trkpt>
      <trkpt lat="45.74792" lon="6.51005">
        <ele>2015</ele>
        <time>2022-07-17T05:08:05Z</time>
      </trkpt>
      <trkpt lat="45.74791" lon="6.51003">
        <ele>2016</ele>
        <time>2022-07-17T05:08:08Z</time>
      </trkpt>
      <trkpt lat="45.74791" lon="6.51">
        <ele>2017</ele>
        <time>2022-07-17T05:08:11Z</time>
      </trkpt>
      <trkpt lat="45.7479" lon="6.50997">
        <ele>2018</ele>
        <time>2022-07-17T05:08:14Z</time>
      </trkpt>
      <trkpt lat="45.74789" lon="6.50994">
        <ele>2018</ele>
        <time>2022-07-17T05:08:17Z</time>
      </trkpt>
      <trkpt lat="45.74789" lon="6.5099">
        <ele>2019</ele>
        <time>2022-07-17T05:08:20Z</time>
      </trkpt>
      <trkpt lat="45.74788" lon="6.50988">
        <ele>2019</ele>
        <time>2022-07-17T05:08:23Z</time>
      </trkpt>
      <trkpt lat="45.74788" lon="6.50985">
        <ele>2020</ele>
        <time>2022-07-17T05:08:26Z</time>
      </trkpt>
      <trkpt lat="45.74788" lon="6.50982">
        <ele>2020</ele>
        <time>2022-07-17T05:08:29Z</time>
      </trkpt>
      <trkpt lat="45.74788" lon="6.50979">
        <ele>2021</ele>
        <time>2022-07-17T05:08:33Z</time>
      </trkpt>
      <trkpt lat="45.74788" lon="6.50976">
        <ele>2022</ele>
        <time>2022-07-17T05:08:37Z</time>
      </trkpt>
      <trkpt lat="45.74788" lon="6.50974">
        <ele>2023</ele>
        <time>2022-07-17T05:08:40Z</time>
      </trkpt>
      <trkpt lat="45.74787" lon="6.5097">
        <ele>2023</ele>
        <time>2022-07-17T05:08:44Z</time>
      </trkpt>
      <trkpt lat="45.74787" lon="6.50967">
        <ele>2024</ele>
        <time>2022-07-17T05:08:47Z</time>
      </trkpt>
      <trkpt lat="45.74786" lon="6.50965">
        <ele>2024</ele>
        <time>2022-07-17T05:08:50Z</time>
      </trkpt>
      <trkpt lat="45.74785" lon="6.50962">
        <ele>2024</ele>
        <time>2022-07-17T05:08:53Z</time>
      </trkpt>
      <trkpt lat="45.74785" lon="6.50958">
        <ele>2025</ele>
        <time>2022-07-17T05:08:56Z</time>
      </trkpt>
      <trkpt lat="45.74784" lon="6.50956">
        <ele>2026</ele>
        <time>2022-07-17T05:08:58Z</time>
      </trkpt>
      <trkpt lat="45.74784" lon="6.50953">
        <ele>2026</ele>
        <time>2022-07-17T05:09:00Z</time>
      </trkpt>
      <trkpt lat="45.74783" lon="6.50951">
        <ele>2026</ele>
        <time>2022-07-17T05:09:02Z</time>
      </trkpt>
      <trkpt lat="45.74783" lon="6.50948">
        <ele>2026</ele>
        <time>2022-07-17T05:09:04Z</time>
      </trkpt>
      <trkpt lat="45.74782" lon="6.50946">
        <ele>2026</ele>
        <time>2022-07-17T05:09:06Z</time>
      </trkpt>
      <trkpt lat="45.74781" lon="6.50943">
        <ele>2026</ele>
        <time>2022-07-17T05:09:08Z</time>
      </trkpt>
      <trkpt lat="45.7478" lon="6.5094">
        <ele>2027</ele>
        <time>2022-07-17T05:09:11Z</time>
      </trkpt>
      <trkpt lat="45.74779" lon="6.50937">
        <ele>2027</ele>
        <time>2022-07-17T05:09:15Z</time>
      </trkpt>
      <trkpt lat="45.74778" lon="6.50935">
        <ele>2026</ele>
        <time>2022-07-17T05:09:16Z</time>
      </trkpt>
      <trkpt lat="45.74777" lon="6.50933">
        <ele>2027</ele>
        <time>2022-07-17T05:09:18Z</time>
      </trkpt>
      <trkpt lat="45.74776" lon="6.5093">
        <ele>2027</ele>
        <time>2022-07-17T05:09:20Z</time>
      </trkpt>
      <trkpt lat="45.74774" lon="6.50927">
        <ele>2027</ele>
        <time>2022-07-17T05:09:23Z</time>
      </trkpt>
      <trkpt lat="45.74773" lon="6.50923">
        <ele>2027</ele>
        <time>2022-07-17T05:09:26Z</time>
      </trkpt>
      <trkpt lat="45.74772" lon="6.50921">
        <ele>2028</ele>
        <time>2022-07-17T05:09:28Z</time>
      </trkpt>
      <trkpt lat="45.74771" lon="6.50918">
        <ele>2028</ele>
        <time>2022-07-17T05:09:30Z</time>
      </trkpt>
      <trkpt lat="45.7477" lon="6.50916">
        <ele>2028</ele>
        <time>2022-07-17T05:09:33Z</time>
      </trkpt>
      <trkpt lat="45.74769" lon="6.50913">
        <ele>2028</ele>
        <time>2022-07-17T05:09:34Z</time>
      </trkpt>
      <trkpt lat="45.74768" lon="6.5091">
        <ele>2028</ele>
        <time>2022-07-17T05:09:36Z</time>
      </trkpt>
      <trkpt lat="45.74768" lon="6.50908">
        <ele>2028</ele>
        <time>2022-07-17T05:09:38Z</time>
      </trkpt>
      <trkpt lat="45.74767" lon="6.50905">
        <ele>2029</ele>
        <time>2022-07-17T05:09:40Z</time>
      </trkpt>
      <trkpt lat="45.74766" lon="6.50903">
        <ele>2030</ele>
        <time>2022-07-17T05:09:42Z</time>
      </trkpt>
      <trkpt lat="45.74766" lon="6.509">
        <ele>2031</ele>
        <time>2022-07-17T05:09:44Z</time>
      </trkpt>
      <trkpt lat="45.74764" lon="6.50897">
        <ele>2030</ele>
        <time>2022-07-17T05:09:47Z</time>
      </trkpt>
      <trkpt lat="45.74764" lon="6.50893">
        <ele>2031</ele>
        <time>2022-07-17T05:09:50Z</time>
      </trkpt>
      <trkpt lat="45.74763" lon="6.5089">
        <ele>2032</ele>
        <time>2022-07-17T05:09:53Z</time>
      </trkpt>
      <trkpt lat="45.74763" lon="6.50887">
        <ele>2032</ele>
        <time>2022-07-17T05:09:55Z</time>
      </trkpt>
      <trkpt lat="45.74762" lon="6.50884">
        <ele>2032</ele>
        <time>2022-07-17T05:09:58Z</time>
      </trkpt>
      <trkpt lat="45.74762" lon="6.5088">
        <ele>2032</ele>
        <time>2022-07-17T05:10:01Z</time>
      </trkpt>
      <trkpt lat="45.74761" lon="6.50876">
        <ele>2033</ele>
        <time>2022-07-17T05:10:04Z</time>
      </trkpt>
      <trkpt lat="45.7476" lon="6.50872">
        <ele>2034</ele>
        <time>2022-07-17T05:10:07Z</time>
      </trkpt>
      <trkpt lat="45.7476" lon="6.50868">
        <ele>2034</ele>
        <time>2022-07-17T05:10:11Z</time>
      </trkpt>
      <trkpt lat="45.74759" lon="6.50864">
        <ele>2035</ele>
        <time>2022-07-17T05:10:14Z</time>
      </trkpt>
      <trkpt lat="45.74759" lon="6.50861">
        <ele>2036</ele>
        <time>2022-07-17T05:10:17Z</time>
      </trkpt>
      <trkpt lat="45.74759" lon="6.50858">
        <ele>2037</ele>
        <time>2022-07-17T05:10:20Z</time>
      </trkpt>
      <trkpt lat="45.74758" lon="6.50854">
        <ele>2037</ele>
        <time>2022-07-17T05:10:23Z</time>
      </trkpt>
      <trkpt lat="45.74757" lon="6.50851">
        <ele>2037</ele>
        <time>2022-07-17T05:10:26Z</time>
      </trkpt>
      <trkpt lat="45.74756" lon="6.50848">
        <ele>2037</ele>
        <time>2022-07-17T05:10:28Z</time>
      </trkpt>
      <trkpt lat="45.74756" lon="6.50845">
        <ele>2038</ele>
        <time>2022-07-17T05:10:31Z</time>
      </trkpt>
      <trkpt lat="45.74755" lon="6.50841">
        <ele>2038</ele>
        <time>2022-07-17T05:10:34Z</time>
      </trkpt>
      <trkpt lat="45.74755" lon="6.50839">
        <ele>2040</ele>
        <time>2022-07-17T05:10:36Z</time>
      </trkpt>
      <trkpt lat="45.74754" lon="6.50836">
        <ele>2040</ele>
        <time>2022-07-17T05:10:39Z</time>
      </trkpt>
      <trkpt lat="45.74753" lon="6.50833">
        <ele>2041</ele>
        <time>2022-07-17T05:10:41Z</time>
      </trkpt>
      <trkpt lat="45.74752" lon="6.5083">
        <ele>2041</ele>
        <time>2022-07-17T05:10:44Z</time>
      </trkpt>
      <trkpt lat="45.74752" lon="6.50826">
        <ele>2041</ele>
        <time>2022-07-17T05:10:47Z</time>
      </trkpt>
      <trkpt lat="45.74751" lon="6.50823">
        <ele>2041</ele>
        <time>2022-07-17T05:10:49Z</time>
      </trkpt>
      <trkpt lat="45.74751" lon="6.5082">
        <ele>2040</ele>
        <time>2022-07-17T05:10:51Z</time>
      </trkpt>
      <trkpt lat="45.74751" lon="6.50817">
        <ele>2041</ele>
        <time>2022-07-17T05:10:53Z</time>
      </trkpt>
      <trkpt lat="45.74752" lon="6.50815">
        <ele>2041</ele>
        <time>2022-07-17T05:10:55Z</time>
      </trkpt>
      <trkpt lat="45.74751" lon="6.50811">
        <ele>2041</ele>
        <time>2022-07-17T05:10:58Z</time>
      </trkpt>
      <trkpt lat="45.74751" lon="6.50808">
        <ele>2041</ele>
        <time>2022-07-17T05:11:00Z</time>
      </trkpt>
      <trkpt lat="45.7475" lon="6.50804">
        <ele>2041</ele>
        <time>2022-07-17T05:11:03Z</time>
      </trkpt>
      <trkpt lat="45.74751" lon="6.50802">
        <ele>2041</ele>
        <time>2022-07-17T05:11:05Z</time>
      </trkpt>
      <trkpt lat="45.74751" lon="6.50799">
        <ele>2041</ele>
        <time>2022-07-17T05:11:08Z</time>
      </trkpt>
      <trkpt lat="45.74752" lon="6.50796">
        <ele>2041</ele>
        <time>2022-07-17T05:11:09Z</time>
      </trkpt>
      <trkpt lat="45.74752" lon="6.50793">
        <ele>2041</ele>
        <time>2022-07-17T05:11:11Z</time>
      </trkpt>
      <trkpt lat="45.74753" lon="6.5079">
        <ele>2041</ele>
        <time>2022-07-17T05:11:13Z</time>
      </trkpt>
      <trkpt lat="45.74753" lon="6.50787">
        <ele>2041</ele>
        <time>2022-07-17T05:11:15Z</time>
      </trkpt>
      <trkpt lat="45.74754" lon="6.50784">
        <ele>2041</ele>
        <time>2022-07-17T05:11:17Z</time>
      </trkpt>
      <trkpt lat="45.74753" lon="6.50781">
        <ele>2041</ele>
        <time>2022-07-17T05:11:19Z</time>
      </trkpt>
      <trkpt lat="45.74753" lon="6.50778">
        <ele>2041</ele>
        <time>2022-07-17T05:11:21Z</time>
      </trkpt>
      <trkpt lat="45.74753" lon="6.50775">
        <ele>2041</ele>
        <time>2022-07-17T05:11:23Z</time>
      </trkpt>
      <trkpt lat="45.74751" lon="6.50772">
        <ele>2041</ele>
        <time>2022-07-17T05:11:25Z</time>
      </trkpt>
      <trkpt lat="45.7475" lon="6.50769">
        <ele>2041</ele>
        <time>2022-07-17T05:11:27Z</time>
      </trkpt>
      <trkpt lat="45.74748" lon="6.50766">
        <ele>2040</ele>
        <time>2022-07-17T05:11:29Z</time>
      </trkpt>
      <trkpt lat="45.74746" lon="6.50763">
        <ele>2041</ele>
        <time>2022-07-17T05:11:31Z</time>
      </trkpt>
      <trkpt lat="45.74745" lon="6.50761">
        <ele>2041</ele>
        <time>2022-07-17T05:11:33Z</time>
      </trkpt>
      <trkpt lat="45.74744" lon="6.50759">
        <ele>2041</ele>
        <time>2022-07-17T05:11:35Z</time>
      </trkpt>
      <trkpt lat="45.74742" lon="6.50757">
        <ele>2041</ele>
        <time>2022-07-17T05:11:37Z</time>
      </trkpt>
      <trkpt lat="45.74741" lon="6.50753">
        <ele>2041</ele>
        <time>2022-07-17T05:11:39Z</time>
      </trkpt>
      <trkpt lat="45.74739" lon="6.50751">
        <ele>2041</ele>
        <time>2022-07-17T05:11:41Z</time>
      </trkpt>
      <trkpt lat="45.74738" lon="6.50747">
        <ele>2041</ele>
        <time>2022-07-17T05:11:44Z</time>
      </trkpt>
      <trkpt lat="45.74737" lon="6.50744">
        <ele>2041</ele>
        <time>2022-07-17T05:11:46Z</time>
      </trkpt>
      <trkpt lat="45.74735" lon="6.50742">
        <ele>2038</ele>
        <time>2022-07-17T05:11:48Z</time>
      </trkpt>
      <trkpt lat="45.74733" lon="6.5074">
        <ele>2038</ele>
        <time>2022-07-17T05:11:50Z</time>
      </trkpt>
      <trkpt lat="45.74732" lon="6.50737">
        <ele>2038</ele>
        <time>2022-07-17T05:11:52Z</time>
      </trkpt>
      <trkpt lat="45.7473" lon="6.50734">
        <ele>2038</ele>
        <time>2022-07-17T05:11:54Z</time>
      </trkpt>
      <trkpt lat="45.74729" lon="6.50731">
        <ele>2040</ele>
        <time>2022-07-17T05:11:56Z</time>
      </trkpt>
      <trkpt lat="45.74728" lon="6.50728">
        <ele>2040</ele>
        <time>2022-07-17T05:11:58Z</time>
      </trkpt>
      <trkpt lat="45.74726" lon="6.50726">
        <ele>2040</ele>
        <time>2022-07-17T05:12:00Z</time>
      </trkpt>
      <trkpt lat="45.74725" lon="6.50723">
        <ele>2038</ele>
        <time>2022-07-17T05:12:02Z</time>
      </trkpt>
      <trkpt lat="45.74723" lon="6.5072">
        <ele>2038</ele>
        <time>2022-07-17T05:12:05Z</time>
      </trkpt>
      <trkpt lat="45.74722" lon="6.50716">
        <ele>2038</ele>
        <time>2022-07-17T05:12:06Z</time>
      </trkpt>
      <trkpt lat="45.74721" lon="6.50713">
        <ele>2037</ele>
        <time>2022-07-17T05:12:08Z</time>
      </trkpt>
      <trkpt lat="45.7472" lon="6.5071">
        <ele>2037</ele>
        <time>2022-07-17T05:12:10Z</time>
      </trkpt>
      <trkpt lat="45.74719" lon="6.50707">
        <ele>2037</ele>
        <time>2022-07-17T05:12:12Z</time>
      </trkpt>
      <trkpt lat="45.74718" lon="6.50704">
        <ele>2037</ele>
        <time>2022-07-17T05:12:14Z</time>
      </trkpt>
      <trkpt lat="45.74717" lon="6.50701">
        <ele>2037</ele>
        <time>2022-07-17T05:12:16Z</time>
      </trkpt>
      <trkpt lat="45.74715" lon="6.50698">
        <ele>2037</ele>
        <time>2022-07-17T05:12:18Z</time>
      </trkpt>
      <trkpt lat="45.74714" lon="6.50695">
        <ele>2037</ele>
        <time>2022-07-17T05:12:20Z</time>
      </trkpt>
      <trkpt lat="45.74713" lon="6.50692">
        <ele>2037</ele>
        <time>2022-07-17T05:12:22Z</time>
      </trkpt>
      <trkpt lat="45.74712" lon="6.50689">
        <ele>2036</ele>
        <time>2022-07-17T05:12:25Z</time>
      </trkpt>
      <trkpt lat="45.74712" lon="6.50686">
        <ele>2036</ele>
        <time>2022-07-17T05:12:26Z</time>
      </trkpt>
      <trkpt lat="45.74711" lon="6.50683">
        <ele>2036</ele>
        <time>2022-07-17T05:12:28Z</time>
      </trkpt>
      <trkpt lat="45.7471" lon="6.5068">
        <ele>2036</ele>
        <time>2022-07-17T05:12:30Z</time>
      </trkpt>
      <trkpt lat="45.74709" lon="6.50677">
        <ele>2036</ele>
        <time>2022-07-17T05:12:32Z</time>
      </trkpt>
      <trkpt lat="45.74708" lon="6.50674">
        <ele>2035</ele>
        <time>2022-07-17T05:12:34Z</time>
      </trkpt>
      <trkpt lat="45.74707" lon="6.50672">
        <ele>2036</ele>
        <time>2022-07-17T05:12:36Z</time>
      </trkpt>
      <trkpt lat="45.74706" lon="6.50669">
        <ele>2036</ele>
        <time>2022-07-17T05:12:38Z</time>
      </trkpt>
      <trkpt lat="45.74705" lon="6.50666">
        <ele>2036</ele>
        <time>2022-07-17T05:12:41Z</time>
      </trkpt>
      <trkpt lat="45.74704" lon="6.50663">
        <ele>2036</ele>
        <time>2022-07-17T05:12:43Z</time>
      </trkpt>
      <trkpt lat="45.74702" lon="6.50661">
        <ele>2035</ele>
        <time>2022-07-17T05:12:45Z</time>
      </trkpt>
      <trkpt lat="45.747" lon="6.50658">
        <ele>2035</ele>
        <time>2022-07-17T05:12:47Z</time>
      </trkpt>
      <trkpt lat="45.74699" lon="6.50656">
        <ele>2035</ele>
        <time>2022-07-17T05:12:50Z</time>
      </trkpt>
      <trkpt lat="45.74698" lon="6.50654">
        <ele>2034</ele>
        <time>2022-07-17T05:12:51Z</time>
      </trkpt>
      <trkpt lat="45.74696" lon="6.50651">
        <ele>2034</ele>
        <time>2022-07-17T05:12:53Z</time>
      </trkpt>
      <trkpt lat="45.74695" lon="6.50648">
        <ele>2034</ele>
        <time>2022-07-17T05:12:56Z</time>
      </trkpt>
      <trkpt lat="45.74693" lon="6.50646">
        <ele>2034</ele>
        <time>2022-07-17T05:12:58Z</time>
      </trkpt>
      <trkpt lat="45.74692" lon="6.50643">
        <ele>2034</ele>
        <time>2022-07-17T05:13:00Z</time>
      </trkpt>
      <trkpt lat="45.7469" lon="6.50641">
        <ele>2034</ele>
        <time>2022-07-17T05:13:02Z</time>
      </trkpt>
      <trkpt lat="45.74689" lon="6.50639">
        <ele>2034</ele>
        <time>2022-07-17T05:13:04Z</time>
      </trkpt>
      <trkpt lat="45.74688" lon="6.50637">
        <ele>2034</ele>
        <time>2022-07-17T05:13:06Z</time>
      </trkpt>
      <trkpt lat="45.74686" lon="6.50634">
        <ele>2033</ele>
        <time>2022-07-17T05:13:08Z</time>
      </trkpt>
      <trkpt lat="45.74684" lon="6.50632">
        <ele>2033</ele>
        <time>2022-07-17T05:13:11Z</time>
      </trkpt>
      <trkpt lat="45.74683" lon="6.50628">
        <ele>2033</ele>
        <time>2022-07-17T05:13:14Z</time>
      </trkpt>
      <trkpt lat="45.74681" lon="6.50625">
        <ele>2033</ele>
        <time>2022-07-17T05:13:16Z</time>
      </trkpt>
      <trkpt lat="45.7468" lon="6.50623">
        <ele>2033</ele>
        <time>2022-07-17T05:13:18Z</time>
      </trkpt>
      <trkpt lat="45.74679" lon="6.50618">
        <ele>2033</ele>
        <time>2022-07-17T05:13:21Z</time>
      </trkpt>
      <trkpt lat="45.74678" lon="6.50615">
        <ele>2032</ele>
        <time>2022-07-17T05:13:23Z</time>
      </trkpt>
      <trkpt lat="45.74676" lon="6.50612">
        <ele>2032</ele>
        <time>2022-07-17T05:13:25Z</time>
      </trkpt>
      <trkpt lat="45.74675" lon="6.50609">
        <ele>2032</ele>
        <time>2022-07-17T05:13:27Z</time>
      </trkpt>
      <trkpt lat="45.74674" lon="6.50606">
        <ele>2032</ele>
        <time>2022-07-17T05:13:30Z</time>
      </trkpt>
      <trkpt lat="45.74672" lon="6.50604">
        <ele>2032</ele>
        <time>2022-07-17T05:13:32Z</time>
      </trkpt>
      <trkpt lat="45.74671" lon="6.50601">
        <ele>2032</ele>
        <time>2022-07-17T05:13:34Z</time>
      </trkpt>
      <trkpt lat="45.7467" lon="6.50597">
        <ele>2032</ele>
        <time>2022-07-17T05:13:36Z</time>
      </trkpt>
      <trkpt lat="45.74669" lon="6.50594">
        <ele>2031</ele>
        <time>2022-07-17T05:13:38Z</time>
      </trkpt>
      <trkpt lat="45.74669" lon="6.50592">
        <ele>2031</ele>
        <time>2022-07-17T05:13:40Z</time>
      </trkpt>
      <trkpt lat="45.74667" lon="6.50589">
        <ele>2030</ele>
        <time>2022-07-17T05:13:42Z</time>
      </trkpt>
      <trkpt lat="45.74666" lon="6.50586">
        <ele>2030</ele>
        <time>2022-07-17T05:13:44Z</time>
      </trkpt>
      <trkpt lat="45.74665" lon="6.50584">
        <ele>2030</ele>
        <time>2022-07-17T05:13:46Z</time>
      </trkpt>
      <trkpt lat="45.74663" lon="6.50582">
        <ele>2030</ele>
        <time>2022-07-17T05:13:48Z</time>
      </trkpt>
      <trkpt lat="45.74662" lon="6.50579">
        <ele>2030</ele>
        <time>2022-07-17T05:13:50Z</time>
      </trkpt>
      <trkpt lat="45.7466" lon="6.50577">
        <ele>2030</ele>
        <time>2022-07-17T05:13:52Z</time>
      </trkpt>
      <trkpt lat="45.74659" lon="6.50574">
        <ele>2030</ele>
        <time>2022-07-17T05:13:54Z</time>
      </trkpt>
      <trkpt lat="45.74657" lon="6.50571">
        <ele>2029</ele>
        <time>2022-07-17T05:13:56Z</time>
      </trkpt>
      <trkpt lat="45.74655" lon="6.50567">
        <ele>2029</ele>
        <time>2022-07-17T05:13:59Z</time>
      </trkpt>
      <trkpt lat="45.74654" lon="6.50564">
        <ele>2028</ele>
        <time>2022-07-17T05:14:01Z</time>
      </trkpt>
      <trkpt lat="45.74653" lon="6.5056">
        <ele>2028</ele>
        <time>2022-07-17T05:14:03Z</time>
      </trkpt>
      <trkpt lat="45.74652" lon="6.50557">
        <ele>2028</ele>
        <time>2022-07-17T05:14:04Z</time>
      </trkpt>
      <trkpt lat="45.74651" lon="6.50555">
        <ele>2028</ele>
        <time>2022-07-17T05:14:05Z</time>
      </trkpt>
      <trkpt lat="45.7465" lon="6.50552">
        <ele>2028</ele>
        <time>2022-07-17T05:14:06Z</time>
      </trkpt>
      <trkpt lat="45.74649" lon="6.5055">
        <ele>2028</ele>
        <time>2022-07-17T05:14:07Z</time>
      </trkpt>
      <trkpt lat="45.74648" lon="6.50544">
        <ele>2028</ele>
        <time>2022-07-17T05:14:09Z</time>
      </trkpt>
      <trkpt lat="45.74647" lon="6.50541">
        <ele>2028</ele>
        <time>2022-07-17T05:14:10Z</time>
      </trkpt>
      <trkpt lat="45.74646" lon="6.50539">
        <ele>2028</ele>
        <time>2022-07-17T05:14:11Z</time>
      </trkpt>
      <trkpt lat="45.74646" lon="6.50536">
        <ele>2028</ele>
        <time>2022-07-17T05:14:12Z</time>
      </trkpt>
      <trkpt lat="45.74645" lon="6.50533">
        <ele>2027</ele>
        <time>2022-07-17T05:14:13Z</time>
      </trkpt>
      <trkpt lat="45.74644" lon="6.50531">
        <ele>2027</ele>
        <time>2022-07-17T05:14:14Z</time>
      </trkpt>
      <trkpt lat="45.74644" lon="6.50528">
        <ele>2027</ele>
        <time>2022-07-17T05:14:15Z</time>
      </trkpt>
      <trkpt lat="45.74643" lon="6.50525">
        <ele>2027</ele>
        <time>2022-07-17T05:14:16Z</time>
      </trkpt>
      <trkpt lat="45.74642" lon="6.50523">
        <ele>2027</ele>
        <time>2022-07-17T05:14:18Z</time>
      </trkpt>
      <trkpt lat="45.74641" lon="6.50518">
        <ele>2027</ele>
        <time>2022-07-17T05:14:19Z</time>
      </trkpt>
      <trkpt lat="45.74639" lon="6.50514">
        <ele>2027</ele>
        <time>2022-07-17T05:14:21Z</time>
      </trkpt>
      <trkpt lat="45.74638" lon="6.5051">
        <ele>2026</ele>
        <time>2022-07-17T05:14:23Z</time>
      </trkpt>
      <trkpt lat="45.74637" lon="6.50505">
        <ele>2026</ele>
        <time>2022-07-17T05:14:25Z</time>
      </trkpt>
      <trkpt lat="45.74636" lon="6.50501">
        <ele>2026</ele>
        <time>2022-07-17T05:14:27Z</time>
      </trkpt>
      <trkpt lat="45.74635" lon="6.50497">
        <ele>2026</ele>
        <time>2022-07-17T05:14:29Z</time>
      </trkpt>
      <trkpt lat="45.74633" lon="6.50493">
        <ele>2026</ele>
        <time>2022-07-17T05:14:31Z</time>
      </trkpt>
      <trkpt lat="45.74632" lon="6.50489">
        <ele>2025</ele>
        <time>2022-07-17T05:14:33Z</time>
      </trkpt>
      <trkpt lat="45.74631" lon="6.50484">
        <ele>2025</ele>
        <time>2022-07-17T05:14:35Z</time>
      </trkpt>
      <trkpt lat="45.7463" lon="6.5048">
        <ele>2025</ele>
        <time>2022-07-17T05:14:37Z</time>
      </trkpt>
      <trkpt lat="45.74628" lon="6.50475">
        <ele>2024</ele>
        <time>2022-07-17T05:14:39Z</time>
      </trkpt>
      <trkpt lat="45.74627" lon="6.5047">
        <ele>2024</ele>
        <time>2022-07-17T05:14:41Z</time>
      </trkpt>
      <trkpt lat="45.74626" lon="6.50466">
        <ele>2024</ele>
        <time>2022-07-17T05:14:43Z</time>
      </trkpt>
      <trkpt lat="45.74625" lon="6.50463">
        <ele>2024</ele>
        <time>2022-07-17T05:14:44Z</time>
      </trkpt>
      <trkpt lat="45.74624" lon="6.50461">
        <ele>2024</ele>
        <time>2022-07-17T05:14:45Z</time>
      </trkpt>
      <trkpt lat="45.74623" lon="6.50456">
        <ele>2024</ele>
        <time>2022-07-17T05:14:47Z</time>
      </trkpt>
      <trkpt lat="45.74622" lon="6.50452">
        <ele>2024</ele>
        <time>2022-07-17T05:14:49Z</time>
      </trkpt>
      <trkpt lat="45.74621" lon="6.50447">
        <ele>2023</ele>
        <time>2022-07-17T05:14:51Z</time>
      </trkpt>
      <trkpt lat="45.7462" lon="6.50442">
        <ele>2023</ele>
        <time>2022-07-17T05:14:53Z</time>
      </trkpt>
      <trkpt lat="45.7462" lon="6.5044">
        <ele>2023</ele>
        <time>2022-07-17T05:14:54Z</time>
      </trkpt>
      <trkpt lat="45.74619" lon="6.50436">
        <ele>2023</ele>
        <time>2022-07-17T05:14:56Z</time>
      </trkpt>
      <trkpt lat="45.74618" lon="6.50432">
        <ele>2023</ele>
        <time>2022-07-17T05:14:58Z</time>
      </trkpt>
      <trkpt lat="45.74617" lon="6.50428">
        <ele>2023</ele>
        <time>2022-07-17T05:15:01Z</time>
      </trkpt>
      <trkpt lat="45.74616" lon="6.50423">
        <ele>2023</ele>
        <time>2022-07-17T05:15:02Z</time>
      </trkpt>
      <trkpt lat="45.74615" lon="6.50419">
        <ele>2021</ele>
        <time>2022-07-17T05:15:04Z</time>
      </trkpt>
      <trkpt lat="45.74614" lon="6.50414">
        <ele>2021</ele>
        <time>2022-07-17T05:15:06Z</time>
      </trkpt>
      <trkpt lat="45.74613" lon="6.5041">
        <ele>2021</ele>
        <time>2022-07-17T05:15:08Z</time>
      </trkpt>
      <trkpt lat="45.74612" lon="6.50407">
        <ele>2021</ele>
        <time>2022-07-17T05:15:10Z</time>
      </trkpt>
      <trkpt lat="45.74611" lon="6.50404">
        <ele>2021</ele>
        <time>2022-07-17T05:15:12Z</time>
      </trkpt>
      <trkpt lat="45.7461" lon="6.504">
        <ele>2021</ele>
        <time>2022-07-17T05:15:15Z</time>
      </trkpt>
      <trkpt lat="45.74608" lon="6.50396">
        <ele>2020</ele>
        <time>2022-07-17T05:15:16Z</time>
      </trkpt>
      <trkpt lat="45.74608" lon="6.50393">
        <ele>2020</ele>
        <time>2022-07-17T05:15:18Z</time>
      </trkpt>
      <trkpt lat="45.74607" lon="6.5039">
        <ele>2021</ele>
        <time>2022-07-17T05:15:20Z</time>
      </trkpt>
      <trkpt lat="45.74607" lon="6.50388">
        <ele>2022</ele>
        <time>2022-07-17T05:15:22Z</time>
      </trkpt>
      <trkpt lat="45.74606" lon="6.50384">
        <ele>2023</ele>
        <time>2022-07-17T05:15:25Z</time>
      </trkpt>
      <trkpt lat="45.74605" lon="6.50382">
        <ele>2023</ele>
        <time>2022-07-17T05:15:28Z</time>
      </trkpt>
      <trkpt lat="45.74603" lon="6.5038">
        <ele>2023</ele>
        <time>2022-07-17T05:15:30Z</time>
      </trkpt>
      <trkpt lat="45.74602" lon="6.50379">
        <ele>2023</ele>
        <time>2022-07-17T05:15:32Z</time>
      </trkpt>
      <trkpt lat="45.746" lon="6.50376">
        <ele>2022</ele>
        <time>2022-07-17T05:15:35Z</time>
      </trkpt>
      <trkpt lat="45.74598" lon="6.50374">
        <ele>2021</ele>
        <time>2022-07-17T05:15:37Z</time>
      </trkpt>
      <trkpt lat="45.74597" lon="6.50372">
        <ele>2021</ele>
        <time>2022-07-17T05:15:39Z</time>
      </trkpt>
      <trkpt lat="45.74596" lon="6.5037">
        <ele>2021</ele>
        <time>2022-07-17T05:15:41Z</time>
      </trkpt>
      <trkpt lat="45.74594" lon="6.50369">
        <ele>2019</ele>
        <time>2022-07-17T05:15:43Z</time>
      </trkpt>
      <trkpt lat="45.74593" lon="6.50366">
        <ele>2018</ele>
        <time>2022-07-17T05:15:45Z</time>
      </trkpt>
      <trkpt lat="45.74591" lon="6.50364">
        <ele>2017</ele>
        <time>2022-07-17T05:15:48Z</time>
      </trkpt>
      <trkpt lat="45.7459" lon="6.50362">
        <ele>2016</ele>
        <time>2022-07-17T05:15:51Z</time>
      </trkpt>
      <trkpt lat="45.74588" lon="6.5036">
        <ele>2015</ele>
        <time>2022-07-17T05:15:54Z</time>
      </trkpt>
      <trkpt lat="45.74587" lon="6.50358">
        <ele>2014</ele>
        <time>2022-07-17T05:15:57Z</time>
      </trkpt>
      <trkpt lat="45.74585" lon="6.50357">
        <ele>2012</ele>
        <time>2022-07-17T05:16:00Z</time>
      </trkpt>
      <trkpt lat="45.74584" lon="6.50355">
        <ele>2011</ele>
        <time>2022-07-17T05:16:03Z</time>
      </trkpt>
      <trkpt lat="45.74582" lon="6.50354">
        <ele>2010</ele>
        <time>2022-07-17T05:16:06Z</time>
      </trkpt>
      <trkpt lat="45.7458" lon="6.50352">
        <ele>2009</ele>
        <time>2022-07-17T05:16:09Z</time>
      </trkpt>
      <trkpt lat="45.74579" lon="6.5035">
        <ele>2008</ele>
        <time>2022-07-17T05:16:12Z</time>
      </trkpt>
      <trkpt lat="45.74577" lon="6.5035">
        <ele>2007</ele>
        <time>2022-07-17T05:16:15Z</time>
      </trkpt>
      <trkpt lat="45.74575" lon="6.50348">
        <ele>2007</ele>
        <time>2022-07-17T05:16:17Z</time>
      </trkpt>
      <trkpt lat="45.74573" lon="6.50347">
        <ele>2006</ele>
        <time>2022-07-17T05:16:19Z</time>
      </trkpt>
      <trkpt lat="45.74571" lon="6.50344">
        <ele>2005</ele>
        <time>2022-07-17T05:16:22Z</time>
      </trkpt>
      <trkpt lat="45.74569" lon="6.50342">
        <ele>2005</ele>
        <time>2022-07-17T05:16:24Z</time>
      </trkpt>
      <trkpt lat="45.74568" lon="6.5034">
        <ele>2004</ele>
        <time>2022-07-17T05:16:26Z</time>
      </trkpt>
      <trkpt lat="45.74566" lon="6.50337">
        <ele>2004</ele>
        <time>2022-07-17T05:16:28Z</time>
      </trkpt>
      <trkpt lat="45.74564" lon="6.50335">
        <ele>2003</ele>
        <time>2022-07-17T05:16:31Z</time>
      </trkpt>
      <trkpt lat="45.74563" lon="6.50333">
        <ele>2002</ele>
        <time>2022-07-17T05:16:33Z</time>
      </trkpt>
      <trkpt lat="45.74561" lon="6.50332">
        <ele>2002</ele>
        <time>2022-07-17T05:16:35Z</time>
      </trkpt>
      <trkpt lat="45.74559" lon="6.50331">
        <ele>2001</ele>
        <time>2022-07-17T05:16:37Z</time>
      </trkpt>
      <trkpt lat="45.74557" lon="6.5033">
        <ele>1999</ele>
        <time>2022-07-17T05:16:39Z</time>
      </trkpt>
      <trkpt lat="45.74555" lon="6.50329">
        <ele>1998</ele>
        <time>2022-07-17T05:16:41Z</time>
      </trkpt>
      <trkpt lat="45.74553" lon="6.50328">
        <ele>1998</ele>
        <time>2022-07-17T05:16:43Z</time>
      </trkpt>
      <trkpt lat="45.7455" lon="6.50328">
        <ele>1997</ele>
        <time>2022-07-17T05:16:46Z</time>
      </trkpt>
      <trkpt lat="45.74548" lon="6.50326">
        <ele>1997</ele>
        <time>2022-07-17T05:16:48Z</time>
      </trkpt>
      <trkpt lat="45.74546" lon="6.50323">
        <ele>1997</ele>
        <time>2022-07-17T05:16:50Z</time>
      </trkpt>
      <trkpt lat="45.74543" lon="6.5032">
        <ele>1994</ele>
        <time>2022-07-17T05:16:52Z</time>
      </trkpt>
      <trkpt lat="45.74541" lon="6.50317">
        <ele>1994</ele>
        <time>2022-07-17T05:16:54Z</time>
      </trkpt>
      <trkpt lat="45.74539" lon="6.50315">
        <ele>1994</ele>
        <time>2022-07-17T05:16:56Z</time>
      </trkpt>
      <trkpt lat="45.74538" lon="6.50313">
        <ele>1994</ele>
        <time>2022-07-17T05:16:58Z</time>
      </trkpt>
      <trkpt lat="45.74536" lon="6.50311">
        <ele>1994</ele>
        <time>2022-07-17T05:17:00Z</time>
      </trkpt>
      <trkpt lat="45.74535" lon="6.50309">
        <ele>1994</ele>
        <time>2022-07-17T05:17:02Z</time>
      </trkpt>
      <trkpt lat="45.74534" lon="6.50305">
        <ele>1993</ele>
        <time>2022-07-17T05:17:05Z</time>
      </trkpt>
      <trkpt lat="45.74533" lon="6.50303">
        <ele>1992</ele>
        <time>2022-07-17T05:17:07Z</time>
      </trkpt>
      <trkpt lat="45.74532" lon="6.50301">
        <ele>1992</ele>
        <time>2022-07-17T05:17:09Z</time>
      </trkpt>
      <trkpt lat="45.7453" lon="6.50298">
        <ele>1990</ele>
        <time>2022-07-17T05:17:11Z</time>
      </trkpt>
      <trkpt lat="45.74529" lon="6.50297">
        <ele>1990</ele>
        <time>2022-07-17T05:17:13Z</time>
      </trkpt>
      <trkpt lat="45.74528" lon="6.50295">
        <ele>1989</ele>
        <time>2022-07-17T05:17:15Z</time>
      </trkpt>
      <trkpt lat="45.74527" lon="6.50292">
        <ele>1988</ele>
        <time>2022-07-17T05:17:17Z</time>
      </trkpt>
      <trkpt lat="45.74526" lon="6.50291">
        <ele>1988</ele>
        <time>2022-07-17T05:17:19Z</time>
      </trkpt>
      <trkpt lat="45.74524" lon="6.50289">
        <ele>1986</ele>
        <time>2022-07-17T05:17:21Z</time>
      </trkpt>
      <trkpt lat="45.74522" lon="6.50287">
        <ele>1986</ele>
        <time>2022-07-17T05:17:23Z</time>
      </trkpt>
      <trkpt lat="45.7452" lon="6.50286">
        <ele>1986</ele>
        <time>2022-07-17T05:17:26Z</time>
      </trkpt>
      <trkpt lat="45.74518" lon="6.50283">
        <ele>1984</ele>
        <time>2022-07-17T05:17:29Z</time>
      </trkpt>
      <trkpt lat="45.74517" lon="6.5028">
        <ele>1983</ele>
        <time>2022-07-17T05:17:30Z</time>
      </trkpt>
      <trkpt lat="45.74516" lon="6.50278">
        <ele>1983</ele>
        <time>2022-07-17T05:17:32Z</time>
      </trkpt>
      <trkpt lat="45.74514" lon="6.50275">
        <ele>1983</ele>
        <time>2022-07-17T05:17:35Z</time>
      </trkpt>
      <trkpt lat="45.74512" lon="6.50274">
        <ele>1983</ele>
        <time>2022-07-17T05:17:37Z</time>
      </trkpt>
      <trkpt lat="45.74511" lon="6.50272">
        <ele>1982</ele>
        <time>2022-07-17T05:17:39Z</time>
      </trkpt>
      <trkpt lat="45.74509" lon="6.5027">
        <ele>1981</ele>
        <time>2022-07-17T05:17:41Z</time>
      </trkpt>
      <trkpt lat="45.74508" lon="6.50269">
        <ele>1981</ele>
        <time>2022-07-17T05:17:43Z</time>
      </trkpt>
      <trkpt lat="45.74506" lon="6.50266">
        <ele>1981</ele>
        <time>2022-07-17T05:17:45Z</time>
      </trkpt>
      <trkpt lat="45.74504" lon="6.50264">
        <ele>1981</ele>
        <time>2022-07-17T05:17:47Z</time>
      </trkpt>
      <trkpt lat="45.74502" lon="6.50262">
        <ele>1980</ele>
        <time>2022-07-17T05:17:49Z</time>
      </trkpt>
      <trkpt lat="45.745" lon="6.50259">
        <ele>1980</ele>
        <time>2022-07-17T05:17:51Z</time>
      </trkpt>
      <trkpt lat="45.74498" lon="6.50257">
        <ele>1979</ele>
        <time>2022-07-17T05:17:53Z</time>
      </trkpt>
      <trkpt lat="45.74497" lon="6.50254">
        <ele>1979</ele>
        <time>2022-07-17T05:17:55Z</time>
      </trkpt>
      <trkpt lat="45.74495" lon="6.50252">
        <ele>1978</ele>
        <time>2022-07-17T05:17:57Z</time>
      </trkpt>
      <trkpt lat="45.74494" lon="6.5025">
        <ele>1977</ele>
        <time>2022-07-17T05:17:59Z</time>
      </trkpt>
      <trkpt lat="45.74493" lon="6.50247">
        <ele>1977</ele>
        <time>2022-07-17T05:18:01Z</time>
      </trkpt>
      <trkpt lat="45.74491" lon="6.50244">
        <ele>1977</ele>
        <time>2022-07-17T05:18:04Z</time>
      </trkpt>
      <trkpt lat="45.7449" lon="6.50242">
        <ele>1976</ele>
        <time>2022-07-17T05:18:06Z</time>
      </trkpt>
      <trkpt lat="45.74489" lon="6.50238">
        <ele>1976</ele>
        <time>2022-07-17T05:18:08Z</time>
      </trkpt>
      <trkpt lat="45.74489" lon="6.50234">
        <ele>1975</ele>
        <time>2022-07-17T05:18:10Z</time>
      </trkpt>
      <trkpt lat="45.74488" lon="6.50231">
        <ele>1974</ele>
        <time>2022-07-17T05:18:12Z</time>
      </trkpt>
      <trkpt lat="45.74488" lon="6.50228">
        <ele>1974</ele>
        <time>2022-07-17T05:18:14Z</time>
      </trkpt>
      <trkpt lat="45.74487" lon="6.50225">
        <ele>1974</ele>
        <time>2022-07-17T05:18:16Z</time>
      </trkpt>
      <trkpt lat="45.74486" lon="6.50221">
        <ele>1973</ele>
        <time>2022-07-17T05:18:18Z</time>
      </trkpt>
      <trkpt lat="45.74485" lon="6.50217">
        <ele>1973</ele>
        <time>2022-07-17T05:18:20Z</time>
      </trkpt>
      <trkpt lat="45.74485" lon="6.50214">
        <ele>1972</ele>
        <time>2022-07-17T05:18:22Z</time>
      </trkpt>
      <trkpt lat="45.74484" lon="6.5021">
        <ele>1972</ele>
        <time>2022-07-17T05:18:24Z</time>
      </trkpt>
      <trkpt lat="45.74484" lon="6.50207">
        <ele>1972</ele>
        <time>2022-07-17T05:18:26Z</time>
      </trkpt>
      <trkpt lat="45.74484" lon="6.50203">
        <ele>1971</ele>
        <time>2022-07-17T05:18:28Z</time>
      </trkpt>
      <trkpt lat="45.74484" lon="6.50199">
        <ele>1971</ele>
        <time>2022-07-17T05:18:30Z</time>
      </trkpt>
      <trkpt lat="45.74484" lon="6.50196">
        <ele>1971</ele>
        <time>2022-07-17T05:18:32Z</time>
      </trkpt>
      <trkpt lat="45.74484" lon="6.50192">
        <ele>1971</ele>
        <time>2022-07-17T05:18:34Z</time>
      </trkpt>
      <trkpt lat="45.74484" lon="6.50188">
        <ele>1970</ele>
        <time>2022-07-17T05:18:36Z</time>
      </trkpt>
      <trkpt lat="45.74484" lon="6.50185">
        <ele>1970</ele>
        <time>2022-07-17T05:18:38Z</time>
      </trkpt>
      <trkpt lat="45.74484" lon="6.50181">
        <ele>1970</ele>
        <time>2022-07-17T05:18:40Z</time>
      </trkpt>
      <trkpt lat="45.74484" lon="6.50177">
        <ele>1969</ele>
        <time>2022-07-17T05:18:42Z</time>
      </trkpt>
      <trkpt lat="45.74484" lon="6.50174">
        <ele>1969</ele>
        <time>2022-07-17T05:18:44Z</time>
      </trkpt>
      <trkpt lat="45.74484" lon="6.50171">
        <ele>1967</ele>
        <time>2022-07-17T05:18:46Z</time>
      </trkpt>
      <trkpt lat="45.74484" lon="6.50167">
        <ele>1967</ele>
        <time>2022-07-17T05:18:48Z</time>
      </trkpt>
      <trkpt lat="45.74483" lon="6.50162">
        <ele>1967</ele>
        <time>2022-07-17T05:18:50Z</time>
      </trkpt>
      <trkpt lat="45.74483" lon="6.50158">
        <ele>1966</ele>
        <time>2022-07-17T05:18:52Z</time>
      </trkpt>
      <trkpt lat="45.74483" lon="6.50155">
        <ele>1966</ele>
        <time>2022-07-17T05:18:54Z</time>
      </trkpt>
      <trkpt lat="45.74483" lon="6.50151">
        <ele>1966</ele>
        <time>2022-07-17T05:18:56Z</time>
      </trkpt>
      <trkpt lat="45.74483" lon="6.50147">
        <ele>1966</ele>
        <time>2022-07-17T05:18:58Z</time>
      </trkpt>
      <trkpt lat="45.74482" lon="6.50144">
        <ele>1966</ele>
        <time>2022-07-17T05:19:00Z</time>
      </trkpt>
      <trkpt lat="45.74481" lon="6.50141">
        <ele>1966</ele>
        <time>2022-07-17T05:19:02Z</time>
      </trkpt>
      <trkpt lat="45.7448" lon="6.50138">
        <ele>1966</ele>
        <time>2022-07-17T05:19:04Z</time>
      </trkpt>
      <trkpt lat="45.74479" lon="6.50134">
        <ele>1966</ele>
        <time>2022-07-17T05:19:06Z</time>
      </trkpt>
      <trkpt lat="45.74478" lon="6.50129">
        <ele>1966</ele>
        <time>2022-07-17T05:19:08Z</time>
      </trkpt>
      <trkpt lat="45.74478" lon="6.50124">
        <ele>1965</ele>
        <time>2022-07-17T05:19:10Z</time>
      </trkpt>
      <trkpt lat="45.74477" lon="6.5012">
        <ele>1965</ele>
        <time>2022-07-17T05:19:12Z</time>
      </trkpt>
      <trkpt lat="45.74476" lon="6.50115">
        <ele>1965</ele>
        <time>2022-07-17T05:19:14Z</time>
      </trkpt>
      <trkpt lat="45.74475" lon="6.5011">
        <ele>1965</ele>
        <time>2022-07-17T05:19:16Z</time>
      </trkpt>
      <trkpt lat="45.74474" lon="6.50106">
        <ele>1964</ele>
        <time>2022-07-17T05:19:18Z</time>
      </trkpt>
      <trkpt lat="45.74473" lon="6.50102">
        <ele>1964</ele>
        <time>2022-07-17T05:19:20Z</time>
      </trkpt>
      <trkpt lat="45.74472" lon="6.50097">
        <ele>1964</ele>
        <time>2022-07-17T05:19:22Z</time>
      </trkpt>
      <trkpt lat="45.7447" lon="6.50093">
        <ele>1964</ele>
        <time>2022-07-17T05:19:24Z</time>
      </trkpt>
      <trkpt lat="45.74469" lon="6.50089">
        <ele>1964</ele>
        <time>2022-07-17T05:19:26Z</time>
      </trkpt>
      <trkpt lat="45.74468" lon="6.50085">
        <ele>1964</ele>
        <time>2022-07-17T05:19:28Z</time>
      </trkpt>
      <trkpt lat="45.74466" lon="6.50082">
        <ele>1963</ele>
        <time>2022-07-17T05:19:30Z</time>
      </trkpt>
      <trkpt lat="45.74464" lon="6.50078">
        <ele>1963</ele>
        <time>2022-07-17T05:19:32Z</time>
      </trkpt>
      <trkpt lat="45.74463" lon="6.50073">
        <ele>1962</ele>
        <time>2022-07-17T05:19:34Z</time>
      </trkpt>
      <trkpt lat="45.74462" lon="6.5007">
        <ele>1962</ele>
        <time>2022-07-17T05:19:36Z</time>
      </trkpt>
      <trkpt lat="45.74461" lon="6.50066">
        <ele>1962</ele>
        <time>2022-07-17T05:19:38Z</time>
      </trkpt>
      <trkpt lat="45.74459" lon="6.50062">
        <ele>1962</ele>
        <time>2022-07-17T05:19:41Z</time>
      </trkpt>
      <trkpt lat="45.74458" lon="6.50059">
        <ele>1960</ele>
        <time>2022-07-17T05:19:42Z</time>
      </trkpt>
      <trkpt lat="45.74457" lon="6.50056">
        <ele>1960</ele>
        <time>2022-07-17T05:19:44Z</time>
      </trkpt>
      <trkpt lat="45.74456" lon="6.50053">
        <ele>1960</ele>
        <time>2022-07-17T05:19:46Z</time>
      </trkpt>
      <trkpt lat="45.74455" lon="6.50049">
        <ele>1960</ele>
        <time>2022-07-17T05:19:48Z</time>
      </trkpt>
      <trkpt lat="45.74454" lon="6.50046">
        <ele>1959</ele>
        <time>2022-07-17T05:19:50Z</time>
      </trkpt>
      <trkpt lat="45.74452" lon="6.50042">
        <ele>1959</ele>
        <time>2022-07-17T05:19:52Z</time>
      </trkpt>
      <trkpt lat="45.74452" lon="6.50038">
        <ele>1958</ele>
        <time>2022-07-17T05:19:54Z</time>
      </trkpt>
      <trkpt lat="45.74451" lon="6.50035">
        <ele>1958</ele>
        <time>2022-07-17T05:19:55Z</time>
      </trkpt>
      <trkpt lat="45.74451" lon="6.50032">
        <ele>1958</ele>
        <time>2022-07-17T05:19:56Z</time>
      </trkpt>
      <trkpt lat="45.7445" lon="6.5003">
        <ele>1958</ele>
        <time>2022-07-17T05:19:57Z</time>
      </trkpt>
      <trkpt lat="45.7445" lon="6.50026">
        <ele>1958</ele>
        <time>2022-07-17T05:20:00Z</time>
      </trkpt>
      <trkpt lat="45.74449" lon="6.50021">
        <ele>1957</ele>
        <time>2022-07-17T05:20:01Z</time>
      </trkpt>
      <trkpt lat="45.74448" lon="6.50017">
        <ele>1957</ele>
        <time>2022-07-17T05:20:03Z</time>
      </trkpt>
      <trkpt lat="45.74447" lon="6.50013">
        <ele>1957</ele>
        <time>2022-07-17T05:20:05Z</time>
      </trkpt>
      <trkpt lat="45.74446" lon="6.50009">
        <ele>1957</ele>
        <time>2022-07-17T05:20:07Z</time>
      </trkpt>
      <trkpt lat="45.74445" lon="6.50005">
        <ele>1956</ele>
        <time>2022-07-17T05:20:09Z</time>
      </trkpt>
      <trkpt lat="45.74444" lon="6.5">
        <ele>1956</ele>
        <time>2022-07-17T05:20:11Z</time>
      </trkpt>
      <trkpt lat="45.74443" lon="6.49996">
        <ele>1956</ele>
        <time>2022-07-17T05:20:13Z</time>
      </trkpt>
      <trkpt lat="45.74442" lon="6.49992">
        <ele>1955</ele>
        <time>2022-07-17T05:20:15Z</time>
      </trkpt>
      <trkpt lat="45.74441" lon="6.4999">
        <ele>1955</ele>
        <time>2022-07-17T05:20:16Z</time>
      </trkpt>
      <trkpt lat="45.7444" lon="6.49983">
        <ele>1955</ele>
        <time>2022-07-17T05:20:19Z</time>
      </trkpt>
      <trkpt lat="45.74439" lon="6.49978">
        <ele>1955</ele>
        <time>2022-07-17T05:20:21Z</time>
      </trkpt>
      <trkpt lat="45.74438" lon="6.49974">
        <ele>1955</ele>
        <time>2022-07-17T05:20:23Z</time>
      </trkpt>
      <trkpt lat="45.74437" lon="6.49971">
        <ele>1955</ele>
        <time>2022-07-17T05:20:24Z</time>
      </trkpt>
      <trkpt lat="45.74437" lon="6.49969">
        <ele>1955</ele>
        <time>2022-07-17T05:20:25Z</time>
      </trkpt>
      <trkpt lat="45.74436" lon="6.49964">
        <ele>1955</ele>
        <time>2022-07-17T05:20:27Z</time>
      </trkpt>
      <trkpt lat="45.74434" lon="6.4996">
        <ele>1955</ele>
        <time>2022-07-17T05:20:29Z</time>
      </trkpt>
      <trkpt lat="45.74432" lon="6.49956">
        <ele>1954</ele>
        <time>2022-07-17T05:20:31Z</time>
      </trkpt>
      <trkpt lat="45.74431" lon="6.49953">
        <ele>1954</ele>
        <time>2022-07-17T05:20:33Z</time>
      </trkpt>
      <trkpt lat="45.7443" lon="6.49949">
        <ele>1954</ele>
        <time>2022-07-17T05:20:35Z</time>
      </trkpt>
      <trkpt lat="45.7443" lon="6.49945">
        <ele>1954</ele>
        <time>2022-07-17T05:20:37Z</time>
      </trkpt>
      <trkpt lat="45.74428" lon="6.4994">
        <ele>1954</ele>
        <time>2022-07-17T05:20:39Z</time>
      </trkpt>
      <trkpt lat="45.74427" lon="6.49936">
        <ele>1953</ele>
        <time>2022-07-17T05:20:41Z</time>
      </trkpt>
      <trkpt lat="45.74425" lon="6.49932">
        <ele>1953</ele>
        <time>2022-07-17T05:20:43Z</time>
      </trkpt>
      <trkpt lat="45.74424" lon="6.49928">
        <ele>1953</ele>
        <time>2022-07-17T05:20:45Z</time>
      </trkpt>
      <trkpt lat="45.74423" lon="6.49924">
        <ele>1953</ele>
        <time>2022-07-17T05:20:47Z</time>
      </trkpt>
      <trkpt lat="45.74422" lon="6.49919">
        <ele>1953</ele>
        <time>2022-07-17T05:20:49Z</time>
      </trkpt>
      <trkpt lat="45.74421" lon="6.49914">
        <ele>1952</ele>
        <time>2022-07-17T05:20:51Z</time>
      </trkpt>
      <trkpt lat="45.7442" lon="6.4991">
        <ele>1952</ele>
        <time>2022-07-17T05:20:53Z</time>
      </trkpt>
      <trkpt lat="45.74418" lon="6.49907">
        <ele>1952</ele>
        <time>2022-07-17T05:20:55Z</time>
      </trkpt>
      <trkpt lat="45.74417" lon="6.49903">
        <ele>1952</ele>
        <time>2022-07-17T05:20:57Z</time>
      </trkpt>
      <trkpt lat="45.74415" lon="6.49899">
        <ele>1952</ele>
        <time>2022-07-17T05:20:59Z</time>
      </trkpt>
      <trkpt lat="45.74414" lon="6.49896">
        <ele>1952</ele>
        <time>2022-07-17T05:21:01Z</time>
      </trkpt>
      <trkpt lat="45.74413" lon="6.49892">
        <ele>1951</ele>
        <time>2022-07-17T05:21:03Z</time>
      </trkpt>
      <trkpt lat="45.74412" lon="6.49889">
        <ele>1951</ele>
        <time>2022-07-17T05:21:05Z</time>
      </trkpt>
      <trkpt lat="45.74411" lon="6.49885">
        <ele>1951</ele>
        <time>2022-07-17T05:21:07Z</time>
      </trkpt>
      <trkpt lat="45.7441" lon="6.49881">
        <ele>1951</ele>
        <time>2022-07-17T05:21:09Z</time>
      </trkpt>
      <trkpt lat="45.74409" lon="6.49878">
        <ele>1951</ele>
        <time>2022-07-17T05:21:11Z</time>
      </trkpt>
      <trkpt lat="45.74408" lon="6.49874">
        <ele>1951</ele>
        <time>2022-07-17T05:21:13Z</time>
      </trkpt>
      <trkpt lat="45.74407" lon="6.4987">
        <ele>1951</ele>
        <time>2022-07-17T05:21:16Z</time>
      </trkpt>
      <trkpt lat="45.74408" lon="6.49867">
        <ele>1950</ele>
        <time>2022-07-17T05:21:17Z</time>
      </trkpt>
      <trkpt lat="45.74408" lon="6.49863">
        <ele>1950</ele>
        <time>2022-07-17T05:21:19Z</time>
      </trkpt>
      <trkpt lat="45.74409" lon="6.4986">
        <ele>1950</ele>
        <time>2022-07-17T05:21:21Z</time>
      </trkpt>
      <trkpt lat="45.7441" lon="6.49855">
        <ele>1950</ele>
        <time>2022-07-17T05:21:23Z</time>
      </trkpt>
      <trkpt lat="45.7441" lon="6.49851">
        <ele>1950</ele>
        <time>2022-07-17T05:21:25Z</time>
      </trkpt>
      <trkpt lat="45.74412" lon="6.49846">
        <ele>1949</ele>
        <time>2022-07-17T05:21:27Z</time>
      </trkpt>
      <trkpt lat="45.74413" lon="6.49843">
        <ele>1949</ele>
        <time>2022-07-17T05:21:29Z</time>
      </trkpt>
      <trkpt lat="45.74413" lon="6.49839">
        <ele>1949</ele>
        <time>2022-07-17T05:21:31Z</time>
      </trkpt>
      <trkpt lat="45.74412" lon="6.49835">
        <ele>1948</ele>
        <time>2022-07-17T05:21:33Z</time>
      </trkpt>
      <trkpt lat="45.74412" lon="6.49832">
        <ele>1948</ele>
        <time>2022-07-17T05:21:35Z</time>
      </trkpt>
      <trkpt lat="45.74413" lon="6.49828">
        <ele>1945</ele>
        <time>2022-07-17T05:21:37Z</time>
      </trkpt>
      <trkpt lat="45.74414" lon="6.49824">
        <ele>1945</ele>
        <time>2022-07-17T05:21:39Z</time>
      </trkpt>
      <trkpt lat="45.74415" lon="6.49821">
        <ele>1945</ele>
        <time>2022-07-17T05:21:41Z</time>
      </trkpt>
      <trkpt lat="45.74415" lon="6.49817">
        <ele>1944</ele>
        <time>2022-07-17T05:21:43Z</time>
      </trkpt>
      <trkpt lat="45.74415" lon="6.49814">
        <ele>1943</ele>
        <time>2022-07-17T05:21:45Z</time>
      </trkpt>
      <trkpt lat="45.74415" lon="6.4981">
        <ele>1942</ele>
        <time>2022-07-17T05:21:47Z</time>
      </trkpt>
      <trkpt lat="45.74415" lon="6.49806">
        <ele>1941</ele>
        <time>2022-07-17T05:21:49Z</time>
      </trkpt>
      <trkpt lat="45.74415" lon="6.49802">
        <ele>1940</ele>
        <time>2022-07-17T05:21:51Z</time>
      </trkpt>
      <trkpt lat="45.74415" lon="6.49797">
        <ele>1939</ele>
        <time>2022-07-17T05:21:54Z</time>
      </trkpt>
      <trkpt lat="45.74414" lon="6.49793">
        <ele>1939</ele>
        <time>2022-07-17T05:21:55Z</time>
      </trkpt>
      <trkpt lat="45.74413" lon="6.49788">
        <ele>1938</ele>
        <time>2022-07-17T05:21:57Z</time>
      </trkpt>
      <trkpt lat="45.74413" lon="6.49785">
        <ele>1938</ele>
        <time>2022-07-17T05:21:58Z</time>
      </trkpt>
      <trkpt lat="45.74413" lon="6.49782">
        <ele>1937</ele>
        <time>2022-07-17T05:21:59Z</time>
      </trkpt>
      <trkpt lat="45.74413" lon="6.49779">
        <ele>1937</ele>
        <time>2022-07-17T05:22:00Z</time>
      </trkpt>
      <trkpt lat="45.74413" lon="6.49775">
        <ele>1935</ele>
        <time>2022-07-17T05:22:02Z</time>
      </trkpt>
      <trkpt lat="45.74413" lon="6.49771">
        <ele>1935</ele>
        <time>2022-07-17T05:22:04Z</time>
      </trkpt>
      <trkpt lat="45.74413" lon="6.49766">
        <ele>1935</ele>
        <time>2022-07-17T05:22:06Z</time>
      </trkpt>
      <trkpt lat="45.74412" lon="6.49761">
        <ele>1935</ele>
        <time>2022-07-17T05:22:08Z</time>
      </trkpt>
      <trkpt lat="45.74412" lon="6.49758">
        <ele>1935</ele>
        <time>2022-07-17T05:22:09Z</time>
      </trkpt>
      <trkpt lat="45.74411" lon="6.49754">
        <ele>1935</ele>
        <time>2022-07-17T05:22:11Z</time>
      </trkpt>
      <trkpt lat="45.7441" lon="6.4975">
        <ele>1935</ele>
        <time>2022-07-17T05:22:13Z</time>
      </trkpt>
      <trkpt lat="45.74408" lon="6.49746">
        <ele>1933</ele>
        <time>2022-07-17T05:22:15Z</time>
      </trkpt>
      <trkpt lat="45.74407" lon="6.49743">
        <ele>1933</ele>
        <time>2022-07-17T05:22:17Z</time>
      </trkpt>
      <trkpt lat="45.74405" lon="6.49739">
        <ele>1933</ele>
        <time>2022-07-17T05:22:19Z</time>
      </trkpt>
      <trkpt lat="45.74404" lon="6.49735">
        <ele>1933</ele>
        <time>2022-07-17T05:22:21Z</time>
      </trkpt>
      <trkpt lat="45.74402" lon="6.49732">
        <ele>1933</ele>
        <time>2022-07-17T05:22:23Z</time>
      </trkpt>
      <trkpt lat="45.74401" lon="6.49729">
        <ele>1933</ele>
        <time>2022-07-17T05:22:25Z</time>
      </trkpt>
      <trkpt lat="45.74399" lon="6.49725">
        <ele>1932</ele>
        <time>2022-07-17T05:22:27Z</time>
      </trkpt>
      <trkpt lat="45.74398" lon="6.49722">
        <ele>1932</ele>
        <time>2022-07-17T05:22:29Z</time>
      </trkpt>
      <trkpt lat="45.74394" lon="6.49716">
        <ele>1931</ele>
        <time>2022-07-17T05:22:32Z</time>
      </trkpt>
      <trkpt lat="45.74392" lon="6.49714">
        <ele>1931</ele>
        <time>2022-07-17T05:22:33Z</time>
      </trkpt>
      <trkpt lat="45.74391" lon="6.49713">
        <ele>1931</ele>
        <time>2022-07-17T05:22:34Z</time>
      </trkpt>
      <trkpt lat="45.7439" lon="6.4971">
        <ele>1931</ele>
        <time>2022-07-17T05:22:35Z</time>
      </trkpt>
      <trkpt lat="45.74389" lon="6.49708">
        <ele>1931</ele>
        <time>2022-07-17T05:22:36Z</time>
      </trkpt>
      <trkpt lat="45.74387" lon="6.49706">
        <ele>1931</ele>
        <time>2022-07-17T05:22:37Z</time>
      </trkpt>
      <trkpt lat="45.74386" lon="6.49704">
        <ele>1931</ele>
        <time>2022-07-17T05:22:38Z</time>
      </trkpt>
      <trkpt lat="45.74385" lon="6.49702">
        <ele>1931</ele>
        <time>2022-07-17T05:22:39Z</time>
      </trkpt>
      <trkpt lat="45.74383" lon="6.497">
        <ele>1931</ele>
        <time>2022-07-17T05:22:40Z</time>
      </trkpt>
      <trkpt lat="45.74381" lon="6.49696">
        <ele>1931</ele>
        <time>2022-07-17T05:22:42Z</time>
      </trkpt>
      <trkpt lat="45.7438" lon="6.49694">
        <ele>1930</ele>
        <time>2022-07-17T05:22:43Z</time>
      </trkpt>
      <trkpt lat="45.74379" lon="6.49692">
        <ele>1930</ele>
        <time>2022-07-17T05:22:44Z</time>
      </trkpt>
      <trkpt lat="45.74378" lon="6.49689">
        <ele>1930</ele>
        <time>2022-07-17T05:22:45Z</time>
      </trkpt>
      <trkpt lat="45.74376" lon="6.49686">
        <ele>1930</ele>
        <time>2022-07-17T05:22:47Z</time>
      </trkpt>
      <trkpt lat="45.74375" lon="6.49684">
        <ele>1930</ele>
        <time>2022-07-17T05:22:48Z</time>
      </trkpt>
      <trkpt lat="45.74374" lon="6.49682">
        <ele>1930</ele>
        <time>2022-07-17T05:22:50Z</time>
      </trkpt>
      <trkpt lat="45.74372" lon="6.49678">
        <ele>1930</ele>
        <time>2022-07-17T05:22:51Z</time>
      </trkpt>
      <trkpt lat="45.74371" lon="6.49674">
        <ele>1930</ele>
        <time>2022-07-17T05:22:53Z</time>
      </trkpt>
      <trkpt lat="45.74369" lon="6.49671">
        <ele>1929</ele>
        <time>2022-07-17T05:22:55Z</time>
      </trkpt>
      <trkpt lat="45.74367" lon="6.49668">
        <ele>1929</ele>
        <time>2022-07-17T05:22:57Z</time>
      </trkpt>
      <trkpt lat="45.74366" lon="6.49665">
        <ele>1929</ele>
        <time>2022-07-17T05:22:59Z</time>
      </trkpt>
      <trkpt lat="45.74364" lon="6.49661">
        <ele>1929</ele>
        <time>2022-07-17T05:23:01Z</time>
      </trkpt>
      <trkpt lat="45.74363" lon="6.49658">
        <ele>1929</ele>
        <time>2022-07-17T05:23:03Z</time>
      </trkpt>
      <trkpt lat="45.74361" lon="6.49655">
        <ele>1929</ele>
        <time>2022-07-17T05:23:05Z</time>
      </trkpt>
      <trkpt lat="45.7436" lon="6.49652">
        <ele>1929</ele>
        <time>2022-07-17T05:23:07Z</time>
      </trkpt>
      <trkpt lat="45.7436" lon="6.49649">
        <ele>1929</ele>
        <time>2022-07-17T05:23:10Z</time>
      </trkpt>
      <trkpt lat="45.74359" lon="6.49645">
        <ele>1929</ele>
        <time>2022-07-17T05:23:11Z</time>
      </trkpt>
      <trkpt lat="45.74358" lon="6.49642">
        <ele>1929</ele>
        <time>2022-07-17T05:23:13Z</time>
      </trkpt>
      <trkpt lat="45.74358" lon="6.49639">
        <ele>1929</ele>
        <time>2022-07-17T05:23:15Z</time>
      </trkpt>
      <trkpt lat="45.74357" lon="6.49636">
        <ele>1929</ele>
        <time>2022-07-17T05:23:17Z</time>
      </trkpt>
      <trkpt lat="45.74356" lon="6.49633">
        <ele>1928</ele>
        <time>2022-07-17T05:23:19Z</time>
      </trkpt>
      <trkpt lat="45.74355" lon="6.49629">
        <ele>1928</ele>
        <time>2022-07-17T05:23:21Z</time>
      </trkpt>
      <trkpt lat="45.74353" lon="6.49626">
        <ele>1928</ele>
        <time>2022-07-17T05:23:23Z</time>
      </trkpt>
      <trkpt lat="45.74352" lon="6.49623">
        <ele>1928</ele>
        <time>2022-07-17T05:23:25Z</time>
      </trkpt>
      <trkpt lat="45.74351" lon="6.4962">
        <ele>1928</ele>
        <time>2022-07-17T05:23:27Z</time>
      </trkpt>
      <trkpt lat="45.74349" lon="6.49617">
        <ele>1928</ele>
        <time>2022-07-17T05:23:30Z</time>
      </trkpt>
      <trkpt lat="45.74349" lon="6.49614">
        <ele>1928</ele>
        <time>2022-07-17T05:23:31Z</time>
      </trkpt>
      <trkpt lat="45.74347" lon="6.49611">
        <ele>1928</ele>
        <time>2022-07-17T05:23:33Z</time>
      </trkpt>
      <trkpt lat="45.74346" lon="6.49608">
        <ele>1928</ele>
        <time>2022-07-17T05:23:35Z</time>
      </trkpt>
      <trkpt lat="45.74346" lon="6.49605">
        <ele>1928</ele>
        <time>2022-07-17T05:23:37Z</time>
      </trkpt>
      <trkpt lat="45.74345" lon="6.49602">
        <ele>1927</ele>
        <time>2022-07-17T05:23:39Z</time>
      </trkpt>
      <trkpt lat="45.74344" lon="6.49599">
        <ele>1927</ele>
        <time>2022-07-17T05:23:41Z</time>
      </trkpt>
      <trkpt lat="45.74343" lon="6.49596">
        <ele>1927</ele>
        <time>2022-07-17T05:23:43Z</time>
      </trkpt>
      <trkpt lat="45.74342" lon="6.49593">
        <ele>1927</ele>
        <time>2022-07-17T05:23:48Z</time>
      </trkpt>
      <trkpt lat="45.74342" lon="6.4959">
        <ele>1927</ele>
        <time>2022-07-17T05:23:50Z</time>
      </trkpt>
      <trkpt lat="45.74342" lon="6.49586">
        <ele>1927</ele>
        <time>2022-07-17T05:23:52Z</time>
      </trkpt>
      <trkpt lat="45.74341" lon="6.49582">
        <ele>1927</ele>
        <time>2022-07-17T05:23:54Z</time>
      </trkpt>
      <trkpt lat="45.74341" lon="6.49579">
        <ele>1927</ele>
        <time>2022-07-17T05:23:56Z</time>
      </trkpt>
      <trkpt lat="45.74341" lon="6.49575">
        <ele>1927</ele>
        <time>2022-07-17T05:23:58Z</time>
      </trkpt>
      <trkpt lat="45.74341" lon="6.49571">
        <ele>1927</ele>
        <time>2022-07-17T05:24:00Z</time>
      </trkpt>
      <trkpt lat="45.7434" lon="6.49568">
        <ele>1927</ele>
        <time>2022-07-17T05:24:02Z</time>
      </trkpt>
      <trkpt lat="45.7434" lon="6.49564">
        <ele>1927</ele>
        <time>2022-07-17T05:24:04Z</time>
      </trkpt>
      <trkpt lat="45.7434" lon="6.4956">
        <ele>1926</ele>
        <time>2022-07-17T05:24:07Z</time>
      </trkpt>
      <trkpt lat="45.74339" lon="6.49555">
        <ele>1925</ele>
        <time>2022-07-17T05:24:08Z</time>
      </trkpt>
      <trkpt lat="45.74338" lon="6.49552">
        <ele>1925</ele>
        <time>2022-07-17T05:24:10Z</time>
      </trkpt>
      <trkpt lat="45.74337" lon="6.49547">
        <ele>1925</ele>
        <time>2022-07-17T05:24:12Z</time>
      </trkpt>
      <trkpt lat="45.74336" lon="6.49544">
        <ele>1925</ele>
        <time>2022-07-17T05:24:14Z</time>
      </trkpt>
      <trkpt lat="45.74336" lon="6.4954">
        <ele>1925</ele>
        <time>2022-07-17T05:24:16Z</time>
      </trkpt>
      <trkpt lat="45.74335" lon="6.49537">
        <ele>1925</ele>
        <time>2022-07-17T05:24:18Z</time>
      </trkpt>
      <trkpt lat="45.74335" lon="6.49534">
        <ele>1925</ele>
        <time>2022-07-17T05:24:20Z</time>
      </trkpt>
      <trkpt lat="45.74334" lon="6.49531">
        <ele>1925</ele>
        <time>2022-07-17T05:24:22Z</time>
      </trkpt>
      <trkpt lat="45.74332" lon="6.49529">
        <ele>1925</ele>
        <time>2022-07-17T05:24:24Z</time>
      </trkpt>
      <trkpt lat="45.7433" lon="6.49527">
        <ele>1924</ele>
        <time>2022-07-17T05:24:27Z</time>
      </trkpt>
      <trkpt lat="45.74328" lon="6.49525">
        <ele>1924</ele>
        <time>2022-07-17T05:24:28Z</time>
      </trkpt>
      <trkpt lat="45.74325" lon="6.49522">
        <ele>1924</ele>
        <time>2022-07-17T05:24:30Z</time>
      </trkpt>
      <trkpt lat="45.74324" lon="6.4952">
        <ele>1924</ele>
        <time>2022-07-17T05:24:31Z</time>
      </trkpt>
      <trkpt lat="45.74321" lon="6.49517">
        <ele>1924</ele>
        <time>2022-07-17T05:24:33Z</time>
      </trkpt>
      <trkpt lat="45.74319" lon="6.49514">
        <ele>1924</ele>
        <time>2022-07-17T05:24:35Z</time>
      </trkpt>
      <trkpt lat="45.74317" lon="6.49511">
        <ele>1923</ele>
        <time>2022-07-17T05:24:37Z</time>
      </trkpt>
      <trkpt lat="45.74314" lon="6.49508">
        <ele>1922</ele>
        <time>2022-07-17T05:24:39Z</time>
      </trkpt>
      <trkpt lat="45.74312" lon="6.49507">
        <ele>1921</ele>
        <time>2022-07-17T05:24:40Z</time>
      </trkpt>
      <trkpt lat="45.74311" lon="6.49505">
        <ele>1921</ele>
        <time>2022-07-17T05:24:41Z</time>
      </trkpt>
      <trkpt lat="45.74308" lon="6.49503">
        <ele>1921</ele>
        <time>2022-07-17T05:24:43Z</time>
      </trkpt>
      <trkpt lat="45.74306" lon="6.495">
        <ele>1921</ele>
        <time>2022-07-17T05:24:46Z</time>
      </trkpt>
      <trkpt lat="45.74304" lon="6.49497">
        <ele>1920</ele>
        <time>2022-07-17T05:24:48Z</time>
      </trkpt>
      <trkpt lat="45.74302" lon="6.49493">
        <ele>1920</ele>
        <time>2022-07-17T05:24:50Z</time>
      </trkpt>
      <trkpt lat="45.74299" lon="6.4949">
        <ele>1920</ele>
        <time>2022-07-17T05:24:52Z</time>
      </trkpt>
      <trkpt lat="45.74297" lon="6.49488">
        <ele>1920</ele>
        <time>2022-07-17T05:24:54Z</time>
      </trkpt>
      <trkpt lat="45.74296" lon="6.49486">
        <ele>1920</ele>
        <time>2022-07-17T05:24:56Z</time>
      </trkpt>
      <trkpt lat="45.74294" lon="6.49484">
        <ele>1920</ele>
        <time>2022-07-17T05:24:58Z</time>
      </trkpt>
      <trkpt lat="45.74292" lon="6.49481">
        <ele>1919</ele>
        <time>2022-07-17T05:25:00Z</time>
      </trkpt>
      <trkpt lat="45.7429" lon="6.49479">
        <ele>1919</ele>
        <time>2022-07-17T05:25:01Z</time>
      </trkpt>
      <trkpt lat="45.74288" lon="6.49479">
        <ele>1919</ele>
        <time>2022-07-17T05:25:02Z</time>
      </trkpt>
      <trkpt lat="45.74286" lon="6.49478">
        <ele>1919</ele>
        <time>2022-07-17T05:25:03Z</time>
      </trkpt>
      <trkpt lat="45.74284" lon="6.49477">
        <ele>1919</ele>
        <time>2022-07-17T05:25:04Z</time>
      </trkpt>
      <trkpt lat="45.74282" lon="6.49476">
        <ele>1919</ele>
        <time>2022-07-17T05:25:05Z</time>
      </trkpt>
      <trkpt lat="45.7428" lon="6.49475">
        <ele>1919</ele>
        <time>2022-07-17T05:25:06Z</time>
      </trkpt>
      <trkpt lat="45.74278" lon="6.49474">
        <ele>1919</ele>
        <time>2022-07-17T05:25:07Z</time>
      </trkpt>
      <trkpt lat="45.74277" lon="6.49472">
        <ele>1919</ele>
        <time>2022-07-17T05:25:08Z</time>
      </trkpt>
      <trkpt lat="45.74275" lon="6.49471">
        <ele>1919</ele>
        <time>2022-07-17T05:25:09Z</time>
      </trkpt>
      <trkpt lat="45.74274" lon="6.49469">
        <ele>1918</ele>
        <time>2022-07-17T05:25:10Z</time>
      </trkpt>
      <trkpt lat="45.74272" lon="6.49466">
        <ele>1918</ele>
        <time>2022-07-17T05:25:11Z</time>
      </trkpt>
      <trkpt lat="45.74271" lon="6.49465">
        <ele>1918</ele>
        <time>2022-07-17T05:25:12Z</time>
      </trkpt>
      <trkpt lat="45.74269" lon="6.49461">
        <ele>1918</ele>
        <time>2022-07-17T05:25:14Z</time>
      </trkpt>
      <trkpt lat="45.74267" lon="6.49457">
        <ele>1918</ele>
        <time>2022-07-17T05:25:16Z</time>
      </trkpt>
      <trkpt lat="45.74266" lon="6.49455">
        <ele>1918</ele>
        <time>2022-07-17T05:25:18Z</time>
      </trkpt>
      <trkpt lat="45.74264" lon="6.49451">
        <ele>1918</ele>
        <time>2022-07-17T05:25:19Z</time>
      </trkpt>
      <trkpt lat="45.74263" lon="6.49447">
        <ele>1918</ele>
        <time>2022-07-17T05:25:21Z</time>
      </trkpt>
      <trkpt lat="45.74261" lon="6.49442">
        <ele>1918</ele>
        <time>2022-07-17T05:25:24Z</time>
      </trkpt>
      <trkpt lat="45.7426" lon="6.49438">
        <ele>1917</ele>
        <time>2022-07-17T05:25:25Z</time>
      </trkpt>
      <trkpt lat="45.74259" lon="6.49435">
        <ele>1917</ele>
        <time>2022-07-17T05:25:27Z</time>
      </trkpt>
      <trkpt lat="45.74258" lon="6.49432">
        <ele>1918</ele>
        <time>2022-07-17T05:25:29Z</time>
      </trkpt>
      <trkpt lat="45.74256" lon="6.49429">
        <ele>1918</ele>
        <time>2022-07-17T05:25:31Z</time>
      </trkpt>
      <trkpt lat="45.74255" lon="6.49425">
        <ele>1918</ele>
        <time>2022-07-17T05:25:33Z</time>
      </trkpt>
      <trkpt lat="45.74255" lon="6.4942">
        <ele>1918</ele>
        <time>2022-07-17T05:25:35Z</time>
      </trkpt>
      <trkpt lat="45.74254" lon="6.49416">
        <ele>1918</ele>
        <time>2022-07-17T05:25:37Z</time>
      </trkpt>
      <trkpt lat="45.74253" lon="6.49411">
        <ele>1918</ele>
        <time>2022-07-17T05:25:39Z</time>
      </trkpt>
      <trkpt lat="45.74254" lon="6.49406">
        <ele>1918</ele>
        <time>2022-07-17T05:25:41Z</time>
      </trkpt>
      <trkpt lat="45.74254" lon="6.49403">
        <ele>1918</ele>
        <time>2022-07-17T05:25:43Z</time>
      </trkpt>
      <trkpt lat="45.74254" lon="6.49399">
        <ele>1918</ele>
        <time>2022-07-17T05:25:45Z</time>
      </trkpt>
      <trkpt lat="45.74253" lon="6.49395">
        <ele>1918</ele>
        <time>2022-07-17T05:25:47Z</time>
      </trkpt>
      <trkpt lat="45.74253" lon="6.49391">
        <ele>1919</ele>
        <time>2022-07-17T05:25:49Z</time>
      </trkpt>
      <trkpt lat="45.74253" lon="6.49387">
        <ele>1919</ele>
        <time>2022-07-17T05:25:51Z</time>
      </trkpt>
      <trkpt lat="45.74252" lon="6.49384">
        <ele>1919</ele>
        <time>2022-07-17T05:25:53Z</time>
      </trkpt>
      <trkpt lat="45.74252" lon="6.4938">
        <ele>1919</ele>
        <time>2022-07-17T05:25:55Z</time>
      </trkpt>
      <trkpt lat="45.74251" lon="6.49377">
        <ele>1919</ele>
        <time>2022-07-17T05:25:57Z</time>
      </trkpt>
      <trkpt lat="45.74249" lon="6.49374">
        <ele>1918</ele>
        <time>2022-07-17T05:25:59Z</time>
      </trkpt>
      <trkpt lat="45.74247" lon="6.49371">
        <ele>1918</ele>
        <time>2022-07-17T05:26:01Z</time>
      </trkpt>
      <trkpt lat="45.74246" lon="6.49368">
        <ele>1918</ele>
        <time>2022-07-17T05:26:03Z</time>
      </trkpt>
      <trkpt lat="45.74245" lon="6.49366">
        <ele>1918</ele>
        <time>2022-07-17T05:26:05Z</time>
      </trkpt>
      <trkpt lat="45.74243" lon="6.49364">
        <ele>1918</ele>
        <time>2022-07-17T05:26:07Z</time>
      </trkpt>
      <trkpt lat="45.74241" lon="6.49362">
        <ele>1918</ele>
        <time>2022-07-17T05:26:09Z</time>
      </trkpt>
      <trkpt lat="45.74239" lon="6.4936">
        <ele>1918</ele>
        <time>2022-07-17T05:26:10Z</time>
      </trkpt>
      <trkpt lat="45.74237" lon="6.49356">
        <ele>1918</ele>
        <time>2022-07-17T05:26:12Z</time>
      </trkpt>
      <trkpt lat="45.74235" lon="6.49352">
        <ele>1918</ele>
        <time>2022-07-17T05:26:14Z</time>
      </trkpt>
      <trkpt lat="45.74234" lon="6.4935">
        <ele>1918</ele>
        <time>2022-07-17T05:26:16Z</time>
      </trkpt>
      <trkpt lat="45.74232" lon="6.49347">
        <ele>1918</ele>
        <time>2022-07-17T05:26:18Z</time>
      </trkpt>
      <trkpt lat="45.7423" lon="6.49345">
        <ele>1918</ele>
        <time>2022-07-17T05:26:20Z</time>
      </trkpt>
      <trkpt lat="45.74228" lon="6.49342">
        <ele>1918</ele>
        <time>2022-07-17T05:26:22Z</time>
      </trkpt>
      <trkpt lat="45.74226" lon="6.49338">
        <ele>1918</ele>
        <time>2022-07-17T05:26:24Z</time>
      </trkpt>
      <trkpt lat="45.74224" lon="6.49334">
        <ele>1917</ele>
        <time>2022-07-17T05:26:26Z</time>
      </trkpt>
      <trkpt lat="45.74223" lon="6.4933">
        <ele>1917</ele>
        <time>2022-07-17T05:26:28Z</time>
      </trkpt>
      <trkpt lat="45.74222" lon="6.49325">
        <ele>1917</ele>
        <time>2022-07-17T05:26:30Z</time>
      </trkpt>
      <trkpt lat="45.74221" lon="6.49323">
        <ele>1916</ele>
        <time>2022-07-17T05:26:31Z</time>
      </trkpt>
      <trkpt lat="45.7422" lon="6.49318">
        <ele>1916</ele>
        <time>2022-07-17T05:26:33Z</time>
      </trkpt>
      <trkpt lat="45.74218" lon="6.49314">
        <ele>1916</ele>
        <time>2022-07-17T05:26:35Z</time>
      </trkpt>
      <trkpt lat="45.74216" lon="6.49312">
        <ele>1916</ele>
        <time>2022-07-17T05:26:36Z</time>
      </trkpt>
      <trkpt lat="45.74215" lon="6.4931">
        <ele>1916</ele>
        <time>2022-07-17T05:26:37Z</time>
      </trkpt>
      <trkpt lat="45.74213" lon="6.49307">
        <ele>1916</ele>
        <time>2022-07-17T05:26:39Z</time>
      </trkpt>
      <trkpt lat="45.74212" lon="6.49305">
        <ele>1915</ele>
        <time>2022-07-17T05:26:40Z</time>
      </trkpt>
      <trkpt lat="45.74211" lon="6.49303">
        <ele>1915</ele>
        <time>2022-07-17T05:26:41Z</time>
      </trkpt>
      <trkpt lat="45.74209" lon="6.49301">
        <ele>1915</ele>
        <time>2022-07-17T05:26:42Z</time>
      </trkpt>
      <trkpt lat="45.74208" lon="6.49299">
        <ele>1915</ele>
        <time>2022-07-17T05:26:43Z</time>
      </trkpt>
      <trkpt lat="45.74207" lon="6.49296">
        <ele>1914</ele>
        <time>2022-07-17T05:26:44Z</time>
      </trkpt>
      <trkpt lat="45.74207" lon="6.49294">
        <ele>1914</ele>
        <time>2022-07-17T05:26:45Z</time>
      </trkpt>
      <trkpt lat="45.74206" lon="6.49292">
        <ele>1914</ele>
        <time>2022-07-17T05:26:46Z</time>
      </trkpt>
      <trkpt lat="45.74204" lon="6.4929">
        <ele>1914</ele>
        <time>2022-07-17T05:26:47Z</time>
      </trkpt>
      <trkpt lat="45.74203" lon="6.49288">
        <ele>1913</ele>
        <time>2022-07-17T05:26:48Z</time>
      </trkpt>
      <trkpt lat="45.74201" lon="6.49284">
        <ele>1913</ele>
        <time>2022-07-17T05:26:50Z</time>
      </trkpt>
      <trkpt lat="45.742" lon="6.49281">
        <ele>1912</ele>
        <time>2022-07-17T05:26:51Z</time>
      </trkpt>
      <trkpt lat="45.74198" lon="6.49277">
        <ele>1912</ele>
        <time>2022-07-17T05:26:53Z</time>
      </trkpt>
      <trkpt lat="45.74197" lon="6.49273">
        <ele>1912</ele>
        <time>2022-07-17T05:26:55Z</time>
      </trkpt>
      <trkpt lat="45.74197" lon="6.49268">
        <ele>1912</ele>
        <time>2022-07-17T05:26:57Z</time>
      </trkpt>
      <trkpt lat="45.74197" lon="6.49263">
        <ele>1911</ele>
        <time>2022-07-17T05:26:59Z</time>
      </trkpt>
      <trkpt lat="45.74195" lon="6.49259">
        <ele>1911</ele>
        <time>2022-07-17T05:27:01Z</time>
      </trkpt>
      <trkpt lat="45.74193" lon="6.49255">
        <ele>1911</ele>
        <time>2022-07-17T05:27:03Z</time>
      </trkpt>
      <trkpt lat="45.74192" lon="6.49251">
        <ele>1910</ele>
        <time>2022-07-17T05:27:05Z</time>
      </trkpt>
      <trkpt lat="45.74189" lon="6.49248">
        <ele>1910</ele>
        <time>2022-07-17T05:27:07Z</time>
      </trkpt>
      <trkpt lat="45.74187" lon="6.49246">
        <ele>1910</ele>
        <time>2022-07-17T05:27:09Z</time>
      </trkpt>
      <trkpt lat="45.74184" lon="6.49244">
        <ele>1910</ele>
        <time>2022-07-17T05:27:11Z</time>
      </trkpt>
      <trkpt lat="45.74182" lon="6.49242">
        <ele>1910</ele>
        <time>2022-07-17T05:27:13Z</time>
      </trkpt>
      <trkpt lat="45.74179" lon="6.49243">
        <ele>1909</ele>
        <time>2022-07-17T05:27:15Z</time>
      </trkpt>
      <trkpt lat="45.74176" lon="6.49243">
        <ele>1909</ele>
        <time>2022-07-17T05:27:17Z</time>
      </trkpt>
      <trkpt lat="45.74173" lon="6.49243">
        <ele>1909</ele>
        <time>2022-07-17T05:27:19Z</time>
      </trkpt>
      <trkpt lat="45.7417" lon="6.49245">
        <ele>1908</ele>
        <time>2022-07-17T05:27:21Z</time>
      </trkpt>
      <trkpt lat="45.74169" lon="6.49248">
        <ele>1908</ele>
        <time>2022-07-17T05:27:23Z</time>
      </trkpt>
      <trkpt lat="45.74167" lon="6.4925">
        <ele>1907</ele>
        <time>2022-07-17T05:27:25Z</time>
      </trkpt>
      <trkpt lat="45.74165" lon="6.49251">
        <ele>1907</ele>
        <time>2022-07-17T05:27:29Z</time>
      </trkpt>
      <trkpt lat="45.74163" lon="6.49253">
        <ele>1907</ele>
        <time>2022-07-17T05:27:31Z</time>
      </trkpt>
      <trkpt lat="45.74159" lon="6.49255">
        <ele>1907</ele>
        <time>2022-07-17T05:27:33Z</time>
      </trkpt>
      <trkpt lat="45.74157" lon="6.49255">
        <ele>1907</ele>
        <time>2022-07-17T05:27:34Z</time>
      </trkpt>
      <trkpt lat="45.74155" lon="6.49255">
        <ele>1907</ele>
        <time>2022-07-17T05:27:35Z</time>
      </trkpt>
      <trkpt lat="45.74151" lon="6.49255">
        <ele>1907</ele>
        <time>2022-07-17T05:27:37Z</time>
      </trkpt>
      <trkpt lat="45.74149" lon="6.49255">
        <ele>1907</ele>
        <time>2022-07-17T05:27:38Z</time>
      </trkpt>
      <trkpt lat="45.74147" lon="6.49254">
        <ele>1907</ele>
        <time>2022-07-17T05:27:39Z</time>
      </trkpt>
      <trkpt lat="45.74144" lon="6.49254">
        <ele>1907</ele>
        <time>2022-07-17T05:27:41Z</time>
      </trkpt>
      <trkpt lat="45.74141" lon="6.49253">
        <ele>1907</ele>
        <time>2022-07-17T05:27:43Z</time>
      </trkpt>
      <trkpt lat="45.74138" lon="6.49252">
        <ele>1906</ele>
        <time>2022-07-17T05:27:45Z</time>
      </trkpt>
      <trkpt lat="45.74135" lon="6.49251">
        <ele>1906</ele>
        <time>2022-07-17T05:27:47Z</time>
      </trkpt>
      <trkpt lat="45.74134" lon="6.49249">
        <ele>1906</ele>
        <time>2022-07-17T05:27:48Z</time>
      </trkpt>
      <trkpt lat="45.74132" lon="6.49247">
        <ele>1906</ele>
        <time>2022-07-17T05:27:49Z</time>
      </trkpt>
      <trkpt lat="45.74131" lon="6.49245">
        <ele>1906</ele>
        <time>2022-07-17T05:27:50Z</time>
      </trkpt>
      <trkpt lat="45.7413" lon="6.4924">
        <ele>1905</ele>
        <time>2022-07-17T05:27:52Z</time>
      </trkpt>
      <trkpt lat="45.74129" lon="6.49233">
        <ele>1904</ele>
        <time>2022-07-17T05:27:55Z</time>
      </trkpt>
      <trkpt lat="45.74129" lon="6.49228">
        <ele>1903</ele>
        <time>2022-07-17T05:27:57Z</time>
      </trkpt>
      <trkpt lat="45.74128" lon="6.49224">
        <ele>1903</ele>
        <time>2022-07-17T05:27:59Z</time>
      </trkpt>
      <trkpt lat="45.74128" lon="6.49221">
        <ele>1903</ele>
        <time>2022-07-17T05:28:00Z</time>
      </trkpt>
      <trkpt lat="45.74128" lon="6.49217">
        <ele>1903</ele>
        <time>2022-07-17T05:28:02Z</time>
      </trkpt>
      <trkpt lat="45.74129" lon="6.49214">
        <ele>1903</ele>
        <time>2022-07-17T05:28:03Z</time>
      </trkpt>
      <trkpt lat="45.74129" lon="6.49212">
        <ele>1903</ele>
        <time>2022-07-17T05:28:04Z</time>
      </trkpt>
      <trkpt lat="45.74129" lon="6.49207">
        <ele>1902</ele>
        <time>2022-07-17T05:28:06Z</time>
      </trkpt>
      <trkpt lat="45.74129" lon="6.49204">
        <ele>1902</ele>
        <time>2022-07-17T05:28:07Z</time>
      </trkpt>
      <trkpt lat="45.74129" lon="6.49201">
        <ele>1902</ele>
        <time>2022-07-17T05:28:08Z</time>
      </trkpt>
      <trkpt lat="45.74129" lon="6.49199">
        <ele>1901</ele>
        <time>2022-07-17T05:28:09Z</time>
      </trkpt>
      <trkpt lat="45.74129" lon="6.49196">
        <ele>1901</ele>
        <time>2022-07-17T05:28:10Z</time>
      </trkpt>
      <trkpt lat="45.7413" lon="6.49191">
        <ele>1901</ele>
        <time>2022-07-17T05:28:12Z</time>
      </trkpt>
      <trkpt lat="45.74131" lon="6.49186">
        <ele>1901</ele>
        <time>2022-07-17T05:28:14Z</time>
      </trkpt>
      <trkpt lat="45.74131" lon="6.4918">
        <ele>1899</ele>
        <time>2022-07-17T05:28:16Z</time>
      </trkpt>
      <trkpt lat="45.74132" lon="6.49178">
        <ele>1899</ele>
        <time>2022-07-17T05:28:17Z</time>
      </trkpt>
      <trkpt lat="45.74132" lon="6.49175">
        <ele>1899</ele>
        <time>2022-07-17T05:28:18Z</time>
      </trkpt>
      <trkpt lat="45.74132" lon="6.4917">
        <ele>1898</ele>
        <time>2022-07-17T05:28:20Z</time>
      </trkpt>
      <trkpt lat="45.74131" lon="6.49166">
        <ele>1898</ele>
        <time>2022-07-17T05:28:22Z</time>
      </trkpt>
      <trkpt lat="45.7413" lon="6.49164">
        <ele>1898</ele>
        <time>2022-07-17T05:28:23Z</time>
      </trkpt>
      <trkpt lat="45.74129" lon="6.49161">
        <ele>1898</ele>
        <time>2022-07-17T05:28:24Z</time>
      </trkpt>
      <trkpt lat="45.74127" lon="6.49158">
        <ele>1897</ele>
        <time>2022-07-17T05:28:26Z</time>
      </trkpt>
      <trkpt lat="45.74124" lon="6.49156">
        <ele>1896</ele>
        <time>2022-07-17T05:28:28Z</time>
      </trkpt>
      <trkpt lat="45.74121" lon="6.49154">
        <ele>1896</ele>
        <time>2022-07-17T05:28:30Z</time>
      </trkpt>
      <trkpt lat="45.74118" lon="6.49154">
        <ele>1896</ele>
        <time>2022-07-17T05:28:32Z</time>
      </trkpt>
      <trkpt lat="45.74115" lon="6.49155">
        <ele>1896</ele>
        <time>2022-07-17T05:28:34Z</time>
      </trkpt>
      <trkpt lat="45.74113" lon="6.49155">
        <ele>1895</ele>
        <time>2022-07-17T05:28:36Z</time>
      </trkpt>
      <trkpt lat="45.7411" lon="6.49154">
        <ele>1895</ele>
        <time>2022-07-17T05:28:38Z</time>
      </trkpt>
      <trkpt lat="45.74108" lon="6.49152">
        <ele>1895</ele>
        <time>2022-07-17T05:28:40Z</time>
      </trkpt>
      <trkpt lat="45.74105" lon="6.49149">
        <ele>1895</ele>
        <time>2022-07-17T05:28:42Z</time>
      </trkpt>
      <trkpt lat="45.74103" lon="6.49147">
        <ele>1895</ele>
        <time>2022-07-17T05:28:44Z</time>
      </trkpt>
      <trkpt lat="45.741" lon="6.49145">
        <ele>1895</ele>
        <time>2022-07-17T05:28:46Z</time>
      </trkpt>
      <trkpt lat="45.74098" lon="6.49142">
        <ele>1895</ele>
        <time>2022-07-17T05:28:48Z</time>
      </trkpt>
      <trkpt lat="45.74096" lon="6.49139">
        <ele>1895</ele>
        <time>2022-07-17T05:28:50Z</time>
      </trkpt>
      <trkpt lat="45.74094" lon="6.49137">
        <ele>1895</ele>
        <time>2022-07-17T05:28:52Z</time>
      </trkpt>
      <trkpt lat="45.74092" lon="6.49134">
        <ele>1895</ele>
        <time>2022-07-17T05:28:54Z</time>
      </trkpt>
      <trkpt lat="45.7409" lon="6.49131">
        <ele>1895</ele>
        <time>2022-07-17T05:28:56Z</time>
      </trkpt>
      <trkpt lat="45.74089" lon="6.49128">
        <ele>1895</ele>
        <time>2022-07-17T05:28:58Z</time>
      </trkpt>
      <trkpt lat="45.74087" lon="6.49124">
        <ele>1895</ele>
        <time>2022-07-17T05:29:00Z</time>
      </trkpt>
      <trkpt lat="45.74086" lon="6.49121">
        <ele>1895</ele>
        <time>2022-07-17T05:29:02Z</time>
      </trkpt>
      <trkpt lat="45.74084" lon="6.49118">
        <ele>1895</ele>
        <time>2022-07-17T05:29:04Z</time>
      </trkpt>
      <trkpt lat="45.74081" lon="6.49115">
        <ele>1895</ele>
        <time>2022-07-17T05:29:06Z</time>
      </trkpt>
      <trkpt lat="45.74079" lon="6.49112">
        <ele>1895</ele>
        <time>2022-07-17T05:29:08Z</time>
      </trkpt>
      <trkpt lat="45.74076" lon="6.49109">
        <ele>1895</ele>
        <time>2022-07-17T05:29:11Z</time>
      </trkpt>
      <trkpt lat="45.74073" lon="6.49107">
        <ele>1895</ele>
        <time>2022-07-17T05:29:13Z</time>
      </trkpt>
      <trkpt lat="45.74071" lon="6.49106">
        <ele>1895</ele>
        <time>2022-07-17T05:29:15Z</time>
      </trkpt>
      <trkpt lat="45.74069" lon="6.49105">
        <ele>1896</ele>
        <time>2022-07-17T05:29:17Z</time>
      </trkpt>
      <trkpt lat="45.74066" lon="6.49104">
        <ele>1896</ele>
        <time>2022-07-17T05:29:19Z</time>
      </trkpt>
      <trkpt lat="45.74064" lon="6.49101">
        <ele>1896</ele>
        <time>2022-07-17T05:29:21Z</time>
      </trkpt>
      <trkpt lat="45.74062" lon="6.49098">
        <ele>1896</ele>
        <time>2022-07-17T05:29:23Z</time>
      </trkpt>
      <trkpt lat="45.7406" lon="6.49095">
        <ele>1896</ele>
        <time>2022-07-17T05:29:25Z</time>
      </trkpt>
      <trkpt lat="45.74058" lon="6.49092">
        <ele>1896</ele>
        <time>2022-07-17T05:29:27Z</time>
      </trkpt>
      <trkpt lat="45.74056" lon="6.49089">
        <ele>1896</ele>
        <time>2022-07-17T05:29:29Z</time>
      </trkpt>
      <trkpt lat="45.74053" lon="6.49087">
        <ele>1895</ele>
        <time>2022-07-17T05:29:31Z</time>
      </trkpt>
      <trkpt lat="45.74051" lon="6.49085">
        <ele>1895</ele>
        <time>2022-07-17T05:29:33Z</time>
      </trkpt>
      <trkpt lat="45.74049" lon="6.49083">
        <ele>1895</ele>
        <time>2022-07-17T05:29:35Z</time>
      </trkpt>
      <trkpt lat="45.74048" lon="6.49081">
        <ele>1895</ele>
        <time>2022-07-17T05:29:37Z</time>
      </trkpt>
      <trkpt lat="45.74047" lon="6.49078">
        <ele>1895</ele>
        <time>2022-07-17T05:29:39Z</time>
      </trkpt>
      <trkpt lat="45.74046" lon="6.49074">
        <ele>1895</ele>
        <time>2022-07-17T05:29:41Z</time>
      </trkpt>
      <trkpt lat="45.74045" lon="6.49071">
        <ele>1895</ele>
        <time>2022-07-17T05:29:43Z</time>
      </trkpt>
      <trkpt lat="45.74045" lon="6.49067">
        <ele>1895</ele>
        <time>2022-07-17T05:29:45Z</time>
      </trkpt>
      <trkpt lat="45.74043" lon="6.49063">
        <ele>1895</ele>
        <time>2022-07-17T05:29:47Z</time>
      </trkpt>
      <trkpt lat="45.74043" lon="6.49061">
        <ele>1895</ele>
        <time>2022-07-17T05:29:49Z</time>
      </trkpt>
      <trkpt lat="45.74041" lon="6.49057">
        <ele>1895</ele>
        <time>2022-07-17T05:29:50Z</time>
      </trkpt>
      <trkpt lat="45.74041" lon="6.49053">
        <ele>1895</ele>
        <time>2022-07-17T05:29:52Z</time>
      </trkpt>
      <trkpt lat="45.7404" lon="6.4905">
        <ele>1896</ele>
        <time>2022-07-17T05:29:54Z</time>
      </trkpt>
      <trkpt lat="45.74039" lon="6.49047">
        <ele>1897</ele>
        <time>2022-07-17T05:29:56Z</time>
      </trkpt>
      <trkpt lat="45.74038" lon="6.49043">
        <ele>1897</ele>
        <time>2022-07-17T05:29:58Z</time>
      </trkpt>
      <trkpt lat="45.74038" lon="6.49039">
        <ele>1897</ele>
        <time>2022-07-17T05:30:01Z</time>
      </trkpt>
      <trkpt lat="45.74037" lon="6.49037">
        <ele>1897</ele>
        <time>2022-07-17T05:30:02Z</time>
      </trkpt>
      <trkpt lat="45.74036" lon="6.49034">
        <ele>1897</ele>
        <time>2022-07-17T05:30:04Z</time>
      </trkpt>
      <trkpt lat="45.74035" lon="6.49032">
        <ele>1897</ele>
        <time>2022-07-17T05:30:06Z</time>
      </trkpt>
      <trkpt lat="45.74033" lon="6.4903">
        <ele>1898</ele>
        <time>2022-07-17T05:30:08Z</time>
      </trkpt>
      <trkpt lat="45.74031" lon="6.49028">
        <ele>1898</ele>
        <time>2022-07-17T05:30:10Z</time>
      </trkpt>
      <trkpt lat="45.74029" lon="6.49026">
        <ele>1898</ele>
        <time>2022-07-17T05:30:12Z</time>
      </trkpt>
      <trkpt lat="45.74026" lon="6.49024">
        <ele>1899</ele>
        <time>2022-07-17T05:30:14Z</time>
      </trkpt>
      <trkpt lat="45.74024" lon="6.49022">
        <ele>1899</ele>
        <time>2022-07-17T05:30:16Z</time>
      </trkpt>
      <trkpt lat="45.74022" lon="6.49021">
        <ele>1899</ele>
        <time>2022-07-17T05:30:18Z</time>
      </trkpt>
      <trkpt lat="45.74019" lon="6.4902">
        <ele>1899</ele>
        <time>2022-07-17T05:30:19Z</time>
      </trkpt>
      <trkpt lat="45.74015" lon="6.49018">
        <ele>1899</ele>
        <time>2022-07-17T05:30:21Z</time>
      </trkpt>
      <trkpt lat="45.74014" lon="6.49016">
        <ele>1899</ele>
        <time>2022-07-17T05:30:22Z</time>
      </trkpt>
      <trkpt lat="45.74013" lon="6.49015">
        <ele>1899</ele>
        <time>2022-07-17T05:30:23Z</time>
      </trkpt>
      <trkpt lat="45.74011" lon="6.49012">
        <ele>1899</ele>
        <time>2022-07-17T05:30:24Z</time>
      </trkpt>
      <trkpt lat="45.74008" lon="6.49007">
        <ele>1898</ele>
        <time>2022-07-17T05:30:27Z</time>
      </trkpt>
      <trkpt lat="45.74006" lon="6.49004">
        <ele>1898</ele>
        <time>2022-07-17T05:30:29Z</time>
      </trkpt>
      <trkpt lat="45.74003" lon="6.49001">
        <ele>1897</ele>
        <time>2022-07-17T05:30:31Z</time>
      </trkpt>
      <trkpt lat="45.74001" lon="6.48998">
        <ele>1897</ele>
        <time>2022-07-17T05:30:33Z</time>
      </trkpt>
      <trkpt lat="45.74" lon="6.48996">
        <ele>1897</ele>
        <time>2022-07-17T05:30:34Z</time>
      </trkpt>
      <trkpt lat="45.73998" lon="6.48994">
        <ele>1897</ele>
        <time>2022-07-17T05:30:35Z</time>
      </trkpt>
      <trkpt lat="45.73997" lon="6.48992">
        <ele>1897</ele>
        <time>2022-07-17T05:30:36Z</time>
      </trkpt>
      <trkpt lat="45.73995" lon="6.48989">
        <ele>1897</ele>
        <time>2022-07-17T05:30:37Z</time>
      </trkpt>
      <trkpt lat="45.73994" lon="6.48987">
        <ele>1896</ele>
        <time>2022-07-17T05:30:38Z</time>
      </trkpt>
      <trkpt lat="45.73993" lon="6.48985">
        <ele>1896</ele>
        <time>2022-07-17T05:30:39Z</time>
      </trkpt>
      <trkpt lat="45.73991" lon="6.48982">
        <ele>1896</ele>
        <time>2022-07-17T05:30:40Z</time>
      </trkpt>
      <trkpt lat="45.7399" lon="6.4898">
        <ele>1896</ele>
        <time>2022-07-17T05:30:41Z</time>
      </trkpt>
      <trkpt lat="45.73989" lon="6.48977">
        <ele>1896</ele>
        <time>2022-07-17T05:30:42Z</time>
      </trkpt>
      <trkpt lat="45.73989" lon="6.48975">
        <ele>1896</ele>
        <time>2022-07-17T05:30:43Z</time>
      </trkpt>
      <trkpt lat="45.73988" lon="6.48973">
        <ele>1896</ele>
        <time>2022-07-17T05:30:44Z</time>
      </trkpt>
      <trkpt lat="45.73986" lon="6.48969">
        <ele>1896</ele>
        <time>2022-07-17T05:30:47Z</time>
      </trkpt>
      <trkpt lat="45.73985" lon="6.48966">
        <ele>1896</ele>
        <time>2022-07-17T05:30:48Z</time>
      </trkpt>
      <trkpt lat="45.73984" lon="6.48962">
        <ele>1896</ele>
        <time>2022-07-17T05:30:50Z</time>
      </trkpt>
      <trkpt lat="45.73983" lon="6.48959">
        <ele>1896</ele>
        <time>2022-07-17T05:30:52Z</time>
      </trkpt>
      <trkpt lat="45.73981" lon="6.48957">
        <ele>1896</ele>
        <time>2022-07-17T05:30:54Z</time>
      </trkpt>
      <trkpt lat="45.73979" lon="6.48955">
        <ele>1897</ele>
        <time>2022-07-17T05:30:56Z</time>
      </trkpt>
      <trkpt lat="45.73977" lon="6.48953">
        <ele>1897</ele>
        <time>2022-07-17T05:30:58Z</time>
      </trkpt>
      <trkpt lat="45.73975" lon="6.4895">
        <ele>1897</ele>
        <time>2022-07-17T05:31:00Z</time>
      </trkpt>
      <trkpt lat="45.73973" lon="6.48947">
        <ele>1897</ele>
        <time>2022-07-17T05:31:02Z</time>
      </trkpt>
      <trkpt lat="45.73972" lon="6.48944">
        <ele>1897</ele>
        <time>2022-07-17T05:31:04Z</time>
      </trkpt>
      <trkpt lat="45.73971" lon="6.4894">
        <ele>1897</ele>
        <time>2022-07-17T05:31:06Z</time>
      </trkpt>
      <trkpt lat="45.7397" lon="6.48936">
        <ele>1897</ele>
        <time>2022-07-17T05:31:08Z</time>
      </trkpt>
      <trkpt lat="45.73969" lon="6.48932">
        <ele>1897</ele>
        <time>2022-07-17T05:31:10Z</time>
      </trkpt>
      <trkpt lat="45.73968" lon="6.48928">
        <ele>1897</ele>
        <time>2022-07-17T05:31:12Z</time>
      </trkpt>
      <trkpt lat="45.73967" lon="6.48924">
        <ele>1897</ele>
        <time>2022-07-17T05:31:14Z</time>
      </trkpt>
      <trkpt lat="45.73967" lon="6.4892">
        <ele>1897</ele>
        <time>2022-07-17T05:31:16Z</time>
      </trkpt>
      <trkpt lat="45.73966" lon="6.48916">
        <ele>1897</ele>
        <time>2022-07-17T05:31:18Z</time>
      </trkpt>
      <trkpt lat="45.73966" lon="6.48913">
        <ele>1897</ele>
        <time>2022-07-17T05:31:19Z</time>
      </trkpt>
      <trkpt lat="45.73965" lon="6.48908">
        <ele>1897</ele>
        <time>2022-07-17T05:31:21Z</time>
      </trkpt>
      <trkpt lat="45.73965" lon="6.48905">
        <ele>1897</ele>
        <time>2022-07-17T05:31:22Z</time>
      </trkpt>
      <trkpt lat="45.73965" lon="6.489">
        <ele>1897</ele>
        <time>2022-07-17T05:31:24Z</time>
      </trkpt>
      <trkpt lat="45.73965" lon="6.48897">
        <ele>1897</ele>
        <time>2022-07-17T05:31:25Z</time>
      </trkpt>
      <trkpt lat="45.73965" lon="6.48894">
        <ele>1897</ele>
        <time>2022-07-17T05:31:26Z</time>
      </trkpt>
      <trkpt lat="45.73966" lon="6.48887">
        <ele>1897</ele>
        <time>2022-07-17T05:31:28Z</time>
      </trkpt>
      <trkpt lat="45.73966" lon="6.48886">
        <ele>1896</ele>
        <time>2022-07-17T05:31:29Z</time>
      </trkpt>
      <trkpt lat="45.73966" lon="6.48883">
        <ele>1896</ele>
        <time>2022-07-17T05:31:30Z</time>
      </trkpt>
      <trkpt lat="45.73966" lon="6.48878">
        <ele>1896</ele>
        <time>2022-07-17T05:31:32Z</time>
      </trkpt>
      <trkpt lat="45.73965" lon="6.48874">
        <ele>1896</ele>
        <time>2022-07-17T05:31:34Z</time>
      </trkpt>
      <trkpt lat="45.73964" lon="6.48869">
        <ele>1896</ele>
        <time>2022-07-17T05:31:36Z</time>
      </trkpt>
      <trkpt lat="45.73964" lon="6.48866">
        <ele>1895</ele>
        <time>2022-07-17T05:31:38Z</time>
      </trkpt>
      <trkpt lat="45.73963" lon="6.48863">
        <ele>1895</ele>
        <time>2022-07-17T05:31:40Z</time>
      </trkpt>
      <trkpt lat="45.73961" lon="6.4886">
        <ele>1895</ele>
        <time>2022-07-17T05:31:43Z</time>
      </trkpt>
      <trkpt lat="45.73959" lon="6.48857">
        <ele>1893</ele>
        <time>2022-07-17T05:31:44Z</time>
      </trkpt>
      <trkpt lat="45.73958" lon="6.48854">
        <ele>1892</ele>
        <time>2022-07-17T05:31:46Z</time>
      </trkpt>
      <trkpt lat="45.73955" lon="6.4885">
        <ele>1893</ele>
        <time>2022-07-17T05:31:48Z</time>
      </trkpt>
      <trkpt lat="45.73953" lon="6.48848">
        <ele>1893</ele>
        <time>2022-07-17T05:31:50Z</time>
      </trkpt>
      <trkpt lat="45.7395" lon="6.48845">
        <ele>1893</ele>
        <time>2022-07-17T05:31:52Z</time>
      </trkpt>
      <trkpt lat="45.73947" lon="6.48845">
        <ele>1892</ele>
        <time>2022-07-17T05:31:54Z</time>
      </trkpt>
      <trkpt lat="45.73945" lon="6.48845">
        <ele>1892</ele>
        <time>2022-07-17T05:31:55Z</time>
      </trkpt>
      <trkpt lat="45.73943" lon="6.48844">
        <ele>1891</ele>
        <time>2022-07-17T05:31:56Z</time>
      </trkpt>
      <trkpt lat="45.7394" lon="6.48842">
        <ele>1891</ele>
        <time>2022-07-17T05:31:58Z</time>
      </trkpt>
      <trkpt lat="45.73937" lon="6.4884">
        <ele>1891</ele>
        <time>2022-07-17T05:32:00Z</time>
      </trkpt>
      <trkpt lat="45.73936" lon="6.48839">
        <ele>1890</ele>
        <time>2022-07-17T05:32:02Z</time>
      </trkpt>
      <trkpt lat="45.73932" lon="6.48838">
        <ele>1890</ele>
        <time>2022-07-17T05:32:03Z</time>
      </trkpt>
      <trkpt lat="45.73929" lon="6.48837">
        <ele>1889</ele>
        <time>2022-07-17T05:32:05Z</time>
      </trkpt>
      <trkpt lat="45.73926" lon="6.48837">
        <ele>1889</ele>
        <time>2022-07-17T05:32:06Z</time>
      </trkpt>
      <trkpt lat="45.73924" lon="6.48836">
        <ele>1889</ele>
        <time>2022-07-17T05:32:07Z</time>
      </trkpt>
      <trkpt lat="45.73922" lon="6.48836">
        <ele>1889</ele>
        <time>2022-07-17T05:32:08Z</time>
      </trkpt>
      <trkpt lat="45.73919" lon="6.48835">
        <ele>1888</ele>
        <time>2022-07-17T05:32:10Z</time>
      </trkpt>
      <trkpt lat="45.73916" lon="6.48834">
        <ele>1888</ele>
        <time>2022-07-17T05:32:12Z</time>
      </trkpt>
      <trkpt lat="45.73913" lon="6.48833">
        <ele>1888</ele>
        <time>2022-07-17T05:32:14Z</time>
      </trkpt>
      <trkpt lat="45.73909" lon="6.48833">
        <ele>1887</ele>
        <time>2022-07-17T05:32:16Z</time>
      </trkpt>
      <trkpt lat="45.73907" lon="6.48832">
        <ele>1887</ele>
        <time>2022-07-17T05:32:17Z</time>
      </trkpt>
      <trkpt lat="45.73905" lon="6.48832">
        <ele>1887</ele>
        <time>2022-07-17T05:32:18Z</time>
      </trkpt>
      <trkpt lat="45.73903" lon="6.48831">
        <ele>1887</ele>
        <time>2022-07-17T05:32:19Z</time>
      </trkpt>
      <trkpt lat="45.73901" lon="6.4883">
        <ele>1887</ele>
        <time>2022-07-17T05:32:21Z</time>
      </trkpt>
      <trkpt lat="45.73897" lon="6.48829">
        <ele>1886</ele>
        <time>2022-07-17T05:32:22Z</time>
      </trkpt>
      <trkpt lat="45.73894" lon="6.48827">
        <ele>1886</ele>
        <time>2022-07-17T05:32:24Z</time>
      </trkpt>
      <trkpt lat="45.7389" lon="6.48824">
        <ele>1886</ele>
        <time>2022-07-17T05:32:26Z</time>
      </trkpt>
      <trkpt lat="45.73889" lon="6.48824">
        <ele>1886</ele>
        <time>2022-07-17T05:32:27Z</time>
      </trkpt>
      <trkpt lat="45.73886" lon="6.48823">
        <ele>1886</ele>
        <time>2022-07-17T05:32:29Z</time>
      </trkpt>
      <trkpt lat="45.73883" lon="6.48821">
        <ele>1885</ele>
        <time>2022-07-17T05:32:31Z</time>
      </trkpt>
      <trkpt lat="45.73881" lon="6.48819">
        <ele>1885</ele>
        <time>2022-07-17T05:32:33Z</time>
      </trkpt>
      <trkpt lat="45.73878" lon="6.48817">
        <ele>1884</ele>
        <time>2022-07-17T05:32:35Z</time>
      </trkpt>
      <trkpt lat="45.73875" lon="6.48815">
        <ele>1884</ele>
        <time>2022-07-17T05:32:37Z</time>
      </trkpt>
      <trkpt lat="45.73869" lon="6.48812">
        <ele>1884</ele>
        <time>2022-07-17T05:32:40Z</time>
      </trkpt>
      <trkpt lat="45.73867" lon="6.48811">
        <ele>1884</ele>
        <time>2022-07-17T05:32:41Z</time>
      </trkpt>
      <trkpt lat="45.73864" lon="6.48809">
        <ele>1884</ele>
        <time>2022-07-17T05:32:43Z</time>
      </trkpt>
      <trkpt lat="45.73862" lon="6.48809">
        <ele>1884</ele>
        <time>2022-07-17T05:32:45Z</time>
      </trkpt>
      <trkpt lat="45.73858" lon="6.48809">
        <ele>1884</ele>
        <time>2022-07-17T05:32:47Z</time>
      </trkpt>
      <trkpt lat="45.73856" lon="6.48809">
        <ele>1883</ele>
        <time>2022-07-17T05:32:49Z</time>
      </trkpt>
      <trkpt lat="45.73853" lon="6.48808">
        <ele>1883</ele>
        <time>2022-07-17T05:32:51Z</time>
      </trkpt>
      <trkpt lat="45.73851" lon="6.48809">
        <ele>1884</ele>
        <time>2022-07-17T05:32:54Z</time>
      </trkpt>
      <trkpt lat="45.73849" lon="6.48811">
        <ele>1884</ele>
        <time>2022-07-17T05:32:57Z</time>
      </trkpt>
      <trkpt lat="45.73848" lon="6.48815">
        <ele>1884</ele>
        <time>2022-07-17T05:32:59Z</time>
      </trkpt>
      <trkpt lat="45.73846" lon="6.48818">
        <ele>1883</ele>
        <time>2022-07-17T05:33:01Z</time>
      </trkpt>
      <trkpt lat="45.73843" lon="6.48819">
        <ele>1883</ele>
        <time>2022-07-17T05:33:03Z</time>
      </trkpt>
      <trkpt lat="45.73841" lon="6.48819">
        <ele>1883</ele>
        <time>2022-07-17T05:33:04Z</time>
      </trkpt>
      <trkpt lat="45.73838" lon="6.48819">
        <ele>1883</ele>
        <time>2022-07-17T05:33:06Z</time>
      </trkpt>
      <trkpt lat="45.73834" lon="6.48819">
        <ele>1883</ele>
        <time>2022-07-17T05:33:08Z</time>
      </trkpt>
      <trkpt lat="45.73832" lon="6.48818">
        <ele>1883</ele>
        <time>2022-07-17T05:33:10Z</time>
      </trkpt>
      <trkpt lat="45.73829" lon="6.48817">
        <ele>1883</ele>
        <time>2022-07-17T05:33:12Z</time>
      </trkpt>
      <trkpt lat="45.73826" lon="6.48816">
        <ele>1884</ele>
        <time>2022-07-17T05:33:14Z</time>
      </trkpt>
      <trkpt lat="45.73823" lon="6.48815">
        <ele>1885</ele>
        <time>2022-07-17T05:33:16Z</time>
      </trkpt>
      <trkpt lat="45.73821" lon="6.48815">
        <ele>1885</ele>
        <time>2022-07-17T05:33:18Z</time>
      </trkpt>
      <trkpt lat="45.73818" lon="6.48814">
        <ele>1884</ele>
        <time>2022-07-17T05:33:20Z</time>
      </trkpt>
      <trkpt lat="45.73816" lon="6.48813">
        <ele>1884</ele>
        <time>2022-07-17T05:33:22Z</time>
      </trkpt>
      <trkpt lat="45.73813" lon="6.48813">
        <ele>1884</ele>
        <time>2022-07-17T05:33:24Z</time>
      </trkpt>
      <trkpt lat="45.73811" lon="6.48812">
        <ele>1885</ele>
        <time>2022-07-17T05:33:26Z</time>
      </trkpt>
      <trkpt lat="45.7381" lon="6.48811">
        <ele>1885</ele>
        <time>2022-07-17T05:33:28Z</time>
      </trkpt>
      <trkpt lat="45.73808" lon="6.48809">
        <ele>1885</ele>
        <time>2022-07-17T05:33:30Z</time>
      </trkpt>
      <trkpt lat="45.73805" lon="6.48808">
        <ele>1885</ele>
        <time>2022-07-17T05:33:32Z</time>
      </trkpt>
      <trkpt lat="45.73804" lon="6.48809">
        <ele>1885</ele>
        <time>2022-07-17T05:33:34Z</time>
      </trkpt>
      <trkpt lat="45.73801" lon="6.48809">
        <ele>1885</ele>
        <time>2022-07-17T05:33:37Z</time>
      </trkpt>
      <trkpt lat="45.73799" lon="6.4881">
        <ele>1885</ele>
        <time>2022-07-17T05:33:39Z</time>
      </trkpt>
      <trkpt lat="45.73797" lon="6.48809">
        <ele>1885</ele>
        <time>2022-07-17T05:33:41Z</time>
      </trkpt>
      <trkpt lat="45.73794" lon="6.48809">
        <ele>1886</ele>
        <time>2022-07-17T05:33:43Z</time>
      </trkpt>
      <trkpt lat="45.73791" lon="6.48808">
        <ele>1886</ele>
        <time>2022-07-17T05:33:45Z</time>
      </trkpt>
      <trkpt lat="45.73789" lon="6.48808">
        <ele>1886</ele>
        <time>2022-07-17T05:33:47Z</time>
      </trkpt>
      <trkpt lat="45.73786" lon="6.48809">
        <ele>1886</ele>
        <time>2022-07-17T05:33:49Z</time>
      </trkpt>
      <trkpt lat="45.73784" lon="6.48809">
        <ele>1886</ele>
        <time>2022-07-17T05:33:51Z</time>
      </trkpt>
      <trkpt lat="45.73781" lon="6.48809">
        <ele>1886</ele>
        <time>2022-07-17T05:33:53Z</time>
      </trkpt>
      <trkpt lat="45.73779" lon="6.48809">
        <ele>1886</ele>
        <time>2022-07-17T05:33:56Z</time>
      </trkpt>
      <trkpt lat="45.73777" lon="6.48809">
        <ele>1886</ele>
        <time>2022-07-17T05:33:57Z</time>
      </trkpt>
      <trkpt lat="45.73775" lon="6.48809">
        <ele>1887</ele>
        <time>2022-07-17T05:33:59Z</time>
      </trkpt>
      <trkpt lat="45.73772" lon="6.4881">
        <ele>1887</ele>
        <time>2022-07-17T05:34:01Z</time>
      </trkpt>
      <trkpt lat="45.73769" lon="6.4881">
        <ele>1887</ele>
        <time>2022-07-17T05:34:03Z</time>
      </trkpt>
      <trkpt lat="45.73767" lon="6.4881">
        <ele>1887</ele>
        <time>2022-07-17T05:34:05Z</time>
      </trkpt>
      <trkpt lat="45.73765" lon="6.48809">
        <ele>1888</ele>
        <time>2022-07-17T05:34:07Z</time>
      </trkpt>
      <trkpt lat="45.73763" lon="6.48809">
        <ele>1889</ele>
        <time>2022-07-17T05:34:10Z</time>
      </trkpt>
      <trkpt lat="45.7376" lon="6.48808">
        <ele>1889</ele>
        <time>2022-07-17T05:34:13Z</time>
      </trkpt>
      <trkpt lat="45.73758" lon="6.48807">
        <ele>1889</ele>
        <time>2022-07-17T05:34:15Z</time>
      </trkpt>
      <trkpt lat="45.73756" lon="6.48806">
        <ele>1890</ele>
        <time>2022-07-17T05:34:17Z</time>
      </trkpt>
      <trkpt lat="45.73755" lon="6.48804">
        <ele>1890</ele>
        <time>2022-07-17T05:34:19Z</time>
      </trkpt>
      <trkpt lat="45.73753" lon="6.48803">
        <ele>1891</ele>
        <time>2022-07-17T05:34:21Z</time>
      </trkpt>
      <trkpt lat="45.73752" lon="6.48799">
        <ele>1892</ele>
        <time>2022-07-17T05:34:24Z</time>
      </trkpt>
      <trkpt lat="45.7375" lon="6.48798">
        <ele>1891</ele>
        <time>2022-07-17T05:34:26Z</time>
      </trkpt>
      <trkpt lat="45.73749" lon="6.48796">
        <ele>1891</ele>
        <time>2022-07-17T05:34:28Z</time>
      </trkpt>
      <trkpt lat="45.73746" lon="6.48795">
        <ele>1892</ele>
        <time>2022-07-17T05:34:31Z</time>
      </trkpt>
      <trkpt lat="45.73744" lon="6.48794">
        <ele>1892</ele>
        <time>2022-07-17T05:34:35Z</time>
      </trkpt>
      <trkpt lat="45.73742" lon="6.48792">
        <ele>1893</ele>
        <time>2022-07-17T05:34:37Z</time>
      </trkpt>
      <trkpt lat="45.73742" lon="6.48789">
        <ele>1894</ele>
        <time>2022-07-17T05:34:40Z</time>
      </trkpt>
      <trkpt lat="45.73742" lon="6.48786">
        <ele>1895</ele>
        <time>2022-07-17T05:34:43Z</time>
      </trkpt>
      <trkpt lat="45.73742" lon="6.48783">
        <ele>1895</ele>
        <time>2022-07-17T05:34:46Z</time>
      </trkpt>
      <trkpt lat="45.73742" lon="6.4878">
        <ele>1895</ele>
        <time>2022-07-17T05:34:49Z</time>
      </trkpt>
      <trkpt lat="45.73742" lon="6.48777">
        <ele>1896</ele>
        <time>2022-07-17T05:34:53Z</time>
      </trkpt>
      <trkpt lat="45.73742" lon="6.48774">
        <ele>1897</ele>
        <time>2022-07-17T05:34:58Z</time>
      </trkpt>
      <trkpt lat="45.73742" lon="6.48771">
        <ele>1897</ele>
        <time>2022-07-17T05:35:01Z</time>
      </trkpt>
      <trkpt lat="45.73742" lon="6.48768">
        <ele>1897</ele>
        <time>2022-07-17T05:35:03Z</time>
      </trkpt>
      <trkpt lat="45.73741" lon="6.48765">
        <ele>1898</ele>
        <time>2022-07-17T05:35:06Z</time>
      </trkpt>
      <trkpt lat="45.73741" lon="6.48762">
        <ele>1899</ele>
        <time>2022-07-17T05:35:09Z</time>
      </trkpt>
      <trkpt lat="45.73741" lon="6.48758">
        <ele>1899</ele>
        <time>2022-07-17T05:35:13Z</time>
      </trkpt>
      <trkpt lat="45.73742" lon="6.48755">
        <ele>1900</ele>
        <time>2022-07-17T05:35:15Z</time>
      </trkpt>
      <trkpt lat="45.73742" lon="6.48752">
        <ele>1901</ele>
        <time>2022-07-17T05:35:18Z</time>
      </trkpt>
      <trkpt lat="45.73742" lon="6.48748">
        <ele>1901</ele>
        <time>2022-07-17T05:35:21Z</time>
      </trkpt>
      <trkpt lat="45.73741" lon="6.48745">
        <ele>1901</ele>
        <time>2022-07-17T05:35:24Z</time>
      </trkpt>
      <trkpt lat="45.7374" lon="6.48743">
        <ele>1901</ele>
        <time>2022-07-17T05:35:27Z</time>
      </trkpt>
      <trkpt lat="45.73739" lon="6.4874">
        <ele>1903</ele>
        <time>2022-07-17T05:35:31Z</time>
      </trkpt>
      <trkpt lat="45.73739" lon="6.48737">
        <ele>1903</ele>
        <time>2022-07-17T05:35:33Z</time>
      </trkpt>
      <trkpt lat="45.73739" lon="6.48734">
        <ele>1903</ele>
        <time>2022-07-17T05:35:35Z</time>
      </trkpt>
      <trkpt lat="45.73738" lon="6.48731">
        <ele>1904</ele>
        <time>2022-07-17T05:35:39Z</time>
      </trkpt>
      <trkpt lat="45.73737" lon="6.4873">
        <ele>1905</ele>
        <time>2022-07-17T05:35:42Z</time>
      </trkpt>
      <trkpt lat="45.73734" lon="6.4873">
        <ele>1903</ele>
        <time>2022-07-17T05:35:46Z</time>
      </trkpt>
      <trkpt lat="45.73732" lon="6.48728">
        <ele>1903</ele>
        <time>2022-07-17T05:35:48Z</time>
      </trkpt>
      <trkpt lat="45.7373" lon="6.48727">
        <ele>1903</ele>
        <time>2022-07-17T05:35:50Z</time>
      </trkpt>
      <trkpt lat="45.73727" lon="6.48727">
        <ele>1902</ele>
        <time>2022-07-17T05:35:52Z</time>
      </trkpt>
      <trkpt lat="45.73726" lon="6.48727">
        <ele>1902</ele>
        <time>2022-07-17T05:35:54Z</time>
      </trkpt>
      <trkpt lat="45.73723" lon="6.48726">
        <ele>1903</ele>
        <time>2022-07-17T05:35:59Z</time>
      </trkpt>
      <trkpt lat="45.73721" lon="6.48725">
        <ele>1904</ele>
        <time>2022-07-17T05:36:01Z</time>
      </trkpt>
      <trkpt lat="45.73719" lon="6.48724">
        <ele>1905</ele>
        <time>2022-07-17T05:36:04Z</time>
      </trkpt>
      <trkpt lat="45.73716" lon="6.48725">
        <ele>1905</ele>
        <time>2022-07-17T05:36:07Z</time>
      </trkpt>
      <trkpt lat="45.73715" lon="6.48725">
        <ele>1905</ele>
        <time>2022-07-17T05:36:10Z</time>
      </trkpt>
      <trkpt lat="45.73712" lon="6.48725">
        <ele>1905</ele>
        <time>2022-07-17T05:36:12Z</time>
      </trkpt>
      <trkpt lat="45.7371" lon="6.48725">
        <ele>1905</ele>
        <time>2022-07-17T05:36:15Z</time>
      </trkpt>
      <trkpt lat="45.73708" lon="6.48725">
        <ele>1907</ele>
        <time>2022-07-17T05:36:18Z</time>
      </trkpt>
      <trkpt lat="45.73706" lon="6.48725">
        <ele>1907</ele>
        <time>2022-07-17T05:36:21Z</time>
      </trkpt>
      <trkpt lat="45.73704" lon="6.48726">
        <ele>1908</ele>
        <time>2022-07-17T05:36:24Z</time>
      </trkpt>
      <trkpt lat="45.73702" lon="6.48727">
        <ele>1908</ele>
        <time>2022-07-17T05:36:28Z</time>
      </trkpt>
      <trkpt lat="45.737" lon="6.48728">
        <ele>1909</ele>
        <time>2022-07-17T05:36:30Z</time>
      </trkpt>
      <trkpt lat="45.73698" lon="6.48729">
        <ele>1909</ele>
        <time>2022-07-17T05:36:33Z</time>
      </trkpt>
      <trkpt lat="45.73696" lon="6.48729">
        <ele>1910</ele>
        <time>2022-07-17T05:36:36Z</time>
      </trkpt>
      <trkpt lat="45.73694" lon="6.48728">
        <ele>1911</ele>
        <time>2022-07-17T05:36:39Z</time>
      </trkpt>
      <trkpt lat="45.73693" lon="6.48727">
        <ele>1912</ele>
        <time>2022-07-17T05:36:42Z</time>
      </trkpt>
      <trkpt lat="45.73691" lon="6.48726">
        <ele>1913</ele>
        <time>2022-07-17T05:36:47Z</time>
      </trkpt>
      <trkpt lat="45.73689" lon="6.48724">
        <ele>1911</ele>
        <time>2022-07-17T05:36:49Z</time>
      </trkpt>
      <trkpt lat="45.73686" lon="6.48723">
        <ele>1911</ele>
        <time>2022-07-17T05:36:52Z</time>
      </trkpt>
      <trkpt lat="45.73684" lon="6.48722">
        <ele>1911</ele>
        <time>2022-07-17T05:36:54Z</time>
      </trkpt>
      <trkpt lat="45.73683" lon="6.4872">
        <ele>1911</ele>
        <time>2022-07-17T05:36:56Z</time>
      </trkpt>
      <trkpt lat="45.73681" lon="6.48717">
        <ele>1911</ele>
        <time>2022-07-17T05:36:58Z</time>
      </trkpt>
      <trkpt lat="45.73679" lon="6.48716">
        <ele>1911</ele>
        <time>2022-07-17T05:37:00Z</time>
      </trkpt>
      <trkpt lat="45.73677" lon="6.48714">
        <ele>1910</ele>
        <time>2022-07-17T05:37:03Z</time>
      </trkpt>
      <trkpt lat="45.73676" lon="6.48713">
        <ele>1910</ele>
        <time>2022-07-17T05:37:06Z</time>
      </trkpt>
      <trkpt lat="45.73674" lon="6.4871">
        <ele>1908</ele>
        <time>2022-07-17T05:37:09Z</time>
      </trkpt>
      <trkpt lat="45.73673" lon="6.48707">
        <ele>1908</ele>
        <time>2022-07-17T05:37:11Z</time>
      </trkpt>
      <trkpt lat="45.7367" lon="6.48705">
        <ele>1907</ele>
        <time>2022-07-17T05:37:14Z</time>
      </trkpt>
      <trkpt lat="45.73668" lon="6.48704">
        <ele>1906</ele>
        <time>2022-07-17T05:37:16Z</time>
      </trkpt>
      <trkpt lat="45.73667" lon="6.48702">
        <ele>1905</ele>
        <time>2022-07-17T05:37:18Z</time>
      </trkpt>
      <trkpt lat="45.73666" lon="6.487">
        <ele>1905</ele>
        <time>2022-07-17T05:37:21Z</time>
      </trkpt>
      <trkpt lat="45.73664" lon="6.48698">
        <ele>1903</ele>
        <time>2022-07-17T05:37:24Z</time>
      </trkpt>
      <trkpt lat="45.73663" lon="6.48696">
        <ele>1902</ele>
        <time>2022-07-17T05:37:26Z</time>
      </trkpt>
      <trkpt lat="45.73661" lon="6.48693">
        <ele>1901</ele>
        <time>2022-07-17T05:37:28Z</time>
      </trkpt>
      <trkpt lat="45.7366" lon="6.48688">
        <ele>1901</ele>
        <time>2022-07-17T05:37:30Z</time>
      </trkpt>
      <trkpt lat="45.7366" lon="6.48685">
        <ele>1901</ele>
        <time>2022-07-17T05:37:32Z</time>
      </trkpt>
      <trkpt lat="45.7366" lon="6.48682">
        <ele>1901</ele>
        <time>2022-07-17T05:37:34Z</time>
      </trkpt>
      <trkpt lat="45.73659" lon="6.4868">
        <ele>1901</ele>
        <time>2022-07-17T05:37:36Z</time>
      </trkpt>
      <trkpt lat="45.73658" lon="6.48677">
        <ele>1901</ele>
        <time>2022-07-17T05:37:38Z</time>
      </trkpt>
      <trkpt lat="45.73658" lon="6.48672">
        <ele>1901</ele>
        <time>2022-07-17T05:37:40Z</time>
      </trkpt>
      <trkpt lat="45.73657" lon="6.48669">
        <ele>1900</ele>
        <time>2022-07-17T05:37:42Z</time>
      </trkpt>
      <trkpt lat="45.73657" lon="6.48665">
        <ele>1900</ele>
        <time>2022-07-17T05:37:44Z</time>
      </trkpt>
      <trkpt lat="45.73656" lon="6.48661">
        <ele>1900</ele>
        <time>2022-07-17T05:37:46Z</time>
      </trkpt>
      <trkpt lat="45.73656" lon="6.48659">
        <ele>1899</ele>
        <time>2022-07-17T05:37:48Z</time>
      </trkpt>
      <trkpt lat="45.73655" lon="6.48656">
        <ele>1899</ele>
        <time>2022-07-17T05:37:51Z</time>
      </trkpt>
      <trkpt lat="45.73655" lon="6.48652">
        <ele>1898</ele>
        <time>2022-07-17T05:37:53Z</time>
      </trkpt>
      <trkpt lat="45.73655" lon="6.48649">
        <ele>1897</ele>
        <time>2022-07-17T05:37:55Z</time>
      </trkpt>
      <trkpt lat="45.73655" lon="6.48646">
        <ele>1897</ele>
        <time>2022-07-17T05:37:58Z</time>
      </trkpt>
      <trkpt lat="45.73655" lon="6.48641">
        <ele>1896</ele>
        <time>2022-07-17T05:38:00Z</time>
      </trkpt>
      <trkpt lat="45.73656" lon="6.48639">
        <ele>1896</ele>
        <time>2022-07-17T05:38:03Z</time>
      </trkpt>
      <trkpt lat="45.73655" lon="6.48636">
        <ele>1896</ele>
        <time>2022-07-17T05:38:04Z</time>
      </trkpt>
      <trkpt lat="45.73655" lon="6.48631">
        <ele>1895</ele>
        <time>2022-07-17T05:38:06Z</time>
      </trkpt>
      <trkpt lat="45.73655" lon="6.48626">
        <ele>1895</ele>
        <time>2022-07-17T05:38:08Z</time>
      </trkpt>
      <trkpt lat="45.73655" lon="6.48622">
        <ele>1895</ele>
        <time>2022-07-17T05:38:10Z</time>
      </trkpt>
      <trkpt lat="45.73655" lon="6.48618">
        <ele>1894</ele>
        <time>2022-07-17T05:38:13Z</time>
      </trkpt>
      <trkpt lat="45.73654" lon="6.48619">
        <ele>1893</ele>
        <time>2022-07-17T05:38:19Z</time>
      </trkpt>
      <trkpt lat="45.73653" lon="6.48622">
        <ele>1892</ele>
        <time>2022-07-17T05:38:22Z</time>
      </trkpt>
      <trkpt lat="45.73651" lon="6.48625">
        <ele>1890</ele>
        <time>2022-07-17T05:38:24Z</time>
      </trkpt>
      <trkpt lat="45.73649" lon="6.48626">
        <ele>1890</ele>
        <time>2022-07-17T05:38:26Z</time>
      </trkpt>
      <trkpt lat="45.73648" lon="6.48628">
        <ele>1890</ele>
        <time>2022-07-17T05:38:30Z</time>
      </trkpt>
      <trkpt lat="45.73646" lon="6.48631">
        <ele>1889</ele>
        <time>2022-07-17T05:38:34Z</time>
      </trkpt>
      <trkpt lat="45.73646" lon="6.48634">
        <ele>1888</ele>
        <time>2022-07-17T05:38:37Z</time>
      </trkpt>
      <trkpt lat="45.73645" lon="6.48637">
        <ele>1887</ele>
        <time>2022-07-17T05:38:40Z</time>
      </trkpt>
      <trkpt lat="45.73644" lon="6.48639">
        <ele>1887</ele>
        <time>2022-07-17T05:38:42Z</time>
      </trkpt>
      <trkpt lat="45.73642" lon="6.48642">
        <ele>1886</ele>
        <time>2022-07-17T05:38:45Z</time>
      </trkpt>
      <trkpt lat="45.7364" lon="6.48644">
        <ele>1886</ele>
        <time>2022-07-17T05:38:47Z</time>
      </trkpt>
      <trkpt lat="45.73639" lon="6.48647">
        <ele>1886</ele>
        <time>2022-07-17T05:38:50Z</time>
      </trkpt>
      <trkpt lat="45.73639" lon="6.48649">
        <ele>1885</ele>
        <time>2022-07-17T05:38:52Z</time>
      </trkpt>
      <trkpt lat="45.73638" lon="6.48653">
        <ele>1885</ele>
        <time>2022-07-17T05:38:54Z</time>
      </trkpt>
      <trkpt lat="45.73637" lon="6.48657">
        <ele>1883</ele>
        <time>2022-07-17T05:38:56Z</time>
      </trkpt>
      <trkpt lat="45.73637" lon="6.4866">
        <ele>1883</ele>
        <time>2022-07-17T05:38:58Z</time>
      </trkpt>
      <trkpt lat="45.73637" lon="6.48663">
        <ele>1883</ele>
        <time>2022-07-17T05:39:00Z</time>
      </trkpt>
      <trkpt lat="45.73638" lon="6.48666">
        <ele>1881</ele>
        <time>2022-07-17T05:39:02Z</time>
      </trkpt>
      <trkpt lat="45.73636" lon="6.48668">
        <ele>1881</ele>
        <time>2022-07-17T05:39:04Z</time>
      </trkpt>
      <trkpt lat="45.73635" lon="6.48671">
        <ele>1881</ele>
        <time>2022-07-17T05:39:06Z</time>
      </trkpt>
      <trkpt lat="45.73634" lon="6.48674">
        <ele>1881</ele>
        <time>2022-07-17T05:39:08Z</time>
      </trkpt>
      <trkpt lat="45.73632" lon="6.48677">
        <ele>1881</ele>
        <time>2022-07-17T05:39:10Z</time>
      </trkpt>
      <trkpt lat="45.73631" lon="6.48679">
        <ele>1881</ele>
        <time>2022-07-17T05:39:12Z</time>
      </trkpt>
      <trkpt lat="45.7363" lon="6.48683">
        <ele>1880</ele>
        <time>2022-07-17T05:39:15Z</time>
      </trkpt>
      <trkpt lat="45.73629" lon="6.48687">
        <ele>1880</ele>
        <time>2022-07-17T05:39:17Z</time>
      </trkpt>
      <trkpt lat="45.7363" lon="6.4869">
        <ele>1880</ele>
        <time>2022-07-17T05:39:19Z</time>
      </trkpt>
      <trkpt lat="45.7363" lon="6.48694">
        <ele>1879</ele>
        <time>2022-07-17T05:39:21Z</time>
      </trkpt>
      <trkpt lat="45.73629" lon="6.48696">
        <ele>1878</ele>
        <time>2022-07-17T05:39:23Z</time>
      </trkpt>
      <trkpt lat="45.73629" lon="6.48699">
        <ele>1878</ele>
        <time>2022-07-17T05:39:26Z</time>
      </trkpt>
      <trkpt lat="45.73628" lon="6.48703">
        <ele>1877</ele>
        <time>2022-07-17T05:39:28Z</time>
      </trkpt>
      <trkpt lat="45.73627" lon="6.48706">
        <ele>1877</ele>
        <time>2022-07-17T05:39:30Z</time>
      </trkpt>
      <trkpt lat="45.73626" lon="6.48708">
        <ele>1877</ele>
        <time>2022-07-17T05:39:31Z</time>
      </trkpt>
      <trkpt lat="45.73623" lon="6.48708">
        <ele>1876</ele>
        <time>2022-07-17T05:39:33Z</time>
      </trkpt>
      <trkpt lat="45.73621" lon="6.48707">
        <ele>1876</ele>
        <time>2022-07-17T05:39:35Z</time>
      </trkpt>
      <trkpt lat="45.73619" lon="6.48709">
        <ele>1875</ele>
        <time>2022-07-17T05:39:39Z</time>
      </trkpt>
      <trkpt lat="45.73619" lon="6.48711">
        <ele>1874</ele>
        <time>2022-07-17T05:39:41Z</time>
      </trkpt>
      <trkpt lat="45.73618" lon="6.48714">
        <ele>1874</ele>
        <time>2022-07-17T05:39:43Z</time>
      </trkpt>
      <trkpt lat="45.73617" lon="6.48717">
        <ele>1874</ele>
        <time>2022-07-17T05:39:45Z</time>
      </trkpt>
      <trkpt lat="45.73617" lon="6.4872">
        <ele>1873</ele>
        <time>2022-07-17T05:39:47Z</time>
      </trkpt>
      <trkpt lat="45.73617" lon="6.48724">
        <ele>1872</ele>
        <time>2022-07-17T05:39:50Z</time>
      </trkpt>
      <trkpt lat="45.73618" lon="6.48728">
        <ele>1872</ele>
        <time>2022-07-17T05:39:52Z</time>
      </trkpt>
      <trkpt lat="45.73618" lon="6.48731">
        <ele>1871</ele>
        <time>2022-07-17T05:39:55Z</time>
      </trkpt>
      <trkpt lat="45.73617" lon="6.48734">
        <ele>1869</ele>
        <time>2022-07-17T05:39:59Z</time>
      </trkpt>
      <trkpt lat="45.73618" lon="6.48737">
        <ele>1869</ele>
        <time>2022-07-17T05:40:02Z</time>
      </trkpt>
      <trkpt lat="45.73617" lon="6.4874">
        <ele>1869</ele>
        <time>2022-07-17T05:40:04Z</time>
      </trkpt>
      <trkpt lat="45.73618" lon="6.48744">
        <ele>1868</ele>
        <time>2022-07-17T05:40:07Z</time>
      </trkpt>
      <trkpt lat="45.73618" lon="6.48748">
        <ele>1866</ele>
        <time>2022-07-17T05:40:10Z</time>
      </trkpt>
      <trkpt lat="45.73618" lon="6.4875">
        <ele>1866</ele>
        <time>2022-07-17T05:40:12Z</time>
      </trkpt>
      <trkpt lat="45.73619" lon="6.48752">
        <ele>1865</ele>
        <time>2022-07-17T05:40:14Z</time>
      </trkpt>
      <trkpt lat="45.7362" lon="6.48756">
        <ele>1865</ele>
        <time>2022-07-17T05:40:16Z</time>
      </trkpt>
      <trkpt lat="45.73618" lon="6.48758">
        <ele>1864</ele>
        <time>2022-07-17T05:40:17Z</time>
      </trkpt>
      <trkpt lat="45.73615" lon="6.4876">
        <ele>1863</ele>
        <time>2022-07-17T05:40:18Z</time>
      </trkpt>
      <trkpt lat="45.73613" lon="6.48762">
        <ele>1864</ele>
        <time>2022-07-17T05:40:20Z</time>
      </trkpt>
      <trkpt lat="45.73611" lon="6.48765">
        <ele>1863</ele>
        <time>2022-07-17T05:40:22Z</time>
      </trkpt>
      <trkpt lat="45.73609" lon="6.48767">
        <ele>1863</ele>
        <time>2022-07-17T05:40:24Z</time>
      </trkpt>
      <trkpt lat="45.73607" lon="6.48767">
        <ele>1862</ele>
        <time>2022-07-17T05:40:26Z</time>
      </trkpt>
      <trkpt lat="45.73605" lon="6.48768">
        <ele>1862</ele>
        <time>2022-07-17T05:40:28Z</time>
      </trkpt>
      <trkpt lat="45.73602" lon="6.48768">
        <ele>1862</ele>
        <time>2022-07-17T05:40:30Z</time>
      </trkpt>
      <trkpt lat="45.736" lon="6.48768">
        <ele>1861</ele>
        <time>2022-07-17T05:40:32Z</time>
      </trkpt>
      <trkpt lat="45.73597" lon="6.48767">
        <ele>1861</ele>
        <time>2022-07-17T05:40:35Z</time>
      </trkpt>
      <trkpt lat="45.73596" lon="6.48765">
        <ele>1860</ele>
        <time>2022-07-17T05:40:37Z</time>
      </trkpt>
      <trkpt lat="45.73595" lon="6.48763">
        <ele>1860</ele>
        <time>2022-07-17T05:40:39Z</time>
      </trkpt>
      <trkpt lat="45.73593" lon="6.48761">
        <ele>1860</ele>
        <time>2022-07-17T05:40:41Z</time>
      </trkpt>
      <trkpt lat="45.73591" lon="6.4876">
        <ele>1859</ele>
        <time>2022-07-17T05:40:43Z</time>
      </trkpt>
      <trkpt lat="45.73589" lon="6.48758">
        <ele>1859</ele>
        <time>2022-07-17T05:40:45Z</time>
      </trkpt>
      <trkpt lat="45.73587" lon="6.48756">
        <ele>1858</ele>
        <time>2022-07-17T05:40:47Z</time>
      </trkpt>
      <trkpt lat="45.73585" lon="6.48754">
        <ele>1857</ele>
        <time>2022-07-17T05:40:50Z</time>
      </trkpt>
      <trkpt lat="45.73583" lon="6.48753">
        <ele>1856</ele>
        <time>2022-07-17T05:40:55Z</time>
      </trkpt>
      <trkpt lat="45.73581" lon="6.48753">
        <ele>1855</ele>
        <time>2022-07-17T05:40:58Z</time>
      </trkpt>
      <trkpt lat="45.73579" lon="6.48752">
        <ele>1854</ele>
        <time>2022-07-17T05:41:00Z</time>
      </trkpt>
      <trkpt lat="45.73576" lon="6.48751">
        <ele>1853</ele>
        <time>2022-07-17T05:41:02Z</time>
      </trkpt>
      <trkpt lat="45.73573" lon="6.48749">
        <ele>1852</ele>
        <time>2022-07-17T05:41:04Z</time>
      </trkpt>
      <trkpt lat="45.73571" lon="6.48747">
        <ele>1851</ele>
        <time>2022-07-17T05:41:05Z</time>
      </trkpt>
      <trkpt lat="45.73569" lon="6.48746">
        <ele>1851</ele>
        <time>2022-07-17T05:41:06Z</time>
      </trkpt>
      <trkpt lat="45.73566" lon="6.48744">
        <ele>1850</ele>
        <time>2022-07-17T05:41:08Z</time>
      </trkpt>
      <trkpt lat="45.73564" lon="6.48743">
        <ele>1850</ele>
        <time>2022-07-17T05:41:09Z</time>
      </trkpt>
      <trkpt lat="45.73562" lon="6.48741">
        <ele>1850</ele>
        <time>2022-07-17T05:41:10Z</time>
      </trkpt>
      <trkpt lat="45.73559" lon="6.48739">
        <ele>1850</ele>
        <time>2022-07-17T05:41:13Z</time>
      </trkpt>
      <trkpt lat="45.73556" lon="6.48737">
        <ele>1849</ele>
        <time>2022-07-17T05:41:14Z</time>
      </trkpt>
      <trkpt lat="45.73554" lon="6.48736">
        <ele>1849</ele>
        <time>2022-07-17T05:41:15Z</time>
      </trkpt>
      <trkpt lat="45.73552" lon="6.48735">
        <ele>1849</ele>
        <time>2022-07-17T05:41:17Z</time>
      </trkpt>
      <trkpt lat="45.7355" lon="6.48734">
        <ele>1849</ele>
        <time>2022-07-17T05:41:19Z</time>
      </trkpt>
      <trkpt lat="45.73548" lon="6.48733">
        <ele>1849</ele>
        <time>2022-07-17T05:41:21Z</time>
      </trkpt>
      <trkpt lat="45.73545" lon="6.48732">
        <ele>1849</ele>
        <time>2022-07-17T05:41:23Z</time>
      </trkpt>
      <trkpt lat="45.73543" lon="6.4873">
        <ele>1849</ele>
        <time>2022-07-17T05:41:25Z</time>
      </trkpt>
      <trkpt lat="45.73542" lon="6.48727">
        <ele>1849</ele>
        <time>2022-07-17T05:41:27Z</time>
      </trkpt>
      <trkpt lat="45.73542" lon="6.48722">
        <ele>1848</ele>
        <time>2022-07-17T05:41:29Z</time>
      </trkpt>
      <trkpt lat="45.73542" lon="6.48717">
        <ele>1847</ele>
        <time>2022-07-17T05:41:32Z</time>
      </trkpt>
      <trkpt lat="45.73543" lon="6.48713">
        <ele>1847</ele>
        <time>2022-07-17T05:41:33Z</time>
      </trkpt>
      <trkpt lat="45.73545" lon="6.48711">
        <ele>1847</ele>
        <time>2022-07-17T05:41:35Z</time>
      </trkpt>
      <trkpt lat="45.73546" lon="6.48709">
        <ele>1846</ele>
        <time>2022-07-17T05:41:37Z</time>
      </trkpt>
      <trkpt lat="45.73548" lon="6.48705">
        <ele>1845</ele>
        <time>2022-07-17T05:41:39Z</time>
      </trkpt>
      <trkpt lat="45.73549" lon="6.48702">
        <ele>1844</ele>
        <time>2022-07-17T05:41:41Z</time>
      </trkpt>
      <trkpt lat="45.73549" lon="6.48699">
        <ele>1843</ele>
        <time>2022-07-17T05:41:43Z</time>
      </trkpt>
      <trkpt lat="45.73549" lon="6.48696">
        <ele>1843</ele>
        <time>2022-07-17T05:41:45Z</time>
      </trkpt>
      <trkpt lat="45.73549" lon="6.48692">
        <ele>1842</ele>
        <time>2022-07-17T05:41:47Z</time>
      </trkpt>
      <trkpt lat="45.73548" lon="6.48688">
        <ele>1842</ele>
        <time>2022-07-17T05:41:49Z</time>
      </trkpt>
      <trkpt lat="45.73548" lon="6.48685">
        <ele>1842</ele>
        <time>2022-07-17T05:41:51Z</time>
      </trkpt>
      <trkpt lat="45.7355" lon="6.48682">
        <ele>1841</ele>
        <time>2022-07-17T05:41:53Z</time>
      </trkpt>
      <trkpt lat="45.73551" lon="6.48679">
        <ele>1841</ele>
        <time>2022-07-17T05:41:55Z</time>
      </trkpt>
      <trkpt lat="45.73553" lon="6.48675">
        <ele>1841</ele>
        <time>2022-07-17T05:41:57Z</time>
      </trkpt>
      <trkpt lat="45.73557" lon="6.48671">
        <ele>1841</ele>
        <time>2022-07-17T05:41:59Z</time>
      </trkpt>
      <trkpt lat="45.73558" lon="6.48668">
        <ele>1841</ele>
        <time>2022-07-17T05:42:00Z</time>
      </trkpt>
      <trkpt lat="45.73559" lon="6.48666">
        <ele>1840</ele>
        <time>2022-07-17T05:42:01Z</time>
      </trkpt>
      <trkpt lat="45.7356" lon="6.48663">
        <ele>1840</ele>
        <time>2022-07-17T05:42:03Z</time>
      </trkpt>
      <trkpt lat="45.73561" lon="6.4866">
        <ele>1840</ele>
        <time>2022-07-17T05:42:05Z</time>
      </trkpt>
      <trkpt lat="45.73562" lon="6.48655">
        <ele>1840</ele>
        <time>2022-07-17T05:42:07Z</time>
      </trkpt>
      <trkpt lat="45.73563" lon="6.4865">
        <ele>1840</ele>
        <time>2022-07-17T05:42:09Z</time>
      </trkpt>
      <trkpt lat="45.73563" lon="6.48646">
        <ele>1840</ele>
        <time>2022-07-17T05:42:11Z</time>
      </trkpt>
      <trkpt lat="45.73564" lon="6.48642">
        <ele>1839</ele>
        <time>2022-07-17T05:42:13Z</time>
      </trkpt>
      <trkpt lat="45.73564" lon="6.48639">
        <ele>1839</ele>
        <time>2022-07-17T05:42:15Z</time>
      </trkpt>
      <trkpt lat="45.73564" lon="6.48635">
        <ele>1839</ele>
        <time>2022-07-17T05:42:17Z</time>
      </trkpt>
      <trkpt lat="45.73564" lon="6.48632">
        <ele>1838</ele>
        <time>2022-07-17T05:42:19Z</time>
      </trkpt>
      <trkpt lat="45.73565" lon="6.48629">
        <ele>1838</ele>
        <time>2022-07-17T05:42:22Z</time>
      </trkpt>
      <trkpt lat="45.73566" lon="6.48626">
        <ele>1837</ele>
        <time>2022-07-17T05:42:24Z</time>
      </trkpt>
      <trkpt lat="45.73566" lon="6.48622">
        <ele>1837</ele>
        <time>2022-07-17T05:42:26Z</time>
      </trkpt>
      <trkpt lat="45.73567" lon="6.48619">
        <ele>1836</ele>
        <time>2022-07-17T05:42:29Z</time>
      </trkpt>
      <trkpt lat="45.73566" lon="6.48616">
        <ele>1835</ele>
        <time>2022-07-17T05:42:30Z</time>
      </trkpt>
      <trkpt lat="45.73566" lon="6.48613">
        <ele>1834</ele>
        <time>2022-07-17T05:42:32Z</time>
      </trkpt>
      <trkpt lat="45.73566" lon="6.48609">
        <ele>1834</ele>
        <time>2022-07-17T05:42:35Z</time>
      </trkpt>
      <trkpt lat="45.73566" lon="6.48606">
        <ele>1833</ele>
        <time>2022-07-17T05:42:37Z</time>
      </trkpt>
      <trkpt lat="45.73566" lon="6.48603">
        <ele>1832</ele>
        <time>2022-07-17T05:42:39Z</time>
      </trkpt>
      <trkpt lat="45.73566" lon="6.48599">
        <ele>1832</ele>
        <time>2022-07-17T05:42:41Z</time>
      </trkpt>
      <trkpt lat="45.73566" lon="6.48595">
        <ele>1832</ele>
        <time>2022-07-17T05:42:43Z</time>
      </trkpt>
      <trkpt lat="45.73565" lon="6.48591">
        <ele>1831</ele>
        <time>2022-07-17T05:42:45Z</time>
      </trkpt>
      <trkpt lat="45.73565" lon="6.48587">
        <ele>1831</ele>
        <time>2022-07-17T05:42:48Z</time>
      </trkpt>
      <trkpt lat="45.73565" lon="6.48584">
        <ele>1831</ele>
        <time>2022-07-17T05:42:49Z</time>
      </trkpt>
      <trkpt lat="45.73565" lon="6.48581">
        <ele>1828</ele>
        <time>2022-07-17T05:42:51Z</time>
      </trkpt>
      <trkpt lat="45.73566" lon="6.48578">
        <ele>1828</ele>
        <time>2022-07-17T05:42:53Z</time>
      </trkpt>
      <trkpt lat="45.73566" lon="6.48575">
        <ele>1828</ele>
        <time>2022-07-17T05:42:55Z</time>
      </trkpt>
      <trkpt lat="45.73565" lon="6.48571">
        <ele>1828</ele>
        <time>2022-07-17T05:42:57Z</time>
      </trkpt>
      <trkpt lat="45.73565" lon="6.48568">
        <ele>1827</ele>
        <time>2022-07-17T05:42:59Z</time>
      </trkpt>
      <trkpt lat="45.73564" lon="6.48563">
        <ele>1827</ele>
        <time>2022-07-17T05:43:01Z</time>
      </trkpt>
      <trkpt lat="45.73564" lon="6.48559">
        <ele>1827</ele>
        <time>2022-07-17T05:43:03Z</time>
      </trkpt>
      <trkpt lat="45.73564" lon="6.48555">
        <ele>1826</ele>
        <time>2022-07-17T05:43:05Z</time>
      </trkpt>
      <trkpt lat="45.73565" lon="6.48551">
        <ele>1826</ele>
        <time>2022-07-17T05:43:08Z</time>
      </trkpt>
      <trkpt lat="45.73566" lon="6.48548">
        <ele>1826</ele>
        <time>2022-07-17T05:43:09Z</time>
      </trkpt>
      <trkpt lat="45.73566" lon="6.48545">
        <ele>1825</ele>
        <time>2022-07-17T05:43:11Z</time>
      </trkpt>
      <trkpt lat="45.73567" lon="6.48542">
        <ele>1825</ele>
        <time>2022-07-17T05:43:13Z</time>
      </trkpt>
      <trkpt lat="45.73567" lon="6.48539">
        <ele>1825</ele>
        <time>2022-07-17T05:43:15Z</time>
      </trkpt>
      <trkpt lat="45.73568" lon="6.48535">
        <ele>1824</ele>
        <time>2022-07-17T05:43:17Z</time>
      </trkpt>
      <trkpt lat="45.73569" lon="6.48533">
        <ele>1824</ele>
        <time>2022-07-17T05:43:19Z</time>
      </trkpt>
      <trkpt lat="45.7357" lon="6.4853">
        <ele>1823</ele>
        <time>2022-07-17T05:43:21Z</time>
      </trkpt>
      <trkpt lat="45.73571" lon="6.48528">
        <ele>1822</ele>
        <time>2022-07-17T05:43:23Z</time>
      </trkpt>
      <trkpt lat="45.7357" lon="6.48525">
        <ele>1822</ele>
        <time>2022-07-17T05:43:25Z</time>
      </trkpt>
      <trkpt lat="45.7357" lon="6.48522">
        <ele>1822</ele>
        <time>2022-07-17T05:43:27Z</time>
      </trkpt>
      <trkpt lat="45.7357" lon="6.48518">
        <ele>1820</ele>
        <time>2022-07-17T05:43:29Z</time>
      </trkpt>
      <trkpt lat="45.7357" lon="6.48514">
        <ele>1820</ele>
        <time>2022-07-17T05:43:31Z</time>
      </trkpt>
      <trkpt lat="45.73571" lon="6.48511">
        <ele>1819</ele>
        <time>2022-07-17T05:43:33Z</time>
      </trkpt>
      <trkpt lat="45.73572" lon="6.48507">
        <ele>1819</ele>
        <time>2022-07-17T05:43:35Z</time>
      </trkpt>
      <trkpt lat="45.73573" lon="6.48502">
        <ele>1817</ele>
        <time>2022-07-17T05:43:37Z</time>
      </trkpt>
      <trkpt lat="45.73574" lon="6.485">
        <ele>1817</ele>
        <time>2022-07-17T05:43:39Z</time>
      </trkpt>
      <trkpt lat="45.73574" lon="6.48497">
        <ele>1816</ele>
        <time>2022-07-17T05:43:45Z</time>
      </trkpt>
      <trkpt lat="45.73573" lon="6.48494">
        <ele>1814</ele>
        <time>2022-07-17T05:43:50Z</time>
      </trkpt>
      <trkpt lat="45.73573" lon="6.48491">
        <ele>1814</ele>
        <time>2022-07-17T05:43:52Z</time>
      </trkpt>
      <trkpt lat="45.73574" lon="6.48489">
        <ele>1813</ele>
        <time>2022-07-17T05:43:53Z</time>
      </trkpt>
      <trkpt lat="45.73575" lon="6.48485">
        <ele>1813</ele>
        <time>2022-07-17T05:43:54Z</time>
      </trkpt>
      <trkpt lat="45.73576" lon="6.48482">
        <ele>1813</ele>
        <time>2022-07-17T05:43:55Z</time>
      </trkpt>
      <trkpt lat="45.73577" lon="6.48477">
        <ele>1813</ele>
        <time>2022-07-17T05:43:57Z</time>
      </trkpt>
      <trkpt lat="45.73577" lon="6.48473">
        <ele>1813</ele>
        <time>2022-07-17T05:43:59Z</time>
      </trkpt>
      <trkpt lat="45.73577" lon="6.48468">
        <ele>1813</ele>
        <time>2022-07-17T05:44:01Z</time>
      </trkpt>
      <trkpt lat="45.73577" lon="6.48463">
        <ele>1812</ele>
        <time>2022-07-17T05:44:03Z</time>
      </trkpt>
      <trkpt lat="45.73578" lon="6.48458">
        <ele>1812</ele>
        <time>2022-07-17T05:44:06Z</time>
      </trkpt>
      <trkpt lat="45.73579" lon="6.48456">
        <ele>1812</ele>
        <time>2022-07-17T05:44:08Z</time>
      </trkpt>
      <trkpt lat="45.7358" lon="6.48454">
        <ele>1812</ele>
        <time>2022-07-17T05:44:10Z</time>
      </trkpt>
      <trkpt lat="45.7358" lon="6.4845">
        <ele>1812</ele>
        <time>2022-07-17T05:44:12Z</time>
      </trkpt>
      <trkpt lat="45.73581" lon="6.48447">
        <ele>1811</ele>
        <time>2022-07-17T05:44:15Z</time>
      </trkpt>
      <trkpt lat="45.73581" lon="6.48445">
        <ele>1810</ele>
        <time>2022-07-17T05:44:18Z</time>
      </trkpt>
      <trkpt lat="45.73581" lon="6.48442">
        <ele>1809</ele>
        <time>2022-07-17T05:44:20Z</time>
      </trkpt>
      <trkpt lat="45.73581" lon="6.48438">
        <ele>1809</ele>
        <time>2022-07-17T05:44:23Z</time>
      </trkpt>
      <trkpt lat="45.73581" lon="6.48434">
        <ele>1807</ele>
        <time>2022-07-17T05:44:24Z</time>
      </trkpt>
      <trkpt lat="45.73583" lon="6.48431">
        <ele>1807</ele>
        <time>2022-07-17T05:44:26Z</time>
      </trkpt>
      <trkpt lat="45.73583" lon="6.48428">
        <ele>1807</ele>
        <time>2022-07-17T05:44:29Z</time>
      </trkpt>
      <trkpt lat="45.73583" lon="6.48425">
        <ele>1806</ele>
        <time>2022-07-17T05:44:32Z</time>
      </trkpt>
      <trkpt lat="45.73583" lon="6.48422">
        <ele>1805</ele>
        <time>2022-07-17T05:44:34Z</time>
      </trkpt>
      <trkpt lat="45.73583" lon="6.48419">
        <ele>1804</ele>
        <time>2022-07-17T05:44:38Z</time>
      </trkpt>
      <trkpt lat="45.73582" lon="6.48415">
        <ele>1803</ele>
        <time>2022-07-17T05:44:41Z</time>
      </trkpt>
      <trkpt lat="45.73582" lon="6.48414">
        <ele>1803</ele>
        <time>2022-07-17T05:44:43Z</time>
      </trkpt>
      <trkpt lat="45.73582" lon="6.48412">
        <ele>1802</ele>
        <time>2022-07-17T05:44:44Z</time>
      </trkpt>
      <trkpt lat="45.73583" lon="6.48411">
        <ele>1802</ele>
        <time>2022-07-17T05:44:45Z</time>
      </trkpt>
      <trkpt lat="45.73583" lon="6.48409">
        <ele>1802</ele>
        <time>2022-07-17T05:44:46Z</time>
      </trkpt>
      <trkpt lat="45.73583" lon="6.48408">
        <ele>1802</ele>
        <time>2022-07-17T05:44:47Z</time>
      </trkpt>
      <trkpt lat="45.73583" lon="6.48407">
        <ele>1801</ele>
        <time>2022-07-17T05:44:48Z</time>
      </trkpt>
      <trkpt lat="45.73583" lon="6.48405">
        <ele>1801</ele>
        <time>2022-07-17T05:44:49Z</time>
      </trkpt>
      <trkpt lat="45.73583" lon="6.48404">
        <ele>1801</ele>
        <time>2022-07-17T05:44:50Z</time>
      </trkpt>
      <trkpt lat="45.73583" lon="6.48403">
        <ele>1800</ele>
        <time>2022-07-17T05:44:51Z</time>
      </trkpt>
      <trkpt lat="45.73584" lon="6.48401">
        <ele>1800</ele>
        <time>2022-07-17T05:44:52Z</time>
      </trkpt>
      <trkpt lat="45.73584" lon="6.48399">
        <ele>1800</ele>
        <time>2022-07-17T05:44:53Z</time>
      </trkpt>
      <trkpt lat="45.73585" lon="6.48397">
        <ele>1800</ele>
        <time>2022-07-17T05:44:54Z</time>
      </trkpt>
      <trkpt lat="45.73585" lon="6.48395">
        <ele>1799</ele>
        <time>2022-07-17T05:44:55Z</time>
      </trkpt>
      <trkpt lat="45.73586" lon="6.48393">
        <ele>1799</ele>
        <time>2022-07-17T05:44:56Z</time>
      </trkpt>
      <trkpt lat="45.73586" lon="6.48391">
        <ele>1799</ele>
        <time>2022-07-17T05:44:57Z</time>
      </trkpt>
      <trkpt lat="45.73587" lon="6.48389">
        <ele>1798</ele>
        <time>2022-07-17T05:44:58Z</time>
      </trkpt>
      <trkpt lat="45.73587" lon="6.48386">
        <ele>1797</ele>
        <time>2022-07-17T05:44:59Z</time>
      </trkpt>
      <trkpt lat="45.73587" lon="6.48384">
        <ele>1797</ele>
        <time>2022-07-17T05:45:00Z</time>
      </trkpt>
      <trkpt lat="45.73587" lon="6.48382">
        <ele>1797</ele>
        <time>2022-07-17T05:45:01Z</time>
      </trkpt>
      <trkpt lat="45.73588" lon="6.48379">
        <ele>1797</ele>
        <time>2022-07-17T05:45:02Z</time>
      </trkpt>
      <trkpt lat="45.73587" lon="6.48377">
        <ele>1796</ele>
        <time>2022-07-17T05:45:04Z</time>
      </trkpt>
      <trkpt lat="45.73587" lon="6.48374">
        <ele>1796</ele>
        <time>2022-07-17T05:45:07Z</time>
      </trkpt>
      <trkpt lat="45.73587" lon="6.48373">
        <ele>1795</ele>
        <time>2022-07-17T05:45:09Z</time>
      </trkpt>
      <trkpt lat="45.73587" lon="6.48372">
        <ele>1795</ele>
        <time>2022-07-17T05:45:10Z</time>
      </trkpt>
      <trkpt lat="45.73588" lon="6.4837">
        <ele>1794</ele>
        <time>2022-07-17T05:45:11Z</time>
      </trkpt>
      <trkpt lat="45.73588" lon="6.48369">
        <ele>1794</ele>
        <time>2022-07-17T05:45:12Z</time>
      </trkpt>
      <trkpt lat="45.73588" lon="6.48368">
        <ele>1794</ele>
        <time>2022-07-17T05:45:13Z</time>
      </trkpt>
      <trkpt lat="45.73589" lon="6.48367">
        <ele>1794</ele>
        <time>2022-07-17T05:45:14Z</time>
      </trkpt>
      <trkpt lat="45.73589" lon="6.48366">
        <ele>1794</ele>
        <time>2022-07-17T05:45:15Z</time>
      </trkpt>
      <trkpt lat="45.73589" lon="6.48364">
        <ele>1794</ele>
        <time>2022-07-17T05:45:16Z</time>
      </trkpt>
      <trkpt lat="45.7359" lon="6.48363">
        <ele>1794</ele>
        <time>2022-07-17T05:45:17Z</time>
      </trkpt>
      <trkpt lat="45.73592" lon="6.48365">
        <ele>1792</ele>
        <time>2022-07-17T05:45:25Z</time>
      </trkpt>
      <trkpt lat="45.73592" lon="6.48366">
        <ele>1791</ele>
        <time>2022-07-17T05:45:28Z</time>
      </trkpt>
      <trkpt lat="45.73592" lon="6.48367">
        <ele>1791</ele>
        <time>2022-07-17T05:45:29Z</time>
      </trkpt>
      <trkpt lat="45.73592" lon="6.48368">
        <ele>1791</ele>
        <time>2022-07-17T05:45:30Z</time>
      </trkpt>
      <trkpt lat="45.73592" lon="6.48369">
        <ele>1790</ele>
        <time>2022-07-17T05:45:31Z</time>
      </trkpt>
      <trkpt lat="45.73592" lon="6.4837">
        <ele>1790</ele>
        <time>2022-07-17T05:45:33Z</time>
      </trkpt>
      <trkpt lat="45.73592" lon="6.48371">
        <ele>1790</ele>
        <time>2022-07-17T05:45:34Z</time>
      </trkpt>
      <trkpt lat="45.73592" lon="6.48372">
        <ele>1790</ele>
        <time>2022-07-17T05:45:35Z</time>
      </trkpt>
      <trkpt lat="45.7359" lon="6.48373">
        <ele>1790</ele>
        <time>2022-07-17T05:45:36Z</time>
      </trkpt>
      <trkpt lat="45.73588" lon="6.48376">
        <ele>1789</ele>
        <time>2022-07-17T05:45:39Z</time>
      </trkpt>
      <trkpt lat="45.73587" lon="6.48378">
        <ele>1788</ele>
        <time>2022-07-17T05:45:40Z</time>
      </trkpt>
      <trkpt lat="45.73585" lon="6.4838">
        <ele>1787</ele>
        <time>2022-07-17T05:45:43Z</time>
      </trkpt>
      <trkpt lat="45.73585" lon="6.48384">
        <ele>1787</ele>
        <time>2022-07-17T05:45:46Z</time>
      </trkpt>
      <trkpt lat="45.73584" lon="6.48385">
        <ele>1786</ele>
        <time>2022-07-17T05:45:48Z</time>
      </trkpt>
      <trkpt lat="45.73584" lon="6.48386">
        <ele>1786</ele>
        <time>2022-07-17T05:45:49Z</time>
      </trkpt>
      <trkpt lat="45.73583" lon="6.48387">
        <ele>1786</ele>
        <time>2022-07-17T05:45:51Z</time>
      </trkpt>
      <trkpt lat="45.73583" lon="6.48388">
        <ele>1786</ele>
        <time>2022-07-17T05:45:52Z</time>
      </trkpt>
      <trkpt lat="45.73582" lon="6.48389">
        <ele>1785</ele>
        <time>2022-07-17T05:45:53Z</time>
      </trkpt>
      <trkpt lat="45.73581" lon="6.48389">
        <ele>1784</ele>
        <time>2022-07-17T05:45:54Z</time>
      </trkpt>
      <trkpt lat="45.73581" lon="6.4839">
        <ele>1784</ele>
        <time>2022-07-17T05:45:55Z</time>
      </trkpt>
      <trkpt lat="45.7358" lon="6.48391">
        <ele>1784</ele>
        <time>2022-07-17T05:45:56Z</time>
      </trkpt>
      <trkpt lat="45.7358" lon="6.48392">
        <ele>1784</ele>
        <time>2022-07-17T05:45:57Z</time>
      </trkpt>
      <trkpt lat="45.73579" lon="6.48393">
        <ele>1784</ele>
        <time>2022-07-17T05:45:58Z</time>
      </trkpt>
      <trkpt lat="45.73579" lon="6.48394">
        <ele>1783</ele>
        <time>2022-07-17T05:45:59Z</time>
      </trkpt>
      <trkpt lat="45.73578" lon="6.48395">
        <ele>1783</ele>
        <time>2022-07-17T05:46:00Z</time>
      </trkpt>
      <trkpt lat="45.73578" lon="6.48396">
        <ele>1783</ele>
        <time>2022-07-17T05:46:01Z</time>
      </trkpt>
      <trkpt lat="45.73577" lon="6.48397">
        <ele>1783</ele>
        <time>2022-07-17T05:46:02Z</time>
      </trkpt>
      <trkpt lat="45.73576" lon="6.48397">
        <ele>1783</ele>
        <time>2022-07-17T05:46:03Z</time>
      </trkpt>
      <trkpt lat="45.73575" lon="6.48398">
        <ele>1783</ele>
        <time>2022-07-17T05:46:04Z</time>
      </trkpt>
      <trkpt lat="45.73574" lon="6.48398">
        <ele>1782</ele>
        <time>2022-07-17T05:46:05Z</time>
      </trkpt>
      <trkpt lat="45.73573" lon="6.48399">
        <ele>1781</ele>
        <time>2022-07-17T05:46:06Z</time>
      </trkpt>
      <trkpt lat="45.73572" lon="6.48399">
        <ele>1781</ele>
        <time>2022-07-17T05:46:07Z</time>
      </trkpt>
      <trkpt lat="45.73571" lon="6.484">
        <ele>1781</ele>
        <time>2022-07-17T05:46:08Z</time>
      </trkpt>
      <trkpt lat="45.7357" lon="6.48399">
        <ele>1781</ele>
        <time>2022-07-17T05:46:09Z</time>
      </trkpt>
      <trkpt lat="45.73569" lon="6.48398">
        <ele>1780</ele>
        <time>2022-07-17T05:46:10Z</time>
      </trkpt>
      <trkpt lat="45.73568" lon="6.48397">
        <ele>1779</ele>
        <time>2022-07-17T05:46:12Z</time>
      </trkpt>
      <trkpt lat="45.73567" lon="6.48396">
        <ele>1779</ele>
        <time>2022-07-17T05:46:13Z</time>
      </trkpt>
      <trkpt lat="45.73566" lon="6.48395">
        <ele>1779</ele>
        <time>2022-07-17T05:46:14Z</time>
      </trkpt>
      <trkpt lat="45.73565" lon="6.48394">
        <ele>1779</ele>
        <time>2022-07-17T05:46:16Z</time>
      </trkpt>
      <trkpt lat="45.73564" lon="6.48393">
        <ele>1779</ele>
        <time>2022-07-17T05:46:17Z</time>
      </trkpt>
      <trkpt lat="45.73563" lon="6.48392">
        <ele>1779</ele>
        <time>2022-07-17T05:46:18Z</time>
      </trkpt>
      <trkpt lat="45.73563" lon="6.48389">
        <ele>1777</ele>
        <time>2022-07-17T05:46:20Z</time>
      </trkpt>
      <trkpt lat="45.73563" lon="6.48386">
        <ele>1777</ele>
        <time>2022-07-17T05:46:24Z</time>
      </trkpt>
      <trkpt lat="45.73563" lon="6.48383">
        <ele>1777</ele>
        <time>2022-07-17T05:46:26Z</time>
      </trkpt>
      <trkpt lat="45.73563" lon="6.48379">
        <ele>1777</ele>
        <time>2022-07-17T05:46:28Z</time>
      </trkpt>
      <trkpt lat="45.73564" lon="6.48375">
        <ele>1776</ele>
        <time>2022-07-17T05:46:30Z</time>
      </trkpt>
      <trkpt lat="45.73564" lon="6.48372">
        <ele>1776</ele>
        <time>2022-07-17T05:46:31Z</time>
      </trkpt>
      <trkpt lat="45.73565" lon="6.48368">
        <ele>1775</ele>
        <time>2022-07-17T05:46:33Z</time>
      </trkpt>
      <trkpt lat="45.73566" lon="6.48366">
        <ele>1775</ele>
        <time>2022-07-17T05:46:36Z</time>
      </trkpt>
      <trkpt lat="45.73565" lon="6.48363">
        <ele>1775</ele>
        <time>2022-07-17T05:46:37Z</time>
      </trkpt>
      <trkpt lat="45.73565" lon="6.48361">
        <ele>1774</ele>
        <time>2022-07-17T05:46:39Z</time>
      </trkpt>
      <trkpt lat="45.73565" lon="6.48358">
        <ele>1773</ele>
        <time>2022-07-17T05:46:42Z</time>
      </trkpt>
      <trkpt lat="45.73564" lon="6.48354">
        <ele>1773</ele>
        <time>2022-07-17T05:46:44Z</time>
      </trkpt>
      <trkpt lat="45.73564" lon="6.48351">
        <ele>1772</ele>
        <time>2022-07-17T05:46:49Z</time>
      </trkpt>
      <trkpt lat="45.73565" lon="6.48348">
        <ele>1771</ele>
        <time>2022-07-17T05:46:52Z</time>
      </trkpt>
      <trkpt lat="45.73562" lon="6.4835">
        <ele>1769</ele>
        <time>2022-07-17T05:46:59Z</time>
      </trkpt>
      <trkpt lat="45.73562" lon="6.48347">
        <ele>1768</ele>
        <time>2022-07-17T05:47:03Z</time>
      </trkpt>
      <trkpt lat="45.73562" lon="6.48343">
        <ele>1767</ele>
        <time>2022-07-17T05:47:06Z</time>
      </trkpt>
      <trkpt lat="45.73561" lon="6.48339">
        <ele>1766</ele>
        <time>2022-07-17T05:47:08Z</time>
      </trkpt>
      <trkpt lat="45.73561" lon="6.48335">
        <ele>1765</ele>
        <time>2022-07-17T05:47:10Z</time>
      </trkpt>
      <trkpt lat="45.7356" lon="6.48331">
        <ele>1765</ele>
        <time>2022-07-17T05:47:12Z</time>
      </trkpt>
      <trkpt lat="45.7356" lon="6.48324">
        <ele>1764</ele>
        <time>2022-07-17T05:47:14Z</time>
      </trkpt>
      <trkpt lat="45.73561" lon="6.48322">
        <ele>1763</ele>
        <time>2022-07-17T05:47:17Z</time>
      </trkpt>
      <trkpt lat="45.73561" lon="6.48318">
        <ele>1763</ele>
        <time>2022-07-17T05:47:20Z</time>
      </trkpt>
      <trkpt lat="45.73561" lon="6.48315">
        <ele>1762</ele>
        <time>2022-07-17T05:47:25Z</time>
      </trkpt>
      <trkpt lat="45.7356" lon="6.48316">
        <ele>1761</ele>
        <time>2022-07-17T05:47:27Z</time>
      </trkpt>
      <trkpt lat="45.73559" lon="6.48316">
        <ele>1761</ele>
        <time>2022-07-17T05:47:29Z</time>
      </trkpt>
      <trkpt lat="45.73559" lon="6.48317">
        <ele>1761</ele>
        <time>2022-07-17T05:47:30Z</time>
      </trkpt>
      <trkpt lat="45.73558" lon="6.48317">
        <ele>1760</ele>
        <time>2022-07-17T05:47:32Z</time>
      </trkpt>
      <trkpt lat="45.73558" lon="6.48318">
        <ele>1760</ele>
        <time>2022-07-17T05:47:33Z</time>
      </trkpt>
      <trkpt lat="45.73557" lon="6.48318">
        <ele>1759</ele>
        <time>2022-07-17T05:47:34Z</time>
      </trkpt>
      <trkpt lat="45.73556" lon="6.48319">
        <ele>1758</ele>
        <time>2022-07-17T05:47:36Z</time>
      </trkpt>
      <trkpt lat="45.73555" lon="6.48319">
        <ele>1758</ele>
        <time>2022-07-17T05:47:39Z</time>
      </trkpt>
      <trkpt lat="45.73555" lon="6.4832">
        <ele>1758</ele>
        <time>2022-07-17T05:47:40Z</time>
      </trkpt>
      <trkpt lat="45.73554" lon="6.4832">
        <ele>1757</ele>
        <time>2022-07-17T05:47:41Z</time>
      </trkpt>
      <trkpt lat="45.73554" lon="6.48321">
        <ele>1757</ele>
        <time>2022-07-17T05:47:43Z</time>
      </trkpt>
      <trkpt lat="45.73553" lon="6.48321">
        <ele>1756</ele>
        <time>2022-07-17T05:47:44Z</time>
      </trkpt>
      <trkpt lat="45.73552" lon="6.4832">
        <ele>1755</ele>
        <time>2022-07-17T05:47:46Z</time>
      </trkpt>
      <trkpt lat="45.73551" lon="6.48319">
        <ele>1755</ele>
        <time>2022-07-17T05:47:47Z</time>
      </trkpt>
      <trkpt lat="45.73551" lon="6.48317">
        <ele>1755</ele>
        <time>2022-07-17T05:47:48Z</time>
      </trkpt>
      <trkpt lat="45.7355" lon="6.48316">
        <ele>1755</ele>
        <time>2022-07-17T05:47:49Z</time>
      </trkpt>
      <trkpt lat="45.73549" lon="6.48314">
        <ele>1754</ele>
        <time>2022-07-17T05:47:50Z</time>
      </trkpt>
      <trkpt lat="45.73548" lon="6.48313">
        <ele>1754</ele>
        <time>2022-07-17T05:47:52Z</time>
      </trkpt>
      <trkpt lat="45.73548" lon="6.48311">
        <ele>1754</ele>
        <time>2022-07-17T05:47:53Z</time>
      </trkpt>
      <trkpt lat="45.73547" lon="6.4831">
        <ele>1753</ele>
        <time>2022-07-17T05:47:54Z</time>
      </trkpt>
      <trkpt lat="45.73546" lon="6.48308">
        <ele>1753</ele>
        <time>2022-07-17T05:47:55Z</time>
      </trkpt>
      <trkpt lat="45.73546" lon="6.48306">
        <ele>1753</ele>
        <time>2022-07-17T05:47:56Z</time>
      </trkpt>
      <trkpt lat="45.73545" lon="6.48304">
        <ele>1753</ele>
        <time>2022-07-17T05:47:57Z</time>
      </trkpt>
      <trkpt lat="45.73544" lon="6.48301">
        <ele>1753</ele>
        <time>2022-07-17T05:47:58Z</time>
      </trkpt>
      <trkpt lat="45.73544" lon="6.48299">
        <ele>1753</ele>
        <time>2022-07-17T05:47:59Z</time>
      </trkpt>
      <trkpt lat="45.73543" lon="6.48297">
        <ele>1753</ele>
        <time>2022-07-17T05:48:00Z</time>
      </trkpt>
      <trkpt lat="45.73543" lon="6.48296">
        <ele>1752</ele>
        <time>2022-07-17T05:48:01Z</time>
      </trkpt>
      <trkpt lat="45.73542" lon="6.48294">
        <ele>1752</ele>
        <time>2022-07-17T05:48:02Z</time>
      </trkpt>
      <trkpt lat="45.73542" lon="6.48293">
        <ele>1752</ele>
        <time>2022-07-17T05:48:03Z</time>
      </trkpt>
      <trkpt lat="45.73542" lon="6.48292">
        <ele>1752</ele>
        <time>2022-07-17T05:48:04Z</time>
      </trkpt>
      <trkpt lat="45.73541" lon="6.4829">
        <ele>1751</ele>
        <time>2022-07-17T05:48:05Z</time>
      </trkpt>
      <trkpt lat="45.73541" lon="6.48289">
        <ele>1751</ele>
        <time>2022-07-17T05:48:06Z</time>
      </trkpt>
      <trkpt lat="45.73541" lon="6.48287">
        <ele>1751</ele>
        <time>2022-07-17T05:48:07Z</time>
      </trkpt>
      <trkpt lat="45.7354" lon="6.48286">
        <ele>1751</ele>
        <time>2022-07-17T05:48:08Z</time>
      </trkpt>
      <trkpt lat="45.7354" lon="6.48285">
        <ele>1751</ele>
        <time>2022-07-17T05:48:09Z</time>
      </trkpt>
      <trkpt lat="45.7354" lon="6.48283">
        <ele>1750</ele>
        <time>2022-07-17T05:48:10Z</time>
      </trkpt>
      <trkpt lat="45.7354" lon="6.48282">
        <ele>1750</ele>
        <time>2022-07-17T05:48:11Z</time>
      </trkpt>
      <trkpt lat="45.7354" lon="6.48281">
        <ele>1750</ele>
        <time>2022-07-17T05:48:12Z</time>
      </trkpt>
      <trkpt lat="45.7354" lon="6.48279">
        <ele>1749</ele>
        <time>2022-07-17T05:48:13Z</time>
      </trkpt>
      <trkpt lat="45.7354" lon="6.48278">
        <ele>1749</ele>
        <time>2022-07-17T05:48:14Z</time>
      </trkpt>
      <trkpt lat="45.7354" lon="6.48277">
        <ele>1749</ele>
        <time>2022-07-17T05:48:15Z</time>
      </trkpt>
      <trkpt lat="45.7354" lon="6.48275">
        <ele>1749</ele>
        <time>2022-07-17T05:48:16Z</time>
      </trkpt>
      <trkpt lat="45.7354" lon="6.48274">
        <ele>1749</ele>
        <time>2022-07-17T05:48:17Z</time>
      </trkpt>
      <trkpt lat="45.7354" lon="6.48273">
        <ele>1749</ele>
        <time>2022-07-17T05:48:18Z</time>
      </trkpt>
      <trkpt lat="45.7354" lon="6.48271">
        <ele>1748</ele>
        <time>2022-07-17T05:48:19Z</time>
      </trkpt>
      <trkpt lat="45.7354" lon="6.4827">
        <ele>1748</ele>
        <time>2022-07-17T05:48:20Z</time>
      </trkpt>
      <trkpt lat="45.73541" lon="6.48268">
        <ele>1748</ele>
        <time>2022-07-17T05:48:21Z</time>
      </trkpt>
      <trkpt lat="45.73541" lon="6.48267">
        <ele>1748</ele>
        <time>2022-07-17T05:48:22Z</time>
      </trkpt>
      <trkpt lat="45.73542" lon="6.48265">
        <ele>1748</ele>
        <time>2022-07-17T05:48:23Z</time>
      </trkpt>
      <trkpt lat="45.73542" lon="6.48263">
        <ele>1748</ele>
        <time>2022-07-17T05:48:24Z</time>
      </trkpt>
      <trkpt lat="45.73543" lon="6.48262">
        <ele>1747</ele>
        <time>2022-07-17T05:48:25Z</time>
      </trkpt>
      <trkpt lat="45.73543" lon="6.4826">
        <ele>1747</ele>
        <time>2022-07-17T05:48:26Z</time>
      </trkpt>
      <trkpt lat="45.73544" lon="6.48259">
        <ele>1747</ele>
        <time>2022-07-17T05:48:27Z</time>
      </trkpt>
      <trkpt lat="45.73545" lon="6.48257">
        <ele>1747</ele>
        <time>2022-07-17T05:48:28Z</time>
      </trkpt>
      <trkpt lat="45.73545" lon="6.48255">
        <ele>1747</ele>
        <time>2022-07-17T05:48:30Z</time>
      </trkpt>
      <trkpt lat="45.73546" lon="6.48253">
        <ele>1745</ele>
        <time>2022-07-17T05:48:31Z</time>
      </trkpt>
      <trkpt lat="45.73547" lon="6.48251">
        <ele>1745</ele>
        <time>2022-07-17T05:48:32Z</time>
      </trkpt>
      <trkpt lat="45.73547" lon="6.4825">
        <ele>1745</ele>
        <time>2022-07-17T05:48:33Z</time>
      </trkpt>
      <trkpt lat="45.73548" lon="6.48248">
        <ele>1745</ele>
        <time>2022-07-17T05:48:34Z</time>
      </trkpt>
      <trkpt lat="45.73549" lon="6.48246">
        <ele>1745</ele>
        <time>2022-07-17T05:48:35Z</time>
      </trkpt>
      <trkpt lat="45.73548" lon="6.48244">
        <ele>1744</ele>
        <time>2022-07-17T05:48:36Z</time>
      </trkpt>
      <trkpt lat="45.73548" lon="6.48242">
        <ele>1744</ele>
        <time>2022-07-17T05:48:37Z</time>
      </trkpt>
      <trkpt lat="45.73548" lon="6.48239">
        <ele>1744</ele>
        <time>2022-07-17T05:48:38Z</time>
      </trkpt>
      <trkpt lat="45.73547" lon="6.48237">
        <ele>1744</ele>
        <time>2022-07-17T05:48:39Z</time>
      </trkpt>
      <trkpt lat="45.73547" lon="6.48235">
        <ele>1744</ele>
        <time>2022-07-17T05:48:40Z</time>
      </trkpt>
      <trkpt lat="45.73546" lon="6.48233">
        <ele>1744</ele>
        <time>2022-07-17T05:48:41Z</time>
      </trkpt>
      <trkpt lat="45.73545" lon="6.48233">
        <ele>1744</ele>
        <time>2022-07-17T05:48:44Z</time>
      </trkpt>
      <trkpt lat="45.73545" lon="6.48234">
        <ele>1744</ele>
        <time>2022-07-17T05:48:45Z</time>
      </trkpt>
      <trkpt lat="45.73544" lon="6.48234">
        <ele>1743</ele>
        <time>2022-07-17T05:48:48Z</time>
      </trkpt>
      <trkpt lat="45.73544" lon="6.48235">
        <ele>1742</ele>
        <time>2022-07-17T05:48:50Z</time>
      </trkpt>
      <trkpt lat="45.73543" lon="6.48235">
        <ele>1741</ele>
        <time>2022-07-17T05:48:52Z</time>
      </trkpt>
      <trkpt lat="45.73543" lon="6.48236">
        <ele>1740</ele>
        <time>2022-07-17T05:48:55Z</time>
      </trkpt>
      <trkpt lat="45.73542" lon="6.48236">
        <ele>1740</ele>
        <time>2022-07-17T05:48:56Z</time>
      </trkpt>
      <trkpt lat="45.73541" lon="6.48237">
        <ele>1739</ele>
        <time>2022-07-17T05:49:00Z</time>
      </trkpt>
      <trkpt lat="45.7354" lon="6.48237">
        <ele>1739</ele>
        <time>2022-07-17T05:49:03Z</time>
      </trkpt>
      <trkpt lat="45.7354" lon="6.48238">
        <ele>1739</ele>
        <time>2022-07-17T05:49:04Z</time>
      </trkpt>
      <trkpt lat="45.73539" lon="6.48238">
        <ele>1739</ele>
        <time>2022-07-17T05:49:08Z</time>
      </trkpt>
      <trkpt lat="45.73539" lon="6.48239">
        <ele>1737</ele>
        <time>2022-07-17T05:49:10Z</time>
      </trkpt>
      <trkpt lat="45.73538" lon="6.48239">
        <ele>1737</ele>
        <time>2022-07-17T05:49:12Z</time>
      </trkpt>
      <trkpt lat="45.73536" lon="6.4824">
        <ele>1737</ele>
        <time>2022-07-17T05:49:14Z</time>
      </trkpt>
      <trkpt lat="45.73533" lon="6.4824">
        <ele>1736</ele>
        <time>2022-07-17T05:49:15Z</time>
      </trkpt>
      <trkpt lat="45.73531" lon="6.48241">
        <ele>1736</ele>
        <time>2022-07-17T05:49:16Z</time>
      </trkpt>
      <trkpt lat="45.73529" lon="6.48241">
        <ele>1736</ele>
        <time>2022-07-17T05:49:17Z</time>
      </trkpt>
      <trkpt lat="45.73528" lon="6.4824">
        <ele>1736</ele>
        <time>2022-07-17T05:49:18Z</time>
      </trkpt>
      <trkpt lat="45.73527" lon="6.48238">
        <ele>1736</ele>
        <time>2022-07-17T05:49:19Z</time>
      </trkpt>
      <trkpt lat="45.73527" lon="6.48236">
        <ele>1735</ele>
        <time>2022-07-17T05:49:20Z</time>
      </trkpt>
      <trkpt lat="45.73526" lon="6.48235">
        <ele>1734</ele>
        <time>2022-07-17T05:49:21Z</time>
      </trkpt>
      <trkpt lat="45.73526" lon="6.48233">
        <ele>1734</ele>
        <time>2022-07-17T05:49:22Z</time>
      </trkpt>
      <trkpt lat="45.73525" lon="6.48232">
        <ele>1734</ele>
        <time>2022-07-17T05:49:23Z</time>
      </trkpt>
      <trkpt lat="45.73525" lon="6.4823">
        <ele>1734</ele>
        <time>2022-07-17T05:49:24Z</time>
      </trkpt>
      <trkpt lat="45.73524" lon="6.48228">
        <ele>1734</ele>
        <time>2022-07-17T05:49:25Z</time>
      </trkpt>
      <trkpt lat="45.73524" lon="6.48227">
        <ele>1734</ele>
        <time>2022-07-17T05:49:27Z</time>
      </trkpt>
      <trkpt lat="45.73523" lon="6.48226">
        <ele>1732</ele>
        <time>2022-07-17T05:49:28Z</time>
      </trkpt>
      <trkpt lat="45.73523" lon="6.48225">
        <ele>1732</ele>
        <time>2022-07-17T05:49:29Z</time>
      </trkpt>
      <trkpt lat="45.73523" lon="6.48224">
        <ele>1732</ele>
        <time>2022-07-17T05:49:30Z</time>
      </trkpt>
      <trkpt lat="45.73522" lon="6.48223">
        <ele>1731</ele>
        <time>2022-07-17T05:49:32Z</time>
      </trkpt>
      <trkpt lat="45.73522" lon="6.48222">
        <ele>1731</ele>
        <time>2022-07-17T05:49:33Z</time>
      </trkpt>
      <trkpt lat="45.73522" lon="6.48221">
        <ele>1731</ele>
        <time>2022-07-17T05:49:34Z</time>
      </trkpt>
      <trkpt lat="45.73521" lon="6.4822">
        <ele>1730</ele>
        <time>2022-07-17T05:49:36Z</time>
      </trkpt>
      <trkpt lat="45.73521" lon="6.48219">
        <ele>1730</ele>
        <time>2022-07-17T05:49:37Z</time>
      </trkpt>
      <trkpt lat="45.73521" lon="6.48218">
        <ele>1729</ele>
        <time>2022-07-17T05:49:38Z</time>
      </trkpt>
      <trkpt lat="45.7352" lon="6.48217">
        <ele>1728</ele>
        <time>2022-07-17T05:49:40Z</time>
      </trkpt>
      <trkpt lat="45.7352" lon="6.48216">
        <ele>1728</ele>
        <time>2022-07-17T05:49:41Z</time>
      </trkpt>
      <trkpt lat="45.7352" lon="6.48215">
        <ele>1728</ele>
        <time>2022-07-17T05:49:42Z</time>
      </trkpt>
      <trkpt lat="45.73521" lon="6.48214">
        <ele>1728</ele>
        <time>2022-07-17T05:49:43Z</time>
      </trkpt>
      <trkpt lat="45.73522" lon="6.48212">
        <ele>1728</ele>
        <time>2022-07-17T05:49:44Z</time>
      </trkpt>
      <trkpt lat="45.73523" lon="6.4821">
        <ele>1728</ele>
        <time>2022-07-17T05:49:45Z</time>
      </trkpt>
      <trkpt lat="45.73524" lon="6.48208">
        <ele>1728</ele>
        <time>2022-07-17T05:49:46Z</time>
      </trkpt>
      <trkpt lat="45.73525" lon="6.48206">
        <ele>1728</ele>
        <time>2022-07-17T05:49:47Z</time>
      </trkpt>
      <trkpt lat="45.73526" lon="6.48204">
        <ele>1728</ele>
        <time>2022-07-17T05:49:48Z</time>
      </trkpt>
      <trkpt lat="45.73527" lon="6.48202">
        <ele>1728</ele>
        <time>2022-07-17T05:49:49Z</time>
      </trkpt>
      <trkpt lat="45.73528" lon="6.482">
        <ele>1727</ele>
        <time>2022-07-17T05:49:50Z</time>
      </trkpt>
      <trkpt lat="45.7353" lon="6.48198">
        <ele>1727</ele>
        <time>2022-07-17T05:49:51Z</time>
      </trkpt>
      <trkpt lat="45.73531" lon="6.48196">
        <ele>1727</ele>
        <time>2022-07-17T05:49:52Z</time>
      </trkpt>
      <trkpt lat="45.73532" lon="6.48194">
        <ele>1727</ele>
        <time>2022-07-17T05:49:53Z</time>
      </trkpt>
      <trkpt lat="45.73533" lon="6.48193">
        <ele>1727</ele>
        <time>2022-07-17T05:49:54Z</time>
      </trkpt>
      <trkpt lat="45.73535" lon="6.48191">
        <ele>1727</ele>
        <time>2022-07-17T05:49:55Z</time>
      </trkpt>
      <trkpt lat="45.73536" lon="6.48189">
        <ele>1727</ele>
        <time>2022-07-17T05:49:56Z</time>
      </trkpt>
      <trkpt lat="45.73537" lon="6.48187">
        <ele>1727</ele>
        <time>2022-07-17T05:49:57Z</time>
      </trkpt>
      <trkpt lat="45.73539" lon="6.48185">
        <ele>1726</ele>
        <time>2022-07-17T05:49:58Z</time>
      </trkpt>
      <trkpt lat="45.73545" lon="6.48174">
        <ele>1724</ele>
        <time>2022-07-17T05:50:05Z</time>
      </trkpt>
      <trkpt lat="45.73545" lon="6.48171">
        <ele>1724</ele>
        <time>2022-07-17T05:50:06Z</time>
      </trkpt>
      <trkpt lat="45.73545" lon="6.48167">
        <ele>1724</ele>
        <time>2022-07-17T05:50:08Z</time>
      </trkpt>
      <trkpt lat="45.73544" lon="6.48164">
        <ele>1723</ele>
        <time>2022-07-17T05:50:10Z</time>
      </trkpt>
      <trkpt lat="45.73542" lon="6.48162">
        <ele>1723</ele>
        <time>2022-07-17T05:50:12Z</time>
      </trkpt>
      <trkpt lat="45.7354" lon="6.48159">
        <ele>1722</ele>
        <time>2022-07-17T05:50:14Z</time>
      </trkpt>
      <trkpt lat="45.73538" lon="6.48156">
        <ele>1721</ele>
        <time>2022-07-17T05:50:16Z</time>
      </trkpt>
      <trkpt lat="45.73537" lon="6.48153">
        <ele>1721</ele>
        <time>2022-07-17T05:50:18Z</time>
      </trkpt>
      <trkpt lat="45.73535" lon="6.48151">
        <ele>1720</ele>
        <time>2022-07-17T05:50:20Z</time>
      </trkpt>
      <trkpt lat="45.73534" lon="6.48148">
        <ele>1719</ele>
        <time>2022-07-17T05:50:22Z</time>
      </trkpt>
      <trkpt lat="45.73532" lon="6.48145">
        <ele>1719</ele>
        <time>2022-07-17T05:50:24Z</time>
      </trkpt>
      <trkpt lat="45.73533" lon="6.48141">
        <ele>1717</ele>
        <time>2022-07-17T05:50:26Z</time>
      </trkpt>
      <trkpt lat="45.73534" lon="6.48138">
        <ele>1717</ele>
        <time>2022-07-17T05:50:28Z</time>
      </trkpt>
      <trkpt lat="45.73535" lon="6.48134">
        <ele>1716</ele>
        <time>2022-07-17T05:50:30Z</time>
      </trkpt>
      <trkpt lat="45.73536" lon="6.4813">
        <ele>1716</ele>
        <time>2022-07-17T05:50:32Z</time>
      </trkpt>
      <trkpt lat="45.73537" lon="6.48126">
        <ele>1716</ele>
        <time>2022-07-17T05:50:34Z</time>
      </trkpt>
      <trkpt lat="45.73538" lon="6.48122">
        <ele>1715</ele>
        <time>2022-07-17T05:50:36Z</time>
      </trkpt>
      <trkpt lat="45.73538" lon="6.48118">
        <ele>1715</ele>
        <time>2022-07-17T05:50:38Z</time>
      </trkpt>
      <trkpt lat="45.73539" lon="6.48115">
        <ele>1713</ele>
        <time>2022-07-17T05:50:40Z</time>
      </trkpt>
      <trkpt lat="45.73539" lon="6.48113">
        <ele>1712</ele>
        <time>2022-07-17T05:50:41Z</time>
      </trkpt>
      <trkpt lat="45.7354" lon="6.48111">
        <ele>1712</ele>
        <time>2022-07-17T05:50:42Z</time>
      </trkpt>
      <trkpt lat="45.7354" lon="6.48109">
        <ele>1712</ele>
        <time>2022-07-17T05:50:43Z</time>
      </trkpt>
      <trkpt lat="45.73541" lon="6.48106">
        <ele>1712</ele>
        <time>2022-07-17T05:50:44Z</time>
      </trkpt>
      <trkpt lat="45.73541" lon="6.48102">
        <ele>1711</ele>
        <time>2022-07-17T05:50:45Z</time>
      </trkpt>
      <trkpt lat="45.73541" lon="6.48098">
        <ele>1711</ele>
        <time>2022-07-17T05:50:47Z</time>
      </trkpt>
      <trkpt lat="45.73542" lon="6.48094">
        <ele>1710</ele>
        <time>2022-07-17T05:50:49Z</time>
      </trkpt>
      <trkpt lat="45.73542" lon="6.48091">
        <ele>1710</ele>
        <time>2022-07-17T05:50:51Z</time>
      </trkpt>
      <trkpt lat="45.73543" lon="6.48087">
        <ele>1709</ele>
        <time>2022-07-17T05:50:53Z</time>
      </trkpt>
      <trkpt lat="45.73542" lon="6.48083">
        <ele>1708</ele>
        <time>2022-07-17T05:50:55Z</time>
      </trkpt>
      <trkpt lat="45.73542" lon="6.4808">
        <ele>1708</ele>
        <time>2022-07-17T05:50:57Z</time>
      </trkpt>
      <trkpt lat="45.73541" lon="6.48077">
        <ele>1707</ele>
        <time>2022-07-17T05:50:59Z</time>
      </trkpt>
      <trkpt lat="45.73542" lon="6.48074">
        <ele>1706</ele>
        <time>2022-07-17T05:51:01Z</time>
      </trkpt>
      <trkpt lat="45.73541" lon="6.4807">
        <ele>1706</ele>
        <time>2022-07-17T05:51:03Z</time>
      </trkpt>
      <trkpt lat="45.73541" lon="6.48066">
        <ele>1705</ele>
        <time>2022-07-17T05:51:05Z</time>
      </trkpt>
      <trkpt lat="45.73541" lon="6.48062">
        <ele>1704</ele>
        <time>2022-07-17T05:51:07Z</time>
      </trkpt>
      <trkpt lat="45.73541" lon="6.48059">
        <ele>1704</ele>
        <time>2022-07-17T05:51:08Z</time>
      </trkpt>
      <trkpt lat="45.73542" lon="6.48055">
        <ele>1704</ele>
        <time>2022-07-17T05:51:10Z</time>
      </trkpt>
      <trkpt lat="45.73543" lon="6.48051">
        <ele>1704</ele>
        <time>2022-07-17T05:51:12Z</time>
      </trkpt>
      <trkpt lat="45.73544" lon="6.48046">
        <ele>1703</ele>
        <time>2022-07-17T05:51:14Z</time>
      </trkpt>
      <trkpt lat="45.73544" lon="6.48043">
        <ele>1703</ele>
        <time>2022-07-17T05:51:16Z</time>
      </trkpt>
      <trkpt lat="45.73544" lon="6.48038">
        <ele>1702</ele>
        <time>2022-07-17T05:51:18Z</time>
      </trkpt>
      <trkpt lat="45.73544" lon="6.48035">
        <ele>1701</ele>
        <time>2022-07-17T05:51:21Z</time>
      </trkpt>
      <trkpt lat="45.73544" lon="6.48031">
        <ele>1700</ele>
        <time>2022-07-17T05:51:22Z</time>
      </trkpt>
      <trkpt lat="45.73545" lon="6.48024">
        <ele>1700</ele>
        <time>2022-07-17T05:51:26Z</time>
      </trkpt>
      <trkpt lat="45.73545" lon="6.48022">
        <ele>1699</ele>
        <time>2022-07-17T05:51:28Z</time>
      </trkpt>
      <trkpt lat="45.73546" lon="6.4802">
        <ele>1699</ele>
        <time>2022-07-17T05:51:29Z</time>
      </trkpt>
      <trkpt lat="45.73547" lon="6.48018">
        <ele>1698</ele>
        <time>2022-07-17T05:51:30Z</time>
      </trkpt>
      <trkpt lat="45.73548" lon="6.48015">
        <ele>1698</ele>
        <time>2022-07-17T05:51:31Z</time>
      </trkpt>
      <trkpt lat="45.73546" lon="6.4801">
        <ele>1698</ele>
        <time>2022-07-17T05:51:33Z</time>
      </trkpt>
      <trkpt lat="45.73545" lon="6.48007">
        <ele>1698</ele>
        <time>2022-07-17T05:51:35Z</time>
      </trkpt>
      <trkpt lat="45.73545" lon="6.48005">
        <ele>1697</ele>
        <time>2022-07-17T05:51:37Z</time>
      </trkpt>
      <trkpt lat="45.73545" lon="6.48003">
        <ele>1697</ele>
        <time>2022-07-17T05:51:38Z</time>
      </trkpt>
      <trkpt lat="45.73545" lon="6.48001">
        <ele>1696</ele>
        <time>2022-07-17T05:51:39Z</time>
      </trkpt>
      <trkpt lat="45.73545" lon="6.47999">
        <ele>1696</ele>
        <time>2022-07-17T05:51:40Z</time>
      </trkpt>
      <trkpt lat="45.73545" lon="6.47997">
        <ele>1696</ele>
        <time>2022-07-17T05:51:41Z</time>
      </trkpt>
      <trkpt lat="45.73545" lon="6.47995">
        <ele>1696</ele>
        <time>2022-07-17T05:51:42Z</time>
      </trkpt>
      <trkpt lat="45.73546" lon="6.47993">
        <ele>1696</ele>
        <time>2022-07-17T05:51:43Z</time>
      </trkpt>
      <trkpt lat="45.73545" lon="6.47989">
        <ele>1696</ele>
        <time>2022-07-17T05:51:44Z</time>
      </trkpt>
      <trkpt lat="45.73545" lon="6.47987">
        <ele>1695</ele>
        <time>2022-07-17T05:51:45Z</time>
      </trkpt>
      <trkpt lat="45.73545" lon="6.47984">
        <ele>1695</ele>
        <time>2022-07-17T05:51:46Z</time>
      </trkpt>
      <trkpt lat="45.73545" lon="6.4798">
        <ele>1695</ele>
        <time>2022-07-17T05:51:48Z</time>
      </trkpt>
      <trkpt lat="45.73546" lon="6.47976">
        <ele>1695</ele>
        <time>2022-07-17T05:51:50Z</time>
      </trkpt>
      <trkpt lat="45.73546" lon="6.47973">
        <ele>1695</ele>
        <time>2022-07-17T05:51:51Z</time>
      </trkpt>
      <trkpt lat="45.73546" lon="6.47969">
        <ele>1695</ele>
        <time>2022-07-17T05:51:53Z</time>
      </trkpt>
      <trkpt lat="45.73545" lon="6.47964">
        <ele>1694</ele>
        <time>2022-07-17T05:51:55Z</time>
      </trkpt>
      <trkpt lat="45.73545" lon="6.47959">
        <ele>1693</ele>
        <time>2022-07-17T05:51:57Z</time>
      </trkpt>
      <trkpt lat="45.73544" lon="6.47954">
        <ele>1693</ele>
        <time>2022-07-17T05:51:59Z</time>
      </trkpt>
      <trkpt lat="45.73544" lon="6.4795">
        <ele>1692</ele>
        <time>2022-07-17T05:52:01Z</time>
      </trkpt>
      <trkpt lat="45.73544" lon="6.47946">
        <ele>1692</ele>
        <time>2022-07-17T05:52:03Z</time>
      </trkpt>
      <trkpt lat="45.73544" lon="6.47943">
        <ele>1692</ele>
        <time>2022-07-17T05:52:05Z</time>
      </trkpt>
      <trkpt lat="45.73543" lon="6.4794">
        <ele>1692</ele>
        <time>2022-07-17T05:52:07Z</time>
      </trkpt>
      <trkpt lat="45.73543" lon="6.47935">
        <ele>1692</ele>
        <time>2022-07-17T05:52:09Z</time>
      </trkpt>
      <trkpt lat="45.73544" lon="6.47931">
        <ele>1692</ele>
        <time>2022-07-17T05:52:11Z</time>
      </trkpt>
      <trkpt lat="45.73544" lon="6.47929">
        <ele>1692</ele>
        <time>2022-07-17T05:52:13Z</time>
      </trkpt>
      <trkpt lat="45.73544" lon="6.47926">
        <ele>1692</ele>
        <time>2022-07-17T05:52:14Z</time>
      </trkpt>
      <trkpt lat="45.73545" lon="6.47924">
        <ele>1692</ele>
        <time>2022-07-17T05:52:15Z</time>
      </trkpt>
      <trkpt lat="45.73545" lon="6.47921">
        <ele>1692</ele>
        <time>2022-07-17T05:52:16Z</time>
      </trkpt>
      <trkpt lat="45.73546" lon="6.47918">
        <ele>1691</ele>
        <time>2022-07-17T05:52:18Z</time>
      </trkpt>
      <trkpt lat="45.73547" lon="6.47915">
        <ele>1690</ele>
        <time>2022-07-17T05:52:19Z</time>
      </trkpt>
      <trkpt lat="45.73547" lon="6.47911">
        <ele>1690</ele>
        <time>2022-07-17T05:52:21Z</time>
      </trkpt>
      <trkpt lat="45.73548" lon="6.47906">
        <ele>1690</ele>
        <time>2022-07-17T05:52:23Z</time>
      </trkpt>
      <trkpt lat="45.73548" lon="6.47903">
        <ele>1690</ele>
        <time>2022-07-17T05:52:24Z</time>
      </trkpt>
      <trkpt lat="45.73549" lon="6.47899">
        <ele>1690</ele>
        <time>2022-07-17T05:52:26Z</time>
      </trkpt>
      <trkpt lat="45.73549" lon="6.47894">
        <ele>1690</ele>
        <time>2022-07-17T05:52:28Z</time>
      </trkpt>
      <trkpt lat="45.7355" lon="6.4789">
        <ele>1690</ele>
        <time>2022-07-17T05:52:30Z</time>
      </trkpt>
      <trkpt lat="45.73551" lon="6.47882">
        <ele>1689</ele>
        <time>2022-07-17T05:52:34Z</time>
      </trkpt>
      <trkpt lat="45.73552" lon="6.47875">
        <ele>1688</ele>
        <time>2022-07-17T05:52:37Z</time>
      </trkpt>
      <trkpt lat="45.73553" lon="6.47872">
        <ele>1688</ele>
        <time>2022-07-17T05:52:39Z</time>
      </trkpt>
      <trkpt lat="45.73554" lon="6.47869">
        <ele>1687</ele>
        <time>2022-07-17T05:52:41Z</time>
      </trkpt>
      <trkpt lat="45.73555" lon="6.47865">
        <ele>1687</ele>
        <time>2022-07-17T05:52:43Z</time>
      </trkpt>
      <trkpt lat="45.73556" lon="6.47861">
        <ele>1686</ele>
        <time>2022-07-17T05:52:45Z</time>
      </trkpt>
      <trkpt lat="45.73556" lon="6.47857">
        <ele>1685</ele>
        <time>2022-07-17T05:52:47Z</time>
      </trkpt>
      <trkpt lat="45.73557" lon="6.47854">
        <ele>1685</ele>
        <time>2022-07-17T05:52:49Z</time>
      </trkpt>
      <trkpt lat="45.73557" lon="6.47851">
        <ele>1684</ele>
        <time>2022-07-17T05:52:51Z</time>
      </trkpt>
      <trkpt lat="45.73556" lon="6.47848">
        <ele>1684</ele>
        <time>2022-07-17T05:52:53Z</time>
      </trkpt>
      <trkpt lat="45.73557" lon="6.47844">
        <ele>1683</ele>
        <time>2022-07-17T05:52:56Z</time>
      </trkpt>
      <trkpt lat="45.73556" lon="6.4784">
        <ele>1683</ele>
        <time>2022-07-17T05:52:57Z</time>
      </trkpt>
      <trkpt lat="45.73556" lon="6.47836">
        <ele>1682</ele>
        <time>2022-07-17T05:52:59Z</time>
      </trkpt>
      <trkpt lat="45.73556" lon="6.47833">
        <ele>1682</ele>
        <time>2022-07-17T05:53:01Z</time>
      </trkpt>
      <trkpt lat="45.73556" lon="6.47829">
        <ele>1682</ele>
        <time>2022-07-17T05:53:03Z</time>
      </trkpt>
      <trkpt lat="45.73556" lon="6.47824">
        <ele>1682</ele>
        <time>2022-07-17T05:53:05Z</time>
      </trkpt>
      <trkpt lat="45.73555" lon="6.47821">
        <ele>1681</ele>
        <time>2022-07-17T05:53:07Z</time>
      </trkpt>
      <trkpt lat="45.73554" lon="6.47818">
        <ele>1681</ele>
        <time>2022-07-17T05:53:09Z</time>
      </trkpt>
      <trkpt lat="45.73554" lon="6.47813">
        <ele>1680</ele>
        <time>2022-07-17T05:53:11Z</time>
      </trkpt>
      <trkpt lat="45.73554" lon="6.47811">
        <ele>1680</ele>
        <time>2022-07-17T05:53:13Z</time>
      </trkpt>
      <trkpt lat="45.73554" lon="6.47808">
        <ele>1680</ele>
        <time>2022-07-17T05:53:14Z</time>
      </trkpt>
      <trkpt lat="45.73554" lon="6.47806">
        <ele>1680</ele>
        <time>2022-07-17T05:53:15Z</time>
      </trkpt>
      <trkpt lat="45.73553" lon="6.47804">
        <ele>1679</ele>
        <time>2022-07-17T05:53:16Z</time>
      </trkpt>
      <trkpt lat="45.73553" lon="6.47801">
        <ele>1679</ele>
        <time>2022-07-17T05:53:17Z</time>
      </trkpt>
      <trkpt lat="45.73553" lon="6.47796">
        <ele>1679</ele>
        <time>2022-07-17T05:53:18Z</time>
      </trkpt>
      <trkpt lat="45.73552" lon="6.47792">
        <ele>1679</ele>
        <time>2022-07-17T05:53:20Z</time>
      </trkpt>
      <trkpt lat="45.7355" lon="6.47787">
        <ele>1679</ele>
        <time>2022-07-17T05:53:22Z</time>
      </trkpt>
      <trkpt lat="45.73549" lon="6.47783">
        <ele>1679</ele>
        <time>2022-07-17T05:53:24Z</time>
      </trkpt>
      <trkpt lat="45.73547" lon="6.47779">
        <ele>1679</ele>
        <time>2022-07-17T05:53:26Z</time>
      </trkpt>
      <trkpt lat="45.73546" lon="6.47776">
        <ele>1679</ele>
        <time>2022-07-17T05:53:28Z</time>
      </trkpt>
      <trkpt lat="45.73545" lon="6.47773">
        <ele>1679</ele>
        <time>2022-07-17T05:53:30Z</time>
      </trkpt>
      <trkpt lat="45.73545" lon="6.4777">
        <ele>1679</ele>
        <time>2022-07-17T05:53:32Z</time>
      </trkpt>
      <trkpt lat="45.73544" lon="6.47765">
        <ele>1679</ele>
        <time>2022-07-17T05:53:34Z</time>
      </trkpt>
      <trkpt lat="45.73543" lon="6.4776">
        <ele>1678</ele>
        <time>2022-07-17T05:53:36Z</time>
      </trkpt>
      <trkpt lat="45.73542" lon="6.47758">
        <ele>1679</ele>
        <time>2022-07-17T05:53:38Z</time>
      </trkpt>
      <trkpt lat="45.73542" lon="6.47755">
        <ele>1679</ele>
        <time>2022-07-17T05:53:40Z</time>
      </trkpt>
      <trkpt lat="45.73542" lon="6.47751">
        <ele>1679</ele>
        <time>2022-07-17T05:53:42Z</time>
      </trkpt>
      <trkpt lat="45.73542" lon="6.47748">
        <ele>1679</ele>
        <time>2022-07-17T05:53:44Z</time>
      </trkpt>
      <trkpt lat="45.73542" lon="6.47745">
        <ele>1679</ele>
        <time>2022-07-17T05:53:46Z</time>
      </trkpt>
      <trkpt lat="45.73542" lon="6.47742">
        <ele>1679</ele>
        <time>2022-07-17T05:53:48Z</time>
      </trkpt>
      <trkpt lat="45.73542" lon="6.47738">
        <ele>1679</ele>
        <time>2022-07-17T05:53:51Z</time>
      </trkpt>
      <trkpt lat="45.73542" lon="6.47737">
        <ele>1679</ele>
        <time>2022-07-17T05:53:52Z</time>
      </trkpt>
      <trkpt lat="45.73542" lon="6.47736">
        <ele>1679</ele>
        <time>2022-07-17T05:53:54Z</time>
      </trkpt>
      <trkpt lat="45.73542" lon="6.47735">
        <ele>1679</ele>
        <time>2022-07-17T05:53:55Z</time>
      </trkpt>
      <trkpt lat="45.73542" lon="6.47734">
        <ele>1679</ele>
        <time>2022-07-17T05:53:56Z</time>
      </trkpt>
      <trkpt lat="45.73542" lon="6.47733">
        <ele>1679</ele>
        <time>2022-07-17T05:53:57Z</time>
      </trkpt>
      <trkpt lat="45.73542" lon="6.47732">
        <ele>1680</ele>
        <time>2022-07-17T05:53:58Z</time>
      </trkpt>
      <trkpt lat="45.73542" lon="6.47729">
        <ele>1681</ele>
        <time>2022-07-17T05:54:00Z</time>
      </trkpt>
      <trkpt lat="45.73542" lon="6.47725">
        <ele>1681</ele>
        <time>2022-07-17T05:54:02Z</time>
      </trkpt>
      <trkpt lat="45.73541" lon="6.4772">
        <ele>1681</ele>
        <time>2022-07-17T05:54:04Z</time>
      </trkpt>
      <trkpt lat="45.73542" lon="6.47716">
        <ele>1681</ele>
        <time>2022-07-17T05:54:06Z</time>
      </trkpt>
      <trkpt lat="45.73544" lon="6.47712">
        <ele>1681</ele>
        <time>2022-07-17T05:54:08Z</time>
      </trkpt>
      <trkpt lat="45.73545" lon="6.47709">
        <ele>1681</ele>
        <time>2022-07-17T05:54:10Z</time>
      </trkpt>
      <trkpt lat="45.73547" lon="6.47704">
        <ele>1681</ele>
        <time>2022-07-17T05:54:12Z</time>
      </trkpt>
      <trkpt lat="45.73547" lon="6.47702">
        <ele>1681</ele>
        <time>2022-07-17T05:54:13Z</time>
      </trkpt>
      <trkpt lat="45.73549" lon="6.47697">
        <ele>1681</ele>
        <time>2022-07-17T05:54:15Z</time>
      </trkpt>
      <trkpt lat="45.73549" lon="6.47693">
        <ele>1681</ele>
        <time>2022-07-17T05:54:17Z</time>
      </trkpt>
      <trkpt lat="45.7355" lon="6.47689">
        <ele>1682</ele>
        <time>2022-07-17T05:54:19Z</time>
      </trkpt>
      <trkpt lat="45.7355" lon="6.47686">
        <ele>1682</ele>
        <time>2022-07-17T05:54:20Z</time>
      </trkpt>
      <trkpt lat="45.7355" lon="6.47683">
        <ele>1681</ele>
        <time>2022-07-17T05:54:21Z</time>
      </trkpt>
      <trkpt lat="45.73551" lon="6.47679">
        <ele>1681</ele>
        <time>2022-07-17T05:54:23Z</time>
      </trkpt>
      <trkpt lat="45.73551" lon="6.47674">
        <ele>1681</ele>
        <time>2022-07-17T05:54:25Z</time>
      </trkpt>
      <trkpt lat="45.7355" lon="6.47669">
        <ele>1681</ele>
        <time>2022-07-17T05:54:27Z</time>
      </trkpt>
      <trkpt lat="45.73549" lon="6.47666">
        <ele>1680</ele>
        <time>2022-07-17T05:54:28Z</time>
      </trkpt>
      <trkpt lat="45.73549" lon="6.47664">
        <ele>1680</ele>
        <time>2022-07-17T05:54:30Z</time>
      </trkpt>
      <trkpt lat="45.73548" lon="6.47662">
        <ele>1680</ele>
        <time>2022-07-17T05:54:31Z</time>
      </trkpt>
      <trkpt lat="45.73548" lon="6.4766">
        <ele>1680</ele>
        <time>2022-07-17T05:54:32Z</time>
      </trkpt>
      <trkpt lat="45.73547" lon="6.47656">
        <ele>1680</ele>
        <time>2022-07-17T05:54:33Z</time>
      </trkpt>
      <trkpt lat="45.73546" lon="6.47653">
        <ele>1679</ele>
        <time>2022-07-17T05:54:35Z</time>
      </trkpt>
      <trkpt lat="45.73546" lon="6.47649">
        <ele>1679</ele>
        <time>2022-07-17T05:54:37Z</time>
      </trkpt>
      <trkpt lat="45.73544" lon="6.47646">
        <ele>1679</ele>
        <time>2022-07-17T05:54:39Z</time>
      </trkpt>
      <trkpt lat="45.73543" lon="6.47643">
        <ele>1679</ele>
        <time>2022-07-17T05:54:41Z</time>
      </trkpt>
      <trkpt lat="45.73541" lon="6.47641">
        <ele>1679</ele>
        <time>2022-07-17T05:54:43Z</time>
      </trkpt>
      <trkpt lat="45.73539" lon="6.4764">
        <ele>1678</ele>
        <time>2022-07-17T05:54:46Z</time>
      </trkpt>
      <trkpt lat="45.73537" lon="6.47638">
        <ele>1678</ele>
        <time>2022-07-17T05:54:50Z</time>
      </trkpt>
      <trkpt lat="45.73535" lon="6.47636">
        <ele>1677</ele>
        <time>2022-07-17T05:54:51Z</time>
      </trkpt>
      <trkpt lat="45.73533" lon="6.47636">
        <ele>1676</ele>
        <time>2022-07-17T05:54:53Z</time>
      </trkpt>
      <trkpt lat="45.7353" lon="6.47634">
        <ele>1676</ele>
        <time>2022-07-17T05:54:55Z</time>
      </trkpt>
      <trkpt lat="45.73528" lon="6.47634">
        <ele>1676</ele>
        <time>2022-07-17T05:54:56Z</time>
      </trkpt>
      <trkpt lat="45.73525" lon="6.47632">
        <ele>1675</ele>
        <time>2022-07-17T05:54:58Z</time>
      </trkpt>
      <trkpt lat="45.73523" lon="6.4763">
        <ele>1675</ele>
        <time>2022-07-17T05:55:00Z</time>
      </trkpt>
      <trkpt lat="45.73522" lon="6.47627">
        <ele>1675</ele>
        <time>2022-07-17T05:55:02Z</time>
      </trkpt>
      <trkpt lat="45.73521" lon="6.47625">
        <ele>1675</ele>
        <time>2022-07-17T05:55:04Z</time>
      </trkpt>
      <trkpt lat="45.73519" lon="6.47622">
        <ele>1675</ele>
        <time>2022-07-17T05:55:06Z</time>
      </trkpt>
      <trkpt lat="45.73518" lon="6.47619">
        <ele>1674</ele>
        <time>2022-07-17T05:55:08Z</time>
      </trkpt>
      <trkpt lat="45.73517" lon="6.47616">
        <ele>1672</ele>
        <time>2022-07-17T05:55:11Z</time>
      </trkpt>
      <trkpt lat="45.73517" lon="6.47614">
        <ele>1672</ele>
        <time>2022-07-17T05:55:13Z</time>
      </trkpt>
      <trkpt lat="45.73515" lon="6.47612">
        <ele>1672</ele>
        <time>2022-07-17T05:55:15Z</time>
      </trkpt>
      <trkpt lat="45.73514" lon="6.47609">
        <ele>1672</ele>
        <time>2022-07-17T05:55:17Z</time>
      </trkpt>
      <trkpt lat="45.73512" lon="6.47607">
        <ele>1672</ele>
        <time>2022-07-17T05:55:20Z</time>
      </trkpt>
      <trkpt lat="45.7351" lon="6.47606">
        <ele>1672</ele>
        <time>2022-07-17T05:55:22Z</time>
      </trkpt>
      <trkpt lat="45.73507" lon="6.47605">
        <ele>1672</ele>
        <time>2022-07-17T05:55:24Z</time>
      </trkpt>
      <trkpt lat="45.73504" lon="6.47605">
        <ele>1672</ele>
        <time>2022-07-17T05:55:26Z</time>
      </trkpt>
      <trkpt lat="45.73502" lon="6.47604">
        <ele>1672</ele>
        <time>2022-07-17T05:55:28Z</time>
      </trkpt>
      <trkpt lat="45.73501" lon="6.476">
        <ele>1671</ele>
        <time>2022-07-17T05:55:30Z</time>
      </trkpt>
      <trkpt lat="45.735" lon="6.47596">
        <ele>1672</ele>
        <time>2022-07-17T05:55:32Z</time>
      </trkpt>
      <trkpt lat="45.735" lon="6.47592">
        <ele>1672</ele>
        <time>2022-07-17T05:55:34Z</time>
      </trkpt>
      <trkpt lat="45.73499" lon="6.47587">
        <ele>1672</ele>
        <time>2022-07-17T05:55:36Z</time>
      </trkpt>
      <trkpt lat="45.73498" lon="6.47584">
        <ele>1672</ele>
        <time>2022-07-17T05:55:38Z</time>
      </trkpt>
      <trkpt lat="45.73498" lon="6.47581">
        <ele>1672</ele>
        <time>2022-07-17T05:55:40Z</time>
      </trkpt>
      <trkpt lat="45.73496" lon="6.47579">
        <ele>1672</ele>
        <time>2022-07-17T05:55:42Z</time>
      </trkpt>
      <trkpt lat="45.73495" lon="6.47576">
        <ele>1671</ele>
        <time>2022-07-17T05:55:44Z</time>
      </trkpt>
      <trkpt lat="45.73493" lon="6.47575">
        <ele>1671</ele>
        <time>2022-07-17T05:55:46Z</time>
      </trkpt>
      <trkpt lat="45.73492" lon="6.47575">
        <ele>1671</ele>
        <time>2022-07-17T05:55:47Z</time>
      </trkpt>
      <trkpt lat="45.7349" lon="6.47574">
        <ele>1671</ele>
        <time>2022-07-17T05:55:48Z</time>
      </trkpt>
      <trkpt lat="45.73487" lon="6.47574">
        <ele>1671</ele>
        <time>2022-07-17T05:55:49Z</time>
      </trkpt>
      <trkpt lat="45.73485" lon="6.47574">
        <ele>1671</ele>
        <time>2022-07-17T05:55:51Z</time>
      </trkpt>
      <trkpt lat="45.73483" lon="6.47574">
        <ele>1670</ele>
        <time>2022-07-17T05:55:53Z</time>
      </trkpt>
      <trkpt lat="45.7348" lon="6.47574">
        <ele>1669</ele>
        <time>2022-07-17T05:55:55Z</time>
      </trkpt>
      <trkpt lat="45.73477" lon="6.47573">
        <ele>1669</ele>
        <time>2022-07-17T05:55:57Z</time>
      </trkpt>
      <trkpt lat="45.73475" lon="6.47572">
        <ele>1668</ele>
        <time>2022-07-17T05:55:59Z</time>
      </trkpt>
      <trkpt lat="45.73472" lon="6.4757">
        <ele>1667</ele>
        <time>2022-07-17T05:56:01Z</time>
      </trkpt>
      <trkpt lat="45.7347" lon="6.47569">
        <ele>1667</ele>
        <time>2022-07-17T05:56:03Z</time>
      </trkpt>
      <trkpt lat="45.73467" lon="6.47567">
        <ele>1667</ele>
        <time>2022-07-17T05:56:06Z</time>
      </trkpt>
      <trkpt lat="45.73466" lon="6.47566">
        <ele>1665</ele>
        <time>2022-07-17T05:56:08Z</time>
      </trkpt>
      <trkpt lat="45.73465" lon="6.47565">
        <ele>1665</ele>
        <time>2022-07-17T05:56:09Z</time>
      </trkpt>
      <trkpt lat="45.73464" lon="6.47563">
        <ele>1665</ele>
        <time>2022-07-17T05:56:10Z</time>
      </trkpt>
      <trkpt lat="45.73462" lon="6.47562">
        <ele>1665</ele>
        <time>2022-07-17T05:56:11Z</time>
      </trkpt>
      <trkpt lat="45.73459" lon="6.47561">
        <ele>1665</ele>
        <time>2022-07-17T05:56:12Z</time>
      </trkpt>
      <trkpt lat="45.73457" lon="6.47559">
        <ele>1664</ele>
        <time>2022-07-17T05:56:14Z</time>
      </trkpt>
      <trkpt lat="45.73456" lon="6.47558">
        <ele>1663</ele>
        <time>2022-07-17T05:56:16Z</time>
      </trkpt>
      <trkpt lat="45.73455" lon="6.47557">
        <ele>1663</ele>
        <time>2022-07-17T05:56:17Z</time>
      </trkpt>
      <trkpt lat="45.73453" lon="6.47556">
        <ele>1663</ele>
        <time>2022-07-17T05:56:18Z</time>
      </trkpt>
      <trkpt lat="45.73452" lon="6.47555">
        <ele>1663</ele>
        <time>2022-07-17T05:56:19Z</time>
      </trkpt>
      <trkpt lat="45.73451" lon="6.47554">
        <ele>1663</ele>
        <time>2022-07-17T05:56:20Z</time>
      </trkpt>
      <trkpt lat="45.73448" lon="6.47554">
        <ele>1662</ele>
        <time>2022-07-17T05:56:22Z</time>
      </trkpt>
      <trkpt lat="45.73444" lon="6.4755">
        <ele>1661</ele>
        <time>2022-07-17T05:56:25Z</time>
      </trkpt>
      <trkpt lat="45.73442" lon="6.47548">
        <ele>1661</ele>
        <time>2022-07-17T05:56:26Z</time>
      </trkpt>
      <trkpt lat="45.7344" lon="6.47547">
        <ele>1661</ele>
        <time>2022-07-17T05:56:27Z</time>
      </trkpt>
      <trkpt lat="45.73439" lon="6.47545">
        <ele>1661</ele>
        <time>2022-07-17T05:56:28Z</time>
      </trkpt>
      <trkpt lat="45.73437" lon="6.47541">
        <ele>1660</ele>
        <time>2022-07-17T05:56:30Z</time>
      </trkpt>
      <trkpt lat="45.73435" lon="6.47539">
        <ele>1660</ele>
        <time>2022-07-17T05:56:31Z</time>
      </trkpt>
      <trkpt lat="45.73433" lon="6.47536">
        <ele>1660</ele>
        <time>2022-07-17T05:56:33Z</time>
      </trkpt>
      <trkpt lat="45.73432" lon="6.47533">
        <ele>1660</ele>
        <time>2022-07-17T05:56:34Z</time>
      </trkpt>
      <trkpt lat="45.73431" lon="6.47531">
        <ele>1660</ele>
        <time>2022-07-17T05:56:35Z</time>
      </trkpt>
      <trkpt lat="45.7343" lon="6.47529">
        <ele>1660</ele>
        <time>2022-07-17T05:56:36Z</time>
      </trkpt>
      <trkpt lat="45.73428" lon="6.47526">
        <ele>1659</ele>
        <time>2022-07-17T05:56:37Z</time>
      </trkpt>
      <trkpt lat="45.73427" lon="6.47523">
        <ele>1659</ele>
        <time>2022-07-17T05:56:39Z</time>
      </trkpt>
      <trkpt lat="45.73425" lon="6.47519">
        <ele>1659</ele>
        <time>2022-07-17T05:56:41Z</time>
      </trkpt>
      <trkpt lat="45.73423" lon="6.47515">
        <ele>1659</ele>
        <time>2022-07-17T05:56:44Z</time>
      </trkpt>
      <trkpt lat="45.73421" lon="6.47512">
        <ele>1659</ele>
        <time>2022-07-17T05:56:45Z</time>
      </trkpt>
      <trkpt lat="45.7342" lon="6.47509">
        <ele>1659</ele>
        <time>2022-07-17T05:56:47Z</time>
      </trkpt>
      <trkpt lat="45.73419" lon="6.47505">
        <ele>1658</ele>
        <time>2022-07-17T05:56:49Z</time>
      </trkpt>
      <trkpt lat="45.73419" lon="6.47501">
        <ele>1658</ele>
        <time>2022-07-17T05:56:51Z</time>
      </trkpt>
      <trkpt lat="45.73418" lon="6.47498">
        <ele>1657</ele>
        <time>2022-07-17T05:56:53Z</time>
      </trkpt>
      <trkpt lat="45.73417" lon="6.47494">
        <ele>1656</ele>
        <time>2022-07-17T05:56:55Z</time>
      </trkpt>
      <trkpt lat="45.73417" lon="6.47491">
        <ele>1656</ele>
        <time>2022-07-17T05:56:57Z</time>
      </trkpt>
      <trkpt lat="45.73416" lon="6.47487">
        <ele>1655</ele>
        <time>2022-07-17T05:56:59Z</time>
      </trkpt>
      <trkpt lat="45.73414" lon="6.47484">
        <ele>1654</ele>
        <time>2022-07-17T05:57:01Z</time>
      </trkpt>
      <trkpt lat="45.73413" lon="6.47482">
        <ele>1653</ele>
        <time>2022-07-17T05:57:04Z</time>
      </trkpt>
      <trkpt lat="45.73412" lon="6.47479">
        <ele>1653</ele>
        <time>2022-07-17T05:57:05Z</time>
      </trkpt>
      <trkpt lat="45.7341" lon="6.47476">
        <ele>1653</ele>
        <time>2022-07-17T05:57:07Z</time>
      </trkpt>
      <trkpt lat="45.73408" lon="6.47474">
        <ele>1653</ele>
        <time>2022-07-17T05:57:09Z</time>
      </trkpt>
      <trkpt lat="45.73407" lon="6.47472">
        <ele>1653</ele>
        <time>2022-07-17T05:57:11Z</time>
      </trkpt>
      <trkpt lat="45.73404" lon="6.47471">
        <ele>1652</ele>
        <time>2022-07-17T05:57:13Z</time>
      </trkpt>
      <trkpt lat="45.73402" lon="6.4747">
        <ele>1651</ele>
        <time>2022-07-17T05:57:15Z</time>
      </trkpt>
      <trkpt lat="45.734" lon="6.47469">
        <ele>1651</ele>
        <time>2022-07-17T05:57:17Z</time>
      </trkpt>
      <trkpt lat="45.73398" lon="6.47468">
        <ele>1651</ele>
        <time>2022-07-17T05:57:19Z</time>
      </trkpt>
      <trkpt lat="45.73396" lon="6.47468">
        <ele>1649</ele>
        <time>2022-07-17T05:57:23Z</time>
      </trkpt>
      <trkpt lat="45.73395" lon="6.47469">
        <ele>1648</ele>
        <time>2022-07-17T05:57:25Z</time>
      </trkpt>
      <trkpt lat="45.73393" lon="6.47472">
        <ele>1647</ele>
        <time>2022-07-17T05:57:29Z</time>
      </trkpt>
      <trkpt lat="45.73393" lon="6.47473">
        <ele>1646</ele>
        <time>2022-07-17T05:57:31Z</time>
      </trkpt>
      <trkpt lat="45.73392" lon="6.47473">
        <ele>1646</ele>
        <time>2022-07-17T05:57:32Z</time>
      </trkpt>
      <trkpt lat="45.73392" lon="6.47474">
        <ele>1646</ele>
        <time>2022-07-17T05:57:33Z</time>
      </trkpt>
      <trkpt lat="45.73392" lon="6.47475">
        <ele>1646</ele>
        <time>2022-07-17T05:57:34Z</time>
      </trkpt>
      <trkpt lat="45.73391" lon="6.47475">
        <ele>1646</ele>
        <time>2022-07-17T05:57:35Z</time>
      </trkpt>
      <trkpt lat="45.73391" lon="6.47476">
        <ele>1645</ele>
        <time>2022-07-17T05:57:36Z</time>
      </trkpt>
      <trkpt lat="45.73391" lon="6.47477">
        <ele>1644</ele>
        <time>2022-07-17T05:57:37Z</time>
      </trkpt>
      <trkpt lat="45.7339" lon="6.47478">
        <ele>1644</ele>
        <time>2022-07-17T05:57:38Z</time>
      </trkpt>
      <trkpt lat="45.7339" lon="6.47479">
        <ele>1643</ele>
        <time>2022-07-17T05:57:40Z</time>
      </trkpt>
      <trkpt lat="45.73389" lon="6.4748">
        <ele>1643</ele>
        <time>2022-07-17T05:57:41Z</time>
      </trkpt>
      <trkpt lat="45.73389" lon="6.47481">
        <ele>1643</ele>
        <time>2022-07-17T05:57:42Z</time>
      </trkpt>
      <trkpt lat="45.73388" lon="6.47482">
        <ele>1642</ele>
        <time>2022-07-17T05:57:44Z</time>
      </trkpt>
      <trkpt lat="45.73388" lon="6.47483">
        <ele>1642</ele>
        <time>2022-07-17T05:57:45Z</time>
      </trkpt>
      <trkpt lat="45.73386" lon="6.47486">
        <ele>1642</ele>
        <time>2022-07-17T05:57:49Z</time>
      </trkpt>
      <trkpt lat="45.73386" lon="6.47488">
        <ele>1642</ele>
        <time>2022-07-17T05:57:50Z</time>
      </trkpt>
      <trkpt lat="45.73385" lon="6.47489">
        <ele>1641</ele>
        <time>2022-07-17T05:57:51Z</time>
      </trkpt>
      <trkpt lat="45.73385" lon="6.47491">
        <ele>1640</ele>
        <time>2022-07-17T05:57:52Z</time>
      </trkpt>
      <trkpt lat="45.73384" lon="6.47493">
        <ele>1640</ele>
        <time>2022-07-17T05:57:53Z</time>
      </trkpt>
      <trkpt lat="45.73384" lon="6.47495">
        <ele>1640</ele>
        <time>2022-07-17T05:57:54Z</time>
      </trkpt>
      <trkpt lat="45.73384" lon="6.47496">
        <ele>1639</ele>
        <time>2022-07-17T05:57:55Z</time>
      </trkpt>
      <trkpt lat="45.73383" lon="6.47498">
        <ele>1639</ele>
        <time>2022-07-17T05:57:56Z</time>
      </trkpt>
      <trkpt lat="45.73382" lon="6.47501">
        <ele>1639</ele>
        <time>2022-07-17T05:57:57Z</time>
      </trkpt>
      <trkpt lat="45.73381" lon="6.47504">
        <ele>1639</ele>
        <time>2022-07-17T05:58:00Z</time>
      </trkpt>
      <trkpt lat="45.73381" lon="6.47507">
        <ele>1638</ele>
        <time>2022-07-17T05:58:01Z</time>
      </trkpt>
      <trkpt lat="45.73381" lon="6.47511">
        <ele>1638</ele>
        <time>2022-07-17T05:58:03Z</time>
      </trkpt>
      <trkpt lat="45.7338" lon="6.47514">
        <ele>1638</ele>
        <time>2022-07-17T05:58:06Z</time>
      </trkpt>
      <trkpt lat="45.73379" lon="6.47517">
        <ele>1637</ele>
        <time>2022-07-17T05:58:08Z</time>
      </trkpt>
      <trkpt lat="45.73379" lon="6.47519">
        <ele>1637</ele>
        <time>2022-07-17T05:58:09Z</time>
      </trkpt>
      <trkpt lat="45.73379" lon="6.47521">
        <ele>1637</ele>
        <time>2022-07-17T05:58:10Z</time>
      </trkpt>
      <trkpt lat="45.73379" lon="6.47523">
        <ele>1637</ele>
        <time>2022-07-17T05:58:11Z</time>
      </trkpt>
      <trkpt lat="45.73379" lon="6.47525">
        <ele>1637</ele>
        <time>2022-07-17T05:58:12Z</time>
      </trkpt>
      <trkpt lat="45.73378" lon="6.47527">
        <ele>1636</ele>
        <time>2022-07-17T05:58:13Z</time>
      </trkpt>
      <trkpt lat="45.73378" lon="6.4754">
        <ele>1635</ele>
        <time>2022-07-17T05:58:19Z</time>
      </trkpt>
      <trkpt lat="45.73378" lon="6.47544">
        <ele>1635</ele>
        <time>2022-07-17T05:58:20Z</time>
      </trkpt>
      <trkpt lat="45.73379" lon="6.47547">
        <ele>1634</ele>
        <time>2022-07-17T05:58:23Z</time>
      </trkpt>
      <trkpt lat="45.73377" lon="6.47549">
        <ele>1634</ele>
        <time>2022-07-17T05:58:25Z</time>
      </trkpt>
      <trkpt lat="45.73375" lon="6.47556">
        <ele>1633</ele>
        <time>2022-07-17T05:58:29Z</time>
      </trkpt>
      <trkpt lat="45.73368" lon="6.47559">
        <ele>1632</ele>
        <time>2022-07-17T05:58:32Z</time>
      </trkpt>
      <trkpt lat="45.73367" lon="6.47559">
        <ele>1632</ele>
        <time>2022-07-17T05:58:33Z</time>
      </trkpt>
      <trkpt lat="45.73365" lon="6.4756">
        <ele>1631</ele>
        <time>2022-07-17T05:58:34Z</time>
      </trkpt>
      <trkpt lat="45.73363" lon="6.4756">
        <ele>1631</ele>
        <time>2022-07-17T05:58:36Z</time>
      </trkpt>
      <trkpt lat="45.73361" lon="6.4756">
        <ele>1631</ele>
        <time>2022-07-17T05:58:37Z</time>
      </trkpt>
      <trkpt lat="45.73359" lon="6.4756">
        <ele>1631</ele>
        <time>2022-07-17T05:58:38Z</time>
      </trkpt>
      <trkpt lat="45.73357" lon="6.4756">
        <ele>1631</ele>
        <time>2022-07-17T05:58:39Z</time>
      </trkpt>
      <trkpt lat="45.73354" lon="6.47559">
        <ele>1631</ele>
        <time>2022-07-17T05:58:40Z</time>
      </trkpt>
      <trkpt lat="45.73352" lon="6.47559">
        <ele>1630</ele>
        <time>2022-07-17T05:58:42Z</time>
      </trkpt>
      <trkpt lat="45.73352" lon="6.47558">
        <ele>1630</ele>
        <time>2022-07-17T05:58:44Z</time>
      </trkpt>
      <trkpt lat="45.73351" lon="6.47557">
        <ele>1630</ele>
        <time>2022-07-17T05:58:45Z</time>
      </trkpt>
      <trkpt lat="45.7335" lon="6.47556">
        <ele>1630</ele>
        <time>2022-07-17T05:58:46Z</time>
      </trkpt>
      <trkpt lat="45.73349" lon="6.47555">
        <ele>1629</ele>
        <time>2022-07-17T05:58:47Z</time>
      </trkpt>
      <trkpt lat="45.73348" lon="6.47555">
        <ele>1629</ele>
        <time>2022-07-17T05:58:48Z</time>
      </trkpt>
      <trkpt lat="45.73347" lon="6.47554">
        <ele>1629</ele>
        <time>2022-07-17T05:58:49Z</time>
      </trkpt>
      <trkpt lat="45.73346" lon="6.47553">
        <ele>1629</ele>
        <time>2022-07-17T05:58:50Z</time>
      </trkpt>
      <trkpt lat="45.73345" lon="6.47552">
        <ele>1628</ele>
        <time>2022-07-17T05:58:51Z</time>
      </trkpt>
      <trkpt lat="45.73344" lon="6.47551">
        <ele>1628</ele>
        <time>2022-07-17T05:58:52Z</time>
      </trkpt>
      <trkpt lat="45.73343" lon="6.4755">
        <ele>1628</ele>
        <time>2022-07-17T05:58:53Z</time>
      </trkpt>
      <trkpt lat="45.73343" lon="6.47548">
        <ele>1627</ele>
        <time>2022-07-17T05:58:54Z</time>
      </trkpt>
      <trkpt lat="45.73342" lon="6.47545">
        <ele>1627</ele>
        <time>2022-07-17T05:58:55Z</time>
      </trkpt>
      <trkpt lat="45.73341" lon="6.47542">
        <ele>1627</ele>
        <time>2022-07-17T05:58:57Z</time>
      </trkpt>
      <trkpt lat="45.73341" lon="6.4754">
        <ele>1627</ele>
        <time>2022-07-17T05:58:58Z</time>
      </trkpt>
      <trkpt lat="45.7334" lon="6.47537">
        <ele>1627</ele>
        <time>2022-07-17T05:58:59Z</time>
      </trkpt>
      <trkpt lat="45.73339" lon="6.47535">
        <ele>1627</ele>
        <time>2022-07-17T05:59:00Z</time>
      </trkpt>
      <trkpt lat="45.73339" lon="6.47534">
        <ele>1627</ele>
        <time>2022-07-17T05:59:01Z</time>
      </trkpt>
      <trkpt lat="45.73339" lon="6.47532">
        <ele>1627</ele>
        <time>2022-07-17T05:59:02Z</time>
      </trkpt>
      <trkpt lat="45.73338" lon="6.47531">
        <ele>1627</ele>
        <time>2022-07-17T05:59:03Z</time>
      </trkpt>
      <trkpt lat="45.73338" lon="6.47529">
        <ele>1627</ele>
        <time>2022-07-17T05:59:04Z</time>
      </trkpt>
      <trkpt lat="45.73338" lon="6.47528">
        <ele>1626</ele>
        <time>2022-07-17T05:59:05Z</time>
      </trkpt>
      <trkpt lat="45.73337" lon="6.47526">
        <ele>1626</ele>
        <time>2022-07-17T05:59:06Z</time>
      </trkpt>
      <trkpt lat="45.73337" lon="6.47525">
        <ele>1626</ele>
        <time>2022-07-17T05:59:07Z</time>
      </trkpt>
      <trkpt lat="45.73337" lon="6.47523">
        <ele>1626</ele>
        <time>2022-07-17T05:59:08Z</time>
      </trkpt>
      <trkpt lat="45.73336" lon="6.47519">
        <ele>1625</ele>
        <time>2022-07-17T05:59:10Z</time>
      </trkpt>
      <trkpt lat="45.73336" lon="6.47516">
        <ele>1624</ele>
        <time>2022-07-17T05:59:12Z</time>
      </trkpt>
      <trkpt lat="45.73335" lon="6.47513">
        <ele>1623</ele>
        <time>2022-07-17T05:59:16Z</time>
      </trkpt>
      <trkpt lat="45.73334" lon="6.47509">
        <ele>1623</ele>
        <time>2022-07-17T05:59:17Z</time>
      </trkpt>
      <trkpt lat="45.73333" lon="6.47507">
        <ele>1622</ele>
        <time>2022-07-17T05:59:19Z</time>
      </trkpt>
      <trkpt lat="45.73333" lon="6.47505">
        <ele>1622</ele>
        <time>2022-07-17T05:59:20Z</time>
      </trkpt>
      <trkpt lat="45.73333" lon="6.47503">
        <ele>1622</ele>
        <time>2022-07-17T05:59:21Z</time>
      </trkpt>
      <trkpt lat="45.73332" lon="6.47501">
        <ele>1622</ele>
        <time>2022-07-17T05:59:22Z</time>
      </trkpt>
      <trkpt lat="45.73332" lon="6.47499">
        <ele>1622</ele>
        <time>2022-07-17T05:59:23Z</time>
      </trkpt>
      <trkpt lat="45.73332" lon="6.47497">
        <ele>1622</ele>
        <time>2022-07-17T05:59:24Z</time>
      </trkpt>
      <trkpt lat="45.73331" lon="6.47495">
        <ele>1622</ele>
        <time>2022-07-17T05:59:25Z</time>
      </trkpt>
      <trkpt lat="45.73331" lon="6.47493">
        <ele>1622</ele>
        <time>2022-07-17T05:59:26Z</time>
      </trkpt>
      <trkpt lat="45.7333" lon="6.47492">
        <ele>1622</ele>
        <time>2022-07-17T05:59:27Z</time>
      </trkpt>
      <trkpt lat="45.7333" lon="6.4749">
        <ele>1621</ele>
        <time>2022-07-17T05:59:28Z</time>
      </trkpt>
      <trkpt lat="45.73329" lon="6.47489">
        <ele>1621</ele>
        <time>2022-07-17T05:59:29Z</time>
      </trkpt>
      <trkpt lat="45.73329" lon="6.47487">
        <ele>1621</ele>
        <time>2022-07-17T05:59:30Z</time>
      </trkpt>
      <trkpt lat="45.73329" lon="6.47486">
        <ele>1620</ele>
        <time>2022-07-17T05:59:31Z</time>
      </trkpt>
      <trkpt lat="45.73328" lon="6.47484">
        <ele>1620</ele>
        <time>2022-07-17T05:59:32Z</time>
      </trkpt>
      <trkpt lat="45.73328" lon="6.47483">
        <ele>1620</ele>
        <time>2022-07-17T05:59:33Z</time>
      </trkpt>
      <trkpt lat="45.73328" lon="6.47481">
        <ele>1620</ele>
        <time>2022-07-17T05:59:34Z</time>
      </trkpt>
      <trkpt lat="45.73327" lon="6.47479">
        <ele>1620</ele>
        <time>2022-07-17T05:59:35Z</time>
      </trkpt>
      <trkpt lat="45.73327" lon="6.47477">
        <ele>1619</ele>
        <time>2022-07-17T05:59:36Z</time>
      </trkpt>
      <trkpt lat="45.73327" lon="6.47475">
        <ele>1619</ele>
        <time>2022-07-17T05:59:37Z</time>
      </trkpt>
      <trkpt lat="45.73327" lon="6.47472">
        <ele>1619</ele>
        <time>2022-07-17T05:59:38Z</time>
      </trkpt>
      <trkpt lat="45.73326" lon="6.4747">
        <ele>1619</ele>
        <time>2022-07-17T05:59:40Z</time>
      </trkpt>
      <trkpt lat="45.73326" lon="6.47468">
        <ele>1618</ele>
        <time>2022-07-17T05:59:41Z</time>
      </trkpt>
      <trkpt lat="45.73326" lon="6.47466">
        <ele>1618</ele>
        <time>2022-07-17T05:59:42Z</time>
      </trkpt>
      <trkpt lat="45.73325" lon="6.47464">
        <ele>1617</ele>
        <time>2022-07-17T05:59:43Z</time>
      </trkpt>
      <trkpt lat="45.73325" lon="6.47463">
        <ele>1617</ele>
        <time>2022-07-17T05:59:44Z</time>
      </trkpt>
      <trkpt lat="45.73325" lon="6.47461">
        <ele>1617</ele>
        <time>2022-07-17T05:59:45Z</time>
      </trkpt>
      <trkpt lat="45.73325" lon="6.47458">
        <ele>1617</ele>
        <time>2022-07-17T05:59:46Z</time>
      </trkpt>
      <trkpt lat="45.73325" lon="6.47455">
        <ele>1617</ele>
        <time>2022-07-17T05:59:48Z</time>
      </trkpt>
      <trkpt lat="45.73325" lon="6.47453">
        <ele>1617</ele>
        <time>2022-07-17T05:59:49Z</time>
      </trkpt>
      <trkpt lat="45.73324" lon="6.47451">
        <ele>1616</ele>
        <time>2022-07-17T05:59:50Z</time>
      </trkpt>
      <trkpt lat="45.73324" lon="6.47449">
        <ele>1616</ele>
        <time>2022-07-17T05:59:51Z</time>
      </trkpt>
      <trkpt lat="45.73324" lon="6.47445">
        <ele>1615</ele>
        <time>2022-07-17T05:59:52Z</time>
      </trkpt>
      <trkpt lat="45.73324" lon="6.47443">
        <ele>1615</ele>
        <time>2022-07-17T05:59:54Z</time>
      </trkpt>
      <trkpt lat="45.73324" lon="6.47441">
        <ele>1615</ele>
        <time>2022-07-17T05:59:55Z</time>
      </trkpt>
      <trkpt lat="45.73325" lon="6.47439">
        <ele>1614</ele>
        <time>2022-07-17T05:59:56Z</time>
      </trkpt>
      <trkpt lat="45.73326" lon="6.47436">
        <ele>1614</ele>
        <time>2022-07-17T05:59:59Z</time>
      </trkpt>
      <trkpt lat="45.73325" lon="6.47437">
        <ele>1613</ele>
        <time>2022-07-17T06:00:02Z</time>
      </trkpt>
      <trkpt lat="45.73325" lon="6.47438">
        <ele>1612</ele>
        <time>2022-07-17T06:00:03Z</time>
      </trkpt>
      <trkpt lat="45.73325" lon="6.47439">
        <ele>1612</ele>
        <time>2022-07-17T06:00:05Z</time>
      </trkpt>
      <trkpt lat="45.73324" lon="6.4744">
        <ele>1612</ele>
        <time>2022-07-17T06:00:06Z</time>
      </trkpt>
      <trkpt lat="45.73324" lon="6.47441">
        <ele>1612</ele>
        <time>2022-07-17T06:00:08Z</time>
      </trkpt>
      <trkpt lat="45.73323" lon="6.47444">
        <ele>1611</ele>
        <time>2022-07-17T06:00:09Z</time>
      </trkpt>
      <trkpt lat="45.73322" lon="6.47446">
        <ele>1611</ele>
        <time>2022-07-17T06:00:11Z</time>
      </trkpt>
      <trkpt lat="45.73322" lon="6.47449">
        <ele>1609</ele>
        <time>2022-07-17T06:00:14Z</time>
      </trkpt>
      <trkpt lat="45.73321" lon="6.47451">
        <ele>1608</ele>
        <time>2022-07-17T06:00:15Z</time>
      </trkpt>
      <trkpt lat="45.7332" lon="6.47452">
        <ele>1608</ele>
        <time>2022-07-17T06:00:16Z</time>
      </trkpt>
      <trkpt lat="45.7332" lon="6.47454">
        <ele>1608</ele>
        <time>2022-07-17T06:00:17Z</time>
      </trkpt>
      <trkpt lat="45.73319" lon="6.47455">
        <ele>1608</ele>
        <time>2022-07-17T06:00:18Z</time>
      </trkpt>
      <trkpt lat="45.73317" lon="6.47458">
        <ele>1608</ele>
        <time>2022-07-17T06:00:19Z</time>
      </trkpt>
      <trkpt lat="45.73318" lon="6.4746">
        <ele>1608</ele>
        <time>2022-07-17T06:00:21Z</time>
      </trkpt>
      <trkpt lat="45.73315" lon="6.47462">
        <ele>1608</ele>
        <time>2022-07-17T06:00:23Z</time>
      </trkpt>
      <trkpt lat="45.73313" lon="6.47459">
        <ele>1607</ele>
        <time>2022-07-17T06:00:26Z</time>
      </trkpt>
      <trkpt lat="45.73312" lon="6.47457">
        <ele>1606</ele>
        <time>2022-07-17T06:00:28Z</time>
      </trkpt>
      <trkpt lat="45.73309" lon="6.47452">
        <ele>1606</ele>
        <time>2022-07-17T06:00:32Z</time>
      </trkpt>
      <trkpt lat="45.73308" lon="6.4745">
        <ele>1605</ele>
        <time>2022-07-17T06:00:35Z</time>
      </trkpt>
      <trkpt lat="45.73307" lon="6.47448">
        <ele>1604</ele>
        <time>2022-07-17T06:00:36Z</time>
      </trkpt>
      <trkpt lat="45.73306" lon="6.47446">
        <ele>1604</ele>
        <time>2022-07-17T06:00:37Z</time>
      </trkpt>
      <trkpt lat="45.73305" lon="6.47444">
        <ele>1604</ele>
        <time>2022-07-17T06:00:38Z</time>
      </trkpt>
      <trkpt lat="45.73305" lon="6.47442">
        <ele>1604</ele>
        <time>2022-07-17T06:00:39Z</time>
      </trkpt>
      <trkpt lat="45.73304" lon="6.4744">
        <ele>1603</ele>
        <time>2022-07-17T06:00:40Z</time>
      </trkpt>
      <trkpt lat="45.73304" lon="6.47437">
        <ele>1603</ele>
        <time>2022-07-17T06:00:41Z</time>
      </trkpt>
      <trkpt lat="45.73304" lon="6.47434">
        <ele>1603</ele>
        <time>2022-07-17T06:00:43Z</time>
      </trkpt>
      <trkpt lat="45.73302" lon="6.4743">
        <ele>1602</ele>
        <time>2022-07-17T06:00:45Z</time>
      </trkpt>
      <trkpt lat="45.73301" lon="6.47427">
        <ele>1601</ele>
        <time>2022-07-17T06:00:47Z</time>
      </trkpt>
      <trkpt lat="45.733" lon="6.47424">
        <ele>1601</ele>
        <time>2022-07-17T06:00:49Z</time>
      </trkpt>
      <trkpt lat="45.733" lon="6.47421">
        <ele>1601</ele>
        <time>2022-07-17T06:00:51Z</time>
      </trkpt>
      <trkpt lat="45.73299" lon="6.47417">
        <ele>1599</ele>
        <time>2022-07-17T06:00:53Z</time>
      </trkpt>
      <trkpt lat="45.73299" lon="6.47415">
        <ele>1599</ele>
        <time>2022-07-17T06:00:55Z</time>
      </trkpt>
      <trkpt lat="45.73299" lon="6.47414">
        <ele>1599</ele>
        <time>2022-07-17T06:00:56Z</time>
      </trkpt>
      <trkpt lat="45.73299" lon="6.47412">
        <ele>1599</ele>
        <time>2022-07-17T06:00:57Z</time>
      </trkpt>
      <trkpt lat="45.73299" lon="6.4741">
        <ele>1599</ele>
        <time>2022-07-17T06:00:58Z</time>
      </trkpt>
      <trkpt lat="45.73299" lon="6.47406">
        <ele>1599</ele>
        <time>2022-07-17T06:01:00Z</time>
      </trkpt>
      <trkpt lat="45.73298" lon="6.47404">
        <ele>1598</ele>
        <time>2022-07-17T06:01:02Z</time>
      </trkpt>
      <trkpt lat="45.73298" lon="6.47401">
        <ele>1598</ele>
        <time>2022-07-17T06:01:04Z</time>
      </trkpt>
      <trkpt lat="45.73297" lon="6.47398">
        <ele>1597</ele>
        <time>2022-07-17T06:01:06Z</time>
      </trkpt>
      <trkpt lat="45.73296" lon="6.47394">
        <ele>1597</ele>
        <time>2022-07-17T06:01:08Z</time>
      </trkpt>
      <trkpt lat="45.73296" lon="6.47391">
        <ele>1596</ele>
        <time>2022-07-17T06:01:10Z</time>
      </trkpt>
      <trkpt lat="45.73296" lon="6.47388">
        <ele>1595</ele>
        <time>2022-07-17T06:01:12Z</time>
      </trkpt>
      <trkpt lat="45.73295" lon="6.47385">
        <ele>1595</ele>
        <time>2022-07-17T06:01:14Z</time>
      </trkpt>
      <trkpt lat="45.73294" lon="6.47384">
        <ele>1595</ele>
        <time>2022-07-17T06:01:16Z</time>
      </trkpt>
      <trkpt lat="45.73294" lon="6.47383">
        <ele>1595</ele>
        <time>2022-07-17T06:01:17Z</time>
      </trkpt>
      <trkpt lat="45.73293" lon="6.47381">
        <ele>1595</ele>
        <time>2022-07-17T06:01:18Z</time>
      </trkpt>
      <trkpt lat="45.73293" lon="6.4738">
        <ele>1595</ele>
        <time>2022-07-17T06:01:19Z</time>
      </trkpt>
      <trkpt lat="45.73292" lon="6.47379">
        <ele>1595</ele>
        <time>2022-07-17T06:01:20Z</time>
      </trkpt>
      <trkpt lat="45.73292" lon="6.47378">
        <ele>1594</ele>
        <time>2022-07-17T06:01:21Z</time>
      </trkpt>
      <trkpt lat="45.73292" lon="6.47376">
        <ele>1594</ele>
        <time>2022-07-17T06:01:22Z</time>
      </trkpt>
      <trkpt lat="45.73291" lon="6.47375">
        <ele>1594</ele>
        <time>2022-07-17T06:01:23Z</time>
      </trkpt>
      <trkpt lat="45.73291" lon="6.47374">
        <ele>1594</ele>
        <time>2022-07-17T06:01:24Z</time>
      </trkpt>
      <trkpt lat="45.7329" lon="6.47372">
        <ele>1593</ele>
        <time>2022-07-17T06:01:25Z</time>
      </trkpt>
      <trkpt lat="45.7329" lon="6.4737">
        <ele>1593</ele>
        <time>2022-07-17T06:01:26Z</time>
      </trkpt>
      <trkpt lat="45.73289" lon="6.47368">
        <ele>1593</ele>
        <time>2022-07-17T06:01:27Z</time>
      </trkpt>
      <trkpt lat="45.73289" lon="6.47364">
        <ele>1592</ele>
        <time>2022-07-17T06:01:29Z</time>
      </trkpt>
      <trkpt lat="45.73287" lon="6.4736">
        <ele>1592</ele>
        <time>2022-07-17T06:01:30Z</time>
      </trkpt>
      <trkpt lat="45.73287" lon="6.47357">
        <ele>1591</ele>
        <time>2022-07-17T06:01:32Z</time>
      </trkpt>
      <trkpt lat="45.73288" lon="6.47353">
        <ele>1591</ele>
        <time>2022-07-17T06:01:35Z</time>
      </trkpt>
      <trkpt lat="45.73288" lon="6.47349">
        <ele>1591</ele>
        <time>2022-07-17T06:01:37Z</time>
      </trkpt>
      <trkpt lat="45.73289" lon="6.47346">
        <ele>1591</ele>
        <time>2022-07-17T06:01:39Z</time>
      </trkpt>
      <trkpt lat="45.73289" lon="6.47343">
        <ele>1590</ele>
        <time>2022-07-17T06:01:41Z</time>
      </trkpt>
      <trkpt lat="45.73288" lon="6.47341">
        <ele>1590</ele>
        <time>2022-07-17T06:01:43Z</time>
      </trkpt>
      <trkpt lat="45.73288" lon="6.47338">
        <ele>1590</ele>
        <time>2022-07-17T06:01:45Z</time>
      </trkpt>
      <trkpt lat="45.73288" lon="6.47335">
        <ele>1589</ele>
        <time>2022-07-17T06:01:48Z</time>
      </trkpt>
      <trkpt lat="45.73287" lon="6.47332">
        <ele>1589</ele>
        <time>2022-07-17T06:01:49Z</time>
      </trkpt>
      <trkpt lat="45.73287" lon="6.4733">
        <ele>1588</ele>
        <time>2022-07-17T06:01:51Z</time>
      </trkpt>
      <trkpt lat="45.73287" lon="6.47329">
        <ele>1588</ele>
        <time>2022-07-17T06:01:52Z</time>
      </trkpt>
      <trkpt lat="45.73287" lon="6.47327">
        <ele>1587</ele>
        <time>2022-07-17T06:01:53Z</time>
      </trkpt>
      <trkpt lat="45.73286" lon="6.47325">
        <ele>1587</ele>
        <time>2022-07-17T06:01:54Z</time>
      </trkpt>
      <trkpt lat="45.73286" lon="6.47322">
        <ele>1587</ele>
        <time>2022-07-17T06:01:55Z</time>
      </trkpt>
      <trkpt lat="45.73286" lon="6.47319">
        <ele>1586</ele>
        <time>2022-07-17T06:01:57Z</time>
      </trkpt>
      <trkpt lat="45.73285" lon="6.47317">
        <ele>1586</ele>
        <time>2022-07-17T06:01:59Z</time>
      </trkpt>
      <trkpt lat="45.73283" lon="6.47315">
        <ele>1586</ele>
        <time>2022-07-17T06:02:01Z</time>
      </trkpt>
      <trkpt lat="45.73282" lon="6.47312">
        <ele>1586</ele>
        <time>2022-07-17T06:02:03Z</time>
      </trkpt>
      <trkpt lat="45.73281" lon="6.47309">
        <ele>1585</ele>
        <time>2022-07-17T06:02:05Z</time>
      </trkpt>
      <trkpt lat="45.7328" lon="6.47306">
        <ele>1584</ele>
        <time>2022-07-17T06:02:08Z</time>
      </trkpt>
      <trkpt lat="45.73281" lon="6.47302">
        <ele>1584</ele>
        <time>2022-07-17T06:02:10Z</time>
      </trkpt>
      <trkpt lat="45.73281" lon="6.47297">
        <ele>1584</ele>
        <time>2022-07-17T06:02:13Z</time>
      </trkpt>
      <trkpt lat="45.7328" lon="6.47298">
        <ele>1583</ele>
        <time>2022-07-17T06:02:15Z</time>
      </trkpt>
      <trkpt lat="45.7328" lon="6.47299">
        <ele>1583</ele>
        <time>2022-07-17T06:02:16Z</time>
      </trkpt>
      <trkpt lat="45.73279" lon="6.473">
        <ele>1582</ele>
        <time>2022-07-17T06:02:17Z</time>
      </trkpt>
      <trkpt lat="45.73279" lon="6.47301">
        <ele>1582</ele>
        <time>2022-07-17T06:02:18Z</time>
      </trkpt>
      <trkpt lat="45.73279" lon="6.47302">
        <ele>1581</ele>
        <time>2022-07-17T06:02:19Z</time>
      </trkpt>
      <trkpt lat="45.73278" lon="6.47303">
        <ele>1581</ele>
        <time>2022-07-17T06:02:20Z</time>
      </trkpt>
      <trkpt lat="45.73277" lon="6.47304">
        <ele>1581</ele>
        <time>2022-07-17T06:02:22Z</time>
      </trkpt>
      <trkpt lat="45.73277" lon="6.47305">
        <ele>1581</ele>
        <time>2022-07-17T06:02:23Z</time>
      </trkpt>
      <trkpt lat="45.73276" lon="6.47306">
        <ele>1581</ele>
        <time>2022-07-17T06:02:24Z</time>
      </trkpt>
      <trkpt lat="45.73276" lon="6.47307">
        <ele>1581</ele>
        <time>2022-07-17T06:02:26Z</time>
      </trkpt>
      <trkpt lat="45.73275" lon="6.47308">
        <ele>1581</ele>
        <time>2022-07-17T06:02:27Z</time>
      </trkpt>
      <trkpt lat="45.73275" lon="6.47309">
        <ele>1580</ele>
        <time>2022-07-17T06:02:28Z</time>
      </trkpt>
      <trkpt lat="45.73274" lon="6.4731">
        <ele>1580</ele>
        <time>2022-07-17T06:02:29Z</time>
      </trkpt>
      <trkpt lat="45.73273" lon="6.47312">
        <ele>1580</ele>
        <time>2022-07-17T06:02:30Z</time>
      </trkpt>
      <trkpt lat="45.73273" lon="6.47313">
        <ele>1580</ele>
        <time>2022-07-17T06:02:31Z</time>
      </trkpt>
      <trkpt lat="45.73272" lon="6.47314">
        <ele>1580</ele>
        <time>2022-07-17T06:02:32Z</time>
      </trkpt>
      <trkpt lat="45.73271" lon="6.47316">
        <ele>1580</ele>
        <time>2022-07-17T06:02:33Z</time>
      </trkpt>
      <trkpt lat="45.7327" lon="6.47317">
        <ele>1579</ele>
        <time>2022-07-17T06:02:34Z</time>
      </trkpt>
      <trkpt lat="45.7327" lon="6.47319">
        <ele>1579</ele>
        <time>2022-07-17T06:02:35Z</time>
      </trkpt>
      <trkpt lat="45.73269" lon="6.47321">
        <ele>1579</ele>
        <time>2022-07-17T06:02:36Z</time>
      </trkpt>
      <trkpt lat="45.73268" lon="6.47323">
        <ele>1579</ele>
        <time>2022-07-17T06:02:37Z</time>
      </trkpt>
      <trkpt lat="45.73268" lon="6.47325">
        <ele>1578</ele>
        <time>2022-07-17T06:02:38Z</time>
      </trkpt>
      <trkpt lat="45.73267" lon="6.47327">
        <ele>1578</ele>
        <time>2022-07-17T06:02:39Z</time>
      </trkpt>
      <trkpt lat="45.73266" lon="6.47329">
        <ele>1578</ele>
        <time>2022-07-17T06:02:40Z</time>
      </trkpt>
      <trkpt lat="45.73265" lon="6.47331">
        <ele>1577</ele>
        <time>2022-07-17T06:02:41Z</time>
      </trkpt>
      <trkpt lat="45.73263" lon="6.47335">
        <ele>1577</ele>
        <time>2022-07-17T06:02:42Z</time>
      </trkpt>
      <trkpt lat="45.73262" lon="6.47337">
        <ele>1577</ele>
        <time>2022-07-17T06:02:44Z</time>
      </trkpt>
      <trkpt lat="45.73261" lon="6.47338">
        <ele>1577</ele>
        <time>2022-07-17T06:02:45Z</time>
      </trkpt>
      <trkpt lat="45.7326" lon="6.4734">
        <ele>1577</ele>
        <time>2022-07-17T06:02:46Z</time>
      </trkpt>
      <trkpt lat="45.73259" lon="6.47341">
        <ele>1577</ele>
        <time>2022-07-17T06:02:47Z</time>
      </trkpt>
      <trkpt lat="45.73258" lon="6.47343">
        <ele>1577</ele>
        <time>2022-07-17T06:02:48Z</time>
      </trkpt>
      <trkpt lat="45.73257" lon="6.47344">
        <ele>1576</ele>
        <time>2022-07-17T06:02:49Z</time>
      </trkpt>
      <trkpt lat="45.73254" lon="6.47344">
        <ele>1576</ele>
        <time>2022-07-17T06:02:50Z</time>
      </trkpt>
      <trkpt lat="45.73251" lon="6.47342">
        <ele>1575</ele>
        <time>2022-07-17T06:02:52Z</time>
      </trkpt>
      <trkpt lat="45.73248" lon="6.47341">
        <ele>1575</ele>
        <time>2022-07-17T06:02:54Z</time>
      </trkpt>
      <trkpt lat="45.73245" lon="6.47338">
        <ele>1574</ele>
        <time>2022-07-17T06:02:56Z</time>
      </trkpt>
      <trkpt lat="45.73244" lon="6.47336">
        <ele>1574</ele>
        <time>2022-07-17T06:02:57Z</time>
      </trkpt>
      <trkpt lat="45.73241" lon="6.47335">
        <ele>1574</ele>
        <time>2022-07-17T06:02:59Z</time>
      </trkpt>
      <trkpt lat="45.73238" lon="6.47333">
        <ele>1572</ele>
        <time>2022-07-17T06:03:01Z</time>
      </trkpt>
      <trkpt lat="45.73235" lon="6.47331">
        <ele>1572</ele>
        <time>2022-07-17T06:03:04Z</time>
      </trkpt>
      <trkpt lat="45.73234" lon="6.4733">
        <ele>1572</ele>
        <time>2022-07-17T06:03:05Z</time>
      </trkpt>
      <trkpt lat="45.73231" lon="6.47328">
        <ele>1571</ele>
        <time>2022-07-17T06:03:08Z</time>
      </trkpt>
      <trkpt lat="45.73229" lon="6.47326">
        <ele>1571</ele>
        <time>2022-07-17T06:03:10Z</time>
      </trkpt>
      <trkpt lat="45.73226" lon="6.47325">
        <ele>1571</ele>
        <time>2022-07-17T06:03:12Z</time>
      </trkpt>
      <trkpt lat="45.73223" lon="6.47325">
        <ele>1570</ele>
        <time>2022-07-17T06:03:14Z</time>
      </trkpt>
      <trkpt lat="45.73222" lon="6.47325">
        <ele>1569</ele>
        <time>2022-07-17T06:03:16Z</time>
      </trkpt>
      <trkpt lat="45.73219" lon="6.47325">
        <ele>1569</ele>
        <time>2022-07-17T06:03:18Z</time>
      </trkpt>
      <trkpt lat="45.73217" lon="6.47325">
        <ele>1568</ele>
        <time>2022-07-17T06:03:20Z</time>
      </trkpt>
      <trkpt lat="45.73215" lon="6.47324">
        <ele>1567</ele>
        <time>2022-07-17T06:03:23Z</time>
      </trkpt>
      <trkpt lat="45.73213" lon="6.47322">
        <ele>1566</ele>
        <time>2022-07-17T06:03:24Z</time>
      </trkpt>
      <trkpt lat="45.73211" lon="6.47319">
        <ele>1566</ele>
        <time>2022-07-17T06:03:26Z</time>
      </trkpt>
      <trkpt lat="45.73211" lon="6.47315">
        <ele>1565</ele>
        <time>2022-07-17T06:03:28Z</time>
      </trkpt>
      <trkpt lat="45.7321" lon="6.47312">
        <ele>1565</ele>
        <time>2022-07-17T06:03:30Z</time>
      </trkpt>
      <trkpt lat="45.7321" lon="6.47308">
        <ele>1564</ele>
        <time>2022-07-17T06:03:32Z</time>
      </trkpt>
      <trkpt lat="45.73209" lon="6.47304">
        <ele>1564</ele>
        <time>2022-07-17T06:03:34Z</time>
      </trkpt>
      <trkpt lat="45.73208" lon="6.473">
        <ele>1564</ele>
        <time>2022-07-17T06:03:36Z</time>
      </trkpt>
      <trkpt lat="45.73207" lon="6.47296">
        <ele>1564</ele>
        <time>2022-07-17T06:03:38Z</time>
      </trkpt>
      <trkpt lat="45.73207" lon="6.47292">
        <ele>1564</ele>
        <time>2022-07-17T06:03:40Z</time>
      </trkpt>
      <trkpt lat="45.73206" lon="6.47288">
        <ele>1564</ele>
        <time>2022-07-17T06:03:42Z</time>
      </trkpt>
      <trkpt lat="45.73206" lon="6.47284">
        <ele>1563</ele>
        <time>2022-07-17T06:03:45Z</time>
      </trkpt>
      <trkpt lat="45.73206" lon="6.47279">
        <ele>1563</ele>
        <time>2022-07-17T06:03:47Z</time>
      </trkpt>
      <trkpt lat="45.73206" lon="6.47278">
        <ele>1562</ele>
        <time>2022-07-17T06:03:49Z</time>
      </trkpt>
      <trkpt lat="45.73206" lon="6.47276">
        <ele>1562</ele>
        <time>2022-07-17T06:03:50Z</time>
      </trkpt>
      <trkpt lat="45.73206" lon="6.47275">
        <ele>1562</ele>
        <time>2022-07-17T06:03:51Z</time>
      </trkpt>
      <trkpt lat="45.73206" lon="6.47273">
        <ele>1562</ele>
        <time>2022-07-17T06:03:52Z</time>
      </trkpt>
      <trkpt lat="45.73205" lon="6.47272">
        <ele>1562</ele>
        <time>2022-07-17T06:03:53Z</time>
      </trkpt>
      <trkpt lat="45.73205" lon="6.47271">
        <ele>1561</ele>
        <time>2022-07-17T06:03:54Z</time>
      </trkpt>
      <trkpt lat="45.73205" lon="6.47269">
        <ele>1560</ele>
        <time>2022-07-17T06:03:55Z</time>
      </trkpt>
      <trkpt lat="45.73205" lon="6.47268">
        <ele>1560</ele>
        <time>2022-07-17T06:03:56Z</time>
      </trkpt>
      <trkpt lat="45.73205" lon="6.47266">
        <ele>1560</ele>
        <time>2022-07-17T06:03:57Z</time>
      </trkpt>
      <trkpt lat="45.73203" lon="6.47263">
        <ele>1559</ele>
        <time>2022-07-17T06:04:01Z</time>
      </trkpt>
      <trkpt lat="45.73203" lon="6.47258">
        <ele>1557</ele>
        <time>2022-07-17T06:04:04Z</time>
      </trkpt>
      <trkpt lat="45.73203" lon="6.47254">
        <ele>1557</ele>
        <time>2022-07-17T06:04:06Z</time>
      </trkpt>
      <trkpt lat="45.73203" lon="6.4725">
        <ele>1558</ele>
        <time>2022-07-17T06:04:08Z</time>
      </trkpt>
      <trkpt lat="45.73203" lon="6.47247">
        <ele>1558</ele>
        <time>2022-07-17T06:04:10Z</time>
      </trkpt>
      <trkpt lat="45.73203" lon="6.47243">
        <ele>1558</ele>
        <time>2022-07-17T06:04:12Z</time>
      </trkpt>
      <trkpt lat="45.73205" lon="6.4724">
        <ele>1558</ele>
        <time>2022-07-17T06:04:15Z</time>
      </trkpt>
      <trkpt lat="45.73204" lon="6.4724">
        <ele>1558</ele>
        <time>2022-07-17T06:04:17Z</time>
      </trkpt>
      <trkpt lat="45.73203" lon="6.4724">
        <ele>1558</ele>
        <time>2022-07-17T06:04:19Z</time>
      </trkpt>
      <trkpt lat="45.73202" lon="6.4724">
        <ele>1558</ele>
        <time>2022-07-17T06:04:21Z</time>
      </trkpt>
      <trkpt lat="45.73201" lon="6.47241">
        <ele>1557</ele>
        <time>2022-07-17T06:04:23Z</time>
      </trkpt>
      <trkpt lat="45.732" lon="6.47241">
        <ele>1556</ele>
        <time>2022-07-17T06:04:25Z</time>
      </trkpt>
      <trkpt lat="45.73199" lon="6.47241">
        <ele>1556</ele>
        <time>2022-07-17T06:04:27Z</time>
      </trkpt>
      <trkpt lat="45.73198" lon="6.47241">
        <ele>1556</ele>
        <time>2022-07-17T06:04:29Z</time>
      </trkpt>
      <trkpt lat="45.73197" lon="6.47242">
        <ele>1555</ele>
        <time>2022-07-17T06:04:32Z</time>
      </trkpt>
      <trkpt lat="45.73196" lon="6.47242">
        <ele>1555</ele>
        <time>2022-07-17T06:04:34Z</time>
      </trkpt>
      <trkpt lat="45.73194" lon="6.47242">
        <ele>1554</ele>
        <time>2022-07-17T06:04:36Z</time>
      </trkpt>
      <trkpt lat="45.73193" lon="6.47242">
        <ele>1553</ele>
        <time>2022-07-17T06:04:37Z</time>
      </trkpt>
      <trkpt lat="45.73191" lon="6.47242">
        <ele>1553</ele>
        <time>2022-07-17T06:04:39Z</time>
      </trkpt>
      <trkpt lat="45.7319" lon="6.47242">
        <ele>1553</ele>
        <time>2022-07-17T06:04:40Z</time>
      </trkpt>
      <trkpt lat="45.73189" lon="6.47242">
        <ele>1552</ele>
        <time>2022-07-17T06:04:41Z</time>
      </trkpt>
      <trkpt lat="45.73187" lon="6.47243">
        <ele>1552</ele>
        <time>2022-07-17T06:04:42Z</time>
      </trkpt>
      <trkpt lat="45.73186" lon="6.47243">
        <ele>1552</ele>
        <time>2022-07-17T06:04:43Z</time>
      </trkpt>
      <trkpt lat="45.73184" lon="6.47242">
        <ele>1552</ele>
        <time>2022-07-17T06:04:44Z</time>
      </trkpt>
      <trkpt lat="45.73182" lon="6.47242">
        <ele>1552</ele>
        <time>2022-07-17T06:04:45Z</time>
      </trkpt>
      <trkpt lat="45.73181" lon="6.47241">
        <ele>1552</ele>
        <time>2022-07-17T06:04:46Z</time>
      </trkpt>
      <trkpt lat="45.73179" lon="6.4724">
        <ele>1552</ele>
        <time>2022-07-17T06:04:47Z</time>
      </trkpt>
      <trkpt lat="45.73177" lon="6.4724">
        <ele>1552</ele>
        <time>2022-07-17T06:04:48Z</time>
      </trkpt>
      <trkpt lat="45.73175" lon="6.47239">
        <ele>1551</ele>
        <time>2022-07-17T06:04:49Z</time>
      </trkpt>
      <trkpt lat="45.73174" lon="6.4724">
        <ele>1551</ele>
        <time>2022-07-17T06:04:50Z</time>
      </trkpt>
      <trkpt lat="45.73173" lon="6.4724">
        <ele>1551</ele>
        <time>2022-07-17T06:04:51Z</time>
      </trkpt>
      <trkpt lat="45.73172" lon="6.47241">
        <ele>1551</ele>
        <time>2022-07-17T06:04:52Z</time>
      </trkpt>
      <trkpt lat="45.73171" lon="6.47241">
        <ele>1551</ele>
        <time>2022-07-17T06:04:53Z</time>
      </trkpt>
      <trkpt lat="45.7317" lon="6.47242">
        <ele>1551</ele>
        <time>2022-07-17T06:04:54Z</time>
      </trkpt>
      <trkpt lat="45.73169" lon="6.47243">
        <ele>1550</ele>
        <time>2022-07-17T06:04:55Z</time>
      </trkpt>
      <trkpt lat="45.73168" lon="6.47244">
        <ele>1550</ele>
        <time>2022-07-17T06:04:56Z</time>
      </trkpt>
      <trkpt lat="45.73166" lon="6.47245">
        <ele>1550</ele>
        <time>2022-07-17T06:04:57Z</time>
      </trkpt>
      <trkpt lat="45.73165" lon="6.47246">
        <ele>1550</ele>
        <time>2022-07-17T06:04:58Z</time>
      </trkpt>
      <trkpt lat="45.73164" lon="6.47247">
        <ele>1550</ele>
        <time>2022-07-17T06:04:59Z</time>
      </trkpt>
      <trkpt lat="45.73163" lon="6.47248">
        <ele>1550</ele>
        <time>2022-07-17T06:05:00Z</time>
      </trkpt>
      <trkpt lat="45.73161" lon="6.47248">
        <ele>1549</ele>
        <time>2022-07-17T06:05:01Z</time>
      </trkpt>
      <trkpt lat="45.73159" lon="6.47249">
        <ele>1549</ele>
        <time>2022-07-17T06:05:02Z</time>
      </trkpt>
      <trkpt lat="45.73158" lon="6.47249">
        <ele>1548</ele>
        <time>2022-07-17T06:05:03Z</time>
      </trkpt>
      <trkpt lat="45.73156" lon="6.4725">
        <ele>1548</ele>
        <time>2022-07-17T06:05:04Z</time>
      </trkpt>
      <trkpt lat="45.73155" lon="6.47251">
        <ele>1548</ele>
        <time>2022-07-17T06:05:05Z</time>
      </trkpt>
      <trkpt lat="45.73153" lon="6.47251">
        <ele>1548</ele>
        <time>2022-07-17T06:05:06Z</time>
      </trkpt>
      <trkpt lat="45.73152" lon="6.4725">
        <ele>1547</ele>
        <time>2022-07-17T06:05:07Z</time>
      </trkpt>
      <trkpt lat="45.7315" lon="6.4725">
        <ele>1547</ele>
        <time>2022-07-17T06:05:08Z</time>
      </trkpt>
      <trkpt lat="45.73149" lon="6.47249">
        <ele>1547</ele>
        <time>2022-07-17T06:05:09Z</time>
      </trkpt>
      <trkpt lat="45.73147" lon="6.47249">
        <ele>1546</ele>
        <time>2022-07-17T06:05:10Z</time>
      </trkpt>
      <trkpt lat="45.73145" lon="6.47246">
        <ele>1546</ele>
        <time>2022-07-17T06:05:11Z</time>
      </trkpt>
      <trkpt lat="45.73143" lon="6.47244">
        <ele>1545</ele>
        <time>2022-07-17T06:05:13Z</time>
      </trkpt>
      <trkpt lat="45.73141" lon="6.47241">
        <ele>1545</ele>
        <time>2022-07-17T06:05:15Z</time>
      </trkpt>
      <trkpt lat="45.7314" lon="6.47238">
        <ele>1545</ele>
        <time>2022-07-17T06:05:17Z</time>
      </trkpt>
      <trkpt lat="45.73141" lon="6.47233">
        <ele>1545</ele>
        <time>2022-07-17T06:05:19Z</time>
      </trkpt>
      <trkpt lat="45.73142" lon="6.47231">
        <ele>1545</ele>
        <time>2022-07-17T06:05:20Z</time>
      </trkpt>
      <trkpt lat="45.73143" lon="6.47226">
        <ele>1544</ele>
        <time>2022-07-17T06:05:22Z</time>
      </trkpt>
      <trkpt lat="45.73144" lon="6.47224">
        <ele>1544</ele>
        <time>2022-07-17T06:05:23Z</time>
      </trkpt>
      <trkpt lat="45.73145" lon="6.47221">
        <ele>1544</ele>
        <time>2022-07-17T06:05:24Z</time>
      </trkpt>
      <trkpt lat="45.73146" lon="6.47218">
        <ele>1543</ele>
        <time>2022-07-17T06:05:25Z</time>
      </trkpt>
      <trkpt lat="45.73147" lon="6.47216">
        <ele>1543</ele>
        <time>2022-07-17T06:05:26Z</time>
      </trkpt>
      <trkpt lat="45.73148" lon="6.47211">
        <ele>1542</ele>
        <time>2022-07-17T06:05:28Z</time>
      </trkpt>
      <trkpt lat="45.73149" lon="6.47207">
        <ele>1542</ele>
        <time>2022-07-17T06:05:30Z</time>
      </trkpt>
      <trkpt lat="45.73149" lon="6.47203">
        <ele>1542</ele>
        <time>2022-07-17T06:05:32Z</time>
      </trkpt>
      <trkpt lat="45.7315" lon="6.47199">
        <ele>1542</ele>
        <time>2022-07-17T06:05:34Z</time>
      </trkpt>
      <trkpt lat="45.73151" lon="6.47196">
        <ele>1541</ele>
        <time>2022-07-17T06:05:37Z</time>
      </trkpt>
      <trkpt lat="45.73152" lon="6.47193">
        <ele>1540</ele>
        <time>2022-07-17T06:05:38Z</time>
      </trkpt>
      <trkpt lat="45.73155" lon="6.47189">
        <ele>1540</ele>
        <time>2022-07-17T06:05:40Z</time>
      </trkpt>
      <trkpt lat="45.73155" lon="6.47185">
        <ele>1540</ele>
        <time>2022-07-17T06:05:42Z</time>
      </trkpt>
      <trkpt lat="45.73156" lon="6.47181">
        <ele>1539</ele>
        <time>2022-07-17T06:05:44Z</time>
      </trkpt>
      <trkpt lat="45.73155" lon="6.47178">
        <ele>1539</ele>
        <time>2022-07-17T06:05:47Z</time>
      </trkpt>
      <trkpt lat="45.73154" lon="6.47177">
        <ele>1538</ele>
        <time>2022-07-17T06:05:50Z</time>
      </trkpt>
      <trkpt lat="45.73152" lon="6.47176">
        <ele>1538</ele>
        <time>2022-07-17T06:05:52Z</time>
      </trkpt>
      <trkpt lat="45.7315" lon="6.47174">
        <ele>1538</ele>
        <time>2022-07-17T06:05:55Z</time>
      </trkpt>
      <trkpt lat="45.73148" lon="6.47172">
        <ele>1536</ele>
        <time>2022-07-17T06:05:58Z</time>
      </trkpt>
      <trkpt lat="45.73145" lon="6.47172">
        <ele>1536</ele>
        <time>2022-07-17T06:06:00Z</time>
      </trkpt>
      <trkpt lat="45.73143" lon="6.47173">
        <ele>1536</ele>
        <time>2022-07-17T06:06:02Z</time>
      </trkpt>
      <trkpt lat="45.73141" lon="6.47173">
        <ele>1536</ele>
        <time>2022-07-17T06:06:05Z</time>
      </trkpt>
      <trkpt lat="45.73139" lon="6.47173">
        <ele>1535</ele>
        <time>2022-07-17T06:06:07Z</time>
      </trkpt>
      <trkpt lat="45.73136" lon="6.47173">
        <ele>1535</ele>
        <time>2022-07-17T06:06:10Z</time>
      </trkpt>
      <trkpt lat="45.73134" lon="6.47174">
        <ele>1534</ele>
        <time>2022-07-17T06:06:14Z</time>
      </trkpt>
      <trkpt lat="45.73133" lon="6.47177">
        <ele>1534</ele>
        <time>2022-07-17T06:06:18Z</time>
      </trkpt>
      <trkpt lat="45.73132" lon="6.47178">
        <ele>1533</ele>
        <time>2022-07-17T06:06:20Z</time>
      </trkpt>
      <trkpt lat="45.73131" lon="6.47179">
        <ele>1533</ele>
        <time>2022-07-17T06:06:21Z</time>
      </trkpt>
      <trkpt lat="45.7313" lon="6.4718">
        <ele>1533</ele>
        <time>2022-07-17T06:06:23Z</time>
      </trkpt>
      <trkpt lat="45.73129" lon="6.47181">
        <ele>1532</ele>
        <time>2022-07-17T06:06:24Z</time>
      </trkpt>
      <trkpt lat="45.73128" lon="6.47182">
        <ele>1532</ele>
        <time>2022-07-17T06:06:25Z</time>
      </trkpt>
      <trkpt lat="45.73128" lon="6.47183">
        <ele>1532</ele>
        <time>2022-07-17T06:06:26Z</time>
      </trkpt>
      <trkpt lat="45.73127" lon="6.47183">
        <ele>1532</ele>
        <time>2022-07-17T06:06:27Z</time>
      </trkpt>
      <trkpt lat="45.73126" lon="6.47184">
        <ele>1532</ele>
        <time>2022-07-17T06:06:28Z</time>
      </trkpt>
      <trkpt lat="45.73125" lon="6.47185">
        <ele>1532</ele>
        <time>2022-07-17T06:06:29Z</time>
      </trkpt>
      <trkpt lat="45.73125" lon="6.47186">
        <ele>1532</ele>
        <time>2022-07-17T06:06:30Z</time>
      </trkpt>
      <trkpt lat="45.73124" lon="6.47188">
        <ele>1532</ele>
        <time>2022-07-17T06:06:31Z</time>
      </trkpt>
      <trkpt lat="45.73123" lon="6.47189">
        <ele>1532</ele>
        <time>2022-07-17T06:06:33Z</time>
      </trkpt>
      <trkpt lat="45.73123" lon="6.4719">
        <ele>1531</ele>
        <time>2022-07-17T06:06:34Z</time>
      </trkpt>
      <trkpt lat="45.73122" lon="6.47191">
        <ele>1530</ele>
        <time>2022-07-17T06:06:35Z</time>
      </trkpt>
      <trkpt lat="45.73121" lon="6.47192">
        <ele>1530</ele>
        <time>2022-07-17T06:06:36Z</time>
      </trkpt>
      <trkpt lat="45.73121" lon="6.47194">
        <ele>1530</ele>
        <time>2022-07-17T06:06:37Z</time>
      </trkpt>
      <trkpt lat="45.7312" lon="6.47195">
        <ele>1530</ele>
        <time>2022-07-17T06:06:38Z</time>
      </trkpt>
      <trkpt lat="45.73119" lon="6.47196">
        <ele>1530</ele>
        <time>2022-07-17T06:06:39Z</time>
      </trkpt>
      <trkpt lat="45.73118" lon="6.47197">
        <ele>1530</ele>
        <time>2022-07-17T06:06:40Z</time>
      </trkpt>
      <trkpt lat="45.73117" lon="6.47198">
        <ele>1530</ele>
        <time>2022-07-17T06:06:41Z</time>
      </trkpt>
      <trkpt lat="45.73116" lon="6.472">
        <ele>1530</ele>
        <time>2022-07-17T06:06:42Z</time>
      </trkpt>
      <trkpt lat="45.73115" lon="6.47201">
        <ele>1529</ele>
        <time>2022-07-17T06:06:43Z</time>
      </trkpt>
      <trkpt lat="45.73114" lon="6.47202">
        <ele>1529</ele>
        <time>2022-07-17T06:06:44Z</time>
      </trkpt>
      <trkpt lat="45.73113" lon="6.47203">
        <ele>1529</ele>
        <time>2022-07-17T06:06:45Z</time>
      </trkpt>
      <trkpt lat="45.73112" lon="6.47205">
        <ele>1529</ele>
        <time>2022-07-17T06:06:46Z</time>
      </trkpt>
      <trkpt lat="45.73111" lon="6.47206">
        <ele>1529</ele>
        <time>2022-07-17T06:06:47Z</time>
      </trkpt>
      <trkpt lat="45.73103" lon="6.47212">
        <ele>1529</ele>
        <time>2022-07-17T06:06:52Z</time>
      </trkpt>
      <trkpt lat="45.73097" lon="6.47201">
        <ele>1527</ele>
        <time>2022-07-17T06:07:00Z</time>
      </trkpt>
      <trkpt lat="45.73097" lon="6.47199">
        <ele>1526</ele>
        <time>2022-07-17T06:07:03Z</time>
      </trkpt>
      <trkpt lat="45.73096" lon="6.47197">
        <ele>1525</ele>
        <time>2022-07-17T06:07:04Z</time>
      </trkpt>
      <trkpt lat="45.73096" lon="6.47195">
        <ele>1525</ele>
        <time>2022-07-17T06:07:05Z</time>
      </trkpt>
      <trkpt lat="45.73095" lon="6.47193">
        <ele>1525</ele>
        <time>2022-07-17T06:07:06Z</time>
      </trkpt>
      <trkpt lat="45.73095" lon="6.47191">
        <ele>1525</ele>
        <time>2022-07-17T06:07:07Z</time>
      </trkpt>
      <trkpt lat="45.73095" lon="6.47187">
        <ele>1524</ele>
        <time>2022-07-17T06:07:08Z</time>
      </trkpt>
      <trkpt lat="45.73094" lon="6.47186">
        <ele>1524</ele>
        <time>2022-07-17T06:07:10Z</time>
      </trkpt>
      <trkpt lat="45.73094" lon="6.47184">
        <ele>1524</ele>
        <time>2022-07-17T06:07:11Z</time>
      </trkpt>
      <trkpt lat="45.73094" lon="6.47183">
        <ele>1524</ele>
        <time>2022-07-17T06:07:12Z</time>
      </trkpt>
      <trkpt lat="45.73094" lon="6.47181">
        <ele>1524</ele>
        <time>2022-07-17T06:07:13Z</time>
      </trkpt>
      <trkpt lat="45.73094" lon="6.4718">
        <ele>1523</ele>
        <time>2022-07-17T06:07:14Z</time>
      </trkpt>
      <trkpt lat="45.73094" lon="6.47178">
        <ele>1523</ele>
        <time>2022-07-17T06:07:15Z</time>
      </trkpt>
      <trkpt lat="45.73094" lon="6.47177">
        <ele>1523</ele>
        <time>2022-07-17T06:07:16Z</time>
      </trkpt>
      <trkpt lat="45.73094" lon="6.47175">
        <ele>1522</ele>
        <time>2022-07-17T06:07:17Z</time>
      </trkpt>
      <trkpt lat="45.73094" lon="6.47174">
        <ele>1521</ele>
        <time>2022-07-17T06:07:18Z</time>
      </trkpt>
      <trkpt lat="45.73094" lon="6.47172">
        <ele>1521</ele>
        <time>2022-07-17T06:07:19Z</time>
      </trkpt>
      <trkpt lat="45.73094" lon="6.4717">
        <ele>1521</ele>
        <time>2022-07-17T06:07:20Z</time>
      </trkpt>
      <trkpt lat="45.73094" lon="6.47167">
        <ele>1521</ele>
        <time>2022-07-17T06:07:21Z</time>
      </trkpt>
      <trkpt lat="45.73094" lon="6.47165">
        <ele>1521</ele>
        <time>2022-07-17T06:07:22Z</time>
      </trkpt>
      <trkpt lat="45.73094" lon="6.47163">
        <ele>1520</ele>
        <time>2022-07-17T06:07:23Z</time>
      </trkpt>
      <trkpt lat="45.73094" lon="6.47161">
        <ele>1520</ele>
        <time>2022-07-17T06:07:24Z</time>
      </trkpt>
      <trkpt lat="45.73094" lon="6.47159">
        <ele>1520</ele>
        <time>2022-07-17T06:07:25Z</time>
      </trkpt>
      <trkpt lat="45.73095" lon="6.47153">
        <ele>1518</ele>
        <time>2022-07-17T06:07:31Z</time>
      </trkpt>
      <trkpt lat="45.73094" lon="6.47154">
        <ele>1517</ele>
        <time>2022-07-17T06:07:33Z</time>
      </trkpt>
      <trkpt lat="45.73093" lon="6.47155">
        <ele>1517</ele>
        <time>2022-07-17T06:07:35Z</time>
      </trkpt>
      <trkpt lat="45.73092" lon="6.47156">
        <ele>1517</ele>
        <time>2022-07-17T06:07:36Z</time>
      </trkpt>
      <trkpt lat="45.73092" lon="6.47157">
        <ele>1517</ele>
        <time>2022-07-17T06:07:37Z</time>
      </trkpt>
      <trkpt lat="45.73091" lon="6.47158">
        <ele>1517</ele>
        <time>2022-07-17T06:07:38Z</time>
      </trkpt>
      <trkpt lat="45.73087" lon="6.47159">
        <ele>1516</ele>
        <time>2022-07-17T06:07:40Z</time>
      </trkpt>
      <trkpt lat="45.73085" lon="6.47161">
        <ele>1515</ele>
        <time>2022-07-17T06:07:43Z</time>
      </trkpt>
      <trkpt lat="45.73082" lon="6.47162">
        <ele>1514</ele>
        <time>2022-07-17T06:07:45Z</time>
      </trkpt>
      <trkpt lat="45.7308" lon="6.47164">
        <ele>1514</ele>
        <time>2022-07-17T06:07:47Z</time>
      </trkpt>
      <trkpt lat="45.73077" lon="6.47167">
        <ele>1514</ele>
        <time>2022-07-17T06:07:49Z</time>
      </trkpt>
      <trkpt lat="45.73074" lon="6.47169">
        <ele>1513</ele>
        <time>2022-07-17T06:07:51Z</time>
      </trkpt>
      <trkpt lat="45.73073" lon="6.4717">
        <ele>1512</ele>
        <time>2022-07-17T06:07:53Z</time>
      </trkpt>
      <trkpt lat="45.73071" lon="6.47171">
        <ele>1512</ele>
        <time>2022-07-17T06:07:54Z</time>
      </trkpt>
      <trkpt lat="45.7307" lon="6.47172">
        <ele>1512</ele>
        <time>2022-07-17T06:07:55Z</time>
      </trkpt>
      <trkpt lat="45.73069" lon="6.47173">
        <ele>1512</ele>
        <time>2022-07-17T06:07:56Z</time>
      </trkpt>
      <trkpt lat="45.73068" lon="6.47173">
        <ele>1511</ele>
        <time>2022-07-17T06:07:57Z</time>
      </trkpt>
      <trkpt lat="45.73066" lon="6.47174">
        <ele>1511</ele>
        <time>2022-07-17T06:07:58Z</time>
      </trkpt>
      <trkpt lat="45.73065" lon="6.47175">
        <ele>1511</ele>
        <time>2022-07-17T06:07:59Z</time>
      </trkpt>
      <trkpt lat="45.73064" lon="6.47176">
        <ele>1511</ele>
        <time>2022-07-17T06:08:00Z</time>
      </trkpt>
      <trkpt lat="45.73064" lon="6.47177">
        <ele>1511</ele>
        <time>2022-07-17T06:08:01Z</time>
      </trkpt>
      <trkpt lat="45.73063" lon="6.47179">
        <ele>1510</ele>
        <time>2022-07-17T06:08:02Z</time>
      </trkpt>
      <trkpt lat="45.73062" lon="6.4718">
        <ele>1509</ele>
        <time>2022-07-17T06:08:03Z</time>
      </trkpt>
      <trkpt lat="45.73061" lon="6.47181">
        <ele>1509</ele>
        <time>2022-07-17T06:08:04Z</time>
      </trkpt>
      <trkpt lat="45.73061" lon="6.47182">
        <ele>1509</ele>
        <time>2022-07-17T06:08:05Z</time>
      </trkpt>
      <trkpt lat="45.7306" lon="6.47184">
        <ele>1509</ele>
        <time>2022-07-17T06:08:06Z</time>
      </trkpt>
      <trkpt lat="45.73059" lon="6.47185">
        <ele>1509</ele>
        <time>2022-07-17T06:08:07Z</time>
      </trkpt>
      <trkpt lat="45.73058" lon="6.47186">
        <ele>1509</ele>
        <time>2022-07-17T06:08:08Z</time>
      </trkpt>
      <trkpt lat="45.73057" lon="6.47187">
        <ele>1509</ele>
        <time>2022-07-17T06:08:09Z</time>
      </trkpt>
      <trkpt lat="45.73056" lon="6.47189">
        <ele>1509</ele>
        <time>2022-07-17T06:08:10Z</time>
      </trkpt>
      <trkpt lat="45.73056" lon="6.4719">
        <ele>1509</ele>
        <time>2022-07-17T06:08:11Z</time>
      </trkpt>
      <trkpt lat="45.73055" lon="6.47191">
        <ele>1509</ele>
        <time>2022-07-17T06:08:12Z</time>
      </trkpt>
      <trkpt lat="45.73054" lon="6.47193">
        <ele>1508</ele>
        <time>2022-07-17T06:08:13Z</time>
      </trkpt>
      <trkpt lat="45.73053" lon="6.47194">
        <ele>1508</ele>
        <time>2022-07-17T06:08:14Z</time>
      </trkpt>
      <trkpt lat="45.73052" lon="6.47196">
        <ele>1508</ele>
        <time>2022-07-17T06:08:15Z</time>
      </trkpt>
      <trkpt lat="45.73051" lon="6.47197">
        <ele>1508</ele>
        <time>2022-07-17T06:08:16Z</time>
      </trkpt>
      <trkpt lat="45.73049" lon="6.47199">
        <ele>1508</ele>
        <time>2022-07-17T06:08:17Z</time>
      </trkpt>
      <trkpt lat="45.73048" lon="6.472">
        <ele>1508</ele>
        <time>2022-07-17T06:08:18Z</time>
      </trkpt>
      <trkpt lat="45.73047" lon="6.47202">
        <ele>1507</ele>
        <time>2022-07-17T06:08:19Z</time>
      </trkpt>
      <trkpt lat="45.73047" lon="6.47203">
        <ele>1507</ele>
        <time>2022-07-17T06:08:20Z</time>
      </trkpt>
      <trkpt lat="45.73046" lon="6.47204">
        <ele>1507</ele>
        <time>2022-07-17T06:08:21Z</time>
      </trkpt>
      <trkpt lat="45.73045" lon="6.47206">
        <ele>1507</ele>
        <time>2022-07-17T06:08:22Z</time>
      </trkpt>
      <trkpt lat="45.73044" lon="6.47207">
        <ele>1507</ele>
        <time>2022-07-17T06:08:23Z</time>
      </trkpt>
      <trkpt lat="45.73042" lon="6.47208">
        <ele>1506</ele>
        <time>2022-07-17T06:08:27Z</time>
      </trkpt>
      <trkpt lat="45.7304" lon="6.4721">
        <ele>1506</ele>
        <time>2022-07-17T06:08:30Z</time>
      </trkpt>
      <trkpt lat="45.73038" lon="6.47212">
        <ele>1506</ele>
        <time>2022-07-17T06:08:32Z</time>
      </trkpt>
      <trkpt lat="45.73037" lon="6.47212">
        <ele>1506</ele>
        <time>2022-07-17T06:08:36Z</time>
      </trkpt>
      <trkpt lat="45.73036" lon="6.47213">
        <ele>1506</ele>
        <time>2022-07-17T06:08:39Z</time>
      </trkpt>
      <trkpt lat="45.73035" lon="6.47213">
        <ele>1506</ele>
        <time>2022-07-17T06:08:42Z</time>
      </trkpt>
      <trkpt lat="45.73034" lon="6.47213">
        <ele>1506</ele>
        <time>2022-07-17T06:08:45Z</time>
      </trkpt>
      <trkpt lat="45.73034" lon="6.47214">
        <ele>1506</ele>
        <time>2022-07-17T06:08:46Z</time>
      </trkpt>
      <trkpt lat="45.73033" lon="6.47214">
        <ele>1506</ele>
        <time>2022-07-17T06:08:47Z</time>
      </trkpt>
      <trkpt lat="45.73032" lon="6.47214">
        <ele>1506</ele>
        <time>2022-07-17T06:08:50Z</time>
      </trkpt>
      <trkpt lat="45.73031" lon="6.47215">
        <ele>1506</ele>
        <time>2022-07-17T06:08:53Z</time>
      </trkpt>
      <trkpt lat="45.7303" lon="6.47215">
        <ele>1506</ele>
        <time>2022-07-17T06:08:56Z</time>
      </trkpt>
      <trkpt lat="45.73029" lon="6.47215">
        <ele>1506</ele>
        <time>2022-07-17T06:08:59Z</time>
      </trkpt>
      <trkpt lat="45.73029" lon="6.47216">
        <ele>1506</ele>
        <time>2022-07-17T06:09:00Z</time>
      </trkpt>
      <trkpt lat="45.73028" lon="6.47216">
        <ele>1506</ele>
        <time>2022-07-17T06:09:01Z</time>
      </trkpt>
      <trkpt lat="45.73027" lon="6.47216">
        <ele>1506</ele>
        <time>2022-07-17T06:09:04Z</time>
      </trkpt>
      <trkpt lat="45.73026" lon="6.47217">
        <ele>1506</ele>
        <time>2022-07-17T06:09:07Z</time>
      </trkpt>
      <trkpt lat="45.73024" lon="6.47215">
        <ele>1506</ele>
        <time>2022-07-17T06:09:18Z</time>
      </trkpt>
      <trkpt lat="45.73025" lon="6.47216">
        <ele>1506</ele>
        <time>2022-07-17T06:09:20Z</time>
      </trkpt>
      <trkpt lat="45.73026" lon="6.47216">
        <ele>1506</ele>
        <time>2022-07-17T06:09:21Z</time>
      </trkpt>
      <trkpt lat="45.73027" lon="6.47217">
        <ele>1506</ele>
        <time>2022-07-17T06:09:23Z</time>
      </trkpt>
      <trkpt lat="45.73028" lon="6.47217">
        <ele>1506</ele>
        <time>2022-07-17T06:09:25Z</time>
      </trkpt>
      <trkpt lat="45.73029" lon="6.47218">
        <ele>1506</ele>
        <time>2022-07-17T06:09:26Z</time>
      </trkpt>
      <trkpt lat="45.7303" lon="6.47219">
        <ele>1506</ele>
        <time>2022-07-17T06:09:28Z</time>
      </trkpt>
      <trkpt lat="45.73031" lon="6.47219">
        <ele>1506</ele>
        <time>2022-07-17T06:09:29Z</time>
      </trkpt>
      <trkpt lat="45.73032" lon="6.4722">
        <ele>1506</ele>
        <time>2022-07-17T06:09:30Z</time>
      </trkpt>
      <trkpt lat="45.73032" lon="6.47224">
        <ele>1506</ele>
        <time>2022-07-17T06:09:33Z</time>
      </trkpt>
      <trkpt lat="45.73032" lon="6.47227">
        <ele>1507</ele>
        <time>2022-07-17T06:09:35Z</time>
      </trkpt>
      <trkpt lat="45.73032" lon="6.47231">
        <ele>1507</ele>
        <time>2022-07-17T06:09:38Z</time>
      </trkpt>
      <trkpt lat="45.73031" lon="6.47234">
        <ele>1507</ele>
        <time>2022-07-17T06:09:41Z</time>
      </trkpt>
      <trkpt lat="45.7303" lon="6.47236">
        <ele>1507</ele>
        <time>2022-07-17T06:09:43Z</time>
      </trkpt>
      <trkpt lat="45.73028" lon="6.47238">
        <ele>1507</ele>
        <time>2022-07-17T06:09:45Z</time>
      </trkpt>
      <trkpt lat="45.73027" lon="6.4724">
        <ele>1507</ele>
        <time>2022-07-17T06:09:48Z</time>
      </trkpt>
      <trkpt lat="45.73025" lon="6.4724">
        <ele>1508</ele>
        <time>2022-07-17T06:10:00Z</time>
      </trkpt>
      <trkpt lat="45.73023" lon="6.4724">
        <ele>1507</ele>
        <time>2022-07-17T06:10:02Z</time>
      </trkpt>
      <trkpt lat="45.73021" lon="6.47239">
        <ele>1507</ele>
        <time>2022-07-17T06:10:04Z</time>
      </trkpt>
      <trkpt lat="45.73019" lon="6.47239">
        <ele>1506</ele>
        <time>2022-07-17T06:10:06Z</time>
      </trkpt>
      <trkpt lat="45.73017" lon="6.47238">
        <ele>1505</ele>
        <time>2022-07-17T06:10:08Z</time>
      </trkpt>
      <trkpt lat="45.73015" lon="6.47239">
        <ele>1504</ele>
        <time>2022-07-17T06:10:11Z</time>
      </trkpt>
      <trkpt lat="45.73014" lon="6.4724">
        <ele>1504</ele>
        <time>2022-07-17T06:10:14Z</time>
      </trkpt>
      <trkpt lat="45.73012" lon="6.47242">
        <ele>1503</ele>
        <time>2022-07-17T06:10:19Z</time>
      </trkpt>
      <trkpt lat="45.73011" lon="6.47245">
        <ele>1501</ele>
        <time>2022-07-17T06:10:22Z</time>
      </trkpt>
      <trkpt lat="45.73012" lon="6.47248">
        <ele>1500</ele>
        <time>2022-07-17T06:10:26Z</time>
      </trkpt>
      <trkpt lat="45.73013" lon="6.47251">
        <ele>1499</ele>
        <time>2022-07-17T06:10:28Z</time>
      </trkpt>
      <trkpt lat="45.73013" lon="6.47252">
        <ele>1499</ele>
        <time>2022-07-17T06:10:30Z</time>
      </trkpt>
      <trkpt lat="45.73014" lon="6.47253">
        <ele>1498</ele>
        <time>2022-07-17T06:10:31Z</time>
      </trkpt>
      <trkpt lat="45.73014" lon="6.47255">
        <ele>1498</ele>
        <time>2022-07-17T06:10:32Z</time>
      </trkpt>
      <trkpt lat="45.73015" lon="6.47256">
        <ele>1498</ele>
        <time>2022-07-17T06:10:33Z</time>
      </trkpt>
      <trkpt lat="45.73015" lon="6.47258">
        <ele>1498</ele>
        <time>2022-07-17T06:10:34Z</time>
      </trkpt>
      <trkpt lat="45.73016" lon="6.47259">
        <ele>1498</ele>
        <time>2022-07-17T06:10:35Z</time>
      </trkpt>
      <trkpt lat="45.73016" lon="6.47261">
        <ele>1497</ele>
        <time>2022-07-17T06:10:36Z</time>
      </trkpt>
      <trkpt lat="45.73017" lon="6.47262">
        <ele>1497</ele>
        <time>2022-07-17T06:10:37Z</time>
      </trkpt>
      <trkpt lat="45.73017" lon="6.47264">
        <ele>1497</ele>
        <time>2022-07-17T06:10:38Z</time>
      </trkpt>
      <trkpt lat="45.73018" lon="6.47266">
        <ele>1496</ele>
        <time>2022-07-17T06:10:40Z</time>
      </trkpt>
      <trkpt lat="45.73019" lon="6.47268">
        <ele>1496</ele>
        <time>2022-07-17T06:10:41Z</time>
      </trkpt>
      <trkpt lat="45.73019" lon="6.47271">
        <ele>1496</ele>
        <time>2022-07-17T06:10:42Z</time>
      </trkpt>
      <trkpt lat="45.7302" lon="6.47273">
        <ele>1495</ele>
        <time>2022-07-17T06:10:43Z</time>
      </trkpt>
      <trkpt lat="45.73021" lon="6.47275">
        <ele>1495</ele>
        <time>2022-07-17T06:10:44Z</time>
      </trkpt>
      <trkpt lat="45.73022" lon="6.47277">
        <ele>1495</ele>
        <time>2022-07-17T06:10:45Z</time>
      </trkpt>
      <trkpt lat="45.73022" lon="6.47279">
        <ele>1495</ele>
        <time>2022-07-17T06:10:46Z</time>
      </trkpt>
      <trkpt lat="45.73023" lon="6.47282">
        <ele>1494</ele>
        <time>2022-07-17T06:10:47Z</time>
      </trkpt>
      <trkpt lat="45.73023" lon="6.47284">
        <ele>1494</ele>
        <time>2022-07-17T06:10:48Z</time>
      </trkpt>
      <trkpt lat="45.73024" lon="6.47286">
        <ele>1494</ele>
        <time>2022-07-17T06:10:49Z</time>
      </trkpt>
      <trkpt lat="45.73025" lon="6.47288">
        <ele>1493</ele>
        <time>2022-07-17T06:10:50Z</time>
      </trkpt>
      <trkpt lat="45.73025" lon="6.4729">
        <ele>1493</ele>
        <time>2022-07-17T06:10:51Z</time>
      </trkpt>
      <trkpt lat="45.73025" lon="6.47291">
        <ele>1493</ele>
        <time>2022-07-17T06:10:52Z</time>
      </trkpt>
      <trkpt lat="45.73026" lon="6.47292">
        <ele>1492</ele>
        <time>2022-07-17T06:10:53Z</time>
      </trkpt>
      <trkpt lat="45.73026" lon="6.47294">
        <ele>1492</ele>
        <time>2022-07-17T06:10:54Z</time>
      </trkpt>
      <trkpt lat="45.73026" lon="6.47295">
        <ele>1492</ele>
        <time>2022-07-17T06:10:55Z</time>
      </trkpt>
      <trkpt lat="45.73027" lon="6.47297">
        <ele>1492</ele>
        <time>2022-07-17T06:10:56Z</time>
      </trkpt>
      <trkpt lat="45.73027" lon="6.47298">
        <ele>1492</ele>
        <time>2022-07-17T06:10:57Z</time>
      </trkpt>
      <trkpt lat="45.73027" lon="6.473">
        <ele>1492</ele>
        <time>2022-07-17T06:10:58Z</time>
      </trkpt>
      <trkpt lat="45.73028" lon="6.47301">
        <ele>1492</ele>
        <time>2022-07-17T06:10:59Z</time>
      </trkpt>
      <trkpt lat="45.73027" lon="6.47302">
        <ele>1491</ele>
        <time>2022-07-17T06:11:00Z</time>
      </trkpt>
      <trkpt lat="45.73026" lon="6.47303">
        <ele>1490</ele>
        <time>2022-07-17T06:11:01Z</time>
      </trkpt>
      <trkpt lat="45.73025" lon="6.47304">
        <ele>1490</ele>
        <time>2022-07-17T06:11:02Z</time>
      </trkpt>
      <trkpt lat="45.73024" lon="6.47304">
        <ele>1490</ele>
        <time>2022-07-17T06:11:03Z</time>
      </trkpt>
      <trkpt lat="45.73023" lon="6.47305">
        <ele>1490</ele>
        <time>2022-07-17T06:11:04Z</time>
      </trkpt>
      <trkpt lat="45.73022" lon="6.47306">
        <ele>1489</ele>
        <time>2022-07-17T06:11:05Z</time>
      </trkpt>
      <trkpt lat="45.73021" lon="6.47307">
        <ele>1489</ele>
        <time>2022-07-17T06:11:06Z</time>
      </trkpt>
      <trkpt lat="45.73021" lon="6.47308">
        <ele>1488</ele>
        <time>2022-07-17T06:11:07Z</time>
      </trkpt>
      <trkpt lat="45.7302" lon="6.47308">
        <ele>1488</ele>
        <time>2022-07-17T06:11:08Z</time>
      </trkpt>
      <trkpt lat="45.7302" lon="6.47309">
        <ele>1488</ele>
        <time>2022-07-17T06:11:09Z</time>
      </trkpt>
      <trkpt lat="45.7302" lon="6.4731">
        <ele>1488</ele>
        <time>2022-07-17T06:11:10Z</time>
      </trkpt>
      <trkpt lat="45.7302" lon="6.47311">
        <ele>1488</ele>
        <time>2022-07-17T06:11:11Z</time>
      </trkpt>
      <trkpt lat="45.7302" lon="6.47312">
        <ele>1488</ele>
        <time>2022-07-17T06:11:12Z</time>
      </trkpt>
      <trkpt lat="45.7302" lon="6.47313">
        <ele>1487</ele>
        <time>2022-07-17T06:11:14Z</time>
      </trkpt>
      <trkpt lat="45.7302" lon="6.47314">
        <ele>1487</ele>
        <time>2022-07-17T06:11:15Z</time>
      </trkpt>
      <trkpt lat="45.7302" lon="6.47315">
        <ele>1486</ele>
        <time>2022-07-17T06:11:16Z</time>
      </trkpt>
      <trkpt lat="45.73019" lon="6.47315">
        <ele>1486</ele>
        <time>2022-07-17T06:11:18Z</time>
      </trkpt>
      <trkpt lat="45.73019" lon="6.47316">
        <ele>1485</ele>
        <time>2022-07-17T06:11:19Z</time>
      </trkpt>
      <trkpt lat="45.73019" lon="6.47317">
        <ele>1484</ele>
        <time>2022-07-17T06:11:20Z</time>
      </trkpt>
      <trkpt lat="45.73019" lon="6.47318">
        <ele>1484</ele>
        <time>2022-07-17T06:11:21Z</time>
      </trkpt>
      <trkpt lat="45.73019" lon="6.47319">
        <ele>1484</ele>
        <time>2022-07-17T06:11:23Z</time>
      </trkpt>
      <trkpt lat="45.73019" lon="6.4732">
        <ele>1483</ele>
        <time>2022-07-17T06:11:24Z</time>
      </trkpt>
      <trkpt lat="45.73019" lon="6.47321">
        <ele>1483</ele>
        <time>2022-07-17T06:11:25Z</time>
      </trkpt>
      <trkpt lat="45.73019" lon="6.47323">
        <ele>1483</ele>
        <time>2022-07-17T06:11:27Z</time>
      </trkpt>
      <trkpt lat="45.73019" lon="6.47324">
        <ele>1483</ele>
        <time>2022-07-17T06:11:28Z</time>
      </trkpt>
      <trkpt lat="45.73019" lon="6.47325">
        <ele>1483</ele>
        <time>2022-07-17T06:11:29Z</time>
      </trkpt>
      <trkpt lat="45.7302" lon="6.47327">
        <ele>1482</ele>
        <time>2022-07-17T06:11:30Z</time>
      </trkpt>
      <trkpt lat="45.7302" lon="6.47328">
        <ele>1482</ele>
        <time>2022-07-17T06:11:31Z</time>
      </trkpt>
      <trkpt lat="45.7302" lon="6.47329">
        <ele>1482</ele>
        <time>2022-07-17T06:11:32Z</time>
      </trkpt>
      <trkpt lat="45.7302" lon="6.47331">
        <ele>1482</ele>
        <time>2022-07-17T06:11:33Z</time>
      </trkpt>
      <trkpt lat="45.7302" lon="6.47332">
        <ele>1482</ele>
        <time>2022-07-17T06:11:34Z</time>
      </trkpt>
      <trkpt lat="45.7302" lon="6.47333">
        <ele>1482</ele>
        <time>2022-07-17T06:11:35Z</time>
      </trkpt>
      <trkpt lat="45.7302" lon="6.47335">
        <ele>1481</ele>
        <time>2022-07-17T06:11:36Z</time>
      </trkpt>
      <trkpt lat="45.7302" lon="6.47336">
        <ele>1481</ele>
        <time>2022-07-17T06:11:37Z</time>
      </trkpt>
      <trkpt lat="45.7302" lon="6.47337">
        <ele>1481</ele>
        <time>2022-07-17T06:11:38Z</time>
      </trkpt>
      <trkpt lat="45.7302" lon="6.47339">
        <ele>1480</ele>
        <time>2022-07-17T06:11:39Z</time>
      </trkpt>
      <trkpt lat="45.73021" lon="6.4734">
        <ele>1480</ele>
        <time>2022-07-17T06:11:40Z</time>
      </trkpt>
      <trkpt lat="45.73021" lon="6.47341">
        <ele>1480</ele>
        <time>2022-07-17T06:11:41Z</time>
      </trkpt>
      <trkpt lat="45.73021" lon="6.47342">
        <ele>1480</ele>
        <time>2022-07-17T06:11:42Z</time>
      </trkpt>
      <trkpt lat="45.73021" lon="6.47344">
        <ele>1480</ele>
        <time>2022-07-17T06:11:43Z</time>
      </trkpt>
      <trkpt lat="45.73021" lon="6.47345">
        <ele>1480</ele>
        <time>2022-07-17T06:11:44Z</time>
      </trkpt>
      <trkpt lat="45.73021" lon="6.47346">
        <ele>1479</ele>
        <time>2022-07-17T06:11:45Z</time>
      </trkpt>
      <trkpt lat="45.73022" lon="6.47347">
        <ele>1479</ele>
        <time>2022-07-17T06:11:46Z</time>
      </trkpt>
      <trkpt lat="45.73022" lon="6.47349">
        <ele>1479</ele>
        <time>2022-07-17T06:11:47Z</time>
      </trkpt>
      <trkpt lat="45.7303" lon="6.47357">
        <ele>1478</ele>
        <time>2022-07-17T06:11:56Z</time>
      </trkpt>
      <trkpt lat="45.73031" lon="6.4736">
        <ele>1478</ele>
        <time>2022-07-17T06:11:57Z</time>
      </trkpt>
      <trkpt lat="45.73032" lon="6.47363">
        <ele>1478</ele>
        <time>2022-07-17T06:11:58Z</time>
      </trkpt>
      <trkpt lat="45.73033" lon="6.47366">
        <ele>1477</ele>
        <time>2022-07-17T06:11:59Z</time>
      </trkpt>
      <trkpt lat="45.73034" lon="6.47369">
        <ele>1477</ele>
        <time>2022-07-17T06:12:00Z</time>
      </trkpt>
      <trkpt lat="45.73034" lon="6.47372">
        <ele>1476</ele>
        <time>2022-07-17T06:12:01Z</time>
      </trkpt>
      <trkpt lat="45.73033" lon="6.47375">
        <ele>1476</ele>
        <time>2022-07-17T06:12:02Z</time>
      </trkpt>
      <trkpt lat="45.73032" lon="6.47378">
        <ele>1476</ele>
        <time>2022-07-17T06:12:03Z</time>
      </trkpt>
      <trkpt lat="45.73031" lon="6.47381">
        <ele>1476</ele>
        <time>2022-07-17T06:12:04Z</time>
      </trkpt>
      <trkpt lat="45.7303" lon="6.47384">
        <ele>1476</ele>
        <time>2022-07-17T06:12:05Z</time>
      </trkpt>
      <trkpt lat="45.7303" lon="6.47385">
        <ele>1476</ele>
        <time>2022-07-17T06:12:06Z</time>
      </trkpt>
      <trkpt lat="45.73029" lon="6.47387">
        <ele>1476</ele>
        <time>2022-07-17T06:12:07Z</time>
      </trkpt>
      <trkpt lat="45.73029" lon="6.47389">
        <ele>1476</ele>
        <time>2022-07-17T06:12:08Z</time>
      </trkpt>
      <trkpt lat="45.73029" lon="6.4739">
        <ele>1476</ele>
        <time>2022-07-17T06:12:09Z</time>
      </trkpt>
      <trkpt lat="45.73028" lon="6.47392">
        <ele>1476</ele>
        <time>2022-07-17T06:12:10Z</time>
      </trkpt>
      <trkpt lat="45.73028" lon="6.47393">
        <ele>1475</ele>
        <time>2022-07-17T06:12:11Z</time>
      </trkpt>
      <trkpt lat="45.73028" lon="6.47395">
        <ele>1475</ele>
        <time>2022-07-17T06:12:12Z</time>
      </trkpt>
      <trkpt lat="45.73027" lon="6.47397">
        <ele>1475</ele>
        <time>2022-07-17T06:12:13Z</time>
      </trkpt>
      <trkpt lat="45.73027" lon="6.47398">
        <ele>1475</ele>
        <time>2022-07-17T06:12:14Z</time>
      </trkpt>
      <trkpt lat="45.73027" lon="6.474">
        <ele>1475</ele>
        <time>2022-07-17T06:12:15Z</time>
      </trkpt>
      <trkpt lat="45.73027" lon="6.47402">
        <ele>1475</ele>
        <time>2022-07-17T06:12:16Z</time>
      </trkpt>
      <trkpt lat="45.73027" lon="6.47404">
        <ele>1475</ele>
        <time>2022-07-17T06:12:17Z</time>
      </trkpt>
      <trkpt lat="45.73027" lon="6.47406">
        <ele>1475</ele>
        <time>2022-07-17T06:12:18Z</time>
      </trkpt>
      <trkpt lat="45.73026" lon="6.47408">
        <ele>1475</ele>
        <time>2022-07-17T06:12:19Z</time>
      </trkpt>
      <trkpt lat="45.73026" lon="6.47409">
        <ele>1475</ele>
        <time>2022-07-17T06:12:20Z</time>
      </trkpt>
      <trkpt lat="45.73026" lon="6.47412">
        <ele>1475</ele>
        <time>2022-07-17T06:12:21Z</time>
      </trkpt>
      <trkpt lat="45.73026" lon="6.47414">
        <ele>1474</ele>
        <time>2022-07-17T06:12:22Z</time>
      </trkpt>
      <trkpt lat="45.73026" lon="6.47416">
        <ele>1474</ele>
        <time>2022-07-17T06:12:23Z</time>
      </trkpt>
      <trkpt lat="45.73026" lon="6.47418">
        <ele>1474</ele>
        <time>2022-07-17T06:12:24Z</time>
      </trkpt>
      <trkpt lat="45.73025" lon="6.4742">
        <ele>1474</ele>
        <time>2022-07-17T06:12:25Z</time>
      </trkpt>
      <trkpt lat="45.73025" lon="6.47422">
        <ele>1473</ele>
        <time>2022-07-17T06:12:26Z</time>
      </trkpt>
      <trkpt lat="45.73025" lon="6.47424">
        <ele>1472</ele>
        <time>2022-07-17T06:12:27Z</time>
      </trkpt>
      <trkpt lat="45.73025" lon="6.47426">
        <ele>1472</ele>
        <time>2022-07-17T06:12:28Z</time>
      </trkpt>
      <trkpt lat="45.73025" lon="6.47427">
        <ele>1472</ele>
        <time>2022-07-17T06:12:29Z</time>
      </trkpt>
      <trkpt lat="45.73025" lon="6.47429">
        <ele>1472</ele>
        <time>2022-07-17T06:12:30Z</time>
      </trkpt>
      <trkpt lat="45.73025" lon="6.47431">
        <ele>1472</ele>
        <time>2022-07-17T06:12:31Z</time>
      </trkpt>
      <trkpt lat="45.73025" lon="6.47433">
        <ele>1472</ele>
        <time>2022-07-17T06:12:32Z</time>
      </trkpt>
      <trkpt lat="45.73025" lon="6.47435">
        <ele>1472</ele>
        <time>2022-07-17T06:12:33Z</time>
      </trkpt>
      <trkpt lat="45.73025" lon="6.47437">
        <ele>1472</ele>
        <time>2022-07-17T06:12:34Z</time>
      </trkpt>
      <trkpt lat="45.73025" lon="6.47439">
        <ele>1472</ele>
        <time>2022-07-17T06:12:35Z</time>
      </trkpt>
      <trkpt lat="45.73025" lon="6.47441">
        <ele>1471</ele>
        <time>2022-07-17T06:12:36Z</time>
      </trkpt>
      <trkpt lat="45.73025" lon="6.47444">
        <ele>1470</ele>
        <time>2022-07-17T06:12:37Z</time>
      </trkpt>
      <trkpt lat="45.73025" lon="6.47446">
        <ele>1470</ele>
        <time>2022-07-17T06:12:38Z</time>
      </trkpt>
      <trkpt lat="45.73025" lon="6.47448">
        <ele>1470</ele>
        <time>2022-07-17T06:12:39Z</time>
      </trkpt>
      <trkpt lat="45.73024" lon="6.47451">
        <ele>1470</ele>
        <time>2022-07-17T06:12:40Z</time>
      </trkpt>
      <trkpt lat="45.73024" lon="6.47453">
        <ele>1470</ele>
        <time>2022-07-17T06:12:41Z</time>
      </trkpt>
      <trkpt lat="45.73024" lon="6.47454">
        <ele>1470</ele>
        <time>2022-07-17T06:12:42Z</time>
      </trkpt>
      <trkpt lat="45.73023" lon="6.47455">
        <ele>1470</ele>
        <time>2022-07-17T06:12:43Z</time>
      </trkpt>
      <trkpt lat="45.73022" lon="6.47456">
        <ele>1469</ele>
        <time>2022-07-17T06:12:44Z</time>
      </trkpt>
      <trkpt lat="45.73021" lon="6.47457">
        <ele>1469</ele>
        <time>2022-07-17T06:12:45Z</time>
      </trkpt>
      <trkpt lat="45.73021" lon="6.47458">
        <ele>1469</ele>
        <time>2022-07-17T06:12:46Z</time>
      </trkpt>
      <trkpt lat="45.7302" lon="6.47459">
        <ele>1469</ele>
        <time>2022-07-17T06:12:47Z</time>
      </trkpt>
      <trkpt lat="45.73019" lon="6.4746">
        <ele>1469</ele>
        <time>2022-07-17T06:12:48Z</time>
      </trkpt>
      <trkpt lat="45.73018" lon="6.47461">
        <ele>1469</ele>
        <time>2022-07-17T06:12:49Z</time>
      </trkpt>
      <trkpt lat="45.73017" lon="6.47461">
        <ele>1468</ele>
        <time>2022-07-17T06:12:50Z</time>
      </trkpt>
      <trkpt lat="45.73017" lon="6.47463">
        <ele>1468</ele>
        <time>2022-07-17T06:12:51Z</time>
      </trkpt>
      <trkpt lat="45.73017" lon="6.47464">
        <ele>1468</ele>
        <time>2022-07-17T06:12:53Z</time>
      </trkpt>
      <trkpt lat="45.73016" lon="6.47465">
        <ele>1466</ele>
        <time>2022-07-17T06:12:54Z</time>
      </trkpt>
      <trkpt lat="45.73016" lon="6.47466">
        <ele>1465</ele>
        <time>2022-07-17T06:12:55Z</time>
      </trkpt>
      <trkpt lat="45.73016" lon="6.47467">
        <ele>1466</ele>
        <time>2022-07-17T06:12:56Z</time>
      </trkpt>
      <trkpt lat="45.73016" lon="6.47468">
        <ele>1466</ele>
        <time>2022-07-17T06:12:57Z</time>
      </trkpt>
      <trkpt lat="45.73015" lon="6.47469">
        <ele>1465</ele>
        <time>2022-07-17T06:12:58Z</time>
      </trkpt>
      <trkpt lat="45.73015" lon="6.4747">
        <ele>1465</ele>
        <time>2022-07-17T06:12:59Z</time>
      </trkpt>
      <trkpt lat="45.73015" lon="6.47471">
        <ele>1465</ele>
        <time>2022-07-17T06:13:00Z</time>
      </trkpt>
      <trkpt lat="45.73014" lon="6.47472">
        <ele>1464</ele>
        <time>2022-07-17T06:13:01Z</time>
      </trkpt>
      <trkpt lat="45.73019" lon="6.47484">
        <ele>1461</ele>
        <time>2022-07-17T06:13:12Z</time>
      </trkpt>
      <trkpt lat="45.7302" lon="6.47485">
        <ele>1459</ele>
        <time>2022-07-17T06:13:15Z</time>
      </trkpt>
      <trkpt lat="45.73021" lon="6.47486">
        <ele>1459</ele>
        <time>2022-07-17T06:13:16Z</time>
      </trkpt>
      <trkpt lat="45.73021" lon="6.47487">
        <ele>1459</ele>
        <time>2022-07-17T06:13:17Z</time>
      </trkpt>
      <trkpt lat="45.73022" lon="6.47488">
        <ele>1459</ele>
        <time>2022-07-17T06:13:18Z</time>
      </trkpt>
      <trkpt lat="45.73023" lon="6.47489">
        <ele>1459</ele>
        <time>2022-07-17T06:13:19Z</time>
      </trkpt>
      <trkpt lat="45.73024" lon="6.4749">
        <ele>1459</ele>
        <time>2022-07-17T06:13:20Z</time>
      </trkpt>
      <trkpt lat="45.73025" lon="6.47491">
        <ele>1459</ele>
        <time>2022-07-17T06:13:21Z</time>
      </trkpt>
      <trkpt lat="45.73025" lon="6.47492">
        <ele>1459</ele>
        <time>2022-07-17T06:13:22Z</time>
      </trkpt>
      <trkpt lat="45.73026" lon="6.47493">
        <ele>1458</ele>
        <time>2022-07-17T06:13:23Z</time>
      </trkpt>
      <trkpt lat="45.73027" lon="6.47494">
        <ele>1458</ele>
        <time>2022-07-17T06:13:24Z</time>
      </trkpt>
      <trkpt lat="45.73028" lon="6.47495">
        <ele>1458</ele>
        <time>2022-07-17T06:13:25Z</time>
      </trkpt>
      <trkpt lat="45.73028" lon="6.47496">
        <ele>1457</ele>
        <time>2022-07-17T06:13:26Z</time>
      </trkpt>
      <trkpt lat="45.73029" lon="6.47497">
        <ele>1457</ele>
        <time>2022-07-17T06:13:27Z</time>
      </trkpt>
      <trkpt lat="45.7303" lon="6.47498">
        <ele>1457</ele>
        <time>2022-07-17T06:13:28Z</time>
      </trkpt>
      <trkpt lat="45.73031" lon="6.47498">
        <ele>1457</ele>
        <time>2022-07-17T06:13:29Z</time>
      </trkpt>
      <trkpt lat="45.73031" lon="6.47499">
        <ele>1457</ele>
        <time>2022-07-17T06:13:30Z</time>
      </trkpt>
      <trkpt lat="45.73032" lon="6.475">
        <ele>1457</ele>
        <time>2022-07-17T06:13:31Z</time>
      </trkpt>
      <trkpt lat="45.73033" lon="6.47501">
        <ele>1456</ele>
        <time>2022-07-17T06:13:32Z</time>
      </trkpt>
      <trkpt lat="45.73034" lon="6.47502">
        <ele>1455</ele>
        <time>2022-07-17T06:13:33Z</time>
      </trkpt>
      <trkpt lat="45.73034" lon="6.47503">
        <ele>1455</ele>
        <time>2022-07-17T06:13:34Z</time>
      </trkpt>
      <trkpt lat="45.73035" lon="6.47503">
        <ele>1455</ele>
        <time>2022-07-17T06:13:35Z</time>
      </trkpt>
      <trkpt lat="45.73036" lon="6.47504">
        <ele>1455</ele>
        <time>2022-07-17T06:13:36Z</time>
      </trkpt>
      <trkpt lat="45.73037" lon="6.47505">
        <ele>1454</ele>
        <time>2022-07-17T06:13:38Z</time>
      </trkpt>
      <trkpt lat="45.73038" lon="6.47506">
        <ele>1453</ele>
        <time>2022-07-17T06:13:39Z</time>
      </trkpt>
      <trkpt lat="45.73039" lon="6.47507">
        <ele>1453</ele>
        <time>2022-07-17T06:13:41Z</time>
      </trkpt>
      <trkpt lat="45.7304" lon="6.47507">
        <ele>1453</ele>
        <time>2022-07-17T06:13:42Z</time>
      </trkpt>
      <trkpt lat="45.7304" lon="6.47508">
        <ele>1453</ele>
        <time>2022-07-17T06:13:43Z</time>
      </trkpt>
      <trkpt lat="45.73041" lon="6.47509">
        <ele>1452</ele>
        <time>2022-07-17T06:13:44Z</time>
      </trkpt>
      <trkpt lat="45.73042" lon="6.47509">
        <ele>1452</ele>
        <time>2022-07-17T06:13:45Z</time>
      </trkpt>
      <trkpt lat="45.73042" lon="6.47511">
        <ele>1452</ele>
        <time>2022-07-17T06:13:46Z</time>
      </trkpt>
      <trkpt lat="45.73043" lon="6.47512">
        <ele>1452</ele>
        <time>2022-07-17T06:13:47Z</time>
      </trkpt>
      <trkpt lat="45.73043" lon="6.47513">
        <ele>1451</ele>
        <time>2022-07-17T06:13:48Z</time>
      </trkpt>
      <trkpt lat="45.73044" lon="6.47515">
        <ele>1451</ele>
        <time>2022-07-17T06:13:50Z</time>
      </trkpt>
      <trkpt lat="45.73045" lon="6.47516">
        <ele>1450</ele>
        <time>2022-07-17T06:13:51Z</time>
      </trkpt>
      <trkpt lat="45.73045" lon="6.47518">
        <ele>1450</ele>
        <time>2022-07-17T06:13:52Z</time>
      </trkpt>
      <trkpt lat="45.73046" lon="6.47519">
        <ele>1450</ele>
        <time>2022-07-17T06:13:53Z</time>
      </trkpt>
      <trkpt lat="45.73046" lon="6.4752">
        <ele>1450</ele>
        <time>2022-07-17T06:13:54Z</time>
      </trkpt>
      <trkpt lat="45.73051" lon="6.47531">
        <ele>1448</ele>
        <time>2022-07-17T06:14:00Z</time>
      </trkpt>
      <trkpt lat="45.73051" lon="6.47535">
        <ele>1448</ele>
        <time>2022-07-17T06:14:03Z</time>
      </trkpt>
      <trkpt lat="45.7305" lon="6.47538">
        <ele>1448</ele>
        <time>2022-07-17T06:14:04Z</time>
      </trkpt>
      <trkpt lat="45.7305" lon="6.47541">
        <ele>1448</ele>
        <time>2022-07-17T06:14:05Z</time>
      </trkpt>
      <trkpt lat="45.73049" lon="6.47545">
        <ele>1448</ele>
        <time>2022-07-17T06:14:06Z</time>
      </trkpt>
      <trkpt lat="45.73048" lon="6.47548">
        <ele>1448</ele>
        <time>2022-07-17T06:14:07Z</time>
      </trkpt>
      <trkpt lat="45.73047" lon="6.47552">
        <ele>1447</ele>
        <time>2022-07-17T06:14:08Z</time>
      </trkpt>
      <trkpt lat="45.73045" lon="6.47556">
        <ele>1447</ele>
        <time>2022-07-17T06:14:09Z</time>
      </trkpt>
      <trkpt lat="45.73044" lon="6.47559">
        <ele>1446</ele>
        <time>2022-07-17T06:14:10Z</time>
      </trkpt>
      <trkpt lat="45.73043" lon="6.4756">
        <ele>1445</ele>
        <time>2022-07-17T06:14:11Z</time>
      </trkpt>
      <trkpt lat="45.73042" lon="6.47561">
        <ele>1445</ele>
        <time>2022-07-17T06:14:12Z</time>
      </trkpt>
      <trkpt lat="45.73041" lon="6.47562">
        <ele>1445</ele>
        <time>2022-07-17T06:14:13Z</time>
      </trkpt>
      <trkpt lat="45.7304" lon="6.47562">
        <ele>1445</ele>
        <time>2022-07-17T06:14:14Z</time>
      </trkpt>
      <trkpt lat="45.73039" lon="6.47563">
        <ele>1445</ele>
        <time>2022-07-17T06:14:15Z</time>
      </trkpt>
      <trkpt lat="45.73038" lon="6.47564">
        <ele>1445</ele>
        <time>2022-07-17T06:14:16Z</time>
      </trkpt>
      <trkpt lat="45.73037" lon="6.47564">
        <ele>1445</ele>
        <time>2022-07-17T06:14:17Z</time>
      </trkpt>
      <trkpt lat="45.73036" lon="6.47565">
        <ele>1445</ele>
        <time>2022-07-17T06:14:18Z</time>
      </trkpt>
      <trkpt lat="45.73035" lon="6.47566">
        <ele>1444</ele>
        <time>2022-07-17T06:14:19Z</time>
      </trkpt>
      <trkpt lat="45.73026" lon="6.47564">
        <ele>1442</ele>
        <time>2022-07-17T06:14:26Z</time>
      </trkpt>
      <trkpt lat="45.73026" lon="6.47565">
        <ele>1441</ele>
        <time>2022-07-17T06:14:29Z</time>
      </trkpt>
      <trkpt lat="45.73027" lon="6.47566">
        <ele>1441</ele>
        <time>2022-07-17T06:14:31Z</time>
      </trkpt>
      <trkpt lat="45.73027" lon="6.47567">
        <ele>1441</ele>
        <time>2022-07-17T06:14:32Z</time>
      </trkpt>
      <trkpt lat="45.73028" lon="6.47568">
        <ele>1441</ele>
        <time>2022-07-17T06:14:34Z</time>
      </trkpt>
      <trkpt lat="45.73028" lon="6.47569">
        <ele>1441</ele>
        <time>2022-07-17T06:14:35Z</time>
      </trkpt>
      <trkpt lat="45.73029" lon="6.4757">
        <ele>1441</ele>
        <time>2022-07-17T06:14:37Z</time>
      </trkpt>
      <trkpt lat="45.73029" lon="6.47571">
        <ele>1441</ele>
        <time>2022-07-17T06:14:38Z</time>
      </trkpt>
      <trkpt lat="45.73029" lon="6.47572">
        <ele>1441</ele>
        <time>2022-07-17T06:14:40Z</time>
      </trkpt>
      <trkpt lat="45.7303" lon="6.47573">
        <ele>1441</ele>
        <time>2022-07-17T06:14:41Z</time>
      </trkpt>
      <trkpt lat="45.7303" lon="6.47574">
        <ele>1441</ele>
        <time>2022-07-17T06:14:43Z</time>
      </trkpt>
      <trkpt lat="45.73031" lon="6.47575">
        <ele>1441</ele>
        <time>2022-07-17T06:14:44Z</time>
      </trkpt>
      <trkpt lat="45.73031" lon="6.47576">
        <ele>1441</ele>
        <time>2022-07-17T06:14:46Z</time>
      </trkpt>
      <trkpt lat="45.73032" lon="6.47577">
        <ele>1441</ele>
        <time>2022-07-17T06:14:47Z</time>
      </trkpt>
      <trkpt lat="45.73032" lon="6.47578">
        <ele>1440</ele>
        <time>2022-07-17T06:14:48Z</time>
      </trkpt>
      <trkpt lat="45.73032" lon="6.47579">
        <ele>1439</ele>
        <time>2022-07-17T06:14:49Z</time>
      </trkpt>
      <trkpt lat="45.73033" lon="6.4758">
        <ele>1440</ele>
        <time>2022-07-17T06:14:50Z</time>
      </trkpt>
      <trkpt lat="45.73033" lon="6.47581">
        <ele>1440</ele>
        <time>2022-07-17T06:14:51Z</time>
      </trkpt>
      <trkpt lat="45.73033" lon="6.47583">
        <ele>1439</ele>
        <time>2022-07-17T06:14:52Z</time>
      </trkpt>
      <trkpt lat="45.73034" lon="6.47584">
        <ele>1439</ele>
        <time>2022-07-17T06:14:53Z</time>
      </trkpt>
      <trkpt lat="45.73034" lon="6.47585">
        <ele>1439</ele>
        <time>2022-07-17T06:14:54Z</time>
      </trkpt>
      <trkpt lat="45.73034" lon="6.47586">
        <ele>1439</ele>
        <time>2022-07-17T06:14:55Z</time>
      </trkpt>
      <trkpt lat="45.73035" lon="6.47587">
        <ele>1439</ele>
        <time>2022-07-17T06:14:56Z</time>
      </trkpt>
      <trkpt lat="45.73035" lon="6.47589">
        <ele>1439</ele>
        <time>2022-07-17T06:14:57Z</time>
      </trkpt>
      <trkpt lat="45.73036" lon="6.4759">
        <ele>1439</ele>
        <time>2022-07-17T06:14:58Z</time>
      </trkpt>
      <trkpt lat="45.73037" lon="6.4759">
        <ele>1438</ele>
        <time>2022-07-17T06:14:59Z</time>
      </trkpt>
      <trkpt lat="45.73038" lon="6.47591">
        <ele>1438</ele>
        <time>2022-07-17T06:15:00Z</time>
      </trkpt>
      <trkpt lat="45.73039" lon="6.47592">
        <ele>1437</ele>
        <time>2022-07-17T06:15:01Z</time>
      </trkpt>
      <trkpt lat="45.7304" lon="6.47593">
        <ele>1437</ele>
        <time>2022-07-17T06:15:02Z</time>
      </trkpt>
      <trkpt lat="45.73041" lon="6.47594">
        <ele>1437</ele>
        <time>2022-07-17T06:15:03Z</time>
      </trkpt>
      <trkpt lat="45.73041" lon="6.47595">
        <ele>1437</ele>
        <time>2022-07-17T06:15:04Z</time>
      </trkpt>
      <trkpt lat="45.73042" lon="6.47596">
        <ele>1437</ele>
        <time>2022-07-17T06:15:05Z</time>
      </trkpt>
      <trkpt lat="45.73043" lon="6.47597">
        <ele>1437</ele>
        <time>2022-07-17T06:15:06Z</time>
      </trkpt>
      <trkpt lat="45.73044" lon="6.47598">
        <ele>1437</ele>
        <time>2022-07-17T06:15:07Z</time>
      </trkpt>
      <trkpt lat="45.73045" lon="6.476">
        <ele>1436</ele>
        <time>2022-07-17T06:15:08Z</time>
      </trkpt>
      <trkpt lat="45.73046" lon="6.47601">
        <ele>1436</ele>
        <time>2022-07-17T06:15:09Z</time>
      </trkpt>
      <trkpt lat="45.73047" lon="6.47603">
        <ele>1436</ele>
        <time>2022-07-17T06:15:10Z</time>
      </trkpt>
      <trkpt lat="45.73048" lon="6.47604">
        <ele>1436</ele>
        <time>2022-07-17T06:15:11Z</time>
      </trkpt>
      <trkpt lat="45.73048" lon="6.47606">
        <ele>1436</ele>
        <time>2022-07-17T06:15:12Z</time>
      </trkpt>
      <trkpt lat="45.73049" lon="6.47608">
        <ele>1436</ele>
        <time>2022-07-17T06:15:13Z</time>
      </trkpt>
      <trkpt lat="45.73048" lon="6.47613">
        <ele>1436</ele>
        <time>2022-07-17T06:15:14Z</time>
      </trkpt>
      <trkpt lat="45.73047" lon="6.47619">
        <ele>1436</ele>
        <time>2022-07-17T06:15:15Z</time>
      </trkpt>
      <trkpt lat="45.73046" lon="6.47625">
        <ele>1435</ele>
        <time>2022-07-17T06:15:16Z</time>
      </trkpt>
      <trkpt lat="45.73045" lon="6.47628">
        <ele>1435</ele>
        <time>2022-07-17T06:15:17Z</time>
      </trkpt>
      <trkpt lat="45.73043" lon="6.4763">
        <ele>1435</ele>
        <time>2022-07-17T06:15:18Z</time>
      </trkpt>
      <trkpt lat="45.73042" lon="6.47633">
        <ele>1435</ele>
        <time>2022-07-17T06:15:19Z</time>
      </trkpt>
      <trkpt lat="45.7304" lon="6.47636">
        <ele>1435</ele>
        <time>2022-07-17T06:15:20Z</time>
      </trkpt>
      <trkpt lat="45.7304" lon="6.47637">
        <ele>1435</ele>
        <time>2022-07-17T06:15:22Z</time>
      </trkpt>
      <trkpt lat="45.73041" lon="6.47637">
        <ele>1435</ele>
        <time>2022-07-17T06:15:23Z</time>
      </trkpt>
      <trkpt lat="45.73041" lon="6.47638">
        <ele>1435</ele>
        <time>2022-07-17T06:15:25Z</time>
      </trkpt>
      <trkpt lat="45.73042" lon="6.47639">
        <ele>1434</ele>
        <time>2022-07-17T06:15:28Z</time>
      </trkpt>
      <trkpt lat="45.73042" lon="6.4764">
        <ele>1434</ele>
        <time>2022-07-17T06:15:30Z</time>
      </trkpt>
      <trkpt lat="45.73043" lon="6.4764">
        <ele>1433</ele>
        <time>2022-07-17T06:15:32Z</time>
      </trkpt>
      <trkpt lat="45.73043" lon="6.47641">
        <ele>1433</ele>
        <time>2022-07-17T06:15:33Z</time>
      </trkpt>
      <trkpt lat="45.73043" lon="6.47642">
        <ele>1432</ele>
        <time>2022-07-17T06:15:36Z</time>
      </trkpt>
      <trkpt lat="45.73044" lon="6.47642">
        <ele>1431</ele>
        <time>2022-07-17T06:15:37Z</time>
      </trkpt>
      <trkpt lat="45.73044" lon="6.47643">
        <ele>1431</ele>
        <time>2022-07-17T06:15:39Z</time>
      </trkpt>
      <trkpt lat="45.73045" lon="6.47644">
        <ele>1429</ele>
        <time>2022-07-17T06:15:42Z</time>
      </trkpt>
      <trkpt lat="45.73045" lon="6.47645">
        <ele>1428</ele>
        <time>2022-07-17T06:15:46Z</time>
      </trkpt>
      <trkpt lat="45.73046" lon="6.47645">
        <ele>1428</ele>
        <time>2022-07-17T06:15:47Z</time>
      </trkpt>
      <trkpt lat="45.73046" lon="6.47646">
        <ele>1427</ele>
        <time>2022-07-17T06:15:48Z</time>
      </trkpt>
      <trkpt lat="45.73046" lon="6.47648">
        <ele>1427</ele>
        <time>2022-07-17T06:15:50Z</time>
      </trkpt>
      <trkpt lat="45.73047" lon="6.4765">
        <ele>1427</ele>
        <time>2022-07-17T06:15:51Z</time>
      </trkpt>
      <trkpt lat="45.73047" lon="6.47652">
        <ele>1427</ele>
        <time>2022-07-17T06:15:52Z</time>
      </trkpt>
      <trkpt lat="45.73047" lon="6.47654">
        <ele>1426</ele>
        <time>2022-07-17T06:15:53Z</time>
      </trkpt>
      <trkpt lat="45.73048" lon="6.47657">
        <ele>1426</ele>
        <time>2022-07-17T06:15:54Z</time>
      </trkpt>
      <trkpt lat="45.73048" lon="6.47659">
        <ele>1426</ele>
        <time>2022-07-17T06:15:55Z</time>
      </trkpt>
      <trkpt lat="45.73048" lon="6.47661">
        <ele>1426</ele>
        <time>2022-07-17T06:15:56Z</time>
      </trkpt>
      <trkpt lat="45.73049" lon="6.47661">
        <ele>1425</ele>
        <time>2022-07-17T06:15:57Z</time>
      </trkpt>
      <trkpt lat="45.73049" lon="6.47662">
        <ele>1425</ele>
        <time>2022-07-17T06:15:58Z</time>
      </trkpt>
      <trkpt lat="45.7305" lon="6.47662">
        <ele>1425</ele>
        <time>2022-07-17T06:16:00Z</time>
      </trkpt>
      <trkpt lat="45.7305" lon="6.47663">
        <ele>1423</ele>
        <time>2022-07-17T06:16:01Z</time>
      </trkpt>
      <trkpt lat="45.73051" lon="6.47663">
        <ele>1423</ele>
        <time>2022-07-17T06:16:04Z</time>
      </trkpt>
      <trkpt lat="45.73051" lon="6.47664">
        <ele>1422</ele>
        <time>2022-07-17T06:16:05Z</time>
      </trkpt>
      <trkpt lat="45.73051" lon="6.47665">
        <ele>1422</ele>
        <time>2022-07-17T06:16:07Z</time>
      </trkpt>
      <trkpt lat="45.73052" lon="6.47665">
        <ele>1422</ele>
        <time>2022-07-17T06:16:08Z</time>
      </trkpt>
      <trkpt lat="45.73052" lon="6.47666">
        <ele>1421</ele>
        <time>2022-07-17T06:16:10Z</time>
      </trkpt>
      <trkpt lat="45.73053" lon="6.47666">
        <ele>1421</ele>
        <time>2022-07-17T06:16:11Z</time>
      </trkpt>
      <trkpt lat="45.73053" lon="6.47667">
        <ele>1421</ele>
        <time>2022-07-17T06:16:12Z</time>
      </trkpt>
      <trkpt lat="45.73054" lon="6.47668">
        <ele>1421</ele>
        <time>2022-07-17T06:16:15Z</time>
      </trkpt>
      <trkpt lat="45.73055" lon="6.47669">
        <ele>1419</ele>
        <time>2022-07-17T06:16:18Z</time>
      </trkpt>
      <trkpt lat="45.73055" lon="6.4767">
        <ele>1419</ele>
        <time>2022-07-17T06:16:20Z</time>
      </trkpt>
      <trkpt lat="45.73055" lon="6.47673">
        <ele>1419</ele>
        <time>2022-07-17T06:16:21Z</time>
      </trkpt>
      <trkpt lat="45.73054" lon="6.47676">
        <ele>1419</ele>
        <time>2022-07-17T06:16:22Z</time>
      </trkpt>
      <trkpt lat="45.73054" lon="6.47679">
        <ele>1418</ele>
        <time>2022-07-17T06:16:23Z</time>
      </trkpt>
      <trkpt lat="45.73054" lon="6.47683">
        <ele>1417</ele>
        <time>2022-07-17T06:16:24Z</time>
      </trkpt>
      <trkpt lat="45.73053" lon="6.47686">
        <ele>1417</ele>
        <time>2022-07-17T06:16:25Z</time>
      </trkpt>
      <trkpt lat="45.73053" lon="6.47687">
        <ele>1417</ele>
        <time>2022-07-17T06:16:27Z</time>
      </trkpt>
      <trkpt lat="45.73053" lon="6.47688">
        <ele>1417</ele>
        <time>2022-07-17T06:16:28Z</time>
      </trkpt>
      <trkpt lat="45.73053" lon="6.47689">
        <ele>1416</ele>
        <time>2022-07-17T06:16:30Z</time>
      </trkpt>
      <trkpt lat="45.73053" lon="6.4769">
        <ele>1416</ele>
        <time>2022-07-17T06:16:32Z</time>
      </trkpt>
      <trkpt lat="45.73053" lon="6.47691">
        <ele>1416</ele>
        <time>2022-07-17T06:16:33Z</time>
      </trkpt>
      <trkpt lat="45.73052" lon="6.47691">
        <ele>1415</ele>
        <time>2022-07-17T06:16:34Z</time>
      </trkpt>
      <trkpt lat="45.73052" lon="6.47692">
        <ele>1415</ele>
        <time>2022-07-17T06:16:35Z</time>
      </trkpt>
      <trkpt lat="45.73052" lon="6.47693">
        <ele>1414</ele>
        <time>2022-07-17T06:16:37Z</time>
      </trkpt>
      <trkpt lat="45.73052" lon="6.47694">
        <ele>1414</ele>
        <time>2022-07-17T06:16:38Z</time>
      </trkpt>
      <trkpt lat="45.73052" lon="6.47695">
        <ele>1413</ele>
        <time>2022-07-17T06:16:41Z</time>
      </trkpt>
      <trkpt lat="45.73052" lon="6.47696">
        <ele>1412</ele>
        <time>2022-07-17T06:16:43Z</time>
      </trkpt>
      <trkpt lat="45.73052" lon="6.47697">
        <ele>1411</ele>
        <time>2022-07-17T06:16:44Z</time>
      </trkpt>
      <trkpt lat="45.73052" lon="6.47698">
        <ele>1411</ele>
        <time>2022-07-17T06:16:46Z</time>
      </trkpt>
      <trkpt lat="45.73052" lon="6.47699">
        <ele>1411</ele>
        <time>2022-07-17T06:16:47Z</time>
      </trkpt>
      <trkpt lat="45.73051" lon="6.47699">
        <ele>1410</ele>
        <time>2022-07-17T06:16:48Z</time>
      </trkpt>
      <trkpt lat="45.73051" lon="6.477">
        <ele>1409</ele>
        <time>2022-07-17T06:16:49Z</time>
      </trkpt>
      <trkpt lat="45.7305" lon="6.47704">
        <ele>1409</ele>
        <time>2022-07-17T06:16:51Z</time>
      </trkpt>
      <trkpt lat="45.73048" lon="6.47708">
        <ele>1409</ele>
        <time>2022-07-17T06:16:52Z</time>
      </trkpt>
      <trkpt lat="45.73047" lon="6.47712">
        <ele>1409</ele>
        <time>2022-07-17T06:16:53Z</time>
      </trkpt>
      <trkpt lat="45.73047" lon="6.47713">
        <ele>1408</ele>
        <time>2022-07-17T06:16:54Z</time>
      </trkpt>
      <trkpt lat="45.73046" lon="6.47714">
        <ele>1408</ele>
        <time>2022-07-17T06:16:55Z</time>
      </trkpt>
      <trkpt lat="45.73046" lon="6.47715">
        <ele>1407</ele>
        <time>2022-07-17T06:16:57Z</time>
      </trkpt>
      <trkpt lat="45.73045" lon="6.47715">
        <ele>1407</ele>
        <time>2022-07-17T06:16:58Z</time>
      </trkpt>
      <trkpt lat="45.73045" lon="6.47716">
        <ele>1407</ele>
        <time>2022-07-17T06:16:59Z</time>
      </trkpt>
      <trkpt lat="45.73044" lon="6.47717">
        <ele>1407</ele>
        <time>2022-07-17T06:17:00Z</time>
      </trkpt>
      <trkpt lat="45.73044" lon="6.47718">
        <ele>1406</ele>
        <time>2022-07-17T06:17:02Z</time>
      </trkpt>
      <trkpt lat="45.73043" lon="6.47718">
        <ele>1406</ele>
        <time>2022-07-17T06:17:03Z</time>
      </trkpt>
      <trkpt lat="45.73043" lon="6.47719">
        <ele>1406</ele>
        <time>2022-07-17T06:17:04Z</time>
      </trkpt>
      <trkpt lat="45.73042" lon="6.4772">
        <ele>1405</ele>
        <time>2022-07-17T06:17:05Z</time>
      </trkpt>
      <trkpt lat="45.73042" lon="6.47721">
        <ele>1404</ele>
        <time>2022-07-17T06:17:07Z</time>
      </trkpt>
      <trkpt lat="45.73041" lon="6.47721">
        <ele>1403</ele>
        <time>2022-07-17T06:17:08Z</time>
      </trkpt>
      <trkpt lat="45.73041" lon="6.47722">
        <ele>1403</ele>
        <time>2022-07-17T06:17:09Z</time>
      </trkpt>
      <trkpt lat="45.73041" lon="6.47723">
        <ele>1403</ele>
        <time>2022-07-17T06:17:10Z</time>
      </trkpt>
      <trkpt lat="45.73042" lon="6.47724">
        <ele>1403</ele>
        <time>2022-07-17T06:17:12Z</time>
      </trkpt>
      <trkpt lat="45.73042" lon="6.47725">
        <ele>1402</ele>
        <time>2022-07-17T06:17:14Z</time>
      </trkpt>
      <trkpt lat="45.73042" lon="6.47726">
        <ele>1402</ele>
        <time>2022-07-17T06:17:15Z</time>
      </trkpt>
      <trkpt lat="45.73043" lon="6.47726">
        <ele>1401</ele>
        <time>2022-07-17T06:17:16Z</time>
      </trkpt>
      <trkpt lat="45.73043" lon="6.47727">
        <ele>1401</ele>
        <time>2022-07-17T06:17:17Z</time>
      </trkpt>
      <trkpt lat="45.73043" lon="6.47728">
        <ele>1401</ele>
        <time>2022-07-17T06:17:18Z</time>
      </trkpt>
      <trkpt lat="45.73044" lon="6.47728">
        <ele>1401</ele>
        <time>2022-07-17T06:17:19Z</time>
      </trkpt>
      <trkpt lat="45.73044" lon="6.47729">
        <ele>1400</ele>
        <time>2022-07-17T06:17:20Z</time>
      </trkpt>
      <trkpt lat="45.73044" lon="6.4773">
        <ele>1399</ele>
        <time>2022-07-17T06:17:21Z</time>
      </trkpt>
      <trkpt lat="45.73045" lon="6.47731">
        <ele>1399</ele>
        <time>2022-07-17T06:17:23Z</time>
      </trkpt>
      <trkpt lat="45.73045" lon="6.47732">
        <ele>1398</ele>
        <time>2022-07-17T06:17:25Z</time>
      </trkpt>
      <trkpt lat="45.73045" lon="6.47733">
        <ele>1397</ele>
        <time>2022-07-17T06:17:26Z</time>
      </trkpt>
      <trkpt lat="45.73046" lon="6.47733">
        <ele>1397</ele>
        <time>2022-07-17T06:17:27Z</time>
      </trkpt>
      <trkpt lat="45.73046" lon="6.47734">
        <ele>1396</ele>
        <time>2022-07-17T06:17:28Z</time>
      </trkpt>
      <trkpt lat="45.73046" lon="6.47735">
        <ele>1396</ele>
        <time>2022-07-17T06:17:29Z</time>
      </trkpt>
      <trkpt lat="45.73046" lon="6.47736">
        <ele>1395</ele>
        <time>2022-07-17T06:17:30Z</time>
      </trkpt>
      <trkpt lat="45.73046" lon="6.47737">
        <ele>1395</ele>
        <time>2022-07-17T06:17:31Z</time>
      </trkpt>
      <trkpt lat="45.73047" lon="6.47738">
        <ele>1395</ele>
        <time>2022-07-17T06:17:32Z</time>
      </trkpt>
      <trkpt lat="45.73047" lon="6.47739">
        <ele>1395</ele>
        <time>2022-07-17T06:17:33Z</time>
      </trkpt>
      <trkpt lat="45.73047" lon="6.4774">
        <ele>1395</ele>
        <time>2022-07-17T06:17:34Z</time>
      </trkpt>
      <trkpt lat="45.73047" lon="6.47741">
        <ele>1395</ele>
        <time>2022-07-17T06:17:35Z</time>
      </trkpt>
      <trkpt lat="45.73047" lon="6.47742">
        <ele>1395</ele>
        <time>2022-07-17T06:17:36Z</time>
      </trkpt>
      <trkpt lat="45.73047" lon="6.47743">
        <ele>1395</ele>
        <time>2022-07-17T06:17:38Z</time>
      </trkpt>
      <trkpt lat="45.73048" lon="6.47744">
        <ele>1394</ele>
        <time>2022-07-17T06:17:39Z</time>
      </trkpt>
      <trkpt lat="45.73048" lon="6.47745">
        <ele>1393</ele>
        <time>2022-07-17T06:17:40Z</time>
      </trkpt>
      <trkpt lat="45.73048" lon="6.47746">
        <ele>1394</ele>
        <time>2022-07-17T06:17:41Z</time>
      </trkpt>
      <trkpt lat="45.73048" lon="6.47747">
        <ele>1394</ele>
        <time>2022-07-17T06:17:42Z</time>
      </trkpt>
      <trkpt lat="45.73048" lon="6.47748">
        <ele>1394</ele>
        <time>2022-07-17T06:17:43Z</time>
      </trkpt>
      <trkpt lat="45.73048" lon="6.47749">
        <ele>1394</ele>
        <time>2022-07-17T06:17:44Z</time>
      </trkpt>
      <trkpt lat="45.73049" lon="6.4775">
        <ele>1394</ele>
        <time>2022-07-17T06:17:45Z</time>
      </trkpt>
      <trkpt lat="45.73049" lon="6.47751">
        <ele>1394</ele>
        <time>2022-07-17T06:17:46Z</time>
      </trkpt>
      <trkpt lat="45.73049" lon="6.47752">
        <ele>1394</ele>
        <time>2022-07-17T06:17:47Z</time>
      </trkpt>
      <trkpt lat="45.7305" lon="6.47756">
        <ele>1394</ele>
        <time>2022-07-17T06:17:48Z</time>
      </trkpt>
      <trkpt lat="45.7305" lon="6.47761">
        <ele>1394</ele>
        <time>2022-07-17T06:17:49Z</time>
      </trkpt>
      <trkpt lat="45.73051" lon="6.47765">
        <ele>1394</ele>
        <time>2022-07-17T06:17:50Z</time>
      </trkpt>
      <trkpt lat="45.73051" lon="6.47769">
        <ele>1394</ele>
        <time>2022-07-17T06:17:51Z</time>
      </trkpt>
      <trkpt lat="45.73051" lon="6.47772">
        <ele>1394</ele>
        <time>2022-07-17T06:17:52Z</time>
      </trkpt>
      <trkpt lat="45.7305" lon="6.47776">
        <ele>1394</ele>
        <time>2022-07-17T06:17:53Z</time>
      </trkpt>
      <trkpt lat="45.7305" lon="6.47779">
        <ele>1395</ele>
        <time>2022-07-17T06:17:54Z</time>
      </trkpt>
      <trkpt lat="45.73049" lon="6.47781">
        <ele>1395</ele>
        <time>2022-07-17T06:17:55Z</time>
      </trkpt>
      <trkpt lat="45.73048" lon="6.47784">
        <ele>1395</ele>
        <time>2022-07-17T06:17:56Z</time>
      </trkpt>
      <trkpt lat="45.73047" lon="6.47786">
        <ele>1395</ele>
        <time>2022-07-17T06:17:57Z</time>
      </trkpt>
      <trkpt lat="45.73046" lon="6.47788">
        <ele>1394</ele>
        <time>2022-07-17T06:17:58Z</time>
      </trkpt>
      <trkpt lat="45.73045" lon="6.4779">
        <ele>1394</ele>
        <time>2022-07-17T06:17:59Z</time>
      </trkpt>
      <trkpt lat="45.73044" lon="6.47792">
        <ele>1394</ele>
        <time>2022-07-17T06:18:00Z</time>
      </trkpt>
      <trkpt lat="45.73043" lon="6.47795">
        <ele>1394</ele>
        <time>2022-07-17T06:18:01Z</time>
      </trkpt>
      <trkpt lat="45.73042" lon="6.47797">
        <ele>1394</ele>
        <time>2022-07-17T06:18:02Z</time>
      </trkpt>
      <trkpt lat="45.73041" lon="6.47799">
        <ele>1394</ele>
        <time>2022-07-17T06:18:03Z</time>
      </trkpt>
      <trkpt lat="45.7304" lon="6.47802">
        <ele>1394</ele>
        <time>2022-07-17T06:18:04Z</time>
      </trkpt>
      <trkpt lat="45.73039" lon="6.47804">
        <ele>1394</ele>
        <time>2022-07-17T06:18:05Z</time>
      </trkpt>
      <trkpt lat="45.73039" lon="6.47806">
        <ele>1394</ele>
        <time>2022-07-17T06:18:06Z</time>
      </trkpt>
      <trkpt lat="45.73039" lon="6.47807">
        <ele>1394</ele>
        <time>2022-07-17T06:18:07Z</time>
      </trkpt>
      <trkpt lat="45.73038" lon="6.47809">
        <ele>1394</ele>
        <time>2022-07-17T06:18:08Z</time>
      </trkpt>
      <trkpt lat="45.73038" lon="6.47811">
        <ele>1394</ele>
        <time>2022-07-17T06:18:09Z</time>
      </trkpt>
      <trkpt lat="45.73038" lon="6.47812">
        <ele>1394</ele>
        <time>2022-07-17T06:18:10Z</time>
      </trkpt>
      <trkpt lat="45.73037" lon="6.47814">
        <ele>1394</ele>
        <time>2022-07-17T06:18:11Z</time>
      </trkpt>
      <trkpt lat="45.73037" lon="6.47816">
        <ele>1394</ele>
        <time>2022-07-17T06:18:12Z</time>
      </trkpt>
      <trkpt lat="45.73037" lon="6.47817">
        <ele>1394</ele>
        <time>2022-07-17T06:18:13Z</time>
      </trkpt>
      <trkpt lat="45.73037" lon="6.47818">
        <ele>1394</ele>
        <time>2022-07-17T06:18:14Z</time>
      </trkpt>
      <trkpt lat="45.73037" lon="6.4782">
        <ele>1394</ele>
        <time>2022-07-17T06:18:16Z</time>
      </trkpt>
      <trkpt lat="45.73037" lon="6.47821">
        <ele>1394</ele>
        <time>2022-07-17T06:18:17Z</time>
      </trkpt>
      <trkpt lat="45.73037" lon="6.47822">
        <ele>1394</ele>
        <time>2022-07-17T06:18:18Z</time>
      </trkpt>
      <trkpt lat="45.73037" lon="6.47823">
        <ele>1394</ele>
        <time>2022-07-17T06:18:19Z</time>
      </trkpt>
      <trkpt lat="45.73037" lon="6.47824">
        <ele>1394</ele>
        <time>2022-07-17T06:18:20Z</time>
      </trkpt>
      <trkpt lat="45.73037" lon="6.47826">
        <ele>1394</ele>
        <time>2022-07-17T06:18:21Z</time>
      </trkpt>
      <trkpt lat="45.73037" lon="6.47827">
        <ele>1394</ele>
        <time>2022-07-17T06:18:22Z</time>
      </trkpt>
      <trkpt lat="45.73037" lon="6.47828">
        <ele>1394</ele>
        <time>2022-07-17T06:18:23Z</time>
      </trkpt>
      <trkpt lat="45.73037" lon="6.47829">
        <ele>1394</ele>
        <time>2022-07-17T06:18:24Z</time>
      </trkpt>
      <trkpt lat="45.73037" lon="6.47831">
        <ele>1394</ele>
        <time>2022-07-17T06:18:25Z</time>
      </trkpt>
      <trkpt lat="45.73037" lon="6.47832">
        <ele>1393</ele>
        <time>2022-07-17T06:18:26Z</time>
      </trkpt>
      <trkpt lat="45.73036" lon="6.47835">
        <ele>1393</ele>
        <time>2022-07-17T06:18:27Z</time>
      </trkpt>
      <trkpt lat="45.73036" lon="6.47839">
        <ele>1393</ele>
        <time>2022-07-17T06:18:28Z</time>
      </trkpt>
      <trkpt lat="45.73035" lon="6.47842">
        <ele>1393</ele>
        <time>2022-07-17T06:18:29Z</time>
      </trkpt>
      <trkpt lat="45.73035" lon="6.47845">
        <ele>1393</ele>
        <time>2022-07-17T06:18:30Z</time>
      </trkpt>
      <trkpt lat="45.73035" lon="6.47849">
        <ele>1393</ele>
        <time>2022-07-17T06:18:31Z</time>
      </trkpt>
      <trkpt lat="45.73034" lon="6.47851">
        <ele>1393</ele>
        <time>2022-07-17T06:18:32Z</time>
      </trkpt>
      <trkpt lat="45.73033" lon="6.47854">
        <ele>1393</ele>
        <time>2022-07-17T06:18:33Z</time>
      </trkpt>
      <trkpt lat="45.73032" lon="6.47857">
        <ele>1393</ele>
        <time>2022-07-17T06:18:34Z</time>
      </trkpt>
      <trkpt lat="45.73032" lon="6.4786">
        <ele>1393</ele>
        <time>2022-07-17T06:18:35Z</time>
      </trkpt>
      <trkpt lat="45.73031" lon="6.47863">
        <ele>1393</ele>
        <time>2022-07-17T06:18:36Z</time>
      </trkpt>
      <trkpt lat="45.7303" lon="6.47864">
        <ele>1393</ele>
        <time>2022-07-17T06:18:37Z</time>
      </trkpt>
      <trkpt lat="45.73029" lon="6.47866">
        <ele>1393</ele>
        <time>2022-07-17T06:18:38Z</time>
      </trkpt>
      <trkpt lat="45.73028" lon="6.47867">
        <ele>1394</ele>
        <time>2022-07-17T06:18:39Z</time>
      </trkpt>
      <trkpt lat="45.73027" lon="6.47869">
        <ele>1394</ele>
        <time>2022-07-17T06:18:40Z</time>
      </trkpt>
      <trkpt lat="45.73026" lon="6.47871">
        <ele>1394</ele>
        <time>2022-07-17T06:18:41Z</time>
      </trkpt>
      <trkpt lat="45.73025" lon="6.47872">
        <ele>1394</ele>
        <time>2022-07-17T06:18:42Z</time>
      </trkpt>
      <trkpt lat="45.73024" lon="6.47874">
        <ele>1394</ele>
        <time>2022-07-17T06:18:43Z</time>
      </trkpt>
      <trkpt lat="45.73024" lon="6.47875">
        <ele>1394</ele>
        <time>2022-07-17T06:18:44Z</time>
      </trkpt>
      <trkpt lat="45.73024" lon="6.47877">
        <ele>1394</ele>
        <time>2022-07-17T06:18:45Z</time>
      </trkpt>
      <trkpt lat="45.73024" lon="6.47878">
        <ele>1394</ele>
        <time>2022-07-17T06:18:46Z</time>
      </trkpt>
      <trkpt lat="45.73024" lon="6.47879">
        <ele>1394</ele>
        <time>2022-07-17T06:18:47Z</time>
      </trkpt>
      <trkpt lat="45.73023" lon="6.47881">
        <ele>1394</ele>
        <time>2022-07-17T06:18:48Z</time>
      </trkpt>
      <trkpt lat="45.73023" lon="6.47882">
        <ele>1395</ele>
        <time>2022-07-17T06:18:49Z</time>
      </trkpt>
      <trkpt lat="45.73023" lon="6.47884">
        <ele>1395</ele>
        <time>2022-07-17T06:18:50Z</time>
      </trkpt>
      <trkpt lat="45.73023" lon="6.47885">
        <ele>1395</ele>
        <time>2022-07-17T06:18:51Z</time>
      </trkpt>
      <trkpt lat="45.73023" lon="6.47885">
        <ele>1392</ele>
        <time>2022-07-17T06:19:08Z</time>
      </trkpt>
      <trkpt lat="45.73019" lon="6.47873">
        <ele>1389</ele>
        <time>2022-07-17T06:19:16Z</time>
      </trkpt>
      <trkpt lat="45.73018" lon="6.47872">
        <ele>1389</ele>
        <time>2022-07-17T06:19:19Z</time>
      </trkpt>
      <trkpt lat="45.73018" lon="6.4787">
        <ele>1389</ele>
        <time>2022-07-17T06:19:20Z</time>
      </trkpt>
      <trkpt lat="45.73017" lon="6.47869">
        <ele>1388</ele>
        <time>2022-07-17T06:19:21Z</time>
      </trkpt>
      <trkpt lat="45.73017" lon="6.47867">
        <ele>1388</ele>
        <time>2022-07-17T06:19:22Z</time>
      </trkpt>
      <trkpt lat="45.73016" lon="6.47866">
        <ele>1387</ele>
        <time>2022-07-17T06:19:23Z</time>
      </trkpt>
      <trkpt lat="45.73015" lon="6.47864">
        <ele>1387</ele>
        <time>2022-07-17T06:19:24Z</time>
      </trkpt>
      <trkpt lat="45.73015" lon="6.47863">
        <ele>1387</ele>
        <time>2022-07-17T06:19:25Z</time>
      </trkpt>
      <trkpt lat="45.73014" lon="6.47861">
        <ele>1387</ele>
        <time>2022-07-17T06:19:26Z</time>
      </trkpt>
      <trkpt lat="45.73014" lon="6.4786">
        <ele>1386</ele>
        <time>2022-07-17T06:19:27Z</time>
      </trkpt>
      <trkpt lat="45.73014" lon="6.47858">
        <ele>1386</ele>
        <time>2022-07-17T06:19:28Z</time>
      </trkpt>
      <trkpt lat="45.73013" lon="6.47857">
        <ele>1386</ele>
        <time>2022-07-17T06:19:29Z</time>
      </trkpt>
      <trkpt lat="45.73013" lon="6.47855">
        <ele>1385</ele>
        <time>2022-07-17T06:19:30Z</time>
      </trkpt>
      <trkpt lat="45.73012" lon="6.47854">
        <ele>1385</ele>
        <time>2022-07-17T06:19:31Z</time>
      </trkpt>
      <trkpt lat="45.73012" lon="6.47853">
        <ele>1385</ele>
        <time>2022-07-17T06:19:32Z</time>
      </trkpt>
      <trkpt lat="45.73011" lon="6.47851">
        <ele>1384</ele>
        <time>2022-07-17T06:19:33Z</time>
      </trkpt>
      <trkpt lat="45.73011" lon="6.4785">
        <ele>1383</ele>
        <time>2022-07-17T06:19:34Z</time>
      </trkpt>
      <trkpt lat="45.7301" lon="6.47848">
        <ele>1383</ele>
        <time>2022-07-17T06:19:35Z</time>
      </trkpt>
      <trkpt lat="45.7301" lon="6.47847">
        <ele>1382</ele>
        <time>2022-07-17T06:19:37Z</time>
      </trkpt>
      <trkpt lat="45.7301" lon="6.47846">
        <ele>1381</ele>
        <time>2022-07-17T06:19:38Z</time>
      </trkpt>
      <trkpt lat="45.73009" lon="6.47845">
        <ele>1381</ele>
        <time>2022-07-17T06:19:39Z</time>
      </trkpt>
      <trkpt lat="45.73009" lon="6.47844">
        <ele>1381</ele>
        <time>2022-07-17T06:19:40Z</time>
      </trkpt>
      <trkpt lat="45.73009" lon="6.47843">
        <ele>1380</ele>
        <time>2022-07-17T06:19:41Z</time>
      </trkpt>
      <trkpt lat="45.73009" lon="6.47842">
        <ele>1380</ele>
        <time>2022-07-17T06:19:42Z</time>
      </trkpt>
      <trkpt lat="45.73008" lon="6.47841">
        <ele>1380</ele>
        <time>2022-07-17T06:19:43Z</time>
      </trkpt>
      <trkpt lat="45.73008" lon="6.4784">
        <ele>1379</ele>
        <time>2022-07-17T06:19:44Z</time>
      </trkpt>
      <trkpt lat="45.73008" lon="6.47839">
        <ele>1379</ele>
        <time>2022-07-17T06:19:45Z</time>
      </trkpt>
      <trkpt lat="45.73008" lon="6.47838">
        <ele>1379</ele>
        <time>2022-07-17T06:19:46Z</time>
      </trkpt>
      <trkpt lat="45.73007" lon="6.47837">
        <ele>1378</ele>
        <time>2022-07-17T06:19:47Z</time>
      </trkpt>
      <trkpt lat="45.73007" lon="6.47836">
        <ele>1378</ele>
        <time>2022-07-17T06:19:48Z</time>
      </trkpt>
      <trkpt lat="45.73006" lon="6.47835">
        <ele>1378</ele>
        <time>2022-07-17T06:19:49Z</time>
      </trkpt>
      <trkpt lat="45.73006" lon="6.47834">
        <ele>1378</ele>
        <time>2022-07-17T06:19:50Z</time>
      </trkpt>
      <trkpt lat="45.73005" lon="6.47833">
        <ele>1378</ele>
        <time>2022-07-17T06:19:51Z</time>
      </trkpt>
      <trkpt lat="45.73005" lon="6.47832">
        <ele>1377</ele>
        <time>2022-07-17T06:19:52Z</time>
      </trkpt>
      <trkpt lat="45.73004" lon="6.47831">
        <ele>1377</ele>
        <time>2022-07-17T06:19:53Z</time>
      </trkpt>
      <trkpt lat="45.73004" lon="6.4783">
        <ele>1377</ele>
        <time>2022-07-17T06:19:54Z</time>
      </trkpt>
      <trkpt lat="45.73003" lon="6.47829">
        <ele>1376</ele>
        <time>2022-07-17T06:19:55Z</time>
      </trkpt>
      <trkpt lat="45.73002" lon="6.47828">
        <ele>1376</ele>
        <time>2022-07-17T06:19:56Z</time>
      </trkpt>
      <trkpt lat="45.73001" lon="6.47827">
        <ele>1376</ele>
        <time>2022-07-17T06:19:58Z</time>
      </trkpt>
      <trkpt lat="45.73001" lon="6.47826">
        <ele>1376</ele>
        <time>2022-07-17T06:19:59Z</time>
      </trkpt>
      <trkpt lat="45.72991" lon="6.47821">
        <ele>1375</ele>
        <time>2022-07-17T06:20:10Z</time>
      </trkpt>
      <trkpt lat="45.7299" lon="6.47819">
        <ele>1374</ele>
        <time>2022-07-17T06:20:11Z</time>
      </trkpt>
      <trkpt lat="45.72989" lon="6.47818">
        <ele>1373</ele>
        <time>2022-07-17T06:20:12Z</time>
      </trkpt>
      <trkpt lat="45.72989" lon="6.47816">
        <ele>1374</ele>
        <time>2022-07-17T06:20:13Z</time>
      </trkpt>
      <trkpt lat="45.72988" lon="6.47815">
        <ele>1374</ele>
        <time>2022-07-17T06:20:14Z</time>
      </trkpt>
      <trkpt lat="45.72987" lon="6.47814">
        <ele>1374</ele>
        <time>2022-07-17T06:20:15Z</time>
      </trkpt>
      <trkpt lat="45.72986" lon="6.47812">
        <ele>1373</ele>
        <time>2022-07-17T06:20:16Z</time>
      </trkpt>
      <trkpt lat="45.72986" lon="6.47811">
        <ele>1373</ele>
        <time>2022-07-17T06:20:17Z</time>
      </trkpt>
      <trkpt lat="45.72985" lon="6.4781">
        <ele>1373</ele>
        <time>2022-07-17T06:20:18Z</time>
      </trkpt>
      <trkpt lat="45.72984" lon="6.47809">
        <ele>1373</ele>
        <time>2022-07-17T06:20:19Z</time>
      </trkpt>
      <trkpt lat="45.72984" lon="6.47808">
        <ele>1372</ele>
        <time>2022-07-17T06:20:21Z</time>
      </trkpt>
      <trkpt lat="45.72983" lon="6.47807">
        <ele>1372</ele>
        <time>2022-07-17T06:20:22Z</time>
      </trkpt>
      <trkpt lat="45.72982" lon="6.47806">
        <ele>1371</ele>
        <time>2022-07-17T06:20:24Z</time>
      </trkpt>
      <trkpt lat="45.72981" lon="6.47805">
        <ele>1371</ele>
        <time>2022-07-17T06:20:26Z</time>
      </trkpt>
      <trkpt lat="45.7298" lon="6.47804">
        <ele>1371</ele>
        <time>2022-07-17T06:20:28Z</time>
      </trkpt>
      <trkpt lat="45.72979" lon="6.47803">
        <ele>1371</ele>
        <time>2022-07-17T06:20:30Z</time>
      </trkpt>
      <trkpt lat="45.72979" lon="6.47802">
        <ele>1369</ele>
        <time>2022-07-17T06:20:32Z</time>
      </trkpt>
      <trkpt lat="45.72978" lon="6.47802">
        <ele>1368</ele>
        <time>2022-07-17T06:20:33Z</time>
      </trkpt>
      <trkpt lat="45.72978" lon="6.47801">
        <ele>1368</ele>
        <time>2022-07-17T06:20:34Z</time>
      </trkpt>
      <trkpt lat="45.72977" lon="6.478">
        <ele>1368</ele>
        <time>2022-07-17T06:20:35Z</time>
      </trkpt>
      <trkpt lat="45.72976" lon="6.47799">
        <ele>1368</ele>
        <time>2022-07-17T06:20:36Z</time>
      </trkpt>
      <trkpt lat="45.72976" lon="6.47798">
        <ele>1368</ele>
        <time>2022-07-17T06:20:37Z</time>
      </trkpt>
      <trkpt lat="45.72975" lon="6.47797">
        <ele>1367</ele>
        <time>2022-07-17T06:20:38Z</time>
      </trkpt>
      <trkpt lat="45.72974" lon="6.47795">
        <ele>1367</ele>
        <time>2022-07-17T06:20:39Z</time>
      </trkpt>
      <trkpt lat="45.72973" lon="6.47794">
        <ele>1367</ele>
        <time>2022-07-17T06:20:40Z</time>
      </trkpt>
      <trkpt lat="45.72972" lon="6.47793">
        <ele>1367</ele>
        <time>2022-07-17T06:20:41Z</time>
      </trkpt>
      <trkpt lat="45.72971" lon="6.47791">
        <ele>1367</ele>
        <time>2022-07-17T06:20:42Z</time>
      </trkpt>
      <trkpt lat="45.72971" lon="6.4779">
        <ele>1367</ele>
        <time>2022-07-17T06:20:43Z</time>
      </trkpt>
      <trkpt lat="45.7297" lon="6.4779">
        <ele>1366</ele>
        <time>2022-07-17T06:20:44Z</time>
      </trkpt>
      <trkpt lat="45.72969" lon="6.4779">
        <ele>1366</ele>
        <time>2022-07-17T06:20:48Z</time>
      </trkpt>
      <trkpt lat="45.72968" lon="6.4779">
        <ele>1364</ele>
        <time>2022-07-17T06:20:50Z</time>
      </trkpt>
      <trkpt lat="45.72968" lon="6.47789">
        <ele>1364</ele>
        <time>2022-07-17T06:20:51Z</time>
      </trkpt>
      <trkpt lat="45.72967" lon="6.47789">
        <ele>1364</ele>
        <time>2022-07-17T06:20:53Z</time>
      </trkpt>
      <trkpt lat="45.72966" lon="6.47789">
        <ele>1364</ele>
        <time>2022-07-17T06:20:56Z</time>
      </trkpt>
      <trkpt lat="45.72965" lon="6.47789">
        <ele>1363</ele>
        <time>2022-07-17T06:20:59Z</time>
      </trkpt>
      <trkpt lat="45.72965" lon="6.47788">
        <ele>1363</ele>
        <time>2022-07-17T06:21:00Z</time>
      </trkpt>
      <trkpt lat="45.72964" lon="6.47788">
        <ele>1363</ele>
        <time>2022-07-17T06:21:01Z</time>
      </trkpt>
      <trkpt lat="45.72963" lon="6.47788">
        <ele>1363</ele>
        <time>2022-07-17T06:21:04Z</time>
      </trkpt>
      <trkpt lat="45.72962" lon="6.47788">
        <ele>1362</ele>
        <time>2022-07-17T06:21:07Z</time>
      </trkpt>
      <trkpt lat="45.72962" lon="6.47787">
        <ele>1361</ele>
        <time>2022-07-17T06:21:09Z</time>
      </trkpt>
      <trkpt lat="45.72961" lon="6.47787">
        <ele>1361</ele>
        <time>2022-07-17T06:21:10Z</time>
      </trkpt>
      <trkpt lat="45.7296" lon="6.47787">
        <ele>1361</ele>
        <time>2022-07-17T06:21:12Z</time>
      </trkpt>
      <trkpt lat="45.72959" lon="6.47788">
        <ele>1361</ele>
        <time>2022-07-17T06:21:13Z</time>
      </trkpt>
      <trkpt lat="45.72958" lon="6.47788">
        <ele>1361</ele>
        <time>2022-07-17T06:21:14Z</time>
      </trkpt>
      <trkpt lat="45.72957" lon="6.47788">
        <ele>1361</ele>
        <time>2022-07-17T06:21:16Z</time>
      </trkpt>
      <trkpt lat="45.72956" lon="6.47789">
        <ele>1361</ele>
        <time>2022-07-17T06:21:17Z</time>
      </trkpt>
      <trkpt lat="45.72955" lon="6.47789">
        <ele>1360</ele>
        <time>2022-07-17T06:21:18Z</time>
      </trkpt>
      <trkpt lat="45.72954" lon="6.47789">
        <ele>1359</ele>
        <time>2022-07-17T06:21:19Z</time>
      </trkpt>
      <trkpt lat="45.72953" lon="6.47789">
        <ele>1358</ele>
        <time>2022-07-17T06:21:20Z</time>
      </trkpt>
      <trkpt lat="45.72953" lon="6.4779">
        <ele>1358</ele>
        <time>2022-07-17T06:21:21Z</time>
      </trkpt>
      <trkpt lat="45.72952" lon="6.4779">
        <ele>1358</ele>
        <time>2022-07-17T06:21:22Z</time>
      </trkpt>
      <trkpt lat="45.72951" lon="6.4779">
        <ele>1358</ele>
        <time>2022-07-17T06:21:23Z</time>
      </trkpt>
      <trkpt lat="45.7295" lon="6.4779">
        <ele>1358</ele>
        <time>2022-07-17T06:21:24Z</time>
      </trkpt>
      <trkpt lat="45.72949" lon="6.4779">
        <ele>1358</ele>
        <time>2022-07-17T06:21:25Z</time>
      </trkpt>
      <trkpt lat="45.72949" lon="6.47789">
        <ele>1358</ele>
        <time>2022-07-17T06:21:26Z</time>
      </trkpt>
      <trkpt lat="45.72948" lon="6.47789">
        <ele>1358</ele>
        <time>2022-07-17T06:21:27Z</time>
      </trkpt>
      <trkpt lat="45.72947" lon="6.47789">
        <ele>1357</ele>
        <time>2022-07-17T06:21:28Z</time>
      </trkpt>
      <trkpt lat="45.72947" lon="6.47788">
        <ele>1357</ele>
        <time>2022-07-17T06:21:29Z</time>
      </trkpt>
      <trkpt lat="45.72946" lon="6.47788">
        <ele>1357</ele>
        <time>2022-07-17T06:21:30Z</time>
      </trkpt>
      <trkpt lat="45.72945" lon="6.47788">
        <ele>1357</ele>
        <time>2022-07-17T06:21:31Z</time>
      </trkpt>
      <trkpt lat="45.72944" lon="6.47788">
        <ele>1357</ele>
        <time>2022-07-17T06:21:32Z</time>
      </trkpt>
      <trkpt lat="45.72944" lon="6.47787">
        <ele>1357</ele>
        <time>2022-07-17T06:21:33Z</time>
      </trkpt>
      <trkpt lat="45.72943" lon="6.47787">
        <ele>1357</ele>
        <time>2022-07-17T06:21:34Z</time>
      </trkpt>
      <trkpt lat="45.72942" lon="6.47787">
        <ele>1356</ele>
        <time>2022-07-17T06:21:35Z</time>
      </trkpt>
      <trkpt lat="45.72941" lon="6.47785">
        <ele>1356</ele>
        <time>2022-07-17T06:21:36Z</time>
      </trkpt>
      <trkpt lat="45.7294" lon="6.47784">
        <ele>1355</ele>
        <time>2022-07-17T06:21:37Z</time>
      </trkpt>
      <trkpt lat="45.72938" lon="6.47782">
        <ele>1355</ele>
        <time>2022-07-17T06:21:38Z</time>
      </trkpt>
      <trkpt lat="45.72937" lon="6.4778">
        <ele>1355</ele>
        <time>2022-07-17T06:21:39Z</time>
      </trkpt>
      <trkpt lat="45.72936" lon="6.47779">
        <ele>1354</ele>
        <time>2022-07-17T06:21:40Z</time>
      </trkpt>
      <trkpt lat="45.72935" lon="6.47777">
        <ele>1354</ele>
        <time>2022-07-17T06:21:41Z</time>
      </trkpt>
      <trkpt lat="45.72934" lon="6.47775">
        <ele>1353</ele>
        <time>2022-07-17T06:21:42Z</time>
      </trkpt>
      <trkpt lat="45.72934" lon="6.47772">
        <ele>1353</ele>
        <time>2022-07-17T06:21:43Z</time>
      </trkpt>
      <trkpt lat="45.72933" lon="6.4777">
        <ele>1353</ele>
        <time>2022-07-17T06:21:45Z</time>
      </trkpt>
      <trkpt lat="45.72933" lon="6.47768">
        <ele>1352</ele>
        <time>2022-07-17T06:21:46Z</time>
      </trkpt>
      <trkpt lat="45.72933" lon="6.47766">
        <ele>1351</ele>
        <time>2022-07-17T06:21:47Z</time>
      </trkpt>
      <trkpt lat="45.72932" lon="6.47763">
        <ele>1351</ele>
        <time>2022-07-17T06:21:48Z</time>
      </trkpt>
      <trkpt lat="45.72931" lon="6.47762">
        <ele>1351</ele>
        <time>2022-07-17T06:21:49Z</time>
      </trkpt>
      <trkpt lat="45.7293" lon="6.4776">
        <ele>1351</ele>
        <time>2022-07-17T06:21:50Z</time>
      </trkpt>
      <trkpt lat="45.72929" lon="6.47759">
        <ele>1351</ele>
        <time>2022-07-17T06:21:51Z</time>
      </trkpt>
      <trkpt lat="45.72929" lon="6.47757">
        <ele>1351</ele>
        <time>2022-07-17T06:21:52Z</time>
      </trkpt>
      <trkpt lat="45.72928" lon="6.47756">
        <ele>1350</ele>
        <time>2022-07-17T06:21:53Z</time>
      </trkpt>
      <trkpt lat="45.72927" lon="6.47754">
        <ele>1350</ele>
        <time>2022-07-17T06:21:54Z</time>
      </trkpt>
      <trkpt lat="45.72926" lon="6.47753">
        <ele>1349</ele>
        <time>2022-07-17T06:21:55Z</time>
      </trkpt>
      <trkpt lat="45.72925" lon="6.47751">
        <ele>1349</ele>
        <time>2022-07-17T06:21:56Z</time>
      </trkpt>
      <trkpt lat="45.72924" lon="6.47751">
        <ele>1348</ele>
        <time>2022-07-17T06:21:57Z</time>
      </trkpt>
      <trkpt lat="45.72924" lon="6.4775">
        <ele>1347</ele>
        <time>2022-07-17T06:21:58Z</time>
      </trkpt>
      <trkpt lat="45.72923" lon="6.4775">
        <ele>1347</ele>
        <time>2022-07-17T06:21:59Z</time>
      </trkpt>
      <trkpt lat="45.72922" lon="6.4775">
        <ele>1347</ele>
        <time>2022-07-17T06:22:00Z</time>
      </trkpt>
      <trkpt lat="45.72921" lon="6.4775">
        <ele>1346</ele>
        <time>2022-07-17T06:22:01Z</time>
      </trkpt>
      <trkpt lat="45.7292" lon="6.47749">
        <ele>1346</ele>
        <time>2022-07-17T06:22:02Z</time>
      </trkpt>
      <trkpt lat="45.72919" lon="6.47749">
        <ele>1345</ele>
        <time>2022-07-17T06:22:04Z</time>
      </trkpt>
      <trkpt lat="45.72918" lon="6.47749">
        <ele>1345</ele>
        <time>2022-07-17T06:22:05Z</time>
      </trkpt>
      <trkpt lat="45.72917" lon="6.47748">
        <ele>1344</ele>
        <time>2022-07-17T06:22:06Z</time>
      </trkpt>
      <trkpt lat="45.72916" lon="6.47748">
        <ele>1343</ele>
        <time>2022-07-17T06:22:08Z</time>
      </trkpt>
      <trkpt lat="45.72915" lon="6.47747">
        <ele>1343</ele>
        <time>2022-07-17T06:22:09Z</time>
      </trkpt>
      <trkpt lat="45.72913" lon="6.47747">
        <ele>1342</ele>
        <time>2022-07-17T06:22:10Z</time>
      </trkpt>
      <trkpt lat="45.72912" lon="6.47746">
        <ele>1342</ele>
        <time>2022-07-17T06:22:11Z</time>
      </trkpt>
      <trkpt lat="45.72911" lon="6.47745">
        <ele>1342</ele>
        <time>2022-07-17T06:22:12Z</time>
      </trkpt>
      <trkpt lat="45.7291" lon="6.47745">
        <ele>1341</ele>
        <time>2022-07-17T06:22:13Z</time>
      </trkpt>
      <trkpt lat="45.72908" lon="6.47744">
        <ele>1341</ele>
        <time>2022-07-17T06:22:14Z</time>
      </trkpt>
      <trkpt lat="45.72907" lon="6.47744">
        <ele>1341</ele>
        <time>2022-07-17T06:22:15Z</time>
      </trkpt>
      <trkpt lat="45.72906" lon="6.47743">
        <ele>1341</ele>
        <time>2022-07-17T06:22:16Z</time>
      </trkpt>
      <trkpt lat="45.72905" lon="6.47743">
        <ele>1341</ele>
        <time>2022-07-17T06:22:17Z</time>
      </trkpt>
      <trkpt lat="45.72904" lon="6.47743">
        <ele>1341</ele>
        <time>2022-07-17T06:22:18Z</time>
      </trkpt>
      <trkpt lat="45.72903" lon="6.47743">
        <ele>1341</ele>
        <time>2022-07-17T06:22:19Z</time>
      </trkpt>
      <trkpt lat="45.72902" lon="6.47743">
        <ele>1341</ele>
        <time>2022-07-17T06:22:20Z</time>
      </trkpt>
      <trkpt lat="45.72901" lon="6.47743">
        <ele>1341</ele>
        <time>2022-07-17T06:22:21Z</time>
      </trkpt>
      <trkpt lat="45.729" lon="6.47743">
        <ele>1340</ele>
        <time>2022-07-17T06:22:22Z</time>
      </trkpt>
      <trkpt lat="45.72899" lon="6.47742">
        <ele>1340</ele>
        <time>2022-07-17T06:22:23Z</time>
      </trkpt>
      <trkpt lat="45.72898" lon="6.47742">
        <ele>1340</ele>
        <time>2022-07-17T06:22:24Z</time>
      </trkpt>
      <trkpt lat="45.72897" lon="6.47741">
        <ele>1340</ele>
        <time>2022-07-17T06:22:25Z</time>
      </trkpt>
      <trkpt lat="45.72896" lon="6.47739">
        <ele>1340</ele>
        <time>2022-07-17T06:22:26Z</time>
      </trkpt>
      <trkpt lat="45.72896" lon="6.47737">
        <ele>1340</ele>
        <time>2022-07-17T06:22:27Z</time>
      </trkpt>
      <trkpt lat="45.72895" lon="6.47735">
        <ele>1340</ele>
        <time>2022-07-17T06:22:28Z</time>
      </trkpt>
      <trkpt lat="45.72894" lon="6.47734">
        <ele>1339</ele>
        <time>2022-07-17T06:22:29Z</time>
      </trkpt>
      <trkpt lat="45.72894" lon="6.47732">
        <ele>1339</ele>
        <time>2022-07-17T06:22:30Z</time>
      </trkpt>
      <trkpt lat="45.72893" lon="6.4773">
        <ele>1339</ele>
        <time>2022-07-17T06:22:31Z</time>
      </trkpt>
      <trkpt lat="45.72893" lon="6.47729">
        <ele>1339</ele>
        <time>2022-07-17T06:22:32Z</time>
      </trkpt>
      <trkpt lat="45.72892" lon="6.47727">
        <ele>1339</ele>
        <time>2022-07-17T06:22:33Z</time>
      </trkpt>
      <trkpt lat="45.72892" lon="6.47725">
        <ele>1338</ele>
        <time>2022-07-17T06:22:34Z</time>
      </trkpt>
      <trkpt lat="45.72892" lon="6.47724">
        <ele>1338</ele>
        <time>2022-07-17T06:22:35Z</time>
      </trkpt>
      <trkpt lat="45.72891" lon="6.47722">
        <ele>1338</ele>
        <time>2022-07-17T06:22:36Z</time>
      </trkpt>
      <trkpt lat="45.72891" lon="6.47721">
        <ele>1338</ele>
        <time>2022-07-17T06:22:37Z</time>
      </trkpt>
      <trkpt lat="45.7289" lon="6.47719">
        <ele>1338</ele>
        <time>2022-07-17T06:22:38Z</time>
      </trkpt>
      <trkpt lat="45.7289" lon="6.47717">
        <ele>1338</ele>
        <time>2022-07-17T06:22:39Z</time>
      </trkpt>
      <trkpt lat="45.72889" lon="6.47716">
        <ele>1338</ele>
        <time>2022-07-17T06:22:40Z</time>
      </trkpt>
      <trkpt lat="45.72888" lon="6.47712">
        <ele>1338</ele>
        <time>2022-07-17T06:22:42Z</time>
      </trkpt>
      <trkpt lat="45.72887" lon="6.47708">
        <ele>1338</ele>
        <time>2022-07-17T06:22:43Z</time>
      </trkpt>
      <trkpt lat="45.72886" lon="6.47704">
        <ele>1338</ele>
        <time>2022-07-17T06:22:44Z</time>
      </trkpt>
      <trkpt lat="45.72885" lon="6.47701">
        <ele>1337</ele>
        <time>2022-07-17T06:22:45Z</time>
      </trkpt>
      <trkpt lat="45.72884" lon="6.47699">
        <ele>1337</ele>
        <time>2022-07-17T06:22:46Z</time>
      </trkpt>
      <trkpt lat="45.72883" lon="6.47696">
        <ele>1337</ele>
        <time>2022-07-17T06:22:47Z</time>
      </trkpt>
      <trkpt lat="45.72883" lon="6.47694">
        <ele>1337</ele>
        <time>2022-07-17T06:22:48Z</time>
      </trkpt>
      <trkpt lat="45.72882" lon="6.47692">
        <ele>1337</ele>
        <time>2022-07-17T06:22:49Z</time>
      </trkpt>
      <trkpt lat="45.72882" lon="6.4769">
        <ele>1337</ele>
        <time>2022-07-17T06:22:50Z</time>
      </trkpt>
      <trkpt lat="45.72881" lon="6.47688">
        <ele>1337</ele>
        <time>2022-07-17T06:22:51Z</time>
      </trkpt>
      <trkpt lat="45.7288" lon="6.47686">
        <ele>1337</ele>
        <time>2022-07-17T06:22:52Z</time>
      </trkpt>
      <trkpt lat="45.72879" lon="6.47684">
        <ele>1337</ele>
        <time>2022-07-17T06:22:53Z</time>
      </trkpt>
      <trkpt lat="45.72878" lon="6.47682">
        <ele>1337</ele>
        <time>2022-07-17T06:22:54Z</time>
      </trkpt>
      <trkpt lat="45.72877" lon="6.47679">
        <ele>1336</ele>
        <time>2022-07-17T06:22:55Z</time>
      </trkpt>
      <trkpt lat="45.72876" lon="6.47677">
        <ele>1336</ele>
        <time>2022-07-17T06:22:56Z</time>
      </trkpt>
      <trkpt lat="45.72875" lon="6.47676">
        <ele>1336</ele>
        <time>2022-07-17T06:22:57Z</time>
      </trkpt>
      <trkpt lat="45.72874" lon="6.47675">
        <ele>1336</ele>
        <time>2022-07-17T06:22:58Z</time>
      </trkpt>
      <trkpt lat="45.72873" lon="6.47674">
        <ele>1335</ele>
        <time>2022-07-17T06:22:59Z</time>
      </trkpt>
      <trkpt lat="45.72872" lon="6.47673">
        <ele>1335</ele>
        <time>2022-07-17T06:23:01Z</time>
      </trkpt>
      <trkpt lat="45.72871" lon="6.47671">
        <ele>1335</ele>
        <time>2022-07-17T06:23:02Z</time>
      </trkpt>
      <trkpt lat="45.7287" lon="6.4767">
        <ele>1335</ele>
        <time>2022-07-17T06:23:03Z</time>
      </trkpt>
      <trkpt lat="45.72869" lon="6.47669">
        <ele>1335</ele>
        <time>2022-07-17T06:23:04Z</time>
      </trkpt>
      <trkpt lat="45.72868" lon="6.47667">
        <ele>1335</ele>
        <time>2022-07-17T06:23:05Z</time>
      </trkpt>
      <trkpt lat="45.72867" lon="6.47666">
        <ele>1335</ele>
        <time>2022-07-17T06:23:06Z</time>
      </trkpt>
      <trkpt lat="45.72866" lon="6.47664">
        <ele>1335</ele>
        <time>2022-07-17T06:23:07Z</time>
      </trkpt>
      <trkpt lat="45.72865" lon="6.47662">
        <ele>1334</ele>
        <time>2022-07-17T06:23:08Z</time>
      </trkpt>
      <trkpt lat="45.72864" lon="6.4766">
        <ele>1334</ele>
        <time>2022-07-17T06:23:09Z</time>
      </trkpt>
      <trkpt lat="45.72863" lon="6.47658">
        <ele>1334</ele>
        <time>2022-07-17T06:23:10Z</time>
      </trkpt>
      <trkpt lat="45.72862" lon="6.47657">
        <ele>1334</ele>
        <time>2022-07-17T06:23:11Z</time>
      </trkpt>
      <trkpt lat="45.7286" lon="6.47642">
        <ele>1334</ele>
        <time>2022-07-17T06:23:18Z</time>
      </trkpt>
      <trkpt lat="45.72859" lon="6.4764">
        <ele>1333</ele>
        <time>2022-07-17T06:23:21Z</time>
      </trkpt>
      <trkpt lat="45.72859" lon="6.47638">
        <ele>1332</ele>
        <time>2022-07-17T06:23:22Z</time>
      </trkpt>
      <trkpt lat="45.72858" lon="6.47636">
        <ele>1333</ele>
        <time>2022-07-17T06:23:23Z</time>
      </trkpt>
      <trkpt lat="45.72857" lon="6.47634">
        <ele>1333</ele>
        <time>2022-07-17T06:23:24Z</time>
      </trkpt>
      <trkpt lat="45.72857" lon="6.47632">
        <ele>1333</ele>
        <time>2022-07-17T06:23:25Z</time>
      </trkpt>
      <trkpt lat="45.72856" lon="6.4763">
        <ele>1333</ele>
        <time>2022-07-17T06:23:26Z</time>
      </trkpt>
      <trkpt lat="45.72855" lon="6.47629">
        <ele>1333</ele>
        <time>2022-07-17T06:23:27Z</time>
      </trkpt>
      <trkpt lat="45.72854" lon="6.47627">
        <ele>1333</ele>
        <time>2022-07-17T06:23:28Z</time>
      </trkpt>
      <trkpt lat="45.72854" lon="6.47626">
        <ele>1333</ele>
        <time>2022-07-17T06:23:29Z</time>
      </trkpt>
      <trkpt lat="45.72853" lon="6.47624">
        <ele>1333</ele>
        <time>2022-07-17T06:23:30Z</time>
      </trkpt>
      <trkpt lat="45.72852" lon="6.47623">
        <ele>1333</ele>
        <time>2022-07-17T06:23:31Z</time>
      </trkpt>
      <trkpt lat="45.72851" lon="6.47621">
        <ele>1333</ele>
        <time>2022-07-17T06:23:32Z</time>
      </trkpt>
      <trkpt lat="45.7285" lon="6.47619">
        <ele>1333</ele>
        <time>2022-07-17T06:23:33Z</time>
      </trkpt>
      <trkpt lat="45.72848" lon="6.47615">
        <ele>1333</ele>
        <time>2022-07-17T06:23:35Z</time>
      </trkpt>
      <trkpt lat="45.72847" lon="6.47614">
        <ele>1333</ele>
        <time>2022-07-17T06:23:37Z</time>
      </trkpt>
      <trkpt lat="45.72846" lon="6.47613">
        <ele>1333</ele>
        <time>2022-07-17T06:23:38Z</time>
      </trkpt>
      <trkpt lat="45.72845" lon="6.47612">
        <ele>1333</ele>
        <time>2022-07-17T06:23:39Z</time>
      </trkpt>
      <trkpt lat="45.72844" lon="6.47611">
        <ele>1333</ele>
        <time>2022-07-17T06:23:40Z</time>
      </trkpt>
      <trkpt lat="45.72843" lon="6.47609">
        <ele>1332</ele>
        <time>2022-07-17T06:23:41Z</time>
      </trkpt>
      <trkpt lat="45.72842" lon="6.47608">
        <ele>1332</ele>
        <time>2022-07-17T06:23:42Z</time>
      </trkpt>
      <trkpt lat="45.72842" lon="6.47607">
        <ele>1332</ele>
        <time>2022-07-17T06:23:43Z</time>
      </trkpt>
      <trkpt lat="45.72841" lon="6.47606">
        <ele>1332</ele>
        <time>2022-07-17T06:23:44Z</time>
      </trkpt>
      <trkpt lat="45.7284" lon="6.47604">
        <ele>1332</ele>
        <time>2022-07-17T06:23:45Z</time>
      </trkpt>
      <trkpt lat="45.7284" lon="6.47603">
        <ele>1332</ele>
        <time>2022-07-17T06:23:46Z</time>
      </trkpt>
      <trkpt lat="45.72839" lon="6.47601">
        <ele>1332</ele>
        <time>2022-07-17T06:23:47Z</time>
      </trkpt>
      <trkpt lat="45.72839" lon="6.476">
        <ele>1332</ele>
        <time>2022-07-17T06:23:48Z</time>
      </trkpt>
      <trkpt lat="45.72838" lon="6.47597">
        <ele>1332</ele>
        <time>2022-07-17T06:23:50Z</time>
      </trkpt>
      <trkpt lat="45.72837" lon="6.47594">
        <ele>1332</ele>
        <time>2022-07-17T06:23:53Z</time>
      </trkpt>
      <trkpt lat="45.72836" lon="6.47592">
        <ele>1332</ele>
        <time>2022-07-17T06:23:55Z</time>
      </trkpt>
      <trkpt lat="45.72835" lon="6.47591">
        <ele>1332</ele>
        <time>2022-07-17T06:23:56Z</time>
      </trkpt>
      <trkpt lat="45.72834" lon="6.4759">
        <ele>1332</ele>
        <time>2022-07-17T06:23:58Z</time>
      </trkpt>
      <trkpt lat="45.72833" lon="6.47589">
        <ele>1332</ele>
        <time>2022-07-17T06:23:59Z</time>
      </trkpt>
      <trkpt lat="45.72832" lon="6.47588">
        <ele>1332</ele>
        <time>2022-07-17T06:24:00Z</time>
      </trkpt>
      <trkpt lat="45.72831" lon="6.47587">
        <ele>1332</ele>
        <time>2022-07-17T06:24:01Z</time>
      </trkpt>
      <trkpt lat="45.72831" lon="6.47585">
        <ele>1332</ele>
        <time>2022-07-17T06:24:02Z</time>
      </trkpt>
      <trkpt lat="45.7283" lon="6.47584">
        <ele>1332</ele>
        <time>2022-07-17T06:24:03Z</time>
      </trkpt>
      <trkpt lat="45.72829" lon="6.47583">
        <ele>1332</ele>
        <time>2022-07-17T06:24:04Z</time>
      </trkpt>
      <trkpt lat="45.72828" lon="6.47582">
        <ele>1332</ele>
        <time>2022-07-17T06:24:05Z</time>
      </trkpt>
      <trkpt lat="45.72825" lon="6.47577">
        <ele>1332</ele>
        <time>2022-07-17T06:24:07Z</time>
      </trkpt>
      <trkpt lat="45.72824" lon="6.47575">
        <ele>1332</ele>
        <time>2022-07-17T06:24:09Z</time>
      </trkpt>
      <trkpt lat="45.72822" lon="6.47572">
        <ele>1332</ele>
        <time>2022-07-17T06:24:11Z</time>
      </trkpt>
      <trkpt lat="45.72819" lon="6.47571">
        <ele>1332</ele>
        <time>2022-07-17T06:24:13Z</time>
      </trkpt>
      <trkpt lat="45.72817" lon="6.47569">
        <ele>1332</ele>
        <time>2022-07-17T06:24:15Z</time>
      </trkpt>
      <trkpt lat="45.72815" lon="6.47568">
        <ele>1332</ele>
        <time>2022-07-17T06:24:17Z</time>
      </trkpt>
      <trkpt lat="45.72814" lon="6.47567">
        <ele>1332</ele>
        <time>2022-07-17T06:24:18Z</time>
      </trkpt>
      <trkpt lat="45.72812" lon="6.47567">
        <ele>1332</ele>
        <time>2022-07-17T06:24:19Z</time>
      </trkpt>
      <trkpt lat="45.72811" lon="6.47566">
        <ele>1332</ele>
        <time>2022-07-17T06:24:20Z</time>
      </trkpt>
      <trkpt lat="45.7281" lon="6.47564">
        <ele>1332</ele>
        <time>2022-07-17T06:24:21Z</time>
      </trkpt>
      <trkpt lat="45.72809" lon="6.47563">
        <ele>1332</ele>
        <time>2022-07-17T06:24:22Z</time>
      </trkpt>
      <trkpt lat="45.72807" lon="6.47562">
        <ele>1332</ele>
        <time>2022-07-17T06:24:23Z</time>
      </trkpt>
      <trkpt lat="45.72805" lon="6.4756">
        <ele>1332</ele>
        <time>2022-07-17T06:24:25Z</time>
      </trkpt>
      <trkpt lat="45.72803" lon="6.47559">
        <ele>1332</ele>
        <time>2022-07-17T06:24:27Z</time>
      </trkpt>
      <trkpt lat="45.72801" lon="6.47557">
        <ele>1332</ele>
        <time>2022-07-17T06:24:28Z</time>
      </trkpt>
      <trkpt lat="45.72799" lon="6.47556">
        <ele>1332</ele>
        <time>2022-07-17T06:24:30Z</time>
      </trkpt>
      <trkpt lat="45.72796" lon="6.47554">
        <ele>1332</ele>
        <time>2022-07-17T06:24:32Z</time>
      </trkpt>
      <trkpt lat="45.72794" lon="6.47553">
        <ele>1332</ele>
        <time>2022-07-17T06:24:34Z</time>
      </trkpt>
      <trkpt lat="45.72792" lon="6.47551">
        <ele>1332</ele>
        <time>2022-07-17T06:24:37Z</time>
      </trkpt>
      <trkpt lat="45.72789" lon="6.4755">
        <ele>1331</ele>
        <time>2022-07-17T06:24:38Z</time>
      </trkpt>
      <trkpt lat="45.72787" lon="6.47548">
        <ele>1330</ele>
        <time>2022-07-17T06:24:40Z</time>
      </trkpt>
      <trkpt lat="45.72785" lon="6.47545">
        <ele>1330</ele>
        <time>2022-07-17T06:24:42Z</time>
      </trkpt>
      <trkpt lat="45.72783" lon="6.47542">
        <ele>1331</ele>
        <time>2022-07-17T06:24:44Z</time>
      </trkpt>
      <trkpt lat="45.72781" lon="6.4754">
        <ele>1330</ele>
        <time>2022-07-17T06:24:46Z</time>
      </trkpt>
      <trkpt lat="45.72779" lon="6.47537">
        <ele>1331</ele>
        <time>2022-07-17T06:24:48Z</time>
      </trkpt>
      <trkpt lat="45.72778" lon="6.47533">
        <ele>1331</ele>
        <time>2022-07-17T06:24:50Z</time>
      </trkpt>
      <trkpt lat="45.72777" lon="6.4753">
        <ele>1331</ele>
        <time>2022-07-17T06:24:52Z</time>
      </trkpt>
      <trkpt lat="45.72776" lon="6.47527">
        <ele>1330</ele>
        <time>2022-07-17T06:24:54Z</time>
      </trkpt>
      <trkpt lat="45.72774" lon="6.47523">
        <ele>1330</ele>
        <time>2022-07-17T06:24:56Z</time>
      </trkpt>
      <trkpt lat="45.72772" lon="6.4752">
        <ele>1330</ele>
        <time>2022-07-17T06:24:58Z</time>
      </trkpt>
      <trkpt lat="45.7277" lon="6.47518">
        <ele>1329</ele>
        <time>2022-07-17T06:25:00Z</time>
      </trkpt>
      <trkpt lat="45.72769" lon="6.47516">
        <ele>1329</ele>
        <time>2022-07-17T06:25:01Z</time>
      </trkpt>
      <trkpt lat="45.72767" lon="6.47515">
        <ele>1329</ele>
        <time>2022-07-17T06:25:02Z</time>
      </trkpt>
      <trkpt lat="45.72766" lon="6.47513">
        <ele>1328</ele>
        <time>2022-07-17T06:25:03Z</time>
      </trkpt>
      <trkpt lat="45.72765" lon="6.47512">
        <ele>1328</ele>
        <time>2022-07-17T06:25:04Z</time>
      </trkpt>
      <trkpt lat="45.72764" lon="6.47511">
        <ele>1328</ele>
        <time>2022-07-17T06:25:05Z</time>
      </trkpt>
      <trkpt lat="45.72762" lon="6.47509">
        <ele>1328</ele>
        <time>2022-07-17T06:25:06Z</time>
      </trkpt>
      <trkpt lat="45.72761" lon="6.47508">
        <ele>1328</ele>
        <time>2022-07-17T06:25:07Z</time>
      </trkpt>
      <trkpt lat="45.7276" lon="6.47507">
        <ele>1328</ele>
        <time>2022-07-17T06:25:08Z</time>
      </trkpt>
      <trkpt lat="45.72753" lon="6.47497">
        <ele>1328</ele>
        <time>2022-07-17T06:25:12Z</time>
      </trkpt>
      <trkpt lat="45.72752" lon="6.47494">
        <ele>1328</ele>
        <time>2022-07-17T06:25:15Z</time>
      </trkpt>
      <trkpt lat="45.72751" lon="6.47491">
        <ele>1327</ele>
        <time>2022-07-17T06:25:16Z</time>
      </trkpt>
      <trkpt lat="45.7275" lon="6.47488">
        <ele>1327</ele>
        <time>2022-07-17T06:25:17Z</time>
      </trkpt>
      <trkpt lat="45.72749" lon="6.47485">
        <ele>1327</ele>
        <time>2022-07-17T06:25:18Z</time>
      </trkpt>
      <trkpt lat="45.72748" lon="6.47483">
        <ele>1327</ele>
        <time>2022-07-17T06:25:19Z</time>
      </trkpt>
      <trkpt lat="45.72747" lon="6.47481">
        <ele>1327</ele>
        <time>2022-07-17T06:25:20Z</time>
      </trkpt>
      <trkpt lat="45.72747" lon="6.47479">
        <ele>1327</ele>
        <time>2022-07-17T06:25:21Z</time>
      </trkpt>
      <trkpt lat="45.72746" lon="6.47477">
        <ele>1327</ele>
        <time>2022-07-17T06:25:22Z</time>
      </trkpt>
      <trkpt lat="45.72745" lon="6.47475">
        <ele>1327</ele>
        <time>2022-07-17T06:25:23Z</time>
      </trkpt>
      <trkpt lat="45.72744" lon="6.47473">
        <ele>1326</ele>
        <time>2022-07-17T06:25:24Z</time>
      </trkpt>
      <trkpt lat="45.72743" lon="6.47472">
        <ele>1326</ele>
        <time>2022-07-17T06:25:25Z</time>
      </trkpt>
      <trkpt lat="45.72742" lon="6.47471">
        <ele>1325</ele>
        <time>2022-07-17T06:25:26Z</time>
      </trkpt>
      <trkpt lat="45.72741" lon="6.47469">
        <ele>1325</ele>
        <time>2022-07-17T06:25:27Z</time>
      </trkpt>
      <trkpt lat="45.7274" lon="6.47468">
        <ele>1325</ele>
        <time>2022-07-17T06:25:28Z</time>
      </trkpt>
      <trkpt lat="45.72738" lon="6.47466">
        <ele>1325</ele>
        <time>2022-07-17T06:25:30Z</time>
      </trkpt>
      <trkpt lat="45.72735" lon="6.47463">
        <ele>1325</ele>
        <time>2022-07-17T06:25:31Z</time>
      </trkpt>
      <trkpt lat="45.72734" lon="6.47462">
        <ele>1325</ele>
        <time>2022-07-17T06:25:33Z</time>
      </trkpt>
      <trkpt lat="45.72733" lon="6.47461">
        <ele>1325</ele>
        <time>2022-07-17T06:25:34Z</time>
      </trkpt>
      <trkpt lat="45.72732" lon="6.47459">
        <ele>1325</ele>
        <time>2022-07-17T06:25:35Z</time>
      </trkpt>
      <trkpt lat="45.7273" lon="6.47458">
        <ele>1325</ele>
        <time>2022-07-17T06:25:36Z</time>
      </trkpt>
      <trkpt lat="45.72729" lon="6.47456">
        <ele>1325</ele>
        <time>2022-07-17T06:25:37Z</time>
      </trkpt>
      <trkpt lat="45.72728" lon="6.47455">
        <ele>1325</ele>
        <time>2022-07-17T06:25:38Z</time>
      </trkpt>
      <trkpt lat="45.72727" lon="6.47454">
        <ele>1325</ele>
        <time>2022-07-17T06:25:39Z</time>
      </trkpt>
      <trkpt lat="45.72726" lon="6.47452">
        <ele>1325</ele>
        <time>2022-07-17T06:25:40Z</time>
      </trkpt>
      <trkpt lat="45.72725" lon="6.47451">
        <ele>1324</ele>
        <time>2022-07-17T06:25:41Z</time>
      </trkpt>
      <trkpt lat="45.72724" lon="6.47449">
        <ele>1324</ele>
        <time>2022-07-17T06:25:42Z</time>
      </trkpt>
      <trkpt lat="45.72723" lon="6.47447">
        <ele>1324</ele>
        <time>2022-07-17T06:25:43Z</time>
      </trkpt>
      <trkpt lat="45.72721" lon="6.47446">
        <ele>1324</ele>
        <time>2022-07-17T06:25:44Z</time>
      </trkpt>
      <trkpt lat="45.7272" lon="6.47444">
        <ele>1324</ele>
        <time>2022-07-17T06:25:45Z</time>
      </trkpt>
      <trkpt lat="45.72719" lon="6.47443">
        <ele>1324</ele>
        <time>2022-07-17T06:25:46Z</time>
      </trkpt>
      <trkpt lat="45.72718" lon="6.47441">
        <ele>1323</ele>
        <time>2022-07-17T06:25:47Z</time>
      </trkpt>
      <trkpt lat="45.72717" lon="6.4744">
        <ele>1323</ele>
        <time>2022-07-17T06:25:48Z</time>
      </trkpt>
      <trkpt lat="45.72716" lon="6.47438">
        <ele>1323</ele>
        <time>2022-07-17T06:25:49Z</time>
      </trkpt>
      <trkpt lat="45.72714" lon="6.47436">
        <ele>1322</ele>
        <time>2022-07-17T06:25:50Z</time>
      </trkpt>
      <trkpt lat="45.72713" lon="6.47434">
        <ele>1322</ele>
        <time>2022-07-17T06:25:52Z</time>
      </trkpt>
      <trkpt lat="45.72712" lon="6.47432">
        <ele>1322</ele>
        <time>2022-07-17T06:25:53Z</time>
      </trkpt>
      <trkpt lat="45.72711" lon="6.4743">
        <ele>1321</ele>
        <time>2022-07-17T06:25:54Z</time>
      </trkpt>
      <trkpt lat="45.72709" lon="6.47429">
        <ele>1321</ele>
        <time>2022-07-17T06:25:55Z</time>
      </trkpt>
      <trkpt lat="45.72708" lon="6.47426">
        <ele>1321</ele>
        <time>2022-07-17T06:25:57Z</time>
      </trkpt>
      <trkpt lat="45.72707" lon="6.47424">
        <ele>1321</ele>
        <time>2022-07-17T06:25:58Z</time>
      </trkpt>
      <trkpt lat="45.72705" lon="6.47422">
        <ele>1321</ele>
        <time>2022-07-17T06:25:59Z</time>
      </trkpt>
      <trkpt lat="45.72704" lon="6.47419">
        <ele>1321</ele>
        <time>2022-07-17T06:26:00Z</time>
      </trkpt>
      <trkpt lat="45.72703" lon="6.47417">
        <ele>1320</ele>
        <time>2022-07-17T06:26:01Z</time>
      </trkpt>
      <trkpt lat="45.72702" lon="6.47415">
        <ele>1320</ele>
        <time>2022-07-17T06:26:02Z</time>
      </trkpt>
      <trkpt lat="45.72702" lon="6.47413">
        <ele>1320</ele>
        <time>2022-07-17T06:26:03Z</time>
      </trkpt>
      <trkpt lat="45.72701" lon="6.47411">
        <ele>1320</ele>
        <time>2022-07-17T06:26:04Z</time>
      </trkpt>
      <trkpt lat="45.727" lon="6.47408">
        <ele>1320</ele>
        <time>2022-07-17T06:26:05Z</time>
      </trkpt>
      <trkpt lat="45.727" lon="6.47406">
        <ele>1320</ele>
        <time>2022-07-17T06:26:06Z</time>
      </trkpt>
      <trkpt lat="45.72699" lon="6.47404">
        <ele>1320</ele>
        <time>2022-07-17T06:26:07Z</time>
      </trkpt>
      <trkpt lat="45.72698" lon="6.47403">
        <ele>1320</ele>
        <time>2022-07-17T06:26:08Z</time>
      </trkpt>
      <trkpt lat="45.72698" lon="6.47401">
        <ele>1320</ele>
        <time>2022-07-17T06:26:09Z</time>
      </trkpt>
      <trkpt lat="45.72697" lon="6.474">
        <ele>1320</ele>
        <time>2022-07-17T06:26:10Z</time>
      </trkpt>
      <trkpt lat="45.72697" lon="6.47398">
        <ele>1320</ele>
        <time>2022-07-17T06:26:11Z</time>
      </trkpt>
      <trkpt lat="45.72696" lon="6.47397">
        <ele>1320</ele>
        <time>2022-07-17T06:26:12Z</time>
      </trkpt>
      <trkpt lat="45.72695" lon="6.47396">
        <ele>1320</ele>
        <time>2022-07-17T06:26:13Z</time>
      </trkpt>
      <trkpt lat="45.72695" lon="6.47394">
        <ele>1320</ele>
        <time>2022-07-17T06:26:14Z</time>
      </trkpt>
      <trkpt lat="45.72694" lon="6.47393">
        <ele>1320</ele>
        <time>2022-07-17T06:26:15Z</time>
      </trkpt>
      <trkpt lat="45.72693" lon="6.47391">
        <ele>1319</ele>
        <time>2022-07-17T06:26:16Z</time>
      </trkpt>
      <trkpt lat="45.72691" lon="6.4739">
        <ele>1319</ele>
        <time>2022-07-17T06:26:17Z</time>
      </trkpt>
      <trkpt lat="45.7269" lon="6.47389">
        <ele>1319</ele>
        <time>2022-07-17T06:26:18Z</time>
      </trkpt>
      <trkpt lat="45.72689" lon="6.47388">
        <ele>1318</ele>
        <time>2022-07-17T06:26:19Z</time>
      </trkpt>
      <trkpt lat="45.72687" lon="6.47386">
        <ele>1318</ele>
        <time>2022-07-17T06:26:20Z</time>
      </trkpt>
      <trkpt lat="45.72686" lon="6.47385">
        <ele>1318</ele>
        <time>2022-07-17T06:26:21Z</time>
      </trkpt>
      <trkpt lat="45.72685" lon="6.47383">
        <ele>1318</ele>
        <time>2022-07-17T06:26:22Z</time>
      </trkpt>
      <trkpt lat="45.72683" lon="6.47382">
        <ele>1318</ele>
        <time>2022-07-17T06:26:23Z</time>
      </trkpt>
      <trkpt lat="45.72682" lon="6.4738">
        <ele>1317</ele>
        <time>2022-07-17T06:26:24Z</time>
      </trkpt>
      <trkpt lat="45.72681" lon="6.47379">
        <ele>1317</ele>
        <time>2022-07-17T06:26:25Z</time>
      </trkpt>
      <trkpt lat="45.72679" lon="6.47377">
        <ele>1317</ele>
        <time>2022-07-17T06:26:26Z</time>
      </trkpt>
      <trkpt lat="45.72678" lon="6.47375">
        <ele>1317</ele>
        <time>2022-07-17T06:26:27Z</time>
      </trkpt>
      <trkpt lat="45.72677" lon="6.47374">
        <ele>1317</ele>
        <time>2022-07-17T06:26:28Z</time>
      </trkpt>
      <trkpt lat="45.72676" lon="6.47372">
        <ele>1317</ele>
        <time>2022-07-17T06:26:29Z</time>
      </trkpt>
      <trkpt lat="45.72675" lon="6.47371">
        <ele>1317</ele>
        <time>2022-07-17T06:26:30Z</time>
      </trkpt>
      <trkpt lat="45.72675" lon="6.47369">
        <ele>1317</ele>
        <time>2022-07-17T06:26:31Z</time>
      </trkpt>
      <trkpt lat="45.72674" lon="6.47368">
        <ele>1317</ele>
        <time>2022-07-17T06:26:32Z</time>
      </trkpt>
      <trkpt lat="45.72673" lon="6.47366">
        <ele>1317</ele>
        <time>2022-07-17T06:26:33Z</time>
      </trkpt>
      <trkpt lat="45.72671" lon="6.47363">
        <ele>1316</ele>
        <time>2022-07-17T06:26:35Z</time>
      </trkpt>
      <trkpt lat="45.7267" lon="6.47362">
        <ele>1316</ele>
        <time>2022-07-17T06:26:36Z</time>
      </trkpt>
      <trkpt lat="45.72668" lon="6.47361">
        <ele>1316</ele>
        <time>2022-07-17T06:26:37Z</time>
      </trkpt>
      <trkpt lat="45.72667" lon="6.47359">
        <ele>1316</ele>
        <time>2022-07-17T06:26:38Z</time>
      </trkpt>
      <trkpt lat="45.72665" lon="6.47358">
        <ele>1315</ele>
        <time>2022-07-17T06:26:39Z</time>
      </trkpt>
      <trkpt lat="45.72664" lon="6.47357">
        <ele>1315</ele>
        <time>2022-07-17T06:26:40Z</time>
      </trkpt>
      <trkpt lat="45.72662" lon="6.47355">
        <ele>1315</ele>
        <time>2022-07-17T06:26:41Z</time>
      </trkpt>
      <trkpt lat="45.7266" lon="6.47352">
        <ele>1314</ele>
        <time>2022-07-17T06:26:43Z</time>
      </trkpt>
      <trkpt lat="45.72658" lon="6.4735">
        <ele>1314</ele>
        <time>2022-07-17T06:26:45Z</time>
      </trkpt>
      <trkpt lat="45.72655" lon="6.47347">
        <ele>1314</ele>
        <time>2022-07-17T06:26:47Z</time>
      </trkpt>
      <trkpt lat="45.72652" lon="6.47343">
        <ele>1314</ele>
        <time>2022-07-17T06:26:49Z</time>
      </trkpt>
      <trkpt lat="45.72651" lon="6.47342">
        <ele>1314</ele>
        <time>2022-07-17T06:26:50Z</time>
      </trkpt>
      <trkpt lat="45.72649" lon="6.4734">
        <ele>1314</ele>
        <time>2022-07-17T06:26:51Z</time>
      </trkpt>
      <trkpt lat="45.72647" lon="6.47339">
        <ele>1314</ele>
        <time>2022-07-17T06:26:52Z</time>
      </trkpt>
      <trkpt lat="45.72645" lon="6.47337">
        <ele>1314</ele>
        <time>2022-07-17T06:26:53Z</time>
      </trkpt>
      <trkpt lat="45.72642" lon="6.47334">
        <ele>1314</ele>
        <time>2022-07-17T06:26:55Z</time>
      </trkpt>
      <trkpt lat="45.72641" lon="6.47333">
        <ele>1313</ele>
        <time>2022-07-17T06:26:56Z</time>
      </trkpt>
      <trkpt lat="45.72637" lon="6.47331">
        <ele>1313</ele>
        <time>2022-07-17T06:26:58Z</time>
      </trkpt>
      <trkpt lat="45.72635" lon="6.47329">
        <ele>1312</ele>
        <time>2022-07-17T06:27:00Z</time>
      </trkpt>
      <trkpt lat="45.72631" lon="6.47326">
        <ele>1312</ele>
        <time>2022-07-17T06:27:02Z</time>
      </trkpt>
      <trkpt lat="45.7263" lon="6.47325">
        <ele>1312</ele>
        <time>2022-07-17T06:27:03Z</time>
      </trkpt>
      <trkpt lat="45.72628" lon="6.47324">
        <ele>1312</ele>
        <time>2022-07-17T06:27:05Z</time>
      </trkpt>
      <trkpt lat="45.72627" lon="6.47322">
        <ele>1312</ele>
        <time>2022-07-17T06:27:06Z</time>
      </trkpt>
      <trkpt lat="45.72625" lon="6.47321">
        <ele>1311</ele>
        <time>2022-07-17T06:27:07Z</time>
      </trkpt>
      <trkpt lat="45.72623" lon="6.4732">
        <ele>1311</ele>
        <time>2022-07-17T06:27:08Z</time>
      </trkpt>
      <trkpt lat="45.72622" lon="6.47319">
        <ele>1311</ele>
        <time>2022-07-17T06:27:09Z</time>
      </trkpt>
      <trkpt lat="45.7262" lon="6.47318">
        <ele>1311</ele>
        <time>2022-07-17T06:27:10Z</time>
      </trkpt>
      <trkpt lat="45.72618" lon="6.47317">
        <ele>1311</ele>
        <time>2022-07-17T06:27:11Z</time>
      </trkpt>
      <trkpt lat="45.72616" lon="6.47317">
        <ele>1310</ele>
        <time>2022-07-17T06:27:12Z</time>
      </trkpt>
      <trkpt lat="45.72614" lon="6.47316">
        <ele>1310</ele>
        <time>2022-07-17T06:27:13Z</time>
      </trkpt>
      <trkpt lat="45.72612" lon="6.47316">
        <ele>1310</ele>
        <time>2022-07-17T06:27:14Z</time>
      </trkpt>
      <trkpt lat="45.7261" lon="6.47316">
        <ele>1310</ele>
        <time>2022-07-17T06:27:15Z</time>
      </trkpt>
      <trkpt lat="45.72609" lon="6.47315">
        <ele>1309</ele>
        <time>2022-07-17T06:27:16Z</time>
      </trkpt>
      <trkpt lat="45.72607" lon="6.47315">
        <ele>1309</ele>
        <time>2022-07-17T06:27:17Z</time>
      </trkpt>
      <trkpt lat="45.72605" lon="6.47314">
        <ele>1309</ele>
        <time>2022-07-17T06:27:18Z</time>
      </trkpt>
      <trkpt lat="45.72604" lon="6.47314">
        <ele>1309</ele>
        <time>2022-07-17T06:27:19Z</time>
      </trkpt>
      <trkpt lat="45.72602" lon="6.47314">
        <ele>1309</ele>
        <time>2022-07-17T06:27:20Z</time>
      </trkpt>
      <trkpt lat="45.72601" lon="6.47313">
        <ele>1309</ele>
        <time>2022-07-17T06:27:21Z</time>
      </trkpt>
      <trkpt lat="45.72599" lon="6.47312">
        <ele>1309</ele>
        <time>2022-07-17T06:27:22Z</time>
      </trkpt>
      <trkpt lat="45.72597" lon="6.4731">
        <ele>1309</ele>
        <time>2022-07-17T06:27:23Z</time>
      </trkpt>
      <trkpt lat="45.72595" lon="6.47309">
        <ele>1309</ele>
        <time>2022-07-17T06:27:24Z</time>
      </trkpt>
      <trkpt lat="45.72593" lon="6.47308">
        <ele>1309</ele>
        <time>2022-07-17T06:27:25Z</time>
      </trkpt>
      <trkpt lat="45.72591" lon="6.47306">
        <ele>1309</ele>
        <time>2022-07-17T06:27:26Z</time>
      </trkpt>
      <trkpt lat="45.7259" lon="6.47304">
        <ele>1309</ele>
        <time>2022-07-17T06:27:27Z</time>
      </trkpt>
      <trkpt lat="45.72588" lon="6.47302">
        <ele>1309</ele>
        <time>2022-07-17T06:27:28Z</time>
      </trkpt>
      <trkpt lat="45.72587" lon="6.473">
        <ele>1309</ele>
        <time>2022-07-17T06:27:29Z</time>
      </trkpt>
      <trkpt lat="45.72585" lon="6.47298">
        <ele>1309</ele>
        <time>2022-07-17T06:27:30Z</time>
      </trkpt>
      <trkpt lat="45.72584" lon="6.47296">
        <ele>1308</ele>
        <time>2022-07-17T06:27:31Z</time>
      </trkpt>
      <trkpt lat="45.72583" lon="6.47293">
        <ele>1308</ele>
        <time>2022-07-17T06:27:32Z</time>
      </trkpt>
      <trkpt lat="45.72581" lon="6.47291">
        <ele>1308</ele>
        <time>2022-07-17T06:27:33Z</time>
      </trkpt>
      <trkpt lat="45.7258" lon="6.47289">
        <ele>1308</ele>
        <time>2022-07-17T06:27:34Z</time>
      </trkpt>
      <trkpt lat="45.72577" lon="6.47284">
        <ele>1307</ele>
        <time>2022-07-17T06:27:35Z</time>
      </trkpt>
      <trkpt lat="45.72576" lon="6.47282">
        <ele>1307</ele>
        <time>2022-07-17T06:27:36Z</time>
      </trkpt>
      <trkpt lat="45.72574" lon="6.47277">
        <ele>1307</ele>
        <time>2022-07-17T06:27:38Z</time>
      </trkpt>
      <trkpt lat="45.72573" lon="6.47272">
        <ele>1306</ele>
        <time>2022-07-17T06:27:40Z</time>
      </trkpt>
      <trkpt lat="45.72572" lon="6.4727">
        <ele>1306</ele>
        <time>2022-07-17T06:27:41Z</time>
      </trkpt>
      <trkpt lat="45.72571" lon="6.47267">
        <ele>1306</ele>
        <time>2022-07-17T06:27:42Z</time>
      </trkpt>
      <trkpt lat="45.7257" lon="6.47265">
        <ele>1305</ele>
        <time>2022-07-17T06:27:43Z</time>
      </trkpt>
      <trkpt lat="45.72569" lon="6.47262">
        <ele>1305</ele>
        <time>2022-07-17T06:27:44Z</time>
      </trkpt>
      <trkpt lat="45.72568" lon="6.47259">
        <ele>1305</ele>
        <time>2022-07-17T06:27:46Z</time>
      </trkpt>
      <trkpt lat="45.72566" lon="6.47254">
        <ele>1305</ele>
        <time>2022-07-17T06:27:47Z</time>
      </trkpt>
      <trkpt lat="45.72565" lon="6.47251">
        <ele>1304</ele>
        <time>2022-07-17T06:27:49Z</time>
      </trkpt>
      <trkpt lat="45.72563" lon="6.47246">
        <ele>1304</ele>
        <time>2022-07-17T06:27:50Z</time>
      </trkpt>
      <trkpt lat="45.72562" lon="6.47243">
        <ele>1304</ele>
        <time>2022-07-17T06:27:51Z</time>
      </trkpt>
      <trkpt lat="45.72561" lon="6.47241">
        <ele>1304</ele>
        <time>2022-07-17T06:27:52Z</time>
      </trkpt>
      <trkpt lat="45.72559" lon="6.47237">
        <ele>1304</ele>
        <time>2022-07-17T06:27:54Z</time>
      </trkpt>
      <trkpt lat="45.72557" lon="6.4723">
        <ele>1304</ele>
        <time>2022-07-17T06:27:57Z</time>
      </trkpt>
      <trkpt lat="45.72556" lon="6.47227">
        <ele>1303</ele>
        <time>2022-07-17T06:27:59Z</time>
      </trkpt>
      <trkpt lat="45.72555" lon="6.47223">
        <ele>1303</ele>
        <time>2022-07-17T06:28:01Z</time>
      </trkpt>
      <trkpt lat="45.72553" lon="6.47218">
        <ele>1303</ele>
        <time>2022-07-17T06:28:03Z</time>
      </trkpt>
      <trkpt lat="45.72552" lon="6.47214">
        <ele>1303</ele>
        <time>2022-07-17T06:28:06Z</time>
      </trkpt>
      <trkpt lat="45.7255" lon="6.47209">
        <ele>1302</ele>
        <time>2022-07-17T06:28:07Z</time>
      </trkpt>
      <trkpt lat="45.72549" lon="6.47207">
        <ele>1302</ele>
        <time>2022-07-17T06:28:08Z</time>
      </trkpt>
      <trkpt lat="45.72549" lon="6.47204">
        <ele>1302</ele>
        <time>2022-07-17T06:28:09Z</time>
      </trkpt>
      <trkpt lat="45.72548" lon="6.47202">
        <ele>1301</ele>
        <time>2022-07-17T06:28:10Z</time>
      </trkpt>
      <trkpt lat="45.72546" lon="6.47194">
        <ele>1300</ele>
        <time>2022-07-17T06:28:13Z</time>
      </trkpt>
      <trkpt lat="45.72545" lon="6.47191">
        <ele>1300</ele>
        <time>2022-07-17T06:28:14Z</time>
      </trkpt>
      <trkpt lat="45.72545" lon="6.47189">
        <ele>1300</ele>
        <time>2022-07-17T06:28:15Z</time>
      </trkpt>
      <trkpt lat="45.72542" lon="6.47182">
        <ele>1299</ele>
        <time>2022-07-17T06:28:18Z</time>
      </trkpt>
      <trkpt lat="45.7254" lon="6.47178">
        <ele>1299</ele>
        <time>2022-07-17T06:28:20Z</time>
      </trkpt>
      <trkpt lat="45.72538" lon="6.47175">
        <ele>1299</ele>
        <time>2022-07-17T06:28:21Z</time>
      </trkpt>
      <trkpt lat="45.72538" lon="6.47173">
        <ele>1298</ele>
        <time>2022-07-17T06:28:22Z</time>
      </trkpt>
      <trkpt lat="45.72538" lon="6.4717">
        <ele>1298</ele>
        <time>2022-07-17T06:28:24Z</time>
      </trkpt>
      <trkpt lat="45.72538" lon="6.47164">
        <ele>1297</ele>
        <time>2022-07-17T06:28:25Z</time>
      </trkpt>
      <trkpt lat="45.72538" lon="6.47162">
        <ele>1296</ele>
        <time>2022-07-17T06:28:26Z</time>
      </trkpt>
      <trkpt lat="45.72538" lon="6.47159">
        <ele>1296</ele>
        <time>2022-07-17T06:28:27Z</time>
      </trkpt>
      <trkpt lat="45.72538" lon="6.47153">
        <ele>1296</ele>
        <time>2022-07-17T06:28:29Z</time>
      </trkpt>
      <trkpt lat="45.72538" lon="6.47151">
        <ele>1296</ele>
        <time>2022-07-17T06:28:30Z</time>
      </trkpt>
      <trkpt lat="45.72537" lon="6.47146">
        <ele>1295</ele>
        <time>2022-07-17T06:28:32Z</time>
      </trkpt>
      <trkpt lat="45.72535" lon="6.47145">
        <ele>1295</ele>
        <time>2022-07-17T06:28:34Z</time>
      </trkpt>
      <trkpt lat="45.72532" lon="6.47145">
        <ele>1294</ele>
        <time>2022-07-17T06:28:36Z</time>
      </trkpt>
      <trkpt lat="45.72532" lon="6.47149">
        <ele>1294</ele>
        <time>2022-07-17T06:28:38Z</time>
      </trkpt>
      <trkpt lat="45.72533" lon="6.47152">
        <ele>1294</ele>
        <time>2022-07-17T06:28:39Z</time>
      </trkpt>
      <trkpt lat="45.72533" lon="6.47155">
        <ele>1294</ele>
        <time>2022-07-17T06:28:40Z</time>
      </trkpt>
      <trkpt lat="45.72533" lon="6.47157">
        <ele>1294</ele>
        <time>2022-07-17T06:28:41Z</time>
      </trkpt>
      <trkpt lat="45.72535" lon="6.47165">
        <ele>1294</ele>
        <time>2022-07-17T06:28:44Z</time>
      </trkpt>
      <trkpt lat="45.72536" lon="6.47169">
        <ele>1294</ele>
        <time>2022-07-17T06:28:45Z</time>
      </trkpt>
      <trkpt lat="45.72536" lon="6.47171">
        <ele>1294</ele>
        <time>2022-07-17T06:28:46Z</time>
      </trkpt>
      <trkpt lat="45.72537" lon="6.47174">
        <ele>1293</ele>
        <time>2022-07-17T06:28:47Z</time>
      </trkpt>
      <trkpt lat="45.72538" lon="6.47177">
        <ele>1293</ele>
        <time>2022-07-17T06:28:48Z</time>
      </trkpt>
      <trkpt lat="45.72538" lon="6.47179">
        <ele>1293</ele>
        <time>2022-07-17T06:28:49Z</time>
      </trkpt>
      <trkpt lat="45.72538" lon="6.47185">
        <ele>1292</ele>
        <time>2022-07-17T06:28:51Z</time>
      </trkpt>
      <trkpt lat="45.72539" lon="6.47188">
        <ele>1292</ele>
        <time>2022-07-17T06:28:52Z</time>
      </trkpt>
      <trkpt lat="45.72538" lon="6.47193">
        <ele>1291</ele>
        <time>2022-07-17T06:28:54Z</time>
      </trkpt>
      <trkpt lat="45.72539" lon="6.47198">
        <ele>1291</ele>
        <time>2022-07-17T06:28:56Z</time>
      </trkpt>
      <trkpt lat="45.72538" lon="6.47201">
        <ele>1291</ele>
        <time>2022-07-17T06:28:57Z</time>
      </trkpt>
      <trkpt lat="45.72538" lon="6.47206">
        <ele>1291</ele>
        <time>2022-07-17T06:28:59Z</time>
      </trkpt>
      <trkpt lat="45.72537" lon="6.4721">
        <ele>1291</ele>
        <time>2022-07-17T06:29:01Z</time>
      </trkpt>
      <trkpt lat="45.72537" lon="6.47211">
        <ele>1291</ele>
        <time>2022-07-17T06:29:02Z</time>
      </trkpt>
      <trkpt lat="45.72537" lon="6.47214">
        <ele>1290</ele>
        <time>2022-07-17T06:29:03Z</time>
      </trkpt>
      <trkpt lat="45.72536" lon="6.47218">
        <ele>1290</ele>
        <time>2022-07-17T06:29:04Z</time>
      </trkpt>
      <trkpt lat="45.72534" lon="6.47219">
        <ele>1290</ele>
        <time>2022-07-17T06:29:05Z</time>
      </trkpt>
      <trkpt lat="45.72531" lon="6.47217">
        <ele>1289</ele>
        <time>2022-07-17T06:29:07Z</time>
      </trkpt>
      <trkpt lat="45.72529" lon="6.47215">
        <ele>1289</ele>
        <time>2022-07-17T06:29:08Z</time>
      </trkpt>
      <trkpt lat="45.72528" lon="6.47212">
        <ele>1288</ele>
        <time>2022-07-17T06:29:09Z</time>
      </trkpt>
      <trkpt lat="45.72528" lon="6.47208">
        <ele>1288</ele>
        <time>2022-07-17T06:29:11Z</time>
      </trkpt>
      <trkpt lat="45.72528" lon="6.47203">
        <ele>1289</ele>
        <time>2022-07-17T06:29:13Z</time>
      </trkpt>
      <trkpt lat="45.72528" lon="6.47199">
        <ele>1289</ele>
        <time>2022-07-17T06:29:15Z</time>
      </trkpt>
      <trkpt lat="45.72528" lon="6.47197">
        <ele>1289</ele>
        <time>2022-07-17T06:29:17Z</time>
      </trkpt>
      <trkpt lat="45.72526" lon="6.47195">
        <ele>1287</ele>
        <time>2022-07-17T06:29:19Z</time>
      </trkpt>
      <trkpt lat="45.72524" lon="6.47192">
        <ele>1286</ele>
        <time>2022-07-17T06:29:22Z</time>
      </trkpt>
      <trkpt lat="45.72522" lon="6.4719">
        <ele>1285</ele>
        <time>2022-07-17T06:29:23Z</time>
      </trkpt>
      <trkpt lat="45.7252" lon="6.47187">
        <ele>1285</ele>
        <time>2022-07-17T06:29:25Z</time>
      </trkpt>
      <trkpt lat="45.72519" lon="6.47185">
        <ele>1285</ele>
        <time>2022-07-17T06:29:27Z</time>
      </trkpt>
      <trkpt lat="45.72517" lon="6.47182">
        <ele>1284</ele>
        <time>2022-07-17T06:29:29Z</time>
      </trkpt>
      <trkpt lat="45.72516" lon="6.4718">
        <ele>1283</ele>
        <time>2022-07-17T06:29:31Z</time>
      </trkpt>
      <trkpt lat="45.72513" lon="6.4718">
        <ele>1282</ele>
        <time>2022-07-17T06:29:34Z</time>
      </trkpt>
      <trkpt lat="45.72512" lon="6.47183">
        <ele>1282</ele>
        <time>2022-07-17T06:29:36Z</time>
      </trkpt>
      <trkpt lat="45.72512" lon="6.47187">
        <ele>1281</ele>
        <time>2022-07-17T06:29:38Z</time>
      </trkpt>
      <trkpt lat="45.72512" lon="6.47192">
        <ele>1280</ele>
        <time>2022-07-17T06:29:41Z</time>
      </trkpt>
      <trkpt lat="45.72512" lon="6.47197">
        <ele>1279</ele>
        <time>2022-07-17T06:29:42Z</time>
      </trkpt>
      <trkpt lat="45.72512" lon="6.47202">
        <ele>1279</ele>
        <time>2022-07-17T06:29:44Z</time>
      </trkpt>
      <trkpt lat="45.72511" lon="6.47206">
        <ele>1278</ele>
        <time>2022-07-17T06:29:46Z</time>
      </trkpt>
      <trkpt lat="45.7251" lon="6.47213">
        <ele>1278</ele>
        <time>2022-07-17T06:29:49Z</time>
      </trkpt>
      <trkpt lat="45.7251" lon="6.47218">
        <ele>1278</ele>
        <time>2022-07-17T06:29:51Z</time>
      </trkpt>
      <trkpt lat="45.7251" lon="6.47222">
        <ele>1277</ele>
        <time>2022-07-17T06:29:54Z</time>
      </trkpt>
      <trkpt lat="45.72511" lon="6.47225">
        <ele>1277</ele>
        <time>2022-07-17T06:29:55Z</time>
      </trkpt>
      <trkpt lat="45.72511" lon="6.4723">
        <ele>1276</ele>
        <time>2022-07-17T06:29:58Z</time>
      </trkpt>
      <trkpt lat="45.72512" lon="6.47234">
        <ele>1275</ele>
        <time>2022-07-17T06:30:00Z</time>
      </trkpt>
      <trkpt lat="45.72512" lon="6.47238">
        <ele>1274</ele>
        <time>2022-07-17T06:30:01Z</time>
      </trkpt>
      <trkpt lat="45.72513" lon="6.47241">
        <ele>1274</ele>
        <time>2022-07-17T06:30:03Z</time>
      </trkpt>
      <trkpt lat="45.72512" lon="6.47244">
        <ele>1274</ele>
        <time>2022-07-17T06:30:05Z</time>
      </trkpt>
      <trkpt lat="45.72512" lon="6.47248">
        <ele>1273</ele>
        <time>2022-07-17T06:30:07Z</time>
      </trkpt>
      <trkpt lat="45.72513" lon="6.47251">
        <ele>1273</ele>
        <time>2022-07-17T06:30:09Z</time>
      </trkpt>
      <trkpt lat="45.72513" lon="6.47256">
        <ele>1273</ele>
        <time>2022-07-17T06:30:11Z</time>
      </trkpt>
      <trkpt lat="45.72512" lon="6.4726">
        <ele>1272</ele>
        <time>2022-07-17T06:30:13Z</time>
      </trkpt>
      <trkpt lat="45.7251" lon="6.47263">
        <ele>1271</ele>
        <time>2022-07-17T06:30:15Z</time>
      </trkpt>
      <trkpt lat="45.72507" lon="6.47263">
        <ele>1270</ele>
        <time>2022-07-17T06:30:18Z</time>
      </trkpt>
      <trkpt lat="45.72504" lon="6.47262">
        <ele>1268</ele>
        <time>2022-07-17T06:30:19Z</time>
      </trkpt>
      <trkpt lat="45.72503" lon="6.4726">
        <ele>1267</ele>
        <time>2022-07-17T06:30:21Z</time>
      </trkpt>
      <trkpt lat="45.72501" lon="6.47258">
        <ele>1267</ele>
        <time>2022-07-17T06:30:23Z</time>
      </trkpt>
      <trkpt lat="45.725" lon="6.47256">
        <ele>1267</ele>
        <time>2022-07-17T06:30:25Z</time>
      </trkpt>
      <trkpt lat="45.72499" lon="6.47254">
        <ele>1267</ele>
        <time>2022-07-17T06:30:26Z</time>
      </trkpt>
      <trkpt lat="45.72497" lon="6.47253">
        <ele>1266</ele>
        <time>2022-07-17T06:30:28Z</time>
      </trkpt>
      <trkpt lat="45.72494" lon="6.4725">
        <ele>1265</ele>
        <time>2022-07-17T06:30:31Z</time>
      </trkpt>
      <trkpt lat="45.72492" lon="6.47248">
        <ele>1264</ele>
        <time>2022-07-17T06:30:32Z</time>
      </trkpt>
      <trkpt lat="45.72489" lon="6.47244">
        <ele>1263</ele>
        <time>2022-07-17T06:30:34Z</time>
      </trkpt>
      <trkpt lat="45.72488" lon="6.47241">
        <ele>1263</ele>
        <time>2022-07-17T06:30:36Z</time>
      </trkpt>
      <trkpt lat="45.72485" lon="6.47238">
        <ele>1262</ele>
        <time>2022-07-17T06:30:38Z</time>
      </trkpt>
      <trkpt lat="45.72483" lon="6.47233">
        <ele>1262</ele>
        <time>2022-07-17T06:30:40Z</time>
      </trkpt>
      <trkpt lat="45.72482" lon="6.47231">
        <ele>1262</ele>
        <time>2022-07-17T06:30:41Z</time>
      </trkpt>
      <trkpt lat="45.72482" lon="6.47229">
        <ele>1262</ele>
        <time>2022-07-17T06:30:42Z</time>
      </trkpt>
      <trkpt lat="45.72481" lon="6.47226">
        <ele>1262</ele>
        <time>2022-07-17T06:30:43Z</time>
      </trkpt>
      <trkpt lat="45.72479" lon="6.47223">
        <ele>1262</ele>
        <time>2022-07-17T06:30:45Z</time>
      </trkpt>
      <trkpt lat="45.72477" lon="6.4722">
        <ele>1261</ele>
        <time>2022-07-17T06:30:48Z</time>
      </trkpt>
      <trkpt lat="45.72475" lon="6.47217">
        <ele>1260</ele>
        <time>2022-07-17T06:30:49Z</time>
      </trkpt>
      <trkpt lat="45.72473" lon="6.47215">
        <ele>1260</ele>
        <time>2022-07-17T06:30:51Z</time>
      </trkpt>
      <trkpt lat="45.7247" lon="6.47212">
        <ele>1259</ele>
        <time>2022-07-17T06:30:53Z</time>
      </trkpt>
      <trkpt lat="45.72469" lon="6.47209">
        <ele>1257</ele>
        <time>2022-07-17T06:30:57Z</time>
      </trkpt>
      <trkpt lat="45.72467" lon="6.47207">
        <ele>1256</ele>
        <time>2022-07-17T06:30:58Z</time>
      </trkpt>
      <trkpt lat="45.72466" lon="6.47204">
        <ele>1256</ele>
        <time>2022-07-17T06:31:00Z</time>
      </trkpt>
      <trkpt lat="45.72465" lon="6.47203">
        <ele>1256</ele>
        <time>2022-07-17T06:31:02Z</time>
      </trkpt>
      <trkpt lat="45.72463" lon="6.47202">
        <ele>1256</ele>
        <time>2022-07-17T06:31:04Z</time>
      </trkpt>
      <trkpt lat="45.72461" lon="6.472">
        <ele>1255</ele>
        <time>2022-07-17T06:31:06Z</time>
      </trkpt>
      <trkpt lat="45.72459" lon="6.47198">
        <ele>1254</ele>
        <time>2022-07-17T06:31:09Z</time>
      </trkpt>
      <trkpt lat="45.72457" lon="6.47196">
        <ele>1254</ele>
        <time>2022-07-17T06:31:11Z</time>
      </trkpt>
      <trkpt lat="45.72456" lon="6.47193">
        <ele>1253</ele>
        <time>2022-07-17T06:31:15Z</time>
      </trkpt>
      <trkpt lat="45.72454" lon="6.47191">
        <ele>1252</ele>
        <time>2022-07-17T06:31:16Z</time>
      </trkpt>
      <trkpt lat="45.72452" lon="6.47189">
        <ele>1251</ele>
        <time>2022-07-17T06:31:18Z</time>
      </trkpt>
      <trkpt lat="45.72451" lon="6.47187">
        <ele>1251</ele>
        <time>2022-07-17T06:31:20Z</time>
      </trkpt>
      <trkpt lat="45.7245" lon="6.47185">
        <ele>1250</ele>
        <time>2022-07-17T06:31:22Z</time>
      </trkpt>
      <trkpt lat="45.72448" lon="6.47183">
        <ele>1250</ele>
        <time>2022-07-17T06:31:23Z</time>
      </trkpt>
      <trkpt lat="45.72447" lon="6.47181">
        <ele>1249</ele>
        <time>2022-07-17T06:31:24Z</time>
      </trkpt>
      <trkpt lat="45.72445" lon="6.47179">
        <ele>1249</ele>
        <time>2022-07-17T06:31:25Z</time>
      </trkpt>
      <trkpt lat="45.72444" lon="6.47177">
        <ele>1249</ele>
        <time>2022-07-17T06:31:26Z</time>
      </trkpt>
      <trkpt lat="45.72442" lon="6.47175">
        <ele>1248</ele>
        <time>2022-07-17T06:31:27Z</time>
      </trkpt>
      <trkpt lat="45.72441" lon="6.47173">
        <ele>1248</ele>
        <time>2022-07-17T06:31:28Z</time>
      </trkpt>
      <trkpt lat="45.72439" lon="6.47171">
        <ele>1248</ele>
        <time>2022-07-17T06:31:30Z</time>
      </trkpt>
      <trkpt lat="45.72437" lon="6.4717">
        <ele>1247</ele>
        <time>2022-07-17T06:31:34Z</time>
      </trkpt>
      <trkpt lat="45.72435" lon="6.47167">
        <ele>1246</ele>
        <time>2022-07-17T06:31:37Z</time>
      </trkpt>
      <trkpt lat="45.72433" lon="6.47164">
        <ele>1246</ele>
        <time>2022-07-17T06:31:39Z</time>
      </trkpt>
      <trkpt lat="45.72432" lon="6.47162">
        <ele>1245</ele>
        <time>2022-07-17T06:31:41Z</time>
      </trkpt>
      <trkpt lat="45.7243" lon="6.47161">
        <ele>1244</ele>
        <time>2022-07-17T06:31:43Z</time>
      </trkpt>
      <trkpt lat="45.72429" lon="6.47158">
        <ele>1243</ele>
        <time>2022-07-17T06:31:46Z</time>
      </trkpt>
      <trkpt lat="45.72426" lon="6.47156">
        <ele>1242</ele>
        <time>2022-07-17T06:31:48Z</time>
      </trkpt>
      <trkpt lat="45.72424" lon="6.47155">
        <ele>1241</ele>
        <time>2022-07-17T06:31:50Z</time>
      </trkpt>
      <trkpt lat="45.72421" lon="6.47152">
        <ele>1241</ele>
        <time>2022-07-17T06:31:53Z</time>
      </trkpt>
      <trkpt lat="45.72419" lon="6.4715">
        <ele>1240</ele>
        <time>2022-07-17T06:31:54Z</time>
      </trkpt>
      <trkpt lat="45.72417" lon="6.47148">
        <ele>1240</ele>
        <time>2022-07-17T06:31:55Z</time>
      </trkpt>
      <trkpt lat="45.72416" lon="6.47145">
        <ele>1240</ele>
        <time>2022-07-17T06:31:58Z</time>
      </trkpt>
      <trkpt lat="45.72413" lon="6.47143">
        <ele>1240</ele>
        <time>2022-07-17T06:31:59Z</time>
      </trkpt>
      <trkpt lat="45.72411" lon="6.4714">
        <ele>1239</ele>
        <time>2022-07-17T06:32:01Z</time>
      </trkpt>
      <trkpt lat="45.7241" lon="6.47139">
        <ele>1239</ele>
        <time>2022-07-17T06:32:02Z</time>
      </trkpt>
      <trkpt lat="45.72408" lon="6.47138">
        <ele>1239</ele>
        <time>2022-07-17T06:32:03Z</time>
      </trkpt>
      <trkpt lat="45.72406" lon="6.47135">
        <ele>1238</ele>
        <time>2022-07-17T06:32:05Z</time>
      </trkpt>
      <trkpt lat="45.72404" lon="6.47134">
        <ele>1237</ele>
        <time>2022-07-17T06:32:08Z</time>
      </trkpt>
      <trkpt lat="45.72403" lon="6.47131">
        <ele>1237</ele>
        <time>2022-07-17T06:32:09Z</time>
      </trkpt>
      <trkpt lat="45.724" lon="6.47128">
        <ele>1235</ele>
        <time>2022-07-17T06:32:13Z</time>
      </trkpt>
      <trkpt lat="45.72398" lon="6.47125">
        <ele>1235</ele>
        <time>2022-07-17T06:32:14Z</time>
      </trkpt>
      <trkpt lat="45.72396" lon="6.47123">
        <ele>1233</ele>
        <time>2022-07-17T06:32:17Z</time>
      </trkpt>
      <trkpt lat="45.72394" lon="6.4712">
        <ele>1233</ele>
        <time>2022-07-17T06:32:18Z</time>
      </trkpt>
      <trkpt lat="45.72392" lon="6.47118">
        <ele>1232</ele>
        <time>2022-07-17T06:32:21Z</time>
      </trkpt>
      <trkpt lat="45.72389" lon="6.47117">
        <ele>1231</ele>
        <time>2022-07-17T06:32:24Z</time>
      </trkpt>
      <trkpt lat="45.72387" lon="6.47114">
        <ele>1231</ele>
        <time>2022-07-17T06:32:27Z</time>
      </trkpt>
      <trkpt lat="45.72385" lon="6.4711">
        <ele>1230</ele>
        <time>2022-07-17T06:32:29Z</time>
      </trkpt>
      <trkpt lat="45.72385" lon="6.47105">
        <ele>1230</ele>
        <time>2022-07-17T06:32:32Z</time>
      </trkpt>
      <trkpt lat="45.72384" lon="6.471">
        <ele>1229</ele>
        <time>2022-07-17T06:32:34Z</time>
      </trkpt>
      <trkpt lat="45.72384" lon="6.47098">
        <ele>1228</ele>
        <time>2022-07-17T06:32:35Z</time>
      </trkpt>
      <trkpt lat="45.72383" lon="6.47096">
        <ele>1228</ele>
        <time>2022-07-17T06:32:36Z</time>
      </trkpt>
      <trkpt lat="45.72383" lon="6.47094">
        <ele>1228</ele>
        <time>2022-07-17T06:32:37Z</time>
      </trkpt>
      <trkpt lat="45.72382" lon="6.47091">
        <ele>1227</ele>
        <time>2022-07-17T06:32:38Z</time>
      </trkpt>
      <trkpt lat="45.72382" lon="6.47089">
        <ele>1226</ele>
        <time>2022-07-17T06:32:39Z</time>
      </trkpt>
      <trkpt lat="45.72381" lon="6.47087">
        <ele>1226</ele>
        <time>2022-07-17T06:32:40Z</time>
      </trkpt>
      <trkpt lat="45.72381" lon="6.47086">
        <ele>1226</ele>
        <time>2022-07-17T06:32:41Z</time>
      </trkpt>
      <trkpt lat="45.7238" lon="6.47085">
        <ele>1225</ele>
        <time>2022-07-17T06:32:42Z</time>
      </trkpt>
      <trkpt lat="45.7238" lon="6.47084">
        <ele>1225</ele>
        <time>2022-07-17T06:32:43Z</time>
      </trkpt>
      <trkpt lat="45.72379" lon="6.47083">
        <ele>1225</ele>
        <time>2022-07-17T06:32:44Z</time>
      </trkpt>
      <trkpt lat="45.72379" lon="6.47082">
        <ele>1225</ele>
        <time>2022-07-17T06:32:45Z</time>
      </trkpt>
      <trkpt lat="45.72377" lon="6.4708">
        <ele>1221</ele>
        <time>2022-07-17T06:32:52Z</time>
      </trkpt>
      <trkpt lat="45.72375" lon="6.47078">
        <ele>1221</ele>
        <time>2022-07-17T06:32:53Z</time>
      </trkpt>
      <trkpt lat="45.72373" lon="6.47076">
        <ele>1221</ele>
        <time>2022-07-17T06:32:55Z</time>
      </trkpt>
      <trkpt lat="45.7237" lon="6.47075">
        <ele>1220</ele>
        <time>2022-07-17T06:32:58Z</time>
      </trkpt>
      <trkpt lat="45.7237" lon="6.47074">
        <ele>1220</ele>
        <time>2022-07-17T06:32:59Z</time>
      </trkpt>
      <trkpt lat="45.7237" lon="6.47073">
        <ele>1219</ele>
        <time>2022-07-17T06:33:00Z</time>
      </trkpt>
      <trkpt lat="45.7237" lon="6.47072">
        <ele>1219</ele>
        <time>2022-07-17T06:33:01Z</time>
      </trkpt>
      <trkpt lat="45.72369" lon="6.47072">
        <ele>1219</ele>
        <time>2022-07-17T06:33:02Z</time>
      </trkpt>
      <trkpt lat="45.72369" lon="6.47071">
        <ele>1218</ele>
        <time>2022-07-17T06:33:03Z</time>
      </trkpt>
      <trkpt lat="45.72369" lon="6.4707">
        <ele>1218</ele>
        <time>2022-07-17T06:33:04Z</time>
      </trkpt>
      <trkpt lat="45.72369" lon="6.47069">
        <ele>1218</ele>
        <time>2022-07-17T06:33:05Z</time>
      </trkpt>
      <trkpt lat="45.72368" lon="6.47068">
        <ele>1217</ele>
        <time>2022-07-17T06:33:06Z</time>
      </trkpt>
      <trkpt lat="45.72368" lon="6.47067">
        <ele>1217</ele>
        <time>2022-07-17T06:33:07Z</time>
      </trkpt>
      <trkpt lat="45.72368" lon="6.47066">
        <ele>1217</ele>
        <time>2022-07-17T06:33:09Z</time>
      </trkpt>
      <trkpt lat="45.72368" lon="6.47065">
        <ele>1217</ele>
        <time>2022-07-17T06:33:10Z</time>
      </trkpt>
      <trkpt lat="45.72367" lon="6.47064">
        <ele>1216</ele>
        <time>2022-07-17T06:33:11Z</time>
      </trkpt>
      <trkpt lat="45.72367" lon="6.47063">
        <ele>1215</ele>
        <time>2022-07-17T06:33:12Z</time>
      </trkpt>
      <trkpt lat="45.72366" lon="6.47063">
        <ele>1215</ele>
        <time>2022-07-17T06:33:14Z</time>
      </trkpt>
      <trkpt lat="45.72365" lon="6.47064">
        <ele>1214</ele>
        <time>2022-07-17T06:33:15Z</time>
      </trkpt>
      <trkpt lat="45.72364" lon="6.47064">
        <ele>1214</ele>
        <time>2022-07-17T06:33:16Z</time>
      </trkpt>
      <trkpt lat="45.72364" lon="6.47065">
        <ele>1213</ele>
        <time>2022-07-17T06:33:17Z</time>
      </trkpt>
      <trkpt lat="45.72363" lon="6.47065">
        <ele>1213</ele>
        <time>2022-07-17T06:33:18Z</time>
      </trkpt>
      <trkpt lat="45.72362" lon="6.47066">
        <ele>1213</ele>
        <time>2022-07-17T06:33:19Z</time>
      </trkpt>
      <trkpt lat="45.72361" lon="6.47066">
        <ele>1212</ele>
        <time>2022-07-17T06:33:20Z</time>
      </trkpt>
      <trkpt lat="45.72361" lon="6.47067">
        <ele>1212</ele>
        <time>2022-07-17T06:33:21Z</time>
      </trkpt>
      <trkpt lat="45.7236" lon="6.47067">
        <ele>1212</ele>
        <time>2022-07-17T06:33:22Z</time>
      </trkpt>
      <trkpt lat="45.72359" lon="6.47068">
        <ele>1211</ele>
        <time>2022-07-17T06:33:23Z</time>
      </trkpt>
      <trkpt lat="45.72358" lon="6.47068">
        <ele>1211</ele>
        <time>2022-07-17T06:33:24Z</time>
      </trkpt>
      <trkpt lat="45.72356" lon="6.47065">
        <ele>1211</ele>
        <time>2022-07-17T06:33:25Z</time>
      </trkpt>
      <trkpt lat="45.72353" lon="6.47062">
        <ele>1210</ele>
        <time>2022-07-17T06:33:28Z</time>
      </trkpt>
      <trkpt lat="45.72352" lon="6.47061">
        <ele>1209</ele>
        <time>2022-07-17T06:33:29Z</time>
      </trkpt>
      <trkpt lat="45.72352" lon="6.4706">
        <ele>1208</ele>
        <time>2022-07-17T06:33:30Z</time>
      </trkpt>
      <trkpt lat="45.72351" lon="6.4706">
        <ele>1208</ele>
        <time>2022-07-17T06:33:31Z</time>
      </trkpt>
      <trkpt lat="45.7235" lon="6.47059">
        <ele>1208</ele>
        <time>2022-07-17T06:33:32Z</time>
      </trkpt>
      <trkpt lat="45.72349" lon="6.47058">
        <ele>1208</ele>
        <time>2022-07-17T06:33:33Z</time>
      </trkpt>
      <trkpt lat="45.72348" lon="6.47058">
        <ele>1207</ele>
        <time>2022-07-17T06:33:34Z</time>
      </trkpt>
      <trkpt lat="45.72347" lon="6.47057">
        <ele>1207</ele>
        <time>2022-07-17T06:33:35Z</time>
      </trkpt>
      <trkpt lat="45.72346" lon="6.47056">
        <ele>1206</ele>
        <time>2022-07-17T06:33:36Z</time>
      </trkpt>
      <trkpt lat="45.72345" lon="6.47055">
        <ele>1206</ele>
        <time>2022-07-17T06:33:37Z</time>
      </trkpt>
      <trkpt lat="45.72344" lon="6.47053">
        <ele>1206</ele>
        <time>2022-07-17T06:33:38Z</time>
      </trkpt>
      <trkpt lat="45.72343" lon="6.47052">
        <ele>1206</ele>
        <time>2022-07-17T06:33:39Z</time>
      </trkpt>
      <trkpt lat="45.72342" lon="6.47051">
        <ele>1206</ele>
        <time>2022-07-17T06:33:40Z</time>
      </trkpt>
      <trkpt lat="45.72341" lon="6.4705">
        <ele>1206</ele>
        <time>2022-07-17T06:33:41Z</time>
      </trkpt>
      <trkpt lat="45.7234" lon="6.47048">
        <ele>1205</ele>
        <time>2022-07-17T06:33:42Z</time>
      </trkpt>
      <trkpt lat="45.72339" lon="6.47047">
        <ele>1205</ele>
        <time>2022-07-17T06:33:43Z</time>
      </trkpt>
      <trkpt lat="45.72339" lon="6.47046">
        <ele>1204</ele>
        <time>2022-07-17T06:33:44Z</time>
      </trkpt>
      <trkpt lat="45.72338" lon="6.47046">
        <ele>1204</ele>
        <time>2022-07-17T06:33:45Z</time>
      </trkpt>
      <trkpt lat="45.72338" lon="6.47045">
        <ele>1204</ele>
        <time>2022-07-17T06:33:47Z</time>
      </trkpt>
      <trkpt lat="45.72338" lon="6.47044">
        <ele>1203</ele>
        <time>2022-07-17T06:33:48Z</time>
      </trkpt>
      <trkpt lat="45.72337" lon="6.47043">
        <ele>1201</ele>
        <time>2022-07-17T06:33:50Z</time>
      </trkpt>
      <trkpt lat="45.72337" lon="6.47042">
        <ele>1200</ele>
        <time>2022-07-17T06:33:51Z</time>
      </trkpt>
      <trkpt lat="45.72336" lon="6.47041">
        <ele>1200</ele>
        <time>2022-07-17T06:33:53Z</time>
      </trkpt>
      <trkpt lat="45.72336" lon="6.4704">
        <ele>1200</ele>
        <time>2022-07-17T06:33:54Z</time>
      </trkpt>
      <trkpt lat="45.72335" lon="6.47039">
        <ele>1200</ele>
        <time>2022-07-17T06:33:56Z</time>
      </trkpt>
      <trkpt lat="45.72335" lon="6.47038">
        <ele>1200</ele>
        <time>2022-07-17T06:33:57Z</time>
      </trkpt>
      <trkpt lat="45.72334" lon="6.47035">
        <ele>1199</ele>
        <time>2022-07-17T06:34:00Z</time>
      </trkpt>
      <trkpt lat="45.72333" lon="6.47034">
        <ele>1198</ele>
        <time>2022-07-17T06:34:03Z</time>
      </trkpt>
      <trkpt lat="45.72332" lon="6.47033">
        <ele>1197</ele>
        <time>2022-07-17T06:34:04Z</time>
      </trkpt>
      <trkpt lat="45.72331" lon="6.47032">
        <ele>1196</ele>
        <time>2022-07-17T06:34:06Z</time>
      </trkpt>
      <trkpt lat="45.7233" lon="6.47032">
        <ele>1196</ele>
        <time>2022-07-17T06:34:07Z</time>
      </trkpt>
      <trkpt lat="45.7233" lon="6.47031">
        <ele>1195</ele>
        <time>2022-07-17T06:34:08Z</time>
      </trkpt>
      <trkpt lat="45.72329" lon="6.4703">
        <ele>1195</ele>
        <time>2022-07-17T06:34:09Z</time>
      </trkpt>
      <trkpt lat="45.72328" lon="6.47029">
        <ele>1195</ele>
        <time>2022-07-17T06:34:11Z</time>
      </trkpt>
      <trkpt lat="45.72327" lon="6.47029">
        <ele>1194</ele>
        <time>2022-07-17T06:34:12Z</time>
      </trkpt>
      <trkpt lat="45.72327" lon="6.47028">
        <ele>1194</ele>
        <time>2022-07-17T06:34:13Z</time>
      </trkpt>
      <trkpt lat="45.72326" lon="6.47027">
        <ele>1193</ele>
        <time>2022-07-17T06:34:14Z</time>
      </trkpt>
      <trkpt lat="45.72325" lon="6.47028">
        <ele>1192</ele>
        <time>2022-07-17T06:34:16Z</time>
      </trkpt>
      <trkpt lat="45.72324" lon="6.47028">
        <ele>1192</ele>
        <time>2022-07-17T06:34:18Z</time>
      </trkpt>
      <trkpt lat="45.72323" lon="6.47028">
        <ele>1191</ele>
        <time>2022-07-17T06:34:20Z</time>
      </trkpt>
      <trkpt lat="45.72322" lon="6.47028">
        <ele>1191</ele>
        <time>2022-07-17T06:34:22Z</time>
      </trkpt>
      <trkpt lat="45.72321" lon="6.47028">
        <ele>1188</ele>
        <time>2022-07-17T06:34:26Z</time>
      </trkpt>
      <trkpt lat="45.7232" lon="6.47028">
        <ele>1187</ele>
        <time>2022-07-17T06:34:28Z</time>
      </trkpt>
      <trkpt lat="45.72319" lon="6.47028">
        <ele>1187</ele>
        <time>2022-07-17T06:34:30Z</time>
      </trkpt>
      <trkpt lat="45.72319" lon="6.47029">
        <ele>1187</ele>
        <time>2022-07-17T06:34:31Z</time>
      </trkpt>
      <trkpt lat="45.72318" lon="6.47029">
        <ele>1187</ele>
        <time>2022-07-17T06:34:32Z</time>
      </trkpt>
      <trkpt lat="45.72317" lon="6.47029">
        <ele>1185</ele>
        <time>2022-07-17T06:34:34Z</time>
      </trkpt>
      <trkpt lat="45.72316" lon="6.4703">
        <ele>1184</ele>
        <time>2022-07-17T06:34:37Z</time>
      </trkpt>
      <trkpt lat="45.72316" lon="6.47031">
        <ele>1184</ele>
        <time>2022-07-17T06:34:39Z</time>
      </trkpt>
      <trkpt lat="45.72316" lon="6.47032">
        <ele>1183</ele>
        <time>2022-07-17T06:34:40Z</time>
      </trkpt>
      <trkpt lat="45.72315" lon="6.47033">
        <ele>1183</ele>
        <time>2022-07-17T06:34:41Z</time>
      </trkpt>
      <trkpt lat="45.72315" lon="6.47034">
        <ele>1182</ele>
        <time>2022-07-17T06:34:42Z</time>
      </trkpt>
      <trkpt lat="45.72315" lon="6.47035">
        <ele>1182</ele>
        <time>2022-07-17T06:34:44Z</time>
      </trkpt>
      <trkpt lat="45.72315" lon="6.47036">
        <ele>1181</ele>
        <time>2022-07-17T06:34:45Z</time>
      </trkpt>
      <trkpt lat="45.72312" lon="6.47045">
        <ele>1180</ele>
        <time>2022-07-17T06:34:46Z</time>
      </trkpt>
      <trkpt lat="45.72311" lon="6.47047">
        <ele>1180</ele>
        <time>2022-07-17T06:34:47Z</time>
      </trkpt>
      <trkpt lat="45.72311" lon="6.47049">
        <ele>1180</ele>
        <time>2022-07-17T06:34:48Z</time>
      </trkpt>
      <trkpt lat="45.7231" lon="6.47051">
        <ele>1179</ele>
        <time>2022-07-17T06:34:49Z</time>
      </trkpt>
      <trkpt lat="45.72309" lon="6.47053">
        <ele>1179</ele>
        <time>2022-07-17T06:34:50Z</time>
      </trkpt>
      <trkpt lat="45.72308" lon="6.47055">
        <ele>1179</ele>
        <time>2022-07-17T06:34:51Z</time>
      </trkpt>
      <trkpt lat="45.72308" lon="6.47057">
        <ele>1179</ele>
        <time>2022-07-17T06:34:52Z</time>
      </trkpt>
      <trkpt lat="45.72307" lon="6.47058">
        <ele>1179</ele>
        <time>2022-07-17T06:34:53Z</time>
      </trkpt>
      <trkpt lat="45.72307" lon="6.47059">
        <ele>1178</ele>
        <time>2022-07-17T06:34:54Z</time>
      </trkpt>
      <trkpt lat="45.72306" lon="6.4706">
        <ele>1178</ele>
        <time>2022-07-17T06:34:55Z</time>
      </trkpt>
      <trkpt lat="45.72306" lon="6.47061">
        <ele>1177</ele>
        <time>2022-07-17T06:34:56Z</time>
      </trkpt>
      <trkpt lat="45.72306" lon="6.47062">
        <ele>1177</ele>
        <time>2022-07-17T06:34:57Z</time>
      </trkpt>
      <trkpt lat="45.72305" lon="6.47063">
        <ele>1177</ele>
        <time>2022-07-17T06:34:58Z</time>
      </trkpt>
      <trkpt lat="45.72305" lon="6.47065">
        <ele>1176</ele>
        <time>2022-07-17T06:34:59Z</time>
      </trkpt>
      <trkpt lat="45.72304" lon="6.47066">
        <ele>1176</ele>
        <time>2022-07-17T06:35:00Z</time>
      </trkpt>
      <trkpt lat="45.72304" lon="6.47067">
        <ele>1174</ele>
        <time>2022-07-17T06:35:01Z</time>
      </trkpt>
      <trkpt lat="45.72303" lon="6.47068">
        <ele>1174</ele>
        <time>2022-07-17T06:35:03Z</time>
      </trkpt>
      <trkpt lat="45.72303" lon="6.47069">
        <ele>1174</ele>
        <time>2022-07-17T06:35:04Z</time>
      </trkpt>
      <trkpt lat="45.72302" lon="6.47071">
        <ele>1174</ele>
        <time>2022-07-17T06:35:05Z</time>
      </trkpt>
      <trkpt lat="45.72302" lon="6.47072">
        <ele>1173</ele>
        <time>2022-07-17T06:35:06Z</time>
      </trkpt>
      <trkpt lat="45.72301" lon="6.47073">
        <ele>1173</ele>
        <time>2022-07-17T06:35:07Z</time>
      </trkpt>
      <trkpt lat="45.72301" lon="6.47075">
        <ele>1173</ele>
        <time>2022-07-17T06:35:08Z</time>
      </trkpt>
      <trkpt lat="45.723" lon="6.47076">
        <ele>1173</ele>
        <time>2022-07-17T06:35:09Z</time>
      </trkpt>
      <trkpt lat="45.723" lon="6.47077">
        <ele>1172</ele>
        <time>2022-07-17T06:35:10Z</time>
      </trkpt>
      <trkpt lat="45.72299" lon="6.47079">
        <ele>1172</ele>
        <time>2022-07-17T06:35:11Z</time>
      </trkpt>
      <trkpt lat="45.72299" lon="6.4708">
        <ele>1172</ele>
        <time>2022-07-17T06:35:12Z</time>
      </trkpt>
      <trkpt lat="45.72298" lon="6.47081">
        <ele>1171</ele>
        <time>2022-07-17T06:35:13Z</time>
      </trkpt>
      <trkpt lat="45.72298" lon="6.47082">
        <ele>1170</ele>
        <time>2022-07-17T06:35:14Z</time>
      </trkpt>
      <trkpt lat="45.72298" lon="6.47083">
        <ele>1170</ele>
        <time>2022-07-17T06:35:15Z</time>
      </trkpt>
      <trkpt lat="45.72297" lon="6.47084">
        <ele>1170</ele>
        <time>2022-07-17T06:35:16Z</time>
      </trkpt>
      <trkpt lat="45.72297" lon="6.47085">
        <ele>1169</ele>
        <time>2022-07-17T06:35:17Z</time>
      </trkpt>
      <trkpt lat="45.72297" lon="6.47086">
        <ele>1169</ele>
        <time>2022-07-17T06:35:18Z</time>
      </trkpt>
      <trkpt lat="45.72296" lon="6.47087">
        <ele>1169</ele>
        <time>2022-07-17T06:35:19Z</time>
      </trkpt>
      <trkpt lat="45.72296" lon="6.47088">
        <ele>1168</ele>
        <time>2022-07-17T06:35:20Z</time>
      </trkpt>
      <trkpt lat="45.72296" lon="6.47089">
        <ele>1168</ele>
        <time>2022-07-17T06:35:21Z</time>
      </trkpt>
      <trkpt lat="45.72295" lon="6.4709">
        <ele>1168</ele>
        <time>2022-07-17T06:35:22Z</time>
      </trkpt>
      <trkpt lat="45.72295" lon="6.47091">
        <ele>1168</ele>
        <time>2022-07-17T06:35:23Z</time>
      </trkpt>
      <trkpt lat="45.72295" lon="6.47092">
        <ele>1168</ele>
        <time>2022-07-17T06:35:24Z</time>
      </trkpt>
      <trkpt lat="45.72294" lon="6.47093">
        <ele>1168</ele>
        <time>2022-07-17T06:35:25Z</time>
      </trkpt>
      <trkpt lat="45.72294" lon="6.47094">
        <ele>1168</ele>
        <time>2022-07-17T06:35:26Z</time>
      </trkpt>
      <trkpt lat="45.72293" lon="6.47095">
        <ele>1167</ele>
        <time>2022-07-17T06:35:28Z</time>
      </trkpt>
      <trkpt lat="45.72293" lon="6.47096">
        <ele>1167</ele>
        <time>2022-07-17T06:35:29Z</time>
      </trkpt>
      <trkpt lat="45.72292" lon="6.47096">
        <ele>1166</ele>
        <time>2022-07-17T06:35:30Z</time>
      </trkpt>
      <trkpt lat="45.72292" lon="6.47097">
        <ele>1165</ele>
        <time>2022-07-17T06:35:31Z</time>
      </trkpt>
      <trkpt lat="45.72291" lon="6.47098">
        <ele>1165</ele>
        <time>2022-07-17T06:35:32Z</time>
      </trkpt>
      <trkpt lat="45.72291" lon="6.47099">
        <ele>1165</ele>
        <time>2022-07-17T06:35:34Z</time>
      </trkpt>
      <trkpt lat="45.7229" lon="6.471">
        <ele>1164</ele>
        <time>2022-07-17T06:35:35Z</time>
      </trkpt>
      <trkpt lat="45.72289" lon="6.47101">
        <ele>1164</ele>
        <time>2022-07-17T06:35:37Z</time>
      </trkpt>
      <trkpt lat="45.72289" lon="6.47102">
        <ele>1163</ele>
        <time>2022-07-17T06:35:38Z</time>
      </trkpt>
      <trkpt lat="45.72288" lon="6.47102">
        <ele>1163</ele>
        <time>2022-07-17T06:35:39Z</time>
      </trkpt>
      <trkpt lat="45.72288" lon="6.47103">
        <ele>1162</ele>
        <time>2022-07-17T06:35:41Z</time>
      </trkpt>
      <trkpt lat="45.72288" lon="6.47104">
        <ele>1161</ele>
        <time>2022-07-17T06:35:42Z</time>
      </trkpt>
      <trkpt lat="45.72287" lon="6.47105">
        <ele>1160</ele>
        <time>2022-07-17T06:35:43Z</time>
      </trkpt>
      <trkpt lat="45.72287" lon="6.47107">
        <ele>1160</ele>
        <time>2022-07-17T06:35:44Z</time>
      </trkpt>
      <trkpt lat="45.72287" lon="6.47108">
        <ele>1160</ele>
        <time>2022-07-17T06:35:45Z</time>
      </trkpt>
      <trkpt lat="45.72287" lon="6.47109">
        <ele>1160</ele>
        <time>2022-07-17T06:35:46Z</time>
      </trkpt>
      <trkpt lat="45.72286" lon="6.47111">
        <ele>1160</ele>
        <time>2022-07-17T06:35:47Z</time>
      </trkpt>
      <trkpt lat="45.72286" lon="6.47112">
        <ele>1160</ele>
        <time>2022-07-17T06:35:48Z</time>
      </trkpt>
      <trkpt lat="45.72286" lon="6.47114">
        <ele>1159</ele>
        <time>2022-07-17T06:35:49Z</time>
      </trkpt>
      <trkpt lat="45.72285" lon="6.47115">
        <ele>1159</ele>
        <time>2022-07-17T06:35:50Z</time>
      </trkpt>
      <trkpt lat="45.72285" lon="6.47117">
        <ele>1159</ele>
        <time>2022-07-17T06:35:51Z</time>
      </trkpt>
      <trkpt lat="45.72285" lon="6.47118">
        <ele>1159</ele>
        <time>2022-07-17T06:35:52Z</time>
      </trkpt>
      <trkpt lat="45.72285" lon="6.4712">
        <ele>1159</ele>
        <time>2022-07-17T06:35:53Z</time>
      </trkpt>
      <trkpt lat="45.72285" lon="6.47122">
        <ele>1159</ele>
        <time>2022-07-17T06:35:54Z</time>
      </trkpt>
      <trkpt lat="45.72285" lon="6.47123">
        <ele>1158</ele>
        <time>2022-07-17T06:35:55Z</time>
      </trkpt>
      <trkpt lat="45.72285" lon="6.47125">
        <ele>1158</ele>
        <time>2022-07-17T06:35:56Z</time>
      </trkpt>
      <trkpt lat="45.72285" lon="6.47126">
        <ele>1157</ele>
        <time>2022-07-17T06:35:57Z</time>
      </trkpt>
      <trkpt lat="45.72285" lon="6.47128">
        <ele>1156</ele>
        <time>2022-07-17T06:35:58Z</time>
      </trkpt>
      <trkpt lat="45.72285" lon="6.4713">
        <ele>1156</ele>
        <time>2022-07-17T06:36:00Z</time>
      </trkpt>
      <trkpt lat="45.72285" lon="6.47131">
        <ele>1155</ele>
        <time>2022-07-17T06:36:01Z</time>
      </trkpt>
      <trkpt lat="45.72285" lon="6.47133">
        <ele>1155</ele>
        <time>2022-07-17T06:36:02Z</time>
      </trkpt>
      <trkpt lat="45.72285" lon="6.47136">
        <ele>1155</ele>
        <time>2022-07-17T06:36:03Z</time>
      </trkpt>
      <trkpt lat="45.72284" lon="6.47138">
        <ele>1154</ele>
        <time>2022-07-17T06:36:04Z</time>
      </trkpt>
      <trkpt lat="45.72284" lon="6.47141">
        <ele>1154</ele>
        <time>2022-07-17T06:36:05Z</time>
      </trkpt>
      <trkpt lat="45.72284" lon="6.47143">
        <ele>1154</ele>
        <time>2022-07-17T06:36:06Z</time>
      </trkpt>
      <trkpt lat="45.72283" lon="6.47145">
        <ele>1153</ele>
        <time>2022-07-17T06:36:07Z</time>
      </trkpt>
      <trkpt lat="45.72283" lon="6.47147">
        <ele>1153</ele>
        <time>2022-07-17T06:36:08Z</time>
      </trkpt>
      <trkpt lat="45.72283" lon="6.47148">
        <ele>1153</ele>
        <time>2022-07-17T06:36:09Z</time>
      </trkpt>
      <trkpt lat="45.72283" lon="6.47149">
        <ele>1153</ele>
        <time>2022-07-17T06:36:10Z</time>
      </trkpt>
      <trkpt lat="45.72283" lon="6.47151">
        <ele>1153</ele>
        <time>2022-07-17T06:36:11Z</time>
      </trkpt>
      <trkpt lat="45.72283" lon="6.47152">
        <ele>1152</ele>
        <time>2022-07-17T06:36:12Z</time>
      </trkpt>
      <trkpt lat="45.72283" lon="6.47153">
        <ele>1152</ele>
        <time>2022-07-17T06:36:13Z</time>
      </trkpt>
      <trkpt lat="45.72283" lon="6.47155">
        <ele>1152</ele>
        <time>2022-07-17T06:36:14Z</time>
      </trkpt>
      <trkpt lat="45.72283" lon="6.47156">
        <ele>1151</ele>
        <time>2022-07-17T06:36:15Z</time>
      </trkpt>
      <trkpt lat="45.72283" lon="6.47158">
        <ele>1151</ele>
        <time>2022-07-17T06:36:16Z</time>
      </trkpt>
      <trkpt lat="45.72283" lon="6.47159">
        <ele>1151</ele>
        <time>2022-07-17T06:36:17Z</time>
      </trkpt>
      <trkpt lat="45.72283" lon="6.47161">
        <ele>1150</ele>
        <time>2022-07-17T06:36:19Z</time>
      </trkpt>
      <trkpt lat="45.72284" lon="6.47162">
        <ele>1150</ele>
        <time>2022-07-17T06:36:20Z</time>
      </trkpt>
      <trkpt lat="45.72284" lon="6.47164">
        <ele>1150</ele>
        <time>2022-07-17T06:36:21Z</time>
      </trkpt>
      <trkpt lat="45.72284" lon="6.47166">
        <ele>1149</ele>
        <time>2022-07-17T06:36:22Z</time>
      </trkpt>
      <trkpt lat="45.72285" lon="6.47168">
        <ele>1149</ele>
        <time>2022-07-17T06:36:23Z</time>
      </trkpt>
      <trkpt lat="45.72285" lon="6.47169">
        <ele>1148</ele>
        <time>2022-07-17T06:36:24Z</time>
      </trkpt>
      <trkpt lat="45.72286" lon="6.47171">
        <ele>1148</ele>
        <time>2022-07-17T06:36:25Z</time>
      </trkpt>
      <trkpt lat="45.72286" lon="6.47173">
        <ele>1148</ele>
        <time>2022-07-17T06:36:26Z</time>
      </trkpt>
      <trkpt lat="45.72286" lon="6.47176">
        <ele>1148</ele>
        <time>2022-07-17T06:36:27Z</time>
      </trkpt>
      <trkpt lat="45.72287" lon="6.47178">
        <ele>1147</ele>
        <time>2022-07-17T06:36:28Z</time>
      </trkpt>
      <trkpt lat="45.72287" lon="6.4718">
        <ele>1146</ele>
        <time>2022-07-17T06:36:29Z</time>
      </trkpt>
      <trkpt lat="45.72287" lon="6.47182">
        <ele>1146</ele>
        <time>2022-07-17T06:36:30Z</time>
      </trkpt>
      <trkpt lat="45.72287" lon="6.47184">
        <ele>1146</ele>
        <time>2022-07-17T06:36:31Z</time>
      </trkpt>
      <trkpt lat="45.72288" lon="6.47186">
        <ele>1146</ele>
        <time>2022-07-17T06:36:32Z</time>
      </trkpt>
      <trkpt lat="45.72289" lon="6.47188">
        <ele>1145</ele>
        <time>2022-07-17T06:36:33Z</time>
      </trkpt>
      <trkpt lat="45.72289" lon="6.47189">
        <ele>1144</ele>
        <time>2022-07-17T06:36:34Z</time>
      </trkpt>
      <trkpt lat="45.7229" lon="6.47191">
        <ele>1144</ele>
        <time>2022-07-17T06:36:35Z</time>
      </trkpt>
      <trkpt lat="45.7229" lon="6.47193">
        <ele>1143</ele>
        <time>2022-07-17T06:36:36Z</time>
      </trkpt>
      <trkpt lat="45.72291" lon="6.47194">
        <ele>1143</ele>
        <time>2022-07-17T06:36:37Z</time>
      </trkpt>
      <trkpt lat="45.72292" lon="6.47196">
        <ele>1143</ele>
        <time>2022-07-17T06:36:38Z</time>
      </trkpt>
      <trkpt lat="45.72291" lon="6.47198">
        <ele>1142</ele>
        <time>2022-07-17T06:36:39Z</time>
      </trkpt>
      <trkpt lat="45.7229" lon="6.47199">
        <ele>1141</ele>
        <time>2022-07-17T06:36:40Z</time>
      </trkpt>
      <trkpt lat="45.7229" lon="6.472">
        <ele>1141</ele>
        <time>2022-07-17T06:36:41Z</time>
      </trkpt>
      <trkpt lat="45.72289" lon="6.47202">
        <ele>1141</ele>
        <time>2022-07-17T06:36:42Z</time>
      </trkpt>
      <trkpt lat="45.72288" lon="6.47203">
        <ele>1141</ele>
        <time>2022-07-17T06:36:43Z</time>
      </trkpt>
      <trkpt lat="45.72288" lon="6.47205">
        <ele>1141</ele>
        <time>2022-07-17T06:36:44Z</time>
      </trkpt>
      <trkpt lat="45.72287" lon="6.47206">
        <ele>1140</ele>
        <time>2022-07-17T06:36:45Z</time>
      </trkpt>
      <trkpt lat="45.72286" lon="6.47207">
        <ele>1140</ele>
        <time>2022-07-17T06:36:46Z</time>
      </trkpt>
      <trkpt lat="45.72286" lon="6.47209">
        <ele>1140</ele>
        <time>2022-07-17T06:36:47Z</time>
      </trkpt>
      <trkpt lat="45.72286" lon="6.47211">
        <ele>1140</ele>
        <time>2022-07-17T06:36:48Z</time>
      </trkpt>
      <trkpt lat="45.72286" lon="6.47212">
        <ele>1139</ele>
        <time>2022-07-17T06:36:49Z</time>
      </trkpt>
      <trkpt lat="45.72286" lon="6.47214">
        <ele>1139</ele>
        <time>2022-07-17T06:36:50Z</time>
      </trkpt>
      <trkpt lat="45.72285" lon="6.47215">
        <ele>1138</ele>
        <time>2022-07-17T06:36:51Z</time>
      </trkpt>
      <trkpt lat="45.72285" lon="6.47217">
        <ele>1138</ele>
        <time>2022-07-17T06:36:52Z</time>
      </trkpt>
      <trkpt lat="45.72285" lon="6.47219">
        <ele>1137</ele>
        <time>2022-07-17T06:36:53Z</time>
      </trkpt>
      <trkpt lat="45.72285" lon="6.4722">
        <ele>1137</ele>
        <time>2022-07-17T06:36:54Z</time>
      </trkpt>
      <trkpt lat="45.72285" lon="6.47222">
        <ele>1137</ele>
        <time>2022-07-17T06:36:55Z</time>
      </trkpt>
      <trkpt lat="45.72285" lon="6.47224">
        <ele>1136</ele>
        <time>2022-07-17T06:36:56Z</time>
      </trkpt>
      <trkpt lat="45.72285" lon="6.47227">
        <ele>1136</ele>
        <time>2022-07-17T06:36:57Z</time>
      </trkpt>
      <trkpt lat="45.72286" lon="6.47229">
        <ele>1136</ele>
        <time>2022-07-17T06:36:58Z</time>
      </trkpt>
      <trkpt lat="45.72286" lon="6.47232">
        <ele>1136</ele>
        <time>2022-07-17T06:36:59Z</time>
      </trkpt>
      <trkpt lat="45.72286" lon="6.47234">
        <ele>1135</ele>
        <time>2022-07-17T06:37:00Z</time>
      </trkpt>
      <trkpt lat="45.72286" lon="6.47236">
        <ele>1134</ele>
        <time>2022-07-17T06:37:01Z</time>
      </trkpt>
      <trkpt lat="45.72286" lon="6.4724">
        <ele>1134</ele>
        <time>2022-07-17T06:37:02Z</time>
      </trkpt>
      <trkpt lat="45.72286" lon="6.47243">
        <ele>1133</ele>
        <time>2022-07-17T06:37:03Z</time>
      </trkpt>
      <trkpt lat="45.72285" lon="6.47246">
        <ele>1133</ele>
        <time>2022-07-17T06:37:04Z</time>
      </trkpt>
      <trkpt lat="45.72285" lon="6.47249">
        <ele>1133</ele>
        <time>2022-07-17T06:37:05Z</time>
      </trkpt>
      <trkpt lat="45.72284" lon="6.47252">
        <ele>1132</ele>
        <time>2022-07-17T06:37:06Z</time>
      </trkpt>
      <trkpt lat="45.72284" lon="6.47254">
        <ele>1131</ele>
        <time>2022-07-17T06:37:07Z</time>
      </trkpt>
      <trkpt lat="45.72283" lon="6.47255">
        <ele>1131</ele>
        <time>2022-07-17T06:37:08Z</time>
      </trkpt>
      <trkpt lat="45.72282" lon="6.47256">
        <ele>1131</ele>
        <time>2022-07-17T06:37:09Z</time>
      </trkpt>
      <trkpt lat="45.72282" lon="6.47258">
        <ele>1131</ele>
        <time>2022-07-17T06:37:10Z</time>
      </trkpt>
      <trkpt lat="45.72281" lon="6.47259">
        <ele>1130</ele>
        <time>2022-07-17T06:37:11Z</time>
      </trkpt>
      <trkpt lat="45.7228" lon="6.4726">
        <ele>1130</ele>
        <time>2022-07-17T06:37:12Z</time>
      </trkpt>
      <trkpt lat="45.72279" lon="6.47262">
        <ele>1129</ele>
        <time>2022-07-17T06:37:13Z</time>
      </trkpt>
      <trkpt lat="45.72279" lon="6.47263">
        <ele>1129</ele>
        <time>2022-07-17T06:37:14Z</time>
      </trkpt>
      <trkpt lat="45.72279" lon="6.47264">
        <ele>1129</ele>
        <time>2022-07-17T06:37:15Z</time>
      </trkpt>
      <trkpt lat="45.72278" lon="6.47265">
        <ele>1127</ele>
        <time>2022-07-17T06:37:16Z</time>
      </trkpt>
      <trkpt lat="45.72278" lon="6.47266">
        <ele>1126</ele>
        <time>2022-07-17T06:37:17Z</time>
      </trkpt>
      <trkpt lat="45.72278" lon="6.47267">
        <ele>1126</ele>
        <time>2022-07-17T06:37:18Z</time>
      </trkpt>
      <trkpt lat="45.72278" lon="6.47268">
        <ele>1126</ele>
        <time>2022-07-17T06:37:19Z</time>
      </trkpt>
      <trkpt lat="45.72278" lon="6.47269">
        <ele>1126</ele>
        <time>2022-07-17T06:37:20Z</time>
      </trkpt>
      <trkpt lat="45.72278" lon="6.4727">
        <ele>1125</ele>
        <time>2022-07-17T06:37:21Z</time>
      </trkpt>
      <trkpt lat="45.72278" lon="6.47271">
        <ele>1124</ele>
        <time>2022-07-17T06:37:22Z</time>
      </trkpt>
      <trkpt lat="45.72278" lon="6.47272">
        <ele>1123</ele>
        <time>2022-07-17T06:37:23Z</time>
      </trkpt>
      <trkpt lat="45.72278" lon="6.47273">
        <ele>1123</ele>
        <time>2022-07-17T06:37:24Z</time>
      </trkpt>
      <trkpt lat="45.72277" lon="6.47275">
        <ele>1122</ele>
        <time>2022-07-17T06:37:25Z</time>
      </trkpt>
      <trkpt lat="45.72277" lon="6.47276">
        <ele>1122</ele>
        <time>2022-07-17T06:37:26Z</time>
      </trkpt>
      <trkpt lat="45.72276" lon="6.47277">
        <ele>1122</ele>
        <time>2022-07-17T06:37:28Z</time>
      </trkpt>
      <trkpt lat="45.72275" lon="6.47278">
        <ele>1121</ele>
        <time>2022-07-17T06:37:30Z</time>
      </trkpt>
      <trkpt lat="45.72274" lon="6.47278">
        <ele>1121</ele>
        <time>2022-07-17T06:37:31Z</time>
      </trkpt>
      <trkpt lat="45.72273" lon="6.47279">
        <ele>1120</ele>
        <time>2022-07-17T06:37:33Z</time>
      </trkpt>
      <trkpt lat="45.72272" lon="6.47279">
        <ele>1120</ele>
        <time>2022-07-17T06:37:34Z</time>
      </trkpt>
      <trkpt lat="45.72272" lon="6.4728">
        <ele>1120</ele>
        <time>2022-07-17T06:37:35Z</time>
      </trkpt>
      <trkpt lat="45.72271" lon="6.4728">
        <ele>1119</ele>
        <time>2022-07-17T06:37:36Z</time>
      </trkpt>
      <trkpt lat="45.72271" lon="6.47281">
        <ele>1118</ele>
        <time>2022-07-17T06:37:37Z</time>
      </trkpt>
      <trkpt lat="45.7227" lon="6.47281">
        <ele>1118</ele>
        <time>2022-07-17T06:37:38Z</time>
      </trkpt>
      <trkpt lat="45.72269" lon="6.47282">
        <ele>1118</ele>
        <time>2022-07-17T06:37:39Z</time>
      </trkpt>
      <trkpt lat="45.72269" lon="6.47284">
        <ele>1118</ele>
        <time>2022-07-17T06:37:40Z</time>
      </trkpt>
      <trkpt lat="45.72269" lon="6.47285">
        <ele>1118</ele>
        <time>2022-07-17T06:37:41Z</time>
      </trkpt>
      <trkpt lat="45.72269" lon="6.47287">
        <ele>1117</ele>
        <time>2022-07-17T06:37:42Z</time>
      </trkpt>
      <trkpt lat="45.7227" lon="6.47289">
        <ele>1117</ele>
        <time>2022-07-17T06:37:43Z</time>
      </trkpt>
      <trkpt lat="45.7227" lon="6.47291">
        <ele>1117</ele>
        <time>2022-07-17T06:37:44Z</time>
      </trkpt>
      <trkpt lat="45.7227" lon="6.47293">
        <ele>1116</ele>
        <time>2022-07-17T06:37:45Z</time>
      </trkpt>
      <trkpt lat="45.7227" lon="6.47295">
        <ele>1116</ele>
        <time>2022-07-17T06:37:46Z</time>
      </trkpt>
      <trkpt lat="45.7227" lon="6.47296">
        <ele>1116</ele>
        <time>2022-07-17T06:37:47Z</time>
      </trkpt>
      <trkpt lat="45.7227" lon="6.47298">
        <ele>1115</ele>
        <time>2022-07-17T06:37:48Z</time>
      </trkpt>
      <trkpt lat="45.7227" lon="6.47299">
        <ele>1115</ele>
        <time>2022-07-17T06:37:49Z</time>
      </trkpt>
      <trkpt lat="45.7227" lon="6.47301">
        <ele>1114</ele>
        <time>2022-07-17T06:37:50Z</time>
      </trkpt>
      <trkpt lat="45.7227" lon="6.47302">
        <ele>1114</ele>
        <time>2022-07-17T06:37:51Z</time>
      </trkpt>
      <trkpt lat="45.7227" lon="6.47304">
        <ele>1114</ele>
        <time>2022-07-17T06:37:52Z</time>
      </trkpt>
      <trkpt lat="45.7227" lon="6.47305">
        <ele>1113</ele>
        <time>2022-07-17T06:37:54Z</time>
      </trkpt>
      <trkpt lat="45.7227" lon="6.47307">
        <ele>1112</ele>
        <time>2022-07-17T06:37:55Z</time>
      </trkpt>
      <trkpt lat="45.7227" lon="6.47309">
        <ele>1111</ele>
        <time>2022-07-17T06:37:56Z</time>
      </trkpt>
      <trkpt lat="45.72271" lon="6.4731">
        <ele>1111</ele>
        <time>2022-07-17T06:37:57Z</time>
      </trkpt>
      <trkpt lat="45.72271" lon="6.47311">
        <ele>1111</ele>
        <time>2022-07-17T06:37:58Z</time>
      </trkpt>
      <trkpt lat="45.72271" lon="6.47313">
        <ele>1111</ele>
        <time>2022-07-17T06:37:59Z</time>
      </trkpt>
      <trkpt lat="45.72271" lon="6.47314">
        <ele>1111</ele>
        <time>2022-07-17T06:38:00Z</time>
      </trkpt>
      <trkpt lat="45.72272" lon="6.47316">
        <ele>1110</ele>
        <time>2022-07-17T06:38:01Z</time>
      </trkpt>
      <trkpt lat="45.72272" lon="6.47317">
        <ele>1110</ele>
        <time>2022-07-17T06:38:02Z</time>
      </trkpt>
      <trkpt lat="45.72272" lon="6.47319">
        <ele>1110</ele>
        <time>2022-07-17T06:38:03Z</time>
      </trkpt>
      <trkpt lat="45.72272" lon="6.4732">
        <ele>1109</ele>
        <time>2022-07-17T06:38:04Z</time>
      </trkpt>
      <trkpt lat="45.72273" lon="6.47322">
        <ele>1109</ele>
        <time>2022-07-17T06:38:05Z</time>
      </trkpt>
      <trkpt lat="45.72273" lon="6.47323">
        <ele>1109</ele>
        <time>2022-07-17T06:38:06Z</time>
      </trkpt>
      <trkpt lat="45.72273" lon="6.47325">
        <ele>1109</ele>
        <time>2022-07-17T06:38:07Z</time>
      </trkpt>
      <trkpt lat="45.72273" lon="6.47327">
        <ele>1109</ele>
        <time>2022-07-17T06:38:08Z</time>
      </trkpt>
      <trkpt lat="45.72274" lon="6.47329">
        <ele>1108</ele>
        <time>2022-07-17T06:38:09Z</time>
      </trkpt>
      <trkpt lat="45.72274" lon="6.4733">
        <ele>1108</ele>
        <time>2022-07-17T06:38:10Z</time>
      </trkpt>
      <trkpt lat="45.72274" lon="6.47332">
        <ele>1107</ele>
        <time>2022-07-17T06:38:11Z</time>
      </trkpt>
      <trkpt lat="45.72274" lon="6.47334">
        <ele>1107</ele>
        <time>2022-07-17T06:38:12Z</time>
      </trkpt>
      <trkpt lat="45.72275" lon="6.47336">
        <ele>1107</ele>
        <time>2022-07-17T06:38:13Z</time>
      </trkpt>
      <trkpt lat="45.72272" lon="6.47338">
        <ele>1107</ele>
        <time>2022-07-17T06:38:14Z</time>
      </trkpt>
      <trkpt lat="45.7227" lon="6.47339">
        <ele>1107</ele>
        <time>2022-07-17T06:38:15Z</time>
      </trkpt>
      <trkpt lat="45.72268" lon="6.47341">
        <ele>1107</ele>
        <time>2022-07-17T06:38:16Z</time>
      </trkpt>
      <trkpt lat="45.72266" lon="6.47342">
        <ele>1107</ele>
        <time>2022-07-17T06:38:17Z</time>
      </trkpt>
      <trkpt lat="45.72264" lon="6.47341">
        <ele>1107</ele>
        <time>2022-07-17T06:38:18Z</time>
      </trkpt>
      <trkpt lat="45.72262" lon="6.4734">
        <ele>1107</ele>
        <time>2022-07-17T06:38:19Z</time>
      </trkpt>
      <trkpt lat="45.7226" lon="6.47339">
        <ele>1107</ele>
        <time>2022-07-17T06:38:20Z</time>
      </trkpt>
      <trkpt lat="45.72258" lon="6.47338">
        <ele>1107</ele>
        <time>2022-07-17T06:38:21Z</time>
      </trkpt>
      <trkpt lat="45.72256" lon="6.47338">
        <ele>1107</ele>
        <time>2022-07-17T06:38:22Z</time>
      </trkpt>
      <trkpt lat="45.72255" lon="6.47337">
        <ele>1106</ele>
        <time>2022-07-17T06:38:23Z</time>
      </trkpt>
      <trkpt lat="45.72253" lon="6.47336">
        <ele>1106</ele>
        <time>2022-07-17T06:38:24Z</time>
      </trkpt>
      <trkpt lat="45.72252" lon="6.47336">
        <ele>1106</ele>
        <time>2022-07-17T06:38:25Z</time>
      </trkpt>
      <trkpt lat="45.7225" lon="6.47335">
        <ele>1106</ele>
        <time>2022-07-17T06:38:26Z</time>
      </trkpt>
      <trkpt lat="45.72249" lon="6.47335">
        <ele>1106</ele>
        <time>2022-07-17T06:38:27Z</time>
      </trkpt>
      <trkpt lat="45.72247" lon="6.47334">
        <ele>1106</ele>
        <time>2022-07-17T06:38:28Z</time>
      </trkpt>
      <trkpt lat="45.7224" lon="6.47324">
        <ele>1106</ele>
        <time>2022-07-17T06:38:32Z</time>
      </trkpt>
      <trkpt lat="45.72239" lon="6.47323">
        <ele>1106</ele>
        <time>2022-07-17T06:38:33Z</time>
      </trkpt>
      <trkpt lat="45.72238" lon="6.47322">
        <ele>1105</ele>
        <time>2022-07-17T06:38:34Z</time>
      </trkpt>
      <trkpt lat="45.72237" lon="6.47321">
        <ele>1105</ele>
        <time>2022-07-17T06:38:35Z</time>
      </trkpt>
      <trkpt lat="45.72234" lon="6.47319">
        <ele>1105</ele>
        <time>2022-07-17T06:38:36Z</time>
      </trkpt>
      <trkpt lat="45.72232" lon="6.47315">
        <ele>1105</ele>
        <time>2022-07-17T06:38:38Z</time>
      </trkpt>
      <trkpt lat="45.72231" lon="6.47312">
        <ele>1105</ele>
        <time>2022-07-17T06:38:40Z</time>
      </trkpt>
      <trkpt lat="45.7223" lon="6.47308">
        <ele>1104</ele>
        <time>2022-07-17T06:38:42Z</time>
      </trkpt>
      <trkpt lat="45.72229" lon="6.47307">
        <ele>1104</ele>
        <time>2022-07-17T06:38:44Z</time>
      </trkpt>
      <trkpt lat="45.72229" lon="6.47306">
        <ele>1104</ele>
        <time>2022-07-17T06:38:45Z</time>
      </trkpt>
      <trkpt lat="45.72228" lon="6.47304">
        <ele>1104</ele>
        <time>2022-07-17T06:38:46Z</time>
      </trkpt>
      <trkpt lat="45.72228" lon="6.47303">
        <ele>1104</ele>
        <time>2022-07-17T06:38:47Z</time>
      </trkpt>
      <trkpt lat="45.72227" lon="6.47302">
        <ele>1104</ele>
        <time>2022-07-17T06:38:48Z</time>
      </trkpt>
      <trkpt lat="45.72227" lon="6.473">
        <ele>1103</ele>
        <time>2022-07-17T06:38:49Z</time>
      </trkpt>
      <trkpt lat="45.72226" lon="6.47299">
        <ele>1103</ele>
        <time>2022-07-17T06:38:50Z</time>
      </trkpt>
      <trkpt lat="45.72226" lon="6.47298">
        <ele>1103</ele>
        <time>2022-07-17T06:38:51Z</time>
      </trkpt>
      <trkpt lat="45.72225" lon="6.47296">
        <ele>1103</ele>
        <time>2022-07-17T06:38:52Z</time>
      </trkpt>
      <trkpt lat="45.72225" lon="6.47295">
        <ele>1103</ele>
        <time>2022-07-17T06:38:53Z</time>
      </trkpt>
      <trkpt lat="45.72224" lon="6.47294">
        <ele>1103</ele>
        <time>2022-07-17T06:38:54Z</time>
      </trkpt>
      <trkpt lat="45.72224" lon="6.47293">
        <ele>1103</ele>
        <time>2022-07-17T06:38:55Z</time>
      </trkpt>
      <trkpt lat="45.72223" lon="6.47292">
        <ele>1103</ele>
        <time>2022-07-17T06:38:56Z</time>
      </trkpt>
      <trkpt lat="45.72223" lon="6.47291">
        <ele>1103</ele>
        <time>2022-07-17T06:38:57Z</time>
      </trkpt>
      <trkpt lat="45.72222" lon="6.4729">
        <ele>1103</ele>
        <time>2022-07-17T06:38:58Z</time>
      </trkpt>
      <trkpt lat="45.7222" lon="6.47287">
        <ele>1103</ele>
        <time>2022-07-17T06:39:00Z</time>
      </trkpt>
      <trkpt lat="45.72217" lon="6.47286">
        <ele>1103</ele>
        <time>2022-07-17T06:39:02Z</time>
      </trkpt>
      <trkpt lat="45.72216" lon="6.47284">
        <ele>1102</ele>
        <time>2022-07-17T06:39:04Z</time>
      </trkpt>
      <trkpt lat="45.72216" lon="6.47281">
        <ele>1102</ele>
        <time>2022-07-17T06:39:06Z</time>
      </trkpt>
      <trkpt lat="45.72214" lon="6.47279">
        <ele>1102</ele>
        <time>2022-07-17T06:39:08Z</time>
      </trkpt>
      <trkpt lat="45.72212" lon="6.47279">
        <ele>1101</ele>
        <time>2022-07-17T06:39:10Z</time>
      </trkpt>
      <trkpt lat="45.72212" lon="6.47277">
        <ele>1101</ele>
        <time>2022-07-17T06:39:11Z</time>
      </trkpt>
      <trkpt lat="45.72211" lon="6.47275">
        <ele>1101</ele>
        <time>2022-07-17T06:39:12Z</time>
      </trkpt>
      <trkpt lat="45.72211" lon="6.47273">
        <ele>1101</ele>
        <time>2022-07-17T06:39:13Z</time>
      </trkpt>
      <trkpt lat="45.7221" lon="6.47271">
        <ele>1101</ele>
        <time>2022-07-17T06:39:14Z</time>
      </trkpt>
      <trkpt lat="45.7221" lon="6.47269">
        <ele>1101</ele>
        <time>2022-07-17T06:39:15Z</time>
      </trkpt>
      <trkpt lat="45.72209" lon="6.47267">
        <ele>1101</ele>
        <time>2022-07-17T06:39:16Z</time>
      </trkpt>
      <trkpt lat="45.72208" lon="6.47265">
        <ele>1101</ele>
        <time>2022-07-17T06:39:18Z</time>
      </trkpt>
      <trkpt lat="45.72206" lon="6.47261">
        <ele>1100</ele>
        <time>2022-07-17T06:39:19Z</time>
      </trkpt>
      <trkpt lat="45.72205" lon="6.47257">
        <ele>1100</ele>
        <time>2022-07-17T06:39:21Z</time>
      </trkpt>
      <trkpt lat="45.72204" lon="6.47254">
        <ele>1100</ele>
        <time>2022-07-17T06:39:23Z</time>
      </trkpt>
      <trkpt lat="45.72203" lon="6.47251">
        <ele>1099</ele>
        <time>2022-07-17T06:39:25Z</time>
      </trkpt>
      <trkpt lat="45.72202" lon="6.47249">
        <ele>1099</ele>
        <time>2022-07-17T06:39:27Z</time>
      </trkpt>
      <trkpt lat="45.722" lon="6.47246">
        <ele>1099</ele>
        <time>2022-07-17T06:39:30Z</time>
      </trkpt>
      <trkpt lat="45.72198" lon="6.47243">
        <ele>1099</ele>
        <time>2022-07-17T06:39:31Z</time>
      </trkpt>
      <trkpt lat="45.72197" lon="6.47241">
        <ele>1098</ele>
        <time>2022-07-17T06:39:33Z</time>
      </trkpt>
      <trkpt lat="45.72195" lon="6.47238">
        <ele>1098</ele>
        <time>2022-07-17T06:39:35Z</time>
      </trkpt>
      <trkpt lat="45.72193" lon="6.47235">
        <ele>1098</ele>
        <time>2022-07-17T06:39:37Z</time>
      </trkpt>
      <trkpt lat="45.72192" lon="6.47232">
        <ele>1098</ele>
        <time>2022-07-17T06:39:39Z</time>
      </trkpt>
      <trkpt lat="45.7219" lon="6.4723">
        <ele>1097</ele>
        <time>2022-07-17T06:39:42Z</time>
      </trkpt>
      <trkpt lat="45.72188" lon="6.47228">
        <ele>1097</ele>
        <time>2022-07-17T06:39:44Z</time>
      </trkpt>
      <trkpt lat="45.72189" lon="6.47224">
        <ele>1097</ele>
        <time>2022-07-17T06:39:46Z</time>
      </trkpt>
      <trkpt lat="45.72188" lon="6.47221">
        <ele>1097</ele>
        <time>2022-07-17T06:39:49Z</time>
      </trkpt>
      <trkpt lat="45.72185" lon="6.4722">
        <ele>1097</ele>
        <time>2022-07-17T06:39:50Z</time>
      </trkpt>
      <trkpt lat="45.72183" lon="6.47218">
        <ele>1097</ele>
        <time>2022-07-17T06:39:52Z</time>
      </trkpt>
      <trkpt lat="45.72182" lon="6.47216">
        <ele>1097</ele>
        <time>2022-07-17T06:39:55Z</time>
      </trkpt>
      <trkpt lat="45.7218" lon="6.47214">
        <ele>1097</ele>
        <time>2022-07-17T06:39:56Z</time>
      </trkpt>
      <trkpt lat="45.72178" lon="6.47211">
        <ele>1096</ele>
        <time>2022-07-17T06:39:58Z</time>
      </trkpt>
      <trkpt lat="45.72177" lon="6.47208">
        <ele>1096</ele>
        <time>2022-07-17T06:40:00Z</time>
      </trkpt>
      <trkpt lat="45.72176" lon="6.47204">
        <ele>1096</ele>
        <time>2022-07-17T06:40:02Z</time>
      </trkpt>
      <trkpt lat="45.72175" lon="6.47201">
        <ele>1095</ele>
        <time>2022-07-17T06:40:05Z</time>
      </trkpt>
      <trkpt lat="45.72175" lon="6.47197">
        <ele>1095</ele>
        <time>2022-07-17T06:40:07Z</time>
      </trkpt>
      <trkpt lat="45.72174" lon="6.47194">
        <ele>1095</ele>
        <time>2022-07-17T06:40:08Z</time>
      </trkpt>
      <trkpt lat="45.72173" lon="6.4719">
        <ele>1095</ele>
        <time>2022-07-17T06:40:10Z</time>
      </trkpt>
      <trkpt lat="45.72172" lon="6.47188">
        <ele>1094</ele>
        <time>2022-07-17T06:40:12Z</time>
      </trkpt>
      <trkpt lat="45.72172" lon="6.47185">
        <ele>1094</ele>
        <time>2022-07-17T06:40:15Z</time>
      </trkpt>
      <trkpt lat="45.72171" lon="6.47182">
        <ele>1093</ele>
        <time>2022-07-17T06:40:17Z</time>
      </trkpt>
      <trkpt lat="45.7217" lon="6.47179">
        <ele>1093</ele>
        <time>2022-07-17T06:40:18Z</time>
      </trkpt>
      <trkpt lat="45.72169" lon="6.47176">
        <ele>1093</ele>
        <time>2022-07-17T06:40:20Z</time>
      </trkpt>
      <trkpt lat="45.72168" lon="6.47173">
        <ele>1093</ele>
        <time>2022-07-17T06:40:22Z</time>
      </trkpt>
      <trkpt lat="45.72167" lon="6.4717">
        <ele>1093</ele>
        <time>2022-07-17T06:40:24Z</time>
      </trkpt>
      <trkpt lat="45.72166" lon="6.47167">
        <ele>1092</ele>
        <time>2022-07-17T06:40:27Z</time>
      </trkpt>
      <trkpt lat="45.72165" lon="6.47164">
        <ele>1092</ele>
        <time>2022-07-17T06:40:29Z</time>
      </trkpt>
      <trkpt lat="45.72165" lon="6.47161">
        <ele>1092</ele>
        <time>2022-07-17T06:40:30Z</time>
      </trkpt>
      <trkpt lat="45.72164" lon="6.47158">
        <ele>1092</ele>
        <time>2022-07-17T06:40:32Z</time>
      </trkpt>
      <trkpt lat="45.72164" lon="6.47155">
        <ele>1094</ele>
        <time>2022-07-17T06:40:34Z</time>
      </trkpt>
      <trkpt lat="45.72164" lon="6.47152">
        <ele>1093</ele>
        <time>2022-07-17T06:40:37Z</time>
      </trkpt>
      <trkpt lat="45.72162" lon="6.47149">
        <ele>1093</ele>
        <time>2022-07-17T06:40:38Z</time>
      </trkpt>
      <trkpt lat="45.72161" lon="6.47146">
        <ele>1092</ele>
        <time>2022-07-17T06:40:40Z</time>
      </trkpt>
      <trkpt lat="45.72161" lon="6.47143">
        <ele>1092</ele>
        <time>2022-07-17T06:40:42Z</time>
      </trkpt>
      <trkpt lat="45.72161" lon="6.4714">
        <ele>1092</ele>
        <time>2022-07-17T06:40:45Z</time>
      </trkpt>
      <trkpt lat="45.7216" lon="6.47138">
        <ele>1092</ele>
        <time>2022-07-17T06:40:46Z</time>
      </trkpt>
      <trkpt lat="45.72158" lon="6.47135">
        <ele>1091</ele>
        <time>2022-07-17T06:40:48Z</time>
      </trkpt>
      <trkpt lat="45.72157" lon="6.47132">
        <ele>1091</ele>
        <time>2022-07-17T06:40:50Z</time>
      </trkpt>
      <trkpt lat="45.72156" lon="6.47129">
        <ele>1091</ele>
        <time>2022-07-17T06:40:52Z</time>
      </trkpt>
      <trkpt lat="45.72154" lon="6.47127">
        <ele>1090</ele>
        <time>2022-07-17T06:40:55Z</time>
      </trkpt>
      <trkpt lat="45.72151" lon="6.47125">
        <ele>1090</ele>
        <time>2022-07-17T06:40:56Z</time>
      </trkpt>
      <trkpt lat="45.72149" lon="6.47123">
        <ele>1090</ele>
        <time>2022-07-17T06:40:58Z</time>
      </trkpt>
      <trkpt lat="45.72147" lon="6.47121">
        <ele>1090</ele>
        <time>2022-07-17T06:41:00Z</time>
      </trkpt>
      <trkpt lat="45.72146" lon="6.47118">
        <ele>1090</ele>
        <time>2022-07-17T06:41:02Z</time>
      </trkpt>
      <trkpt lat="45.72144" lon="6.47116">
        <ele>1090</ele>
        <time>2022-07-17T06:41:04Z</time>
      </trkpt>
      <trkpt lat="45.72143" lon="6.47113">
        <ele>1090</ele>
        <time>2022-07-17T06:41:06Z</time>
      </trkpt>
      <trkpt lat="45.72143" lon="6.47109">
        <ele>1090</ele>
        <time>2022-07-17T06:41:09Z</time>
      </trkpt>
      <trkpt lat="45.72142" lon="6.47106">
        <ele>1090</ele>
        <time>2022-07-17T06:41:10Z</time>
      </trkpt>
      <trkpt lat="45.72141" lon="6.47103">
        <ele>1090</ele>
        <time>2022-07-17T06:41:12Z</time>
      </trkpt>
      <trkpt lat="45.7214" lon="6.47099">
        <ele>1090</ele>
        <time>2022-07-17T06:41:14Z</time>
      </trkpt>
      <trkpt lat="45.72139" lon="6.47097">
        <ele>1089</ele>
        <time>2022-07-17T06:41:17Z</time>
      </trkpt>
      <trkpt lat="45.72137" lon="6.47093">
        <ele>1088</ele>
        <time>2022-07-17T06:41:18Z</time>
      </trkpt>
      <trkpt lat="45.72136" lon="6.47089">
        <ele>1088</ele>
        <time>2022-07-17T06:41:21Z</time>
      </trkpt>
      <trkpt lat="45.72135" lon="6.47086">
        <ele>1088</ele>
        <time>2022-07-17T06:41:23Z</time>
      </trkpt>
      <trkpt lat="45.72134" lon="6.47084">
        <ele>1088</ele>
        <time>2022-07-17T06:41:24Z</time>
      </trkpt>
      <trkpt lat="45.72132" lon="6.4708">
        <ele>1088</ele>
        <time>2022-07-17T06:41:26Z</time>
      </trkpt>
      <trkpt lat="45.7213" lon="6.47076">
        <ele>1087</ele>
        <time>2022-07-17T06:41:28Z</time>
      </trkpt>
      <trkpt lat="45.72129" lon="6.47073">
        <ele>1087</ele>
        <time>2022-07-17T06:41:30Z</time>
      </trkpt>
      <trkpt lat="45.72127" lon="6.47069">
        <ele>1087</ele>
        <time>2022-07-17T06:41:32Z</time>
      </trkpt>
      <trkpt lat="45.72126" lon="6.47066">
        <ele>1087</ele>
        <time>2022-07-17T06:41:34Z</time>
      </trkpt>
      <trkpt lat="45.72124" lon="6.47062">
        <ele>1086</ele>
        <time>2022-07-17T06:41:36Z</time>
      </trkpt>
      <trkpt lat="45.72123" lon="6.47058">
        <ele>1086</ele>
        <time>2022-07-17T06:41:38Z</time>
      </trkpt>
      <trkpt lat="45.72121" lon="6.47054">
        <ele>1086</ele>
        <time>2022-07-17T06:41:40Z</time>
      </trkpt>
      <trkpt lat="45.72121" lon="6.47052">
        <ele>1085</ele>
        <time>2022-07-17T06:41:42Z</time>
      </trkpt>
      <trkpt lat="45.7212" lon="6.47049">
        <ele>1085</ele>
        <time>2022-07-17T06:41:43Z</time>
      </trkpt>
      <trkpt lat="45.72117" lon="6.47043">
        <ele>1084</ele>
        <time>2022-07-17T06:41:45Z</time>
      </trkpt>
      <trkpt lat="45.72116" lon="6.47039">
        <ele>1084</ele>
        <time>2022-07-17T06:41:47Z</time>
      </trkpt>
      <trkpt lat="45.72114" lon="6.47035">
        <ele>1084</ele>
        <time>2022-07-17T06:41:49Z</time>
      </trkpt>
      <trkpt lat="45.72113" lon="6.47031">
        <ele>1084</ele>
        <time>2022-07-17T06:41:51Z</time>
      </trkpt>
      <trkpt lat="45.72112" lon="6.47026">
        <ele>1084</ele>
        <time>2022-07-17T06:41:53Z</time>
      </trkpt>
      <trkpt lat="45.72111" lon="6.47023">
        <ele>1084</ele>
        <time>2022-07-17T06:41:55Z</time>
      </trkpt>
      <trkpt lat="45.72111" lon="6.4702">
        <ele>1084</ele>
        <time>2022-07-17T06:41:56Z</time>
      </trkpt>
      <trkpt lat="45.7211" lon="6.47017">
        <ele>1084</ele>
        <time>2022-07-17T06:41:57Z</time>
      </trkpt>
      <trkpt lat="45.7211" lon="6.47014">
        <ele>1084</ele>
        <time>2022-07-17T06:41:58Z</time>
      </trkpt>
      <trkpt lat="45.72109" lon="6.47011">
        <ele>1084</ele>
        <time>2022-07-17T06:41:59Z</time>
      </trkpt>
      <trkpt lat="45.72108" lon="6.47007">
        <ele>1083</ele>
        <time>2022-07-17T06:42:02Z</time>
      </trkpt>
      <trkpt lat="45.72107" lon="6.47003">
        <ele>1083</ele>
        <time>2022-07-17T06:42:03Z</time>
      </trkpt>
      <trkpt lat="45.72105" lon="6.47">
        <ele>1082</ele>
        <time>2022-07-17T06:42:05Z</time>
      </trkpt>
      <trkpt lat="45.72103" lon="6.46997">
        <ele>1082</ele>
        <time>2022-07-17T06:42:07Z</time>
      </trkpt>
      <trkpt lat="45.72102" lon="6.46994">
        <ele>1082</ele>
        <time>2022-07-17T06:42:09Z</time>
      </trkpt>
      <trkpt lat="45.72102" lon="6.46991">
        <ele>1081</ele>
        <time>2022-07-17T06:42:11Z</time>
      </trkpt>
      <trkpt lat="45.721" lon="6.46988">
        <ele>1081</ele>
        <time>2022-07-17T06:42:14Z</time>
      </trkpt>
      <trkpt lat="45.72099" lon="6.46985">
        <ele>1081</ele>
        <time>2022-07-17T06:42:16Z</time>
      </trkpt>
      <trkpt lat="45.72098" lon="6.46981">
        <ele>1081</ele>
        <time>2022-07-17T06:42:17Z</time>
      </trkpt>
      <trkpt lat="45.72096" lon="6.46978">
        <ele>1081</ele>
        <time>2022-07-17T06:42:19Z</time>
      </trkpt>
      <trkpt lat="45.72095" lon="6.46975">
        <ele>1081</ele>
        <time>2022-07-17T06:42:21Z</time>
      </trkpt>
      <trkpt lat="45.72093" lon="6.46973">
        <ele>1080</ele>
        <time>2022-07-17T06:42:23Z</time>
      </trkpt>
      <trkpt lat="45.72091" lon="6.46971">
        <ele>1079</ele>
        <time>2022-07-17T06:42:25Z</time>
      </trkpt>
      <trkpt lat="45.72089" lon="6.46969">
        <ele>1079</ele>
        <time>2022-07-17T06:42:28Z</time>
      </trkpt>
      <trkpt lat="45.72087" lon="6.46969">
        <ele>1079</ele>
        <time>2022-07-17T06:42:29Z</time>
      </trkpt>
      <trkpt lat="45.72086" lon="6.4697">
        <ele>1079</ele>
        <time>2022-07-17T06:42:33Z</time>
      </trkpt>
      <trkpt lat="45.72084" lon="6.46971">
        <ele>1079</ele>
        <time>2022-07-17T06:42:34Z</time>
      </trkpt>
      <trkpt lat="45.72082" lon="6.46973">
        <ele>1079</ele>
        <time>2022-07-17T06:42:36Z</time>
      </trkpt>
      <trkpt lat="45.72079" lon="6.46974">
        <ele>1079</ele>
        <time>2022-07-17T06:42:38Z</time>
      </trkpt>
      <trkpt lat="45.72077" lon="6.46976">
        <ele>1078</ele>
        <time>2022-07-17T06:42:40Z</time>
      </trkpt>
      <trkpt lat="45.72075" lon="6.46979">
        <ele>1078</ele>
        <time>2022-07-17T06:42:42Z</time>
      </trkpt>
      <trkpt lat="45.72072" lon="6.46981">
        <ele>1078</ele>
        <time>2022-07-17T06:42:44Z</time>
      </trkpt>
      <trkpt lat="45.7207" lon="6.46985">
        <ele>1077</ele>
        <time>2022-07-17T06:42:47Z</time>
      </trkpt>
      <trkpt lat="45.72068" lon="6.46988">
        <ele>1077</ele>
        <time>2022-07-17T06:42:48Z</time>
      </trkpt>
      <trkpt lat="45.72066" lon="6.46992">
        <ele>1077</ele>
        <time>2022-07-17T06:42:50Z</time>
      </trkpt>
      <trkpt lat="45.72064" lon="6.46995">
        <ele>1076</ele>
        <time>2022-07-17T06:42:52Z</time>
      </trkpt>
      <trkpt lat="45.72061" lon="6.46998">
        <ele>1076</ele>
        <time>2022-07-17T06:42:54Z</time>
      </trkpt>
      <trkpt lat="45.72059" lon="6.47">
        <ele>1076</ele>
        <time>2022-07-17T06:42:57Z</time>
      </trkpt>
      <trkpt lat="45.72057" lon="6.47002">
        <ele>1076</ele>
        <time>2022-07-17T06:42:58Z</time>
      </trkpt>
      <trkpt lat="45.72055" lon="6.47003">
        <ele>1074</ele>
        <time>2022-07-17T06:43:01Z</time>
      </trkpt>
      <trkpt lat="45.72052" lon="6.47004">
        <ele>1075</ele>
        <time>2022-07-17T06:43:02Z</time>
      </trkpt>
      <trkpt lat="45.72049" lon="6.47005">
        <ele>1075</ele>
        <time>2022-07-17T06:43:04Z</time>
      </trkpt>
      <trkpt lat="45.72047" lon="6.47005">
        <ele>1075</ele>
        <time>2022-07-17T06:43:06Z</time>
      </trkpt>
      <trkpt lat="45.72044" lon="6.47004">
        <ele>1074</ele>
        <time>2022-07-17T06:43:08Z</time>
      </trkpt>
      <trkpt lat="45.72041" lon="6.47002">
        <ele>1074</ele>
        <time>2022-07-17T06:43:10Z</time>
      </trkpt>
      <trkpt lat="45.72039" lon="6.47">
        <ele>1074</ele>
        <time>2022-07-17T06:43:12Z</time>
      </trkpt>
      <trkpt lat="45.72037" lon="6.46998">
        <ele>1074</ele>
        <time>2022-07-17T06:43:14Z</time>
      </trkpt>
      <trkpt lat="45.72035" lon="6.46996">
        <ele>1074</ele>
        <time>2022-07-17T06:43:17Z</time>
      </trkpt>
      <trkpt lat="45.72032" lon="6.46993">
        <ele>1074</ele>
        <time>2022-07-17T06:43:18Z</time>
      </trkpt>
      <trkpt lat="45.72029" lon="6.4699">
        <ele>1074</ele>
        <time>2022-07-17T06:43:20Z</time>
      </trkpt>
      <trkpt lat="45.72028" lon="6.46985">
        <ele>1074</ele>
        <time>2022-07-17T06:43:22Z</time>
      </trkpt>
      <trkpt lat="45.72028" lon="6.4698">
        <ele>1074</ele>
        <time>2022-07-17T06:43:25Z</time>
      </trkpt>
      <trkpt lat="45.72028" lon="6.46976">
        <ele>1074</ele>
        <time>2022-07-17T06:43:26Z</time>
      </trkpt>
      <trkpt lat="45.72028" lon="6.46972">
        <ele>1074</ele>
        <time>2022-07-17T06:43:29Z</time>
      </trkpt>
      <trkpt lat="45.72029" lon="6.46968">
        <ele>1074</ele>
        <time>2022-07-17T06:43:30Z</time>
      </trkpt>
      <trkpt lat="45.7203" lon="6.46964">
        <ele>1074</ele>
        <time>2022-07-17T06:43:32Z</time>
      </trkpt>
      <trkpt lat="45.72032" lon="6.46961">
        <ele>1073</ele>
        <time>2022-07-17T06:43:34Z</time>
      </trkpt>
      <trkpt lat="45.72033" lon="6.46957">
        <ele>1073</ele>
        <time>2022-07-17T06:43:37Z</time>
      </trkpt>
      <trkpt lat="45.72034" lon="6.46953">
        <ele>1072</ele>
        <time>2022-07-17T06:43:38Z</time>
      </trkpt>
      <trkpt lat="45.72035" lon="6.4695">
        <ele>1072</ele>
        <time>2022-07-17T06:43:40Z</time>
      </trkpt>
      <trkpt lat="45.72036" lon="6.46948">
        <ele>1072</ele>
        <time>2022-07-17T06:43:41Z</time>
      </trkpt>
      <trkpt lat="45.72038" lon="6.46945">
        <ele>1072</ele>
        <time>2022-07-17T06:43:42Z</time>
      </trkpt>
      <trkpt lat="45.7204" lon="6.46942">
        <ele>1072</ele>
        <time>2022-07-17T06:43:44Z</time>
      </trkpt>
      <trkpt lat="45.72043" lon="6.46939">
        <ele>1072</ele>
        <time>2022-07-17T06:43:46Z</time>
      </trkpt>
      <trkpt lat="45.72045" lon="6.46936">
        <ele>1072</ele>
        <time>2022-07-17T06:43:48Z</time>
      </trkpt>
      <trkpt lat="45.72047" lon="6.46933">
        <ele>1072</ele>
        <time>2022-07-17T06:43:50Z</time>
      </trkpt>
      <trkpt lat="45.72048" lon="6.46929">
        <ele>1071</ele>
        <time>2022-07-17T06:43:53Z</time>
      </trkpt>
      <trkpt lat="45.72049" lon="6.46926">
        <ele>1071</ele>
        <time>2022-07-17T06:43:55Z</time>
      </trkpt>
      <trkpt lat="45.72049" lon="6.46922">
        <ele>1071</ele>
        <time>2022-07-17T06:43:56Z</time>
      </trkpt>
      <trkpt lat="45.72048" lon="6.46919">
        <ele>1070</ele>
        <time>2022-07-17T06:43:58Z</time>
      </trkpt>
      <trkpt lat="45.72045" lon="6.46919">
        <ele>1070</ele>
        <time>2022-07-17T06:44:01Z</time>
      </trkpt>
      <trkpt lat="45.72041" lon="6.46921">
        <ele>1069</ele>
        <time>2022-07-17T06:44:03Z</time>
      </trkpt>
      <trkpt lat="45.72038" lon="6.46924">
        <ele>1069</ele>
        <time>2022-07-17T06:44:05Z</time>
      </trkpt>
      <trkpt lat="45.72037" lon="6.46926">
        <ele>1069</ele>
        <time>2022-07-17T06:44:06Z</time>
      </trkpt>
      <trkpt lat="45.72035" lon="6.46927">
        <ele>1069</ele>
        <time>2022-07-17T06:44:07Z</time>
      </trkpt>
      <trkpt lat="45.72033" lon="6.46931">
        <ele>1069</ele>
        <time>2022-07-17T06:44:09Z</time>
      </trkpt>
      <trkpt lat="45.72031" lon="6.46934">
        <ele>1068</ele>
        <time>2022-07-17T06:44:11Z</time>
      </trkpt>
      <trkpt lat="45.72029" lon="6.46937">
        <ele>1068</ele>
        <time>2022-07-17T06:44:13Z</time>
      </trkpt>
      <trkpt lat="45.72027" lon="6.46939">
        <ele>1067</ele>
        <time>2022-07-17T06:44:15Z</time>
      </trkpt>
      <trkpt lat="45.72024" lon="6.46944">
        <ele>1066</ele>
        <time>2022-07-17T06:44:17Z</time>
      </trkpt>
      <trkpt lat="45.72022" lon="6.46948">
        <ele>1066</ele>
        <time>2022-07-17T06:44:20Z</time>
      </trkpt>
      <trkpt lat="45.7202" lon="6.46952">
        <ele>1066</ele>
        <time>2022-07-17T06:44:21Z</time>
      </trkpt>
      <trkpt lat="45.72018" lon="6.46956">
        <ele>1066</ele>
        <time>2022-07-17T06:44:23Z</time>
      </trkpt>
      <trkpt lat="45.72016" lon="6.4696">
        <ele>1065</ele>
        <time>2022-07-17T06:44:25Z</time>
      </trkpt>
      <trkpt lat="45.72014" lon="6.46964">
        <ele>1064</ele>
        <time>2022-07-17T06:44:27Z</time>
      </trkpt>
      <trkpt lat="45.72012" lon="6.46969">
        <ele>1064</ele>
        <time>2022-07-17T06:44:30Z</time>
      </trkpt>
      <trkpt lat="45.72012" lon="6.46974">
        <ele>1063</ele>
        <time>2022-07-17T06:44:32Z</time>
      </trkpt>
      <trkpt lat="45.72011" lon="6.46979">
        <ele>1063</ele>
        <time>2022-07-17T06:44:33Z</time>
      </trkpt>
      <trkpt lat="45.7201" lon="6.46983">
        <ele>1063</ele>
        <time>2022-07-17T06:44:36Z</time>
      </trkpt>
      <trkpt lat="45.72008" lon="6.46986">
        <ele>1063</ele>
        <time>2022-07-17T06:44:37Z</time>
      </trkpt>
      <trkpt lat="45.72007" lon="6.4699">
        <ele>1062</ele>
        <time>2022-07-17T06:44:39Z</time>
      </trkpt>
      <trkpt lat="45.72006" lon="6.46992">
        <ele>1062</ele>
        <time>2022-07-17T06:44:40Z</time>
      </trkpt>
      <trkpt lat="45.72004" lon="6.46996">
        <ele>1062</ele>
        <time>2022-07-17T06:44:42Z</time>
      </trkpt>
      <trkpt lat="45.72002" lon="6.47">
        <ele>1061</ele>
        <time>2022-07-17T06:44:44Z</time>
      </trkpt>
      <trkpt lat="45.72001" lon="6.47004">
        <ele>1061</ele>
        <time>2022-07-17T06:44:47Z</time>
      </trkpt>
      <trkpt lat="45.72001" lon="6.47008">
        <ele>1061</ele>
        <time>2022-07-17T06:44:48Z</time>
      </trkpt>
      <trkpt lat="45.72001" lon="6.47012">
        <ele>1060</ele>
        <time>2022-07-17T06:44:50Z</time>
      </trkpt>
      <trkpt lat="45.72" lon="6.47017">
        <ele>1059</ele>
        <time>2022-07-17T06:44:53Z</time>
      </trkpt>
      <trkpt lat="45.72" lon="6.47021">
        <ele>1059</ele>
        <time>2022-07-17T06:44:55Z</time>
      </trkpt>
      <trkpt lat="45.71999" lon="6.47025">
        <ele>1059</ele>
        <time>2022-07-17T06:44:56Z</time>
      </trkpt>
      <trkpt lat="45.71999" lon="6.47029">
        <ele>1059</ele>
        <time>2022-07-17T06:44:58Z</time>
      </trkpt>
      <trkpt lat="45.71999" lon="6.47034">
        <ele>1059</ele>
        <time>2022-07-17T06:45:01Z</time>
      </trkpt>
      <trkpt lat="45.72" lon="6.47037">
        <ele>1059</ele>
        <time>2022-07-17T06:45:02Z</time>
      </trkpt>
      <trkpt lat="45.72" lon="6.4704">
        <ele>1058</ele>
        <time>2022-07-17T06:45:04Z</time>
      </trkpt>
      <trkpt lat="45.72001" lon="6.47043">
        <ele>1058</ele>
        <time>2022-07-17T06:45:06Z</time>
      </trkpt>
      <trkpt lat="45.72002" lon="6.47046">
        <ele>1058</ele>
        <time>2022-07-17T06:45:08Z</time>
      </trkpt>
      <trkpt lat="45.72003" lon="6.4705">
        <ele>1057</ele>
        <time>2022-07-17T06:45:10Z</time>
      </trkpt>
      <trkpt lat="45.72004" lon="6.47052">
        <ele>1057</ele>
        <time>2022-07-17T06:45:12Z</time>
      </trkpt>
      <trkpt lat="45.72005" lon="6.47056">
        <ele>1057</ele>
        <time>2022-07-17T06:45:14Z</time>
      </trkpt>
      <trkpt lat="45.72005" lon="6.47059">
        <ele>1057</ele>
        <time>2022-07-17T06:45:19Z</time>
      </trkpt>
      <trkpt lat="45.72003" lon="6.47062">
        <ele>1056</ele>
        <time>2022-07-17T06:45:22Z</time>
      </trkpt>
      <trkpt lat="45.72001" lon="6.47064">
        <ele>1054</ele>
        <time>2022-07-17T06:45:25Z</time>
      </trkpt>
      <trkpt lat="45.71998" lon="6.47063">
        <ele>1054</ele>
        <time>2022-07-17T06:45:27Z</time>
      </trkpt>
      <trkpt lat="45.71995" lon="6.47064">
        <ele>1053</ele>
        <time>2022-07-17T06:45:30Z</time>
      </trkpt>
      <trkpt lat="45.71992" lon="6.47064">
        <ele>1052</ele>
        <time>2022-07-17T06:45:31Z</time>
      </trkpt>
      <trkpt lat="45.71989" lon="6.47065">
        <ele>1051</ele>
        <time>2022-07-17T06:45:33Z</time>
      </trkpt>
      <trkpt lat="45.71987" lon="6.47066">
        <ele>1051</ele>
        <time>2022-07-17T06:45:35Z</time>
      </trkpt>
      <trkpt lat="45.71984" lon="6.47067">
        <ele>1050</ele>
        <time>2022-07-17T06:45:38Z</time>
      </trkpt>
      <trkpt lat="45.71981" lon="6.47069">
        <ele>1050</ele>
        <time>2022-07-17T06:45:39Z</time>
      </trkpt>
      <trkpt lat="45.71979" lon="6.4707">
        <ele>1050</ele>
        <time>2022-07-17T06:45:41Z</time>
      </trkpt>
      <trkpt lat="45.71977" lon="6.47071">
        <ele>1050</ele>
        <time>2022-07-17T06:45:43Z</time>
      </trkpt>
      <trkpt lat="45.71975" lon="6.47072">
        <ele>1050</ele>
        <time>2022-07-17T06:45:45Z</time>
      </trkpt>
      <trkpt lat="45.71972" lon="6.47072">
        <ele>1049</ele>
        <time>2022-07-17T06:45:47Z</time>
      </trkpt>
      <trkpt lat="45.71971" lon="6.47075">
        <ele>1048</ele>
        <time>2022-07-17T06:45:51Z</time>
      </trkpt>
      <trkpt lat="45.7197" lon="6.47077">
        <ele>1047</ele>
        <time>2022-07-17T06:45:53Z</time>
      </trkpt>
      <trkpt lat="45.71967" lon="6.47079">
        <ele>1046</ele>
        <time>2022-07-17T06:45:55Z</time>
      </trkpt>
      <trkpt lat="45.71966" lon="6.47081">
        <ele>1046</ele>
        <time>2022-07-17T06:45:58Z</time>
      </trkpt>
      <trkpt lat="45.71965" lon="6.47084">
        <ele>1046</ele>
        <time>2022-07-17T06:46:00Z</time>
      </trkpt>
      <trkpt lat="45.71964" lon="6.47087">
        <ele>1045</ele>
        <time>2022-07-17T06:46:03Z</time>
      </trkpt>
      <trkpt lat="45.71963" lon="6.4709">
        <ele>1043</ele>
        <time>2022-07-17T06:46:07Z</time>
      </trkpt>
      <trkpt lat="45.71962" lon="6.47093">
        <ele>1042</ele>
        <time>2022-07-17T06:46:10Z</time>
      </trkpt>
      <trkpt lat="45.71961" lon="6.47096">
        <ele>1042</ele>
        <time>2022-07-17T06:46:11Z</time>
      </trkpt>
      <trkpt lat="45.7196" lon="6.47099">
        <ele>1042</ele>
        <time>2022-07-17T06:46:13Z</time>
      </trkpt>
      <trkpt lat="45.71959" lon="6.47103">
        <ele>1042</ele>
        <time>2022-07-17T06:46:15Z</time>
      </trkpt>
      <trkpt lat="45.7196" lon="6.47106">
        <ele>1042</ele>
        <time>2022-07-17T06:46:17Z</time>
      </trkpt>
      <trkpt lat="45.7196" lon="6.4711">
        <ele>1041</ele>
        <time>2022-07-17T06:46:19Z</time>
      </trkpt>
      <trkpt lat="45.71961" lon="6.47114">
        <ele>1041</ele>
        <time>2022-07-17T06:46:20Z</time>
      </trkpt>
      <trkpt lat="45.71962" lon="6.47116">
        <ele>1041</ele>
        <time>2022-07-17T06:46:22Z</time>
      </trkpt>
      <trkpt lat="45.71963" lon="6.47119">
        <ele>1041</ele>
        <time>2022-07-17T06:46:25Z</time>
      </trkpt>
      <trkpt lat="45.71964" lon="6.47122">
        <ele>1040</ele>
        <time>2022-07-17T06:46:27Z</time>
      </trkpt>
      <trkpt lat="45.71965" lon="6.47124">
        <ele>1040</ele>
        <time>2022-07-17T06:46:28Z</time>
      </trkpt>
      <trkpt lat="45.71967" lon="6.47127">
        <ele>1040</ele>
        <time>2022-07-17T06:46:30Z</time>
      </trkpt>
      <trkpt lat="45.71967" lon="6.4713">
        <ele>1040</ele>
        <time>2022-07-17T06:46:32Z</time>
      </trkpt>
      <trkpt lat="45.71966" lon="6.47131">
        <ele>1039</ele>
        <time>2022-07-17T06:46:35Z</time>
      </trkpt>
      <trkpt lat="45.71963" lon="6.47132">
        <ele>1037</ele>
        <time>2022-07-17T06:46:38Z</time>
      </trkpt>
      <trkpt lat="45.7196" lon="6.47132">
        <ele>1037</ele>
        <time>2022-07-17T06:46:40Z</time>
      </trkpt>
      <trkpt lat="45.71959" lon="6.47134">
        <ele>1037</ele>
        <time>2022-07-17T06:46:43Z</time>
      </trkpt>
      <trkpt lat="45.71956" lon="6.47137">
        <ele>1036</ele>
        <time>2022-07-17T06:46:46Z</time>
      </trkpt>
      <trkpt lat="45.71954" lon="6.47138">
        <ele>1033</ele>
        <time>2022-07-17T06:46:48Z</time>
      </trkpt>
      <trkpt lat="45.71952" lon="6.47138">
        <ele>1033</ele>
        <time>2022-07-17T06:46:49Z</time>
      </trkpt>
      <trkpt lat="45.7195" lon="6.47139">
        <ele>1033</ele>
        <time>2022-07-17T06:46:51Z</time>
      </trkpt>
      <trkpt lat="45.71948" lon="6.4714">
        <ele>1033</ele>
        <time>2022-07-17T06:46:53Z</time>
      </trkpt>
      <trkpt lat="45.71946" lon="6.47142">
        <ele>1030</ele>
        <time>2022-07-17T06:46:58Z</time>
      </trkpt>
      <trkpt lat="45.71945" lon="6.47144">
        <ele>1030</ele>
        <time>2022-07-17T06:47:00Z</time>
      </trkpt>
      <trkpt lat="45.71945" lon="6.47147">
        <ele>1029</ele>
        <time>2022-07-17T06:47:03Z</time>
      </trkpt>
      <trkpt lat="45.71946" lon="6.47151">
        <ele>1028</ele>
        <time>2022-07-17T06:47:06Z</time>
      </trkpt>
      <trkpt lat="45.71946" lon="6.47154">
        <ele>1027</ele>
        <time>2022-07-17T06:47:08Z</time>
      </trkpt>
      <trkpt lat="45.71946" lon="6.47158">
        <ele>1027</ele>
        <time>2022-07-17T06:47:11Z</time>
      </trkpt>
      <trkpt lat="45.71945" lon="6.47161">
        <ele>1027</ele>
        <time>2022-07-17T06:47:12Z</time>
      </trkpt>
      <trkpt lat="45.71944" lon="6.47164">
        <ele>1026</ele>
        <time>2022-07-17T06:47:14Z</time>
      </trkpt>
      <trkpt lat="45.71943" lon="6.47167">
        <ele>1025</ele>
        <time>2022-07-17T06:47:16Z</time>
      </trkpt>
      <trkpt lat="45.71941" lon="6.47173">
        <ele>1025</ele>
        <time>2022-07-17T06:47:19Z</time>
      </trkpt>
      <trkpt lat="45.7194" lon="6.47176">
        <ele>1023</ele>
        <time>2022-07-17T06:47:23Z</time>
      </trkpt>
      <trkpt lat="45.71939" lon="6.47179">
        <ele>1023</ele>
        <time>2022-07-17T06:47:25Z</time>
      </trkpt>
      <trkpt lat="45.71938" lon="6.47182">
        <ele>1022</ele>
        <time>2022-07-17T06:47:27Z</time>
      </trkpt>
      <trkpt lat="45.71937" lon="6.47184">
        <ele>1022</ele>
        <time>2022-07-17T06:47:29Z</time>
      </trkpt>
      <trkpt lat="45.71936" lon="6.47187">
        <ele>1021</ele>
        <time>2022-07-17T06:47:31Z</time>
      </trkpt>
      <trkpt lat="45.71935" lon="6.4719">
        <ele>1021</ele>
        <time>2022-07-17T06:47:33Z</time>
      </trkpt>
      <trkpt lat="45.71934" lon="6.47194">
        <ele>1020</ele>
        <time>2022-07-17T06:47:36Z</time>
      </trkpt>
      <trkpt lat="45.71934" lon="6.47199">
        <ele>1020</ele>
        <time>2022-07-17T06:47:37Z</time>
      </trkpt>
      <trkpt lat="45.71933" lon="6.47201">
        <ele>1019</ele>
        <time>2022-07-17T06:47:39Z</time>
      </trkpt>
      <trkpt lat="45.71933" lon="6.47202">
        <ele>1019</ele>
        <time>2022-07-17T06:47:40Z</time>
      </trkpt>
      <trkpt lat="45.71932" lon="6.47204">
        <ele>1018</ele>
        <time>2022-07-17T06:47:41Z</time>
      </trkpt>
      <trkpt lat="45.71931" lon="6.47206">
        <ele>1018</ele>
        <time>2022-07-17T06:47:42Z</time>
      </trkpt>
      <trkpt lat="45.71931" lon="6.47207">
        <ele>1018</ele>
        <time>2022-07-17T06:47:43Z</time>
      </trkpt>
      <trkpt lat="45.7193" lon="6.4721">
        <ele>1017</ele>
        <time>2022-07-17T06:47:44Z</time>
      </trkpt>
      <trkpt lat="45.71928" lon="6.47214">
        <ele>1017</ele>
        <time>2022-07-17T06:47:46Z</time>
      </trkpt>
      <trkpt lat="45.71926" lon="6.47216">
        <ele>1017</ele>
        <time>2022-07-17T06:47:48Z</time>
      </trkpt>
      <trkpt lat="45.71925" lon="6.47218">
        <ele>1017</ele>
        <time>2022-07-17T06:47:49Z</time>
      </trkpt>
      <trkpt lat="45.71924" lon="6.4722">
        <ele>1016</ele>
        <time>2022-07-17T06:47:50Z</time>
      </trkpt>
      <trkpt lat="45.71923" lon="6.47223">
        <ele>1016</ele>
        <time>2022-07-17T06:47:51Z</time>
      </trkpt>
      <trkpt lat="45.71922" lon="6.47225">
        <ele>1015</ele>
        <time>2022-07-17T06:47:52Z</time>
      </trkpt>
      <trkpt lat="45.71921" lon="6.47226">
        <ele>1015</ele>
        <time>2022-07-17T06:47:53Z</time>
      </trkpt>
      <trkpt lat="45.71919" lon="6.47228">
        <ele>1015</ele>
        <time>2022-07-17T06:47:54Z</time>
      </trkpt>
      <trkpt lat="45.71918" lon="6.47229">
        <ele>1015</ele>
        <time>2022-07-17T06:47:55Z</time>
      </trkpt>
      <trkpt lat="45.71917" lon="6.4723">
        <ele>1015</ele>
        <time>2022-07-17T06:47:56Z</time>
      </trkpt>
      <trkpt lat="45.71915" lon="6.47232">
        <ele>1015</ele>
        <time>2022-07-17T06:47:57Z</time>
      </trkpt>
      <trkpt lat="45.71914" lon="6.47233">
        <ele>1015</ele>
        <time>2022-07-17T06:47:58Z</time>
      </trkpt>
      <trkpt lat="45.71913" lon="6.47235">
        <ele>1015</ele>
        <time>2022-07-17T06:47:59Z</time>
      </trkpt>
      <trkpt lat="45.71911" lon="6.47236">
        <ele>1015</ele>
        <time>2022-07-17T06:48:00Z</time>
      </trkpt>
      <trkpt lat="45.7191" lon="6.47237">
        <ele>1015</ele>
        <time>2022-07-17T06:48:01Z</time>
      </trkpt>
      <trkpt lat="45.71909" lon="6.47238">
        <ele>1015</ele>
        <time>2022-07-17T06:48:02Z</time>
      </trkpt>
      <trkpt lat="45.71908" lon="6.4724">
        <ele>1015</ele>
        <time>2022-07-17T06:48:03Z</time>
      </trkpt>
      <trkpt lat="45.71906" lon="6.47241">
        <ele>1015</ele>
        <time>2022-07-17T06:48:04Z</time>
      </trkpt>
      <trkpt lat="45.71905" lon="6.47242">
        <ele>1015</ele>
        <time>2022-07-17T06:48:05Z</time>
      </trkpt>
      <trkpt lat="45.71904" lon="6.47243">
        <ele>1015</ele>
        <time>2022-07-17T06:48:06Z</time>
      </trkpt>
      <trkpt lat="45.71902" lon="6.47244">
        <ele>1015</ele>
        <time>2022-07-17T06:48:07Z</time>
      </trkpt>
      <trkpt lat="45.719" lon="6.47246">
        <ele>1015</ele>
        <time>2022-07-17T06:48:09Z</time>
      </trkpt>
      <trkpt lat="45.71899" lon="6.47246">
        <ele>1015</ele>
        <time>2022-07-17T06:48:10Z</time>
      </trkpt>
      <trkpt lat="45.71898" lon="6.47247">
        <ele>1014</ele>
        <time>2022-07-17T06:48:11Z</time>
      </trkpt>
      <trkpt lat="45.71897" lon="6.47248">
        <ele>1014</ele>
        <time>2022-07-17T06:48:12Z</time>
      </trkpt>
      <trkpt lat="45.71896" lon="6.47248">
        <ele>1013</ele>
        <time>2022-07-17T06:48:13Z</time>
      </trkpt>
      <trkpt lat="45.71895" lon="6.47249">
        <ele>1013</ele>
        <time>2022-07-17T06:48:14Z</time>
      </trkpt>
      <trkpt lat="45.71894" lon="6.4725">
        <ele>1013</ele>
        <time>2022-07-17T06:48:15Z</time>
      </trkpt>
      <trkpt lat="45.71893" lon="6.4725">
        <ele>1012</ele>
        <time>2022-07-17T06:48:16Z</time>
      </trkpt>
      <trkpt lat="45.71891" lon="6.47253">
        <ele>1012</ele>
        <time>2022-07-17T06:48:18Z</time>
      </trkpt>
      <trkpt lat="45.71889" lon="6.47255">
        <ele>1012</ele>
        <time>2022-07-17T06:48:19Z</time>
      </trkpt>
      <trkpt lat="45.71887" lon="6.47257">
        <ele>1012</ele>
        <time>2022-07-17T06:48:22Z</time>
      </trkpt>
      <trkpt lat="45.71886" lon="6.47259">
        <ele>1011</ele>
        <time>2022-07-17T06:48:24Z</time>
      </trkpt>
      <trkpt lat="45.71885" lon="6.47262">
        <ele>1010</ele>
        <time>2022-07-17T06:48:26Z</time>
      </trkpt>
      <trkpt lat="45.71884" lon="6.47265">
        <ele>1009</ele>
        <time>2022-07-17T06:48:29Z</time>
      </trkpt>
      <trkpt lat="45.71884" lon="6.47268">
        <ele>1008</ele>
        <time>2022-07-17T06:48:32Z</time>
      </trkpt>
      <trkpt lat="45.71882" lon="6.47268">
        <ele>1007</ele>
        <time>2022-07-17T06:48:36Z</time>
      </trkpt>
      <trkpt lat="45.71884" lon="6.47268">
        <ele>1004</ele>
        <time>2022-07-17T06:48:46Z</time>
      </trkpt>
      <trkpt lat="45.71885" lon="6.4727">
        <ele>1003</ele>
        <time>2022-07-17T06:48:48Z</time>
      </trkpt>
      <trkpt lat="45.71885" lon="6.47271">
        <ele>1003</ele>
        <time>2022-07-17T06:48:50Z</time>
      </trkpt>
      <trkpt lat="45.71884" lon="6.47273">
        <ele>1003</ele>
        <time>2022-07-17T06:48:51Z</time>
      </trkpt>
      <trkpt lat="45.71884" lon="6.47274">
        <ele>1002</ele>
        <time>2022-07-17T06:48:52Z</time>
      </trkpt>
      <trkpt lat="45.71883" lon="6.47276">
        <ele>1002</ele>
        <time>2022-07-17T06:48:53Z</time>
      </trkpt>
      <trkpt lat="45.71883" lon="6.47277">
        <ele>1001</ele>
        <time>2022-07-17T06:48:54Z</time>
      </trkpt>
      <trkpt lat="45.71882" lon="6.47279">
        <ele>1001</ele>
        <time>2022-07-17T06:48:55Z</time>
      </trkpt>
      <trkpt lat="45.71882" lon="6.4728">
        <ele>1001</ele>
        <time>2022-07-17T06:48:56Z</time>
      </trkpt>
      <trkpt lat="45.71881" lon="6.47282">
        <ele>1000</ele>
        <time>2022-07-17T06:48:57Z</time>
      </trkpt>
      <trkpt lat="45.71881" lon="6.47283">
        <ele>1000</ele>
        <time>2022-07-17T06:48:58Z</time>
      </trkpt>
      <trkpt lat="45.7188" lon="6.47285">
        <ele>1000</ele>
        <time>2022-07-17T06:48:59Z</time>
      </trkpt>
      <trkpt lat="45.71879" lon="6.47286">
        <ele>1000</ele>
        <time>2022-07-17T06:49:00Z</time>
      </trkpt>
      <trkpt lat="45.71878" lon="6.47288">
        <ele>999</ele>
        <time>2022-07-17T06:49:01Z</time>
      </trkpt>
      <trkpt lat="45.71878" lon="6.47289">
        <ele>999</ele>
        <time>2022-07-17T06:49:02Z</time>
      </trkpt>
      <trkpt lat="45.71877" lon="6.47291">
        <ele>999</ele>
        <time>2022-07-17T06:49:03Z</time>
      </trkpt>
      <trkpt lat="45.71876" lon="6.47292">
        <ele>999</ele>
        <time>2022-07-17T06:49:04Z</time>
      </trkpt>
      <trkpt lat="45.71875" lon="6.47292">
        <ele>999</ele>
        <time>2022-07-17T06:49:05Z</time>
      </trkpt>
      <trkpt lat="45.71874" lon="6.47293">
        <ele>998</ele>
        <time>2022-07-17T06:49:07Z</time>
      </trkpt>
      <trkpt lat="45.71873" lon="6.47293">
        <ele>998</ele>
        <time>2022-07-17T06:49:08Z</time>
      </trkpt>
      <trkpt lat="45.71872" lon="6.47293">
        <ele>997</ele>
        <time>2022-07-17T06:49:09Z</time>
      </trkpt>
      <trkpt lat="45.71871" lon="6.47293">
        <ele>997</ele>
        <time>2022-07-17T06:49:10Z</time>
      </trkpt>
      <trkpt lat="45.7187" lon="6.47294">
        <ele>996</ele>
        <time>2022-07-17T06:49:14Z</time>
      </trkpt>
      <trkpt lat="45.71868" lon="6.47296">
        <ele>995</ele>
        <time>2022-07-17T06:49:23Z</time>
      </trkpt>
      <trkpt lat="45.71868" lon="6.47299">
        <ele>993</ele>
        <time>2022-07-17T06:49:29Z</time>
      </trkpt>
      <trkpt lat="45.71867" lon="6.47302">
        <ele>993</ele>
        <time>2022-07-17T06:49:31Z</time>
      </trkpt>
      <trkpt lat="45.71865" lon="6.47303">
        <ele>993</ele>
        <time>2022-07-17T06:49:33Z</time>
      </trkpt>
      <trkpt lat="45.71863" lon="6.47304">
        <ele>992</ele>
        <time>2022-07-17T06:49:35Z</time>
      </trkpt>
      <trkpt lat="45.7186" lon="6.47305">
        <ele>992</ele>
        <time>2022-07-17T06:49:38Z</time>
      </trkpt>
      <trkpt lat="45.71858" lon="6.47306">
        <ele>991</ele>
        <time>2022-07-17T06:49:40Z</time>
      </trkpt>
      <trkpt lat="45.71857" lon="6.47309">
        <ele>991</ele>
        <time>2022-07-17T06:49:41Z</time>
      </trkpt>
      <trkpt lat="45.71855" lon="6.47308">
        <ele>991</ele>
        <time>2022-07-17T06:49:49Z</time>
      </trkpt>
      <trkpt lat="45.71855" lon="6.47308">
        <ele>991</ele>
        <time>2022-07-17T06:49:58Z</time>
      </trkpt>
      <trkpt lat="45.71854" lon="6.47306">
        <ele>991</ele>
        <time>2022-07-17T06:50:01Z</time>
      </trkpt>
      <trkpt lat="45.71852" lon="6.47305">
        <ele>991</ele>
        <time>2022-07-17T06:50:13Z</time>
      </trkpt>
      <trkpt lat="45.71851" lon="6.47302">
        <ele>991</ele>
        <time>2022-07-17T06:50:16Z</time>
      </trkpt>
      <trkpt lat="45.71849" lon="6.473">
        <ele>991</ele>
        <time>2022-07-17T06:50:17Z</time>
      </trkpt>
      <trkpt lat="45.71844" lon="6.47297">
        <ele>990</ele>
        <time>2022-07-17T06:50:20Z</time>
      </trkpt>
      <trkpt lat="45.7184" lon="6.47296">
        <ele>990</ele>
        <time>2022-07-17T06:50:22Z</time>
      </trkpt>
      <trkpt lat="45.71837" lon="6.47295">
        <ele>990</ele>
        <time>2022-07-17T06:50:24Z</time>
      </trkpt>
      <trkpt lat="45.71834" lon="6.47296">
        <ele>989</ele>
        <time>2022-07-17T06:50:26Z</time>
      </trkpt>
      <trkpt lat="45.71831" lon="6.47297">
        <ele>989</ele>
        <time>2022-07-17T06:50:27Z</time>
      </trkpt>
      <trkpt lat="45.7183" lon="6.47299">
        <ele>989</ele>
        <time>2022-07-17T06:50:28Z</time>
      </trkpt>
      <trkpt lat="45.71828" lon="6.47302">
        <ele>989</ele>
        <time>2022-07-17T06:50:31Z</time>
      </trkpt>
      <trkpt lat="45.71827" lon="6.47305">
        <ele>989</ele>
        <time>2022-07-17T06:50:32Z</time>
      </trkpt>
      <trkpt lat="45.71826" lon="6.47308">
        <ele>988</ele>
        <time>2022-07-17T06:50:35Z</time>
      </trkpt>
      <trkpt lat="45.71827" lon="6.47311">
        <ele>988</ele>
        <time>2022-07-17T06:50:37Z</time>
      </trkpt>
      <trkpt lat="45.71827" lon="6.47314">
        <ele>988</ele>
        <time>2022-07-17T06:50:38Z</time>
      </trkpt>
      <trkpt lat="45.71828" lon="6.47317">
        <ele>988</ele>
        <time>2022-07-17T06:50:42Z</time>
      </trkpt>
      <trkpt lat="45.71828" lon="6.4732">
        <ele>988</ele>
        <time>2022-07-17T06:50:46Z</time>
      </trkpt>
      <trkpt lat="45.71827" lon="6.47323">
        <ele>987</ele>
        <time>2022-07-17T06:50:50Z</time>
      </trkpt>
      <trkpt lat="45.71828" lon="6.47326">
        <ele>985</ele>
        <time>2022-07-17T06:50:55Z</time>
      </trkpt>
      <trkpt lat="45.7183" lon="6.47327">
        <ele>985</ele>
        <time>2022-07-17T06:50:58Z</time>
      </trkpt>
      <trkpt lat="45.71831" lon="6.47331">
        <ele>984</ele>
        <time>2022-07-17T06:51:01Z</time>
      </trkpt>
      <trkpt lat="45.71831" lon="6.47334">
        <ele>984</ele>
        <time>2022-07-17T06:51:03Z</time>
      </trkpt>
      <trkpt lat="45.71831" lon="6.47338">
        <ele>983</ele>
        <time>2022-07-17T06:51:06Z</time>
      </trkpt>
      <trkpt lat="45.71831" lon="6.47341">
        <ele>983</ele>
        <time>2022-07-17T06:51:08Z</time>
      </trkpt>
      <trkpt lat="45.7183" lon="6.47344">
        <ele>982</ele>
        <time>2022-07-17T06:51:09Z</time>
      </trkpt>
      <trkpt lat="45.71829" lon="6.47348">
        <ele>981</ele>
        <time>2022-07-17T06:51:13Z</time>
      </trkpt>
      <trkpt lat="45.71827" lon="6.4735">
        <ele>980</ele>
        <time>2022-07-17T06:51:15Z</time>
      </trkpt>
      <trkpt lat="45.71827" lon="6.47353">
        <ele>980</ele>
        <time>2022-07-17T06:51:16Z</time>
      </trkpt>
      <trkpt lat="45.71826" lon="6.47358">
        <ele>980</ele>
        <time>2022-07-17T06:51:18Z</time>
      </trkpt>
      <trkpt lat="45.71823" lon="6.4736">
        <ele>979</ele>
        <time>2022-07-17T06:51:20Z</time>
      </trkpt>
      <trkpt lat="45.71821" lon="6.4736">
        <ele>978</ele>
        <time>2022-07-17T06:51:22Z</time>
      </trkpt>
      <trkpt lat="45.7182" lon="6.47358">
        <ele>978</ele>
        <time>2022-07-17T06:51:24Z</time>
      </trkpt>
      <trkpt lat="45.7182" lon="6.47354">
        <ele>978</ele>
        <time>2022-07-17T06:51:28Z</time>
      </trkpt>
      <trkpt lat="45.71819" lon="6.47351">
        <ele>977</ele>
        <time>2022-07-17T06:51:29Z</time>
      </trkpt>
      <trkpt lat="45.71818" lon="6.47348">
        <ele>977</ele>
        <time>2022-07-17T06:51:32Z</time>
      </trkpt>
      <trkpt lat="45.71816" lon="6.47347">
        <ele>977</ele>
        <time>2022-07-17T06:51:33Z</time>
      </trkpt>
      <trkpt lat="45.71814" lon="6.47345">
        <ele>977</ele>
        <time>2022-07-17T06:51:35Z</time>
      </trkpt>
      <trkpt lat="45.71812" lon="6.47343">
        <ele>977</ele>
        <time>2022-07-17T06:51:37Z</time>
      </trkpt>
      <trkpt lat="45.71811" lon="6.47341">
        <ele>977</ele>
        <time>2022-07-17T06:51:39Z</time>
      </trkpt>
      <trkpt lat="45.71809" lon="6.47338">
        <ele>977</ele>
        <time>2022-07-17T06:51:41Z</time>
      </trkpt>
      <trkpt lat="45.71808" lon="6.47335">
        <ele>977</ele>
        <time>2022-07-17T06:51:44Z</time>
      </trkpt>
      <trkpt lat="45.71807" lon="6.47332">
        <ele>977</ele>
        <time>2022-07-17T06:51:45Z</time>
      </trkpt>
      <trkpt lat="45.71806" lon="6.47328">
        <ele>977</ele>
        <time>2022-07-17T06:51:47Z</time>
      </trkpt>
      <trkpt lat="45.71805" lon="6.47324">
        <ele>977</ele>
        <time>2022-07-17T06:51:50Z</time>
      </trkpt>
      <trkpt lat="45.71805" lon="6.4732">
        <ele>976</ele>
        <time>2022-07-17T06:51:52Z</time>
      </trkpt>
      <trkpt lat="45.71805" lon="6.47316">
        <ele>976</ele>
        <time>2022-07-17T06:51:53Z</time>
      </trkpt>
      <trkpt lat="45.71805" lon="6.47313">
        <ele>976</ele>
        <time>2022-07-17T06:51:55Z</time>
      </trkpt>
      <trkpt lat="45.71806" lon="6.4731">
        <ele>976</ele>
        <time>2022-07-17T06:51:58Z</time>
      </trkpt>
      <trkpt lat="45.71806" lon="6.47307">
        <ele>976</ele>
        <time>2022-07-17T06:52:00Z</time>
      </trkpt>
      <trkpt lat="45.71806" lon="6.47304">
        <ele>976</ele>
        <time>2022-07-17T06:52:01Z</time>
      </trkpt>
      <trkpt lat="45.71806" lon="6.47301">
        <ele>975</ele>
        <time>2022-07-17T06:52:03Z</time>
      </trkpt>
      <trkpt lat="45.71806" lon="6.47298">
        <ele>975</ele>
        <time>2022-07-17T06:52:05Z</time>
      </trkpt>
      <trkpt lat="45.71805" lon="6.47295">
        <ele>974</ele>
        <time>2022-07-17T06:52:07Z</time>
      </trkpt>
      <trkpt lat="45.71805" lon="6.47292">
        <ele>973</ele>
        <time>2022-07-17T06:52:10Z</time>
      </trkpt>
      <trkpt lat="45.71806" lon="6.47287">
        <ele>972</ele>
        <time>2022-07-17T06:52:11Z</time>
      </trkpt>
      <trkpt lat="45.71806" lon="6.47283">
        <ele>972</ele>
        <time>2022-07-17T06:52:13Z</time>
      </trkpt>
      <trkpt lat="45.71806" lon="6.47279">
        <ele>972</ele>
        <time>2022-07-17T06:52:15Z</time>
      </trkpt>
      <trkpt lat="45.71807" lon="6.47274">
        <ele>972</ele>
        <time>2022-07-17T06:52:18Z</time>
      </trkpt>
      <trkpt lat="45.71808" lon="6.4727">
        <ele>972</ele>
        <time>2022-07-17T06:52:19Z</time>
      </trkpt>
      <trkpt lat="45.71809" lon="6.47265">
        <ele>972</ele>
        <time>2022-07-17T06:52:21Z</time>
      </trkpt>
      <trkpt lat="45.71809" lon="6.47261">
        <ele>972</ele>
        <time>2022-07-17T06:52:23Z</time>
      </trkpt>
      <trkpt lat="45.71809" lon="6.47258">
        <ele>972</ele>
        <time>2022-07-17T06:52:25Z</time>
      </trkpt>
      <trkpt lat="45.7181" lon="6.47254">
        <ele>972</ele>
        <time>2022-07-17T06:52:28Z</time>
      </trkpt>
      <trkpt lat="45.7181" lon="6.4725">
        <ele>971</ele>
        <time>2022-07-17T06:52:29Z</time>
      </trkpt>
      <trkpt lat="45.7181" lon="6.47246">
        <ele>970</ele>
        <time>2022-07-17T06:52:31Z</time>
      </trkpt>
      <trkpt lat="45.71809" lon="6.47243">
        <ele>970</ele>
        <time>2022-07-17T06:52:33Z</time>
      </trkpt>
      <trkpt lat="45.71809" lon="6.47239">
        <ele>970</ele>
        <time>2022-07-17T06:52:35Z</time>
      </trkpt>
      <trkpt lat="45.7181" lon="6.47237">
        <ele>970</ele>
        <time>2022-07-17T06:52:37Z</time>
      </trkpt>
      <trkpt lat="45.7181" lon="6.47233">
        <ele>969</ele>
        <time>2022-07-17T06:52:40Z</time>
      </trkpt>
      <trkpt lat="45.7181" lon="6.47231">
        <ele>969</ele>
        <time>2022-07-17T06:52:41Z</time>
      </trkpt>
      <trkpt lat="45.7181" lon="6.47229">
        <ele>969</ele>
        <time>2022-07-17T06:52:42Z</time>
      </trkpt>
      <trkpt lat="45.7181" lon="6.47227">
        <ele>968</ele>
        <time>2022-07-17T06:52:43Z</time>
      </trkpt>
      <trkpt lat="45.7181" lon="6.47223">
        <ele>968</ele>
        <time>2022-07-17T06:52:44Z</time>
      </trkpt>
      <trkpt lat="45.71811" lon="6.47219">
        <ele>967</ele>
        <time>2022-07-17T06:52:47Z</time>
      </trkpt>
      <trkpt lat="45.71812" lon="6.47215">
        <ele>967</ele>
        <time>2022-07-17T06:52:48Z</time>
      </trkpt>
      <trkpt lat="45.71812" lon="6.47211">
        <ele>967</ele>
        <time>2022-07-17T06:52:50Z</time>
      </trkpt>
      <trkpt lat="45.71813" lon="6.47208">
        <ele>966</ele>
        <time>2022-07-17T06:52:52Z</time>
      </trkpt>
      <trkpt lat="45.71813" lon="6.47205">
        <ele>965</ele>
        <time>2022-07-17T06:52:55Z</time>
      </trkpt>
      <trkpt lat="45.71812" lon="6.47201">
        <ele>964</ele>
        <time>2022-07-17T06:52:57Z</time>
      </trkpt>
      <trkpt lat="45.71811" lon="6.47198">
        <ele>964</ele>
        <time>2022-07-17T06:52:58Z</time>
      </trkpt>
      <trkpt lat="45.71812" lon="6.47195">
        <ele>964</ele>
        <time>2022-07-17T06:53:01Z</time>
      </trkpt>
      <trkpt lat="45.71812" lon="6.47193">
        <ele>964</ele>
        <time>2022-07-17T06:53:02Z</time>
      </trkpt>
      <trkpt lat="45.71812" lon="6.47192">
        <ele>964</ele>
        <time>2022-07-17T06:53:03Z</time>
      </trkpt>
      <trkpt lat="45.71813" lon="6.4719">
        <ele>964</ele>
        <time>2022-07-17T06:53:04Z</time>
      </trkpt>
      <trkpt lat="45.71813" lon="6.47189">
        <ele>964</ele>
        <time>2022-07-17T06:53:06Z</time>
      </trkpt>
      <trkpt lat="45.71813" lon="6.47188">
        <ele>963</ele>
        <time>2022-07-17T06:53:07Z</time>
      </trkpt>
      <trkpt lat="45.71815" lon="6.47181">
        <ele>963</ele>
        <time>2022-07-17T06:53:08Z</time>
      </trkpt>
      <trkpt lat="45.71815" lon="6.47177">
        <ele>963</ele>
        <time>2022-07-17T06:53:09Z</time>
      </trkpt>
      <trkpt lat="45.71813" lon="6.47173">
        <ele>963</ele>
        <time>2022-07-17T06:53:10Z</time>
      </trkpt>
      <trkpt lat="45.71812" lon="6.47171">
        <ele>963</ele>
        <time>2022-07-17T06:53:11Z</time>
      </trkpt>
      <trkpt lat="45.71811" lon="6.4717">
        <ele>962</ele>
        <time>2022-07-17T06:53:13Z</time>
      </trkpt>
      <trkpt lat="45.7181" lon="6.47168">
        <ele>961</ele>
        <time>2022-07-17T06:53:14Z</time>
      </trkpt>
      <trkpt lat="45.71808" lon="6.47167">
        <ele>961</ele>
        <time>2022-07-17T06:53:15Z</time>
      </trkpt>
      <trkpt lat="45.7181" lon="6.47152">
        <ele>960</ele>
        <time>2022-07-17T06:53:21Z</time>
      </trkpt>
      <trkpt lat="45.71811" lon="6.47148">
        <ele>959</ele>
        <time>2022-07-17T06:53:24Z</time>
      </trkpt>
      <trkpt lat="45.71812" lon="6.47144">
        <ele>959</ele>
        <time>2022-07-17T06:53:26Z</time>
      </trkpt>
      <trkpt lat="45.71812" lon="6.4714">
        <ele>958</ele>
        <time>2022-07-17T06:53:27Z</time>
      </trkpt>
      <trkpt lat="45.71812" lon="6.47135">
        <ele>958</ele>
        <time>2022-07-17T06:53:30Z</time>
      </trkpt>
      <trkpt lat="45.71811" lon="6.47132">
        <ele>958</ele>
        <time>2022-07-17T06:53:33Z</time>
      </trkpt>
      <trkpt lat="45.71811" lon="6.47129">
        <ele>958</ele>
        <time>2022-07-17T06:53:34Z</time>
      </trkpt>
      <trkpt lat="45.71811" lon="6.47128">
        <ele>958</ele>
        <time>2022-07-17T06:53:36Z</time>
      </trkpt>
      <trkpt lat="45.71811" lon="6.47127">
        <ele>958</ele>
        <time>2022-07-17T06:53:37Z</time>
      </trkpt>
      <trkpt lat="45.7181" lon="6.47126">
        <ele>958</ele>
        <time>2022-07-17T06:53:38Z</time>
      </trkpt>
      <trkpt lat="45.7181" lon="6.47125">
        <ele>958</ele>
        <time>2022-07-17T06:53:39Z</time>
      </trkpt>
      <trkpt lat="45.7181" lon="6.47124">
        <ele>957</ele>
        <time>2022-07-17T06:53:40Z</time>
      </trkpt>
      <trkpt lat="45.7181" lon="6.47123">
        <ele>957</ele>
        <time>2022-07-17T06:53:42Z</time>
      </trkpt>
      <trkpt lat="45.7181" lon="6.47122">
        <ele>956</ele>
        <time>2022-07-17T06:53:43Z</time>
      </trkpt>
      <trkpt lat="45.7181" lon="6.47121">
        <ele>956</ele>
        <time>2022-07-17T06:53:44Z</time>
      </trkpt>
      <trkpt lat="45.71809" lon="6.47111">
        <ele>956</ele>
        <time>2022-07-17T06:53:45Z</time>
      </trkpt>
      <trkpt lat="45.7181" lon="6.47109">
        <ele>956</ele>
        <time>2022-07-17T06:53:46Z</time>
      </trkpt>
      <trkpt lat="45.7181" lon="6.47107">
        <ele>956</ele>
        <time>2022-07-17T06:53:47Z</time>
      </trkpt>
      <trkpt lat="45.7181" lon="6.47104">
        <ele>956</ele>
        <time>2022-07-17T06:53:48Z</time>
      </trkpt>
      <trkpt lat="45.7181" lon="6.47102">
        <ele>956</ele>
        <time>2022-07-17T06:53:49Z</time>
      </trkpt>
      <trkpt lat="45.71811" lon="6.471">
        <ele>956</ele>
        <time>2022-07-17T06:53:50Z</time>
      </trkpt>
      <trkpt lat="45.71809" lon="6.47085">
        <ele>953</ele>
        <time>2022-07-17T06:53:56Z</time>
      </trkpt>
      <trkpt lat="45.71808" lon="6.47082">
        <ele>953</ele>
        <time>2022-07-17T06:53:58Z</time>
      </trkpt>
      <trkpt lat="45.71808" lon="6.47078">
        <ele>952</ele>
        <time>2022-07-17T06:54:00Z</time>
      </trkpt>
      <trkpt lat="45.71808" lon="6.47075">
        <ele>952</ele>
        <time>2022-07-17T06:54:01Z</time>
      </trkpt>
      <trkpt lat="45.71808" lon="6.47073">
        <ele>952</ele>
        <time>2022-07-17T06:54:03Z</time>
      </trkpt>
      <trkpt lat="45.71808" lon="6.47072">
        <ele>951</ele>
        <time>2022-07-17T06:54:04Z</time>
      </trkpt>
      <trkpt lat="45.71807" lon="6.4707">
        <ele>950</ele>
        <time>2022-07-17T06:54:05Z</time>
      </trkpt>
      <trkpt lat="45.71807" lon="6.47069">
        <ele>950</ele>
        <time>2022-07-17T06:54:06Z</time>
      </trkpt>
      <trkpt lat="45.71807" lon="6.47067">
        <ele>950</ele>
        <time>2022-07-17T06:54:07Z</time>
      </trkpt>
      <trkpt lat="45.71807" lon="6.47066">
        <ele>950</ele>
        <time>2022-07-17T06:54:08Z</time>
      </trkpt>
      <trkpt lat="45.71807" lon="6.47064">
        <ele>950</ele>
        <time>2022-07-17T06:54:09Z</time>
      </trkpt>
      <trkpt lat="45.71807" lon="6.47063">
        <ele>949</ele>
        <time>2022-07-17T06:54:10Z</time>
      </trkpt>
      <trkpt lat="45.71807" lon="6.47061">
        <ele>949</ele>
        <time>2022-07-17T06:54:11Z</time>
      </trkpt>
      <trkpt lat="45.71806" lon="6.47058">
        <ele>949</ele>
        <time>2022-07-17T06:54:12Z</time>
      </trkpt>
      <trkpt lat="45.71806" lon="6.47056">
        <ele>949</ele>
        <time>2022-07-17T06:54:13Z</time>
      </trkpt>
      <trkpt lat="45.71806" lon="6.47053">
        <ele>949</ele>
        <time>2022-07-17T06:54:14Z</time>
      </trkpt>
      <trkpt lat="45.71806" lon="6.47051">
        <ele>949</ele>
        <time>2022-07-17T06:54:15Z</time>
      </trkpt>
      <trkpt lat="45.71806" lon="6.47048">
        <ele>949</ele>
        <time>2022-07-17T06:54:16Z</time>
      </trkpt>
      <trkpt lat="45.71805" lon="6.47045">
        <ele>949</ele>
        <time>2022-07-17T06:54:17Z</time>
      </trkpt>
      <trkpt lat="45.71805" lon="6.47043">
        <ele>949</ele>
        <time>2022-07-17T06:54:18Z</time>
      </trkpt>
      <trkpt lat="45.71806" lon="6.47039">
        <ele>949</ele>
        <time>2022-07-17T06:54:19Z</time>
      </trkpt>
      <trkpt lat="45.71807" lon="6.47036">
        <ele>949</ele>
        <time>2022-07-17T06:54:21Z</time>
      </trkpt>
      <trkpt lat="45.71807" lon="6.47034">
        <ele>949</ele>
        <time>2022-07-17T06:54:22Z</time>
      </trkpt>
      <trkpt lat="45.71808" lon="6.47031">
        <ele>949</ele>
        <time>2022-07-17T06:54:23Z</time>
      </trkpt>
      <trkpt lat="45.71809" lon="6.47029">
        <ele>948</ele>
        <time>2022-07-17T06:54:24Z</time>
      </trkpt>
      <trkpt lat="45.7181" lon="6.47027">
        <ele>948</ele>
        <time>2022-07-17T06:54:25Z</time>
      </trkpt>
      <trkpt lat="45.71811" lon="6.47025">
        <ele>948</ele>
        <time>2022-07-17T06:54:26Z</time>
      </trkpt>
      <trkpt lat="45.71812" lon="6.47023">
        <ele>948</ele>
        <time>2022-07-17T06:54:27Z</time>
      </trkpt>
      <trkpt lat="45.71813" lon="6.47021">
        <ele>948</ele>
        <time>2022-07-17T06:54:28Z</time>
      </trkpt>
      <trkpt lat="45.71814" lon="6.47019">
        <ele>948</ele>
        <time>2022-07-17T06:54:29Z</time>
      </trkpt>
      <trkpt lat="45.71815" lon="6.47016">
        <ele>948</ele>
        <time>2022-07-17T06:54:30Z</time>
      </trkpt>
      <trkpt lat="45.71817" lon="6.47014">
        <ele>948</ele>
        <time>2022-07-17T06:54:32Z</time>
      </trkpt>
      <trkpt lat="45.71818" lon="6.47013">
        <ele>947</ele>
        <time>2022-07-17T06:54:34Z</time>
      </trkpt>
      <trkpt lat="45.71819" lon="6.47012">
        <ele>947</ele>
        <time>2022-07-17T06:54:35Z</time>
      </trkpt>
      <trkpt lat="45.71819" lon="6.47011">
        <ele>947</ele>
        <time>2022-07-17T06:54:36Z</time>
      </trkpt>
      <trkpt lat="45.7182" lon="6.4701">
        <ele>946</ele>
        <time>2022-07-17T06:54:37Z</time>
      </trkpt>
      <trkpt lat="45.71821" lon="6.47009">
        <ele>946</ele>
        <time>2022-07-17T06:54:38Z</time>
      </trkpt>
      <trkpt lat="45.71821" lon="6.47008">
        <ele>945</ele>
        <time>2022-07-17T06:54:39Z</time>
      </trkpt>
      <trkpt lat="45.71822" lon="6.47006">
        <ele>945</ele>
        <time>2022-07-17T06:54:40Z</time>
      </trkpt>
      <trkpt lat="45.71823" lon="6.47003">
        <ele>945</ele>
        <time>2022-07-17T06:54:42Z</time>
      </trkpt>
      <trkpt lat="45.71823" lon="6.47002">
        <ele>944</ele>
        <time>2022-07-17T06:54:43Z</time>
      </trkpt>
      <trkpt lat="45.71823" lon="6.47001">
        <ele>943</ele>
        <time>2022-07-17T06:54:44Z</time>
      </trkpt>
      <trkpt lat="45.71823" lon="6.47">
        <ele>943</ele>
        <time>2022-07-17T06:54:45Z</time>
      </trkpt>
      <trkpt lat="45.71823" lon="6.46998">
        <ele>942</ele>
        <time>2022-07-17T06:54:46Z</time>
      </trkpt>
      <trkpt lat="45.71823" lon="6.46997">
        <ele>942</ele>
        <time>2022-07-17T06:54:47Z</time>
      </trkpt>
      <trkpt lat="45.71822" lon="6.46996">
        <ele>941</ele>
        <time>2022-07-17T06:54:48Z</time>
      </trkpt>
      <trkpt lat="45.71822" lon="6.46995">
        <ele>941</ele>
        <time>2022-07-17T06:54:49Z</time>
      </trkpt>
      <trkpt lat="45.71822" lon="6.46993">
        <ele>941</ele>
        <time>2022-07-17T06:54:50Z</time>
      </trkpt>
      <trkpt lat="45.71822" lon="6.46992">
        <ele>941</ele>
        <time>2022-07-17T06:54:51Z</time>
      </trkpt>
      <trkpt lat="45.71822" lon="6.46991">
        <ele>941</ele>
        <time>2022-07-17T06:54:52Z</time>
      </trkpt>
      <trkpt lat="45.71822" lon="6.4699">
        <ele>941</ele>
        <time>2022-07-17T06:54:53Z</time>
      </trkpt>
      <trkpt lat="45.71822" lon="6.46988">
        <ele>940</ele>
        <time>2022-07-17T06:54:54Z</time>
      </trkpt>
      <trkpt lat="45.71822" lon="6.46987">
        <ele>940</ele>
        <time>2022-07-17T06:54:55Z</time>
      </trkpt>
      <trkpt lat="45.71822" lon="6.46986">
        <ele>940</ele>
        <time>2022-07-17T06:54:56Z</time>
      </trkpt>
      <trkpt lat="45.71821" lon="6.46984">
        <ele>940</ele>
        <time>2022-07-17T06:54:57Z</time>
      </trkpt>
      <trkpt lat="45.71821" lon="6.46983">
        <ele>939</ele>
        <time>2022-07-17T06:54:58Z</time>
      </trkpt>
      <trkpt lat="45.71821" lon="6.46981">
        <ele>939</ele>
        <time>2022-07-17T06:55:00Z</time>
      </trkpt>
      <trkpt lat="45.71821" lon="6.4698">
        <ele>937</ele>
        <time>2022-07-17T06:55:01Z</time>
      </trkpt>
      <trkpt lat="45.71821" lon="6.46979">
        <ele>937</ele>
        <time>2022-07-17T06:55:02Z</time>
      </trkpt>
      <trkpt lat="45.71821" lon="6.46977">
        <ele>937</ele>
        <time>2022-07-17T06:55:03Z</time>
      </trkpt>
      <trkpt lat="45.71821" lon="6.46976">
        <ele>937</ele>
        <time>2022-07-17T06:55:04Z</time>
      </trkpt>
      <trkpt lat="45.71821" lon="6.46975">
        <ele>937</ele>
        <time>2022-07-17T06:55:05Z</time>
      </trkpt>
      <trkpt lat="45.7182" lon="6.46973">
        <ele>936</ele>
        <time>2022-07-17T06:55:06Z</time>
      </trkpt>
      <trkpt lat="45.7182" lon="6.46972">
        <ele>936</ele>
        <time>2022-07-17T06:55:07Z</time>
      </trkpt>
      <trkpt lat="45.7182" lon="6.4697">
        <ele>935</ele>
        <time>2022-07-17T06:55:08Z</time>
      </trkpt>
      <trkpt lat="45.7182" lon="6.46969">
        <ele>935</ele>
        <time>2022-07-17T06:55:09Z</time>
      </trkpt>
      <trkpt lat="45.7182" lon="6.46967">
        <ele>934</ele>
        <time>2022-07-17T06:55:10Z</time>
      </trkpt>
      <trkpt lat="45.7182" lon="6.46966">
        <ele>934</ele>
        <time>2022-07-17T06:55:11Z</time>
      </trkpt>
      <trkpt lat="45.7182" lon="6.46964">
        <ele>934</ele>
        <time>2022-07-17T06:55:12Z</time>
      </trkpt>
      <trkpt lat="45.7182" lon="6.46963">
        <ele>934</ele>
        <time>2022-07-17T06:55:13Z</time>
      </trkpt>
      <trkpt lat="45.7182" lon="6.46961">
        <ele>934</ele>
        <time>2022-07-17T06:55:14Z</time>
      </trkpt>
      <trkpt lat="45.71819" lon="6.4696">
        <ele>933</ele>
        <time>2022-07-17T06:55:15Z</time>
      </trkpt>
      <trkpt lat="45.71819" lon="6.46958">
        <ele>933</ele>
        <time>2022-07-17T06:55:16Z</time>
      </trkpt>
      <trkpt lat="45.71819" lon="6.46956">
        <ele>933</ele>
        <time>2022-07-17T06:55:17Z</time>
      </trkpt>
      <trkpt lat="45.71819" lon="6.46955">
        <ele>933</ele>
        <time>2022-07-17T06:55:18Z</time>
      </trkpt>
      <trkpt lat="45.71818" lon="6.46953">
        <ele>933</ele>
        <time>2022-07-17T06:55:19Z</time>
      </trkpt>
      <trkpt lat="45.71818" lon="6.46952">
        <ele>931</ele>
        <time>2022-07-17T06:55:20Z</time>
      </trkpt>
      <trkpt lat="45.71818" lon="6.4695">
        <ele>931</ele>
        <time>2022-07-17T06:55:21Z</time>
      </trkpt>
      <trkpt lat="45.71818" lon="6.46949">
        <ele>931</ele>
        <time>2022-07-17T06:55:22Z</time>
      </trkpt>
      <trkpt lat="45.71818" lon="6.46947">
        <ele>931</ele>
        <time>2022-07-17T06:55:23Z</time>
      </trkpt>
      <trkpt lat="45.71818" lon="6.46945">
        <ele>931</ele>
        <time>2022-07-17T06:55:24Z</time>
      </trkpt>
      <trkpt lat="45.71818" lon="6.46942">
        <ele>931</ele>
        <time>2022-07-17T06:55:25Z</time>
      </trkpt>
      <trkpt lat="45.71818" lon="6.4694">
        <ele>931</ele>
        <time>2022-07-17T06:55:26Z</time>
      </trkpt>
      <trkpt lat="45.71818" lon="6.46938">
        <ele>931</ele>
        <time>2022-07-17T06:55:27Z</time>
      </trkpt>
      <trkpt lat="45.71818" lon="6.46936">
        <ele>931</ele>
        <time>2022-07-17T06:55:28Z</time>
      </trkpt>
      <trkpt lat="45.71818" lon="6.46933">
        <ele>930</ele>
        <time>2022-07-17T06:55:29Z</time>
      </trkpt>
      <trkpt lat="45.71818" lon="6.46932">
        <ele>929</ele>
        <time>2022-07-17T06:55:30Z</time>
      </trkpt>
      <trkpt lat="45.71818" lon="6.4693">
        <ele>929</ele>
        <time>2022-07-17T06:55:31Z</time>
      </trkpt>
      <trkpt lat="45.71819" lon="6.46929">
        <ele>929</ele>
        <time>2022-07-17T06:55:32Z</time>
      </trkpt>
      <trkpt lat="45.71819" lon="6.46928">
        <ele>929</ele>
        <time>2022-07-17T06:55:33Z</time>
      </trkpt>
      <trkpt lat="45.7182" lon="6.46926">
        <ele>928</ele>
        <time>2022-07-17T06:55:34Z</time>
      </trkpt>
      <trkpt lat="45.7182" lon="6.46925">
        <ele>928</ele>
        <time>2022-07-17T06:55:35Z</time>
      </trkpt>
      <trkpt lat="45.71821" lon="6.46923">
        <ele>928</ele>
        <time>2022-07-17T06:55:36Z</time>
      </trkpt>
      <trkpt lat="45.71821" lon="6.46922">
        <ele>928</ele>
        <time>2022-07-17T06:55:37Z</time>
      </trkpt>
      <trkpt lat="45.71822" lon="6.4692">
        <ele>928</ele>
        <time>2022-07-17T06:55:38Z</time>
      </trkpt>
      <trkpt lat="45.71822" lon="6.46919">
        <ele>928</ele>
        <time>2022-07-17T06:55:39Z</time>
      </trkpt>
      <trkpt lat="45.71822" lon="6.46917">
        <ele>927</ele>
        <time>2022-07-17T06:55:40Z</time>
      </trkpt>
      <trkpt lat="45.71823" lon="6.46916">
        <ele>927</ele>
        <time>2022-07-17T06:55:41Z</time>
      </trkpt>
      <trkpt lat="45.71823" lon="6.46914">
        <ele>927</ele>
        <time>2022-07-17T06:55:42Z</time>
      </trkpt>
      <trkpt lat="45.71823" lon="6.46912">
        <ele>926</ele>
        <time>2022-07-17T06:55:43Z</time>
      </trkpt>
      <trkpt lat="45.71823" lon="6.46911">
        <ele>926</ele>
        <time>2022-07-17T06:55:44Z</time>
      </trkpt>
      <trkpt lat="45.71824" lon="6.46909">
        <ele>926</ele>
        <time>2022-07-17T06:55:45Z</time>
      </trkpt>
      <trkpt lat="45.71824" lon="6.46908">
        <ele>925</ele>
        <time>2022-07-17T06:55:46Z</time>
      </trkpt>
      <trkpt lat="45.71824" lon="6.46905">
        <ele>925</ele>
        <time>2022-07-17T06:55:47Z</time>
      </trkpt>
      <trkpt lat="45.71825" lon="6.46903">
        <ele>925</ele>
        <time>2022-07-17T06:55:48Z</time>
      </trkpt>
      <trkpt lat="45.71825" lon="6.469">
        <ele>925</ele>
        <time>2022-07-17T06:55:49Z</time>
      </trkpt>
      <trkpt lat="45.71826" lon="6.46898">
        <ele>924</ele>
        <time>2022-07-17T06:55:50Z</time>
      </trkpt>
      <trkpt lat="45.71827" lon="6.46895">
        <ele>924</ele>
        <time>2022-07-17T06:55:51Z</time>
      </trkpt>
      <trkpt lat="45.71827" lon="6.46893">
        <ele>923</ele>
        <time>2022-07-17T06:55:52Z</time>
      </trkpt>
      <trkpt lat="45.71827" lon="6.46892">
        <ele>923</ele>
        <time>2022-07-17T06:55:53Z</time>
      </trkpt>
      <trkpt lat="45.71828" lon="6.4689">
        <ele>923</ele>
        <time>2022-07-17T06:55:54Z</time>
      </trkpt>
      <trkpt lat="45.71828" lon="6.46889">
        <ele>922</ele>
        <time>2022-07-17T06:55:55Z</time>
      </trkpt>
      <trkpt lat="45.71829" lon="6.46887">
        <ele>922</ele>
        <time>2022-07-17T06:55:56Z</time>
      </trkpt>
      <trkpt lat="45.71829" lon="6.46885">
        <ele>922</ele>
        <time>2022-07-17T06:55:57Z</time>
      </trkpt>
      <trkpt lat="45.7183" lon="6.46884">
        <ele>922</ele>
        <time>2022-07-17T06:55:58Z</time>
      </trkpt>
      <trkpt lat="45.7183" lon="6.46882">
        <ele>921</ele>
        <time>2022-07-17T06:55:59Z</time>
      </trkpt>
      <trkpt lat="45.7183" lon="6.46881">
        <ele>921</ele>
        <time>2022-07-17T06:56:00Z</time>
      </trkpt>
      <trkpt lat="45.7183" lon="6.46879">
        <ele>920</ele>
        <time>2022-07-17T06:56:01Z</time>
      </trkpt>
      <trkpt lat="45.7183" lon="6.46878">
        <ele>920</ele>
        <time>2022-07-17T06:56:02Z</time>
      </trkpt>
      <trkpt lat="45.7183" lon="6.46877">
        <ele>920</ele>
        <time>2022-07-17T06:56:03Z</time>
      </trkpt>
      <trkpt lat="45.7183" lon="6.46875">
        <ele>920</ele>
        <time>2022-07-17T06:56:04Z</time>
      </trkpt>
      <trkpt lat="45.7183" lon="6.46874">
        <ele>920</ele>
        <time>2022-07-17T06:56:05Z</time>
      </trkpt>
      <trkpt lat="45.7183" lon="6.46872">
        <ele>920</ele>
        <time>2022-07-17T06:56:06Z</time>
      </trkpt>
      <trkpt lat="45.7183" lon="6.46871">
        <ele>919</ele>
        <time>2022-07-17T06:56:07Z</time>
      </trkpt>
      <trkpt lat="45.7183" lon="6.46869">
        <ele>919</ele>
        <time>2022-07-17T06:56:08Z</time>
      </trkpt>
      <trkpt lat="45.7183" lon="6.46868">
        <ele>919</ele>
        <time>2022-07-17T06:56:09Z</time>
      </trkpt>
      <trkpt lat="45.7183" lon="6.46867">
        <ele>918</ele>
        <time>2022-07-17T06:56:10Z</time>
      </trkpt>
      <trkpt lat="45.71829" lon="6.46865">
        <ele>918</ele>
        <time>2022-07-17T06:56:11Z</time>
      </trkpt>
      <trkpt lat="45.71829" lon="6.46864">
        <ele>917</ele>
        <time>2022-07-17T06:56:12Z</time>
      </trkpt>
      <trkpt lat="45.71829" lon="6.46862">
        <ele>917</ele>
        <time>2022-07-17T06:56:13Z</time>
      </trkpt>
      <trkpt lat="45.71828" lon="6.46861">
        <ele>917</ele>
        <time>2022-07-17T06:56:14Z</time>
      </trkpt>
      <trkpt lat="45.71828" lon="6.46859">
        <ele>916</ele>
        <time>2022-07-17T06:56:15Z</time>
      </trkpt>
      <trkpt lat="45.71828" lon="6.46858">
        <ele>916</ele>
        <time>2022-07-17T06:56:16Z</time>
      </trkpt>
      <trkpt lat="45.71828" lon="6.46856">
        <ele>916</ele>
        <time>2022-07-17T06:56:17Z</time>
      </trkpt>
      <trkpt lat="45.71827" lon="6.46855">
        <ele>915</ele>
        <time>2022-07-17T06:56:18Z</time>
      </trkpt>
      <trkpt lat="45.71828" lon="6.46852">
        <ele>914</ele>
        <time>2022-07-17T06:56:19Z</time>
      </trkpt>
      <trkpt lat="45.71828" lon="6.4685">
        <ele>914</ele>
        <time>2022-07-17T06:56:20Z</time>
      </trkpt>
      <trkpt lat="45.71828" lon="6.46848">
        <ele>914</ele>
        <time>2022-07-17T06:56:21Z</time>
      </trkpt>
      <trkpt lat="45.71829" lon="6.46846">
        <ele>914</ele>
        <time>2022-07-17T06:56:22Z</time>
      </trkpt>
      <trkpt lat="45.71829" lon="6.46844">
        <ele>914</ele>
        <time>2022-07-17T06:56:23Z</time>
      </trkpt>
      <trkpt lat="45.71829" lon="6.46841">
        <ele>914</ele>
        <time>2022-07-17T06:56:24Z</time>
      </trkpt>
      <trkpt lat="45.7183" lon="6.46839">
        <ele>914</ele>
        <time>2022-07-17T06:56:25Z</time>
      </trkpt>
      <trkpt lat="45.71831" lon="6.46837">
        <ele>914</ele>
        <time>2022-07-17T06:56:26Z</time>
      </trkpt>
      <trkpt lat="45.71831" lon="6.46835">
        <ele>913</ele>
        <time>2022-07-17T06:56:27Z</time>
      </trkpt>
      <trkpt lat="45.71832" lon="6.46833">
        <ele>913</ele>
        <time>2022-07-17T06:56:28Z</time>
      </trkpt>
      <trkpt lat="45.71832" lon="6.46831">
        <ele>913</ele>
        <time>2022-07-17T06:56:29Z</time>
      </trkpt>
      <trkpt lat="45.71833" lon="6.46829">
        <ele>913</ele>
        <time>2022-07-17T06:56:30Z</time>
      </trkpt>
      <trkpt lat="45.71834" lon="6.46828">
        <ele>912</ele>
        <time>2022-07-17T06:56:31Z</time>
      </trkpt>
      <trkpt lat="45.71835" lon="6.46826">
        <ele>912</ele>
        <time>2022-07-17T06:56:32Z</time>
      </trkpt>
      <trkpt lat="45.71836" lon="6.46824">
        <ele>911</ele>
        <time>2022-07-17T06:56:33Z</time>
      </trkpt>
      <trkpt lat="45.71837" lon="6.46823">
        <ele>911</ele>
        <time>2022-07-17T06:56:35Z</time>
      </trkpt>
      <trkpt lat="45.71838" lon="6.46821">
        <ele>911</ele>
        <time>2022-07-17T06:56:36Z</time>
      </trkpt>
      <trkpt lat="45.7184" lon="6.46819">
        <ele>910</ele>
        <time>2022-07-17T06:56:37Z</time>
      </trkpt>
      <trkpt lat="45.7184" lon="6.46818">
        <ele>909</ele>
        <time>2022-07-17T06:56:38Z</time>
      </trkpt>
      <trkpt lat="45.71841" lon="6.46816">
        <ele>909</ele>
        <time>2022-07-17T06:56:39Z</time>
      </trkpt>
      <trkpt lat="45.71842" lon="6.46814">
        <ele>909</ele>
        <time>2022-07-17T06:56:40Z</time>
      </trkpt>
      <trkpt lat="45.71843" lon="6.46813">
        <ele>909</ele>
        <time>2022-07-17T06:56:41Z</time>
      </trkpt>
      <trkpt lat="45.71844" lon="6.46811">
        <ele>908</ele>
        <time>2022-07-17T06:56:42Z</time>
      </trkpt>
      <trkpt lat="45.71844" lon="6.4681">
        <ele>908</ele>
        <time>2022-07-17T06:56:43Z</time>
      </trkpt>
      <trkpt lat="45.71845" lon="6.46808">
        <ele>907</ele>
        <time>2022-07-17T06:56:44Z</time>
      </trkpt>
      <trkpt lat="45.71845" lon="6.46807">
        <ele>907</ele>
        <time>2022-07-17T06:56:45Z</time>
      </trkpt>
      <trkpt lat="45.71846" lon="6.46806">
        <ele>907</ele>
        <time>2022-07-17T06:56:46Z</time>
      </trkpt>
      <trkpt lat="45.71846" lon="6.46805">
        <ele>906</ele>
        <time>2022-07-17T06:56:48Z</time>
      </trkpt>
      <trkpt lat="45.71847" lon="6.46804">
        <ele>906</ele>
        <time>2022-07-17T06:56:49Z</time>
      </trkpt>
      <trkpt lat="45.71847" lon="6.46803">
        <ele>905</ele>
        <time>2022-07-17T06:56:50Z</time>
      </trkpt>
      <trkpt lat="45.71847" lon="6.46802">
        <ele>905</ele>
        <time>2022-07-17T06:56:51Z</time>
      </trkpt>
      <trkpt lat="45.71847" lon="6.46801">
        <ele>904</ele>
        <time>2022-07-17T06:56:52Z</time>
      </trkpt>
      <trkpt lat="45.71848" lon="6.46801">
        <ele>904</ele>
        <time>2022-07-17T06:56:53Z</time>
      </trkpt>
      <trkpt lat="45.71848" lon="6.468">
        <ele>904</ele>
        <time>2022-07-17T06:56:54Z</time>
      </trkpt>
      <trkpt lat="45.71848" lon="6.46799">
        <ele>904</ele>
        <time>2022-07-17T06:56:55Z</time>
      </trkpt>
      <trkpt lat="45.71849" lon="6.46798">
        <ele>904</ele>
        <time>2022-07-17T06:56:56Z</time>
      </trkpt>
      <trkpt lat="45.71849" lon="6.46797">
        <ele>904</ele>
        <time>2022-07-17T06:56:57Z</time>
      </trkpt>
      <trkpt lat="45.71849" lon="6.46796">
        <ele>903</ele>
        <time>2022-07-17T06:56:58Z</time>
      </trkpt>
      <trkpt lat="45.7185" lon="6.46794">
        <ele>902</ele>
        <time>2022-07-17T06:57:00Z</time>
      </trkpt>
      <trkpt lat="45.7185" lon="6.46792">
        <ele>901</ele>
        <time>2022-07-17T06:57:01Z</time>
      </trkpt>
      <trkpt lat="45.7185" lon="6.4679">
        <ele>901</ele>
        <time>2022-07-17T06:57:02Z</time>
      </trkpt>
      <trkpt lat="45.71851" lon="6.46788">
        <ele>901</ele>
        <time>2022-07-17T06:57:03Z</time>
      </trkpt>
      <trkpt lat="45.71851" lon="6.46787">
        <ele>901</ele>
        <time>2022-07-17T06:57:04Z</time>
      </trkpt>
      <trkpt lat="45.71851" lon="6.46785">
        <ele>901</ele>
        <time>2022-07-17T06:57:05Z</time>
      </trkpt>
      <trkpt lat="45.71851" lon="6.46783">
        <ele>900</ele>
        <time>2022-07-17T06:57:06Z</time>
      </trkpt>
      <trkpt lat="45.71852" lon="6.46781">
        <ele>900</ele>
        <time>2022-07-17T06:57:07Z</time>
      </trkpt>
      <trkpt lat="45.71854" lon="6.46768">
        <ele>898</ele>
        <time>2022-07-17T06:57:13Z</time>
      </trkpt>
      <trkpt lat="45.71858" lon="6.46755">
        <ele>895</ele>
        <time>2022-07-17T06:57:23Z</time>
      </trkpt>
      <trkpt lat="45.71858" lon="6.46752">
        <ele>894</ele>
        <time>2022-07-17T06:57:26Z</time>
      </trkpt>
      <trkpt lat="45.71859" lon="6.4675">
        <ele>893</ele>
        <time>2022-07-17T06:57:27Z</time>
      </trkpt>
      <trkpt lat="45.71859" lon="6.46747">
        <ele>892</ele>
        <time>2022-07-17T06:57:28Z</time>
      </trkpt>
      <trkpt lat="45.7186" lon="6.46744">
        <ele>892</ele>
        <time>2022-07-17T06:57:29Z</time>
      </trkpt>
      <trkpt lat="45.7186" lon="6.46741">
        <ele>892</ele>
        <time>2022-07-17T06:57:30Z</time>
      </trkpt>
      <trkpt lat="45.71861" lon="6.46739">
        <ele>892</ele>
        <time>2022-07-17T06:57:31Z</time>
      </trkpt>
      <trkpt lat="45.71861" lon="6.46738">
        <ele>892</ele>
        <time>2022-07-17T06:57:32Z</time>
      </trkpt>
      <trkpt lat="45.71861" lon="6.46736">
        <ele>890</ele>
        <time>2022-07-17T06:57:33Z</time>
      </trkpt>
      <trkpt lat="45.71862" lon="6.46734">
        <ele>889</ele>
        <time>2022-07-17T06:57:34Z</time>
      </trkpt>
      <trkpt lat="45.71862" lon="6.46732">
        <ele>889</ele>
        <time>2022-07-17T06:57:35Z</time>
      </trkpt>
      <trkpt lat="45.71862" lon="6.4673">
        <ele>889</ele>
        <time>2022-07-17T06:57:36Z</time>
      </trkpt>
      <trkpt lat="45.71863" lon="6.46728">
        <ele>889</ele>
        <time>2022-07-17T06:57:37Z</time>
      </trkpt>
      <trkpt lat="45.71863" lon="6.46726">
        <ele>889</ele>
        <time>2022-07-17T06:57:38Z</time>
      </trkpt>
      <trkpt lat="45.71864" lon="6.46724">
        <ele>888</ele>
        <time>2022-07-17T06:57:39Z</time>
      </trkpt>
      <trkpt lat="45.71864" lon="6.46722">
        <ele>888</ele>
        <time>2022-07-17T06:57:40Z</time>
      </trkpt>
      <trkpt lat="45.71865" lon="6.46721">
        <ele>887</ele>
        <time>2022-07-17T06:57:41Z</time>
      </trkpt>
      <trkpt lat="45.71865" lon="6.46719">
        <ele>887</ele>
        <time>2022-07-17T06:57:42Z</time>
      </trkpt>
      <trkpt lat="45.71866" lon="6.46717">
        <ele>887</ele>
        <time>2022-07-17T06:57:43Z</time>
      </trkpt>
      <trkpt lat="45.71866" lon="6.46715">
        <ele>887</ele>
        <time>2022-07-17T06:57:44Z</time>
      </trkpt>
      <trkpt lat="45.71875" lon="6.46709">
        <ele>886</ele>
        <time>2022-07-17T06:57:49Z</time>
      </trkpt>
      <trkpt lat="45.71875" lon="6.46707">
        <ele>884</ele>
        <time>2022-07-17T06:57:52Z</time>
      </trkpt>
      <trkpt lat="45.71875" lon="6.46706">
        <ele>884</ele>
        <time>2022-07-17T06:57:53Z</time>
      </trkpt>
      <trkpt lat="45.71876" lon="6.46704">
        <ele>884</ele>
        <time>2022-07-17T06:57:54Z</time>
      </trkpt>
      <trkpt lat="45.71876" lon="6.46703">
        <ele>884</ele>
        <time>2022-07-17T06:57:55Z</time>
      </trkpt>
      <trkpt lat="45.71876" lon="6.46701">
        <ele>883</ele>
        <time>2022-07-17T06:57:56Z</time>
      </trkpt>
      <trkpt lat="45.71877" lon="6.467">
        <ele>883</ele>
        <time>2022-07-17T06:57:57Z</time>
      </trkpt>
      <trkpt lat="45.71877" lon="6.46698">
        <ele>883</ele>
        <time>2022-07-17T06:57:58Z</time>
      </trkpt>
      <trkpt lat="45.71877" lon="6.46697">
        <ele>882</ele>
        <time>2022-07-17T06:57:59Z</time>
      </trkpt>
      <trkpt lat="45.71878" lon="6.46695">
        <ele>882</ele>
        <time>2022-07-17T06:58:00Z</time>
      </trkpt>
      <trkpt lat="45.71879" lon="6.46694">
        <ele>881</ele>
        <time>2022-07-17T06:58:01Z</time>
      </trkpt>
      <trkpt lat="45.7188" lon="6.46694">
        <ele>881</ele>
        <time>2022-07-17T06:58:02Z</time>
      </trkpt>
      <trkpt lat="45.71881" lon="6.46693">
        <ele>881</ele>
        <time>2022-07-17T06:58:03Z</time>
      </trkpt>
      <trkpt lat="45.71882" lon="6.46692">
        <ele>881</ele>
        <time>2022-07-17T06:58:04Z</time>
      </trkpt>
      <trkpt lat="45.71883" lon="6.46691">
        <ele>880</ele>
        <time>2022-07-17T06:58:05Z</time>
      </trkpt>
      <trkpt lat="45.71883" lon="6.4669">
        <ele>880</ele>
        <time>2022-07-17T06:58:06Z</time>
      </trkpt>
      <trkpt lat="45.71884" lon="6.46689">
        <ele>880</ele>
        <time>2022-07-17T06:58:07Z</time>
      </trkpt>
      <trkpt lat="45.71885" lon="6.46688">
        <ele>880</ele>
        <time>2022-07-17T06:58:08Z</time>
      </trkpt>
      <trkpt lat="45.71886" lon="6.46688">
        <ele>879</ele>
        <time>2022-07-17T06:58:09Z</time>
      </trkpt>
      <trkpt lat="45.71887" lon="6.46687">
        <ele>879</ele>
        <time>2022-07-17T06:58:10Z</time>
      </trkpt>
      <trkpt lat="45.71887" lon="6.46686">
        <ele>879</ele>
        <time>2022-07-17T06:58:11Z</time>
      </trkpt>
      <trkpt lat="45.71888" lon="6.46686">
        <ele>879</ele>
        <time>2022-07-17T06:58:12Z</time>
      </trkpt>
      <trkpt lat="45.71889" lon="6.46685">
        <ele>879</ele>
        <time>2022-07-17T06:58:13Z</time>
      </trkpt>
      <trkpt lat="45.71889" lon="6.46684">
        <ele>879</ele>
        <time>2022-07-17T06:58:14Z</time>
      </trkpt>
      <trkpt lat="45.7189" lon="6.46684">
        <ele>878</ele>
        <time>2022-07-17T06:58:15Z</time>
      </trkpt>
      <trkpt lat="45.7189" lon="6.46683">
        <ele>878</ele>
        <time>2022-07-17T06:58:16Z</time>
      </trkpt>
      <trkpt lat="45.71891" lon="6.46683">
        <ele>878</ele>
        <time>2022-07-17T06:58:17Z</time>
      </trkpt>
      <trkpt lat="45.71892" lon="6.46682">
        <ele>878</ele>
        <time>2022-07-17T06:58:18Z</time>
      </trkpt>
      <trkpt lat="45.71892" lon="6.46681">
        <ele>878</ele>
        <time>2022-07-17T06:58:19Z</time>
      </trkpt>
      <trkpt lat="45.71893" lon="6.46681">
        <ele>878</ele>
        <time>2022-07-17T06:58:20Z</time>
      </trkpt>
      <trkpt lat="45.71894" lon="6.4668">
        <ele>877</ele>
        <time>2022-07-17T06:58:21Z</time>
      </trkpt>
      <trkpt lat="45.71895" lon="6.46679">
        <ele>877</ele>
        <time>2022-07-17T06:58:23Z</time>
      </trkpt>
      <trkpt lat="45.71896" lon="6.46679">
        <ele>877</ele>
        <time>2022-07-17T06:58:24Z</time>
      </trkpt>
      <trkpt lat="45.71897" lon="6.46678">
        <ele>877</ele>
        <time>2022-07-17T06:58:25Z</time>
      </trkpt>
      <trkpt lat="45.71898" lon="6.46678">
        <ele>877</ele>
        <time>2022-07-17T06:58:26Z</time>
      </trkpt>
      <trkpt lat="45.71899" lon="6.46677">
        <ele>875</ele>
        <time>2022-07-17T06:58:29Z</time>
      </trkpt>
      <trkpt lat="45.719" lon="6.46677">
        <ele>874</ele>
        <time>2022-07-17T06:58:30Z</time>
      </trkpt>
      <trkpt lat="45.71901" lon="6.46676">
        <ele>873</ele>
        <time>2022-07-17T06:58:31Z</time>
      </trkpt>
      <trkpt lat="45.71902" lon="6.46676">
        <ele>873</ele>
        <time>2022-07-17T06:58:32Z</time>
      </trkpt>
      <trkpt lat="45.71903" lon="6.46676">
        <ele>873</ele>
        <time>2022-07-17T06:58:33Z</time>
      </trkpt>
      <trkpt lat="45.71904" lon="6.46675">
        <ele>872</ele>
        <time>2022-07-17T06:58:34Z</time>
      </trkpt>
      <trkpt lat="45.71905" lon="6.46675">
        <ele>872</ele>
        <time>2022-07-17T06:58:35Z</time>
      </trkpt>
      <trkpt lat="45.71906" lon="6.46675">
        <ele>872</ele>
        <time>2022-07-17T06:58:36Z</time>
      </trkpt>
      <trkpt lat="45.71908" lon="6.46675">
        <ele>871</ele>
        <time>2022-07-17T06:58:37Z</time>
      </trkpt>
      <trkpt lat="45.71909" lon="6.46675">
        <ele>871</ele>
        <time>2022-07-17T06:58:38Z</time>
      </trkpt>
      <trkpt lat="45.7191" lon="6.46674">
        <ele>871</ele>
        <time>2022-07-17T06:58:39Z</time>
      </trkpt>
      <trkpt lat="45.71912" lon="6.46674">
        <ele>871</ele>
        <time>2022-07-17T06:58:40Z</time>
      </trkpt>
      <trkpt lat="45.71913" lon="6.46673">
        <ele>870</ele>
        <time>2022-07-17T06:58:42Z</time>
      </trkpt>
      <trkpt lat="45.71914" lon="6.46672">
        <ele>869</ele>
        <time>2022-07-17T06:58:43Z</time>
      </trkpt>
      <trkpt lat="45.71915" lon="6.46671">
        <ele>868</ele>
        <time>2022-07-17T06:58:45Z</time>
      </trkpt>
      <trkpt lat="45.71916" lon="6.46671">
        <ele>868</ele>
        <time>2022-07-17T06:58:46Z</time>
      </trkpt>
      <trkpt lat="45.71916" lon="6.4667">
        <ele>868</ele>
        <time>2022-07-17T06:58:47Z</time>
      </trkpt>
      <trkpt lat="45.71917" lon="6.4667">
        <ele>868</ele>
        <time>2022-07-17T06:58:48Z</time>
      </trkpt>
      <trkpt lat="45.71918" lon="6.46669">
        <ele>867</ele>
        <time>2022-07-17T06:58:49Z</time>
      </trkpt>
      <trkpt lat="45.71919" lon="6.46668">
        <ele>866</ele>
        <time>2022-07-17T06:58:51Z</time>
      </trkpt>
      <trkpt lat="45.7192" lon="6.46667">
        <ele>866</ele>
        <time>2022-07-17T06:58:53Z</time>
      </trkpt>
      <trkpt lat="45.71921" lon="6.46665">
        <ele>866</ele>
        <time>2022-07-17T06:58:54Z</time>
      </trkpt>
      <trkpt lat="45.71922" lon="6.46664">
        <ele>866</ele>
        <time>2022-07-17T06:58:55Z</time>
      </trkpt>
      <trkpt lat="45.71923" lon="6.46662">
        <ele>866</ele>
        <time>2022-07-17T06:58:56Z</time>
      </trkpt>
      <trkpt lat="45.71924" lon="6.4666">
        <ele>865</ele>
        <time>2022-07-17T06:58:57Z</time>
      </trkpt>
      <trkpt lat="45.71926" lon="6.46659">
        <ele>865</ele>
        <time>2022-07-17T06:58:58Z</time>
      </trkpt>
      <trkpt lat="45.71927" lon="6.46657">
        <ele>865</ele>
        <time>2022-07-17T06:58:59Z</time>
      </trkpt>
      <trkpt lat="45.71927" lon="6.46656">
        <ele>865</ele>
        <time>2022-07-17T06:59:00Z</time>
      </trkpt>
      <trkpt lat="45.71928" lon="6.46655">
        <ele>865</ele>
        <time>2022-07-17T06:59:01Z</time>
      </trkpt>
      <trkpt lat="45.71929" lon="6.46654">
        <ele>865</ele>
        <time>2022-07-17T06:59:02Z</time>
      </trkpt>
      <trkpt lat="45.7193" lon="6.46653">
        <ele>865</ele>
        <time>2022-07-17T06:59:03Z</time>
      </trkpt>
      <trkpt lat="45.7193" lon="6.46652">
        <ele>864</ele>
        <time>2022-07-17T06:59:04Z</time>
      </trkpt>
      <trkpt lat="45.71931" lon="6.46651">
        <ele>864</ele>
        <time>2022-07-17T06:59:05Z</time>
      </trkpt>
      <trkpt lat="45.71932" lon="6.46649">
        <ele>864</ele>
        <time>2022-07-17T06:59:06Z</time>
      </trkpt>
      <trkpt lat="45.71932" lon="6.46648">
        <ele>864</ele>
        <time>2022-07-17T06:59:07Z</time>
      </trkpt>
      <trkpt lat="45.71933" lon="6.46647">
        <ele>863</ele>
        <time>2022-07-17T06:59:08Z</time>
      </trkpt>
      <trkpt lat="45.71935" lon="6.46646">
        <ele>862</ele>
        <time>2022-07-17T06:59:09Z</time>
      </trkpt>
      <trkpt lat="45.71936" lon="6.46645">
        <ele>862</ele>
        <time>2022-07-17T06:59:10Z</time>
      </trkpt>
      <trkpt lat="45.71938" lon="6.46644">
        <ele>862</ele>
        <time>2022-07-17T06:59:11Z</time>
      </trkpt>
      <trkpt lat="45.7194" lon="6.46643">
        <ele>862</ele>
        <time>2022-07-17T06:59:12Z</time>
      </trkpt>
      <trkpt lat="45.71941" lon="6.46642">
        <ele>862</ele>
        <time>2022-07-17T06:59:13Z</time>
      </trkpt>
      <trkpt lat="45.71943" lon="6.46641">
        <ele>862</ele>
        <time>2022-07-17T06:59:14Z</time>
      </trkpt>
      <trkpt lat="45.71944" lon="6.46639">
        <ele>862</ele>
        <time>2022-07-17T06:59:15Z</time>
      </trkpt>
      <trkpt lat="45.71945" lon="6.46638">
        <ele>862</ele>
        <time>2022-07-17T06:59:16Z</time>
      </trkpt>
      <trkpt lat="45.71946" lon="6.46637">
        <ele>861</ele>
        <time>2022-07-17T06:59:17Z</time>
      </trkpt>
      <trkpt lat="45.71948" lon="6.46635">
        <ele>861</ele>
        <time>2022-07-17T06:59:18Z</time>
      </trkpt>
      <trkpt lat="45.71949" lon="6.46634">
        <ele>861</ele>
        <time>2022-07-17T06:59:19Z</time>
      </trkpt>
      <trkpt lat="45.71949" lon="6.46633">
        <ele>861</ele>
        <time>2022-07-17T06:59:20Z</time>
      </trkpt>
      <trkpt lat="45.71948" lon="6.46633">
        <ele>860</ele>
        <time>2022-07-17T06:59:21Z</time>
      </trkpt>
      <trkpt lat="45.71948" lon="6.46632">
        <ele>860</ele>
        <time>2022-07-17T06:59:22Z</time>
      </trkpt>
      <trkpt lat="45.71947" lon="6.46632">
        <ele>860</ele>
        <time>2022-07-17T06:59:23Z</time>
      </trkpt>
      <trkpt lat="45.71947" lon="6.46631">
        <ele>859</ele>
        <time>2022-07-17T06:59:24Z</time>
      </trkpt>
      <trkpt lat="45.71946" lon="6.4663">
        <ele>859</ele>
        <time>2022-07-17T06:59:27Z</time>
      </trkpt>
      <trkpt lat="45.71946" lon="6.46629">
        <ele>858</ele>
        <time>2022-07-17T06:59:28Z</time>
      </trkpt>
      <trkpt lat="45.71945" lon="6.46628">
        <ele>857</ele>
        <time>2022-07-17T06:59:30Z</time>
      </trkpt>
      <trkpt lat="45.71945" lon="6.46627">
        <ele>857</ele>
        <time>2022-07-17T06:59:32Z</time>
      </trkpt>
      <trkpt lat="45.71944" lon="6.46627">
        <ele>857</ele>
        <time>2022-07-17T06:59:33Z</time>
      </trkpt>
      <trkpt lat="45.71944" lon="6.46626">
        <ele>857</ele>
        <time>2022-07-17T06:59:34Z</time>
      </trkpt>
      <trkpt lat="45.71943" lon="6.46625">
        <ele>855</ele>
        <time>2022-07-17T06:59:36Z</time>
      </trkpt>
      <trkpt lat="45.71943" lon="6.46624">
        <ele>855</ele>
        <time>2022-07-17T06:59:37Z</time>
      </trkpt>
      <trkpt lat="45.71942" lon="6.46623">
        <ele>855</ele>
        <time>2022-07-17T06:59:39Z</time>
      </trkpt>
      <trkpt lat="45.71942" lon="6.46621">
        <ele>854</ele>
        <time>2022-07-17T06:59:40Z</time>
      </trkpt>
      <trkpt lat="45.71943" lon="6.46619">
        <ele>854</ele>
        <time>2022-07-17T06:59:41Z</time>
      </trkpt>
      <trkpt lat="45.71943" lon="6.46616">
        <ele>853</ele>
        <time>2022-07-17T06:59:42Z</time>
      </trkpt>
      <trkpt lat="45.71943" lon="6.46614">
        <ele>853</ele>
        <time>2022-07-17T06:59:43Z</time>
      </trkpt>
      <trkpt lat="45.71943" lon="6.46612">
        <ele>852</ele>
        <time>2022-07-17T06:59:44Z</time>
      </trkpt>
      <trkpt lat="45.71944" lon="6.46609">
        <ele>852</ele>
        <time>2022-07-17T06:59:45Z</time>
      </trkpt>
      <trkpt lat="45.71944" lon="6.46608">
        <ele>852</ele>
        <time>2022-07-17T06:59:46Z</time>
      </trkpt>
      <trkpt lat="45.71945" lon="6.46606">
        <ele>852</ele>
        <time>2022-07-17T06:59:47Z</time>
      </trkpt>
      <trkpt lat="45.71945" lon="6.46604">
        <ele>851</ele>
        <time>2022-07-17T06:59:48Z</time>
      </trkpt>
      <trkpt lat="45.71946" lon="6.46602">
        <ele>851</ele>
        <time>2022-07-17T06:59:49Z</time>
      </trkpt>
      <trkpt lat="45.71947" lon="6.46601">
        <ele>851</ele>
        <time>2022-07-17T06:59:50Z</time>
      </trkpt>
      <trkpt lat="45.71947" lon="6.46599">
        <ele>850</ele>
        <time>2022-07-17T06:59:51Z</time>
      </trkpt>
      <trkpt lat="45.71948" lon="6.46597">
        <ele>850</ele>
        <time>2022-07-17T06:59:52Z</time>
      </trkpt>
      <trkpt lat="45.71948" lon="6.46595">
        <ele>850</ele>
        <time>2022-07-17T06:59:53Z</time>
      </trkpt>
      <trkpt lat="45.71948" lon="6.46594">
        <ele>850</ele>
        <time>2022-07-17T06:59:54Z</time>
      </trkpt>
      <trkpt lat="45.71948" lon="6.46592">
        <ele>849</ele>
        <time>2022-07-17T06:59:55Z</time>
      </trkpt>
      <trkpt lat="45.71948" lon="6.4659">
        <ele>849</ele>
        <time>2022-07-17T06:59:56Z</time>
      </trkpt>
      <trkpt lat="45.71948" lon="6.46588">
        <ele>849</ele>
        <time>2022-07-17T06:59:57Z</time>
      </trkpt>
      <trkpt lat="45.71948" lon="6.46586">
        <ele>849</ele>
        <time>2022-07-17T06:59:58Z</time>
      </trkpt>
      <trkpt lat="45.71948" lon="6.46584">
        <ele>848</ele>
        <time>2022-07-17T06:59:59Z</time>
      </trkpt>
      <trkpt lat="45.71948" lon="6.46582">
        <ele>848</ele>
        <time>2022-07-17T07:00:00Z</time>
      </trkpt>
      <trkpt lat="45.71948" lon="6.46581">
        <ele>848</ele>
        <time>2022-07-17T07:00:01Z</time>
      </trkpt>
      <trkpt lat="45.71949" lon="6.4658">
        <ele>847</ele>
        <time>2022-07-17T07:00:02Z</time>
      </trkpt>
      <trkpt lat="45.71949" lon="6.46578">
        <ele>846</ele>
        <time>2022-07-17T07:00:03Z</time>
      </trkpt>
      <trkpt lat="45.71949" lon="6.46577">
        <ele>846</ele>
        <time>2022-07-17T07:00:04Z</time>
      </trkpt>
      <trkpt lat="45.71949" lon="6.46576">
        <ele>846</ele>
        <time>2022-07-17T07:00:05Z</time>
      </trkpt>
      <trkpt lat="45.71949" lon="6.46575">
        <ele>846</ele>
        <time>2022-07-17T07:00:06Z</time>
      </trkpt>
      <trkpt lat="45.71949" lon="6.46573">
        <ele>846</ele>
        <time>2022-07-17T07:00:07Z</time>
      </trkpt>
      <trkpt lat="45.71949" lon="6.46572">
        <ele>845</ele>
        <time>2022-07-17T07:00:08Z</time>
      </trkpt>
      <trkpt lat="45.71949" lon="6.46571">
        <ele>845</ele>
        <time>2022-07-17T07:00:09Z</time>
      </trkpt>
      <trkpt lat="45.7195" lon="6.46569">
        <ele>845</ele>
        <time>2022-07-17T07:00:10Z</time>
      </trkpt>
      <trkpt lat="45.7195" lon="6.46567">
        <ele>845</ele>
        <time>2022-07-17T07:00:11Z</time>
      </trkpt>
      <trkpt lat="45.71951" lon="6.46565">
        <ele>844</ele>
        <time>2022-07-17T07:00:12Z</time>
      </trkpt>
      <trkpt lat="45.71952" lon="6.46563">
        <ele>844</ele>
        <time>2022-07-17T07:00:13Z</time>
      </trkpt>
      <trkpt lat="45.71953" lon="6.46561">
        <ele>843</ele>
        <time>2022-07-17T07:00:14Z</time>
      </trkpt>
      <trkpt lat="45.71954" lon="6.46559">
        <ele>843</ele>
        <time>2022-07-17T07:00:15Z</time>
      </trkpt>
      <trkpt lat="45.71954" lon="6.46557">
        <ele>842</ele>
        <time>2022-07-17T07:00:16Z</time>
      </trkpt>
      <trkpt lat="45.71955" lon="6.46556">
        <ele>842</ele>
        <time>2022-07-17T07:00:17Z</time>
      </trkpt>
      <trkpt lat="45.71955" lon="6.46555">
        <ele>842</ele>
        <time>2022-07-17T07:00:18Z</time>
      </trkpt>
      <trkpt lat="45.71956" lon="6.46554">
        <ele>842</ele>
        <time>2022-07-17T07:00:19Z</time>
      </trkpt>
      <trkpt lat="45.71957" lon="6.46552">
        <ele>842</ele>
        <time>2022-07-17T07:00:20Z</time>
      </trkpt>
      <trkpt lat="45.71957" lon="6.46551">
        <ele>842</ele>
        <time>2022-07-17T07:00:21Z</time>
      </trkpt>
      <trkpt lat="45.71958" lon="6.4655">
        <ele>841</ele>
        <time>2022-07-17T07:00:22Z</time>
      </trkpt>
      <trkpt lat="45.71958" lon="6.46549">
        <ele>841</ele>
        <time>2022-07-17T07:00:23Z</time>
      </trkpt>
      <trkpt lat="45.71959" lon="6.46547">
        <ele>841</ele>
        <time>2022-07-17T07:00:24Z</time>
      </trkpt>
      <trkpt lat="45.71959" lon="6.46546">
        <ele>841</ele>
        <time>2022-07-17T07:00:25Z</time>
      </trkpt>
      <trkpt lat="45.71959" lon="6.46547">
        <ele>841</ele>
        <time>2022-07-17T07:00:26Z</time>
      </trkpt>
      <trkpt lat="45.71959" lon="6.46548">
        <ele>840</ele>
        <time>2022-07-17T07:00:28Z</time>
      </trkpt>
      <trkpt lat="45.71958" lon="6.46548">
        <ele>839</ele>
        <time>2022-07-17T07:00:29Z</time>
      </trkpt>
      <trkpt lat="45.71958" lon="6.46549">
        <ele>839</ele>
        <time>2022-07-17T07:00:30Z</time>
      </trkpt>
      <trkpt lat="45.71958" lon="6.4655">
        <ele>838</ele>
        <time>2022-07-17T07:00:32Z</time>
      </trkpt>
      <trkpt lat="45.71957" lon="6.46551">
        <ele>838</ele>
        <time>2022-07-17T07:00:33Z</time>
      </trkpt>
      <trkpt lat="45.71957" lon="6.46552">
        <ele>836</ele>
        <time>2022-07-17T07:00:35Z</time>
      </trkpt>
      <trkpt lat="45.71957" lon="6.46553">
        <ele>835</ele>
        <time>2022-07-17T07:00:37Z</time>
      </trkpt>
      <trkpt lat="45.71956" lon="6.46553">
        <ele>835</ele>
        <time>2022-07-17T07:00:38Z</time>
      </trkpt>
      <trkpt lat="45.71956" lon="6.46554">
        <ele>835</ele>
        <time>2022-07-17T07:00:39Z</time>
      </trkpt>
      <trkpt lat="45.71956" lon="6.46555">
        <ele>834</ele>
        <time>2022-07-17T07:00:41Z</time>
      </trkpt>
      <trkpt lat="45.71956" lon="6.46556">
        <ele>834</ele>
        <time>2022-07-17T07:00:42Z</time>
      </trkpt>
      <trkpt lat="45.71955" lon="6.46556">
        <ele>833</ele>
        <time>2022-07-17T07:00:43Z</time>
      </trkpt>
      <trkpt lat="45.71955" lon="6.46557">
        <ele>833</ele>
        <time>2022-07-17T07:00:44Z</time>
      </trkpt>
      <trkpt lat="45.71955" lon="6.46558">
        <ele>833</ele>
        <time>2022-07-17T07:00:46Z</time>
      </trkpt>
      <trkpt lat="45.71954" lon="6.46558">
        <ele>833</ele>
        <time>2022-07-17T07:00:47Z</time>
      </trkpt>
      <trkpt lat="45.71953" lon="6.46559">
        <ele>833</ele>
        <time>2022-07-17T07:00:48Z</time>
      </trkpt>
      <trkpt lat="45.71952" lon="6.46559">
        <ele>833</ele>
        <time>2022-07-17T07:00:49Z</time>
      </trkpt>
      <trkpt lat="45.71951" lon="6.46559">
        <ele>832</ele>
        <time>2022-07-17T07:00:50Z</time>
      </trkpt>
      <trkpt lat="45.7195" lon="6.4656">
        <ele>832</ele>
        <time>2022-07-17T07:00:51Z</time>
      </trkpt>
      <trkpt lat="45.71949" lon="6.4656">
        <ele>831</ele>
        <time>2022-07-17T07:00:53Z</time>
      </trkpt>
      <trkpt lat="45.71948" lon="6.46561">
        <ele>831</ele>
        <time>2022-07-17T07:00:54Z</time>
      </trkpt>
      <trkpt lat="45.71947" lon="6.46561">
        <ele>831</ele>
        <time>2022-07-17T07:00:55Z</time>
      </trkpt>
      <trkpt lat="45.71946" lon="6.46562">
        <ele>830</ele>
        <time>2022-07-17T07:00:56Z</time>
      </trkpt>
      <trkpt lat="45.71945" lon="6.46562">
        <ele>829</ele>
        <time>2022-07-17T07:00:57Z</time>
      </trkpt>
      <trkpt lat="45.71944" lon="6.46562">
        <ele>829</ele>
        <time>2022-07-17T07:00:58Z</time>
      </trkpt>
      <trkpt lat="45.71941" lon="6.46561">
        <ele>829</ele>
        <time>2022-07-17T07:00:59Z</time>
      </trkpt>
      <trkpt lat="45.71938" lon="6.46561">
        <ele>828</ele>
        <time>2022-07-17T07:01:01Z</time>
      </trkpt>
      <trkpt lat="45.71936" lon="6.4656">
        <ele>827</ele>
        <time>2022-07-17T07:01:02Z</time>
      </trkpt>
      <trkpt lat="45.71934" lon="6.46559">
        <ele>826</ele>
        <time>2022-07-17T07:01:03Z</time>
      </trkpt>
      <trkpt lat="45.71933" lon="6.46558">
        <ele>826</ele>
        <time>2022-07-17T07:01:04Z</time>
      </trkpt>
      <trkpt lat="45.71931" lon="6.46556">
        <ele>826</ele>
        <time>2022-07-17T07:01:05Z</time>
      </trkpt>
      <trkpt lat="45.7193" lon="6.46555">
        <ele>825</ele>
        <time>2022-07-17T07:01:06Z</time>
      </trkpt>
      <trkpt lat="45.71928" lon="6.46554">
        <ele>825</ele>
        <time>2022-07-17T07:01:07Z</time>
      </trkpt>
      <trkpt lat="45.71927" lon="6.46553">
        <ele>824</ele>
        <time>2022-07-17T07:01:08Z</time>
      </trkpt>
      <trkpt lat="45.71927" lon="6.46551">
        <ele>824</ele>
        <time>2022-07-17T07:01:09Z</time>
      </trkpt>
      <trkpt lat="45.71927" lon="6.46548">
        <ele>824</ele>
        <time>2022-07-17T07:01:10Z</time>
      </trkpt>
      <trkpt lat="45.71927" lon="6.46545">
        <ele>823</ele>
        <time>2022-07-17T07:01:11Z</time>
      </trkpt>
      <trkpt lat="45.71927" lon="6.46543">
        <ele>823</ele>
        <time>2022-07-17T07:01:12Z</time>
      </trkpt>
      <trkpt lat="45.71927" lon="6.4654">
        <ele>823</ele>
        <time>2022-07-17T07:01:13Z</time>
      </trkpt>
      <trkpt lat="45.71928" lon="6.46538">
        <ele>823</ele>
        <time>2022-07-17T07:01:14Z</time>
      </trkpt>
      <trkpt lat="45.71929" lon="6.46536">
        <ele>822</ele>
        <time>2022-07-17T07:01:15Z</time>
      </trkpt>
      <trkpt lat="45.71929" lon="6.46534">
        <ele>822</ele>
        <time>2022-07-17T07:01:16Z</time>
      </trkpt>
      <trkpt lat="45.7193" lon="6.46532">
        <ele>821</ele>
        <time>2022-07-17T07:01:17Z</time>
      </trkpt>
      <trkpt lat="45.71931" lon="6.4653">
        <ele>821</ele>
        <time>2022-07-17T07:01:18Z</time>
      </trkpt>
      <trkpt lat="45.71932" lon="6.46528">
        <ele>821</ele>
        <time>2022-07-17T07:01:19Z</time>
      </trkpt>
      <trkpt lat="45.71933" lon="6.46526">
        <ele>821</ele>
        <time>2022-07-17T07:01:20Z</time>
      </trkpt>
      <trkpt lat="45.71934" lon="6.46524">
        <ele>821</ele>
        <time>2022-07-17T07:01:21Z</time>
      </trkpt>
      <trkpt lat="45.71935" lon="6.46523">
        <ele>820</ele>
        <time>2022-07-17T07:01:22Z</time>
      </trkpt>
      <trkpt lat="45.71936" lon="6.46521">
        <ele>819</ele>
        <time>2022-07-17T07:01:23Z</time>
      </trkpt>
      <trkpt lat="45.71938" lon="6.4652">
        <ele>819</ele>
        <time>2022-07-17T07:01:24Z</time>
      </trkpt>
      <trkpt lat="45.71939" lon="6.46518">
        <ele>818</ele>
        <time>2022-07-17T07:01:25Z</time>
      </trkpt>
      <trkpt lat="45.71939" lon="6.46517">
        <ele>818</ele>
        <time>2022-07-17T07:01:26Z</time>
      </trkpt>
      <trkpt lat="45.71939" lon="6.46516">
        <ele>817</ele>
        <time>2022-07-17T07:01:27Z</time>
      </trkpt>
      <trkpt lat="45.71939" lon="6.46514">
        <ele>817</ele>
        <time>2022-07-17T07:01:28Z</time>
      </trkpt>
      <trkpt lat="45.71939" lon="6.46513">
        <ele>817</ele>
        <time>2022-07-17T07:01:29Z</time>
      </trkpt>
      <trkpt lat="45.7194" lon="6.46512">
        <ele>816</ele>
        <time>2022-07-17T07:01:30Z</time>
      </trkpt>
      <trkpt lat="45.7194" lon="6.4651">
        <ele>815</ele>
        <time>2022-07-17T07:01:31Z</time>
      </trkpt>
      <trkpt lat="45.7194" lon="6.46509">
        <ele>815</ele>
        <time>2022-07-17T07:01:32Z</time>
      </trkpt>
      <trkpt lat="45.7194" lon="6.46508">
        <ele>815</ele>
        <time>2022-07-17T07:01:33Z</time>
      </trkpt>
      <trkpt lat="45.7194" lon="6.46506">
        <ele>814</ele>
        <time>2022-07-17T07:01:34Z</time>
      </trkpt>
      <trkpt lat="45.71941" lon="6.46505">
        <ele>814</ele>
        <time>2022-07-17T07:01:35Z</time>
      </trkpt>
      <trkpt lat="45.71941" lon="6.46503">
        <ele>814</ele>
        <time>2022-07-17T07:01:36Z</time>
      </trkpt>
      <trkpt lat="45.71941" lon="6.46502">
        <ele>814</ele>
        <time>2022-07-17T07:01:37Z</time>
      </trkpt>
      <trkpt lat="45.71941" lon="6.465">
        <ele>814</ele>
        <time>2022-07-17T07:01:38Z</time>
      </trkpt>
      <trkpt lat="45.71941" lon="6.46499">
        <ele>814</ele>
        <time>2022-07-17T07:01:39Z</time>
      </trkpt>
      <trkpt lat="45.71942" lon="6.46497">
        <ele>813</ele>
        <time>2022-07-17T07:01:40Z</time>
      </trkpt>
      <trkpt lat="45.71942" lon="6.46495">
        <ele>812</ele>
        <time>2022-07-17T07:01:41Z</time>
      </trkpt>
      <trkpt lat="45.71942" lon="6.46494">
        <ele>812</ele>
        <time>2022-07-17T07:01:42Z</time>
      </trkpt>
      <trkpt lat="45.71942" lon="6.46492">
        <ele>812</ele>
        <time>2022-07-17T07:01:43Z</time>
      </trkpt>
      <trkpt lat="45.71942" lon="6.4649">
        <ele>812</ele>
        <time>2022-07-17T07:01:44Z</time>
      </trkpt>
      <trkpt lat="45.71942" lon="6.46488">
        <ele>811</ele>
        <time>2022-07-17T07:01:45Z</time>
      </trkpt>
      <trkpt lat="45.71942" lon="6.46486">
        <ele>811</ele>
        <time>2022-07-17T07:01:46Z</time>
      </trkpt>
      <trkpt lat="45.71942" lon="6.46485">
        <ele>811</ele>
        <time>2022-07-17T07:01:47Z</time>
      </trkpt>
      <trkpt lat="45.71942" lon="6.46483">
        <ele>810</ele>
        <time>2022-07-17T07:01:48Z</time>
      </trkpt>
      <trkpt lat="45.71942" lon="6.46481">
        <ele>810</ele>
        <time>2022-07-17T07:01:49Z</time>
      </trkpt>
      <trkpt lat="45.71942" lon="6.46479">
        <ele>810</ele>
        <time>2022-07-17T07:01:50Z</time>
      </trkpt>
      <trkpt lat="45.71943" lon="6.46476">
        <ele>809</ele>
        <time>2022-07-17T07:01:51Z</time>
      </trkpt>
      <trkpt lat="45.71943" lon="6.46474">
        <ele>809</ele>
        <time>2022-07-17T07:01:52Z</time>
      </trkpt>
      <trkpt lat="45.71944" lon="6.46471">
        <ele>809</ele>
        <time>2022-07-17T07:01:53Z</time>
      </trkpt>
      <trkpt lat="45.71944" lon="6.46468">
        <ele>808</ele>
        <time>2022-07-17T07:01:54Z</time>
      </trkpt>
      <trkpt lat="45.71945" lon="6.46465">
        <ele>808</ele>
        <time>2022-07-17T07:01:55Z</time>
      </trkpt>
      <trkpt lat="45.71945" lon="6.46464">
        <ele>808</ele>
        <time>2022-07-17T07:01:56Z</time>
      </trkpt>
      <trkpt lat="45.71946" lon="6.46462">
        <ele>808</ele>
        <time>2022-07-17T07:01:57Z</time>
      </trkpt>
      <trkpt lat="45.71946" lon="6.4646">
        <ele>808</ele>
        <time>2022-07-17T07:01:58Z</time>
      </trkpt>
      <trkpt lat="45.71946" lon="6.46459">
        <ele>807</ele>
        <time>2022-07-17T07:01:59Z</time>
      </trkpt>
      <trkpt lat="45.71946" lon="6.46457">
        <ele>806</ele>
        <time>2022-07-17T07:02:00Z</time>
      </trkpt>
      <trkpt lat="45.71947" lon="6.46455">
        <ele>806</ele>
        <time>2022-07-17T07:02:01Z</time>
      </trkpt>
      <trkpt lat="45.71947" lon="6.46454">
        <ele>806</ele>
        <time>2022-07-17T07:02:02Z</time>
      </trkpt>
      <trkpt lat="45.71947" lon="6.46452">
        <ele>806</ele>
        <time>2022-07-17T07:02:03Z</time>
      </trkpt>
      <trkpt lat="45.71947" lon="6.46451">
        <ele>806</ele>
        <time>2022-07-17T07:02:04Z</time>
      </trkpt>
      <trkpt lat="45.71948" lon="6.46449">
        <ele>806</ele>
        <time>2022-07-17T07:02:05Z</time>
      </trkpt>
      <trkpt lat="45.71948" lon="6.46448">
        <ele>805</ele>
        <time>2022-07-17T07:02:06Z</time>
      </trkpt>
      <trkpt lat="45.71948" lon="6.46446">
        <ele>805</ele>
        <time>2022-07-17T07:02:07Z</time>
      </trkpt>
      <trkpt lat="45.71948" lon="6.46445">
        <ele>805</ele>
        <time>2022-07-17T07:02:08Z</time>
      </trkpt>
      <trkpt lat="45.71949" lon="6.46444">
        <ele>805</ele>
        <time>2022-07-17T07:02:09Z</time>
      </trkpt>
      <trkpt lat="45.71949" lon="6.46442">
        <ele>805</ele>
        <time>2022-07-17T07:02:10Z</time>
      </trkpt>
      <trkpt lat="45.71949" lon="6.46441">
        <ele>805</ele>
        <time>2022-07-17T07:02:11Z</time>
      </trkpt>
      <trkpt lat="45.71949" lon="6.46439">
        <ele>804</ele>
        <time>2022-07-17T07:02:12Z</time>
      </trkpt>
      <trkpt lat="45.71949" lon="6.46438">
        <ele>804</ele>
        <time>2022-07-17T07:02:13Z</time>
      </trkpt>
      <trkpt lat="45.71949" lon="6.46437">
        <ele>803</ele>
        <time>2022-07-17T07:02:14Z</time>
      </trkpt>
      <trkpt lat="45.71949" lon="6.46436">
        <ele>803</ele>
        <time>2022-07-17T07:02:15Z</time>
      </trkpt>
      <trkpt lat="45.71949" lon="6.46435">
        <ele>803</ele>
        <time>2022-07-17T07:02:17Z</time>
      </trkpt>
      <trkpt lat="45.71949" lon="6.46433">
        <ele>802</ele>
        <time>2022-07-17T07:02:18Z</time>
      </trkpt>
      <trkpt lat="45.71949" lon="6.46432">
        <ele>801</ele>
        <time>2022-07-17T07:02:19Z</time>
      </trkpt>
      <trkpt lat="45.71949" lon="6.46423">
        <ele>801</ele>
        <time>2022-07-17T07:02:20Z</time>
      </trkpt>
      <trkpt lat="45.71949" lon="6.46421">
        <ele>801</ele>
        <time>2022-07-17T07:02:21Z</time>
      </trkpt>
      <trkpt lat="45.71949" lon="6.46419">
        <ele>801</ele>
        <time>2022-07-17T07:02:22Z</time>
      </trkpt>
      <trkpt lat="45.7195" lon="6.46417">
        <ele>801</ele>
        <time>2022-07-17T07:02:23Z</time>
      </trkpt>
      <trkpt lat="45.7195" lon="6.46415">
        <ele>800</ele>
        <time>2022-07-17T07:02:24Z</time>
      </trkpt>
      <trkpt lat="45.7195" lon="6.46413">
        <ele>800</ele>
        <time>2022-07-17T07:02:25Z</time>
      </trkpt>
      <trkpt lat="45.7195" lon="6.46411">
        <ele>800</ele>
        <time>2022-07-17T07:02:26Z</time>
      </trkpt>
      <trkpt lat="45.71951" lon="6.46409">
        <ele>799</ele>
        <time>2022-07-17T07:02:27Z</time>
      </trkpt>
      <trkpt lat="45.71951" lon="6.46408">
        <ele>799</ele>
        <time>2022-07-17T07:02:28Z</time>
      </trkpt>
      <trkpt lat="45.71951" lon="6.46406">
        <ele>798</ele>
        <time>2022-07-17T07:02:29Z</time>
      </trkpt>
      <trkpt lat="45.71952" lon="6.46404">
        <ele>798</ele>
        <time>2022-07-17T07:02:30Z</time>
      </trkpt>
      <trkpt lat="45.71952" lon="6.46403">
        <ele>797</ele>
        <time>2022-07-17T07:02:31Z</time>
      </trkpt>
      <trkpt lat="45.71952" lon="6.46401">
        <ele>796</ele>
        <time>2022-07-17T07:02:32Z</time>
      </trkpt>
      <trkpt lat="45.71953" lon="6.464">
        <ele>796</ele>
        <time>2022-07-17T07:02:33Z</time>
      </trkpt>
      <trkpt lat="45.71953" lon="6.46398">
        <ele>796</ele>
        <time>2022-07-17T07:02:34Z</time>
      </trkpt>
      <trkpt lat="45.71953" lon="6.46397">
        <ele>796</ele>
        <time>2022-07-17T07:02:35Z</time>
      </trkpt>
      <trkpt lat="45.71953" lon="6.46396">
        <ele>796</ele>
        <time>2022-07-17T07:02:36Z</time>
      </trkpt>
      <trkpt lat="45.71953" lon="6.46395">
        <ele>796</ele>
        <time>2022-07-17T07:02:37Z</time>
      </trkpt>
      <trkpt lat="45.71953" lon="6.46393">
        <ele>795</ele>
        <time>2022-07-17T07:02:38Z</time>
      </trkpt>
      <trkpt lat="45.71953" lon="6.46392">
        <ele>795</ele>
        <time>2022-07-17T07:02:39Z</time>
      </trkpt>
      <trkpt lat="45.71953" lon="6.46391">
        <ele>794</ele>
        <time>2022-07-17T07:02:40Z</time>
      </trkpt>
      <trkpt lat="45.71953" lon="6.4639">
        <ele>794</ele>
        <time>2022-07-17T07:02:41Z</time>
      </trkpt>
      <trkpt lat="45.71953" lon="6.46389">
        <ele>794</ele>
        <time>2022-07-17T07:02:42Z</time>
      </trkpt>
      <trkpt lat="45.71953" lon="6.46387">
        <ele>793</ele>
        <time>2022-07-17T07:02:43Z</time>
      </trkpt>
      <trkpt lat="45.71953" lon="6.46386">
        <ele>793</ele>
        <time>2022-07-17T07:02:44Z</time>
      </trkpt>
      <trkpt lat="45.71953" lon="6.46385">
        <ele>793</ele>
        <time>2022-07-17T07:02:45Z</time>
      </trkpt>
      <trkpt lat="45.71954" lon="6.46384">
        <ele>792</ele>
        <time>2022-07-17T07:02:46Z</time>
      </trkpt>
      <trkpt lat="45.71955" lon="6.46383">
        <ele>792</ele>
        <time>2022-07-17T07:02:47Z</time>
      </trkpt>
      <trkpt lat="45.71956" lon="6.46381">
        <ele>792</ele>
        <time>2022-07-17T07:02:48Z</time>
      </trkpt>
      <trkpt lat="45.71956" lon="6.4638">
        <ele>791</ele>
        <time>2022-07-17T07:02:49Z</time>
      </trkpt>
      <trkpt lat="45.71957" lon="6.46379">
        <ele>791</ele>
        <time>2022-07-17T07:02:50Z</time>
      </trkpt>
      <trkpt lat="45.71958" lon="6.46377">
        <ele>790</ele>
        <time>2022-07-17T07:02:51Z</time>
      </trkpt>
      <trkpt lat="45.71959" lon="6.46376">
        <ele>790</ele>
        <time>2022-07-17T07:02:52Z</time>
      </trkpt>
      <trkpt lat="45.7196" lon="6.46375">
        <ele>790</ele>
        <time>2022-07-17T07:02:53Z</time>
      </trkpt>
      <trkpt lat="45.7196" lon="6.46373">
        <ele>790</ele>
        <time>2022-07-17T07:02:55Z</time>
      </trkpt>
      <trkpt lat="45.71961" lon="6.46371">
        <ele>789</ele>
        <time>2022-07-17T07:02:56Z</time>
      </trkpt>
      <trkpt lat="45.71962" lon="6.46369">
        <ele>788</ele>
        <time>2022-07-17T07:02:57Z</time>
      </trkpt>
      <trkpt lat="45.71962" lon="6.46368">
        <ele>788</ele>
        <time>2022-07-17T07:02:58Z</time>
      </trkpt>
      <trkpt lat="45.71963" lon="6.46366">
        <ele>788</ele>
        <time>2022-07-17T07:02:59Z</time>
      </trkpt>
      <trkpt lat="45.71963" lon="6.46364">
        <ele>788</ele>
        <time>2022-07-17T07:03:00Z</time>
      </trkpt>
      <trkpt lat="45.71964" lon="6.46362">
        <ele>787</ele>
        <time>2022-07-17T07:03:01Z</time>
      </trkpt>
      <trkpt lat="45.71965" lon="6.46361">
        <ele>787</ele>
        <time>2022-07-17T07:03:02Z</time>
      </trkpt>
      <trkpt lat="45.71966" lon="6.46359">
        <ele>787</ele>
        <time>2022-07-17T07:03:03Z</time>
      </trkpt>
      <trkpt lat="45.71966" lon="6.46357">
        <ele>787</ele>
        <time>2022-07-17T07:03:04Z</time>
      </trkpt>
      <trkpt lat="45.71967" lon="6.46356">
        <ele>787</ele>
        <time>2022-07-17T07:03:05Z</time>
      </trkpt>
      <trkpt lat="45.71968" lon="6.46354">
        <ele>787</ele>
        <time>2022-07-17T07:03:06Z</time>
      </trkpt>
      <trkpt lat="45.71969" lon="6.46352">
        <ele>787</ele>
        <time>2022-07-17T07:03:07Z</time>
      </trkpt>
      <trkpt lat="45.71969" lon="6.46351">
        <ele>787</ele>
        <time>2022-07-17T07:03:08Z</time>
      </trkpt>
      <trkpt lat="45.71976" lon="6.46339">
        <ele>785</ele>
        <time>2022-07-17T07:03:12Z</time>
      </trkpt>
      <trkpt lat="45.71977" lon="6.46336">
        <ele>783</ele>
        <time>2022-07-17T07:03:15Z</time>
      </trkpt>
      <trkpt lat="45.71978" lon="6.46334">
        <ele>783</ele>
        <time>2022-07-17T07:03:16Z</time>
      </trkpt>
      <trkpt lat="45.71979" lon="6.46331">
        <ele>783</ele>
        <time>2022-07-17T07:03:17Z</time>
      </trkpt>
      <trkpt lat="45.7198" lon="6.46329">
        <ele>783</ele>
        <time>2022-07-17T07:03:18Z</time>
      </trkpt>
      <trkpt lat="45.71981" lon="6.46327">
        <ele>783</ele>
        <time>2022-07-17T07:03:19Z</time>
      </trkpt>
      <trkpt lat="45.71983" lon="6.46325">
        <ele>783</ele>
        <time>2022-07-17T07:03:20Z</time>
      </trkpt>
      <trkpt lat="45.71985" lon="6.46323">
        <ele>782</ele>
        <time>2022-07-17T07:03:21Z</time>
      </trkpt>
      <trkpt lat="45.71986" lon="6.46322">
        <ele>782</ele>
        <time>2022-07-17T07:03:22Z</time>
      </trkpt>
      <trkpt lat="45.71988" lon="6.4632">
        <ele>782</ele>
        <time>2022-07-17T07:03:23Z</time>
      </trkpt>
      <trkpt lat="45.7199" lon="6.46319">
        <ele>782</ele>
        <time>2022-07-17T07:03:24Z</time>
      </trkpt>
      <trkpt lat="45.71991" lon="6.46318">
        <ele>782</ele>
        <time>2022-07-17T07:03:25Z</time>
      </trkpt>
      <trkpt lat="45.71992" lon="6.46317">
        <ele>782</ele>
        <time>2022-07-17T07:03:26Z</time>
      </trkpt>
      <trkpt lat="45.71993" lon="6.46316">
        <ele>782</ele>
        <time>2022-07-17T07:03:27Z</time>
      </trkpt>
      <trkpt lat="45.71994" lon="6.46315">
        <ele>782</ele>
        <time>2022-07-17T07:03:28Z</time>
      </trkpt>
      <trkpt lat="45.71995" lon="6.46315">
        <ele>782</ele>
        <time>2022-07-17T07:03:29Z</time>
      </trkpt>
      <trkpt lat="45.71997" lon="6.46314">
        <ele>782</ele>
        <time>2022-07-17T07:03:31Z</time>
      </trkpt>
      <trkpt lat="45.71999" lon="6.46312">
        <ele>782</ele>
        <time>2022-07-17T07:03:33Z</time>
      </trkpt>
      <trkpt lat="45.72001" lon="6.46311">
        <ele>782</ele>
        <time>2022-07-17T07:03:34Z</time>
      </trkpt>
      <trkpt lat="45.72003" lon="6.4631">
        <ele>783</ele>
        <time>2022-07-17T07:03:36Z</time>
      </trkpt>
      <trkpt lat="45.72004" lon="6.46309">
        <ele>783</ele>
        <time>2022-07-17T07:03:38Z</time>
      </trkpt>
      <trkpt lat="45.72006" lon="6.46308">
        <ele>783</ele>
        <time>2022-07-17T07:03:39Z</time>
      </trkpt>
      <trkpt lat="45.72007" lon="6.46307">
        <ele>783</ele>
        <time>2022-07-17T07:03:40Z</time>
      </trkpt>
      <trkpt lat="45.72008" lon="6.46306">
        <ele>783</ele>
        <time>2022-07-17T07:03:41Z</time>
      </trkpt>
      <trkpt lat="45.72009" lon="6.46304">
        <ele>783</ele>
        <time>2022-07-17T07:03:42Z</time>
      </trkpt>
      <trkpt lat="45.7201" lon="6.46303">
        <ele>783</ele>
        <time>2022-07-17T07:03:43Z</time>
      </trkpt>
      <trkpt lat="45.72011" lon="6.46302">
        <ele>783</ele>
        <time>2022-07-17T07:03:44Z</time>
      </trkpt>
      <trkpt lat="45.72012" lon="6.46301">
        <ele>783</ele>
        <time>2022-07-17T07:03:45Z</time>
      </trkpt>
      <trkpt lat="45.72013" lon="6.463">
        <ele>783</ele>
        <time>2022-07-17T07:03:46Z</time>
      </trkpt>
      <trkpt lat="45.72014" lon="6.46299">
        <ele>783</ele>
        <time>2022-07-17T07:03:47Z</time>
      </trkpt>
      <trkpt lat="45.72015" lon="6.46298">
        <ele>783</ele>
        <time>2022-07-17T07:03:48Z</time>
      </trkpt>
      <trkpt lat="45.72016" lon="6.46297">
        <ele>783</ele>
        <time>2022-07-17T07:03:49Z</time>
      </trkpt>
      <trkpt lat="45.72017" lon="6.46296">
        <ele>783</ele>
        <time>2022-07-17T07:03:50Z</time>
      </trkpt>
      <trkpt lat="45.72018" lon="6.46295">
        <ele>783</ele>
        <time>2022-07-17T07:03:51Z</time>
      </trkpt>
      <trkpt lat="45.72019" lon="6.46294">
        <ele>783</ele>
        <time>2022-07-17T07:03:52Z</time>
      </trkpt>
      <trkpt lat="45.7202" lon="6.46293">
        <ele>783</ele>
        <time>2022-07-17T07:03:53Z</time>
      </trkpt>
      <trkpt lat="45.72021" lon="6.46292">
        <ele>783</ele>
        <time>2022-07-17T07:03:54Z</time>
      </trkpt>
      <trkpt lat="45.72022" lon="6.46291">
        <ele>783</ele>
        <time>2022-07-17T07:03:55Z</time>
      </trkpt>
      <trkpt lat="45.72023" lon="6.46289">
        <ele>783</ele>
        <time>2022-07-17T07:03:56Z</time>
      </trkpt>
      <trkpt lat="45.72024" lon="6.46288">
        <ele>783</ele>
        <time>2022-07-17T07:03:57Z</time>
      </trkpt>
      <trkpt lat="45.72025" lon="6.46287">
        <ele>783</ele>
        <time>2022-07-17T07:03:58Z</time>
      </trkpt>
      <trkpt lat="45.72026" lon="6.46286">
        <ele>783</ele>
        <time>2022-07-17T07:03:59Z</time>
      </trkpt>
      <trkpt lat="45.72027" lon="6.46285">
        <ele>783</ele>
        <time>2022-07-17T07:04:00Z</time>
      </trkpt>
      <trkpt lat="45.72028" lon="6.46284">
        <ele>783</ele>
        <time>2022-07-17T07:04:01Z</time>
      </trkpt>
      <trkpt lat="45.72029" lon="6.46283">
        <ele>783</ele>
        <time>2022-07-17T07:04:02Z</time>
      </trkpt>
      <trkpt lat="45.72031" lon="6.46282">
        <ele>783</ele>
        <time>2022-07-17T07:04:03Z</time>
      </trkpt>
      <trkpt lat="45.72032" lon="6.46281">
        <ele>783</ele>
        <time>2022-07-17T07:04:04Z</time>
      </trkpt>
      <trkpt lat="45.72033" lon="6.4628">
        <ele>783</ele>
        <time>2022-07-17T07:04:05Z</time>
      </trkpt>
      <trkpt lat="45.72034" lon="6.46278">
        <ele>783</ele>
        <time>2022-07-17T07:04:06Z</time>
      </trkpt>
      <trkpt lat="45.72035" lon="6.46277">
        <ele>783</ele>
        <time>2022-07-17T07:04:07Z</time>
      </trkpt>
      <trkpt lat="45.72036" lon="6.46276">
        <ele>783</ele>
        <time>2022-07-17T07:04:08Z</time>
      </trkpt>
      <trkpt lat="45.72037" lon="6.46275">
        <ele>783</ele>
        <time>2022-07-17T07:04:09Z</time>
      </trkpt>
      <trkpt lat="45.72039" lon="6.46274">
        <ele>783</ele>
        <time>2022-07-17T07:04:11Z</time>
      </trkpt>
      <trkpt lat="45.7204" lon="6.46273">
        <ele>783</ele>
        <time>2022-07-17T07:04:12Z</time>
      </trkpt>
      <trkpt lat="45.72041" lon="6.46272">
        <ele>783</ele>
        <time>2022-07-17T07:04:13Z</time>
      </trkpt>
      <trkpt lat="45.72043" lon="6.4627">
        <ele>783</ele>
        <time>2022-07-17T07:04:14Z</time>
      </trkpt>
      <trkpt lat="45.72044" lon="6.46269">
        <ele>783</ele>
        <time>2022-07-17T07:04:15Z</time>
      </trkpt>
      <trkpt lat="45.72046" lon="6.46268">
        <ele>783</ele>
        <time>2022-07-17T07:04:16Z</time>
      </trkpt>
      <trkpt lat="45.72047" lon="6.46267">
        <ele>783</ele>
        <time>2022-07-17T07:04:17Z</time>
      </trkpt>
      <trkpt lat="45.72049" lon="6.46266">
        <ele>783</ele>
        <time>2022-07-17T07:04:18Z</time>
      </trkpt>
      <trkpt lat="45.7205" lon="6.46265">
        <ele>783</ele>
        <time>2022-07-17T07:04:19Z</time>
      </trkpt>
      <trkpt lat="45.72052" lon="6.46263">
        <ele>783</ele>
        <time>2022-07-17T07:04:20Z</time>
      </trkpt>
      <trkpt lat="45.72053" lon="6.46262">
        <ele>783</ele>
        <time>2022-07-17T07:04:22Z</time>
      </trkpt>
      <trkpt lat="45.72054" lon="6.46262">
        <ele>783</ele>
        <time>2022-07-17T07:04:23Z</time>
      </trkpt>
      <trkpt lat="45.72055" lon="6.46261">
        <ele>783</ele>
        <time>2022-07-17T07:04:24Z</time>
      </trkpt>
      <trkpt lat="45.72056" lon="6.46261">
        <ele>783</ele>
        <time>2022-07-17T07:04:25Z</time>
      </trkpt>
      <trkpt lat="45.72057" lon="6.4626">
        <ele>783</ele>
        <time>2022-07-17T07:04:26Z</time>
      </trkpt>
      <trkpt lat="45.72058" lon="6.46259">
        <ele>783</ele>
        <time>2022-07-17T07:04:27Z</time>
      </trkpt>
      <trkpt lat="45.72059" lon="6.46259">
        <ele>783</ele>
        <time>2022-07-17T07:04:28Z</time>
      </trkpt>
      <trkpt lat="45.7206" lon="6.46258">
        <ele>783</ele>
        <time>2022-07-17T07:04:29Z</time>
      </trkpt>
      <trkpt lat="45.72061" lon="6.46258">
        <ele>783</ele>
        <time>2022-07-17T07:04:30Z</time>
      </trkpt>
      <trkpt lat="45.72062" lon="6.46257">
        <ele>782</ele>
        <time>2022-07-17T07:04:31Z</time>
      </trkpt>
      <trkpt lat="45.72063" lon="6.46256">
        <ele>783</ele>
        <time>2022-07-17T07:04:32Z</time>
      </trkpt>
      <trkpt lat="45.72064" lon="6.46254">
        <ele>783</ele>
        <time>2022-07-17T07:04:33Z</time>
      </trkpt>
      <trkpt lat="45.72065" lon="6.46253">
        <ele>783</ele>
        <time>2022-07-17T07:04:34Z</time>
      </trkpt>
      <trkpt lat="45.72067" lon="6.46252">
        <ele>783</ele>
        <time>2022-07-17T07:04:35Z</time>
      </trkpt>
      <trkpt lat="45.72068" lon="6.46251">
        <ele>783</ele>
        <time>2022-07-17T07:04:36Z</time>
      </trkpt>
      <trkpt lat="45.72069" lon="6.4625">
        <ele>783</ele>
        <time>2022-07-17T07:04:37Z</time>
      </trkpt>
      <trkpt lat="45.7207" lon="6.46248">
        <ele>783</ele>
        <time>2022-07-17T07:04:38Z</time>
      </trkpt>
      <trkpt lat="45.72071" lon="6.46246">
        <ele>783</ele>
        <time>2022-07-17T07:04:39Z</time>
      </trkpt>
      <trkpt lat="45.72072" lon="6.46245">
        <ele>783</ele>
        <time>2022-07-17T07:04:40Z</time>
      </trkpt>
      <trkpt lat="45.72073" lon="6.46243">
        <ele>783</ele>
        <time>2022-07-17T07:04:41Z</time>
      </trkpt>
      <trkpt lat="45.72074" lon="6.46241">
        <ele>782</ele>
        <time>2022-07-17T07:04:42Z</time>
      </trkpt>
      <trkpt lat="45.72075" lon="6.46239">
        <ele>782</ele>
        <time>2022-07-17T07:04:43Z</time>
      </trkpt>
      <trkpt lat="45.72076" lon="6.46238">
        <ele>782</ele>
        <time>2022-07-17T07:04:44Z</time>
      </trkpt>
      <trkpt lat="45.72077" lon="6.46236">
        <ele>782</ele>
        <time>2022-07-17T07:04:45Z</time>
      </trkpt>
      <trkpt lat="45.72079" lon="6.46235">
        <ele>782</ele>
        <time>2022-07-17T07:04:46Z</time>
      </trkpt>
      <trkpt lat="45.7208" lon="6.46233">
        <ele>782</ele>
        <time>2022-07-17T07:04:47Z</time>
      </trkpt>
      <trkpt lat="45.72081" lon="6.46232">
        <ele>782</ele>
        <time>2022-07-17T07:04:49Z</time>
      </trkpt>
      <trkpt lat="45.72082" lon="6.4623">
        <ele>782</ele>
        <time>2022-07-17T07:04:50Z</time>
      </trkpt>
      <trkpt lat="45.72083" lon="6.46229">
        <ele>782</ele>
        <time>2022-07-17T07:04:51Z</time>
      </trkpt>
      <trkpt lat="45.72084" lon="6.46228">
        <ele>782</ele>
        <time>2022-07-17T07:04:52Z</time>
      </trkpt>
      <trkpt lat="45.72085" lon="6.46226">
        <ele>782</ele>
        <time>2022-07-17T07:04:53Z</time>
      </trkpt>
      <trkpt lat="45.72086" lon="6.46225">
        <ele>782</ele>
        <time>2022-07-17T07:04:54Z</time>
      </trkpt>
      <trkpt lat="45.72087" lon="6.46223">
        <ele>782</ele>
        <time>2022-07-17T07:04:55Z</time>
      </trkpt>
      <trkpt lat="45.72089" lon="6.46222">
        <ele>782</ele>
        <time>2022-07-17T07:04:56Z</time>
      </trkpt>
      <trkpt lat="45.7209" lon="6.4622">
        <ele>782</ele>
        <time>2022-07-17T07:04:57Z</time>
      </trkpt>
      <trkpt lat="45.72091" lon="6.46219">
        <ele>782</ele>
        <time>2022-07-17T07:04:58Z</time>
      </trkpt>
      <trkpt lat="45.72092" lon="6.46218">
        <ele>782</ele>
        <time>2022-07-17T07:04:59Z</time>
      </trkpt>
      <trkpt lat="45.72093" lon="6.46217">
        <ele>782</ele>
        <time>2022-07-17T07:05:00Z</time>
      </trkpt>
      <trkpt lat="45.72094" lon="6.46216">
        <ele>782</ele>
        <time>2022-07-17T07:05:01Z</time>
      </trkpt>
      <trkpt lat="45.72095" lon="6.46215">
        <ele>782</ele>
        <time>2022-07-17T07:05:02Z</time>
      </trkpt>
      <trkpt lat="45.72096" lon="6.46214">
        <ele>782</ele>
        <time>2022-07-17T07:05:03Z</time>
      </trkpt>
      <trkpt lat="45.72097" lon="6.46213">
        <ele>782</ele>
        <time>2022-07-17T07:05:04Z</time>
      </trkpt>
      <trkpt lat="45.72098" lon="6.46212">
        <ele>782</ele>
        <time>2022-07-17T07:05:05Z</time>
      </trkpt>
      <trkpt lat="45.72099" lon="6.46211">
        <ele>782</ele>
        <time>2022-07-17T07:05:06Z</time>
      </trkpt>
      <trkpt lat="45.721" lon="6.4621">
        <ele>782</ele>
        <time>2022-07-17T07:05:07Z</time>
      </trkpt>
      <trkpt lat="45.72102" lon="6.4621">
        <ele>782</ele>
        <time>2022-07-17T07:05:08Z</time>
      </trkpt>
      <trkpt lat="45.72103" lon="6.46209">
        <ele>782</ele>
        <time>2022-07-17T07:05:09Z</time>
      </trkpt>
      <trkpt lat="45.72104" lon="6.46208">
        <ele>782</ele>
        <time>2022-07-17T07:05:10Z</time>
      </trkpt>
      <trkpt lat="45.72105" lon="6.46207">
        <ele>782</ele>
        <time>2022-07-17T07:05:11Z</time>
      </trkpt>
      <trkpt lat="45.72106" lon="6.46206">
        <ele>782</ele>
        <time>2022-07-17T07:05:12Z</time>
      </trkpt>
      <trkpt lat="45.72108" lon="6.46205">
        <ele>782</ele>
        <time>2022-07-17T07:05:13Z</time>
      </trkpt>
      <trkpt lat="45.72109" lon="6.46204">
        <ele>782</ele>
        <time>2022-07-17T07:05:14Z</time>
      </trkpt>
      <trkpt lat="45.7211" lon="6.46202">
        <ele>782</ele>
        <time>2022-07-17T07:05:15Z</time>
      </trkpt>
      <trkpt lat="45.72111" lon="6.46201">
        <ele>782</ele>
        <time>2022-07-17T07:05:16Z</time>
      </trkpt>
      <trkpt lat="45.72113" lon="6.462">
        <ele>782</ele>
        <time>2022-07-17T07:05:17Z</time>
      </trkpt>
      <trkpt lat="45.72114" lon="6.46199">
        <ele>782</ele>
        <time>2022-07-17T07:05:18Z</time>
      </trkpt>
      <trkpt lat="45.72116" lon="6.46197">
        <ele>782</ele>
        <time>2022-07-17T07:05:19Z</time>
      </trkpt>
      <trkpt lat="45.72118" lon="6.46196">
        <ele>782</ele>
        <time>2022-07-17T07:05:20Z</time>
      </trkpt>
      <trkpt lat="45.72119" lon="6.46195">
        <ele>782</ele>
        <time>2022-07-17T07:05:21Z</time>
      </trkpt>
      <trkpt lat="45.72121" lon="6.46193">
        <ele>782</ele>
        <time>2022-07-17T07:05:22Z</time>
      </trkpt>
      <trkpt lat="45.72122" lon="6.46192">
        <ele>782</ele>
        <time>2022-07-17T07:05:23Z</time>
      </trkpt>
      <trkpt lat="45.72123" lon="6.46192">
        <ele>782</ele>
        <time>2022-07-17T07:05:24Z</time>
      </trkpt>
      <trkpt lat="45.72125" lon="6.46191">
        <ele>782</ele>
        <time>2022-07-17T07:05:25Z</time>
      </trkpt>
      <trkpt lat="45.72126" lon="6.4619">
        <ele>782</ele>
        <time>2022-07-17T07:05:26Z</time>
      </trkpt>
      <trkpt lat="45.72127" lon="6.4619">
        <ele>782</ele>
        <time>2022-07-17T07:05:27Z</time>
      </trkpt>
      <trkpt lat="45.72128" lon="6.46189">
        <ele>782</ele>
        <time>2022-07-17T07:05:28Z</time>
      </trkpt>
      <trkpt lat="45.72129" lon="6.46188">
        <ele>782</ele>
        <time>2022-07-17T07:05:29Z</time>
      </trkpt>
      <trkpt lat="45.72136" lon="6.46177">
        <ele>781</ele>
        <time>2022-07-17T07:05:37Z</time>
      </trkpt>
      <trkpt lat="45.72137" lon="6.46176">
        <ele>780</ele>
        <time>2022-07-17T07:05:40Z</time>
      </trkpt>
      <trkpt lat="45.72138" lon="6.46174">
        <ele>780</ele>
        <time>2022-07-17T07:05:41Z</time>
      </trkpt>
      <trkpt lat="45.72139" lon="6.46173">
        <ele>780</ele>
        <time>2022-07-17T07:05:42Z</time>
      </trkpt>
      <trkpt lat="45.72139" lon="6.46171">
        <ele>780</ele>
        <time>2022-07-17T07:05:43Z</time>
      </trkpt>
      <trkpt lat="45.7214" lon="6.4617">
        <ele>780</ele>
        <time>2022-07-17T07:05:44Z</time>
      </trkpt>
      <trkpt lat="45.72141" lon="6.46168">
        <ele>780</ele>
        <time>2022-07-17T07:05:45Z</time>
      </trkpt>
      <trkpt lat="45.72142" lon="6.46167">
        <ele>780</ele>
        <time>2022-07-17T07:05:46Z</time>
      </trkpt>
      <trkpt lat="45.72143" lon="6.46165">
        <ele>778</ele>
        <time>2022-07-17T07:05:47Z</time>
      </trkpt>
      <trkpt lat="45.72144" lon="6.46163">
        <ele>778</ele>
        <time>2022-07-17T07:05:48Z</time>
      </trkpt>
      <trkpt lat="45.72145" lon="6.46162">
        <ele>778</ele>
        <time>2022-07-17T07:05:49Z</time>
      </trkpt>
      <trkpt lat="45.72146" lon="6.4616">
        <ele>778</ele>
        <time>2022-07-17T07:05:50Z</time>
      </trkpt>
      <trkpt lat="45.72147" lon="6.46158">
        <ele>778</ele>
        <time>2022-07-17T07:05:51Z</time>
      </trkpt>
      <trkpt lat="45.72148" lon="6.46156">
        <ele>778</ele>
        <time>2022-07-17T07:05:52Z</time>
      </trkpt>
      <trkpt lat="45.72139" lon="6.46149">
        <ele>776</ele>
        <time>2022-07-17T07:06:03Z</time>
      </trkpt>
      <trkpt lat="45.72139" lon="6.46148">
        <ele>776</ele>
        <time>2022-07-17T07:06:06Z</time>
      </trkpt>
      <trkpt lat="45.72138" lon="6.46147">
        <ele>775</ele>
        <time>2022-07-17T07:06:07Z</time>
      </trkpt>
      <trkpt lat="45.72138" lon="6.46146">
        <ele>775</ele>
        <time>2022-07-17T07:06:08Z</time>
      </trkpt>
      <trkpt lat="45.72137" lon="6.46144">
        <ele>775</ele>
        <time>2022-07-17T07:06:09Z</time>
      </trkpt>
      <trkpt lat="45.72137" lon="6.46143">
        <ele>775</ele>
        <time>2022-07-17T07:06:10Z</time>
      </trkpt>
      <trkpt lat="45.72136" lon="6.46142">
        <ele>775</ele>
        <time>2022-07-17T07:06:11Z</time>
      </trkpt>
      <trkpt lat="45.72136" lon="6.4614">
        <ele>775</ele>
        <time>2022-07-17T07:06:12Z</time>
      </trkpt>
      <trkpt lat="45.72135" lon="6.46139">
        <ele>775</ele>
        <time>2022-07-17T07:06:13Z</time>
      </trkpt>
      <trkpt lat="45.72135" lon="6.46138">
        <ele>774</ele>
        <time>2022-07-17T07:06:14Z</time>
      </trkpt>
      <trkpt lat="45.72135" lon="6.46138">
        <ele>770</ele>
        <time>2022-07-17T07:06:30Z</time>
      </trkpt>
      <trkpt lat="45.72125" lon="6.46136">
        <ele>766</ele>
        <time>2022-07-17T07:06:41Z</time>
      </trkpt>
      <trkpt lat="45.72124" lon="6.46136">
        <ele>765</ele>
        <time>2022-07-17T07:06:44Z</time>
      </trkpt>
      <trkpt lat="45.72123" lon="6.46136">
        <ele>764</ele>
        <time>2022-07-17T07:06:45Z</time>
      </trkpt>
      <trkpt lat="45.72122" lon="6.46136">
        <ele>764</ele>
        <time>2022-07-17T07:06:46Z</time>
      </trkpt>
      <trkpt lat="45.72121" lon="6.46136">
        <ele>764</ele>
        <time>2022-07-17T07:06:47Z</time>
      </trkpt>
      <trkpt lat="45.7212" lon="6.46136">
        <ele>763</ele>
        <time>2022-07-17T07:06:48Z</time>
      </trkpt>
      <trkpt lat="45.72119" lon="6.46136">
        <ele>763</ele>
        <time>2022-07-17T07:06:49Z</time>
      </trkpt>
      <trkpt lat="45.72118" lon="6.46136">
        <ele>763</ele>
        <time>2022-07-17T07:06:50Z</time>
      </trkpt>
      <trkpt lat="45.72117" lon="6.46136">
        <ele>762</ele>
        <time>2022-07-17T07:06:51Z</time>
      </trkpt>
      <trkpt lat="45.72116" lon="6.46136">
        <ele>762</ele>
        <time>2022-07-17T07:06:53Z</time>
      </trkpt>
      <trkpt lat="45.72114" lon="6.46135">
        <ele>761</ele>
        <time>2022-07-17T07:06:54Z</time>
      </trkpt>
      <trkpt lat="45.72113" lon="6.46135">
        <ele>760</ele>
        <time>2022-07-17T07:06:55Z</time>
      </trkpt>
      <trkpt lat="45.72111" lon="6.46134">
        <ele>760</ele>
        <time>2022-07-17T07:06:56Z</time>
      </trkpt>
      <trkpt lat="45.7211" lon="6.46134">
        <ele>760</ele>
        <time>2022-07-17T07:06:57Z</time>
      </trkpt>
      <trkpt lat="45.72108" lon="6.46133">
        <ele>760</ele>
        <time>2022-07-17T07:06:58Z</time>
      </trkpt>
      <trkpt lat="45.72107" lon="6.46133">
        <ele>760</ele>
        <time>2022-07-17T07:06:59Z</time>
      </trkpt>
      <trkpt lat="45.72106" lon="6.46132">
        <ele>759</ele>
        <time>2022-07-17T07:07:00Z</time>
      </trkpt>
      <trkpt lat="45.72105" lon="6.4613">
        <ele>759</ele>
        <time>2022-07-17T07:07:01Z</time>
      </trkpt>
      <trkpt lat="45.72104" lon="6.46127">
        <ele>759</ele>
        <time>2022-07-17T07:07:02Z</time>
      </trkpt>
      <trkpt lat="45.72103" lon="6.46125">
        <ele>759</ele>
        <time>2022-07-17T07:07:03Z</time>
      </trkpt>
      <trkpt lat="45.72102" lon="6.46122">
        <ele>758</ele>
        <time>2022-07-17T07:07:04Z</time>
      </trkpt>
      <trkpt lat="45.72102" lon="6.4612">
        <ele>758</ele>
        <time>2022-07-17T07:07:05Z</time>
      </trkpt>
      <trkpt lat="45.721" lon="6.4612">
        <ele>758</ele>
        <time>2022-07-17T07:07:06Z</time>
      </trkpt>
      <trkpt lat="45.72099" lon="6.46121">
        <ele>758</ele>
        <time>2022-07-17T07:07:07Z</time>
      </trkpt>
      <trkpt lat="45.72098" lon="6.46121">
        <ele>757</ele>
        <time>2022-07-17T07:07:08Z</time>
      </trkpt>
      <trkpt lat="45.72097" lon="6.46121">
        <ele>757</ele>
        <time>2022-07-17T07:07:09Z</time>
      </trkpt>
      <trkpt lat="45.72095" lon="6.46122">
        <ele>757</ele>
        <time>2022-07-17T07:07:10Z</time>
      </trkpt>
      <trkpt lat="45.72094" lon="6.46122">
        <ele>757</ele>
        <time>2022-07-17T07:07:11Z</time>
      </trkpt>
      <trkpt lat="45.72093" lon="6.46123">
        <ele>757</ele>
        <time>2022-07-17T07:07:12Z</time>
      </trkpt>
      <trkpt lat="45.72092" lon="6.46123">
        <ele>757</ele>
        <time>2022-07-17T07:07:13Z</time>
      </trkpt>
      <trkpt lat="45.7209" lon="6.46118">
        <ele>756</ele>
        <time>2022-07-17T07:07:16Z</time>
      </trkpt>
      <trkpt lat="45.7209" lon="6.46114">
        <ele>756</ele>
        <time>2022-07-17T07:07:17Z</time>
      </trkpt>
      <trkpt lat="45.7209" lon="6.46109">
        <ele>756</ele>
        <time>2022-07-17T07:07:19Z</time>
      </trkpt>
      <trkpt lat="45.72089" lon="6.46106">
        <ele>754</ele>
        <time>2022-07-17T07:07:22Z</time>
      </trkpt>
      <trkpt lat="45.72089" lon="6.46107">
        <ele>754</ele>
        <time>2022-07-17T07:07:23Z</time>
      </trkpt>
      <trkpt lat="45.72089" lon="6.46109">
        <ele>754</ele>
        <time>2022-07-17T07:07:24Z</time>
      </trkpt>
      <trkpt lat="45.72088" lon="6.4611">
        <ele>754</ele>
        <time>2022-07-17T07:07:25Z</time>
      </trkpt>
      <trkpt lat="45.72088" lon="6.46111">
        <ele>753</ele>
        <time>2022-07-17T07:07:26Z</time>
      </trkpt>
      <trkpt lat="45.72088" lon="6.46112">
        <ele>753</ele>
        <time>2022-07-17T07:07:27Z</time>
      </trkpt>
      <trkpt lat="45.72087" lon="6.46113">
        <ele>752</ele>
        <time>2022-07-17T07:07:28Z</time>
      </trkpt>
      <trkpt lat="45.72087" lon="6.46114">
        <ele>752</ele>
        <time>2022-07-17T07:07:29Z</time>
      </trkpt>
      <trkpt lat="45.72087" lon="6.46116">
        <ele>751</ele>
        <time>2022-07-17T07:07:30Z</time>
      </trkpt>
      <trkpt lat="45.72086" lon="6.46117">
        <ele>751</ele>
        <time>2022-07-17T07:07:31Z</time>
      </trkpt>
      <trkpt lat="45.72086" lon="6.46118">
        <ele>751</ele>
        <time>2022-07-17T07:07:32Z</time>
      </trkpt>
      <trkpt lat="45.72086" lon="6.46119">
        <ele>751</ele>
        <time>2022-07-17T07:07:33Z</time>
      </trkpt>
      <trkpt lat="45.72084" lon="6.46119">
        <ele>751</ele>
        <time>2022-07-17T07:07:34Z</time>
      </trkpt>
      <trkpt lat="45.72083" lon="6.46118">
        <ele>750</ele>
        <time>2022-07-17T07:07:35Z</time>
      </trkpt>
      <trkpt lat="45.72081" lon="6.46118">
        <ele>749</ele>
        <time>2022-07-17T07:07:36Z</time>
      </trkpt>
      <trkpt lat="45.7208" lon="6.46117">
        <ele>748</ele>
        <time>2022-07-17T07:07:37Z</time>
      </trkpt>
      <trkpt lat="45.72079" lon="6.46117">
        <ele>748</ele>
        <time>2022-07-17T07:07:38Z</time>
      </trkpt>
      <trkpt lat="45.72077" lon="6.46116">
        <ele>748</ele>
        <time>2022-07-17T07:07:39Z</time>
      </trkpt>
      <trkpt lat="45.72076" lon="6.46115">
        <ele>748</ele>
        <time>2022-07-17T07:07:40Z</time>
      </trkpt>
      <trkpt lat="45.72074" lon="6.46115">
        <ele>746</ele>
        <time>2022-07-17T07:07:41Z</time>
      </trkpt>
      <trkpt lat="45.72073" lon="6.46114">
        <ele>745</ele>
        <time>2022-07-17T07:07:42Z</time>
      </trkpt>
      <trkpt lat="45.72071" lon="6.46113">
        <ele>745</ele>
        <time>2022-07-17T07:07:43Z</time>
      </trkpt>
      <trkpt lat="45.7207" lon="6.46112">
        <ele>744</ele>
        <time>2022-07-17T07:07:44Z</time>
      </trkpt>
      <trkpt lat="45.72068" lon="6.46112">
        <ele>743</ele>
        <time>2022-07-17T07:07:45Z</time>
      </trkpt>
      <trkpt lat="45.72067" lon="6.46111">
        <ele>743</ele>
        <time>2022-07-17T07:07:46Z</time>
      </trkpt>
      <trkpt lat="45.72066" lon="6.46108">
        <ele>742</ele>
        <time>2022-07-17T07:07:47Z</time>
      </trkpt>
      <trkpt lat="45.72064" lon="6.46106">
        <ele>742</ele>
        <time>2022-07-17T07:07:48Z</time>
      </trkpt>
      <trkpt lat="45.72063" lon="6.46104">
        <ele>742</ele>
        <time>2022-07-17T07:07:49Z</time>
      </trkpt>
      <trkpt lat="45.72063" lon="6.46101">
        <ele>742</ele>
        <time>2022-07-17T07:07:50Z</time>
      </trkpt>
      <trkpt lat="45.72063" lon="6.46098">
        <ele>742</ele>
        <time>2022-07-17T07:07:51Z</time>
      </trkpt>
      <trkpt lat="45.72063" lon="6.46095">
        <ele>742</ele>
        <time>2022-07-17T07:07:52Z</time>
      </trkpt>
      <trkpt lat="45.72063" lon="6.46093">
        <ele>742</ele>
        <time>2022-07-17T07:07:53Z</time>
      </trkpt>
      <trkpt lat="45.72064" lon="6.4609">
        <ele>741</ele>
        <time>2022-07-17T07:07:54Z</time>
      </trkpt>
      <trkpt lat="45.72064" lon="6.46087">
        <ele>741</ele>
        <time>2022-07-17T07:07:55Z</time>
      </trkpt>
      <trkpt lat="45.72065" lon="6.46083">
        <ele>741</ele>
        <time>2022-07-17T07:07:57Z</time>
      </trkpt>
      <trkpt lat="45.72065" lon="6.46079">
        <ele>740</ele>
        <time>2022-07-17T07:08:00Z</time>
      </trkpt>
      <trkpt lat="45.72064" lon="6.46078">
        <ele>740</ele>
        <time>2022-07-17T07:08:01Z</time>
      </trkpt>
      <trkpt lat="45.72063" lon="6.46077">
        <ele>739</ele>
        <time>2022-07-17T07:08:02Z</time>
      </trkpt>
      <trkpt lat="45.72062" lon="6.46076">
        <ele>739</ele>
        <time>2022-07-17T07:08:03Z</time>
      </trkpt>
      <trkpt lat="45.72061" lon="6.46076">
        <ele>739</ele>
        <time>2022-07-17T07:08:04Z</time>
      </trkpt>
      <trkpt lat="45.7206" lon="6.46075">
        <ele>739</ele>
        <time>2022-07-17T07:08:05Z</time>
      </trkpt>
      <trkpt lat="45.72059" lon="6.46074">
        <ele>739</ele>
        <time>2022-07-17T07:08:06Z</time>
      </trkpt>
      <trkpt lat="45.72056" lon="6.46074">
        <ele>739</ele>
        <time>2022-07-17T07:08:07Z</time>
      </trkpt>
      <trkpt lat="45.72055" lon="6.46076">
        <ele>739</ele>
        <time>2022-07-17T07:08:09Z</time>
      </trkpt>
      <trkpt lat="45.72055" lon="6.46078">
        <ele>738</ele>
        <time>2022-07-17T07:08:11Z</time>
      </trkpt>
      <trkpt lat="45.72054" lon="6.46081">
        <ele>737</ele>
        <time>2022-07-17T07:08:12Z</time>
      </trkpt>
      <trkpt lat="45.72054" lon="6.46083">
        <ele>737</ele>
        <time>2022-07-17T07:08:13Z</time>
      </trkpt>
      <trkpt lat="45.72052" lon="6.46087">
        <ele>737</ele>
        <time>2022-07-17T07:08:14Z</time>
      </trkpt>
      <trkpt lat="45.72052" lon="6.46091">
        <ele>737</ele>
        <time>2022-07-17T07:08:17Z</time>
      </trkpt>
      <trkpt lat="45.72051" lon="6.46094">
        <ele>737</ele>
        <time>2022-07-17T07:08:18Z</time>
      </trkpt>
      <trkpt lat="45.72049" lon="6.46097">
        <ele>736</ele>
        <time>2022-07-17T07:08:20Z</time>
      </trkpt>
      <trkpt lat="45.72047" lon="6.46099">
        <ele>735</ele>
        <time>2022-07-17T07:08:23Z</time>
      </trkpt>
      <trkpt lat="45.72045" lon="6.46101">
        <ele>735</ele>
        <time>2022-07-17T07:08:24Z</time>
      </trkpt>
      <trkpt lat="45.72043" lon="6.46104">
        <ele>735</ele>
        <time>2022-07-17T07:08:26Z</time>
      </trkpt>
      <trkpt lat="45.72042" lon="6.46103">
        <ele>735</ele>
        <time>2022-07-17T07:08:28Z</time>
      </trkpt>
      <trkpt lat="45.72041" lon="6.46103">
        <ele>735</ele>
        <time>2022-07-17T07:08:29Z</time>
      </trkpt>
      <trkpt lat="45.7204" lon="6.46102">
        <ele>735</ele>
        <time>2022-07-17T07:08:30Z</time>
      </trkpt>
      <trkpt lat="45.72039" lon="6.46102">
        <ele>734</ele>
        <time>2022-07-17T07:08:31Z</time>
      </trkpt>
      <trkpt lat="45.7204" lon="6.46098">
        <ele>734</ele>
        <time>2022-07-17T07:08:32Z</time>
      </trkpt>
      <trkpt lat="45.72042" lon="6.46095">
        <ele>734</ele>
        <time>2022-07-17T07:08:35Z</time>
      </trkpt>
      <trkpt lat="45.72042" lon="6.46091">
        <ele>734</ele>
        <time>2022-07-17T07:08:37Z</time>
      </trkpt>
      <trkpt lat="45.72041" lon="6.46088">
        <ele>733</ele>
        <time>2022-07-17T07:08:38Z</time>
      </trkpt>
      <trkpt lat="45.72039" lon="6.46086">
        <ele>733</ele>
        <time>2022-07-17T07:08:40Z</time>
      </trkpt>
      <trkpt lat="45.72037" lon="6.46083">
        <ele>732</ele>
        <time>2022-07-17T07:08:42Z</time>
      </trkpt>
      <trkpt lat="45.72034" lon="6.46081">
        <ele>731</ele>
        <time>2022-07-17T07:08:44Z</time>
      </trkpt>
      <trkpt lat="45.72032" lon="6.4608">
        <ele>731</ele>
        <time>2022-07-17T07:08:45Z</time>
      </trkpt>
      <trkpt lat="45.72031" lon="6.46077">
        <ele>730</ele>
        <time>2022-07-17T07:08:47Z</time>
      </trkpt>
      <trkpt lat="45.7203" lon="6.46074">
        <ele>729</ele>
        <time>2022-07-17T07:08:50Z</time>
      </trkpt>
      <trkpt lat="45.72028" lon="6.46071">
        <ele>729</ele>
        <time>2022-07-17T07:08:51Z</time>
      </trkpt>
      <trkpt lat="45.72027" lon="6.46069">
        <ele>728</ele>
        <time>2022-07-17T07:08:53Z</time>
      </trkpt>
      <trkpt lat="45.72025" lon="6.46063">
        <ele>727</ele>
        <time>2022-07-17T07:08:56Z</time>
      </trkpt>
      <trkpt lat="45.72021" lon="6.46058">
        <ele>726</ele>
        <time>2022-07-17T07:08:59Z</time>
      </trkpt>
      <trkpt lat="45.72019" lon="6.46055">
        <ele>725</ele>
        <time>2022-07-17T07:09:02Z</time>
      </trkpt>
      <trkpt lat="45.72018" lon="6.46052">
        <ele>724</ele>
        <time>2022-07-17T07:09:04Z</time>
      </trkpt>
      <trkpt lat="45.72016" lon="6.46049">
        <ele>724</ele>
        <time>2022-07-17T07:09:05Z</time>
      </trkpt>
      <trkpt lat="45.72016" lon="6.46046">
        <ele>724</ele>
        <time>2022-07-17T07:09:08Z</time>
      </trkpt>
      <trkpt lat="45.72014" lon="6.46043">
        <ele>724</ele>
        <time>2022-07-17T07:09:09Z</time>
      </trkpt>
      <trkpt lat="45.72012" lon="6.46041">
        <ele>722</ele>
        <time>2022-07-17T07:09:11Z</time>
      </trkpt>
      <trkpt lat="45.72011" lon="6.46037">
        <ele>722</ele>
        <time>2022-07-17T07:09:13Z</time>
      </trkpt>
      <trkpt lat="45.72012" lon="6.4603">
        <ele>721</ele>
        <time>2022-07-17T07:09:16Z</time>
      </trkpt>
      <trkpt lat="45.72012" lon="6.46027">
        <ele>720</ele>
        <time>2022-07-17T07:09:17Z</time>
      </trkpt>
      <trkpt lat="45.72013" lon="6.46025">
        <ele>720</ele>
        <time>2022-07-17T07:09:18Z</time>
      </trkpt>
      <trkpt lat="45.72015" lon="6.46023">
        <ele>721</ele>
        <time>2022-07-17T07:09:19Z</time>
      </trkpt>
      <trkpt lat="45.72017" lon="6.46019">
        <ele>721</ele>
        <time>2022-07-17T07:09:21Z</time>
      </trkpt>
      <trkpt lat="45.7202" lon="6.46016">
        <ele>721</ele>
        <time>2022-07-17T07:09:23Z</time>
      </trkpt>
      <trkpt lat="45.72022" lon="6.46013">
        <ele>721</ele>
        <time>2022-07-17T07:09:25Z</time>
      </trkpt>
      <trkpt lat="45.72023" lon="6.46011">
        <ele>721</ele>
        <time>2022-07-17T07:09:26Z</time>
      </trkpt>
      <trkpt lat="45.72025" lon="6.46008">
        <ele>719</ele>
        <time>2022-07-17T07:09:28Z</time>
      </trkpt>
      <trkpt lat="45.72026" lon="6.46004">
        <ele>719</ele>
        <time>2022-07-17T07:09:30Z</time>
      </trkpt>
      <trkpt lat="45.72027" lon="6.45999">
        <ele>719</ele>
        <time>2022-07-17T07:09:31Z</time>
      </trkpt>
      <trkpt lat="45.7203" lon="6.45995">
        <ele>718</ele>
        <time>2022-07-17T07:09:34Z</time>
      </trkpt>
      <trkpt lat="45.72031" lon="6.45993">
        <ele>717</ele>
        <time>2022-07-17T07:09:36Z</time>
      </trkpt>
      <trkpt lat="45.72031" lon="6.45992">
        <ele>717</ele>
        <time>2022-07-17T07:09:37Z</time>
      </trkpt>
      <trkpt lat="45.72032" lon="6.45991">
        <ele>717</ele>
        <time>2022-07-17T07:09:38Z</time>
      </trkpt>
      <trkpt lat="45.72033" lon="6.45989">
        <ele>716</ele>
        <time>2022-07-17T07:09:39Z</time>
      </trkpt>
      <trkpt lat="45.72034" lon="6.45988">
        <ele>716</ele>
        <time>2022-07-17T07:09:40Z</time>
      </trkpt>
      <trkpt lat="45.72035" lon="6.45986">
        <ele>716</ele>
        <time>2022-07-17T07:09:41Z</time>
      </trkpt>
      <trkpt lat="45.72036" lon="6.45985">
        <ele>716</ele>
        <time>2022-07-17T07:09:42Z</time>
      </trkpt>
      <trkpt lat="45.72035" lon="6.45984">
        <ele>715</ele>
        <time>2022-07-17T07:09:43Z</time>
      </trkpt>
      <trkpt lat="45.72034" lon="6.45982">
        <ele>715</ele>
        <time>2022-07-17T07:09:44Z</time>
      </trkpt>
      <trkpt lat="45.72034" lon="6.45981">
        <ele>715</ele>
        <time>2022-07-17T07:09:45Z</time>
      </trkpt>
      <trkpt lat="45.72033" lon="6.4598">
        <ele>715</ele>
        <time>2022-07-17T07:09:46Z</time>
      </trkpt>
      <trkpt lat="45.72033" lon="6.45978">
        <ele>715</ele>
        <time>2022-07-17T07:09:47Z</time>
      </trkpt>
      <trkpt lat="45.72032" lon="6.45977">
        <ele>715</ele>
        <time>2022-07-17T07:09:48Z</time>
      </trkpt>
      <trkpt lat="45.72032" lon="6.45976">
        <ele>715</ele>
        <time>2022-07-17T07:09:49Z</time>
      </trkpt>
      <trkpt lat="45.72031" lon="6.45974">
        <ele>715</ele>
        <time>2022-07-17T07:09:50Z</time>
      </trkpt>
      <trkpt lat="45.72031" lon="6.45973">
        <ele>715</ele>
        <time>2022-07-17T07:09:51Z</time>
      </trkpt>
      <trkpt lat="45.72028" lon="6.45973">
        <ele>715</ele>
        <time>2022-07-17T07:09:52Z</time>
      </trkpt>
      <trkpt lat="45.72026" lon="6.45973">
        <ele>715</ele>
        <time>2022-07-17T07:09:53Z</time>
      </trkpt>
      <trkpt lat="45.72023" lon="6.45973">
        <ele>714</ele>
        <time>2022-07-17T07:09:54Z</time>
      </trkpt>
      <trkpt lat="45.72021" lon="6.45973">
        <ele>713</ele>
        <time>2022-07-17T07:09:55Z</time>
      </trkpt>
      <trkpt lat="45.7202" lon="6.45972">
        <ele>713</ele>
        <time>2022-07-17T07:09:56Z</time>
      </trkpt>
      <trkpt lat="45.72018" lon="6.45971">
        <ele>713</ele>
        <time>2022-07-17T07:09:57Z</time>
      </trkpt>
      <trkpt lat="45.72017" lon="6.4597">
        <ele>713</ele>
        <time>2022-07-17T07:09:58Z</time>
      </trkpt>
      <trkpt lat="45.72016" lon="6.45969">
        <ele>713</ele>
        <time>2022-07-17T07:09:59Z</time>
      </trkpt>
      <trkpt lat="45.72015" lon="6.45968">
        <ele>713</ele>
        <time>2022-07-17T07:10:00Z</time>
      </trkpt>
      <trkpt lat="45.72014" lon="6.45967">
        <ele>713</ele>
        <time>2022-07-17T07:10:01Z</time>
      </trkpt>
      <trkpt lat="45.72013" lon="6.45966">
        <ele>713</ele>
        <time>2022-07-17T07:10:02Z</time>
      </trkpt>
      <trkpt lat="45.7201" lon="6.45966">
        <ele>713</ele>
        <time>2022-07-17T07:10:03Z</time>
      </trkpt>
      <trkpt lat="45.72017" lon="6.45956">
        <ele>712</ele>
        <time>2022-07-17T07:10:12Z</time>
      </trkpt>
      <trkpt lat="45.72022" lon="6.45943">
        <ele>711</ele>
        <time>2022-07-17T07:10:15Z</time>
      </trkpt>
      <trkpt lat="45.72021" lon="6.4594">
        <ele>711</ele>
        <time>2022-07-17T07:10:18Z</time>
      </trkpt>
      <trkpt lat="45.72021" lon="6.45936">
        <ele>711</ele>
        <time>2022-07-17T07:10:19Z</time>
      </trkpt>
      <trkpt lat="45.7202" lon="6.45933">
        <ele>711</ele>
        <time>2022-07-17T07:10:20Z</time>
      </trkpt>
      <trkpt lat="45.72019" lon="6.45929">
        <ele>711</ele>
        <time>2022-07-17T07:10:21Z</time>
      </trkpt>
      <trkpt lat="45.72019" lon="6.45927">
        <ele>711</ele>
        <time>2022-07-17T07:10:22Z</time>
      </trkpt>
      <trkpt lat="45.72018" lon="6.45925">
        <ele>711</ele>
        <time>2022-07-17T07:10:23Z</time>
      </trkpt>
      <trkpt lat="45.72017" lon="6.45923">
        <ele>711</ele>
        <time>2022-07-17T07:10:24Z</time>
      </trkpt>
      <trkpt lat="45.72016" lon="6.45921">
        <ele>710</ele>
        <time>2022-07-17T07:10:25Z</time>
      </trkpt>
      <trkpt lat="45.72016" lon="6.45919">
        <ele>710</ele>
        <time>2022-07-17T07:10:26Z</time>
      </trkpt>
      <trkpt lat="45.72015" lon="6.45917">
        <ele>710</ele>
        <time>2022-07-17T07:10:27Z</time>
      </trkpt>
      <trkpt lat="45.72013" lon="6.45913">
        <ele>710</ele>
        <time>2022-07-17T07:10:28Z</time>
      </trkpt>
      <trkpt lat="45.72012" lon="6.45911">
        <ele>710</ele>
        <time>2022-07-17T07:10:30Z</time>
      </trkpt>
      <trkpt lat="45.72009" lon="6.45909">
        <ele>708</ele>
        <time>2022-07-17T07:10:32Z</time>
      </trkpt>
      <trkpt lat="45.72006" lon="6.45908">
        <ele>708</ele>
        <time>2022-07-17T07:10:33Z</time>
      </trkpt>
      <trkpt lat="45.72004" lon="6.45906">
        <ele>708</ele>
        <time>2022-07-17T07:10:35Z</time>
      </trkpt>
      <trkpt lat="45.72004" lon="6.45902">
        <ele>708</ele>
        <time>2022-07-17T07:10:38Z</time>
      </trkpt>
      <trkpt lat="45.72003" lon="6.45898">
        <ele>708</ele>
        <time>2022-07-17T07:10:39Z</time>
      </trkpt>
      <trkpt lat="45.72003" lon="6.45895">
        <ele>708</ele>
        <time>2022-07-17T07:10:40Z</time>
      </trkpt>
      <trkpt lat="45.72002" lon="6.4589">
        <ele>708</ele>
        <time>2022-07-17T07:10:42Z</time>
      </trkpt>
      <trkpt lat="45.72001" lon="6.45882">
        <ele>708</ele>
        <time>2022-07-17T07:10:45Z</time>
      </trkpt>
      <trkpt lat="45.72001" lon="6.45877">
        <ele>708</ele>
        <time>2022-07-17T07:10:47Z</time>
      </trkpt>
      <trkpt lat="45.72001" lon="6.45874">
        <ele>708</ele>
        <time>2022-07-17T07:10:48Z</time>
      </trkpt>
      <trkpt lat="45.72002" lon="6.45871">
        <ele>708</ele>
        <time>2022-07-17T07:10:49Z</time>
      </trkpt>
      <trkpt lat="45.72002" lon="6.45865">
        <ele>708</ele>
        <time>2022-07-17T07:10:51Z</time>
      </trkpt>
      <trkpt lat="45.72003" lon="6.45862">
        <ele>707</ele>
        <time>2022-07-17T07:10:52Z</time>
      </trkpt>
      <trkpt lat="45.72004" lon="6.45859">
        <ele>707</ele>
        <time>2022-07-17T07:10:53Z</time>
      </trkpt>
      <trkpt lat="45.72005" lon="6.45855">
        <ele>707</ele>
        <time>2022-07-17T07:10:55Z</time>
      </trkpt>
      <trkpt lat="45.72007" lon="6.45852">
        <ele>707</ele>
        <time>2022-07-17T07:10:56Z</time>
      </trkpt>
      <trkpt lat="45.72008" lon="6.45849">
        <ele>707</ele>
        <time>2022-07-17T07:10:57Z</time>
      </trkpt>
      <trkpt lat="45.72009" lon="6.45846">
        <ele>707</ele>
        <time>2022-07-17T07:10:58Z</time>
      </trkpt>
      <trkpt lat="45.72008" lon="6.45843">
        <ele>707</ele>
        <time>2022-07-17T07:10:59Z</time>
      </trkpt>
      <trkpt lat="45.72008" lon="6.45841">
        <ele>707</ele>
        <time>2022-07-17T07:11:00Z</time>
      </trkpt>
      <trkpt lat="45.72008" lon="6.45838">
        <ele>707</ele>
        <time>2022-07-17T07:11:01Z</time>
      </trkpt>
      <trkpt lat="45.72007" lon="6.45835">
        <ele>707</ele>
        <time>2022-07-17T07:11:02Z</time>
      </trkpt>
      <trkpt lat="45.72007" lon="6.45833">
        <ele>707</ele>
        <time>2022-07-17T07:11:03Z</time>
      </trkpt>
      <trkpt lat="45.72002" lon="6.45831">
        <ele>707</ele>
        <time>2022-07-17T07:11:04Z</time>
      </trkpt>
      <trkpt lat="45.72001" lon="6.4583">
        <ele>706</ele>
        <time>2022-07-17T07:11:06Z</time>
      </trkpt>
      <trkpt lat="45.71999" lon="6.45829">
        <ele>706</ele>
        <time>2022-07-17T07:11:07Z</time>
      </trkpt>
      <trkpt lat="45.71998" lon="6.45828">
        <ele>706</ele>
        <time>2022-07-17T07:11:08Z</time>
      </trkpt>
      <trkpt lat="45.71996" lon="6.45828">
        <ele>706</ele>
        <time>2022-07-17T07:11:09Z</time>
      </trkpt>
      <trkpt lat="45.71994" lon="6.45828">
        <ele>706</ele>
        <time>2022-07-17T07:11:10Z</time>
      </trkpt>
      <trkpt lat="45.71993" lon="6.45829">
        <ele>705</ele>
        <time>2022-07-17T07:11:11Z</time>
      </trkpt>
      <trkpt lat="45.71991" lon="6.45829">
        <ele>704</ele>
        <time>2022-07-17T07:11:12Z</time>
      </trkpt>
      <trkpt lat="45.71989" lon="6.45829">
        <ele>703</ele>
        <time>2022-07-17T07:11:13Z</time>
      </trkpt>
      <trkpt lat="45.71987" lon="6.4583">
        <ele>703</ele>
        <time>2022-07-17T07:11:14Z</time>
      </trkpt>
      <trkpt lat="45.71985" lon="6.4583">
        <ele>703</ele>
        <time>2022-07-17T07:11:15Z</time>
      </trkpt>
      <trkpt lat="45.71983" lon="6.45831">
        <ele>703</ele>
        <time>2022-07-17T07:11:16Z</time>
      </trkpt>
      <trkpt lat="45.71981" lon="6.45831">
        <ele>702</ele>
        <time>2022-07-17T07:11:17Z</time>
      </trkpt>
      <trkpt lat="45.71979" lon="6.45831">
        <ele>702</ele>
        <time>2022-07-17T07:11:18Z</time>
      </trkpt>
      <trkpt lat="45.71977" lon="6.45832">
        <ele>702</ele>
        <time>2022-07-17T07:11:19Z</time>
      </trkpt>
      <trkpt lat="45.71975" lon="6.45832">
        <ele>701</ele>
        <time>2022-07-17T07:11:20Z</time>
      </trkpt>
      <trkpt lat="45.71973" lon="6.45833">
        <ele>701</ele>
        <time>2022-07-17T07:11:21Z</time>
      </trkpt>
      <trkpt lat="45.7197" lon="6.45834">
        <ele>701</ele>
        <time>2022-07-17T07:11:22Z</time>
      </trkpt>
      <trkpt lat="45.71968" lon="6.45835">
        <ele>700</ele>
        <time>2022-07-17T07:11:23Z</time>
      </trkpt>
      <trkpt lat="45.71966" lon="6.45836">
        <ele>700</ele>
        <time>2022-07-17T07:11:24Z</time>
      </trkpt>
      <trkpt lat="45.71964" lon="6.45836">
        <ele>699</ele>
        <time>2022-07-17T07:11:25Z</time>
      </trkpt>
      <trkpt lat="45.71962" lon="6.45836">
        <ele>699</ele>
        <time>2022-07-17T07:11:26Z</time>
      </trkpt>
      <trkpt lat="45.71961" lon="6.45837">
        <ele>699</ele>
        <time>2022-07-17T07:11:28Z</time>
      </trkpt>
      <trkpt lat="45.7196" lon="6.45837">
        <ele>698</ele>
        <time>2022-07-17T07:11:29Z</time>
      </trkpt>
      <trkpt lat="45.71959" lon="6.45837">
        <ele>697</ele>
        <time>2022-07-17T07:11:30Z</time>
      </trkpt>
      <trkpt lat="45.71958" lon="6.45837">
        <ele>697</ele>
        <time>2022-07-17T07:11:31Z</time>
      </trkpt>
      <trkpt lat="45.71957" lon="6.45837">
        <ele>697</ele>
        <time>2022-07-17T07:11:32Z</time>
      </trkpt>
      <trkpt lat="45.71957" lon="6.45838">
        <ele>697</ele>
        <time>2022-07-17T07:11:33Z</time>
      </trkpt>
      <trkpt lat="45.7195" lon="6.45839">
        <ele>697</ele>
        <time>2022-07-17T07:11:34Z</time>
      </trkpt>
      <trkpt lat="45.71948" lon="6.4584">
        <ele>697</ele>
        <time>2022-07-17T07:11:35Z</time>
      </trkpt>
      <trkpt lat="45.71947" lon="6.4584">
        <ele>697</ele>
        <time>2022-07-17T07:11:36Z</time>
      </trkpt>
      <trkpt lat="45.71945" lon="6.45841">
        <ele>697</ele>
        <time>2022-07-17T07:11:37Z</time>
      </trkpt>
      <trkpt lat="45.71944" lon="6.45842">
        <ele>697</ele>
        <time>2022-07-17T07:11:38Z</time>
      </trkpt>
      <trkpt lat="45.71943" lon="6.45842">
        <ele>697</ele>
        <time>2022-07-17T07:11:39Z</time>
      </trkpt>
      <trkpt lat="45.7194" lon="6.45843">
        <ele>697</ele>
        <time>2022-07-17T07:11:40Z</time>
      </trkpt>
      <trkpt lat="45.71938" lon="6.45844">
        <ele>697</ele>
        <time>2022-07-17T07:11:41Z</time>
      </trkpt>
      <trkpt lat="45.71936" lon="6.45845">
        <ele>697</ele>
        <time>2022-07-17T07:11:42Z</time>
      </trkpt>
      <trkpt lat="45.71933" lon="6.45845">
        <ele>697</ele>
        <time>2022-07-17T07:11:43Z</time>
      </trkpt>
      <trkpt lat="45.71931" lon="6.45846">
        <ele>697</ele>
        <time>2022-07-17T07:11:44Z</time>
      </trkpt>
      <trkpt lat="45.7193" lon="6.45846">
        <ele>696</ele>
        <time>2022-07-17T07:11:45Z</time>
      </trkpt>
      <trkpt lat="45.71927" lon="6.45848">
        <ele>695</ele>
        <time>2022-07-17T07:11:47Z</time>
      </trkpt>
      <trkpt lat="45.71925" lon="6.45849">
        <ele>693</ele>
        <time>2022-07-17T07:11:48Z</time>
      </trkpt>
      <trkpt lat="45.71923" lon="6.4585">
        <ele>692</ele>
        <time>2022-07-17T07:11:49Z</time>
      </trkpt>
      <trkpt lat="45.71921" lon="6.4585">
        <ele>693</ele>
        <time>2022-07-17T07:11:50Z</time>
      </trkpt>
      <trkpt lat="45.7192" lon="6.45851">
        <ele>693</ele>
        <time>2022-07-17T07:11:51Z</time>
      </trkpt>
      <trkpt lat="45.71918" lon="6.45852">
        <ele>693</ele>
        <time>2022-07-17T07:11:52Z</time>
      </trkpt>
      <trkpt lat="45.71916" lon="6.45853">
        <ele>693</ele>
        <time>2022-07-17T07:11:53Z</time>
      </trkpt>
      <trkpt lat="45.71915" lon="6.45854">
        <ele>693</ele>
        <time>2022-07-17T07:11:54Z</time>
      </trkpt>
      <trkpt lat="45.71913" lon="6.45854">
        <ele>692</ele>
        <time>2022-07-17T07:11:55Z</time>
      </trkpt>
      <trkpt lat="45.71911" lon="6.45855">
        <ele>691</ele>
        <time>2022-07-17T07:11:56Z</time>
      </trkpt>
      <trkpt lat="45.71909" lon="6.45855">
        <ele>691</ele>
        <time>2022-07-17T07:11:57Z</time>
      </trkpt>
      <trkpt lat="45.71907" lon="6.45856">
        <ele>691</ele>
        <time>2022-07-17T07:11:58Z</time>
      </trkpt>
      <trkpt lat="45.71905" lon="6.45856">
        <ele>691</ele>
        <time>2022-07-17T07:11:59Z</time>
      </trkpt>
      <trkpt lat="45.71903" lon="6.45857">
        <ele>691</ele>
        <time>2022-07-17T07:12:00Z</time>
      </trkpt>
      <trkpt lat="45.71901" lon="6.45858">
        <ele>690</ele>
        <time>2022-07-17T07:12:01Z</time>
      </trkpt>
      <trkpt lat="45.719" lon="6.45859">
        <ele>690</ele>
        <time>2022-07-17T07:12:02Z</time>
      </trkpt>
      <trkpt lat="45.71898" lon="6.4586">
        <ele>690</ele>
        <time>2022-07-17T07:12:03Z</time>
      </trkpt>
      <trkpt lat="45.71896" lon="6.45861">
        <ele>689</ele>
        <time>2022-07-17T07:12:04Z</time>
      </trkpt>
      <trkpt lat="45.71895" lon="6.45862">
        <ele>689</ele>
        <time>2022-07-17T07:12:05Z</time>
      </trkpt>
      <trkpt lat="45.71893" lon="6.45864">
        <ele>689</ele>
        <time>2022-07-17T07:12:06Z</time>
      </trkpt>
      <trkpt lat="45.71892" lon="6.45865">
        <ele>689</ele>
        <time>2022-07-17T07:12:07Z</time>
      </trkpt>
      <trkpt lat="45.7189" lon="6.45866">
        <ele>688</ele>
        <time>2022-07-17T07:12:08Z</time>
      </trkpt>
      <trkpt lat="45.71889" lon="6.45867">
        <ele>688</ele>
        <time>2022-07-17T07:12:09Z</time>
      </trkpt>
      <trkpt lat="45.71887" lon="6.45869">
        <ele>688</ele>
        <time>2022-07-17T07:12:10Z</time>
      </trkpt>
      <trkpt lat="45.71886" lon="6.4587">
        <ele>688</ele>
        <time>2022-07-17T07:12:11Z</time>
      </trkpt>
      <trkpt lat="45.71884" lon="6.45871">
        <ele>688</ele>
        <time>2022-07-17T07:12:12Z</time>
      </trkpt>
      <trkpt lat="45.71882" lon="6.45873">
        <ele>688</ele>
        <time>2022-07-17T07:12:13Z</time>
      </trkpt>
      <trkpt lat="45.7188" lon="6.45874">
        <ele>688</ele>
        <time>2022-07-17T07:12:14Z</time>
      </trkpt>
      <trkpt lat="45.71878" lon="6.45875">
        <ele>687</ele>
        <time>2022-07-17T07:12:15Z</time>
      </trkpt>
      <trkpt lat="45.71877" lon="6.45876">
        <ele>687</ele>
        <time>2022-07-17T07:12:16Z</time>
      </trkpt>
      <trkpt lat="45.71876" lon="6.45877">
        <ele>687</ele>
        <time>2022-07-17T07:12:17Z</time>
      </trkpt>
      <trkpt lat="45.71875" lon="6.45877">
        <ele>686</ele>
        <time>2022-07-17T07:12:18Z</time>
      </trkpt>
      <trkpt lat="45.71875" lon="6.45878">
        <ele>686</ele>
        <time>2022-07-17T07:12:19Z</time>
      </trkpt>
      <trkpt lat="45.71874" lon="6.45878">
        <ele>686</ele>
        <time>2022-07-17T07:12:20Z</time>
      </trkpt>
      <trkpt lat="45.71873" lon="6.45879">
        <ele>686</ele>
        <time>2022-07-17T07:12:21Z</time>
      </trkpt>
      <trkpt lat="45.71866" lon="6.45884">
        <ele>685</ele>
        <time>2022-07-17T07:12:22Z</time>
      </trkpt>
      <trkpt lat="45.71864" lon="6.45886">
        <ele>685</ele>
        <time>2022-07-17T07:12:23Z</time>
      </trkpt>
      <trkpt lat="45.71862" lon="6.45887">
        <ele>685</ele>
        <time>2022-07-17T07:12:25Z</time>
      </trkpt>
      <trkpt lat="45.7186" lon="6.45889">
        <ele>685</ele>
        <time>2022-07-17T07:12:26Z</time>
      </trkpt>
      <trkpt lat="45.7185" lon="6.45893">
        <ele>684</ele>
        <time>2022-07-17T07:12:30Z</time>
      </trkpt>
      <trkpt lat="45.71846" lon="6.45895">
        <ele>684</ele>
        <time>2022-07-17T07:12:33Z</time>
      </trkpt>
      <trkpt lat="45.71844" lon="6.45896">
        <ele>682</ele>
        <time>2022-07-17T07:12:35Z</time>
      </trkpt>
      <trkpt lat="45.71843" lon="6.45897">
        <ele>682</ele>
        <time>2022-07-17T07:12:36Z</time>
      </trkpt>
      <trkpt lat="45.71841" lon="6.45898">
        <ele>682</ele>
        <time>2022-07-17T07:12:37Z</time>
      </trkpt>
      <trkpt lat="45.71839" lon="6.45899">
        <ele>682</ele>
        <time>2022-07-17T07:12:38Z</time>
      </trkpt>
      <trkpt lat="45.71837" lon="6.45899">
        <ele>681</ele>
        <time>2022-07-17T07:12:39Z</time>
      </trkpt>
      <trkpt lat="45.71835" lon="6.45901">
        <ele>681</ele>
        <time>2022-07-17T07:12:40Z</time>
      </trkpt>
      <trkpt lat="45.71833" lon="6.45902">
        <ele>681</ele>
        <time>2022-07-17T07:12:41Z</time>
      </trkpt>
      <trkpt lat="45.71831" lon="6.45903">
        <ele>681</ele>
        <time>2022-07-17T07:12:42Z</time>
      </trkpt>
      <trkpt lat="45.71829" lon="6.45904">
        <ele>681</ele>
        <time>2022-07-17T07:12:43Z</time>
      </trkpt>
      <trkpt lat="45.71827" lon="6.45905">
        <ele>681</ele>
        <time>2022-07-17T07:12:44Z</time>
      </trkpt>
      <trkpt lat="45.71825" lon="6.45906">
        <ele>680</ele>
        <time>2022-07-17T07:12:45Z</time>
      </trkpt>
      <trkpt lat="45.71823" lon="6.45907">
        <ele>679</ele>
        <time>2022-07-17T07:12:46Z</time>
      </trkpt>
      <trkpt lat="45.71821" lon="6.45908">
        <ele>679</ele>
        <time>2022-07-17T07:12:47Z</time>
      </trkpt>
      <trkpt lat="45.71819" lon="6.45908">
        <ele>679</ele>
        <time>2022-07-17T07:12:48Z</time>
      </trkpt>
      <trkpt lat="45.71817" lon="6.45909">
        <ele>679</ele>
        <time>2022-07-17T07:12:49Z</time>
      </trkpt>
      <trkpt lat="45.71815" lon="6.4591">
        <ele>679</ele>
        <time>2022-07-17T07:12:50Z</time>
      </trkpt>
      <trkpt lat="45.71813" lon="6.45911">
        <ele>679</ele>
        <time>2022-07-17T07:12:51Z</time>
      </trkpt>
      <trkpt lat="45.71811" lon="6.45912">
        <ele>679</ele>
        <time>2022-07-17T07:12:52Z</time>
      </trkpt>
      <trkpt lat="45.71809" lon="6.45913">
        <ele>679</ele>
        <time>2022-07-17T07:12:53Z</time>
      </trkpt>
      <trkpt lat="45.71807" lon="6.45914">
        <ele>679</ele>
        <time>2022-07-17T07:12:54Z</time>
      </trkpt>
      <trkpt lat="45.71805" lon="6.45914">
        <ele>679</ele>
        <time>2022-07-17T07:12:55Z</time>
      </trkpt>
      <trkpt lat="45.71804" lon="6.45915">
        <ele>679</ele>
        <time>2022-07-17T07:12:56Z</time>
      </trkpt>
      <trkpt lat="45.71802" lon="6.45916">
        <ele>678</ele>
        <time>2022-07-17T07:12:57Z</time>
      </trkpt>
      <trkpt lat="45.718" lon="6.45916">
        <ele>677</ele>
        <time>2022-07-17T07:12:58Z</time>
      </trkpt>
      <trkpt lat="45.71798" lon="6.45917">
        <ele>677</ele>
        <time>2022-07-17T07:12:59Z</time>
      </trkpt>
      <trkpt lat="45.71796" lon="6.45916">
        <ele>677</ele>
        <time>2022-07-17T07:13:00Z</time>
      </trkpt>
      <trkpt lat="45.71794" lon="6.45914">
        <ele>676</ele>
        <time>2022-07-17T07:13:01Z</time>
      </trkpt>
      <trkpt lat="45.71791" lon="6.45913">
        <ele>676</ele>
        <time>2022-07-17T07:13:02Z</time>
      </trkpt>
      <trkpt lat="45.71789" lon="6.45912">
        <ele>676</ele>
        <time>2022-07-17T07:13:03Z</time>
      </trkpt>
      <trkpt lat="45.7179" lon="6.45904">
        <ele>675</ele>
        <time>2022-07-17T07:13:05Z</time>
      </trkpt>
      <trkpt lat="45.71791" lon="6.45901">
        <ele>675</ele>
        <time>2022-07-17T07:13:06Z</time>
      </trkpt>
      <trkpt lat="45.71791" lon="6.45898">
        <ele>675</ele>
        <time>2022-07-17T07:13:08Z</time>
      </trkpt>
      <trkpt lat="45.71792" lon="6.45895">
        <ele>675</ele>
        <time>2022-07-17T07:13:09Z</time>
      </trkpt>
      <trkpt lat="45.71793" lon="6.45892">
        <ele>675</ele>
        <time>2022-07-17T07:13:10Z</time>
      </trkpt>
      <trkpt lat="45.71793" lon="6.45888">
        <ele>675</ele>
        <time>2022-07-17T07:13:11Z</time>
      </trkpt>
      <trkpt lat="45.71794" lon="6.45885">
        <ele>675</ele>
        <time>2022-07-17T07:13:12Z</time>
      </trkpt>
      <trkpt lat="45.71794" lon="6.45882">
        <ele>675</ele>
        <time>2022-07-17T07:13:13Z</time>
      </trkpt>
      <trkpt lat="45.71794" lon="6.45879">
        <ele>675</ele>
        <time>2022-07-17T07:13:14Z</time>
      </trkpt>
      <trkpt lat="45.71795" lon="6.45866">
        <ele>675</ele>
        <time>2022-07-17T07:13:17Z</time>
      </trkpt>
      <trkpt lat="45.71796" lon="6.45862">
        <ele>676</ele>
        <time>2022-07-17T07:13:20Z</time>
      </trkpt>
      <trkpt lat="45.71798" lon="6.45858">
        <ele>676</ele>
        <time>2022-07-17T07:13:22Z</time>
      </trkpt>
      <trkpt lat="45.71799" lon="6.45853">
        <ele>676</ele>
        <time>2022-07-17T07:13:23Z</time>
      </trkpt>
      <trkpt lat="45.718" lon="6.45849">
        <ele>676</ele>
        <time>2022-07-17T07:13:24Z</time>
      </trkpt>
      <trkpt lat="45.71801" lon="6.45846">
        <ele>675</ele>
        <time>2022-07-17T07:13:25Z</time>
      </trkpt>
      <trkpt lat="45.71802" lon="6.45844">
        <ele>675</ele>
        <time>2022-07-17T07:13:26Z</time>
      </trkpt>
      <trkpt lat="45.71803" lon="6.45841">
        <ele>675</ele>
        <time>2022-07-17T07:13:27Z</time>
      </trkpt>
      <trkpt lat="45.71804" lon="6.45839">
        <ele>675</ele>
        <time>2022-07-17T07:13:28Z</time>
      </trkpt>
      <trkpt lat="45.71805" lon="6.45836">
        <ele>674</ele>
        <time>2022-07-17T07:13:29Z</time>
      </trkpt>
      <trkpt lat="45.71805" lon="6.45833">
        <ele>674</ele>
        <time>2022-07-17T07:13:30Z</time>
      </trkpt>
      <trkpt lat="45.71806" lon="6.4583">
        <ele>674</ele>
        <time>2022-07-17T07:13:31Z</time>
      </trkpt>
      <trkpt lat="45.71806" lon="6.45827">
        <ele>674</ele>
        <time>2022-07-17T07:13:32Z</time>
      </trkpt>
      <trkpt lat="45.71807" lon="6.45824">
        <ele>674</ele>
        <time>2022-07-17T07:13:33Z</time>
      </trkpt>
      <trkpt lat="45.71807" lon="6.45819">
        <ele>673</ele>
        <time>2022-07-17T07:13:35Z</time>
      </trkpt>
      <trkpt lat="45.71808" lon="6.45813">
        <ele>671</ele>
        <time>2022-07-17T07:13:37Z</time>
      </trkpt>
      <trkpt lat="45.71808" lon="6.45808">
        <ele>671</ele>
        <time>2022-07-17T07:13:40Z</time>
      </trkpt>
      <trkpt lat="45.71809" lon="6.45804">
        <ele>671</ele>
        <time>2022-07-17T07:13:42Z</time>
      </trkpt>
      <trkpt lat="45.71811" lon="6.45798">
        <ele>670</ele>
        <time>2022-07-17T07:13:44Z</time>
      </trkpt>
      <trkpt lat="45.71811" lon="6.45795">
        <ele>670</ele>
        <time>2022-07-17T07:13:45Z</time>
      </trkpt>
      <trkpt lat="45.71812" lon="6.45792">
        <ele>670</ele>
        <time>2022-07-17T07:13:46Z</time>
      </trkpt>
      <trkpt lat="45.71812" lon="6.4579">
        <ele>670</ele>
        <time>2022-07-17T07:13:47Z</time>
      </trkpt>
      <trkpt lat="45.71813" lon="6.45787">
        <ele>670</ele>
        <time>2022-07-17T07:13:48Z</time>
      </trkpt>
      <trkpt lat="45.71813" lon="6.45784">
        <ele>669</ele>
        <time>2022-07-17T07:13:49Z</time>
      </trkpt>
      <trkpt lat="45.71813" lon="6.45778">
        <ele>669</ele>
        <time>2022-07-17T07:13:50Z</time>
      </trkpt>
      <trkpt lat="45.71812" lon="6.45773">
        <ele>668</ele>
        <time>2022-07-17T07:13:52Z</time>
      </trkpt>
      <trkpt lat="45.71812" lon="6.4577">
        <ele>667</ele>
        <time>2022-07-17T07:13:53Z</time>
      </trkpt>
      <trkpt lat="45.71811" lon="6.45766">
        <ele>665</ele>
        <time>2022-07-17T07:13:56Z</time>
      </trkpt>
      <trkpt lat="45.7181" lon="6.45768">
        <ele>665</ele>
        <time>2022-07-17T07:13:57Z</time>
      </trkpt>
      <trkpt lat="45.71808" lon="6.45769">
        <ele>665</ele>
        <time>2022-07-17T07:13:58Z</time>
      </trkpt>
      <trkpt lat="45.71807" lon="6.45771">
        <ele>665</ele>
        <time>2022-07-17T07:14:00Z</time>
      </trkpt>
      <trkpt lat="45.71806" lon="6.45772">
        <ele>663</ele>
        <time>2022-07-17T07:14:01Z</time>
      </trkpt>
      <trkpt lat="45.71805" lon="6.45773">
        <ele>663</ele>
        <time>2022-07-17T07:14:02Z</time>
      </trkpt>
      <trkpt lat="45.71804" lon="6.45775">
        <ele>663</ele>
        <time>2022-07-17T07:14:03Z</time>
      </trkpt>
      <trkpt lat="45.71802" lon="6.45775">
        <ele>663</ele>
        <time>2022-07-17T07:14:04Z</time>
      </trkpt>
      <trkpt lat="45.71801" lon="6.45776">
        <ele>663</ele>
        <time>2022-07-17T07:14:05Z</time>
      </trkpt>
      <trkpt lat="45.718" lon="6.45777">
        <ele>663</ele>
        <time>2022-07-17T07:14:06Z</time>
      </trkpt>
      <trkpt lat="45.71799" lon="6.45778">
        <ele>664</ele>
        <time>2022-07-17T07:14:07Z</time>
      </trkpt>
      <trkpt lat="45.71797" lon="6.45779">
        <ele>664</ele>
        <time>2022-07-17T07:14:08Z</time>
      </trkpt>
      <trkpt lat="45.71796" lon="6.4578">
        <ele>663</ele>
        <time>2022-07-17T07:14:09Z</time>
      </trkpt>
      <trkpt lat="45.71795" lon="6.4578">
        <ele>663</ele>
        <time>2022-07-17T07:14:10Z</time>
      </trkpt>
      <trkpt lat="45.71792" lon="6.4578">
        <ele>663</ele>
        <time>2022-07-17T07:14:11Z</time>
      </trkpt>
      <trkpt lat="45.7179" lon="6.45778">
        <ele>663</ele>
        <time>2022-07-17T07:14:12Z</time>
      </trkpt>
      <trkpt lat="45.71788" lon="6.45777">
        <ele>662</ele>
        <time>2022-07-17T07:14:13Z</time>
      </trkpt>
      <trkpt lat="45.71786" lon="6.45776">
        <ele>662</ele>
        <time>2022-07-17T07:14:14Z</time>
      </trkpt>
      <trkpt lat="45.71782" lon="6.45774">
        <ele>662</ele>
        <time>2022-07-17T07:14:15Z</time>
      </trkpt>
      <trkpt lat="45.71775" lon="6.45771">
        <ele>662</ele>
        <time>2022-07-17T07:14:19Z</time>
      </trkpt>
      <trkpt lat="45.71772" lon="6.45771">
        <ele>662</ele>
        <time>2022-07-17T07:14:20Z</time>
      </trkpt>
      <trkpt lat="45.71767" lon="6.45771">
        <ele>662</ele>
        <time>2022-07-17T07:14:22Z</time>
      </trkpt>
      <trkpt lat="45.71766" lon="6.45771">
        <ele>662</ele>
        <time>2022-07-17T07:14:24Z</time>
      </trkpt>
      <trkpt lat="45.71765" lon="6.45771">
        <ele>662</ele>
        <time>2022-07-17T07:14:25Z</time>
      </trkpt>
      <trkpt lat="45.71763" lon="6.45771">
        <ele>662</ele>
        <time>2022-07-17T07:14:26Z</time>
      </trkpt>
      <trkpt lat="45.71762" lon="6.4577">
        <ele>662</ele>
        <time>2022-07-17T07:14:27Z</time>
      </trkpt>
      <trkpt lat="45.7176" lon="6.4577">
        <ele>662</ele>
        <time>2022-07-17T07:14:28Z</time>
      </trkpt>
      <trkpt lat="45.71759" lon="6.4577">
        <ele>662</ele>
        <time>2022-07-17T07:14:29Z</time>
      </trkpt>
      <trkpt lat="45.71757" lon="6.4577">
        <ele>662</ele>
        <time>2022-07-17T07:14:30Z</time>
      </trkpt>
      <trkpt lat="45.71755" lon="6.4577">
        <ele>662</ele>
        <time>2022-07-17T07:14:31Z</time>
      </trkpt>
      <trkpt lat="45.71753" lon="6.4577">
        <ele>662</ele>
        <time>2022-07-17T07:14:32Z</time>
      </trkpt>
      <trkpt lat="45.71751" lon="6.4577">
        <ele>662</ele>
        <time>2022-07-17T07:14:33Z</time>
      </trkpt>
      <trkpt lat="45.71749" lon="6.45769">
        <ele>661</ele>
        <time>2022-07-17T07:14:34Z</time>
      </trkpt>
      <trkpt lat="45.71747" lon="6.45769">
        <ele>661</ele>
        <time>2022-07-17T07:14:35Z</time>
      </trkpt>
      <trkpt lat="45.71746" lon="6.45769">
        <ele>661</ele>
        <time>2022-07-17T07:14:36Z</time>
      </trkpt>
      <trkpt lat="45.71745" lon="6.45769">
        <ele>661</ele>
        <time>2022-07-17T07:14:37Z</time>
      </trkpt>
      <trkpt lat="45.71743" lon="6.45769">
        <ele>661</ele>
        <time>2022-07-17T07:14:38Z</time>
      </trkpt>
      <trkpt lat="45.71742" lon="6.45769">
        <ele>661</ele>
        <time>2022-07-17T07:14:39Z</time>
      </trkpt>
      <trkpt lat="45.71741" lon="6.45769">
        <ele>661</ele>
        <time>2022-07-17T07:14:40Z</time>
      </trkpt>
      <trkpt lat="45.71739" lon="6.45769">
        <ele>661</ele>
        <time>2022-07-17T07:14:41Z</time>
      </trkpt>
      <trkpt lat="45.71738" lon="6.45769">
        <ele>661</ele>
        <time>2022-07-17T07:14:42Z</time>
      </trkpt>
      <trkpt lat="45.71738" lon="6.4577">
        <ele>661</ele>
        <time>2022-07-17T07:14:43Z</time>
      </trkpt>
      <trkpt lat="45.71738" lon="6.45771">
        <ele>661</ele>
        <time>2022-07-17T07:14:44Z</time>
      </trkpt>
      <trkpt lat="45.71739" lon="6.45772">
        <ele>661</ele>
        <time>2022-07-17T07:14:45Z</time>
      </trkpt>
      <trkpt lat="45.71739" lon="6.45773">
        <ele>661</ele>
        <time>2022-07-17T07:14:46Z</time>
      </trkpt>
      <trkpt lat="45.71739" lon="6.45774">
        <ele>661</ele>
        <time>2022-07-17T07:14:47Z</time>
      </trkpt>
      <trkpt lat="45.71739" lon="6.45775">
        <ele>661</ele>
        <time>2022-07-17T07:14:48Z</time>
      </trkpt>
      <trkpt lat="45.71739" lon="6.45776">
        <ele>660</ele>
        <time>2022-07-17T07:14:49Z</time>
      </trkpt>
      <trkpt lat="45.71742" lon="6.45787">
        <ele>660</ele>
        <time>2022-07-17T07:14:51Z</time>
      </trkpt>
      <trkpt lat="45.71742" lon="6.4579">
        <ele>660</ele>
        <time>2022-07-17T07:14:52Z</time>
      </trkpt>
      <trkpt lat="45.71743" lon="6.45792">
        <ele>660</ele>
        <time>2022-07-17T07:14:53Z</time>
      </trkpt>
      <trkpt lat="45.71744" lon="6.45795">
        <ele>660</ele>
        <time>2022-07-17T07:14:54Z</time>
      </trkpt>
      <trkpt lat="45.71745" lon="6.45798">
        <ele>660</ele>
        <time>2022-07-17T07:14:55Z</time>
      </trkpt>
      <trkpt lat="45.71744" lon="6.45799">
        <ele>660</ele>
        <time>2022-07-17T07:14:56Z</time>
      </trkpt>
      <trkpt lat="45.71742" lon="6.458">
        <ele>660</ele>
        <time>2022-07-17T07:14:57Z</time>
      </trkpt>
      <trkpt lat="45.71741" lon="6.45801">
        <ele>660</ele>
        <time>2022-07-17T07:14:58Z</time>
      </trkpt>
      <trkpt lat="45.7174" lon="6.45802">
        <ele>660</ele>
        <time>2022-07-17T07:14:59Z</time>
      </trkpt>
      <trkpt lat="45.71739" lon="6.45803">
        <ele>660</ele>
        <time>2022-07-17T07:15:00Z</time>
      </trkpt>
      <trkpt lat="45.71738" lon="6.45805">
        <ele>660</ele>
        <time>2022-07-17T07:15:01Z</time>
      </trkpt>
      <trkpt lat="45.71737" lon="6.45806">
        <ele>660</ele>
        <time>2022-07-17T07:15:02Z</time>
      </trkpt>
      <trkpt lat="45.71735" lon="6.45807">
        <ele>660</ele>
        <time>2022-07-17T07:15:03Z</time>
      </trkpt>
      <trkpt lat="45.71734" lon="6.45808">
        <ele>659</ele>
        <time>2022-07-17T07:15:04Z</time>
      </trkpt>
      <trkpt lat="45.71733" lon="6.45809">
        <ele>660</ele>
        <time>2022-07-17T07:15:05Z</time>
      </trkpt>
      <trkpt lat="45.71731" lon="6.4581">
        <ele>660</ele>
        <time>2022-07-17T07:15:06Z</time>
      </trkpt>
      <trkpt lat="45.7173" lon="6.45811">
        <ele>660</ele>
        <time>2022-07-17T07:15:07Z</time>
      </trkpt>
      <trkpt lat="45.71729" lon="6.45812">
        <ele>660</ele>
        <time>2022-07-17T07:15:08Z</time>
      </trkpt>
      <trkpt lat="45.71728" lon="6.45813">
        <ele>660</ele>
        <time>2022-07-17T07:15:09Z</time>
      </trkpt>
      <trkpt lat="45.71725" lon="6.45814">
        <ele>660</ele>
        <time>2022-07-17T07:15:10Z</time>
      </trkpt>
      <trkpt lat="45.71722" lon="6.45815">
        <ele>660</ele>
        <time>2022-07-17T07:15:11Z</time>
      </trkpt>
      <trkpt lat="45.71719" lon="6.45815">
        <ele>660</ele>
        <time>2022-07-17T07:15:12Z</time>
      </trkpt>
      <trkpt lat="45.71717" lon="6.45816">
        <ele>659</ele>
        <time>2022-07-17T07:15:13Z</time>
      </trkpt>
      <trkpt lat="45.71716" lon="6.45816">
        <ele>659</ele>
        <time>2022-07-17T07:15:14Z</time>
      </trkpt>
      <trkpt lat="45.71714" lon="6.45816">
        <ele>659</ele>
        <time>2022-07-17T07:15:15Z</time>
      </trkpt>
      <trkpt lat="45.71713" lon="6.45816">
        <ele>659</ele>
        <time>2022-07-17T07:15:16Z</time>
      </trkpt>
      <trkpt lat="45.71704" lon="6.45816">
        <ele>659</ele>
        <time>2022-07-17T07:15:17Z</time>
      </trkpt>
      <trkpt lat="45.71701" lon="6.45816">
        <ele>659</ele>
        <time>2022-07-17T07:15:18Z</time>
      </trkpt>
      <trkpt lat="45.71698" lon="6.45816">
        <ele>659</ele>
        <time>2022-07-17T07:15:19Z</time>
      </trkpt>
      <trkpt lat="45.71695" lon="6.45816">
        <ele>659</ele>
        <time>2022-07-17T07:15:20Z</time>
      </trkpt>
      <trkpt lat="45.71693" lon="6.45816">
        <ele>660</ele>
        <time>2022-07-17T07:15:21Z</time>
      </trkpt>
      <trkpt lat="45.71691" lon="6.45815">
        <ele>660</ele>
        <time>2022-07-17T07:15:22Z</time>
      </trkpt>
      <trkpt lat="45.71688" lon="6.45815">
        <ele>660</ele>
        <time>2022-07-17T07:15:23Z</time>
      </trkpt>
      <trkpt lat="45.71679" lon="6.45823">
        <ele>660</ele>
        <time>2022-07-17T07:15:33Z</time>
      </trkpt>
      <trkpt lat="45.71679" lon="6.45825">
        <ele>659</ele>
        <time>2022-07-17T07:15:36Z</time>
      </trkpt>
      <trkpt lat="45.71679" lon="6.45827">
        <ele>658</ele>
        <time>2022-07-17T07:15:37Z</time>
      </trkpt>
      <trkpt lat="45.71678" lon="6.45829">
        <ele>659</ele>
        <time>2022-07-17T07:15:38Z</time>
      </trkpt>
      <trkpt lat="45.71678" lon="6.4583">
        <ele>659</ele>
        <time>2022-07-17T07:15:39Z</time>
      </trkpt>
      <trkpt lat="45.71677" lon="6.45832">
        <ele>659</ele>
        <time>2022-07-17T07:15:40Z</time>
      </trkpt>
      <trkpt lat="45.71677" lon="6.45834">
        <ele>659</ele>
        <time>2022-07-17T07:15:41Z</time>
      </trkpt>
      <trkpt lat="45.71676" lon="6.45836">
        <ele>659</ele>
        <time>2022-07-17T07:15:42Z</time>
      </trkpt>
      <trkpt lat="45.71665" lon="6.45833">
        <ele>659</ele>
        <time>2022-07-17T07:15:43Z</time>
      </trkpt>
      <trkpt lat="45.71662" lon="6.45832">
        <ele>659</ele>
        <time>2022-07-17T07:15:45Z</time>
      </trkpt>
      <trkpt lat="45.71659" lon="6.4583">
        <ele>659</ele>
        <time>2022-07-17T07:15:46Z</time>
      </trkpt>
      <trkpt lat="45.71656" lon="6.45829">
        <ele>659</ele>
        <time>2022-07-17T07:15:47Z</time>
      </trkpt>
      <trkpt lat="45.71655" lon="6.45828">
        <ele>659</ele>
        <time>2022-07-17T07:15:48Z</time>
      </trkpt>
      <trkpt lat="45.71653" lon="6.45828">
        <ele>659</ele>
        <time>2022-07-17T07:15:49Z</time>
      </trkpt>
      <trkpt lat="45.71651" lon="6.45827">
        <ele>659</ele>
        <time>2022-07-17T07:15:50Z</time>
      </trkpt>
      <trkpt lat="45.7165" lon="6.45826">
        <ele>659</ele>
        <time>2022-07-17T07:15:51Z</time>
      </trkpt>
      <trkpt lat="45.71648" lon="6.45825">
        <ele>659</ele>
        <time>2022-07-17T07:15:52Z</time>
      </trkpt>
      <trkpt lat="45.71647" lon="6.45823">
        <ele>659</ele>
        <time>2022-07-17T07:15:53Z</time>
      </trkpt>
      <trkpt lat="45.71647" lon="6.45822">
        <ele>659</ele>
        <time>2022-07-17T07:15:54Z</time>
      </trkpt>
      <trkpt lat="45.71646" lon="6.4582">
        <ele>659</ele>
        <time>2022-07-17T07:15:55Z</time>
      </trkpt>
      <trkpt lat="45.71645" lon="6.45818">
        <ele>660</ele>
        <time>2022-07-17T07:15:56Z</time>
      </trkpt>
      <trkpt lat="45.71645" lon="6.45816">
        <ele>660</ele>
        <time>2022-07-17T07:15:57Z</time>
      </trkpt>
      <trkpt lat="45.71644" lon="6.45815">
        <ele>660</ele>
        <time>2022-07-17T07:15:58Z</time>
      </trkpt>
      <trkpt lat="45.71643" lon="6.45813">
        <ele>660</ele>
        <time>2022-07-17T07:15:59Z</time>
      </trkpt>
      <trkpt lat="45.71644" lon="6.45813">
        <ele>660</ele>
        <time>2022-07-17T07:16:00Z</time>
      </trkpt>
      <trkpt lat="45.71645" lon="6.45813">
        <ele>660</ele>
        <time>2022-07-17T07:16:02Z</time>
      </trkpt>
      <trkpt lat="45.71646" lon="6.45812">
        <ele>660</ele>
        <time>2022-07-17T07:16:04Z</time>
      </trkpt>
      <trkpt lat="45.71647" lon="6.45812">
        <ele>660</ele>
        <time>2022-07-17T07:16:06Z</time>
      </trkpt>
      <trkpt lat="45.71648" lon="6.45812">
        <ele>660</ele>
        <time>2022-07-17T07:16:08Z</time>
      </trkpt>
      <trkpt lat="45.71649" lon="6.45812">
        <ele>660</ele>
        <time>2022-07-17T07:16:11Z</time>
      </trkpt>
      <trkpt lat="45.7165" lon="6.45812">
        <ele>661</ele>
        <time>2022-07-17T07:16:14Z</time>
      </trkpt>
      <trkpt lat="45.71651" lon="6.45811">
        <ele>661</ele>
        <time>2022-07-17T07:16:16Z</time>
      </trkpt>
      <trkpt lat="45.71652" lon="6.45811">
        <ele>661</ele>
        <time>2022-07-17T07:16:18Z</time>
      </trkpt>
      <trkpt lat="45.71651" lon="6.45811">
        <ele>661</ele>
        <time>2022-07-17T07:16:22Z</time>
      </trkpt>
      <trkpt lat="45.7165" lon="6.45811">
        <ele>661</ele>
        <time>2022-07-17T07:16:25Z</time>
      </trkpt>
      <trkpt lat="45.7165" lon="6.45812">
        <ele>661</ele>
        <time>2022-07-17T07:16:26Z</time>
      </trkpt>
      <trkpt lat="45.71649" lon="6.45812">
        <ele>661</ele>
        <time>2022-07-17T07:16:28Z</time>
      </trkpt>
      <trkpt lat="45.71648" lon="6.45812">
        <ele>661</ele>
        <time>2022-07-17T07:16:31Z</time>
      </trkpt>
      <trkpt lat="45.71647" lon="6.45812">
        <ele>660</ele>
        <time>2022-07-17T07:16:33Z</time>
      </trkpt>
      <trkpt lat="45.71646" lon="6.45812">
        <ele>661</ele>
        <time>2022-07-17T07:16:36Z</time>
      </trkpt>
      <trkpt lat="45.71645" lon="6.45812">
        <ele>661</ele>
        <time>2022-07-17T07:16:39Z</time>
      </trkpt>
      <trkpt lat="45.71644" lon="6.45812">
        <ele>661</ele>
        <time>2022-07-17T07:16:42Z</time>
      </trkpt>
      <trkpt lat="45.71643" lon="6.45812">
        <ele>661</ele>
        <time>2022-07-17T07:16:45Z</time>
      </trkpt>
      <trkpt lat="45.71643" lon="6.45813">
        <ele>661</ele>
        <time>2022-07-17T07:16:46Z</time>
      </trkpt>
      <trkpt lat="45.71643" lon="6.45812">
        <ele>661</ele>
        <time>2022-07-17T07:16:48Z</time>
      </trkpt>
      <trkpt lat="45.71642" lon="6.45812">
        <ele>661</ele>
        <time>2022-07-17T07:16:50Z</time>
      </trkpt>
      <trkpt lat="45.71642" lon="6.45811">
        <ele>661</ele>
        <time>2022-07-17T07:16:55Z</time>
      </trkpt>
      <trkpt lat="45.71642" lon="6.4581">
        <ele>661</ele>
        <time>2022-07-17T07:17:02Z</time>
      </trkpt>
      <trkpt lat="45.71641" lon="6.4581">
        <ele>661</ele>
        <time>2022-07-17T07:17:03Z</time>
      </trkpt>
      <trkpt lat="45.71641" lon="6.45809">
        <ele>661</ele>
        <time>2022-07-17T07:17:09Z</time>
      </trkpt>
      <trkpt lat="45.7164" lon="6.45808">
        <ele>661</ele>
        <time>2022-07-17T07:17:16Z</time>
      </trkpt>
      <trkpt lat="45.7164" lon="6.45808">
        <ele>661</ele>
        <time>2022-07-17T07:17:21Z</time>
      </trkpt>
      <trkpt lat="45.7164" lon="6.45807">
        <ele>661</ele>
        <time>2022-07-17T07:17:23Z</time>
      </trkpt>
      <trkpt lat="45.71639" lon="6.45807">
        <ele>661</ele>
        <time>2022-07-17T07:17:29Z</time>
      </trkpt>
      <trkpt lat="45.71639" lon="6.45806">
        <ele>661</ele>
        <time>2022-07-17T07:17:30Z</time>
      </trkpt>
      <trkpt lat="45.71639" lon="6.45805">
        <ele>661</ele>
        <time>2022-07-17T07:17:37Z</time>
      </trkpt>
      <trkpt lat="45.71638" lon="6.45805">
        <ele>661</ele>
        <time>2022-07-17T07:17:42Z</time>
      </trkpt>
      <trkpt lat="45.71638" lon="6.45804">
        <ele>661</ele>
        <time>2022-07-17T07:17:44Z</time>
      </trkpt>
      <trkpt lat="45.71638" lon="6.45803">
        <ele>660</ele>
        <time>2022-07-17T07:17:51Z</time>
      </trkpt>
      <trkpt lat="45.71637" lon="6.45803">
        <ele>660</ele>
        <time>2022-07-17T07:17:55Z</time>
      </trkpt>
      <trkpt lat="45.71637" lon="6.45802">
        <ele>661</ele>
        <time>2022-07-17T07:17:58Z</time>
      </trkpt>
      <trkpt lat="45.71637" lon="6.45802">
        <ele>660</ele>
        <time>2022-07-17T07:18:11Z</time>
      </trkpt>
      <trkpt lat="45.71637" lon="6.45802">
        <ele>660</ele>
        <time>2022-07-17T07:18:27Z</time>
      </trkpt>
      <trkpt lat="45.71641" lon="6.45802">
        <ele>661</ele>
        <time>2022-07-17T07:18:33Z</time>
      </trkpt>
      <trkpt lat="45.7164" lon="6.45802">
        <ele>661</ele>
        <time>2022-07-17T07:18:44Z</time>
      </trkpt>
      <trkpt lat="45.7164" lon="6.45802">
        <ele>661</ele>
        <time>2022-07-17T07:18:45Z</time>
      </trkpt>
      <trkpt lat="45.71639" lon="6.45802">
        <ele>661</ele>
        <time>2022-07-17T07:18:54Z</time>
      </trkpt>
      <trkpt lat="45.71639" lon="6.45802">
        <ele>661</ele>
        <time>2022-07-17T07:19:02Z</time>
      </trkpt>
      <trkpt lat="45.71638" lon="6.45802">
        <ele>661</ele>
        <time>2022-07-17T07:19:04Z</time>
      </trkpt>
      <trkpt lat="45.71637" lon="6.45802">
        <ele>661</ele>
        <time>2022-07-17T07:19:15Z</time>
      </trkpt>
      <trkpt lat="45.71637" lon="6.45802">
        <ele>661</ele>
        <time>2022-07-17T07:19:20Z</time>
      </trkpt>
      <trkpt lat="45.71636" lon="6.45802">
        <ele>661</ele>
        <time>2022-07-17T07:19:25Z</time>
      </trkpt>
      <trkpt lat="45.71635" lon="6.45802">
        <ele>661</ele>
        <time>2022-07-17T07:19:35Z</time>
      </trkpt>
      <trkpt lat="45.71635" lon="6.45802">
        <ele>661</ele>
        <time>2022-07-17T07:19:38Z</time>
      </trkpt>
      <trkpt lat="45.71634" lon="6.45802">
        <ele>660</ele>
        <time>2022-07-17T07:19:46Z</time>
      </trkpt>
      <trkpt lat="45.71634" lon="6.45802">
        <ele>660</ele>
        <time>2022-07-17T07:19:55Z</time>
      </trkpt>
      <trkpt lat="45.71633" lon="6.45802">
        <ele>660</ele>
        <time>2022-07-17T07:19:56Z</time>
      </trkpt>
      <trkpt lat="45.71632" lon="6.45802">
        <ele>660</ele>
        <time>2022-07-17T07:20:06Z</time>
      </trkpt>
      <trkpt lat="45.7163" lon="6.45802">
        <ele>660</ele>
        <time>2022-07-17T07:20:10Z</time>
      </trkpt>
      <trkpt lat="45.71629" lon="6.45802">
        <ele>660</ele>
        <time>2022-07-17T07:20:11Z</time>
      </trkpt>
      <trkpt lat="45.71627" lon="6.45803">
        <ele>660</ele>
        <time>2022-07-17T07:20:12Z</time>
      </trkpt>
      <trkpt lat="45.71625" lon="6.45803">
        <ele>660</ele>
        <time>2022-07-17T07:20:13Z</time>
      </trkpt>
      <trkpt lat="45.71623" lon="6.45803">
        <ele>660</ele>
        <time>2022-07-17T07:20:14Z</time>
      </trkpt>
      <trkpt lat="45.71622" lon="6.45803">
        <ele>660</ele>
        <time>2022-07-17T07:20:15Z</time>
      </trkpt>
      <trkpt lat="45.71619" lon="6.45803">
        <ele>660</ele>
        <time>2022-07-17T07:20:16Z</time>
      </trkpt>
      <trkpt lat="45.71616" lon="6.45802">
        <ele>660</ele>
        <time>2022-07-17T07:20:17Z</time>
      </trkpt>
      <trkpt lat="45.71614" lon="6.45802">
        <ele>660</ele>
        <time>2022-07-17T07:20:18Z</time>
      </trkpt>
      <trkpt lat="45.71611" lon="6.45802">
        <ele>660</ele>
        <time>2022-07-17T07:20:19Z</time>
      </trkpt>
      <trkpt lat="45.71608" lon="6.45801">
        <ele>660</ele>
        <time>2022-07-17T07:20:20Z</time>
      </trkpt>
      <trkpt lat="45.71604" lon="6.45801">
        <ele>660</ele>
        <time>2022-07-17T07:20:21Z</time>
      </trkpt>
      <trkpt lat="45.71601" lon="6.45801">
        <ele>660</ele>
        <time>2022-07-17T07:20:22Z</time>
      </trkpt>
      <trkpt lat="45.71602" lon="6.45801">
        <ele>660</ele>
        <time>2022-07-17T07:20:23Z</time>
      </trkpt>
      <trkpt lat="45.71602" lon="6.45802">
        <ele>661</ele>
        <time>2022-07-17T07:20:24Z</time>
      </trkpt>
      <trkpt lat="45.71603" lon="6.45802">
        <ele>661</ele>
        <time>2022-07-17T07:20:25Z</time>
      </trkpt>
      <trkpt lat="45.71604" lon="6.45802">
        <ele>661</ele>
        <time>2022-07-17T07:20:26Z</time>
      </trkpt>
      <trkpt lat="45.71605" lon="6.45803">
        <ele>661</ele>
        <time>2022-07-17T07:20:27Z</time>
      </trkpt>
      <trkpt lat="45.71606" lon="6.45803">
        <ele>661</ele>
        <time>2022-07-17T07:20:28Z</time>
      </trkpt>
      <trkpt lat="45.71607" lon="6.45804">
        <ele>661</ele>
        <time>2022-07-17T07:20:30Z</time>
      </trkpt>
      <trkpt lat="45.71608" lon="6.45804">
        <ele>661</ele>
        <time>2022-07-17T07:20:31Z</time>
      </trkpt>
      <trkpt lat="45.71609" lon="6.45804">
        <ele>661</ele>
        <time>2022-07-17T07:20:32Z</time>
      </trkpt>
      <trkpt lat="45.7161" lon="6.45805">
        <ele>661</ele>
        <time>2022-07-17T07:20:33Z</time>
      </trkpt>
      <trkpt lat="45.71611" lon="6.45804">
        <ele>661</ele>
        <time>2022-07-17T07:20:34Z</time>
      </trkpt>
      <trkpt lat="45.71613" lon="6.45803">
        <ele>661</ele>
        <time>2022-07-17T07:20:35Z</time>
      </trkpt>
      <trkpt lat="45.71615" lon="6.45803">
        <ele>661</ele>
        <time>2022-07-17T07:20:36Z</time>
      </trkpt>
      <trkpt lat="45.71616" lon="6.45802">
        <ele>660</ele>
        <time>2022-07-17T07:20:37Z</time>
      </trkpt>
      <trkpt lat="45.71618" lon="6.45802">
        <ele>660</ele>
        <time>2022-07-17T07:20:39Z</time>
      </trkpt>
      <trkpt lat="45.71619" lon="6.45801">
        <ele>660</ele>
        <time>2022-07-17T07:20:40Z</time>
      </trkpt>
      <trkpt lat="45.71613" lon="6.45806">
        <ele>660</ele>
        <time>2022-07-17T07:20:41Z</time>
      </trkpt>
      <trkpt lat="45.71606" lon="6.4581">
        <ele>660</ele>
        <time>2022-07-17T07:20:42Z</time>
      </trkpt>
      <trkpt lat="45.71599" lon="6.45815">
        <ele>660</ele>
        <time>2022-07-17T07:20:43Z</time>
      </trkpt>
      <trkpt lat="45.71598" lon="6.45814">
        <ele>660</ele>
        <time>2022-07-17T07:20:45Z</time>
      </trkpt>
      <trkpt lat="45.71597" lon="6.45814">
        <ele>660</ele>
        <time>2022-07-17T07:20:46Z</time>
      </trkpt>
      <trkpt lat="45.71595" lon="6.45813">
        <ele>660</ele>
        <time>2022-07-17T07:20:47Z</time>
      </trkpt>
      <trkpt lat="45.71594" lon="6.45813">
        <ele>660</ele>
        <time>2022-07-17T07:20:48Z</time>
      </trkpt>
      <trkpt lat="45.71593" lon="6.45812">
        <ele>660</ele>
        <time>2022-07-17T07:20:49Z</time>
      </trkpt>
      <trkpt lat="45.71591" lon="6.45811">
        <ele>660</ele>
        <time>2022-07-17T07:20:50Z</time>
      </trkpt>
      <trkpt lat="45.7159" lon="6.45811">
        <ele>660</ele>
        <time>2022-07-17T07:20:51Z</time>
      </trkpt>
      <trkpt lat="45.71588" lon="6.45809">
        <ele>660</ele>
        <time>2022-07-17T07:20:52Z</time>
      </trkpt>
      <trkpt lat="45.71587" lon="6.45808">
        <ele>660</ele>
        <time>2022-07-17T07:20:53Z</time>
      </trkpt>
      <trkpt lat="45.71585" lon="6.45806">
        <ele>661</ele>
        <time>2022-07-17T07:20:54Z</time>
      </trkpt>
      <trkpt lat="45.71584" lon="6.45805">
        <ele>661</ele>
        <time>2022-07-17T07:20:55Z</time>
      </trkpt>
      <trkpt lat="45.71582" lon="6.45803">
        <ele>661</ele>
        <time>2022-07-17T07:20:56Z</time>
      </trkpt>
      <trkpt lat="45.71581" lon="6.45802">
        <ele>661</ele>
        <time>2022-07-17T07:20:57Z</time>
      </trkpt>
      <trkpt lat="45.7158" lon="6.45801">
        <ele>661</ele>
        <time>2022-07-17T07:20:58Z</time>
      </trkpt>
      <trkpt lat="45.71581" lon="6.458">
        <ele>661</ele>
        <time>2022-07-17T07:20:59Z</time>
      </trkpt>
      <trkpt lat="45.71582" lon="6.458">
        <ele>661</ele>
        <time>2022-07-17T07:21:00Z</time>
      </trkpt>
      <trkpt lat="45.71583" lon="6.458">
        <ele>661</ele>
        <time>2022-07-17T07:21:01Z</time>
      </trkpt>
      <trkpt lat="45.71584" lon="6.45799">
        <ele>661</ele>
        <time>2022-07-17T07:21:02Z</time>
      </trkpt>
      <trkpt lat="45.71585" lon="6.45799">
        <ele>661</ele>
        <time>2022-07-17T07:21:03Z</time>
      </trkpt>
      <trkpt lat="45.71586" lon="6.45799">
        <ele>661</ele>
        <time>2022-07-17T07:21:04Z</time>
      </trkpt>
      <trkpt lat="45.71587" lon="6.45798">
        <ele>661</ele>
        <time>2022-07-17T07:21:05Z</time>
      </trkpt>
      <trkpt lat="45.71588" lon="6.45798">
        <ele>661</ele>
        <time>2022-07-17T07:21:06Z</time>
      </trkpt>
      <trkpt lat="45.71589" lon="6.45798">
        <ele>661</ele>
        <time>2022-07-17T07:21:07Z</time>
      </trkpt>
      <trkpt lat="45.7159" lon="6.45797">
        <ele>661</ele>
        <time>2022-07-17T07:21:08Z</time>
      </trkpt>
      <trkpt lat="45.71591" lon="6.45797">
        <ele>661</ele>
        <time>2022-07-17T07:21:09Z</time>
      </trkpt>
      <trkpt lat="45.71592" lon="6.45797">
        <ele>661</ele>
        <time>2022-07-17T07:21:10Z</time>
      </trkpt>
      <trkpt lat="45.71598" lon="6.45795">
        <ele>661</ele>
        <time>2022-07-17T07:21:11Z</time>
      </trkpt>
      <trkpt lat="45.71603" lon="6.45793">
        <ele>661</ele>
        <time>2022-07-17T07:21:12Z</time>
      </trkpt>
      <trkpt lat="45.71609" lon="6.45791">
        <ele>661</ele>
        <time>2022-07-17T07:21:13Z</time>
      </trkpt>
      <trkpt lat="45.71613" lon="6.45789">
        <ele>661</ele>
        <time>2022-07-17T07:21:14Z</time>
      </trkpt>
      <trkpt lat="45.71624" lon="6.4579">
        <ele>660</ele>
        <time>2022-07-17T07:21:15Z</time>
      </trkpt>
      <trkpt lat="45.71634" lon="6.45795">
        <ele>660</ele>
        <time>2022-07-17T07:21:16Z</time>
      </trkpt>
      <trkpt lat="45.71637" lon="6.45796">
        <ele>660</ele>
        <time>2022-07-17T07:21:17Z</time>
      </trkpt>
      <trkpt lat="45.7164" lon="6.45797">
        <ele>660</ele>
        <time>2022-07-17T07:21:18Z</time>
      </trkpt>
      <trkpt lat="45.71651" lon="6.45801">
        <ele>660</ele>
        <time>2022-07-17T07:21:19Z</time>
      </trkpt>
      <trkpt lat="45.71655" lon="6.45802">
        <ele>660</ele>
        <time>2022-07-17T07:21:20Z</time>
      </trkpt>
      <trkpt lat="45.71655" lon="6.45805">
        <ele>660</ele>
        <time>2022-07-17T07:21:21Z</time>
      </trkpt>
      <trkpt lat="45.71654" lon="6.45807">
        <ele>660</ele>
        <time>2022-07-17T07:21:22Z</time>
      </trkpt>
      <trkpt lat="45.71653" lon="6.4581">
        <ele>660</ele>
        <time>2022-07-17T07:21:23Z</time>
      </trkpt>
      <trkpt lat="45.71652" lon="6.45813">
        <ele>661</ele>
        <time>2022-07-17T07:21:24Z</time>
      </trkpt>
      <trkpt lat="45.71652" lon="6.45815">
        <ele>661</ele>
        <time>2022-07-17T07:21:25Z</time>
      </trkpt>
      <trkpt lat="45.71638" lon="6.45825">
        <ele>661</ele>
        <time>2022-07-17T07:21:26Z</time>
      </trkpt>
      <trkpt lat="45.71633" lon="6.45829">
        <ele>661</ele>
        <time>2022-07-17T07:21:28Z</time>
      </trkpt>
      <trkpt lat="45.71628" lon="6.45833">
        <ele>661</ele>
        <time>2022-07-17T07:21:29Z</time>
      </trkpt>
      <trkpt lat="45.71623" lon="6.45837">
        <ele>661</ele>
        <time>2022-07-17T07:21:30Z</time>
      </trkpt>
      <trkpt lat="45.71617" lon="6.45839">
        <ele>661</ele>
        <time>2022-07-17T07:21:31Z</time>
      </trkpt>
      <trkpt lat="45.71616" lon="6.45838">
        <ele>661</ele>
        <time>2022-07-17T07:21:33Z</time>
      </trkpt>
      <trkpt lat="45.71614" lon="6.45837">
        <ele>661</ele>
        <time>2022-07-17T07:21:34Z</time>
      </trkpt>
      <trkpt lat="45.71612" lon="6.45835">
        <ele>661</ele>
        <time>2022-07-17T07:21:35Z</time>
      </trkpt>
      <trkpt lat="45.7161" lon="6.45834">
        <ele>661</ele>
        <time>2022-07-17T07:21:36Z</time>
      </trkpt>
      <trkpt lat="45.71609" lon="6.45833">
        <ele>661</ele>
        <time>2022-07-17T07:21:37Z</time>
      </trkpt>
      <trkpt lat="45.71605" lon="6.45832">
        <ele>661</ele>
        <time>2022-07-17T07:21:38Z</time>
      </trkpt>
      <trkpt lat="45.71602" lon="6.45832">
        <ele>661</ele>
        <time>2022-07-17T07:21:39Z</time>
      </trkpt>
      <trkpt lat="45.71599" lon="6.45831">
        <ele>661</ele>
        <time>2022-07-17T07:21:40Z</time>
      </trkpt>
      <trkpt lat="45.71605" lon="6.45824">
        <ele>661</ele>
        <time>2022-07-17T07:21:41Z</time>
      </trkpt>
      <trkpt lat="45.7161" lon="6.45816">
        <ele>661</ele>
        <time>2022-07-17T07:21:42Z</time>
      </trkpt>
      <trkpt lat="45.71616" lon="6.45809">
        <ele>661</ele>
        <time>2022-07-17T07:21:43Z</time>
      </trkpt>
      <trkpt lat="45.71621" lon="6.45802">
        <ele>661</ele>
        <time>2022-07-17T07:21:44Z</time>
      </trkpt>
      <trkpt lat="45.71631" lon="6.45796">
        <ele>661</ele>
        <time>2022-07-17T07:21:45Z</time>
      </trkpt>
      <trkpt lat="45.71657" lon="6.4579">
        <ele>661</ele>
        <time>2022-07-17T07:21:47Z</time>
      </trkpt>
      <trkpt lat="45.7166" lon="6.4579">
        <ele>661</ele>
        <time>2022-07-17T07:21:48Z</time>
      </trkpt>
      <trkpt lat="45.7167" lon="6.4579">
        <ele>661</ele>
        <time>2022-07-17T07:21:49Z</time>
      </trkpt>
      <trkpt lat="45.71673" lon="6.45789">
        <ele>661</ele>
        <time>2022-07-17T07:21:50Z</time>
      </trkpt>
      <trkpt lat="45.71679" lon="6.45789">
        <ele>661</ele>
        <time>2022-07-17T07:21:51Z</time>
      </trkpt>
      <trkpt lat="45.71677" lon="6.45789">
        <ele>661</ele>
        <time>2022-07-17T07:21:53Z</time>
      </trkpt>
      <trkpt lat="45.71676" lon="6.45789">
        <ele>661</ele>
        <time>2022-07-17T07:21:54Z</time>
      </trkpt>
      <trkpt lat="45.71674" lon="6.4579">
        <ele>661</ele>
        <time>2022-07-17T07:21:55Z</time>
      </trkpt>
      <trkpt lat="45.71672" lon="6.4579">
        <ele>661</ele>
        <time>2022-07-17T07:21:56Z</time>
      </trkpt>
      <trkpt lat="45.71671" lon="6.45791">
        <ele>661</ele>
        <time>2022-07-17T07:21:57Z</time>
      </trkpt>
      <trkpt lat="45.71669" lon="6.45791">
        <ele>661</ele>
        <time>2022-07-17T07:21:58Z</time>
      </trkpt>
      <trkpt lat="45.7167" lon="6.45788">
        <ele>661</ele>
        <time>2022-07-17T07:21:59Z</time>
      </trkpt>
      <trkpt lat="45.71671" lon="6.45785">
        <ele>661</ele>
        <time>2022-07-17T07:22:00Z</time>
      </trkpt>
      <trkpt lat="45.71672" lon="6.45782">
        <ele>661</ele>
        <time>2022-07-17T07:22:01Z</time>
      </trkpt>
      <trkpt lat="45.71673" lon="6.45779">
        <ele>661</ele>
        <time>2022-07-17T07:22:02Z</time>
      </trkpt>
      <trkpt lat="45.71676" lon="6.45778">
        <ele>661</ele>
        <time>2022-07-17T07:22:03Z</time>
      </trkpt>
      <trkpt lat="45.71679" lon="6.45777">
        <ele>661</ele>
        <time>2022-07-17T07:22:04Z</time>
      </trkpt>
      <trkpt lat="45.71681" lon="6.45776">
        <ele>661</ele>
        <time>2022-07-17T07:22:05Z</time>
      </trkpt>
      <trkpt lat="45.71684" lon="6.45775">
        <ele>661</ele>
        <time>2022-07-17T07:22:06Z</time>
      </trkpt>
      <trkpt lat="45.71686" lon="6.45774">
        <ele>661</ele>
        <time>2022-07-17T07:22:07Z</time>
      </trkpt>
      <trkpt lat="45.71688" lon="6.45773">
        <ele>661</ele>
        <time>2022-07-17T07:22:08Z</time>
      </trkpt>
      <trkpt lat="45.7169" lon="6.45772">
        <ele>661</ele>
        <time>2022-07-17T07:22:09Z</time>
      </trkpt>
      <trkpt lat="45.71692" lon="6.45772">
        <ele>661</ele>
        <time>2022-07-17T07:22:10Z</time>
      </trkpt>
      <trkpt lat="45.71697" lon="6.45768">
        <ele>661</ele>
        <time>2022-07-17T07:22:11Z</time>
      </trkpt>
      <trkpt lat="45.71693" lon="6.45768">
        <ele>661</ele>
        <time>2022-07-17T07:22:12Z</time>
      </trkpt>
      <trkpt lat="45.7169" lon="6.45768">
        <ele>661</ele>
        <time>2022-07-17T07:22:13Z</time>
      </trkpt>
      <trkpt lat="45.71686" lon="6.45769">
        <ele>661</ele>
        <time>2022-07-17T07:22:14Z</time>
      </trkpt>
      <trkpt lat="45.71682" lon="6.4577">
        <ele>661</ele>
        <time>2022-07-17T07:22:15Z</time>
      </trkpt>
      <trkpt lat="45.7167" lon="6.45774">
        <ele>661</ele>
        <time>2022-07-17T07:22:16Z</time>
      </trkpt>
      <trkpt lat="45.71667" lon="6.45775">
        <ele>661</ele>
        <time>2022-07-17T07:22:17Z</time>
      </trkpt>
      <trkpt lat="45.71663" lon="6.45776">
        <ele>661</ele>
        <time>2022-07-17T07:22:18Z</time>
      </trkpt>
      <trkpt lat="45.71665" lon="6.45782">
        <ele>661</ele>
        <time>2022-07-17T07:22:19Z</time>
      </trkpt>
      <trkpt lat="45.71667" lon="6.45788">
        <ele>661</ele>
        <time>2022-07-17T07:22:20Z</time>
      </trkpt>
      <trkpt lat="45.71665" lon="6.4579">
        <ele>661</ele>
        <time>2022-07-17T07:22:21Z</time>
      </trkpt>
      <trkpt lat="45.71663" lon="6.45792">
        <ele>661</ele>
        <time>2022-07-17T07:22:22Z</time>
      </trkpt>
      <trkpt lat="45.71662" lon="6.45794">
        <ele>661</ele>
        <time>2022-07-17T07:22:23Z</time>
      </trkpt>
      <trkpt lat="45.7166" lon="6.45796">
        <ele>661</ele>
        <time>2022-07-17T07:22:24Z</time>
      </trkpt>
      <trkpt lat="45.71659" lon="6.45798">
        <ele>661</ele>
        <time>2022-07-17T07:22:25Z</time>
      </trkpt>
      <trkpt lat="45.71656" lon="6.458">
        <ele>661</ele>
        <time>2022-07-17T07:22:26Z</time>
      </trkpt>
      <trkpt lat="45.71653" lon="6.45803">
        <ele>661</ele>
        <time>2022-07-17T07:22:27Z</time>
      </trkpt>
      <trkpt lat="45.7165" lon="6.45805">
        <ele>661</ele>
        <time>2022-07-17T07:22:28Z</time>
      </trkpt>
      <trkpt lat="45.71646" lon="6.45807">
        <ele>661</ele>
        <time>2022-07-17T07:22:29Z</time>
      </trkpt>
      <trkpt lat="45.71642" lon="6.4581">
        <ele>661</ele>
        <time>2022-07-17T07:22:30Z</time>
      </trkpt>
      <trkpt lat="45.71632" lon="6.45813">
        <ele>661</ele>
        <time>2022-07-17T07:22:31Z</time>
      </trkpt>
      <trkpt lat="45.71623" lon="6.45817">
        <ele>661</ele>
        <time>2022-07-17T07:22:32Z</time>
      </trkpt>
      <trkpt lat="45.71607" lon="6.45823">
        <ele>661</ele>
        <time>2022-07-17T07:22:33Z</time>
      </trkpt>
      <trkpt lat="45.71558" lon="6.45831">
        <ele>661</ele>
        <time>2022-07-17T07:22:39Z</time>
        <extensions>
          <visugpx:TrkExtension xmlns:visugpx="https://www.visugpx.com/editgpx/">
            <visugpx:node>1</visugpx:node>
            </visugpx:TrkExtension>
        </extensions>
      </trkpt>
    </trkseg>
  </trk>
</gpx>